<?xml version="1.0" encoding="UTF-8" standalone="no" ?>
<gpx xmlns="http://www.topografix.com/GPX/1/1" xmlns:xsi="http://www.w3.org/2001/XMLSchema-instance" xsi:schemaLocation="http://www.topografix.com/GPX/1/1 http://www.topografix.com/GPX/1/1/gpx.xsd" version="1.1" creator="VisuGPX - https://www.visugpx.com">
  <metadata>
    <name>Cime de Cornillon </name>
    <desc><![CDATA[une rando bien alpine !

Dénivelé important. Il faut avoir le pied montagnard dans ce type de terrain et avoir un peu le sens de l’itinéraire.

Aucun problème les 1000 premiers m de dénivelé jusqu’à l’Âne; Depuis Rochetaillée, on suit un chemin plus ou moins marqué au sol mais avec de nombreuses marques rouges sur les arbres.Des passages câblés en foret facilite la montée, certains demande de l'attention.

Ensuite, l'itinéraire se complique un peu, il n'y a guère de trace au sol mais en gros il faut tirer main droite en allant chercher ces couloirs à chamois qui nous amènent vers l’arête NE. C’est assez raide et il faut parfois s’aider des mains. Quand on rejoint l arête, le rocher est bon. et l’itinéraire est ensuite évident pour les 400 derniers m sans problème particulier. 
Plusieurs choix de descente, on a choisi de suivre l’arête et de rejoindre Oulles sans passer par la combe Forane. Il faut être un attentif entre le point 2460 et 2451 mais ça passe;

départ 7h30, descente par Oulles et le beau chemin de Malaine. Rochetaillée à 16h45]]></desc>
  </metadata>
  <trk>
    <name><![CDATA[Cornillon depuis Rochetailée]]></name>
    <trkseg>
      <trkpt lat="45.11479" lon="6.00405">
        <ele>720.40002441406</ele>
        <time>2024-10-15T05:35:26.000Z</time>
      </trkpt>
      <trkpt lat="45.11465" lon="6.00404">
        <ele>720.20001220703</ele>
        <time>2024-10-15T05:35:28.000Z</time>
      </trkpt>
      <trkpt lat="45.11463" lon="6.00401">
        <ele>720.20001220703</ele>
        <time>2024-10-15T05:35:29.000Z</time>
      </trkpt>
      <trkpt lat="45.11475" lon="6.004">
        <ele>720.40002441406</ele>
        <time>2024-10-15T05:35:30.000Z</time>
      </trkpt>
      <trkpt lat="45.11482" lon="6.00398">
        <ele>720.20001220703</ele>
        <time>2024-10-15T05:35:31.000Z</time>
      </trkpt>
      <trkpt lat="45.11487" lon="6.00398">
        <ele>720.20001220703</ele>
        <time>2024-10-15T05:35:32.000Z</time>
      </trkpt>
      <trkpt lat="45.11489" lon="6.00398">
        <ele>720.20001220703</ele>
        <time>2024-10-15T05:35:33.000Z</time>
      </trkpt>
      <trkpt lat="45.1149" lon="6.00396">
        <ele>720.20001220703</ele>
        <time>2024-10-15T05:35:34.000Z</time>
      </trkpt>
      <trkpt lat="45.1149" lon="6.00395">
        <ele>720.20001220703</ele>
        <time>2024-10-15T05:35:35.000Z</time>
      </trkpt>
      <trkpt lat="45.1149" lon="6.00394">
        <ele>720.20001220703</ele>
        <time>2024-10-15T05:35:36.000Z</time>
      </trkpt>
      <trkpt lat="45.11487" lon="6.00393">
        <ele>720.20001220703</ele>
        <time>2024-10-15T05:35:37.000Z</time>
      </trkpt>
      <trkpt lat="45.11484" lon="6.00392">
        <ele>720.20001220703</ele>
        <time>2024-10-15T05:35:38.000Z</time>
      </trkpt>
      <trkpt lat="45.11484" lon="6.00391">
        <ele>720.20001220703</ele>
        <time>2024-10-15T05:35:39.000Z</time>
      </trkpt>
      <trkpt lat="45.11485" lon="6.00391">
        <ele>720.20001220703</ele>
        <time>2024-10-15T05:35:40.000Z</time>
      </trkpt>
      <trkpt lat="45.11485" lon="6.00391">
        <ele>720.20001220703</ele>
        <time>2024-10-15T05:35:41.000Z</time>
      </trkpt>
      <trkpt lat="45.11485" lon="6.00391">
        <ele>720</ele>
        <time>2024-10-15T05:35:42.000Z</time>
      </trkpt>
      <trkpt lat="45.11485" lon="6.00392">
        <ele>720</ele>
        <time>2024-10-15T05:35:43.000Z</time>
      </trkpt>
      <trkpt lat="45.11486" lon="6.00393">
        <ele>720</ele>
        <time>2024-10-15T05:35:44.000Z</time>
      </trkpt>
      <trkpt lat="45.11486" lon="6.00393">
        <ele>720</ele>
        <time>2024-10-15T05:35:45.000Z</time>
      </trkpt>
      <trkpt lat="45.11487" lon="6.00394">
        <ele>720</ele>
        <time>2024-10-15T05:35:46.000Z</time>
      </trkpt>
      <trkpt lat="45.11488" lon="6.00393">
        <ele>720</ele>
        <time>2024-10-15T05:35:47.000Z</time>
      </trkpt>
      <trkpt lat="45.11488" lon="6.00392">
        <ele>720</ele>
        <time>2024-10-15T05:35:48.000Z</time>
      </trkpt>
      <trkpt lat="45.11488" lon="6.00392">
        <ele>720</ele>
        <time>2024-10-15T05:35:49.000Z</time>
      </trkpt>
      <trkpt lat="45.11489" lon="6.0039">
        <ele>720</ele>
        <time>2024-10-15T05:35:50.000Z</time>
      </trkpt>
      <trkpt lat="45.11488" lon="6.0039">
        <ele>720</ele>
        <time>2024-10-15T05:35:51.000Z</time>
      </trkpt>
      <trkpt lat="45.11488" lon="6.00391">
        <ele>720</ele>
        <time>2024-10-15T05:35:52.000Z</time>
      </trkpt>
      <trkpt lat="45.11489" lon="6.00391">
        <ele>720</ele>
        <time>2024-10-15T05:35:53.000Z</time>
      </trkpt>
      <trkpt lat="45.11488" lon="6.00391">
        <ele>720</ele>
        <time>2024-10-15T05:35:54.000Z</time>
      </trkpt>
      <trkpt lat="45.11488" lon="6.00391">
        <ele>720</ele>
        <time>2024-10-15T05:35:55.000Z</time>
      </trkpt>
      <trkpt lat="45.11488" lon="6.00391">
        <ele>720</ele>
        <time>2024-10-15T05:35:56.000Z</time>
      </trkpt>
      <trkpt lat="45.11488" lon="6.00391">
        <ele>720</ele>
        <time>2024-10-15T05:35:57.000Z</time>
      </trkpt>
      <trkpt lat="45.11488" lon="6.00391">
        <ele>720</ele>
        <time>2024-10-15T05:35:58.000Z</time>
      </trkpt>
      <trkpt lat="45.11488" lon="6.00391">
        <ele>720</ele>
        <time>2024-10-15T05:35:59.000Z</time>
      </trkpt>
      <trkpt lat="45.11488" lon="6.00391">
        <ele>720</ele>
        <time>2024-10-15T05:36:00.000Z</time>
      </trkpt>
      <trkpt lat="45.11488" lon="6.00391">
        <ele>720</ele>
        <time>2024-10-15T05:36:01.000Z</time>
      </trkpt>
      <trkpt lat="45.11488" lon="6.00391">
        <ele>720</ele>
        <time>2024-10-15T05:36:02.000Z</time>
      </trkpt>
      <trkpt lat="45.11488" lon="6.00391">
        <ele>720</ele>
        <time>2024-10-15T05:36:03.000Z</time>
      </trkpt>
      <trkpt lat="45.11488" lon="6.00391">
        <ele>719.79998779297</ele>
        <time>2024-10-15T05:36:04.000Z</time>
      </trkpt>
      <trkpt lat="45.11488" lon="6.00391">
        <ele>720</ele>
        <time>2024-10-15T05:36:05.000Z</time>
      </trkpt>
      <trkpt lat="45.11488" lon="6.00391">
        <ele>720</ele>
        <time>2024-10-15T05:36:06.000Z</time>
      </trkpt>
      <trkpt lat="45.11488" lon="6.00391">
        <ele>720</ele>
        <time>2024-10-15T05:36:07.000Z</time>
      </trkpt>
      <trkpt lat="45.11488" lon="6.00391">
        <ele>720</ele>
        <time>2024-10-15T05:36:08.000Z</time>
      </trkpt>
      <trkpt lat="45.11488" lon="6.00391">
        <ele>720</ele>
        <time>2024-10-15T05:36:09.000Z</time>
      </trkpt>
      <trkpt lat="45.11488" lon="6.00391">
        <ele>720</ele>
        <time>2024-10-15T05:36:10.000Z</time>
      </trkpt>
      <trkpt lat="45.11488" lon="6.00392">
        <ele>720</ele>
        <time>2024-10-15T05:36:11.000Z</time>
      </trkpt>
      <trkpt lat="45.11488" lon="6.00392">
        <ele>720.20001220703</ele>
        <time>2024-10-15T05:36:12.000Z</time>
      </trkpt>
      <trkpt lat="45.11488" lon="6.00392">
        <ele>720.20001220703</ele>
        <time>2024-10-15T05:36:13.000Z</time>
      </trkpt>
      <trkpt lat="45.11488" lon="6.00393">
        <ele>720.40002441406</ele>
        <time>2024-10-15T05:36:14.000Z</time>
      </trkpt>
      <trkpt lat="45.11488" lon="6.00393">
        <ele>720.79998779297</ele>
        <time>2024-10-15T05:36:15.000Z</time>
      </trkpt>
      <trkpt lat="45.11488" lon="6.00393">
        <ele>720.79998779297</ele>
        <time>2024-10-15T05:36:16.000Z</time>
      </trkpt>
      <trkpt lat="45.11488" lon="6.00393">
        <ele>721</ele>
        <time>2024-10-15T05:36:17.000Z</time>
      </trkpt>
      <trkpt lat="45.11488" lon="6.00393">
        <ele>721.20001220703</ele>
        <time>2024-10-15T05:36:18.000Z</time>
      </trkpt>
      <trkpt lat="45.11488" lon="6.00394">
        <ele>721.40002441406</ele>
        <time>2024-10-15T05:36:19.000Z</time>
      </trkpt>
      <trkpt lat="45.11488" lon="6.00394">
        <ele>721.59997558594</ele>
        <time>2024-10-15T05:36:20.000Z</time>
      </trkpt>
      <trkpt lat="45.11487" lon="6.00395">
        <ele>722</ele>
        <time>2024-10-15T05:36:21.000Z</time>
      </trkpt>
      <trkpt lat="45.11486" lon="6.00395">
        <ele>722</ele>
        <time>2024-10-15T05:36:22.000Z</time>
      </trkpt>
      <trkpt lat="45.11485" lon="6.00396">
        <ele>722</ele>
        <time>2024-10-15T05:36:23.000Z</time>
      </trkpt>
      <trkpt lat="45.11485" lon="6.00396">
        <ele>722.20001220703</ele>
        <time>2024-10-15T05:36:24.000Z</time>
      </trkpt>
      <trkpt lat="45.11484" lon="6.00396">
        <ele>722.40002441406</ele>
        <time>2024-10-15T05:36:25.000Z</time>
      </trkpt>
      <trkpt lat="45.11483" lon="6.00397">
        <ele>722.79998779297</ele>
        <time>2024-10-15T05:36:26.000Z</time>
      </trkpt>
      <trkpt lat="45.11483" lon="6.00397">
        <ele>723</ele>
        <time>2024-10-15T05:36:27.000Z</time>
      </trkpt>
      <trkpt lat="45.11483" lon="6.00398">
        <ele>723.20001220703</ele>
        <time>2024-10-15T05:36:28.000Z</time>
      </trkpt>
      <trkpt lat="45.11482" lon="6.00399">
        <ele>723.40002441406</ele>
        <time>2024-10-15T05:36:29.000Z</time>
      </trkpt>
      <trkpt lat="45.11482" lon="6.004">
        <ele>723.40002441406</ele>
        <time>2024-10-15T05:36:30.000Z</time>
      </trkpt>
      <trkpt lat="45.11481" lon="6.00401">
        <ele>723.59997558594</ele>
        <time>2024-10-15T05:36:31.000Z</time>
      </trkpt>
      <trkpt lat="45.11481" lon="6.00401">
        <ele>723.79998779297</ele>
        <time>2024-10-15T05:36:32.000Z</time>
      </trkpt>
      <trkpt lat="45.11481" lon="6.00402">
        <ele>724</ele>
        <time>2024-10-15T05:36:33.000Z</time>
      </trkpt>
      <trkpt lat="45.1148" lon="6.00403">
        <ele>724.20001220703</ele>
        <time>2024-10-15T05:36:34.000Z</time>
      </trkpt>
      <trkpt lat="45.1148" lon="6.00404">
        <ele>724.40002441406</ele>
        <time>2024-10-15T05:36:35.000Z</time>
      </trkpt>
      <trkpt lat="45.11479" lon="6.00404">
        <ele>724.59997558594</ele>
        <time>2024-10-15T05:36:36.000Z</time>
      </trkpt>
      <trkpt lat="45.11479" lon="6.00404">
        <ele>724.79998779297</ele>
        <time>2024-10-15T05:36:37.000Z</time>
      </trkpt>
      <trkpt lat="45.11479" lon="6.00404">
        <ele>725.20001220703</ele>
        <time>2024-10-15T05:36:38.000Z</time>
      </trkpt>
      <trkpt lat="45.11479" lon="6.00405">
        <ele>725.40002441406</ele>
        <time>2024-10-15T05:36:39.000Z</time>
      </trkpt>
      <trkpt lat="45.11479" lon="6.00405">
        <ele>725.59997558594</ele>
        <time>2024-10-15T05:36:40.000Z</time>
      </trkpt>
      <trkpt lat="45.11478" lon="6.00405">
        <ele>726</ele>
        <time>2024-10-15T05:36:41.000Z</time>
      </trkpt>
      <trkpt lat="45.11478" lon="6.00406">
        <ele>726</ele>
        <time>2024-10-15T05:36:42.000Z</time>
      </trkpt>
      <trkpt lat="45.11477" lon="6.00406">
        <ele>726</ele>
        <time>2024-10-15T05:36:43.000Z</time>
      </trkpt>
      <trkpt lat="45.11477" lon="6.00406">
        <ele>726.20001220703</ele>
        <time>2024-10-15T05:36:44.000Z</time>
      </trkpt>
      <trkpt lat="45.11476" lon="6.00406">
        <ele>726.59997558594</ele>
        <time>2024-10-15T05:36:45.000Z</time>
      </trkpt>
      <trkpt lat="45.11476" lon="6.00407">
        <ele>726.59997558594</ele>
        <time>2024-10-15T05:36:46.000Z</time>
      </trkpt>
      <trkpt lat="45.11475" lon="6.00407">
        <ele>726.59997558594</ele>
        <time>2024-10-15T05:36:47.000Z</time>
      </trkpt>
      <trkpt lat="45.11475" lon="6.00407">
        <ele>726.79998779297</ele>
        <time>2024-10-15T05:36:48.000Z</time>
      </trkpt>
      <trkpt lat="45.11475" lon="6.00407">
        <ele>727</ele>
        <time>2024-10-15T05:36:49.000Z</time>
      </trkpt>
      <trkpt lat="45.11474" lon="6.00407">
        <ele>727</ele>
        <time>2024-10-15T05:36:50.000Z</time>
      </trkpt>
      <trkpt lat="45.11474" lon="6.00407">
        <ele>727.20001220703</ele>
        <time>2024-10-15T05:36:51.000Z</time>
      </trkpt>
      <trkpt lat="45.11473" lon="6.00407">
        <ele>727.40002441406</ele>
        <time>2024-10-15T05:36:52.000Z</time>
      </trkpt>
      <trkpt lat="45.11472" lon="6.00407">
        <ele>727.59997558594</ele>
        <time>2024-10-15T05:36:53.000Z</time>
      </trkpt>
      <trkpt lat="45.11471" lon="6.00407">
        <ele>727.79998779297</ele>
        <time>2024-10-15T05:36:54.000Z</time>
      </trkpt>
      <trkpt lat="45.1147" lon="6.00408">
        <ele>727.79998779297</ele>
        <time>2024-10-15T05:36:55.000Z</time>
      </trkpt>
      <trkpt lat="45.11469" lon="6.00408">
        <ele>728</ele>
        <time>2024-10-15T05:36:56.000Z</time>
      </trkpt>
      <trkpt lat="45.11469" lon="6.00408">
        <ele>728.20001220703</ele>
        <time>2024-10-15T05:36:57.000Z</time>
      </trkpt>
      <trkpt lat="45.11468" lon="6.00408">
        <ele>728.40002441406</ele>
        <time>2024-10-15T05:36:58.000Z</time>
      </trkpt>
      <trkpt lat="45.11467" lon="6.00408">
        <ele>728.59997558594</ele>
        <time>2024-10-15T05:36:59.000Z</time>
      </trkpt>
      <trkpt lat="45.11467" lon="6.00409">
        <ele>728.59997558594</ele>
        <time>2024-10-15T05:37:00.000Z</time>
      </trkpt>
      <trkpt lat="45.11467" lon="6.00409">
        <ele>728.59997558594</ele>
        <time>2024-10-15T05:37:01.000Z</time>
      </trkpt>
      <trkpt lat="45.11467" lon="6.00409">
        <ele>729</ele>
        <time>2024-10-15T05:37:02.000Z</time>
      </trkpt>
      <trkpt lat="45.11467" lon="6.00409">
        <ele>729</ele>
        <time>2024-10-15T05:37:03.000Z</time>
      </trkpt>
      <trkpt lat="45.11466" lon="6.0041">
        <ele>729.20001220703</ele>
        <time>2024-10-15T05:37:04.000Z</time>
      </trkpt>
      <trkpt lat="45.11466" lon="6.0041">
        <ele>729.40002441406</ele>
        <time>2024-10-15T05:37:05.000Z</time>
      </trkpt>
      <trkpt lat="45.11465" lon="6.0041">
        <ele>729.59997558594</ele>
        <time>2024-10-15T05:37:06.000Z</time>
      </trkpt>
      <trkpt lat="45.11465" lon="6.0041">
        <ele>729.59997558594</ele>
        <time>2024-10-15T05:37:07.000Z</time>
      </trkpt>
      <trkpt lat="45.11465" lon="6.0041">
        <ele>729.79998779297</ele>
        <time>2024-10-15T05:37:08.000Z</time>
      </trkpt>
      <trkpt lat="45.11465" lon="6.00411">
        <ele>730</ele>
        <time>2024-10-15T05:37:09.000Z</time>
      </trkpt>
      <trkpt lat="45.11464" lon="6.00411">
        <ele>730.20001220703</ele>
        <time>2024-10-15T05:37:10.000Z</time>
      </trkpt>
      <trkpt lat="45.11464" lon="6.00411">
        <ele>730.40002441406</ele>
        <time>2024-10-15T05:37:11.000Z</time>
      </trkpt>
      <trkpt lat="45.11463" lon="6.00412">
        <ele>730.59997558594</ele>
        <time>2024-10-15T05:37:12.000Z</time>
      </trkpt>
      <trkpt lat="45.11463" lon="6.00412">
        <ele>730.79998779297</ele>
        <time>2024-10-15T05:37:13.000Z</time>
      </trkpt>
      <trkpt lat="45.11463" lon="6.00412">
        <ele>731</ele>
        <time>2024-10-15T05:37:14.000Z</time>
      </trkpt>
      <trkpt lat="45.11462" lon="6.00412">
        <ele>731.20001220703</ele>
        <time>2024-10-15T05:37:15.000Z</time>
      </trkpt>
      <trkpt lat="45.11461" lon="6.00412">
        <ele>731.59997558594</ele>
        <time>2024-10-15T05:37:16.000Z</time>
      </trkpt>
      <trkpt lat="45.11461" lon="6.00413">
        <ele>731.59997558594</ele>
        <time>2024-10-15T05:37:17.000Z</time>
      </trkpt>
      <trkpt lat="45.1146" lon="6.00413">
        <ele>732</ele>
        <time>2024-10-15T05:37:18.000Z</time>
      </trkpt>
      <trkpt lat="45.11459" lon="6.00413">
        <ele>732</ele>
        <time>2024-10-15T05:37:19.000Z</time>
      </trkpt>
      <trkpt lat="45.11459" lon="6.00413">
        <ele>732.20001220703</ele>
        <time>2024-10-15T05:37:20.000Z</time>
      </trkpt>
      <trkpt lat="45.11458" lon="6.00413">
        <ele>732.20001220703</ele>
        <time>2024-10-15T05:37:21.000Z</time>
      </trkpt>
      <trkpt lat="45.11458" lon="6.00414">
        <ele>732.40002441406</ele>
        <time>2024-10-15T05:37:22.000Z</time>
      </trkpt>
      <trkpt lat="45.11458" lon="6.00414">
        <ele>732.40002441406</ele>
        <time>2024-10-15T05:37:23.000Z</time>
      </trkpt>
      <trkpt lat="45.11458" lon="6.00415">
        <ele>732.40002441406</ele>
        <time>2024-10-15T05:37:24.000Z</time>
      </trkpt>
      <trkpt lat="45.11457" lon="6.00415">
        <ele>732.40002441406</ele>
        <time>2024-10-15T05:37:25.000Z</time>
      </trkpt>
      <trkpt lat="45.11457" lon="6.00415">
        <ele>732.79998779297</ele>
        <time>2024-10-15T05:37:26.000Z</time>
      </trkpt>
      <trkpt lat="45.11457" lon="6.00415">
        <ele>732.79998779297</ele>
        <time>2024-10-15T05:37:27.000Z</time>
      </trkpt>
      <trkpt lat="45.11456" lon="6.00415">
        <ele>733</ele>
        <time>2024-10-15T05:37:28.000Z</time>
      </trkpt>
      <trkpt lat="45.11454" lon="6.00415">
        <ele>733.20001220703</ele>
        <time>2024-10-15T05:37:29.000Z</time>
      </trkpt>
      <trkpt lat="45.11454" lon="6.00415">
        <ele>733.20001220703</ele>
        <time>2024-10-15T05:37:30.000Z</time>
      </trkpt>
      <trkpt lat="45.11453" lon="6.00415">
        <ele>733</ele>
        <time>2024-10-15T05:37:31.000Z</time>
      </trkpt>
      <trkpt lat="45.11452" lon="6.00415">
        <ele>733</ele>
        <time>2024-10-15T05:37:32.000Z</time>
      </trkpt>
      <trkpt lat="45.11452" lon="6.00415">
        <ele>733</ele>
        <time>2024-10-15T05:37:33.000Z</time>
      </trkpt>
      <trkpt lat="45.11451" lon="6.00415">
        <ele>732.79998779297</ele>
        <time>2024-10-15T05:37:34.000Z</time>
      </trkpt>
      <trkpt lat="45.11451" lon="6.00415">
        <ele>732.59997558594</ele>
        <time>2024-10-15T05:37:35.000Z</time>
      </trkpt>
      <trkpt lat="45.11451" lon="6.00416">
        <ele>732.59997558594</ele>
        <time>2024-10-15T05:37:36.000Z</time>
      </trkpt>
      <trkpt lat="45.1145" lon="6.00416">
        <ele>732.59997558594</ele>
        <time>2024-10-15T05:37:37.000Z</time>
      </trkpt>
      <trkpt lat="45.1145" lon="6.00416">
        <ele>732.40002441406</ele>
        <time>2024-10-15T05:37:38.000Z</time>
      </trkpt>
      <trkpt lat="45.1145" lon="6.00416">
        <ele>732.40002441406</ele>
        <time>2024-10-15T05:37:39.000Z</time>
      </trkpt>
      <trkpt lat="45.1145" lon="6.00416">
        <ele>732.59997558594</ele>
        <time>2024-10-15T05:37:40.000Z</time>
      </trkpt>
      <trkpt lat="45.11449" lon="6.00416">
        <ele>732.79998779297</ele>
        <time>2024-10-15T05:37:41.000Z</time>
      </trkpt>
      <trkpt lat="45.11449" lon="6.00416">
        <ele>733</ele>
        <time>2024-10-15T05:37:42.000Z</time>
      </trkpt>
      <trkpt lat="45.11449" lon="6.00416">
        <ele>733</ele>
        <time>2024-10-15T05:37:43.000Z</time>
      </trkpt>
      <trkpt lat="45.11449" lon="6.00416">
        <ele>733.20001220703</ele>
        <time>2024-10-15T05:37:44.000Z</time>
      </trkpt>
      <trkpt lat="45.11449" lon="6.00416">
        <ele>733.20001220703</ele>
        <time>2024-10-15T05:37:45.000Z</time>
      </trkpt>
      <trkpt lat="45.11449" lon="6.00416">
        <ele>733.40002441406</ele>
        <time>2024-10-15T05:37:46.000Z</time>
      </trkpt>
      <trkpt lat="45.11449" lon="6.00417">
        <ele>733.59997558594</ele>
        <time>2024-10-15T05:37:47.000Z</time>
      </trkpt>
      <trkpt lat="45.11449" lon="6.00417">
        <ele>733.59997558594</ele>
        <time>2024-10-15T05:37:48.000Z</time>
      </trkpt>
      <trkpt lat="45.11448" lon="6.00418">
        <ele>733.79998779297</ele>
        <time>2024-10-15T05:37:49.000Z</time>
      </trkpt>
      <trkpt lat="45.11448" lon="6.00418">
        <ele>734</ele>
        <time>2024-10-15T05:37:50.000Z</time>
      </trkpt>
      <trkpt lat="45.11447" lon="6.0042">
        <ele>734.20001220703</ele>
        <time>2024-10-15T05:37:51.000Z</time>
      </trkpt>
      <trkpt lat="45.11445" lon="6.00423">
        <ele>734.20001220703</ele>
        <time>2024-10-15T05:37:52.000Z</time>
      </trkpt>
      <trkpt lat="45.11443" lon="6.00425">
        <ele>734.40002441406</ele>
        <time>2024-10-15T05:37:53.000Z</time>
      </trkpt>
      <trkpt lat="45.11441" lon="6.00427">
        <ele>734.40002441406</ele>
        <time>2024-10-15T05:37:54.000Z</time>
      </trkpt>
      <trkpt lat="45.11439" lon="6.00429">
        <ele>734.59997558594</ele>
        <time>2024-10-15T05:37:55.000Z</time>
      </trkpt>
      <trkpt lat="45.11437" lon="6.00432">
        <ele>734.59997558594</ele>
        <time>2024-10-15T05:37:56.000Z</time>
      </trkpt>
      <trkpt lat="45.11435" lon="6.00434">
        <ele>734.59997558594</ele>
        <time>2024-10-15T05:37:57.000Z</time>
      </trkpt>
      <trkpt lat="45.11433" lon="6.00436">
        <ele>734.79998779297</ele>
        <time>2024-10-15T05:37:58.000Z</time>
      </trkpt>
      <trkpt lat="45.1143" lon="6.00439">
        <ele>734.79998779297</ele>
        <time>2024-10-15T05:37:59.000Z</time>
      </trkpt>
      <trkpt lat="45.11429" lon="6.00442">
        <ele>734.79998779297</ele>
        <time>2024-10-15T05:38:00.000Z</time>
      </trkpt>
      <trkpt lat="45.11427" lon="6.00443">
        <ele>735</ele>
        <time>2024-10-15T05:38:01.000Z</time>
      </trkpt>
      <trkpt lat="45.11425" lon="6.00445">
        <ele>735.20001220703</ele>
        <time>2024-10-15T05:38:02.000Z</time>
      </trkpt>
      <trkpt lat="45.11423" lon="6.00446">
        <ele>735.40002441406</ele>
        <time>2024-10-15T05:38:03.000Z</time>
      </trkpt>
      <trkpt lat="45.1142" lon="6.00447">
        <ele>735.40002441406</ele>
        <time>2024-10-15T05:38:04.000Z</time>
      </trkpt>
      <trkpt lat="45.11419" lon="6.00447">
        <ele>735.59997558594</ele>
        <time>2024-10-15T05:38:05.000Z</time>
      </trkpt>
      <trkpt lat="45.11418" lon="6.00448">
        <ele>735.59997558594</ele>
        <time>2024-10-15T05:38:06.000Z</time>
      </trkpt>
      <trkpt lat="45.11417" lon="6.00449">
        <ele>735.59997558594</ele>
        <time>2024-10-15T05:38:07.000Z</time>
      </trkpt>
      <trkpt lat="45.11416" lon="6.0045">
        <ele>735.59997558594</ele>
        <time>2024-10-15T05:38:08.000Z</time>
      </trkpt>
      <trkpt lat="45.11416" lon="6.0045">
        <ele>735.59997558594</ele>
        <time>2024-10-15T05:38:09.000Z</time>
      </trkpt>
      <trkpt lat="45.11415" lon="6.00452">
        <ele>735.59997558594</ele>
        <time>2024-10-15T05:38:10.000Z</time>
      </trkpt>
      <trkpt lat="45.11415" lon="6.00453">
        <ele>735.59997558594</ele>
        <time>2024-10-15T05:38:11.000Z</time>
      </trkpt>
      <trkpt lat="45.11414" lon="6.00453">
        <ele>735.79998779297</ele>
        <time>2024-10-15T05:38:12.000Z</time>
      </trkpt>
      <trkpt lat="45.11414" lon="6.00455">
        <ele>735.79998779297</ele>
        <time>2024-10-15T05:38:13.000Z</time>
      </trkpt>
      <trkpt lat="45.11413" lon="6.00455">
        <ele>735.79998779297</ele>
        <time>2024-10-15T05:38:14.000Z</time>
      </trkpt>
      <trkpt lat="45.11412" lon="6.00456">
        <ele>736</ele>
        <time>2024-10-15T05:38:15.000Z</time>
      </trkpt>
      <trkpt lat="45.11411" lon="6.00457">
        <ele>736</ele>
        <time>2024-10-15T05:38:16.000Z</time>
      </trkpt>
      <trkpt lat="45.1141" lon="6.00457">
        <ele>736</ele>
        <time>2024-10-15T05:38:17.000Z</time>
      </trkpt>
      <trkpt lat="45.1141" lon="6.00455">
        <ele>736</ele>
        <time>2024-10-15T05:38:18.000Z</time>
      </trkpt>
      <trkpt lat="45.1141" lon="6.00454">
        <ele>736.20001220703</ele>
        <time>2024-10-15T05:38:19.000Z</time>
      </trkpt>
      <trkpt lat="45.11409" lon="6.00452">
        <ele>736.59997558594</ele>
        <time>2024-10-15T05:38:20.000Z</time>
      </trkpt>
      <trkpt lat="45.11408" lon="6.00451">
        <ele>736.59997558594</ele>
        <time>2024-10-15T05:38:21.000Z</time>
      </trkpt>
      <trkpt lat="45.11407" lon="6.0045">
        <ele>736.79998779297</ele>
        <time>2024-10-15T05:38:22.000Z</time>
      </trkpt>
      <trkpt lat="45.11406" lon="6.00448">
        <ele>737</ele>
        <time>2024-10-15T05:38:23.000Z</time>
      </trkpt>
      <trkpt lat="45.11405" lon="6.00446">
        <ele>737.20001220703</ele>
        <time>2024-10-15T05:38:24.000Z</time>
      </trkpt>
      <trkpt lat="45.11405" lon="6.00445">
        <ele>737.40002441406</ele>
        <time>2024-10-15T05:38:25.000Z</time>
      </trkpt>
      <trkpt lat="45.11405" lon="6.00444">
        <ele>737.59997558594</ele>
        <time>2024-10-15T05:38:26.000Z</time>
      </trkpt>
      <trkpt lat="45.11404" lon="6.00443">
        <ele>737.79998779297</ele>
        <time>2024-10-15T05:38:27.000Z</time>
      </trkpt>
      <trkpt lat="45.11403" lon="6.00442">
        <ele>738</ele>
        <time>2024-10-15T05:38:28.000Z</time>
      </trkpt>
      <trkpt lat="45.11402" lon="6.00441">
        <ele>738</ele>
        <time>2024-10-15T05:38:29.000Z</time>
      </trkpt>
      <trkpt lat="45.114" lon="6.00439">
        <ele>738.20001220703</ele>
        <time>2024-10-15T05:38:30.000Z</time>
      </trkpt>
      <trkpt lat="45.11398" lon="6.00438">
        <ele>738.40002441406</ele>
        <time>2024-10-15T05:38:31.000Z</time>
      </trkpt>
      <trkpt lat="45.11397" lon="6.00437">
        <ele>738.59997558594</ele>
        <time>2024-10-15T05:38:32.000Z</time>
      </trkpt>
      <trkpt lat="45.11396" lon="6.00436">
        <ele>738.79998779297</ele>
        <time>2024-10-15T05:38:33.000Z</time>
      </trkpt>
      <trkpt lat="45.11396" lon="6.00435">
        <ele>739</ele>
        <time>2024-10-15T05:38:34.000Z</time>
      </trkpt>
      <trkpt lat="45.11396" lon="6.00433">
        <ele>739.20001220703</ele>
        <time>2024-10-15T05:38:35.000Z</time>
      </trkpt>
      <trkpt lat="45.11395" lon="6.00433">
        <ele>739.20001220703</ele>
        <time>2024-10-15T05:38:36.000Z</time>
      </trkpt>
      <trkpt lat="45.11397" lon="6.00433">
        <ele>739.59997558594</ele>
        <time>2024-10-15T05:38:37.000Z</time>
      </trkpt>
      <trkpt lat="45.11398" lon="6.00432">
        <ele>739.59997558594</ele>
        <time>2024-10-15T05:38:38.000Z</time>
      </trkpt>
      <trkpt lat="45.11398" lon="6.00433">
        <ele>739.79998779297</ele>
        <time>2024-10-15T05:38:39.000Z</time>
      </trkpt>
      <trkpt lat="45.11398" lon="6.00434">
        <ele>740</ele>
        <time>2024-10-15T05:38:40.000Z</time>
      </trkpt>
      <trkpt lat="45.11398" lon="6.00435">
        <ele>740.20001220703</ele>
        <time>2024-10-15T05:38:41.000Z</time>
      </trkpt>
      <trkpt lat="45.11399" lon="6.00436">
        <ele>740.40002441406</ele>
        <time>2024-10-15T05:38:42.000Z</time>
      </trkpt>
      <trkpt lat="45.114" lon="6.00437">
        <ele>740.59997558594</ele>
        <time>2024-10-15T05:38:43.000Z</time>
      </trkpt>
      <trkpt lat="45.11402" lon="6.00437">
        <ele>740.59997558594</ele>
        <time>2024-10-15T05:38:44.000Z</time>
      </trkpt>
      <trkpt lat="45.11402" lon="6.00439">
        <ele>740.79998779297</ele>
        <time>2024-10-15T05:38:45.000Z</time>
      </trkpt>
      <trkpt lat="45.11402" lon="6.00439">
        <ele>741</ele>
        <time>2024-10-15T05:38:46.000Z</time>
      </trkpt>
      <trkpt lat="45.114" lon="6.0044">
        <ele>741.20001220703</ele>
        <time>2024-10-15T05:38:47.000Z</time>
      </trkpt>
      <trkpt lat="45.11398" lon="6.00441">
        <ele>741.20001220703</ele>
        <time>2024-10-15T05:38:48.000Z</time>
      </trkpt>
      <trkpt lat="45.11397" lon="6.00441">
        <ele>741.40002441406</ele>
        <time>2024-10-15T05:38:49.000Z</time>
      </trkpt>
      <trkpt lat="45.11397" lon="6.00442">
        <ele>741.40002441406</ele>
        <time>2024-10-15T05:38:50.000Z</time>
      </trkpt>
      <trkpt lat="45.11396" lon="6.00441">
        <ele>741.40002441406</ele>
        <time>2024-10-15T05:38:51.000Z</time>
      </trkpt>
      <trkpt lat="45.11395" lon="6.00441">
        <ele>741.59997558594</ele>
        <time>2024-10-15T05:38:52.000Z</time>
      </trkpt>
      <trkpt lat="45.11395" lon="6.00441">
        <ele>741.79998779297</ele>
        <time>2024-10-15T05:38:53.000Z</time>
      </trkpt>
      <trkpt lat="45.11394" lon="6.00442">
        <ele>742</ele>
        <time>2024-10-15T05:38:54.000Z</time>
      </trkpt>
      <trkpt lat="45.11393" lon="6.00442">
        <ele>742.20001220703</ele>
        <time>2024-10-15T05:38:55.000Z</time>
      </trkpt>
      <trkpt lat="45.11392" lon="6.00442">
        <ele>742.40002441406</ele>
        <time>2024-10-15T05:38:56.000Z</time>
      </trkpt>
      <trkpt lat="45.11391" lon="6.00443">
        <ele>742.59997558594</ele>
        <time>2024-10-15T05:38:57.000Z</time>
      </trkpt>
      <trkpt lat="45.11389" lon="6.00443">
        <ele>742.59997558594</ele>
        <time>2024-10-15T05:38:58.000Z</time>
      </trkpt>
      <trkpt lat="45.11388" lon="6.00443">
        <ele>742.79998779297</ele>
        <time>2024-10-15T05:38:59.000Z</time>
      </trkpt>
      <trkpt lat="45.11387" lon="6.00442">
        <ele>743</ele>
        <time>2024-10-15T05:39:00.000Z</time>
      </trkpt>
      <trkpt lat="45.11386" lon="6.0044">
        <ele>743</ele>
        <time>2024-10-15T05:39:01.000Z</time>
      </trkpt>
      <trkpt lat="45.11388" lon="6.00439">
        <ele>743.20001220703</ele>
        <time>2024-10-15T05:39:02.000Z</time>
      </trkpt>
      <trkpt lat="45.11387" lon="6.00438">
        <ele>743.40002441406</ele>
        <time>2024-10-15T05:39:03.000Z</time>
      </trkpt>
      <trkpt lat="45.11387" lon="6.00437">
        <ele>743.79998779297</ele>
        <time>2024-10-15T05:39:04.000Z</time>
      </trkpt>
      <trkpt lat="45.11387" lon="6.00436">
        <ele>744</ele>
        <time>2024-10-15T05:39:05.000Z</time>
      </trkpt>
      <trkpt lat="45.11385" lon="6.00433">
        <ele>744</ele>
        <time>2024-10-15T05:39:06.000Z</time>
      </trkpt>
      <trkpt lat="45.11383" lon="6.00432">
        <ele>744.20001220703</ele>
        <time>2024-10-15T05:39:07.000Z</time>
      </trkpt>
      <trkpt lat="45.11381" lon="6.0043">
        <ele>744.59997558594</ele>
        <time>2024-10-15T05:39:08.000Z</time>
      </trkpt>
      <trkpt lat="45.11381" lon="6.00429">
        <ele>744.59997558594</ele>
        <time>2024-10-15T05:39:09.000Z</time>
      </trkpt>
      <trkpt lat="45.11383" lon="6.0043">
        <ele>745</ele>
        <time>2024-10-15T05:39:10.000Z</time>
      </trkpt>
      <trkpt lat="45.11384" lon="6.0043">
        <ele>745</ele>
        <time>2024-10-15T05:39:11.000Z</time>
      </trkpt>
      <trkpt lat="45.11384" lon="6.00429">
        <ele>745.20001220703</ele>
        <time>2024-10-15T05:39:12.000Z</time>
      </trkpt>
      <trkpt lat="45.11383" lon="6.00428">
        <ele>745.40002441406</ele>
        <time>2024-10-15T05:39:13.000Z</time>
      </trkpt>
      <trkpt lat="45.11384" lon="6.00428">
        <ele>745.59997558594</ele>
        <time>2024-10-15T05:39:14.000Z</time>
      </trkpt>
      <trkpt lat="45.11384" lon="6.00428">
        <ele>745.79998779297</ele>
        <time>2024-10-15T05:39:15.000Z</time>
      </trkpt>
      <trkpt lat="45.11385" lon="6.00428">
        <ele>746</ele>
        <time>2024-10-15T05:39:16.000Z</time>
      </trkpt>
      <trkpt lat="45.11384" lon="6.00429">
        <ele>746.20001220703</ele>
        <time>2024-10-15T05:39:17.000Z</time>
      </trkpt>
      <trkpt lat="45.11384" lon="6.00429">
        <ele>746.20001220703</ele>
        <time>2024-10-15T05:39:18.000Z</time>
      </trkpt>
      <trkpt lat="45.11384" lon="6.00429">
        <ele>746.40002441406</ele>
        <time>2024-10-15T05:39:19.000Z</time>
      </trkpt>
      <trkpt lat="45.11384" lon="6.00429">
        <ele>746.59997558594</ele>
        <time>2024-10-15T05:39:20.000Z</time>
      </trkpt>
      <trkpt lat="45.11384" lon="6.00429">
        <ele>747</ele>
        <time>2024-10-15T05:39:21.000Z</time>
      </trkpt>
      <trkpt lat="45.11383" lon="6.00429">
        <ele>747</ele>
        <time>2024-10-15T05:39:22.000Z</time>
      </trkpt>
      <trkpt lat="45.11383" lon="6.0043">
        <ele>747.20001220703</ele>
        <time>2024-10-15T05:39:23.000Z</time>
      </trkpt>
      <trkpt lat="45.11382" lon="6.0043">
        <ele>747.40002441406</ele>
        <time>2024-10-15T05:39:24.000Z</time>
      </trkpt>
      <trkpt lat="45.11382" lon="6.00431">
        <ele>747.40002441406</ele>
        <time>2024-10-15T05:39:25.000Z</time>
      </trkpt>
      <trkpt lat="45.11383" lon="6.00431">
        <ele>747.59997558594</ele>
        <time>2024-10-15T05:39:26.000Z</time>
      </trkpt>
      <trkpt lat="45.11383" lon="6.00432">
        <ele>747.79998779297</ele>
        <time>2024-10-15T05:39:27.000Z</time>
      </trkpt>
      <trkpt lat="45.11383" lon="6.00432">
        <ele>748</ele>
        <time>2024-10-15T05:39:28.000Z</time>
      </trkpt>
      <trkpt lat="45.11383" lon="6.00432">
        <ele>748</ele>
        <time>2024-10-15T05:39:29.000Z</time>
      </trkpt>
      <trkpt lat="45.11383" lon="6.00432">
        <ele>748.40002441406</ele>
        <time>2024-10-15T05:39:30.000Z</time>
      </trkpt>
      <trkpt lat="45.11383" lon="6.00432">
        <ele>748.59997558594</ele>
        <time>2024-10-15T05:39:31.000Z</time>
      </trkpt>
      <trkpt lat="45.11383" lon="6.00432">
        <ele>748.59997558594</ele>
        <time>2024-10-15T05:39:32.000Z</time>
      </trkpt>
      <trkpt lat="45.11384" lon="6.00433">
        <ele>748.79998779297</ele>
        <time>2024-10-15T05:39:33.000Z</time>
      </trkpt>
      <trkpt lat="45.11383" lon="6.00433">
        <ele>748.79998779297</ele>
        <time>2024-10-15T05:39:34.000Z</time>
      </trkpt>
      <trkpt lat="45.11382" lon="6.00434">
        <ele>749.20001220703</ele>
        <time>2024-10-15T05:39:35.000Z</time>
      </trkpt>
      <trkpt lat="45.11381" lon="6.00436">
        <ele>749.20001220703</ele>
        <time>2024-10-15T05:39:36.000Z</time>
      </trkpt>
      <trkpt lat="45.1138" lon="6.00437">
        <ele>749.40002441406</ele>
        <time>2024-10-15T05:39:37.000Z</time>
      </trkpt>
      <trkpt lat="45.1138" lon="6.00439">
        <ele>749.59997558594</ele>
        <time>2024-10-15T05:39:38.000Z</time>
      </trkpt>
      <trkpt lat="45.11379" lon="6.00439">
        <ele>749.59997558594</ele>
        <time>2024-10-15T05:39:39.000Z</time>
      </trkpt>
      <trkpt lat="45.11378" lon="6.0044">
        <ele>749.79998779297</ele>
        <time>2024-10-15T05:39:40.000Z</time>
      </trkpt>
      <trkpt lat="45.11378" lon="6.0044">
        <ele>749.79998779297</ele>
        <time>2024-10-15T05:39:41.000Z</time>
      </trkpt>
      <trkpt lat="45.11378" lon="6.00442">
        <ele>749.79998779297</ele>
        <time>2024-10-15T05:39:42.000Z</time>
      </trkpt>
      <trkpt lat="45.11378" lon="6.00443">
        <ele>750</ele>
        <time>2024-10-15T05:39:43.000Z</time>
      </trkpt>
      <trkpt lat="45.11378" lon="6.00444">
        <ele>750.40002441406</ele>
        <time>2024-10-15T05:39:44.000Z</time>
      </trkpt>
      <trkpt lat="45.11377" lon="6.00444">
        <ele>750.40002441406</ele>
        <time>2024-10-15T05:39:45.000Z</time>
      </trkpt>
      <trkpt lat="45.11378" lon="6.00445">
        <ele>750.40002441406</ele>
        <time>2024-10-15T05:39:46.000Z</time>
      </trkpt>
      <trkpt lat="45.11377" lon="6.00446">
        <ele>750.59997558594</ele>
        <time>2024-10-15T05:39:47.000Z</time>
      </trkpt>
      <trkpt lat="45.11377" lon="6.00446">
        <ele>750.79998779297</ele>
        <time>2024-10-15T05:39:48.000Z</time>
      </trkpt>
      <trkpt lat="45.11376" lon="6.00446">
        <ele>750.79998779297</ele>
        <time>2024-10-15T05:39:49.000Z</time>
      </trkpt>
      <trkpt lat="45.11375" lon="6.00446">
        <ele>751</ele>
        <time>2024-10-15T05:39:50.000Z</time>
      </trkpt>
      <trkpt lat="45.11375" lon="6.00446">
        <ele>751.20001220703</ele>
        <time>2024-10-15T05:39:51.000Z</time>
      </trkpt>
      <trkpt lat="45.11374" lon="6.00447">
        <ele>751.20001220703</ele>
        <time>2024-10-15T05:39:52.000Z</time>
      </trkpt>
      <trkpt lat="45.11375" lon="6.00448">
        <ele>751.59997558594</ele>
        <time>2024-10-15T05:39:53.000Z</time>
      </trkpt>
      <trkpt lat="45.11375" lon="6.00448">
        <ele>751.79998779297</ele>
        <time>2024-10-15T05:39:54.000Z</time>
      </trkpt>
      <trkpt lat="45.11374" lon="6.00447">
        <ele>752</ele>
        <time>2024-10-15T05:39:55.000Z</time>
      </trkpt>
      <trkpt lat="45.11373" lon="6.00447">
        <ele>752.20001220703</ele>
        <time>2024-10-15T05:39:56.000Z</time>
      </trkpt>
      <trkpt lat="45.11373" lon="6.00448">
        <ele>752.20001220703</ele>
        <time>2024-10-15T05:39:57.000Z</time>
      </trkpt>
      <trkpt lat="45.11373" lon="6.00449">
        <ele>752.59997558594</ele>
        <time>2024-10-15T05:39:58.000Z</time>
      </trkpt>
      <trkpt lat="45.11373" lon="6.00451">
        <ele>752.79998779297</ele>
        <time>2024-10-15T05:39:59.000Z</time>
      </trkpt>
      <trkpt lat="45.11372" lon="6.00452">
        <ele>753</ele>
        <time>2024-10-15T05:40:00.000Z</time>
      </trkpt>
      <trkpt lat="45.11371" lon="6.00452">
        <ele>753.20001220703</ele>
        <time>2024-10-15T05:40:01.000Z</time>
      </trkpt>
      <trkpt lat="45.11371" lon="6.00452">
        <ele>753.59997558594</ele>
        <time>2024-10-15T05:40:02.000Z</time>
      </trkpt>
      <trkpt lat="45.11371" lon="6.00451">
        <ele>753.59997558594</ele>
        <time>2024-10-15T05:40:03.000Z</time>
      </trkpt>
      <trkpt lat="45.11371" lon="6.00449">
        <ele>753.79998779297</ele>
        <time>2024-10-15T05:40:04.000Z</time>
      </trkpt>
      <trkpt lat="45.11371" lon="6.00449">
        <ele>754</ele>
        <time>2024-10-15T05:40:05.000Z</time>
      </trkpt>
      <trkpt lat="45.1137" lon="6.0045">
        <ele>754.20001220703</ele>
        <time>2024-10-15T05:40:06.000Z</time>
      </trkpt>
      <trkpt lat="45.1137" lon="6.0045">
        <ele>754.20001220703</ele>
        <time>2024-10-15T05:40:07.000Z</time>
      </trkpt>
      <trkpt lat="45.11369" lon="6.00452">
        <ele>754.59997558594</ele>
        <time>2024-10-15T05:40:08.000Z</time>
      </trkpt>
      <trkpt lat="45.11368" lon="6.00452">
        <ele>754.79998779297</ele>
        <time>2024-10-15T05:40:09.000Z</time>
      </trkpt>
      <trkpt lat="45.11369" lon="6.00453">
        <ele>755</ele>
        <time>2024-10-15T05:40:10.000Z</time>
      </trkpt>
      <trkpt lat="45.11368" lon="6.00453">
        <ele>755</ele>
        <time>2024-10-15T05:40:11.000Z</time>
      </trkpt>
      <trkpt lat="45.11368" lon="6.00454">
        <ele>755.40002441406</ele>
        <time>2024-10-15T05:40:12.000Z</time>
      </trkpt>
      <trkpt lat="45.11367" lon="6.00455">
        <ele>755.59997558594</ele>
        <time>2024-10-15T05:40:13.000Z</time>
      </trkpt>
      <trkpt lat="45.11367" lon="6.00456">
        <ele>755.59997558594</ele>
        <time>2024-10-15T05:40:14.000Z</time>
      </trkpt>
      <trkpt lat="45.11367" lon="6.00457">
        <ele>755.79998779297</ele>
        <time>2024-10-15T05:40:15.000Z</time>
      </trkpt>
      <trkpt lat="45.11367" lon="6.00458">
        <ele>756</ele>
        <time>2024-10-15T05:40:16.000Z</time>
      </trkpt>
      <trkpt lat="45.11367" lon="6.00458">
        <ele>756</ele>
        <time>2024-10-15T05:40:17.000Z</time>
      </trkpt>
      <trkpt lat="45.11367" lon="6.00458">
        <ele>756.20001220703</ele>
        <time>2024-10-15T05:40:18.000Z</time>
      </trkpt>
      <trkpt lat="45.11366" lon="6.00459">
        <ele>756.40002441406</ele>
        <time>2024-10-15T05:40:19.000Z</time>
      </trkpt>
      <trkpt lat="45.11365" lon="6.0046">
        <ele>756.79998779297</ele>
        <time>2024-10-15T05:40:20.000Z</time>
      </trkpt>
      <trkpt lat="45.11364" lon="6.00461">
        <ele>756.79998779297</ele>
        <time>2024-10-15T05:40:21.000Z</time>
      </trkpt>
      <trkpt lat="45.11364" lon="6.00462">
        <ele>757</ele>
        <time>2024-10-15T05:40:22.000Z</time>
      </trkpt>
      <trkpt lat="45.11364" lon="6.00462">
        <ele>757.20001220703</ele>
        <time>2024-10-15T05:40:23.000Z</time>
      </trkpt>
      <trkpt lat="45.11365" lon="6.00464">
        <ele>757.20001220703</ele>
        <time>2024-10-15T05:40:24.000Z</time>
      </trkpt>
      <trkpt lat="45.11365" lon="6.00464">
        <ele>757.40002441406</ele>
        <time>2024-10-15T05:40:25.000Z</time>
      </trkpt>
      <trkpt lat="45.11364" lon="6.00464">
        <ele>757.79998779297</ele>
        <time>2024-10-15T05:40:26.000Z</time>
      </trkpt>
      <trkpt lat="45.11362" lon="6.00463">
        <ele>757.79998779297</ele>
        <time>2024-10-15T05:40:27.000Z</time>
      </trkpt>
      <trkpt lat="45.11361" lon="6.00464">
        <ele>758</ele>
        <time>2024-10-15T05:40:28.000Z</time>
      </trkpt>
      <trkpt lat="45.11361" lon="6.00465">
        <ele>758</ele>
        <time>2024-10-15T05:40:29.000Z</time>
      </trkpt>
      <trkpt lat="45.11361" lon="6.00467">
        <ele>758.20001220703</ele>
        <time>2024-10-15T05:40:30.000Z</time>
      </trkpt>
      <trkpt lat="45.11361" lon="6.00468">
        <ele>758.20001220703</ele>
        <time>2024-10-15T05:40:31.000Z</time>
      </trkpt>
      <trkpt lat="45.11361" lon="6.00469">
        <ele>758.20001220703</ele>
        <time>2024-10-15T05:40:32.000Z</time>
      </trkpt>
      <trkpt lat="45.1136" lon="6.00471">
        <ele>758.59997558594</ele>
        <time>2024-10-15T05:40:33.000Z</time>
      </trkpt>
      <trkpt lat="45.1136" lon="6.00471">
        <ele>758.59997558594</ele>
        <time>2024-10-15T05:40:34.000Z</time>
      </trkpt>
      <trkpt lat="45.1136" lon="6.00471">
        <ele>758.59997558594</ele>
        <time>2024-10-15T05:40:35.000Z</time>
      </trkpt>
      <trkpt lat="45.1136" lon="6.00471">
        <ele>758.59997558594</ele>
        <time>2024-10-15T05:40:36.000Z</time>
      </trkpt>
      <trkpt lat="45.11359" lon="6.0047">
        <ele>758.59997558594</ele>
        <time>2024-10-15T05:40:37.000Z</time>
      </trkpt>
      <trkpt lat="45.11359" lon="6.00469">
        <ele>758.40002441406</ele>
        <time>2024-10-15T05:40:38.000Z</time>
      </trkpt>
      <trkpt lat="45.11359" lon="6.00468">
        <ele>758.40002441406</ele>
        <time>2024-10-15T05:40:39.000Z</time>
      </trkpt>
      <trkpt lat="45.11359" lon="6.00468">
        <ele>758.40002441406</ele>
        <time>2024-10-15T05:40:40.000Z</time>
      </trkpt>
      <trkpt lat="45.1136" lon="6.00468">
        <ele>758.40002441406</ele>
        <time>2024-10-15T05:40:41.000Z</time>
      </trkpt>
      <trkpt lat="45.1136" lon="6.00467">
        <ele>758.40002441406</ele>
        <time>2024-10-15T05:40:42.000Z</time>
      </trkpt>
      <trkpt lat="45.1136" lon="6.00466">
        <ele>758.40002441406</ele>
        <time>2024-10-15T05:40:43.000Z</time>
      </trkpt>
      <trkpt lat="45.11361" lon="6.00465">
        <ele>758.40002441406</ele>
        <time>2024-10-15T05:40:44.000Z</time>
      </trkpt>
      <trkpt lat="45.11361" lon="6.00463">
        <ele>758.40002441406</ele>
        <time>2024-10-15T05:40:45.000Z</time>
      </trkpt>
      <trkpt lat="45.11362" lon="6.00462">
        <ele>758.20001220703</ele>
        <time>2024-10-15T05:40:46.000Z</time>
      </trkpt>
      <trkpt lat="45.11362" lon="6.0046">
        <ele>758</ele>
        <time>2024-10-15T05:40:47.000Z</time>
      </trkpt>
      <trkpt lat="45.11363" lon="6.00459">
        <ele>757.79998779297</ele>
        <time>2024-10-15T05:40:48.000Z</time>
      </trkpt>
      <trkpt lat="45.11363" lon="6.00458">
        <ele>757.79998779297</ele>
        <time>2024-10-15T05:40:49.000Z</time>
      </trkpt>
      <trkpt lat="45.11364" lon="6.00457">
        <ele>757.79998779297</ele>
        <time>2024-10-15T05:40:50.000Z</time>
      </trkpt>
      <trkpt lat="45.11365" lon="6.00455">
        <ele>757.79998779297</ele>
        <time>2024-10-15T05:40:51.000Z</time>
      </trkpt>
      <trkpt lat="45.11366" lon="6.00454">
        <ele>757.79998779297</ele>
        <time>2024-10-15T05:40:52.000Z</time>
      </trkpt>
      <trkpt lat="45.11366" lon="6.00453">
        <ele>758</ele>
        <time>2024-10-15T05:40:53.000Z</time>
      </trkpt>
      <trkpt lat="45.11366" lon="6.00453">
        <ele>758.20001220703</ele>
        <time>2024-10-15T05:40:54.000Z</time>
      </trkpt>
      <trkpt lat="45.11366" lon="6.00452">
        <ele>758.40002441406</ele>
        <time>2024-10-15T05:40:55.000Z</time>
      </trkpt>
      <trkpt lat="45.11366" lon="6.00451">
        <ele>758.40002441406</ele>
        <time>2024-10-15T05:40:56.000Z</time>
      </trkpt>
      <trkpt lat="45.11366" lon="6.0045">
        <ele>758.40002441406</ele>
        <time>2024-10-15T05:40:57.000Z</time>
      </trkpt>
      <trkpt lat="45.11366" lon="6.00449">
        <ele>758.59997558594</ele>
        <time>2024-10-15T05:40:58.000Z</time>
      </trkpt>
      <trkpt lat="45.11366" lon="6.00448">
        <ele>758.79998779297</ele>
        <time>2024-10-15T05:40:59.000Z</time>
      </trkpt>
      <trkpt lat="45.11366" lon="6.00447">
        <ele>759</ele>
        <time>2024-10-15T05:41:00.000Z</time>
      </trkpt>
      <trkpt lat="45.11365" lon="6.00445">
        <ele>759</ele>
        <time>2024-10-15T05:41:01.000Z</time>
      </trkpt>
      <trkpt lat="45.11365" lon="6.00443">
        <ele>759.20001220703</ele>
        <time>2024-10-15T05:41:02.000Z</time>
      </trkpt>
      <trkpt lat="45.11364" lon="6.00441">
        <ele>759.40002441406</ele>
        <time>2024-10-15T05:41:03.000Z</time>
      </trkpt>
      <trkpt lat="45.11364" lon="6.0044">
        <ele>759.59997558594</ele>
        <time>2024-10-15T05:41:04.000Z</time>
      </trkpt>
      <trkpt lat="45.11363" lon="6.00439">
        <ele>759.59997558594</ele>
        <time>2024-10-15T05:41:05.000Z</time>
      </trkpt>
      <trkpt lat="45.11361" lon="6.00438">
        <ele>759.79998779297</ele>
        <time>2024-10-15T05:41:06.000Z</time>
      </trkpt>
      <trkpt lat="45.11359" lon="6.00435">
        <ele>760</ele>
        <time>2024-10-15T05:41:07.000Z</time>
      </trkpt>
      <trkpt lat="45.11358" lon="6.00434">
        <ele>760.20001220703</ele>
        <time>2024-10-15T05:41:08.000Z</time>
      </trkpt>
      <trkpt lat="45.11358" lon="6.00431">
        <ele>760.40002441406</ele>
        <time>2024-10-15T05:41:09.000Z</time>
      </trkpt>
      <trkpt lat="45.11358" lon="6.00429">
        <ele>760.59997558594</ele>
        <time>2024-10-15T05:41:10.000Z</time>
      </trkpt>
      <trkpt lat="45.11358" lon="6.00428">
        <ele>760.59997558594</ele>
        <time>2024-10-15T05:41:11.000Z</time>
      </trkpt>
      <trkpt lat="45.11356" lon="6.00426">
        <ele>760.79998779297</ele>
        <time>2024-10-15T05:41:12.000Z</time>
      </trkpt>
      <trkpt lat="45.11356" lon="6.00425">
        <ele>760.79998779297</ele>
        <time>2024-10-15T05:41:13.000Z</time>
      </trkpt>
      <trkpt lat="45.11356" lon="6.00424">
        <ele>761</ele>
        <time>2024-10-15T05:41:14.000Z</time>
      </trkpt>
      <trkpt lat="45.11355" lon="6.00424">
        <ele>761.20001220703</ele>
        <time>2024-10-15T05:41:15.000Z</time>
      </trkpt>
      <trkpt lat="45.11355" lon="6.00423">
        <ele>761.40002441406</ele>
        <time>2024-10-15T05:41:16.000Z</time>
      </trkpt>
      <trkpt lat="45.11355" lon="6.00422">
        <ele>761.59997558594</ele>
        <time>2024-10-15T05:41:17.000Z</time>
      </trkpt>
      <trkpt lat="45.11356" lon="6.00421">
        <ele>761.79998779297</ele>
        <time>2024-10-15T05:41:18.000Z</time>
      </trkpt>
      <trkpt lat="45.11357" lon="6.00421">
        <ele>762.20001220703</ele>
        <time>2024-10-15T05:41:19.000Z</time>
      </trkpt>
      <trkpt lat="45.11357" lon="6.0042">
        <ele>762.40002441406</ele>
        <time>2024-10-15T05:41:20.000Z</time>
      </trkpt>
      <trkpt lat="45.11357" lon="6.00419">
        <ele>762.40002441406</ele>
        <time>2024-10-15T05:41:21.000Z</time>
      </trkpt>
      <trkpt lat="45.11357" lon="6.00418">
        <ele>762.59997558594</ele>
        <time>2024-10-15T05:41:22.000Z</time>
      </trkpt>
      <trkpt lat="45.11356" lon="6.00417">
        <ele>762.79998779297</ele>
        <time>2024-10-15T05:41:23.000Z</time>
      </trkpt>
      <trkpt lat="45.11356" lon="6.00416">
        <ele>762.79998779297</ele>
        <time>2024-10-15T05:41:24.000Z</time>
      </trkpt>
      <trkpt lat="45.11355" lon="6.00415">
        <ele>763</ele>
        <time>2024-10-15T05:41:25.000Z</time>
      </trkpt>
      <trkpt lat="45.11354" lon="6.00414">
        <ele>763.20001220703</ele>
        <time>2024-10-15T05:41:26.000Z</time>
      </trkpt>
      <trkpt lat="45.11354" lon="6.00413">
        <ele>763.20001220703</ele>
        <time>2024-10-15T05:41:27.000Z</time>
      </trkpt>
      <trkpt lat="45.11354" lon="6.00413">
        <ele>763.59997558594</ele>
        <time>2024-10-15T05:41:28.000Z</time>
      </trkpt>
      <trkpt lat="45.11353" lon="6.00413">
        <ele>763.59997558594</ele>
        <time>2024-10-15T05:41:29.000Z</time>
      </trkpt>
      <trkpt lat="45.11353" lon="6.00412">
        <ele>763.79998779297</ele>
        <time>2024-10-15T05:41:30.000Z</time>
      </trkpt>
      <trkpt lat="45.11352" lon="6.00411">
        <ele>764</ele>
        <time>2024-10-15T05:41:31.000Z</time>
      </trkpt>
      <trkpt lat="45.11352" lon="6.00411">
        <ele>764.40002441406</ele>
        <time>2024-10-15T05:41:32.000Z</time>
      </trkpt>
      <trkpt lat="45.11352" lon="6.0041">
        <ele>764.40002441406</ele>
        <time>2024-10-15T05:41:33.000Z</time>
      </trkpt>
      <trkpt lat="45.11353" lon="6.0041">
        <ele>764.59997558594</ele>
        <time>2024-10-15T05:41:34.000Z</time>
      </trkpt>
      <trkpt lat="45.11351" lon="6.00408">
        <ele>764.79998779297</ele>
        <time>2024-10-15T05:41:35.000Z</time>
      </trkpt>
      <trkpt lat="45.11351" lon="6.00408">
        <ele>765</ele>
        <time>2024-10-15T05:41:36.000Z</time>
      </trkpt>
      <trkpt lat="45.11351" lon="6.00407">
        <ele>765.20001220703</ele>
        <time>2024-10-15T05:41:37.000Z</time>
      </trkpt>
      <trkpt lat="45.11352" lon="6.00407">
        <ele>765.40002441406</ele>
        <time>2024-10-15T05:41:38.000Z</time>
      </trkpt>
      <trkpt lat="45.11352" lon="6.00406">
        <ele>765.59997558594</ele>
        <time>2024-10-15T05:41:39.000Z</time>
      </trkpt>
      <trkpt lat="45.11352" lon="6.00406">
        <ele>765.59997558594</ele>
        <time>2024-10-15T05:41:40.000Z</time>
      </trkpt>
      <trkpt lat="45.11352" lon="6.00405">
        <ele>765.79998779297</ele>
        <time>2024-10-15T05:41:41.000Z</time>
      </trkpt>
      <trkpt lat="45.11352" lon="6.00404">
        <ele>765.79998779297</ele>
        <time>2024-10-15T05:41:42.000Z</time>
      </trkpt>
      <trkpt lat="45.11352" lon="6.00403">
        <ele>766</ele>
        <time>2024-10-15T05:41:43.000Z</time>
      </trkpt>
      <trkpt lat="45.11351" lon="6.00402">
        <ele>766.40002441406</ele>
        <time>2024-10-15T05:41:44.000Z</time>
      </trkpt>
      <trkpt lat="45.1135" lon="6.00401">
        <ele>766.40002441406</ele>
        <time>2024-10-15T05:41:45.000Z</time>
      </trkpt>
      <trkpt lat="45.11349" lon="6.004">
        <ele>766.79998779297</ele>
        <time>2024-10-15T05:41:46.000Z</time>
      </trkpt>
      <trkpt lat="45.11349" lon="6.00399">
        <ele>766.79998779297</ele>
        <time>2024-10-15T05:41:47.000Z</time>
      </trkpt>
      <trkpt lat="45.11349" lon="6.00399">
        <ele>767</ele>
        <time>2024-10-15T05:41:48.000Z</time>
      </trkpt>
      <trkpt lat="45.11349" lon="6.00398">
        <ele>767.40002441406</ele>
        <time>2024-10-15T05:41:49.000Z</time>
      </trkpt>
      <trkpt lat="45.11349" lon="6.00397">
        <ele>767.40002441406</ele>
        <time>2024-10-15T05:41:50.000Z</time>
      </trkpt>
      <trkpt lat="45.11349" lon="6.00397">
        <ele>767.59997558594</ele>
        <time>2024-10-15T05:41:51.000Z</time>
      </trkpt>
      <trkpt lat="45.11349" lon="6.00397">
        <ele>768</ele>
        <time>2024-10-15T05:41:52.000Z</time>
      </trkpt>
      <trkpt lat="45.11349" lon="6.00396">
        <ele>768</ele>
        <time>2024-10-15T05:41:53.000Z</time>
      </trkpt>
      <trkpt lat="45.1135" lon="6.00395">
        <ele>768.20001220703</ele>
        <time>2024-10-15T05:41:54.000Z</time>
      </trkpt>
      <trkpt lat="45.11349" lon="6.00394">
        <ele>768.40002441406</ele>
        <time>2024-10-15T05:41:55.000Z</time>
      </trkpt>
      <trkpt lat="45.11349" lon="6.00393">
        <ele>768.59997558594</ele>
        <time>2024-10-15T05:41:56.000Z</time>
      </trkpt>
      <trkpt lat="45.11348" lon="6.00393">
        <ele>768.79998779297</ele>
        <time>2024-10-15T05:41:57.000Z</time>
      </trkpt>
      <trkpt lat="45.11348" lon="6.00392">
        <ele>769.20001220703</ele>
        <time>2024-10-15T05:41:58.000Z</time>
      </trkpt>
      <trkpt lat="45.11348" lon="6.00391">
        <ele>769.40002441406</ele>
        <time>2024-10-15T05:41:59.000Z</time>
      </trkpt>
      <trkpt lat="45.11347" lon="6.0039">
        <ele>769.59997558594</ele>
        <time>2024-10-15T05:42:00.000Z</time>
      </trkpt>
      <trkpt lat="45.11347" lon="6.00389">
        <ele>769.79998779297</ele>
        <time>2024-10-15T05:42:01.000Z</time>
      </trkpt>
      <trkpt lat="45.11347" lon="6.00387">
        <ele>770</ele>
        <time>2024-10-15T05:42:02.000Z</time>
      </trkpt>
      <trkpt lat="45.11347" lon="6.00387">
        <ele>770.20001220703</ele>
        <time>2024-10-15T05:42:03.000Z</time>
      </trkpt>
      <trkpt lat="45.11347" lon="6.00386">
        <ele>770.40002441406</ele>
        <time>2024-10-15T05:42:04.000Z</time>
      </trkpt>
      <trkpt lat="45.11347" lon="6.00385">
        <ele>770.59997558594</ele>
        <time>2024-10-15T05:42:05.000Z</time>
      </trkpt>
      <trkpt lat="45.11348" lon="6.00384">
        <ele>770.79998779297</ele>
        <time>2024-10-15T05:42:06.000Z</time>
      </trkpt>
      <trkpt lat="45.11347" lon="6.00383">
        <ele>771</ele>
        <time>2024-10-15T05:42:07.000Z</time>
      </trkpt>
      <trkpt lat="45.11347" lon="6.00382">
        <ele>771.20001220703</ele>
        <time>2024-10-15T05:42:08.000Z</time>
      </trkpt>
      <trkpt lat="45.11347" lon="6.00381">
        <ele>771.40002441406</ele>
        <time>2024-10-15T05:42:09.000Z</time>
      </trkpt>
      <trkpt lat="45.11346" lon="6.0038">
        <ele>771.59997558594</ele>
        <time>2024-10-15T05:42:10.000Z</time>
      </trkpt>
      <trkpt lat="45.11345" lon="6.00379">
        <ele>772</ele>
        <time>2024-10-15T05:42:11.000Z</time>
      </trkpt>
      <trkpt lat="45.11344" lon="6.00378">
        <ele>772</ele>
        <time>2024-10-15T05:42:12.000Z</time>
      </trkpt>
      <trkpt lat="45.11344" lon="6.00377">
        <ele>772.20001220703</ele>
        <time>2024-10-15T05:42:13.000Z</time>
      </trkpt>
      <trkpt lat="45.11343" lon="6.00376">
        <ele>772.40002441406</ele>
        <time>2024-10-15T05:42:14.000Z</time>
      </trkpt>
      <trkpt lat="45.11343" lon="6.00376">
        <ele>772.59997558594</ele>
        <time>2024-10-15T05:42:15.000Z</time>
      </trkpt>
      <trkpt lat="45.11343" lon="6.00374">
        <ele>772.79998779297</ele>
        <time>2024-10-15T05:42:16.000Z</time>
      </trkpt>
      <trkpt lat="45.11342" lon="6.00373">
        <ele>773.20001220703</ele>
        <time>2024-10-15T05:42:17.000Z</time>
      </trkpt>
      <trkpt lat="45.11342" lon="6.00372">
        <ele>773.40002441406</ele>
        <time>2024-10-15T05:42:18.000Z</time>
      </trkpt>
      <trkpt lat="45.11341" lon="6.0037">
        <ele>773.59997558594</ele>
        <time>2024-10-15T05:42:19.000Z</time>
      </trkpt>
      <trkpt lat="45.1134" lon="6.00369">
        <ele>774</ele>
        <time>2024-10-15T05:42:20.000Z</time>
      </trkpt>
      <trkpt lat="45.11339" lon="6.00368">
        <ele>774.20001220703</ele>
        <time>2024-10-15T05:42:21.000Z</time>
      </trkpt>
      <trkpt lat="45.11341" lon="6.00368">
        <ele>774.40002441406</ele>
        <time>2024-10-15T05:42:22.000Z</time>
      </trkpt>
      <trkpt lat="45.11341" lon="6.00367">
        <ele>774.59997558594</ele>
        <time>2024-10-15T05:42:23.000Z</time>
      </trkpt>
      <trkpt lat="45.11341" lon="6.00365">
        <ele>774.79998779297</ele>
        <time>2024-10-15T05:42:24.000Z</time>
      </trkpt>
      <trkpt lat="45.11341" lon="6.00364">
        <ele>775</ele>
        <time>2024-10-15T05:42:25.000Z</time>
      </trkpt>
      <trkpt lat="45.1134" lon="6.00363">
        <ele>775.40002441406</ele>
        <time>2024-10-15T05:42:26.000Z</time>
      </trkpt>
      <trkpt lat="45.11341" lon="6.00363">
        <ele>775.40002441406</ele>
        <time>2024-10-15T05:42:27.000Z</time>
      </trkpt>
      <trkpt lat="45.11341" lon="6.00362">
        <ele>775.59997558594</ele>
        <time>2024-10-15T05:42:28.000Z</time>
      </trkpt>
      <trkpt lat="45.11342" lon="6.00361">
        <ele>776</ele>
        <time>2024-10-15T05:42:29.000Z</time>
      </trkpt>
      <trkpt lat="45.11343" lon="6.0036">
        <ele>776.40002441406</ele>
        <time>2024-10-15T05:42:30.000Z</time>
      </trkpt>
      <trkpt lat="45.11343" lon="6.00359">
        <ele>776.59997558594</ele>
        <time>2024-10-15T05:42:31.000Z</time>
      </trkpt>
      <trkpt lat="45.11344" lon="6.00359">
        <ele>776.79998779297</ele>
        <time>2024-10-15T05:42:32.000Z</time>
      </trkpt>
      <trkpt lat="45.11347" lon="6.00359">
        <ele>776.79998779297</ele>
        <time>2024-10-15T05:42:33.000Z</time>
      </trkpt>
      <trkpt lat="45.11347" lon="6.00358">
        <ele>777</ele>
        <time>2024-10-15T05:42:34.000Z</time>
      </trkpt>
      <trkpt lat="45.11348" lon="6.00358">
        <ele>777.20001220703</ele>
        <time>2024-10-15T05:42:35.000Z</time>
      </trkpt>
      <trkpt lat="45.11347" lon="6.00358">
        <ele>777.40002441406</ele>
        <time>2024-10-15T05:42:36.000Z</time>
      </trkpt>
      <trkpt lat="45.11346" lon="6.00359">
        <ele>777.59997558594</ele>
        <time>2024-10-15T05:42:37.000Z</time>
      </trkpt>
      <trkpt lat="45.11344" lon="6.00357">
        <ele>777.59997558594</ele>
        <time>2024-10-15T05:42:38.000Z</time>
      </trkpt>
      <trkpt lat="45.11343" lon="6.00356">
        <ele>778</ele>
        <time>2024-10-15T05:42:39.000Z</time>
      </trkpt>
      <trkpt lat="45.11344" lon="6.00356">
        <ele>778.20001220703</ele>
        <time>2024-10-15T05:42:40.000Z</time>
      </trkpt>
      <trkpt lat="45.11344" lon="6.00356">
        <ele>778.40002441406</ele>
        <time>2024-10-15T05:42:41.000Z</time>
      </trkpt>
      <trkpt lat="45.11345" lon="6.00356">
        <ele>778.59997558594</ele>
        <time>2024-10-15T05:42:42.000Z</time>
      </trkpt>
      <trkpt lat="45.11344" lon="6.00355">
        <ele>778.59997558594</ele>
        <time>2024-10-15T05:42:43.000Z</time>
      </trkpt>
      <trkpt lat="45.11344" lon="6.00354">
        <ele>779</ele>
        <time>2024-10-15T05:42:44.000Z</time>
      </trkpt>
      <trkpt lat="45.11344" lon="6.00354">
        <ele>779</ele>
        <time>2024-10-15T05:42:45.000Z</time>
      </trkpt>
      <trkpt lat="45.11344" lon="6.00353">
        <ele>779.20001220703</ele>
        <time>2024-10-15T05:42:46.000Z</time>
      </trkpt>
      <trkpt lat="45.11344" lon="6.00353">
        <ele>779.40002441406</ele>
        <time>2024-10-15T05:42:47.000Z</time>
      </trkpt>
      <trkpt lat="45.11344" lon="6.00354">
        <ele>779.59997558594</ele>
        <time>2024-10-15T05:42:48.000Z</time>
      </trkpt>
      <trkpt lat="45.11343" lon="6.00354">
        <ele>779.79998779297</ele>
        <time>2024-10-15T05:42:49.000Z</time>
      </trkpt>
      <trkpt lat="45.11343" lon="6.00355">
        <ele>780</ele>
        <time>2024-10-15T05:42:50.000Z</time>
      </trkpt>
      <trkpt lat="45.11344" lon="6.00356">
        <ele>780.20001220703</ele>
        <time>2024-10-15T05:42:51.000Z</time>
      </trkpt>
      <trkpt lat="45.11343" lon="6.00357">
        <ele>780.40002441406</ele>
        <time>2024-10-15T05:42:52.000Z</time>
      </trkpt>
      <trkpt lat="45.11343" lon="6.00357">
        <ele>780.59997558594</ele>
        <time>2024-10-15T05:42:53.000Z</time>
      </trkpt>
      <trkpt lat="45.11342" lon="6.00357">
        <ele>780.79998779297</ele>
        <time>2024-10-15T05:42:54.000Z</time>
      </trkpt>
      <trkpt lat="45.11342" lon="6.00357">
        <ele>781</ele>
        <time>2024-10-15T05:42:55.000Z</time>
      </trkpt>
      <trkpt lat="45.11343" lon="6.00357">
        <ele>781.20001220703</ele>
        <time>2024-10-15T05:42:56.000Z</time>
      </trkpt>
      <trkpt lat="45.11343" lon="6.00357">
        <ele>781.40002441406</ele>
        <time>2024-10-15T05:42:57.000Z</time>
      </trkpt>
      <trkpt lat="45.11343" lon="6.00357">
        <ele>781.79998779297</ele>
        <time>2024-10-15T05:42:58.000Z</time>
      </trkpt>
      <trkpt lat="45.11343" lon="6.00358">
        <ele>781.79998779297</ele>
        <time>2024-10-15T05:42:59.000Z</time>
      </trkpt>
      <trkpt lat="45.11342" lon="6.00358">
        <ele>782</ele>
        <time>2024-10-15T05:43:00.000Z</time>
      </trkpt>
      <trkpt lat="45.11341" lon="6.00357">
        <ele>782.20001220703</ele>
        <time>2024-10-15T05:43:01.000Z</time>
      </trkpt>
      <trkpt lat="45.11341" lon="6.00357">
        <ele>782.20001220703</ele>
        <time>2024-10-15T05:43:02.000Z</time>
      </trkpt>
      <trkpt lat="45.11342" lon="6.00357">
        <ele>782.59997558594</ele>
        <time>2024-10-15T05:43:03.000Z</time>
      </trkpt>
      <trkpt lat="45.11342" lon="6.00357">
        <ele>782.59997558594</ele>
        <time>2024-10-15T05:43:04.000Z</time>
      </trkpt>
      <trkpt lat="45.11341" lon="6.00356">
        <ele>782.59997558594</ele>
        <time>2024-10-15T05:43:05.000Z</time>
      </trkpt>
      <trkpt lat="45.1134" lon="6.00355">
        <ele>782.59997558594</ele>
        <time>2024-10-15T05:43:06.000Z</time>
      </trkpt>
      <trkpt lat="45.1134" lon="6.00354">
        <ele>782.59997558594</ele>
        <time>2024-10-15T05:43:07.000Z</time>
      </trkpt>
      <trkpt lat="45.11341" lon="6.00354">
        <ele>782.59997558594</ele>
        <time>2024-10-15T05:43:08.000Z</time>
      </trkpt>
      <trkpt lat="45.11342" lon="6.00354">
        <ele>782.59997558594</ele>
        <time>2024-10-15T05:43:09.000Z</time>
      </trkpt>
      <trkpt lat="45.11342" lon="6.00355">
        <ele>782.59997558594</ele>
        <time>2024-10-15T05:43:10.000Z</time>
      </trkpt>
      <trkpt lat="45.11343" lon="6.00354">
        <ele>782.79998779297</ele>
        <time>2024-10-15T05:43:11.000Z</time>
      </trkpt>
      <trkpt lat="45.11342" lon="6.00353">
        <ele>782.79998779297</ele>
        <time>2024-10-15T05:43:12.000Z</time>
      </trkpt>
      <trkpt lat="45.11342" lon="6.00352">
        <ele>783.20001220703</ele>
        <time>2024-10-15T05:43:13.000Z</time>
      </trkpt>
      <trkpt lat="45.11342" lon="6.00351">
        <ele>783.59997558594</ele>
        <time>2024-10-15T05:43:14.000Z</time>
      </trkpt>
      <trkpt lat="45.11342" lon="6.00351">
        <ele>783.59997558594</ele>
        <time>2024-10-15T05:43:15.000Z</time>
      </trkpt>
      <trkpt lat="45.11342" lon="6.0035">
        <ele>783.79998779297</ele>
        <time>2024-10-15T05:43:16.000Z</time>
      </trkpt>
      <trkpt lat="45.11342" lon="6.0035">
        <ele>784.20001220703</ele>
        <time>2024-10-15T05:43:17.000Z</time>
      </trkpt>
      <trkpt lat="45.11342" lon="6.0035">
        <ele>784.20001220703</ele>
        <time>2024-10-15T05:43:18.000Z</time>
      </trkpt>
      <trkpt lat="45.11342" lon="6.0035">
        <ele>784.40002441406</ele>
        <time>2024-10-15T05:43:19.000Z</time>
      </trkpt>
      <trkpt lat="45.11342" lon="6.00349">
        <ele>784.59997558594</ele>
        <time>2024-10-15T05:43:20.000Z</time>
      </trkpt>
      <trkpt lat="45.11342" lon="6.00349">
        <ele>784.79998779297</ele>
        <time>2024-10-15T05:43:21.000Z</time>
      </trkpt>
      <trkpt lat="45.11342" lon="6.00348">
        <ele>785</ele>
        <time>2024-10-15T05:43:22.000Z</time>
      </trkpt>
      <trkpt lat="45.11341" lon="6.00347">
        <ele>785.20001220703</ele>
        <time>2024-10-15T05:43:23.000Z</time>
      </trkpt>
      <trkpt lat="45.1134" lon="6.00346">
        <ele>785.20001220703</ele>
        <time>2024-10-15T05:43:24.000Z</time>
      </trkpt>
      <trkpt lat="45.11339" lon="6.00345">
        <ele>785.40002441406</ele>
        <time>2024-10-15T05:43:25.000Z</time>
      </trkpt>
      <trkpt lat="45.11339" lon="6.00344">
        <ele>785.79998779297</ele>
        <time>2024-10-15T05:43:26.000Z</time>
      </trkpt>
      <trkpt lat="45.11338" lon="6.00343">
        <ele>785.79998779297</ele>
        <time>2024-10-15T05:43:27.000Z</time>
      </trkpt>
      <trkpt lat="45.11338" lon="6.00342">
        <ele>786</ele>
        <time>2024-10-15T05:43:28.000Z</time>
      </trkpt>
      <trkpt lat="45.11339" lon="6.00342">
        <ele>786.20001220703</ele>
        <time>2024-10-15T05:43:29.000Z</time>
      </trkpt>
      <trkpt lat="45.11339" lon="6.00343">
        <ele>786.59997558594</ele>
        <time>2024-10-15T05:43:30.000Z</time>
      </trkpt>
      <trkpt lat="45.1134" lon="6.00343">
        <ele>786.59997558594</ele>
        <time>2024-10-15T05:43:31.000Z</time>
      </trkpt>
      <trkpt lat="45.1134" lon="6.00344">
        <ele>786.79998779297</ele>
        <time>2024-10-15T05:43:32.000Z</time>
      </trkpt>
      <trkpt lat="45.1134" lon="6.00344">
        <ele>786.79998779297</ele>
        <time>2024-10-15T05:43:33.000Z</time>
      </trkpt>
      <trkpt lat="45.11341" lon="6.00344">
        <ele>786.79998779297</ele>
        <time>2024-10-15T05:43:34.000Z</time>
      </trkpt>
      <trkpt lat="45.1134" lon="6.00345">
        <ele>787</ele>
        <time>2024-10-15T05:43:35.000Z</time>
      </trkpt>
      <trkpt lat="45.1134" lon="6.00346">
        <ele>787</ele>
        <time>2024-10-15T05:43:36.000Z</time>
      </trkpt>
      <trkpt lat="45.1134" lon="6.00346">
        <ele>787.20001220703</ele>
        <time>2024-10-15T05:43:37.000Z</time>
      </trkpt>
      <trkpt lat="45.11341" lon="6.00346">
        <ele>787.59997558594</ele>
        <time>2024-10-15T05:43:38.000Z</time>
      </trkpt>
      <trkpt lat="45.1134" lon="6.00346">
        <ele>787.79998779297</ele>
        <time>2024-10-15T05:43:39.000Z</time>
      </trkpt>
      <trkpt lat="45.11339" lon="6.00346">
        <ele>788</ele>
        <time>2024-10-15T05:43:40.000Z</time>
      </trkpt>
      <trkpt lat="45.11339" lon="6.00345">
        <ele>788.20001220703</ele>
        <time>2024-10-15T05:43:41.000Z</time>
      </trkpt>
      <trkpt lat="45.1134" lon="6.00345">
        <ele>788.40002441406</ele>
        <time>2024-10-15T05:43:42.000Z</time>
      </trkpt>
      <trkpt lat="45.1134" lon="6.00345">
        <ele>788.79998779297</ele>
        <time>2024-10-15T05:43:43.000Z</time>
      </trkpt>
      <trkpt lat="45.11341" lon="6.00346">
        <ele>789</ele>
        <time>2024-10-15T05:43:44.000Z</time>
      </trkpt>
      <trkpt lat="45.11341" lon="6.00346">
        <ele>789.40002441406</ele>
        <time>2024-10-15T05:43:45.000Z</time>
      </trkpt>
      <trkpt lat="45.11343" lon="6.00346">
        <ele>789.79998779297</ele>
        <time>2024-10-15T05:43:46.000Z</time>
      </trkpt>
      <trkpt lat="45.11343" lon="6.00346">
        <ele>790</ele>
        <time>2024-10-15T05:43:47.000Z</time>
      </trkpt>
      <trkpt lat="45.11343" lon="6.00346">
        <ele>790.20001220703</ele>
        <time>2024-10-15T05:43:48.000Z</time>
      </trkpt>
      <trkpt lat="45.11343" lon="6.00346">
        <ele>790.20001220703</ele>
        <time>2024-10-15T05:43:49.000Z</time>
      </trkpt>
      <trkpt lat="45.11343" lon="6.00346">
        <ele>790.59997558594</ele>
        <time>2024-10-15T05:43:50.000Z</time>
      </trkpt>
      <trkpt lat="45.11343" lon="6.00346">
        <ele>790.79998779297</ele>
        <time>2024-10-15T05:43:51.000Z</time>
      </trkpt>
      <trkpt lat="45.11343" lon="6.00346">
        <ele>790.79998779297</ele>
        <time>2024-10-15T05:43:52.000Z</time>
      </trkpt>
      <trkpt lat="45.11343" lon="6.00346">
        <ele>791.20001220703</ele>
        <time>2024-10-15T05:43:53.000Z</time>
      </trkpt>
      <trkpt lat="45.11343" lon="6.00346">
        <ele>791.40002441406</ele>
        <time>2024-10-15T05:43:54.000Z</time>
      </trkpt>
      <trkpt lat="45.11343" lon="6.00346">
        <ele>791.59997558594</ele>
        <time>2024-10-15T05:43:55.000Z</time>
      </trkpt>
      <trkpt lat="45.11342" lon="6.00347">
        <ele>791.59997558594</ele>
        <time>2024-10-15T05:43:56.000Z</time>
      </trkpt>
      <trkpt lat="45.11341" lon="6.00348">
        <ele>791.79998779297</ele>
        <time>2024-10-15T05:43:57.000Z</time>
      </trkpt>
      <trkpt lat="45.1134" lon="6.00349">
        <ele>792.20001220703</ele>
        <time>2024-10-15T05:43:58.000Z</time>
      </trkpt>
      <trkpt lat="45.1134" lon="6.0035">
        <ele>792.40002441406</ele>
        <time>2024-10-15T05:43:59.000Z</time>
      </trkpt>
      <trkpt lat="45.1134" lon="6.00351">
        <ele>792.59997558594</ele>
        <time>2024-10-15T05:44:00.000Z</time>
      </trkpt>
      <trkpt lat="45.1134" lon="6.00352">
        <ele>792.79998779297</ele>
        <time>2024-10-15T05:44:01.000Z</time>
      </trkpt>
      <trkpt lat="45.11339" lon="6.00352">
        <ele>793</ele>
        <time>2024-10-15T05:44:02.000Z</time>
      </trkpt>
      <trkpt lat="45.11339" lon="6.00353">
        <ele>793.20001220703</ele>
        <time>2024-10-15T05:44:03.000Z</time>
      </trkpt>
      <trkpt lat="45.11338" lon="6.00353">
        <ele>793.40002441406</ele>
        <time>2024-10-15T05:44:04.000Z</time>
      </trkpt>
      <trkpt lat="45.11338" lon="6.00354">
        <ele>793.59997558594</ele>
        <time>2024-10-15T05:44:05.000Z</time>
      </trkpt>
      <trkpt lat="45.11338" lon="6.00354">
        <ele>793.79998779297</ele>
        <time>2024-10-15T05:44:06.000Z</time>
      </trkpt>
      <trkpt lat="45.11338" lon="6.00354">
        <ele>794.20001220703</ele>
        <time>2024-10-15T05:44:07.000Z</time>
      </trkpt>
      <trkpt lat="45.11338" lon="6.00354">
        <ele>794.40002441406</ele>
        <time>2024-10-15T05:44:08.000Z</time>
      </trkpt>
      <trkpt lat="45.11337" lon="6.00355">
        <ele>794.59997558594</ele>
        <time>2024-10-15T05:44:09.000Z</time>
      </trkpt>
      <trkpt lat="45.11337" lon="6.00355">
        <ele>794.59997558594</ele>
        <time>2024-10-15T05:44:10.000Z</time>
      </trkpt>
      <trkpt lat="45.11337" lon="6.00355">
        <ele>795</ele>
        <time>2024-10-15T05:44:11.000Z</time>
      </trkpt>
      <trkpt lat="45.11338" lon="6.00356">
        <ele>795.20001220703</ele>
        <time>2024-10-15T05:44:12.000Z</time>
      </trkpt>
      <trkpt lat="45.11338" lon="6.00356">
        <ele>795.40002441406</ele>
        <time>2024-10-15T05:44:13.000Z</time>
      </trkpt>
      <trkpt lat="45.11337" lon="6.00356">
        <ele>795.59997558594</ele>
        <time>2024-10-15T05:44:14.000Z</time>
      </trkpt>
      <trkpt lat="45.11337" lon="6.00356">
        <ele>795.79998779297</ele>
        <time>2024-10-15T05:44:15.000Z</time>
      </trkpt>
      <trkpt lat="45.11337" lon="6.00356">
        <ele>795.79998779297</ele>
        <time>2024-10-15T05:44:16.000Z</time>
      </trkpt>
      <trkpt lat="45.11336" lon="6.00356">
        <ele>796</ele>
        <time>2024-10-15T05:44:17.000Z</time>
      </trkpt>
      <trkpt lat="45.11336" lon="6.00356">
        <ele>796.20001220703</ele>
        <time>2024-10-15T05:44:18.000Z</time>
      </trkpt>
      <trkpt lat="45.11336" lon="6.00356">
        <ele>796.40002441406</ele>
        <time>2024-10-15T05:44:19.000Z</time>
      </trkpt>
      <trkpt lat="45.11336" lon="6.00357">
        <ele>796.59997558594</ele>
        <time>2024-10-15T05:44:20.000Z</time>
      </trkpt>
      <trkpt lat="45.11336" lon="6.00357">
        <ele>796.79998779297</ele>
        <time>2024-10-15T05:44:21.000Z</time>
      </trkpt>
      <trkpt lat="45.11336" lon="6.00358">
        <ele>797.20001220703</ele>
        <time>2024-10-15T05:44:22.000Z</time>
      </trkpt>
      <trkpt lat="45.11336" lon="6.00358">
        <ele>797.40002441406</ele>
        <time>2024-10-15T05:44:23.000Z</time>
      </trkpt>
      <trkpt lat="45.11335" lon="6.00359">
        <ele>797.59997558594</ele>
        <time>2024-10-15T05:44:24.000Z</time>
      </trkpt>
      <trkpt lat="45.11335" lon="6.00359">
        <ele>797.59997558594</ele>
        <time>2024-10-15T05:44:25.000Z</time>
      </trkpt>
      <trkpt lat="45.11334" lon="6.00359">
        <ele>797.79998779297</ele>
        <time>2024-10-15T05:44:26.000Z</time>
      </trkpt>
      <trkpt lat="45.11334" lon="6.0036">
        <ele>798</ele>
        <time>2024-10-15T05:44:27.000Z</time>
      </trkpt>
      <trkpt lat="45.11335" lon="6.0036">
        <ele>798</ele>
        <time>2024-10-15T05:44:28.000Z</time>
      </trkpt>
      <trkpt lat="45.11334" lon="6.00361">
        <ele>798.40002441406</ele>
        <time>2024-10-15T05:44:29.000Z</time>
      </trkpt>
      <trkpt lat="45.11333" lon="6.00361">
        <ele>798.40002441406</ele>
        <time>2024-10-15T05:44:30.000Z</time>
      </trkpt>
      <trkpt lat="45.11333" lon="6.00361">
        <ele>798.59997558594</ele>
        <time>2024-10-15T05:44:31.000Z</time>
      </trkpt>
      <trkpt lat="45.11332" lon="6.00361">
        <ele>798.79998779297</ele>
        <time>2024-10-15T05:44:32.000Z</time>
      </trkpt>
      <trkpt lat="45.11332" lon="6.00362">
        <ele>799</ele>
        <time>2024-10-15T05:44:33.000Z</time>
      </trkpt>
      <trkpt lat="45.11332" lon="6.00363">
        <ele>799.40002441406</ele>
        <time>2024-10-15T05:44:34.000Z</time>
      </trkpt>
      <trkpt lat="45.11331" lon="6.00363">
        <ele>799.40002441406</ele>
        <time>2024-10-15T05:44:35.000Z</time>
      </trkpt>
      <trkpt lat="45.11331" lon="6.00364">
        <ele>799.40002441406</ele>
        <time>2024-10-15T05:44:36.000Z</time>
      </trkpt>
      <trkpt lat="45.11331" lon="6.00364">
        <ele>799.59997558594</ele>
        <time>2024-10-15T05:44:37.000Z</time>
      </trkpt>
      <trkpt lat="45.11331" lon="6.00364">
        <ele>800</ele>
        <time>2024-10-15T05:44:38.000Z</time>
      </trkpt>
      <trkpt lat="45.1133" lon="6.00365">
        <ele>800.20001220703</ele>
        <time>2024-10-15T05:44:39.000Z</time>
      </trkpt>
      <trkpt lat="45.1133" lon="6.00365">
        <ele>800.20001220703</ele>
        <time>2024-10-15T05:44:40.000Z</time>
      </trkpt>
      <trkpt lat="45.1133" lon="6.00365">
        <ele>800.40002441406</ele>
        <time>2024-10-15T05:44:41.000Z</time>
      </trkpt>
      <trkpt lat="45.1133" lon="6.00366">
        <ele>800.59997558594</ele>
        <time>2024-10-15T05:44:42.000Z</time>
      </trkpt>
      <trkpt lat="45.1133" lon="6.00366">
        <ele>800.79998779297</ele>
        <time>2024-10-15T05:44:43.000Z</time>
      </trkpt>
      <trkpt lat="45.1133" lon="6.00366">
        <ele>801</ele>
        <time>2024-10-15T05:44:44.000Z</time>
      </trkpt>
      <trkpt lat="45.1133" lon="6.00367">
        <ele>801.20001220703</ele>
        <time>2024-10-15T05:44:45.000Z</time>
      </trkpt>
      <trkpt lat="45.1133" lon="6.00367">
        <ele>801.20001220703</ele>
        <time>2024-10-15T05:44:46.000Z</time>
      </trkpt>
      <trkpt lat="45.11329" lon="6.00367">
        <ele>801.59997558594</ele>
        <time>2024-10-15T05:44:47.000Z</time>
      </trkpt>
      <trkpt lat="45.11329" lon="6.00367">
        <ele>801.79998779297</ele>
        <time>2024-10-15T05:44:48.000Z</time>
      </trkpt>
      <trkpt lat="45.11328" lon="6.00368">
        <ele>801.79998779297</ele>
        <time>2024-10-15T05:44:49.000Z</time>
      </trkpt>
      <trkpt lat="45.11329" lon="6.0037">
        <ele>802</ele>
        <time>2024-10-15T05:44:50.000Z</time>
      </trkpt>
      <trkpt lat="45.11329" lon="6.0037">
        <ele>802.20001220703</ele>
        <time>2024-10-15T05:44:51.000Z</time>
      </trkpt>
      <trkpt lat="45.11328" lon="6.00371">
        <ele>802.40002441406</ele>
        <time>2024-10-15T05:44:52.000Z</time>
      </trkpt>
      <trkpt lat="45.11328" lon="6.00371">
        <ele>802.59997558594</ele>
        <time>2024-10-15T05:44:53.000Z</time>
      </trkpt>
      <trkpt lat="45.11328" lon="6.00371">
        <ele>802.79998779297</ele>
        <time>2024-10-15T05:44:54.000Z</time>
      </trkpt>
      <trkpt lat="45.11328" lon="6.00371">
        <ele>803</ele>
        <time>2024-10-15T05:44:55.000Z</time>
      </trkpt>
      <trkpt lat="45.11328" lon="6.00371">
        <ele>803.20001220703</ele>
        <time>2024-10-15T05:44:56.000Z</time>
      </trkpt>
      <trkpt lat="45.11327" lon="6.00372">
        <ele>803.20001220703</ele>
        <time>2024-10-15T05:44:57.000Z</time>
      </trkpt>
      <trkpt lat="45.11327" lon="6.00372">
        <ele>803.40002441406</ele>
        <time>2024-10-15T05:44:58.000Z</time>
      </trkpt>
      <trkpt lat="45.11326" lon="6.00371">
        <ele>803.59997558594</ele>
        <time>2024-10-15T05:44:59.000Z</time>
      </trkpt>
      <trkpt lat="45.11325" lon="6.00371">
        <ele>803.79998779297</ele>
        <time>2024-10-15T05:45:00.000Z</time>
      </trkpt>
      <trkpt lat="45.11325" lon="6.0037">
        <ele>804</ele>
        <time>2024-10-15T05:45:01.000Z</time>
      </trkpt>
      <trkpt lat="45.11324" lon="6.0037">
        <ele>804.20001220703</ele>
        <time>2024-10-15T05:45:02.000Z</time>
      </trkpt>
      <trkpt lat="45.11324" lon="6.00371">
        <ele>804.40002441406</ele>
        <time>2024-10-15T05:45:03.000Z</time>
      </trkpt>
      <trkpt lat="45.11324" lon="6.00371">
        <ele>804.59997558594</ele>
        <time>2024-10-15T05:45:04.000Z</time>
      </trkpt>
      <trkpt lat="45.11324" lon="6.00371">
        <ele>804.59997558594</ele>
        <time>2024-10-15T05:45:05.000Z</time>
      </trkpt>
      <trkpt lat="45.11324" lon="6.00371">
        <ele>804.79998779297</ele>
        <time>2024-10-15T05:45:06.000Z</time>
      </trkpt>
      <trkpt lat="45.11324" lon="6.00371">
        <ele>805</ele>
        <time>2024-10-15T05:45:07.000Z</time>
      </trkpt>
      <trkpt lat="45.11323" lon="6.00371">
        <ele>805.20001220703</ele>
        <time>2024-10-15T05:45:08.000Z</time>
      </trkpt>
      <trkpt lat="45.11323" lon="6.00371">
        <ele>805.40002441406</ele>
        <time>2024-10-15T05:45:09.000Z</time>
      </trkpt>
      <trkpt lat="45.11323" lon="6.00372">
        <ele>805.59997558594</ele>
        <time>2024-10-15T05:45:10.000Z</time>
      </trkpt>
      <trkpt lat="45.11323" lon="6.00372">
        <ele>805.59997558594</ele>
        <time>2024-10-15T05:45:11.000Z</time>
      </trkpt>
      <trkpt lat="45.11322" lon="6.00372">
        <ele>805.79998779297</ele>
        <time>2024-10-15T05:45:12.000Z</time>
      </trkpt>
      <trkpt lat="45.11322" lon="6.00372">
        <ele>805.79998779297</ele>
        <time>2024-10-15T05:45:13.000Z</time>
      </trkpt>
      <trkpt lat="45.11322" lon="6.00373">
        <ele>806</ele>
        <time>2024-10-15T05:45:14.000Z</time>
      </trkpt>
      <trkpt lat="45.11321" lon="6.00373">
        <ele>806</ele>
        <time>2024-10-15T05:45:15.000Z</time>
      </trkpt>
      <trkpt lat="45.1132" lon="6.00372">
        <ele>806</ele>
        <time>2024-10-15T05:45:16.000Z</time>
      </trkpt>
      <trkpt lat="45.1132" lon="6.00373">
        <ele>806</ele>
        <time>2024-10-15T05:45:17.000Z</time>
      </trkpt>
      <trkpt lat="45.1132" lon="6.00373">
        <ele>805.79998779297</ele>
        <time>2024-10-15T05:45:18.000Z</time>
      </trkpt>
      <trkpt lat="45.11319" lon="6.00373">
        <ele>805.79998779297</ele>
        <time>2024-10-15T05:45:19.000Z</time>
      </trkpt>
      <trkpt lat="45.11319" lon="6.00373">
        <ele>805.79998779297</ele>
        <time>2024-10-15T05:45:20.000Z</time>
      </trkpt>
      <trkpt lat="45.11319" lon="6.00373">
        <ele>805.79998779297</ele>
        <time>2024-10-15T05:45:21.000Z</time>
      </trkpt>
      <trkpt lat="45.11319" lon="6.00373">
        <ele>805.79998779297</ele>
        <time>2024-10-15T05:45:22.000Z</time>
      </trkpt>
      <trkpt lat="45.11319" lon="6.00373">
        <ele>805.79998779297</ele>
        <time>2024-10-15T05:45:23.000Z</time>
      </trkpt>
      <trkpt lat="45.11319" lon="6.00373">
        <ele>805.79998779297</ele>
        <time>2024-10-15T05:45:24.000Z</time>
      </trkpt>
      <trkpt lat="45.11319" lon="6.00373">
        <ele>806</ele>
        <time>2024-10-15T05:45:25.000Z</time>
      </trkpt>
      <trkpt lat="45.11319" lon="6.00373">
        <ele>806</ele>
        <time>2024-10-15T05:45:26.000Z</time>
      </trkpt>
      <trkpt lat="45.11319" lon="6.00373">
        <ele>806</ele>
        <time>2024-10-15T05:45:27.000Z</time>
      </trkpt>
      <trkpt lat="45.11318" lon="6.00373">
        <ele>806</ele>
        <time>2024-10-15T05:45:28.000Z</time>
      </trkpt>
      <trkpt lat="45.11319" lon="6.00373">
        <ele>806</ele>
        <time>2024-10-15T05:45:29.000Z</time>
      </trkpt>
      <trkpt lat="45.11319" lon="6.00374">
        <ele>806</ele>
        <time>2024-10-15T05:45:30.000Z</time>
      </trkpt>
      <trkpt lat="45.1132" lon="6.00374">
        <ele>806</ele>
        <time>2024-10-15T05:45:31.000Z</time>
      </trkpt>
      <trkpt lat="45.1132" lon="6.00374">
        <ele>805.79998779297</ele>
        <time>2024-10-15T05:45:32.000Z</time>
      </trkpt>
      <trkpt lat="45.1132" lon="6.00374">
        <ele>805.79998779297</ele>
        <time>2024-10-15T05:45:33.000Z</time>
      </trkpt>
      <trkpt lat="45.1132" lon="6.00374">
        <ele>805.79998779297</ele>
        <time>2024-10-15T05:45:34.000Z</time>
      </trkpt>
      <trkpt lat="45.1132" lon="6.00374">
        <ele>805.79998779297</ele>
        <time>2024-10-15T05:45:35.000Z</time>
      </trkpt>
      <trkpt lat="45.1132" lon="6.00374">
        <ele>805.79998779297</ele>
        <time>2024-10-15T05:45:36.000Z</time>
      </trkpt>
      <trkpt lat="45.1132" lon="6.00374">
        <ele>805.79998779297</ele>
        <time>2024-10-15T05:45:37.000Z</time>
      </trkpt>
      <trkpt lat="45.1132" lon="6.00374">
        <ele>805.79998779297</ele>
        <time>2024-10-15T05:45:38.000Z</time>
      </trkpt>
      <trkpt lat="45.1132" lon="6.00374">
        <ele>805.79998779297</ele>
        <time>2024-10-15T05:45:39.000Z</time>
      </trkpt>
      <trkpt lat="45.1132" lon="6.00374">
        <ele>805.79998779297</ele>
        <time>2024-10-15T05:45:40.000Z</time>
      </trkpt>
      <trkpt lat="45.1132" lon="6.00374">
        <ele>805.79998779297</ele>
        <time>2024-10-15T05:45:41.000Z</time>
      </trkpt>
      <trkpt lat="45.1132" lon="6.00374">
        <ele>805.79998779297</ele>
        <time>2024-10-15T05:45:42.000Z</time>
      </trkpt>
      <trkpt lat="45.1132" lon="6.00374">
        <ele>805.79998779297</ele>
        <time>2024-10-15T05:45:43.000Z</time>
      </trkpt>
      <trkpt lat="45.1132" lon="6.00374">
        <ele>805.79998779297</ele>
        <time>2024-10-15T05:45:44.000Z</time>
      </trkpt>
      <trkpt lat="45.1132" lon="6.00374">
        <ele>805.79998779297</ele>
        <time>2024-10-15T05:45:45.000Z</time>
      </trkpt>
      <trkpt lat="45.1132" lon="6.00374">
        <ele>805.79998779297</ele>
        <time>2024-10-15T05:45:46.000Z</time>
      </trkpt>
      <trkpt lat="45.1132" lon="6.00374">
        <ele>805.79998779297</ele>
        <time>2024-10-15T05:45:47.000Z</time>
      </trkpt>
      <trkpt lat="45.1132" lon="6.00374">
        <ele>805.79998779297</ele>
        <time>2024-10-15T05:45:48.000Z</time>
      </trkpt>
      <trkpt lat="45.1132" lon="6.00374">
        <ele>805.59997558594</ele>
        <time>2024-10-15T05:45:49.000Z</time>
      </trkpt>
      <trkpt lat="45.1132" lon="6.00374">
        <ele>805.59997558594</ele>
        <time>2024-10-15T05:45:50.000Z</time>
      </trkpt>
      <trkpt lat="45.1132" lon="6.00374">
        <ele>805.59997558594</ele>
        <time>2024-10-15T05:45:51.000Z</time>
      </trkpt>
      <trkpt lat="45.1132" lon="6.00374">
        <ele>805.59997558594</ele>
        <time>2024-10-15T05:45:52.000Z</time>
      </trkpt>
      <trkpt lat="45.1132" lon="6.00374">
        <ele>805.40002441406</ele>
        <time>2024-10-15T05:45:53.000Z</time>
      </trkpt>
      <trkpt lat="45.1132" lon="6.00374">
        <ele>805.40002441406</ele>
        <time>2024-10-15T05:45:54.000Z</time>
      </trkpt>
      <trkpt lat="45.1132" lon="6.00374">
        <ele>805.40002441406</ele>
        <time>2024-10-15T05:45:55.000Z</time>
      </trkpt>
      <trkpt lat="45.1132" lon="6.00374">
        <ele>805.40002441406</ele>
        <time>2024-10-15T05:45:56.000Z</time>
      </trkpt>
      <trkpt lat="45.1132" lon="6.00374">
        <ele>805.40002441406</ele>
        <time>2024-10-15T05:45:57.000Z</time>
      </trkpt>
      <trkpt lat="45.1132" lon="6.00374">
        <ele>805.40002441406</ele>
        <time>2024-10-15T05:45:58.000Z</time>
      </trkpt>
      <trkpt lat="45.1132" lon="6.00374">
        <ele>805.40002441406</ele>
        <time>2024-10-15T05:45:59.000Z</time>
      </trkpt>
      <trkpt lat="45.1132" lon="6.00374">
        <ele>805.40002441406</ele>
        <time>2024-10-15T05:46:00.000Z</time>
      </trkpt>
      <trkpt lat="45.1132" lon="6.00374">
        <ele>805.59997558594</ele>
        <time>2024-10-15T05:46:01.000Z</time>
      </trkpt>
      <trkpt lat="45.1132" lon="6.00374">
        <ele>805.59997558594</ele>
        <time>2024-10-15T05:46:02.000Z</time>
      </trkpt>
      <trkpt lat="45.1132" lon="6.00374">
        <ele>805.59997558594</ele>
        <time>2024-10-15T05:46:03.000Z</time>
      </trkpt>
      <trkpt lat="45.1132" lon="6.00374">
        <ele>805.59997558594</ele>
        <time>2024-10-15T05:46:04.000Z</time>
      </trkpt>
      <trkpt lat="45.1132" lon="6.00374">
        <ele>805.59997558594</ele>
        <time>2024-10-15T05:46:05.000Z</time>
      </trkpt>
      <trkpt lat="45.1132" lon="6.00375">
        <ele>805.59997558594</ele>
        <time>2024-10-15T05:46:06.000Z</time>
      </trkpt>
      <trkpt lat="45.1132" lon="6.00375">
        <ele>805.59997558594</ele>
        <time>2024-10-15T05:46:07.000Z</time>
      </trkpt>
      <trkpt lat="45.1132" lon="6.00375">
        <ele>805.59997558594</ele>
        <time>2024-10-15T05:46:08.000Z</time>
      </trkpt>
      <trkpt lat="45.1132" lon="6.00375">
        <ele>805.59997558594</ele>
        <time>2024-10-15T05:46:09.000Z</time>
      </trkpt>
      <trkpt lat="45.1132" lon="6.00375">
        <ele>805.59997558594</ele>
        <time>2024-10-15T05:46:10.000Z</time>
      </trkpt>
      <trkpt lat="45.1132" lon="6.00375">
        <ele>805.59997558594</ele>
        <time>2024-10-15T05:46:11.000Z</time>
      </trkpt>
      <trkpt lat="45.1132" lon="6.00375">
        <ele>805.59997558594</ele>
        <time>2024-10-15T05:46:12.000Z</time>
      </trkpt>
      <trkpt lat="45.1132" lon="6.00375">
        <ele>805.59997558594</ele>
        <time>2024-10-15T05:46:13.000Z</time>
      </trkpt>
      <trkpt lat="45.1132" lon="6.00375">
        <ele>805.59997558594</ele>
        <time>2024-10-15T05:46:14.000Z</time>
      </trkpt>
      <trkpt lat="45.1132" lon="6.00375">
        <ele>805.59997558594</ele>
        <time>2024-10-15T05:46:15.000Z</time>
      </trkpt>
      <trkpt lat="45.11319" lon="6.00376">
        <ele>805.59997558594</ele>
        <time>2024-10-15T05:46:16.000Z</time>
      </trkpt>
      <trkpt lat="45.11319" lon="6.00376">
        <ele>805.59997558594</ele>
        <time>2024-10-15T05:46:17.000Z</time>
      </trkpt>
      <trkpt lat="45.11318" lon="6.00376">
        <ele>805.59997558594</ele>
        <time>2024-10-15T05:46:18.000Z</time>
      </trkpt>
      <trkpt lat="45.11317" lon="6.00376">
        <ele>805.59997558594</ele>
        <time>2024-10-15T05:46:19.000Z</time>
      </trkpt>
      <trkpt lat="45.11317" lon="6.00376">
        <ele>805.59997558594</ele>
        <time>2024-10-15T05:46:20.000Z</time>
      </trkpt>
      <trkpt lat="45.11316" lon="6.00376">
        <ele>805.59997558594</ele>
        <time>2024-10-15T05:46:21.000Z</time>
      </trkpt>
      <trkpt lat="45.11316" lon="6.00377">
        <ele>805.79998779297</ele>
        <time>2024-10-15T05:46:22.000Z</time>
      </trkpt>
      <trkpt lat="45.11316" lon="6.00377">
        <ele>805.79998779297</ele>
        <time>2024-10-15T05:46:23.000Z</time>
      </trkpt>
      <trkpt lat="45.11316" lon="6.00377">
        <ele>805.79998779297</ele>
        <time>2024-10-15T05:46:24.000Z</time>
      </trkpt>
      <trkpt lat="45.11316" lon="6.00376">
        <ele>805.79998779297</ele>
        <time>2024-10-15T05:46:25.000Z</time>
      </trkpt>
      <trkpt lat="45.11316" lon="6.00376">
        <ele>805.79998779297</ele>
        <time>2024-10-15T05:46:26.000Z</time>
      </trkpt>
      <trkpt lat="45.11316" lon="6.00375">
        <ele>805.59997558594</ele>
        <time>2024-10-15T05:46:27.000Z</time>
      </trkpt>
      <trkpt lat="45.11316" lon="6.00375">
        <ele>805.59997558594</ele>
        <time>2024-10-15T05:46:28.000Z</time>
      </trkpt>
      <trkpt lat="45.11316" lon="6.00375">
        <ele>805.59997558594</ele>
        <time>2024-10-15T05:46:29.000Z</time>
      </trkpt>
      <trkpt lat="45.11316" lon="6.00375">
        <ele>805.59997558594</ele>
        <time>2024-10-15T05:46:30.000Z</time>
      </trkpt>
      <trkpt lat="45.11317" lon="6.00375">
        <ele>805.40002441406</ele>
        <time>2024-10-15T05:46:31.000Z</time>
      </trkpt>
      <trkpt lat="45.11317" lon="6.00375">
        <ele>805.40002441406</ele>
        <time>2024-10-15T05:46:32.000Z</time>
      </trkpt>
      <trkpt lat="45.11317" lon="6.00375">
        <ele>805.40002441406</ele>
        <time>2024-10-15T05:46:33.000Z</time>
      </trkpt>
      <trkpt lat="45.11317" lon="6.00375">
        <ele>805.40002441406</ele>
        <time>2024-10-15T05:46:34.000Z</time>
      </trkpt>
      <trkpt lat="45.11317" lon="6.00375">
        <ele>805.40002441406</ele>
        <time>2024-10-15T05:46:35.000Z</time>
      </trkpt>
      <trkpt lat="45.11317" lon="6.00376">
        <ele>805.40002441406</ele>
        <time>2024-10-15T05:46:36.000Z</time>
      </trkpt>
      <trkpt lat="45.11317" lon="6.00377">
        <ele>805.40002441406</ele>
        <time>2024-10-15T05:46:37.000Z</time>
      </trkpt>
      <trkpt lat="45.11317" lon="6.00379">
        <ele>805.40002441406</ele>
        <time>2024-10-15T05:46:38.000Z</time>
      </trkpt>
      <trkpt lat="45.11317" lon="6.00379">
        <ele>805.59997558594</ele>
        <time>2024-10-15T05:46:39.000Z</time>
      </trkpt>
      <trkpt lat="45.11317" lon="6.00379">
        <ele>806</ele>
        <time>2024-10-15T05:46:40.000Z</time>
      </trkpt>
      <trkpt lat="45.11316" lon="6.0038">
        <ele>806.20001220703</ele>
        <time>2024-10-15T05:46:41.000Z</time>
      </trkpt>
      <trkpt lat="45.11316" lon="6.0038">
        <ele>806.40002441406</ele>
        <time>2024-10-15T05:46:42.000Z</time>
      </trkpt>
      <trkpt lat="45.11315" lon="6.0038">
        <ele>806.59997558594</ele>
        <time>2024-10-15T05:46:43.000Z</time>
      </trkpt>
      <trkpt lat="45.11315" lon="6.0038">
        <ele>806.79998779297</ele>
        <time>2024-10-15T05:46:44.000Z</time>
      </trkpt>
      <trkpt lat="45.11314" lon="6.00381">
        <ele>807.20001220703</ele>
        <time>2024-10-15T05:46:45.000Z</time>
      </trkpt>
      <trkpt lat="45.11314" lon="6.00381">
        <ele>807.20001220703</ele>
        <time>2024-10-15T05:46:46.000Z</time>
      </trkpt>
      <trkpt lat="45.11314" lon="6.00382">
        <ele>807.40002441406</ele>
        <time>2024-10-15T05:46:47.000Z</time>
      </trkpt>
      <trkpt lat="45.11314" lon="6.00383">
        <ele>807.59997558594</ele>
        <time>2024-10-15T05:46:48.000Z</time>
      </trkpt>
      <trkpt lat="45.11314" lon="6.00383">
        <ele>807.79998779297</ele>
        <time>2024-10-15T05:46:49.000Z</time>
      </trkpt>
      <trkpt lat="45.11313" lon="6.00384">
        <ele>807.79998779297</ele>
        <time>2024-10-15T05:46:50.000Z</time>
      </trkpt>
      <trkpt lat="45.11313" lon="6.00384">
        <ele>808</ele>
        <time>2024-10-15T05:46:51.000Z</time>
      </trkpt>
      <trkpt lat="45.11312" lon="6.00384">
        <ele>808.40002441406</ele>
        <time>2024-10-15T05:46:52.000Z</time>
      </trkpt>
      <trkpt lat="45.11312" lon="6.00384">
        <ele>808.40002441406</ele>
        <time>2024-10-15T05:46:53.000Z</time>
      </trkpt>
      <trkpt lat="45.11311" lon="6.00384">
        <ele>808.79998779297</ele>
        <time>2024-10-15T05:46:54.000Z</time>
      </trkpt>
      <trkpt lat="45.11311" lon="6.00384">
        <ele>809</ele>
        <time>2024-10-15T05:46:55.000Z</time>
      </trkpt>
      <trkpt lat="45.11311" lon="6.00384">
        <ele>809.20001220703</ele>
        <time>2024-10-15T05:46:56.000Z</time>
      </trkpt>
      <trkpt lat="45.11311" lon="6.00384">
        <ele>809.40002441406</ele>
        <time>2024-10-15T05:46:57.000Z</time>
      </trkpt>
      <trkpt lat="45.11311" lon="6.00385">
        <ele>809.59997558594</ele>
        <time>2024-10-15T05:46:58.000Z</time>
      </trkpt>
      <trkpt lat="45.1131" lon="6.00385">
        <ele>809.79998779297</ele>
        <time>2024-10-15T05:46:59.000Z</time>
      </trkpt>
      <trkpt lat="45.1131" lon="6.00386">
        <ele>810</ele>
        <time>2024-10-15T05:47:00.000Z</time>
      </trkpt>
      <trkpt lat="45.1131" lon="6.00386">
        <ele>810.20001220703</ele>
        <time>2024-10-15T05:47:01.000Z</time>
      </trkpt>
      <trkpt lat="45.1131" lon="6.00386">
        <ele>810.40002441406</ele>
        <time>2024-10-15T05:47:02.000Z</time>
      </trkpt>
      <trkpt lat="45.1131" lon="6.00387">
        <ele>810.59997558594</ele>
        <time>2024-10-15T05:47:03.000Z</time>
      </trkpt>
      <trkpt lat="45.11309" lon="6.00388">
        <ele>810.79998779297</ele>
        <time>2024-10-15T05:47:04.000Z</time>
      </trkpt>
      <trkpt lat="45.11309" lon="6.00389">
        <ele>811</ele>
        <time>2024-10-15T05:47:05.000Z</time>
      </trkpt>
      <trkpt lat="45.11308" lon="6.0039">
        <ele>811.20001220703</ele>
        <time>2024-10-15T05:47:06.000Z</time>
      </trkpt>
      <trkpt lat="45.11309" lon="6.00391">
        <ele>811.40002441406</ele>
        <time>2024-10-15T05:47:07.000Z</time>
      </trkpt>
      <trkpt lat="45.11307" lon="6.0039">
        <ele>811.40002441406</ele>
        <time>2024-10-15T05:47:08.000Z</time>
      </trkpt>
      <trkpt lat="45.11307" lon="6.00391">
        <ele>811.59997558594</ele>
        <time>2024-10-15T05:47:09.000Z</time>
      </trkpt>
      <trkpt lat="45.11306" lon="6.00393">
        <ele>811.79998779297</ele>
        <time>2024-10-15T05:47:10.000Z</time>
      </trkpt>
      <trkpt lat="45.11305" lon="6.00394">
        <ele>811.79998779297</ele>
        <time>2024-10-15T05:47:11.000Z</time>
      </trkpt>
      <trkpt lat="45.11306" lon="6.00396">
        <ele>812</ele>
        <time>2024-10-15T05:47:12.000Z</time>
      </trkpt>
      <trkpt lat="45.11307" lon="6.00397">
        <ele>812.20001220703</ele>
        <time>2024-10-15T05:47:13.000Z</time>
      </trkpt>
      <trkpt lat="45.11307" lon="6.00398">
        <ele>812.20001220703</ele>
        <time>2024-10-15T05:47:14.000Z</time>
      </trkpt>
      <trkpt lat="45.11307" lon="6.00399">
        <ele>812.20001220703</ele>
        <time>2024-10-15T05:47:15.000Z</time>
      </trkpt>
      <trkpt lat="45.11308" lon="6.004">
        <ele>812.20001220703</ele>
        <time>2024-10-15T05:47:16.000Z</time>
      </trkpt>
      <trkpt lat="45.11307" lon="6.00402">
        <ele>812.20001220703</ele>
        <time>2024-10-15T05:47:17.000Z</time>
      </trkpt>
      <trkpt lat="45.11307" lon="6.00404">
        <ele>812.20001220703</ele>
        <time>2024-10-15T05:47:18.000Z</time>
      </trkpt>
      <trkpt lat="45.11307" lon="6.00404">
        <ele>812.20001220703</ele>
        <time>2024-10-15T05:47:19.000Z</time>
      </trkpt>
      <trkpt lat="45.11306" lon="6.00405">
        <ele>812.20001220703</ele>
        <time>2024-10-15T05:47:20.000Z</time>
      </trkpt>
      <trkpt lat="45.11305" lon="6.00406">
        <ele>812.40002441406</ele>
        <time>2024-10-15T05:47:21.000Z</time>
      </trkpt>
      <trkpt lat="45.11306" lon="6.00408">
        <ele>812.40002441406</ele>
        <time>2024-10-15T05:47:22.000Z</time>
      </trkpt>
      <trkpt lat="45.11306" lon="6.00408">
        <ele>812.40002441406</ele>
        <time>2024-10-15T05:47:23.000Z</time>
      </trkpt>
      <trkpt lat="45.11305" lon="6.0041">
        <ele>812.59997558594</ele>
        <time>2024-10-15T05:47:24.000Z</time>
      </trkpt>
      <trkpt lat="45.11305" lon="6.00411">
        <ele>812.79998779297</ele>
        <time>2024-10-15T05:47:25.000Z</time>
      </trkpt>
      <trkpt lat="45.11305" lon="6.00413">
        <ele>812.79998779297</ele>
        <time>2024-10-15T05:47:26.000Z</time>
      </trkpt>
      <trkpt lat="45.11304" lon="6.00413">
        <ele>812.79998779297</ele>
        <time>2024-10-15T05:47:27.000Z</time>
      </trkpt>
      <trkpt lat="45.11303" lon="6.00414">
        <ele>812.79998779297</ele>
        <time>2024-10-15T05:47:28.000Z</time>
      </trkpt>
      <trkpt lat="45.11303" lon="6.00415">
        <ele>812.79998779297</ele>
        <time>2024-10-15T05:47:29.000Z</time>
      </trkpt>
      <trkpt lat="45.11302" lon="6.00416">
        <ele>812.79998779297</ele>
        <time>2024-10-15T05:47:30.000Z</time>
      </trkpt>
      <trkpt lat="45.11301" lon="6.00416">
        <ele>812.79998779297</ele>
        <time>2024-10-15T05:47:31.000Z</time>
      </trkpt>
      <trkpt lat="45.11301" lon="6.00416">
        <ele>813</ele>
        <time>2024-10-15T05:47:32.000Z</time>
      </trkpt>
      <trkpt lat="45.113" lon="6.00416">
        <ele>813.20001220703</ele>
        <time>2024-10-15T05:47:33.000Z</time>
      </trkpt>
      <trkpt lat="45.113" lon="6.00416">
        <ele>813.59997558594</ele>
        <time>2024-10-15T05:47:34.000Z</time>
      </trkpt>
      <trkpt lat="45.11299" lon="6.00416">
        <ele>813.79998779297</ele>
        <time>2024-10-15T05:47:35.000Z</time>
      </trkpt>
      <trkpt lat="45.113" lon="6.00417">
        <ele>813.79998779297</ele>
        <time>2024-10-15T05:47:36.000Z</time>
      </trkpt>
      <trkpt lat="45.11299" lon="6.00417">
        <ele>814</ele>
        <time>2024-10-15T05:47:37.000Z</time>
      </trkpt>
      <trkpt lat="45.11298" lon="6.00417">
        <ele>814.20001220703</ele>
        <time>2024-10-15T05:47:38.000Z</time>
      </trkpt>
      <trkpt lat="45.11296" lon="6.00417">
        <ele>814.20001220703</ele>
        <time>2024-10-15T05:47:39.000Z</time>
      </trkpt>
      <trkpt lat="45.11296" lon="6.00417">
        <ele>814.20001220703</ele>
        <time>2024-10-15T05:47:40.000Z</time>
      </trkpt>
      <trkpt lat="45.11295" lon="6.00417">
        <ele>814.59997558594</ele>
        <time>2024-10-15T05:47:41.000Z</time>
      </trkpt>
      <trkpt lat="45.11294" lon="6.00416">
        <ele>814.59997558594</ele>
        <time>2024-10-15T05:47:42.000Z</time>
      </trkpt>
      <trkpt lat="45.11294" lon="6.00416">
        <ele>814.59997558594</ele>
        <time>2024-10-15T05:47:43.000Z</time>
      </trkpt>
      <trkpt lat="45.11294" lon="6.00416">
        <ele>814.79998779297</ele>
        <time>2024-10-15T05:47:44.000Z</time>
      </trkpt>
      <trkpt lat="45.11294" lon="6.00416">
        <ele>815</ele>
        <time>2024-10-15T05:47:45.000Z</time>
      </trkpt>
      <trkpt lat="45.11292" lon="6.00416">
        <ele>815.20001220703</ele>
        <time>2024-10-15T05:47:46.000Z</time>
      </trkpt>
      <trkpt lat="45.1129" lon="6.00416">
        <ele>815.40002441406</ele>
        <time>2024-10-15T05:47:47.000Z</time>
      </trkpt>
      <trkpt lat="45.11288" lon="6.00417">
        <ele>815.59997558594</ele>
        <time>2024-10-15T05:47:48.000Z</time>
      </trkpt>
      <trkpt lat="45.11288" lon="6.00417">
        <ele>815.79998779297</ele>
        <time>2024-10-15T05:47:49.000Z</time>
      </trkpt>
      <trkpt lat="45.11287" lon="6.00418">
        <ele>815.79998779297</ele>
        <time>2024-10-15T05:47:50.000Z</time>
      </trkpt>
      <trkpt lat="45.11286" lon="6.00418">
        <ele>816.20001220703</ele>
        <time>2024-10-15T05:47:51.000Z</time>
      </trkpt>
      <trkpt lat="45.11286" lon="6.00419">
        <ele>816.59997558594</ele>
        <time>2024-10-15T05:47:52.000Z</time>
      </trkpt>
      <trkpt lat="45.11285" lon="6.00419">
        <ele>816.59997558594</ele>
        <time>2024-10-15T05:47:53.000Z</time>
      </trkpt>
      <trkpt lat="45.11285" lon="6.0042">
        <ele>816.79998779297</ele>
        <time>2024-10-15T05:47:54.000Z</time>
      </trkpt>
      <trkpt lat="45.11285" lon="6.0042">
        <ele>817</ele>
        <time>2024-10-15T05:47:55.000Z</time>
      </trkpt>
      <trkpt lat="45.11284" lon="6.00421">
        <ele>817</ele>
        <time>2024-10-15T05:47:56.000Z</time>
      </trkpt>
      <trkpt lat="45.11284" lon="6.00421">
        <ele>817.20001220703</ele>
        <time>2024-10-15T05:47:57.000Z</time>
      </trkpt>
      <trkpt lat="45.11283" lon="6.00421">
        <ele>817.40002441406</ele>
        <time>2024-10-15T05:47:58.000Z</time>
      </trkpt>
      <trkpt lat="45.11283" lon="6.00421">
        <ele>817.59997558594</ele>
        <time>2024-10-15T05:47:59.000Z</time>
      </trkpt>
      <trkpt lat="45.11282" lon="6.00421">
        <ele>817.59997558594</ele>
        <time>2024-10-15T05:48:00.000Z</time>
      </trkpt>
      <trkpt lat="45.11282" lon="6.00419">
        <ele>817.79998779297</ele>
        <time>2024-10-15T05:48:01.000Z</time>
      </trkpt>
      <trkpt lat="45.11282" lon="6.00419">
        <ele>818</ele>
        <time>2024-10-15T05:48:02.000Z</time>
      </trkpt>
      <trkpt lat="45.11282" lon="6.00418">
        <ele>818.20001220703</ele>
        <time>2024-10-15T05:48:03.000Z</time>
      </trkpt>
      <trkpt lat="45.11281" lon="6.00417">
        <ele>818.40002441406</ele>
        <time>2024-10-15T05:48:04.000Z</time>
      </trkpt>
      <trkpt lat="45.11281" lon="6.00417">
        <ele>818.40002441406</ele>
        <time>2024-10-15T05:48:05.000Z</time>
      </trkpt>
      <trkpt lat="45.1128" lon="6.00416">
        <ele>818.79998779297</ele>
        <time>2024-10-15T05:48:06.000Z</time>
      </trkpt>
      <trkpt lat="45.1128" lon="6.00416">
        <ele>818.79998779297</ele>
        <time>2024-10-15T05:48:07.000Z</time>
      </trkpt>
      <trkpt lat="45.1128" lon="6.00415">
        <ele>819</ele>
        <time>2024-10-15T05:48:08.000Z</time>
      </trkpt>
      <trkpt lat="45.1128" lon="6.00414">
        <ele>819.20001220703</ele>
        <time>2024-10-15T05:48:09.000Z</time>
      </trkpt>
      <trkpt lat="45.11279" lon="6.00413">
        <ele>819.40002441406</ele>
        <time>2024-10-15T05:48:10.000Z</time>
      </trkpt>
      <trkpt lat="45.11279" lon="6.00412">
        <ele>819.40002441406</ele>
        <time>2024-10-15T05:48:11.000Z</time>
      </trkpt>
      <trkpt lat="45.11279" lon="6.00412">
        <ele>819.79998779297</ele>
        <time>2024-10-15T05:48:12.000Z</time>
      </trkpt>
      <trkpt lat="45.11279" lon="6.00411">
        <ele>820</ele>
        <time>2024-10-15T05:48:13.000Z</time>
      </trkpt>
      <trkpt lat="45.11279" lon="6.00411">
        <ele>820</ele>
        <time>2024-10-15T05:48:14.000Z</time>
      </trkpt>
      <trkpt lat="45.11278" lon="6.00411">
        <ele>820.40002441406</ele>
        <time>2024-10-15T05:48:15.000Z</time>
      </trkpt>
      <trkpt lat="45.11278" lon="6.0041">
        <ele>820.40002441406</ele>
        <time>2024-10-15T05:48:16.000Z</time>
      </trkpt>
      <trkpt lat="45.11278" lon="6.00409">
        <ele>820.59997558594</ele>
        <time>2024-10-15T05:48:17.000Z</time>
      </trkpt>
      <trkpt lat="45.11277" lon="6.0041">
        <ele>820.79998779297</ele>
        <time>2024-10-15T05:48:18.000Z</time>
      </trkpt>
      <trkpt lat="45.11277" lon="6.00409">
        <ele>821</ele>
        <time>2024-10-15T05:48:19.000Z</time>
      </trkpt>
      <trkpt lat="45.11276" lon="6.00409">
        <ele>821.20001220703</ele>
        <time>2024-10-15T05:48:20.000Z</time>
      </trkpt>
      <trkpt lat="45.11276" lon="6.00408">
        <ele>821.40002441406</ele>
        <time>2024-10-15T05:48:21.000Z</time>
      </trkpt>
      <trkpt lat="45.11276" lon="6.00408">
        <ele>821.40002441406</ele>
        <time>2024-10-15T05:48:22.000Z</time>
      </trkpt>
      <trkpt lat="45.11276" lon="6.00407">
        <ele>821.59997558594</ele>
        <time>2024-10-15T05:48:23.000Z</time>
      </trkpt>
      <trkpt lat="45.11276" lon="6.00407">
        <ele>821.79998779297</ele>
        <time>2024-10-15T05:48:24.000Z</time>
      </trkpt>
      <trkpt lat="45.11276" lon="6.00407">
        <ele>822</ele>
        <time>2024-10-15T05:48:25.000Z</time>
      </trkpt>
      <trkpt lat="45.11276" lon="6.00406">
        <ele>822.40002441406</ele>
        <time>2024-10-15T05:48:26.000Z</time>
      </trkpt>
      <trkpt lat="45.11276" lon="6.00405">
        <ele>822.40002441406</ele>
        <time>2024-10-15T05:48:27.000Z</time>
      </trkpt>
      <trkpt lat="45.11277" lon="6.00404">
        <ele>822.59997558594</ele>
        <time>2024-10-15T05:48:28.000Z</time>
      </trkpt>
      <trkpt lat="45.11277" lon="6.00403">
        <ele>822.79998779297</ele>
        <time>2024-10-15T05:48:29.000Z</time>
      </trkpt>
      <trkpt lat="45.11276" lon="6.00402">
        <ele>823</ele>
        <time>2024-10-15T05:48:30.000Z</time>
      </trkpt>
      <trkpt lat="45.11276" lon="6.00401">
        <ele>823.20001220703</ele>
        <time>2024-10-15T05:48:31.000Z</time>
      </trkpt>
      <trkpt lat="45.11276" lon="6.00401">
        <ele>823.40002441406</ele>
        <time>2024-10-15T05:48:32.000Z</time>
      </trkpt>
      <trkpt lat="45.11276" lon="6.004">
        <ele>823.59997558594</ele>
        <time>2024-10-15T05:48:33.000Z</time>
      </trkpt>
      <trkpt lat="45.11276" lon="6.00399">
        <ele>823.59997558594</ele>
        <time>2024-10-15T05:48:34.000Z</time>
      </trkpt>
      <trkpt lat="45.11276" lon="6.00398">
        <ele>823.79998779297</ele>
        <time>2024-10-15T05:48:35.000Z</time>
      </trkpt>
      <trkpt lat="45.11276" lon="6.00397">
        <ele>824</ele>
        <time>2024-10-15T05:48:36.000Z</time>
      </trkpt>
      <trkpt lat="45.11277" lon="6.00396">
        <ele>824</ele>
        <time>2024-10-15T05:48:37.000Z</time>
      </trkpt>
      <trkpt lat="45.11277" lon="6.00394">
        <ele>824.20001220703</ele>
        <time>2024-10-15T05:48:38.000Z</time>
      </trkpt>
      <trkpt lat="45.11277" lon="6.00394">
        <ele>824.40002441406</ele>
        <time>2024-10-15T05:48:39.000Z</time>
      </trkpt>
      <trkpt lat="45.11277" lon="6.00393">
        <ele>824.59997558594</ele>
        <time>2024-10-15T05:48:40.000Z</time>
      </trkpt>
      <trkpt lat="45.11276" lon="6.00393">
        <ele>824.79998779297</ele>
        <time>2024-10-15T05:48:41.000Z</time>
      </trkpt>
      <trkpt lat="45.11276" lon="6.00392">
        <ele>825</ele>
        <time>2024-10-15T05:48:42.000Z</time>
      </trkpt>
      <trkpt lat="45.11276" lon="6.00391">
        <ele>825.20001220703</ele>
        <time>2024-10-15T05:48:43.000Z</time>
      </trkpt>
      <trkpt lat="45.11276" lon="6.0039">
        <ele>825.20001220703</ele>
        <time>2024-10-15T05:48:44.000Z</time>
      </trkpt>
      <trkpt lat="45.11275" lon="6.00389">
        <ele>825.59997558594</ele>
        <time>2024-10-15T05:48:45.000Z</time>
      </trkpt>
      <trkpt lat="45.11275" lon="6.00388">
        <ele>825.79998779297</ele>
        <time>2024-10-15T05:48:46.000Z</time>
      </trkpt>
      <trkpt lat="45.11274" lon="6.00387">
        <ele>826</ele>
        <time>2024-10-15T05:48:47.000Z</time>
      </trkpt>
      <trkpt lat="45.11274" lon="6.00386">
        <ele>826</ele>
        <time>2024-10-15T05:48:48.000Z</time>
      </trkpt>
      <trkpt lat="45.11276" lon="6.00387">
        <ele>826.20001220703</ele>
        <time>2024-10-15T05:48:49.000Z</time>
      </trkpt>
      <trkpt lat="45.11276" lon="6.00387">
        <ele>826.40002441406</ele>
        <time>2024-10-15T05:48:50.000Z</time>
      </trkpt>
      <trkpt lat="45.11276" lon="6.00387">
        <ele>826.59997558594</ele>
        <time>2024-10-15T05:48:51.000Z</time>
      </trkpt>
      <trkpt lat="45.11275" lon="6.00386">
        <ele>826.79998779297</ele>
        <time>2024-10-15T05:48:52.000Z</time>
      </trkpt>
      <trkpt lat="45.11276" lon="6.00386">
        <ele>827</ele>
        <time>2024-10-15T05:48:53.000Z</time>
      </trkpt>
      <trkpt lat="45.11276" lon="6.00386">
        <ele>827.40002441406</ele>
        <time>2024-10-15T05:48:54.000Z</time>
      </trkpt>
      <trkpt lat="45.11276" lon="6.00385">
        <ele>827.40002441406</ele>
        <time>2024-10-15T05:48:55.000Z</time>
      </trkpt>
      <trkpt lat="45.11276" lon="6.00384">
        <ele>827.59997558594</ele>
        <time>2024-10-15T05:48:56.000Z</time>
      </trkpt>
      <trkpt lat="45.11276" lon="6.00384">
        <ele>827.79998779297</ele>
        <time>2024-10-15T05:48:57.000Z</time>
      </trkpt>
      <trkpt lat="45.11276" lon="6.00384">
        <ele>828</ele>
        <time>2024-10-15T05:48:58.000Z</time>
      </trkpt>
      <trkpt lat="45.11278" lon="6.00385">
        <ele>828.20001220703</ele>
        <time>2024-10-15T05:48:59.000Z</time>
      </trkpt>
      <trkpt lat="45.11279" lon="6.00384">
        <ele>828.40002441406</ele>
        <time>2024-10-15T05:49:00.000Z</time>
      </trkpt>
      <trkpt lat="45.11279" lon="6.00384">
        <ele>828.59997558594</ele>
        <time>2024-10-15T05:49:01.000Z</time>
      </trkpt>
      <trkpt lat="45.11279" lon="6.00384">
        <ele>828.79998779297</ele>
        <time>2024-10-15T05:49:02.000Z</time>
      </trkpt>
      <trkpt lat="45.11279" lon="6.00384">
        <ele>829</ele>
        <time>2024-10-15T05:49:03.000Z</time>
      </trkpt>
      <trkpt lat="45.11279" lon="6.00383">
        <ele>829.20001220703</ele>
        <time>2024-10-15T05:49:04.000Z</time>
      </trkpt>
      <trkpt lat="45.11279" lon="6.00383">
        <ele>829.40002441406</ele>
        <time>2024-10-15T05:49:05.000Z</time>
      </trkpt>
      <trkpt lat="45.11279" lon="6.00383">
        <ele>829.59997558594</ele>
        <time>2024-10-15T05:49:06.000Z</time>
      </trkpt>
      <trkpt lat="45.11279" lon="6.00383">
        <ele>829.79998779297</ele>
        <time>2024-10-15T05:49:07.000Z</time>
      </trkpt>
      <trkpt lat="45.11279" lon="6.00382">
        <ele>829.79998779297</ele>
        <time>2024-10-15T05:49:08.000Z</time>
      </trkpt>
      <trkpt lat="45.1128" lon="6.00381">
        <ele>830</ele>
        <time>2024-10-15T05:49:09.000Z</time>
      </trkpt>
      <trkpt lat="45.1128" lon="6.00381">
        <ele>830.20001220703</ele>
        <time>2024-10-15T05:49:10.000Z</time>
      </trkpt>
      <trkpt lat="45.1128" lon="6.00381">
        <ele>830.40002441406</ele>
        <time>2024-10-15T05:49:11.000Z</time>
      </trkpt>
      <trkpt lat="45.1128" lon="6.00379">
        <ele>830.59997558594</ele>
        <time>2024-10-15T05:49:12.000Z</time>
      </trkpt>
      <trkpt lat="45.1128" lon="6.00379">
        <ele>830.79998779297</ele>
        <time>2024-10-15T05:49:13.000Z</time>
      </trkpt>
      <trkpt lat="45.1128" lon="6.00378">
        <ele>831.20001220703</ele>
        <time>2024-10-15T05:49:14.000Z</time>
      </trkpt>
      <trkpt lat="45.1128" lon="6.00378">
        <ele>831.40002441406</ele>
        <time>2024-10-15T05:49:15.000Z</time>
      </trkpt>
      <trkpt lat="45.1128" lon="6.00377">
        <ele>831.40002441406</ele>
        <time>2024-10-15T05:49:16.000Z</time>
      </trkpt>
      <trkpt lat="45.11279" lon="6.00377">
        <ele>831.59997558594</ele>
        <time>2024-10-15T05:49:17.000Z</time>
      </trkpt>
      <trkpt lat="45.11279" lon="6.00377">
        <ele>831.79998779297</ele>
        <time>2024-10-15T05:49:18.000Z</time>
      </trkpt>
      <trkpt lat="45.11279" lon="6.00377">
        <ele>832</ele>
        <time>2024-10-15T05:49:19.000Z</time>
      </trkpt>
      <trkpt lat="45.11278" lon="6.00377">
        <ele>832.20001220703</ele>
        <time>2024-10-15T05:49:20.000Z</time>
      </trkpt>
      <trkpt lat="45.11278" lon="6.00377">
        <ele>832.40002441406</ele>
        <time>2024-10-15T05:49:21.000Z</time>
      </trkpt>
      <trkpt lat="45.11278" lon="6.00377">
        <ele>832.40002441406</ele>
        <time>2024-10-15T05:49:22.000Z</time>
      </trkpt>
      <trkpt lat="45.11278" lon="6.00377">
        <ele>832.40002441406</ele>
        <time>2024-10-15T05:49:23.000Z</time>
      </trkpt>
      <trkpt lat="45.11278" lon="6.00377">
        <ele>832.59997558594</ele>
        <time>2024-10-15T05:49:24.000Z</time>
      </trkpt>
      <trkpt lat="45.11277" lon="6.00378">
        <ele>832.79998779297</ele>
        <time>2024-10-15T05:49:25.000Z</time>
      </trkpt>
      <trkpt lat="45.11277" lon="6.00378">
        <ele>833</ele>
        <time>2024-10-15T05:49:26.000Z</time>
      </trkpt>
      <trkpt lat="45.11277" lon="6.00379">
        <ele>833.40002441406</ele>
        <time>2024-10-15T05:49:27.000Z</time>
      </trkpt>
      <trkpt lat="45.11277" lon="6.00379">
        <ele>833.40002441406</ele>
        <time>2024-10-15T05:49:28.000Z</time>
      </trkpt>
      <trkpt lat="45.11276" lon="6.00379">
        <ele>833.59997558594</ele>
        <time>2024-10-15T05:49:29.000Z</time>
      </trkpt>
      <trkpt lat="45.11276" lon="6.00379">
        <ele>833.79998779297</ele>
        <time>2024-10-15T05:49:30.000Z</time>
      </trkpt>
      <trkpt lat="45.11275" lon="6.0038">
        <ele>834</ele>
        <time>2024-10-15T05:49:31.000Z</time>
      </trkpt>
      <trkpt lat="45.11275" lon="6.0038">
        <ele>834</ele>
        <time>2024-10-15T05:49:32.000Z</time>
      </trkpt>
      <trkpt lat="45.11274" lon="6.0038">
        <ele>834.20001220703</ele>
        <time>2024-10-15T05:49:33.000Z</time>
      </trkpt>
      <trkpt lat="45.11274" lon="6.00381">
        <ele>834.40002441406</ele>
        <time>2024-10-15T05:49:34.000Z</time>
      </trkpt>
      <trkpt lat="45.11274" lon="6.00381">
        <ele>834.79998779297</ele>
        <time>2024-10-15T05:49:35.000Z</time>
      </trkpt>
      <trkpt lat="45.11274" lon="6.00382">
        <ele>834.79998779297</ele>
        <time>2024-10-15T05:49:36.000Z</time>
      </trkpt>
      <trkpt lat="45.11274" lon="6.00383">
        <ele>835</ele>
        <time>2024-10-15T05:49:37.000Z</time>
      </trkpt>
      <trkpt lat="45.11273" lon="6.00385">
        <ele>835.20001220703</ele>
        <time>2024-10-15T05:49:38.000Z</time>
      </trkpt>
      <trkpt lat="45.11273" lon="6.00386">
        <ele>835.40002441406</ele>
        <time>2024-10-15T05:49:39.000Z</time>
      </trkpt>
      <trkpt lat="45.11273" lon="6.00386">
        <ele>835.59997558594</ele>
        <time>2024-10-15T05:49:40.000Z</time>
      </trkpt>
      <trkpt lat="45.11273" lon="6.00386">
        <ele>835.79998779297</ele>
        <time>2024-10-15T05:49:41.000Z</time>
      </trkpt>
      <trkpt lat="45.11272" lon="6.00386">
        <ele>836</ele>
        <time>2024-10-15T05:49:42.000Z</time>
      </trkpt>
      <trkpt lat="45.11271" lon="6.00386">
        <ele>836.20001220703</ele>
        <time>2024-10-15T05:49:43.000Z</time>
      </trkpt>
      <trkpt lat="45.11271" lon="6.00386">
        <ele>836.40002441406</ele>
        <time>2024-10-15T05:49:44.000Z</time>
      </trkpt>
      <trkpt lat="45.1127" lon="6.00387">
        <ele>836.59997558594</ele>
        <time>2024-10-15T05:49:45.000Z</time>
      </trkpt>
      <trkpt lat="45.1127" lon="6.00386">
        <ele>836.79998779297</ele>
        <time>2024-10-15T05:49:46.000Z</time>
      </trkpt>
      <trkpt lat="45.11269" lon="6.00385">
        <ele>836.79998779297</ele>
        <time>2024-10-15T05:49:47.000Z</time>
      </trkpt>
      <trkpt lat="45.11269" lon="6.00386">
        <ele>836.79998779297</ele>
        <time>2024-10-15T05:49:48.000Z</time>
      </trkpt>
      <trkpt lat="45.11268" lon="6.00386">
        <ele>837</ele>
        <time>2024-10-15T05:49:49.000Z</time>
      </trkpt>
      <trkpt lat="45.11267" lon="6.00387">
        <ele>837.20001220703</ele>
        <time>2024-10-15T05:49:50.000Z</time>
      </trkpt>
      <trkpt lat="45.11267" lon="6.00387">
        <ele>837.40002441406</ele>
        <time>2024-10-15T05:49:51.000Z</time>
      </trkpt>
      <trkpt lat="45.11267" lon="6.00387">
        <ele>837.59997558594</ele>
        <time>2024-10-15T05:49:52.000Z</time>
      </trkpt>
      <trkpt lat="45.11267" lon="6.00388">
        <ele>837.79998779297</ele>
        <time>2024-10-15T05:49:53.000Z</time>
      </trkpt>
      <trkpt lat="45.11266" lon="6.00389">
        <ele>838</ele>
        <time>2024-10-15T05:49:54.000Z</time>
      </trkpt>
      <trkpt lat="45.11266" lon="6.00389">
        <ele>838.40002441406</ele>
        <time>2024-10-15T05:49:55.000Z</time>
      </trkpt>
      <trkpt lat="45.11265" lon="6.00389">
        <ele>838.40002441406</ele>
        <time>2024-10-15T05:49:56.000Z</time>
      </trkpt>
      <trkpt lat="45.11265" lon="6.00389">
        <ele>838.59997558594</ele>
        <time>2024-10-15T05:49:57.000Z</time>
      </trkpt>
      <trkpt lat="45.11265" lon="6.00389">
        <ele>838.79998779297</ele>
        <time>2024-10-15T05:49:58.000Z</time>
      </trkpt>
      <trkpt lat="45.11264" lon="6.0039">
        <ele>839</ele>
        <time>2024-10-15T05:49:59.000Z</time>
      </trkpt>
      <trkpt lat="45.11264" lon="6.0039">
        <ele>839.20001220703</ele>
        <time>2024-10-15T05:50:00.000Z</time>
      </trkpt>
      <trkpt lat="45.11264" lon="6.0039">
        <ele>839.40002441406</ele>
        <time>2024-10-15T05:50:01.000Z</time>
      </trkpt>
      <trkpt lat="45.11263" lon="6.00391">
        <ele>839.40002441406</ele>
        <time>2024-10-15T05:50:02.000Z</time>
      </trkpt>
      <trkpt lat="45.11263" lon="6.00391">
        <ele>839.79998779297</ele>
        <time>2024-10-15T05:50:03.000Z</time>
      </trkpt>
      <trkpt lat="45.11262" lon="6.00392">
        <ele>839.79998779297</ele>
        <time>2024-10-15T05:50:04.000Z</time>
      </trkpt>
      <trkpt lat="45.11261" lon="6.00393">
        <ele>840</ele>
        <time>2024-10-15T05:50:05.000Z</time>
      </trkpt>
      <trkpt lat="45.11261" lon="6.00393">
        <ele>840.20001220703</ele>
        <time>2024-10-15T05:50:06.000Z</time>
      </trkpt>
      <trkpt lat="45.1126" lon="6.00397">
        <ele>840.40002441406</ele>
        <time>2024-10-15T05:50:07.000Z</time>
      </trkpt>
      <trkpt lat="45.1126" lon="6.00397">
        <ele>840.59997558594</ele>
        <time>2024-10-15T05:50:08.000Z</time>
      </trkpt>
      <trkpt lat="45.11261" lon="6.00398">
        <ele>840.79998779297</ele>
        <time>2024-10-15T05:50:09.000Z</time>
      </trkpt>
      <trkpt lat="45.11262" lon="6.00399">
        <ele>841</ele>
        <time>2024-10-15T05:50:10.000Z</time>
      </trkpt>
      <trkpt lat="45.11262" lon="6.00399">
        <ele>841.20001220703</ele>
        <time>2024-10-15T05:50:11.000Z</time>
      </trkpt>
      <trkpt lat="45.11263" lon="6.004">
        <ele>841.40002441406</ele>
        <time>2024-10-15T05:50:12.000Z</time>
      </trkpt>
      <trkpt lat="45.11263" lon="6.00401">
        <ele>841.59997558594</ele>
        <time>2024-10-15T05:50:13.000Z</time>
      </trkpt>
      <trkpt lat="45.11265" lon="6.004">
        <ele>842</ele>
        <time>2024-10-15T05:50:14.000Z</time>
      </trkpt>
      <trkpt lat="45.11263" lon="6.00399">
        <ele>842</ele>
        <time>2024-10-15T05:50:15.000Z</time>
      </trkpt>
      <trkpt lat="45.11264" lon="6.004">
        <ele>842</ele>
        <time>2024-10-15T05:50:16.000Z</time>
      </trkpt>
      <trkpt lat="45.11264" lon="6.004">
        <ele>842.20001220703</ele>
        <time>2024-10-15T05:50:17.000Z</time>
      </trkpt>
      <trkpt lat="45.11264" lon="6.004">
        <ele>842.40002441406</ele>
        <time>2024-10-15T05:50:18.000Z</time>
      </trkpt>
      <trkpt lat="45.11263" lon="6.00402">
        <ele>842.59997558594</ele>
        <time>2024-10-15T05:50:19.000Z</time>
      </trkpt>
      <trkpt lat="45.11263" lon="6.00402">
        <ele>842.79998779297</ele>
        <time>2024-10-15T05:50:20.000Z</time>
      </trkpt>
      <trkpt lat="45.11262" lon="6.004">
        <ele>843</ele>
        <time>2024-10-15T05:50:21.000Z</time>
      </trkpt>
      <trkpt lat="45.11262" lon="6.004">
        <ele>843</ele>
        <time>2024-10-15T05:50:22.000Z</time>
      </trkpt>
      <trkpt lat="45.11262" lon="6.004">
        <ele>843.40002441406</ele>
        <time>2024-10-15T05:50:23.000Z</time>
      </trkpt>
      <trkpt lat="45.11263" lon="6.004">
        <ele>843.59997558594</ele>
        <time>2024-10-15T05:50:24.000Z</time>
      </trkpt>
      <trkpt lat="45.11263" lon="6.00401">
        <ele>843.79998779297</ele>
        <time>2024-10-15T05:50:25.000Z</time>
      </trkpt>
      <trkpt lat="45.11263" lon="6.00401">
        <ele>844</ele>
        <time>2024-10-15T05:50:26.000Z</time>
      </trkpt>
      <trkpt lat="45.11263" lon="6.00401">
        <ele>844.20001220703</ele>
        <time>2024-10-15T05:50:27.000Z</time>
      </trkpt>
      <trkpt lat="45.11263" lon="6.00403">
        <ele>844.40002441406</ele>
        <time>2024-10-15T05:50:28.000Z</time>
      </trkpt>
      <trkpt lat="45.11262" lon="6.00404">
        <ele>844.59997558594</ele>
        <time>2024-10-15T05:50:29.000Z</time>
      </trkpt>
      <trkpt lat="45.11262" lon="6.00404">
        <ele>845</ele>
        <time>2024-10-15T05:50:30.000Z</time>
      </trkpt>
      <trkpt lat="45.11261" lon="6.00404">
        <ele>845.20001220703</ele>
        <time>2024-10-15T05:50:31.000Z</time>
      </trkpt>
      <trkpt lat="45.1126" lon="6.00404">
        <ele>845.20001220703</ele>
        <time>2024-10-15T05:50:32.000Z</time>
      </trkpt>
      <trkpt lat="45.11259" lon="6.00405">
        <ele>845.40002441406</ele>
        <time>2024-10-15T05:50:33.000Z</time>
      </trkpt>
      <trkpt lat="45.11258" lon="6.00405">
        <ele>845.59997558594</ele>
        <time>2024-10-15T05:50:34.000Z</time>
      </trkpt>
      <trkpt lat="45.11258" lon="6.00405">
        <ele>845.79998779297</ele>
        <time>2024-10-15T05:50:35.000Z</time>
      </trkpt>
      <trkpt lat="45.11257" lon="6.00405">
        <ele>846</ele>
        <time>2024-10-15T05:50:36.000Z</time>
      </trkpt>
      <trkpt lat="45.11256" lon="6.00405">
        <ele>846.20001220703</ele>
        <time>2024-10-15T05:50:37.000Z</time>
      </trkpt>
      <trkpt lat="45.11255" lon="6.00404">
        <ele>846.40002441406</ele>
        <time>2024-10-15T05:50:38.000Z</time>
      </trkpt>
      <trkpt lat="45.11254" lon="6.00405">
        <ele>846.40002441406</ele>
        <time>2024-10-15T05:50:39.000Z</time>
      </trkpt>
      <trkpt lat="45.11254" lon="6.00405">
        <ele>846.59997558594</ele>
        <time>2024-10-15T05:50:40.000Z</time>
      </trkpt>
      <trkpt lat="45.11254" lon="6.00405">
        <ele>847</ele>
        <time>2024-10-15T05:50:41.000Z</time>
      </trkpt>
      <trkpt lat="45.11253" lon="6.00405">
        <ele>847.20001220703</ele>
        <time>2024-10-15T05:50:42.000Z</time>
      </trkpt>
      <trkpt lat="45.11253" lon="6.00406">
        <ele>847.20001220703</ele>
        <time>2024-10-15T05:50:43.000Z</time>
      </trkpt>
      <trkpt lat="45.11252" lon="6.00405">
        <ele>847.40002441406</ele>
        <time>2024-10-15T05:50:44.000Z</time>
      </trkpt>
      <trkpt lat="45.11252" lon="6.00406">
        <ele>847.40002441406</ele>
        <time>2024-10-15T05:50:45.000Z</time>
      </trkpt>
      <trkpt lat="45.11252" lon="6.00406">
        <ele>847.59997558594</ele>
        <time>2024-10-15T05:50:46.000Z</time>
      </trkpt>
      <trkpt lat="45.11251" lon="6.00405">
        <ele>847.79998779297</ele>
        <time>2024-10-15T05:50:47.000Z</time>
      </trkpt>
      <trkpt lat="45.11251" lon="6.00404">
        <ele>847.79998779297</ele>
        <time>2024-10-15T05:50:48.000Z</time>
      </trkpt>
      <trkpt lat="45.1125" lon="6.00404">
        <ele>848</ele>
        <time>2024-10-15T05:50:49.000Z</time>
      </trkpt>
      <trkpt lat="45.1125" lon="6.00403">
        <ele>848.40002441406</ele>
        <time>2024-10-15T05:50:50.000Z</time>
      </trkpt>
      <trkpt lat="45.1125" lon="6.00403">
        <ele>848.59997558594</ele>
        <time>2024-10-15T05:50:51.000Z</time>
      </trkpt>
      <trkpt lat="45.1125" lon="6.00403">
        <ele>848.79998779297</ele>
        <time>2024-10-15T05:50:52.000Z</time>
      </trkpt>
      <trkpt lat="45.1125" lon="6.00403">
        <ele>848.79998779297</ele>
        <time>2024-10-15T05:50:53.000Z</time>
      </trkpt>
      <trkpt lat="45.1125" lon="6.00402">
        <ele>849.20001220703</ele>
        <time>2024-10-15T05:50:54.000Z</time>
      </trkpt>
      <trkpt lat="45.11251" lon="6.00402">
        <ele>849.40002441406</ele>
        <time>2024-10-15T05:50:55.000Z</time>
      </trkpt>
      <trkpt lat="45.11251" lon="6.00401">
        <ele>849.59997558594</ele>
        <time>2024-10-15T05:50:56.000Z</time>
      </trkpt>
      <trkpt lat="45.11251" lon="6.00401">
        <ele>849.79998779297</ele>
        <time>2024-10-15T05:50:57.000Z</time>
      </trkpt>
      <trkpt lat="45.11251" lon="6.004">
        <ele>850</ele>
        <time>2024-10-15T05:50:58.000Z</time>
      </trkpt>
      <trkpt lat="45.11251" lon="6.004">
        <ele>850</ele>
        <time>2024-10-15T05:50:59.000Z</time>
      </trkpt>
      <trkpt lat="45.11251" lon="6.00399">
        <ele>850</ele>
        <time>2024-10-15T05:51:00.000Z</time>
      </trkpt>
      <trkpt lat="45.11252" lon="6.00399">
        <ele>850.20001220703</ele>
        <time>2024-10-15T05:51:01.000Z</time>
      </trkpt>
      <trkpt lat="45.11253" lon="6.00399">
        <ele>850.40002441406</ele>
        <time>2024-10-15T05:51:02.000Z</time>
      </trkpt>
      <trkpt lat="45.11253" lon="6.00398">
        <ele>850.79998779297</ele>
        <time>2024-10-15T05:51:03.000Z</time>
      </trkpt>
      <trkpt lat="45.11253" lon="6.00398">
        <ele>851</ele>
        <time>2024-10-15T05:51:04.000Z</time>
      </trkpt>
      <trkpt lat="45.11253" lon="6.00398">
        <ele>851.20001220703</ele>
        <time>2024-10-15T05:51:05.000Z</time>
      </trkpt>
      <trkpt lat="45.11254" lon="6.00398">
        <ele>851.40002441406</ele>
        <time>2024-10-15T05:51:06.000Z</time>
      </trkpt>
      <trkpt lat="45.11255" lon="6.00398">
        <ele>851.40002441406</ele>
        <time>2024-10-15T05:51:07.000Z</time>
      </trkpt>
      <trkpt lat="45.11255" lon="6.00398">
        <ele>851.59997558594</ele>
        <time>2024-10-15T05:51:08.000Z</time>
      </trkpt>
      <trkpt lat="45.11255" lon="6.00397">
        <ele>851.79998779297</ele>
        <time>2024-10-15T05:51:09.000Z</time>
      </trkpt>
      <trkpt lat="45.11255" lon="6.00396">
        <ele>852</ele>
        <time>2024-10-15T05:51:10.000Z</time>
      </trkpt>
      <trkpt lat="45.11255" lon="6.00396">
        <ele>852.20001220703</ele>
        <time>2024-10-15T05:51:11.000Z</time>
      </trkpt>
      <trkpt lat="45.11255" lon="6.00396">
        <ele>852.40002441406</ele>
        <time>2024-10-15T05:51:12.000Z</time>
      </trkpt>
      <trkpt lat="45.11255" lon="6.00395">
        <ele>852.40002441406</ele>
        <time>2024-10-15T05:51:13.000Z</time>
      </trkpt>
      <trkpt lat="45.11255" lon="6.00394">
        <ele>852.40002441406</ele>
        <time>2024-10-15T05:51:14.000Z</time>
      </trkpt>
      <trkpt lat="45.11255" lon="6.00394">
        <ele>852.79998779297</ele>
        <time>2024-10-15T05:51:15.000Z</time>
      </trkpt>
      <trkpt lat="45.11255" lon="6.00394">
        <ele>852.79998779297</ele>
        <time>2024-10-15T05:51:16.000Z</time>
      </trkpt>
      <trkpt lat="45.11255" lon="6.00394">
        <ele>853</ele>
        <time>2024-10-15T05:51:17.000Z</time>
      </trkpt>
      <trkpt lat="45.11255" lon="6.00394">
        <ele>853.20001220703</ele>
        <time>2024-10-15T05:51:18.000Z</time>
      </trkpt>
      <trkpt lat="45.11254" lon="6.00393">
        <ele>853.40002441406</ele>
        <time>2024-10-15T05:51:19.000Z</time>
      </trkpt>
      <trkpt lat="45.11254" lon="6.00392">
        <ele>853.40002441406</ele>
        <time>2024-10-15T05:51:20.000Z</time>
      </trkpt>
      <trkpt lat="45.11253" lon="6.00391">
        <ele>853.59997558594</ele>
        <time>2024-10-15T05:51:21.000Z</time>
      </trkpt>
      <trkpt lat="45.11253" lon="6.0039">
        <ele>853.79998779297</ele>
        <time>2024-10-15T05:51:22.000Z</time>
      </trkpt>
      <trkpt lat="45.11252" lon="6.00389">
        <ele>854</ele>
        <time>2024-10-15T05:51:23.000Z</time>
      </trkpt>
      <trkpt lat="45.11252" lon="6.00389">
        <ele>854</ele>
        <time>2024-10-15T05:51:24.000Z</time>
      </trkpt>
      <trkpt lat="45.11252" lon="6.00389">
        <ele>854.20001220703</ele>
        <time>2024-10-15T05:51:25.000Z</time>
      </trkpt>
      <trkpt lat="45.11251" lon="6.00389">
        <ele>854.40002441406</ele>
        <time>2024-10-15T05:51:26.000Z</time>
      </trkpt>
      <trkpt lat="45.11251" lon="6.00389">
        <ele>854.59997558594</ele>
        <time>2024-10-15T05:51:27.000Z</time>
      </trkpt>
      <trkpt lat="45.1125" lon="6.00388">
        <ele>854.79998779297</ele>
        <time>2024-10-15T05:51:28.000Z</time>
      </trkpt>
      <trkpt lat="45.1125" lon="6.00388">
        <ele>854.79998779297</ele>
        <time>2024-10-15T05:51:29.000Z</time>
      </trkpt>
      <trkpt lat="45.11249" lon="6.00388">
        <ele>855</ele>
        <time>2024-10-15T05:51:30.000Z</time>
      </trkpt>
      <trkpt lat="45.11249" lon="6.00388">
        <ele>855.20001220703</ele>
        <time>2024-10-15T05:51:31.000Z</time>
      </trkpt>
      <trkpt lat="45.1125" lon="6.00388">
        <ele>855.40002441406</ele>
        <time>2024-10-15T05:51:32.000Z</time>
      </trkpt>
      <trkpt lat="45.11251" lon="6.00388">
        <ele>855.59997558594</ele>
        <time>2024-10-15T05:51:33.000Z</time>
      </trkpt>
      <trkpt lat="45.11251" lon="6.00388">
        <ele>855.59997558594</ele>
        <time>2024-10-15T05:51:34.000Z</time>
      </trkpt>
      <trkpt lat="45.1125" lon="6.00388">
        <ele>855.79998779297</ele>
        <time>2024-10-15T05:51:35.000Z</time>
      </trkpt>
      <trkpt lat="45.1125" lon="6.00388">
        <ele>855.79998779297</ele>
        <time>2024-10-15T05:51:36.000Z</time>
      </trkpt>
      <trkpt lat="45.1125" lon="6.00388">
        <ele>856</ele>
        <time>2024-10-15T05:51:37.000Z</time>
      </trkpt>
      <trkpt lat="45.1125" lon="6.00388">
        <ele>856.20001220703</ele>
        <time>2024-10-15T05:51:38.000Z</time>
      </trkpt>
      <trkpt lat="45.1125" lon="6.00389">
        <ele>856.40002441406</ele>
        <time>2024-10-15T05:51:39.000Z</time>
      </trkpt>
      <trkpt lat="45.11249" lon="6.0039">
        <ele>856.79998779297</ele>
        <time>2024-10-15T05:51:40.000Z</time>
      </trkpt>
      <trkpt lat="45.11249" lon="6.0039">
        <ele>857</ele>
        <time>2024-10-15T05:51:41.000Z</time>
      </trkpt>
      <trkpt lat="45.11248" lon="6.00391">
        <ele>857.20001220703</ele>
        <time>2024-10-15T05:51:42.000Z</time>
      </trkpt>
      <trkpt lat="45.11248" lon="6.00391">
        <ele>857.40002441406</ele>
        <time>2024-10-15T05:51:43.000Z</time>
      </trkpt>
      <trkpt lat="45.11248" lon="6.00392">
        <ele>857.40002441406</ele>
        <time>2024-10-15T05:51:44.000Z</time>
      </trkpt>
      <trkpt lat="45.11248" lon="6.00392">
        <ele>857.40002441406</ele>
        <time>2024-10-15T05:51:45.000Z</time>
      </trkpt>
      <trkpt lat="45.11247" lon="6.00392">
        <ele>857.59997558594</ele>
        <time>2024-10-15T05:51:46.000Z</time>
      </trkpt>
      <trkpt lat="45.11247" lon="6.00393">
        <ele>857.79998779297</ele>
        <time>2024-10-15T05:51:47.000Z</time>
      </trkpt>
      <trkpt lat="45.11246" lon="6.00393">
        <ele>857.79998779297</ele>
        <time>2024-10-15T05:51:48.000Z</time>
      </trkpt>
      <trkpt lat="45.11246" lon="6.00394">
        <ele>858.20001220703</ele>
        <time>2024-10-15T05:51:49.000Z</time>
      </trkpt>
      <trkpt lat="45.11245" lon="6.00394">
        <ele>858.40002441406</ele>
        <time>2024-10-15T05:51:50.000Z</time>
      </trkpt>
      <trkpt lat="45.11245" lon="6.00394">
        <ele>858.59997558594</ele>
        <time>2024-10-15T05:51:51.000Z</time>
      </trkpt>
      <trkpt lat="45.11244" lon="6.00394">
        <ele>858.59997558594</ele>
        <time>2024-10-15T05:51:52.000Z</time>
      </trkpt>
      <trkpt lat="45.11244" lon="6.00393">
        <ele>858.59997558594</ele>
        <time>2024-10-15T05:51:53.000Z</time>
      </trkpt>
      <trkpt lat="45.11244" lon="6.00392">
        <ele>858.79998779297</ele>
        <time>2024-10-15T05:51:54.000Z</time>
      </trkpt>
      <trkpt lat="45.11243" lon="6.00392">
        <ele>859.20001220703</ele>
        <time>2024-10-15T05:51:55.000Z</time>
      </trkpt>
      <trkpt lat="45.11244" lon="6.00393">
        <ele>859.40002441406</ele>
        <time>2024-10-15T05:51:56.000Z</time>
      </trkpt>
      <trkpt lat="45.11243" lon="6.00393">
        <ele>859.40002441406</ele>
        <time>2024-10-15T05:51:57.000Z</time>
      </trkpt>
      <trkpt lat="45.11242" lon="6.00395">
        <ele>859.79998779297</ele>
        <time>2024-10-15T05:51:58.000Z</time>
      </trkpt>
      <trkpt lat="45.11242" lon="6.00395">
        <ele>859.79998779297</ele>
        <time>2024-10-15T05:51:59.000Z</time>
      </trkpt>
      <trkpt lat="45.11243" lon="6.00396">
        <ele>860</ele>
        <time>2024-10-15T05:52:00.000Z</time>
      </trkpt>
      <trkpt lat="45.11243" lon="6.00397">
        <ele>860.40002441406</ele>
        <time>2024-10-15T05:52:01.000Z</time>
      </trkpt>
      <trkpt lat="45.11243" lon="6.00398">
        <ele>860.40002441406</ele>
        <time>2024-10-15T05:52:02.000Z</time>
      </trkpt>
      <trkpt lat="45.11242" lon="6.00399">
        <ele>860.40002441406</ele>
        <time>2024-10-15T05:52:03.000Z</time>
      </trkpt>
      <trkpt lat="45.11241" lon="6.004">
        <ele>860.59997558594</ele>
        <time>2024-10-15T05:52:04.000Z</time>
      </trkpt>
      <trkpt lat="45.11239" lon="6.004">
        <ele>860.59997558594</ele>
        <time>2024-10-15T05:52:05.000Z</time>
      </trkpt>
      <trkpt lat="45.11238" lon="6.00399">
        <ele>860.79998779297</ele>
        <time>2024-10-15T05:52:06.000Z</time>
      </trkpt>
      <trkpt lat="45.11237" lon="6.00398">
        <ele>860.79998779297</ele>
        <time>2024-10-15T05:52:07.000Z</time>
      </trkpt>
      <trkpt lat="45.11236" lon="6.00398">
        <ele>861</ele>
        <time>2024-10-15T05:52:08.000Z</time>
      </trkpt>
      <trkpt lat="45.11234" lon="6.00398">
        <ele>861</ele>
        <time>2024-10-15T05:52:09.000Z</time>
      </trkpt>
      <trkpt lat="45.11233" lon="6.00398">
        <ele>861</ele>
        <time>2024-10-15T05:52:10.000Z</time>
      </trkpt>
      <trkpt lat="45.11232" lon="6.00399">
        <ele>861.20001220703</ele>
        <time>2024-10-15T05:52:11.000Z</time>
      </trkpt>
      <trkpt lat="45.11231" lon="6.00399">
        <ele>861.20001220703</ele>
        <time>2024-10-15T05:52:12.000Z</time>
      </trkpt>
      <trkpt lat="45.1123" lon="6.004">
        <ele>861.20001220703</ele>
        <time>2024-10-15T05:52:13.000Z</time>
      </trkpt>
      <trkpt lat="45.11229" lon="6.004">
        <ele>861.20001220703</ele>
        <time>2024-10-15T05:52:14.000Z</time>
      </trkpt>
      <trkpt lat="45.11228" lon="6.00401">
        <ele>861.40002441406</ele>
        <time>2024-10-15T05:52:15.000Z</time>
      </trkpt>
      <trkpt lat="45.11227" lon="6.00402">
        <ele>861.40002441406</ele>
        <time>2024-10-15T05:52:16.000Z</time>
      </trkpt>
      <trkpt lat="45.11226" lon="6.00402">
        <ele>861.59997558594</ele>
        <time>2024-10-15T05:52:17.000Z</time>
      </trkpt>
      <trkpt lat="45.11225" lon="6.00402">
        <ele>861.59997558594</ele>
        <time>2024-10-15T05:52:18.000Z</time>
      </trkpt>
      <trkpt lat="45.11225" lon="6.00403">
        <ele>861.79998779297</ele>
        <time>2024-10-15T05:52:19.000Z</time>
      </trkpt>
      <trkpt lat="45.11224" lon="6.00404">
        <ele>862</ele>
        <time>2024-10-15T05:52:20.000Z</time>
      </trkpt>
      <trkpt lat="45.11224" lon="6.00406">
        <ele>862.20001220703</ele>
        <time>2024-10-15T05:52:21.000Z</time>
      </trkpt>
      <trkpt lat="45.11224" lon="6.00407">
        <ele>862.20001220703</ele>
        <time>2024-10-15T05:52:22.000Z</time>
      </trkpt>
      <trkpt lat="45.11224" lon="6.00408">
        <ele>862.40002441406</ele>
        <time>2024-10-15T05:52:23.000Z</time>
      </trkpt>
      <trkpt lat="45.11223" lon="6.00409">
        <ele>862.40002441406</ele>
        <time>2024-10-15T05:52:24.000Z</time>
      </trkpt>
      <trkpt lat="45.11224" lon="6.0041">
        <ele>862.59997558594</ele>
        <time>2024-10-15T05:52:25.000Z</time>
      </trkpt>
      <trkpt lat="45.11224" lon="6.0041">
        <ele>862.59997558594</ele>
        <time>2024-10-15T05:52:26.000Z</time>
      </trkpt>
      <trkpt lat="45.11224" lon="6.0041">
        <ele>862.59997558594</ele>
        <time>2024-10-15T05:52:27.000Z</time>
      </trkpt>
      <trkpt lat="45.11224" lon="6.0041">
        <ele>862.59997558594</ele>
        <time>2024-10-15T05:52:28.000Z</time>
      </trkpt>
      <trkpt lat="45.11224" lon="6.00411">
        <ele>862.79998779297</ele>
        <time>2024-10-15T05:52:29.000Z</time>
      </trkpt>
      <trkpt lat="45.11223" lon="6.00411">
        <ele>862.79998779297</ele>
        <time>2024-10-15T05:52:30.000Z</time>
      </trkpt>
      <trkpt lat="45.11222" lon="6.0041">
        <ele>863</ele>
        <time>2024-10-15T05:52:31.000Z</time>
      </trkpt>
      <trkpt lat="45.11221" lon="6.00409">
        <ele>863.20001220703</ele>
        <time>2024-10-15T05:52:32.000Z</time>
      </trkpt>
      <trkpt lat="45.11218" lon="6.00408">
        <ele>863.40002441406</ele>
        <time>2024-10-15T05:52:33.000Z</time>
      </trkpt>
      <trkpt lat="45.11218" lon="6.00407">
        <ele>863.79998779297</ele>
        <time>2024-10-15T05:52:34.000Z</time>
      </trkpt>
      <trkpt lat="45.11216" lon="6.00408">
        <ele>864</ele>
        <time>2024-10-15T05:52:35.000Z</time>
      </trkpt>
      <trkpt lat="45.11217" lon="6.00408">
        <ele>864.20001220703</ele>
        <time>2024-10-15T05:52:36.000Z</time>
      </trkpt>
      <trkpt lat="45.11216" lon="6.00408">
        <ele>864.40002441406</ele>
        <time>2024-10-15T05:52:37.000Z</time>
      </trkpt>
      <trkpt lat="45.11216" lon="6.00408">
        <ele>864.59997558594</ele>
        <time>2024-10-15T05:52:38.000Z</time>
      </trkpt>
      <trkpt lat="45.11216" lon="6.00409">
        <ele>864.79998779297</ele>
        <time>2024-10-15T05:52:39.000Z</time>
      </trkpt>
      <trkpt lat="45.11215" lon="6.00409">
        <ele>865</ele>
        <time>2024-10-15T05:52:40.000Z</time>
      </trkpt>
      <trkpt lat="45.11213" lon="6.00408">
        <ele>865</ele>
        <time>2024-10-15T05:52:41.000Z</time>
      </trkpt>
      <trkpt lat="45.11211" lon="6.00409">
        <ele>865.20001220703</ele>
        <time>2024-10-15T05:52:42.000Z</time>
      </trkpt>
      <trkpt lat="45.1121" lon="6.00409">
        <ele>865.40002441406</ele>
        <time>2024-10-15T05:52:43.000Z</time>
      </trkpt>
      <trkpt lat="45.1121" lon="6.00411">
        <ele>865.40002441406</ele>
        <time>2024-10-15T05:52:44.000Z</time>
      </trkpt>
      <trkpt lat="45.1121" lon="6.00413">
        <ele>865.59997558594</ele>
        <time>2024-10-15T05:52:45.000Z</time>
      </trkpt>
      <trkpt lat="45.11211" lon="6.00415">
        <ele>866</ele>
        <time>2024-10-15T05:52:46.000Z</time>
      </trkpt>
      <trkpt lat="45.11211" lon="6.00417">
        <ele>866</ele>
        <time>2024-10-15T05:52:47.000Z</time>
      </trkpt>
      <trkpt lat="45.1121" lon="6.00417">
        <ele>866.20001220703</ele>
        <time>2024-10-15T05:52:48.000Z</time>
      </trkpt>
      <trkpt lat="45.11209" lon="6.00417">
        <ele>866.40002441406</ele>
        <time>2024-10-15T05:52:49.000Z</time>
      </trkpt>
      <trkpt lat="45.11208" lon="6.00417">
        <ele>866.40002441406</ele>
        <time>2024-10-15T05:52:50.000Z</time>
      </trkpt>
      <trkpt lat="45.11208" lon="6.00417">
        <ele>866.59997558594</ele>
        <time>2024-10-15T05:52:51.000Z</time>
      </trkpt>
      <trkpt lat="45.11208" lon="6.00417">
        <ele>866.79998779297</ele>
        <time>2024-10-15T05:52:52.000Z</time>
      </trkpt>
      <trkpt lat="45.11207" lon="6.00417">
        <ele>867</ele>
        <time>2024-10-15T05:52:53.000Z</time>
      </trkpt>
      <trkpt lat="45.11207" lon="6.00417">
        <ele>867.20001220703</ele>
        <time>2024-10-15T05:52:54.000Z</time>
      </trkpt>
      <trkpt lat="45.11206" lon="6.00418">
        <ele>867.59997558594</ele>
        <time>2024-10-15T05:52:55.000Z</time>
      </trkpt>
      <trkpt lat="45.11205" lon="6.00418">
        <ele>867.59997558594</ele>
        <time>2024-10-15T05:52:56.000Z</time>
      </trkpt>
      <trkpt lat="45.11205" lon="6.00417">
        <ele>868</ele>
        <time>2024-10-15T05:52:57.000Z</time>
      </trkpt>
      <trkpt lat="45.11204" lon="6.00417">
        <ele>868</ele>
        <time>2024-10-15T05:52:58.000Z</time>
      </trkpt>
      <trkpt lat="45.11206" lon="6.00417">
        <ele>868.40002441406</ele>
        <time>2024-10-15T05:52:59.000Z</time>
      </trkpt>
      <trkpt lat="45.11205" lon="6.00418">
        <ele>868.59997558594</ele>
        <time>2024-10-15T05:53:00.000Z</time>
      </trkpt>
      <trkpt lat="45.11204" lon="6.00417">
        <ele>868.59997558594</ele>
        <time>2024-10-15T05:53:01.000Z</time>
      </trkpt>
      <trkpt lat="45.11203" lon="6.00416">
        <ele>869</ele>
        <time>2024-10-15T05:53:02.000Z</time>
      </trkpt>
      <trkpt lat="45.11201" lon="6.00414">
        <ele>869</ele>
        <time>2024-10-15T05:53:03.000Z</time>
      </trkpt>
      <trkpt lat="45.11201" lon="6.00414">
        <ele>869.20001220703</ele>
        <time>2024-10-15T05:53:04.000Z</time>
      </trkpt>
      <trkpt lat="45.112" lon="6.00414">
        <ele>869.59997558594</ele>
        <time>2024-10-15T05:53:05.000Z</time>
      </trkpt>
      <trkpt lat="45.112" lon="6.00415">
        <ele>869.79998779297</ele>
        <time>2024-10-15T05:53:06.000Z</time>
      </trkpt>
      <trkpt lat="45.112" lon="6.00415">
        <ele>870</ele>
        <time>2024-10-15T05:53:07.000Z</time>
      </trkpt>
      <trkpt lat="45.11199" lon="6.00414">
        <ele>870.20001220703</ele>
        <time>2024-10-15T05:53:08.000Z</time>
      </trkpt>
      <trkpt lat="45.11199" lon="6.00414">
        <ele>870.40002441406</ele>
        <time>2024-10-15T05:53:09.000Z</time>
      </trkpt>
      <trkpt lat="45.11198" lon="6.00415">
        <ele>870.59997558594</ele>
        <time>2024-10-15T05:53:10.000Z</time>
      </trkpt>
      <trkpt lat="45.11198" lon="6.00415">
        <ele>870.59997558594</ele>
        <time>2024-10-15T05:53:11.000Z</time>
      </trkpt>
      <trkpt lat="45.11198" lon="6.00415">
        <ele>870.79998779297</ele>
        <time>2024-10-15T05:53:12.000Z</time>
      </trkpt>
      <trkpt lat="45.11197" lon="6.00415">
        <ele>871</ele>
        <time>2024-10-15T05:53:13.000Z</time>
      </trkpt>
      <trkpt lat="45.11197" lon="6.00416">
        <ele>871</ele>
        <time>2024-10-15T05:53:14.000Z</time>
      </trkpt>
      <trkpt lat="45.11197" lon="6.00416">
        <ele>871</ele>
        <time>2024-10-15T05:53:15.000Z</time>
      </trkpt>
      <trkpt lat="45.11197" lon="6.00415">
        <ele>871</ele>
        <time>2024-10-15T05:53:16.000Z</time>
      </trkpt>
      <trkpt lat="45.11196" lon="6.00415">
        <ele>871.20001220703</ele>
        <time>2024-10-15T05:53:17.000Z</time>
      </trkpt>
      <trkpt lat="45.11195" lon="6.00415">
        <ele>871.20001220703</ele>
        <time>2024-10-15T05:53:18.000Z</time>
      </trkpt>
      <trkpt lat="45.11195" lon="6.00415">
        <ele>871.40002441406</ele>
        <time>2024-10-15T05:53:19.000Z</time>
      </trkpt>
      <trkpt lat="45.11194" lon="6.00416">
        <ele>871.59997558594</ele>
        <time>2024-10-15T05:53:20.000Z</time>
      </trkpt>
      <trkpt lat="45.11193" lon="6.00415">
        <ele>871.79998779297</ele>
        <time>2024-10-15T05:53:21.000Z</time>
      </trkpt>
      <trkpt lat="45.11192" lon="6.00416">
        <ele>871.79998779297</ele>
        <time>2024-10-15T05:53:22.000Z</time>
      </trkpt>
      <trkpt lat="45.11191" lon="6.00415">
        <ele>871.79998779297</ele>
        <time>2024-10-15T05:53:23.000Z</time>
      </trkpt>
      <trkpt lat="45.1119" lon="6.00415">
        <ele>871.79998779297</ele>
        <time>2024-10-15T05:53:24.000Z</time>
      </trkpt>
      <trkpt lat="45.11189" lon="6.00416">
        <ele>871.79998779297</ele>
        <time>2024-10-15T05:53:25.000Z</time>
      </trkpt>
      <trkpt lat="45.11189" lon="6.00416">
        <ele>871.79998779297</ele>
        <time>2024-10-15T05:53:26.000Z</time>
      </trkpt>
      <trkpt lat="45.11188" lon="6.00416">
        <ele>872</ele>
        <time>2024-10-15T05:53:27.000Z</time>
      </trkpt>
      <trkpt lat="45.11189" lon="6.00417">
        <ele>872.20001220703</ele>
        <time>2024-10-15T05:53:28.000Z</time>
      </trkpt>
      <trkpt lat="45.11188" lon="6.00416">
        <ele>872.59997558594</ele>
        <time>2024-10-15T05:53:29.000Z</time>
      </trkpt>
      <trkpt lat="45.11187" lon="6.00416">
        <ele>872.59997558594</ele>
        <time>2024-10-15T05:53:30.000Z</time>
      </trkpt>
      <trkpt lat="45.11187" lon="6.00417">
        <ele>872.79998779297</ele>
        <time>2024-10-15T05:53:31.000Z</time>
      </trkpt>
      <trkpt lat="45.11186" lon="6.00417">
        <ele>872.79998779297</ele>
        <time>2024-10-15T05:53:32.000Z</time>
      </trkpt>
      <trkpt lat="45.11186" lon="6.00417">
        <ele>873</ele>
        <time>2024-10-15T05:53:33.000Z</time>
      </trkpt>
      <trkpt lat="45.11186" lon="6.00417">
        <ele>873.40002441406</ele>
        <time>2024-10-15T05:53:34.000Z</time>
      </trkpt>
      <trkpt lat="45.11186" lon="6.00417">
        <ele>873.59997558594</ele>
        <time>2024-10-15T05:53:35.000Z</time>
      </trkpt>
      <trkpt lat="45.11187" lon="6.00417">
        <ele>873.79998779297</ele>
        <time>2024-10-15T05:53:36.000Z</time>
      </trkpt>
      <trkpt lat="45.11186" lon="6.00417">
        <ele>874</ele>
        <time>2024-10-15T05:53:37.000Z</time>
      </trkpt>
      <trkpt lat="45.11186" lon="6.00417">
        <ele>874.20001220703</ele>
        <time>2024-10-15T05:53:38.000Z</time>
      </trkpt>
      <trkpt lat="45.11186" lon="6.00417">
        <ele>874.40002441406</ele>
        <time>2024-10-15T05:53:39.000Z</time>
      </trkpt>
      <trkpt lat="45.11185" lon="6.00417">
        <ele>874.59997558594</ele>
        <time>2024-10-15T05:53:40.000Z</time>
      </trkpt>
      <trkpt lat="45.11187" lon="6.00417">
        <ele>874.79998779297</ele>
        <time>2024-10-15T05:53:41.000Z</time>
      </trkpt>
      <trkpt lat="45.11187" lon="6.00418">
        <ele>875</ele>
        <time>2024-10-15T05:53:42.000Z</time>
      </trkpt>
      <trkpt lat="45.11187" lon="6.00417">
        <ele>875.20001220703</ele>
        <time>2024-10-15T05:53:43.000Z</time>
      </trkpt>
      <trkpt lat="45.11187" lon="6.00417">
        <ele>875.40002441406</ele>
        <time>2024-10-15T05:53:44.000Z</time>
      </trkpt>
      <trkpt lat="45.11185" lon="6.00416">
        <ele>875.59997558594</ele>
        <time>2024-10-15T05:53:45.000Z</time>
      </trkpt>
      <trkpt lat="45.11184" lon="6.00416">
        <ele>875.79998779297</ele>
        <time>2024-10-15T05:53:46.000Z</time>
      </trkpt>
      <trkpt lat="45.11184" lon="6.00416">
        <ele>876</ele>
        <time>2024-10-15T05:53:47.000Z</time>
      </trkpt>
      <trkpt lat="45.11183" lon="6.00416">
        <ele>876</ele>
        <time>2024-10-15T05:53:48.000Z</time>
      </trkpt>
      <trkpt lat="45.11183" lon="6.00415">
        <ele>876.40002441406</ele>
        <time>2024-10-15T05:53:49.000Z</time>
      </trkpt>
      <trkpt lat="45.11182" lon="6.00414">
        <ele>876.79998779297</ele>
        <time>2024-10-15T05:53:50.000Z</time>
      </trkpt>
      <trkpt lat="45.11182" lon="6.00414">
        <ele>877</ele>
        <time>2024-10-15T05:53:51.000Z</time>
      </trkpt>
      <trkpt lat="45.11181" lon="6.00414">
        <ele>877</ele>
        <time>2024-10-15T05:53:52.000Z</time>
      </trkpt>
      <trkpt lat="45.1118" lon="6.00414">
        <ele>877.20001220703</ele>
        <time>2024-10-15T05:53:53.000Z</time>
      </trkpt>
      <trkpt lat="45.11179" lon="6.00413">
        <ele>877.40002441406</ele>
        <time>2024-10-15T05:53:54.000Z</time>
      </trkpt>
      <trkpt lat="45.11178" lon="6.00413">
        <ele>877.79998779297</ele>
        <time>2024-10-15T05:53:55.000Z</time>
      </trkpt>
      <trkpt lat="45.11178" lon="6.00412">
        <ele>877.79998779297</ele>
        <time>2024-10-15T05:53:56.000Z</time>
      </trkpt>
      <trkpt lat="45.11178" lon="6.00412">
        <ele>878</ele>
        <time>2024-10-15T05:53:57.000Z</time>
      </trkpt>
      <trkpt lat="45.11177" lon="6.00411">
        <ele>878</ele>
        <time>2024-10-15T05:53:58.000Z</time>
      </trkpt>
      <trkpt lat="45.11177" lon="6.0041">
        <ele>878.40002441406</ele>
        <time>2024-10-15T05:53:59.000Z</time>
      </trkpt>
      <trkpt lat="45.11176" lon="6.0041">
        <ele>878.40002441406</ele>
        <time>2024-10-15T05:54:00.000Z</time>
      </trkpt>
      <trkpt lat="45.11175" lon="6.0041">
        <ele>878.59997558594</ele>
        <time>2024-10-15T05:54:01.000Z</time>
      </trkpt>
      <trkpt lat="45.11175" lon="6.0041">
        <ele>879</ele>
        <time>2024-10-15T05:54:02.000Z</time>
      </trkpt>
      <trkpt lat="45.11175" lon="6.0041">
        <ele>879.20001220703</ele>
        <time>2024-10-15T05:54:03.000Z</time>
      </trkpt>
      <trkpt lat="45.11175" lon="6.0041">
        <ele>879.40002441406</ele>
        <time>2024-10-15T05:54:04.000Z</time>
      </trkpt>
      <trkpt lat="45.11174" lon="6.0041">
        <ele>879.59997558594</ele>
        <time>2024-10-15T05:54:05.000Z</time>
      </trkpt>
      <trkpt lat="45.11174" lon="6.0041">
        <ele>879.79998779297</ele>
        <time>2024-10-15T05:54:06.000Z</time>
      </trkpt>
      <trkpt lat="45.11173" lon="6.0041">
        <ele>879.79998779297</ele>
        <time>2024-10-15T05:54:07.000Z</time>
      </trkpt>
      <trkpt lat="45.11172" lon="6.0041">
        <ele>880</ele>
        <time>2024-10-15T05:54:08.000Z</time>
      </trkpt>
      <trkpt lat="45.11171" lon="6.00409">
        <ele>880.20001220703</ele>
        <time>2024-10-15T05:54:09.000Z</time>
      </trkpt>
      <trkpt lat="45.11171" lon="6.0041">
        <ele>880.20001220703</ele>
        <time>2024-10-15T05:54:10.000Z</time>
      </trkpt>
      <trkpt lat="45.11171" lon="6.0041">
        <ele>880.20001220703</ele>
        <time>2024-10-15T05:54:11.000Z</time>
      </trkpt>
      <trkpt lat="45.1117" lon="6.00409">
        <ele>880.59997558594</ele>
        <time>2024-10-15T05:54:12.000Z</time>
      </trkpt>
      <trkpt lat="45.1117" lon="6.00409">
        <ele>880.79998779297</ele>
        <time>2024-10-15T05:54:13.000Z</time>
      </trkpt>
      <trkpt lat="45.11169" lon="6.00408">
        <ele>881</ele>
        <time>2024-10-15T05:54:14.000Z</time>
      </trkpt>
      <trkpt lat="45.11169" lon="6.00407">
        <ele>881</ele>
        <time>2024-10-15T05:54:15.000Z</time>
      </trkpt>
      <trkpt lat="45.11168" lon="6.00406">
        <ele>881.20001220703</ele>
        <time>2024-10-15T05:54:16.000Z</time>
      </trkpt>
      <trkpt lat="45.11167" lon="6.00406">
        <ele>881.59997558594</ele>
        <time>2024-10-15T05:54:17.000Z</time>
      </trkpt>
      <trkpt lat="45.11167" lon="6.00406">
        <ele>882</ele>
        <time>2024-10-15T05:54:18.000Z</time>
      </trkpt>
      <trkpt lat="45.11167" lon="6.00406">
        <ele>882</ele>
        <time>2024-10-15T05:54:19.000Z</time>
      </trkpt>
      <trkpt lat="45.11167" lon="6.00406">
        <ele>882.20001220703</ele>
        <time>2024-10-15T05:54:20.000Z</time>
      </trkpt>
      <trkpt lat="45.11167" lon="6.00406">
        <ele>882.40002441406</ele>
        <time>2024-10-15T05:54:21.000Z</time>
      </trkpt>
      <trkpt lat="45.11167" lon="6.00406">
        <ele>882.59997558594</ele>
        <time>2024-10-15T05:54:22.000Z</time>
      </trkpt>
      <trkpt lat="45.11167" lon="6.00405">
        <ele>882.79998779297</ele>
        <time>2024-10-15T05:54:23.000Z</time>
      </trkpt>
      <trkpt lat="45.11165" lon="6.00404">
        <ele>883</ele>
        <time>2024-10-15T05:54:24.000Z</time>
      </trkpt>
      <trkpt lat="45.11165" lon="6.00404">
        <ele>883</ele>
        <time>2024-10-15T05:54:25.000Z</time>
      </trkpt>
      <trkpt lat="45.11164" lon="6.00403">
        <ele>883.20001220703</ele>
        <time>2024-10-15T05:54:26.000Z</time>
      </trkpt>
      <trkpt lat="45.11164" lon="6.00403">
        <ele>883.40002441406</ele>
        <time>2024-10-15T05:54:27.000Z</time>
      </trkpt>
      <trkpt lat="45.11163" lon="6.00402">
        <ele>883.59997558594</ele>
        <time>2024-10-15T05:54:28.000Z</time>
      </trkpt>
      <trkpt lat="45.11162" lon="6.00402">
        <ele>883.79998779297</ele>
        <time>2024-10-15T05:54:29.000Z</time>
      </trkpt>
      <trkpt lat="45.11162" lon="6.00401">
        <ele>884</ele>
        <time>2024-10-15T05:54:30.000Z</time>
      </trkpt>
      <trkpt lat="45.11162" lon="6.004">
        <ele>884</ele>
        <time>2024-10-15T05:54:31.000Z</time>
      </trkpt>
      <trkpt lat="45.11162" lon="6.00399">
        <ele>884.40002441406</ele>
        <time>2024-10-15T05:54:32.000Z</time>
      </trkpt>
      <trkpt lat="45.11161" lon="6.00398">
        <ele>884.40002441406</ele>
        <time>2024-10-15T05:54:33.000Z</time>
      </trkpt>
      <trkpt lat="45.11161" lon="6.00398">
        <ele>884.59997558594</ele>
        <time>2024-10-15T05:54:34.000Z</time>
      </trkpt>
      <trkpt lat="45.1116" lon="6.00398">
        <ele>884.59997558594</ele>
        <time>2024-10-15T05:54:35.000Z</time>
      </trkpt>
      <trkpt lat="45.11159" lon="6.00397">
        <ele>884.79998779297</ele>
        <time>2024-10-15T05:54:36.000Z</time>
      </trkpt>
      <trkpt lat="45.11159" lon="6.00396">
        <ele>885</ele>
        <time>2024-10-15T05:54:37.000Z</time>
      </trkpt>
      <trkpt lat="45.11159" lon="6.00396">
        <ele>885.20001220703</ele>
        <time>2024-10-15T05:54:38.000Z</time>
      </trkpt>
      <trkpt lat="45.11159" lon="6.00396">
        <ele>885.40002441406</ele>
        <time>2024-10-15T05:54:39.000Z</time>
      </trkpt>
      <trkpt lat="45.11159" lon="6.00396">
        <ele>885.59997558594</ele>
        <time>2024-10-15T05:54:40.000Z</time>
      </trkpt>
      <trkpt lat="45.11159" lon="6.00395">
        <ele>885.79998779297</ele>
        <time>2024-10-15T05:54:41.000Z</time>
      </trkpt>
      <trkpt lat="45.1116" lon="6.00394">
        <ele>885.79998779297</ele>
        <time>2024-10-15T05:54:42.000Z</time>
      </trkpt>
      <trkpt lat="45.1116" lon="6.00392">
        <ele>885.79998779297</ele>
        <time>2024-10-15T05:54:43.000Z</time>
      </trkpt>
      <trkpt lat="45.11162" lon="6.00392">
        <ele>885.79998779297</ele>
        <time>2024-10-15T05:54:44.000Z</time>
      </trkpt>
      <trkpt lat="45.11162" lon="6.00392">
        <ele>885.79998779297</ele>
        <time>2024-10-15T05:54:45.000Z</time>
      </trkpt>
      <trkpt lat="45.11162" lon="6.00392">
        <ele>886</ele>
        <time>2024-10-15T05:54:46.000Z</time>
      </trkpt>
      <trkpt lat="45.11162" lon="6.00392">
        <ele>886</ele>
        <time>2024-10-15T05:54:47.000Z</time>
      </trkpt>
      <trkpt lat="45.11162" lon="6.00392">
        <ele>886.20001220703</ele>
        <time>2024-10-15T05:54:48.000Z</time>
      </trkpt>
      <trkpt lat="45.11162" lon="6.00392">
        <ele>886.20001220703</ele>
        <time>2024-10-15T05:54:49.000Z</time>
      </trkpt>
      <trkpt lat="45.11162" lon="6.00393">
        <ele>886.40002441406</ele>
        <time>2024-10-15T05:54:50.000Z</time>
      </trkpt>
      <trkpt lat="45.11161" lon="6.00393">
        <ele>886.59997558594</ele>
        <time>2024-10-15T05:54:51.000Z</time>
      </trkpt>
      <trkpt lat="45.11162" lon="6.00393">
        <ele>887</ele>
        <time>2024-10-15T05:54:52.000Z</time>
      </trkpt>
      <trkpt lat="45.11161" lon="6.00393">
        <ele>887</ele>
        <time>2024-10-15T05:54:53.000Z</time>
      </trkpt>
      <trkpt lat="45.11161" lon="6.00392">
        <ele>887</ele>
        <time>2024-10-15T05:54:54.000Z</time>
      </trkpt>
      <trkpt lat="45.11161" lon="6.00392">
        <ele>887.20001220703</ele>
        <time>2024-10-15T05:54:55.000Z</time>
      </trkpt>
      <trkpt lat="45.11161" lon="6.00392">
        <ele>887.40002441406</ele>
        <time>2024-10-15T05:54:56.000Z</time>
      </trkpt>
      <trkpt lat="45.1116" lon="6.00392">
        <ele>887.59997558594</ele>
        <time>2024-10-15T05:54:57.000Z</time>
      </trkpt>
      <trkpt lat="45.1116" lon="6.00392">
        <ele>887.59997558594</ele>
        <time>2024-10-15T05:54:58.000Z</time>
      </trkpt>
      <trkpt lat="45.1116" lon="6.00392">
        <ele>887.79998779297</ele>
        <time>2024-10-15T05:54:59.000Z</time>
      </trkpt>
      <trkpt lat="45.11161" lon="6.00392">
        <ele>888</ele>
        <time>2024-10-15T05:55:00.000Z</time>
      </trkpt>
      <trkpt lat="45.11161" lon="6.00392">
        <ele>888.20001220703</ele>
        <time>2024-10-15T05:55:01.000Z</time>
      </trkpt>
      <trkpt lat="45.11162" lon="6.00393">
        <ele>888.40002441406</ele>
        <time>2024-10-15T05:55:02.000Z</time>
      </trkpt>
      <trkpt lat="45.11162" lon="6.00393">
        <ele>888.59997558594</ele>
        <time>2024-10-15T05:55:03.000Z</time>
      </trkpt>
      <trkpt lat="45.11162" lon="6.00393">
        <ele>888.59997558594</ele>
        <time>2024-10-15T05:55:04.000Z</time>
      </trkpt>
      <trkpt lat="45.11163" lon="6.00393">
        <ele>888.79998779297</ele>
        <time>2024-10-15T05:55:05.000Z</time>
      </trkpt>
      <trkpt lat="45.11162" lon="6.00392">
        <ele>889</ele>
        <time>2024-10-15T05:55:06.000Z</time>
      </trkpt>
      <trkpt lat="45.11162" lon="6.00392">
        <ele>889.20001220703</ele>
        <time>2024-10-15T05:55:07.000Z</time>
      </trkpt>
      <trkpt lat="45.11162" lon="6.00393">
        <ele>889.40002441406</ele>
        <time>2024-10-15T05:55:08.000Z</time>
      </trkpt>
      <trkpt lat="45.11162" lon="6.00394">
        <ele>889.59997558594</ele>
        <time>2024-10-15T05:55:09.000Z</time>
      </trkpt>
      <trkpt lat="45.11161" lon="6.00395">
        <ele>889.79998779297</ele>
        <time>2024-10-15T05:55:10.000Z</time>
      </trkpt>
      <trkpt lat="45.11161" lon="6.00396">
        <ele>890</ele>
        <time>2024-10-15T05:55:11.000Z</time>
      </trkpt>
      <trkpt lat="45.1116" lon="6.00397">
        <ele>890.20001220703</ele>
        <time>2024-10-15T05:55:12.000Z</time>
      </trkpt>
      <trkpt lat="45.11159" lon="6.00398">
        <ele>890.20001220703</ele>
        <time>2024-10-15T05:55:13.000Z</time>
      </trkpt>
      <trkpt lat="45.11159" lon="6.00398">
        <ele>890.20001220703</ele>
        <time>2024-10-15T05:55:14.000Z</time>
      </trkpt>
      <trkpt lat="45.11158" lon="6.00398">
        <ele>890.40002441406</ele>
        <time>2024-10-15T05:55:15.000Z</time>
      </trkpt>
      <trkpt lat="45.11156" lon="6.00398">
        <ele>890.40002441406</ele>
        <time>2024-10-15T05:55:16.000Z</time>
      </trkpt>
      <trkpt lat="45.11155" lon="6.00398">
        <ele>890.59997558594</ele>
        <time>2024-10-15T05:55:17.000Z</time>
      </trkpt>
      <trkpt lat="45.11155" lon="6.00398">
        <ele>890.79998779297</ele>
        <time>2024-10-15T05:55:18.000Z</time>
      </trkpt>
      <trkpt lat="45.11155" lon="6.00397">
        <ele>891.20001220703</ele>
        <time>2024-10-15T05:55:19.000Z</time>
      </trkpt>
      <trkpt lat="45.11156" lon="6.00396">
        <ele>891.20001220703</ele>
        <time>2024-10-15T05:55:20.000Z</time>
      </trkpt>
      <trkpt lat="45.11155" lon="6.00396">
        <ele>891.59997558594</ele>
        <time>2024-10-15T05:55:21.000Z</time>
      </trkpt>
      <trkpt lat="45.11154" lon="6.00395">
        <ele>891.79998779297</ele>
        <time>2024-10-15T05:55:22.000Z</time>
      </trkpt>
      <trkpt lat="45.11153" lon="6.00395">
        <ele>891.79998779297</ele>
        <time>2024-10-15T05:55:23.000Z</time>
      </trkpt>
      <trkpt lat="45.11153" lon="6.00395">
        <ele>892.20001220703</ele>
        <time>2024-10-15T05:55:24.000Z</time>
      </trkpt>
      <trkpt lat="45.11153" lon="6.00395">
        <ele>892.20001220703</ele>
        <time>2024-10-15T05:55:25.000Z</time>
      </trkpt>
      <trkpt lat="45.11153" lon="6.00395">
        <ele>892.40002441406</ele>
        <time>2024-10-15T05:55:26.000Z</time>
      </trkpt>
      <trkpt lat="45.11153" lon="6.00395">
        <ele>892.59997558594</ele>
        <time>2024-10-15T05:55:27.000Z</time>
      </trkpt>
      <trkpt lat="45.11153" lon="6.00395">
        <ele>892.59997558594</ele>
        <time>2024-10-15T05:55:28.000Z</time>
      </trkpt>
      <trkpt lat="45.11152" lon="6.00395">
        <ele>892.59997558594</ele>
        <time>2024-10-15T05:55:29.000Z</time>
      </trkpt>
      <trkpt lat="45.11152" lon="6.00395">
        <ele>892.79998779297</ele>
        <time>2024-10-15T05:55:30.000Z</time>
      </trkpt>
      <trkpt lat="45.11152" lon="6.00395">
        <ele>893</ele>
        <time>2024-10-15T05:55:31.000Z</time>
      </trkpt>
      <trkpt lat="45.11151" lon="6.00395">
        <ele>893.20001220703</ele>
        <time>2024-10-15T05:55:32.000Z</time>
      </trkpt>
      <trkpt lat="45.11151" lon="6.00395">
        <ele>893.40002441406</ele>
        <time>2024-10-15T05:55:33.000Z</time>
      </trkpt>
      <trkpt lat="45.11151" lon="6.00395">
        <ele>893.40002441406</ele>
        <time>2024-10-15T05:55:34.000Z</time>
      </trkpt>
      <trkpt lat="45.11151" lon="6.00395">
        <ele>893.40002441406</ele>
        <time>2024-10-15T05:55:35.000Z</time>
      </trkpt>
      <trkpt lat="45.11151" lon="6.00394">
        <ele>893.79998779297</ele>
        <time>2024-10-15T05:55:36.000Z</time>
      </trkpt>
      <trkpt lat="45.1115" lon="6.00394">
        <ele>894</ele>
        <time>2024-10-15T05:55:37.000Z</time>
      </trkpt>
      <trkpt lat="45.1115" lon="6.00394">
        <ele>894.20001220703</ele>
        <time>2024-10-15T05:55:38.000Z</time>
      </trkpt>
      <trkpt lat="45.1115" lon="6.00393">
        <ele>894.20001220703</ele>
        <time>2024-10-15T05:55:39.000Z</time>
      </trkpt>
      <trkpt lat="45.1115" lon="6.00393">
        <ele>894.40002441406</ele>
        <time>2024-10-15T05:55:40.000Z</time>
      </trkpt>
      <trkpt lat="45.11149" lon="6.00393">
        <ele>894.59997558594</ele>
        <time>2024-10-15T05:55:41.000Z</time>
      </trkpt>
      <trkpt lat="45.11149" lon="6.00394">
        <ele>894.79998779297</ele>
        <time>2024-10-15T05:55:42.000Z</time>
      </trkpt>
      <trkpt lat="45.11149" lon="6.00394">
        <ele>894.79998779297</ele>
        <time>2024-10-15T05:55:43.000Z</time>
      </trkpt>
      <trkpt lat="45.11148" lon="6.00393">
        <ele>895</ele>
        <time>2024-10-15T05:55:44.000Z</time>
      </trkpt>
      <trkpt lat="45.11148" lon="6.00393">
        <ele>895.20001220703</ele>
        <time>2024-10-15T05:55:45.000Z</time>
      </trkpt>
      <trkpt lat="45.11148" lon="6.00393">
        <ele>895.40002441406</ele>
        <time>2024-10-15T05:55:46.000Z</time>
      </trkpt>
      <trkpt lat="45.11148" lon="6.00393">
        <ele>895.40002441406</ele>
        <time>2024-10-15T05:55:47.000Z</time>
      </trkpt>
      <trkpt lat="45.11147" lon="6.00394">
        <ele>895.59997558594</ele>
        <time>2024-10-15T05:55:48.000Z</time>
      </trkpt>
      <trkpt lat="45.11147" lon="6.00394">
        <ele>895.59997558594</ele>
        <time>2024-10-15T05:55:49.000Z</time>
      </trkpt>
      <trkpt lat="45.11147" lon="6.00394">
        <ele>895.79998779297</ele>
        <time>2024-10-15T05:55:50.000Z</time>
      </trkpt>
      <trkpt lat="45.11147" lon="6.00394">
        <ele>896</ele>
        <time>2024-10-15T05:55:51.000Z</time>
      </trkpt>
      <trkpt lat="45.11147" lon="6.00394">
        <ele>896.20001220703</ele>
        <time>2024-10-15T05:55:52.000Z</time>
      </trkpt>
      <trkpt lat="45.11147" lon="6.00394">
        <ele>896.20001220703</ele>
        <time>2024-10-15T05:55:53.000Z</time>
      </trkpt>
      <trkpt lat="45.11147" lon="6.00394">
        <ele>896.59997558594</ele>
        <time>2024-10-15T05:55:54.000Z</time>
      </trkpt>
      <trkpt lat="45.11147" lon="6.00393">
        <ele>896.59997558594</ele>
        <time>2024-10-15T05:55:55.000Z</time>
      </trkpt>
      <trkpt lat="45.11147" lon="6.00392">
        <ele>896.59997558594</ele>
        <time>2024-10-15T05:55:56.000Z</time>
      </trkpt>
      <trkpt lat="45.11147" lon="6.00391">
        <ele>896.79998779297</ele>
        <time>2024-10-15T05:55:57.000Z</time>
      </trkpt>
      <trkpt lat="45.11148" lon="6.0039">
        <ele>897</ele>
        <time>2024-10-15T05:55:58.000Z</time>
      </trkpt>
      <trkpt lat="45.11148" lon="6.0039">
        <ele>897.20001220703</ele>
        <time>2024-10-15T05:55:59.000Z</time>
      </trkpt>
      <trkpt lat="45.11148" lon="6.00388">
        <ele>897.40002441406</ele>
        <time>2024-10-15T05:56:00.000Z</time>
      </trkpt>
      <trkpt lat="45.11147" lon="6.00387">
        <ele>897.59997558594</ele>
        <time>2024-10-15T05:56:01.000Z</time>
      </trkpt>
      <trkpt lat="45.11147" lon="6.00387">
        <ele>897.59997558594</ele>
        <time>2024-10-15T05:56:02.000Z</time>
      </trkpt>
      <trkpt lat="45.11147" lon="6.00386">
        <ele>897.79998779297</ele>
        <time>2024-10-15T05:56:03.000Z</time>
      </trkpt>
      <trkpt lat="45.11147" lon="6.00386">
        <ele>898</ele>
        <time>2024-10-15T05:56:04.000Z</time>
      </trkpt>
      <trkpt lat="45.11147" lon="6.00386">
        <ele>898</ele>
        <time>2024-10-15T05:56:05.000Z</time>
      </trkpt>
      <trkpt lat="45.11147" lon="6.00386">
        <ele>898.40002441406</ele>
        <time>2024-10-15T05:56:06.000Z</time>
      </trkpt>
      <trkpt lat="45.11147" lon="6.00386">
        <ele>898.59997558594</ele>
        <time>2024-10-15T05:56:07.000Z</time>
      </trkpt>
      <trkpt lat="45.11146" lon="6.00385">
        <ele>898.79998779297</ele>
        <time>2024-10-15T05:56:08.000Z</time>
      </trkpt>
      <trkpt lat="45.11145" lon="6.00385">
        <ele>898.79998779297</ele>
        <time>2024-10-15T05:56:09.000Z</time>
      </trkpt>
      <trkpt lat="45.11145" lon="6.00384">
        <ele>898.79998779297</ele>
        <time>2024-10-15T05:56:10.000Z</time>
      </trkpt>
      <trkpt lat="45.11145" lon="6.00384">
        <ele>899</ele>
        <time>2024-10-15T05:56:11.000Z</time>
      </trkpt>
      <trkpt lat="45.11146" lon="6.00384">
        <ele>899.20001220703</ele>
        <time>2024-10-15T05:56:12.000Z</time>
      </trkpt>
      <trkpt lat="45.11146" lon="6.00384">
        <ele>899.40002441406</ele>
        <time>2024-10-15T05:56:13.000Z</time>
      </trkpt>
      <trkpt lat="45.11145" lon="6.00383">
        <ele>899.40002441406</ele>
        <time>2024-10-15T05:56:14.000Z</time>
      </trkpt>
      <trkpt lat="45.11145" lon="6.00383">
        <ele>899.59997558594</ele>
        <time>2024-10-15T05:56:15.000Z</time>
      </trkpt>
      <trkpt lat="45.11145" lon="6.00382">
        <ele>899.79998779297</ele>
        <time>2024-10-15T05:56:16.000Z</time>
      </trkpt>
      <trkpt lat="45.11145" lon="6.00381">
        <ele>900</ele>
        <time>2024-10-15T05:56:17.000Z</time>
      </trkpt>
      <trkpt lat="45.11145" lon="6.0038">
        <ele>900.20001220703</ele>
        <time>2024-10-15T05:56:18.000Z</time>
      </trkpt>
      <trkpt lat="45.11145" lon="6.00379">
        <ele>900.40002441406</ele>
        <time>2024-10-15T05:56:19.000Z</time>
      </trkpt>
      <trkpt lat="45.11145" lon="6.00378">
        <ele>900.59997558594</ele>
        <time>2024-10-15T05:56:20.000Z</time>
      </trkpt>
      <trkpt lat="45.11145" lon="6.00378">
        <ele>900.79998779297</ele>
        <time>2024-10-15T05:56:21.000Z</time>
      </trkpt>
      <trkpt lat="45.11145" lon="6.00378">
        <ele>901</ele>
        <time>2024-10-15T05:56:22.000Z</time>
      </trkpt>
      <trkpt lat="45.11146" lon="6.00377">
        <ele>901.20001220703</ele>
        <time>2024-10-15T05:56:23.000Z</time>
      </trkpt>
      <trkpt lat="45.11146" lon="6.00376">
        <ele>901.40002441406</ele>
        <time>2024-10-15T05:56:24.000Z</time>
      </trkpt>
      <trkpt lat="45.11146" lon="6.00376">
        <ele>901.40002441406</ele>
        <time>2024-10-15T05:56:25.000Z</time>
      </trkpt>
      <trkpt lat="45.11146" lon="6.00375">
        <ele>901.59997558594</ele>
        <time>2024-10-15T05:56:26.000Z</time>
      </trkpt>
      <trkpt lat="45.11147" lon="6.00375">
        <ele>901.59997558594</ele>
        <time>2024-10-15T05:56:27.000Z</time>
      </trkpt>
      <trkpt lat="45.11148" lon="6.00374">
        <ele>901.79998779297</ele>
        <time>2024-10-15T05:56:28.000Z</time>
      </trkpt>
      <trkpt lat="45.11148" lon="6.00373">
        <ele>902</ele>
        <time>2024-10-15T05:56:29.000Z</time>
      </trkpt>
      <trkpt lat="45.11149" lon="6.00373">
        <ele>902</ele>
        <time>2024-10-15T05:56:30.000Z</time>
      </trkpt>
      <trkpt lat="45.11149" lon="6.00372">
        <ele>902.40002441406</ele>
        <time>2024-10-15T05:56:31.000Z</time>
      </trkpt>
      <trkpt lat="45.1115" lon="6.00371">
        <ele>902.59997558594</ele>
        <time>2024-10-15T05:56:32.000Z</time>
      </trkpt>
      <trkpt lat="45.1115" lon="6.00371">
        <ele>902.59997558594</ele>
        <time>2024-10-15T05:56:33.000Z</time>
      </trkpt>
      <trkpt lat="45.11151" lon="6.00371">
        <ele>902.79998779297</ele>
        <time>2024-10-15T05:56:34.000Z</time>
      </trkpt>
      <trkpt lat="45.11152" lon="6.0037">
        <ele>902.79998779297</ele>
        <time>2024-10-15T05:56:35.000Z</time>
      </trkpt>
      <trkpt lat="45.11153" lon="6.0037">
        <ele>902.79998779297</ele>
        <time>2024-10-15T05:56:36.000Z</time>
      </trkpt>
      <trkpt lat="45.11153" lon="6.0037">
        <ele>903</ele>
        <time>2024-10-15T05:56:37.000Z</time>
      </trkpt>
      <trkpt lat="45.11153" lon="6.0037">
        <ele>903.20001220703</ele>
        <time>2024-10-15T05:56:38.000Z</time>
      </trkpt>
      <trkpt lat="45.11153" lon="6.0037">
        <ele>903.40002441406</ele>
        <time>2024-10-15T05:56:39.000Z</time>
      </trkpt>
      <trkpt lat="45.11154" lon="6.0037">
        <ele>903.59997558594</ele>
        <time>2024-10-15T05:56:40.000Z</time>
      </trkpt>
      <trkpt lat="45.11155" lon="6.0037">
        <ele>903.79998779297</ele>
        <time>2024-10-15T05:56:41.000Z</time>
      </trkpt>
      <trkpt lat="45.11155" lon="6.00369">
        <ele>903.79998779297</ele>
        <time>2024-10-15T05:56:42.000Z</time>
      </trkpt>
      <trkpt lat="45.11155" lon="6.00367">
        <ele>904</ele>
        <time>2024-10-15T05:56:43.000Z</time>
      </trkpt>
      <trkpt lat="45.11154" lon="6.00365">
        <ele>904</ele>
        <time>2024-10-15T05:56:44.000Z</time>
      </trkpt>
      <trkpt lat="45.11154" lon="6.00363">
        <ele>904</ele>
        <time>2024-10-15T05:56:45.000Z</time>
      </trkpt>
      <trkpt lat="45.11154" lon="6.00362">
        <ele>904</ele>
        <time>2024-10-15T05:56:46.000Z</time>
      </trkpt>
      <trkpt lat="45.11153" lon="6.00359">
        <ele>904</ele>
        <time>2024-10-15T05:56:47.000Z</time>
      </trkpt>
      <trkpt lat="45.11152" lon="6.00356">
        <ele>904</ele>
        <time>2024-10-15T05:56:48.000Z</time>
      </trkpt>
      <trkpt lat="45.11152" lon="6.00355">
        <ele>904</ele>
        <time>2024-10-15T05:56:49.000Z</time>
      </trkpt>
      <trkpt lat="45.11153" lon="6.00354">
        <ele>904</ele>
        <time>2024-10-15T05:56:50.000Z</time>
      </trkpt>
      <trkpt lat="45.11153" lon="6.00353">
        <ele>904</ele>
        <time>2024-10-15T05:56:51.000Z</time>
      </trkpt>
      <trkpt lat="45.11154" lon="6.00353">
        <ele>904</ele>
        <time>2024-10-15T05:56:52.000Z</time>
      </trkpt>
      <trkpt lat="45.11155" lon="6.00353">
        <ele>904.20001220703</ele>
        <time>2024-10-15T05:56:53.000Z</time>
      </trkpt>
      <trkpt lat="45.11157" lon="6.00354">
        <ele>904.40002441406</ele>
        <time>2024-10-15T05:56:54.000Z</time>
      </trkpt>
      <trkpt lat="45.11157" lon="6.00354">
        <ele>904.59997558594</ele>
        <time>2024-10-15T05:56:55.000Z</time>
      </trkpt>
      <trkpt lat="45.11158" lon="6.00355">
        <ele>904.79998779297</ele>
        <time>2024-10-15T05:56:56.000Z</time>
      </trkpt>
      <trkpt lat="45.11159" lon="6.00356">
        <ele>905</ele>
        <time>2024-10-15T05:56:57.000Z</time>
      </trkpt>
      <trkpt lat="45.11159" lon="6.00356">
        <ele>905.20001220703</ele>
        <time>2024-10-15T05:56:58.000Z</time>
      </trkpt>
      <trkpt lat="45.11159" lon="6.00355">
        <ele>905.40002441406</ele>
        <time>2024-10-15T05:56:59.000Z</time>
      </trkpt>
      <trkpt lat="45.11159" lon="6.00355">
        <ele>905.59997558594</ele>
        <time>2024-10-15T05:57:00.000Z</time>
      </trkpt>
      <trkpt lat="45.11159" lon="6.00355">
        <ele>905.59997558594</ele>
        <time>2024-10-15T05:57:01.000Z</time>
      </trkpt>
      <trkpt lat="45.1116" lon="6.00355">
        <ele>906</ele>
        <time>2024-10-15T05:57:02.000Z</time>
      </trkpt>
      <trkpt lat="45.1116" lon="6.00355">
        <ele>906.20001220703</ele>
        <time>2024-10-15T05:57:03.000Z</time>
      </trkpt>
      <trkpt lat="45.1116" lon="6.00354">
        <ele>906.40002441406</ele>
        <time>2024-10-15T05:57:04.000Z</time>
      </trkpt>
      <trkpt lat="45.11161" lon="6.00353">
        <ele>906.59997558594</ele>
        <time>2024-10-15T05:57:05.000Z</time>
      </trkpt>
      <trkpt lat="45.11162" lon="6.00353">
        <ele>906.59997558594</ele>
        <time>2024-10-15T05:57:06.000Z</time>
      </trkpt>
      <trkpt lat="45.11162" lon="6.00352">
        <ele>906.79998779297</ele>
        <time>2024-10-15T05:57:07.000Z</time>
      </trkpt>
      <trkpt lat="45.11163" lon="6.00351">
        <ele>906.79998779297</ele>
        <time>2024-10-15T05:57:08.000Z</time>
      </trkpt>
      <trkpt lat="45.11163" lon="6.00351">
        <ele>906.79998779297</ele>
        <time>2024-10-15T05:57:09.000Z</time>
      </trkpt>
      <trkpt lat="45.11163" lon="6.0035">
        <ele>906.79998779297</ele>
        <time>2024-10-15T05:57:10.000Z</time>
      </trkpt>
      <trkpt lat="45.11164" lon="6.0035">
        <ele>907</ele>
        <time>2024-10-15T05:57:11.000Z</time>
      </trkpt>
      <trkpt lat="45.11164" lon="6.0035">
        <ele>907</ele>
        <time>2024-10-15T05:57:12.000Z</time>
      </trkpt>
      <trkpt lat="45.11164" lon="6.0035">
        <ele>907.20001220703</ele>
        <time>2024-10-15T05:57:13.000Z</time>
      </trkpt>
      <trkpt lat="45.11164" lon="6.00349">
        <ele>907.40002441406</ele>
        <time>2024-10-15T05:57:14.000Z</time>
      </trkpt>
      <trkpt lat="45.11165" lon="6.00349">
        <ele>907.40002441406</ele>
        <time>2024-10-15T05:57:15.000Z</time>
      </trkpt>
      <trkpt lat="45.11165" lon="6.00347">
        <ele>907.59997558594</ele>
        <time>2024-10-15T05:57:16.000Z</time>
      </trkpt>
      <trkpt lat="45.11165" lon="6.00346">
        <ele>907.79998779297</ele>
        <time>2024-10-15T05:57:17.000Z</time>
      </trkpt>
      <trkpt lat="45.11164" lon="6.00345">
        <ele>907.79998779297</ele>
        <time>2024-10-15T05:57:18.000Z</time>
      </trkpt>
      <trkpt lat="45.11164" lon="6.00344">
        <ele>908</ele>
        <time>2024-10-15T05:57:19.000Z</time>
      </trkpt>
      <trkpt lat="45.11165" lon="6.00344">
        <ele>908.20001220703</ele>
        <time>2024-10-15T05:57:20.000Z</time>
      </trkpt>
      <trkpt lat="45.11165" lon="6.00344">
        <ele>908.40002441406</ele>
        <time>2024-10-15T05:57:21.000Z</time>
      </trkpt>
      <trkpt lat="45.11165" lon="6.00343">
        <ele>908.59997558594</ele>
        <time>2024-10-15T05:57:22.000Z</time>
      </trkpt>
      <trkpt lat="45.11165" lon="6.00342">
        <ele>908.79998779297</ele>
        <time>2024-10-15T05:57:23.000Z</time>
      </trkpt>
      <trkpt lat="45.11164" lon="6.00341">
        <ele>908.79998779297</ele>
        <time>2024-10-15T05:57:24.000Z</time>
      </trkpt>
      <trkpt lat="45.11164" lon="6.00341">
        <ele>909</ele>
        <time>2024-10-15T05:57:25.000Z</time>
      </trkpt>
      <trkpt lat="45.11163" lon="6.0034">
        <ele>909.40002441406</ele>
        <time>2024-10-15T05:57:26.000Z</time>
      </trkpt>
      <trkpt lat="45.11164" lon="6.0034">
        <ele>909.59997558594</ele>
        <time>2024-10-15T05:57:27.000Z</time>
      </trkpt>
      <trkpt lat="45.11165" lon="6.0034">
        <ele>909.79998779297</ele>
        <time>2024-10-15T05:57:28.000Z</time>
      </trkpt>
      <trkpt lat="45.11164" lon="6.0034">
        <ele>910</ele>
        <time>2024-10-15T05:57:29.000Z</time>
      </trkpt>
      <trkpt lat="45.11164" lon="6.00339">
        <ele>910.20001220703</ele>
        <time>2024-10-15T05:57:30.000Z</time>
      </trkpt>
      <trkpt lat="45.11164" lon="6.00338">
        <ele>910.40002441406</ele>
        <time>2024-10-15T05:57:31.000Z</time>
      </trkpt>
      <trkpt lat="45.11163" lon="6.00338">
        <ele>910.40002441406</ele>
        <time>2024-10-15T05:57:32.000Z</time>
      </trkpt>
      <trkpt lat="45.11163" lon="6.00339">
        <ele>910.59997558594</ele>
        <time>2024-10-15T05:57:33.000Z</time>
      </trkpt>
      <trkpt lat="45.11163" lon="6.00339">
        <ele>910.59997558594</ele>
        <time>2024-10-15T05:57:34.000Z</time>
      </trkpt>
      <trkpt lat="45.11162" lon="6.00339">
        <ele>910.79998779297</ele>
        <time>2024-10-15T05:57:35.000Z</time>
      </trkpt>
      <trkpt lat="45.11162" lon="6.0034">
        <ele>910.79998779297</ele>
        <time>2024-10-15T05:57:36.000Z</time>
      </trkpt>
      <trkpt lat="45.11162" lon="6.0034">
        <ele>911.20001220703</ele>
        <time>2024-10-15T05:57:37.000Z</time>
      </trkpt>
      <trkpt lat="45.11161" lon="6.00341">
        <ele>911.40002441406</ele>
        <time>2024-10-15T05:57:38.000Z</time>
      </trkpt>
      <trkpt lat="45.11161" lon="6.0034">
        <ele>911.59997558594</ele>
        <time>2024-10-15T05:57:39.000Z</time>
      </trkpt>
      <trkpt lat="45.11159" lon="6.00339">
        <ele>911.79998779297</ele>
        <time>2024-10-15T05:57:40.000Z</time>
      </trkpt>
      <trkpt lat="45.11159" lon="6.0034">
        <ele>912.20001220703</ele>
        <time>2024-10-15T05:57:41.000Z</time>
      </trkpt>
      <trkpt lat="45.11159" lon="6.0034">
        <ele>912.20001220703</ele>
        <time>2024-10-15T05:57:42.000Z</time>
      </trkpt>
      <trkpt lat="45.11159" lon="6.0034">
        <ele>912.59997558594</ele>
        <time>2024-10-15T05:57:43.000Z</time>
      </trkpt>
      <trkpt lat="45.11158" lon="6.0034">
        <ele>912.59997558594</ele>
        <time>2024-10-15T05:57:44.000Z</time>
      </trkpt>
      <trkpt lat="45.11158" lon="6.00339">
        <ele>912.79998779297</ele>
        <time>2024-10-15T05:57:45.000Z</time>
      </trkpt>
      <trkpt lat="45.11157" lon="6.00339">
        <ele>912.79998779297</ele>
        <time>2024-10-15T05:57:46.000Z</time>
      </trkpt>
      <trkpt lat="45.11157" lon="6.00338">
        <ele>913</ele>
        <time>2024-10-15T05:57:47.000Z</time>
      </trkpt>
      <trkpt lat="45.11155" lon="6.00337">
        <ele>913.20001220703</ele>
        <time>2024-10-15T05:57:48.000Z</time>
      </trkpt>
      <trkpt lat="45.11154" lon="6.00337">
        <ele>913.40002441406</ele>
        <time>2024-10-15T05:57:49.000Z</time>
      </trkpt>
      <trkpt lat="45.11154" lon="6.00337">
        <ele>913.59997558594</ele>
        <time>2024-10-15T05:57:50.000Z</time>
      </trkpt>
      <trkpt lat="45.11154" lon="6.00337">
        <ele>913.79998779297</ele>
        <time>2024-10-15T05:57:51.000Z</time>
      </trkpt>
      <trkpt lat="45.11154" lon="6.00337">
        <ele>913.79998779297</ele>
        <time>2024-10-15T05:57:52.000Z</time>
      </trkpt>
      <trkpt lat="45.11153" lon="6.00338">
        <ele>914</ele>
        <time>2024-10-15T05:57:53.000Z</time>
      </trkpt>
      <trkpt lat="45.11155" lon="6.0034">
        <ele>914.20001220703</ele>
        <time>2024-10-15T05:57:54.000Z</time>
      </trkpt>
      <trkpt lat="45.11155" lon="6.0034">
        <ele>914.40002441406</ele>
        <time>2024-10-15T05:57:55.000Z</time>
      </trkpt>
      <trkpt lat="45.11155" lon="6.00341">
        <ele>914.59997558594</ele>
        <time>2024-10-15T05:57:56.000Z</time>
      </trkpt>
      <trkpt lat="45.11155" lon="6.00342">
        <ele>914.59997558594</ele>
        <time>2024-10-15T05:57:57.000Z</time>
      </trkpt>
      <trkpt lat="45.11155" lon="6.00342">
        <ele>915</ele>
        <time>2024-10-15T05:57:58.000Z</time>
      </trkpt>
      <trkpt lat="45.11155" lon="6.00343">
        <ele>915.20001220703</ele>
        <time>2024-10-15T05:57:59.000Z</time>
      </trkpt>
      <trkpt lat="45.11155" lon="6.00344">
        <ele>915.40002441406</ele>
        <time>2024-10-15T05:58:00.000Z</time>
      </trkpt>
      <trkpt lat="45.11155" lon="6.00345">
        <ele>915.59997558594</ele>
        <time>2024-10-15T05:58:01.000Z</time>
      </trkpt>
      <trkpt lat="45.11155" lon="6.00346">
        <ele>915.59997558594</ele>
        <time>2024-10-15T05:58:02.000Z</time>
      </trkpt>
      <trkpt lat="45.11156" lon="6.00346">
        <ele>915.79998779297</ele>
        <time>2024-10-15T05:58:03.000Z</time>
      </trkpt>
      <trkpt lat="45.11156" lon="6.00346">
        <ele>916</ele>
        <time>2024-10-15T05:58:04.000Z</time>
      </trkpt>
      <trkpt lat="45.11156" lon="6.00345">
        <ele>916.20001220703</ele>
        <time>2024-10-15T05:58:05.000Z</time>
      </trkpt>
      <trkpt lat="45.11156" lon="6.00346">
        <ele>916.20001220703</ele>
        <time>2024-10-15T05:58:06.000Z</time>
      </trkpt>
      <trkpt lat="45.11156" lon="6.00346">
        <ele>916.59997558594</ele>
        <time>2024-10-15T05:58:07.000Z</time>
      </trkpt>
      <trkpt lat="45.11156" lon="6.00346">
        <ele>916.79998779297</ele>
        <time>2024-10-15T05:58:08.000Z</time>
      </trkpt>
      <trkpt lat="45.11156" lon="6.00346">
        <ele>917</ele>
        <time>2024-10-15T05:58:09.000Z</time>
      </trkpt>
      <trkpt lat="45.11156" lon="6.00347">
        <ele>917</ele>
        <time>2024-10-15T05:58:10.000Z</time>
      </trkpt>
      <trkpt lat="45.11156" lon="6.00348">
        <ele>917.20001220703</ele>
        <time>2024-10-15T05:58:11.000Z</time>
      </trkpt>
      <trkpt lat="45.11156" lon="6.00348">
        <ele>917.59997558594</ele>
        <time>2024-10-15T05:58:12.000Z</time>
      </trkpt>
      <trkpt lat="45.11156" lon="6.00349">
        <ele>917.79998779297</ele>
        <time>2024-10-15T05:58:13.000Z</time>
      </trkpt>
      <trkpt lat="45.11156" lon="6.00349">
        <ele>918</ele>
        <time>2024-10-15T05:58:14.000Z</time>
      </trkpt>
      <trkpt lat="45.11156" lon="6.00349">
        <ele>918.20001220703</ele>
        <time>2024-10-15T05:58:15.000Z</time>
      </trkpt>
      <trkpt lat="45.11156" lon="6.00349">
        <ele>918.20001220703</ele>
        <time>2024-10-15T05:58:16.000Z</time>
      </trkpt>
      <trkpt lat="45.11156" lon="6.00349">
        <ele>918.40002441406</ele>
        <time>2024-10-15T05:58:17.000Z</time>
      </trkpt>
      <trkpt lat="45.11155" lon="6.00349">
        <ele>918.59997558594</ele>
        <time>2024-10-15T05:58:18.000Z</time>
      </trkpt>
      <trkpt lat="45.11155" lon="6.0035">
        <ele>918.79998779297</ele>
        <time>2024-10-15T05:58:19.000Z</time>
      </trkpt>
      <trkpt lat="45.11155" lon="6.0035">
        <ele>918.79998779297</ele>
        <time>2024-10-15T05:58:20.000Z</time>
      </trkpt>
      <trkpt lat="45.11155" lon="6.0035">
        <ele>919</ele>
        <time>2024-10-15T05:58:21.000Z</time>
      </trkpt>
      <trkpt lat="45.11154" lon="6.0035">
        <ele>919.20001220703</ele>
        <time>2024-10-15T05:58:22.000Z</time>
      </trkpt>
      <trkpt lat="45.11154" lon="6.0035">
        <ele>919.40002441406</ele>
        <time>2024-10-15T05:58:23.000Z</time>
      </trkpt>
      <trkpt lat="45.11153" lon="6.0035">
        <ele>919.59997558594</ele>
        <time>2024-10-15T05:58:24.000Z</time>
      </trkpt>
      <trkpt lat="45.11153" lon="6.00352">
        <ele>920</ele>
        <time>2024-10-15T05:58:25.000Z</time>
      </trkpt>
      <trkpt lat="45.11152" lon="6.00352">
        <ele>920.20001220703</ele>
        <time>2024-10-15T05:58:26.000Z</time>
      </trkpt>
      <trkpt lat="45.11152" lon="6.00352">
        <ele>920.20001220703</ele>
        <time>2024-10-15T05:58:27.000Z</time>
      </trkpt>
      <trkpt lat="45.11151" lon="6.00352">
        <ele>920.20001220703</ele>
        <time>2024-10-15T05:58:28.000Z</time>
      </trkpt>
      <trkpt lat="45.1115" lon="6.00352">
        <ele>920.20001220703</ele>
        <time>2024-10-15T05:58:29.000Z</time>
      </trkpt>
      <trkpt lat="45.11151" lon="6.00352">
        <ele>920.20001220703</ele>
        <time>2024-10-15T05:58:30.000Z</time>
      </trkpt>
      <trkpt lat="45.1115" lon="6.00352">
        <ele>920.40002441406</ele>
        <time>2024-10-15T05:58:31.000Z</time>
      </trkpt>
      <trkpt lat="45.1115" lon="6.00352">
        <ele>920.59997558594</ele>
        <time>2024-10-15T05:58:32.000Z</time>
      </trkpt>
      <trkpt lat="45.1115" lon="6.00352">
        <ele>920.79998779297</ele>
        <time>2024-10-15T05:58:33.000Z</time>
      </trkpt>
      <trkpt lat="45.1115" lon="6.00352">
        <ele>921</ele>
        <time>2024-10-15T05:58:34.000Z</time>
      </trkpt>
      <trkpt lat="45.11149" lon="6.00353">
        <ele>921.20001220703</ele>
        <time>2024-10-15T05:58:35.000Z</time>
      </trkpt>
      <trkpt lat="45.11149" lon="6.00353">
        <ele>921.40002441406</ele>
        <time>2024-10-15T05:58:36.000Z</time>
      </trkpt>
      <trkpt lat="45.11149" lon="6.00354">
        <ele>921.59997558594</ele>
        <time>2024-10-15T05:58:37.000Z</time>
      </trkpt>
      <trkpt lat="45.11149" lon="6.00354">
        <ele>921.59997558594</ele>
        <time>2024-10-15T05:58:38.000Z</time>
      </trkpt>
      <trkpt lat="45.11149" lon="6.00354">
        <ele>922</ele>
        <time>2024-10-15T05:58:39.000Z</time>
      </trkpt>
      <trkpt lat="45.11149" lon="6.00354">
        <ele>922.20001220703</ele>
        <time>2024-10-15T05:58:40.000Z</time>
      </trkpt>
      <trkpt lat="45.11148" lon="6.00354">
        <ele>922.20001220703</ele>
        <time>2024-10-15T05:58:41.000Z</time>
      </trkpt>
      <trkpt lat="45.11148" lon="6.00354">
        <ele>922.59997558594</ele>
        <time>2024-10-15T05:58:42.000Z</time>
      </trkpt>
      <trkpt lat="45.11148" lon="6.00354">
        <ele>922.79998779297</ele>
        <time>2024-10-15T05:58:43.000Z</time>
      </trkpt>
      <trkpt lat="45.11148" lon="6.00355">
        <ele>922.79998779297</ele>
        <time>2024-10-15T05:58:44.000Z</time>
      </trkpt>
      <trkpt lat="45.11147" lon="6.00355">
        <ele>923.20001220703</ele>
        <time>2024-10-15T05:58:45.000Z</time>
      </trkpt>
      <trkpt lat="45.11147" lon="6.00355">
        <ele>923.20001220703</ele>
        <time>2024-10-15T05:58:46.000Z</time>
      </trkpt>
      <trkpt lat="45.11146" lon="6.00355">
        <ele>923.20001220703</ele>
        <time>2024-10-15T05:58:47.000Z</time>
      </trkpt>
      <trkpt lat="45.11146" lon="6.00355">
        <ele>923.40002441406</ele>
        <time>2024-10-15T05:58:48.000Z</time>
      </trkpt>
      <trkpt lat="45.11146" lon="6.00355">
        <ele>923.40002441406</ele>
        <time>2024-10-15T05:58:49.000Z</time>
      </trkpt>
      <trkpt lat="45.11146" lon="6.00355">
        <ele>923.59997558594</ele>
        <time>2024-10-15T05:58:50.000Z</time>
      </trkpt>
      <trkpt lat="45.11146" lon="6.00355">
        <ele>923.59997558594</ele>
        <time>2024-10-15T05:58:51.000Z</time>
      </trkpt>
      <trkpt lat="45.11145" lon="6.00355">
        <ele>923.79998779297</ele>
        <time>2024-10-15T05:58:52.000Z</time>
      </trkpt>
      <trkpt lat="45.11145" lon="6.00355">
        <ele>924</ele>
        <time>2024-10-15T05:58:53.000Z</time>
      </trkpt>
      <trkpt lat="45.11144" lon="6.00355">
        <ele>924.20001220703</ele>
        <time>2024-10-15T05:58:54.000Z</time>
      </trkpt>
      <trkpt lat="45.11144" lon="6.00355">
        <ele>924.40002441406</ele>
        <time>2024-10-15T05:58:55.000Z</time>
      </trkpt>
      <trkpt lat="45.11144" lon="6.00355">
        <ele>924.40002441406</ele>
        <time>2024-10-15T05:58:56.000Z</time>
      </trkpt>
      <trkpt lat="45.11145" lon="6.00355">
        <ele>924.59997558594</ele>
        <time>2024-10-15T05:58:57.000Z</time>
      </trkpt>
      <trkpt lat="45.11145" lon="6.00355">
        <ele>924.59997558594</ele>
        <time>2024-10-15T05:58:58.000Z</time>
      </trkpt>
      <trkpt lat="45.11145" lon="6.00354">
        <ele>924.59997558594</ele>
        <time>2024-10-15T05:58:59.000Z</time>
      </trkpt>
      <trkpt lat="45.11145" lon="6.00354">
        <ele>924.79998779297</ele>
        <time>2024-10-15T05:59:00.000Z</time>
      </trkpt>
      <trkpt lat="45.11145" lon="6.00354">
        <ele>925</ele>
        <time>2024-10-15T05:59:01.000Z</time>
      </trkpt>
      <trkpt lat="45.11145" lon="6.00353">
        <ele>925.20001220703</ele>
        <time>2024-10-15T05:59:02.000Z</time>
      </trkpt>
      <trkpt lat="45.11144" lon="6.00352">
        <ele>925.40002441406</ele>
        <time>2024-10-15T05:59:03.000Z</time>
      </trkpt>
      <trkpt lat="45.11144" lon="6.00352">
        <ele>925.59997558594</ele>
        <time>2024-10-15T05:59:04.000Z</time>
      </trkpt>
      <trkpt lat="45.11144" lon="6.00352">
        <ele>925.79998779297</ele>
        <time>2024-10-15T05:59:05.000Z</time>
      </trkpt>
      <trkpt lat="45.11144" lon="6.00353">
        <ele>926</ele>
        <time>2024-10-15T05:59:06.000Z</time>
      </trkpt>
      <trkpt lat="45.11144" lon="6.00353">
        <ele>926.20001220703</ele>
        <time>2024-10-15T05:59:07.000Z</time>
      </trkpt>
      <trkpt lat="45.11144" lon="6.00353">
        <ele>926.20001220703</ele>
        <time>2024-10-15T05:59:08.000Z</time>
      </trkpt>
      <trkpt lat="45.11144" lon="6.00353">
        <ele>926.59997558594</ele>
        <time>2024-10-15T05:59:09.000Z</time>
      </trkpt>
      <trkpt lat="45.11143" lon="6.00354">
        <ele>927</ele>
        <time>2024-10-15T05:59:10.000Z</time>
      </trkpt>
      <trkpt lat="45.11142" lon="6.00354">
        <ele>927.20001220703</ele>
        <time>2024-10-15T05:59:11.000Z</time>
      </trkpt>
      <trkpt lat="45.11142" lon="6.00355">
        <ele>927.40002441406</ele>
        <time>2024-10-15T05:59:12.000Z</time>
      </trkpt>
      <trkpt lat="45.11141" lon="6.00355">
        <ele>927.40002441406</ele>
        <time>2024-10-15T05:59:13.000Z</time>
      </trkpt>
      <trkpt lat="45.11141" lon="6.00354">
        <ele>927.59997558594</ele>
        <time>2024-10-15T05:59:14.000Z</time>
      </trkpt>
      <trkpt lat="45.1114" lon="6.00354">
        <ele>927.79998779297</ele>
        <time>2024-10-15T05:59:15.000Z</time>
      </trkpt>
      <trkpt lat="45.11139" lon="6.00354">
        <ele>928</ele>
        <time>2024-10-15T05:59:16.000Z</time>
      </trkpt>
      <trkpt lat="45.1114" lon="6.00355">
        <ele>928</ele>
        <time>2024-10-15T05:59:17.000Z</time>
      </trkpt>
      <trkpt lat="45.1114" lon="6.00354">
        <ele>928.20001220703</ele>
        <time>2024-10-15T05:59:18.000Z</time>
      </trkpt>
      <trkpt lat="45.1114" lon="6.00354">
        <ele>928.20001220703</ele>
        <time>2024-10-15T05:59:19.000Z</time>
      </trkpt>
      <trkpt lat="45.11139" lon="6.00353">
        <ele>928.40002441406</ele>
        <time>2024-10-15T05:59:20.000Z</time>
      </trkpt>
      <trkpt lat="45.11138" lon="6.00352">
        <ele>928.40002441406</ele>
        <time>2024-10-15T05:59:21.000Z</time>
      </trkpt>
      <trkpt lat="45.11138" lon="6.0035">
        <ele>928.40002441406</ele>
        <time>2024-10-15T05:59:22.000Z</time>
      </trkpt>
      <trkpt lat="45.11138" lon="6.00349">
        <ele>928.40002441406</ele>
        <time>2024-10-15T05:59:23.000Z</time>
      </trkpt>
      <trkpt lat="45.11137" lon="6.00348">
        <ele>928.40002441406</ele>
        <time>2024-10-15T05:59:24.000Z</time>
      </trkpt>
      <trkpt lat="45.11136" lon="6.00346">
        <ele>928.40002441406</ele>
        <time>2024-10-15T05:59:25.000Z</time>
      </trkpt>
      <trkpt lat="45.11136" lon="6.00345">
        <ele>928.59997558594</ele>
        <time>2024-10-15T05:59:26.000Z</time>
      </trkpt>
      <trkpt lat="45.11135" lon="6.00344">
        <ele>928.79998779297</ele>
        <time>2024-10-15T05:59:27.000Z</time>
      </trkpt>
      <trkpt lat="45.11135" lon="6.00343">
        <ele>928.79998779297</ele>
        <time>2024-10-15T05:59:28.000Z</time>
      </trkpt>
      <trkpt lat="45.11135" lon="6.00341">
        <ele>929</ele>
        <time>2024-10-15T05:59:29.000Z</time>
      </trkpt>
      <trkpt lat="45.11135" lon="6.00339">
        <ele>929</ele>
        <time>2024-10-15T05:59:30.000Z</time>
      </trkpt>
      <trkpt lat="45.11134" lon="6.00337">
        <ele>929</ele>
        <time>2024-10-15T05:59:31.000Z</time>
      </trkpt>
      <trkpt lat="45.11134" lon="6.00335">
        <ele>929</ele>
        <time>2024-10-15T05:59:32.000Z</time>
      </trkpt>
      <trkpt lat="45.11134" lon="6.00334">
        <ele>929</ele>
        <time>2024-10-15T05:59:33.000Z</time>
      </trkpt>
      <trkpt lat="45.11135" lon="6.00334">
        <ele>929.20001220703</ele>
        <time>2024-10-15T05:59:34.000Z</time>
      </trkpt>
      <trkpt lat="45.11136" lon="6.00334">
        <ele>929.40002441406</ele>
        <time>2024-10-15T05:59:35.000Z</time>
      </trkpt>
      <trkpt lat="45.11137" lon="6.00333">
        <ele>929.59997558594</ele>
        <time>2024-10-15T05:59:36.000Z</time>
      </trkpt>
      <trkpt lat="45.11138" lon="6.00333">
        <ele>929.79998779297</ele>
        <time>2024-10-15T05:59:37.000Z</time>
      </trkpt>
      <trkpt lat="45.11138" lon="6.00333">
        <ele>930</ele>
        <time>2024-10-15T05:59:38.000Z</time>
      </trkpt>
      <trkpt lat="45.11137" lon="6.00331">
        <ele>930</ele>
        <time>2024-10-15T05:59:39.000Z</time>
      </trkpt>
      <trkpt lat="45.11138" lon="6.00331">
        <ele>930.40002441406</ele>
        <time>2024-10-15T05:59:40.000Z</time>
      </trkpt>
      <trkpt lat="45.11137" lon="6.00329">
        <ele>930.40002441406</ele>
        <time>2024-10-15T05:59:41.000Z</time>
      </trkpt>
      <trkpt lat="45.11138" lon="6.00328">
        <ele>930.59997558594</ele>
        <time>2024-10-15T05:59:42.000Z</time>
      </trkpt>
      <trkpt lat="45.11136" lon="6.00325">
        <ele>930.79998779297</ele>
        <time>2024-10-15T05:59:43.000Z</time>
      </trkpt>
      <trkpt lat="45.11136" lon="6.00324">
        <ele>930.79998779297</ele>
        <time>2024-10-15T05:59:44.000Z</time>
      </trkpt>
      <trkpt lat="45.11136" lon="6.00323">
        <ele>931</ele>
        <time>2024-10-15T05:59:45.000Z</time>
      </trkpt>
      <trkpt lat="45.11137" lon="6.00323">
        <ele>931.20001220703</ele>
        <time>2024-10-15T05:59:46.000Z</time>
      </trkpt>
      <trkpt lat="45.11137" lon="6.00323">
        <ele>931.40002441406</ele>
        <time>2024-10-15T05:59:47.000Z</time>
      </trkpt>
      <trkpt lat="45.11138" lon="6.00322">
        <ele>931.59997558594</ele>
        <time>2024-10-15T05:59:48.000Z</time>
      </trkpt>
      <trkpt lat="45.11139" lon="6.0032">
        <ele>931.79998779297</ele>
        <time>2024-10-15T05:59:49.000Z</time>
      </trkpt>
      <trkpt lat="45.11139" lon="6.00319">
        <ele>932</ele>
        <time>2024-10-15T05:59:50.000Z</time>
      </trkpt>
      <trkpt lat="45.11139" lon="6.00318">
        <ele>932</ele>
        <time>2024-10-15T05:59:51.000Z</time>
      </trkpt>
      <trkpt lat="45.11138" lon="6.00317">
        <ele>932.20001220703</ele>
        <time>2024-10-15T05:59:52.000Z</time>
      </trkpt>
      <trkpt lat="45.11138" lon="6.00317">
        <ele>932.40002441406</ele>
        <time>2024-10-15T05:59:53.000Z</time>
      </trkpt>
      <trkpt lat="45.11138" lon="6.00316">
        <ele>932.79998779297</ele>
        <time>2024-10-15T05:59:54.000Z</time>
      </trkpt>
      <trkpt lat="45.11137" lon="6.00314">
        <ele>932.79998779297</ele>
        <time>2024-10-15T05:59:55.000Z</time>
      </trkpt>
      <trkpt lat="45.11137" lon="6.00311">
        <ele>933</ele>
        <time>2024-10-15T05:59:56.000Z</time>
      </trkpt>
      <trkpt lat="45.11137" lon="6.00311">
        <ele>933.20001220703</ele>
        <time>2024-10-15T05:59:57.000Z</time>
      </trkpt>
      <trkpt lat="45.11139" lon="6.00311">
        <ele>933.40002441406</ele>
        <time>2024-10-15T05:59:58.000Z</time>
      </trkpt>
      <trkpt lat="45.11141" lon="6.00311">
        <ele>933.59997558594</ele>
        <time>2024-10-15T05:59:59.000Z</time>
      </trkpt>
      <trkpt lat="45.11141" lon="6.00311">
        <ele>933.79998779297</ele>
        <time>2024-10-15T06:00:00.000Z</time>
      </trkpt>
      <trkpt lat="45.11143" lon="6.00312">
        <ele>934</ele>
        <time>2024-10-15T06:00:01.000Z</time>
      </trkpt>
      <trkpt lat="45.11143" lon="6.00312">
        <ele>934</ele>
        <time>2024-10-15T06:00:02.000Z</time>
      </trkpt>
      <trkpt lat="45.11145" lon="6.00312">
        <ele>934.20001220703</ele>
        <time>2024-10-15T06:00:03.000Z</time>
      </trkpt>
      <trkpt lat="45.11146" lon="6.00312">
        <ele>934.20001220703</ele>
        <time>2024-10-15T06:00:04.000Z</time>
      </trkpt>
      <trkpt lat="45.11146" lon="6.00312">
        <ele>934.40002441406</ele>
        <time>2024-10-15T06:00:05.000Z</time>
      </trkpt>
      <trkpt lat="45.11147" lon="6.00311">
        <ele>934.59997558594</ele>
        <time>2024-10-15T06:00:06.000Z</time>
      </trkpt>
      <trkpt lat="45.11148" lon="6.00311">
        <ele>935</ele>
        <time>2024-10-15T06:00:07.000Z</time>
      </trkpt>
      <trkpt lat="45.11149" lon="6.0031">
        <ele>935</ele>
        <time>2024-10-15T06:00:08.000Z</time>
      </trkpt>
      <trkpt lat="45.11149" lon="6.00309">
        <ele>935</ele>
        <time>2024-10-15T06:00:09.000Z</time>
      </trkpt>
      <trkpt lat="45.11149" lon="6.00309">
        <ele>935.20001220703</ele>
        <time>2024-10-15T06:00:10.000Z</time>
      </trkpt>
      <trkpt lat="45.11149" lon="6.00308">
        <ele>935.20001220703</ele>
        <time>2024-10-15T06:00:11.000Z</time>
      </trkpt>
      <trkpt lat="45.1115" lon="6.00308">
        <ele>935.20001220703</ele>
        <time>2024-10-15T06:00:12.000Z</time>
      </trkpt>
      <trkpt lat="45.1115" lon="6.00308">
        <ele>935.40002441406</ele>
        <time>2024-10-15T06:00:13.000Z</time>
      </trkpt>
      <trkpt lat="45.1115" lon="6.00308">
        <ele>935.59997558594</ele>
        <time>2024-10-15T06:00:14.000Z</time>
      </trkpt>
      <trkpt lat="45.11149" lon="6.00307">
        <ele>935.59997558594</ele>
        <time>2024-10-15T06:00:15.000Z</time>
      </trkpt>
      <trkpt lat="45.11148" lon="6.00307">
        <ele>935.79998779297</ele>
        <time>2024-10-15T06:00:16.000Z</time>
      </trkpt>
      <trkpt lat="45.11148" lon="6.00306">
        <ele>936</ele>
        <time>2024-10-15T06:00:17.000Z</time>
      </trkpt>
      <trkpt lat="45.11148" lon="6.00305">
        <ele>936</ele>
        <time>2024-10-15T06:00:18.000Z</time>
      </trkpt>
      <trkpt lat="45.11147" lon="6.00303">
        <ele>936.20001220703</ele>
        <time>2024-10-15T06:00:19.000Z</time>
      </trkpt>
      <trkpt lat="45.11147" lon="6.00302">
        <ele>936.40002441406</ele>
        <time>2024-10-15T06:00:20.000Z</time>
      </trkpt>
      <trkpt lat="45.11147" lon="6.00301">
        <ele>936.59997558594</ele>
        <time>2024-10-15T06:00:21.000Z</time>
      </trkpt>
      <trkpt lat="45.11147" lon="6.003">
        <ele>936.79998779297</ele>
        <time>2024-10-15T06:00:22.000Z</time>
      </trkpt>
      <trkpt lat="45.11151" lon="6.00302">
        <ele>936.79998779297</ele>
        <time>2024-10-15T06:00:23.000Z</time>
      </trkpt>
      <trkpt lat="45.1115" lon="6.00299">
        <ele>936.79998779297</ele>
        <time>2024-10-15T06:00:24.000Z</time>
      </trkpt>
      <trkpt lat="45.11148" lon="6.00295">
        <ele>936.79998779297</ele>
        <time>2024-10-15T06:00:25.000Z</time>
      </trkpt>
      <trkpt lat="45.11147" lon="6.00293">
        <ele>936.79998779297</ele>
        <time>2024-10-15T06:00:26.000Z</time>
      </trkpt>
      <trkpt lat="45.11146" lon="6.00291">
        <ele>936.79998779297</ele>
        <time>2024-10-15T06:00:27.000Z</time>
      </trkpt>
      <trkpt lat="45.11147" lon="6.0029">
        <ele>936.79998779297</ele>
        <time>2024-10-15T06:00:28.000Z</time>
      </trkpt>
      <trkpt lat="45.11148" lon="6.0029">
        <ele>936.79998779297</ele>
        <time>2024-10-15T06:00:29.000Z</time>
      </trkpt>
      <trkpt lat="45.11148" lon="6.00289">
        <ele>936.79998779297</ele>
        <time>2024-10-15T06:00:30.000Z</time>
      </trkpt>
      <trkpt lat="45.11148" lon="6.00288">
        <ele>936.79998779297</ele>
        <time>2024-10-15T06:00:31.000Z</time>
      </trkpt>
      <trkpt lat="45.11148" lon="6.00287">
        <ele>936.79998779297</ele>
        <time>2024-10-15T06:00:32.000Z</time>
      </trkpt>
      <trkpt lat="45.11148" lon="6.00285">
        <ele>937</ele>
        <time>2024-10-15T06:00:33.000Z</time>
      </trkpt>
      <trkpt lat="45.11148" lon="6.00285">
        <ele>937</ele>
        <time>2024-10-15T06:00:34.000Z</time>
      </trkpt>
      <trkpt lat="45.11149" lon="6.00284">
        <ele>937</ele>
        <time>2024-10-15T06:00:35.000Z</time>
      </trkpt>
      <trkpt lat="45.11149" lon="6.00284">
        <ele>937</ele>
        <time>2024-10-15T06:00:36.000Z</time>
      </trkpt>
      <trkpt lat="45.11149" lon="6.00283">
        <ele>937.20001220703</ele>
        <time>2024-10-15T06:00:37.000Z</time>
      </trkpt>
      <trkpt lat="45.11148" lon="6.00282">
        <ele>937.40002441406</ele>
        <time>2024-10-15T06:00:38.000Z</time>
      </trkpt>
      <trkpt lat="45.11148" lon="6.00281">
        <ele>937.59997558594</ele>
        <time>2024-10-15T06:00:39.000Z</time>
      </trkpt>
      <trkpt lat="45.11147" lon="6.00281">
        <ele>937.59997558594</ele>
        <time>2024-10-15T06:00:40.000Z</time>
      </trkpt>
      <trkpt lat="45.11147" lon="6.00281">
        <ele>937.79998779297</ele>
        <time>2024-10-15T06:00:41.000Z</time>
      </trkpt>
      <trkpt lat="45.11147" lon="6.00281">
        <ele>938</ele>
        <time>2024-10-15T06:00:42.000Z</time>
      </trkpt>
      <trkpt lat="45.11147" lon="6.00281">
        <ele>938.20001220703</ele>
        <time>2024-10-15T06:00:43.000Z</time>
      </trkpt>
      <trkpt lat="45.11147" lon="6.00281">
        <ele>938.40002441406</ele>
        <time>2024-10-15T06:00:44.000Z</time>
      </trkpt>
      <trkpt lat="45.11147" lon="6.00282">
        <ele>938.59997558594</ele>
        <time>2024-10-15T06:00:45.000Z</time>
      </trkpt>
      <trkpt lat="45.11149" lon="6.00282">
        <ele>938.79998779297</ele>
        <time>2024-10-15T06:00:46.000Z</time>
      </trkpt>
      <trkpt lat="45.1115" lon="6.00282">
        <ele>939</ele>
        <time>2024-10-15T06:00:47.000Z</time>
      </trkpt>
      <trkpt lat="45.1115" lon="6.00282">
        <ele>939</ele>
        <time>2024-10-15T06:00:48.000Z</time>
      </trkpt>
      <trkpt lat="45.1115" lon="6.00281">
        <ele>939.20001220703</ele>
        <time>2024-10-15T06:00:49.000Z</time>
      </trkpt>
      <trkpt lat="45.1115" lon="6.00281">
        <ele>939.20001220703</ele>
        <time>2024-10-15T06:00:50.000Z</time>
      </trkpt>
      <trkpt lat="45.1115" lon="6.00279">
        <ele>939.20001220703</ele>
        <time>2024-10-15T06:00:51.000Z</time>
      </trkpt>
      <trkpt lat="45.1115" lon="6.00279">
        <ele>939.20001220703</ele>
        <time>2024-10-15T06:00:52.000Z</time>
      </trkpt>
      <trkpt lat="45.1115" lon="6.00279">
        <ele>939.40002441406</ele>
        <time>2024-10-15T06:00:53.000Z</time>
      </trkpt>
      <trkpt lat="45.11151" lon="6.00279">
        <ele>939.59997558594</ele>
        <time>2024-10-15T06:00:54.000Z</time>
      </trkpt>
      <trkpt lat="45.11151" lon="6.00278">
        <ele>939.79998779297</ele>
        <time>2024-10-15T06:00:55.000Z</time>
      </trkpt>
      <trkpt lat="45.11151" lon="6.00278">
        <ele>940</ele>
        <time>2024-10-15T06:00:56.000Z</time>
      </trkpt>
      <trkpt lat="45.11151" lon="6.00278">
        <ele>940.20001220703</ele>
        <time>2024-10-15T06:00:57.000Z</time>
      </trkpt>
      <trkpt lat="45.11151" lon="6.00277">
        <ele>940.20001220703</ele>
        <time>2024-10-15T06:00:58.000Z</time>
      </trkpt>
      <trkpt lat="45.11151" lon="6.00277">
        <ele>940.40002441406</ele>
        <time>2024-10-15T06:00:59.000Z</time>
      </trkpt>
      <trkpt lat="45.11151" lon="6.00276">
        <ele>940.40002441406</ele>
        <time>2024-10-15T06:01:00.000Z</time>
      </trkpt>
      <trkpt lat="45.11151" lon="6.00276">
        <ele>940.59997558594</ele>
        <time>2024-10-15T06:01:01.000Z</time>
      </trkpt>
      <trkpt lat="45.11151" lon="6.00275">
        <ele>940.79998779297</ele>
        <time>2024-10-15T06:01:02.000Z</time>
      </trkpt>
      <trkpt lat="45.1115" lon="6.00274">
        <ele>940.79998779297</ele>
        <time>2024-10-15T06:01:03.000Z</time>
      </trkpt>
      <trkpt lat="45.11149" lon="6.00273">
        <ele>941</ele>
        <time>2024-10-15T06:01:04.000Z</time>
      </trkpt>
      <trkpt lat="45.1115" lon="6.00273">
        <ele>941.20001220703</ele>
        <time>2024-10-15T06:01:05.000Z</time>
      </trkpt>
      <trkpt lat="45.1115" lon="6.00271">
        <ele>941.59997558594</ele>
        <time>2024-10-15T06:01:06.000Z</time>
      </trkpt>
      <trkpt lat="45.11151" lon="6.00271">
        <ele>942</ele>
        <time>2024-10-15T06:01:07.000Z</time>
      </trkpt>
      <trkpt lat="45.11149" lon="6.00269">
        <ele>942</ele>
        <time>2024-10-15T06:01:08.000Z</time>
      </trkpt>
      <trkpt lat="45.1115" lon="6.00269">
        <ele>942</ele>
        <time>2024-10-15T06:01:09.000Z</time>
      </trkpt>
      <trkpt lat="45.11149" lon="6.00267">
        <ele>942.20001220703</ele>
        <time>2024-10-15T06:01:10.000Z</time>
      </trkpt>
      <trkpt lat="45.1115" lon="6.00267">
        <ele>942.40002441406</ele>
        <time>2024-10-15T06:01:11.000Z</time>
      </trkpt>
      <trkpt lat="45.1115" lon="6.00268">
        <ele>942.40002441406</ele>
        <time>2024-10-15T06:01:12.000Z</time>
      </trkpt>
      <trkpt lat="45.1115" lon="6.00268">
        <ele>942.59997558594</ele>
        <time>2024-10-15T06:01:13.000Z</time>
      </trkpt>
      <trkpt lat="45.1115" lon="6.00267">
        <ele>942.59997558594</ele>
        <time>2024-10-15T06:01:14.000Z</time>
      </trkpt>
      <trkpt lat="45.11149" lon="6.00266">
        <ele>942.79998779297</ele>
        <time>2024-10-15T06:01:15.000Z</time>
      </trkpt>
      <trkpt lat="45.11149" lon="6.00266">
        <ele>942.79998779297</ele>
        <time>2024-10-15T06:01:16.000Z</time>
      </trkpt>
      <trkpt lat="45.11149" lon="6.00266">
        <ele>943</ele>
        <time>2024-10-15T06:01:17.000Z</time>
      </trkpt>
      <trkpt lat="45.11149" lon="6.00266">
        <ele>943.40002441406</ele>
        <time>2024-10-15T06:01:18.000Z</time>
      </trkpt>
      <trkpt lat="45.11149" lon="6.00265">
        <ele>943.59997558594</ele>
        <time>2024-10-15T06:01:19.000Z</time>
      </trkpt>
      <trkpt lat="45.1115" lon="6.00264">
        <ele>943.79998779297</ele>
        <time>2024-10-15T06:01:20.000Z</time>
      </trkpt>
      <trkpt lat="45.1115" lon="6.00264">
        <ele>944</ele>
        <time>2024-10-15T06:01:21.000Z</time>
      </trkpt>
      <trkpt lat="45.11151" lon="6.00264">
        <ele>944</ele>
        <time>2024-10-15T06:01:22.000Z</time>
      </trkpt>
      <trkpt lat="45.11151" lon="6.00264">
        <ele>944.40002441406</ele>
        <time>2024-10-15T06:01:23.000Z</time>
      </trkpt>
      <trkpt lat="45.11151" lon="6.00264">
        <ele>944.59997558594</ele>
        <time>2024-10-15T06:01:24.000Z</time>
      </trkpt>
      <trkpt lat="45.11152" lon="6.00265">
        <ele>944.79998779297</ele>
        <time>2024-10-15T06:01:25.000Z</time>
      </trkpt>
      <trkpt lat="45.11153" lon="6.00265">
        <ele>945</ele>
        <time>2024-10-15T06:01:26.000Z</time>
      </trkpt>
      <trkpt lat="45.11153" lon="6.00264">
        <ele>945.20001220703</ele>
        <time>2024-10-15T06:01:27.000Z</time>
      </trkpt>
      <trkpt lat="45.11153" lon="6.00264">
        <ele>945.20001220703</ele>
        <time>2024-10-15T06:01:28.000Z</time>
      </trkpt>
      <trkpt lat="45.11153" lon="6.00263">
        <ele>945.20001220703</ele>
        <time>2024-10-15T06:01:29.000Z</time>
      </trkpt>
      <trkpt lat="45.11153" lon="6.00263">
        <ele>945.20001220703</ele>
        <time>2024-10-15T06:01:30.000Z</time>
      </trkpt>
      <trkpt lat="45.11153" lon="6.00263">
        <ele>945.40002441406</ele>
        <time>2024-10-15T06:01:31.000Z</time>
      </trkpt>
      <trkpt lat="45.11153" lon="6.00263">
        <ele>945.59997558594</ele>
        <time>2024-10-15T06:01:32.000Z</time>
      </trkpt>
      <trkpt lat="45.11155" lon="6.00262">
        <ele>945.79998779297</ele>
        <time>2024-10-15T06:01:33.000Z</time>
      </trkpt>
      <trkpt lat="45.11155" lon="6.00261">
        <ele>946</ele>
        <time>2024-10-15T06:01:34.000Z</time>
      </trkpt>
      <trkpt lat="45.11155" lon="6.00261">
        <ele>946.40002441406</ele>
        <time>2024-10-15T06:01:35.000Z</time>
      </trkpt>
      <trkpt lat="45.11155" lon="6.0026">
        <ele>946.59997558594</ele>
        <time>2024-10-15T06:01:36.000Z</time>
      </trkpt>
      <trkpt lat="45.11156" lon="6.0026">
        <ele>946.79998779297</ele>
        <time>2024-10-15T06:01:37.000Z</time>
      </trkpt>
      <trkpt lat="45.11156" lon="6.0026">
        <ele>947</ele>
        <time>2024-10-15T06:01:38.000Z</time>
      </trkpt>
      <trkpt lat="45.11157" lon="6.00259">
        <ele>947.40002441406</ele>
        <time>2024-10-15T06:01:39.000Z</time>
      </trkpt>
      <trkpt lat="45.11158" lon="6.00259">
        <ele>947.59997558594</ele>
        <time>2024-10-15T06:01:40.000Z</time>
      </trkpt>
      <trkpt lat="45.11159" lon="6.00259">
        <ele>947.79998779297</ele>
        <time>2024-10-15T06:01:41.000Z</time>
      </trkpt>
      <trkpt lat="45.11159" lon="6.00258">
        <ele>948</ele>
        <time>2024-10-15T06:01:42.000Z</time>
      </trkpt>
      <trkpt lat="45.11159" lon="6.00258">
        <ele>948</ele>
        <time>2024-10-15T06:01:43.000Z</time>
      </trkpt>
      <trkpt lat="45.1116" lon="6.00258">
        <ele>948.20001220703</ele>
        <time>2024-10-15T06:01:44.000Z</time>
      </trkpt>
      <trkpt lat="45.11161" lon="6.00258">
        <ele>948.40002441406</ele>
        <time>2024-10-15T06:01:45.000Z</time>
      </trkpt>
      <trkpt lat="45.11162" lon="6.00257">
        <ele>948.59997558594</ele>
        <time>2024-10-15T06:01:46.000Z</time>
      </trkpt>
      <trkpt lat="45.11163" lon="6.00257">
        <ele>948.59997558594</ele>
        <time>2024-10-15T06:01:47.000Z</time>
      </trkpt>
      <trkpt lat="45.11163" lon="6.00257">
        <ele>948.79998779297</ele>
        <time>2024-10-15T06:01:48.000Z</time>
      </trkpt>
      <trkpt lat="45.11163" lon="6.00257">
        <ele>949</ele>
        <time>2024-10-15T06:01:49.000Z</time>
      </trkpt>
      <trkpt lat="45.11164" lon="6.00257">
        <ele>949</ele>
        <time>2024-10-15T06:01:50.000Z</time>
      </trkpt>
      <trkpt lat="45.11164" lon="6.00257">
        <ele>949.20001220703</ele>
        <time>2024-10-15T06:01:51.000Z</time>
      </trkpt>
      <trkpt lat="45.11164" lon="6.00257">
        <ele>949.59997558594</ele>
        <time>2024-10-15T06:01:52.000Z</time>
      </trkpt>
      <trkpt lat="45.11165" lon="6.00257">
        <ele>949.79998779297</ele>
        <time>2024-10-15T06:01:53.000Z</time>
      </trkpt>
      <trkpt lat="45.11165" lon="6.00255">
        <ele>950</ele>
        <time>2024-10-15T06:01:54.000Z</time>
      </trkpt>
      <trkpt lat="45.11165" lon="6.00254">
        <ele>950.40002441406</ele>
        <time>2024-10-15T06:01:55.000Z</time>
      </trkpt>
      <trkpt lat="45.11166" lon="6.00254">
        <ele>950.59997558594</ele>
        <time>2024-10-15T06:01:56.000Z</time>
      </trkpt>
      <trkpt lat="45.11166" lon="6.00253">
        <ele>950.59997558594</ele>
        <time>2024-10-15T06:01:57.000Z</time>
      </trkpt>
      <trkpt lat="45.11166" lon="6.00253">
        <ele>950.79998779297</ele>
        <time>2024-10-15T06:01:58.000Z</time>
      </trkpt>
      <trkpt lat="45.11166" lon="6.00252">
        <ele>951</ele>
        <time>2024-10-15T06:01:59.000Z</time>
      </trkpt>
      <trkpt lat="45.11166" lon="6.00252">
        <ele>951.20001220703</ele>
        <time>2024-10-15T06:02:00.000Z</time>
      </trkpt>
      <trkpt lat="45.11166" lon="6.00252">
        <ele>951.40002441406</ele>
        <time>2024-10-15T06:02:01.000Z</time>
      </trkpt>
      <trkpt lat="45.11166" lon="6.00251">
        <ele>951.79998779297</ele>
        <time>2024-10-15T06:02:02.000Z</time>
      </trkpt>
      <trkpt lat="45.11166" lon="6.0025">
        <ele>951.79998779297</ele>
        <time>2024-10-15T06:02:03.000Z</time>
      </trkpt>
      <trkpt lat="45.11166" lon="6.0025">
        <ele>952</ele>
        <time>2024-10-15T06:02:04.000Z</time>
      </trkpt>
      <trkpt lat="45.11166" lon="6.00249">
        <ele>952</ele>
        <time>2024-10-15T06:02:05.000Z</time>
      </trkpt>
      <trkpt lat="45.11167" lon="6.00249">
        <ele>952</ele>
        <time>2024-10-15T06:02:06.000Z</time>
      </trkpt>
      <trkpt lat="45.11167" lon="6.00249">
        <ele>952.20001220703</ele>
        <time>2024-10-15T06:02:07.000Z</time>
      </trkpt>
      <trkpt lat="45.11167" lon="6.00248">
        <ele>952.20001220703</ele>
        <time>2024-10-15T06:02:08.000Z</time>
      </trkpt>
      <trkpt lat="45.11167" lon="6.00248">
        <ele>952.59997558594</ele>
        <time>2024-10-15T06:02:09.000Z</time>
      </trkpt>
      <trkpt lat="45.11167" lon="6.00247">
        <ele>952.59997558594</ele>
        <time>2024-10-15T06:02:10.000Z</time>
      </trkpt>
      <trkpt lat="45.11167" lon="6.00246">
        <ele>952.79998779297</ele>
        <time>2024-10-15T06:02:11.000Z</time>
      </trkpt>
      <trkpt lat="45.11167" lon="6.00246">
        <ele>952.79998779297</ele>
        <time>2024-10-15T06:02:12.000Z</time>
      </trkpt>
      <trkpt lat="45.11167" lon="6.00246">
        <ele>952.79998779297</ele>
        <time>2024-10-15T06:02:13.000Z</time>
      </trkpt>
      <trkpt lat="45.11168" lon="6.00245">
        <ele>953</ele>
        <time>2024-10-15T06:02:14.000Z</time>
      </trkpt>
      <trkpt lat="45.11168" lon="6.00245">
        <ele>953.20001220703</ele>
        <time>2024-10-15T06:02:15.000Z</time>
      </trkpt>
      <trkpt lat="45.11168" lon="6.00244">
        <ele>953.20001220703</ele>
        <time>2024-10-15T06:02:16.000Z</time>
      </trkpt>
      <trkpt lat="45.11168" lon="6.00243">
        <ele>953.40002441406</ele>
        <time>2024-10-15T06:02:17.000Z</time>
      </trkpt>
      <trkpt lat="45.11168" lon="6.00243">
        <ele>953.79998779297</ele>
        <time>2024-10-15T06:02:18.000Z</time>
      </trkpt>
      <trkpt lat="45.11169" lon="6.00243">
        <ele>954</ele>
        <time>2024-10-15T06:02:19.000Z</time>
      </trkpt>
      <trkpt lat="45.11168" lon="6.00243">
        <ele>954</ele>
        <time>2024-10-15T06:02:20.000Z</time>
      </trkpt>
      <trkpt lat="45.11168" lon="6.00242">
        <ele>954.20001220703</ele>
        <time>2024-10-15T06:02:21.000Z</time>
      </trkpt>
      <trkpt lat="45.11168" lon="6.00243">
        <ele>954.20001220703</ele>
        <time>2024-10-15T06:02:22.000Z</time>
      </trkpt>
      <trkpt lat="45.11168" lon="6.00243">
        <ele>954.59997558594</ele>
        <time>2024-10-15T06:02:23.000Z</time>
      </trkpt>
      <trkpt lat="45.11168" lon="6.00244">
        <ele>954.79998779297</ele>
        <time>2024-10-15T06:02:24.000Z</time>
      </trkpt>
      <trkpt lat="45.11167" lon="6.00244">
        <ele>955.20001220703</ele>
        <time>2024-10-15T06:02:25.000Z</time>
      </trkpt>
      <trkpt lat="45.11167" lon="6.00245">
        <ele>955.20001220703</ele>
        <time>2024-10-15T06:02:26.000Z</time>
      </trkpt>
      <trkpt lat="45.11167" lon="6.00245">
        <ele>955.59997558594</ele>
        <time>2024-10-15T06:02:27.000Z</time>
      </trkpt>
      <trkpt lat="45.11167" lon="6.00245">
        <ele>955.59997558594</ele>
        <time>2024-10-15T06:02:28.000Z</time>
      </trkpt>
      <trkpt lat="45.11167" lon="6.00245">
        <ele>955.59997558594</ele>
        <time>2024-10-15T06:02:29.000Z</time>
      </trkpt>
      <trkpt lat="45.11167" lon="6.00245">
        <ele>955.59997558594</ele>
        <time>2024-10-15T06:02:30.000Z</time>
      </trkpt>
      <trkpt lat="45.11167" lon="6.00245">
        <ele>955.59997558594</ele>
        <time>2024-10-15T06:02:31.000Z</time>
      </trkpt>
      <trkpt lat="45.11167" lon="6.00245">
        <ele>955.59997558594</ele>
        <time>2024-10-15T06:02:32.000Z</time>
      </trkpt>
      <trkpt lat="45.11167" lon="6.00245">
        <ele>955.59997558594</ele>
        <time>2024-10-15T06:02:33.000Z</time>
      </trkpt>
      <trkpt lat="45.11167" lon="6.00245">
        <ele>955.59997558594</ele>
        <time>2024-10-15T06:02:34.000Z</time>
      </trkpt>
      <trkpt lat="45.11167" lon="6.00245">
        <ele>955.59997558594</ele>
        <time>2024-10-15T06:02:35.000Z</time>
      </trkpt>
      <trkpt lat="45.11167" lon="6.00245">
        <ele>955.59997558594</ele>
        <time>2024-10-15T06:02:36.000Z</time>
      </trkpt>
      <trkpt lat="45.11167" lon="6.00245">
        <ele>955.59997558594</ele>
        <time>2024-10-15T06:02:37.000Z</time>
      </trkpt>
      <trkpt lat="45.11167" lon="6.00245">
        <ele>955.59997558594</ele>
        <time>2024-10-15T06:02:38.000Z</time>
      </trkpt>
      <trkpt lat="45.11167" lon="6.00245">
        <ele>955.79998779297</ele>
        <time>2024-10-15T06:02:39.000Z</time>
      </trkpt>
      <trkpt lat="45.11167" lon="6.00245">
        <ele>956.20001220703</ele>
        <time>2024-10-15T06:02:40.000Z</time>
      </trkpt>
      <trkpt lat="45.11167" lon="6.00245">
        <ele>956.40002441406</ele>
        <time>2024-10-15T06:02:41.000Z</time>
      </trkpt>
      <trkpt lat="45.11166" lon="6.00246">
        <ele>956.59997558594</ele>
        <time>2024-10-15T06:02:42.000Z</time>
      </trkpt>
      <trkpt lat="45.11165" lon="6.00246">
        <ele>956.79998779297</ele>
        <time>2024-10-15T06:02:43.000Z</time>
      </trkpt>
      <trkpt lat="45.11165" lon="6.00246">
        <ele>956.79998779297</ele>
        <time>2024-10-15T06:02:44.000Z</time>
      </trkpt>
      <trkpt lat="45.11164" lon="6.00247">
        <ele>956.79998779297</ele>
        <time>2024-10-15T06:02:45.000Z</time>
      </trkpt>
      <trkpt lat="45.11163" lon="6.00247">
        <ele>956.79998779297</ele>
        <time>2024-10-15T06:02:46.000Z</time>
      </trkpt>
      <trkpt lat="45.11163" lon="6.00248">
        <ele>956.79998779297</ele>
        <time>2024-10-15T06:02:47.000Z</time>
      </trkpt>
      <trkpt lat="45.11162" lon="6.00248">
        <ele>956.59997558594</ele>
        <time>2024-10-15T06:02:48.000Z</time>
      </trkpt>
      <trkpt lat="45.11162" lon="6.00248">
        <ele>956.40002441406</ele>
        <time>2024-10-15T06:02:49.000Z</time>
      </trkpt>
      <trkpt lat="45.11162" lon="6.00248">
        <ele>956.40002441406</ele>
        <time>2024-10-15T06:02:50.000Z</time>
      </trkpt>
      <trkpt lat="45.11162" lon="6.00247">
        <ele>956.40002441406</ele>
        <time>2024-10-15T06:02:51.000Z</time>
      </trkpt>
      <trkpt lat="45.11161" lon="6.00245">
        <ele>956.40002441406</ele>
        <time>2024-10-15T06:02:52.000Z</time>
      </trkpt>
      <trkpt lat="45.1116" lon="6.00245">
        <ele>956.40002441406</ele>
        <time>2024-10-15T06:02:53.000Z</time>
      </trkpt>
      <trkpt lat="45.1116" lon="6.00246">
        <ele>956.40002441406</ele>
        <time>2024-10-15T06:02:54.000Z</time>
      </trkpt>
      <trkpt lat="45.1116" lon="6.00246">
        <ele>956.79998779297</ele>
        <time>2024-10-15T06:02:55.000Z</time>
      </trkpt>
      <trkpt lat="45.1116" lon="6.00246">
        <ele>957</ele>
        <time>2024-10-15T06:02:56.000Z</time>
      </trkpt>
      <trkpt lat="45.1116" lon="6.00245">
        <ele>957.20001220703</ele>
        <time>2024-10-15T06:02:57.000Z</time>
      </trkpt>
      <trkpt lat="45.1116" lon="6.00245">
        <ele>957.20001220703</ele>
        <time>2024-10-15T06:02:58.000Z</time>
      </trkpt>
      <trkpt lat="45.1116" lon="6.00245">
        <ele>957.20001220703</ele>
        <time>2024-10-15T06:02:59.000Z</time>
      </trkpt>
      <trkpt lat="45.1116" lon="6.00245">
        <ele>957.40002441406</ele>
        <time>2024-10-15T06:03:00.000Z</time>
      </trkpt>
      <trkpt lat="45.1116" lon="6.00245">
        <ele>957.40002441406</ele>
        <time>2024-10-15T06:03:01.000Z</time>
      </trkpt>
      <trkpt lat="45.1116" lon="6.00245">
        <ele>957.40002441406</ele>
        <time>2024-10-15T06:03:02.000Z</time>
      </trkpt>
      <trkpt lat="45.1116" lon="6.00245">
        <ele>957.40002441406</ele>
        <time>2024-10-15T06:03:03.000Z</time>
      </trkpt>
      <trkpt lat="45.1116" lon="6.00246">
        <ele>957.40002441406</ele>
        <time>2024-10-15T06:03:04.000Z</time>
      </trkpt>
      <trkpt lat="45.1116" lon="6.00246">
        <ele>957.40002441406</ele>
        <time>2024-10-15T06:03:05.000Z</time>
      </trkpt>
      <trkpt lat="45.1116" lon="6.00246">
        <ele>957.20001220703</ele>
        <time>2024-10-15T06:03:06.000Z</time>
      </trkpt>
      <trkpt lat="45.11159" lon="6.00247">
        <ele>957.20001220703</ele>
        <time>2024-10-15T06:03:07.000Z</time>
      </trkpt>
      <trkpt lat="45.11159" lon="6.00247">
        <ele>957.20001220703</ele>
        <time>2024-10-15T06:03:08.000Z</time>
      </trkpt>
      <trkpt lat="45.11158" lon="6.00247">
        <ele>957.20001220703</ele>
        <time>2024-10-15T06:03:09.000Z</time>
      </trkpt>
      <trkpt lat="45.11157" lon="6.00248">
        <ele>957.20001220703</ele>
        <time>2024-10-15T06:03:10.000Z</time>
      </trkpt>
      <trkpt lat="45.11157" lon="6.00249">
        <ele>957.20001220703</ele>
        <time>2024-10-15T06:03:11.000Z</time>
      </trkpt>
      <trkpt lat="45.11156" lon="6.0025">
        <ele>957.20001220703</ele>
        <time>2024-10-15T06:03:12.000Z</time>
      </trkpt>
      <trkpt lat="45.11156" lon="6.00251">
        <ele>957</ele>
        <time>2024-10-15T06:03:13.000Z</time>
      </trkpt>
      <trkpt lat="45.11155" lon="6.00252">
        <ele>957</ele>
        <time>2024-10-15T06:03:14.000Z</time>
      </trkpt>
      <trkpt lat="45.11155" lon="6.00252">
        <ele>956.79998779297</ele>
        <time>2024-10-15T06:03:15.000Z</time>
      </trkpt>
      <trkpt lat="45.11154" lon="6.00253">
        <ele>956.59997558594</ele>
        <time>2024-10-15T06:03:16.000Z</time>
      </trkpt>
      <trkpt lat="45.11154" lon="6.00253">
        <ele>956</ele>
        <time>2024-10-15T06:03:17.000Z</time>
      </trkpt>
      <trkpt lat="45.11153" lon="6.00254">
        <ele>955.79998779297</ele>
        <time>2024-10-15T06:03:18.000Z</time>
      </trkpt>
      <trkpt lat="45.11152" lon="6.00252">
        <ele>955.40002441406</ele>
        <time>2024-10-15T06:03:19.000Z</time>
      </trkpt>
      <trkpt lat="45.11151" lon="6.00251">
        <ele>955.40002441406</ele>
        <time>2024-10-15T06:03:20.000Z</time>
      </trkpt>
      <trkpt lat="45.1115" lon="6.00251">
        <ele>955</ele>
        <time>2024-10-15T06:03:21.000Z</time>
      </trkpt>
      <trkpt lat="45.11148" lon="6.00251">
        <ele>955</ele>
        <time>2024-10-15T06:03:22.000Z</time>
      </trkpt>
      <trkpt lat="45.11147" lon="6.0025">
        <ele>955</ele>
        <time>2024-10-15T06:03:23.000Z</time>
      </trkpt>
      <trkpt lat="45.11146" lon="6.00249">
        <ele>955</ele>
        <time>2024-10-15T06:03:24.000Z</time>
      </trkpt>
      <trkpt lat="45.11146" lon="6.00249">
        <ele>955</ele>
        <time>2024-10-15T06:03:25.000Z</time>
      </trkpt>
      <trkpt lat="45.11146" lon="6.00248">
        <ele>955.40002441406</ele>
        <time>2024-10-15T06:03:26.000Z</time>
      </trkpt>
      <trkpt lat="45.11146" lon="6.00248">
        <ele>955.59997558594</ele>
        <time>2024-10-15T06:03:27.000Z</time>
      </trkpt>
      <trkpt lat="45.11147" lon="6.00248">
        <ele>956</ele>
        <time>2024-10-15T06:03:28.000Z</time>
      </trkpt>
      <trkpt lat="45.11146" lon="6.00248">
        <ele>956.20001220703</ele>
        <time>2024-10-15T06:03:29.000Z</time>
      </trkpt>
      <trkpt lat="45.11146" lon="6.00247">
        <ele>956.40002441406</ele>
        <time>2024-10-15T06:03:30.000Z</time>
      </trkpt>
      <trkpt lat="45.11145" lon="6.00247">
        <ele>956.59997558594</ele>
        <time>2024-10-15T06:03:31.000Z</time>
      </trkpt>
      <trkpt lat="45.11145" lon="6.00247">
        <ele>956.59997558594</ele>
        <time>2024-10-15T06:03:32.000Z</time>
      </trkpt>
      <trkpt lat="45.11145" lon="6.00247">
        <ele>957</ele>
        <time>2024-10-15T06:03:33.000Z</time>
      </trkpt>
      <trkpt lat="45.11144" lon="6.00247">
        <ele>957.20001220703</ele>
        <time>2024-10-15T06:03:34.000Z</time>
      </trkpt>
      <trkpt lat="45.11144" lon="6.00247">
        <ele>957.40002441406</ele>
        <time>2024-10-15T06:03:35.000Z</time>
      </trkpt>
      <trkpt lat="45.11143" lon="6.00246">
        <ele>957.59997558594</ele>
        <time>2024-10-15T06:03:36.000Z</time>
      </trkpt>
      <trkpt lat="45.11143" lon="6.00245">
        <ele>957.79998779297</ele>
        <time>2024-10-15T06:03:37.000Z</time>
      </trkpt>
      <trkpt lat="45.11142" lon="6.00244">
        <ele>958</ele>
        <time>2024-10-15T06:03:38.000Z</time>
      </trkpt>
      <trkpt lat="45.11142" lon="6.00243">
        <ele>958</ele>
        <time>2024-10-15T06:03:39.000Z</time>
      </trkpt>
      <trkpt lat="45.11142" lon="6.00243">
        <ele>958.20001220703</ele>
        <time>2024-10-15T06:03:40.000Z</time>
      </trkpt>
      <trkpt lat="45.11143" lon="6.00243">
        <ele>958.40002441406</ele>
        <time>2024-10-15T06:03:41.000Z</time>
      </trkpt>
      <trkpt lat="45.11143" lon="6.00242">
        <ele>958.59997558594</ele>
        <time>2024-10-15T06:03:42.000Z</time>
      </trkpt>
      <trkpt lat="45.11143" lon="6.00242">
        <ele>959</ele>
        <time>2024-10-15T06:03:43.000Z</time>
      </trkpt>
      <trkpt lat="45.11144" lon="6.00242">
        <ele>959.20001220703</ele>
        <time>2024-10-15T06:03:44.000Z</time>
      </trkpt>
      <trkpt lat="45.11144" lon="6.00241">
        <ele>959.40002441406</ele>
        <time>2024-10-15T06:03:45.000Z</time>
      </trkpt>
      <trkpt lat="45.11144" lon="6.00241">
        <ele>959.59997558594</ele>
        <time>2024-10-15T06:03:46.000Z</time>
      </trkpt>
      <trkpt lat="45.11144" lon="6.00241">
        <ele>959.79998779297</ele>
        <time>2024-10-15T06:03:47.000Z</time>
      </trkpt>
      <trkpt lat="45.11143" lon="6.00241">
        <ele>960</ele>
        <time>2024-10-15T06:03:48.000Z</time>
      </trkpt>
      <trkpt lat="45.11143" lon="6.00241">
        <ele>960</ele>
        <time>2024-10-15T06:03:49.000Z</time>
      </trkpt>
      <trkpt lat="45.11142" lon="6.00241">
        <ele>960.20001220703</ele>
        <time>2024-10-15T06:03:50.000Z</time>
      </trkpt>
      <trkpt lat="45.11141" lon="6.0024">
        <ele>960.20001220703</ele>
        <time>2024-10-15T06:03:51.000Z</time>
      </trkpt>
      <trkpt lat="45.11141" lon="6.0024">
        <ele>960.40002441406</ele>
        <time>2024-10-15T06:03:52.000Z</time>
      </trkpt>
      <trkpt lat="45.11141" lon="6.0024">
        <ele>960.40002441406</ele>
        <time>2024-10-15T06:03:53.000Z</time>
      </trkpt>
      <trkpt lat="45.11141" lon="6.0024">
        <ele>960.40002441406</ele>
        <time>2024-10-15T06:03:54.000Z</time>
      </trkpt>
      <trkpt lat="45.11141" lon="6.0024">
        <ele>960.40002441406</ele>
        <time>2024-10-15T06:03:55.000Z</time>
      </trkpt>
      <trkpt lat="45.11141" lon="6.00239">
        <ele>960.79998779297</ele>
        <time>2024-10-15T06:03:56.000Z</time>
      </trkpt>
      <trkpt lat="45.11141" lon="6.00239">
        <ele>961</ele>
        <time>2024-10-15T06:03:57.000Z</time>
      </trkpt>
      <trkpt lat="45.11141" lon="6.00239">
        <ele>961.40002441406</ele>
        <time>2024-10-15T06:03:58.000Z</time>
      </trkpt>
      <trkpt lat="45.11141" lon="6.00239">
        <ele>961.59997558594</ele>
        <time>2024-10-15T06:03:59.000Z</time>
      </trkpt>
      <trkpt lat="45.1114" lon="6.0024">
        <ele>961.79998779297</ele>
        <time>2024-10-15T06:04:00.000Z</time>
      </trkpt>
      <trkpt lat="45.1114" lon="6.00241">
        <ele>961.79998779297</ele>
        <time>2024-10-15T06:04:01.000Z</time>
      </trkpt>
      <trkpt lat="45.1114" lon="6.00241">
        <ele>961.79998779297</ele>
        <time>2024-10-15T06:04:02.000Z</time>
      </trkpt>
      <trkpt lat="45.1114" lon="6.00241">
        <ele>962</ele>
        <time>2024-10-15T06:04:03.000Z</time>
      </trkpt>
      <trkpt lat="45.11139" lon="6.00241">
        <ele>962.20001220703</ele>
        <time>2024-10-15T06:04:04.000Z</time>
      </trkpt>
      <trkpt lat="45.11139" lon="6.00242">
        <ele>962.40002441406</ele>
        <time>2024-10-15T06:04:05.000Z</time>
      </trkpt>
      <trkpt lat="45.11138" lon="6.00242">
        <ele>962.40002441406</ele>
        <time>2024-10-15T06:04:06.000Z</time>
      </trkpt>
      <trkpt lat="45.11138" lon="6.00241">
        <ele>962.59997558594</ele>
        <time>2024-10-15T06:04:07.000Z</time>
      </trkpt>
      <trkpt lat="45.11137" lon="6.00241">
        <ele>963</ele>
        <time>2024-10-15T06:04:08.000Z</time>
      </trkpt>
      <trkpt lat="45.11137" lon="6.00241">
        <ele>963.20001220703</ele>
        <time>2024-10-15T06:04:09.000Z</time>
      </trkpt>
      <trkpt lat="45.11136" lon="6.00241">
        <ele>963.20001220703</ele>
        <time>2024-10-15T06:04:10.000Z</time>
      </trkpt>
      <trkpt lat="45.11135" lon="6.00241">
        <ele>963.20001220703</ele>
        <time>2024-10-15T06:04:11.000Z</time>
      </trkpt>
      <trkpt lat="45.11135" lon="6.00241">
        <ele>963.59997558594</ele>
        <time>2024-10-15T06:04:12.000Z</time>
      </trkpt>
      <trkpt lat="45.11135" lon="6.00241">
        <ele>963.59997558594</ele>
        <time>2024-10-15T06:04:13.000Z</time>
      </trkpt>
      <trkpt lat="45.11134" lon="6.0024">
        <ele>963.79998779297</ele>
        <time>2024-10-15T06:04:14.000Z</time>
      </trkpt>
      <trkpt lat="45.11133" lon="6.0024">
        <ele>963.79998779297</ele>
        <time>2024-10-15T06:04:15.000Z</time>
      </trkpt>
      <trkpt lat="45.11133" lon="6.0024">
        <ele>964</ele>
        <time>2024-10-15T06:04:16.000Z</time>
      </trkpt>
      <trkpt lat="45.11133" lon="6.0024">
        <ele>964.20001220703</ele>
        <time>2024-10-15T06:04:17.000Z</time>
      </trkpt>
      <trkpt lat="45.11133" lon="6.0024">
        <ele>964.40002441406</ele>
        <time>2024-10-15T06:04:18.000Z</time>
      </trkpt>
      <trkpt lat="45.11133" lon="6.0024">
        <ele>964.59997558594</ele>
        <time>2024-10-15T06:04:19.000Z</time>
      </trkpt>
      <trkpt lat="45.11133" lon="6.0024">
        <ele>964.79998779297</ele>
        <time>2024-10-15T06:04:20.000Z</time>
      </trkpt>
      <trkpt lat="45.11132" lon="6.0024">
        <ele>965</ele>
        <time>2024-10-15T06:04:21.000Z</time>
      </trkpt>
      <trkpt lat="45.11132" lon="6.00239">
        <ele>965.40002441406</ele>
        <time>2024-10-15T06:04:22.000Z</time>
      </trkpt>
      <trkpt lat="45.11132" lon="6.00239">
        <ele>965.40002441406</ele>
        <time>2024-10-15T06:04:23.000Z</time>
      </trkpt>
      <trkpt lat="45.11132" lon="6.00239">
        <ele>965.59997558594</ele>
        <time>2024-10-15T06:04:24.000Z</time>
      </trkpt>
      <trkpt lat="45.11132" lon="6.00239">
        <ele>965.79998779297</ele>
        <time>2024-10-15T06:04:25.000Z</time>
      </trkpt>
      <trkpt lat="45.11131" lon="6.00239">
        <ele>965.79998779297</ele>
        <time>2024-10-15T06:04:26.000Z</time>
      </trkpt>
      <trkpt lat="45.11131" lon="6.00239">
        <ele>966.20001220703</ele>
        <time>2024-10-15T06:04:27.000Z</time>
      </trkpt>
      <trkpt lat="45.1113" lon="6.00239">
        <ele>966.40002441406</ele>
        <time>2024-10-15T06:04:28.000Z</time>
      </trkpt>
      <trkpt lat="45.1113" lon="6.0024">
        <ele>966.40002441406</ele>
        <time>2024-10-15T06:04:29.000Z</time>
      </trkpt>
      <trkpt lat="45.1113" lon="6.0024">
        <ele>966.59997558594</ele>
        <time>2024-10-15T06:04:30.000Z</time>
      </trkpt>
      <trkpt lat="45.11129" lon="6.0024">
        <ele>966.59997558594</ele>
        <time>2024-10-15T06:04:31.000Z</time>
      </trkpt>
      <trkpt lat="45.11129" lon="6.0024">
        <ele>966.59997558594</ele>
        <time>2024-10-15T06:04:32.000Z</time>
      </trkpt>
      <trkpt lat="45.11128" lon="6.0024">
        <ele>966.59997558594</ele>
        <time>2024-10-15T06:04:33.000Z</time>
      </trkpt>
      <trkpt lat="45.11128" lon="6.0024">
        <ele>967</ele>
        <time>2024-10-15T06:04:34.000Z</time>
      </trkpt>
      <trkpt lat="45.11128" lon="6.00239">
        <ele>967</ele>
        <time>2024-10-15T06:04:35.000Z</time>
      </trkpt>
      <trkpt lat="45.11127" lon="6.00237">
        <ele>967.20001220703</ele>
        <time>2024-10-15T06:04:36.000Z</time>
      </trkpt>
      <trkpt lat="45.11127" lon="6.00237">
        <ele>967.59997558594</ele>
        <time>2024-10-15T06:04:37.000Z</time>
      </trkpt>
      <trkpt lat="45.11126" lon="6.00236">
        <ele>967.59997558594</ele>
        <time>2024-10-15T06:04:38.000Z</time>
      </trkpt>
      <trkpt lat="45.11126" lon="6.00234">
        <ele>967.59997558594</ele>
        <time>2024-10-15T06:04:39.000Z</time>
      </trkpt>
      <trkpt lat="45.11126" lon="6.00234">
        <ele>967.79998779297</ele>
        <time>2024-10-15T06:04:40.000Z</time>
      </trkpt>
      <trkpt lat="45.11126" lon="6.00234">
        <ele>967.79998779297</ele>
        <time>2024-10-15T06:04:41.000Z</time>
      </trkpt>
      <trkpt lat="45.11126" lon="6.00233">
        <ele>967.79998779297</ele>
        <time>2024-10-15T06:04:42.000Z</time>
      </trkpt>
      <trkpt lat="45.11126" lon="6.00233">
        <ele>967.79998779297</ele>
        <time>2024-10-15T06:04:43.000Z</time>
      </trkpt>
      <trkpt lat="45.11126" lon="6.00233">
        <ele>967.79998779297</ele>
        <time>2024-10-15T06:04:44.000Z</time>
      </trkpt>
      <trkpt lat="45.11126" lon="6.00233">
        <ele>967.79998779297</ele>
        <time>2024-10-15T06:04:45.000Z</time>
      </trkpt>
      <trkpt lat="45.11125" lon="6.00234">
        <ele>967.79998779297</ele>
        <time>2024-10-15T06:04:46.000Z</time>
      </trkpt>
      <trkpt lat="45.11125" lon="6.00234">
        <ele>967.79998779297</ele>
        <time>2024-10-15T06:04:47.000Z</time>
      </trkpt>
      <trkpt lat="45.11125" lon="6.00234">
        <ele>967.79998779297</ele>
        <time>2024-10-15T06:04:48.000Z</time>
      </trkpt>
      <trkpt lat="45.11124" lon="6.00234">
        <ele>967.79998779297</ele>
        <time>2024-10-15T06:04:49.000Z</time>
      </trkpt>
      <trkpt lat="45.11124" lon="6.00233">
        <ele>967.59997558594</ele>
        <time>2024-10-15T06:04:50.000Z</time>
      </trkpt>
      <trkpt lat="45.11124" lon="6.00233">
        <ele>967.59997558594</ele>
        <time>2024-10-15T06:04:51.000Z</time>
      </trkpt>
      <trkpt lat="45.11124" lon="6.00233">
        <ele>967.59997558594</ele>
        <time>2024-10-15T06:04:52.000Z</time>
      </trkpt>
      <trkpt lat="45.11124" lon="6.00233">
        <ele>967.59997558594</ele>
        <time>2024-10-15T06:04:53.000Z</time>
      </trkpt>
      <trkpt lat="45.11124" lon="6.00233">
        <ele>967.59997558594</ele>
        <time>2024-10-15T06:04:54.000Z</time>
      </trkpt>
      <trkpt lat="45.11124" lon="6.00233">
        <ele>967.59997558594</ele>
        <time>2024-10-15T06:04:55.000Z</time>
      </trkpt>
      <trkpt lat="45.11124" lon="6.00233">
        <ele>967.40002441406</ele>
        <time>2024-10-15T06:04:56.000Z</time>
      </trkpt>
      <trkpt lat="45.11124" lon="6.00233">
        <ele>967.40002441406</ele>
        <time>2024-10-15T06:04:57.000Z</time>
      </trkpt>
      <trkpt lat="45.11124" lon="6.00233">
        <ele>967.40002441406</ele>
        <time>2024-10-15T06:04:58.000Z</time>
      </trkpt>
      <trkpt lat="45.11124" lon="6.00233">
        <ele>967.40002441406</ele>
        <time>2024-10-15T06:04:59.000Z</time>
      </trkpt>
      <trkpt lat="45.11124" lon="6.00233">
        <ele>967.40002441406</ele>
        <time>2024-10-15T06:05:00.000Z</time>
      </trkpt>
      <trkpt lat="45.11124" lon="6.00233">
        <ele>967.40002441406</ele>
        <time>2024-10-15T06:05:01.000Z</time>
      </trkpt>
      <trkpt lat="45.11124" lon="6.00233">
        <ele>967.40002441406</ele>
        <time>2024-10-15T06:05:02.000Z</time>
      </trkpt>
      <trkpt lat="45.11124" lon="6.00233">
        <ele>967.40002441406</ele>
        <time>2024-10-15T06:05:03.000Z</time>
      </trkpt>
      <trkpt lat="45.11124" lon="6.00233">
        <ele>967.40002441406</ele>
        <time>2024-10-15T06:05:04.000Z</time>
      </trkpt>
      <trkpt lat="45.11124" lon="6.00233">
        <ele>967.20001220703</ele>
        <time>2024-10-15T06:05:05.000Z</time>
      </trkpt>
      <trkpt lat="45.11124" lon="6.00233">
        <ele>967.20001220703</ele>
        <time>2024-10-15T06:05:06.000Z</time>
      </trkpt>
      <trkpt lat="45.11124" lon="6.00233">
        <ele>967.20001220703</ele>
        <time>2024-10-15T06:05:07.000Z</time>
      </trkpt>
      <trkpt lat="45.11124" lon="6.00233">
        <ele>967.20001220703</ele>
        <time>2024-10-15T06:05:08.000Z</time>
      </trkpt>
      <trkpt lat="45.11124" lon="6.00233">
        <ele>967.20001220703</ele>
        <time>2024-10-15T06:05:09.000Z</time>
      </trkpt>
      <trkpt lat="45.11124" lon="6.00233">
        <ele>967.40002441406</ele>
        <time>2024-10-15T06:05:10.000Z</time>
      </trkpt>
      <trkpt lat="45.11124" lon="6.00233">
        <ele>967.79998779297</ele>
        <time>2024-10-15T06:05:11.000Z</time>
      </trkpt>
      <trkpt lat="45.11124" lon="6.00233">
        <ele>968</ele>
        <time>2024-10-15T06:05:12.000Z</time>
      </trkpt>
      <trkpt lat="45.11124" lon="6.00233">
        <ele>968.20001220703</ele>
        <time>2024-10-15T06:05:13.000Z</time>
      </trkpt>
      <trkpt lat="45.11124" lon="6.00233">
        <ele>968.40002441406</ele>
        <time>2024-10-15T06:05:14.000Z</time>
      </trkpt>
      <trkpt lat="45.11124" lon="6.00233">
        <ele>968.59997558594</ele>
        <time>2024-10-15T06:05:15.000Z</time>
      </trkpt>
      <trkpt lat="45.11124" lon="6.00233">
        <ele>968.79998779297</ele>
        <time>2024-10-15T06:05:16.000Z</time>
      </trkpt>
      <trkpt lat="45.11124" lon="6.00233">
        <ele>969.20001220703</ele>
        <time>2024-10-15T06:05:17.000Z</time>
      </trkpt>
      <trkpt lat="45.11124" lon="6.00233">
        <ele>969.40002441406</ele>
        <time>2024-10-15T06:05:18.000Z</time>
      </trkpt>
      <trkpt lat="45.11124" lon="6.00233">
        <ele>969.40002441406</ele>
        <time>2024-10-15T06:05:19.000Z</time>
      </trkpt>
      <trkpt lat="45.11124" lon="6.00233">
        <ele>969.59997558594</ele>
        <time>2024-10-15T06:05:20.000Z</time>
      </trkpt>
      <trkpt lat="45.11124" lon="6.00233">
        <ele>970</ele>
        <time>2024-10-15T06:05:21.000Z</time>
      </trkpt>
      <trkpt lat="45.11123" lon="6.00232">
        <ele>970.20001220703</ele>
        <time>2024-10-15T06:05:22.000Z</time>
      </trkpt>
      <trkpt lat="45.11123" lon="6.00232">
        <ele>970.40002441406</ele>
        <time>2024-10-15T06:05:23.000Z</time>
      </trkpt>
      <trkpt lat="45.11123" lon="6.0023">
        <ele>970.79998779297</ele>
        <time>2024-10-15T06:05:24.000Z</time>
      </trkpt>
      <trkpt lat="45.11123" lon="6.0023">
        <ele>970.79998779297</ele>
        <time>2024-10-15T06:05:25.000Z</time>
      </trkpt>
      <trkpt lat="45.11122" lon="6.00229">
        <ele>971.20001220703</ele>
        <time>2024-10-15T06:05:26.000Z</time>
      </trkpt>
      <trkpt lat="45.11122" lon="6.00229">
        <ele>971.40002441406</ele>
        <time>2024-10-15T06:05:27.000Z</time>
      </trkpt>
      <trkpt lat="45.11122" lon="6.00229">
        <ele>971.59997558594</ele>
        <time>2024-10-15T06:05:28.000Z</time>
      </trkpt>
      <trkpt lat="45.11122" lon="6.00229">
        <ele>971.79998779297</ele>
        <time>2024-10-15T06:05:29.000Z</time>
      </trkpt>
      <trkpt lat="45.11121" lon="6.00228">
        <ele>972</ele>
        <time>2024-10-15T06:05:30.000Z</time>
      </trkpt>
      <trkpt lat="45.11121" lon="6.00228">
        <ele>972.20001220703</ele>
        <time>2024-10-15T06:05:31.000Z</time>
      </trkpt>
      <trkpt lat="45.11121" lon="6.00228">
        <ele>972.20001220703</ele>
        <time>2024-10-15T06:05:32.000Z</time>
      </trkpt>
      <trkpt lat="45.11121" lon="6.00228">
        <ele>972.40002441406</ele>
        <time>2024-10-15T06:05:33.000Z</time>
      </trkpt>
      <trkpt lat="45.11121" lon="6.00228">
        <ele>972.79998779297</ele>
        <time>2024-10-15T06:05:34.000Z</time>
      </trkpt>
      <trkpt lat="45.1112" lon="6.00228">
        <ele>972.79998779297</ele>
        <time>2024-10-15T06:05:35.000Z</time>
      </trkpt>
      <trkpt lat="45.1112" lon="6.00227">
        <ele>973</ele>
        <time>2024-10-15T06:05:36.000Z</time>
      </trkpt>
      <trkpt lat="45.1112" lon="6.00227">
        <ele>973</ele>
        <time>2024-10-15T06:05:37.000Z</time>
      </trkpt>
      <trkpt lat="45.1112" lon="6.00227">
        <ele>973.40002441406</ele>
        <time>2024-10-15T06:05:38.000Z</time>
      </trkpt>
      <trkpt lat="45.1112" lon="6.00227">
        <ele>973.59997558594</ele>
        <time>2024-10-15T06:05:39.000Z</time>
      </trkpt>
      <trkpt lat="45.11119" lon="6.00226">
        <ele>973.79998779297</ele>
        <time>2024-10-15T06:05:40.000Z</time>
      </trkpt>
      <trkpt lat="45.11119" lon="6.00225">
        <ele>974</ele>
        <time>2024-10-15T06:05:41.000Z</time>
      </trkpt>
      <trkpt lat="45.11119" lon="6.00225">
        <ele>974.40002441406</ele>
        <time>2024-10-15T06:05:42.000Z</time>
      </trkpt>
      <trkpt lat="45.11118" lon="6.00225">
        <ele>974.59997558594</ele>
        <time>2024-10-15T06:05:43.000Z</time>
      </trkpt>
      <trkpt lat="45.11118" lon="6.00224">
        <ele>974.59997558594</ele>
        <time>2024-10-15T06:05:44.000Z</time>
      </trkpt>
      <trkpt lat="45.11118" lon="6.00224">
        <ele>975</ele>
        <time>2024-10-15T06:05:45.000Z</time>
      </trkpt>
      <trkpt lat="45.11118" lon="6.00223">
        <ele>975</ele>
        <time>2024-10-15T06:05:46.000Z</time>
      </trkpt>
      <trkpt lat="45.11117" lon="6.00222">
        <ele>975.20001220703</ele>
        <time>2024-10-15T06:05:47.000Z</time>
      </trkpt>
      <trkpt lat="45.11117" lon="6.00222">
        <ele>975.20001220703</ele>
        <time>2024-10-15T06:05:48.000Z</time>
      </trkpt>
      <trkpt lat="45.11117" lon="6.00222">
        <ele>975.40002441406</ele>
        <time>2024-10-15T06:05:49.000Z</time>
      </trkpt>
      <trkpt lat="45.11117" lon="6.00221">
        <ele>975.79998779297</ele>
        <time>2024-10-15T06:05:50.000Z</time>
      </trkpt>
      <trkpt lat="45.11117" lon="6.00221">
        <ele>975.79998779297</ele>
        <time>2024-10-15T06:05:51.000Z</time>
      </trkpt>
      <trkpt lat="45.11117" lon="6.00221">
        <ele>976</ele>
        <time>2024-10-15T06:05:52.000Z</time>
      </trkpt>
      <trkpt lat="45.11117" lon="6.00221">
        <ele>976.20001220703</ele>
        <time>2024-10-15T06:05:53.000Z</time>
      </trkpt>
      <trkpt lat="45.11117" lon="6.00221">
        <ele>976.20001220703</ele>
        <time>2024-10-15T06:05:54.000Z</time>
      </trkpt>
      <trkpt lat="45.11117" lon="6.0022">
        <ele>976.40002441406</ele>
        <time>2024-10-15T06:05:55.000Z</time>
      </trkpt>
      <trkpt lat="45.11117" lon="6.0022">
        <ele>976.59997558594</ele>
        <time>2024-10-15T06:05:56.000Z</time>
      </trkpt>
      <trkpt lat="45.11117" lon="6.0022">
        <ele>976.79998779297</ele>
        <time>2024-10-15T06:05:57.000Z</time>
      </trkpt>
      <trkpt lat="45.11117" lon="6.0022">
        <ele>977</ele>
        <time>2024-10-15T06:05:58.000Z</time>
      </trkpt>
      <trkpt lat="45.11117" lon="6.0022">
        <ele>977</ele>
        <time>2024-10-15T06:05:59.000Z</time>
      </trkpt>
      <trkpt lat="45.11117" lon="6.0022">
        <ele>977.20001220703</ele>
        <time>2024-10-15T06:06:00.000Z</time>
      </trkpt>
      <trkpt lat="45.11117" lon="6.0022">
        <ele>977.40002441406</ele>
        <time>2024-10-15T06:06:01.000Z</time>
      </trkpt>
      <trkpt lat="45.11117" lon="6.0022">
        <ele>977.59997558594</ele>
        <time>2024-10-15T06:06:02.000Z</time>
      </trkpt>
      <trkpt lat="45.11117" lon="6.00219">
        <ele>977.79998779297</ele>
        <time>2024-10-15T06:06:03.000Z</time>
      </trkpt>
      <trkpt lat="45.11117" lon="6.00219">
        <ele>977.79998779297</ele>
        <time>2024-10-15T06:06:04.000Z</time>
      </trkpt>
      <trkpt lat="45.11116" lon="6.00219">
        <ele>978</ele>
        <time>2024-10-15T06:06:05.000Z</time>
      </trkpt>
      <trkpt lat="45.11116" lon="6.00218">
        <ele>978</ele>
        <time>2024-10-15T06:06:06.000Z</time>
      </trkpt>
      <trkpt lat="45.11116" lon="6.00218">
        <ele>978.20001220703</ele>
        <time>2024-10-15T06:06:07.000Z</time>
      </trkpt>
      <trkpt lat="45.11116" lon="6.00218">
        <ele>978.40002441406</ele>
        <time>2024-10-15T06:06:08.000Z</time>
      </trkpt>
      <trkpt lat="45.11116" lon="6.00217">
        <ele>978.59997558594</ele>
        <time>2024-10-15T06:06:09.000Z</time>
      </trkpt>
      <trkpt lat="45.11116" lon="6.00216">
        <ele>978.79998779297</ele>
        <time>2024-10-15T06:06:10.000Z</time>
      </trkpt>
      <trkpt lat="45.11117" lon="6.00216">
        <ele>979</ele>
        <time>2024-10-15T06:06:11.000Z</time>
      </trkpt>
      <trkpt lat="45.11117" lon="6.00215">
        <ele>979.20001220703</ele>
        <time>2024-10-15T06:06:12.000Z</time>
      </trkpt>
      <trkpt lat="45.11117" lon="6.00215">
        <ele>979.40002441406</ele>
        <time>2024-10-15T06:06:13.000Z</time>
      </trkpt>
      <trkpt lat="45.11117" lon="6.00214">
        <ele>979.40002441406</ele>
        <time>2024-10-15T06:06:14.000Z</time>
      </trkpt>
      <trkpt lat="45.11117" lon="6.00213">
        <ele>979.59997558594</ele>
        <time>2024-10-15T06:06:15.000Z</time>
      </trkpt>
      <trkpt lat="45.11117" lon="6.00213">
        <ele>980</ele>
        <time>2024-10-15T06:06:16.000Z</time>
      </trkpt>
      <trkpt lat="45.11117" lon="6.00213">
        <ele>980</ele>
        <time>2024-10-15T06:06:17.000Z</time>
      </trkpt>
      <trkpt lat="45.11117" lon="6.00213">
        <ele>980.20001220703</ele>
        <time>2024-10-15T06:06:18.000Z</time>
      </trkpt>
      <trkpt lat="45.11117" lon="6.00213">
        <ele>980.20001220703</ele>
        <time>2024-10-15T06:06:19.000Z</time>
      </trkpt>
      <trkpt lat="45.11117" lon="6.00212">
        <ele>980.40002441406</ele>
        <time>2024-10-15T06:06:20.000Z</time>
      </trkpt>
      <trkpt lat="45.11117" lon="6.00212">
        <ele>980.79998779297</ele>
        <time>2024-10-15T06:06:21.000Z</time>
      </trkpt>
      <trkpt lat="45.11117" lon="6.00212">
        <ele>981</ele>
        <time>2024-10-15T06:06:22.000Z</time>
      </trkpt>
      <trkpt lat="45.11117" lon="6.00212">
        <ele>981</ele>
        <time>2024-10-15T06:06:23.000Z</time>
      </trkpt>
      <trkpt lat="45.11118" lon="6.00212">
        <ele>981.20001220703</ele>
        <time>2024-10-15T06:06:24.000Z</time>
      </trkpt>
      <trkpt lat="45.11118" lon="6.00212">
        <ele>981.40002441406</ele>
        <time>2024-10-15T06:06:25.000Z</time>
      </trkpt>
      <trkpt lat="45.11118" lon="6.00212">
        <ele>981.59997558594</ele>
        <time>2024-10-15T06:06:26.000Z</time>
      </trkpt>
      <trkpt lat="45.11119" lon="6.00212">
        <ele>981.79998779297</ele>
        <time>2024-10-15T06:06:27.000Z</time>
      </trkpt>
      <trkpt lat="45.11119" lon="6.00212">
        <ele>981.79998779297</ele>
        <time>2024-10-15T06:06:28.000Z</time>
      </trkpt>
      <trkpt lat="45.11119" lon="6.00212">
        <ele>982</ele>
        <time>2024-10-15T06:06:29.000Z</time>
      </trkpt>
      <trkpt lat="45.1112" lon="6.00212">
        <ele>982</ele>
        <time>2024-10-15T06:06:30.000Z</time>
      </trkpt>
      <trkpt lat="45.1112" lon="6.00212">
        <ele>982.20001220703</ele>
        <time>2024-10-15T06:06:31.000Z</time>
      </trkpt>
      <trkpt lat="45.1112" lon="6.00212">
        <ele>982.20001220703</ele>
        <time>2024-10-15T06:06:32.000Z</time>
      </trkpt>
      <trkpt lat="45.11121" lon="6.00212">
        <ele>982.40002441406</ele>
        <time>2024-10-15T06:06:33.000Z</time>
      </trkpt>
      <trkpt lat="45.11121" lon="6.00212">
        <ele>982.59997558594</ele>
        <time>2024-10-15T06:06:34.000Z</time>
      </trkpt>
      <trkpt lat="45.11121" lon="6.00211">
        <ele>982.79998779297</ele>
        <time>2024-10-15T06:06:35.000Z</time>
      </trkpt>
      <trkpt lat="45.11122" lon="6.00211">
        <ele>983.20001220703</ele>
        <time>2024-10-15T06:06:36.000Z</time>
      </trkpt>
      <trkpt lat="45.11122" lon="6.00211">
        <ele>983.20001220703</ele>
        <time>2024-10-15T06:06:37.000Z</time>
      </trkpt>
      <trkpt lat="45.11122" lon="6.0021">
        <ele>983.40002441406</ele>
        <time>2024-10-15T06:06:38.000Z</time>
      </trkpt>
      <trkpt lat="45.11123" lon="6.0021">
        <ele>983.59997558594</ele>
        <time>2024-10-15T06:06:39.000Z</time>
      </trkpt>
      <trkpt lat="45.11123" lon="6.0021">
        <ele>983.79998779297</ele>
        <time>2024-10-15T06:06:40.000Z</time>
      </trkpt>
      <trkpt lat="45.11123" lon="6.00209">
        <ele>984</ele>
        <time>2024-10-15T06:06:41.000Z</time>
      </trkpt>
      <trkpt lat="45.11123" lon="6.00209">
        <ele>984.20001220703</ele>
        <time>2024-10-15T06:06:42.000Z</time>
      </trkpt>
      <trkpt lat="45.11124" lon="6.00209">
        <ele>984.20001220703</ele>
        <time>2024-10-15T06:06:43.000Z</time>
      </trkpt>
      <trkpt lat="45.11124" lon="6.00208">
        <ele>984.59997558594</ele>
        <time>2024-10-15T06:06:44.000Z</time>
      </trkpt>
      <trkpt lat="45.11124" lon="6.00208">
        <ele>984.79998779297</ele>
        <time>2024-10-15T06:06:45.000Z</time>
      </trkpt>
      <trkpt lat="45.11124" lon="6.00208">
        <ele>984.79998779297</ele>
        <time>2024-10-15T06:06:46.000Z</time>
      </trkpt>
      <trkpt lat="45.11124" lon="6.00207">
        <ele>985</ele>
        <time>2024-10-15T06:06:47.000Z</time>
      </trkpt>
      <trkpt lat="45.11124" lon="6.00206">
        <ele>985.40002441406</ele>
        <time>2024-10-15T06:06:48.000Z</time>
      </trkpt>
      <trkpt lat="45.11124" lon="6.00206">
        <ele>985.40002441406</ele>
        <time>2024-10-15T06:06:49.000Z</time>
      </trkpt>
      <trkpt lat="45.11124" lon="6.00206">
        <ele>985.59997558594</ele>
        <time>2024-10-15T06:06:50.000Z</time>
      </trkpt>
      <trkpt lat="45.11124" lon="6.00205">
        <ele>985.79998779297</ele>
        <time>2024-10-15T06:06:51.000Z</time>
      </trkpt>
      <trkpt lat="45.11125" lon="6.00205">
        <ele>985.79998779297</ele>
        <time>2024-10-15T06:06:52.000Z</time>
      </trkpt>
      <trkpt lat="45.11125" lon="6.00204">
        <ele>986</ele>
        <time>2024-10-15T06:06:53.000Z</time>
      </trkpt>
      <trkpt lat="45.11125" lon="6.00204">
        <ele>986.20001220703</ele>
        <time>2024-10-15T06:06:54.000Z</time>
      </trkpt>
      <trkpt lat="45.11126" lon="6.00204">
        <ele>986.20001220703</ele>
        <time>2024-10-15T06:06:55.000Z</time>
      </trkpt>
      <trkpt lat="45.11126" lon="6.00204">
        <ele>986.40002441406</ele>
        <time>2024-10-15T06:06:56.000Z</time>
      </trkpt>
      <trkpt lat="45.11127" lon="6.00203">
        <ele>986.59997558594</ele>
        <time>2024-10-15T06:06:57.000Z</time>
      </trkpt>
      <trkpt lat="45.11127" lon="6.00202">
        <ele>986.79998779297</ele>
        <time>2024-10-15T06:06:58.000Z</time>
      </trkpt>
      <trkpt lat="45.11128" lon="6.00202">
        <ele>986.79998779297</ele>
        <time>2024-10-15T06:06:59.000Z</time>
      </trkpt>
      <trkpt lat="45.11128" lon="6.00201">
        <ele>987</ele>
        <time>2024-10-15T06:07:00.000Z</time>
      </trkpt>
      <trkpt lat="45.11129" lon="6.00201">
        <ele>987.20001220703</ele>
        <time>2024-10-15T06:07:01.000Z</time>
      </trkpt>
      <trkpt lat="45.11129" lon="6.002">
        <ele>987.40002441406</ele>
        <time>2024-10-15T06:07:02.000Z</time>
      </trkpt>
      <trkpt lat="45.1113" lon="6.002">
        <ele>987.59997558594</ele>
        <time>2024-10-15T06:07:03.000Z</time>
      </trkpt>
      <trkpt lat="45.1113" lon="6.00199">
        <ele>987.79998779297</ele>
        <time>2024-10-15T06:07:04.000Z</time>
      </trkpt>
      <trkpt lat="45.1113" lon="6.00199">
        <ele>987.79998779297</ele>
        <time>2024-10-15T06:07:05.000Z</time>
      </trkpt>
      <trkpt lat="45.11131" lon="6.00198">
        <ele>988</ele>
        <time>2024-10-15T06:07:06.000Z</time>
      </trkpt>
      <trkpt lat="45.11131" lon="6.00198">
        <ele>988</ele>
        <time>2024-10-15T06:07:07.000Z</time>
      </trkpt>
      <trkpt lat="45.11131" lon="6.00197">
        <ele>988.20001220703</ele>
        <time>2024-10-15T06:07:08.000Z</time>
      </trkpt>
      <trkpt lat="45.11131" lon="6.00197">
        <ele>988.40002441406</ele>
        <time>2024-10-15T06:07:09.000Z</time>
      </trkpt>
      <trkpt lat="45.11132" lon="6.00196">
        <ele>988.59997558594</ele>
        <time>2024-10-15T06:07:10.000Z</time>
      </trkpt>
      <trkpt lat="45.11132" lon="6.00196">
        <ele>988.59997558594</ele>
        <time>2024-10-15T06:07:11.000Z</time>
      </trkpt>
      <trkpt lat="45.11132" lon="6.00196">
        <ele>988.79998779297</ele>
        <time>2024-10-15T06:07:12.000Z</time>
      </trkpt>
      <trkpt lat="45.11133" lon="6.00195">
        <ele>989</ele>
        <time>2024-10-15T06:07:13.000Z</time>
      </trkpt>
      <trkpt lat="45.11133" lon="6.00195">
        <ele>989.20001220703</ele>
        <time>2024-10-15T06:07:14.000Z</time>
      </trkpt>
      <trkpt lat="45.11133" lon="6.00195">
        <ele>989.40002441406</ele>
        <time>2024-10-15T06:07:15.000Z</time>
      </trkpt>
      <trkpt lat="45.11133" lon="6.00194">
        <ele>989.59997558594</ele>
        <time>2024-10-15T06:07:16.000Z</time>
      </trkpt>
      <trkpt lat="45.11133" lon="6.00194">
        <ele>989.79998779297</ele>
        <time>2024-10-15T06:07:17.000Z</time>
      </trkpt>
      <trkpt lat="45.11133" lon="6.00194">
        <ele>990</ele>
        <time>2024-10-15T06:07:18.000Z</time>
      </trkpt>
      <trkpt lat="45.11133" lon="6.00193">
        <ele>990</ele>
        <time>2024-10-15T06:07:19.000Z</time>
      </trkpt>
      <trkpt lat="45.11133" lon="6.00193">
        <ele>990.20001220703</ele>
        <time>2024-10-15T06:07:20.000Z</time>
      </trkpt>
      <trkpt lat="45.11133" lon="6.00193">
        <ele>990.40002441406</ele>
        <time>2024-10-15T06:07:21.000Z</time>
      </trkpt>
      <trkpt lat="45.11133" lon="6.00192">
        <ele>990.59997558594</ele>
        <time>2024-10-15T06:07:22.000Z</time>
      </trkpt>
      <trkpt lat="45.11133" lon="6.00192">
        <ele>990.79998779297</ele>
        <time>2024-10-15T06:07:23.000Z</time>
      </trkpt>
      <trkpt lat="45.11133" lon="6.00192">
        <ele>991.20001220703</ele>
        <time>2024-10-15T06:07:24.000Z</time>
      </trkpt>
      <trkpt lat="45.11133" lon="6.00191">
        <ele>991.20001220703</ele>
        <time>2024-10-15T06:07:25.000Z</time>
      </trkpt>
      <trkpt lat="45.11133" lon="6.00191">
        <ele>991.59997558594</ele>
        <time>2024-10-15T06:07:26.000Z</time>
      </trkpt>
      <trkpt lat="45.11133" lon="6.00191">
        <ele>991.79998779297</ele>
        <time>2024-10-15T06:07:27.000Z</time>
      </trkpt>
      <trkpt lat="45.11133" lon="6.00191">
        <ele>991.79998779297</ele>
        <time>2024-10-15T06:07:28.000Z</time>
      </trkpt>
      <trkpt lat="45.11133" lon="6.0019">
        <ele>992</ele>
        <time>2024-10-15T06:07:29.000Z</time>
      </trkpt>
      <trkpt lat="45.11133" lon="6.0019">
        <ele>992.40002441406</ele>
        <time>2024-10-15T06:07:30.000Z</time>
      </trkpt>
      <trkpt lat="45.11133" lon="6.0019">
        <ele>992.40002441406</ele>
        <time>2024-10-15T06:07:31.000Z</time>
      </trkpt>
      <trkpt lat="45.11133" lon="6.0019">
        <ele>992.40002441406</ele>
        <time>2024-10-15T06:07:32.000Z</time>
      </trkpt>
      <trkpt lat="45.11133" lon="6.00189">
        <ele>992.59997558594</ele>
        <time>2024-10-15T06:07:33.000Z</time>
      </trkpt>
      <trkpt lat="45.11133" lon="6.00189">
        <ele>992.59997558594</ele>
        <time>2024-10-15T06:07:34.000Z</time>
      </trkpt>
      <trkpt lat="45.11133" lon="6.00189">
        <ele>992.59997558594</ele>
        <time>2024-10-15T06:07:35.000Z</time>
      </trkpt>
      <trkpt lat="45.11133" lon="6.00188">
        <ele>992.79998779297</ele>
        <time>2024-10-15T06:07:36.000Z</time>
      </trkpt>
      <trkpt lat="45.11133" lon="6.00187">
        <ele>993</ele>
        <time>2024-10-15T06:07:37.000Z</time>
      </trkpt>
      <trkpt lat="45.11133" lon="6.00187">
        <ele>993</ele>
        <time>2024-10-15T06:07:38.000Z</time>
      </trkpt>
      <trkpt lat="45.11133" lon="6.00187">
        <ele>993.20001220703</ele>
        <time>2024-10-15T06:07:39.000Z</time>
      </trkpt>
      <trkpt lat="45.11133" lon="6.00186">
        <ele>993.40002441406</ele>
        <time>2024-10-15T06:07:40.000Z</time>
      </trkpt>
      <trkpt lat="45.11133" lon="6.00186">
        <ele>993.40002441406</ele>
        <time>2024-10-15T06:07:41.000Z</time>
      </trkpt>
      <trkpt lat="45.11133" lon="6.00185">
        <ele>993.40002441406</ele>
        <time>2024-10-15T06:07:42.000Z</time>
      </trkpt>
      <trkpt lat="45.11133" lon="6.00185">
        <ele>993.59997558594</ele>
        <time>2024-10-15T06:07:43.000Z</time>
      </trkpt>
      <trkpt lat="45.11133" lon="6.00184">
        <ele>993.79998779297</ele>
        <time>2024-10-15T06:07:44.000Z</time>
      </trkpt>
      <trkpt lat="45.11133" lon="6.00184">
        <ele>993.79998779297</ele>
        <time>2024-10-15T06:07:45.000Z</time>
      </trkpt>
      <trkpt lat="45.11133" lon="6.00184">
        <ele>993.79998779297</ele>
        <time>2024-10-15T06:07:46.000Z</time>
      </trkpt>
      <trkpt lat="45.11133" lon="6.00184">
        <ele>994</ele>
        <time>2024-10-15T06:07:47.000Z</time>
      </trkpt>
      <trkpt lat="45.11133" lon="6.00183">
        <ele>994</ele>
        <time>2024-10-15T06:07:48.000Z</time>
      </trkpt>
      <trkpt lat="45.11134" lon="6.00183">
        <ele>994.20001220703</ele>
        <time>2024-10-15T06:07:49.000Z</time>
      </trkpt>
      <trkpt lat="45.11134" lon="6.00183">
        <ele>994.40002441406</ele>
        <time>2024-10-15T06:07:50.000Z</time>
      </trkpt>
      <trkpt lat="45.11134" lon="6.00183">
        <ele>994.40002441406</ele>
        <time>2024-10-15T06:07:51.000Z</time>
      </trkpt>
      <trkpt lat="45.11134" lon="6.00183">
        <ele>994.59997558594</ele>
        <time>2024-10-15T06:07:52.000Z</time>
      </trkpt>
      <trkpt lat="45.11134" lon="6.00183">
        <ele>994.79998779297</ele>
        <time>2024-10-15T06:07:53.000Z</time>
      </trkpt>
      <trkpt lat="45.11134" lon="6.00182">
        <ele>995</ele>
        <time>2024-10-15T06:07:54.000Z</time>
      </trkpt>
      <trkpt lat="45.11135" lon="6.00182">
        <ele>995</ele>
        <time>2024-10-15T06:07:55.000Z</time>
      </trkpt>
      <trkpt lat="45.11135" lon="6.00182">
        <ele>995.20001220703</ele>
        <time>2024-10-15T06:07:56.000Z</time>
      </trkpt>
      <trkpt lat="45.11135" lon="6.00182">
        <ele>995.59997558594</ele>
        <time>2024-10-15T06:07:57.000Z</time>
      </trkpt>
      <trkpt lat="45.11135" lon="6.00181">
        <ele>995.59997558594</ele>
        <time>2024-10-15T06:07:58.000Z</time>
      </trkpt>
      <trkpt lat="45.11135" lon="6.00181">
        <ele>995.79998779297</ele>
        <time>2024-10-15T06:07:59.000Z</time>
      </trkpt>
      <trkpt lat="45.11135" lon="6.00181">
        <ele>996</ele>
        <time>2024-10-15T06:08:00.000Z</time>
      </trkpt>
      <trkpt lat="45.11135" lon="6.00181">
        <ele>996.20001220703</ele>
        <time>2024-10-15T06:08:01.000Z</time>
      </trkpt>
      <trkpt lat="45.11135" lon="6.00181">
        <ele>996.40002441406</ele>
        <time>2024-10-15T06:08:02.000Z</time>
      </trkpt>
      <trkpt lat="45.11135" lon="6.0018">
        <ele>996.59997558594</ele>
        <time>2024-10-15T06:08:03.000Z</time>
      </trkpt>
      <trkpt lat="45.11135" lon="6.0018">
        <ele>996.79998779297</ele>
        <time>2024-10-15T06:08:04.000Z</time>
      </trkpt>
      <trkpt lat="45.11135" lon="6.0018">
        <ele>997</ele>
        <time>2024-10-15T06:08:05.000Z</time>
      </trkpt>
      <trkpt lat="45.11135" lon="6.0018">
        <ele>997</ele>
        <time>2024-10-15T06:08:06.000Z</time>
      </trkpt>
      <trkpt lat="45.11135" lon="6.0018">
        <ele>997</ele>
        <time>2024-10-15T06:08:07.000Z</time>
      </trkpt>
      <trkpt lat="45.11135" lon="6.0018">
        <ele>997.20001220703</ele>
        <time>2024-10-15T06:08:08.000Z</time>
      </trkpt>
      <trkpt lat="45.11135" lon="6.00179">
        <ele>997.20001220703</ele>
        <time>2024-10-15T06:08:09.000Z</time>
      </trkpt>
      <trkpt lat="45.11135" lon="6.00179">
        <ele>997.20001220703</ele>
        <time>2024-10-15T06:08:10.000Z</time>
      </trkpt>
      <trkpt lat="45.11135" lon="6.00179">
        <ele>997.40002441406</ele>
        <time>2024-10-15T06:08:11.000Z</time>
      </trkpt>
      <trkpt lat="45.11135" lon="6.00179">
        <ele>997.59997558594</ele>
        <time>2024-10-15T06:08:12.000Z</time>
      </trkpt>
      <trkpt lat="45.11135" lon="6.00179">
        <ele>997.79998779297</ele>
        <time>2024-10-15T06:08:13.000Z</time>
      </trkpt>
      <trkpt lat="45.11135" lon="6.00179">
        <ele>998</ele>
        <time>2024-10-15T06:08:14.000Z</time>
      </trkpt>
      <trkpt lat="45.11135" lon="6.00178">
        <ele>998</ele>
        <time>2024-10-15T06:08:15.000Z</time>
      </trkpt>
      <trkpt lat="45.11136" lon="6.00176">
        <ele>998.40002441406</ele>
        <time>2024-10-15T06:08:16.000Z</time>
      </trkpt>
      <trkpt lat="45.11136" lon="6.00174">
        <ele>998.59997558594</ele>
        <time>2024-10-15T06:08:17.000Z</time>
      </trkpt>
      <trkpt lat="45.11136" lon="6.00173">
        <ele>998.79998779297</ele>
        <time>2024-10-15T06:08:18.000Z</time>
      </trkpt>
      <trkpt lat="45.11136" lon="6.00173">
        <ele>999</ele>
        <time>2024-10-15T06:08:19.000Z</time>
      </trkpt>
      <trkpt lat="45.11136" lon="6.00173">
        <ele>999</ele>
        <time>2024-10-15T06:08:20.000Z</time>
      </trkpt>
      <trkpt lat="45.11136" lon="6.00173">
        <ele>999</ele>
        <time>2024-10-15T06:08:21.000Z</time>
      </trkpt>
      <trkpt lat="45.11136" lon="6.00173">
        <ele>999</ele>
        <time>2024-10-15T06:08:22.000Z</time>
      </trkpt>
      <trkpt lat="45.11136" lon="6.00173">
        <ele>999</ele>
        <time>2024-10-15T06:08:23.000Z</time>
      </trkpt>
      <trkpt lat="45.11136" lon="6.00173">
        <ele>999</ele>
        <time>2024-10-15T06:08:24.000Z</time>
      </trkpt>
      <trkpt lat="45.11136" lon="6.00168">
        <ele>999</ele>
        <time>2024-10-15T06:08:25.000Z</time>
      </trkpt>
      <trkpt lat="45.11136" lon="6.00168">
        <ele>999</ele>
        <time>2024-10-15T06:08:26.000Z</time>
      </trkpt>
      <trkpt lat="45.11136" lon="6.00167">
        <ele>999.20001220703</ele>
        <time>2024-10-15T06:08:27.000Z</time>
      </trkpt>
      <trkpt lat="45.11137" lon="6.00167">
        <ele>999.59997558594</ele>
        <time>2024-10-15T06:08:28.000Z</time>
      </trkpt>
      <trkpt lat="45.11137" lon="6.00165">
        <ele>999.59997558594</ele>
        <time>2024-10-15T06:08:29.000Z</time>
      </trkpt>
      <trkpt lat="45.11137" lon="6.00165">
        <ele>999.59997558594</ele>
        <time>2024-10-15T06:08:30.000Z</time>
      </trkpt>
      <trkpt lat="45.11137" lon="6.00164">
        <ele>999.59997558594</ele>
        <time>2024-10-15T06:08:31.000Z</time>
      </trkpt>
      <trkpt lat="45.11137" lon="6.00164">
        <ele>999.79998779297</ele>
        <time>2024-10-15T06:08:32.000Z</time>
      </trkpt>
      <trkpt lat="45.11137" lon="6.00164">
        <ele>1000</ele>
        <time>2024-10-15T06:08:33.000Z</time>
      </trkpt>
      <trkpt lat="45.11137" lon="6.00164">
        <ele>1000.200012207</ele>
        <time>2024-10-15T06:08:34.000Z</time>
      </trkpt>
      <trkpt lat="45.11137" lon="6.00164">
        <ele>1000.200012207</ele>
        <time>2024-10-15T06:08:35.000Z</time>
      </trkpt>
      <trkpt lat="45.11137" lon="6.00164">
        <ele>1000.200012207</ele>
        <time>2024-10-15T06:08:36.000Z</time>
      </trkpt>
      <trkpt lat="45.11137" lon="6.00164">
        <ele>1000.200012207</ele>
        <time>2024-10-15T06:08:37.000Z</time>
      </trkpt>
      <trkpt lat="45.11137" lon="6.00163">
        <ele>1000.200012207</ele>
        <time>2024-10-15T06:08:38.000Z</time>
      </trkpt>
      <trkpt lat="45.11137" lon="6.00163">
        <ele>1000.200012207</ele>
        <time>2024-10-15T06:08:39.000Z</time>
      </trkpt>
      <trkpt lat="45.11137" lon="6.00163">
        <ele>1000.200012207</ele>
        <time>2024-10-15T06:08:40.000Z</time>
      </trkpt>
      <trkpt lat="45.11137" lon="6.00163">
        <ele>1000.200012207</ele>
        <time>2024-10-15T06:08:41.000Z</time>
      </trkpt>
      <trkpt lat="45.11137" lon="6.00162">
        <ele>1000.200012207</ele>
        <time>2024-10-15T06:08:42.000Z</time>
      </trkpt>
      <trkpt lat="45.11137" lon="6.00162">
        <ele>1000.200012207</ele>
        <time>2024-10-15T06:08:43.000Z</time>
      </trkpt>
      <trkpt lat="45.11136" lon="6.00162">
        <ele>1000.200012207</ele>
        <time>2024-10-15T06:08:44.000Z</time>
      </trkpt>
      <trkpt lat="45.11136" lon="6.00161">
        <ele>1000.200012207</ele>
        <time>2024-10-15T06:08:45.000Z</time>
      </trkpt>
      <trkpt lat="45.11136" lon="6.00161">
        <ele>1000.4000244141</ele>
        <time>2024-10-15T06:08:46.000Z</time>
      </trkpt>
      <trkpt lat="45.11136" lon="6.00161">
        <ele>1000.4000244141</ele>
        <time>2024-10-15T06:08:47.000Z</time>
      </trkpt>
      <trkpt lat="45.11136" lon="6.00161">
        <ele>1000.5999755859</ele>
        <time>2024-10-15T06:08:48.000Z</time>
      </trkpt>
      <trkpt lat="45.11136" lon="6.0016">
        <ele>1000.799987793</ele>
        <time>2024-10-15T06:08:49.000Z</time>
      </trkpt>
      <trkpt lat="45.11136" lon="6.0016">
        <ele>1000.799987793</ele>
        <time>2024-10-15T06:08:50.000Z</time>
      </trkpt>
      <trkpt lat="45.11136" lon="6.0016">
        <ele>1000.799987793</ele>
        <time>2024-10-15T06:08:51.000Z</time>
      </trkpt>
      <trkpt lat="45.11135" lon="6.0016">
        <ele>1000.799987793</ele>
        <time>2024-10-15T06:08:52.000Z</time>
      </trkpt>
      <trkpt lat="45.11135" lon="6.00159">
        <ele>1000.799987793</ele>
        <time>2024-10-15T06:08:53.000Z</time>
      </trkpt>
      <trkpt lat="45.11135" lon="6.00159">
        <ele>1000.799987793</ele>
        <time>2024-10-15T06:08:54.000Z</time>
      </trkpt>
      <trkpt lat="45.11135" lon="6.00159">
        <ele>1000.799987793</ele>
        <time>2024-10-15T06:08:55.000Z</time>
      </trkpt>
      <trkpt lat="45.11135" lon="6.00158">
        <ele>1001.200012207</ele>
        <time>2024-10-15T06:08:56.000Z</time>
      </trkpt>
      <trkpt lat="45.11135" lon="6.00158">
        <ele>1001.200012207</ele>
        <time>2024-10-15T06:08:57.000Z</time>
      </trkpt>
      <trkpt lat="45.11135" lon="6.00157">
        <ele>1001.5999755859</ele>
        <time>2024-10-15T06:08:58.000Z</time>
      </trkpt>
      <trkpt lat="45.11135" lon="6.00157">
        <ele>1001.5999755859</ele>
        <time>2024-10-15T06:08:59.000Z</time>
      </trkpt>
      <trkpt lat="45.11134" lon="6.00156">
        <ele>1001.799987793</ele>
        <time>2024-10-15T06:09:00.000Z</time>
      </trkpt>
      <trkpt lat="45.11134" lon="6.00155">
        <ele>1001.799987793</ele>
        <time>2024-10-15T06:09:01.000Z</time>
      </trkpt>
      <trkpt lat="45.11134" lon="6.00155">
        <ele>1002</ele>
        <time>2024-10-15T06:09:02.000Z</time>
      </trkpt>
      <trkpt lat="45.11134" lon="6.00154">
        <ele>1002.200012207</ele>
        <time>2024-10-15T06:09:03.000Z</time>
      </trkpt>
      <trkpt lat="45.11134" lon="6.00154">
        <ele>1002.4000244141</ele>
        <time>2024-10-15T06:09:04.000Z</time>
      </trkpt>
      <trkpt lat="45.11134" lon="6.00154">
        <ele>1002.5999755859</ele>
        <time>2024-10-15T06:09:05.000Z</time>
      </trkpt>
      <trkpt lat="45.11134" lon="6.00154">
        <ele>1002.5999755859</ele>
        <time>2024-10-15T06:09:06.000Z</time>
      </trkpt>
      <trkpt lat="45.11134" lon="6.00154">
        <ele>1002.799987793</ele>
        <time>2024-10-15T06:09:07.000Z</time>
      </trkpt>
      <trkpt lat="45.11134" lon="6.00153">
        <ele>1002.799987793</ele>
        <time>2024-10-15T06:09:08.000Z</time>
      </trkpt>
      <trkpt lat="45.11134" lon="6.00153">
        <ele>1003</ele>
        <time>2024-10-15T06:09:09.000Z</time>
      </trkpt>
      <trkpt lat="45.11134" lon="6.00153">
        <ele>1003.200012207</ele>
        <time>2024-10-15T06:09:10.000Z</time>
      </trkpt>
      <trkpt lat="45.11134" lon="6.00152">
        <ele>1003.4000244141</ele>
        <time>2024-10-15T06:09:11.000Z</time>
      </trkpt>
      <trkpt lat="45.11134" lon="6.00152">
        <ele>1003.4000244141</ele>
        <time>2024-10-15T06:09:12.000Z</time>
      </trkpt>
      <trkpt lat="45.11134" lon="6.00152">
        <ele>1003.5999755859</ele>
        <time>2024-10-15T06:09:13.000Z</time>
      </trkpt>
      <trkpt lat="45.11134" lon="6.00151">
        <ele>1003.799987793</ele>
        <time>2024-10-15T06:09:14.000Z</time>
      </trkpt>
      <trkpt lat="45.11134" lon="6.00151">
        <ele>1003.799987793</ele>
        <time>2024-10-15T06:09:15.000Z</time>
      </trkpt>
      <trkpt lat="45.11134" lon="6.00151">
        <ele>1003.799987793</ele>
        <time>2024-10-15T06:09:16.000Z</time>
      </trkpt>
      <trkpt lat="45.11134" lon="6.0015">
        <ele>1003.799987793</ele>
        <time>2024-10-15T06:09:17.000Z</time>
      </trkpt>
      <trkpt lat="45.11134" lon="6.0015">
        <ele>1003.799987793</ele>
        <time>2024-10-15T06:09:18.000Z</time>
      </trkpt>
      <trkpt lat="45.11134" lon="6.0015">
        <ele>1004</ele>
        <time>2024-10-15T06:09:19.000Z</time>
      </trkpt>
      <trkpt lat="45.11134" lon="6.0015">
        <ele>1004.200012207</ele>
        <time>2024-10-15T06:09:20.000Z</time>
      </trkpt>
      <trkpt lat="45.11134" lon="6.00149">
        <ele>1004.200012207</ele>
        <time>2024-10-15T06:09:21.000Z</time>
      </trkpt>
      <trkpt lat="45.11134" lon="6.00149">
        <ele>1004.4000244141</ele>
        <time>2024-10-15T06:09:22.000Z</time>
      </trkpt>
      <trkpt lat="45.11134" lon="6.00149">
        <ele>1004.4000244141</ele>
        <time>2024-10-15T06:09:23.000Z</time>
      </trkpt>
      <trkpt lat="45.11134" lon="6.00149">
        <ele>1004.5999755859</ele>
        <time>2024-10-15T06:09:24.000Z</time>
      </trkpt>
      <trkpt lat="45.11134" lon="6.00149">
        <ele>1004.5999755859</ele>
        <time>2024-10-15T06:09:25.000Z</time>
      </trkpt>
      <trkpt lat="45.11134" lon="6.00149">
        <ele>1004.5999755859</ele>
        <time>2024-10-15T06:09:26.000Z</time>
      </trkpt>
      <trkpt lat="45.11134" lon="6.00148">
        <ele>1004.799987793</ele>
        <time>2024-10-15T06:09:27.000Z</time>
      </trkpt>
      <trkpt lat="45.11134" lon="6.00148">
        <ele>1005</ele>
        <time>2024-10-15T06:09:28.000Z</time>
      </trkpt>
      <trkpt lat="45.11134" lon="6.00148">
        <ele>1005.200012207</ele>
        <time>2024-10-15T06:09:29.000Z</time>
      </trkpt>
      <trkpt lat="45.11134" lon="6.00148">
        <ele>1005.4000244141</ele>
        <time>2024-10-15T06:09:30.000Z</time>
      </trkpt>
      <trkpt lat="45.11134" lon="6.00148">
        <ele>1005.5999755859</ele>
        <time>2024-10-15T06:09:31.000Z</time>
      </trkpt>
      <trkpt lat="45.11134" lon="6.00148">
        <ele>1005.799987793</ele>
        <time>2024-10-15T06:09:32.000Z</time>
      </trkpt>
      <trkpt lat="45.11134" lon="6.00148">
        <ele>1006</ele>
        <time>2024-10-15T06:09:33.000Z</time>
      </trkpt>
      <trkpt lat="45.11134" lon="6.00147">
        <ele>1006.200012207</ele>
        <time>2024-10-15T06:09:34.000Z</time>
      </trkpt>
      <trkpt lat="45.11134" lon="6.00147">
        <ele>1006.200012207</ele>
        <time>2024-10-15T06:09:35.000Z</time>
      </trkpt>
      <trkpt lat="45.11134" lon="6.00146">
        <ele>1006.200012207</ele>
        <time>2024-10-15T06:09:36.000Z</time>
      </trkpt>
      <trkpt lat="45.11134" lon="6.00146">
        <ele>1006.200012207</ele>
        <time>2024-10-15T06:09:37.000Z</time>
      </trkpt>
      <trkpt lat="45.11135" lon="6.00145">
        <ele>1006.200012207</ele>
        <time>2024-10-15T06:09:38.000Z</time>
      </trkpt>
      <trkpt lat="45.11135" lon="6.00145">
        <ele>1006.200012207</ele>
        <time>2024-10-15T06:09:39.000Z</time>
      </trkpt>
      <trkpt lat="45.11135" lon="6.00145">
        <ele>1006.200012207</ele>
        <time>2024-10-15T06:09:40.000Z</time>
      </trkpt>
      <trkpt lat="45.11135" lon="6.00145">
        <ele>1006.200012207</ele>
        <time>2024-10-15T06:09:41.000Z</time>
      </trkpt>
      <trkpt lat="45.11135" lon="6.00145">
        <ele>1006.200012207</ele>
        <time>2024-10-15T06:09:42.000Z</time>
      </trkpt>
      <trkpt lat="45.11135" lon="6.00145">
        <ele>1006.4000244141</ele>
        <time>2024-10-15T06:09:43.000Z</time>
      </trkpt>
      <trkpt lat="45.11136" lon="6.00145">
        <ele>1006.5999755859</ele>
        <time>2024-10-15T06:09:44.000Z</time>
      </trkpt>
      <trkpt lat="45.11136" lon="6.00145">
        <ele>1006.5999755859</ele>
        <time>2024-10-15T06:09:45.000Z</time>
      </trkpt>
      <trkpt lat="45.11136" lon="6.00147">
        <ele>1006.799987793</ele>
        <time>2024-10-15T06:09:46.000Z</time>
      </trkpt>
      <trkpt lat="45.11136" lon="6.00147">
        <ele>1006.799987793</ele>
        <time>2024-10-15T06:09:47.000Z</time>
      </trkpt>
      <trkpt lat="45.11137" lon="6.00147">
        <ele>1007</ele>
        <time>2024-10-15T06:09:48.000Z</time>
      </trkpt>
      <trkpt lat="45.11137" lon="6.00148">
        <ele>1007.200012207</ele>
        <time>2024-10-15T06:09:49.000Z</time>
      </trkpt>
      <trkpt lat="45.11137" lon="6.00148">
        <ele>1007.4000244141</ele>
        <time>2024-10-15T06:09:50.000Z</time>
      </trkpt>
      <trkpt lat="45.11138" lon="6.00148">
        <ele>1007.4000244141</ele>
        <time>2024-10-15T06:09:51.000Z</time>
      </trkpt>
      <trkpt lat="45.11138" lon="6.00149">
        <ele>1007.5999755859</ele>
        <time>2024-10-15T06:09:52.000Z</time>
      </trkpt>
      <trkpt lat="45.11139" lon="6.0015">
        <ele>1007.799987793</ele>
        <time>2024-10-15T06:09:53.000Z</time>
      </trkpt>
      <trkpt lat="45.11139" lon="6.00151">
        <ele>1008</ele>
        <time>2024-10-15T06:09:54.000Z</time>
      </trkpt>
      <trkpt lat="45.11139" lon="6.00151">
        <ele>1008</ele>
        <time>2024-10-15T06:09:55.000Z</time>
      </trkpt>
      <trkpt lat="45.1114" lon="6.00151">
        <ele>1008.200012207</ele>
        <time>2024-10-15T06:09:56.000Z</time>
      </trkpt>
      <trkpt lat="45.11139" lon="6.0015">
        <ele>1008.5999755859</ele>
        <time>2024-10-15T06:09:57.000Z</time>
      </trkpt>
      <trkpt lat="45.11139" lon="6.0015">
        <ele>1008.799987793</ele>
        <time>2024-10-15T06:09:58.000Z</time>
      </trkpt>
      <trkpt lat="45.11139" lon="6.0015">
        <ele>1009</ele>
        <time>2024-10-15T06:09:59.000Z</time>
      </trkpt>
      <trkpt lat="45.1114" lon="6.00149">
        <ele>1009.200012207</ele>
        <time>2024-10-15T06:10:00.000Z</time>
      </trkpt>
      <trkpt lat="45.1114" lon="6.00148">
        <ele>1009.200012207</ele>
        <time>2024-10-15T06:10:01.000Z</time>
      </trkpt>
      <trkpt lat="45.1114" lon="6.00148">
        <ele>1009.4000244141</ele>
        <time>2024-10-15T06:10:02.000Z</time>
      </trkpt>
      <trkpt lat="45.1114" lon="6.00148">
        <ele>1009.5999755859</ele>
        <time>2024-10-15T06:10:03.000Z</time>
      </trkpt>
      <trkpt lat="45.11141" lon="6.00148">
        <ele>1009.799987793</ele>
        <time>2024-10-15T06:10:04.000Z</time>
      </trkpt>
      <trkpt lat="45.11141" lon="6.00148">
        <ele>1010</ele>
        <time>2024-10-15T06:10:05.000Z</time>
      </trkpt>
      <trkpt lat="45.11141" lon="6.00149">
        <ele>1010.4000244141</ele>
        <time>2024-10-15T06:10:06.000Z</time>
      </trkpt>
      <trkpt lat="45.11141" lon="6.00148">
        <ele>1010.5999755859</ele>
        <time>2024-10-15T06:10:07.000Z</time>
      </trkpt>
      <trkpt lat="45.11141" lon="6.00148">
        <ele>1010.5999755859</ele>
        <time>2024-10-15T06:10:08.000Z</time>
      </trkpt>
      <trkpt lat="45.11141" lon="6.00148">
        <ele>1010.799987793</ele>
        <time>2024-10-15T06:10:09.000Z</time>
      </trkpt>
      <trkpt lat="45.11141" lon="6.00148">
        <ele>1011</ele>
        <time>2024-10-15T06:10:10.000Z</time>
      </trkpt>
      <trkpt lat="45.11142" lon="6.00148">
        <ele>1011.200012207</ele>
        <time>2024-10-15T06:10:11.000Z</time>
      </trkpt>
      <trkpt lat="45.11142" lon="6.00148">
        <ele>1011.4000244141</ele>
        <time>2024-10-15T06:10:12.000Z</time>
      </trkpt>
      <trkpt lat="45.11142" lon="6.00148">
        <ele>1011.5999755859</ele>
        <time>2024-10-15T06:10:13.000Z</time>
      </trkpt>
      <trkpt lat="45.11142" lon="6.00148">
        <ele>1011.5999755859</ele>
        <time>2024-10-15T06:10:14.000Z</time>
      </trkpt>
      <trkpt lat="45.11142" lon="6.00148">
        <ele>1011.5999755859</ele>
        <time>2024-10-15T06:10:15.000Z</time>
      </trkpt>
      <trkpt lat="45.11142" lon="6.00148">
        <ele>1011.799987793</ele>
        <time>2024-10-15T06:10:16.000Z</time>
      </trkpt>
      <trkpt lat="45.11142" lon="6.00148">
        <ele>1012</ele>
        <time>2024-10-15T06:10:17.000Z</time>
      </trkpt>
      <trkpt lat="45.11142" lon="6.00148">
        <ele>1012</ele>
        <time>2024-10-15T06:10:18.000Z</time>
      </trkpt>
      <trkpt lat="45.11142" lon="6.00148">
        <ele>1012.200012207</ele>
        <time>2024-10-15T06:10:19.000Z</time>
      </trkpt>
      <trkpt lat="45.11142" lon="6.00148">
        <ele>1012.4000244141</ele>
        <time>2024-10-15T06:10:20.000Z</time>
      </trkpt>
      <trkpt lat="45.11142" lon="6.00148">
        <ele>1012.5999755859</ele>
        <time>2024-10-15T06:10:21.000Z</time>
      </trkpt>
      <trkpt lat="45.11142" lon="6.00148">
        <ele>1012.5999755859</ele>
        <time>2024-10-15T06:10:22.000Z</time>
      </trkpt>
      <trkpt lat="45.11142" lon="6.00148">
        <ele>1012.799987793</ele>
        <time>2024-10-15T06:10:23.000Z</time>
      </trkpt>
      <trkpt lat="45.11141" lon="6.00148">
        <ele>1013</ele>
        <time>2024-10-15T06:10:24.000Z</time>
      </trkpt>
      <trkpt lat="45.11141" lon="6.00148">
        <ele>1013.200012207</ele>
        <time>2024-10-15T06:10:25.000Z</time>
      </trkpt>
      <trkpt lat="45.11141" lon="6.00148">
        <ele>1013.4000244141</ele>
        <time>2024-10-15T06:10:26.000Z</time>
      </trkpt>
      <trkpt lat="45.11141" lon="6.00148">
        <ele>1013.5999755859</ele>
        <time>2024-10-15T06:10:27.000Z</time>
      </trkpt>
      <trkpt lat="45.11141" lon="6.00147">
        <ele>1013.5999755859</ele>
        <time>2024-10-15T06:10:28.000Z</time>
      </trkpt>
      <trkpt lat="45.11141" lon="6.00147">
        <ele>1013.799987793</ele>
        <time>2024-10-15T06:10:29.000Z</time>
      </trkpt>
      <trkpt lat="45.11141" lon="6.00147">
        <ele>1014.200012207</ele>
        <time>2024-10-15T06:10:30.000Z</time>
      </trkpt>
      <trkpt lat="45.11141" lon="6.00146">
        <ele>1014.4000244141</ele>
        <time>2024-10-15T06:10:31.000Z</time>
      </trkpt>
      <trkpt lat="45.11141" lon="6.00145">
        <ele>1014.4000244141</ele>
        <time>2024-10-15T06:10:32.000Z</time>
      </trkpt>
      <trkpt lat="45.11141" lon="6.00144">
        <ele>1014.799987793</ele>
        <time>2024-10-15T06:10:33.000Z</time>
      </trkpt>
      <trkpt lat="45.11141" lon="6.00144">
        <ele>1014.799987793</ele>
        <time>2024-10-15T06:10:34.000Z</time>
      </trkpt>
      <trkpt lat="45.11141" lon="6.00143">
        <ele>1015.200012207</ele>
        <time>2024-10-15T06:10:35.000Z</time>
      </trkpt>
      <trkpt lat="45.11141" lon="6.00143">
        <ele>1015.4000244141</ele>
        <time>2024-10-15T06:10:36.000Z</time>
      </trkpt>
      <trkpt lat="45.11141" lon="6.00142">
        <ele>1015.4000244141</ele>
        <time>2024-10-15T06:10:37.000Z</time>
      </trkpt>
      <trkpt lat="45.11141" lon="6.00142">
        <ele>1015.5999755859</ele>
        <time>2024-10-15T06:10:38.000Z</time>
      </trkpt>
      <trkpt lat="45.11141" lon="6.00141">
        <ele>1015.799987793</ele>
        <time>2024-10-15T06:10:39.000Z</time>
      </trkpt>
      <trkpt lat="45.11141" lon="6.00141">
        <ele>1016.200012207</ele>
        <time>2024-10-15T06:10:40.000Z</time>
      </trkpt>
      <trkpt lat="45.1114" lon="6.0014">
        <ele>1016.200012207</ele>
        <time>2024-10-15T06:10:41.000Z</time>
      </trkpt>
      <trkpt lat="45.1114" lon="6.00139">
        <ele>1016.4000244141</ele>
        <time>2024-10-15T06:10:42.000Z</time>
      </trkpt>
      <trkpt lat="45.1114" lon="6.00139">
        <ele>1016.799987793</ele>
        <time>2024-10-15T06:10:43.000Z</time>
      </trkpt>
      <trkpt lat="45.11139" lon="6.00138">
        <ele>1016.799987793</ele>
        <time>2024-10-15T06:10:44.000Z</time>
      </trkpt>
      <trkpt lat="45.11139" lon="6.00138">
        <ele>1017</ele>
        <time>2024-10-15T06:10:45.000Z</time>
      </trkpt>
      <trkpt lat="45.11139" lon="6.00138">
        <ele>1017.200012207</ele>
        <time>2024-10-15T06:10:46.000Z</time>
      </trkpt>
      <trkpt lat="45.11138" lon="6.00137">
        <ele>1017.4000244141</ele>
        <time>2024-10-15T06:10:47.000Z</time>
      </trkpt>
      <trkpt lat="45.11138" lon="6.00137">
        <ele>1017.799987793</ele>
        <time>2024-10-15T06:10:48.000Z</time>
      </trkpt>
      <trkpt lat="45.11138" lon="6.00136">
        <ele>1017.799987793</ele>
        <time>2024-10-15T06:10:49.000Z</time>
      </trkpt>
      <trkpt lat="45.11138" lon="6.00136">
        <ele>1018</ele>
        <time>2024-10-15T06:10:50.000Z</time>
      </trkpt>
      <trkpt lat="45.11137" lon="6.00136">
        <ele>1018.200012207</ele>
        <time>2024-10-15T06:10:51.000Z</time>
      </trkpt>
      <trkpt lat="45.11137" lon="6.00136">
        <ele>1018.4000244141</ele>
        <time>2024-10-15T06:10:52.000Z</time>
      </trkpt>
      <trkpt lat="45.11137" lon="6.00136">
        <ele>1018.5999755859</ele>
        <time>2024-10-15T06:10:53.000Z</time>
      </trkpt>
      <trkpt lat="45.11136" lon="6.00136">
        <ele>1018.799987793</ele>
        <time>2024-10-15T06:10:54.000Z</time>
      </trkpt>
      <trkpt lat="45.11136" lon="6.00136">
        <ele>1019</ele>
        <time>2024-10-15T06:10:55.000Z</time>
      </trkpt>
      <trkpt lat="45.11136" lon="6.00136">
        <ele>1019.200012207</ele>
        <time>2024-10-15T06:10:56.000Z</time>
      </trkpt>
      <trkpt lat="45.11136" lon="6.00135">
        <ele>1019.4000244141</ele>
        <time>2024-10-15T06:10:57.000Z</time>
      </trkpt>
      <trkpt lat="45.11136" lon="6.00135">
        <ele>1019.4000244141</ele>
        <time>2024-10-15T06:10:58.000Z</time>
      </trkpt>
      <trkpt lat="45.11135" lon="6.00135">
        <ele>1019.5999755859</ele>
        <time>2024-10-15T06:10:59.000Z</time>
      </trkpt>
      <trkpt lat="45.11135" lon="6.00134">
        <ele>1019.799987793</ele>
        <time>2024-10-15T06:11:00.000Z</time>
      </trkpt>
      <trkpt lat="45.11135" lon="6.00134">
        <ele>1020</ele>
        <time>2024-10-15T06:11:01.000Z</time>
      </trkpt>
      <trkpt lat="45.11134" lon="6.00134">
        <ele>1020.200012207</ele>
        <time>2024-10-15T06:11:02.000Z</time>
      </trkpt>
      <trkpt lat="45.11134" lon="6.00133">
        <ele>1020.4000244141</ele>
        <time>2024-10-15T06:11:03.000Z</time>
      </trkpt>
      <trkpt lat="45.11133" lon="6.00133">
        <ele>1020.5999755859</ele>
        <time>2024-10-15T06:11:04.000Z</time>
      </trkpt>
      <trkpt lat="45.11133" lon="6.00133">
        <ele>1020.799987793</ele>
        <time>2024-10-15T06:11:05.000Z</time>
      </trkpt>
      <trkpt lat="45.11133" lon="6.00133">
        <ele>1021</ele>
        <time>2024-10-15T06:11:06.000Z</time>
      </trkpt>
      <trkpt lat="45.11132" lon="6.00133">
        <ele>1021.200012207</ele>
        <time>2024-10-15T06:11:07.000Z</time>
      </trkpt>
      <trkpt lat="45.11131" lon="6.00134">
        <ele>1021.4000244141</ele>
        <time>2024-10-15T06:11:08.000Z</time>
      </trkpt>
      <trkpt lat="45.1113" lon="6.00133">
        <ele>1021.5999755859</ele>
        <time>2024-10-15T06:11:09.000Z</time>
      </trkpt>
      <trkpt lat="45.11128" lon="6.00133">
        <ele>1021.799987793</ele>
        <time>2024-10-15T06:11:10.000Z</time>
      </trkpt>
      <trkpt lat="45.11127" lon="6.00133">
        <ele>1021.799987793</ele>
        <time>2024-10-15T06:11:11.000Z</time>
      </trkpt>
      <trkpt lat="45.11126" lon="6.00132">
        <ele>1022</ele>
        <time>2024-10-15T06:11:12.000Z</time>
      </trkpt>
      <trkpt lat="45.11125" lon="6.00133">
        <ele>1022</ele>
        <time>2024-10-15T06:11:13.000Z</time>
      </trkpt>
      <trkpt lat="45.11123" lon="6.00134">
        <ele>1022.200012207</ele>
        <time>2024-10-15T06:11:14.000Z</time>
      </trkpt>
      <trkpt lat="45.11121" lon="6.00135">
        <ele>1022.200012207</ele>
        <time>2024-10-15T06:11:15.000Z</time>
      </trkpt>
      <trkpt lat="45.11119" lon="6.00136">
        <ele>1022.4000244141</ele>
        <time>2024-10-15T06:11:16.000Z</time>
      </trkpt>
      <trkpt lat="45.11118" lon="6.00136">
        <ele>1022.5999755859</ele>
        <time>2024-10-15T06:11:17.000Z</time>
      </trkpt>
      <trkpt lat="45.11117" lon="6.00136">
        <ele>1022.5999755859</ele>
        <time>2024-10-15T06:11:18.000Z</time>
      </trkpt>
      <trkpt lat="45.11116" lon="6.00135">
        <ele>1022.799987793</ele>
        <time>2024-10-15T06:11:19.000Z</time>
      </trkpt>
      <trkpt lat="45.11115" lon="6.00134">
        <ele>1022.799987793</ele>
        <time>2024-10-15T06:11:20.000Z</time>
      </trkpt>
      <trkpt lat="45.11114" lon="6.00134">
        <ele>1023</ele>
        <time>2024-10-15T06:11:21.000Z</time>
      </trkpt>
      <trkpt lat="45.11114" lon="6.00134">
        <ele>1023.200012207</ele>
        <time>2024-10-15T06:11:22.000Z</time>
      </trkpt>
      <trkpt lat="45.11113" lon="6.00135">
        <ele>1023.4000244141</ele>
        <time>2024-10-15T06:11:23.000Z</time>
      </trkpt>
      <trkpt lat="45.11113" lon="6.00135">
        <ele>1023.5999755859</ele>
        <time>2024-10-15T06:11:24.000Z</time>
      </trkpt>
      <trkpt lat="45.11113" lon="6.00134">
        <ele>1023.799987793</ele>
        <time>2024-10-15T06:11:25.000Z</time>
      </trkpt>
      <trkpt lat="45.11112" lon="6.00134">
        <ele>1024</ele>
        <time>2024-10-15T06:11:26.000Z</time>
      </trkpt>
      <trkpt lat="45.11112" lon="6.00135">
        <ele>1024.1999511719</ele>
        <time>2024-10-15T06:11:27.000Z</time>
      </trkpt>
      <trkpt lat="45.11111" lon="6.00135">
        <ele>1024.4000244141</ele>
        <time>2024-10-15T06:11:28.000Z</time>
      </trkpt>
      <trkpt lat="45.11111" lon="6.00136">
        <ele>1024.5999755859</ele>
        <time>2024-10-15T06:11:29.000Z</time>
      </trkpt>
      <trkpt lat="45.1111" lon="6.00137">
        <ele>1024.5999755859</ele>
        <time>2024-10-15T06:11:30.000Z</time>
      </trkpt>
      <trkpt lat="45.11109" lon="6.00136">
        <ele>1024.8000488281</ele>
        <time>2024-10-15T06:11:31.000Z</time>
      </trkpt>
      <trkpt lat="45.11108" lon="6.00136">
        <ele>1025</ele>
        <time>2024-10-15T06:11:32.000Z</time>
      </trkpt>
      <trkpt lat="45.11108" lon="6.00135">
        <ele>1025.1999511719</ele>
        <time>2024-10-15T06:11:33.000Z</time>
      </trkpt>
      <trkpt lat="45.11107" lon="6.00134">
        <ele>1025.1999511719</ele>
        <time>2024-10-15T06:11:34.000Z</time>
      </trkpt>
      <trkpt lat="45.11106" lon="6.00135">
        <ele>1025.5999755859</ele>
        <time>2024-10-15T06:11:35.000Z</time>
      </trkpt>
      <trkpt lat="45.11106" lon="6.00135">
        <ele>1025.8000488281</ele>
        <time>2024-10-15T06:11:36.000Z</time>
      </trkpt>
      <trkpt lat="45.11105" lon="6.00134">
        <ele>1026</ele>
        <time>2024-10-15T06:11:37.000Z</time>
      </trkpt>
      <trkpt lat="45.11105" lon="6.00134">
        <ele>1026</ele>
        <time>2024-10-15T06:11:38.000Z</time>
      </trkpt>
      <trkpt lat="45.11104" lon="6.00134">
        <ele>1026.1999511719</ele>
        <time>2024-10-15T06:11:39.000Z</time>
      </trkpt>
      <trkpt lat="45.11103" lon="6.00134">
        <ele>1026.1999511719</ele>
        <time>2024-10-15T06:11:40.000Z</time>
      </trkpt>
      <trkpt lat="45.11102" lon="6.00134">
        <ele>1026.4000244141</ele>
        <time>2024-10-15T06:11:41.000Z</time>
      </trkpt>
      <trkpt lat="45.11102" lon="6.00133">
        <ele>1026.4000244141</ele>
        <time>2024-10-15T06:11:42.000Z</time>
      </trkpt>
      <trkpt lat="45.11101" lon="6.00133">
        <ele>1026.4000244141</ele>
        <time>2024-10-15T06:11:43.000Z</time>
      </trkpt>
      <trkpt lat="45.11101" lon="6.00133">
        <ele>1026.5999755859</ele>
        <time>2024-10-15T06:11:44.000Z</time>
      </trkpt>
      <trkpt lat="45.111" lon="6.00133">
        <ele>1026.8000488281</ele>
        <time>2024-10-15T06:11:45.000Z</time>
      </trkpt>
      <trkpt lat="45.11099" lon="6.00133">
        <ele>1027</ele>
        <time>2024-10-15T06:11:46.000Z</time>
      </trkpt>
      <trkpt lat="45.11098" lon="6.00133">
        <ele>1027.1999511719</ele>
        <time>2024-10-15T06:11:47.000Z</time>
      </trkpt>
      <trkpt lat="45.11098" lon="6.00134">
        <ele>1027.1999511719</ele>
        <time>2024-10-15T06:11:48.000Z</time>
      </trkpt>
      <trkpt lat="45.11098" lon="6.00134">
        <ele>1027.4000244141</ele>
        <time>2024-10-15T06:11:49.000Z</time>
      </trkpt>
      <trkpt lat="45.11098" lon="6.00135">
        <ele>1027.5999755859</ele>
        <time>2024-10-15T06:11:50.000Z</time>
      </trkpt>
      <trkpt lat="45.11097" lon="6.00135">
        <ele>1027.8000488281</ele>
        <time>2024-10-15T06:11:51.000Z</time>
      </trkpt>
      <trkpt lat="45.11097" lon="6.00134">
        <ele>1028</ele>
        <time>2024-10-15T06:11:52.000Z</time>
      </trkpt>
      <trkpt lat="45.11096" lon="6.00135">
        <ele>1028.1999511719</ele>
        <time>2024-10-15T06:11:53.000Z</time>
      </trkpt>
      <trkpt lat="45.11096" lon="6.00136">
        <ele>1028.4000244141</ele>
        <time>2024-10-15T06:11:54.000Z</time>
      </trkpt>
      <trkpt lat="45.11095" lon="6.00137">
        <ele>1028.5999755859</ele>
        <time>2024-10-15T06:11:55.000Z</time>
      </trkpt>
      <trkpt lat="45.11095" lon="6.00137">
        <ele>1028.8000488281</ele>
        <time>2024-10-15T06:11:56.000Z</time>
      </trkpt>
      <trkpt lat="45.11094" lon="6.00138">
        <ele>1028.8000488281</ele>
        <time>2024-10-15T06:11:57.000Z</time>
      </trkpt>
      <trkpt lat="45.11094" lon="6.00139">
        <ele>1029</ele>
        <time>2024-10-15T06:11:58.000Z</time>
      </trkpt>
      <trkpt lat="45.11093" lon="6.00139">
        <ele>1029.1999511719</ele>
        <time>2024-10-15T06:11:59.000Z</time>
      </trkpt>
      <trkpt lat="45.11093" lon="6.00139">
        <ele>1029.4000244141</ele>
        <time>2024-10-15T06:12:00.000Z</time>
      </trkpt>
      <trkpt lat="45.11092" lon="6.0014">
        <ele>1029.4000244141</ele>
        <time>2024-10-15T06:12:01.000Z</time>
      </trkpt>
      <trkpt lat="45.11092" lon="6.0014">
        <ele>1029.5999755859</ele>
        <time>2024-10-15T06:12:02.000Z</time>
      </trkpt>
      <trkpt lat="45.11092" lon="6.0014">
        <ele>1029.5999755859</ele>
        <time>2024-10-15T06:12:03.000Z</time>
      </trkpt>
      <trkpt lat="45.11091" lon="6.0014">
        <ele>1029.8000488281</ele>
        <time>2024-10-15T06:12:04.000Z</time>
      </trkpt>
      <trkpt lat="45.1109" lon="6.0014">
        <ele>1029.8000488281</ele>
        <time>2024-10-15T06:12:05.000Z</time>
      </trkpt>
      <trkpt lat="45.1109" lon="6.00141">
        <ele>1029.8000488281</ele>
        <time>2024-10-15T06:12:06.000Z</time>
      </trkpt>
      <trkpt lat="45.1109" lon="6.00141">
        <ele>1030</ele>
        <time>2024-10-15T06:12:07.000Z</time>
      </trkpt>
      <trkpt lat="45.11089" lon="6.00141">
        <ele>1030.1999511719</ele>
        <time>2024-10-15T06:12:08.000Z</time>
      </trkpt>
      <trkpt lat="45.11089" lon="6.00141">
        <ele>1030.4000244141</ele>
        <time>2024-10-15T06:12:09.000Z</time>
      </trkpt>
      <trkpt lat="45.11089" lon="6.00142">
        <ele>1030.4000244141</ele>
        <time>2024-10-15T06:12:10.000Z</time>
      </trkpt>
      <trkpt lat="45.11089" lon="6.00143">
        <ele>1030.4000244141</ele>
        <time>2024-10-15T06:12:11.000Z</time>
      </trkpt>
      <trkpt lat="45.11089" lon="6.00143">
        <ele>1030.5999755859</ele>
        <time>2024-10-15T06:12:12.000Z</time>
      </trkpt>
      <trkpt lat="45.11089" lon="6.00143">
        <ele>1030.8000488281</ele>
        <time>2024-10-15T06:12:13.000Z</time>
      </trkpt>
      <trkpt lat="45.11089" lon="6.00144">
        <ele>1030.8000488281</ele>
        <time>2024-10-15T06:12:14.000Z</time>
      </trkpt>
      <trkpt lat="45.11089" lon="6.00144">
        <ele>1031</ele>
        <time>2024-10-15T06:12:15.000Z</time>
      </trkpt>
      <trkpt lat="45.11088" lon="6.00145">
        <ele>1031</ele>
        <time>2024-10-15T06:12:16.000Z</time>
      </trkpt>
      <trkpt lat="45.11088" lon="6.00145">
        <ele>1031.1999511719</ele>
        <time>2024-10-15T06:12:17.000Z</time>
      </trkpt>
      <trkpt lat="45.11088" lon="6.00146">
        <ele>1031.1999511719</ele>
        <time>2024-10-15T06:12:18.000Z</time>
      </trkpt>
      <trkpt lat="45.11088" lon="6.00146">
        <ele>1031.4000244141</ele>
        <time>2024-10-15T06:12:19.000Z</time>
      </trkpt>
      <trkpt lat="45.11087" lon="6.00146">
        <ele>1031.5999755859</ele>
        <time>2024-10-15T06:12:20.000Z</time>
      </trkpt>
      <trkpt lat="45.11087" lon="6.00146">
        <ele>1031.5999755859</ele>
        <time>2024-10-15T06:12:21.000Z</time>
      </trkpt>
      <trkpt lat="45.11087" lon="6.00147">
        <ele>1031.8000488281</ele>
        <time>2024-10-15T06:12:22.000Z</time>
      </trkpt>
      <trkpt lat="45.11087" lon="6.00147">
        <ele>1032.1999511719</ele>
        <time>2024-10-15T06:12:23.000Z</time>
      </trkpt>
      <trkpt lat="45.11087" lon="6.00148">
        <ele>1032.4000244141</ele>
        <time>2024-10-15T06:12:24.000Z</time>
      </trkpt>
      <trkpt lat="45.11086" lon="6.0015">
        <ele>1032.4000244141</ele>
        <time>2024-10-15T06:12:25.000Z</time>
      </trkpt>
      <trkpt lat="45.11086" lon="6.0015">
        <ele>1032.4000244141</ele>
        <time>2024-10-15T06:12:26.000Z</time>
      </trkpt>
      <trkpt lat="45.11086" lon="6.00151">
        <ele>1032.4000244141</ele>
        <time>2024-10-15T06:12:27.000Z</time>
      </trkpt>
      <trkpt lat="45.11085" lon="6.0015">
        <ele>1032.4000244141</ele>
        <time>2024-10-15T06:12:28.000Z</time>
      </trkpt>
      <trkpt lat="45.11084" lon="6.00148">
        <ele>1032.4000244141</ele>
        <time>2024-10-15T06:12:29.000Z</time>
      </trkpt>
      <trkpt lat="45.11083" lon="6.00147">
        <ele>1032.1999511719</ele>
        <time>2024-10-15T06:12:30.000Z</time>
      </trkpt>
      <trkpt lat="45.11082" lon="6.00146">
        <ele>1031.5999755859</ele>
        <time>2024-10-15T06:12:31.000Z</time>
      </trkpt>
      <trkpt lat="45.11082" lon="6.00145">
        <ele>1031.5999755859</ele>
        <time>2024-10-15T06:12:32.000Z</time>
      </trkpt>
      <trkpt lat="45.11082" lon="6.00144">
        <ele>1031.4000244141</ele>
        <time>2024-10-15T06:12:33.000Z</time>
      </trkpt>
      <trkpt lat="45.11082" lon="6.00144">
        <ele>1031.4000244141</ele>
        <time>2024-10-15T06:12:34.000Z</time>
      </trkpt>
      <trkpt lat="45.11082" lon="6.00144">
        <ele>1031.5999755859</ele>
        <time>2024-10-15T06:12:35.000Z</time>
      </trkpt>
      <trkpt lat="45.11082" lon="6.00144">
        <ele>1031.5999755859</ele>
        <time>2024-10-15T06:12:36.000Z</time>
      </trkpt>
      <trkpt lat="45.11083" lon="6.00144">
        <ele>1031.5999755859</ele>
        <time>2024-10-15T06:12:37.000Z</time>
      </trkpt>
      <trkpt lat="45.11083" lon="6.00144">
        <ele>1031.5999755859</ele>
        <time>2024-10-15T06:12:38.000Z</time>
      </trkpt>
      <trkpt lat="45.11083" lon="6.00144">
        <ele>1031.5999755859</ele>
        <time>2024-10-15T06:12:39.000Z</time>
      </trkpt>
      <trkpt lat="45.11083" lon="6.00144">
        <ele>1031.4000244141</ele>
        <time>2024-10-15T06:12:40.000Z</time>
      </trkpt>
      <trkpt lat="45.11083" lon="6.00144">
        <ele>1031.1999511719</ele>
        <time>2024-10-15T06:12:41.000Z</time>
      </trkpt>
      <trkpt lat="45.11083" lon="6.00144">
        <ele>1031.1999511719</ele>
        <time>2024-10-15T06:12:42.000Z</time>
      </trkpt>
      <trkpt lat="45.11083" lon="6.00144">
        <ele>1031.1999511719</ele>
        <time>2024-10-15T06:12:43.000Z</time>
      </trkpt>
      <trkpt lat="45.11083" lon="6.00144">
        <ele>1031.1999511719</ele>
        <time>2024-10-15T06:12:44.000Z</time>
      </trkpt>
      <trkpt lat="45.11083" lon="6.00144">
        <ele>1031.1999511719</ele>
        <time>2024-10-15T06:12:45.000Z</time>
      </trkpt>
      <trkpt lat="45.11083" lon="6.00144">
        <ele>1031.1999511719</ele>
        <time>2024-10-15T06:12:46.000Z</time>
      </trkpt>
      <trkpt lat="45.11083" lon="6.00144">
        <ele>1031.1999511719</ele>
        <time>2024-10-15T06:12:47.000Z</time>
      </trkpt>
      <trkpt lat="45.11083" lon="6.00144">
        <ele>1031.1999511719</ele>
        <time>2024-10-15T06:12:48.000Z</time>
      </trkpt>
      <trkpt lat="45.11083" lon="6.00144">
        <ele>1031.1999511719</ele>
        <time>2024-10-15T06:12:49.000Z</time>
      </trkpt>
      <trkpt lat="45.11083" lon="6.00144">
        <ele>1031.4000244141</ele>
        <time>2024-10-15T06:12:50.000Z</time>
      </trkpt>
      <trkpt lat="45.11083" lon="6.00144">
        <ele>1031.4000244141</ele>
        <time>2024-10-15T06:12:51.000Z</time>
      </trkpt>
      <trkpt lat="45.11083" lon="6.00144">
        <ele>1031.4000244141</ele>
        <time>2024-10-15T06:12:52.000Z</time>
      </trkpt>
      <trkpt lat="45.11083" lon="6.00144">
        <ele>1031.4000244141</ele>
        <time>2024-10-15T06:12:53.000Z</time>
      </trkpt>
      <trkpt lat="45.11083" lon="6.00144">
        <ele>1031.4000244141</ele>
        <time>2024-10-15T06:12:54.000Z</time>
      </trkpt>
      <trkpt lat="45.11083" lon="6.00144">
        <ele>1031.4000244141</ele>
        <time>2024-10-15T06:12:55.000Z</time>
      </trkpt>
      <trkpt lat="45.11083" lon="6.00144">
        <ele>1031.4000244141</ele>
        <time>2024-10-15T06:12:56.000Z</time>
      </trkpt>
      <trkpt lat="45.11083" lon="6.00144">
        <ele>1031.4000244141</ele>
        <time>2024-10-15T06:12:57.000Z</time>
      </trkpt>
      <trkpt lat="45.11083" lon="6.00143">
        <ele>1031.4000244141</ele>
        <time>2024-10-15T06:12:58.000Z</time>
      </trkpt>
      <trkpt lat="45.11083" lon="6.00143">
        <ele>1031.4000244141</ele>
        <time>2024-10-15T06:12:59.000Z</time>
      </trkpt>
      <trkpt lat="45.11083" lon="6.00143">
        <ele>1031.4000244141</ele>
        <time>2024-10-15T06:13:00.000Z</time>
      </trkpt>
      <trkpt lat="45.11083" lon="6.00143">
        <ele>1031.5999755859</ele>
        <time>2024-10-15T06:13:01.000Z</time>
      </trkpt>
      <trkpt lat="45.11083" lon="6.00143">
        <ele>1031.5999755859</ele>
        <time>2024-10-15T06:13:02.000Z</time>
      </trkpt>
      <trkpt lat="45.11083" lon="6.00143">
        <ele>1031.5999755859</ele>
        <time>2024-10-15T06:13:03.000Z</time>
      </trkpt>
      <trkpt lat="45.11083" lon="6.00143">
        <ele>1031.8000488281</ele>
        <time>2024-10-15T06:13:04.000Z</time>
      </trkpt>
      <trkpt lat="45.11083" lon="6.00143">
        <ele>1032</ele>
        <time>2024-10-15T06:13:05.000Z</time>
      </trkpt>
      <trkpt lat="45.11083" lon="6.00143">
        <ele>1032.1999511719</ele>
        <time>2024-10-15T06:13:06.000Z</time>
      </trkpt>
      <trkpt lat="45.11083" lon="6.00143">
        <ele>1032.1999511719</ele>
        <time>2024-10-15T06:13:07.000Z</time>
      </trkpt>
      <trkpt lat="45.11083" lon="6.00143">
        <ele>1032.1999511719</ele>
        <time>2024-10-15T06:13:08.000Z</time>
      </trkpt>
      <trkpt lat="45.11083" lon="6.00143">
        <ele>1032.1999511719</ele>
        <time>2024-10-15T06:13:09.000Z</time>
      </trkpt>
      <trkpt lat="45.11083" lon="6.00143">
        <ele>1032.1999511719</ele>
        <time>2024-10-15T06:13:10.000Z</time>
      </trkpt>
      <trkpt lat="45.11083" lon="6.00143">
        <ele>1032.1999511719</ele>
        <time>2024-10-15T06:13:11.000Z</time>
      </trkpt>
      <trkpt lat="45.11084" lon="6.00143">
        <ele>1032.1999511719</ele>
        <time>2024-10-15T06:13:12.000Z</time>
      </trkpt>
      <trkpt lat="45.11084" lon="6.00143">
        <ele>1032.1999511719</ele>
        <time>2024-10-15T06:13:13.000Z</time>
      </trkpt>
      <trkpt lat="45.11084" lon="6.00143">
        <ele>1032.1999511719</ele>
        <time>2024-10-15T06:13:14.000Z</time>
      </trkpt>
      <trkpt lat="45.11084" lon="6.00143">
        <ele>1032</ele>
        <time>2024-10-15T06:13:15.000Z</time>
      </trkpt>
      <trkpt lat="45.11084" lon="6.00143">
        <ele>1031.8000488281</ele>
        <time>2024-10-15T06:13:16.000Z</time>
      </trkpt>
      <trkpt lat="45.11084" lon="6.00143">
        <ele>1031.5999755859</ele>
        <time>2024-10-15T06:13:17.000Z</time>
      </trkpt>
      <trkpt lat="45.11084" lon="6.00143">
        <ele>1031.4000244141</ele>
        <time>2024-10-15T06:13:18.000Z</time>
      </trkpt>
      <trkpt lat="45.11084" lon="6.00143">
        <ele>1031.4000244141</ele>
        <time>2024-10-15T06:13:19.000Z</time>
      </trkpt>
      <trkpt lat="45.11084" lon="6.00143">
        <ele>1031.1999511719</ele>
        <time>2024-10-15T06:13:20.000Z</time>
      </trkpt>
      <trkpt lat="45.11084" lon="6.00143">
        <ele>1031</ele>
        <time>2024-10-15T06:13:21.000Z</time>
      </trkpt>
      <trkpt lat="45.11084" lon="6.00144">
        <ele>1030.8000488281</ele>
        <time>2024-10-15T06:13:22.000Z</time>
      </trkpt>
      <trkpt lat="45.11084" lon="6.00144">
        <ele>1030.5999755859</ele>
        <time>2024-10-15T06:13:23.000Z</time>
      </trkpt>
      <trkpt lat="45.11085" lon="6.00144">
        <ele>1030.4000244141</ele>
        <time>2024-10-15T06:13:24.000Z</time>
      </trkpt>
      <trkpt lat="45.11085" lon="6.00144">
        <ele>1030.1999511719</ele>
        <time>2024-10-15T06:13:25.000Z</time>
      </trkpt>
      <trkpt lat="45.11086" lon="6.00144">
        <ele>1030</ele>
        <time>2024-10-15T06:13:26.000Z</time>
      </trkpt>
      <trkpt lat="45.11087" lon="6.00144">
        <ele>1030</ele>
        <time>2024-10-15T06:13:27.000Z</time>
      </trkpt>
      <trkpt lat="45.11088" lon="6.00144">
        <ele>1029.8000488281</ele>
        <time>2024-10-15T06:13:28.000Z</time>
      </trkpt>
      <trkpt lat="45.11089" lon="6.00143">
        <ele>1029.5999755859</ele>
        <time>2024-10-15T06:13:29.000Z</time>
      </trkpt>
      <trkpt lat="45.11089" lon="6.00143">
        <ele>1029.5999755859</ele>
        <time>2024-10-15T06:13:30.000Z</time>
      </trkpt>
      <trkpt lat="45.11091" lon="6.00144">
        <ele>1029.5999755859</ele>
        <time>2024-10-15T06:13:31.000Z</time>
      </trkpt>
      <trkpt lat="45.11093" lon="6.00144">
        <ele>1029.1999511719</ele>
        <time>2024-10-15T06:13:32.000Z</time>
      </trkpt>
      <trkpt lat="45.11094" lon="6.00143">
        <ele>1029</ele>
        <time>2024-10-15T06:13:33.000Z</time>
      </trkpt>
      <trkpt lat="45.11095" lon="6.00141">
        <ele>1028.5999755859</ele>
        <time>2024-10-15T06:13:34.000Z</time>
      </trkpt>
      <trkpt lat="45.11095" lon="6.00141">
        <ele>1028.4000244141</ele>
        <time>2024-10-15T06:13:35.000Z</time>
      </trkpt>
      <trkpt lat="45.11096" lon="6.0014">
        <ele>1028</ele>
        <time>2024-10-15T06:13:36.000Z</time>
      </trkpt>
      <trkpt lat="45.11097" lon="6.0014">
        <ele>1027.8000488281</ele>
        <time>2024-10-15T06:13:37.000Z</time>
      </trkpt>
      <trkpt lat="45.11097" lon="6.00139">
        <ele>1027.8000488281</ele>
        <time>2024-10-15T06:13:38.000Z</time>
      </trkpt>
      <trkpt lat="45.11097" lon="6.00138">
        <ele>1027.5999755859</ele>
        <time>2024-10-15T06:13:39.000Z</time>
      </trkpt>
      <trkpt lat="45.11098" lon="6.00136">
        <ele>1027.5999755859</ele>
        <time>2024-10-15T06:13:40.000Z</time>
      </trkpt>
      <trkpt lat="45.11098" lon="6.00135">
        <ele>1027.4000244141</ele>
        <time>2024-10-15T06:13:41.000Z</time>
      </trkpt>
      <trkpt lat="45.11098" lon="6.00134">
        <ele>1027.4000244141</ele>
        <time>2024-10-15T06:13:42.000Z</time>
      </trkpt>
      <trkpt lat="45.11098" lon="6.00133">
        <ele>1027.1999511719</ele>
        <time>2024-10-15T06:13:43.000Z</time>
      </trkpt>
      <trkpt lat="45.11098" lon="6.00133">
        <ele>1027.1999511719</ele>
        <time>2024-10-15T06:13:44.000Z</time>
      </trkpt>
      <trkpt lat="45.11099" lon="6.00133">
        <ele>1027.1999511719</ele>
        <time>2024-10-15T06:13:45.000Z</time>
      </trkpt>
      <trkpt lat="45.111" lon="6.00133">
        <ele>1027.1999511719</ele>
        <time>2024-10-15T06:13:46.000Z</time>
      </trkpt>
      <trkpt lat="45.11101" lon="6.00132">
        <ele>1027.1999511719</ele>
        <time>2024-10-15T06:13:47.000Z</time>
      </trkpt>
      <trkpt lat="45.11102" lon="6.00132">
        <ele>1027.4000244141</ele>
        <time>2024-10-15T06:13:48.000Z</time>
      </trkpt>
      <trkpt lat="45.11103" lon="6.00131">
        <ele>1027.8000488281</ele>
        <time>2024-10-15T06:13:49.000Z</time>
      </trkpt>
      <trkpt lat="45.11103" lon="6.00131">
        <ele>1028</ele>
        <time>2024-10-15T06:13:50.000Z</time>
      </trkpt>
      <trkpt lat="45.11103" lon="6.00131">
        <ele>1028.1999511719</ele>
        <time>2024-10-15T06:13:51.000Z</time>
      </trkpt>
      <trkpt lat="45.11104" lon="6.00131">
        <ele>1028.4000244141</ele>
        <time>2024-10-15T06:13:52.000Z</time>
      </trkpt>
      <trkpt lat="45.11104" lon="6.0013">
        <ele>1028.8000488281</ele>
        <time>2024-10-15T06:13:53.000Z</time>
      </trkpt>
      <trkpt lat="45.11104" lon="6.0013">
        <ele>1029</ele>
        <time>2024-10-15T06:13:54.000Z</time>
      </trkpt>
      <trkpt lat="45.11104" lon="6.00128">
        <ele>1029.1999511719</ele>
        <time>2024-10-15T06:13:55.000Z</time>
      </trkpt>
      <trkpt lat="45.11104" lon="6.00126">
        <ele>1029.4000244141</ele>
        <time>2024-10-15T06:13:56.000Z</time>
      </trkpt>
      <trkpt lat="45.11105" lon="6.00125">
        <ele>1029.5999755859</ele>
        <time>2024-10-15T06:13:57.000Z</time>
      </trkpt>
      <trkpt lat="45.11105" lon="6.00124">
        <ele>1029.8000488281</ele>
        <time>2024-10-15T06:13:58.000Z</time>
      </trkpt>
      <trkpt lat="45.11105" lon="6.00123">
        <ele>1030</ele>
        <time>2024-10-15T06:13:59.000Z</time>
      </trkpt>
      <trkpt lat="45.11106" lon="6.00122">
        <ele>1030.4000244141</ele>
        <time>2024-10-15T06:14:00.000Z</time>
      </trkpt>
      <trkpt lat="45.11105" lon="6.00121">
        <ele>1030.5999755859</ele>
        <time>2024-10-15T06:14:01.000Z</time>
      </trkpt>
      <trkpt lat="45.11105" lon="6.0012">
        <ele>1030.5999755859</ele>
        <time>2024-10-15T06:14:02.000Z</time>
      </trkpt>
      <trkpt lat="45.11106" lon="6.0012">
        <ele>1030.8000488281</ele>
        <time>2024-10-15T06:14:03.000Z</time>
      </trkpt>
      <trkpt lat="45.11107" lon="6.00119">
        <ele>1031</ele>
        <time>2024-10-15T06:14:04.000Z</time>
      </trkpt>
      <trkpt lat="45.11107" lon="6.00118">
        <ele>1031.1999511719</ele>
        <time>2024-10-15T06:14:05.000Z</time>
      </trkpt>
      <trkpt lat="45.11107" lon="6.00116">
        <ele>1031.1999511719</ele>
        <time>2024-10-15T06:14:06.000Z</time>
      </trkpt>
      <trkpt lat="45.11107" lon="6.00115">
        <ele>1031.4000244141</ele>
        <time>2024-10-15T06:14:07.000Z</time>
      </trkpt>
      <trkpt lat="45.11108" lon="6.00114">
        <ele>1031.5999755859</ele>
        <time>2024-10-15T06:14:08.000Z</time>
      </trkpt>
      <trkpt lat="45.11109" lon="6.00115">
        <ele>1031.8000488281</ele>
        <time>2024-10-15T06:14:09.000Z</time>
      </trkpt>
      <trkpt lat="45.1111" lon="6.00115">
        <ele>1032.1999511719</ele>
        <time>2024-10-15T06:14:10.000Z</time>
      </trkpt>
      <trkpt lat="45.1111" lon="6.00115">
        <ele>1032.4000244141</ele>
        <time>2024-10-15T06:14:11.000Z</time>
      </trkpt>
      <trkpt lat="45.11111" lon="6.00114">
        <ele>1032.5999755859</ele>
        <time>2024-10-15T06:14:12.000Z</time>
      </trkpt>
      <trkpt lat="45.11111" lon="6.00114">
        <ele>1032.5999755859</ele>
        <time>2024-10-15T06:14:13.000Z</time>
      </trkpt>
      <trkpt lat="45.11111" lon="6.00113">
        <ele>1032.8000488281</ele>
        <time>2024-10-15T06:14:14.000Z</time>
      </trkpt>
      <trkpt lat="45.11111" lon="6.00113">
        <ele>1033</ele>
        <time>2024-10-15T06:14:15.000Z</time>
      </trkpt>
      <trkpt lat="45.11111" lon="6.00113">
        <ele>1033.1999511719</ele>
        <time>2024-10-15T06:14:16.000Z</time>
      </trkpt>
      <trkpt lat="45.11113" lon="6.00113">
        <ele>1033.1999511719</ele>
        <time>2024-10-15T06:14:17.000Z</time>
      </trkpt>
      <trkpt lat="45.11113" lon="6.00113">
        <ele>1033.4000244141</ele>
        <time>2024-10-15T06:14:18.000Z</time>
      </trkpt>
      <trkpt lat="45.11114" lon="6.00112">
        <ele>1033.8000488281</ele>
        <time>2024-10-15T06:14:19.000Z</time>
      </trkpt>
      <trkpt lat="45.11114" lon="6.00111">
        <ele>1034</ele>
        <time>2024-10-15T06:14:20.000Z</time>
      </trkpt>
      <trkpt lat="45.11114" lon="6.00111">
        <ele>1034.1999511719</ele>
        <time>2024-10-15T06:14:21.000Z</time>
      </trkpt>
      <trkpt lat="45.11115" lon="6.0011">
        <ele>1034.1999511719</ele>
        <time>2024-10-15T06:14:22.000Z</time>
      </trkpt>
      <trkpt lat="45.11115" lon="6.00109">
        <ele>1034.4000244141</ele>
        <time>2024-10-15T06:14:23.000Z</time>
      </trkpt>
      <trkpt lat="45.11116" lon="6.00109">
        <ele>1034.5999755859</ele>
        <time>2024-10-15T06:14:24.000Z</time>
      </trkpt>
      <trkpt lat="45.11116" lon="6.00109">
        <ele>1035</ele>
        <time>2024-10-15T06:14:25.000Z</time>
      </trkpt>
      <trkpt lat="45.11117" lon="6.0011">
        <ele>1035.1999511719</ele>
        <time>2024-10-15T06:14:26.000Z</time>
      </trkpt>
      <trkpt lat="45.11118" lon="6.0011">
        <ele>1035.1999511719</ele>
        <time>2024-10-15T06:14:27.000Z</time>
      </trkpt>
      <trkpt lat="45.11118" lon="6.0011">
        <ele>1035.4000244141</ele>
        <time>2024-10-15T06:14:28.000Z</time>
      </trkpt>
      <trkpt lat="45.11118" lon="6.00109">
        <ele>1035.5999755859</ele>
        <time>2024-10-15T06:14:29.000Z</time>
      </trkpt>
      <trkpt lat="45.11119" lon="6.00108">
        <ele>1035.5999755859</ele>
        <time>2024-10-15T06:14:30.000Z</time>
      </trkpt>
      <trkpt lat="45.11121" lon="6.00109">
        <ele>1036</ele>
        <time>2024-10-15T06:14:31.000Z</time>
      </trkpt>
      <trkpt lat="45.11121" lon="6.00108">
        <ele>1036</ele>
        <time>2024-10-15T06:14:32.000Z</time>
      </trkpt>
      <trkpt lat="45.11122" lon="6.00108">
        <ele>1036</ele>
        <time>2024-10-15T06:14:33.000Z</time>
      </trkpt>
      <trkpt lat="45.11124" lon="6.00108">
        <ele>1036.1999511719</ele>
        <time>2024-10-15T06:14:34.000Z</time>
      </trkpt>
      <trkpt lat="45.11125" lon="6.00107">
        <ele>1036.1999511719</ele>
        <time>2024-10-15T06:14:35.000Z</time>
      </trkpt>
      <trkpt lat="45.11124" lon="6.00106">
        <ele>1036.4000244141</ele>
        <time>2024-10-15T06:14:36.000Z</time>
      </trkpt>
      <trkpt lat="45.11125" lon="6.00106">
        <ele>1036.5999755859</ele>
        <time>2024-10-15T06:14:37.000Z</time>
      </trkpt>
      <trkpt lat="45.11125" lon="6.00106">
        <ele>1036.8000488281</ele>
        <time>2024-10-15T06:14:38.000Z</time>
      </trkpt>
      <trkpt lat="45.11125" lon="6.00105">
        <ele>1037.1999511719</ele>
        <time>2024-10-15T06:14:39.000Z</time>
      </trkpt>
      <trkpt lat="45.11125" lon="6.00105">
        <ele>1037.4000244141</ele>
        <time>2024-10-15T06:14:40.000Z</time>
      </trkpt>
      <trkpt lat="45.11125" lon="6.00105">
        <ele>1037.5999755859</ele>
        <time>2024-10-15T06:14:41.000Z</time>
      </trkpt>
      <trkpt lat="45.11124" lon="6.00105">
        <ele>1037.8000488281</ele>
        <time>2024-10-15T06:14:42.000Z</time>
      </trkpt>
      <trkpt lat="45.11124" lon="6.00107">
        <ele>1037.8000488281</ele>
        <time>2024-10-15T06:14:43.000Z</time>
      </trkpt>
      <trkpt lat="45.11124" lon="6.00107">
        <ele>1038</ele>
        <time>2024-10-15T06:14:44.000Z</time>
      </trkpt>
      <trkpt lat="45.11124" lon="6.00107">
        <ele>1038.1999511719</ele>
        <time>2024-10-15T06:14:45.000Z</time>
      </trkpt>
      <trkpt lat="45.11124" lon="6.00107">
        <ele>1038.1999511719</ele>
        <time>2024-10-15T06:14:46.000Z</time>
      </trkpt>
      <trkpt lat="45.11124" lon="6.00107">
        <ele>1038.4000244141</ele>
        <time>2024-10-15T06:14:47.000Z</time>
      </trkpt>
      <trkpt lat="45.11125" lon="6.00108">
        <ele>1038.5999755859</ele>
        <time>2024-10-15T06:14:48.000Z</time>
      </trkpt>
      <trkpt lat="45.11125" lon="6.00107">
        <ele>1038.8000488281</ele>
        <time>2024-10-15T06:14:49.000Z</time>
      </trkpt>
      <trkpt lat="45.11125" lon="6.00107">
        <ele>1039</ele>
        <time>2024-10-15T06:14:50.000Z</time>
      </trkpt>
      <trkpt lat="45.11124" lon="6.00107">
        <ele>1039.1999511719</ele>
        <time>2024-10-15T06:14:51.000Z</time>
      </trkpt>
      <trkpt lat="45.11123" lon="6.00108">
        <ele>1039.5999755859</ele>
        <time>2024-10-15T06:14:52.000Z</time>
      </trkpt>
      <trkpt lat="45.11122" lon="6.00109">
        <ele>1039.8000488281</ele>
        <time>2024-10-15T06:14:53.000Z</time>
      </trkpt>
      <trkpt lat="45.11121" lon="6.00109">
        <ele>1040</ele>
        <time>2024-10-15T06:14:54.000Z</time>
      </trkpt>
      <trkpt lat="45.11121" lon="6.0011">
        <ele>1040</ele>
        <time>2024-10-15T06:14:55.000Z</time>
      </trkpt>
      <trkpt lat="45.1112" lon="6.0011">
        <ele>1040.4000244141</ele>
        <time>2024-10-15T06:14:56.000Z</time>
      </trkpt>
      <trkpt lat="45.1112" lon="6.0011">
        <ele>1040.4000244141</ele>
        <time>2024-10-15T06:14:57.000Z</time>
      </trkpt>
      <trkpt lat="45.11119" lon="6.0011">
        <ele>1040.5999755859</ele>
        <time>2024-10-15T06:14:58.000Z</time>
      </trkpt>
      <trkpt lat="45.11119" lon="6.0011">
        <ele>1040.5999755859</ele>
        <time>2024-10-15T06:14:59.000Z</time>
      </trkpt>
      <trkpt lat="45.11118" lon="6.00109">
        <ele>1040.5999755859</ele>
        <time>2024-10-15T06:15:00.000Z</time>
      </trkpt>
      <trkpt lat="45.11118" lon="6.00109">
        <ele>1040.5999755859</ele>
        <time>2024-10-15T06:15:01.000Z</time>
      </trkpt>
      <trkpt lat="45.11119" lon="6.00108">
        <ele>1041</ele>
        <time>2024-10-15T06:15:02.000Z</time>
      </trkpt>
      <trkpt lat="45.11119" lon="6.00108">
        <ele>1041.1999511719</ele>
        <time>2024-10-15T06:15:03.000Z</time>
      </trkpt>
      <trkpt lat="45.11119" lon="6.00108">
        <ele>1041.4000244141</ele>
        <time>2024-10-15T06:15:04.000Z</time>
      </trkpt>
      <trkpt lat="45.1112" lon="6.00109">
        <ele>1041.4000244141</ele>
        <time>2024-10-15T06:15:05.000Z</time>
      </trkpt>
      <trkpt lat="45.11119" lon="6.0011">
        <ele>1041.5999755859</ele>
        <time>2024-10-15T06:15:06.000Z</time>
      </trkpt>
      <trkpt lat="45.11119" lon="6.0011">
        <ele>1041.8000488281</ele>
        <time>2024-10-15T06:15:07.000Z</time>
      </trkpt>
      <trkpt lat="45.11119" lon="6.0011">
        <ele>1042</ele>
        <time>2024-10-15T06:15:08.000Z</time>
      </trkpt>
      <trkpt lat="45.11119" lon="6.0011">
        <ele>1042</ele>
        <time>2024-10-15T06:15:09.000Z</time>
      </trkpt>
      <trkpt lat="45.11119" lon="6.0011">
        <ele>1042.1999511719</ele>
        <time>2024-10-15T06:15:10.000Z</time>
      </trkpt>
      <trkpt lat="45.11119" lon="6.0011">
        <ele>1042.4000244141</ele>
        <time>2024-10-15T06:15:11.000Z</time>
      </trkpt>
      <trkpt lat="45.11119" lon="6.00109">
        <ele>1042.5999755859</ele>
        <time>2024-10-15T06:15:12.000Z</time>
      </trkpt>
      <trkpt lat="45.11119" lon="6.0011">
        <ele>1042.8000488281</ele>
        <time>2024-10-15T06:15:13.000Z</time>
      </trkpt>
      <trkpt lat="45.11119" lon="6.0011">
        <ele>1042.8000488281</ele>
        <time>2024-10-15T06:15:14.000Z</time>
      </trkpt>
      <trkpt lat="45.11119" lon="6.0011">
        <ele>1043</ele>
        <time>2024-10-15T06:15:15.000Z</time>
      </trkpt>
      <trkpt lat="45.11119" lon="6.0011">
        <ele>1043</ele>
        <time>2024-10-15T06:15:16.000Z</time>
      </trkpt>
      <trkpt lat="45.11119" lon="6.0011">
        <ele>1043.1999511719</ele>
        <time>2024-10-15T06:15:17.000Z</time>
      </trkpt>
      <trkpt lat="45.11119" lon="6.0011">
        <ele>1043.4000244141</ele>
        <time>2024-10-15T06:15:18.000Z</time>
      </trkpt>
      <trkpt lat="45.11119" lon="6.0011">
        <ele>1043.8000488281</ele>
        <time>2024-10-15T06:15:19.000Z</time>
      </trkpt>
      <trkpt lat="45.11119" lon="6.0011">
        <ele>1043.8000488281</ele>
        <time>2024-10-15T06:15:20.000Z</time>
      </trkpt>
      <trkpt lat="45.11119" lon="6.0011">
        <ele>1044</ele>
        <time>2024-10-15T06:15:21.000Z</time>
      </trkpt>
      <trkpt lat="45.11119" lon="6.0011">
        <ele>1044</ele>
        <time>2024-10-15T06:15:22.000Z</time>
      </trkpt>
      <trkpt lat="45.11119" lon="6.0011">
        <ele>1044.1999511719</ele>
        <time>2024-10-15T06:15:23.000Z</time>
      </trkpt>
      <trkpt lat="45.11119" lon="6.0011">
        <ele>1044.4000244141</ele>
        <time>2024-10-15T06:15:24.000Z</time>
      </trkpt>
      <trkpt lat="45.11119" lon="6.0011">
        <ele>1044.5999755859</ele>
        <time>2024-10-15T06:15:25.000Z</time>
      </trkpt>
      <trkpt lat="45.11119" lon="6.0011">
        <ele>1044.8000488281</ele>
        <time>2024-10-15T06:15:26.000Z</time>
      </trkpt>
      <trkpt lat="45.11119" lon="6.0011">
        <ele>1044.8000488281</ele>
        <time>2024-10-15T06:15:27.000Z</time>
      </trkpt>
      <trkpt lat="45.11119" lon="6.0011">
        <ele>1044.8000488281</ele>
        <time>2024-10-15T06:15:28.000Z</time>
      </trkpt>
      <trkpt lat="45.11119" lon="6.0011">
        <ele>1045</ele>
        <time>2024-10-15T06:15:29.000Z</time>
      </trkpt>
      <trkpt lat="45.11119" lon="6.0011">
        <ele>1045</ele>
        <time>2024-10-15T06:15:30.000Z</time>
      </trkpt>
      <trkpt lat="45.11119" lon="6.0011">
        <ele>1045.1999511719</ele>
        <time>2024-10-15T06:15:31.000Z</time>
      </trkpt>
      <trkpt lat="45.11119" lon="6.0011">
        <ele>1045.4000244141</ele>
        <time>2024-10-15T06:15:32.000Z</time>
      </trkpt>
      <trkpt lat="45.11119" lon="6.0011">
        <ele>1045.4000244141</ele>
        <time>2024-10-15T06:15:33.000Z</time>
      </trkpt>
      <trkpt lat="45.11119" lon="6.0011">
        <ele>1045.5999755859</ele>
        <time>2024-10-15T06:15:34.000Z</time>
      </trkpt>
      <trkpt lat="45.11119" lon="6.0011">
        <ele>1045.8000488281</ele>
        <time>2024-10-15T06:15:35.000Z</time>
      </trkpt>
      <trkpt lat="45.11119" lon="6.0011">
        <ele>1045.8000488281</ele>
        <time>2024-10-15T06:15:36.000Z</time>
      </trkpt>
      <trkpt lat="45.11119" lon="6.0011">
        <ele>1046</ele>
        <time>2024-10-15T06:15:37.000Z</time>
      </trkpt>
      <trkpt lat="45.11119" lon="6.0011">
        <ele>1046</ele>
        <time>2024-10-15T06:15:38.000Z</time>
      </trkpt>
      <trkpt lat="45.11119" lon="6.0011">
        <ele>1046.1999511719</ele>
        <time>2024-10-15T06:15:39.000Z</time>
      </trkpt>
      <trkpt lat="45.11119" lon="6.0011">
        <ele>1046.4000244141</ele>
        <time>2024-10-15T06:15:40.000Z</time>
      </trkpt>
      <trkpt lat="45.11119" lon="6.0011">
        <ele>1046.4000244141</ele>
        <time>2024-10-15T06:15:41.000Z</time>
      </trkpt>
      <trkpt lat="45.11119" lon="6.0011">
        <ele>1046.5999755859</ele>
        <time>2024-10-15T06:15:42.000Z</time>
      </trkpt>
      <trkpt lat="45.11118" lon="6.0011">
        <ele>1046.5999755859</ele>
        <time>2024-10-15T06:15:43.000Z</time>
      </trkpt>
      <trkpt lat="45.11118" lon="6.0011">
        <ele>1046.8000488281</ele>
        <time>2024-10-15T06:15:44.000Z</time>
      </trkpt>
      <trkpt lat="45.11118" lon="6.0011">
        <ele>1046.8000488281</ele>
        <time>2024-10-15T06:15:45.000Z</time>
      </trkpt>
      <trkpt lat="45.11118" lon="6.0011">
        <ele>1047</ele>
        <time>2024-10-15T06:15:46.000Z</time>
      </trkpt>
      <trkpt lat="45.11118" lon="6.0011">
        <ele>1047.1999511719</ele>
        <time>2024-10-15T06:15:47.000Z</time>
      </trkpt>
      <trkpt lat="45.11118" lon="6.0011">
        <ele>1047.4000244141</ele>
        <time>2024-10-15T06:15:48.000Z</time>
      </trkpt>
      <trkpt lat="45.11118" lon="6.0011">
        <ele>1047.4000244141</ele>
        <time>2024-10-15T06:15:49.000Z</time>
      </trkpt>
      <trkpt lat="45.11118" lon="6.0011">
        <ele>1047.5999755859</ele>
        <time>2024-10-15T06:15:50.000Z</time>
      </trkpt>
      <trkpt lat="45.11117" lon="6.00111">
        <ele>1047.8000488281</ele>
        <time>2024-10-15T06:15:51.000Z</time>
      </trkpt>
      <trkpt lat="45.11117" lon="6.00111">
        <ele>1047.8000488281</ele>
        <time>2024-10-15T06:15:52.000Z</time>
      </trkpt>
      <trkpt lat="45.11116" lon="6.00111">
        <ele>1048</ele>
        <time>2024-10-15T06:15:53.000Z</time>
      </trkpt>
      <trkpt lat="45.11116" lon="6.00111">
        <ele>1048.1999511719</ele>
        <time>2024-10-15T06:15:54.000Z</time>
      </trkpt>
      <trkpt lat="45.11115" lon="6.00111">
        <ele>1048.1999511719</ele>
        <time>2024-10-15T06:15:55.000Z</time>
      </trkpt>
      <trkpt lat="45.11115" lon="6.0011">
        <ele>1048.5999755859</ele>
        <time>2024-10-15T06:15:56.000Z</time>
      </trkpt>
      <trkpt lat="45.11114" lon="6.0011">
        <ele>1048.5999755859</ele>
        <time>2024-10-15T06:15:57.000Z</time>
      </trkpt>
      <trkpt lat="45.11113" lon="6.00109">
        <ele>1049</ele>
        <time>2024-10-15T06:15:58.000Z</time>
      </trkpt>
      <trkpt lat="45.11112" lon="6.00108">
        <ele>1049.1999511719</ele>
        <time>2024-10-15T06:15:59.000Z</time>
      </trkpt>
      <trkpt lat="45.11111" lon="6.00106">
        <ele>1049.4000244141</ele>
        <time>2024-10-15T06:16:00.000Z</time>
      </trkpt>
      <trkpt lat="45.11111" lon="6.00105">
        <ele>1049.5999755859</ele>
        <time>2024-10-15T06:16:01.000Z</time>
      </trkpt>
      <trkpt lat="45.11111" lon="6.00104">
        <ele>1049.8000488281</ele>
        <time>2024-10-15T06:16:02.000Z</time>
      </trkpt>
      <trkpt lat="45.1111" lon="6.00103">
        <ele>1050</ele>
        <time>2024-10-15T06:16:03.000Z</time>
      </trkpt>
      <trkpt lat="45.1111" lon="6.00103">
        <ele>1050</ele>
        <time>2024-10-15T06:16:04.000Z</time>
      </trkpt>
      <trkpt lat="45.1111" lon="6.00103">
        <ele>1050.1999511719</ele>
        <time>2024-10-15T06:16:05.000Z</time>
      </trkpt>
      <trkpt lat="45.1111" lon="6.00103">
        <ele>1050.1999511719</ele>
        <time>2024-10-15T06:16:06.000Z</time>
      </trkpt>
      <trkpt lat="45.1111" lon="6.00102">
        <ele>1050.4000244141</ele>
        <time>2024-10-15T06:16:07.000Z</time>
      </trkpt>
      <trkpt lat="45.11109" lon="6.00102">
        <ele>1050.4000244141</ele>
        <time>2024-10-15T06:16:08.000Z</time>
      </trkpt>
      <trkpt lat="45.11109" lon="6.00102">
        <ele>1050.5999755859</ele>
        <time>2024-10-15T06:16:09.000Z</time>
      </trkpt>
      <trkpt lat="45.11109" lon="6.00101">
        <ele>1050.8000488281</ele>
        <time>2024-10-15T06:16:10.000Z</time>
      </trkpt>
      <trkpt lat="45.11109" lon="6.00103">
        <ele>1051</ele>
        <time>2024-10-15T06:16:11.000Z</time>
      </trkpt>
      <trkpt lat="45.11109" lon="6.00103">
        <ele>1051</ele>
        <time>2024-10-15T06:16:12.000Z</time>
      </trkpt>
      <trkpt lat="45.11109" lon="6.00103">
        <ele>1051.1999511719</ele>
        <time>2024-10-15T06:16:13.000Z</time>
      </trkpt>
      <trkpt lat="45.11109" lon="6.00102">
        <ele>1051.1999511719</ele>
        <time>2024-10-15T06:16:14.000Z</time>
      </trkpt>
      <trkpt lat="45.11109" lon="6.00105">
        <ele>1051.1999511719</ele>
        <time>2024-10-15T06:16:15.000Z</time>
      </trkpt>
      <trkpt lat="45.11109" lon="6.00105">
        <ele>1051.4000244141</ele>
        <time>2024-10-15T06:16:16.000Z</time>
      </trkpt>
      <trkpt lat="45.11109" lon="6.00105">
        <ele>1051.4000244141</ele>
        <time>2024-10-15T06:16:17.000Z</time>
      </trkpt>
      <trkpt lat="45.11108" lon="6.00105">
        <ele>1051.5999755859</ele>
        <time>2024-10-15T06:16:18.000Z</time>
      </trkpt>
      <trkpt lat="45.11108" lon="6.00105">
        <ele>1051.5999755859</ele>
        <time>2024-10-15T06:16:19.000Z</time>
      </trkpt>
      <trkpt lat="45.11108" lon="6.00105">
        <ele>1052</ele>
        <time>2024-10-15T06:16:20.000Z</time>
      </trkpt>
      <trkpt lat="45.11107" lon="6.00104">
        <ele>1052.1999511719</ele>
        <time>2024-10-15T06:16:21.000Z</time>
      </trkpt>
      <trkpt lat="45.11106" lon="6.00104">
        <ele>1052.1999511719</ele>
        <time>2024-10-15T06:16:22.000Z</time>
      </trkpt>
      <trkpt lat="45.11106" lon="6.00104">
        <ele>1052.4000244141</ele>
        <time>2024-10-15T06:16:23.000Z</time>
      </trkpt>
      <trkpt lat="45.11106" lon="6.00104">
        <ele>1052.4000244141</ele>
        <time>2024-10-15T06:16:24.000Z</time>
      </trkpt>
      <trkpt lat="45.11106" lon="6.00105">
        <ele>1052.5999755859</ele>
        <time>2024-10-15T06:16:25.000Z</time>
      </trkpt>
      <trkpt lat="45.11106" lon="6.00105">
        <ele>1052.8000488281</ele>
        <time>2024-10-15T06:16:26.000Z</time>
      </trkpt>
      <trkpt lat="45.11106" lon="6.00105">
        <ele>1053</ele>
        <time>2024-10-15T06:16:27.000Z</time>
      </trkpt>
      <trkpt lat="45.11106" lon="6.00105">
        <ele>1053</ele>
        <time>2024-10-15T06:16:28.000Z</time>
      </trkpt>
      <trkpt lat="45.11106" lon="6.00105">
        <ele>1053</ele>
        <time>2024-10-15T06:16:29.000Z</time>
      </trkpt>
      <trkpt lat="45.11106" lon="6.00105">
        <ele>1053.1999511719</ele>
        <time>2024-10-15T06:16:30.000Z</time>
      </trkpt>
      <trkpt lat="45.11106" lon="6.00105">
        <ele>1053.1999511719</ele>
        <time>2024-10-15T06:16:31.000Z</time>
      </trkpt>
      <trkpt lat="45.11106" lon="6.00105">
        <ele>1053.4000244141</ele>
        <time>2024-10-15T06:16:32.000Z</time>
      </trkpt>
      <trkpt lat="45.11106" lon="6.00105">
        <ele>1053.4000244141</ele>
        <time>2024-10-15T06:16:33.000Z</time>
      </trkpt>
      <trkpt lat="45.11106" lon="6.00105">
        <ele>1053.4000244141</ele>
        <time>2024-10-15T06:16:34.000Z</time>
      </trkpt>
      <trkpt lat="45.11106" lon="6.00105">
        <ele>1053.4000244141</ele>
        <time>2024-10-15T06:16:35.000Z</time>
      </trkpt>
      <trkpt lat="45.11106" lon="6.00105">
        <ele>1053.4000244141</ele>
        <time>2024-10-15T06:16:36.000Z</time>
      </trkpt>
      <trkpt lat="45.11106" lon="6.00105">
        <ele>1053.4000244141</ele>
        <time>2024-10-15T06:16:37.000Z</time>
      </trkpt>
      <trkpt lat="45.11106" lon="6.00105">
        <ele>1053.4000244141</ele>
        <time>2024-10-15T06:16:38.000Z</time>
      </trkpt>
      <trkpt lat="45.11106" lon="6.00105">
        <ele>1053.4000244141</ele>
        <time>2024-10-15T06:16:39.000Z</time>
      </trkpt>
      <trkpt lat="45.11106" lon="6.00105">
        <ele>1053.4000244141</ele>
        <time>2024-10-15T06:16:40.000Z</time>
      </trkpt>
      <trkpt lat="45.11106" lon="6.00105">
        <ele>1053.4000244141</ele>
        <time>2024-10-15T06:16:41.000Z</time>
      </trkpt>
      <trkpt lat="45.11106" lon="6.00105">
        <ele>1053.5999755859</ele>
        <time>2024-10-15T06:16:42.000Z</time>
      </trkpt>
      <trkpt lat="45.11106" lon="6.00105">
        <ele>1053.5999755859</ele>
        <time>2024-10-15T06:16:43.000Z</time>
      </trkpt>
      <trkpt lat="45.11105" lon="6.00105">
        <ele>1053.8000488281</ele>
        <time>2024-10-15T06:16:44.000Z</time>
      </trkpt>
      <trkpt lat="45.11105" lon="6.00105">
        <ele>1054</ele>
        <time>2024-10-15T06:16:45.000Z</time>
      </trkpt>
      <trkpt lat="45.11105" lon="6.00105">
        <ele>1054</ele>
        <time>2024-10-15T06:16:46.000Z</time>
      </trkpt>
      <trkpt lat="45.11105" lon="6.00105">
        <ele>1054.4000244141</ele>
        <time>2024-10-15T06:16:47.000Z</time>
      </trkpt>
      <trkpt lat="45.11105" lon="6.00105">
        <ele>1054.5999755859</ele>
        <time>2024-10-15T06:16:48.000Z</time>
      </trkpt>
      <trkpt lat="45.11105" lon="6.00105">
        <ele>1054.5999755859</ele>
        <time>2024-10-15T06:16:49.000Z</time>
      </trkpt>
      <trkpt lat="45.11105" lon="6.00105">
        <ele>1054.8000488281</ele>
        <time>2024-10-15T06:16:50.000Z</time>
      </trkpt>
      <trkpt lat="45.11105" lon="6.00105">
        <ele>1055.1999511719</ele>
        <time>2024-10-15T06:16:51.000Z</time>
      </trkpt>
      <trkpt lat="45.11104" lon="6.00105">
        <ele>1055.4000244141</ele>
        <time>2024-10-15T06:16:52.000Z</time>
      </trkpt>
      <trkpt lat="45.11104" lon="6.00105">
        <ele>1055.5999755859</ele>
        <time>2024-10-15T06:16:53.000Z</time>
      </trkpt>
      <trkpt lat="45.11104" lon="6.00105">
        <ele>1055.5999755859</ele>
        <time>2024-10-15T06:16:54.000Z</time>
      </trkpt>
      <trkpt lat="45.11104" lon="6.00105">
        <ele>1055.8000488281</ele>
        <time>2024-10-15T06:16:55.000Z</time>
      </trkpt>
      <trkpt lat="45.11104" lon="6.00106">
        <ele>1056</ele>
        <time>2024-10-15T06:16:56.000Z</time>
      </trkpt>
      <trkpt lat="45.11103" lon="6.00106">
        <ele>1056.4000244141</ele>
        <time>2024-10-15T06:16:57.000Z</time>
      </trkpt>
      <trkpt lat="45.11103" lon="6.00107">
        <ele>1056.5999755859</ele>
        <time>2024-10-15T06:16:58.000Z</time>
      </trkpt>
      <trkpt lat="45.11103" lon="6.00108">
        <ele>1056.8000488281</ele>
        <time>2024-10-15T06:16:59.000Z</time>
      </trkpt>
      <trkpt lat="45.11103" lon="6.00108">
        <ele>1057</ele>
        <time>2024-10-15T06:17:00.000Z</time>
      </trkpt>
      <trkpt lat="45.11102" lon="6.00108">
        <ele>1057</ele>
        <time>2024-10-15T06:17:01.000Z</time>
      </trkpt>
      <trkpt lat="45.11102" lon="6.00109">
        <ele>1057.1999511719</ele>
        <time>2024-10-15T06:17:02.000Z</time>
      </trkpt>
      <trkpt lat="45.11101" lon="6.00109">
        <ele>1057.4000244141</ele>
        <time>2024-10-15T06:17:03.000Z</time>
      </trkpt>
      <trkpt lat="45.11101" lon="6.0011">
        <ele>1057.8000488281</ele>
        <time>2024-10-15T06:17:04.000Z</time>
      </trkpt>
      <trkpt lat="45.11101" lon="6.0011">
        <ele>1057.8000488281</ele>
        <time>2024-10-15T06:17:05.000Z</time>
      </trkpt>
      <trkpt lat="45.111" lon="6.0011">
        <ele>1058</ele>
        <time>2024-10-15T06:17:06.000Z</time>
      </trkpt>
      <trkpt lat="45.111" lon="6.0011">
        <ele>1058.1999511719</ele>
        <time>2024-10-15T06:17:07.000Z</time>
      </trkpt>
      <trkpt lat="45.111" lon="6.00111">
        <ele>1058.1999511719</ele>
        <time>2024-10-15T06:17:08.000Z</time>
      </trkpt>
      <trkpt lat="45.111" lon="6.00111">
        <ele>1058.5999755859</ele>
        <time>2024-10-15T06:17:09.000Z</time>
      </trkpt>
      <trkpt lat="45.111" lon="6.00111">
        <ele>1058.8000488281</ele>
        <time>2024-10-15T06:17:10.000Z</time>
      </trkpt>
      <trkpt lat="45.111" lon="6.00112">
        <ele>1059</ele>
        <time>2024-10-15T06:17:11.000Z</time>
      </trkpt>
      <trkpt lat="45.11099" lon="6.00112">
        <ele>1059.4000244141</ele>
        <time>2024-10-15T06:17:12.000Z</time>
      </trkpt>
      <trkpt lat="45.11099" lon="6.00111">
        <ele>1059.4000244141</ele>
        <time>2024-10-15T06:17:13.000Z</time>
      </trkpt>
      <trkpt lat="45.11099" lon="6.00111">
        <ele>1059.8000488281</ele>
        <time>2024-10-15T06:17:14.000Z</time>
      </trkpt>
      <trkpt lat="45.11099" lon="6.00112">
        <ele>1059.8000488281</ele>
        <time>2024-10-15T06:17:15.000Z</time>
      </trkpt>
      <trkpt lat="45.11099" lon="6.00113">
        <ele>1060.1999511719</ele>
        <time>2024-10-15T06:17:16.000Z</time>
      </trkpt>
      <trkpt lat="45.11099" lon="6.00113">
        <ele>1060.4000244141</ele>
        <time>2024-10-15T06:17:17.000Z</time>
      </trkpt>
      <trkpt lat="45.11098" lon="6.00114">
        <ele>1060.5999755859</ele>
        <time>2024-10-15T06:17:18.000Z</time>
      </trkpt>
      <trkpt lat="45.11098" lon="6.00115">
        <ele>1060.8000488281</ele>
        <time>2024-10-15T06:17:19.000Z</time>
      </trkpt>
      <trkpt lat="45.11098" lon="6.00115">
        <ele>1060.8000488281</ele>
        <time>2024-10-15T06:17:20.000Z</time>
      </trkpt>
      <trkpt lat="45.11098" lon="6.00115">
        <ele>1060.8000488281</ele>
        <time>2024-10-15T06:17:21.000Z</time>
      </trkpt>
      <trkpt lat="45.11097" lon="6.00116">
        <ele>1060.8000488281</ele>
        <time>2024-10-15T06:17:22.000Z</time>
      </trkpt>
      <trkpt lat="45.11097" lon="6.00116">
        <ele>1061</ele>
        <time>2024-10-15T06:17:23.000Z</time>
      </trkpt>
      <trkpt lat="45.11096" lon="6.00116">
        <ele>1061.1999511719</ele>
        <time>2024-10-15T06:17:24.000Z</time>
      </trkpt>
      <trkpt lat="45.11096" lon="6.00115">
        <ele>1061.4000244141</ele>
        <time>2024-10-15T06:17:25.000Z</time>
      </trkpt>
      <trkpt lat="45.11096" lon="6.00116">
        <ele>1061.5999755859</ele>
        <time>2024-10-15T06:17:26.000Z</time>
      </trkpt>
      <trkpt lat="45.11096" lon="6.00117">
        <ele>1061.8000488281</ele>
        <time>2024-10-15T06:17:27.000Z</time>
      </trkpt>
      <trkpt lat="45.11096" lon="6.00118">
        <ele>1062</ele>
        <time>2024-10-15T06:17:28.000Z</time>
      </trkpt>
      <trkpt lat="45.11096" lon="6.00118">
        <ele>1062</ele>
        <time>2024-10-15T06:17:29.000Z</time>
      </trkpt>
      <trkpt lat="45.11096" lon="6.00118">
        <ele>1062.1999511719</ele>
        <time>2024-10-15T06:17:30.000Z</time>
      </trkpt>
      <trkpt lat="45.11096" lon="6.00118">
        <ele>1062.4000244141</ele>
        <time>2024-10-15T06:17:31.000Z</time>
      </trkpt>
      <trkpt lat="45.11096" lon="6.00118">
        <ele>1062.8000488281</ele>
        <time>2024-10-15T06:17:32.000Z</time>
      </trkpt>
      <trkpt lat="45.11096" lon="6.00118">
        <ele>1062.8000488281</ele>
        <time>2024-10-15T06:17:33.000Z</time>
      </trkpt>
      <trkpt lat="45.11096" lon="6.00118">
        <ele>1063</ele>
        <time>2024-10-15T06:17:34.000Z</time>
      </trkpt>
      <trkpt lat="45.11096" lon="6.00117">
        <ele>1063.1999511719</ele>
        <time>2024-10-15T06:17:35.000Z</time>
      </trkpt>
      <trkpt lat="45.11097" lon="6.00117">
        <ele>1063.4000244141</ele>
        <time>2024-10-15T06:17:36.000Z</time>
      </trkpt>
      <trkpt lat="45.11097" lon="6.00117">
        <ele>1063.4000244141</ele>
        <time>2024-10-15T06:17:37.000Z</time>
      </trkpt>
      <trkpt lat="45.11098" lon="6.00117">
        <ele>1063.5999755859</ele>
        <time>2024-10-15T06:17:38.000Z</time>
      </trkpt>
      <trkpt lat="45.11098" lon="6.00117">
        <ele>1063.8000488281</ele>
        <time>2024-10-15T06:17:39.000Z</time>
      </trkpt>
      <trkpt lat="45.11099" lon="6.00117">
        <ele>1064</ele>
        <time>2024-10-15T06:17:40.000Z</time>
      </trkpt>
      <trkpt lat="45.11099" lon="6.00116">
        <ele>1064.1999511719</ele>
        <time>2024-10-15T06:17:41.000Z</time>
      </trkpt>
      <trkpt lat="45.11099" lon="6.00115">
        <ele>1064.4000244141</ele>
        <time>2024-10-15T06:17:42.000Z</time>
      </trkpt>
      <trkpt lat="45.111" lon="6.00115">
        <ele>1064.5999755859</ele>
        <time>2024-10-15T06:17:43.000Z</time>
      </trkpt>
      <trkpt lat="45.111" lon="6.00114">
        <ele>1064.8000488281</ele>
        <time>2024-10-15T06:17:44.000Z</time>
      </trkpt>
      <trkpt lat="45.111" lon="6.00114">
        <ele>1064.8000488281</ele>
        <time>2024-10-15T06:17:45.000Z</time>
      </trkpt>
      <trkpt lat="45.111" lon="6.00113">
        <ele>1065</ele>
        <time>2024-10-15T06:17:46.000Z</time>
      </trkpt>
      <trkpt lat="45.11099" lon="6.00111">
        <ele>1065.1999511719</ele>
        <time>2024-10-15T06:17:47.000Z</time>
      </trkpt>
      <trkpt lat="45.11099" lon="6.0011">
        <ele>1065.4000244141</ele>
        <time>2024-10-15T06:17:48.000Z</time>
      </trkpt>
      <trkpt lat="45.11099" lon="6.00109">
        <ele>1065.4000244141</ele>
        <time>2024-10-15T06:17:49.000Z</time>
      </trkpt>
      <trkpt lat="45.11099" lon="6.00108">
        <ele>1065.5999755859</ele>
        <time>2024-10-15T06:17:50.000Z</time>
      </trkpt>
      <trkpt lat="45.11098" lon="6.00106">
        <ele>1065.5999755859</ele>
        <time>2024-10-15T06:17:51.000Z</time>
      </trkpt>
      <trkpt lat="45.11099" lon="6.00106">
        <ele>1065.8000488281</ele>
        <time>2024-10-15T06:17:52.000Z</time>
      </trkpt>
      <trkpt lat="45.11099" lon="6.00106">
        <ele>1066</ele>
        <time>2024-10-15T06:17:53.000Z</time>
      </trkpt>
      <trkpt lat="45.11099" lon="6.00106">
        <ele>1066.4000244141</ele>
        <time>2024-10-15T06:17:54.000Z</time>
      </trkpt>
      <trkpt lat="45.11099" lon="6.00107">
        <ele>1066.4000244141</ele>
        <time>2024-10-15T06:17:55.000Z</time>
      </trkpt>
      <trkpt lat="45.11099" lon="6.00107">
        <ele>1066.8000488281</ele>
        <time>2024-10-15T06:17:56.000Z</time>
      </trkpt>
      <trkpt lat="45.11099" lon="6.00109">
        <ele>1066.8000488281</ele>
        <time>2024-10-15T06:17:57.000Z</time>
      </trkpt>
      <trkpt lat="45.111" lon="6.00109">
        <ele>1067</ele>
        <time>2024-10-15T06:17:58.000Z</time>
      </trkpt>
      <trkpt lat="45.111" lon="6.0011">
        <ele>1067.1999511719</ele>
        <time>2024-10-15T06:17:59.000Z</time>
      </trkpt>
      <trkpt lat="45.11099" lon="6.0011">
        <ele>1067.4000244141</ele>
        <time>2024-10-15T06:18:00.000Z</time>
      </trkpt>
      <trkpt lat="45.11099" lon="6.0011">
        <ele>1067.4000244141</ele>
        <time>2024-10-15T06:18:01.000Z</time>
      </trkpt>
      <trkpt lat="45.11099" lon="6.00111">
        <ele>1067.5999755859</ele>
        <time>2024-10-15T06:18:02.000Z</time>
      </trkpt>
      <trkpt lat="45.11098" lon="6.00112">
        <ele>1067.5999755859</ele>
        <time>2024-10-15T06:18:03.000Z</time>
      </trkpt>
      <trkpt lat="45.11097" lon="6.0011">
        <ele>1067.8000488281</ele>
        <time>2024-10-15T06:18:04.000Z</time>
      </trkpt>
      <trkpt lat="45.11097" lon="6.0011">
        <ele>1068</ele>
        <time>2024-10-15T06:18:05.000Z</time>
      </trkpt>
      <trkpt lat="45.11096" lon="6.0011">
        <ele>1068.1999511719</ele>
        <time>2024-10-15T06:18:06.000Z</time>
      </trkpt>
      <trkpt lat="45.11096" lon="6.00111">
        <ele>1068.1999511719</ele>
        <time>2024-10-15T06:18:07.000Z</time>
      </trkpt>
      <trkpt lat="45.11096" lon="6.00112">
        <ele>1068.4000244141</ele>
        <time>2024-10-15T06:18:08.000Z</time>
      </trkpt>
      <trkpt lat="45.11096" lon="6.00113">
        <ele>1068.5999755859</ele>
        <time>2024-10-15T06:18:09.000Z</time>
      </trkpt>
      <trkpt lat="45.11096" lon="6.00115">
        <ele>1068.8000488281</ele>
        <time>2024-10-15T06:18:10.000Z</time>
      </trkpt>
      <trkpt lat="45.11095" lon="6.00116">
        <ele>1069</ele>
        <time>2024-10-15T06:18:11.000Z</time>
      </trkpt>
      <trkpt lat="45.11095" lon="6.00117">
        <ele>1069</ele>
        <time>2024-10-15T06:18:12.000Z</time>
      </trkpt>
      <trkpt lat="45.11094" lon="6.00117">
        <ele>1069.4000244141</ele>
        <time>2024-10-15T06:18:13.000Z</time>
      </trkpt>
      <trkpt lat="45.11094" lon="6.00117">
        <ele>1069.5999755859</ele>
        <time>2024-10-15T06:18:14.000Z</time>
      </trkpt>
      <trkpt lat="45.11094" lon="6.00118">
        <ele>1069.5999755859</ele>
        <time>2024-10-15T06:18:15.000Z</time>
      </trkpt>
      <trkpt lat="45.11093" lon="6.00119">
        <ele>1069.8000488281</ele>
        <time>2024-10-15T06:18:16.000Z</time>
      </trkpt>
      <trkpt lat="45.11093" lon="6.00119">
        <ele>1070</ele>
        <time>2024-10-15T06:18:17.000Z</time>
      </trkpt>
      <trkpt lat="45.11092" lon="6.00119">
        <ele>1070</ele>
        <time>2024-10-15T06:18:18.000Z</time>
      </trkpt>
      <trkpt lat="45.11092" lon="6.00119">
        <ele>1070.1999511719</ele>
        <time>2024-10-15T06:18:19.000Z</time>
      </trkpt>
      <trkpt lat="45.11092" lon="6.00118">
        <ele>1070.1999511719</ele>
        <time>2024-10-15T06:18:20.000Z</time>
      </trkpt>
      <trkpt lat="45.11092" lon="6.00118">
        <ele>1070.5999755859</ele>
        <time>2024-10-15T06:18:21.000Z</time>
      </trkpt>
      <trkpt lat="45.11091" lon="6.00117">
        <ele>1070.5999755859</ele>
        <time>2024-10-15T06:18:22.000Z</time>
      </trkpt>
      <trkpt lat="45.11091" lon="6.00117">
        <ele>1070.5999755859</ele>
        <time>2024-10-15T06:18:23.000Z</time>
      </trkpt>
      <trkpt lat="45.11091" lon="6.00117">
        <ele>1070.8000488281</ele>
        <time>2024-10-15T06:18:24.000Z</time>
      </trkpt>
      <trkpt lat="45.11091" lon="6.00117">
        <ele>1071</ele>
        <time>2024-10-15T06:18:25.000Z</time>
      </trkpt>
      <trkpt lat="45.11091" lon="6.00116">
        <ele>1071.1999511719</ele>
        <time>2024-10-15T06:18:26.000Z</time>
      </trkpt>
      <trkpt lat="45.11091" lon="6.00116">
        <ele>1071.5999755859</ele>
        <time>2024-10-15T06:18:27.000Z</time>
      </trkpt>
      <trkpt lat="45.11091" lon="6.00116">
        <ele>1071.8000488281</ele>
        <time>2024-10-15T06:18:28.000Z</time>
      </trkpt>
      <trkpt lat="45.11091" lon="6.00117">
        <ele>1071.8000488281</ele>
        <time>2024-10-15T06:18:29.000Z</time>
      </trkpt>
      <trkpt lat="45.11092" lon="6.00114">
        <ele>1072</ele>
        <time>2024-10-15T06:18:30.000Z</time>
      </trkpt>
      <trkpt lat="45.11093" lon="6.00113">
        <ele>1072</ele>
        <time>2024-10-15T06:18:31.000Z</time>
      </trkpt>
      <trkpt lat="45.11093" lon="6.00113">
        <ele>1072.1999511719</ele>
        <time>2024-10-15T06:18:32.000Z</time>
      </trkpt>
      <trkpt lat="45.11093" lon="6.00113">
        <ele>1072.4000244141</ele>
        <time>2024-10-15T06:18:33.000Z</time>
      </trkpt>
      <trkpt lat="45.11093" lon="6.00113">
        <ele>1072.5999755859</ele>
        <time>2024-10-15T06:18:34.000Z</time>
      </trkpt>
      <trkpt lat="45.11093" lon="6.00112">
        <ele>1072.8000488281</ele>
        <time>2024-10-15T06:18:35.000Z</time>
      </trkpt>
      <trkpt lat="45.11093" lon="6.00111">
        <ele>1073</ele>
        <time>2024-10-15T06:18:36.000Z</time>
      </trkpt>
      <trkpt lat="45.11093" lon="6.0011">
        <ele>1073.1999511719</ele>
        <time>2024-10-15T06:18:37.000Z</time>
      </trkpt>
      <trkpt lat="45.11093" lon="6.00109">
        <ele>1073.4000244141</ele>
        <time>2024-10-15T06:18:38.000Z</time>
      </trkpt>
      <trkpt lat="45.11093" lon="6.00109">
        <ele>1073.5999755859</ele>
        <time>2024-10-15T06:18:39.000Z</time>
      </trkpt>
      <trkpt lat="45.11093" lon="6.00109">
        <ele>1073.8000488281</ele>
        <time>2024-10-15T06:18:40.000Z</time>
      </trkpt>
      <trkpt lat="45.11093" lon="6.00109">
        <ele>1074</ele>
        <time>2024-10-15T06:18:41.000Z</time>
      </trkpt>
      <trkpt lat="45.11093" lon="6.00108">
        <ele>1074.1999511719</ele>
        <time>2024-10-15T06:18:42.000Z</time>
      </trkpt>
      <trkpt lat="45.11092" lon="6.00107">
        <ele>1074.1999511719</ele>
        <time>2024-10-15T06:18:43.000Z</time>
      </trkpt>
      <trkpt lat="45.11093" lon="6.00106">
        <ele>1074.5999755859</ele>
        <time>2024-10-15T06:18:44.000Z</time>
      </trkpt>
      <trkpt lat="45.11093" lon="6.00105">
        <ele>1075</ele>
        <time>2024-10-15T06:18:45.000Z</time>
      </trkpt>
      <trkpt lat="45.11093" lon="6.00105">
        <ele>1075</ele>
        <time>2024-10-15T06:18:46.000Z</time>
      </trkpt>
      <trkpt lat="45.11093" lon="6.00104">
        <ele>1075.1999511719</ele>
        <time>2024-10-15T06:18:47.000Z</time>
      </trkpt>
      <trkpt lat="45.11093" lon="6.00104">
        <ele>1075.1999511719</ele>
        <time>2024-10-15T06:18:48.000Z</time>
      </trkpt>
      <trkpt lat="45.11093" lon="6.00104">
        <ele>1075.4000244141</ele>
        <time>2024-10-15T06:18:49.000Z</time>
      </trkpt>
      <trkpt lat="45.11093" lon="6.00104">
        <ele>1075.5999755859</ele>
        <time>2024-10-15T06:18:50.000Z</time>
      </trkpt>
      <trkpt lat="45.11093" lon="6.00104">
        <ele>1076</ele>
        <time>2024-10-15T06:18:51.000Z</time>
      </trkpt>
      <trkpt lat="45.11094" lon="6.00104">
        <ele>1076</ele>
        <time>2024-10-15T06:18:52.000Z</time>
      </trkpt>
      <trkpt lat="45.11094" lon="6.00104">
        <ele>1076.1999511719</ele>
        <time>2024-10-15T06:18:53.000Z</time>
      </trkpt>
      <trkpt lat="45.11094" lon="6.00103">
        <ele>1076.4000244141</ele>
        <time>2024-10-15T06:18:54.000Z</time>
      </trkpt>
      <trkpt lat="45.11094" lon="6.00102">
        <ele>1076.5999755859</ele>
        <time>2024-10-15T06:18:55.000Z</time>
      </trkpt>
      <trkpt lat="45.11094" lon="6.00101">
        <ele>1076.8000488281</ele>
        <time>2024-10-15T06:18:56.000Z</time>
      </trkpt>
      <trkpt lat="45.11094" lon="6.00101">
        <ele>1077</ele>
        <time>2024-10-15T06:18:57.000Z</time>
      </trkpt>
      <trkpt lat="45.11094" lon="6.00101">
        <ele>1077.1999511719</ele>
        <time>2024-10-15T06:18:58.000Z</time>
      </trkpt>
      <trkpt lat="45.11094" lon="6.00101">
        <ele>1077.4000244141</ele>
        <time>2024-10-15T06:18:59.000Z</time>
      </trkpt>
      <trkpt lat="45.11094" lon="6.00101">
        <ele>1077.5999755859</ele>
        <time>2024-10-15T06:19:00.000Z</time>
      </trkpt>
      <trkpt lat="45.11094" lon="6.00101">
        <ele>1077.8000488281</ele>
        <time>2024-10-15T06:19:01.000Z</time>
      </trkpt>
      <trkpt lat="45.11094" lon="6.00101">
        <ele>1077.8000488281</ele>
        <time>2024-10-15T06:19:02.000Z</time>
      </trkpt>
      <trkpt lat="45.11094" lon="6.00101">
        <ele>1078</ele>
        <time>2024-10-15T06:19:03.000Z</time>
      </trkpt>
      <trkpt lat="45.11094" lon="6.00101">
        <ele>1078.1999511719</ele>
        <time>2024-10-15T06:19:04.000Z</time>
      </trkpt>
      <trkpt lat="45.11094" lon="6.00101">
        <ele>1078.1999511719</ele>
        <time>2024-10-15T06:19:05.000Z</time>
      </trkpt>
      <trkpt lat="45.11094" lon="6.00101">
        <ele>1078.1999511719</ele>
        <time>2024-10-15T06:19:06.000Z</time>
      </trkpt>
      <trkpt lat="45.11094" lon="6.00101">
        <ele>1078.1999511719</ele>
        <time>2024-10-15T06:19:07.000Z</time>
      </trkpt>
      <trkpt lat="45.11094" lon="6.00101">
        <ele>1078.4000244141</ele>
        <time>2024-10-15T06:19:08.000Z</time>
      </trkpt>
      <trkpt lat="45.11094" lon="6.00101">
        <ele>1078.5999755859</ele>
        <time>2024-10-15T06:19:09.000Z</time>
      </trkpt>
      <trkpt lat="45.11094" lon="6.00101">
        <ele>1078.8000488281</ele>
        <time>2024-10-15T06:19:10.000Z</time>
      </trkpt>
      <trkpt lat="45.11094" lon="6.00101">
        <ele>1079</ele>
        <time>2024-10-15T06:19:11.000Z</time>
      </trkpt>
      <trkpt lat="45.11094" lon="6.00101">
        <ele>1079</ele>
        <time>2024-10-15T06:19:12.000Z</time>
      </trkpt>
      <trkpt lat="45.11095" lon="6.001">
        <ele>1079.1999511719</ele>
        <time>2024-10-15T06:19:13.000Z</time>
      </trkpt>
      <trkpt lat="45.11095" lon="6.00098">
        <ele>1079.1999511719</ele>
        <time>2024-10-15T06:19:14.000Z</time>
      </trkpt>
      <trkpt lat="45.11095" lon="6.00097">
        <ele>1079.5999755859</ele>
        <time>2024-10-15T06:19:15.000Z</time>
      </trkpt>
      <trkpt lat="45.11095" lon="6.00097">
        <ele>1079.5999755859</ele>
        <time>2024-10-15T06:19:16.000Z</time>
      </trkpt>
      <trkpt lat="45.11095" lon="6.00097">
        <ele>1079.5999755859</ele>
        <time>2024-10-15T06:19:17.000Z</time>
      </trkpt>
      <trkpt lat="45.11095" lon="6.00096">
        <ele>1079.8000488281</ele>
        <time>2024-10-15T06:19:18.000Z</time>
      </trkpt>
      <trkpt lat="45.11095" lon="6.00096">
        <ele>1079.8000488281</ele>
        <time>2024-10-15T06:19:19.000Z</time>
      </trkpt>
      <trkpt lat="45.11095" lon="6.00095">
        <ele>1079.8000488281</ele>
        <time>2024-10-15T06:19:20.000Z</time>
      </trkpt>
      <trkpt lat="45.11096" lon="6.00095">
        <ele>1080</ele>
        <time>2024-10-15T06:19:21.000Z</time>
      </trkpt>
      <trkpt lat="45.11096" lon="6.00094">
        <ele>1080</ele>
        <time>2024-10-15T06:19:22.000Z</time>
      </trkpt>
      <trkpt lat="45.11096" lon="6.00093">
        <ele>1080</ele>
        <time>2024-10-15T06:19:23.000Z</time>
      </trkpt>
      <trkpt lat="45.11096" lon="6.00093">
        <ele>1080</ele>
        <time>2024-10-15T06:19:24.000Z</time>
      </trkpt>
      <trkpt lat="45.11097" lon="6.00092">
        <ele>1080.4000244141</ele>
        <time>2024-10-15T06:19:25.000Z</time>
      </trkpt>
      <trkpt lat="45.11097" lon="6.00092">
        <ele>1080.5999755859</ele>
        <time>2024-10-15T06:19:26.000Z</time>
      </trkpt>
      <trkpt lat="45.11097" lon="6.00091">
        <ele>1080.8000488281</ele>
        <time>2024-10-15T06:19:27.000Z</time>
      </trkpt>
      <trkpt lat="45.11098" lon="6.0009">
        <ele>1081</ele>
        <time>2024-10-15T06:19:28.000Z</time>
      </trkpt>
      <trkpt lat="45.11098" lon="6.0009">
        <ele>1081.1999511719</ele>
        <time>2024-10-15T06:19:29.000Z</time>
      </trkpt>
      <trkpt lat="45.11098" lon="6.00089">
        <ele>1081.1999511719</ele>
        <time>2024-10-15T06:19:30.000Z</time>
      </trkpt>
      <trkpt lat="45.11099" lon="6.00088">
        <ele>1081.5999755859</ele>
        <time>2024-10-15T06:19:31.000Z</time>
      </trkpt>
      <trkpt lat="45.11099" lon="6.00087">
        <ele>1081.8000488281</ele>
        <time>2024-10-15T06:19:32.000Z</time>
      </trkpt>
      <trkpt lat="45.11099" lon="6.00087">
        <ele>1081.8000488281</ele>
        <time>2024-10-15T06:19:33.000Z</time>
      </trkpt>
      <trkpt lat="45.11099" lon="6.00086">
        <ele>1081.8000488281</ele>
        <time>2024-10-15T06:19:34.000Z</time>
      </trkpt>
      <trkpt lat="45.111" lon="6.00085">
        <ele>1082</ele>
        <time>2024-10-15T06:19:35.000Z</time>
      </trkpt>
      <trkpt lat="45.111" lon="6.00085">
        <ele>1082</ele>
        <time>2024-10-15T06:19:36.000Z</time>
      </trkpt>
      <trkpt lat="45.111" lon="6.00084">
        <ele>1082</ele>
        <time>2024-10-15T06:19:37.000Z</time>
      </trkpt>
      <trkpt lat="45.111" lon="6.00084">
        <ele>1082.1999511719</ele>
        <time>2024-10-15T06:19:38.000Z</time>
      </trkpt>
      <trkpt lat="45.111" lon="6.00084">
        <ele>1082.1999511719</ele>
        <time>2024-10-15T06:19:39.000Z</time>
      </trkpt>
      <trkpt lat="45.111" lon="6.00084">
        <ele>1082.4000244141</ele>
        <time>2024-10-15T06:19:40.000Z</time>
      </trkpt>
      <trkpt lat="45.111" lon="6.00084">
        <ele>1082.4000244141</ele>
        <time>2024-10-15T06:19:41.000Z</time>
      </trkpt>
      <trkpt lat="45.111" lon="6.00084">
        <ele>1082.4000244141</ele>
        <time>2024-10-15T06:19:42.000Z</time>
      </trkpt>
      <trkpt lat="45.111" lon="6.00084">
        <ele>1082.5999755859</ele>
        <time>2024-10-15T06:19:43.000Z</time>
      </trkpt>
      <trkpt lat="45.111" lon="6.00084">
        <ele>1082.5999755859</ele>
        <time>2024-10-15T06:19:44.000Z</time>
      </trkpt>
      <trkpt lat="45.111" lon="6.00084">
        <ele>1082.8000488281</ele>
        <time>2024-10-15T06:19:45.000Z</time>
      </trkpt>
      <trkpt lat="45.111" lon="6.00084">
        <ele>1082.8000488281</ele>
        <time>2024-10-15T06:19:46.000Z</time>
      </trkpt>
      <trkpt lat="45.111" lon="6.00084">
        <ele>1082.8000488281</ele>
        <time>2024-10-15T06:19:47.000Z</time>
      </trkpt>
      <trkpt lat="45.111" lon="6.00084">
        <ele>1083</ele>
        <time>2024-10-15T06:19:48.000Z</time>
      </trkpt>
      <trkpt lat="45.11099" lon="6.00084">
        <ele>1083</ele>
        <time>2024-10-15T06:19:49.000Z</time>
      </trkpt>
      <trkpt lat="45.11099" lon="6.00084">
        <ele>1083.1999511719</ele>
        <time>2024-10-15T06:19:50.000Z</time>
      </trkpt>
      <trkpt lat="45.11099" lon="6.00084">
        <ele>1083.5999755859</ele>
        <time>2024-10-15T06:19:51.000Z</time>
      </trkpt>
      <trkpt lat="45.11098" lon="6.00083">
        <ele>1083.8000488281</ele>
        <time>2024-10-15T06:19:52.000Z</time>
      </trkpt>
      <trkpt lat="45.11098" lon="6.00083">
        <ele>1084</ele>
        <time>2024-10-15T06:19:53.000Z</time>
      </trkpt>
      <trkpt lat="45.11098" lon="6.00083">
        <ele>1084</ele>
        <time>2024-10-15T06:19:54.000Z</time>
      </trkpt>
      <trkpt lat="45.11097" lon="6.00083">
        <ele>1084.1999511719</ele>
        <time>2024-10-15T06:19:55.000Z</time>
      </trkpt>
      <trkpt lat="45.11097" lon="6.00083">
        <ele>1084.1999511719</ele>
        <time>2024-10-15T06:19:56.000Z</time>
      </trkpt>
      <trkpt lat="45.11097" lon="6.00083">
        <ele>1084.1999511719</ele>
        <time>2024-10-15T06:19:57.000Z</time>
      </trkpt>
      <trkpt lat="45.11096" lon="6.00083">
        <ele>1084.4000244141</ele>
        <time>2024-10-15T06:19:58.000Z</time>
      </trkpt>
      <trkpt lat="45.11096" lon="6.00083">
        <ele>1084.5999755859</ele>
        <time>2024-10-15T06:19:59.000Z</time>
      </trkpt>
      <trkpt lat="45.11096" lon="6.00083">
        <ele>1084.8000488281</ele>
        <time>2024-10-15T06:20:00.000Z</time>
      </trkpt>
      <trkpt lat="45.11096" lon="6.00083">
        <ele>1084.8000488281</ele>
        <time>2024-10-15T06:20:01.000Z</time>
      </trkpt>
      <trkpt lat="45.11096" lon="6.00083">
        <ele>1085</ele>
        <time>2024-10-15T06:20:02.000Z</time>
      </trkpt>
      <trkpt lat="45.11096" lon="6.00083">
        <ele>1085.1999511719</ele>
        <time>2024-10-15T06:20:03.000Z</time>
      </trkpt>
      <trkpt lat="45.11096" lon="6.00083">
        <ele>1085.5999755859</ele>
        <time>2024-10-15T06:20:04.000Z</time>
      </trkpt>
      <trkpt lat="45.11095" lon="6.00083">
        <ele>1085.8000488281</ele>
        <time>2024-10-15T06:20:05.000Z</time>
      </trkpt>
      <trkpt lat="45.11095" lon="6.00082">
        <ele>1085.8000488281</ele>
        <time>2024-10-15T06:20:06.000Z</time>
      </trkpt>
      <trkpt lat="45.11095" lon="6.00081">
        <ele>1086</ele>
        <time>2024-10-15T06:20:07.000Z</time>
      </trkpt>
      <trkpt lat="45.11095" lon="6.00081">
        <ele>1086.1999511719</ele>
        <time>2024-10-15T06:20:08.000Z</time>
      </trkpt>
      <trkpt lat="45.11095" lon="6.00081">
        <ele>1086.4000244141</ele>
        <time>2024-10-15T06:20:09.000Z</time>
      </trkpt>
      <trkpt lat="45.11095" lon="6.00081">
        <ele>1086.5999755859</ele>
        <time>2024-10-15T06:20:10.000Z</time>
      </trkpt>
      <trkpt lat="45.11095" lon="6.00081">
        <ele>1086.5999755859</ele>
        <time>2024-10-15T06:20:11.000Z</time>
      </trkpt>
      <trkpt lat="45.11095" lon="6.00081">
        <ele>1086.8000488281</ele>
        <time>2024-10-15T06:20:12.000Z</time>
      </trkpt>
      <trkpt lat="45.11095" lon="6.0008">
        <ele>1087</ele>
        <time>2024-10-15T06:20:13.000Z</time>
      </trkpt>
      <trkpt lat="45.11095" lon="6.0008">
        <ele>1087.1999511719</ele>
        <time>2024-10-15T06:20:14.000Z</time>
      </trkpt>
      <trkpt lat="45.11095" lon="6.0008">
        <ele>1087.4000244141</ele>
        <time>2024-10-15T06:20:15.000Z</time>
      </trkpt>
      <trkpt lat="45.11095" lon="6.0008">
        <ele>1087.5999755859</ele>
        <time>2024-10-15T06:20:16.000Z</time>
      </trkpt>
      <trkpt lat="45.11095" lon="6.0008">
        <ele>1087.5999755859</ele>
        <time>2024-10-15T06:20:17.000Z</time>
      </trkpt>
      <trkpt lat="45.11095" lon="6.0008">
        <ele>1087.5999755859</ele>
        <time>2024-10-15T06:20:18.000Z</time>
      </trkpt>
      <trkpt lat="45.11095" lon="6.0008">
        <ele>1087.8000488281</ele>
        <time>2024-10-15T06:20:19.000Z</time>
      </trkpt>
      <trkpt lat="45.11095" lon="6.0008">
        <ele>1087.8000488281</ele>
        <time>2024-10-15T06:20:20.000Z</time>
      </trkpt>
      <trkpt lat="45.11095" lon="6.0008">
        <ele>1088.1999511719</ele>
        <time>2024-10-15T06:20:21.000Z</time>
      </trkpt>
      <trkpt lat="45.11095" lon="6.00079">
        <ele>1088.4000244141</ele>
        <time>2024-10-15T06:20:22.000Z</time>
      </trkpt>
      <trkpt lat="45.11095" lon="6.00079">
        <ele>1088.5999755859</ele>
        <time>2024-10-15T06:20:23.000Z</time>
      </trkpt>
      <trkpt lat="45.11095" lon="6.00079">
        <ele>1088.8000488281</ele>
        <time>2024-10-15T06:20:24.000Z</time>
      </trkpt>
      <trkpt lat="45.11095" lon="6.00079">
        <ele>1089</ele>
        <time>2024-10-15T06:20:25.000Z</time>
      </trkpt>
      <trkpt lat="45.11095" lon="6.00079">
        <ele>1089</ele>
        <time>2024-10-15T06:20:26.000Z</time>
      </trkpt>
      <trkpt lat="45.11095" lon="6.00079">
        <ele>1089.1999511719</ele>
        <time>2024-10-15T06:20:27.000Z</time>
      </trkpt>
      <trkpt lat="45.11095" lon="6.00079">
        <ele>1089.4000244141</ele>
        <time>2024-10-15T06:20:28.000Z</time>
      </trkpt>
      <trkpt lat="45.11095" lon="6.00079">
        <ele>1089.4000244141</ele>
        <time>2024-10-15T06:20:29.000Z</time>
      </trkpt>
      <trkpt lat="45.11095" lon="6.00079">
        <ele>1089.5999755859</ele>
        <time>2024-10-15T06:20:30.000Z</time>
      </trkpt>
      <trkpt lat="45.11095" lon="6.00078">
        <ele>1089.8000488281</ele>
        <time>2024-10-15T06:20:31.000Z</time>
      </trkpt>
      <trkpt lat="45.11095" lon="6.00078">
        <ele>1090</ele>
        <time>2024-10-15T06:20:32.000Z</time>
      </trkpt>
      <trkpt lat="45.11095" lon="6.00077">
        <ele>1090</ele>
        <time>2024-10-15T06:20:33.000Z</time>
      </trkpt>
      <trkpt lat="45.11095" lon="6.00077">
        <ele>1090.1999511719</ele>
        <time>2024-10-15T06:20:34.000Z</time>
      </trkpt>
      <trkpt lat="45.11095" lon="6.00076">
        <ele>1090.4000244141</ele>
        <time>2024-10-15T06:20:35.000Z</time>
      </trkpt>
      <trkpt lat="45.11095" lon="6.00076">
        <ele>1090.8000488281</ele>
        <time>2024-10-15T06:20:36.000Z</time>
      </trkpt>
      <trkpt lat="45.11095" lon="6.00076">
        <ele>1090.8000488281</ele>
        <time>2024-10-15T06:20:37.000Z</time>
      </trkpt>
      <trkpt lat="45.11095" lon="6.00075">
        <ele>1091</ele>
        <time>2024-10-15T06:20:38.000Z</time>
      </trkpt>
      <trkpt lat="45.11095" lon="6.00075">
        <ele>1091</ele>
        <time>2024-10-15T06:20:39.000Z</time>
      </trkpt>
      <trkpt lat="45.11095" lon="6.00075">
        <ele>1091.1999511719</ele>
        <time>2024-10-15T06:20:40.000Z</time>
      </trkpt>
      <trkpt lat="45.11095" lon="6.00075">
        <ele>1091.4000244141</ele>
        <time>2024-10-15T06:20:41.000Z</time>
      </trkpt>
      <trkpt lat="45.11095" lon="6.00075">
        <ele>1091.5999755859</ele>
        <time>2024-10-15T06:20:42.000Z</time>
      </trkpt>
      <trkpt lat="45.11096" lon="6.00075">
        <ele>1091.5999755859</ele>
        <time>2024-10-15T06:20:43.000Z</time>
      </trkpt>
      <trkpt lat="45.11096" lon="6.00075">
        <ele>1091.8000488281</ele>
        <time>2024-10-15T06:20:44.000Z</time>
      </trkpt>
      <trkpt lat="45.11096" lon="6.00075">
        <ele>1092</ele>
        <time>2024-10-15T06:20:45.000Z</time>
      </trkpt>
      <trkpt lat="45.11096" lon="6.00074">
        <ele>1092.1999511719</ele>
        <time>2024-10-15T06:20:46.000Z</time>
      </trkpt>
      <trkpt lat="45.11097" lon="6.00074">
        <ele>1092.4000244141</ele>
        <time>2024-10-15T06:20:47.000Z</time>
      </trkpt>
      <trkpt lat="45.11097" lon="6.00074">
        <ele>1092.4000244141</ele>
        <time>2024-10-15T06:20:48.000Z</time>
      </trkpt>
      <trkpt lat="45.11097" lon="6.00074">
        <ele>1092.5999755859</ele>
        <time>2024-10-15T06:20:49.000Z</time>
      </trkpt>
      <trkpt lat="45.11097" lon="6.00073">
        <ele>1092.8000488281</ele>
        <time>2024-10-15T06:20:50.000Z</time>
      </trkpt>
      <trkpt lat="45.11097" lon="6.00072">
        <ele>1093</ele>
        <time>2024-10-15T06:20:51.000Z</time>
      </trkpt>
      <trkpt lat="45.11097" lon="6.00072">
        <ele>1093.1999511719</ele>
        <time>2024-10-15T06:20:52.000Z</time>
      </trkpt>
      <trkpt lat="45.11097" lon="6.00071">
        <ele>1093.4000244141</ele>
        <time>2024-10-15T06:20:53.000Z</time>
      </trkpt>
      <trkpt lat="45.11098" lon="6.00069">
        <ele>1093.4000244141</ele>
        <time>2024-10-15T06:20:54.000Z</time>
      </trkpt>
      <trkpt lat="45.11098" lon="6.00067">
        <ele>1093.5999755859</ele>
        <time>2024-10-15T06:20:55.000Z</time>
      </trkpt>
      <trkpt lat="45.11099" lon="6.00066">
        <ele>1093.8000488281</ele>
        <time>2024-10-15T06:20:56.000Z</time>
      </trkpt>
      <trkpt lat="45.11099" lon="6.00064">
        <ele>1094</ele>
        <time>2024-10-15T06:20:57.000Z</time>
      </trkpt>
      <trkpt lat="45.111" lon="6.00063">
        <ele>1094.1999511719</ele>
        <time>2024-10-15T06:20:58.000Z</time>
      </trkpt>
      <trkpt lat="45.111" lon="6.00062">
        <ele>1094.4000244141</ele>
        <time>2024-10-15T06:20:59.000Z</time>
      </trkpt>
      <trkpt lat="45.11101" lon="6.0006">
        <ele>1094.4000244141</ele>
        <time>2024-10-15T06:21:00.000Z</time>
      </trkpt>
      <trkpt lat="45.11101" lon="6.00059">
        <ele>1094.5999755859</ele>
        <time>2024-10-15T06:21:01.000Z</time>
      </trkpt>
      <trkpt lat="45.111" lon="6.00058">
        <ele>1094.5999755859</ele>
        <time>2024-10-15T06:21:02.000Z</time>
      </trkpt>
      <trkpt lat="45.111" lon="6.00058">
        <ele>1094.8000488281</ele>
        <time>2024-10-15T06:21:03.000Z</time>
      </trkpt>
      <trkpt lat="45.111" lon="6.00057">
        <ele>1095</ele>
        <time>2024-10-15T06:21:04.000Z</time>
      </trkpt>
      <trkpt lat="45.111" lon="6.00057">
        <ele>1095.1999511719</ele>
        <time>2024-10-15T06:21:05.000Z</time>
      </trkpt>
      <trkpt lat="45.111" lon="6.00058">
        <ele>1095.1999511719</ele>
        <time>2024-10-15T06:21:06.000Z</time>
      </trkpt>
      <trkpt lat="45.111" lon="6.00059">
        <ele>1095.4000244141</ele>
        <time>2024-10-15T06:21:07.000Z</time>
      </trkpt>
      <trkpt lat="45.111" lon="6.00059">
        <ele>1095.8000488281</ele>
        <time>2024-10-15T06:21:08.000Z</time>
      </trkpt>
      <trkpt lat="45.111" lon="6.00059">
        <ele>1096</ele>
        <time>2024-10-15T06:21:09.000Z</time>
      </trkpt>
      <trkpt lat="45.11099" lon="6.00059">
        <ele>1096</ele>
        <time>2024-10-15T06:21:10.000Z</time>
      </trkpt>
      <trkpt lat="45.11099" lon="6.0006">
        <ele>1096.1999511719</ele>
        <time>2024-10-15T06:21:11.000Z</time>
      </trkpt>
      <trkpt lat="45.11098" lon="6.0006">
        <ele>1096.1999511719</ele>
        <time>2024-10-15T06:21:12.000Z</time>
      </trkpt>
      <trkpt lat="45.11098" lon="6.0006">
        <ele>1096.4000244141</ele>
        <time>2024-10-15T06:21:13.000Z</time>
      </trkpt>
      <trkpt lat="45.11097" lon="6.0006">
        <ele>1096.5999755859</ele>
        <time>2024-10-15T06:21:14.000Z</time>
      </trkpt>
      <trkpt lat="45.11097" lon="6.0006">
        <ele>1096.8000488281</ele>
        <time>2024-10-15T06:21:15.000Z</time>
      </trkpt>
      <trkpt lat="45.11096" lon="6.0006">
        <ele>1096.8000488281</ele>
        <time>2024-10-15T06:21:16.000Z</time>
      </trkpt>
      <trkpt lat="45.11096" lon="6.0006">
        <ele>1097</ele>
        <time>2024-10-15T06:21:17.000Z</time>
      </trkpt>
      <trkpt lat="45.11096" lon="6.0006">
        <ele>1097.4000244141</ele>
        <time>2024-10-15T06:21:18.000Z</time>
      </trkpt>
      <trkpt lat="45.11095" lon="6.0006">
        <ele>1097.5999755859</ele>
        <time>2024-10-15T06:21:19.000Z</time>
      </trkpt>
      <trkpt lat="45.11094" lon="6.00061">
        <ele>1097.8000488281</ele>
        <time>2024-10-15T06:21:20.000Z</time>
      </trkpt>
      <trkpt lat="45.11094" lon="6.00061">
        <ele>1098</ele>
        <time>2024-10-15T06:21:21.000Z</time>
      </trkpt>
      <trkpt lat="45.11093" lon="6.00062">
        <ele>1098.1999511719</ele>
        <time>2024-10-15T06:21:22.000Z</time>
      </trkpt>
      <trkpt lat="45.11092" lon="6.00062">
        <ele>1098.4000244141</ele>
        <time>2024-10-15T06:21:23.000Z</time>
      </trkpt>
      <trkpt lat="45.11092" lon="6.00062">
        <ele>1098.4000244141</ele>
        <time>2024-10-15T06:21:24.000Z</time>
      </trkpt>
      <trkpt lat="45.11091" lon="6.00063">
        <ele>1098.4000244141</ele>
        <time>2024-10-15T06:21:25.000Z</time>
      </trkpt>
      <trkpt lat="45.11091" lon="6.00062">
        <ele>1098.5999755859</ele>
        <time>2024-10-15T06:21:26.000Z</time>
      </trkpt>
      <trkpt lat="45.1109" lon="6.00062">
        <ele>1098.5999755859</ele>
        <time>2024-10-15T06:21:27.000Z</time>
      </trkpt>
      <trkpt lat="45.1109" lon="6.00062">
        <ele>1098.5999755859</ele>
        <time>2024-10-15T06:21:28.000Z</time>
      </trkpt>
      <trkpt lat="45.11089" lon="6.00062">
        <ele>1099</ele>
        <time>2024-10-15T06:21:29.000Z</time>
      </trkpt>
      <trkpt lat="45.11089" lon="6.00063">
        <ele>1099</ele>
        <time>2024-10-15T06:21:30.000Z</time>
      </trkpt>
      <trkpt lat="45.11088" lon="6.00063">
        <ele>1099.1999511719</ele>
        <time>2024-10-15T06:21:31.000Z</time>
      </trkpt>
      <trkpt lat="45.11088" lon="6.00063">
        <ele>1099.1999511719</ele>
        <time>2024-10-15T06:21:32.000Z</time>
      </trkpt>
      <trkpt lat="45.11087" lon="6.00062">
        <ele>1099.5999755859</ele>
        <time>2024-10-15T06:21:33.000Z</time>
      </trkpt>
      <trkpt lat="45.11087" lon="6.00062">
        <ele>1099.8000488281</ele>
        <time>2024-10-15T06:21:34.000Z</time>
      </trkpt>
      <trkpt lat="45.11086" lon="6.00061">
        <ele>1099.8000488281</ele>
        <time>2024-10-15T06:21:35.000Z</time>
      </trkpt>
      <trkpt lat="45.11087" lon="6.0006">
        <ele>1100</ele>
        <time>2024-10-15T06:21:36.000Z</time>
      </trkpt>
      <trkpt lat="45.11086" lon="6.00059">
        <ele>1100.4000244141</ele>
        <time>2024-10-15T06:21:37.000Z</time>
      </trkpt>
      <trkpt lat="45.11086" lon="6.00058">
        <ele>1100.5999755859</ele>
        <time>2024-10-15T06:21:38.000Z</time>
      </trkpt>
      <trkpt lat="45.11087" lon="6.00057">
        <ele>1101</ele>
        <time>2024-10-15T06:21:39.000Z</time>
      </trkpt>
      <trkpt lat="45.11086" lon="6.00057">
        <ele>1101.1999511719</ele>
        <time>2024-10-15T06:21:40.000Z</time>
      </trkpt>
      <trkpt lat="45.11086" lon="6.00058">
        <ele>1101.4000244141</ele>
        <time>2024-10-15T06:21:41.000Z</time>
      </trkpt>
      <trkpt lat="45.11086" lon="6.00058">
        <ele>1101.4000244141</ele>
        <time>2024-10-15T06:21:42.000Z</time>
      </trkpt>
      <trkpt lat="45.11086" lon="6.00058">
        <ele>1101.5999755859</ele>
        <time>2024-10-15T06:21:43.000Z</time>
      </trkpt>
      <trkpt lat="45.11086" lon="6.00059">
        <ele>1101.8000488281</ele>
        <time>2024-10-15T06:21:44.000Z</time>
      </trkpt>
      <trkpt lat="45.11087" lon="6.0006">
        <ele>1101.8000488281</ele>
        <time>2024-10-15T06:21:45.000Z</time>
      </trkpt>
      <trkpt lat="45.11086" lon="6.0006">
        <ele>1102</ele>
        <time>2024-10-15T06:21:46.000Z</time>
      </trkpt>
      <trkpt lat="45.11086" lon="6.00061">
        <ele>1102.4000244141</ele>
        <time>2024-10-15T06:21:47.000Z</time>
      </trkpt>
      <trkpt lat="45.11086" lon="6.00061">
        <ele>1102.5999755859</ele>
        <time>2024-10-15T06:21:48.000Z</time>
      </trkpt>
      <trkpt lat="45.11085" lon="6.00062">
        <ele>1102.8000488281</ele>
        <time>2024-10-15T06:21:49.000Z</time>
      </trkpt>
      <trkpt lat="45.11085" lon="6.00062">
        <ele>1103</ele>
        <time>2024-10-15T06:21:50.000Z</time>
      </trkpt>
      <trkpt lat="45.11087" lon="6.00063">
        <ele>1103.1999511719</ele>
        <time>2024-10-15T06:21:51.000Z</time>
      </trkpt>
      <trkpt lat="45.11087" lon="6.00064">
        <ele>1103.5999755859</ele>
        <time>2024-10-15T06:21:52.000Z</time>
      </trkpt>
      <trkpt lat="45.11086" lon="6.00064">
        <ele>1104</ele>
        <time>2024-10-15T06:21:53.000Z</time>
      </trkpt>
      <trkpt lat="45.11085" lon="6.00064">
        <ele>1104.1999511719</ele>
        <time>2024-10-15T06:21:54.000Z</time>
      </trkpt>
      <trkpt lat="45.11085" lon="6.00065">
        <ele>1104.1999511719</ele>
        <time>2024-10-15T06:21:55.000Z</time>
      </trkpt>
      <trkpt lat="45.11084" lon="6.00066">
        <ele>1104.4000244141</ele>
        <time>2024-10-15T06:21:56.000Z</time>
      </trkpt>
      <trkpt lat="45.11084" lon="6.00066">
        <ele>1104.4000244141</ele>
        <time>2024-10-15T06:21:57.000Z</time>
      </trkpt>
      <trkpt lat="45.11084" lon="6.00067">
        <ele>1104.5999755859</ele>
        <time>2024-10-15T06:21:58.000Z</time>
      </trkpt>
      <trkpt lat="45.11084" lon="6.00067">
        <ele>1105</ele>
        <time>2024-10-15T06:21:59.000Z</time>
      </trkpt>
      <trkpt lat="45.11084" lon="6.00067">
        <ele>1105.1999511719</ele>
        <time>2024-10-15T06:22:00.000Z</time>
      </trkpt>
      <trkpt lat="45.11083" lon="6.00068">
        <ele>1105.1999511719</ele>
        <time>2024-10-15T06:22:01.000Z</time>
      </trkpt>
      <trkpt lat="45.11083" lon="6.00068">
        <ele>1105.4000244141</ele>
        <time>2024-10-15T06:22:02.000Z</time>
      </trkpt>
      <trkpt lat="45.11083" lon="6.00069">
        <ele>1105.5999755859</ele>
        <time>2024-10-15T06:22:03.000Z</time>
      </trkpt>
      <trkpt lat="45.11082" lon="6.0007">
        <ele>1105.8000488281</ele>
        <time>2024-10-15T06:22:04.000Z</time>
      </trkpt>
      <trkpt lat="45.11082" lon="6.00071">
        <ele>1105.8000488281</ele>
        <time>2024-10-15T06:22:05.000Z</time>
      </trkpt>
      <trkpt lat="45.11081" lon="6.0007">
        <ele>1106</ele>
        <time>2024-10-15T06:22:06.000Z</time>
      </trkpt>
      <trkpt lat="45.1108" lon="6.00071">
        <ele>1106</ele>
        <time>2024-10-15T06:22:07.000Z</time>
      </trkpt>
      <trkpt lat="45.1108" lon="6.00071">
        <ele>1106</ele>
        <time>2024-10-15T06:22:08.000Z</time>
      </trkpt>
      <trkpt lat="45.1108" lon="6.00072">
        <ele>1106</ele>
        <time>2024-10-15T06:22:09.000Z</time>
      </trkpt>
      <trkpt lat="45.11079" lon="6.00073">
        <ele>1106.1999511719</ele>
        <time>2024-10-15T06:22:10.000Z</time>
      </trkpt>
      <trkpt lat="45.11079" lon="6.00073">
        <ele>1106.1999511719</ele>
        <time>2024-10-15T06:22:11.000Z</time>
      </trkpt>
      <trkpt lat="45.11078" lon="6.00074">
        <ele>1106.4000244141</ele>
        <time>2024-10-15T06:22:12.000Z</time>
      </trkpt>
      <trkpt lat="45.11077" lon="6.00074">
        <ele>1106.4000244141</ele>
        <time>2024-10-15T06:22:13.000Z</time>
      </trkpt>
      <trkpt lat="45.11077" lon="6.00074">
        <ele>1106.8000488281</ele>
        <time>2024-10-15T06:22:14.000Z</time>
      </trkpt>
      <trkpt lat="45.11077" lon="6.00075">
        <ele>1107</ele>
        <time>2024-10-15T06:22:15.000Z</time>
      </trkpt>
      <trkpt lat="45.11076" lon="6.00076">
        <ele>1107</ele>
        <time>2024-10-15T06:22:16.000Z</time>
      </trkpt>
      <trkpt lat="45.11076" lon="6.00077">
        <ele>1107.4000244141</ele>
        <time>2024-10-15T06:22:17.000Z</time>
      </trkpt>
      <trkpt lat="45.11075" lon="6.00078">
        <ele>1107.8000488281</ele>
        <time>2024-10-15T06:22:18.000Z</time>
      </trkpt>
      <trkpt lat="45.11075" lon="6.00079">
        <ele>1107.8000488281</ele>
        <time>2024-10-15T06:22:19.000Z</time>
      </trkpt>
      <trkpt lat="45.11074" lon="6.0008">
        <ele>1107.8000488281</ele>
        <time>2024-10-15T06:22:20.000Z</time>
      </trkpt>
      <trkpt lat="45.11073" lon="6.0008">
        <ele>1107.8000488281</ele>
        <time>2024-10-15T06:22:21.000Z</time>
      </trkpt>
      <trkpt lat="45.11073" lon="6.00079">
        <ele>1107.8000488281</ele>
        <time>2024-10-15T06:22:22.000Z</time>
      </trkpt>
      <trkpt lat="45.11072" lon="6.00079">
        <ele>1108</ele>
        <time>2024-10-15T06:22:23.000Z</time>
      </trkpt>
      <trkpt lat="45.11072" lon="6.00079">
        <ele>1108</ele>
        <time>2024-10-15T06:22:24.000Z</time>
      </trkpt>
      <trkpt lat="45.11071" lon="6.00079">
        <ele>1108</ele>
        <time>2024-10-15T06:22:25.000Z</time>
      </trkpt>
      <trkpt lat="45.1107" lon="6.00079">
        <ele>1108</ele>
        <time>2024-10-15T06:22:26.000Z</time>
      </trkpt>
      <trkpt lat="45.11069" lon="6.00078">
        <ele>1108.1999511719</ele>
        <time>2024-10-15T06:22:27.000Z</time>
      </trkpt>
      <trkpt lat="45.11069" lon="6.00077">
        <ele>1108.4000244141</ele>
        <time>2024-10-15T06:22:28.000Z</time>
      </trkpt>
      <trkpt lat="45.11068" lon="6.00077">
        <ele>1108.4000244141</ele>
        <time>2024-10-15T06:22:29.000Z</time>
      </trkpt>
      <trkpt lat="45.11067" lon="6.00077">
        <ele>1108.4000244141</ele>
        <time>2024-10-15T06:22:30.000Z</time>
      </trkpt>
      <trkpt lat="45.11067" lon="6.00077">
        <ele>1108.5999755859</ele>
        <time>2024-10-15T06:22:31.000Z</time>
      </trkpt>
      <trkpt lat="45.11067" lon="6.00077">
        <ele>1108.5999755859</ele>
        <time>2024-10-15T06:22:32.000Z</time>
      </trkpt>
      <trkpt lat="45.11066" lon="6.00076">
        <ele>1109</ele>
        <time>2024-10-15T06:22:33.000Z</time>
      </trkpt>
      <trkpt lat="45.11065" lon="6.00075">
        <ele>1109.1999511719</ele>
        <time>2024-10-15T06:22:34.000Z</time>
      </trkpt>
      <trkpt lat="45.11065" lon="6.00075">
        <ele>1109.4000244141</ele>
        <time>2024-10-15T06:22:35.000Z</time>
      </trkpt>
      <trkpt lat="45.11064" lon="6.00073">
        <ele>1109.8000488281</ele>
        <time>2024-10-15T06:22:36.000Z</time>
      </trkpt>
      <trkpt lat="45.11064" lon="6.00073">
        <ele>1110</ele>
        <time>2024-10-15T06:22:37.000Z</time>
      </trkpt>
      <trkpt lat="45.11064" lon="6.00073">
        <ele>1110.1999511719</ele>
        <time>2024-10-15T06:22:38.000Z</time>
      </trkpt>
      <trkpt lat="45.11063" lon="6.00072">
        <ele>1110.4000244141</ele>
        <time>2024-10-15T06:22:39.000Z</time>
      </trkpt>
      <trkpt lat="45.11063" lon="6.00073">
        <ele>1110.5999755859</ele>
        <time>2024-10-15T06:22:40.000Z</time>
      </trkpt>
      <trkpt lat="45.11062" lon="6.00073">
        <ele>1110.8000488281</ele>
        <time>2024-10-15T06:22:41.000Z</time>
      </trkpt>
      <trkpt lat="45.11062" lon="6.00072">
        <ele>1111</ele>
        <time>2024-10-15T06:22:42.000Z</time>
      </trkpt>
      <trkpt lat="45.11061" lon="6.00072">
        <ele>1111.1999511719</ele>
        <time>2024-10-15T06:22:43.000Z</time>
      </trkpt>
      <trkpt lat="45.11061" lon="6.00072">
        <ele>1111.4000244141</ele>
        <time>2024-10-15T06:22:44.000Z</time>
      </trkpt>
      <trkpt lat="45.1106" lon="6.00072">
        <ele>1111.8000488281</ele>
        <time>2024-10-15T06:22:45.000Z</time>
      </trkpt>
      <trkpt lat="45.1106" lon="6.00072">
        <ele>1112</ele>
        <time>2024-10-15T06:22:46.000Z</time>
      </trkpt>
      <trkpt lat="45.1106" lon="6.00071">
        <ele>1112.1999511719</ele>
        <time>2024-10-15T06:22:47.000Z</time>
      </trkpt>
      <trkpt lat="45.1106" lon="6.00071">
        <ele>1112.5999755859</ele>
        <time>2024-10-15T06:22:48.000Z</time>
      </trkpt>
      <trkpt lat="45.11059" lon="6.0007">
        <ele>1112.8000488281</ele>
        <time>2024-10-15T06:22:49.000Z</time>
      </trkpt>
      <trkpt lat="45.11058" lon="6.00069">
        <ele>1112.8000488281</ele>
        <time>2024-10-15T06:22:50.000Z</time>
      </trkpt>
      <trkpt lat="45.11058" lon="6.00069">
        <ele>1113</ele>
        <time>2024-10-15T06:22:51.000Z</time>
      </trkpt>
      <trkpt lat="45.11058" lon="6.00068">
        <ele>1113.1999511719</ele>
        <time>2024-10-15T06:22:52.000Z</time>
      </trkpt>
      <trkpt lat="45.11058" lon="6.00067">
        <ele>1113.4000244141</ele>
        <time>2024-10-15T06:22:53.000Z</time>
      </trkpt>
      <trkpt lat="45.11059" lon="6.00065">
        <ele>1113.5999755859</ele>
        <time>2024-10-15T06:22:54.000Z</time>
      </trkpt>
      <trkpt lat="45.11059" lon="6.00064">
        <ele>1113.5999755859</ele>
        <time>2024-10-15T06:22:55.000Z</time>
      </trkpt>
      <trkpt lat="45.11059" lon="6.00063">
        <ele>1114</ele>
        <time>2024-10-15T06:22:56.000Z</time>
      </trkpt>
      <trkpt lat="45.11059" lon="6.00062">
        <ele>1114.1999511719</ele>
        <time>2024-10-15T06:22:57.000Z</time>
      </trkpt>
      <trkpt lat="45.11059" lon="6.00062">
        <ele>1114.1999511719</ele>
        <time>2024-10-15T06:22:58.000Z</time>
      </trkpt>
      <trkpt lat="45.1106" lon="6.00062">
        <ele>1114.4000244141</ele>
        <time>2024-10-15T06:22:59.000Z</time>
      </trkpt>
      <trkpt lat="45.1106" lon="6.00061">
        <ele>1114.5999755859</ele>
        <time>2024-10-15T06:23:00.000Z</time>
      </trkpt>
      <trkpt lat="45.11061" lon="6.0006">
        <ele>1114.8000488281</ele>
        <time>2024-10-15T06:23:01.000Z</time>
      </trkpt>
      <trkpt lat="45.11061" lon="6.0006">
        <ele>1115.1999511719</ele>
        <time>2024-10-15T06:23:02.000Z</time>
      </trkpt>
      <trkpt lat="45.11061" lon="6.0006">
        <ele>1115.4000244141</ele>
        <time>2024-10-15T06:23:03.000Z</time>
      </trkpt>
      <trkpt lat="45.1106" lon="6.00059">
        <ele>1115.4000244141</ele>
        <time>2024-10-15T06:23:04.000Z</time>
      </trkpt>
      <trkpt lat="45.1106" lon="6.00059">
        <ele>1115.5999755859</ele>
        <time>2024-10-15T06:23:05.000Z</time>
      </trkpt>
      <trkpt lat="45.1106" lon="6.00058">
        <ele>1116</ele>
        <time>2024-10-15T06:23:06.000Z</time>
      </trkpt>
      <trkpt lat="45.1106" lon="6.00058">
        <ele>1116</ele>
        <time>2024-10-15T06:23:07.000Z</time>
      </trkpt>
      <trkpt lat="45.1106" lon="6.00057">
        <ele>1116.1999511719</ele>
        <time>2024-10-15T06:23:08.000Z</time>
      </trkpt>
      <trkpt lat="45.1106" lon="6.00057">
        <ele>1116.1999511719</ele>
        <time>2024-10-15T06:23:09.000Z</time>
      </trkpt>
      <trkpt lat="45.11061" lon="6.00057">
        <ele>1116.4000244141</ele>
        <time>2024-10-15T06:23:10.000Z</time>
      </trkpt>
      <trkpt lat="45.11061" lon="6.00058">
        <ele>1116.5999755859</ele>
        <time>2024-10-15T06:23:11.000Z</time>
      </trkpt>
      <trkpt lat="45.11061" lon="6.00058">
        <ele>1117</ele>
        <time>2024-10-15T06:23:12.000Z</time>
      </trkpt>
      <trkpt lat="45.11062" lon="6.00058">
        <ele>1117</ele>
        <time>2024-10-15T06:23:13.000Z</time>
      </trkpt>
      <trkpt lat="45.11062" lon="6.00058">
        <ele>1117.1999511719</ele>
        <time>2024-10-15T06:23:14.000Z</time>
      </trkpt>
      <trkpt lat="45.11063" lon="6.00057">
        <ele>1117.4000244141</ele>
        <time>2024-10-15T06:23:15.000Z</time>
      </trkpt>
      <trkpt lat="45.11063" lon="6.00057">
        <ele>1117.5999755859</ele>
        <time>2024-10-15T06:23:16.000Z</time>
      </trkpt>
      <trkpt lat="45.11063" lon="6.00057">
        <ele>1117.8000488281</ele>
        <time>2024-10-15T06:23:17.000Z</time>
      </trkpt>
      <trkpt lat="45.11063" lon="6.00056">
        <ele>1118</ele>
        <time>2024-10-15T06:23:18.000Z</time>
      </trkpt>
      <trkpt lat="45.11063" lon="6.00055">
        <ele>1118.4000244141</ele>
        <time>2024-10-15T06:23:19.000Z</time>
      </trkpt>
      <trkpt lat="45.11063" lon="6.00054">
        <ele>1118.5999755859</ele>
        <time>2024-10-15T06:23:20.000Z</time>
      </trkpt>
      <trkpt lat="45.11063" lon="6.00054">
        <ele>1118.8000488281</ele>
        <time>2024-10-15T06:23:21.000Z</time>
      </trkpt>
      <trkpt lat="45.11063" lon="6.00054">
        <ele>1119</ele>
        <time>2024-10-15T06:23:22.000Z</time>
      </trkpt>
      <trkpt lat="45.11063" lon="6.00054">
        <ele>1119.1999511719</ele>
        <time>2024-10-15T06:23:23.000Z</time>
      </trkpt>
      <trkpt lat="45.11063" lon="6.00054">
        <ele>1119.4000244141</ele>
        <time>2024-10-15T06:23:24.000Z</time>
      </trkpt>
      <trkpt lat="45.11063" lon="6.00054">
        <ele>1119.4000244141</ele>
        <time>2024-10-15T06:23:25.000Z</time>
      </trkpt>
      <trkpt lat="45.11063" lon="6.00054">
        <ele>1119.5999755859</ele>
        <time>2024-10-15T06:23:26.000Z</time>
      </trkpt>
      <trkpt lat="45.11063" lon="6.00054">
        <ele>1119.5999755859</ele>
        <time>2024-10-15T06:23:27.000Z</time>
      </trkpt>
      <trkpt lat="45.11063" lon="6.00054">
        <ele>1120</ele>
        <time>2024-10-15T06:23:28.000Z</time>
      </trkpt>
      <trkpt lat="45.11063" lon="6.00054">
        <ele>1120</ele>
        <time>2024-10-15T06:23:29.000Z</time>
      </trkpt>
      <trkpt lat="45.11063" lon="6.00054">
        <ele>1120.4000244141</ele>
        <time>2024-10-15T06:23:30.000Z</time>
      </trkpt>
      <trkpt lat="45.11063" lon="6.00054">
        <ele>1120.4000244141</ele>
        <time>2024-10-15T06:23:31.000Z</time>
      </trkpt>
      <trkpt lat="45.11063" lon="6.00054">
        <ele>1120.5999755859</ele>
        <time>2024-10-15T06:23:32.000Z</time>
      </trkpt>
      <trkpt lat="45.11063" lon="6.00054">
        <ele>1120.8000488281</ele>
        <time>2024-10-15T06:23:33.000Z</time>
      </trkpt>
      <trkpt lat="45.11063" lon="6.00054">
        <ele>1121.1999511719</ele>
        <time>2024-10-15T06:23:34.000Z</time>
      </trkpt>
      <trkpt lat="45.11063" lon="6.00054">
        <ele>1121.1999511719</ele>
        <time>2024-10-15T06:23:35.000Z</time>
      </trkpt>
      <trkpt lat="45.11063" lon="6.00054">
        <ele>1121.4000244141</ele>
        <time>2024-10-15T06:23:36.000Z</time>
      </trkpt>
      <trkpt lat="45.11064" lon="6.00054">
        <ele>1121.5999755859</ele>
        <time>2024-10-15T06:23:37.000Z</time>
      </trkpt>
      <trkpt lat="45.11064" lon="6.00053">
        <ele>1121.8000488281</ele>
        <time>2024-10-15T06:23:38.000Z</time>
      </trkpt>
      <trkpt lat="45.11065" lon="6.00053">
        <ele>1122</ele>
        <time>2024-10-15T06:23:39.000Z</time>
      </trkpt>
      <trkpt lat="45.11065" lon="6.00052">
        <ele>1122</ele>
        <time>2024-10-15T06:23:40.000Z</time>
      </trkpt>
      <trkpt lat="45.11066" lon="6.00052">
        <ele>1122.1999511719</ele>
        <time>2024-10-15T06:23:41.000Z</time>
      </trkpt>
      <trkpt lat="45.11066" lon="6.00051">
        <ele>1122.4000244141</ele>
        <time>2024-10-15T06:23:42.000Z</time>
      </trkpt>
      <trkpt lat="45.11066" lon="6.00051">
        <ele>1122.5999755859</ele>
        <time>2024-10-15T06:23:43.000Z</time>
      </trkpt>
      <trkpt lat="45.11066" lon="6.00051">
        <ele>1123</ele>
        <time>2024-10-15T06:23:44.000Z</time>
      </trkpt>
      <trkpt lat="45.11066" lon="6.00051">
        <ele>1123.1999511719</ele>
        <time>2024-10-15T06:23:45.000Z</time>
      </trkpt>
      <trkpt lat="45.11066" lon="6.0005">
        <ele>1123.1999511719</ele>
        <time>2024-10-15T06:23:46.000Z</time>
      </trkpt>
      <trkpt lat="45.11066" lon="6.0005">
        <ele>1123.4000244141</ele>
        <time>2024-10-15T06:23:47.000Z</time>
      </trkpt>
      <trkpt lat="45.11067" lon="6.00049">
        <ele>1123.5999755859</ele>
        <time>2024-10-15T06:23:48.000Z</time>
      </trkpt>
      <trkpt lat="45.11067" lon="6.00049">
        <ele>1123.8000488281</ele>
        <time>2024-10-15T06:23:49.000Z</time>
      </trkpt>
      <trkpt lat="45.11067" lon="6.00049">
        <ele>1124</ele>
        <time>2024-10-15T06:23:50.000Z</time>
      </trkpt>
      <trkpt lat="45.11068" lon="6.00049">
        <ele>1124.1999511719</ele>
        <time>2024-10-15T06:23:51.000Z</time>
      </trkpt>
      <trkpt lat="45.11068" lon="6.00049">
        <ele>1124.4000244141</ele>
        <time>2024-10-15T06:23:52.000Z</time>
      </trkpt>
      <trkpt lat="45.11068" lon="6.00049">
        <ele>1124.5999755859</ele>
        <time>2024-10-15T06:23:53.000Z</time>
      </trkpt>
      <trkpt lat="45.11068" lon="6.00049">
        <ele>1124.8000488281</ele>
        <time>2024-10-15T06:23:54.000Z</time>
      </trkpt>
      <trkpt lat="45.11068" lon="6.00048">
        <ele>1125</ele>
        <time>2024-10-15T06:23:55.000Z</time>
      </trkpt>
      <trkpt lat="45.11068" lon="6.00048">
        <ele>1125.4000244141</ele>
        <time>2024-10-15T06:23:56.000Z</time>
      </trkpt>
      <trkpt lat="45.11068" lon="6.00048">
        <ele>1125.4000244141</ele>
        <time>2024-10-15T06:23:57.000Z</time>
      </trkpt>
      <trkpt lat="45.11068" lon="6.00048">
        <ele>1125.5999755859</ele>
        <time>2024-10-15T06:23:58.000Z</time>
      </trkpt>
      <trkpt lat="45.11069" lon="6.00047">
        <ele>1126</ele>
        <time>2024-10-15T06:23:59.000Z</time>
      </trkpt>
      <trkpt lat="45.11069" lon="6.00047">
        <ele>1126.1999511719</ele>
        <time>2024-10-15T06:24:00.000Z</time>
      </trkpt>
      <trkpt lat="45.11069" lon="6.00047">
        <ele>1126.1999511719</ele>
        <time>2024-10-15T06:24:01.000Z</time>
      </trkpt>
      <trkpt lat="45.11069" lon="6.00046">
        <ele>1126.4000244141</ele>
        <time>2024-10-15T06:24:02.000Z</time>
      </trkpt>
      <trkpt lat="45.11069" lon="6.00046">
        <ele>1126.5999755859</ele>
        <time>2024-10-15T06:24:03.000Z</time>
      </trkpt>
      <trkpt lat="45.11069" lon="6.00045">
        <ele>1126.8000488281</ele>
        <time>2024-10-15T06:24:04.000Z</time>
      </trkpt>
      <trkpt lat="45.11069" lon="6.00045">
        <ele>1127</ele>
        <time>2024-10-15T06:24:05.000Z</time>
      </trkpt>
      <trkpt lat="45.11069" lon="6.00045">
        <ele>1127.1999511719</ele>
        <time>2024-10-15T06:24:06.000Z</time>
      </trkpt>
      <trkpt lat="45.11069" lon="6.00044">
        <ele>1127.4000244141</ele>
        <time>2024-10-15T06:24:07.000Z</time>
      </trkpt>
      <trkpt lat="45.11069" lon="6.00044">
        <ele>1127.5999755859</ele>
        <time>2024-10-15T06:24:08.000Z</time>
      </trkpt>
      <trkpt lat="45.11069" lon="6.00043">
        <ele>1127.8000488281</ele>
        <time>2024-10-15T06:24:09.000Z</time>
      </trkpt>
      <trkpt lat="45.11069" lon="6.00042">
        <ele>1128</ele>
        <time>2024-10-15T06:24:10.000Z</time>
      </trkpt>
      <trkpt lat="45.1107" lon="6.00042">
        <ele>1128.1999511719</ele>
        <time>2024-10-15T06:24:11.000Z</time>
      </trkpt>
      <trkpt lat="45.1107" lon="6.0004">
        <ele>1128.1999511719</ele>
        <time>2024-10-15T06:24:12.000Z</time>
      </trkpt>
      <trkpt lat="45.1107" lon="6.0004">
        <ele>1128.4000244141</ele>
        <time>2024-10-15T06:24:13.000Z</time>
      </trkpt>
      <trkpt lat="45.1107" lon="6.00039">
        <ele>1128.5999755859</ele>
        <time>2024-10-15T06:24:14.000Z</time>
      </trkpt>
      <trkpt lat="45.1107" lon="6.00038">
        <ele>1128.8000488281</ele>
        <time>2024-10-15T06:24:15.000Z</time>
      </trkpt>
      <trkpt lat="45.1107" lon="6.00038">
        <ele>1129</ele>
        <time>2024-10-15T06:24:16.000Z</time>
      </trkpt>
      <trkpt lat="45.11071" lon="6.00038">
        <ele>1129.4000244141</ele>
        <time>2024-10-15T06:24:17.000Z</time>
      </trkpt>
      <trkpt lat="45.11071" lon="6.00037">
        <ele>1129.4000244141</ele>
        <time>2024-10-15T06:24:18.000Z</time>
      </trkpt>
      <trkpt lat="45.11071" lon="6.00037">
        <ele>1129.5999755859</ele>
        <time>2024-10-15T06:24:19.000Z</time>
      </trkpt>
      <trkpt lat="45.11071" lon="6.00035">
        <ele>1129.5999755859</ele>
        <time>2024-10-15T06:24:20.000Z</time>
      </trkpt>
      <trkpt lat="45.11071" lon="6.00035">
        <ele>1130</ele>
        <time>2024-10-15T06:24:21.000Z</time>
      </trkpt>
      <trkpt lat="45.11071" lon="6.00034">
        <ele>1130</ele>
        <time>2024-10-15T06:24:22.000Z</time>
      </trkpt>
      <trkpt lat="45.11072" lon="6.00034">
        <ele>1130.4000244141</ele>
        <time>2024-10-15T06:24:23.000Z</time>
      </trkpt>
      <trkpt lat="45.11072" lon="6.00034">
        <ele>1130.5999755859</ele>
        <time>2024-10-15T06:24:24.000Z</time>
      </trkpt>
      <trkpt lat="45.11072" lon="6.00034">
        <ele>1130.5999755859</ele>
        <time>2024-10-15T06:24:25.000Z</time>
      </trkpt>
      <trkpt lat="45.11072" lon="6.00034">
        <ele>1130.8000488281</ele>
        <time>2024-10-15T06:24:26.000Z</time>
      </trkpt>
      <trkpt lat="45.11073" lon="6.00033">
        <ele>1131.1999511719</ele>
        <time>2024-10-15T06:24:27.000Z</time>
      </trkpt>
      <trkpt lat="45.11073" lon="6.00032">
        <ele>1131.4000244141</ele>
        <time>2024-10-15T06:24:28.000Z</time>
      </trkpt>
      <trkpt lat="45.11073" lon="6.00032">
        <ele>1131.5999755859</ele>
        <time>2024-10-15T06:24:29.000Z</time>
      </trkpt>
      <trkpt lat="45.11074" lon="6.00032">
        <ele>1131.8000488281</ele>
        <time>2024-10-15T06:24:30.000Z</time>
      </trkpt>
      <trkpt lat="45.11075" lon="6.00031">
        <ele>1132</ele>
        <time>2024-10-15T06:24:31.000Z</time>
      </trkpt>
      <trkpt lat="45.11075" lon="6.0003">
        <ele>1132.4000244141</ele>
        <time>2024-10-15T06:24:32.000Z</time>
      </trkpt>
      <trkpt lat="45.11075" lon="6.00029">
        <ele>1132.4000244141</ele>
        <time>2024-10-15T06:24:33.000Z</time>
      </trkpt>
      <trkpt lat="45.11076" lon="6.00029">
        <ele>1132.5999755859</ele>
        <time>2024-10-15T06:24:34.000Z</time>
      </trkpt>
      <trkpt lat="45.11076" lon="6.00029">
        <ele>1132.8000488281</ele>
        <time>2024-10-15T06:24:35.000Z</time>
      </trkpt>
      <trkpt lat="45.11076" lon="6.00028">
        <ele>1133</ele>
        <time>2024-10-15T06:24:36.000Z</time>
      </trkpt>
      <trkpt lat="45.11076" lon="6.00028">
        <ele>1133.1999511719</ele>
        <time>2024-10-15T06:24:37.000Z</time>
      </trkpt>
      <trkpt lat="45.11077" lon="6.00027">
        <ele>1133.5999755859</ele>
        <time>2024-10-15T06:24:38.000Z</time>
      </trkpt>
      <trkpt lat="45.11077" lon="6.00026">
        <ele>1133.5999755859</ele>
        <time>2024-10-15T06:24:39.000Z</time>
      </trkpt>
      <trkpt lat="45.11077" lon="6.00026">
        <ele>1133.8000488281</ele>
        <time>2024-10-15T06:24:40.000Z</time>
      </trkpt>
      <trkpt lat="45.11077" lon="6.00025">
        <ele>1134</ele>
        <time>2024-10-15T06:24:41.000Z</time>
      </trkpt>
      <trkpt lat="45.11077" lon="6.00025">
        <ele>1134.1999511719</ele>
        <time>2024-10-15T06:24:42.000Z</time>
      </trkpt>
      <trkpt lat="45.11078" lon="6.00025">
        <ele>1134.4000244141</ele>
        <time>2024-10-15T06:24:43.000Z</time>
      </trkpt>
      <trkpt lat="45.11078" lon="6.00025">
        <ele>1134.8000488281</ele>
        <time>2024-10-15T06:24:44.000Z</time>
      </trkpt>
      <trkpt lat="45.11078" lon="6.00025">
        <ele>1135</ele>
        <time>2024-10-15T06:24:45.000Z</time>
      </trkpt>
      <trkpt lat="45.11079" lon="6.00024">
        <ele>1135</ele>
        <time>2024-10-15T06:24:46.000Z</time>
      </trkpt>
      <trkpt lat="45.11079" lon="6.00023">
        <ele>1135.1999511719</ele>
        <time>2024-10-15T06:24:47.000Z</time>
      </trkpt>
      <trkpt lat="45.11079" lon="6.00023">
        <ele>1135.4000244141</ele>
        <time>2024-10-15T06:24:48.000Z</time>
      </trkpt>
      <trkpt lat="45.11079" lon="6.00023">
        <ele>1135.5999755859</ele>
        <time>2024-10-15T06:24:49.000Z</time>
      </trkpt>
      <trkpt lat="45.11079" lon="6.00022">
        <ele>1135.5999755859</ele>
        <time>2024-10-15T06:24:50.000Z</time>
      </trkpt>
      <trkpt lat="45.1108" lon="6.00021">
        <ele>1135.5999755859</ele>
        <time>2024-10-15T06:24:51.000Z</time>
      </trkpt>
      <trkpt lat="45.11081" lon="6.00021">
        <ele>1135.8000488281</ele>
        <time>2024-10-15T06:24:52.000Z</time>
      </trkpt>
      <trkpt lat="45.11082" lon="6.0002">
        <ele>1136</ele>
        <time>2024-10-15T06:24:53.000Z</time>
      </trkpt>
      <trkpt lat="45.11082" lon="6.0002">
        <ele>1136.1999511719</ele>
        <time>2024-10-15T06:24:54.000Z</time>
      </trkpt>
      <trkpt lat="45.11083" lon="6.0002">
        <ele>1136.4000244141</ele>
        <time>2024-10-15T06:24:55.000Z</time>
      </trkpt>
      <trkpt lat="45.11083" lon="6.00019">
        <ele>1136.4000244141</ele>
        <time>2024-10-15T06:24:56.000Z</time>
      </trkpt>
      <trkpt lat="45.11084" lon="6.00018">
        <ele>1136.5999755859</ele>
        <time>2024-10-15T06:24:57.000Z</time>
      </trkpt>
      <trkpt lat="45.11085" lon="6.00017">
        <ele>1136.8000488281</ele>
        <time>2024-10-15T06:24:58.000Z</time>
      </trkpt>
      <trkpt lat="45.11085" lon="6.00017">
        <ele>1137</ele>
        <time>2024-10-15T06:24:59.000Z</time>
      </trkpt>
      <trkpt lat="45.11085" lon="6.00017">
        <ele>1137.1999511719</ele>
        <time>2024-10-15T06:25:00.000Z</time>
      </trkpt>
      <trkpt lat="45.11085" lon="6.00016">
        <ele>1137.4000244141</ele>
        <time>2024-10-15T06:25:01.000Z</time>
      </trkpt>
      <trkpt lat="45.11086" lon="6.00016">
        <ele>1137.5999755859</ele>
        <time>2024-10-15T06:25:02.000Z</time>
      </trkpt>
      <trkpt lat="45.11086" lon="6.00015">
        <ele>1137.8000488281</ele>
        <time>2024-10-15T06:25:03.000Z</time>
      </trkpt>
      <trkpt lat="45.11086" lon="6.00015">
        <ele>1138</ele>
        <time>2024-10-15T06:25:04.000Z</time>
      </trkpt>
      <trkpt lat="45.11086" lon="6.00015">
        <ele>1138.4000244141</ele>
        <time>2024-10-15T06:25:05.000Z</time>
      </trkpt>
      <trkpt lat="45.11087" lon="6.00015">
        <ele>1138.8000488281</ele>
        <time>2024-10-15T06:25:06.000Z</time>
      </trkpt>
      <trkpt lat="45.11087" lon="6.00014">
        <ele>1139</ele>
        <time>2024-10-15T06:25:07.000Z</time>
      </trkpt>
      <trkpt lat="45.11087" lon="6.00014">
        <ele>1139.1999511719</ele>
        <time>2024-10-15T06:25:08.000Z</time>
      </trkpt>
      <trkpt lat="45.11087" lon="6.00014">
        <ele>1139.4000244141</ele>
        <time>2024-10-15T06:25:09.000Z</time>
      </trkpt>
      <trkpt lat="45.11087" lon="6.00013">
        <ele>1139.4000244141</ele>
        <time>2024-10-15T06:25:10.000Z</time>
      </trkpt>
      <trkpt lat="45.11087" lon="6.00013">
        <ele>1139.8000488281</ele>
        <time>2024-10-15T06:25:11.000Z</time>
      </trkpt>
      <trkpt lat="45.11087" lon="6.00012">
        <ele>1140</ele>
        <time>2024-10-15T06:25:12.000Z</time>
      </trkpt>
      <trkpt lat="45.11087" lon="6.00012">
        <ele>1140.1999511719</ele>
        <time>2024-10-15T06:25:13.000Z</time>
      </trkpt>
      <trkpt lat="45.11087" lon="6.00011">
        <ele>1140.4000244141</ele>
        <time>2024-10-15T06:25:14.000Z</time>
      </trkpt>
      <trkpt lat="45.11087" lon="6.00011">
        <ele>1140.5999755859</ele>
        <time>2024-10-15T06:25:15.000Z</time>
      </trkpt>
      <trkpt lat="45.11087" lon="6.0001">
        <ele>1140.8000488281</ele>
        <time>2024-10-15T06:25:16.000Z</time>
      </trkpt>
      <trkpt lat="45.11088" lon="6.0001">
        <ele>1141</ele>
        <time>2024-10-15T06:25:17.000Z</time>
      </trkpt>
      <trkpt lat="45.11088" lon="6.00009">
        <ele>1141.1999511719</ele>
        <time>2024-10-15T06:25:18.000Z</time>
      </trkpt>
      <trkpt lat="45.11088" lon="6.00009">
        <ele>1141.4000244141</ele>
        <time>2024-10-15T06:25:19.000Z</time>
      </trkpt>
      <trkpt lat="45.11088" lon="6.00008">
        <ele>1141.5999755859</ele>
        <time>2024-10-15T06:25:20.000Z</time>
      </trkpt>
      <trkpt lat="45.11088" lon="6.00008">
        <ele>1141.8000488281</ele>
        <time>2024-10-15T06:25:21.000Z</time>
      </trkpt>
      <trkpt lat="45.11089" lon="6.00008">
        <ele>1142</ele>
        <time>2024-10-15T06:25:22.000Z</time>
      </trkpt>
      <trkpt lat="45.11089" lon="6.00008">
        <ele>1142.1999511719</ele>
        <time>2024-10-15T06:25:23.000Z</time>
      </trkpt>
      <trkpt lat="45.11089" lon="6.00008">
        <ele>1142.4000244141</ele>
        <time>2024-10-15T06:25:24.000Z</time>
      </trkpt>
      <trkpt lat="45.11089" lon="6.00007">
        <ele>1142.5999755859</ele>
        <time>2024-10-15T06:25:25.000Z</time>
      </trkpt>
      <trkpt lat="45.11089" lon="6.00006">
        <ele>1142.8000488281</ele>
        <time>2024-10-15T06:25:26.000Z</time>
      </trkpt>
      <trkpt lat="45.11089" lon="6.00005">
        <ele>1142.8000488281</ele>
        <time>2024-10-15T06:25:27.000Z</time>
      </trkpt>
      <trkpt lat="45.11089" lon="6.00004">
        <ele>1143.1999511719</ele>
        <time>2024-10-15T06:25:28.000Z</time>
      </trkpt>
      <trkpt lat="45.11089" lon="6.00003">
        <ele>1143.4000244141</ele>
        <time>2024-10-15T06:25:29.000Z</time>
      </trkpt>
      <trkpt lat="45.1109" lon="6.00003">
        <ele>1143.5999755859</ele>
        <time>2024-10-15T06:25:30.000Z</time>
      </trkpt>
      <trkpt lat="45.1109" lon="6.00002">
        <ele>1143.8000488281</ele>
        <time>2024-10-15T06:25:31.000Z</time>
      </trkpt>
      <trkpt lat="45.1109" lon="6.00002">
        <ele>1144</ele>
        <time>2024-10-15T06:25:32.000Z</time>
      </trkpt>
      <trkpt lat="45.1109" lon="6.00001">
        <ele>1144.1999511719</ele>
        <time>2024-10-15T06:25:33.000Z</time>
      </trkpt>
      <trkpt lat="45.1109" lon="6">
        <ele>1144.4000244141</ele>
        <time>2024-10-15T06:25:34.000Z</time>
      </trkpt>
      <trkpt lat="45.1109" lon="6">
        <ele>1144.5999755859</ele>
        <time>2024-10-15T06:25:35.000Z</time>
      </trkpt>
      <trkpt lat="45.11091" lon="5.99999">
        <ele>1144.8000488281</ele>
        <time>2024-10-15T06:25:36.000Z</time>
      </trkpt>
      <trkpt lat="45.11091" lon="5.99998">
        <ele>1144.8000488281</ele>
        <time>2024-10-15T06:25:37.000Z</time>
      </trkpt>
      <trkpt lat="45.11091" lon="5.99998">
        <ele>1145.1999511719</ele>
        <time>2024-10-15T06:25:38.000Z</time>
      </trkpt>
      <trkpt lat="45.11091" lon="5.99998">
        <ele>1145.4000244141</ele>
        <time>2024-10-15T06:25:39.000Z</time>
      </trkpt>
      <trkpt lat="45.11092" lon="5.99997">
        <ele>1145.4000244141</ele>
        <time>2024-10-15T06:25:40.000Z</time>
      </trkpt>
      <trkpt lat="45.11092" lon="5.99996">
        <ele>1145.8000488281</ele>
        <time>2024-10-15T06:25:41.000Z</time>
      </trkpt>
      <trkpt lat="45.11093" lon="5.99996">
        <ele>1145.8000488281</ele>
        <time>2024-10-15T06:25:42.000Z</time>
      </trkpt>
      <trkpt lat="45.11093" lon="5.99995">
        <ele>1146</ele>
        <time>2024-10-15T06:25:43.000Z</time>
      </trkpt>
      <trkpt lat="45.11093" lon="5.99995">
        <ele>1146.1999511719</ele>
        <time>2024-10-15T06:25:44.000Z</time>
      </trkpt>
      <trkpt lat="45.11093" lon="5.99994">
        <ele>1146.4000244141</ele>
        <time>2024-10-15T06:25:45.000Z</time>
      </trkpt>
      <trkpt lat="45.11093" lon="5.99994">
        <ele>1146.5999755859</ele>
        <time>2024-10-15T06:25:46.000Z</time>
      </trkpt>
      <trkpt lat="45.11093" lon="5.99993">
        <ele>1146.8000488281</ele>
        <time>2024-10-15T06:25:47.000Z</time>
      </trkpt>
      <trkpt lat="45.11093" lon="5.99993">
        <ele>1147</ele>
        <time>2024-10-15T06:25:48.000Z</time>
      </trkpt>
      <trkpt lat="45.11094" lon="5.99992">
        <ele>1147.1999511719</ele>
        <time>2024-10-15T06:25:49.000Z</time>
      </trkpt>
      <trkpt lat="45.11094" lon="5.99991">
        <ele>1147.4000244141</ele>
        <time>2024-10-15T06:25:50.000Z</time>
      </trkpt>
      <trkpt lat="45.11095" lon="5.9999">
        <ele>1147.8000488281</ele>
        <time>2024-10-15T06:25:51.000Z</time>
      </trkpt>
      <trkpt lat="45.11095" lon="5.99989">
        <ele>1148</ele>
        <time>2024-10-15T06:25:52.000Z</time>
      </trkpt>
      <trkpt lat="45.11095" lon="5.99988">
        <ele>1148</ele>
        <time>2024-10-15T06:25:53.000Z</time>
      </trkpt>
      <trkpt lat="45.11096" lon="5.99987">
        <ele>1148.1999511719</ele>
        <time>2024-10-15T06:25:54.000Z</time>
      </trkpt>
      <trkpt lat="45.11096" lon="5.99986">
        <ele>1148.5999755859</ele>
        <time>2024-10-15T06:25:55.000Z</time>
      </trkpt>
      <trkpt lat="45.11096" lon="5.99985">
        <ele>1148.5999755859</ele>
        <time>2024-10-15T06:25:56.000Z</time>
      </trkpt>
      <trkpt lat="45.11096" lon="5.99984">
        <ele>1148.8000488281</ele>
        <time>2024-10-15T06:25:57.000Z</time>
      </trkpt>
      <trkpt lat="45.11096" lon="5.99983">
        <ele>1149</ele>
        <time>2024-10-15T06:25:58.000Z</time>
      </trkpt>
      <trkpt lat="45.11096" lon="5.99982">
        <ele>1149.1999511719</ele>
        <time>2024-10-15T06:25:59.000Z</time>
      </trkpt>
      <trkpt lat="45.11096" lon="5.9998">
        <ele>1149.4000244141</ele>
        <time>2024-10-15T06:26:00.000Z</time>
      </trkpt>
      <trkpt lat="45.11096" lon="5.99979">
        <ele>1149.5999755859</ele>
        <time>2024-10-15T06:26:01.000Z</time>
      </trkpt>
      <trkpt lat="45.11096" lon="5.99979">
        <ele>1149.5999755859</ele>
        <time>2024-10-15T06:26:02.000Z</time>
      </trkpt>
      <trkpt lat="45.11097" lon="5.99978">
        <ele>1149.8000488281</ele>
        <time>2024-10-15T06:26:03.000Z</time>
      </trkpt>
      <trkpt lat="45.11098" lon="5.99977">
        <ele>1150</ele>
        <time>2024-10-15T06:26:04.000Z</time>
      </trkpt>
      <trkpt lat="45.11098" lon="5.99977">
        <ele>1150.1999511719</ele>
        <time>2024-10-15T06:26:05.000Z</time>
      </trkpt>
      <trkpt lat="45.11099" lon="5.99976">
        <ele>1150.1999511719</ele>
        <time>2024-10-15T06:26:06.000Z</time>
      </trkpt>
      <trkpt lat="45.111" lon="5.99975">
        <ele>1150.4000244141</ele>
        <time>2024-10-15T06:26:07.000Z</time>
      </trkpt>
      <trkpt lat="45.11101" lon="5.99974">
        <ele>1150.5999755859</ele>
        <time>2024-10-15T06:26:08.000Z</time>
      </trkpt>
      <trkpt lat="45.11101" lon="5.99974">
        <ele>1150.8000488281</ele>
        <time>2024-10-15T06:26:09.000Z</time>
      </trkpt>
      <trkpt lat="45.11102" lon="5.99973">
        <ele>1150.8000488281</ele>
        <time>2024-10-15T06:26:10.000Z</time>
      </trkpt>
      <trkpt lat="45.11102" lon="5.99971">
        <ele>1151</ele>
        <time>2024-10-15T06:26:11.000Z</time>
      </trkpt>
      <trkpt lat="45.11102" lon="5.99971">
        <ele>1151.1999511719</ele>
        <time>2024-10-15T06:26:12.000Z</time>
      </trkpt>
      <trkpt lat="45.11102" lon="5.99971">
        <ele>1151.1999511719</ele>
        <time>2024-10-15T06:26:13.000Z</time>
      </trkpt>
      <trkpt lat="45.11103" lon="5.9997">
        <ele>1151.1999511719</ele>
        <time>2024-10-15T06:26:14.000Z</time>
      </trkpt>
      <trkpt lat="45.11104" lon="5.99969">
        <ele>1151.4000244141</ele>
        <time>2024-10-15T06:26:15.000Z</time>
      </trkpt>
      <trkpt lat="45.11104" lon="5.99969">
        <ele>1151.5999755859</ele>
        <time>2024-10-15T06:26:16.000Z</time>
      </trkpt>
      <trkpt lat="45.11104" lon="5.99969">
        <ele>1151.5999755859</ele>
        <time>2024-10-15T06:26:17.000Z</time>
      </trkpt>
      <trkpt lat="45.11104" lon="5.99968">
        <ele>1151.5999755859</ele>
        <time>2024-10-15T06:26:18.000Z</time>
      </trkpt>
      <trkpt lat="45.11103" lon="5.99968">
        <ele>1151.8000488281</ele>
        <time>2024-10-15T06:26:19.000Z</time>
      </trkpt>
      <trkpt lat="45.11103" lon="5.99968">
        <ele>1151.8000488281</ele>
        <time>2024-10-15T06:26:20.000Z</time>
      </trkpt>
      <trkpt lat="45.11103" lon="5.99969">
        <ele>1152</ele>
        <time>2024-10-15T06:26:21.000Z</time>
      </trkpt>
      <trkpt lat="45.11103" lon="5.9997">
        <ele>1152.1999511719</ele>
        <time>2024-10-15T06:26:22.000Z</time>
      </trkpt>
      <trkpt lat="45.11102" lon="5.99971">
        <ele>1152.4000244141</ele>
        <time>2024-10-15T06:26:23.000Z</time>
      </trkpt>
      <trkpt lat="45.11102" lon="5.99971">
        <ele>1152.5999755859</ele>
        <time>2024-10-15T06:26:24.000Z</time>
      </trkpt>
      <trkpt lat="45.11102" lon="5.99972">
        <ele>1152.8000488281</ele>
        <time>2024-10-15T06:26:25.000Z</time>
      </trkpt>
      <trkpt lat="45.11102" lon="5.99972">
        <ele>1153.1999511719</ele>
        <time>2024-10-15T06:26:26.000Z</time>
      </trkpt>
      <trkpt lat="45.11102" lon="5.99972">
        <ele>1153.5999755859</ele>
        <time>2024-10-15T06:26:27.000Z</time>
      </trkpt>
      <trkpt lat="45.11101" lon="5.99972">
        <ele>1153.8000488281</ele>
        <time>2024-10-15T06:26:28.000Z</time>
      </trkpt>
      <trkpt lat="45.11101" lon="5.99973">
        <ele>1154.1999511719</ele>
        <time>2024-10-15T06:26:29.000Z</time>
      </trkpt>
      <trkpt lat="45.111" lon="5.99973">
        <ele>1154.4000244141</ele>
        <time>2024-10-15T06:26:30.000Z</time>
      </trkpt>
      <trkpt lat="45.11099" lon="5.99973">
        <ele>1154.5999755859</ele>
        <time>2024-10-15T06:26:31.000Z</time>
      </trkpt>
      <trkpt lat="45.11099" lon="5.99974">
        <ele>1154.5999755859</ele>
        <time>2024-10-15T06:26:32.000Z</time>
      </trkpt>
      <trkpt lat="45.11098" lon="5.99974">
        <ele>1154.8000488281</ele>
        <time>2024-10-15T06:26:33.000Z</time>
      </trkpt>
      <trkpt lat="45.11097" lon="5.99974">
        <ele>1154.8000488281</ele>
        <time>2024-10-15T06:26:34.000Z</time>
      </trkpt>
      <trkpt lat="45.11096" lon="5.99974">
        <ele>1154.8000488281</ele>
        <time>2024-10-15T06:26:35.000Z</time>
      </trkpt>
      <trkpt lat="45.11096" lon="5.99974">
        <ele>1155</ele>
        <time>2024-10-15T06:26:36.000Z</time>
      </trkpt>
      <trkpt lat="45.11095" lon="5.99975">
        <ele>1155</ele>
        <time>2024-10-15T06:26:37.000Z</time>
      </trkpt>
      <trkpt lat="45.11094" lon="5.99975">
        <ele>1155.1999511719</ele>
        <time>2024-10-15T06:26:38.000Z</time>
      </trkpt>
      <trkpt lat="45.11093" lon="5.99977">
        <ele>1155.1999511719</ele>
        <time>2024-10-15T06:26:39.000Z</time>
      </trkpt>
      <trkpt lat="45.11092" lon="5.99978">
        <ele>1155.1999511719</ele>
        <time>2024-10-15T06:26:40.000Z</time>
      </trkpt>
      <trkpt lat="45.11092" lon="5.99978">
        <ele>1155.1999511719</ele>
        <time>2024-10-15T06:26:41.000Z</time>
      </trkpt>
      <trkpt lat="45.11091" lon="5.99978">
        <ele>1155.1999511719</ele>
        <time>2024-10-15T06:26:42.000Z</time>
      </trkpt>
      <trkpt lat="45.1109" lon="5.99978">
        <ele>1155.4000244141</ele>
        <time>2024-10-15T06:26:43.000Z</time>
      </trkpt>
      <trkpt lat="45.11089" lon="5.99978">
        <ele>1155.5999755859</ele>
        <time>2024-10-15T06:26:44.000Z</time>
      </trkpt>
      <trkpt lat="45.11089" lon="5.99977">
        <ele>1155.5999755859</ele>
        <time>2024-10-15T06:26:45.000Z</time>
      </trkpt>
      <trkpt lat="45.11088" lon="5.99977">
        <ele>1155.8000488281</ele>
        <time>2024-10-15T06:26:46.000Z</time>
      </trkpt>
      <trkpt lat="45.11087" lon="5.99977">
        <ele>1155.8000488281</ele>
        <time>2024-10-15T06:26:47.000Z</time>
      </trkpt>
      <trkpt lat="45.11087" lon="5.99978">
        <ele>1156</ele>
        <time>2024-10-15T06:26:48.000Z</time>
      </trkpt>
      <trkpt lat="45.11087" lon="5.99979">
        <ele>1156.1999511719</ele>
        <time>2024-10-15T06:26:49.000Z</time>
      </trkpt>
      <trkpt lat="45.11086" lon="5.99979">
        <ele>1156.4000244141</ele>
        <time>2024-10-15T06:26:50.000Z</time>
      </trkpt>
      <trkpt lat="45.11086" lon="5.9998">
        <ele>1156.5999755859</ele>
        <time>2024-10-15T06:26:51.000Z</time>
      </trkpt>
      <trkpt lat="45.11085" lon="5.9998">
        <ele>1156.5999755859</ele>
        <time>2024-10-15T06:26:52.000Z</time>
      </trkpt>
      <trkpt lat="45.11084" lon="5.99981">
        <ele>1156.5999755859</ele>
        <time>2024-10-15T06:26:53.000Z</time>
      </trkpt>
      <trkpt lat="45.11084" lon="5.99981">
        <ele>1156.5999755859</ele>
        <time>2024-10-15T06:26:54.000Z</time>
      </trkpt>
      <trkpt lat="45.11083" lon="5.99981">
        <ele>1156.8000488281</ele>
        <time>2024-10-15T06:26:55.000Z</time>
      </trkpt>
      <trkpt lat="45.11082" lon="5.9998">
        <ele>1157</ele>
        <time>2024-10-15T06:26:56.000Z</time>
      </trkpt>
      <trkpt lat="45.11081" lon="5.9998">
        <ele>1157</ele>
        <time>2024-10-15T06:26:57.000Z</time>
      </trkpt>
      <trkpt lat="45.11081" lon="5.99981">
        <ele>1157</ele>
        <time>2024-10-15T06:26:58.000Z</time>
      </trkpt>
      <trkpt lat="45.1108" lon="5.99981">
        <ele>1157.1999511719</ele>
        <time>2024-10-15T06:26:59.000Z</time>
      </trkpt>
      <trkpt lat="45.11079" lon="5.99982">
        <ele>1157.4000244141</ele>
        <time>2024-10-15T06:27:00.000Z</time>
      </trkpt>
      <trkpt lat="45.11078" lon="5.99983">
        <ele>1157.4000244141</ele>
        <time>2024-10-15T06:27:01.000Z</time>
      </trkpt>
      <trkpt lat="45.11078" lon="5.99983">
        <ele>1157.5999755859</ele>
        <time>2024-10-15T06:27:02.000Z</time>
      </trkpt>
      <trkpt lat="45.11078" lon="5.99983">
        <ele>1157.5999755859</ele>
        <time>2024-10-15T06:27:03.000Z</time>
      </trkpt>
      <trkpt lat="45.11078" lon="5.99983">
        <ele>1157.5999755859</ele>
        <time>2024-10-15T06:27:04.000Z</time>
      </trkpt>
      <trkpt lat="45.11077" lon="5.99983">
        <ele>1157.8000488281</ele>
        <time>2024-10-15T06:27:05.000Z</time>
      </trkpt>
      <trkpt lat="45.11076" lon="5.99983">
        <ele>1158</ele>
        <time>2024-10-15T06:27:06.000Z</time>
      </trkpt>
      <trkpt lat="45.11076" lon="5.99983">
        <ele>1158.1999511719</ele>
        <time>2024-10-15T06:27:07.000Z</time>
      </trkpt>
      <trkpt lat="45.11076" lon="5.99983">
        <ele>1158.5999755859</ele>
        <time>2024-10-15T06:27:08.000Z</time>
      </trkpt>
      <trkpt lat="45.11075" lon="5.99983">
        <ele>1158.5999755859</ele>
        <time>2024-10-15T06:27:09.000Z</time>
      </trkpt>
      <trkpt lat="45.11074" lon="5.99983">
        <ele>1159</ele>
        <time>2024-10-15T06:27:10.000Z</time>
      </trkpt>
      <trkpt lat="45.11074" lon="5.99982">
        <ele>1159.1999511719</ele>
        <time>2024-10-15T06:27:11.000Z</time>
      </trkpt>
      <trkpt lat="45.11073" lon="5.99981">
        <ele>1159.1999511719</ele>
        <time>2024-10-15T06:27:12.000Z</time>
      </trkpt>
      <trkpt lat="45.11073" lon="5.9998">
        <ele>1159.4000244141</ele>
        <time>2024-10-15T06:27:13.000Z</time>
      </trkpt>
      <trkpt lat="45.11072" lon="5.9998">
        <ele>1159.4000244141</ele>
        <time>2024-10-15T06:27:14.000Z</time>
      </trkpt>
      <trkpt lat="45.1107" lon="5.99979">
        <ele>1159.5999755859</ele>
        <time>2024-10-15T06:27:15.000Z</time>
      </trkpt>
      <trkpt lat="45.1107" lon="5.99978">
        <ele>1159.8000488281</ele>
        <time>2024-10-15T06:27:16.000Z</time>
      </trkpt>
      <trkpt lat="45.11069" lon="5.99978">
        <ele>1159.8000488281</ele>
        <time>2024-10-15T06:27:17.000Z</time>
      </trkpt>
      <trkpt lat="45.11069" lon="5.99978">
        <ele>1160</ele>
        <time>2024-10-15T06:27:18.000Z</time>
      </trkpt>
      <trkpt lat="45.11069" lon="5.99979">
        <ele>1160.1999511719</ele>
        <time>2024-10-15T06:27:19.000Z</time>
      </trkpt>
      <trkpt lat="45.11068" lon="5.99979">
        <ele>1160.4000244141</ele>
        <time>2024-10-15T06:27:20.000Z</time>
      </trkpt>
      <trkpt lat="45.11069" lon="5.99978">
        <ele>1160.4000244141</ele>
        <time>2024-10-15T06:27:21.000Z</time>
      </trkpt>
      <trkpt lat="45.11069" lon="5.99976">
        <ele>1160.4000244141</ele>
        <time>2024-10-15T06:27:22.000Z</time>
      </trkpt>
      <trkpt lat="45.1107" lon="5.99975">
        <ele>1160.4000244141</ele>
        <time>2024-10-15T06:27:23.000Z</time>
      </trkpt>
      <trkpt lat="45.11069" lon="5.99973">
        <ele>1160.5999755859</ele>
        <time>2024-10-15T06:27:24.000Z</time>
      </trkpt>
      <trkpt lat="45.11068" lon="5.99971">
        <ele>1160.5999755859</ele>
        <time>2024-10-15T06:27:25.000Z</time>
      </trkpt>
      <trkpt lat="45.11068" lon="5.9997">
        <ele>1160.8000488281</ele>
        <time>2024-10-15T06:27:26.000Z</time>
      </trkpt>
      <trkpt lat="45.11068" lon="5.99969">
        <ele>1160.8000488281</ele>
        <time>2024-10-15T06:27:27.000Z</time>
      </trkpt>
      <trkpt lat="45.11069" lon="5.99968">
        <ele>1161</ele>
        <time>2024-10-15T06:27:28.000Z</time>
      </trkpt>
      <trkpt lat="45.1107" lon="5.99966">
        <ele>1161.1999511719</ele>
        <time>2024-10-15T06:27:29.000Z</time>
      </trkpt>
      <trkpt lat="45.1107" lon="5.99964">
        <ele>1161.4000244141</ele>
        <time>2024-10-15T06:27:30.000Z</time>
      </trkpt>
      <trkpt lat="45.11071" lon="5.99964">
        <ele>1161.5999755859</ele>
        <time>2024-10-15T06:27:31.000Z</time>
      </trkpt>
      <trkpt lat="45.11071" lon="5.99964">
        <ele>1161.8000488281</ele>
        <time>2024-10-15T06:27:32.000Z</time>
      </trkpt>
      <trkpt lat="45.11071" lon="5.99964">
        <ele>1162</ele>
        <time>2024-10-15T06:27:33.000Z</time>
      </trkpt>
      <trkpt lat="45.11071" lon="5.99964">
        <ele>1162.1999511719</ele>
        <time>2024-10-15T06:27:34.000Z</time>
      </trkpt>
      <trkpt lat="45.11072" lon="5.99964">
        <ele>1162.4000244141</ele>
        <time>2024-10-15T06:27:35.000Z</time>
      </trkpt>
      <trkpt lat="45.11072" lon="5.99963">
        <ele>1162.5999755859</ele>
        <time>2024-10-15T06:27:36.000Z</time>
      </trkpt>
      <trkpt lat="45.11072" lon="5.99962">
        <ele>1162.8000488281</ele>
        <time>2024-10-15T06:27:37.000Z</time>
      </trkpt>
      <trkpt lat="45.11073" lon="5.99961">
        <ele>1162.8000488281</ele>
        <time>2024-10-15T06:27:38.000Z</time>
      </trkpt>
      <trkpt lat="45.11073" lon="5.9996">
        <ele>1163.1999511719</ele>
        <time>2024-10-15T06:27:39.000Z</time>
      </trkpt>
      <trkpt lat="45.11074" lon="5.99959">
        <ele>1163.4000244141</ele>
        <time>2024-10-15T06:27:40.000Z</time>
      </trkpt>
      <trkpt lat="45.11075" lon="5.99958">
        <ele>1163.5999755859</ele>
        <time>2024-10-15T06:27:41.000Z</time>
      </trkpt>
      <trkpt lat="45.11075" lon="5.99958">
        <ele>1163.5999755859</ele>
        <time>2024-10-15T06:27:42.000Z</time>
      </trkpt>
      <trkpt lat="45.11076" lon="5.99957">
        <ele>1163.5999755859</ele>
        <time>2024-10-15T06:27:43.000Z</time>
      </trkpt>
      <trkpt lat="45.11077" lon="5.99956">
        <ele>1163.8000488281</ele>
        <time>2024-10-15T06:27:44.000Z</time>
      </trkpt>
      <trkpt lat="45.11077" lon="5.99955">
        <ele>1163.8000488281</ele>
        <time>2024-10-15T06:27:45.000Z</time>
      </trkpt>
      <trkpt lat="45.11078" lon="5.99953">
        <ele>1163.8000488281</ele>
        <time>2024-10-15T06:27:46.000Z</time>
      </trkpt>
      <trkpt lat="45.11078" lon="5.99951">
        <ele>1163.8000488281</ele>
        <time>2024-10-15T06:27:47.000Z</time>
      </trkpt>
      <trkpt lat="45.11078" lon="5.99949">
        <ele>1164</ele>
        <time>2024-10-15T06:27:48.000Z</time>
      </trkpt>
      <trkpt lat="45.11078" lon="5.99949">
        <ele>1164.4000244141</ele>
        <time>2024-10-15T06:27:49.000Z</time>
      </trkpt>
      <trkpt lat="45.11079" lon="5.99947">
        <ele>1164.5999755859</ele>
        <time>2024-10-15T06:27:50.000Z</time>
      </trkpt>
      <trkpt lat="45.1108" lon="5.99947">
        <ele>1165</ele>
        <time>2024-10-15T06:27:51.000Z</time>
      </trkpt>
      <trkpt lat="45.1108" lon="5.99946">
        <ele>1165.1999511719</ele>
        <time>2024-10-15T06:27:52.000Z</time>
      </trkpt>
      <trkpt lat="45.11081" lon="5.99945">
        <ele>1165.1999511719</ele>
        <time>2024-10-15T06:27:53.000Z</time>
      </trkpt>
      <trkpt lat="45.11081" lon="5.99944">
        <ele>1165.4000244141</ele>
        <time>2024-10-15T06:27:54.000Z</time>
      </trkpt>
      <trkpt lat="45.11082" lon="5.99944">
        <ele>1165.5999755859</ele>
        <time>2024-10-15T06:27:55.000Z</time>
      </trkpt>
      <trkpt lat="45.11082" lon="5.99943">
        <ele>1165.5999755859</ele>
        <time>2024-10-15T06:27:56.000Z</time>
      </trkpt>
      <trkpt lat="45.11083" lon="5.99942">
        <ele>1165.8000488281</ele>
        <time>2024-10-15T06:27:57.000Z</time>
      </trkpt>
      <trkpt lat="45.11085" lon="5.99942">
        <ele>1165.8000488281</ele>
        <time>2024-10-15T06:27:58.000Z</time>
      </trkpt>
      <trkpt lat="45.11086" lon="5.99942">
        <ele>1165.8000488281</ele>
        <time>2024-10-15T06:27:59.000Z</time>
      </trkpt>
      <trkpt lat="45.11086" lon="5.99942">
        <ele>1165.8000488281</ele>
        <time>2024-10-15T06:28:00.000Z</time>
      </trkpt>
      <trkpt lat="45.11086" lon="5.99939">
        <ele>1166</ele>
        <time>2024-10-15T06:28:01.000Z</time>
      </trkpt>
      <trkpt lat="45.11086" lon="5.99939">
        <ele>1166</ele>
        <time>2024-10-15T06:28:02.000Z</time>
      </trkpt>
      <trkpt lat="45.11087" lon="5.99938">
        <ele>1166.1999511719</ele>
        <time>2024-10-15T06:28:03.000Z</time>
      </trkpt>
      <trkpt lat="45.11088" lon="5.99937">
        <ele>1166.4000244141</ele>
        <time>2024-10-15T06:28:04.000Z</time>
      </trkpt>
      <trkpt lat="45.11089" lon="5.99936">
        <ele>1166.5999755859</ele>
        <time>2024-10-15T06:28:05.000Z</time>
      </trkpt>
      <trkpt lat="45.1109" lon="5.99936">
        <ele>1166.8000488281</ele>
        <time>2024-10-15T06:28:06.000Z</time>
      </trkpt>
      <trkpt lat="45.11091" lon="5.99936">
        <ele>1167</ele>
        <time>2024-10-15T06:28:07.000Z</time>
      </trkpt>
      <trkpt lat="45.11092" lon="5.99935">
        <ele>1167.1999511719</ele>
        <time>2024-10-15T06:28:08.000Z</time>
      </trkpt>
      <trkpt lat="45.11092" lon="5.99934">
        <ele>1167.4000244141</ele>
        <time>2024-10-15T06:28:09.000Z</time>
      </trkpt>
      <trkpt lat="45.11091" lon="5.99933">
        <ele>1167.5999755859</ele>
        <time>2024-10-15T06:28:10.000Z</time>
      </trkpt>
      <trkpt lat="45.11091" lon="5.99932">
        <ele>1167.5999755859</ele>
        <time>2024-10-15T06:28:11.000Z</time>
      </trkpt>
      <trkpt lat="45.11091" lon="5.99932">
        <ele>1167.8000488281</ele>
        <time>2024-10-15T06:28:12.000Z</time>
      </trkpt>
      <trkpt lat="45.11091" lon="5.99932">
        <ele>1168</ele>
        <time>2024-10-15T06:28:13.000Z</time>
      </trkpt>
      <trkpt lat="45.11091" lon="5.99932">
        <ele>1168.1999511719</ele>
        <time>2024-10-15T06:28:14.000Z</time>
      </trkpt>
      <trkpt lat="45.11091" lon="5.99932">
        <ele>1168.1999511719</ele>
        <time>2024-10-15T06:28:15.000Z</time>
      </trkpt>
      <trkpt lat="45.11091" lon="5.99932">
        <ele>1168.1999511719</ele>
        <time>2024-10-15T06:28:16.000Z</time>
      </trkpt>
      <trkpt lat="45.11091" lon="5.99931">
        <ele>1168.4000244141</ele>
        <time>2024-10-15T06:28:17.000Z</time>
      </trkpt>
      <trkpt lat="45.11091" lon="5.99931">
        <ele>1168.5999755859</ele>
        <time>2024-10-15T06:28:18.000Z</time>
      </trkpt>
      <trkpt lat="45.11091" lon="5.99931">
        <ele>1168.8000488281</ele>
        <time>2024-10-15T06:28:19.000Z</time>
      </trkpt>
      <trkpt lat="45.11091" lon="5.99931">
        <ele>1168.8000488281</ele>
        <time>2024-10-15T06:28:20.000Z</time>
      </trkpt>
      <trkpt lat="45.11091" lon="5.99931">
        <ele>1168.8000488281</ele>
        <time>2024-10-15T06:28:21.000Z</time>
      </trkpt>
      <trkpt lat="45.11091" lon="5.9993">
        <ele>1168.8000488281</ele>
        <time>2024-10-15T06:28:22.000Z</time>
      </trkpt>
      <trkpt lat="45.11091" lon="5.9993">
        <ele>1168.8000488281</ele>
        <time>2024-10-15T06:28:23.000Z</time>
      </trkpt>
      <trkpt lat="45.11091" lon="5.9993">
        <ele>1168.8000488281</ele>
        <time>2024-10-15T06:28:24.000Z</time>
      </trkpt>
      <trkpt lat="45.11091" lon="5.9993">
        <ele>1168.8000488281</ele>
        <time>2024-10-15T06:28:25.000Z</time>
      </trkpt>
      <trkpt lat="45.11091" lon="5.9993">
        <ele>1168.8000488281</ele>
        <time>2024-10-15T06:28:26.000Z</time>
      </trkpt>
      <trkpt lat="45.11091" lon="5.99929">
        <ele>1168.8000488281</ele>
        <time>2024-10-15T06:28:27.000Z</time>
      </trkpt>
      <trkpt lat="45.1109" lon="5.99929">
        <ele>1168.8000488281</ele>
        <time>2024-10-15T06:28:28.000Z</time>
      </trkpt>
      <trkpt lat="45.1109" lon="5.99929">
        <ele>1168.8000488281</ele>
        <time>2024-10-15T06:28:29.000Z</time>
      </trkpt>
      <trkpt lat="45.11091" lon="5.99929">
        <ele>1168.8000488281</ele>
        <time>2024-10-15T06:28:30.000Z</time>
      </trkpt>
      <trkpt lat="45.11091" lon="5.9993">
        <ele>1168.8000488281</ele>
        <time>2024-10-15T06:28:31.000Z</time>
      </trkpt>
      <trkpt lat="45.11091" lon="5.9993">
        <ele>1168.8000488281</ele>
        <time>2024-10-15T06:28:32.000Z</time>
      </trkpt>
      <trkpt lat="45.11092" lon="5.9993">
        <ele>1168.8000488281</ele>
        <time>2024-10-15T06:28:33.000Z</time>
      </trkpt>
      <trkpt lat="45.11092" lon="5.9993">
        <ele>1168.8000488281</ele>
        <time>2024-10-15T06:28:34.000Z</time>
      </trkpt>
      <trkpt lat="45.11091" lon="5.99929">
        <ele>1168.8000488281</ele>
        <time>2024-10-15T06:28:35.000Z</time>
      </trkpt>
      <trkpt lat="45.11091" lon="5.9993">
        <ele>1168.8000488281</ele>
        <time>2024-10-15T06:28:36.000Z</time>
      </trkpt>
      <trkpt lat="45.11091" lon="5.9993">
        <ele>1168.8000488281</ele>
        <time>2024-10-15T06:28:37.000Z</time>
      </trkpt>
      <trkpt lat="45.11091" lon="5.9993">
        <ele>1168.8000488281</ele>
        <time>2024-10-15T06:28:38.000Z</time>
      </trkpt>
      <trkpt lat="45.11091" lon="5.9993">
        <ele>1168.8000488281</ele>
        <time>2024-10-15T06:28:39.000Z</time>
      </trkpt>
      <trkpt lat="45.11091" lon="5.9993">
        <ele>1168.8000488281</ele>
        <time>2024-10-15T06:28:40.000Z</time>
      </trkpt>
      <trkpt lat="45.11091" lon="5.9993">
        <ele>1168.8000488281</ele>
        <time>2024-10-15T06:28:41.000Z</time>
      </trkpt>
      <trkpt lat="45.11091" lon="5.9993">
        <ele>1168.8000488281</ele>
        <time>2024-10-15T06:28:42.000Z</time>
      </trkpt>
      <trkpt lat="45.11091" lon="5.9993">
        <ele>1168.8000488281</ele>
        <time>2024-10-15T06:28:43.000Z</time>
      </trkpt>
      <trkpt lat="45.11091" lon="5.9993">
        <ele>1168.8000488281</ele>
        <time>2024-10-15T06:28:44.000Z</time>
      </trkpt>
      <trkpt lat="45.11091" lon="5.9993">
        <ele>1168.8000488281</ele>
        <time>2024-10-15T06:28:45.000Z</time>
      </trkpt>
      <trkpt lat="45.11091" lon="5.9993">
        <ele>1168.8000488281</ele>
        <time>2024-10-15T06:28:46.000Z</time>
      </trkpt>
      <trkpt lat="45.1109" lon="5.99931">
        <ele>1168.8000488281</ele>
        <time>2024-10-15T06:28:47.000Z</time>
      </trkpt>
      <trkpt lat="45.11089" lon="5.9993">
        <ele>1168.8000488281</ele>
        <time>2024-10-15T06:28:48.000Z</time>
      </trkpt>
      <trkpt lat="45.11089" lon="5.9993">
        <ele>1168.8000488281</ele>
        <time>2024-10-15T06:28:49.000Z</time>
      </trkpt>
      <trkpt lat="45.11089" lon="5.99929">
        <ele>1168.8000488281</ele>
        <time>2024-10-15T06:28:50.000Z</time>
      </trkpt>
      <trkpt lat="45.11089" lon="5.99929">
        <ele>1169</ele>
        <time>2024-10-15T06:28:51.000Z</time>
      </trkpt>
      <trkpt lat="45.11089" lon="5.99929">
        <ele>1169.1999511719</ele>
        <time>2024-10-15T06:28:52.000Z</time>
      </trkpt>
      <trkpt lat="45.11089" lon="5.99929">
        <ele>1169.1999511719</ele>
        <time>2024-10-15T06:28:53.000Z</time>
      </trkpt>
      <trkpt lat="45.11089" lon="5.99928">
        <ele>1169.1999511719</ele>
        <time>2024-10-15T06:28:54.000Z</time>
      </trkpt>
      <trkpt lat="45.11089" lon="5.99929">
        <ele>1169.1999511719</ele>
        <time>2024-10-15T06:28:55.000Z</time>
      </trkpt>
      <trkpt lat="45.11089" lon="5.99929">
        <ele>1169.1999511719</ele>
        <time>2024-10-15T06:28:56.000Z</time>
      </trkpt>
      <trkpt lat="45.11089" lon="5.99929">
        <ele>1169.1999511719</ele>
        <time>2024-10-15T06:28:57.000Z</time>
      </trkpt>
      <trkpt lat="45.11089" lon="5.99929">
        <ele>1169.1999511719</ele>
        <time>2024-10-15T06:28:58.000Z</time>
      </trkpt>
      <trkpt lat="45.11089" lon="5.99929">
        <ele>1169.1999511719</ele>
        <time>2024-10-15T06:28:59.000Z</time>
      </trkpt>
      <trkpt lat="45.11089" lon="5.99929">
        <ele>1169</ele>
        <time>2024-10-15T06:29:00.000Z</time>
      </trkpt>
      <trkpt lat="45.11089" lon="5.99929">
        <ele>1169</ele>
        <time>2024-10-15T06:29:01.000Z</time>
      </trkpt>
      <trkpt lat="45.11089" lon="5.99929">
        <ele>1169</ele>
        <time>2024-10-15T06:29:02.000Z</time>
      </trkpt>
      <trkpt lat="45.11089" lon="5.99929">
        <ele>1169</ele>
        <time>2024-10-15T06:29:03.000Z</time>
      </trkpt>
      <trkpt lat="45.11089" lon="5.99929">
        <ele>1169</ele>
        <time>2024-10-15T06:29:04.000Z</time>
      </trkpt>
      <trkpt lat="45.11089" lon="5.99929">
        <ele>1169</ele>
        <time>2024-10-15T06:29:05.000Z</time>
      </trkpt>
      <trkpt lat="45.11089" lon="5.99929">
        <ele>1169</ele>
        <time>2024-10-15T06:29:06.000Z</time>
      </trkpt>
      <trkpt lat="45.11089" lon="5.99929">
        <ele>1169</ele>
        <time>2024-10-15T06:29:07.000Z</time>
      </trkpt>
      <trkpt lat="45.11089" lon="5.99929">
        <ele>1169</ele>
        <time>2024-10-15T06:29:08.000Z</time>
      </trkpt>
      <trkpt lat="45.11089" lon="5.99929">
        <ele>1169</ele>
        <time>2024-10-15T06:29:09.000Z</time>
      </trkpt>
      <trkpt lat="45.11089" lon="5.99929">
        <ele>1169</ele>
        <time>2024-10-15T06:29:10.000Z</time>
      </trkpt>
      <trkpt lat="45.11089" lon="5.99929">
        <ele>1168.8000488281</ele>
        <time>2024-10-15T06:29:11.000Z</time>
      </trkpt>
      <trkpt lat="45.11089" lon="5.99929">
        <ele>1168.5999755859</ele>
        <time>2024-10-15T06:29:12.000Z</time>
      </trkpt>
      <trkpt lat="45.11089" lon="5.99929">
        <ele>1168.5999755859</ele>
        <time>2024-10-15T06:29:13.000Z</time>
      </trkpt>
      <trkpt lat="45.11089" lon="5.99928">
        <ele>1168.5999755859</ele>
        <time>2024-10-15T06:29:14.000Z</time>
      </trkpt>
      <trkpt lat="45.11089" lon="5.99928">
        <ele>1168.5999755859</ele>
        <time>2024-10-15T06:29:15.000Z</time>
      </trkpt>
      <trkpt lat="45.11089" lon="5.99928">
        <ele>1168.5999755859</ele>
        <time>2024-10-15T06:29:16.000Z</time>
      </trkpt>
      <trkpt lat="45.11089" lon="5.99928">
        <ele>1168.5999755859</ele>
        <time>2024-10-15T06:29:17.000Z</time>
      </trkpt>
      <trkpt lat="45.11089" lon="5.99928">
        <ele>1168.5999755859</ele>
        <time>2024-10-15T06:29:18.000Z</time>
      </trkpt>
      <trkpt lat="45.11089" lon="5.99928">
        <ele>1168.5999755859</ele>
        <time>2024-10-15T06:29:19.000Z</time>
      </trkpt>
      <trkpt lat="45.11089" lon="5.99928">
        <ele>1168.5999755859</ele>
        <time>2024-10-15T06:29:20.000Z</time>
      </trkpt>
      <trkpt lat="45.11089" lon="5.99928">
        <ele>1168.5999755859</ele>
        <time>2024-10-15T06:29:21.000Z</time>
      </trkpt>
      <trkpt lat="45.11089" lon="5.99928">
        <ele>1168.5999755859</ele>
        <time>2024-10-15T06:29:22.000Z</time>
      </trkpt>
      <trkpt lat="45.11089" lon="5.99928">
        <ele>1168.5999755859</ele>
        <time>2024-10-15T06:29:23.000Z</time>
      </trkpt>
      <trkpt lat="45.11089" lon="5.99928">
        <ele>1168.5999755859</ele>
        <time>2024-10-15T06:29:24.000Z</time>
      </trkpt>
      <trkpt lat="45.11089" lon="5.99927">
        <ele>1168.5999755859</ele>
        <time>2024-10-15T06:29:25.000Z</time>
      </trkpt>
      <trkpt lat="45.11089" lon="5.99927">
        <ele>1168.5999755859</ele>
        <time>2024-10-15T06:29:26.000Z</time>
      </trkpt>
      <trkpt lat="45.11089" lon="5.99927">
        <ele>1168.8000488281</ele>
        <time>2024-10-15T06:29:27.000Z</time>
      </trkpt>
      <trkpt lat="45.11089" lon="5.99927">
        <ele>1168.8000488281</ele>
        <time>2024-10-15T06:29:28.000Z</time>
      </trkpt>
      <trkpt lat="45.11088" lon="5.99927">
        <ele>1168.8000488281</ele>
        <time>2024-10-15T06:29:29.000Z</time>
      </trkpt>
      <trkpt lat="45.11088" lon="5.99927">
        <ele>1168.8000488281</ele>
        <time>2024-10-15T06:29:30.000Z</time>
      </trkpt>
      <trkpt lat="45.11088" lon="5.99927">
        <ele>1168.8000488281</ele>
        <time>2024-10-15T06:29:31.000Z</time>
      </trkpt>
      <trkpt lat="45.11088" lon="5.99927">
        <ele>1168.8000488281</ele>
        <time>2024-10-15T06:29:32.000Z</time>
      </trkpt>
      <trkpt lat="45.11088" lon="5.99927">
        <ele>1169</ele>
        <time>2024-10-15T06:29:33.000Z</time>
      </trkpt>
      <trkpt lat="45.11088" lon="5.99927">
        <ele>1169</ele>
        <time>2024-10-15T06:29:34.000Z</time>
      </trkpt>
      <trkpt lat="45.11088" lon="5.99927">
        <ele>1169</ele>
        <time>2024-10-15T06:29:35.000Z</time>
      </trkpt>
      <trkpt lat="45.11088" lon="5.99927">
        <ele>1169</ele>
        <time>2024-10-15T06:29:36.000Z</time>
      </trkpt>
      <trkpt lat="45.11089" lon="5.99927">
        <ele>1169</ele>
        <time>2024-10-15T06:29:37.000Z</time>
      </trkpt>
      <trkpt lat="45.11089" lon="5.99927">
        <ele>1169</ele>
        <time>2024-10-15T06:29:38.000Z</time>
      </trkpt>
      <trkpt lat="45.11089" lon="5.99927">
        <ele>1168.8000488281</ele>
        <time>2024-10-15T06:29:39.000Z</time>
      </trkpt>
      <trkpt lat="45.11089" lon="5.99927">
        <ele>1168.8000488281</ele>
        <time>2024-10-15T06:29:40.000Z</time>
      </trkpt>
      <trkpt lat="45.11089" lon="5.99927">
        <ele>1168.8000488281</ele>
        <time>2024-10-15T06:29:41.000Z</time>
      </trkpt>
      <trkpt lat="45.11089" lon="5.99927">
        <ele>1168.8000488281</ele>
        <time>2024-10-15T06:29:42.000Z</time>
      </trkpt>
      <trkpt lat="45.11089" lon="5.99927">
        <ele>1168.8000488281</ele>
        <time>2024-10-15T06:29:43.000Z</time>
      </trkpt>
      <trkpt lat="45.11089" lon="5.99927">
        <ele>1169</ele>
        <time>2024-10-15T06:29:44.000Z</time>
      </trkpt>
      <trkpt lat="45.11089" lon="5.99927">
        <ele>1169</ele>
        <time>2024-10-15T06:29:45.000Z</time>
      </trkpt>
      <trkpt lat="45.11089" lon="5.99927">
        <ele>1169</ele>
        <time>2024-10-15T06:29:46.000Z</time>
      </trkpt>
      <trkpt lat="45.11089" lon="5.99927">
        <ele>1169</ele>
        <time>2024-10-15T06:29:47.000Z</time>
      </trkpt>
      <trkpt lat="45.11089" lon="5.99927">
        <ele>1169</ele>
        <time>2024-10-15T06:29:48.000Z</time>
      </trkpt>
      <trkpt lat="45.11089" lon="5.99927">
        <ele>1169</ele>
        <time>2024-10-15T06:29:49.000Z</time>
      </trkpt>
      <trkpt lat="45.11089" lon="5.99927">
        <ele>1168.8000488281</ele>
        <time>2024-10-15T06:29:50.000Z</time>
      </trkpt>
      <trkpt lat="45.11089" lon="5.99927">
        <ele>1168.8000488281</ele>
        <time>2024-10-15T06:29:51.000Z</time>
      </trkpt>
      <trkpt lat="45.11089" lon="5.99927">
        <ele>1168.8000488281</ele>
        <time>2024-10-15T06:29:52.000Z</time>
      </trkpt>
      <trkpt lat="45.11089" lon="5.99927">
        <ele>1168.8000488281</ele>
        <time>2024-10-15T06:29:53.000Z</time>
      </trkpt>
      <trkpt lat="45.11089" lon="5.99927">
        <ele>1168.8000488281</ele>
        <time>2024-10-15T06:29:54.000Z</time>
      </trkpt>
      <trkpt lat="45.11089" lon="5.99927">
        <ele>1168.8000488281</ele>
        <time>2024-10-15T06:29:55.000Z</time>
      </trkpt>
      <trkpt lat="45.11089" lon="5.99927">
        <ele>1169</ele>
        <time>2024-10-15T06:29:56.000Z</time>
      </trkpt>
      <trkpt lat="45.11089" lon="5.99927">
        <ele>1169</ele>
        <time>2024-10-15T06:29:57.000Z</time>
      </trkpt>
      <trkpt lat="45.11089" lon="5.99927">
        <ele>1169.1999511719</ele>
        <time>2024-10-15T06:29:58.000Z</time>
      </trkpt>
      <trkpt lat="45.11089" lon="5.99927">
        <ele>1169.1999511719</ele>
        <time>2024-10-15T06:29:59.000Z</time>
      </trkpt>
      <trkpt lat="45.11089" lon="5.99927">
        <ele>1169.1999511719</ele>
        <time>2024-10-15T06:30:00.000Z</time>
      </trkpt>
      <trkpt lat="45.11089" lon="5.99927">
        <ele>1169.1999511719</ele>
        <time>2024-10-15T06:30:01.000Z</time>
      </trkpt>
      <trkpt lat="45.11089" lon="5.99927">
        <ele>1169.1999511719</ele>
        <time>2024-10-15T06:30:02.000Z</time>
      </trkpt>
      <trkpt lat="45.11089" lon="5.99926">
        <ele>1169.1999511719</ele>
        <time>2024-10-15T06:30:03.000Z</time>
      </trkpt>
      <trkpt lat="45.11089" lon="5.99926">
        <ele>1169.1999511719</ele>
        <time>2024-10-15T06:30:04.000Z</time>
      </trkpt>
      <trkpt lat="45.11089" lon="5.99926">
        <ele>1169.1999511719</ele>
        <time>2024-10-15T06:30:05.000Z</time>
      </trkpt>
      <trkpt lat="45.11089" lon="5.99926">
        <ele>1169.1999511719</ele>
        <time>2024-10-15T06:30:06.000Z</time>
      </trkpt>
      <trkpt lat="45.11089" lon="5.99926">
        <ele>1169.4000244141</ele>
        <time>2024-10-15T06:30:07.000Z</time>
      </trkpt>
      <trkpt lat="45.11089" lon="5.99926">
        <ele>1169.4000244141</ele>
        <time>2024-10-15T06:30:08.000Z</time>
      </trkpt>
      <trkpt lat="45.11089" lon="5.99926">
        <ele>1169.4000244141</ele>
        <time>2024-10-15T06:30:09.000Z</time>
      </trkpt>
      <trkpt lat="45.11089" lon="5.99926">
        <ele>1169.4000244141</ele>
        <time>2024-10-15T06:30:10.000Z</time>
      </trkpt>
      <trkpt lat="45.11089" lon="5.99926">
        <ele>1169.4000244141</ele>
        <time>2024-10-15T06:30:11.000Z</time>
      </trkpt>
      <trkpt lat="45.11089" lon="5.99926">
        <ele>1169.4000244141</ele>
        <time>2024-10-15T06:30:12.000Z</time>
      </trkpt>
      <trkpt lat="45.11089" lon="5.99926">
        <ele>1169.4000244141</ele>
        <time>2024-10-15T06:30:13.000Z</time>
      </trkpt>
      <trkpt lat="45.11089" lon="5.99926">
        <ele>1169.4000244141</ele>
        <time>2024-10-15T06:30:14.000Z</time>
      </trkpt>
      <trkpt lat="45.11089" lon="5.99926">
        <ele>1169.4000244141</ele>
        <time>2024-10-15T06:30:15.000Z</time>
      </trkpt>
      <trkpt lat="45.11089" lon="5.99926">
        <ele>1169.4000244141</ele>
        <time>2024-10-15T06:30:16.000Z</time>
      </trkpt>
      <trkpt lat="45.11089" lon="5.99926">
        <ele>1169.4000244141</ele>
        <time>2024-10-15T06:30:17.000Z</time>
      </trkpt>
      <trkpt lat="45.11089" lon="5.99926">
        <ele>1169.4000244141</ele>
        <time>2024-10-15T06:30:18.000Z</time>
      </trkpt>
      <trkpt lat="45.11089" lon="5.99926">
        <ele>1169.4000244141</ele>
        <time>2024-10-15T06:30:19.000Z</time>
      </trkpt>
      <trkpt lat="45.11089" lon="5.99926">
        <ele>1169.4000244141</ele>
        <time>2024-10-15T06:30:20.000Z</time>
      </trkpt>
      <trkpt lat="45.11089" lon="5.99926">
        <ele>1169.4000244141</ele>
        <time>2024-10-15T06:30:21.000Z</time>
      </trkpt>
      <trkpt lat="45.11089" lon="5.99926">
        <ele>1169.4000244141</ele>
        <time>2024-10-15T06:30:22.000Z</time>
      </trkpt>
      <trkpt lat="45.11089" lon="5.99926">
        <ele>1169.4000244141</ele>
        <time>2024-10-15T06:30:23.000Z</time>
      </trkpt>
      <trkpt lat="45.11089" lon="5.99926">
        <ele>1169.4000244141</ele>
        <time>2024-10-15T06:30:24.000Z</time>
      </trkpt>
      <trkpt lat="45.11089" lon="5.99926">
        <ele>1169.4000244141</ele>
        <time>2024-10-15T06:30:25.000Z</time>
      </trkpt>
      <trkpt lat="45.11089" lon="5.99926">
        <ele>1169.4000244141</ele>
        <time>2024-10-15T06:30:26.000Z</time>
      </trkpt>
      <trkpt lat="45.11089" lon="5.99926">
        <ele>1169.5999755859</ele>
        <time>2024-10-15T06:30:27.000Z</time>
      </trkpt>
      <trkpt lat="45.11089" lon="5.99926">
        <ele>1169.5999755859</ele>
        <time>2024-10-15T06:30:28.000Z</time>
      </trkpt>
      <trkpt lat="45.11089" lon="5.99926">
        <ele>1169.5999755859</ele>
        <time>2024-10-15T06:30:29.000Z</time>
      </trkpt>
      <trkpt lat="45.11089" lon="5.99926">
        <ele>1169.5999755859</ele>
        <time>2024-10-15T06:30:30.000Z</time>
      </trkpt>
      <trkpt lat="45.1109" lon="5.99926">
        <ele>1169.5999755859</ele>
        <time>2024-10-15T06:30:31.000Z</time>
      </trkpt>
      <trkpt lat="45.11089" lon="5.99926">
        <ele>1169.5999755859</ele>
        <time>2024-10-15T06:30:32.000Z</time>
      </trkpt>
      <trkpt lat="45.11089" lon="5.99926">
        <ele>1169.5999755859</ele>
        <time>2024-10-15T06:30:33.000Z</time>
      </trkpt>
      <trkpt lat="45.11089" lon="5.99926">
        <ele>1169.5999755859</ele>
        <time>2024-10-15T06:30:34.000Z</time>
      </trkpt>
      <trkpt lat="45.1109" lon="5.99926">
        <ele>1169.5999755859</ele>
        <time>2024-10-15T06:30:35.000Z</time>
      </trkpt>
      <trkpt lat="45.1109" lon="5.99927">
        <ele>1169.5999755859</ele>
        <time>2024-10-15T06:30:36.000Z</time>
      </trkpt>
      <trkpt lat="45.1109" lon="5.99929">
        <ele>1169.4000244141</ele>
        <time>2024-10-15T06:30:37.000Z</time>
      </trkpt>
      <trkpt lat="45.1109" lon="5.99931">
        <ele>1169.1999511719</ele>
        <time>2024-10-15T06:30:38.000Z</time>
      </trkpt>
      <trkpt lat="45.1109" lon="5.99932">
        <ele>1169</ele>
        <time>2024-10-15T06:30:39.000Z</time>
      </trkpt>
      <trkpt lat="45.11089" lon="5.99933">
        <ele>1168.8000488281</ele>
        <time>2024-10-15T06:30:40.000Z</time>
      </trkpt>
      <trkpt lat="45.11089" lon="5.99934">
        <ele>1168.5999755859</ele>
        <time>2024-10-15T06:30:41.000Z</time>
      </trkpt>
      <trkpt lat="45.11089" lon="5.99935">
        <ele>1168.5999755859</ele>
        <time>2024-10-15T06:30:42.000Z</time>
      </trkpt>
      <trkpt lat="45.11089" lon="5.99936">
        <ele>1168.5999755859</ele>
        <time>2024-10-15T06:30:43.000Z</time>
      </trkpt>
      <trkpt lat="45.11089" lon="5.99937">
        <ele>1168.1999511719</ele>
        <time>2024-10-15T06:30:44.000Z</time>
      </trkpt>
      <trkpt lat="45.11089" lon="5.99937">
        <ele>1168</ele>
        <time>2024-10-15T06:30:45.000Z</time>
      </trkpt>
      <trkpt lat="45.11089" lon="5.99937">
        <ele>1168</ele>
        <time>2024-10-15T06:30:46.000Z</time>
      </trkpt>
      <trkpt lat="45.11089" lon="5.99937">
        <ele>1168</ele>
        <time>2024-10-15T06:30:47.000Z</time>
      </trkpt>
      <trkpt lat="45.11089" lon="5.99937">
        <ele>1168</ele>
        <time>2024-10-15T06:30:48.000Z</time>
      </trkpt>
      <trkpt lat="45.11089" lon="5.99937">
        <ele>1168</ele>
        <time>2024-10-15T06:30:49.000Z</time>
      </trkpt>
      <trkpt lat="45.11089" lon="5.99937">
        <ele>1168</ele>
        <time>2024-10-15T06:30:50.000Z</time>
      </trkpt>
      <trkpt lat="45.11089" lon="5.99937">
        <ele>1168</ele>
        <time>2024-10-15T06:30:51.000Z</time>
      </trkpt>
      <trkpt lat="45.11089" lon="5.99937">
        <ele>1167.8000488281</ele>
        <time>2024-10-15T06:30:52.000Z</time>
      </trkpt>
      <trkpt lat="45.11089" lon="5.99937">
        <ele>1167.8000488281</ele>
        <time>2024-10-15T06:30:53.000Z</time>
      </trkpt>
      <trkpt lat="45.11089" lon="5.99937">
        <ele>1167.8000488281</ele>
        <time>2024-10-15T06:30:54.000Z</time>
      </trkpt>
      <trkpt lat="45.11089" lon="5.99937">
        <ele>1167.8000488281</ele>
        <time>2024-10-15T06:30:55.000Z</time>
      </trkpt>
      <trkpt lat="45.11089" lon="5.99937">
        <ele>1167.8000488281</ele>
        <time>2024-10-15T06:30:56.000Z</time>
      </trkpt>
      <trkpt lat="45.11089" lon="5.99937">
        <ele>1167.8000488281</ele>
        <time>2024-10-15T06:30:57.000Z</time>
      </trkpt>
      <trkpt lat="45.11089" lon="5.99937">
        <ele>1167.8000488281</ele>
        <time>2024-10-15T06:30:58.000Z</time>
      </trkpt>
      <trkpt lat="45.11089" lon="5.99937">
        <ele>1167.8000488281</ele>
        <time>2024-10-15T06:30:59.000Z</time>
      </trkpt>
      <trkpt lat="45.11089" lon="5.99937">
        <ele>1167.8000488281</ele>
        <time>2024-10-15T06:31:00.000Z</time>
      </trkpt>
      <trkpt lat="45.11089" lon="5.99937">
        <ele>1167.8000488281</ele>
        <time>2024-10-15T06:31:01.000Z</time>
      </trkpt>
      <trkpt lat="45.11089" lon="5.99937">
        <ele>1167.8000488281</ele>
        <time>2024-10-15T06:31:02.000Z</time>
      </trkpt>
      <trkpt lat="45.11089" lon="5.99937">
        <ele>1167.8000488281</ele>
        <time>2024-10-15T06:31:03.000Z</time>
      </trkpt>
      <trkpt lat="45.11089" lon="5.99937">
        <ele>1167.8000488281</ele>
        <time>2024-10-15T06:31:04.000Z</time>
      </trkpt>
      <trkpt lat="45.11089" lon="5.99937">
        <ele>1167.8000488281</ele>
        <time>2024-10-15T06:31:05.000Z</time>
      </trkpt>
      <trkpt lat="45.11089" lon="5.99937">
        <ele>1167.8000488281</ele>
        <time>2024-10-15T06:31:06.000Z</time>
      </trkpt>
      <trkpt lat="45.11089" lon="5.99937">
        <ele>1167.8000488281</ele>
        <time>2024-10-15T06:31:07.000Z</time>
      </trkpt>
      <trkpt lat="45.11089" lon="5.99937">
        <ele>1168</ele>
        <time>2024-10-15T06:31:08.000Z</time>
      </trkpt>
      <trkpt lat="45.11089" lon="5.99937">
        <ele>1168</ele>
        <time>2024-10-15T06:31:09.000Z</time>
      </trkpt>
      <trkpt lat="45.11089" lon="5.99937">
        <ele>1167.8000488281</ele>
        <time>2024-10-15T06:31:10.000Z</time>
      </trkpt>
      <trkpt lat="45.11089" lon="5.99937">
        <ele>1167.8000488281</ele>
        <time>2024-10-15T06:31:11.000Z</time>
      </trkpt>
      <trkpt lat="45.11089" lon="5.99938">
        <ele>1167.8000488281</ele>
        <time>2024-10-15T06:31:12.000Z</time>
      </trkpt>
      <trkpt lat="45.11089" lon="5.99938">
        <ele>1168</ele>
        <time>2024-10-15T06:31:13.000Z</time>
      </trkpt>
      <trkpt lat="45.11089" lon="5.99938">
        <ele>1168</ele>
        <time>2024-10-15T06:31:14.000Z</time>
      </trkpt>
      <trkpt lat="45.11089" lon="5.99938">
        <ele>1168</ele>
        <time>2024-10-15T06:31:15.000Z</time>
      </trkpt>
      <trkpt lat="45.11089" lon="5.99938">
        <ele>1168</ele>
        <time>2024-10-15T06:31:16.000Z</time>
      </trkpt>
      <trkpt lat="45.11089" lon="5.99938">
        <ele>1168</ele>
        <time>2024-10-15T06:31:17.000Z</time>
      </trkpt>
      <trkpt lat="45.11089" lon="5.99938">
        <ele>1168</ele>
        <time>2024-10-15T06:31:18.000Z</time>
      </trkpt>
      <trkpt lat="45.11089" lon="5.99938">
        <ele>1168.1999511719</ele>
        <time>2024-10-15T06:31:19.000Z</time>
      </trkpt>
      <trkpt lat="45.11089" lon="5.99938">
        <ele>1168.1999511719</ele>
        <time>2024-10-15T06:31:20.000Z</time>
      </trkpt>
      <trkpt lat="45.11089" lon="5.99938">
        <ele>1168.5999755859</ele>
        <time>2024-10-15T06:31:21.000Z</time>
      </trkpt>
      <trkpt lat="45.11089" lon="5.99938">
        <ele>1168.8000488281</ele>
        <time>2024-10-15T06:31:22.000Z</time>
      </trkpt>
      <trkpt lat="45.11089" lon="5.99938">
        <ele>1168.8000488281</ele>
        <time>2024-10-15T06:31:23.000Z</time>
      </trkpt>
      <trkpt lat="45.11089" lon="5.99938">
        <ele>1168.8000488281</ele>
        <time>2024-10-15T06:31:24.000Z</time>
      </trkpt>
      <trkpt lat="45.11089" lon="5.99938">
        <ele>1168.8000488281</ele>
        <time>2024-10-15T06:31:25.000Z</time>
      </trkpt>
      <trkpt lat="45.11089" lon="5.99938">
        <ele>1168.8000488281</ele>
        <time>2024-10-15T06:31:26.000Z</time>
      </trkpt>
      <trkpt lat="45.11089" lon="5.99938">
        <ele>1169</ele>
        <time>2024-10-15T06:31:27.000Z</time>
      </trkpt>
      <trkpt lat="45.11089" lon="5.99938">
        <ele>1169</ele>
        <time>2024-10-15T06:31:28.000Z</time>
      </trkpt>
      <trkpt lat="45.11089" lon="5.99938">
        <ele>1169</ele>
        <time>2024-10-15T06:31:29.000Z</time>
      </trkpt>
      <trkpt lat="45.11089" lon="5.99938">
        <ele>1169.1999511719</ele>
        <time>2024-10-15T06:31:30.000Z</time>
      </trkpt>
      <trkpt lat="45.11089" lon="5.99938">
        <ele>1169.1999511719</ele>
        <time>2024-10-15T06:31:31.000Z</time>
      </trkpt>
      <trkpt lat="45.11089" lon="5.99938">
        <ele>1169.4000244141</ele>
        <time>2024-10-15T06:31:32.000Z</time>
      </trkpt>
      <trkpt lat="45.11089" lon="5.99938">
        <ele>1169.4000244141</ele>
        <time>2024-10-15T06:31:33.000Z</time>
      </trkpt>
      <trkpt lat="45.11089" lon="5.99938">
        <ele>1169.5999755859</ele>
        <time>2024-10-15T06:31:34.000Z</time>
      </trkpt>
      <trkpt lat="45.11089" lon="5.99938">
        <ele>1169.5999755859</ele>
        <time>2024-10-15T06:31:35.000Z</time>
      </trkpt>
      <trkpt lat="45.11089" lon="5.99938">
        <ele>1169.5999755859</ele>
        <time>2024-10-15T06:31:36.000Z</time>
      </trkpt>
      <trkpt lat="45.11089" lon="5.99938">
        <ele>1169.5999755859</ele>
        <time>2024-10-15T06:31:37.000Z</time>
      </trkpt>
      <trkpt lat="45.1109" lon="5.99938">
        <ele>1169.5999755859</ele>
        <time>2024-10-15T06:31:38.000Z</time>
      </trkpt>
      <trkpt lat="45.1109" lon="5.99938">
        <ele>1169.5999755859</ele>
        <time>2024-10-15T06:31:39.000Z</time>
      </trkpt>
      <trkpt lat="45.1109" lon="5.99938">
        <ele>1169.5999755859</ele>
        <time>2024-10-15T06:31:40.000Z</time>
      </trkpt>
      <trkpt lat="45.11091" lon="5.99938">
        <ele>1169.5999755859</ele>
        <time>2024-10-15T06:31:41.000Z</time>
      </trkpt>
      <trkpt lat="45.11091" lon="5.99938">
        <ele>1169.4000244141</ele>
        <time>2024-10-15T06:31:42.000Z</time>
      </trkpt>
      <trkpt lat="45.11092" lon="5.99938">
        <ele>1169.4000244141</ele>
        <time>2024-10-15T06:31:43.000Z</time>
      </trkpt>
      <trkpt lat="45.11092" lon="5.99938">
        <ele>1169.1999511719</ele>
        <time>2024-10-15T06:31:44.000Z</time>
      </trkpt>
      <trkpt lat="45.11092" lon="5.99938">
        <ele>1169.1999511719</ele>
        <time>2024-10-15T06:31:45.000Z</time>
      </trkpt>
      <trkpt lat="45.11092" lon="5.99938">
        <ele>1169.1999511719</ele>
        <time>2024-10-15T06:31:46.000Z</time>
      </trkpt>
      <trkpt lat="45.11092" lon="5.99938">
        <ele>1169.1999511719</ele>
        <time>2024-10-15T06:31:47.000Z</time>
      </trkpt>
      <trkpt lat="45.11092" lon="5.99938">
        <ele>1169.1999511719</ele>
        <time>2024-10-15T06:31:48.000Z</time>
      </trkpt>
      <trkpt lat="45.11092" lon="5.99938">
        <ele>1169.1999511719</ele>
        <time>2024-10-15T06:31:49.000Z</time>
      </trkpt>
      <trkpt lat="45.11092" lon="5.99938">
        <ele>1169.1999511719</ele>
        <time>2024-10-15T06:31:50.000Z</time>
      </trkpt>
      <trkpt lat="45.11092" lon="5.99938">
        <ele>1169.1999511719</ele>
        <time>2024-10-15T06:31:51.000Z</time>
      </trkpt>
      <trkpt lat="45.11092" lon="5.99938">
        <ele>1169.1999511719</ele>
        <time>2024-10-15T06:31:52.000Z</time>
      </trkpt>
      <trkpt lat="45.11092" lon="5.99937">
        <ele>1169.1999511719</ele>
        <time>2024-10-15T06:31:53.000Z</time>
      </trkpt>
      <trkpt lat="45.11092" lon="5.99937">
        <ele>1169.1999511719</ele>
        <time>2024-10-15T06:31:54.000Z</time>
      </trkpt>
      <trkpt lat="45.11092" lon="5.99937">
        <ele>1169.1999511719</ele>
        <time>2024-10-15T06:31:55.000Z</time>
      </trkpt>
      <trkpt lat="45.11092" lon="5.99937">
        <ele>1169.4000244141</ele>
        <time>2024-10-15T06:31:56.000Z</time>
      </trkpt>
      <trkpt lat="45.11093" lon="5.99937">
        <ele>1169.4000244141</ele>
        <time>2024-10-15T06:31:57.000Z</time>
      </trkpt>
      <trkpt lat="45.11093" lon="5.99937">
        <ele>1169.4000244141</ele>
        <time>2024-10-15T06:31:58.000Z</time>
      </trkpt>
      <trkpt lat="45.11093" lon="5.99937">
        <ele>1169.4000244141</ele>
        <time>2024-10-15T06:31:59.000Z</time>
      </trkpt>
      <trkpt lat="45.11093" lon="5.99937">
        <ele>1169.4000244141</ele>
        <time>2024-10-15T06:32:00.000Z</time>
      </trkpt>
      <trkpt lat="45.11093" lon="5.99937">
        <ele>1169.4000244141</ele>
        <time>2024-10-15T06:32:01.000Z</time>
      </trkpt>
      <trkpt lat="45.11093" lon="5.99937">
        <ele>1169.4000244141</ele>
        <time>2024-10-15T06:32:02.000Z</time>
      </trkpt>
      <trkpt lat="45.11093" lon="5.99937">
        <ele>1169.4000244141</ele>
        <time>2024-10-15T06:32:03.000Z</time>
      </trkpt>
      <trkpt lat="45.11093" lon="5.99937">
        <ele>1169.4000244141</ele>
        <time>2024-10-15T06:32:04.000Z</time>
      </trkpt>
      <trkpt lat="45.11093" lon="5.99937">
        <ele>1169.4000244141</ele>
        <time>2024-10-15T06:32:05.000Z</time>
      </trkpt>
      <trkpt lat="45.11093" lon="5.99937">
        <ele>1169.4000244141</ele>
        <time>2024-10-15T06:32:06.000Z</time>
      </trkpt>
      <trkpt lat="45.11093" lon="5.99937">
        <ele>1169.4000244141</ele>
        <time>2024-10-15T06:32:07.000Z</time>
      </trkpt>
      <trkpt lat="45.11093" lon="5.99937">
        <ele>1169.4000244141</ele>
        <time>2024-10-15T06:32:08.000Z</time>
      </trkpt>
      <trkpt lat="45.11093" lon="5.99937">
        <ele>1169.4000244141</ele>
        <time>2024-10-15T06:32:09.000Z</time>
      </trkpt>
      <trkpt lat="45.11093" lon="5.99937">
        <ele>1169.8000488281</ele>
        <time>2024-10-15T06:32:10.000Z</time>
      </trkpt>
      <trkpt lat="45.11093" lon="5.99937">
        <ele>1170</ele>
        <time>2024-10-15T06:32:11.000Z</time>
      </trkpt>
      <trkpt lat="45.11093" lon="5.99937">
        <ele>1170</ele>
        <time>2024-10-15T06:32:12.000Z</time>
      </trkpt>
      <trkpt lat="45.11093" lon="5.99937">
        <ele>1170.1999511719</ele>
        <time>2024-10-15T06:32:13.000Z</time>
      </trkpt>
      <trkpt lat="45.11093" lon="5.99937">
        <ele>1170.5999755859</ele>
        <time>2024-10-15T06:32:14.000Z</time>
      </trkpt>
      <trkpt lat="45.11093" lon="5.99937">
        <ele>1170.5999755859</ele>
        <time>2024-10-15T06:32:15.000Z</time>
      </trkpt>
      <trkpt lat="45.11093" lon="5.99937">
        <ele>1170.5999755859</ele>
        <time>2024-10-15T06:32:16.000Z</time>
      </trkpt>
      <trkpt lat="45.11093" lon="5.99937">
        <ele>1170.5999755859</ele>
        <time>2024-10-15T06:32:17.000Z</time>
      </trkpt>
      <trkpt lat="45.11093" lon="5.99937">
        <ele>1170.8000488281</ele>
        <time>2024-10-15T06:32:18.000Z</time>
      </trkpt>
      <trkpt lat="45.11093" lon="5.99937">
        <ele>1170.8000488281</ele>
        <time>2024-10-15T06:32:19.000Z</time>
      </trkpt>
      <trkpt lat="45.11093" lon="5.99937">
        <ele>1170.8000488281</ele>
        <time>2024-10-15T06:32:20.000Z</time>
      </trkpt>
      <trkpt lat="45.11093" lon="5.99937">
        <ele>1170.8000488281</ele>
        <time>2024-10-15T06:32:21.000Z</time>
      </trkpt>
      <trkpt lat="45.11094" lon="5.99937">
        <ele>1170.8000488281</ele>
        <time>2024-10-15T06:32:22.000Z</time>
      </trkpt>
      <trkpt lat="45.11094" lon="5.99937">
        <ele>1170.8000488281</ele>
        <time>2024-10-15T06:32:23.000Z</time>
      </trkpt>
      <trkpt lat="45.11094" lon="5.99937">
        <ele>1170.8000488281</ele>
        <time>2024-10-15T06:32:24.000Z</time>
      </trkpt>
      <trkpt lat="45.11094" lon="5.99936">
        <ele>1170.8000488281</ele>
        <time>2024-10-15T06:32:25.000Z</time>
      </trkpt>
      <trkpt lat="45.11094" lon="5.99936">
        <ele>1170.8000488281</ele>
        <time>2024-10-15T06:32:26.000Z</time>
      </trkpt>
      <trkpt lat="45.11094" lon="5.99936">
        <ele>1170.8000488281</ele>
        <time>2024-10-15T06:32:27.000Z</time>
      </trkpt>
      <trkpt lat="45.11094" lon="5.99936">
        <ele>1171</ele>
        <time>2024-10-15T06:32:28.000Z</time>
      </trkpt>
      <trkpt lat="45.11094" lon="5.99936">
        <ele>1171</ele>
        <time>2024-10-15T06:32:29.000Z</time>
      </trkpt>
      <trkpt lat="45.11094" lon="5.99936">
        <ele>1171</ele>
        <time>2024-10-15T06:32:30.000Z</time>
      </trkpt>
      <trkpt lat="45.11094" lon="5.99936">
        <ele>1171</ele>
        <time>2024-10-15T06:32:31.000Z</time>
      </trkpt>
      <trkpt lat="45.11094" lon="5.99935">
        <ele>1171.4000244141</ele>
        <time>2024-10-15T06:32:32.000Z</time>
      </trkpt>
      <trkpt lat="45.11094" lon="5.99935">
        <ele>1171.4000244141</ele>
        <time>2024-10-15T06:32:33.000Z</time>
      </trkpt>
      <trkpt lat="45.11094" lon="5.99935">
        <ele>1171.4000244141</ele>
        <time>2024-10-15T06:32:34.000Z</time>
      </trkpt>
      <trkpt lat="45.11094" lon="5.99935">
        <ele>1171.5999755859</ele>
        <time>2024-10-15T06:32:35.000Z</time>
      </trkpt>
      <trkpt lat="45.11094" lon="5.99935">
        <ele>1171.5999755859</ele>
        <time>2024-10-15T06:32:36.000Z</time>
      </trkpt>
      <trkpt lat="45.11094" lon="5.99935">
        <ele>1171.8000488281</ele>
        <time>2024-10-15T06:32:37.000Z</time>
      </trkpt>
      <trkpt lat="45.11094" lon="5.99935">
        <ele>1172</ele>
        <time>2024-10-15T06:32:38.000Z</time>
      </trkpt>
      <trkpt lat="45.11094" lon="5.99935">
        <ele>1172.1999511719</ele>
        <time>2024-10-15T06:32:39.000Z</time>
      </trkpt>
      <trkpt lat="45.11093" lon="5.99936">
        <ele>1172.5999755859</ele>
        <time>2024-10-15T06:32:40.000Z</time>
      </trkpt>
      <trkpt lat="45.11092" lon="5.99936">
        <ele>1172.5999755859</ele>
        <time>2024-10-15T06:32:41.000Z</time>
      </trkpt>
      <trkpt lat="45.1109" lon="5.99937">
        <ele>1173</ele>
        <time>2024-10-15T06:32:42.000Z</time>
      </trkpt>
      <trkpt lat="45.11089" lon="5.99937">
        <ele>1173.1999511719</ele>
        <time>2024-10-15T06:32:43.000Z</time>
      </trkpt>
      <trkpt lat="45.11088" lon="5.99937">
        <ele>1173.1999511719</ele>
        <time>2024-10-15T06:32:44.000Z</time>
      </trkpt>
      <trkpt lat="45.11087" lon="5.99937">
        <ele>1173.1999511719</ele>
        <time>2024-10-15T06:32:45.000Z</time>
      </trkpt>
      <trkpt lat="45.11086" lon="5.99937">
        <ele>1173.1999511719</ele>
        <time>2024-10-15T06:32:46.000Z</time>
      </trkpt>
      <trkpt lat="45.11085" lon="5.99937">
        <ele>1173.1999511719</ele>
        <time>2024-10-15T06:32:47.000Z</time>
      </trkpt>
      <trkpt lat="45.11084" lon="5.99938">
        <ele>1173.4000244141</ele>
        <time>2024-10-15T06:32:48.000Z</time>
      </trkpt>
      <trkpt lat="45.11083" lon="5.99938">
        <ele>1173.5999755859</ele>
        <time>2024-10-15T06:32:49.000Z</time>
      </trkpt>
      <trkpt lat="45.11083" lon="5.99938">
        <ele>1173.8000488281</ele>
        <time>2024-10-15T06:32:50.000Z</time>
      </trkpt>
      <trkpt lat="45.11082" lon="5.99939">
        <ele>1174</ele>
        <time>2024-10-15T06:32:51.000Z</time>
      </trkpt>
      <trkpt lat="45.11081" lon="5.9994">
        <ele>1174.4000244141</ele>
        <time>2024-10-15T06:32:52.000Z</time>
      </trkpt>
      <trkpt lat="45.1108" lon="5.99941">
        <ele>1174.5999755859</ele>
        <time>2024-10-15T06:32:53.000Z</time>
      </trkpt>
      <trkpt lat="45.11079" lon="5.9994">
        <ele>1174.5999755859</ele>
        <time>2024-10-15T06:32:54.000Z</time>
      </trkpt>
      <trkpt lat="45.11078" lon="5.9994">
        <ele>1174.8000488281</ele>
        <time>2024-10-15T06:32:55.000Z</time>
      </trkpt>
      <trkpt lat="45.11078" lon="5.99939">
        <ele>1174.8000488281</ele>
        <time>2024-10-15T06:32:56.000Z</time>
      </trkpt>
      <trkpt lat="45.11078" lon="5.99938">
        <ele>1175</ele>
        <time>2024-10-15T06:32:57.000Z</time>
      </trkpt>
      <trkpt lat="45.11078" lon="5.99937">
        <ele>1175.1999511719</ele>
        <time>2024-10-15T06:32:58.000Z</time>
      </trkpt>
      <trkpt lat="45.11078" lon="5.99937">
        <ele>1175.4000244141</ele>
        <time>2024-10-15T06:32:59.000Z</time>
      </trkpt>
      <trkpt lat="45.11077" lon="5.99935">
        <ele>1175.8000488281</ele>
        <time>2024-10-15T06:33:00.000Z</time>
      </trkpt>
      <trkpt lat="45.11076" lon="5.99934">
        <ele>1176</ele>
        <time>2024-10-15T06:33:01.000Z</time>
      </trkpt>
      <trkpt lat="45.11076" lon="5.99934">
        <ele>1176.4000244141</ele>
        <time>2024-10-15T06:33:02.000Z</time>
      </trkpt>
      <trkpt lat="45.11076" lon="5.99934">
        <ele>1176.5999755859</ele>
        <time>2024-10-15T06:33:03.000Z</time>
      </trkpt>
      <trkpt lat="45.11076" lon="5.99932">
        <ele>1176.8000488281</ele>
        <time>2024-10-15T06:33:04.000Z</time>
      </trkpt>
      <trkpt lat="45.11075" lon="5.99932">
        <ele>1177</ele>
        <time>2024-10-15T06:33:05.000Z</time>
      </trkpt>
      <trkpt lat="45.11075" lon="5.99931">
        <ele>1177.1999511719</ele>
        <time>2024-10-15T06:33:06.000Z</time>
      </trkpt>
      <trkpt lat="45.11075" lon="5.99931">
        <ele>1177.1999511719</ele>
        <time>2024-10-15T06:33:07.000Z</time>
      </trkpt>
      <trkpt lat="45.11075" lon="5.9993">
        <ele>1177.1999511719</ele>
        <time>2024-10-15T06:33:08.000Z</time>
      </trkpt>
      <trkpt lat="45.11074" lon="5.99928">
        <ele>1177.1999511719</ele>
        <time>2024-10-15T06:33:09.000Z</time>
      </trkpt>
      <trkpt lat="45.11073" lon="5.99927">
        <ele>1177.1999511719</ele>
        <time>2024-10-15T06:33:10.000Z</time>
      </trkpt>
      <trkpt lat="45.11073" lon="5.99926">
        <ele>1177.1999511719</ele>
        <time>2024-10-15T06:33:11.000Z</time>
      </trkpt>
      <trkpt lat="45.11074" lon="5.99925">
        <ele>1177.4000244141</ele>
        <time>2024-10-15T06:33:12.000Z</time>
      </trkpt>
      <trkpt lat="45.11074" lon="5.99925">
        <ele>1177.5999755859</ele>
        <time>2024-10-15T06:33:13.000Z</time>
      </trkpt>
      <trkpt lat="45.11074" lon="5.99925">
        <ele>1177.8000488281</ele>
        <time>2024-10-15T06:33:14.000Z</time>
      </trkpt>
      <trkpt lat="45.11074" lon="5.99925">
        <ele>1177.8000488281</ele>
        <time>2024-10-15T06:33:15.000Z</time>
      </trkpt>
      <trkpt lat="45.11074" lon="5.99924">
        <ele>1178</ele>
        <time>2024-10-15T06:33:16.000Z</time>
      </trkpt>
      <trkpt lat="45.11075" lon="5.99924">
        <ele>1178.1999511719</ele>
        <time>2024-10-15T06:33:17.000Z</time>
      </trkpt>
      <trkpt lat="45.11075" lon="5.99924">
        <ele>1178.4000244141</ele>
        <time>2024-10-15T06:33:18.000Z</time>
      </trkpt>
      <trkpt lat="45.11076" lon="5.99923">
        <ele>1178.5999755859</ele>
        <time>2024-10-15T06:33:19.000Z</time>
      </trkpt>
      <trkpt lat="45.11077" lon="5.99923">
        <ele>1178.5999755859</ele>
        <time>2024-10-15T06:33:20.000Z</time>
      </trkpt>
      <trkpt lat="45.11077" lon="5.99922">
        <ele>1178.8000488281</ele>
        <time>2024-10-15T06:33:21.000Z</time>
      </trkpt>
      <trkpt lat="45.11077" lon="5.99921">
        <ele>1179</ele>
        <time>2024-10-15T06:33:22.000Z</time>
      </trkpt>
      <trkpt lat="45.11077" lon="5.99921">
        <ele>1179.1999511719</ele>
        <time>2024-10-15T06:33:23.000Z</time>
      </trkpt>
      <trkpt lat="45.11077" lon="5.9992">
        <ele>1179.1999511719</ele>
        <time>2024-10-15T06:33:24.000Z</time>
      </trkpt>
      <trkpt lat="45.11076" lon="5.9992">
        <ele>1179.1999511719</ele>
        <time>2024-10-15T06:33:25.000Z</time>
      </trkpt>
      <trkpt lat="45.11076" lon="5.9992">
        <ele>1179.4000244141</ele>
        <time>2024-10-15T06:33:26.000Z</time>
      </trkpt>
      <trkpt lat="45.11076" lon="5.9992">
        <ele>1179.4000244141</ele>
        <time>2024-10-15T06:33:27.000Z</time>
      </trkpt>
      <trkpt lat="45.11076" lon="5.9992">
        <ele>1179.4000244141</ele>
        <time>2024-10-15T06:33:28.000Z</time>
      </trkpt>
      <trkpt lat="45.11076" lon="5.9992">
        <ele>1179.8000488281</ele>
        <time>2024-10-15T06:33:29.000Z</time>
      </trkpt>
      <trkpt lat="45.11075" lon="5.9992">
        <ele>1180</ele>
        <time>2024-10-15T06:33:30.000Z</time>
      </trkpt>
      <trkpt lat="45.11075" lon="5.9992">
        <ele>1180</ele>
        <time>2024-10-15T06:33:31.000Z</time>
      </trkpt>
      <trkpt lat="45.11075" lon="5.9992">
        <ele>1180.4000244141</ele>
        <time>2024-10-15T06:33:32.000Z</time>
      </trkpt>
      <trkpt lat="45.11074" lon="5.99921">
        <ele>1180.4000244141</ele>
        <time>2024-10-15T06:33:33.000Z</time>
      </trkpt>
      <trkpt lat="45.11074" lon="5.9992">
        <ele>1181</ele>
        <time>2024-10-15T06:33:34.000Z</time>
      </trkpt>
      <trkpt lat="45.11073" lon="5.99921">
        <ele>1181</ele>
        <time>2024-10-15T06:33:35.000Z</time>
      </trkpt>
      <trkpt lat="45.11073" lon="5.9992">
        <ele>1181</ele>
        <time>2024-10-15T06:33:36.000Z</time>
      </trkpt>
      <trkpt lat="45.11072" lon="5.99921">
        <ele>1181.1999511719</ele>
        <time>2024-10-15T06:33:37.000Z</time>
      </trkpt>
      <trkpt lat="45.11072" lon="5.99922">
        <ele>1181.4000244141</ele>
        <time>2024-10-15T06:33:38.000Z</time>
      </trkpt>
      <trkpt lat="45.11072" lon="5.99922">
        <ele>1181.4000244141</ele>
        <time>2024-10-15T06:33:39.000Z</time>
      </trkpt>
      <trkpt lat="45.11071" lon="5.99922">
        <ele>1181.4000244141</ele>
        <time>2024-10-15T06:33:40.000Z</time>
      </trkpt>
      <trkpt lat="45.11071" lon="5.99922">
        <ele>1181.5999755859</ele>
        <time>2024-10-15T06:33:41.000Z</time>
      </trkpt>
      <trkpt lat="45.1107" lon="5.99921">
        <ele>1181.8000488281</ele>
        <time>2024-10-15T06:33:42.000Z</time>
      </trkpt>
      <trkpt lat="45.11071" lon="5.99921">
        <ele>1182</ele>
        <time>2024-10-15T06:33:43.000Z</time>
      </trkpt>
      <trkpt lat="45.11071" lon="5.9992">
        <ele>1182.1999511719</ele>
        <time>2024-10-15T06:33:44.000Z</time>
      </trkpt>
      <trkpt lat="45.11071" lon="5.9992">
        <ele>1182.4000244141</ele>
        <time>2024-10-15T06:33:45.000Z</time>
      </trkpt>
      <trkpt lat="45.11071" lon="5.99919">
        <ele>1182.5999755859</ele>
        <time>2024-10-15T06:33:46.000Z</time>
      </trkpt>
      <trkpt lat="45.11071" lon="5.99918">
        <ele>1183</ele>
        <time>2024-10-15T06:33:47.000Z</time>
      </trkpt>
      <trkpt lat="45.11071" lon="5.99918">
        <ele>1183.4000244141</ele>
        <time>2024-10-15T06:33:48.000Z</time>
      </trkpt>
      <trkpt lat="45.11071" lon="5.99917">
        <ele>1183.5999755859</ele>
        <time>2024-10-15T06:33:49.000Z</time>
      </trkpt>
      <trkpt lat="45.11071" lon="5.99916">
        <ele>1183.8000488281</ele>
        <time>2024-10-15T06:33:50.000Z</time>
      </trkpt>
      <trkpt lat="45.11071" lon="5.99914">
        <ele>1184.1999511719</ele>
        <time>2024-10-15T06:33:51.000Z</time>
      </trkpt>
      <trkpt lat="45.11071" lon="5.99914">
        <ele>1184.1999511719</ele>
        <time>2024-10-15T06:33:52.000Z</time>
      </trkpt>
      <trkpt lat="45.11071" lon="5.99912">
        <ele>1184.4000244141</ele>
        <time>2024-10-15T06:33:53.000Z</time>
      </trkpt>
      <trkpt lat="45.11071" lon="5.99911">
        <ele>1184.5999755859</ele>
        <time>2024-10-15T06:33:54.000Z</time>
      </trkpt>
      <trkpt lat="45.11071" lon="5.9991">
        <ele>1184.5999755859</ele>
        <time>2024-10-15T06:33:55.000Z</time>
      </trkpt>
      <trkpt lat="45.11071" lon="5.99909">
        <ele>1184.8000488281</ele>
        <time>2024-10-15T06:33:56.000Z</time>
      </trkpt>
      <trkpt lat="45.11071" lon="5.99908">
        <ele>1185</ele>
        <time>2024-10-15T06:33:57.000Z</time>
      </trkpt>
      <trkpt lat="45.11071" lon="5.99906">
        <ele>1185.1999511719</ele>
        <time>2024-10-15T06:33:58.000Z</time>
      </trkpt>
      <trkpt lat="45.11071" lon="5.99906">
        <ele>1185.1999511719</ele>
        <time>2024-10-15T06:33:59.000Z</time>
      </trkpt>
      <trkpt lat="45.11071" lon="5.99905">
        <ele>1185.1999511719</ele>
        <time>2024-10-15T06:34:00.000Z</time>
      </trkpt>
      <trkpt lat="45.11072" lon="5.99904">
        <ele>1185.4000244141</ele>
        <time>2024-10-15T06:34:01.000Z</time>
      </trkpt>
      <trkpt lat="45.11072" lon="5.99904">
        <ele>1185.5999755859</ele>
        <time>2024-10-15T06:34:02.000Z</time>
      </trkpt>
      <trkpt lat="45.11072" lon="5.99903">
        <ele>1185.8000488281</ele>
        <time>2024-10-15T06:34:03.000Z</time>
      </trkpt>
      <trkpt lat="45.11072" lon="5.99902">
        <ele>1186</ele>
        <time>2024-10-15T06:34:04.000Z</time>
      </trkpt>
      <trkpt lat="45.11072" lon="5.99902">
        <ele>1186.1999511719</ele>
        <time>2024-10-15T06:34:05.000Z</time>
      </trkpt>
      <trkpt lat="45.11072" lon="5.999">
        <ele>1186.1999511719</ele>
        <time>2024-10-15T06:34:06.000Z</time>
      </trkpt>
      <trkpt lat="45.11072" lon="5.999">
        <ele>1186.4000244141</ele>
        <time>2024-10-15T06:34:07.000Z</time>
      </trkpt>
      <trkpt lat="45.11072" lon="5.99899">
        <ele>1186.8000488281</ele>
        <time>2024-10-15T06:34:08.000Z</time>
      </trkpt>
      <trkpt lat="45.11072" lon="5.99899">
        <ele>1187</ele>
        <time>2024-10-15T06:34:09.000Z</time>
      </trkpt>
      <trkpt lat="45.11071" lon="5.99898">
        <ele>1187</ele>
        <time>2024-10-15T06:34:10.000Z</time>
      </trkpt>
      <trkpt lat="45.11071" lon="5.99898">
        <ele>1187.4000244141</ele>
        <time>2024-10-15T06:34:11.000Z</time>
      </trkpt>
      <trkpt lat="45.1107" lon="5.99898">
        <ele>1187.5999755859</ele>
        <time>2024-10-15T06:34:12.000Z</time>
      </trkpt>
      <trkpt lat="45.1107" lon="5.99898">
        <ele>1187.5999755859</ele>
        <time>2024-10-15T06:34:13.000Z</time>
      </trkpt>
      <trkpt lat="45.1107" lon="5.99898">
        <ele>1187.8000488281</ele>
        <time>2024-10-15T06:34:14.000Z</time>
      </trkpt>
      <trkpt lat="45.11069" lon="5.99898">
        <ele>1188</ele>
        <time>2024-10-15T06:34:15.000Z</time>
      </trkpt>
      <trkpt lat="45.11068" lon="5.99898">
        <ele>1188.4000244141</ele>
        <time>2024-10-15T06:34:16.000Z</time>
      </trkpt>
      <trkpt lat="45.11067" lon="5.99898">
        <ele>1188.4000244141</ele>
        <time>2024-10-15T06:34:17.000Z</time>
      </trkpt>
      <trkpt lat="45.11067" lon="5.99898">
        <ele>1188.4000244141</ele>
        <time>2024-10-15T06:34:18.000Z</time>
      </trkpt>
      <trkpt lat="45.11066" lon="5.99898">
        <ele>1188.5999755859</ele>
        <time>2024-10-15T06:34:19.000Z</time>
      </trkpt>
      <trkpt lat="45.11066" lon="5.99899">
        <ele>1188.5999755859</ele>
        <time>2024-10-15T06:34:20.000Z</time>
      </trkpt>
      <trkpt lat="45.11066" lon="5.99899">
        <ele>1188.8000488281</ele>
        <time>2024-10-15T06:34:21.000Z</time>
      </trkpt>
      <trkpt lat="45.11065" lon="5.999">
        <ele>1189</ele>
        <time>2024-10-15T06:34:22.000Z</time>
      </trkpt>
      <trkpt lat="45.11065" lon="5.999">
        <ele>1189</ele>
        <time>2024-10-15T06:34:23.000Z</time>
      </trkpt>
      <trkpt lat="45.11066" lon="5.99901">
        <ele>1189.4000244141</ele>
        <time>2024-10-15T06:34:24.000Z</time>
      </trkpt>
      <trkpt lat="45.11065" lon="5.99902">
        <ele>1189.5999755859</ele>
        <time>2024-10-15T06:34:25.000Z</time>
      </trkpt>
      <trkpt lat="45.11064" lon="5.99902">
        <ele>1189.5999755859</ele>
        <time>2024-10-15T06:34:26.000Z</time>
      </trkpt>
      <trkpt lat="45.11063" lon="5.99903">
        <ele>1189.8000488281</ele>
        <time>2024-10-15T06:34:27.000Z</time>
      </trkpt>
      <trkpt lat="45.11063" lon="5.99903">
        <ele>1190</ele>
        <time>2024-10-15T06:34:28.000Z</time>
      </trkpt>
      <trkpt lat="45.11063" lon="5.99903">
        <ele>1190</ele>
        <time>2024-10-15T06:34:29.000Z</time>
      </trkpt>
      <trkpt lat="45.11062" lon="5.99903">
        <ele>1190.1999511719</ele>
        <time>2024-10-15T06:34:30.000Z</time>
      </trkpt>
      <trkpt lat="45.11062" lon="5.99903">
        <ele>1190.1999511719</ele>
        <time>2024-10-15T06:34:31.000Z</time>
      </trkpt>
      <trkpt lat="45.11062" lon="5.99904">
        <ele>1190.4000244141</ele>
        <time>2024-10-15T06:34:32.000Z</time>
      </trkpt>
      <trkpt lat="45.11061" lon="5.99905">
        <ele>1190.5999755859</ele>
        <time>2024-10-15T06:34:33.000Z</time>
      </trkpt>
      <trkpt lat="45.11061" lon="5.99905">
        <ele>1190.5999755859</ele>
        <time>2024-10-15T06:34:34.000Z</time>
      </trkpt>
      <trkpt lat="45.1106" lon="5.99905">
        <ele>1190.5999755859</ele>
        <time>2024-10-15T06:34:35.000Z</time>
      </trkpt>
      <trkpt lat="45.1106" lon="5.99906">
        <ele>1190.8000488281</ele>
        <time>2024-10-15T06:34:36.000Z</time>
      </trkpt>
      <trkpt lat="45.11059" lon="5.99906">
        <ele>1191</ele>
        <time>2024-10-15T06:34:37.000Z</time>
      </trkpt>
      <trkpt lat="45.11059" lon="5.99906">
        <ele>1191.1999511719</ele>
        <time>2024-10-15T06:34:38.000Z</time>
      </trkpt>
      <trkpt lat="45.11058" lon="5.99906">
        <ele>1191.4000244141</ele>
        <time>2024-10-15T06:34:39.000Z</time>
      </trkpt>
      <trkpt lat="45.11058" lon="5.99907">
        <ele>1191.5999755859</ele>
        <time>2024-10-15T06:34:40.000Z</time>
      </trkpt>
      <trkpt lat="45.11057" lon="5.99907">
        <ele>1191.5999755859</ele>
        <time>2024-10-15T06:34:41.000Z</time>
      </trkpt>
      <trkpt lat="45.11057" lon="5.99907">
        <ele>1191.8000488281</ele>
        <time>2024-10-15T06:34:42.000Z</time>
      </trkpt>
      <trkpt lat="45.11057" lon="5.99906">
        <ele>1192</ele>
        <time>2024-10-15T06:34:43.000Z</time>
      </trkpt>
      <trkpt lat="45.11057" lon="5.99906">
        <ele>1192.4000244141</ele>
        <time>2024-10-15T06:34:44.000Z</time>
      </trkpt>
      <trkpt lat="45.11056" lon="5.99906">
        <ele>1192.5999755859</ele>
        <time>2024-10-15T06:34:45.000Z</time>
      </trkpt>
      <trkpt lat="45.11056" lon="5.99905">
        <ele>1192.5999755859</ele>
        <time>2024-10-15T06:34:46.000Z</time>
      </trkpt>
      <trkpt lat="45.11056" lon="5.99905">
        <ele>1192.8000488281</ele>
        <time>2024-10-15T06:34:47.000Z</time>
      </trkpt>
      <trkpt lat="45.11055" lon="5.99905">
        <ele>1193</ele>
        <time>2024-10-15T06:34:48.000Z</time>
      </trkpt>
      <trkpt lat="45.11055" lon="5.99905">
        <ele>1193.1999511719</ele>
        <time>2024-10-15T06:34:49.000Z</time>
      </trkpt>
      <trkpt lat="45.11055" lon="5.99904">
        <ele>1193.4000244141</ele>
        <time>2024-10-15T06:34:50.000Z</time>
      </trkpt>
      <trkpt lat="45.11054" lon="5.99904">
        <ele>1193.4000244141</ele>
        <time>2024-10-15T06:34:51.000Z</time>
      </trkpt>
      <trkpt lat="45.11055" lon="5.99904">
        <ele>1193.5999755859</ele>
        <time>2024-10-15T06:34:52.000Z</time>
      </trkpt>
      <trkpt lat="45.11055" lon="5.99904">
        <ele>1193.8000488281</ele>
        <time>2024-10-15T06:34:53.000Z</time>
      </trkpt>
      <trkpt lat="45.11055" lon="5.99904">
        <ele>1194</ele>
        <time>2024-10-15T06:34:54.000Z</time>
      </trkpt>
      <trkpt lat="45.11055" lon="5.99903">
        <ele>1194.1999511719</ele>
        <time>2024-10-15T06:34:55.000Z</time>
      </trkpt>
      <trkpt lat="45.11054" lon="5.99903">
        <ele>1194.4000244141</ele>
        <time>2024-10-15T06:34:56.000Z</time>
      </trkpt>
      <trkpt lat="45.11054" lon="5.99902">
        <ele>1194.4000244141</ele>
        <time>2024-10-15T06:34:57.000Z</time>
      </trkpt>
      <trkpt lat="45.11054" lon="5.99902">
        <ele>1194.8000488281</ele>
        <time>2024-10-15T06:34:58.000Z</time>
      </trkpt>
      <trkpt lat="45.11054" lon="5.99902">
        <ele>1194.8000488281</ele>
        <time>2024-10-15T06:34:59.000Z</time>
      </trkpt>
      <trkpt lat="45.11054" lon="5.999">
        <ele>1195.1999511719</ele>
        <time>2024-10-15T06:35:00.000Z</time>
      </trkpt>
      <trkpt lat="45.11053" lon="5.99899">
        <ele>1195.4000244141</ele>
        <time>2024-10-15T06:35:01.000Z</time>
      </trkpt>
      <trkpt lat="45.11053" lon="5.99898">
        <ele>1195.4000244141</ele>
        <time>2024-10-15T06:35:02.000Z</time>
      </trkpt>
      <trkpt lat="45.11053" lon="5.99898">
        <ele>1195.4000244141</ele>
        <time>2024-10-15T06:35:03.000Z</time>
      </trkpt>
      <trkpt lat="45.11052" lon="5.99897">
        <ele>1195.8000488281</ele>
        <time>2024-10-15T06:35:04.000Z</time>
      </trkpt>
      <trkpt lat="45.11052" lon="5.99898">
        <ele>1195.8000488281</ele>
        <time>2024-10-15T06:35:05.000Z</time>
      </trkpt>
      <trkpt lat="45.11051" lon="5.99897">
        <ele>1196</ele>
        <time>2024-10-15T06:35:06.000Z</time>
      </trkpt>
      <trkpt lat="45.11051" lon="5.99897">
        <ele>1196.1999511719</ele>
        <time>2024-10-15T06:35:07.000Z</time>
      </trkpt>
      <trkpt lat="45.1105" lon="5.99898">
        <ele>1196.4000244141</ele>
        <time>2024-10-15T06:35:08.000Z</time>
      </trkpt>
      <trkpt lat="45.11049" lon="5.99899">
        <ele>1196.4000244141</ele>
        <time>2024-10-15T06:35:09.000Z</time>
      </trkpt>
      <trkpt lat="45.11049" lon="5.99899">
        <ele>1196.5999755859</ele>
        <time>2024-10-15T06:35:10.000Z</time>
      </trkpt>
      <trkpt lat="45.11047" lon="5.99899">
        <ele>1196.8000488281</ele>
        <time>2024-10-15T06:35:11.000Z</time>
      </trkpt>
      <trkpt lat="45.11046" lon="5.99899">
        <ele>1196.8000488281</ele>
        <time>2024-10-15T06:35:12.000Z</time>
      </trkpt>
      <trkpt lat="45.11045" lon="5.99898">
        <ele>1197</ele>
        <time>2024-10-15T06:35:13.000Z</time>
      </trkpt>
      <trkpt lat="45.11045" lon="5.99898">
        <ele>1197.1999511719</ele>
        <time>2024-10-15T06:35:14.000Z</time>
      </trkpt>
      <trkpt lat="45.11045" lon="5.99898">
        <ele>1197.1999511719</ele>
        <time>2024-10-15T06:35:15.000Z</time>
      </trkpt>
      <trkpt lat="45.11044" lon="5.99897">
        <ele>1197.4000244141</ele>
        <time>2024-10-15T06:35:16.000Z</time>
      </trkpt>
      <trkpt lat="45.11043" lon="5.99897">
        <ele>1197.4000244141</ele>
        <time>2024-10-15T06:35:17.000Z</time>
      </trkpt>
      <trkpt lat="45.11042" lon="5.99897">
        <ele>1197.5999755859</ele>
        <time>2024-10-15T06:35:18.000Z</time>
      </trkpt>
      <trkpt lat="45.11042" lon="5.99897">
        <ele>1197.5999755859</ele>
        <time>2024-10-15T06:35:19.000Z</time>
      </trkpt>
      <trkpt lat="45.11041" lon="5.99897">
        <ele>1198</ele>
        <time>2024-10-15T06:35:20.000Z</time>
      </trkpt>
      <trkpt lat="45.11041" lon="5.99897">
        <ele>1198</ele>
        <time>2024-10-15T06:35:21.000Z</time>
      </trkpt>
      <trkpt lat="45.1104" lon="5.99897">
        <ele>1198.1999511719</ele>
        <time>2024-10-15T06:35:22.000Z</time>
      </trkpt>
      <trkpt lat="45.1104" lon="5.99897">
        <ele>1198.4000244141</ele>
        <time>2024-10-15T06:35:23.000Z</time>
      </trkpt>
      <trkpt lat="45.1104" lon="5.99896">
        <ele>1198.5999755859</ele>
        <time>2024-10-15T06:35:24.000Z</time>
      </trkpt>
      <trkpt lat="45.11039" lon="5.99896">
        <ele>1198.8000488281</ele>
        <time>2024-10-15T06:35:25.000Z</time>
      </trkpt>
      <trkpt lat="45.11039" lon="5.99897">
        <ele>1199.1999511719</ele>
        <time>2024-10-15T06:35:26.000Z</time>
      </trkpt>
      <trkpt lat="45.11039" lon="5.99897">
        <ele>1199.1999511719</ele>
        <time>2024-10-15T06:35:27.000Z</time>
      </trkpt>
      <trkpt lat="45.11038" lon="5.99896">
        <ele>1199.4000244141</ele>
        <time>2024-10-15T06:35:28.000Z</time>
      </trkpt>
      <trkpt lat="45.11038" lon="5.99896">
        <ele>1199.4000244141</ele>
        <time>2024-10-15T06:35:29.000Z</time>
      </trkpt>
      <trkpt lat="45.11037" lon="5.99895">
        <ele>1199.8000488281</ele>
        <time>2024-10-15T06:35:30.000Z</time>
      </trkpt>
      <trkpt lat="45.11036" lon="5.99895">
        <ele>1199.8000488281</ele>
        <time>2024-10-15T06:35:31.000Z</time>
      </trkpt>
      <trkpt lat="45.11036" lon="5.99895">
        <ele>1200</ele>
        <time>2024-10-15T06:35:32.000Z</time>
      </trkpt>
      <trkpt lat="45.11035" lon="5.99895">
        <ele>1200.1999511719</ele>
        <time>2024-10-15T06:35:33.000Z</time>
      </trkpt>
      <trkpt lat="45.11035" lon="5.99896">
        <ele>1200.4000244141</ele>
        <time>2024-10-15T06:35:34.000Z</time>
      </trkpt>
      <trkpt lat="45.11035" lon="5.99896">
        <ele>1200.5999755859</ele>
        <time>2024-10-15T06:35:35.000Z</time>
      </trkpt>
      <trkpt lat="45.11035" lon="5.99896">
        <ele>1200.8000488281</ele>
        <time>2024-10-15T06:35:36.000Z</time>
      </trkpt>
      <trkpt lat="45.11034" lon="5.99895">
        <ele>1201</ele>
        <time>2024-10-15T06:35:37.000Z</time>
      </trkpt>
      <trkpt lat="45.11034" lon="5.99895">
        <ele>1201.1999511719</ele>
        <time>2024-10-15T06:35:38.000Z</time>
      </trkpt>
      <trkpt lat="45.11034" lon="5.99895">
        <ele>1201.4000244141</ele>
        <time>2024-10-15T06:35:39.000Z</time>
      </trkpt>
      <trkpt lat="45.11033" lon="5.99894">
        <ele>1201.5999755859</ele>
        <time>2024-10-15T06:35:40.000Z</time>
      </trkpt>
      <trkpt lat="45.11032" lon="5.99895">
        <ele>1201.5999755859</ele>
        <time>2024-10-15T06:35:41.000Z</time>
      </trkpt>
      <trkpt lat="45.11032" lon="5.99895">
        <ele>1202</ele>
        <time>2024-10-15T06:35:42.000Z</time>
      </trkpt>
      <trkpt lat="45.11031" lon="5.99895">
        <ele>1202.1999511719</ele>
        <time>2024-10-15T06:35:43.000Z</time>
      </trkpt>
      <trkpt lat="45.1103" lon="5.99895">
        <ele>1202.1999511719</ele>
        <time>2024-10-15T06:35:44.000Z</time>
      </trkpt>
      <trkpt lat="45.1103" lon="5.99894">
        <ele>1202.4000244141</ele>
        <time>2024-10-15T06:35:45.000Z</time>
      </trkpt>
      <trkpt lat="45.1103" lon="5.99894">
        <ele>1202.8000488281</ele>
        <time>2024-10-15T06:35:46.000Z</time>
      </trkpt>
      <trkpt lat="45.1103" lon="5.99894">
        <ele>1202.8000488281</ele>
        <time>2024-10-15T06:35:47.000Z</time>
      </trkpt>
      <trkpt lat="45.11029" lon="5.99894">
        <ele>1202.8000488281</ele>
        <time>2024-10-15T06:35:48.000Z</time>
      </trkpt>
      <trkpt lat="45.11029" lon="5.99893">
        <ele>1203.1999511719</ele>
        <time>2024-10-15T06:35:49.000Z</time>
      </trkpt>
      <trkpt lat="45.11029" lon="5.99893">
        <ele>1203.4000244141</ele>
        <time>2024-10-15T06:35:50.000Z</time>
      </trkpt>
      <trkpt lat="45.11029" lon="5.99892">
        <ele>1203.5999755859</ele>
        <time>2024-10-15T06:35:51.000Z</time>
      </trkpt>
      <trkpt lat="45.11029" lon="5.99892">
        <ele>1204</ele>
        <time>2024-10-15T06:35:52.000Z</time>
      </trkpt>
      <trkpt lat="45.11028" lon="5.99892">
        <ele>1204</ele>
        <time>2024-10-15T06:35:53.000Z</time>
      </trkpt>
      <trkpt lat="45.11028" lon="5.99891">
        <ele>1204.1999511719</ele>
        <time>2024-10-15T06:35:54.000Z</time>
      </trkpt>
      <trkpt lat="45.11028" lon="5.99891">
        <ele>1204.4000244141</ele>
        <time>2024-10-15T06:35:55.000Z</time>
      </trkpt>
      <trkpt lat="45.11028" lon="5.99891">
        <ele>1204.8000488281</ele>
        <time>2024-10-15T06:35:56.000Z</time>
      </trkpt>
      <trkpt lat="45.11027" lon="5.99892">
        <ele>1204.8000488281</ele>
        <time>2024-10-15T06:35:57.000Z</time>
      </trkpt>
      <trkpt lat="45.11027" lon="5.99892">
        <ele>1205.1999511719</ele>
        <time>2024-10-15T06:35:58.000Z</time>
      </trkpt>
      <trkpt lat="45.11026" lon="5.99892">
        <ele>1205.1999511719</ele>
        <time>2024-10-15T06:35:59.000Z</time>
      </trkpt>
      <trkpt lat="45.11026" lon="5.99892">
        <ele>1205.4000244141</ele>
        <time>2024-10-15T06:36:00.000Z</time>
      </trkpt>
      <trkpt lat="45.11026" lon="5.99892">
        <ele>1205.8000488281</ele>
        <time>2024-10-15T06:36:01.000Z</time>
      </trkpt>
      <trkpt lat="45.11026" lon="5.99892">
        <ele>1206</ele>
        <time>2024-10-15T06:36:02.000Z</time>
      </trkpt>
      <trkpt lat="45.11026" lon="5.99892">
        <ele>1206.1999511719</ele>
        <time>2024-10-15T06:36:03.000Z</time>
      </trkpt>
      <trkpt lat="45.11025" lon="5.99892">
        <ele>1206.1999511719</ele>
        <time>2024-10-15T06:36:04.000Z</time>
      </trkpt>
      <trkpt lat="45.11025" lon="5.99892">
        <ele>1206.5999755859</ele>
        <time>2024-10-15T06:36:05.000Z</time>
      </trkpt>
      <trkpt lat="45.11024" lon="5.99892">
        <ele>1206.5999755859</ele>
        <time>2024-10-15T06:36:06.000Z</time>
      </trkpt>
      <trkpt lat="45.11024" lon="5.99892">
        <ele>1206.5999755859</ele>
        <time>2024-10-15T06:36:07.000Z</time>
      </trkpt>
      <trkpt lat="45.11024" lon="5.99892">
        <ele>1207</ele>
        <time>2024-10-15T06:36:08.000Z</time>
      </trkpt>
      <trkpt lat="45.11024" lon="5.99892">
        <ele>1207.1999511719</ele>
        <time>2024-10-15T06:36:09.000Z</time>
      </trkpt>
      <trkpt lat="45.11024" lon="5.99892">
        <ele>1207.4000244141</ele>
        <time>2024-10-15T06:36:10.000Z</time>
      </trkpt>
      <trkpt lat="45.11024" lon="5.99892">
        <ele>1207.4000244141</ele>
        <time>2024-10-15T06:36:11.000Z</time>
      </trkpt>
      <trkpt lat="45.11024" lon="5.99892">
        <ele>1207.8000488281</ele>
        <time>2024-10-15T06:36:12.000Z</time>
      </trkpt>
      <trkpt lat="45.11024" lon="5.99892">
        <ele>1208</ele>
        <time>2024-10-15T06:36:13.000Z</time>
      </trkpt>
      <trkpt lat="45.11024" lon="5.99892">
        <ele>1208.1999511719</ele>
        <time>2024-10-15T06:36:14.000Z</time>
      </trkpt>
      <trkpt lat="45.11024" lon="5.99892">
        <ele>1208.1999511719</ele>
        <time>2024-10-15T06:36:15.000Z</time>
      </trkpt>
      <trkpt lat="45.11024" lon="5.99892">
        <ele>1208.4000244141</ele>
        <time>2024-10-15T06:36:16.000Z</time>
      </trkpt>
      <trkpt lat="45.11024" lon="5.99892">
        <ele>1208.4000244141</ele>
        <time>2024-10-15T06:36:17.000Z</time>
      </trkpt>
      <trkpt lat="45.11024" lon="5.99892">
        <ele>1208.8000488281</ele>
        <time>2024-10-15T06:36:18.000Z</time>
      </trkpt>
      <trkpt lat="45.11024" lon="5.99892">
        <ele>1209</ele>
        <time>2024-10-15T06:36:19.000Z</time>
      </trkpt>
      <trkpt lat="45.11024" lon="5.99892">
        <ele>1209.1999511719</ele>
        <time>2024-10-15T06:36:20.000Z</time>
      </trkpt>
      <trkpt lat="45.11024" lon="5.99892">
        <ele>1209.4000244141</ele>
        <time>2024-10-15T06:36:21.000Z</time>
      </trkpt>
      <trkpt lat="45.11024" lon="5.99892">
        <ele>1209.5999755859</ele>
        <time>2024-10-15T06:36:22.000Z</time>
      </trkpt>
      <trkpt lat="45.11024" lon="5.99892">
        <ele>1209.5999755859</ele>
        <time>2024-10-15T06:36:23.000Z</time>
      </trkpt>
      <trkpt lat="45.11024" lon="5.99892">
        <ele>1209.8000488281</ele>
        <time>2024-10-15T06:36:24.000Z</time>
      </trkpt>
      <trkpt lat="45.11024" lon="5.99892">
        <ele>1210</ele>
        <time>2024-10-15T06:36:25.000Z</time>
      </trkpt>
      <trkpt lat="45.11023" lon="5.99892">
        <ele>1210.4000244141</ele>
        <time>2024-10-15T06:36:26.000Z</time>
      </trkpt>
      <trkpt lat="45.11023" lon="5.99892">
        <ele>1210.5999755859</ele>
        <time>2024-10-15T06:36:27.000Z</time>
      </trkpt>
      <trkpt lat="45.11023" lon="5.99892">
        <ele>1210.5999755859</ele>
        <time>2024-10-15T06:36:28.000Z</time>
      </trkpt>
      <trkpt lat="45.11023" lon="5.99893">
        <ele>1210.5999755859</ele>
        <time>2024-10-15T06:36:29.000Z</time>
      </trkpt>
      <trkpt lat="45.11022" lon="5.99893">
        <ele>1210.8000488281</ele>
        <time>2024-10-15T06:36:30.000Z</time>
      </trkpt>
      <trkpt lat="45.11022" lon="5.99894">
        <ele>1211</ele>
        <time>2024-10-15T06:36:31.000Z</time>
      </trkpt>
      <trkpt lat="45.11022" lon="5.99894">
        <ele>1211.1999511719</ele>
        <time>2024-10-15T06:36:32.000Z</time>
      </trkpt>
      <trkpt lat="45.11022" lon="5.99894">
        <ele>1211.4000244141</ele>
        <time>2024-10-15T06:36:33.000Z</time>
      </trkpt>
      <trkpt lat="45.11021" lon="5.99894">
        <ele>1211.5999755859</ele>
        <time>2024-10-15T06:36:34.000Z</time>
      </trkpt>
      <trkpt lat="45.11019" lon="5.99895">
        <ele>1211.8000488281</ele>
        <time>2024-10-15T06:36:35.000Z</time>
      </trkpt>
      <trkpt lat="45.11017" lon="5.99896">
        <ele>1212</ele>
        <time>2024-10-15T06:36:36.000Z</time>
      </trkpt>
      <trkpt lat="45.11016" lon="5.99896">
        <ele>1212</ele>
        <time>2024-10-15T06:36:37.000Z</time>
      </trkpt>
      <trkpt lat="45.11014" lon="5.99897">
        <ele>1212</ele>
        <time>2024-10-15T06:36:38.000Z</time>
      </trkpt>
      <trkpt lat="45.11013" lon="5.99897">
        <ele>1212.1999511719</ele>
        <time>2024-10-15T06:36:39.000Z</time>
      </trkpt>
      <trkpt lat="45.11011" lon="5.99898">
        <ele>1212.1999511719</ele>
        <time>2024-10-15T06:36:40.000Z</time>
      </trkpt>
      <trkpt lat="45.1101" lon="5.99899">
        <ele>1212.4000244141</ele>
        <time>2024-10-15T06:36:41.000Z</time>
      </trkpt>
      <trkpt lat="45.11009" lon="5.99899">
        <ele>1212.4000244141</ele>
        <time>2024-10-15T06:36:42.000Z</time>
      </trkpt>
      <trkpt lat="45.11007" lon="5.99898">
        <ele>1212.5999755859</ele>
        <time>2024-10-15T06:36:43.000Z</time>
      </trkpt>
      <trkpt lat="45.11006" lon="5.99898">
        <ele>1212.8000488281</ele>
        <time>2024-10-15T06:36:44.000Z</time>
      </trkpt>
      <trkpt lat="45.11004" lon="5.99898">
        <ele>1212.8000488281</ele>
        <time>2024-10-15T06:36:45.000Z</time>
      </trkpt>
      <trkpt lat="45.11004" lon="5.99898">
        <ele>1212.8000488281</ele>
        <time>2024-10-15T06:36:46.000Z</time>
      </trkpt>
      <trkpt lat="45.11003" lon="5.99898">
        <ele>1212.8000488281</ele>
        <time>2024-10-15T06:36:47.000Z</time>
      </trkpt>
      <trkpt lat="45.11002" lon="5.99897">
        <ele>1213</ele>
        <time>2024-10-15T06:36:48.000Z</time>
      </trkpt>
      <trkpt lat="45.11" lon="5.99898">
        <ele>1213.1999511719</ele>
        <time>2024-10-15T06:36:49.000Z</time>
      </trkpt>
      <trkpt lat="45.10999" lon="5.99899">
        <ele>1213.4000244141</ele>
        <time>2024-10-15T06:36:50.000Z</time>
      </trkpt>
      <trkpt lat="45.10998" lon="5.99901">
        <ele>1213.5999755859</ele>
        <time>2024-10-15T06:36:51.000Z</time>
      </trkpt>
      <trkpt lat="45.10997" lon="5.99902">
        <ele>1213.5999755859</ele>
        <time>2024-10-15T06:36:52.000Z</time>
      </trkpt>
      <trkpt lat="45.10997" lon="5.99902">
        <ele>1213.8000488281</ele>
        <time>2024-10-15T06:36:53.000Z</time>
      </trkpt>
      <trkpt lat="45.10995" lon="5.99902">
        <ele>1214</ele>
        <time>2024-10-15T06:36:54.000Z</time>
      </trkpt>
      <trkpt lat="45.10995" lon="5.99903">
        <ele>1214.1999511719</ele>
        <time>2024-10-15T06:36:55.000Z</time>
      </trkpt>
      <trkpt lat="45.10995" lon="5.99903">
        <ele>1214.1999511719</ele>
        <time>2024-10-15T06:36:56.000Z</time>
      </trkpt>
      <trkpt lat="45.10994" lon="5.99904">
        <ele>1214.4000244141</ele>
        <time>2024-10-15T06:36:57.000Z</time>
      </trkpt>
      <trkpt lat="45.10994" lon="5.99904">
        <ele>1214.5999755859</ele>
        <time>2024-10-15T06:36:58.000Z</time>
      </trkpt>
      <trkpt lat="45.10993" lon="5.99904">
        <ele>1214.8000488281</ele>
        <time>2024-10-15T06:36:59.000Z</time>
      </trkpt>
      <trkpt lat="45.10993" lon="5.99905">
        <ele>1214.8000488281</ele>
        <time>2024-10-15T06:37:00.000Z</time>
      </trkpt>
      <trkpt lat="45.10993" lon="5.99905">
        <ele>1215</ele>
        <time>2024-10-15T06:37:01.000Z</time>
      </trkpt>
      <trkpt lat="45.10992" lon="5.99906">
        <ele>1215.1999511719</ele>
        <time>2024-10-15T06:37:02.000Z</time>
      </trkpt>
      <trkpt lat="45.10991" lon="5.99907">
        <ele>1215.1999511719</ele>
        <time>2024-10-15T06:37:03.000Z</time>
      </trkpt>
      <trkpt lat="45.1099" lon="5.99907">
        <ele>1215.4000244141</ele>
        <time>2024-10-15T06:37:04.000Z</time>
      </trkpt>
      <trkpt lat="45.1099" lon="5.99907">
        <ele>1215.5999755859</ele>
        <time>2024-10-15T06:37:05.000Z</time>
      </trkpt>
      <trkpt lat="45.10989" lon="5.99907">
        <ele>1215.8000488281</ele>
        <time>2024-10-15T06:37:06.000Z</time>
      </trkpt>
      <trkpt lat="45.10988" lon="5.99907">
        <ele>1216.1999511719</ele>
        <time>2024-10-15T06:37:07.000Z</time>
      </trkpt>
      <trkpt lat="45.10988" lon="5.99908">
        <ele>1216.4000244141</ele>
        <time>2024-10-15T06:37:08.000Z</time>
      </trkpt>
      <trkpt lat="45.10987" lon="5.99908">
        <ele>1216.5999755859</ele>
        <time>2024-10-15T06:37:09.000Z</time>
      </trkpt>
      <trkpt lat="45.10987" lon="5.99908">
        <ele>1216.8000488281</ele>
        <time>2024-10-15T06:37:10.000Z</time>
      </trkpt>
      <trkpt lat="45.10986" lon="5.9991">
        <ele>1217</ele>
        <time>2024-10-15T06:37:11.000Z</time>
      </trkpt>
      <trkpt lat="45.10985" lon="5.99911">
        <ele>1217.1999511719</ele>
        <time>2024-10-15T06:37:12.000Z</time>
      </trkpt>
      <trkpt lat="45.10985" lon="5.99911">
        <ele>1217.5999755859</ele>
        <time>2024-10-15T06:37:13.000Z</time>
      </trkpt>
      <trkpt lat="45.10984" lon="5.99911">
        <ele>1217.5999755859</ele>
        <time>2024-10-15T06:37:14.000Z</time>
      </trkpt>
      <trkpt lat="45.10984" lon="5.99912">
        <ele>1217.8000488281</ele>
        <time>2024-10-15T06:37:15.000Z</time>
      </trkpt>
      <trkpt lat="45.10983" lon="5.99912">
        <ele>1218</ele>
        <time>2024-10-15T06:37:16.000Z</time>
      </trkpt>
      <trkpt lat="45.10982" lon="5.99913">
        <ele>1218</ele>
        <time>2024-10-15T06:37:17.000Z</time>
      </trkpt>
      <trkpt lat="45.10981" lon="5.99913">
        <ele>1218.1999511719</ele>
        <time>2024-10-15T06:37:18.000Z</time>
      </trkpt>
      <trkpt lat="45.1098" lon="5.99912">
        <ele>1218.1999511719</ele>
        <time>2024-10-15T06:37:19.000Z</time>
      </trkpt>
      <trkpt lat="45.10979" lon="5.99911">
        <ele>1218.4000244141</ele>
        <time>2024-10-15T06:37:20.000Z</time>
      </trkpt>
      <trkpt lat="45.10978" lon="5.99911">
        <ele>1218.8000488281</ele>
        <time>2024-10-15T06:37:21.000Z</time>
      </trkpt>
      <trkpt lat="45.10977" lon="5.99911">
        <ele>1218.8000488281</ele>
        <time>2024-10-15T06:37:22.000Z</time>
      </trkpt>
      <trkpt lat="45.10976" lon="5.99912">
        <ele>1218.8000488281</ele>
        <time>2024-10-15T06:37:23.000Z</time>
      </trkpt>
      <trkpt lat="45.10976" lon="5.99912">
        <ele>1218.8000488281</ele>
        <time>2024-10-15T06:37:24.000Z</time>
      </trkpt>
      <trkpt lat="45.10975" lon="5.99913">
        <ele>1218.8000488281</ele>
        <time>2024-10-15T06:37:25.000Z</time>
      </trkpt>
      <trkpt lat="45.10973" lon="5.99912">
        <ele>1218.8000488281</ele>
        <time>2024-10-15T06:37:26.000Z</time>
      </trkpt>
      <trkpt lat="45.10973" lon="5.99912">
        <ele>1218.8000488281</ele>
        <time>2024-10-15T06:37:27.000Z</time>
      </trkpt>
      <trkpt lat="45.10972" lon="5.99911">
        <ele>1218.8000488281</ele>
        <time>2024-10-15T06:37:28.000Z</time>
      </trkpt>
      <trkpt lat="45.10971" lon="5.9991">
        <ele>1219</ele>
        <time>2024-10-15T06:37:29.000Z</time>
      </trkpt>
      <trkpt lat="45.10971" lon="5.9991">
        <ele>1219</ele>
        <time>2024-10-15T06:37:30.000Z</time>
      </trkpt>
      <trkpt lat="45.10971" lon="5.99906">
        <ele>1219.1999511719</ele>
        <time>2024-10-15T06:37:31.000Z</time>
      </trkpt>
      <trkpt lat="45.10971" lon="5.99905">
        <ele>1219.5999755859</ele>
        <time>2024-10-15T06:37:32.000Z</time>
      </trkpt>
      <trkpt lat="45.1097" lon="5.99905">
        <ele>1219.8000488281</ele>
        <time>2024-10-15T06:37:33.000Z</time>
      </trkpt>
      <trkpt lat="45.1097" lon="5.99905">
        <ele>1220.1999511719</ele>
        <time>2024-10-15T06:37:34.000Z</time>
      </trkpt>
      <trkpt lat="45.1097" lon="5.99905">
        <ele>1220.4000244141</ele>
        <time>2024-10-15T06:37:35.000Z</time>
      </trkpt>
      <trkpt lat="45.10969" lon="5.99904">
        <ele>1220.5999755859</ele>
        <time>2024-10-15T06:37:36.000Z</time>
      </trkpt>
      <trkpt lat="45.10969" lon="5.99904">
        <ele>1220.8000488281</ele>
        <time>2024-10-15T06:37:37.000Z</time>
      </trkpt>
      <trkpt lat="45.10969" lon="5.99904">
        <ele>1220.8000488281</ele>
        <time>2024-10-15T06:37:38.000Z</time>
      </trkpt>
      <trkpt lat="45.1097" lon="5.99904">
        <ele>1220.8000488281</ele>
        <time>2024-10-15T06:37:39.000Z</time>
      </trkpt>
      <trkpt lat="45.1097" lon="5.99905">
        <ele>1220.8000488281</ele>
        <time>2024-10-15T06:37:40.000Z</time>
      </trkpt>
      <trkpt lat="45.1097" lon="5.99905">
        <ele>1221</ele>
        <time>2024-10-15T06:37:41.000Z</time>
      </trkpt>
      <trkpt lat="45.10969" lon="5.99904">
        <ele>1221</ele>
        <time>2024-10-15T06:37:42.000Z</time>
      </trkpt>
      <trkpt lat="45.10969" lon="5.99904">
        <ele>1221</ele>
        <time>2024-10-15T06:37:43.000Z</time>
      </trkpt>
      <trkpt lat="45.10969" lon="5.99904">
        <ele>1221</ele>
        <time>2024-10-15T06:37:44.000Z</time>
      </trkpt>
      <trkpt lat="45.10969" lon="5.99903">
        <ele>1221</ele>
        <time>2024-10-15T06:37:45.000Z</time>
      </trkpt>
      <trkpt lat="45.10968" lon="5.99903">
        <ele>1221</ele>
        <time>2024-10-15T06:37:46.000Z</time>
      </trkpt>
      <trkpt lat="45.10968" lon="5.99902">
        <ele>1221</ele>
        <time>2024-10-15T06:37:47.000Z</time>
      </trkpt>
      <trkpt lat="45.10969" lon="5.99901">
        <ele>1221.1999511719</ele>
        <time>2024-10-15T06:37:48.000Z</time>
      </trkpt>
      <trkpt lat="45.10969" lon="5.999">
        <ele>1221.4000244141</ele>
        <time>2024-10-15T06:37:49.000Z</time>
      </trkpt>
      <trkpt lat="45.10969" lon="5.999">
        <ele>1221.8000488281</ele>
        <time>2024-10-15T06:37:50.000Z</time>
      </trkpt>
      <trkpt lat="45.1097" lon="5.99899">
        <ele>1222.1999511719</ele>
        <time>2024-10-15T06:37:51.000Z</time>
      </trkpt>
      <trkpt lat="45.1097" lon="5.99899">
        <ele>1222.4000244141</ele>
        <time>2024-10-15T06:37:52.000Z</time>
      </trkpt>
      <trkpt lat="45.1097" lon="5.99899">
        <ele>1222.8000488281</ele>
        <time>2024-10-15T06:37:53.000Z</time>
      </trkpt>
      <trkpt lat="45.1097" lon="5.99898">
        <ele>1223</ele>
        <time>2024-10-15T06:37:54.000Z</time>
      </trkpt>
      <trkpt lat="45.10969" lon="5.99898">
        <ele>1223.1999511719</ele>
        <time>2024-10-15T06:37:55.000Z</time>
      </trkpt>
      <trkpt lat="45.1097" lon="5.99898">
        <ele>1223.4000244141</ele>
        <time>2024-10-15T06:37:56.000Z</time>
      </trkpt>
      <trkpt lat="45.1097" lon="5.99897">
        <ele>1223.5999755859</ele>
        <time>2024-10-15T06:37:57.000Z</time>
      </trkpt>
      <trkpt lat="45.1097" lon="5.99897">
        <ele>1224</ele>
        <time>2024-10-15T06:37:58.000Z</time>
      </trkpt>
      <trkpt lat="45.10971" lon="5.99896">
        <ele>1224.1999511719</ele>
        <time>2024-10-15T06:37:59.000Z</time>
      </trkpt>
      <trkpt lat="45.10971" lon="5.99896">
        <ele>1224.4000244141</ele>
        <time>2024-10-15T06:38:00.000Z</time>
      </trkpt>
      <trkpt lat="45.10971" lon="5.99896">
        <ele>1224.5999755859</ele>
        <time>2024-10-15T06:38:01.000Z</time>
      </trkpt>
      <trkpt lat="45.10971" lon="5.99896">
        <ele>1224.8000488281</ele>
        <time>2024-10-15T06:38:02.000Z</time>
      </trkpt>
      <trkpt lat="45.10972" lon="5.99896">
        <ele>1225</ele>
        <time>2024-10-15T06:38:03.000Z</time>
      </trkpt>
      <trkpt lat="45.10972" lon="5.99895">
        <ele>1225.1999511719</ele>
        <time>2024-10-15T06:38:04.000Z</time>
      </trkpt>
      <trkpt lat="45.10972" lon="5.99895">
        <ele>1225.5999755859</ele>
        <time>2024-10-15T06:38:05.000Z</time>
      </trkpt>
      <trkpt lat="45.10972" lon="5.99894">
        <ele>1225.8000488281</ele>
        <time>2024-10-15T06:38:06.000Z</time>
      </trkpt>
      <trkpt lat="45.10972" lon="5.99893">
        <ele>1226</ele>
        <time>2024-10-15T06:38:07.000Z</time>
      </trkpt>
      <trkpt lat="45.10972" lon="5.99893">
        <ele>1226.1999511719</ele>
        <time>2024-10-15T06:38:08.000Z</time>
      </trkpt>
      <trkpt lat="45.10972" lon="5.99892">
        <ele>1226.5999755859</ele>
        <time>2024-10-15T06:38:09.000Z</time>
      </trkpt>
      <trkpt lat="45.10972" lon="5.99891">
        <ele>1226.8000488281</ele>
        <time>2024-10-15T06:38:10.000Z</time>
      </trkpt>
      <trkpt lat="45.10972" lon="5.99892">
        <ele>1227</ele>
        <time>2024-10-15T06:38:11.000Z</time>
      </trkpt>
      <trkpt lat="45.10973" lon="5.99892">
        <ele>1227.1999511719</ele>
        <time>2024-10-15T06:38:12.000Z</time>
      </trkpt>
      <trkpt lat="45.10973" lon="5.99891">
        <ele>1227.5999755859</ele>
        <time>2024-10-15T06:38:13.000Z</time>
      </trkpt>
      <trkpt lat="45.10973" lon="5.9989">
        <ele>1228</ele>
        <time>2024-10-15T06:38:14.000Z</time>
      </trkpt>
      <trkpt lat="45.10973" lon="5.99889">
        <ele>1228.1999511719</ele>
        <time>2024-10-15T06:38:15.000Z</time>
      </trkpt>
      <trkpt lat="45.10973" lon="5.99888">
        <ele>1228.4000244141</ele>
        <time>2024-10-15T06:38:16.000Z</time>
      </trkpt>
      <trkpt lat="45.10973" lon="5.99887">
        <ele>1228.4000244141</ele>
        <time>2024-10-15T06:38:17.000Z</time>
      </trkpt>
      <trkpt lat="45.10973" lon="5.99887">
        <ele>1228.5999755859</ele>
        <time>2024-10-15T06:38:18.000Z</time>
      </trkpt>
      <trkpt lat="45.10973" lon="5.99886">
        <ele>1228.8000488281</ele>
        <time>2024-10-15T06:38:19.000Z</time>
      </trkpt>
      <trkpt lat="45.10973" lon="5.99886">
        <ele>1229</ele>
        <time>2024-10-15T06:38:20.000Z</time>
      </trkpt>
      <trkpt lat="45.10973" lon="5.99886">
        <ele>1229.1999511719</ele>
        <time>2024-10-15T06:38:21.000Z</time>
      </trkpt>
      <trkpt lat="45.10972" lon="5.99885">
        <ele>1229.4000244141</ele>
        <time>2024-10-15T06:38:22.000Z</time>
      </trkpt>
      <trkpt lat="45.10972" lon="5.99885">
        <ele>1229.5999755859</ele>
        <time>2024-10-15T06:38:23.000Z</time>
      </trkpt>
      <trkpt lat="45.10972" lon="5.99885">
        <ele>1229.8000488281</ele>
        <time>2024-10-15T06:38:24.000Z</time>
      </trkpt>
      <trkpt lat="45.10972" lon="5.99884">
        <ele>1229.8000488281</ele>
        <time>2024-10-15T06:38:25.000Z</time>
      </trkpt>
      <trkpt lat="45.10972" lon="5.99884">
        <ele>1230</ele>
        <time>2024-10-15T06:38:26.000Z</time>
      </trkpt>
      <trkpt lat="45.10972" lon="5.99883">
        <ele>1230.1999511719</ele>
        <time>2024-10-15T06:38:27.000Z</time>
      </trkpt>
      <trkpt lat="45.10972" lon="5.99883">
        <ele>1230.1999511719</ele>
        <time>2024-10-15T06:38:28.000Z</time>
      </trkpt>
      <trkpt lat="45.10972" lon="5.99882">
        <ele>1230.4000244141</ele>
        <time>2024-10-15T06:38:29.000Z</time>
      </trkpt>
      <trkpt lat="45.10972" lon="5.99881">
        <ele>1230.4000244141</ele>
        <time>2024-10-15T06:38:30.000Z</time>
      </trkpt>
      <trkpt lat="45.10971" lon="5.9988">
        <ele>1230.5999755859</ele>
        <time>2024-10-15T06:38:31.000Z</time>
      </trkpt>
      <trkpt lat="45.10971" lon="5.99879">
        <ele>1230.8000488281</ele>
        <time>2024-10-15T06:38:32.000Z</time>
      </trkpt>
      <trkpt lat="45.10971" lon="5.99879">
        <ele>1231</ele>
        <time>2024-10-15T06:38:33.000Z</time>
      </trkpt>
      <trkpt lat="45.10971" lon="5.99878">
        <ele>1231.1999511719</ele>
        <time>2024-10-15T06:38:34.000Z</time>
      </trkpt>
      <trkpt lat="45.10972" lon="5.99877">
        <ele>1231.1999511719</ele>
        <time>2024-10-15T06:38:35.000Z</time>
      </trkpt>
      <trkpt lat="45.10972" lon="5.99877">
        <ele>1231.5999755859</ele>
        <time>2024-10-15T06:38:36.000Z</time>
      </trkpt>
      <trkpt lat="45.10972" lon="5.99875">
        <ele>1231.5999755859</ele>
        <time>2024-10-15T06:38:37.000Z</time>
      </trkpt>
      <trkpt lat="45.10973" lon="5.99874">
        <ele>1231.5999755859</ele>
        <time>2024-10-15T06:38:38.000Z</time>
      </trkpt>
      <trkpt lat="45.10973" lon="5.99873">
        <ele>1231.8000488281</ele>
        <time>2024-10-15T06:38:39.000Z</time>
      </trkpt>
      <trkpt lat="45.10973" lon="5.99873">
        <ele>1231.8000488281</ele>
        <time>2024-10-15T06:38:40.000Z</time>
      </trkpt>
      <trkpt lat="45.10973" lon="5.99872">
        <ele>1232</ele>
        <time>2024-10-15T06:38:41.000Z</time>
      </trkpt>
      <trkpt lat="45.10972" lon="5.99871">
        <ele>1232.1999511719</ele>
        <time>2024-10-15T06:38:42.000Z</time>
      </trkpt>
      <trkpt lat="45.10972" lon="5.9987">
        <ele>1232.4000244141</ele>
        <time>2024-10-15T06:38:43.000Z</time>
      </trkpt>
      <trkpt lat="45.10972" lon="5.99869">
        <ele>1232.5999755859</ele>
        <time>2024-10-15T06:38:44.000Z</time>
      </trkpt>
      <trkpt lat="45.10972" lon="5.99869">
        <ele>1232.5999755859</ele>
        <time>2024-10-15T06:38:45.000Z</time>
      </trkpt>
      <trkpt lat="45.10971" lon="5.99868">
        <ele>1232.8000488281</ele>
        <time>2024-10-15T06:38:46.000Z</time>
      </trkpt>
      <trkpt lat="45.10971" lon="5.99867">
        <ele>1233</ele>
        <time>2024-10-15T06:38:47.000Z</time>
      </trkpt>
      <trkpt lat="45.10971" lon="5.99867">
        <ele>1233</ele>
        <time>2024-10-15T06:38:48.000Z</time>
      </trkpt>
      <trkpt lat="45.10971" lon="5.99867">
        <ele>1233.4000244141</ele>
        <time>2024-10-15T06:38:49.000Z</time>
      </trkpt>
      <trkpt lat="45.10971" lon="5.99867">
        <ele>1233.5999755859</ele>
        <time>2024-10-15T06:38:50.000Z</time>
      </trkpt>
      <trkpt lat="45.1097" lon="5.99866">
        <ele>1233.8000488281</ele>
        <time>2024-10-15T06:38:51.000Z</time>
      </trkpt>
      <trkpt lat="45.1097" lon="5.99866">
        <ele>1233.8000488281</ele>
        <time>2024-10-15T06:38:52.000Z</time>
      </trkpt>
      <trkpt lat="45.1097" lon="5.99865">
        <ele>1234.1999511719</ele>
        <time>2024-10-15T06:38:53.000Z</time>
      </trkpt>
      <trkpt lat="45.10969" lon="5.99865">
        <ele>1234.4000244141</ele>
        <time>2024-10-15T06:38:54.000Z</time>
      </trkpt>
      <trkpt lat="45.10969" lon="5.99864">
        <ele>1234.4000244141</ele>
        <time>2024-10-15T06:38:55.000Z</time>
      </trkpt>
      <trkpt lat="45.10969" lon="5.99864">
        <ele>1234.8000488281</ele>
        <time>2024-10-15T06:38:56.000Z</time>
      </trkpt>
      <trkpt lat="45.10969" lon="5.99863">
        <ele>1235</ele>
        <time>2024-10-15T06:38:57.000Z</time>
      </trkpt>
      <trkpt lat="45.10968" lon="5.99862">
        <ele>1235.1999511719</ele>
        <time>2024-10-15T06:38:58.000Z</time>
      </trkpt>
      <trkpt lat="45.10968" lon="5.99861">
        <ele>1235.4000244141</ele>
        <time>2024-10-15T06:38:59.000Z</time>
      </trkpt>
      <trkpt lat="45.10968" lon="5.99861">
        <ele>1235.5999755859</ele>
        <time>2024-10-15T06:39:00.000Z</time>
      </trkpt>
      <trkpt lat="45.10968" lon="5.9986">
        <ele>1235.8000488281</ele>
        <time>2024-10-15T06:39:01.000Z</time>
      </trkpt>
      <trkpt lat="45.10968" lon="5.9986">
        <ele>1236.1999511719</ele>
        <time>2024-10-15T06:39:02.000Z</time>
      </trkpt>
      <trkpt lat="45.10968" lon="5.9986">
        <ele>1236.1999511719</ele>
        <time>2024-10-15T06:39:03.000Z</time>
      </trkpt>
      <trkpt lat="45.10968" lon="5.9986">
        <ele>1236.4000244141</ele>
        <time>2024-10-15T06:39:04.000Z</time>
      </trkpt>
      <trkpt lat="45.10968" lon="5.9986">
        <ele>1236.4000244141</ele>
        <time>2024-10-15T06:39:05.000Z</time>
      </trkpt>
      <trkpt lat="45.10969" lon="5.9986">
        <ele>1236.4000244141</ele>
        <time>2024-10-15T06:39:06.000Z</time>
      </trkpt>
      <trkpt lat="45.10968" lon="5.9986">
        <ele>1236.4000244141</ele>
        <time>2024-10-15T06:39:07.000Z</time>
      </trkpt>
      <trkpt lat="45.10968" lon="5.99859">
        <ele>1236.4000244141</ele>
        <time>2024-10-15T06:39:08.000Z</time>
      </trkpt>
      <trkpt lat="45.10968" lon="5.99858">
        <ele>1236.4000244141</ele>
        <time>2024-10-15T06:39:09.000Z</time>
      </trkpt>
      <trkpt lat="45.10968" lon="5.99858">
        <ele>1236.5999755859</ele>
        <time>2024-10-15T06:39:10.000Z</time>
      </trkpt>
      <trkpt lat="45.10968" lon="5.99858">
        <ele>1236.8000488281</ele>
        <time>2024-10-15T06:39:11.000Z</time>
      </trkpt>
      <trkpt lat="45.10968" lon="5.99858">
        <ele>1237</ele>
        <time>2024-10-15T06:39:12.000Z</time>
      </trkpt>
      <trkpt lat="45.10968" lon="5.99858">
        <ele>1237.1999511719</ele>
        <time>2024-10-15T06:39:13.000Z</time>
      </trkpt>
      <trkpt lat="45.10968" lon="5.99858">
        <ele>1237.4000244141</ele>
        <time>2024-10-15T06:39:14.000Z</time>
      </trkpt>
      <trkpt lat="45.10968" lon="5.99858">
        <ele>1237.4000244141</ele>
        <time>2024-10-15T06:39:15.000Z</time>
      </trkpt>
      <trkpt lat="45.10968" lon="5.99858">
        <ele>1237.4000244141</ele>
        <time>2024-10-15T06:39:16.000Z</time>
      </trkpt>
      <trkpt lat="45.10968" lon="5.99858">
        <ele>1237.5999755859</ele>
        <time>2024-10-15T06:39:17.000Z</time>
      </trkpt>
      <trkpt lat="45.10967" lon="5.99858">
        <ele>1237.8000488281</ele>
        <time>2024-10-15T06:39:18.000Z</time>
      </trkpt>
      <trkpt lat="45.10967" lon="5.99858">
        <ele>1238</ele>
        <time>2024-10-15T06:39:19.000Z</time>
      </trkpt>
      <trkpt lat="45.10967" lon="5.99857">
        <ele>1238.1999511719</ele>
        <time>2024-10-15T06:39:20.000Z</time>
      </trkpt>
      <trkpt lat="45.10967" lon="5.99858">
        <ele>1238.1999511719</ele>
        <time>2024-10-15T06:39:21.000Z</time>
      </trkpt>
      <trkpt lat="45.10967" lon="5.99858">
        <ele>1238.4000244141</ele>
        <time>2024-10-15T06:39:22.000Z</time>
      </trkpt>
      <trkpt lat="45.10967" lon="5.99858">
        <ele>1238.5999755859</ele>
        <time>2024-10-15T06:39:23.000Z</time>
      </trkpt>
      <trkpt lat="45.10967" lon="5.99858">
        <ele>1239</ele>
        <time>2024-10-15T06:39:24.000Z</time>
      </trkpt>
      <trkpt lat="45.10967" lon="5.99858">
        <ele>1239.1999511719</ele>
        <time>2024-10-15T06:39:25.000Z</time>
      </trkpt>
      <trkpt lat="45.10967" lon="5.99858">
        <ele>1239.4000244141</ele>
        <time>2024-10-15T06:39:26.000Z</time>
      </trkpt>
      <trkpt lat="45.10967" lon="5.99859">
        <ele>1239.4000244141</ele>
        <time>2024-10-15T06:39:27.000Z</time>
      </trkpt>
      <trkpt lat="45.10966" lon="5.99859">
        <ele>1239.8000488281</ele>
        <time>2024-10-15T06:39:28.000Z</time>
      </trkpt>
      <trkpt lat="45.10966" lon="5.99859">
        <ele>1240</ele>
        <time>2024-10-15T06:39:29.000Z</time>
      </trkpt>
      <trkpt lat="45.10965" lon="5.99859">
        <ele>1240</ele>
        <time>2024-10-15T06:39:30.000Z</time>
      </trkpt>
      <trkpt lat="45.10965" lon="5.99859">
        <ele>1240.4000244141</ele>
        <time>2024-10-15T06:39:31.000Z</time>
      </trkpt>
      <trkpt lat="45.10965" lon="5.9986">
        <ele>1240.5999755859</ele>
        <time>2024-10-15T06:39:32.000Z</time>
      </trkpt>
      <trkpt lat="45.10965" lon="5.9986">
        <ele>1240.8000488281</ele>
        <time>2024-10-15T06:39:33.000Z</time>
      </trkpt>
      <trkpt lat="45.10964" lon="5.9986">
        <ele>1241.1999511719</ele>
        <time>2024-10-15T06:39:34.000Z</time>
      </trkpt>
      <trkpt lat="45.10964" lon="5.9986">
        <ele>1241.1999511719</ele>
        <time>2024-10-15T06:39:35.000Z</time>
      </trkpt>
      <trkpt lat="45.10963" lon="5.99859">
        <ele>1241.4000244141</ele>
        <time>2024-10-15T06:39:36.000Z</time>
      </trkpt>
      <trkpt lat="45.10963" lon="5.99859">
        <ele>1241.5999755859</ele>
        <time>2024-10-15T06:39:37.000Z</time>
      </trkpt>
      <trkpt lat="45.10963" lon="5.9986">
        <ele>1241.5999755859</ele>
        <time>2024-10-15T06:39:38.000Z</time>
      </trkpt>
      <trkpt lat="45.10963" lon="5.9986">
        <ele>1241.8000488281</ele>
        <time>2024-10-15T06:39:39.000Z</time>
      </trkpt>
      <trkpt lat="45.10962" lon="5.9986">
        <ele>1242.1999511719</ele>
        <time>2024-10-15T06:39:40.000Z</time>
      </trkpt>
      <trkpt lat="45.10962" lon="5.99861">
        <ele>1242.1999511719</ele>
        <time>2024-10-15T06:39:41.000Z</time>
      </trkpt>
      <trkpt lat="45.10962" lon="5.99861">
        <ele>1242.4000244141</ele>
        <time>2024-10-15T06:39:42.000Z</time>
      </trkpt>
      <trkpt lat="45.10962" lon="5.99861">
        <ele>1242.5999755859</ele>
        <time>2024-10-15T06:39:43.000Z</time>
      </trkpt>
      <trkpt lat="45.10962" lon="5.99861">
        <ele>1242.8000488281</ele>
        <time>2024-10-15T06:39:44.000Z</time>
      </trkpt>
      <trkpt lat="45.10961" lon="5.99861">
        <ele>1242.8000488281</ele>
        <time>2024-10-15T06:39:45.000Z</time>
      </trkpt>
      <trkpt lat="45.10961" lon="5.99861">
        <ele>1242.8000488281</ele>
        <time>2024-10-15T06:39:46.000Z</time>
      </trkpt>
      <trkpt lat="45.10961" lon="5.99861">
        <ele>1243.1999511719</ele>
        <time>2024-10-15T06:39:47.000Z</time>
      </trkpt>
      <trkpt lat="45.10961" lon="5.99861">
        <ele>1243.1999511719</ele>
        <time>2024-10-15T06:39:48.000Z</time>
      </trkpt>
      <trkpt lat="45.10961" lon="5.99861">
        <ele>1243.4000244141</ele>
        <time>2024-10-15T06:39:49.000Z</time>
      </trkpt>
      <trkpt lat="45.10961" lon="5.99861">
        <ele>1243.5999755859</ele>
        <time>2024-10-15T06:39:50.000Z</time>
      </trkpt>
      <trkpt lat="45.10961" lon="5.99861">
        <ele>1243.5999755859</ele>
        <time>2024-10-15T06:39:51.000Z</time>
      </trkpt>
      <trkpt lat="45.10961" lon="5.99861">
        <ele>1243.8000488281</ele>
        <time>2024-10-15T06:39:52.000Z</time>
      </trkpt>
      <trkpt lat="45.10961" lon="5.99861">
        <ele>1244</ele>
        <time>2024-10-15T06:39:53.000Z</time>
      </trkpt>
      <trkpt lat="45.10961" lon="5.99861">
        <ele>1244.4000244141</ele>
        <time>2024-10-15T06:39:54.000Z</time>
      </trkpt>
      <trkpt lat="45.10961" lon="5.99861">
        <ele>1244.4000244141</ele>
        <time>2024-10-15T06:39:55.000Z</time>
      </trkpt>
      <trkpt lat="45.10961" lon="5.99861">
        <ele>1244.4000244141</ele>
        <time>2024-10-15T06:39:56.000Z</time>
      </trkpt>
      <trkpt lat="45.10961" lon="5.99861">
        <ele>1244.8000488281</ele>
        <time>2024-10-15T06:39:57.000Z</time>
      </trkpt>
      <trkpt lat="45.10961" lon="5.99861">
        <ele>1244.8000488281</ele>
        <time>2024-10-15T06:39:58.000Z</time>
      </trkpt>
      <trkpt lat="45.10961" lon="5.99861">
        <ele>1245</ele>
        <time>2024-10-15T06:39:59.000Z</time>
      </trkpt>
      <trkpt lat="45.10961" lon="5.99861">
        <ele>1245</ele>
        <time>2024-10-15T06:40:00.000Z</time>
      </trkpt>
      <trkpt lat="45.10961" lon="5.99861">
        <ele>1245</ele>
        <time>2024-10-15T06:40:01.000Z</time>
      </trkpt>
      <trkpt lat="45.10961" lon="5.99861">
        <ele>1245</ele>
        <time>2024-10-15T06:40:02.000Z</time>
      </trkpt>
      <trkpt lat="45.10961" lon="5.99861">
        <ele>1245</ele>
        <time>2024-10-15T06:40:03.000Z</time>
      </trkpt>
      <trkpt lat="45.10961" lon="5.99861">
        <ele>1245.1999511719</ele>
        <time>2024-10-15T06:40:04.000Z</time>
      </trkpt>
      <trkpt lat="45.10961" lon="5.99861">
        <ele>1245.4000244141</ele>
        <time>2024-10-15T06:40:05.000Z</time>
      </trkpt>
      <trkpt lat="45.10961" lon="5.99861">
        <ele>1245.4000244141</ele>
        <time>2024-10-15T06:40:06.000Z</time>
      </trkpt>
      <trkpt lat="45.10961" lon="5.99861">
        <ele>1245.5999755859</ele>
        <time>2024-10-15T06:40:07.000Z</time>
      </trkpt>
      <trkpt lat="45.1096" lon="5.99861">
        <ele>1245.8000488281</ele>
        <time>2024-10-15T06:40:08.000Z</time>
      </trkpt>
      <trkpt lat="45.1096" lon="5.99861">
        <ele>1246.1999511719</ele>
        <time>2024-10-15T06:40:09.000Z</time>
      </trkpt>
      <trkpt lat="45.1096" lon="5.99862">
        <ele>1246.4000244141</ele>
        <time>2024-10-15T06:40:10.000Z</time>
      </trkpt>
      <trkpt lat="45.10959" lon="5.99862">
        <ele>1246.5999755859</ele>
        <time>2024-10-15T06:40:11.000Z</time>
      </trkpt>
      <trkpt lat="45.10959" lon="5.99862">
        <ele>1246.8000488281</ele>
        <time>2024-10-15T06:40:12.000Z</time>
      </trkpt>
      <trkpt lat="45.10959" lon="5.99862">
        <ele>1247</ele>
        <time>2024-10-15T06:40:13.000Z</time>
      </trkpt>
      <trkpt lat="45.10959" lon="5.99862">
        <ele>1247.1999511719</ele>
        <time>2024-10-15T06:40:14.000Z</time>
      </trkpt>
      <trkpt lat="45.10958" lon="5.99862">
        <ele>1247.1999511719</ele>
        <time>2024-10-15T06:40:15.000Z</time>
      </trkpt>
      <trkpt lat="45.10958" lon="5.99862">
        <ele>1247.4000244141</ele>
        <time>2024-10-15T06:40:16.000Z</time>
      </trkpt>
      <trkpt lat="45.10957" lon="5.99862">
        <ele>1247.4000244141</ele>
        <time>2024-10-15T06:40:17.000Z</time>
      </trkpt>
      <trkpt lat="45.10957" lon="5.99862">
        <ele>1247.5999755859</ele>
        <time>2024-10-15T06:40:18.000Z</time>
      </trkpt>
      <trkpt lat="45.10957" lon="5.99862">
        <ele>1247.8000488281</ele>
        <time>2024-10-15T06:40:19.000Z</time>
      </trkpt>
      <trkpt lat="45.10957" lon="5.99862">
        <ele>1248.1999511719</ele>
        <time>2024-10-15T06:40:20.000Z</time>
      </trkpt>
      <trkpt lat="45.10956" lon="5.99862">
        <ele>1248.1999511719</ele>
        <time>2024-10-15T06:40:21.000Z</time>
      </trkpt>
      <trkpt lat="45.10956" lon="5.99862">
        <ele>1248.4000244141</ele>
        <time>2024-10-15T06:40:22.000Z</time>
      </trkpt>
      <trkpt lat="45.10956" lon="5.99862">
        <ele>1248.4000244141</ele>
        <time>2024-10-15T06:40:23.000Z</time>
      </trkpt>
      <trkpt lat="45.10956" lon="5.99862">
        <ele>1248.5999755859</ele>
        <time>2024-10-15T06:40:24.000Z</time>
      </trkpt>
      <trkpt lat="45.10956" lon="5.99861">
        <ele>1248.8000488281</ele>
        <time>2024-10-15T06:40:25.000Z</time>
      </trkpt>
      <trkpt lat="45.10956" lon="5.99861">
        <ele>1248.8000488281</ele>
        <time>2024-10-15T06:40:26.000Z</time>
      </trkpt>
      <trkpt lat="45.10956" lon="5.99861">
        <ele>1249</ele>
        <time>2024-10-15T06:40:27.000Z</time>
      </trkpt>
      <trkpt lat="45.10956" lon="5.9986">
        <ele>1249.1999511719</ele>
        <time>2024-10-15T06:40:28.000Z</time>
      </trkpt>
      <trkpt lat="45.10956" lon="5.9986">
        <ele>1249.4000244141</ele>
        <time>2024-10-15T06:40:29.000Z</time>
      </trkpt>
      <trkpt lat="45.10956" lon="5.99859">
        <ele>1249.5999755859</ele>
        <time>2024-10-15T06:40:30.000Z</time>
      </trkpt>
      <trkpt lat="45.10955" lon="5.99859">
        <ele>1249.5999755859</ele>
        <time>2024-10-15T06:40:31.000Z</time>
      </trkpt>
      <trkpt lat="45.10955" lon="5.99858">
        <ele>1249.8000488281</ele>
        <time>2024-10-15T06:40:32.000Z</time>
      </trkpt>
      <trkpt lat="45.10955" lon="5.99857">
        <ele>1250</ele>
        <time>2024-10-15T06:40:33.000Z</time>
      </trkpt>
      <trkpt lat="45.10955" lon="5.99857">
        <ele>1250.1999511719</ele>
        <time>2024-10-15T06:40:34.000Z</time>
      </trkpt>
      <trkpt lat="45.10955" lon="5.99857">
        <ele>1250.4000244141</ele>
        <time>2024-10-15T06:40:35.000Z</time>
      </trkpt>
      <trkpt lat="45.10955" lon="5.99856">
        <ele>1250.5999755859</ele>
        <time>2024-10-15T06:40:36.000Z</time>
      </trkpt>
      <trkpt lat="45.10955" lon="5.99856">
        <ele>1250.5999755859</ele>
        <time>2024-10-15T06:40:37.000Z</time>
      </trkpt>
      <trkpt lat="45.10955" lon="5.99856">
        <ele>1250.8000488281</ele>
        <time>2024-10-15T06:40:38.000Z</time>
      </trkpt>
      <trkpt lat="45.10955" lon="5.99856">
        <ele>1250.8000488281</ele>
        <time>2024-10-15T06:40:39.000Z</time>
      </trkpt>
      <trkpt lat="45.10955" lon="5.99856">
        <ele>1251.1999511719</ele>
        <time>2024-10-15T06:40:40.000Z</time>
      </trkpt>
      <trkpt lat="45.10955" lon="5.99855">
        <ele>1251.1999511719</ele>
        <time>2024-10-15T06:40:41.000Z</time>
      </trkpt>
      <trkpt lat="45.10955" lon="5.99855">
        <ele>1251.4000244141</ele>
        <time>2024-10-15T06:40:42.000Z</time>
      </trkpt>
      <trkpt lat="45.10955" lon="5.99855">
        <ele>1251.5999755859</ele>
        <time>2024-10-15T06:40:43.000Z</time>
      </trkpt>
      <trkpt lat="45.10955" lon="5.99855">
        <ele>1251.8000488281</ele>
        <time>2024-10-15T06:40:44.000Z</time>
      </trkpt>
      <trkpt lat="45.10954" lon="5.99855">
        <ele>1252</ele>
        <time>2024-10-15T06:40:45.000Z</time>
      </trkpt>
      <trkpt lat="45.10954" lon="5.99855">
        <ele>1252.1999511719</ele>
        <time>2024-10-15T06:40:46.000Z</time>
      </trkpt>
      <trkpt lat="45.10954" lon="5.99855">
        <ele>1252</ele>
        <time>2024-10-15T06:40:47.000Z</time>
      </trkpt>
      <trkpt lat="45.10954" lon="5.99855">
        <ele>1252</ele>
        <time>2024-10-15T06:40:48.000Z</time>
      </trkpt>
      <trkpt lat="45.10954" lon="5.99855">
        <ele>1252</ele>
        <time>2024-10-15T06:40:49.000Z</time>
      </trkpt>
      <trkpt lat="45.10953" lon="5.99855">
        <ele>1252</ele>
        <time>2024-10-15T06:40:50.000Z</time>
      </trkpt>
      <trkpt lat="45.10953" lon="5.99855">
        <ele>1251.8000488281</ele>
        <time>2024-10-15T06:40:51.000Z</time>
      </trkpt>
      <trkpt lat="45.10953" lon="5.99855">
        <ele>1251.8000488281</ele>
        <time>2024-10-15T06:40:52.000Z</time>
      </trkpt>
      <trkpt lat="45.10953" lon="5.99855">
        <ele>1251.8000488281</ele>
        <time>2024-10-15T06:40:53.000Z</time>
      </trkpt>
      <trkpt lat="45.10952" lon="5.99855">
        <ele>1251.8000488281</ele>
        <time>2024-10-15T06:40:54.000Z</time>
      </trkpt>
      <trkpt lat="45.10952" lon="5.99855">
        <ele>1251.8000488281</ele>
        <time>2024-10-15T06:40:55.000Z</time>
      </trkpt>
      <trkpt lat="45.10952" lon="5.99855">
        <ele>1251.8000488281</ele>
        <time>2024-10-15T06:40:56.000Z</time>
      </trkpt>
      <trkpt lat="45.10951" lon="5.99855">
        <ele>1251.8000488281</ele>
        <time>2024-10-15T06:40:57.000Z</time>
      </trkpt>
      <trkpt lat="45.10951" lon="5.99855">
        <ele>1252</ele>
        <time>2024-10-15T06:40:58.000Z</time>
      </trkpt>
      <trkpt lat="45.10951" lon="5.99855">
        <ele>1252</ele>
        <time>2024-10-15T06:40:59.000Z</time>
      </trkpt>
      <trkpt lat="45.10951" lon="5.99855">
        <ele>1252.1999511719</ele>
        <time>2024-10-15T06:41:00.000Z</time>
      </trkpt>
      <trkpt lat="45.1095" lon="5.99855">
        <ele>1252.4000244141</ele>
        <time>2024-10-15T06:41:01.000Z</time>
      </trkpt>
      <trkpt lat="45.1095" lon="5.99855">
        <ele>1252.5999755859</ele>
        <time>2024-10-15T06:41:02.000Z</time>
      </trkpt>
      <trkpt lat="45.1095" lon="5.99855">
        <ele>1253</ele>
        <time>2024-10-15T06:41:03.000Z</time>
      </trkpt>
      <trkpt lat="45.1095" lon="5.99856">
        <ele>1253.1999511719</ele>
        <time>2024-10-15T06:41:04.000Z</time>
      </trkpt>
      <trkpt lat="45.1095" lon="5.99856">
        <ele>1253.4000244141</ele>
        <time>2024-10-15T06:41:05.000Z</time>
      </trkpt>
      <trkpt lat="45.1095" lon="5.99856">
        <ele>1253.5999755859</ele>
        <time>2024-10-15T06:41:06.000Z</time>
      </trkpt>
      <trkpt lat="45.1095" lon="5.99856">
        <ele>1253.8000488281</ele>
        <time>2024-10-15T06:41:07.000Z</time>
      </trkpt>
      <trkpt lat="45.1095" lon="5.99856">
        <ele>1254</ele>
        <time>2024-10-15T06:41:08.000Z</time>
      </trkpt>
      <trkpt lat="45.1095" lon="5.99856">
        <ele>1254</ele>
        <time>2024-10-15T06:41:09.000Z</time>
      </trkpt>
      <trkpt lat="45.1095" lon="5.99856">
        <ele>1254.1999511719</ele>
        <time>2024-10-15T06:41:10.000Z</time>
      </trkpt>
      <trkpt lat="45.1095" lon="5.99856">
        <ele>1254.1999511719</ele>
        <time>2024-10-15T06:41:11.000Z</time>
      </trkpt>
      <trkpt lat="45.1095" lon="5.99856">
        <ele>1254.1999511719</ele>
        <time>2024-10-15T06:41:12.000Z</time>
      </trkpt>
      <trkpt lat="45.1095" lon="5.99856">
        <ele>1254.1999511719</ele>
        <time>2024-10-15T06:41:13.000Z</time>
      </trkpt>
      <trkpt lat="45.10949" lon="5.99856">
        <ele>1254.1999511719</ele>
        <time>2024-10-15T06:41:14.000Z</time>
      </trkpt>
      <trkpt lat="45.10949" lon="5.99856">
        <ele>1254.1999511719</ele>
        <time>2024-10-15T06:41:15.000Z</time>
      </trkpt>
      <trkpt lat="45.10949" lon="5.99856">
        <ele>1254.1999511719</ele>
        <time>2024-10-15T06:41:16.000Z</time>
      </trkpt>
      <trkpt lat="45.10949" lon="5.99857">
        <ele>1254.1999511719</ele>
        <time>2024-10-15T06:41:17.000Z</time>
      </trkpt>
      <trkpt lat="45.10948" lon="5.99857">
        <ele>1254.4000244141</ele>
        <time>2024-10-15T06:41:18.000Z</time>
      </trkpt>
      <trkpt lat="45.10948" lon="5.99857">
        <ele>1254.5999755859</ele>
        <time>2024-10-15T06:41:19.000Z</time>
      </trkpt>
      <trkpt lat="45.10948" lon="5.99857">
        <ele>1255</ele>
        <time>2024-10-15T06:41:20.000Z</time>
      </trkpt>
      <trkpt lat="45.10948" lon="5.99857">
        <ele>1255.1999511719</ele>
        <time>2024-10-15T06:41:21.000Z</time>
      </trkpt>
      <trkpt lat="45.10948" lon="5.99858">
        <ele>1255.5999755859</ele>
        <time>2024-10-15T06:41:22.000Z</time>
      </trkpt>
      <trkpt lat="45.10948" lon="5.99858">
        <ele>1256</ele>
        <time>2024-10-15T06:41:23.000Z</time>
      </trkpt>
      <trkpt lat="45.10948" lon="5.99858">
        <ele>1256.1999511719</ele>
        <time>2024-10-15T06:41:24.000Z</time>
      </trkpt>
      <trkpt lat="45.10948" lon="5.99858">
        <ele>1256.4000244141</ele>
        <time>2024-10-15T06:41:25.000Z</time>
      </trkpt>
      <trkpt lat="45.10948" lon="5.99858">
        <ele>1256.8000488281</ele>
        <time>2024-10-15T06:41:26.000Z</time>
      </trkpt>
      <trkpt lat="45.10948" lon="5.99858">
        <ele>1257</ele>
        <time>2024-10-15T06:41:27.000Z</time>
      </trkpt>
      <trkpt lat="45.10948" lon="5.99858">
        <ele>1257.1999511719</ele>
        <time>2024-10-15T06:41:28.000Z</time>
      </trkpt>
      <trkpt lat="45.10948" lon="5.99858">
        <ele>1257.4000244141</ele>
        <time>2024-10-15T06:41:29.000Z</time>
      </trkpt>
      <trkpt lat="45.10947" lon="5.99859">
        <ele>1257.5999755859</ele>
        <time>2024-10-15T06:41:30.000Z</time>
      </trkpt>
      <trkpt lat="45.10947" lon="5.99859">
        <ele>1258</ele>
        <time>2024-10-15T06:41:31.000Z</time>
      </trkpt>
      <trkpt lat="45.10947" lon="5.99859">
        <ele>1258</ele>
        <time>2024-10-15T06:41:32.000Z</time>
      </trkpt>
      <trkpt lat="45.10946" lon="5.9986">
        <ele>1258</ele>
        <time>2024-10-15T06:41:33.000Z</time>
      </trkpt>
      <trkpt lat="45.10946" lon="5.9986">
        <ele>1258</ele>
        <time>2024-10-15T06:41:34.000Z</time>
      </trkpt>
      <trkpt lat="45.10946" lon="5.99861">
        <ele>1258.1999511719</ele>
        <time>2024-10-15T06:41:35.000Z</time>
      </trkpt>
      <trkpt lat="45.10946" lon="5.99861">
        <ele>1258.1999511719</ele>
        <time>2024-10-15T06:41:36.000Z</time>
      </trkpt>
      <trkpt lat="45.10945" lon="5.99862">
        <ele>1258.4000244141</ele>
        <time>2024-10-15T06:41:37.000Z</time>
      </trkpt>
      <trkpt lat="45.10945" lon="5.99862">
        <ele>1258.5999755859</ele>
        <time>2024-10-15T06:41:38.000Z</time>
      </trkpt>
      <trkpt lat="45.10945" lon="5.99862">
        <ele>1258.5999755859</ele>
        <time>2024-10-15T06:41:39.000Z</time>
      </trkpt>
      <trkpt lat="45.10945" lon="5.99862">
        <ele>1258.5999755859</ele>
        <time>2024-10-15T06:41:40.000Z</time>
      </trkpt>
      <trkpt lat="45.10945" lon="5.99863">
        <ele>1258.8000488281</ele>
        <time>2024-10-15T06:41:41.000Z</time>
      </trkpt>
      <trkpt lat="45.10945" lon="5.99863">
        <ele>1259</ele>
        <time>2024-10-15T06:41:42.000Z</time>
      </trkpt>
      <trkpt lat="45.10944" lon="5.99863">
        <ele>1259.1999511719</ele>
        <time>2024-10-15T06:41:43.000Z</time>
      </trkpt>
      <trkpt lat="45.10944" lon="5.99863">
        <ele>1259.4000244141</ele>
        <time>2024-10-15T06:41:44.000Z</time>
      </trkpt>
      <trkpt lat="45.10944" lon="5.99863">
        <ele>1259.4000244141</ele>
        <time>2024-10-15T06:41:45.000Z</time>
      </trkpt>
      <trkpt lat="45.10944" lon="5.99864">
        <ele>1259.5999755859</ele>
        <time>2024-10-15T06:41:46.000Z</time>
      </trkpt>
      <trkpt lat="45.10943" lon="5.99864">
        <ele>1259.8000488281</ele>
        <time>2024-10-15T06:41:47.000Z</time>
      </trkpt>
      <trkpt lat="45.10943" lon="5.99864">
        <ele>1260</ele>
        <time>2024-10-15T06:41:48.000Z</time>
      </trkpt>
      <trkpt lat="45.10943" lon="5.99864">
        <ele>1260.1999511719</ele>
        <time>2024-10-15T06:41:49.000Z</time>
      </trkpt>
      <trkpt lat="45.10942" lon="5.99864">
        <ele>1260.1999511719</ele>
        <time>2024-10-15T06:41:50.000Z</time>
      </trkpt>
      <trkpt lat="45.10942" lon="5.99865">
        <ele>1260.1999511719</ele>
        <time>2024-10-15T06:41:51.000Z</time>
      </trkpt>
      <trkpt lat="45.10942" lon="5.99865">
        <ele>1260.1999511719</ele>
        <time>2024-10-15T06:41:52.000Z</time>
      </trkpt>
      <trkpt lat="45.10942" lon="5.99865">
        <ele>1260</ele>
        <time>2024-10-15T06:41:53.000Z</time>
      </trkpt>
      <trkpt lat="45.10941" lon="5.99865">
        <ele>1260</ele>
        <time>2024-10-15T06:41:54.000Z</time>
      </trkpt>
      <trkpt lat="45.10941" lon="5.99865">
        <ele>1259.8000488281</ele>
        <time>2024-10-15T06:41:55.000Z</time>
      </trkpt>
      <trkpt lat="45.10941" lon="5.99865">
        <ele>1259.8000488281</ele>
        <time>2024-10-15T06:41:56.000Z</time>
      </trkpt>
      <trkpt lat="45.10941" lon="5.99865">
        <ele>1259.8000488281</ele>
        <time>2024-10-15T06:41:57.000Z</time>
      </trkpt>
      <trkpt lat="45.1094" lon="5.99865">
        <ele>1259.5999755859</ele>
        <time>2024-10-15T06:41:58.000Z</time>
      </trkpt>
      <trkpt lat="45.1094" lon="5.99866">
        <ele>1259.5999755859</ele>
        <time>2024-10-15T06:41:59.000Z</time>
      </trkpt>
      <trkpt lat="45.10939" lon="5.99868">
        <ele>1259.5999755859</ele>
        <time>2024-10-15T06:42:00.000Z</time>
      </trkpt>
      <trkpt lat="45.10938" lon="5.99869">
        <ele>1259.5999755859</ele>
        <time>2024-10-15T06:42:01.000Z</time>
      </trkpt>
      <trkpt lat="45.10937" lon="5.9987">
        <ele>1259.5999755859</ele>
        <time>2024-10-15T06:42:02.000Z</time>
      </trkpt>
      <trkpt lat="45.10936" lon="5.99871">
        <ele>1259.8000488281</ele>
        <time>2024-10-15T06:42:03.000Z</time>
      </trkpt>
      <trkpt lat="45.10935" lon="5.99872">
        <ele>1259.8000488281</ele>
        <time>2024-10-15T06:42:04.000Z</time>
      </trkpt>
      <trkpt lat="45.10934" lon="5.99873">
        <ele>1259.8000488281</ele>
        <time>2024-10-15T06:42:05.000Z</time>
      </trkpt>
      <trkpt lat="45.10933" lon="5.99875">
        <ele>1260</ele>
        <time>2024-10-15T06:42:06.000Z</time>
      </trkpt>
      <trkpt lat="45.10932" lon="5.99876">
        <ele>1260.1999511719</ele>
        <time>2024-10-15T06:42:07.000Z</time>
      </trkpt>
      <trkpt lat="45.10931" lon="5.99877">
        <ele>1260.5999755859</ele>
        <time>2024-10-15T06:42:08.000Z</time>
      </trkpt>
      <trkpt lat="45.10931" lon="5.99878">
        <ele>1260.8000488281</ele>
        <time>2024-10-15T06:42:09.000Z</time>
      </trkpt>
      <trkpt lat="45.1093" lon="5.99878">
        <ele>1261</ele>
        <time>2024-10-15T06:42:10.000Z</time>
      </trkpt>
      <trkpt lat="45.10929" lon="5.99878">
        <ele>1261.4000244141</ele>
        <time>2024-10-15T06:42:11.000Z</time>
      </trkpt>
      <trkpt lat="45.10928" lon="5.99878">
        <ele>1261.8000488281</ele>
        <time>2024-10-15T06:42:12.000Z</time>
      </trkpt>
      <trkpt lat="45.10928" lon="5.99878">
        <ele>1262</ele>
        <time>2024-10-15T06:42:13.000Z</time>
      </trkpt>
      <trkpt lat="45.10927" lon="5.99879">
        <ele>1262.4000244141</ele>
        <time>2024-10-15T06:42:14.000Z</time>
      </trkpt>
      <trkpt lat="45.10927" lon="5.99879">
        <ele>1262.5999755859</ele>
        <time>2024-10-15T06:42:15.000Z</time>
      </trkpt>
      <trkpt lat="45.10927" lon="5.99879">
        <ele>1263</ele>
        <time>2024-10-15T06:42:16.000Z</time>
      </trkpt>
      <trkpt lat="45.10926" lon="5.99879">
        <ele>1263</ele>
        <time>2024-10-15T06:42:17.000Z</time>
      </trkpt>
      <trkpt lat="45.10926" lon="5.9988">
        <ele>1263</ele>
        <time>2024-10-15T06:42:18.000Z</time>
      </trkpt>
      <trkpt lat="45.10926" lon="5.9988">
        <ele>1262.8000488281</ele>
        <time>2024-10-15T06:42:19.000Z</time>
      </trkpt>
      <trkpt lat="45.10926" lon="5.9988">
        <ele>1262.8000488281</ele>
        <time>2024-10-15T06:42:20.000Z</time>
      </trkpt>
      <trkpt lat="45.10926" lon="5.9988">
        <ele>1262.8000488281</ele>
        <time>2024-10-15T06:42:21.000Z</time>
      </trkpt>
      <trkpt lat="45.10925" lon="5.99879">
        <ele>1262.8000488281</ele>
        <time>2024-10-15T06:42:22.000Z</time>
      </trkpt>
      <trkpt lat="45.10925" lon="5.99879">
        <ele>1262.8000488281</ele>
        <time>2024-10-15T06:42:23.000Z</time>
      </trkpt>
      <trkpt lat="45.10925" lon="5.99878">
        <ele>1262.5999755859</ele>
        <time>2024-10-15T06:42:24.000Z</time>
      </trkpt>
      <trkpt lat="45.10924" lon="5.99878">
        <ele>1262.8000488281</ele>
        <time>2024-10-15T06:42:25.000Z</time>
      </trkpt>
      <trkpt lat="45.10923" lon="5.99879">
        <ele>1263</ele>
        <time>2024-10-15T06:42:26.000Z</time>
      </trkpt>
      <trkpt lat="45.10923" lon="5.99879">
        <ele>1263.1999511719</ele>
        <time>2024-10-15T06:42:27.000Z</time>
      </trkpt>
      <trkpt lat="45.10922" lon="5.99879">
        <ele>1263.4000244141</ele>
        <time>2024-10-15T06:42:28.000Z</time>
      </trkpt>
      <trkpt lat="45.10922" lon="5.99879">
        <ele>1263.5999755859</ele>
        <time>2024-10-15T06:42:29.000Z</time>
      </trkpt>
      <trkpt lat="45.10921" lon="5.99879">
        <ele>1264</ele>
        <time>2024-10-15T06:42:30.000Z</time>
      </trkpt>
      <trkpt lat="45.1092" lon="5.99878">
        <ele>1264.1999511719</ele>
        <time>2024-10-15T06:42:31.000Z</time>
      </trkpt>
      <trkpt lat="45.1092" lon="5.99878">
        <ele>1264.4000244141</ele>
        <time>2024-10-15T06:42:32.000Z</time>
      </trkpt>
      <trkpt lat="45.10919" lon="5.99877">
        <ele>1264.4000244141</ele>
        <time>2024-10-15T06:42:33.000Z</time>
      </trkpt>
      <trkpt lat="45.10919" lon="5.99877">
        <ele>1264.5999755859</ele>
        <time>2024-10-15T06:42:34.000Z</time>
      </trkpt>
      <trkpt lat="45.10918" lon="5.99877">
        <ele>1264.5999755859</ele>
        <time>2024-10-15T06:42:35.000Z</time>
      </trkpt>
      <trkpt lat="45.10918" lon="5.99877">
        <ele>1264.5999755859</ele>
        <time>2024-10-15T06:42:36.000Z</time>
      </trkpt>
      <trkpt lat="45.10918" lon="5.99876">
        <ele>1264.8000488281</ele>
        <time>2024-10-15T06:42:37.000Z</time>
      </trkpt>
      <trkpt lat="45.10917" lon="5.99876">
        <ele>1265</ele>
        <time>2024-10-15T06:42:38.000Z</time>
      </trkpt>
      <trkpt lat="45.10917" lon="5.99877">
        <ele>1265.1999511719</ele>
        <time>2024-10-15T06:42:39.000Z</time>
      </trkpt>
      <trkpt lat="45.10916" lon="5.99877">
        <ele>1265.4000244141</ele>
        <time>2024-10-15T06:42:40.000Z</time>
      </trkpt>
      <trkpt lat="45.10916" lon="5.99876">
        <ele>1265.5999755859</ele>
        <time>2024-10-15T06:42:41.000Z</time>
      </trkpt>
      <trkpt lat="45.10915" lon="5.99876">
        <ele>1265.8000488281</ele>
        <time>2024-10-15T06:42:42.000Z</time>
      </trkpt>
      <trkpt lat="45.10915" lon="5.99876">
        <ele>1265.8000488281</ele>
        <time>2024-10-15T06:42:43.000Z</time>
      </trkpt>
      <trkpt lat="45.10915" lon="5.99877">
        <ele>1266</ele>
        <time>2024-10-15T06:42:44.000Z</time>
      </trkpt>
      <trkpt lat="45.10915" lon="5.99877">
        <ele>1266.1999511719</ele>
        <time>2024-10-15T06:42:45.000Z</time>
      </trkpt>
      <trkpt lat="45.10915" lon="5.99877">
        <ele>1266.4000244141</ele>
        <time>2024-10-15T06:42:46.000Z</time>
      </trkpt>
      <trkpt lat="45.10915" lon="5.99877">
        <ele>1266.8000488281</ele>
        <time>2024-10-15T06:42:47.000Z</time>
      </trkpt>
      <trkpt lat="45.10915" lon="5.99876">
        <ele>1266.8000488281</ele>
        <time>2024-10-15T06:42:48.000Z</time>
      </trkpt>
      <trkpt lat="45.10915" lon="5.99876">
        <ele>1266.8000488281</ele>
        <time>2024-10-15T06:42:49.000Z</time>
      </trkpt>
      <trkpt lat="45.10915" lon="5.99876">
        <ele>1266.5999755859</ele>
        <time>2024-10-15T06:42:50.000Z</time>
      </trkpt>
      <trkpt lat="45.10915" lon="5.99876">
        <ele>1266.5999755859</ele>
        <time>2024-10-15T06:42:51.000Z</time>
      </trkpt>
      <trkpt lat="45.10915" lon="5.99876">
        <ele>1266.5999755859</ele>
        <time>2024-10-15T06:42:52.000Z</time>
      </trkpt>
      <trkpt lat="45.10915" lon="5.99876">
        <ele>1266.4000244141</ele>
        <time>2024-10-15T06:42:53.000Z</time>
      </trkpt>
      <trkpt lat="45.10915" lon="5.99876">
        <ele>1266.1999511719</ele>
        <time>2024-10-15T06:42:54.000Z</time>
      </trkpt>
      <trkpt lat="45.10915" lon="5.99876">
        <ele>1266.1999511719</ele>
        <time>2024-10-15T06:42:55.000Z</time>
      </trkpt>
      <trkpt lat="45.10915" lon="5.99876">
        <ele>1266.1999511719</ele>
        <time>2024-10-15T06:42:56.000Z</time>
      </trkpt>
      <trkpt lat="45.10915" lon="5.99876">
        <ele>1266</ele>
        <time>2024-10-15T06:42:57.000Z</time>
      </trkpt>
      <trkpt lat="45.10915" lon="5.99876">
        <ele>1265.5999755859</ele>
        <time>2024-10-15T06:42:58.000Z</time>
      </trkpt>
      <trkpt lat="45.10915" lon="5.99876">
        <ele>1265.5999755859</ele>
        <time>2024-10-15T06:42:59.000Z</time>
      </trkpt>
      <trkpt lat="45.10915" lon="5.99876">
        <ele>1265.5999755859</ele>
        <time>2024-10-15T06:43:00.000Z</time>
      </trkpt>
      <trkpt lat="45.10915" lon="5.99876">
        <ele>1265.5999755859</ele>
        <time>2024-10-15T06:43:01.000Z</time>
      </trkpt>
      <trkpt lat="45.10915" lon="5.99876">
        <ele>1265.5999755859</ele>
        <time>2024-10-15T06:43:02.000Z</time>
      </trkpt>
      <trkpt lat="45.10915" lon="5.99876">
        <ele>1265.5999755859</ele>
        <time>2024-10-15T06:43:03.000Z</time>
      </trkpt>
      <trkpt lat="45.10915" lon="5.99876">
        <ele>1265.8000488281</ele>
        <time>2024-10-15T06:43:04.000Z</time>
      </trkpt>
      <trkpt lat="45.10915" lon="5.99876">
        <ele>1266</ele>
        <time>2024-10-15T06:43:05.000Z</time>
      </trkpt>
      <trkpt lat="45.10915" lon="5.99876">
        <ele>1266.4000244141</ele>
        <time>2024-10-15T06:43:06.000Z</time>
      </trkpt>
      <trkpt lat="45.10914" lon="5.99876">
        <ele>1267</ele>
        <time>2024-10-15T06:43:07.000Z</time>
      </trkpt>
      <trkpt lat="45.10913" lon="5.99874">
        <ele>1267</ele>
        <time>2024-10-15T06:43:08.000Z</time>
      </trkpt>
      <trkpt lat="45.10912" lon="5.99872">
        <ele>1267</ele>
        <time>2024-10-15T06:43:09.000Z</time>
      </trkpt>
      <trkpt lat="45.10911" lon="5.9987">
        <ele>1267.1999511719</ele>
        <time>2024-10-15T06:43:10.000Z</time>
      </trkpt>
      <trkpt lat="45.1091" lon="5.99868">
        <ele>1267.1999511719</ele>
        <time>2024-10-15T06:43:11.000Z</time>
      </trkpt>
      <trkpt lat="45.10909" lon="5.99867">
        <ele>1267.1999511719</ele>
        <time>2024-10-15T06:43:12.000Z</time>
      </trkpt>
      <trkpt lat="45.10908" lon="5.99866">
        <ele>1267.4000244141</ele>
        <time>2024-10-15T06:43:13.000Z</time>
      </trkpt>
      <trkpt lat="45.10906" lon="5.99864">
        <ele>1267.4000244141</ele>
        <time>2024-10-15T06:43:14.000Z</time>
      </trkpt>
      <trkpt lat="45.10905" lon="5.99863">
        <ele>1267.4000244141</ele>
        <time>2024-10-15T06:43:15.000Z</time>
      </trkpt>
      <trkpt lat="45.10904" lon="5.99862">
        <ele>1267.4000244141</ele>
        <time>2024-10-15T06:43:16.000Z</time>
      </trkpt>
      <trkpt lat="45.10904" lon="5.99861">
        <ele>1267.4000244141</ele>
        <time>2024-10-15T06:43:17.000Z</time>
      </trkpt>
      <trkpt lat="45.10904" lon="5.99861">
        <ele>1267.5999755859</ele>
        <time>2024-10-15T06:43:18.000Z</time>
      </trkpt>
      <trkpt lat="45.10904" lon="5.9986">
        <ele>1268</ele>
        <time>2024-10-15T06:43:19.000Z</time>
      </trkpt>
      <trkpt lat="45.10904" lon="5.99859">
        <ele>1268.1999511719</ele>
        <time>2024-10-15T06:43:20.000Z</time>
      </trkpt>
      <trkpt lat="45.10903" lon="5.99858">
        <ele>1268.1999511719</ele>
        <time>2024-10-15T06:43:21.000Z</time>
      </trkpt>
      <trkpt lat="45.10904" lon="5.99858">
        <ele>1268.4000244141</ele>
        <time>2024-10-15T06:43:22.000Z</time>
      </trkpt>
      <trkpt lat="45.10903" lon="5.99858">
        <ele>1268.4000244141</ele>
        <time>2024-10-15T06:43:23.000Z</time>
      </trkpt>
      <trkpt lat="45.10903" lon="5.99858">
        <ele>1268.4000244141</ele>
        <time>2024-10-15T06:43:24.000Z</time>
      </trkpt>
      <trkpt lat="45.10902" lon="5.99858">
        <ele>1268.4000244141</ele>
        <time>2024-10-15T06:43:25.000Z</time>
      </trkpt>
      <trkpt lat="45.10902" lon="5.99858">
        <ele>1268.4000244141</ele>
        <time>2024-10-15T06:43:26.000Z</time>
      </trkpt>
      <trkpt lat="45.10901" lon="5.99858">
        <ele>1268.4000244141</ele>
        <time>2024-10-15T06:43:27.000Z</time>
      </trkpt>
      <trkpt lat="45.109" lon="5.99858">
        <ele>1268.4000244141</ele>
        <time>2024-10-15T06:43:28.000Z</time>
      </trkpt>
      <trkpt lat="45.10899" lon="5.99857">
        <ele>1268.1999511719</ele>
        <time>2024-10-15T06:43:29.000Z</time>
      </trkpt>
      <trkpt lat="45.10899" lon="5.99856">
        <ele>1268</ele>
        <time>2024-10-15T06:43:30.000Z</time>
      </trkpt>
      <trkpt lat="45.10898" lon="5.99856">
        <ele>1268</ele>
        <time>2024-10-15T06:43:31.000Z</time>
      </trkpt>
      <trkpt lat="45.10897" lon="5.99855">
        <ele>1268</ele>
        <time>2024-10-15T06:43:32.000Z</time>
      </trkpt>
      <trkpt lat="45.10897" lon="5.99855">
        <ele>1268</ele>
        <time>2024-10-15T06:43:33.000Z</time>
      </trkpt>
      <trkpt lat="45.10896" lon="5.99854">
        <ele>1268</ele>
        <time>2024-10-15T06:43:34.000Z</time>
      </trkpt>
      <trkpt lat="45.10895" lon="5.99854">
        <ele>1268</ele>
        <time>2024-10-15T06:43:35.000Z</time>
      </trkpt>
      <trkpt lat="45.10894" lon="5.99853">
        <ele>1268</ele>
        <time>2024-10-15T06:43:36.000Z</time>
      </trkpt>
      <trkpt lat="45.10893" lon="5.99853">
        <ele>1268.4000244141</ele>
        <time>2024-10-15T06:43:37.000Z</time>
      </trkpt>
      <trkpt lat="45.10893" lon="5.99852">
        <ele>1268.5999755859</ele>
        <time>2024-10-15T06:43:38.000Z</time>
      </trkpt>
      <trkpt lat="45.10893" lon="5.99852">
        <ele>1268.5999755859</ele>
        <time>2024-10-15T06:43:39.000Z</time>
      </trkpt>
      <trkpt lat="45.10892" lon="5.99851">
        <ele>1268.8000488281</ele>
        <time>2024-10-15T06:43:40.000Z</time>
      </trkpt>
      <trkpt lat="45.10892" lon="5.99851">
        <ele>1268.8000488281</ele>
        <time>2024-10-15T06:43:41.000Z</time>
      </trkpt>
      <trkpt lat="45.10891" lon="5.9985">
        <ele>1269.1999511719</ele>
        <time>2024-10-15T06:43:42.000Z</time>
      </trkpt>
      <trkpt lat="45.1089" lon="5.9985">
        <ele>1269.1999511719</ele>
        <time>2024-10-15T06:43:43.000Z</time>
      </trkpt>
      <trkpt lat="45.1089" lon="5.9985">
        <ele>1269.1999511719</ele>
        <time>2024-10-15T06:43:44.000Z</time>
      </trkpt>
      <trkpt lat="45.1089" lon="5.9985">
        <ele>1269.5999755859</ele>
        <time>2024-10-15T06:43:45.000Z</time>
      </trkpt>
      <trkpt lat="45.1089" lon="5.9985">
        <ele>1269.8000488281</ele>
        <time>2024-10-15T06:43:46.000Z</time>
      </trkpt>
      <trkpt lat="45.10889" lon="5.9985">
        <ele>1270</ele>
        <time>2024-10-15T06:43:47.000Z</time>
      </trkpt>
      <trkpt lat="45.10889" lon="5.99849">
        <ele>1270.1999511719</ele>
        <time>2024-10-15T06:43:48.000Z</time>
      </trkpt>
      <trkpt lat="45.10888" lon="5.99849">
        <ele>1270.4000244141</ele>
        <time>2024-10-15T06:43:49.000Z</time>
      </trkpt>
      <trkpt lat="45.10888" lon="5.99848">
        <ele>1270.5999755859</ele>
        <time>2024-10-15T06:43:50.000Z</time>
      </trkpt>
      <trkpt lat="45.10887" lon="5.99848">
        <ele>1270.5999755859</ele>
        <time>2024-10-15T06:43:51.000Z</time>
      </trkpt>
      <trkpt lat="45.10887" lon="5.99847">
        <ele>1270.8000488281</ele>
        <time>2024-10-15T06:43:52.000Z</time>
      </trkpt>
      <trkpt lat="45.10887" lon="5.99848">
        <ele>1271</ele>
        <time>2024-10-15T06:43:53.000Z</time>
      </trkpt>
      <trkpt lat="45.10887" lon="5.99848">
        <ele>1271.4000244141</ele>
        <time>2024-10-15T06:43:54.000Z</time>
      </trkpt>
      <trkpt lat="45.10887" lon="5.99848">
        <ele>1271.5999755859</ele>
        <time>2024-10-15T06:43:55.000Z</time>
      </trkpt>
      <trkpt lat="45.10887" lon="5.99848">
        <ele>1271.5999755859</ele>
        <time>2024-10-15T06:43:56.000Z</time>
      </trkpt>
      <trkpt lat="45.10887" lon="5.99848">
        <ele>1271.5999755859</ele>
        <time>2024-10-15T06:43:57.000Z</time>
      </trkpt>
      <trkpt lat="45.10887" lon="5.99848">
        <ele>1271.5999755859</ele>
        <time>2024-10-15T06:43:58.000Z</time>
      </trkpt>
      <trkpt lat="45.10887" lon="5.99848">
        <ele>1271.8000488281</ele>
        <time>2024-10-15T06:43:59.000Z</time>
      </trkpt>
      <trkpt lat="45.10887" lon="5.99848">
        <ele>1271.8000488281</ele>
        <time>2024-10-15T06:44:00.000Z</time>
      </trkpt>
      <trkpt lat="45.10887" lon="5.99848">
        <ele>1271.8000488281</ele>
        <time>2024-10-15T06:44:01.000Z</time>
      </trkpt>
      <trkpt lat="45.10887" lon="5.99848">
        <ele>1271.8000488281</ele>
        <time>2024-10-15T06:44:02.000Z</time>
      </trkpt>
      <trkpt lat="45.10887" lon="5.99848">
        <ele>1272</ele>
        <time>2024-10-15T06:44:03.000Z</time>
      </trkpt>
      <trkpt lat="45.10887" lon="5.99848">
        <ele>1272.1999511719</ele>
        <time>2024-10-15T06:44:04.000Z</time>
      </trkpt>
      <trkpt lat="45.10887" lon="5.99848">
        <ele>1272.1999511719</ele>
        <time>2024-10-15T06:44:05.000Z</time>
      </trkpt>
      <trkpt lat="45.10887" lon="5.99848">
        <ele>1272.1999511719</ele>
        <time>2024-10-15T06:44:06.000Z</time>
      </trkpt>
      <trkpt lat="45.10887" lon="5.99848">
        <ele>1272.4000244141</ele>
        <time>2024-10-15T06:44:07.000Z</time>
      </trkpt>
      <trkpt lat="45.10887" lon="5.99848">
        <ele>1272.4000244141</ele>
        <time>2024-10-15T06:44:08.000Z</time>
      </trkpt>
      <trkpt lat="45.10887" lon="5.99848">
        <ele>1272.4000244141</ele>
        <time>2024-10-15T06:44:09.000Z</time>
      </trkpt>
      <trkpt lat="45.10887" lon="5.99848">
        <ele>1272.4000244141</ele>
        <time>2024-10-15T06:44:10.000Z</time>
      </trkpt>
      <trkpt lat="45.10887" lon="5.99848">
        <ele>1272.4000244141</ele>
        <time>2024-10-15T06:44:11.000Z</time>
      </trkpt>
      <trkpt lat="45.10887" lon="5.99848">
        <ele>1272.4000244141</ele>
        <time>2024-10-15T06:44:12.000Z</time>
      </trkpt>
      <trkpt lat="45.10887" lon="5.99848">
        <ele>1272.5999755859</ele>
        <time>2024-10-15T06:44:13.000Z</time>
      </trkpt>
      <trkpt lat="45.10887" lon="5.99847">
        <ele>1272.5999755859</ele>
        <time>2024-10-15T06:44:14.000Z</time>
      </trkpt>
      <trkpt lat="45.10887" lon="5.99847">
        <ele>1272.8000488281</ele>
        <time>2024-10-15T06:44:15.000Z</time>
      </trkpt>
      <trkpt lat="45.10887" lon="5.99847">
        <ele>1272.8000488281</ele>
        <time>2024-10-15T06:44:16.000Z</time>
      </trkpt>
      <trkpt lat="45.10887" lon="5.99846">
        <ele>1273.1999511719</ele>
        <time>2024-10-15T06:44:17.000Z</time>
      </trkpt>
      <trkpt lat="45.10887" lon="5.99846">
        <ele>1273.1999511719</ele>
        <time>2024-10-15T06:44:18.000Z</time>
      </trkpt>
      <trkpt lat="45.10887" lon="5.99846">
        <ele>1273.4000244141</ele>
        <time>2024-10-15T06:44:19.000Z</time>
      </trkpt>
      <trkpt lat="45.10887" lon="5.99845">
        <ele>1273.4000244141</ele>
        <time>2024-10-15T06:44:20.000Z</time>
      </trkpt>
      <trkpt lat="45.10887" lon="5.99845">
        <ele>1273.4000244141</ele>
        <time>2024-10-15T06:44:21.000Z</time>
      </trkpt>
      <trkpt lat="45.10887" lon="5.99845">
        <ele>1273.8000488281</ele>
        <time>2024-10-15T06:44:22.000Z</time>
      </trkpt>
      <trkpt lat="45.10887" lon="5.99844">
        <ele>1273.8000488281</ele>
        <time>2024-10-15T06:44:23.000Z</time>
      </trkpt>
      <trkpt lat="45.10887" lon="5.99844">
        <ele>1274</ele>
        <time>2024-10-15T06:44:24.000Z</time>
      </trkpt>
      <trkpt lat="45.10887" lon="5.99844">
        <ele>1274</ele>
        <time>2024-10-15T06:44:25.000Z</time>
      </trkpt>
      <trkpt lat="45.10887" lon="5.99843">
        <ele>1274.1999511719</ele>
        <time>2024-10-15T06:44:26.000Z</time>
      </trkpt>
      <trkpt lat="45.10887" lon="5.99843">
        <ele>1274.1999511719</ele>
        <time>2024-10-15T06:44:27.000Z</time>
      </trkpt>
      <trkpt lat="45.10887" lon="5.99843">
        <ele>1274.1999511719</ele>
        <time>2024-10-15T06:44:28.000Z</time>
      </trkpt>
      <trkpt lat="45.10887" lon="5.99843">
        <ele>1274.4000244141</ele>
        <time>2024-10-15T06:44:29.000Z</time>
      </trkpt>
      <trkpt lat="45.10886" lon="5.99843">
        <ele>1274.5999755859</ele>
        <time>2024-10-15T06:44:30.000Z</time>
      </trkpt>
      <trkpt lat="45.10886" lon="5.99843">
        <ele>1274.8000488281</ele>
        <time>2024-10-15T06:44:31.000Z</time>
      </trkpt>
      <trkpt lat="45.10886" lon="5.99842">
        <ele>1275</ele>
        <time>2024-10-15T06:44:32.000Z</time>
      </trkpt>
      <trkpt lat="45.10885" lon="5.99842">
        <ele>1275.1999511719</ele>
        <time>2024-10-15T06:44:33.000Z</time>
      </trkpt>
      <trkpt lat="45.10885" lon="5.99842">
        <ele>1275.5999755859</ele>
        <time>2024-10-15T06:44:34.000Z</time>
      </trkpt>
      <trkpt lat="45.10885" lon="5.99842">
        <ele>1276</ele>
        <time>2024-10-15T06:44:35.000Z</time>
      </trkpt>
      <trkpt lat="45.10884" lon="5.99842">
        <ele>1276.1999511719</ele>
        <time>2024-10-15T06:44:36.000Z</time>
      </trkpt>
      <trkpt lat="45.10884" lon="5.99842">
        <ele>1276.1999511719</ele>
        <time>2024-10-15T06:44:37.000Z</time>
      </trkpt>
      <trkpt lat="45.10883" lon="5.99842">
        <ele>1276.5999755859</ele>
        <time>2024-10-15T06:44:38.000Z</time>
      </trkpt>
      <trkpt lat="45.10883" lon="5.99842">
        <ele>1276.8000488281</ele>
        <time>2024-10-15T06:44:39.000Z</time>
      </trkpt>
      <trkpt lat="45.10882" lon="5.99842">
        <ele>1277</ele>
        <time>2024-10-15T06:44:40.000Z</time>
      </trkpt>
      <trkpt lat="45.10881" lon="5.99842">
        <ele>1277.1999511719</ele>
        <time>2024-10-15T06:44:41.000Z</time>
      </trkpt>
      <trkpt lat="45.10881" lon="5.99841">
        <ele>1277.4000244141</ele>
        <time>2024-10-15T06:44:42.000Z</time>
      </trkpt>
      <trkpt lat="45.1088" lon="5.99841">
        <ele>1277.8000488281</ele>
        <time>2024-10-15T06:44:43.000Z</time>
      </trkpt>
      <trkpt lat="45.1088" lon="5.99841">
        <ele>1278</ele>
        <time>2024-10-15T06:44:44.000Z</time>
      </trkpt>
      <trkpt lat="45.10879" lon="5.99841">
        <ele>1278.1999511719</ele>
        <time>2024-10-15T06:44:45.000Z</time>
      </trkpt>
      <trkpt lat="45.10878" lon="5.99841">
        <ele>1278.1999511719</ele>
        <time>2024-10-15T06:44:46.000Z</time>
      </trkpt>
      <trkpt lat="45.10878" lon="5.99841">
        <ele>1278.1999511719</ele>
        <time>2024-10-15T06:44:47.000Z</time>
      </trkpt>
      <trkpt lat="45.10878" lon="5.99841">
        <ele>1278.1999511719</ele>
        <time>2024-10-15T06:44:48.000Z</time>
      </trkpt>
      <trkpt lat="45.10877" lon="5.99841">
        <ele>1278.4000244141</ele>
        <time>2024-10-15T06:44:49.000Z</time>
      </trkpt>
      <trkpt lat="45.10877" lon="5.99841">
        <ele>1278.4000244141</ele>
        <time>2024-10-15T06:44:50.000Z</time>
      </trkpt>
      <trkpt lat="45.10877" lon="5.9984">
        <ele>1279</ele>
        <time>2024-10-15T06:44:51.000Z</time>
      </trkpt>
      <trkpt lat="45.10876" lon="5.9984">
        <ele>1279.1999511719</ele>
        <time>2024-10-15T06:44:52.000Z</time>
      </trkpt>
      <trkpt lat="45.10875" lon="5.9984">
        <ele>1279.1999511719</ele>
        <time>2024-10-15T06:44:53.000Z</time>
      </trkpt>
      <trkpt lat="45.10875" lon="5.9984">
        <ele>1279.1999511719</ele>
        <time>2024-10-15T06:44:54.000Z</time>
      </trkpt>
      <trkpt lat="45.10874" lon="5.99839">
        <ele>1279.4000244141</ele>
        <time>2024-10-15T06:44:55.000Z</time>
      </trkpt>
      <trkpt lat="45.10874" lon="5.99838">
        <ele>1279.5999755859</ele>
        <time>2024-10-15T06:44:56.000Z</time>
      </trkpt>
      <trkpt lat="45.10874" lon="5.99837">
        <ele>1279.8000488281</ele>
        <time>2024-10-15T06:44:57.000Z</time>
      </trkpt>
      <trkpt lat="45.10873" lon="5.99837">
        <ele>1280.1999511719</ele>
        <time>2024-10-15T06:44:58.000Z</time>
      </trkpt>
      <trkpt lat="45.10873" lon="5.99836">
        <ele>1280.4000244141</ele>
        <time>2024-10-15T06:44:59.000Z</time>
      </trkpt>
      <trkpt lat="45.10873" lon="5.99836">
        <ele>1280.5999755859</ele>
        <time>2024-10-15T06:45:00.000Z</time>
      </trkpt>
      <trkpt lat="45.10872" lon="5.99835">
        <ele>1280.8000488281</ele>
        <time>2024-10-15T06:45:01.000Z</time>
      </trkpt>
      <trkpt lat="45.10872" lon="5.99835">
        <ele>1281</ele>
        <time>2024-10-15T06:45:02.000Z</time>
      </trkpt>
      <trkpt lat="45.10872" lon="5.99835">
        <ele>1281.1999511719</ele>
        <time>2024-10-15T06:45:03.000Z</time>
      </trkpt>
      <trkpt lat="45.10873" lon="5.99835">
        <ele>1281.4000244141</ele>
        <time>2024-10-15T06:45:04.000Z</time>
      </trkpt>
      <trkpt lat="45.10873" lon="5.99835">
        <ele>1281.8000488281</ele>
        <time>2024-10-15T06:45:05.000Z</time>
      </trkpt>
      <trkpt lat="45.10873" lon="5.99834">
        <ele>1282.1999511719</ele>
        <time>2024-10-15T06:45:06.000Z</time>
      </trkpt>
      <trkpt lat="45.10873" lon="5.99834">
        <ele>1282.5999755859</ele>
        <time>2024-10-15T06:45:07.000Z</time>
      </trkpt>
      <trkpt lat="45.10873" lon="5.99834">
        <ele>1282.8000488281</ele>
        <time>2024-10-15T06:45:08.000Z</time>
      </trkpt>
      <trkpt lat="45.10873" lon="5.99834">
        <ele>1282.8000488281</ele>
        <time>2024-10-15T06:45:09.000Z</time>
      </trkpt>
      <trkpt lat="45.10873" lon="5.99834">
        <ele>1282.8000488281</ele>
        <time>2024-10-15T06:45:10.000Z</time>
      </trkpt>
      <trkpt lat="45.10873" lon="5.99834">
        <ele>1283.1999511719</ele>
        <time>2024-10-15T06:45:11.000Z</time>
      </trkpt>
      <trkpt lat="45.10873" lon="5.99834">
        <ele>1283.1999511719</ele>
        <time>2024-10-15T06:45:12.000Z</time>
      </trkpt>
      <trkpt lat="45.10873" lon="5.99834">
        <ele>1283.5999755859</ele>
        <time>2024-10-15T06:45:13.000Z</time>
      </trkpt>
      <trkpt lat="45.10873" lon="5.99834">
        <ele>1283.8000488281</ele>
        <time>2024-10-15T06:45:14.000Z</time>
      </trkpt>
      <trkpt lat="45.10873" lon="5.99834">
        <ele>1284</ele>
        <time>2024-10-15T06:45:15.000Z</time>
      </trkpt>
      <trkpt lat="45.10873" lon="5.99834">
        <ele>1284.4000244141</ele>
        <time>2024-10-15T06:45:16.000Z</time>
      </trkpt>
      <trkpt lat="45.10873" lon="5.99834">
        <ele>1284.5999755859</ele>
        <time>2024-10-15T06:45:17.000Z</time>
      </trkpt>
      <trkpt lat="45.10873" lon="5.99834">
        <ele>1284.5999755859</ele>
        <time>2024-10-15T06:45:18.000Z</time>
      </trkpt>
      <trkpt lat="45.10873" lon="5.99834">
        <ele>1284.8000488281</ele>
        <time>2024-10-15T06:45:19.000Z</time>
      </trkpt>
      <trkpt lat="45.10873" lon="5.99834">
        <ele>1284.8000488281</ele>
        <time>2024-10-15T06:45:20.000Z</time>
      </trkpt>
      <trkpt lat="45.10873" lon="5.99834">
        <ele>1284.8000488281</ele>
        <time>2024-10-15T06:45:21.000Z</time>
      </trkpt>
      <trkpt lat="45.10873" lon="5.99834">
        <ele>1285</ele>
        <time>2024-10-15T06:45:22.000Z</time>
      </trkpt>
      <trkpt lat="45.10873" lon="5.99833">
        <ele>1285</ele>
        <time>2024-10-15T06:45:23.000Z</time>
      </trkpt>
      <trkpt lat="45.10873" lon="5.99832">
        <ele>1285.4000244141</ele>
        <time>2024-10-15T06:45:24.000Z</time>
      </trkpt>
      <trkpt lat="45.10873" lon="5.99831">
        <ele>1285.5999755859</ele>
        <time>2024-10-15T06:45:25.000Z</time>
      </trkpt>
      <trkpt lat="45.10873" lon="5.99831">
        <ele>1286</ele>
        <time>2024-10-15T06:45:26.000Z</time>
      </trkpt>
      <trkpt lat="45.10873" lon="5.9983">
        <ele>1286.1999511719</ele>
        <time>2024-10-15T06:45:27.000Z</time>
      </trkpt>
      <trkpt lat="45.10873" lon="5.9983">
        <ele>1286.1999511719</ele>
        <time>2024-10-15T06:45:28.000Z</time>
      </trkpt>
      <trkpt lat="45.10873" lon="5.9983">
        <ele>1286.4000244141</ele>
        <time>2024-10-15T06:45:29.000Z</time>
      </trkpt>
      <trkpt lat="45.10873" lon="5.99829">
        <ele>1286.5999755859</ele>
        <time>2024-10-15T06:45:30.000Z</time>
      </trkpt>
      <trkpt lat="45.10873" lon="5.99828">
        <ele>1286.8000488281</ele>
        <time>2024-10-15T06:45:31.000Z</time>
      </trkpt>
      <trkpt lat="45.10873" lon="5.99828">
        <ele>1286.8000488281</ele>
        <time>2024-10-15T06:45:32.000Z</time>
      </trkpt>
      <trkpt lat="45.10874" lon="5.99827">
        <ele>1287.1999511719</ele>
        <time>2024-10-15T06:45:33.000Z</time>
      </trkpt>
      <trkpt lat="45.10874" lon="5.99826">
        <ele>1287.4000244141</ele>
        <time>2024-10-15T06:45:34.000Z</time>
      </trkpt>
      <trkpt lat="45.10874" lon="5.99825">
        <ele>1287.5999755859</ele>
        <time>2024-10-15T06:45:35.000Z</time>
      </trkpt>
      <trkpt lat="45.10874" lon="5.99824">
        <ele>1287.5999755859</ele>
        <time>2024-10-15T06:45:36.000Z</time>
      </trkpt>
      <trkpt lat="45.10874" lon="5.99823">
        <ele>1287.8000488281</ele>
        <time>2024-10-15T06:45:37.000Z</time>
      </trkpt>
      <trkpt lat="45.10874" lon="5.99822">
        <ele>1288.1999511719</ele>
        <time>2024-10-15T06:45:38.000Z</time>
      </trkpt>
      <trkpt lat="45.10874" lon="5.99821">
        <ele>1288.4000244141</ele>
        <time>2024-10-15T06:45:39.000Z</time>
      </trkpt>
      <trkpt lat="45.10874" lon="5.9982">
        <ele>1288.8000488281</ele>
        <time>2024-10-15T06:45:40.000Z</time>
      </trkpt>
      <trkpt lat="45.10874" lon="5.9982">
        <ele>1288.8000488281</ele>
        <time>2024-10-15T06:45:41.000Z</time>
      </trkpt>
      <trkpt lat="45.10874" lon="5.99819">
        <ele>1289</ele>
        <time>2024-10-15T06:45:42.000Z</time>
      </trkpt>
      <trkpt lat="45.10874" lon="5.99819">
        <ele>1289</ele>
        <time>2024-10-15T06:45:43.000Z</time>
      </trkpt>
      <trkpt lat="45.10874" lon="5.99818">
        <ele>1289.4000244141</ele>
        <time>2024-10-15T06:45:44.000Z</time>
      </trkpt>
      <trkpt lat="45.10874" lon="5.99818">
        <ele>1289.5999755859</ele>
        <time>2024-10-15T06:45:45.000Z</time>
      </trkpt>
      <trkpt lat="45.10874" lon="5.99817">
        <ele>1289.8000488281</ele>
        <time>2024-10-15T06:45:46.000Z</time>
      </trkpt>
      <trkpt lat="45.10874" lon="5.99817">
        <ele>1290</ele>
        <time>2024-10-15T06:45:47.000Z</time>
      </trkpt>
      <trkpt lat="45.10873" lon="5.99816">
        <ele>1290.1999511719</ele>
        <time>2024-10-15T06:45:48.000Z</time>
      </trkpt>
      <trkpt lat="45.10873" lon="5.99815">
        <ele>1290.5999755859</ele>
        <time>2024-10-15T06:45:49.000Z</time>
      </trkpt>
      <trkpt lat="45.10873" lon="5.99814">
        <ele>1290.5999755859</ele>
        <time>2024-10-15T06:45:50.000Z</time>
      </trkpt>
      <trkpt lat="45.10873" lon="5.99813">
        <ele>1291</ele>
        <time>2024-10-15T06:45:51.000Z</time>
      </trkpt>
      <trkpt lat="45.10873" lon="5.99812">
        <ele>1291</ele>
        <time>2024-10-15T06:45:52.000Z</time>
      </trkpt>
      <trkpt lat="45.10873" lon="5.99811">
        <ele>1291.1999511719</ele>
        <time>2024-10-15T06:45:53.000Z</time>
      </trkpt>
      <trkpt lat="45.10873" lon="5.99811">
        <ele>1291.5999755859</ele>
        <time>2024-10-15T06:45:54.000Z</time>
      </trkpt>
      <trkpt lat="45.10873" lon="5.9981">
        <ele>1291.8000488281</ele>
        <time>2024-10-15T06:45:55.000Z</time>
      </trkpt>
      <trkpt lat="45.10873" lon="5.99809">
        <ele>1292.1999511719</ele>
        <time>2024-10-15T06:45:56.000Z</time>
      </trkpt>
      <trkpt lat="45.10873" lon="5.99809">
        <ele>1292.5999755859</ele>
        <time>2024-10-15T06:45:57.000Z</time>
      </trkpt>
      <trkpt lat="45.10873" lon="5.99808">
        <ele>1292.5999755859</ele>
        <time>2024-10-15T06:45:58.000Z</time>
      </trkpt>
      <trkpt lat="45.10873" lon="5.99808">
        <ele>1292.8000488281</ele>
        <time>2024-10-15T06:45:59.000Z</time>
      </trkpt>
      <trkpt lat="45.10873" lon="5.99808">
        <ele>1293</ele>
        <time>2024-10-15T06:46:00.000Z</time>
      </trkpt>
      <trkpt lat="45.10872" lon="5.99807">
        <ele>1293.4000244141</ele>
        <time>2024-10-15T06:46:01.000Z</time>
      </trkpt>
      <trkpt lat="45.10872" lon="5.99807">
        <ele>1293.4000244141</ele>
        <time>2024-10-15T06:46:02.000Z</time>
      </trkpt>
      <trkpt lat="45.10872" lon="5.99807">
        <ele>1293.5999755859</ele>
        <time>2024-10-15T06:46:03.000Z</time>
      </trkpt>
      <trkpt lat="45.10872" lon="5.99807">
        <ele>1293.5999755859</ele>
        <time>2024-10-15T06:46:04.000Z</time>
      </trkpt>
      <trkpt lat="45.10872" lon="5.99806">
        <ele>1293.8000488281</ele>
        <time>2024-10-15T06:46:05.000Z</time>
      </trkpt>
      <trkpt lat="45.10872" lon="5.99805">
        <ele>1294</ele>
        <time>2024-10-15T06:46:06.000Z</time>
      </trkpt>
      <trkpt lat="45.10872" lon="5.99803">
        <ele>1294.1999511719</ele>
        <time>2024-10-15T06:46:07.000Z</time>
      </trkpt>
      <trkpt lat="45.10873" lon="5.998">
        <ele>1294.4000244141</ele>
        <time>2024-10-15T06:46:08.000Z</time>
      </trkpt>
      <trkpt lat="45.10872" lon="5.99797">
        <ele>1294.5999755859</ele>
        <time>2024-10-15T06:46:09.000Z</time>
      </trkpt>
      <trkpt lat="45.10872" lon="5.99794">
        <ele>1294.5999755859</ele>
        <time>2024-10-15T06:46:10.000Z</time>
      </trkpt>
      <trkpt lat="45.10872" lon="5.99791">
        <ele>1294.5999755859</ele>
        <time>2024-10-15T06:46:11.000Z</time>
      </trkpt>
      <trkpt lat="45.10872" lon="5.99789">
        <ele>1294.5999755859</ele>
        <time>2024-10-15T06:46:12.000Z</time>
      </trkpt>
      <trkpt lat="45.10872" lon="5.99786">
        <ele>1294.5999755859</ele>
        <time>2024-10-15T06:46:13.000Z</time>
      </trkpt>
      <trkpt lat="45.10871" lon="5.99784">
        <ele>1294.5999755859</ele>
        <time>2024-10-15T06:46:14.000Z</time>
      </trkpt>
      <trkpt lat="45.10871" lon="5.99782">
        <ele>1294.5999755859</ele>
        <time>2024-10-15T06:46:15.000Z</time>
      </trkpt>
      <trkpt lat="45.10871" lon="5.9978">
        <ele>1294.5999755859</ele>
        <time>2024-10-15T06:46:16.000Z</time>
      </trkpt>
      <trkpt lat="45.1087" lon="5.99778">
        <ele>1294.5999755859</ele>
        <time>2024-10-15T06:46:17.000Z</time>
      </trkpt>
      <trkpt lat="45.1087" lon="5.99776">
        <ele>1294.5999755859</ele>
        <time>2024-10-15T06:46:18.000Z</time>
      </trkpt>
      <trkpt lat="45.1087" lon="5.99774">
        <ele>1294.5999755859</ele>
        <time>2024-10-15T06:46:19.000Z</time>
      </trkpt>
      <trkpt lat="45.1087" lon="5.99773">
        <ele>1294.4000244141</ele>
        <time>2024-10-15T06:46:20.000Z</time>
      </trkpt>
      <trkpt lat="45.1087" lon="5.99773">
        <ele>1294.4000244141</ele>
        <time>2024-10-15T06:46:21.000Z</time>
      </trkpt>
      <trkpt lat="45.10871" lon="5.99773">
        <ele>1294.4000244141</ele>
        <time>2024-10-15T06:46:22.000Z</time>
      </trkpt>
      <trkpt lat="45.10871" lon="5.99773">
        <ele>1294.4000244141</ele>
        <time>2024-10-15T06:46:23.000Z</time>
      </trkpt>
      <trkpt lat="45.10871" lon="5.99772">
        <ele>1294.1999511719</ele>
        <time>2024-10-15T06:46:24.000Z</time>
      </trkpt>
      <trkpt lat="45.10871" lon="5.9977">
        <ele>1294.4000244141</ele>
        <time>2024-10-15T06:46:25.000Z</time>
      </trkpt>
      <trkpt lat="45.1087" lon="5.99768">
        <ele>1294.8000488281</ele>
        <time>2024-10-15T06:46:26.000Z</time>
      </trkpt>
      <trkpt lat="45.1087" lon="5.99768">
        <ele>1294.8000488281</ele>
        <time>2024-10-15T06:46:27.000Z</time>
      </trkpt>
      <trkpt lat="45.1087" lon="5.99767">
        <ele>1294.8000488281</ele>
        <time>2024-10-15T06:46:28.000Z</time>
      </trkpt>
      <trkpt lat="45.1087" lon="5.99766">
        <ele>1295</ele>
        <time>2024-10-15T06:46:29.000Z</time>
      </trkpt>
      <trkpt lat="45.1087" lon="5.99766">
        <ele>1295.1999511719</ele>
        <time>2024-10-15T06:46:30.000Z</time>
      </trkpt>
      <trkpt lat="45.10869" lon="5.99765">
        <ele>1295.4000244141</ele>
        <time>2024-10-15T06:46:31.000Z</time>
      </trkpt>
      <trkpt lat="45.10869" lon="5.99764">
        <ele>1295.5999755859</ele>
        <time>2024-10-15T06:46:32.000Z</time>
      </trkpt>
      <trkpt lat="45.10869" lon="5.99763">
        <ele>1295.5999755859</ele>
        <time>2024-10-15T06:46:33.000Z</time>
      </trkpt>
      <trkpt lat="45.10869" lon="5.99762">
        <ele>1295.8000488281</ele>
        <time>2024-10-15T06:46:34.000Z</time>
      </trkpt>
      <trkpt lat="45.10869" lon="5.99762">
        <ele>1296</ele>
        <time>2024-10-15T06:46:35.000Z</time>
      </trkpt>
      <trkpt lat="45.10868" lon="5.9976">
        <ele>1296</ele>
        <time>2024-10-15T06:46:36.000Z</time>
      </trkpt>
      <trkpt lat="45.10868" lon="5.99759">
        <ele>1296.1999511719</ele>
        <time>2024-10-15T06:46:37.000Z</time>
      </trkpt>
      <trkpt lat="45.10868" lon="5.99758">
        <ele>1296.4000244141</ele>
        <time>2024-10-15T06:46:38.000Z</time>
      </trkpt>
      <trkpt lat="45.10867" lon="5.99757">
        <ele>1296.5999755859</ele>
        <time>2024-10-15T06:46:39.000Z</time>
      </trkpt>
      <trkpt lat="45.10867" lon="5.99757">
        <ele>1296.8000488281</ele>
        <time>2024-10-15T06:46:40.000Z</time>
      </trkpt>
      <trkpt lat="45.10867" lon="5.99756">
        <ele>1297</ele>
        <time>2024-10-15T06:46:41.000Z</time>
      </trkpt>
      <trkpt lat="45.10867" lon="5.99755">
        <ele>1297</ele>
        <time>2024-10-15T06:46:42.000Z</time>
      </trkpt>
      <trkpt lat="45.10867" lon="5.99754">
        <ele>1297.1999511719</ele>
        <time>2024-10-15T06:46:43.000Z</time>
      </trkpt>
      <trkpt lat="45.10867" lon="5.99754">
        <ele>1297.4000244141</ele>
        <time>2024-10-15T06:46:44.000Z</time>
      </trkpt>
      <trkpt lat="45.10867" lon="5.99753">
        <ele>1297.5999755859</ele>
        <time>2024-10-15T06:46:45.000Z</time>
      </trkpt>
      <trkpt lat="45.10867" lon="5.99752">
        <ele>1297.8000488281</ele>
        <time>2024-10-15T06:46:46.000Z</time>
      </trkpt>
      <trkpt lat="45.10867" lon="5.99752">
        <ele>1298</ele>
        <time>2024-10-15T06:46:47.000Z</time>
      </trkpt>
      <trkpt lat="45.10867" lon="5.99752">
        <ele>1298</ele>
        <time>2024-10-15T06:46:48.000Z</time>
      </trkpt>
      <trkpt lat="45.10867" lon="5.99751">
        <ele>1298.4000244141</ele>
        <time>2024-10-15T06:46:49.000Z</time>
      </trkpt>
      <trkpt lat="45.10868" lon="5.99751">
        <ele>1298.5999755859</ele>
        <time>2024-10-15T06:46:50.000Z</time>
      </trkpt>
      <trkpt lat="45.10868" lon="5.9975">
        <ele>1298.5999755859</ele>
        <time>2024-10-15T06:46:51.000Z</time>
      </trkpt>
      <trkpt lat="45.10868" lon="5.99749">
        <ele>1298.8000488281</ele>
        <time>2024-10-15T06:46:52.000Z</time>
      </trkpt>
      <trkpt lat="45.10867" lon="5.99748">
        <ele>1299</ele>
        <time>2024-10-15T06:46:53.000Z</time>
      </trkpt>
      <trkpt lat="45.10867" lon="5.99747">
        <ele>1299.1999511719</ele>
        <time>2024-10-15T06:46:54.000Z</time>
      </trkpt>
      <trkpt lat="45.10868" lon="5.99746">
        <ele>1299.4000244141</ele>
        <time>2024-10-15T06:46:55.000Z</time>
      </trkpt>
      <trkpt lat="45.10868" lon="5.99746">
        <ele>1299.5999755859</ele>
        <time>2024-10-15T06:46:56.000Z</time>
      </trkpt>
      <trkpt lat="45.10868" lon="5.99744">
        <ele>1299.8000488281</ele>
        <time>2024-10-15T06:46:57.000Z</time>
      </trkpt>
      <trkpt lat="45.10867" lon="5.99742">
        <ele>1300.1999511719</ele>
        <time>2024-10-15T06:46:58.000Z</time>
      </trkpt>
      <trkpt lat="45.10867" lon="5.99741">
        <ele>1300.1999511719</ele>
        <time>2024-10-15T06:46:59.000Z</time>
      </trkpt>
      <trkpt lat="45.10867" lon="5.99741">
        <ele>1300.4000244141</ele>
        <time>2024-10-15T06:47:00.000Z</time>
      </trkpt>
      <trkpt lat="45.10867" lon="5.99741">
        <ele>1300.5999755859</ele>
        <time>2024-10-15T06:47:01.000Z</time>
      </trkpt>
      <trkpt lat="45.10867" lon="5.9974">
        <ele>1300.8000488281</ele>
        <time>2024-10-15T06:47:02.000Z</time>
      </trkpt>
      <trkpt lat="45.10867" lon="5.99739">
        <ele>1301</ele>
        <time>2024-10-15T06:47:03.000Z</time>
      </trkpt>
      <trkpt lat="45.10867" lon="5.99739">
        <ele>1301.1999511719</ele>
        <time>2024-10-15T06:47:04.000Z</time>
      </trkpt>
      <trkpt lat="45.10866" lon="5.99737">
        <ele>1301.4000244141</ele>
        <time>2024-10-15T06:47:05.000Z</time>
      </trkpt>
      <trkpt lat="45.10866" lon="5.99736">
        <ele>1301.5999755859</ele>
        <time>2024-10-15T06:47:06.000Z</time>
      </trkpt>
      <trkpt lat="45.10867" lon="5.99736">
        <ele>1301.8000488281</ele>
        <time>2024-10-15T06:47:07.000Z</time>
      </trkpt>
      <trkpt lat="45.10868" lon="5.99735">
        <ele>1302</ele>
        <time>2024-10-15T06:47:08.000Z</time>
      </trkpt>
      <trkpt lat="45.10868" lon="5.99735">
        <ele>1302.4000244141</ele>
        <time>2024-10-15T06:47:09.000Z</time>
      </trkpt>
      <trkpt lat="45.10868" lon="5.99734">
        <ele>1302.4000244141</ele>
        <time>2024-10-15T06:47:10.000Z</time>
      </trkpt>
      <trkpt lat="45.10869" lon="5.99734">
        <ele>1302.8000488281</ele>
        <time>2024-10-15T06:47:11.000Z</time>
      </trkpt>
      <trkpt lat="45.10869" lon="5.99733">
        <ele>1302.8000488281</ele>
        <time>2024-10-15T06:47:12.000Z</time>
      </trkpt>
      <trkpt lat="45.10869" lon="5.99732">
        <ele>1303</ele>
        <time>2024-10-15T06:47:13.000Z</time>
      </trkpt>
      <trkpt lat="45.10869" lon="5.99732">
        <ele>1303.1999511719</ele>
        <time>2024-10-15T06:47:14.000Z</time>
      </trkpt>
      <trkpt lat="45.1087" lon="5.99731">
        <ele>1303.4000244141</ele>
        <time>2024-10-15T06:47:15.000Z</time>
      </trkpt>
      <trkpt lat="45.1087" lon="5.99731">
        <ele>1303.5999755859</ele>
        <time>2024-10-15T06:47:16.000Z</time>
      </trkpt>
      <trkpt lat="45.1087" lon="5.9973">
        <ele>1303.8000488281</ele>
        <time>2024-10-15T06:47:17.000Z</time>
      </trkpt>
      <trkpt lat="45.1087" lon="5.9973">
        <ele>1304</ele>
        <time>2024-10-15T06:47:18.000Z</time>
      </trkpt>
      <trkpt lat="45.1087" lon="5.99729">
        <ele>1304</ele>
        <time>2024-10-15T06:47:19.000Z</time>
      </trkpt>
      <trkpt lat="45.1087" lon="5.99729">
        <ele>1304.1999511719</ele>
        <time>2024-10-15T06:47:20.000Z</time>
      </trkpt>
      <trkpt lat="45.1087" lon="5.99728">
        <ele>1304.4000244141</ele>
        <time>2024-10-15T06:47:21.000Z</time>
      </trkpt>
      <trkpt lat="45.1087" lon="5.99729">
        <ele>1304.5999755859</ele>
        <time>2024-10-15T06:47:22.000Z</time>
      </trkpt>
      <trkpt lat="45.10871" lon="5.99729">
        <ele>1304.8000488281</ele>
        <time>2024-10-15T06:47:23.000Z</time>
      </trkpt>
      <trkpt lat="45.10872" lon="5.9973">
        <ele>1304.8000488281</ele>
        <time>2024-10-15T06:47:24.000Z</time>
      </trkpt>
      <trkpt lat="45.10873" lon="5.9973">
        <ele>1305</ele>
        <time>2024-10-15T06:47:25.000Z</time>
      </trkpt>
      <trkpt lat="45.10874" lon="5.99729">
        <ele>1305.4000244141</ele>
        <time>2024-10-15T06:47:26.000Z</time>
      </trkpt>
      <trkpt lat="45.10874" lon="5.99729">
        <ele>1305.5999755859</ele>
        <time>2024-10-15T06:47:27.000Z</time>
      </trkpt>
      <trkpt lat="45.10874" lon="5.99728">
        <ele>1305.5999755859</ele>
        <time>2024-10-15T06:47:28.000Z</time>
      </trkpt>
      <trkpt lat="45.10874" lon="5.99728">
        <ele>1306</ele>
        <time>2024-10-15T06:47:29.000Z</time>
      </trkpt>
      <trkpt lat="45.10874" lon="5.99727">
        <ele>1306.1999511719</ele>
        <time>2024-10-15T06:47:30.000Z</time>
      </trkpt>
      <trkpt lat="45.10874" lon="5.99727">
        <ele>1306.1999511719</ele>
        <time>2024-10-15T06:47:31.000Z</time>
      </trkpt>
      <trkpt lat="45.10874" lon="5.99727">
        <ele>1306.1999511719</ele>
        <time>2024-10-15T06:47:32.000Z</time>
      </trkpt>
      <trkpt lat="45.10874" lon="5.99727">
        <ele>1306.1999511719</ele>
        <time>2024-10-15T06:47:33.000Z</time>
      </trkpt>
      <trkpt lat="45.10874" lon="5.99726">
        <ele>1306.4000244141</ele>
        <time>2024-10-15T06:47:34.000Z</time>
      </trkpt>
      <trkpt lat="45.10874" lon="5.99726">
        <ele>1306.5999755859</ele>
        <time>2024-10-15T06:47:35.000Z</time>
      </trkpt>
      <trkpt lat="45.10874" lon="5.99726">
        <ele>1306.5999755859</ele>
        <time>2024-10-15T06:47:36.000Z</time>
      </trkpt>
      <trkpt lat="45.10874" lon="5.99726">
        <ele>1306.5999755859</ele>
        <time>2024-10-15T06:47:37.000Z</time>
      </trkpt>
      <trkpt lat="45.10874" lon="5.99727">
        <ele>1306.5999755859</ele>
        <time>2024-10-15T06:47:38.000Z</time>
      </trkpt>
      <trkpt lat="45.10873" lon="5.99727">
        <ele>1306.5999755859</ele>
        <time>2024-10-15T06:47:39.000Z</time>
      </trkpt>
      <trkpt lat="45.10873" lon="5.99727">
        <ele>1306.8000488281</ele>
        <time>2024-10-15T06:47:40.000Z</time>
      </trkpt>
      <trkpt lat="45.10873" lon="5.99727">
        <ele>1307</ele>
        <time>2024-10-15T06:47:41.000Z</time>
      </trkpt>
      <trkpt lat="45.10872" lon="5.99726">
        <ele>1307.1999511719</ele>
        <time>2024-10-15T06:47:42.000Z</time>
      </trkpt>
      <trkpt lat="45.10872" lon="5.99726">
        <ele>1307.4000244141</ele>
        <time>2024-10-15T06:47:43.000Z</time>
      </trkpt>
      <trkpt lat="45.10872" lon="5.99726">
        <ele>1307.4000244141</ele>
        <time>2024-10-15T06:47:44.000Z</time>
      </trkpt>
      <trkpt lat="45.10872" lon="5.99726">
        <ele>1307.5999755859</ele>
        <time>2024-10-15T06:47:45.000Z</time>
      </trkpt>
      <trkpt lat="45.10872" lon="5.99726">
        <ele>1307.8000488281</ele>
        <time>2024-10-15T06:47:46.000Z</time>
      </trkpt>
      <trkpt lat="45.10872" lon="5.99726">
        <ele>1307.8000488281</ele>
        <time>2024-10-15T06:47:47.000Z</time>
      </trkpt>
      <trkpt lat="45.10872" lon="5.99726">
        <ele>1308</ele>
        <time>2024-10-15T06:47:48.000Z</time>
      </trkpt>
      <trkpt lat="45.10872" lon="5.99726">
        <ele>1308</ele>
        <time>2024-10-15T06:47:49.000Z</time>
      </trkpt>
      <trkpt lat="45.10872" lon="5.99726">
        <ele>1308</ele>
        <time>2024-10-15T06:47:50.000Z</time>
      </trkpt>
      <trkpt lat="45.10872" lon="5.99726">
        <ele>1308.1999511719</ele>
        <time>2024-10-15T06:47:51.000Z</time>
      </trkpt>
      <trkpt lat="45.10872" lon="5.99726">
        <ele>1308.1999511719</ele>
        <time>2024-10-15T06:47:52.000Z</time>
      </trkpt>
      <trkpt lat="45.10872" lon="5.99726">
        <ele>1308.1999511719</ele>
        <time>2024-10-15T06:47:53.000Z</time>
      </trkpt>
      <trkpt lat="45.10872" lon="5.99726">
        <ele>1308.1999511719</ele>
        <time>2024-10-15T06:47:54.000Z</time>
      </trkpt>
      <trkpt lat="45.10872" lon="5.99726">
        <ele>1308.1999511719</ele>
        <time>2024-10-15T06:47:55.000Z</time>
      </trkpt>
      <trkpt lat="45.10872" lon="5.99726">
        <ele>1308.5999755859</ele>
        <time>2024-10-15T06:47:56.000Z</time>
      </trkpt>
      <trkpt lat="45.10872" lon="5.99726">
        <ele>1308.8000488281</ele>
        <time>2024-10-15T06:47:57.000Z</time>
      </trkpt>
      <trkpt lat="45.10872" lon="5.99726">
        <ele>1309</ele>
        <time>2024-10-15T06:47:58.000Z</time>
      </trkpt>
      <trkpt lat="45.10872" lon="5.99726">
        <ele>1309</ele>
        <time>2024-10-15T06:47:59.000Z</time>
      </trkpt>
      <trkpt lat="45.10872" lon="5.99726">
        <ele>1309</ele>
        <time>2024-10-15T06:48:00.000Z</time>
      </trkpt>
      <trkpt lat="45.10872" lon="5.99726">
        <ele>1309.4000244141</ele>
        <time>2024-10-15T06:48:01.000Z</time>
      </trkpt>
      <trkpt lat="45.10871" lon="5.99726">
        <ele>1309.8000488281</ele>
        <time>2024-10-15T06:48:02.000Z</time>
      </trkpt>
      <trkpt lat="45.10871" lon="5.99726">
        <ele>1309.8000488281</ele>
        <time>2024-10-15T06:48:03.000Z</time>
      </trkpt>
      <trkpt lat="45.10871" lon="5.99726">
        <ele>1310</ele>
        <time>2024-10-15T06:48:04.000Z</time>
      </trkpt>
      <trkpt lat="45.10871" lon="5.99726">
        <ele>1310</ele>
        <time>2024-10-15T06:48:05.000Z</time>
      </trkpt>
      <trkpt lat="45.10871" lon="5.99726">
        <ele>1310.1999511719</ele>
        <time>2024-10-15T06:48:06.000Z</time>
      </trkpt>
      <trkpt lat="45.10871" lon="5.99726">
        <ele>1310.1999511719</ele>
        <time>2024-10-15T06:48:07.000Z</time>
      </trkpt>
      <trkpt lat="45.10871" lon="5.99726">
        <ele>1310.4000244141</ele>
        <time>2024-10-15T06:48:08.000Z</time>
      </trkpt>
      <trkpt lat="45.10871" lon="5.99726">
        <ele>1310.4000244141</ele>
        <time>2024-10-15T06:48:09.000Z</time>
      </trkpt>
      <trkpt lat="45.1087" lon="5.99726">
        <ele>1310.5999755859</ele>
        <time>2024-10-15T06:48:10.000Z</time>
      </trkpt>
      <trkpt lat="45.1087" lon="5.99726">
        <ele>1310.8000488281</ele>
        <time>2024-10-15T06:48:11.000Z</time>
      </trkpt>
      <trkpt lat="45.1087" lon="5.99725">
        <ele>1311</ele>
        <time>2024-10-15T06:48:12.000Z</time>
      </trkpt>
      <trkpt lat="45.10869" lon="5.99724">
        <ele>1311.4000244141</ele>
        <time>2024-10-15T06:48:13.000Z</time>
      </trkpt>
      <trkpt lat="45.10869" lon="5.99724">
        <ele>1311.4000244141</ele>
        <time>2024-10-15T06:48:14.000Z</time>
      </trkpt>
      <trkpt lat="45.10869" lon="5.99723">
        <ele>1311.4000244141</ele>
        <time>2024-10-15T06:48:15.000Z</time>
      </trkpt>
      <trkpt lat="45.10869" lon="5.99722">
        <ele>1311.8000488281</ele>
        <time>2024-10-15T06:48:16.000Z</time>
      </trkpt>
      <trkpt lat="45.10869" lon="5.99722">
        <ele>1312</ele>
        <time>2024-10-15T06:48:17.000Z</time>
      </trkpt>
      <trkpt lat="45.10869" lon="5.99721">
        <ele>1312</ele>
        <time>2024-10-15T06:48:18.000Z</time>
      </trkpt>
      <trkpt lat="45.10869" lon="5.99721">
        <ele>1312.1999511719</ele>
        <time>2024-10-15T06:48:19.000Z</time>
      </trkpt>
      <trkpt lat="45.10869" lon="5.99721">
        <ele>1312.1999511719</ele>
        <time>2024-10-15T06:48:20.000Z</time>
      </trkpt>
      <trkpt lat="45.10869" lon="5.99721">
        <ele>1312.4000244141</ele>
        <time>2024-10-15T06:48:21.000Z</time>
      </trkpt>
      <trkpt lat="45.10869" lon="5.99721">
        <ele>1312.5999755859</ele>
        <time>2024-10-15T06:48:22.000Z</time>
      </trkpt>
      <trkpt lat="45.10868" lon="5.9972">
        <ele>1312.8000488281</ele>
        <time>2024-10-15T06:48:23.000Z</time>
      </trkpt>
      <trkpt lat="45.10868" lon="5.99719">
        <ele>1312.8000488281</ele>
        <time>2024-10-15T06:48:24.000Z</time>
      </trkpt>
      <trkpt lat="45.10868" lon="5.99719">
        <ele>1313</ele>
        <time>2024-10-15T06:48:25.000Z</time>
      </trkpt>
      <trkpt lat="45.10868" lon="5.99718">
        <ele>1313.1999511719</ele>
        <time>2024-10-15T06:48:26.000Z</time>
      </trkpt>
      <trkpt lat="45.10867" lon="5.99717">
        <ele>1313.4000244141</ele>
        <time>2024-10-15T06:48:27.000Z</time>
      </trkpt>
      <trkpt lat="45.10867" lon="5.99717">
        <ele>1313.5999755859</ele>
        <time>2024-10-15T06:48:28.000Z</time>
      </trkpt>
      <trkpt lat="45.10867" lon="5.99717">
        <ele>1313.5999755859</ele>
        <time>2024-10-15T06:48:29.000Z</time>
      </trkpt>
      <trkpt lat="45.10867" lon="5.99717">
        <ele>1313.5999755859</ele>
        <time>2024-10-15T06:48:30.000Z</time>
      </trkpt>
      <trkpt lat="45.10867" lon="5.99717">
        <ele>1313.8000488281</ele>
        <time>2024-10-15T06:48:31.000Z</time>
      </trkpt>
      <trkpt lat="45.10867" lon="5.99717">
        <ele>1314.1999511719</ele>
        <time>2024-10-15T06:48:32.000Z</time>
      </trkpt>
      <trkpt lat="45.10867" lon="5.99717">
        <ele>1314.5999755859</ele>
        <time>2024-10-15T06:48:33.000Z</time>
      </trkpt>
      <trkpt lat="45.10867" lon="5.99717">
        <ele>1314.8000488281</ele>
        <time>2024-10-15T06:48:34.000Z</time>
      </trkpt>
      <trkpt lat="45.10866" lon="5.99717">
        <ele>1315</ele>
        <time>2024-10-15T06:48:35.000Z</time>
      </trkpt>
      <trkpt lat="45.10866" lon="5.99717">
        <ele>1315.1999511719</ele>
        <time>2024-10-15T06:48:36.000Z</time>
      </trkpt>
      <trkpt lat="45.10866" lon="5.99717">
        <ele>1315.4000244141</ele>
        <time>2024-10-15T06:48:37.000Z</time>
      </trkpt>
      <trkpt lat="45.10866" lon="5.99717">
        <ele>1315.5999755859</ele>
        <time>2024-10-15T06:48:38.000Z</time>
      </trkpt>
      <trkpt lat="45.10866" lon="5.99717">
        <ele>1315.8000488281</ele>
        <time>2024-10-15T06:48:39.000Z</time>
      </trkpt>
      <trkpt lat="45.10866" lon="5.99717">
        <ele>1316</ele>
        <time>2024-10-15T06:48:40.000Z</time>
      </trkpt>
      <trkpt lat="45.10866" lon="5.99716">
        <ele>1316.1999511719</ele>
        <time>2024-10-15T06:48:41.000Z</time>
      </trkpt>
      <trkpt lat="45.10866" lon="5.99716">
        <ele>1316.4000244141</ele>
        <time>2024-10-15T06:48:42.000Z</time>
      </trkpt>
      <trkpt lat="45.10865" lon="5.99716">
        <ele>1316.8000488281</ele>
        <time>2024-10-15T06:48:43.000Z</time>
      </trkpt>
      <trkpt lat="45.10864" lon="5.99716">
        <ele>1316.8000488281</ele>
        <time>2024-10-15T06:48:44.000Z</time>
      </trkpt>
      <trkpt lat="45.10863" lon="5.99716">
        <ele>1317.1999511719</ele>
        <time>2024-10-15T06:48:45.000Z</time>
      </trkpt>
      <trkpt lat="45.10863" lon="5.99716">
        <ele>1317.1999511719</ele>
        <time>2024-10-15T06:48:46.000Z</time>
      </trkpt>
      <trkpt lat="45.10862" lon="5.99716">
        <ele>1317.4000244141</ele>
        <time>2024-10-15T06:48:47.000Z</time>
      </trkpt>
      <trkpt lat="45.10862" lon="5.99716">
        <ele>1317.8000488281</ele>
        <time>2024-10-15T06:48:48.000Z</time>
      </trkpt>
      <trkpt lat="45.10862" lon="5.99716">
        <ele>1318</ele>
        <time>2024-10-15T06:48:49.000Z</time>
      </trkpt>
      <trkpt lat="45.10862" lon="5.99716">
        <ele>1318</ele>
        <time>2024-10-15T06:48:50.000Z</time>
      </trkpt>
      <trkpt lat="45.10862" lon="5.99716">
        <ele>1318.1999511719</ele>
        <time>2024-10-15T06:48:51.000Z</time>
      </trkpt>
      <trkpt lat="45.10862" lon="5.99716">
        <ele>1318.5999755859</ele>
        <time>2024-10-15T06:48:52.000Z</time>
      </trkpt>
      <trkpt lat="45.10862" lon="5.99716">
        <ele>1318.8000488281</ele>
        <time>2024-10-15T06:48:53.000Z</time>
      </trkpt>
      <trkpt lat="45.10862" lon="5.99716">
        <ele>1319</ele>
        <time>2024-10-15T06:48:54.000Z</time>
      </trkpt>
      <trkpt lat="45.10862" lon="5.99716">
        <ele>1319.1999511719</ele>
        <time>2024-10-15T06:48:55.000Z</time>
      </trkpt>
      <trkpt lat="45.10862" lon="5.99715">
        <ele>1319.4000244141</ele>
        <time>2024-10-15T06:48:56.000Z</time>
      </trkpt>
      <trkpt lat="45.10862" lon="5.99715">
        <ele>1319.4000244141</ele>
        <time>2024-10-15T06:48:57.000Z</time>
      </trkpt>
      <trkpt lat="45.10862" lon="5.99715">
        <ele>1319.5999755859</ele>
        <time>2024-10-15T06:48:58.000Z</time>
      </trkpt>
      <trkpt lat="45.10862" lon="5.99715">
        <ele>1319.8000488281</ele>
        <time>2024-10-15T06:48:59.000Z</time>
      </trkpt>
      <trkpt lat="45.10862" lon="5.99715">
        <ele>1320</ele>
        <time>2024-10-15T06:49:00.000Z</time>
      </trkpt>
      <trkpt lat="45.10861" lon="5.99715">
        <ele>1320.1999511719</ele>
        <time>2024-10-15T06:49:01.000Z</time>
      </trkpt>
      <trkpt lat="45.10861" lon="5.99715">
        <ele>1320.4000244141</ele>
        <time>2024-10-15T06:49:02.000Z</time>
      </trkpt>
      <trkpt lat="45.10861" lon="5.99715">
        <ele>1320.8000488281</ele>
        <time>2024-10-15T06:49:03.000Z</time>
      </trkpt>
      <trkpt lat="45.1086" lon="5.99714">
        <ele>1321</ele>
        <time>2024-10-15T06:49:04.000Z</time>
      </trkpt>
      <trkpt lat="45.1086" lon="5.99714">
        <ele>1321</ele>
        <time>2024-10-15T06:49:05.000Z</time>
      </trkpt>
      <trkpt lat="45.1086" lon="5.99714">
        <ele>1321.4000244141</ele>
        <time>2024-10-15T06:49:06.000Z</time>
      </trkpt>
      <trkpt lat="45.1086" lon="5.99714">
        <ele>1321.5999755859</ele>
        <time>2024-10-15T06:49:07.000Z</time>
      </trkpt>
      <trkpt lat="45.1086" lon="5.99714">
        <ele>1321.8000488281</ele>
        <time>2024-10-15T06:49:08.000Z</time>
      </trkpt>
      <trkpt lat="45.1086" lon="5.99714">
        <ele>1322</ele>
        <time>2024-10-15T06:49:09.000Z</time>
      </trkpt>
      <trkpt lat="45.10859" lon="5.99714">
        <ele>1322.1999511719</ele>
        <time>2024-10-15T06:49:10.000Z</time>
      </trkpt>
      <trkpt lat="45.10859" lon="5.99713">
        <ele>1322.5999755859</ele>
        <time>2024-10-15T06:49:11.000Z</time>
      </trkpt>
      <trkpt lat="45.10859" lon="5.99713">
        <ele>1322.5999755859</ele>
        <time>2024-10-15T06:49:12.000Z</time>
      </trkpt>
      <trkpt lat="45.10861" lon="5.99712">
        <ele>1322.8000488281</ele>
        <time>2024-10-15T06:49:13.000Z</time>
      </trkpt>
      <trkpt lat="45.10861" lon="5.9971">
        <ele>1323</ele>
        <time>2024-10-15T06:49:14.000Z</time>
      </trkpt>
      <trkpt lat="45.1086" lon="5.99708">
        <ele>1323.1999511719</ele>
        <time>2024-10-15T06:49:15.000Z</time>
      </trkpt>
      <trkpt lat="45.10859" lon="5.99706">
        <ele>1323.4000244141</ele>
        <time>2024-10-15T06:49:16.000Z</time>
      </trkpt>
      <trkpt lat="45.10858" lon="5.99705">
        <ele>1323.5999755859</ele>
        <time>2024-10-15T06:49:17.000Z</time>
      </trkpt>
      <trkpt lat="45.10857" lon="5.99703">
        <ele>1323.8000488281</ele>
        <time>2024-10-15T06:49:18.000Z</time>
      </trkpt>
      <trkpt lat="45.10856" lon="5.99702">
        <ele>1323.8000488281</ele>
        <time>2024-10-15T06:49:19.000Z</time>
      </trkpt>
      <trkpt lat="45.10856" lon="5.99701">
        <ele>1324</ele>
        <time>2024-10-15T06:49:20.000Z</time>
      </trkpt>
      <trkpt lat="45.10856" lon="5.99701">
        <ele>1324.1999511719</ele>
        <time>2024-10-15T06:49:21.000Z</time>
      </trkpt>
      <trkpt lat="45.10857" lon="5.99701">
        <ele>1324.4000244141</ele>
        <time>2024-10-15T06:49:22.000Z</time>
      </trkpt>
      <trkpt lat="45.10857" lon="5.997">
        <ele>1324.4000244141</ele>
        <time>2024-10-15T06:49:23.000Z</time>
      </trkpt>
      <trkpt lat="45.10856" lon="5.99699">
        <ele>1324.5999755859</ele>
        <time>2024-10-15T06:49:24.000Z</time>
      </trkpt>
      <trkpt lat="45.10854" lon="5.99697">
        <ele>1324.5999755859</ele>
        <time>2024-10-15T06:49:25.000Z</time>
      </trkpt>
      <trkpt lat="45.10852" lon="5.99695">
        <ele>1324.5999755859</ele>
        <time>2024-10-15T06:49:26.000Z</time>
      </trkpt>
      <trkpt lat="45.10851" lon="5.99694">
        <ele>1324.8000488281</ele>
        <time>2024-10-15T06:49:27.000Z</time>
      </trkpt>
      <trkpt lat="45.10851" lon="5.99693">
        <ele>1325</ele>
        <time>2024-10-15T06:49:28.000Z</time>
      </trkpt>
      <trkpt lat="45.10852" lon="5.99692">
        <ele>1325</ele>
        <time>2024-10-15T06:49:29.000Z</time>
      </trkpt>
      <trkpt lat="45.10852" lon="5.99691">
        <ele>1325.4000244141</ele>
        <time>2024-10-15T06:49:30.000Z</time>
      </trkpt>
      <trkpt lat="45.10853" lon="5.99691">
        <ele>1325.5999755859</ele>
        <time>2024-10-15T06:49:31.000Z</time>
      </trkpt>
      <trkpt lat="45.10853" lon="5.99691">
        <ele>1325.5999755859</ele>
        <time>2024-10-15T06:49:32.000Z</time>
      </trkpt>
      <trkpt lat="45.10854" lon="5.99691">
        <ele>1325.5999755859</ele>
        <time>2024-10-15T06:49:33.000Z</time>
      </trkpt>
      <trkpt lat="45.10856" lon="5.9969">
        <ele>1325.5999755859</ele>
        <time>2024-10-15T06:49:34.000Z</time>
      </trkpt>
      <trkpt lat="45.10857" lon="5.99689">
        <ele>1325.5999755859</ele>
        <time>2024-10-15T06:49:35.000Z</time>
      </trkpt>
      <trkpt lat="45.10859" lon="5.99688">
        <ele>1325.8000488281</ele>
        <time>2024-10-15T06:49:36.000Z</time>
      </trkpt>
      <trkpt lat="45.1086" lon="5.99687">
        <ele>1325.5999755859</ele>
        <time>2024-10-15T06:49:37.000Z</time>
      </trkpt>
      <trkpt lat="45.1086" lon="5.99686">
        <ele>1325.5999755859</ele>
        <time>2024-10-15T06:49:38.000Z</time>
      </trkpt>
      <trkpt lat="45.10861" lon="5.99686">
        <ele>1325.5999755859</ele>
        <time>2024-10-15T06:49:39.000Z</time>
      </trkpt>
      <trkpt lat="45.10862" lon="5.99686">
        <ele>1325.5999755859</ele>
        <time>2024-10-15T06:49:40.000Z</time>
      </trkpt>
      <trkpt lat="45.10863" lon="5.99685">
        <ele>1325.5999755859</ele>
        <time>2024-10-15T06:49:41.000Z</time>
      </trkpt>
      <trkpt lat="45.10863" lon="5.99684">
        <ele>1325.4000244141</ele>
        <time>2024-10-15T06:49:42.000Z</time>
      </trkpt>
      <trkpt lat="45.10863" lon="5.99684">
        <ele>1325.1999511719</ele>
        <time>2024-10-15T06:49:43.000Z</time>
      </trkpt>
      <trkpt lat="45.10863" lon="5.99684">
        <ele>1325.1999511719</ele>
        <time>2024-10-15T06:49:44.000Z</time>
      </trkpt>
      <trkpt lat="45.10863" lon="5.99684">
        <ele>1325.1999511719</ele>
        <time>2024-10-15T06:49:45.000Z</time>
      </trkpt>
      <trkpt lat="45.10862" lon="5.99683">
        <ele>1325.1999511719</ele>
        <time>2024-10-15T06:49:46.000Z</time>
      </trkpt>
      <trkpt lat="45.10861" lon="5.99684">
        <ele>1325.1999511719</ele>
        <time>2024-10-15T06:49:47.000Z</time>
      </trkpt>
      <trkpt lat="45.1086" lon="5.99685">
        <ele>1325.1999511719</ele>
        <time>2024-10-15T06:49:48.000Z</time>
      </trkpt>
      <trkpt lat="45.1086" lon="5.99685">
        <ele>1325.4000244141</ele>
        <time>2024-10-15T06:49:49.000Z</time>
      </trkpt>
      <trkpt lat="45.10859" lon="5.99686">
        <ele>1325.5999755859</ele>
        <time>2024-10-15T06:49:50.000Z</time>
      </trkpt>
      <trkpt lat="45.10858" lon="5.99686">
        <ele>1325.5999755859</ele>
        <time>2024-10-15T06:49:51.000Z</time>
      </trkpt>
      <trkpt lat="45.10858" lon="5.99686">
        <ele>1325.8000488281</ele>
        <time>2024-10-15T06:49:52.000Z</time>
      </trkpt>
      <trkpt lat="45.10858" lon="5.99686">
        <ele>1325.8000488281</ele>
        <time>2024-10-15T06:49:53.000Z</time>
      </trkpt>
      <trkpt lat="45.10858" lon="5.99686">
        <ele>1325.8000488281</ele>
        <time>2024-10-15T06:49:54.000Z</time>
      </trkpt>
      <trkpt lat="45.10859" lon="5.99686">
        <ele>1325.8000488281</ele>
        <time>2024-10-15T06:49:55.000Z</time>
      </trkpt>
      <trkpt lat="45.10862" lon="5.99686">
        <ele>1326</ele>
        <time>2024-10-15T06:49:56.000Z</time>
      </trkpt>
      <trkpt lat="45.10863" lon="5.99685">
        <ele>1326</ele>
        <time>2024-10-15T06:49:57.000Z</time>
      </trkpt>
      <trkpt lat="45.10864" lon="5.99685">
        <ele>1326</ele>
        <time>2024-10-15T06:49:58.000Z</time>
      </trkpt>
      <trkpt lat="45.10863" lon="5.99684">
        <ele>1326</ele>
        <time>2024-10-15T06:49:59.000Z</time>
      </trkpt>
      <trkpt lat="45.10864" lon="5.99684">
        <ele>1326.1999511719</ele>
        <time>2024-10-15T06:50:00.000Z</time>
      </trkpt>
      <trkpt lat="45.10864" lon="5.99683">
        <ele>1326.1999511719</ele>
        <time>2024-10-15T06:50:01.000Z</time>
      </trkpt>
      <trkpt lat="45.10864" lon="5.99683">
        <ele>1326.1999511719</ele>
        <time>2024-10-15T06:50:02.000Z</time>
      </trkpt>
      <trkpt lat="45.10865" lon="5.99684">
        <ele>1326.4000244141</ele>
        <time>2024-10-15T06:50:03.000Z</time>
      </trkpt>
      <trkpt lat="45.10866" lon="5.99683">
        <ele>1326.5999755859</ele>
        <time>2024-10-15T06:50:04.000Z</time>
      </trkpt>
      <trkpt lat="45.10866" lon="5.99683">
        <ele>1326.5999755859</ele>
        <time>2024-10-15T06:50:05.000Z</time>
      </trkpt>
      <trkpt lat="45.10867" lon="5.99682">
        <ele>1326.5999755859</ele>
        <time>2024-10-15T06:50:06.000Z</time>
      </trkpt>
      <trkpt lat="45.10866" lon="5.99681">
        <ele>1326.5999755859</ele>
        <time>2024-10-15T06:50:07.000Z</time>
      </trkpt>
      <trkpt lat="45.10866" lon="5.99682">
        <ele>1326.8000488281</ele>
        <time>2024-10-15T06:50:08.000Z</time>
      </trkpt>
      <trkpt lat="45.10865" lon="5.99681">
        <ele>1326.8000488281</ele>
        <time>2024-10-15T06:50:09.000Z</time>
      </trkpt>
      <trkpt lat="45.10866" lon="5.99679">
        <ele>1326.8000488281</ele>
        <time>2024-10-15T06:50:10.000Z</time>
      </trkpt>
      <trkpt lat="45.10868" lon="5.99678">
        <ele>1327</ele>
        <time>2024-10-15T06:50:11.000Z</time>
      </trkpt>
      <trkpt lat="45.10871" lon="5.99677">
        <ele>1327</ele>
        <time>2024-10-15T06:50:12.000Z</time>
      </trkpt>
      <trkpt lat="45.10871" lon="5.99677">
        <ele>1327</ele>
        <time>2024-10-15T06:50:13.000Z</time>
      </trkpt>
      <trkpt lat="45.10871" lon="5.99676">
        <ele>1327</ele>
        <time>2024-10-15T06:50:14.000Z</time>
      </trkpt>
      <trkpt lat="45.10871" lon="5.99676">
        <ele>1327</ele>
        <time>2024-10-15T06:50:15.000Z</time>
      </trkpt>
      <trkpt lat="45.1087" lon="5.99676">
        <ele>1327</ele>
        <time>2024-10-15T06:50:16.000Z</time>
      </trkpt>
      <trkpt lat="45.1087" lon="5.99675">
        <ele>1327</ele>
        <time>2024-10-15T06:50:17.000Z</time>
      </trkpt>
      <trkpt lat="45.10869" lon="5.99674">
        <ele>1327</ele>
        <time>2024-10-15T06:50:18.000Z</time>
      </trkpt>
      <trkpt lat="45.10869" lon="5.99672">
        <ele>1327.1999511719</ele>
        <time>2024-10-15T06:50:19.000Z</time>
      </trkpt>
      <trkpt lat="45.10866" lon="5.9967">
        <ele>1327.4000244141</ele>
        <time>2024-10-15T06:50:20.000Z</time>
      </trkpt>
      <trkpt lat="45.10865" lon="5.99669">
        <ele>1327.8000488281</ele>
        <time>2024-10-15T06:50:21.000Z</time>
      </trkpt>
      <trkpt lat="45.10865" lon="5.99669">
        <ele>1328</ele>
        <time>2024-10-15T06:50:22.000Z</time>
      </trkpt>
      <trkpt lat="45.10865" lon="5.99667">
        <ele>1328.4000244141</ele>
        <time>2024-10-15T06:50:23.000Z</time>
      </trkpt>
      <trkpt lat="45.10865" lon="5.99667">
        <ele>1328.5999755859</ele>
        <time>2024-10-15T06:50:24.000Z</time>
      </trkpt>
      <trkpt lat="45.10865" lon="5.99666">
        <ele>1329.1999511719</ele>
        <time>2024-10-15T06:50:25.000Z</time>
      </trkpt>
      <trkpt lat="45.10865" lon="5.99666">
        <ele>1329.4000244141</ele>
        <time>2024-10-15T06:50:26.000Z</time>
      </trkpt>
      <trkpt lat="45.10865" lon="5.99665">
        <ele>1329.5999755859</ele>
        <time>2024-10-15T06:50:27.000Z</time>
      </trkpt>
      <trkpt lat="45.10865" lon="5.99664">
        <ele>1329.5999755859</ele>
        <time>2024-10-15T06:50:28.000Z</time>
      </trkpt>
      <trkpt lat="45.10863" lon="5.99664">
        <ele>1329.5999755859</ele>
        <time>2024-10-15T06:50:29.000Z</time>
      </trkpt>
      <trkpt lat="45.10863" lon="5.99664">
        <ele>1329.5999755859</ele>
        <time>2024-10-15T06:50:30.000Z</time>
      </trkpt>
      <trkpt lat="45.10862" lon="5.99663">
        <ele>1329.8000488281</ele>
        <time>2024-10-15T06:50:31.000Z</time>
      </trkpt>
      <trkpt lat="45.10862" lon="5.99663">
        <ele>1329.8000488281</ele>
        <time>2024-10-15T06:50:32.000Z</time>
      </trkpt>
      <trkpt lat="45.10861" lon="5.99662">
        <ele>1329.8000488281</ele>
        <time>2024-10-15T06:50:33.000Z</time>
      </trkpt>
      <trkpt lat="45.10861" lon="5.99661">
        <ele>1330</ele>
        <time>2024-10-15T06:50:34.000Z</time>
      </trkpt>
      <trkpt lat="45.10861" lon="5.99661">
        <ele>1330.1999511719</ele>
        <time>2024-10-15T06:50:35.000Z</time>
      </trkpt>
      <trkpt lat="45.1086" lon="5.99661">
        <ele>1330.4000244141</ele>
        <time>2024-10-15T06:50:36.000Z</time>
      </trkpt>
      <trkpt lat="45.1086" lon="5.9966">
        <ele>1330.5999755859</ele>
        <time>2024-10-15T06:50:37.000Z</time>
      </trkpt>
      <trkpt lat="45.1086" lon="5.9966">
        <ele>1330.8000488281</ele>
        <time>2024-10-15T06:50:38.000Z</time>
      </trkpt>
      <trkpt lat="45.1086" lon="5.99658">
        <ele>1331</ele>
        <time>2024-10-15T06:50:39.000Z</time>
      </trkpt>
      <trkpt lat="45.10859" lon="5.99657">
        <ele>1331.4000244141</ele>
        <time>2024-10-15T06:50:40.000Z</time>
      </trkpt>
      <trkpt lat="45.10859" lon="5.99656">
        <ele>1331.5999755859</ele>
        <time>2024-10-15T06:50:41.000Z</time>
      </trkpt>
      <trkpt lat="45.1086" lon="5.99655">
        <ele>1331.5999755859</ele>
        <time>2024-10-15T06:50:42.000Z</time>
      </trkpt>
      <trkpt lat="45.1086" lon="5.99654">
        <ele>1331.8000488281</ele>
        <time>2024-10-15T06:50:43.000Z</time>
      </trkpt>
      <trkpt lat="45.10861" lon="5.99654">
        <ele>1332</ele>
        <time>2024-10-15T06:50:44.000Z</time>
      </trkpt>
      <trkpt lat="45.10861" lon="5.99654">
        <ele>1332</ele>
        <time>2024-10-15T06:50:45.000Z</time>
      </trkpt>
      <trkpt lat="45.10862" lon="5.99654">
        <ele>1332.1999511719</ele>
        <time>2024-10-15T06:50:46.000Z</time>
      </trkpt>
      <trkpt lat="45.10861" lon="5.99653">
        <ele>1332.1999511719</ele>
        <time>2024-10-15T06:50:47.000Z</time>
      </trkpt>
      <trkpt lat="45.10862" lon="5.99653">
        <ele>1332.5999755859</ele>
        <time>2024-10-15T06:50:48.000Z</time>
      </trkpt>
      <trkpt lat="45.10863" lon="5.99652">
        <ele>1332.5999755859</ele>
        <time>2024-10-15T06:50:49.000Z</time>
      </trkpt>
      <trkpt lat="45.10863" lon="5.99652">
        <ele>1332.5999755859</ele>
        <time>2024-10-15T06:50:50.000Z</time>
      </trkpt>
      <trkpt lat="45.10864" lon="5.99651">
        <ele>1332.5999755859</ele>
        <time>2024-10-15T06:50:51.000Z</time>
      </trkpt>
      <trkpt lat="45.10864" lon="5.99651">
        <ele>1332.5999755859</ele>
        <time>2024-10-15T06:50:52.000Z</time>
      </trkpt>
      <trkpt lat="45.10865" lon="5.9965">
        <ele>1332.5999755859</ele>
        <time>2024-10-15T06:50:53.000Z</time>
      </trkpt>
      <trkpt lat="45.10866" lon="5.99649">
        <ele>1332.5999755859</ele>
        <time>2024-10-15T06:50:54.000Z</time>
      </trkpt>
      <trkpt lat="45.10867" lon="5.99649">
        <ele>1332.5999755859</ele>
        <time>2024-10-15T06:50:55.000Z</time>
      </trkpt>
      <trkpt lat="45.10867" lon="5.99648">
        <ele>1332.5999755859</ele>
        <time>2024-10-15T06:50:56.000Z</time>
      </trkpt>
      <trkpt lat="45.10867" lon="5.99648">
        <ele>1332.8000488281</ele>
        <time>2024-10-15T06:50:57.000Z</time>
      </trkpt>
      <trkpt lat="45.10867" lon="5.99648">
        <ele>1332.8000488281</ele>
        <time>2024-10-15T06:50:58.000Z</time>
      </trkpt>
      <trkpt lat="45.10867" lon="5.99648">
        <ele>1333</ele>
        <time>2024-10-15T06:50:59.000Z</time>
      </trkpt>
      <trkpt lat="45.10867" lon="5.99648">
        <ele>1333.1999511719</ele>
        <time>2024-10-15T06:51:00.000Z</time>
      </trkpt>
      <trkpt lat="45.10867" lon="5.99647">
        <ele>1333.4000244141</ele>
        <time>2024-10-15T06:51:01.000Z</time>
      </trkpt>
      <trkpt lat="45.10868" lon="5.99647">
        <ele>1333.5999755859</ele>
        <time>2024-10-15T06:51:02.000Z</time>
      </trkpt>
      <trkpt lat="45.10868" lon="5.99646">
        <ele>1333.8000488281</ele>
        <time>2024-10-15T06:51:03.000Z</time>
      </trkpt>
      <trkpt lat="45.10868" lon="5.99646">
        <ele>1334.1999511719</ele>
        <time>2024-10-15T06:51:04.000Z</time>
      </trkpt>
      <trkpt lat="45.10868" lon="5.99645">
        <ele>1334.5999755859</ele>
        <time>2024-10-15T06:51:05.000Z</time>
      </trkpt>
      <trkpt lat="45.10868" lon="5.99644">
        <ele>1334.8000488281</ele>
        <time>2024-10-15T06:51:06.000Z</time>
      </trkpt>
      <trkpt lat="45.10868" lon="5.99643">
        <ele>1334.8000488281</ele>
        <time>2024-10-15T06:51:07.000Z</time>
      </trkpt>
      <trkpt lat="45.10868" lon="5.99642">
        <ele>1335</ele>
        <time>2024-10-15T06:51:08.000Z</time>
      </trkpt>
      <trkpt lat="45.10868" lon="5.99642">
        <ele>1335.1999511719</ele>
        <time>2024-10-15T06:51:09.000Z</time>
      </trkpt>
      <trkpt lat="45.10868" lon="5.99642">
        <ele>1335.1999511719</ele>
        <time>2024-10-15T06:51:10.000Z</time>
      </trkpt>
      <trkpt lat="45.10868" lon="5.99641">
        <ele>1335.4000244141</ele>
        <time>2024-10-15T06:51:11.000Z</time>
      </trkpt>
      <trkpt lat="45.10868" lon="5.99642">
        <ele>1335.4000244141</ele>
        <time>2024-10-15T06:51:12.000Z</time>
      </trkpt>
      <trkpt lat="45.10867" lon="5.99642">
        <ele>1335.4000244141</ele>
        <time>2024-10-15T06:51:13.000Z</time>
      </trkpt>
      <trkpt lat="45.10867" lon="5.99642">
        <ele>1335.5999755859</ele>
        <time>2024-10-15T06:51:14.000Z</time>
      </trkpt>
      <trkpt lat="45.10867" lon="5.99643">
        <ele>1335.5999755859</ele>
        <time>2024-10-15T06:51:15.000Z</time>
      </trkpt>
      <trkpt lat="45.10867" lon="5.99643">
        <ele>1335.8000488281</ele>
        <time>2024-10-15T06:51:16.000Z</time>
      </trkpt>
      <trkpt lat="45.10867" lon="5.99643">
        <ele>1335.8000488281</ele>
        <time>2024-10-15T06:51:17.000Z</time>
      </trkpt>
      <trkpt lat="45.10868" lon="5.99642">
        <ele>1335.8000488281</ele>
        <time>2024-10-15T06:51:18.000Z</time>
      </trkpt>
      <trkpt lat="45.10869" lon="5.99642">
        <ele>1335.8000488281</ele>
        <time>2024-10-15T06:51:19.000Z</time>
      </trkpt>
      <trkpt lat="45.10869" lon="5.99641">
        <ele>1335.8000488281</ele>
        <time>2024-10-15T06:51:20.000Z</time>
      </trkpt>
      <trkpt lat="45.10869" lon="5.99641">
        <ele>1335.8000488281</ele>
        <time>2024-10-15T06:51:21.000Z</time>
      </trkpt>
      <trkpt lat="45.10868" lon="5.9964">
        <ele>1335.8000488281</ele>
        <time>2024-10-15T06:51:22.000Z</time>
      </trkpt>
      <trkpt lat="45.10868" lon="5.9964">
        <ele>1336</ele>
        <time>2024-10-15T06:51:23.000Z</time>
      </trkpt>
      <trkpt lat="45.10868" lon="5.9964">
        <ele>1336.1999511719</ele>
        <time>2024-10-15T06:51:24.000Z</time>
      </trkpt>
      <trkpt lat="45.1087" lon="5.9964">
        <ele>1336.4000244141</ele>
        <time>2024-10-15T06:51:25.000Z</time>
      </trkpt>
      <trkpt lat="45.1087" lon="5.9964">
        <ele>1336.8000488281</ele>
        <time>2024-10-15T06:51:26.000Z</time>
      </trkpt>
      <trkpt lat="45.1087" lon="5.9964">
        <ele>1337</ele>
        <time>2024-10-15T06:51:27.000Z</time>
      </trkpt>
      <trkpt lat="45.1087" lon="5.9964">
        <ele>1337.1999511719</ele>
        <time>2024-10-15T06:51:28.000Z</time>
      </trkpt>
      <trkpt lat="45.1087" lon="5.9964">
        <ele>1337.4000244141</ele>
        <time>2024-10-15T06:51:29.000Z</time>
      </trkpt>
      <trkpt lat="45.1087" lon="5.9964">
        <ele>1337.4000244141</ele>
        <time>2024-10-15T06:51:30.000Z</time>
      </trkpt>
      <trkpt lat="45.1087" lon="5.9964">
        <ele>1337.4000244141</ele>
        <time>2024-10-15T06:51:31.000Z</time>
      </trkpt>
      <trkpt lat="45.1087" lon="5.9964">
        <ele>1337.8000488281</ele>
        <time>2024-10-15T06:51:32.000Z</time>
      </trkpt>
      <trkpt lat="45.1087" lon="5.9964">
        <ele>1338.1999511719</ele>
        <time>2024-10-15T06:51:33.000Z</time>
      </trkpt>
      <trkpt lat="45.1087" lon="5.99639">
        <ele>1338.1999511719</ele>
        <time>2024-10-15T06:51:34.000Z</time>
      </trkpt>
      <trkpt lat="45.1087" lon="5.99639">
        <ele>1338.1999511719</ele>
        <time>2024-10-15T06:51:35.000Z</time>
      </trkpt>
      <trkpt lat="45.10871" lon="5.99638">
        <ele>1338.4000244141</ele>
        <time>2024-10-15T06:51:36.000Z</time>
      </trkpt>
      <trkpt lat="45.10871" lon="5.99638">
        <ele>1338.5999755859</ele>
        <time>2024-10-15T06:51:37.000Z</time>
      </trkpt>
      <trkpt lat="45.10871" lon="5.99637">
        <ele>1339</ele>
        <time>2024-10-15T06:51:38.000Z</time>
      </trkpt>
      <trkpt lat="45.10871" lon="5.99636">
        <ele>1339.1999511719</ele>
        <time>2024-10-15T06:51:39.000Z</time>
      </trkpt>
      <trkpt lat="45.10872" lon="5.99637">
        <ele>1339.5999755859</ele>
        <time>2024-10-15T06:51:40.000Z</time>
      </trkpt>
      <trkpt lat="45.10873" lon="5.99636">
        <ele>1339.5999755859</ele>
        <time>2024-10-15T06:51:41.000Z</time>
      </trkpt>
      <trkpt lat="45.10873" lon="5.99636">
        <ele>1340</ele>
        <time>2024-10-15T06:51:42.000Z</time>
      </trkpt>
      <trkpt lat="45.10873" lon="5.99636">
        <ele>1340.1999511719</ele>
        <time>2024-10-15T06:51:43.000Z</time>
      </trkpt>
      <trkpt lat="45.10873" lon="5.99635">
        <ele>1340.4000244141</ele>
        <time>2024-10-15T06:51:44.000Z</time>
      </trkpt>
      <trkpt lat="45.10873" lon="5.99635">
        <ele>1340.5999755859</ele>
        <time>2024-10-15T06:51:45.000Z</time>
      </trkpt>
      <trkpt lat="45.10874" lon="5.99635">
        <ele>1340.5999755859</ele>
        <time>2024-10-15T06:51:46.000Z</time>
      </trkpt>
      <trkpt lat="45.10873" lon="5.99635">
        <ele>1340.5999755859</ele>
        <time>2024-10-15T06:51:47.000Z</time>
      </trkpt>
      <trkpt lat="45.10874" lon="5.99635">
        <ele>1340.8000488281</ele>
        <time>2024-10-15T06:51:48.000Z</time>
      </trkpt>
      <trkpt lat="45.10874" lon="5.99635">
        <ele>1341</ele>
        <time>2024-10-15T06:51:49.000Z</time>
      </trkpt>
      <trkpt lat="45.10874" lon="5.99635">
        <ele>1341</ele>
        <time>2024-10-15T06:51:50.000Z</time>
      </trkpt>
      <trkpt lat="45.10874" lon="5.99635">
        <ele>1341.1999511719</ele>
        <time>2024-10-15T06:51:51.000Z</time>
      </trkpt>
      <trkpt lat="45.10874" lon="5.99636">
        <ele>1341.1999511719</ele>
        <time>2024-10-15T06:51:52.000Z</time>
      </trkpt>
      <trkpt lat="45.10874" lon="5.99636">
        <ele>1341.1999511719</ele>
        <time>2024-10-15T06:51:53.000Z</time>
      </trkpt>
      <trkpt lat="45.10874" lon="5.99636">
        <ele>1341.1999511719</ele>
        <time>2024-10-15T06:51:54.000Z</time>
      </trkpt>
      <trkpt lat="45.10874" lon="5.99636">
        <ele>1341.4000244141</ele>
        <time>2024-10-15T06:51:55.000Z</time>
      </trkpt>
      <trkpt lat="45.10874" lon="5.99635">
        <ele>1341.4000244141</ele>
        <time>2024-10-15T06:51:56.000Z</time>
      </trkpt>
      <trkpt lat="45.10873" lon="5.99635">
        <ele>1341.4000244141</ele>
        <time>2024-10-15T06:51:57.000Z</time>
      </trkpt>
      <trkpt lat="45.10873" lon="5.99634">
        <ele>1341.4000244141</ele>
        <time>2024-10-15T06:51:58.000Z</time>
      </trkpt>
      <trkpt lat="45.10873" lon="5.99634">
        <ele>1341.5999755859</ele>
        <time>2024-10-15T06:51:59.000Z</time>
      </trkpt>
      <trkpt lat="45.10874" lon="5.99634">
        <ele>1341.5999755859</ele>
        <time>2024-10-15T06:52:00.000Z</time>
      </trkpt>
      <trkpt lat="45.10874" lon="5.99633">
        <ele>1341.8000488281</ele>
        <time>2024-10-15T06:52:01.000Z</time>
      </trkpt>
      <trkpt lat="45.10874" lon="5.99633">
        <ele>1342</ele>
        <time>2024-10-15T06:52:02.000Z</time>
      </trkpt>
      <trkpt lat="45.10874" lon="5.99633">
        <ele>1342.1999511719</ele>
        <time>2024-10-15T06:52:03.000Z</time>
      </trkpt>
      <trkpt lat="45.10874" lon="5.99633">
        <ele>1342.4000244141</ele>
        <time>2024-10-15T06:52:04.000Z</time>
      </trkpt>
      <trkpt lat="45.10874" lon="5.99633">
        <ele>1342.5999755859</ele>
        <time>2024-10-15T06:52:05.000Z</time>
      </trkpt>
      <trkpt lat="45.10874" lon="5.99633">
        <ele>1342.5999755859</ele>
        <time>2024-10-15T06:52:06.000Z</time>
      </trkpt>
      <trkpt lat="45.10874" lon="5.99633">
        <ele>1342.8000488281</ele>
        <time>2024-10-15T06:52:07.000Z</time>
      </trkpt>
      <trkpt lat="45.10874" lon="5.99633">
        <ele>1343</ele>
        <time>2024-10-15T06:52:08.000Z</time>
      </trkpt>
      <trkpt lat="45.10874" lon="5.99633">
        <ele>1343.4000244141</ele>
        <time>2024-10-15T06:52:09.000Z</time>
      </trkpt>
      <trkpt lat="45.10874" lon="5.99633">
        <ele>1343.5999755859</ele>
        <time>2024-10-15T06:52:10.000Z</time>
      </trkpt>
      <trkpt lat="45.10874" lon="5.99633">
        <ele>1343.5999755859</ele>
        <time>2024-10-15T06:52:11.000Z</time>
      </trkpt>
      <trkpt lat="45.10874" lon="5.99633">
        <ele>1343.5999755859</ele>
        <time>2024-10-15T06:52:12.000Z</time>
      </trkpt>
      <trkpt lat="45.10874" lon="5.99633">
        <ele>1343.8000488281</ele>
        <time>2024-10-15T06:52:13.000Z</time>
      </trkpt>
      <trkpt lat="45.10874" lon="5.99633">
        <ele>1343.8000488281</ele>
        <time>2024-10-15T06:52:14.000Z</time>
      </trkpt>
      <trkpt lat="45.10874" lon="5.99633">
        <ele>1343.8000488281</ele>
        <time>2024-10-15T06:52:15.000Z</time>
      </trkpt>
      <trkpt lat="45.10874" lon="5.99633">
        <ele>1343.8000488281</ele>
        <time>2024-10-15T06:52:16.000Z</time>
      </trkpt>
      <trkpt lat="45.10874" lon="5.99633">
        <ele>1344</ele>
        <time>2024-10-15T06:52:17.000Z</time>
      </trkpt>
      <trkpt lat="45.10874" lon="5.99632">
        <ele>1344</ele>
        <time>2024-10-15T06:52:18.000Z</time>
      </trkpt>
      <trkpt lat="45.10874" lon="5.99632">
        <ele>1344</ele>
        <time>2024-10-15T06:52:19.000Z</time>
      </trkpt>
      <trkpt lat="45.10874" lon="5.99631">
        <ele>1344.1999511719</ele>
        <time>2024-10-15T06:52:20.000Z</time>
      </trkpt>
      <trkpt lat="45.10874" lon="5.99631">
        <ele>1344.4000244141</ele>
        <time>2024-10-15T06:52:21.000Z</time>
      </trkpt>
      <trkpt lat="45.10874" lon="5.99631">
        <ele>1344.5999755859</ele>
        <time>2024-10-15T06:52:22.000Z</time>
      </trkpt>
      <trkpt lat="45.10874" lon="5.9963">
        <ele>1344.5999755859</ele>
        <time>2024-10-15T06:52:23.000Z</time>
      </trkpt>
      <trkpt lat="45.10874" lon="5.9963">
        <ele>1344.5999755859</ele>
        <time>2024-10-15T06:52:24.000Z</time>
      </trkpt>
      <trkpt lat="45.10874" lon="5.9963">
        <ele>1344.8000488281</ele>
        <time>2024-10-15T06:52:25.000Z</time>
      </trkpt>
      <trkpt lat="45.10874" lon="5.9963">
        <ele>1344.8000488281</ele>
        <time>2024-10-15T06:52:26.000Z</time>
      </trkpt>
      <trkpt lat="45.10874" lon="5.9963">
        <ele>1345</ele>
        <time>2024-10-15T06:52:27.000Z</time>
      </trkpt>
      <trkpt lat="45.10874" lon="5.9963">
        <ele>1345.1999511719</ele>
        <time>2024-10-15T06:52:28.000Z</time>
      </trkpt>
      <trkpt lat="45.10874" lon="5.9963">
        <ele>1345.4000244141</ele>
        <time>2024-10-15T06:52:29.000Z</time>
      </trkpt>
      <trkpt lat="45.10873" lon="5.9963">
        <ele>1345.5999755859</ele>
        <time>2024-10-15T06:52:30.000Z</time>
      </trkpt>
      <trkpt lat="45.10873" lon="5.9963">
        <ele>1345.5999755859</ele>
        <time>2024-10-15T06:52:31.000Z</time>
      </trkpt>
      <trkpt lat="45.10873" lon="5.99629">
        <ele>1345.8000488281</ele>
        <time>2024-10-15T06:52:32.000Z</time>
      </trkpt>
      <trkpt lat="45.10873" lon="5.99629">
        <ele>1345.8000488281</ele>
        <time>2024-10-15T06:52:33.000Z</time>
      </trkpt>
      <trkpt lat="45.10873" lon="5.99629">
        <ele>1346</ele>
        <time>2024-10-15T06:52:34.000Z</time>
      </trkpt>
      <trkpt lat="45.10873" lon="5.99629">
        <ele>1346</ele>
        <time>2024-10-15T06:52:35.000Z</time>
      </trkpt>
      <trkpt lat="45.10873" lon="5.99629">
        <ele>1346.4000244141</ele>
        <time>2024-10-15T06:52:36.000Z</time>
      </trkpt>
      <trkpt lat="45.10873" lon="5.99629">
        <ele>1346.5999755859</ele>
        <time>2024-10-15T06:52:37.000Z</time>
      </trkpt>
      <trkpt lat="45.10873" lon="5.99629">
        <ele>1346.5999755859</ele>
        <time>2024-10-15T06:52:38.000Z</time>
      </trkpt>
      <trkpt lat="45.10873" lon="5.99629">
        <ele>1346.8000488281</ele>
        <time>2024-10-15T06:52:39.000Z</time>
      </trkpt>
      <trkpt lat="45.10873" lon="5.99629">
        <ele>1347.1999511719</ele>
        <time>2024-10-15T06:52:40.000Z</time>
      </trkpt>
      <trkpt lat="45.10873" lon="5.99629">
        <ele>1347.4000244141</ele>
        <time>2024-10-15T06:52:41.000Z</time>
      </trkpt>
      <trkpt lat="45.10873" lon="5.99629">
        <ele>1347.5999755859</ele>
        <time>2024-10-15T06:52:42.000Z</time>
      </trkpt>
      <trkpt lat="45.10873" lon="5.99629">
        <ele>1348</ele>
        <time>2024-10-15T06:52:43.000Z</time>
      </trkpt>
      <trkpt lat="45.10873" lon="5.99629">
        <ele>1348.1999511719</ele>
        <time>2024-10-15T06:52:44.000Z</time>
      </trkpt>
      <trkpt lat="45.10873" lon="5.99629">
        <ele>1348.4000244141</ele>
        <time>2024-10-15T06:52:45.000Z</time>
      </trkpt>
      <trkpt lat="45.10873" lon="5.99629">
        <ele>1348.5999755859</ele>
        <time>2024-10-15T06:52:46.000Z</time>
      </trkpt>
      <trkpt lat="45.10872" lon="5.99629">
        <ele>1348.5999755859</ele>
        <time>2024-10-15T06:52:47.000Z</time>
      </trkpt>
      <trkpt lat="45.10872" lon="5.99629">
        <ele>1348.5999755859</ele>
        <time>2024-10-15T06:52:48.000Z</time>
      </trkpt>
      <trkpt lat="45.10872" lon="5.99629">
        <ele>1348.8000488281</ele>
        <time>2024-10-15T06:52:49.000Z</time>
      </trkpt>
      <trkpt lat="45.10872" lon="5.99629">
        <ele>1348.8000488281</ele>
        <time>2024-10-15T06:52:50.000Z</time>
      </trkpt>
      <trkpt lat="45.10872" lon="5.99629">
        <ele>1349</ele>
        <time>2024-10-15T06:52:51.000Z</time>
      </trkpt>
      <trkpt lat="45.10872" lon="5.99629">
        <ele>1349.1999511719</ele>
        <time>2024-10-15T06:52:52.000Z</time>
      </trkpt>
      <trkpt lat="45.10872" lon="5.99629">
        <ele>1349.1999511719</ele>
        <time>2024-10-15T06:52:53.000Z</time>
      </trkpt>
      <trkpt lat="45.10872" lon="5.99629">
        <ele>1349.1999511719</ele>
        <time>2024-10-15T06:52:54.000Z</time>
      </trkpt>
      <trkpt lat="45.10872" lon="5.99629">
        <ele>1349.1999511719</ele>
        <time>2024-10-15T06:52:55.000Z</time>
      </trkpt>
      <trkpt lat="45.10872" lon="5.99628">
        <ele>1349.1999511719</ele>
        <time>2024-10-15T06:52:56.000Z</time>
      </trkpt>
      <trkpt lat="45.10872" lon="5.99628">
        <ele>1349.1999511719</ele>
        <time>2024-10-15T06:52:57.000Z</time>
      </trkpt>
      <trkpt lat="45.10871" lon="5.99628">
        <ele>1349.1999511719</ele>
        <time>2024-10-15T06:52:58.000Z</time>
      </trkpt>
      <trkpt lat="45.10871" lon="5.99628">
        <ele>1349.1999511719</ele>
        <time>2024-10-15T06:52:59.000Z</time>
      </trkpt>
      <trkpt lat="45.10871" lon="5.99628">
        <ele>1349.4000244141</ele>
        <time>2024-10-15T06:53:00.000Z</time>
      </trkpt>
      <trkpt lat="45.1087" lon="5.99628">
        <ele>1349.4000244141</ele>
        <time>2024-10-15T06:53:01.000Z</time>
      </trkpt>
      <trkpt lat="45.1087" lon="5.99628">
        <ele>1349.4000244141</ele>
        <time>2024-10-15T06:53:02.000Z</time>
      </trkpt>
      <trkpt lat="45.1087" lon="5.99628">
        <ele>1349.4000244141</ele>
        <time>2024-10-15T06:53:03.000Z</time>
      </trkpt>
      <trkpt lat="45.1087" lon="5.99628">
        <ele>1349.4000244141</ele>
        <time>2024-10-15T06:53:04.000Z</time>
      </trkpt>
      <trkpt lat="45.1087" lon="5.99628">
        <ele>1349.4000244141</ele>
        <time>2024-10-15T06:53:05.000Z</time>
      </trkpt>
      <trkpt lat="45.1087" lon="5.99628">
        <ele>1349.4000244141</ele>
        <time>2024-10-15T06:53:06.000Z</time>
      </trkpt>
      <trkpt lat="45.1087" lon="5.99628">
        <ele>1349.4000244141</ele>
        <time>2024-10-15T06:53:07.000Z</time>
      </trkpt>
      <trkpt lat="45.1087" lon="5.99628">
        <ele>1349.5999755859</ele>
        <time>2024-10-15T06:53:08.000Z</time>
      </trkpt>
      <trkpt lat="45.1087" lon="5.99628">
        <ele>1349.5999755859</ele>
        <time>2024-10-15T06:53:09.000Z</time>
      </trkpt>
      <trkpt lat="45.1087" lon="5.99628">
        <ele>1349.5999755859</ele>
        <time>2024-10-15T06:53:10.000Z</time>
      </trkpt>
      <trkpt lat="45.1087" lon="5.99628">
        <ele>1349.5999755859</ele>
        <time>2024-10-15T06:53:11.000Z</time>
      </trkpt>
      <trkpt lat="45.1087" lon="5.99628">
        <ele>1349.8000488281</ele>
        <time>2024-10-15T06:53:12.000Z</time>
      </trkpt>
      <trkpt lat="45.1087" lon="5.99628">
        <ele>1349.8000488281</ele>
        <time>2024-10-15T06:53:13.000Z</time>
      </trkpt>
      <trkpt lat="45.1087" lon="5.99628">
        <ele>1349.8000488281</ele>
        <time>2024-10-15T06:53:14.000Z</time>
      </trkpt>
      <trkpt lat="45.1087" lon="5.99628">
        <ele>1349.8000488281</ele>
        <time>2024-10-15T06:53:15.000Z</time>
      </trkpt>
      <trkpt lat="45.1087" lon="5.99628">
        <ele>1349.8000488281</ele>
        <time>2024-10-15T06:53:16.000Z</time>
      </trkpt>
      <trkpt lat="45.1087" lon="5.99628">
        <ele>1349.8000488281</ele>
        <time>2024-10-15T06:53:17.000Z</time>
      </trkpt>
      <trkpt lat="45.1087" lon="5.99628">
        <ele>1349.8000488281</ele>
        <time>2024-10-15T06:53:18.000Z</time>
      </trkpt>
      <trkpt lat="45.1087" lon="5.99628">
        <ele>1349.8000488281</ele>
        <time>2024-10-15T06:53:19.000Z</time>
      </trkpt>
      <trkpt lat="45.1087" lon="5.99628">
        <ele>1350</ele>
        <time>2024-10-15T06:53:20.000Z</time>
      </trkpt>
      <trkpt lat="45.1087" lon="5.99628">
        <ele>1350</ele>
        <time>2024-10-15T06:53:21.000Z</time>
      </trkpt>
      <trkpt lat="45.1087" lon="5.99628">
        <ele>1350</ele>
        <time>2024-10-15T06:53:22.000Z</time>
      </trkpt>
      <trkpt lat="45.1087" lon="5.99628">
        <ele>1350.1999511719</ele>
        <time>2024-10-15T06:53:23.000Z</time>
      </trkpt>
      <trkpt lat="45.1087" lon="5.99628">
        <ele>1350.5999755859</ele>
        <time>2024-10-15T06:53:24.000Z</time>
      </trkpt>
      <trkpt lat="45.1087" lon="5.99628">
        <ele>1351.1999511719</ele>
        <time>2024-10-15T06:53:25.000Z</time>
      </trkpt>
      <trkpt lat="45.1087" lon="5.99628">
        <ele>1351.4000244141</ele>
        <time>2024-10-15T06:53:26.000Z</time>
      </trkpt>
      <trkpt lat="45.1087" lon="5.99628">
        <ele>1351.5999755859</ele>
        <time>2024-10-15T06:53:27.000Z</time>
      </trkpt>
      <trkpt lat="45.1087" lon="5.99628">
        <ele>1352</ele>
        <time>2024-10-15T06:53:28.000Z</time>
      </trkpt>
      <trkpt lat="45.1087" lon="5.99628">
        <ele>1352.1999511719</ele>
        <time>2024-10-15T06:53:29.000Z</time>
      </trkpt>
      <trkpt lat="45.1087" lon="5.99628">
        <ele>1352.1999511719</ele>
        <time>2024-10-15T06:53:30.000Z</time>
      </trkpt>
      <trkpt lat="45.1087" lon="5.99628">
        <ele>1352.4000244141</ele>
        <time>2024-10-15T06:53:31.000Z</time>
      </trkpt>
      <trkpt lat="45.1087" lon="5.99628">
        <ele>1352.5999755859</ele>
        <time>2024-10-15T06:53:32.000Z</time>
      </trkpt>
      <trkpt lat="45.1087" lon="5.99628">
        <ele>1353</ele>
        <time>2024-10-15T06:53:33.000Z</time>
      </trkpt>
      <trkpt lat="45.1087" lon="5.99628">
        <ele>1353</ele>
        <time>2024-10-15T06:53:34.000Z</time>
      </trkpt>
      <trkpt lat="45.1087" lon="5.99628">
        <ele>1353.1999511719</ele>
        <time>2024-10-15T06:53:35.000Z</time>
      </trkpt>
      <trkpt lat="45.1087" lon="5.99628">
        <ele>1353.1999511719</ele>
        <time>2024-10-15T06:53:36.000Z</time>
      </trkpt>
      <trkpt lat="45.1087" lon="5.99627">
        <ele>1353.4000244141</ele>
        <time>2024-10-15T06:53:37.000Z</time>
      </trkpt>
      <trkpt lat="45.1087" lon="5.99627">
        <ele>1353.8000488281</ele>
        <time>2024-10-15T06:53:38.000Z</time>
      </trkpt>
      <trkpt lat="45.1087" lon="5.99626">
        <ele>1353.8000488281</ele>
        <time>2024-10-15T06:53:39.000Z</time>
      </trkpt>
      <trkpt lat="45.1087" lon="5.99626">
        <ele>1354</ele>
        <time>2024-10-15T06:53:40.000Z</time>
      </trkpt>
      <trkpt lat="45.1087" lon="5.99626">
        <ele>1354</ele>
        <time>2024-10-15T06:53:41.000Z</time>
      </trkpt>
      <trkpt lat="45.1087" lon="5.99625">
        <ele>1354.1999511719</ele>
        <time>2024-10-15T06:53:42.000Z</time>
      </trkpt>
      <trkpt lat="45.1087" lon="5.99625">
        <ele>1354.4000244141</ele>
        <time>2024-10-15T06:53:43.000Z</time>
      </trkpt>
      <trkpt lat="45.1087" lon="5.99625">
        <ele>1354.5999755859</ele>
        <time>2024-10-15T06:53:44.000Z</time>
      </trkpt>
      <trkpt lat="45.1087" lon="5.99625">
        <ele>1354.8000488281</ele>
        <time>2024-10-15T06:53:45.000Z</time>
      </trkpt>
      <trkpt lat="45.1087" lon="5.99625">
        <ele>1355</ele>
        <time>2024-10-15T06:53:46.000Z</time>
      </trkpt>
      <trkpt lat="45.1087" lon="5.99625">
        <ele>1355</ele>
        <time>2024-10-15T06:53:47.000Z</time>
      </trkpt>
      <trkpt lat="45.1087" lon="5.99625">
        <ele>1355.1999511719</ele>
        <time>2024-10-15T06:53:48.000Z</time>
      </trkpt>
      <trkpt lat="45.1087" lon="5.99625">
        <ele>1355.4000244141</ele>
        <time>2024-10-15T06:53:49.000Z</time>
      </trkpt>
      <trkpt lat="45.1087" lon="5.99625">
        <ele>1355.5999755859</ele>
        <time>2024-10-15T06:53:50.000Z</time>
      </trkpt>
      <trkpt lat="45.1087" lon="5.99625">
        <ele>1355.8000488281</ele>
        <time>2024-10-15T06:53:51.000Z</time>
      </trkpt>
      <trkpt lat="45.1087" lon="5.99625">
        <ele>1355.8000488281</ele>
        <time>2024-10-15T06:53:52.000Z</time>
      </trkpt>
      <trkpt lat="45.1087" lon="5.99625">
        <ele>1355.8000488281</ele>
        <time>2024-10-15T06:53:53.000Z</time>
      </trkpt>
      <trkpt lat="45.1087" lon="5.99625">
        <ele>1356</ele>
        <time>2024-10-15T06:53:54.000Z</time>
      </trkpt>
      <trkpt lat="45.1087" lon="5.99625">
        <ele>1356</ele>
        <time>2024-10-15T06:53:55.000Z</time>
      </trkpt>
      <trkpt lat="45.1087" lon="5.99625">
        <ele>1356</ele>
        <time>2024-10-15T06:53:56.000Z</time>
      </trkpt>
      <trkpt lat="45.1087" lon="5.99625">
        <ele>1356</ele>
        <time>2024-10-15T06:53:57.000Z</time>
      </trkpt>
      <trkpt lat="45.1087" lon="5.99625">
        <ele>1356</ele>
        <time>2024-10-15T06:53:58.000Z</time>
      </trkpt>
      <trkpt lat="45.1087" lon="5.99625">
        <ele>1356</ele>
        <time>2024-10-15T06:53:59.000Z</time>
      </trkpt>
      <trkpt lat="45.1087" lon="5.99625">
        <ele>1356</ele>
        <time>2024-10-15T06:54:00.000Z</time>
      </trkpt>
      <trkpt lat="45.1087" lon="5.99625">
        <ele>1356</ele>
        <time>2024-10-15T06:54:01.000Z</time>
      </trkpt>
      <trkpt lat="45.1087" lon="5.99626">
        <ele>1356</ele>
        <time>2024-10-15T06:54:02.000Z</time>
      </trkpt>
      <trkpt lat="45.1087" lon="5.99626">
        <ele>1356</ele>
        <time>2024-10-15T06:54:03.000Z</time>
      </trkpt>
      <trkpt lat="45.1087" lon="5.99627">
        <ele>1356</ele>
        <time>2024-10-15T06:54:04.000Z</time>
      </trkpt>
      <trkpt lat="45.1087" lon="5.99627">
        <ele>1356</ele>
        <time>2024-10-15T06:54:05.000Z</time>
      </trkpt>
      <trkpt lat="45.1087" lon="5.99627">
        <ele>1356</ele>
        <time>2024-10-15T06:54:06.000Z</time>
      </trkpt>
      <trkpt lat="45.1087" lon="5.99627">
        <ele>1356</ele>
        <time>2024-10-15T06:54:07.000Z</time>
      </trkpt>
      <trkpt lat="45.1087" lon="5.99628">
        <ele>1356</ele>
        <time>2024-10-15T06:54:08.000Z</time>
      </trkpt>
      <trkpt lat="45.1087" lon="5.99628">
        <ele>1356</ele>
        <time>2024-10-15T06:54:09.000Z</time>
      </trkpt>
      <trkpt lat="45.1087" lon="5.99628">
        <ele>1356</ele>
        <time>2024-10-15T06:54:10.000Z</time>
      </trkpt>
      <trkpt lat="45.1087" lon="5.99628">
        <ele>1356</ele>
        <time>2024-10-15T06:54:11.000Z</time>
      </trkpt>
      <trkpt lat="45.1087" lon="5.99628">
        <ele>1356.1999511719</ele>
        <time>2024-10-15T06:54:12.000Z</time>
      </trkpt>
      <trkpt lat="45.10869" lon="5.99628">
        <ele>1356.4000244141</ele>
        <time>2024-10-15T06:54:13.000Z</time>
      </trkpt>
      <trkpt lat="45.10869" lon="5.99628">
        <ele>1356.4000244141</ele>
        <time>2024-10-15T06:54:14.000Z</time>
      </trkpt>
      <trkpt lat="45.10869" lon="5.99628">
        <ele>1356.8000488281</ele>
        <time>2024-10-15T06:54:15.000Z</time>
      </trkpt>
      <trkpt lat="45.10869" lon="5.99628">
        <ele>1356.8000488281</ele>
        <time>2024-10-15T06:54:16.000Z</time>
      </trkpt>
      <trkpt lat="45.10869" lon="5.99628">
        <ele>1357</ele>
        <time>2024-10-15T06:54:17.000Z</time>
      </trkpt>
      <trkpt lat="45.10868" lon="5.99628">
        <ele>1357</ele>
        <time>2024-10-15T06:54:18.000Z</time>
      </trkpt>
      <trkpt lat="45.10868" lon="5.99628">
        <ele>1357.1999511719</ele>
        <time>2024-10-15T06:54:19.000Z</time>
      </trkpt>
      <trkpt lat="45.10868" lon="5.99628">
        <ele>1357.4000244141</ele>
        <time>2024-10-15T06:54:20.000Z</time>
      </trkpt>
      <trkpt lat="45.10867" lon="5.99628">
        <ele>1357.4000244141</ele>
        <time>2024-10-15T06:54:21.000Z</time>
      </trkpt>
      <trkpt lat="45.10867" lon="5.99628">
        <ele>1357.4000244141</ele>
        <time>2024-10-15T06:54:22.000Z</time>
      </trkpt>
      <trkpt lat="45.10867" lon="5.99628">
        <ele>1357.4000244141</ele>
        <time>2024-10-15T06:54:23.000Z</time>
      </trkpt>
      <trkpt lat="45.10867" lon="5.99628">
        <ele>1357.5999755859</ele>
        <time>2024-10-15T06:54:24.000Z</time>
      </trkpt>
      <trkpt lat="45.10867" lon="5.99628">
        <ele>1357.8000488281</ele>
        <time>2024-10-15T06:54:25.000Z</time>
      </trkpt>
      <trkpt lat="45.10867" lon="5.99628">
        <ele>1358.1999511719</ele>
        <time>2024-10-15T06:54:26.000Z</time>
      </trkpt>
      <trkpt lat="45.10866" lon="5.99628">
        <ele>1358.1999511719</ele>
        <time>2024-10-15T06:54:27.000Z</time>
      </trkpt>
      <trkpt lat="45.10866" lon="5.99628">
        <ele>1358.1999511719</ele>
        <time>2024-10-15T06:54:28.000Z</time>
      </trkpt>
      <trkpt lat="45.10866" lon="5.99628">
        <ele>1358.1999511719</ele>
        <time>2024-10-15T06:54:29.000Z</time>
      </trkpt>
      <trkpt lat="45.10866" lon="5.99628">
        <ele>1358.1999511719</ele>
        <time>2024-10-15T06:54:30.000Z</time>
      </trkpt>
      <trkpt lat="45.10866" lon="5.99628">
        <ele>1358.1999511719</ele>
        <time>2024-10-15T06:54:31.000Z</time>
      </trkpt>
      <trkpt lat="45.10866" lon="5.99628">
        <ele>1358.1999511719</ele>
        <time>2024-10-15T06:54:32.000Z</time>
      </trkpt>
      <trkpt lat="45.10865" lon="5.99628">
        <ele>1358.1999511719</ele>
        <time>2024-10-15T06:54:33.000Z</time>
      </trkpt>
      <trkpt lat="45.10865" lon="5.99628">
        <ele>1358.1999511719</ele>
        <time>2024-10-15T06:54:34.000Z</time>
      </trkpt>
      <trkpt lat="45.10865" lon="5.99628">
        <ele>1358.1999511719</ele>
        <time>2024-10-15T06:54:35.000Z</time>
      </trkpt>
      <trkpt lat="45.10865" lon="5.99628">
        <ele>1358.4000244141</ele>
        <time>2024-10-15T06:54:36.000Z</time>
      </trkpt>
      <trkpt lat="45.10865" lon="5.99628">
        <ele>1358.5999755859</ele>
        <time>2024-10-15T06:54:37.000Z</time>
      </trkpt>
      <trkpt lat="45.10865" lon="5.99628">
        <ele>1358.5999755859</ele>
        <time>2024-10-15T06:54:38.000Z</time>
      </trkpt>
      <trkpt lat="45.10865" lon="5.99628">
        <ele>1358.8000488281</ele>
        <time>2024-10-15T06:54:39.000Z</time>
      </trkpt>
      <trkpt lat="45.10865" lon="5.99628">
        <ele>1358.8000488281</ele>
        <time>2024-10-15T06:54:40.000Z</time>
      </trkpt>
      <trkpt lat="45.10864" lon="5.99628">
        <ele>1359</ele>
        <time>2024-10-15T06:54:41.000Z</time>
      </trkpt>
      <trkpt lat="45.10864" lon="5.99628">
        <ele>1359.1999511719</ele>
        <time>2024-10-15T06:54:42.000Z</time>
      </trkpt>
      <trkpt lat="45.10864" lon="5.99628">
        <ele>1359.4000244141</ele>
        <time>2024-10-15T06:54:43.000Z</time>
      </trkpt>
      <trkpt lat="45.10864" lon="5.99628">
        <ele>1359.5999755859</ele>
        <time>2024-10-15T06:54:44.000Z</time>
      </trkpt>
      <trkpt lat="45.10863" lon="5.99628">
        <ele>1360</ele>
        <time>2024-10-15T06:54:45.000Z</time>
      </trkpt>
      <trkpt lat="45.10863" lon="5.99628">
        <ele>1360.1999511719</ele>
        <time>2024-10-15T06:54:46.000Z</time>
      </trkpt>
      <trkpt lat="45.10863" lon="5.99628">
        <ele>1360.4000244141</ele>
        <time>2024-10-15T06:54:47.000Z</time>
      </trkpt>
      <trkpt lat="45.10863" lon="5.99628">
        <ele>1360.4000244141</ele>
        <time>2024-10-15T06:54:48.000Z</time>
      </trkpt>
      <trkpt lat="45.10863" lon="5.99628">
        <ele>1360.4000244141</ele>
        <time>2024-10-15T06:54:49.000Z</time>
      </trkpt>
      <trkpt lat="45.10862" lon="5.99628">
        <ele>1360.4000244141</ele>
        <time>2024-10-15T06:54:50.000Z</time>
      </trkpt>
      <trkpt lat="45.10862" lon="5.99628">
        <ele>1360.5999755859</ele>
        <time>2024-10-15T06:54:51.000Z</time>
      </trkpt>
      <trkpt lat="45.10862" lon="5.99628">
        <ele>1360.5999755859</ele>
        <time>2024-10-15T06:54:52.000Z</time>
      </trkpt>
      <trkpt lat="45.10862" lon="5.99628">
        <ele>1360.5999755859</ele>
        <time>2024-10-15T06:54:53.000Z</time>
      </trkpt>
      <trkpt lat="45.10861" lon="5.99628">
        <ele>1361</ele>
        <time>2024-10-15T06:54:54.000Z</time>
      </trkpt>
      <trkpt lat="45.10861" lon="5.99628">
        <ele>1361.4000244141</ele>
        <time>2024-10-15T06:54:55.000Z</time>
      </trkpt>
      <trkpt lat="45.10861" lon="5.99628">
        <ele>1361.5999755859</ele>
        <time>2024-10-15T06:54:56.000Z</time>
      </trkpt>
      <trkpt lat="45.10861" lon="5.99628">
        <ele>1361.5999755859</ele>
        <time>2024-10-15T06:54:57.000Z</time>
      </trkpt>
      <trkpt lat="45.10861" lon="5.99628">
        <ele>1361.5999755859</ele>
        <time>2024-10-15T06:54:58.000Z</time>
      </trkpt>
      <trkpt lat="45.1086" lon="5.99628">
        <ele>1361.8000488281</ele>
        <time>2024-10-15T06:54:59.000Z</time>
      </trkpt>
      <trkpt lat="45.1086" lon="5.99628">
        <ele>1362</ele>
        <time>2024-10-15T06:55:00.000Z</time>
      </trkpt>
      <trkpt lat="45.1086" lon="5.99628">
        <ele>1362.4000244141</ele>
        <time>2024-10-15T06:55:01.000Z</time>
      </trkpt>
      <trkpt lat="45.1086" lon="5.99628">
        <ele>1362.5999755859</ele>
        <time>2024-10-15T06:55:02.000Z</time>
      </trkpt>
      <trkpt lat="45.1086" lon="5.99628">
        <ele>1362.5999755859</ele>
        <time>2024-10-15T06:55:03.000Z</time>
      </trkpt>
      <trkpt lat="45.1086" lon="5.99628">
        <ele>1362.8000488281</ele>
        <time>2024-10-15T06:55:04.000Z</time>
      </trkpt>
      <trkpt lat="45.1086" lon="5.99628">
        <ele>1362.8000488281</ele>
        <time>2024-10-15T06:55:05.000Z</time>
      </trkpt>
      <trkpt lat="45.10859" lon="5.99628">
        <ele>1362.8000488281</ele>
        <time>2024-10-15T06:55:06.000Z</time>
      </trkpt>
      <trkpt lat="45.10859" lon="5.99628">
        <ele>1363</ele>
        <time>2024-10-15T06:55:07.000Z</time>
      </trkpt>
      <trkpt lat="45.10859" lon="5.99627">
        <ele>1363.4000244141</ele>
        <time>2024-10-15T06:55:08.000Z</time>
      </trkpt>
      <trkpt lat="45.10859" lon="5.99627">
        <ele>1363.8000488281</ele>
        <time>2024-10-15T06:55:09.000Z</time>
      </trkpt>
      <trkpt lat="45.10859" lon="5.99627">
        <ele>1363.8000488281</ele>
        <time>2024-10-15T06:55:10.000Z</time>
      </trkpt>
      <trkpt lat="45.10859" lon="5.99627">
        <ele>1363.8000488281</ele>
        <time>2024-10-15T06:55:11.000Z</time>
      </trkpt>
      <trkpt lat="45.10859" lon="5.99627">
        <ele>1364.1999511719</ele>
        <time>2024-10-15T06:55:12.000Z</time>
      </trkpt>
      <trkpt lat="45.10859" lon="5.99627">
        <ele>1364.1999511719</ele>
        <time>2024-10-15T06:55:13.000Z</time>
      </trkpt>
      <trkpt lat="45.10859" lon="5.99627">
        <ele>1364.4000244141</ele>
        <time>2024-10-15T06:55:14.000Z</time>
      </trkpt>
      <trkpt lat="45.10859" lon="5.99626">
        <ele>1364.4000244141</ele>
        <time>2024-10-15T06:55:15.000Z</time>
      </trkpt>
      <trkpt lat="45.10859" lon="5.99626">
        <ele>1364.4000244141</ele>
        <time>2024-10-15T06:55:16.000Z</time>
      </trkpt>
      <trkpt lat="45.10859" lon="5.99626">
        <ele>1364.4000244141</ele>
        <time>2024-10-15T06:55:17.000Z</time>
      </trkpt>
      <trkpt lat="45.10859" lon="5.99626">
        <ele>1364.4000244141</ele>
        <time>2024-10-15T06:55:18.000Z</time>
      </trkpt>
      <trkpt lat="45.10859" lon="5.99626">
        <ele>1364.5999755859</ele>
        <time>2024-10-15T06:55:19.000Z</time>
      </trkpt>
      <trkpt lat="45.10859" lon="5.99626">
        <ele>1365</ele>
        <time>2024-10-15T06:55:20.000Z</time>
      </trkpt>
      <trkpt lat="45.10859" lon="5.99626">
        <ele>1365.1999511719</ele>
        <time>2024-10-15T06:55:21.000Z</time>
      </trkpt>
      <trkpt lat="45.10859" lon="5.99626">
        <ele>1365.4000244141</ele>
        <time>2024-10-15T06:55:22.000Z</time>
      </trkpt>
      <trkpt lat="45.10859" lon="5.99626">
        <ele>1365.5999755859</ele>
        <time>2024-10-15T06:55:23.000Z</time>
      </trkpt>
      <trkpt lat="45.10859" lon="5.99626">
        <ele>1365.5999755859</ele>
        <time>2024-10-15T06:55:24.000Z</time>
      </trkpt>
      <trkpt lat="45.10859" lon="5.99626">
        <ele>1366</ele>
        <time>2024-10-15T06:55:25.000Z</time>
      </trkpt>
      <trkpt lat="45.10859" lon="5.99626">
        <ele>1366.1999511719</ele>
        <time>2024-10-15T06:55:26.000Z</time>
      </trkpt>
      <trkpt lat="45.10859" lon="5.99626">
        <ele>1366.4000244141</ele>
        <time>2024-10-15T06:55:27.000Z</time>
      </trkpt>
      <trkpt lat="45.10859" lon="5.99626">
        <ele>1366.4000244141</ele>
        <time>2024-10-15T06:55:28.000Z</time>
      </trkpt>
      <trkpt lat="45.10859" lon="5.99626">
        <ele>1366.8000488281</ele>
        <time>2024-10-15T06:55:29.000Z</time>
      </trkpt>
      <trkpt lat="45.10859" lon="5.99626">
        <ele>1366.8000488281</ele>
        <time>2024-10-15T06:55:30.000Z</time>
      </trkpt>
      <trkpt lat="45.10859" lon="5.99626">
        <ele>1366.8000488281</ele>
        <time>2024-10-15T06:55:31.000Z</time>
      </trkpt>
      <trkpt lat="45.10859" lon="5.99626">
        <ele>1367</ele>
        <time>2024-10-15T06:55:32.000Z</time>
      </trkpt>
      <trkpt lat="45.10859" lon="5.99626">
        <ele>1367</ele>
        <time>2024-10-15T06:55:33.000Z</time>
      </trkpt>
      <trkpt lat="45.10859" lon="5.99626">
        <ele>1367</ele>
        <time>2024-10-15T06:55:34.000Z</time>
      </trkpt>
      <trkpt lat="45.10859" lon="5.99626">
        <ele>1367</ele>
        <time>2024-10-15T06:55:35.000Z</time>
      </trkpt>
      <trkpt lat="45.10859" lon="5.99626">
        <ele>1367</ele>
        <time>2024-10-15T06:55:36.000Z</time>
      </trkpt>
      <trkpt lat="45.10859" lon="5.99626">
        <ele>1367.1999511719</ele>
        <time>2024-10-15T06:55:37.000Z</time>
      </trkpt>
      <trkpt lat="45.10859" lon="5.99626">
        <ele>1367.1999511719</ele>
        <time>2024-10-15T06:55:38.000Z</time>
      </trkpt>
      <trkpt lat="45.10859" lon="5.99626">
        <ele>1367.1999511719</ele>
        <time>2024-10-15T06:55:39.000Z</time>
      </trkpt>
      <trkpt lat="45.10859" lon="5.99626">
        <ele>1367.1999511719</ele>
        <time>2024-10-15T06:55:40.000Z</time>
      </trkpt>
      <trkpt lat="45.10859" lon="5.99626">
        <ele>1367.1999511719</ele>
        <time>2024-10-15T06:55:41.000Z</time>
      </trkpt>
      <trkpt lat="45.10859" lon="5.99626">
        <ele>1367.1999511719</ele>
        <time>2024-10-15T06:55:42.000Z</time>
      </trkpt>
      <trkpt lat="45.10859" lon="5.99626">
        <ele>1367.4000244141</ele>
        <time>2024-10-15T06:55:43.000Z</time>
      </trkpt>
      <trkpt lat="45.10859" lon="5.99626">
        <ele>1367.5999755859</ele>
        <time>2024-10-15T06:55:44.000Z</time>
      </trkpt>
      <trkpt lat="45.10859" lon="5.99626">
        <ele>1367.8000488281</ele>
        <time>2024-10-15T06:55:45.000Z</time>
      </trkpt>
      <trkpt lat="45.10859" lon="5.99626">
        <ele>1368</ele>
        <time>2024-10-15T06:55:46.000Z</time>
      </trkpt>
      <trkpt lat="45.10859" lon="5.99626">
        <ele>1368.4000244141</ele>
        <time>2024-10-15T06:55:47.000Z</time>
      </trkpt>
      <trkpt lat="45.10859" lon="5.99626">
        <ele>1368.5999755859</ele>
        <time>2024-10-15T06:55:48.000Z</time>
      </trkpt>
      <trkpt lat="45.10859" lon="5.99626">
        <ele>1368.8000488281</ele>
        <time>2024-10-15T06:55:49.000Z</time>
      </trkpt>
      <trkpt lat="45.10859" lon="5.99626">
        <ele>1368.8000488281</ele>
        <time>2024-10-15T06:55:50.000Z</time>
      </trkpt>
      <trkpt lat="45.10859" lon="5.99626">
        <ele>1368.8000488281</ele>
        <time>2024-10-15T06:55:51.000Z</time>
      </trkpt>
      <trkpt lat="45.10859" lon="5.99626">
        <ele>1369</ele>
        <time>2024-10-15T06:55:52.000Z</time>
      </trkpt>
      <trkpt lat="45.10859" lon="5.99626">
        <ele>1369.4000244141</ele>
        <time>2024-10-15T06:55:53.000Z</time>
      </trkpt>
      <trkpt lat="45.10858" lon="5.99625">
        <ele>1369.5999755859</ele>
        <time>2024-10-15T06:55:54.000Z</time>
      </trkpt>
      <trkpt lat="45.10858" lon="5.99625">
        <ele>1369.8000488281</ele>
        <time>2024-10-15T06:55:55.000Z</time>
      </trkpt>
      <trkpt lat="45.10858" lon="5.99625">
        <ele>1370</ele>
        <time>2024-10-15T06:55:56.000Z</time>
      </trkpt>
      <trkpt lat="45.10858" lon="5.99625">
        <ele>1370.1999511719</ele>
        <time>2024-10-15T06:55:57.000Z</time>
      </trkpt>
      <trkpt lat="45.10858" lon="5.99625">
        <ele>1370.1999511719</ele>
        <time>2024-10-15T06:55:58.000Z</time>
      </trkpt>
      <trkpt lat="45.10858" lon="5.99625">
        <ele>1370.4000244141</ele>
        <time>2024-10-15T06:55:59.000Z</time>
      </trkpt>
      <trkpt lat="45.10858" lon="5.99625">
        <ele>1370.4000244141</ele>
        <time>2024-10-15T06:56:00.000Z</time>
      </trkpt>
      <trkpt lat="45.10858" lon="5.99625">
        <ele>1370.5999755859</ele>
        <time>2024-10-15T06:56:01.000Z</time>
      </trkpt>
      <trkpt lat="45.10858" lon="5.99625">
        <ele>1370.8000488281</ele>
        <time>2024-10-15T06:56:02.000Z</time>
      </trkpt>
      <trkpt lat="45.10858" lon="5.99625">
        <ele>1371</ele>
        <time>2024-10-15T06:56:03.000Z</time>
      </trkpt>
      <trkpt lat="45.10858" lon="5.99625">
        <ele>1371.1999511719</ele>
        <time>2024-10-15T06:56:04.000Z</time>
      </trkpt>
      <trkpt lat="45.10858" lon="5.99625">
        <ele>1371.1999511719</ele>
        <time>2024-10-15T06:56:05.000Z</time>
      </trkpt>
      <trkpt lat="45.10858" lon="5.99625">
        <ele>1371.4000244141</ele>
        <time>2024-10-15T06:56:06.000Z</time>
      </trkpt>
      <trkpt lat="45.10858" lon="5.99625">
        <ele>1371.5999755859</ele>
        <time>2024-10-15T06:56:07.000Z</time>
      </trkpt>
      <trkpt lat="45.10858" lon="5.99625">
        <ele>1371.5999755859</ele>
        <time>2024-10-15T06:56:08.000Z</time>
      </trkpt>
      <trkpt lat="45.10858" lon="5.99625">
        <ele>1371.8000488281</ele>
        <time>2024-10-15T06:56:09.000Z</time>
      </trkpt>
      <trkpt lat="45.10858" lon="5.99625">
        <ele>1371.8000488281</ele>
        <time>2024-10-15T06:56:10.000Z</time>
      </trkpt>
      <trkpt lat="45.10858" lon="5.99625">
        <ele>1371.8000488281</ele>
        <time>2024-10-15T06:56:11.000Z</time>
      </trkpt>
      <trkpt lat="45.10858" lon="5.99625">
        <ele>1372</ele>
        <time>2024-10-15T06:56:12.000Z</time>
      </trkpt>
      <trkpt lat="45.10858" lon="5.99625">
        <ele>1372.1999511719</ele>
        <time>2024-10-15T06:56:13.000Z</time>
      </trkpt>
      <trkpt lat="45.10858" lon="5.99625">
        <ele>1372.4000244141</ele>
        <time>2024-10-15T06:56:14.000Z</time>
      </trkpt>
      <trkpt lat="45.10858" lon="5.99625">
        <ele>1372.4000244141</ele>
        <time>2024-10-15T06:56:15.000Z</time>
      </trkpt>
      <trkpt lat="45.10858" lon="5.99625">
        <ele>1372.5999755859</ele>
        <time>2024-10-15T06:56:16.000Z</time>
      </trkpt>
      <trkpt lat="45.10858" lon="5.99625">
        <ele>1372.8000488281</ele>
        <time>2024-10-15T06:56:17.000Z</time>
      </trkpt>
      <trkpt lat="45.10858" lon="5.99625">
        <ele>1372.8000488281</ele>
        <time>2024-10-15T06:56:18.000Z</time>
      </trkpt>
      <trkpt lat="45.10858" lon="5.99625">
        <ele>1373</ele>
        <time>2024-10-15T06:56:19.000Z</time>
      </trkpt>
      <trkpt lat="45.10858" lon="5.99625">
        <ele>1373.1999511719</ele>
        <time>2024-10-15T06:56:20.000Z</time>
      </trkpt>
      <trkpt lat="45.10858" lon="5.99625">
        <ele>1373.4000244141</ele>
        <time>2024-10-15T06:56:21.000Z</time>
      </trkpt>
      <trkpt lat="45.10858" lon="5.99625">
        <ele>1373.5999755859</ele>
        <time>2024-10-15T06:56:22.000Z</time>
      </trkpt>
      <trkpt lat="45.10858" lon="5.99625">
        <ele>1373.5999755859</ele>
        <time>2024-10-15T06:56:23.000Z</time>
      </trkpt>
      <trkpt lat="45.10858" lon="5.99625">
        <ele>1373.8000488281</ele>
        <time>2024-10-15T06:56:24.000Z</time>
      </trkpt>
      <trkpt lat="45.10858" lon="5.99625">
        <ele>1373.8000488281</ele>
        <time>2024-10-15T06:56:25.000Z</time>
      </trkpt>
      <trkpt lat="45.10858" lon="5.99625">
        <ele>1374</ele>
        <time>2024-10-15T06:56:26.000Z</time>
      </trkpt>
      <trkpt lat="45.10858" lon="5.99625">
        <ele>1374.1999511719</ele>
        <time>2024-10-15T06:56:27.000Z</time>
      </trkpt>
      <trkpt lat="45.10858" lon="5.99625">
        <ele>1374.4000244141</ele>
        <time>2024-10-15T06:56:28.000Z</time>
      </trkpt>
      <trkpt lat="45.10858" lon="5.99625">
        <ele>1374.8000488281</ele>
        <time>2024-10-15T06:56:29.000Z</time>
      </trkpt>
      <trkpt lat="45.10858" lon="5.99625">
        <ele>1375</ele>
        <time>2024-10-15T06:56:30.000Z</time>
      </trkpt>
      <trkpt lat="45.10858" lon="5.99625">
        <ele>1375.1999511719</ele>
        <time>2024-10-15T06:56:31.000Z</time>
      </trkpt>
      <trkpt lat="45.10858" lon="5.99625">
        <ele>1375.4000244141</ele>
        <time>2024-10-15T06:56:32.000Z</time>
      </trkpt>
      <trkpt lat="45.10858" lon="5.99625">
        <ele>1375.8000488281</ele>
        <time>2024-10-15T06:56:33.000Z</time>
      </trkpt>
      <trkpt lat="45.10858" lon="5.99625">
        <ele>1376</ele>
        <time>2024-10-15T06:56:34.000Z</time>
      </trkpt>
      <trkpt lat="45.10858" lon="5.99625">
        <ele>1376.1999511719</ele>
        <time>2024-10-15T06:56:35.000Z</time>
      </trkpt>
      <trkpt lat="45.10858" lon="5.99625">
        <ele>1376.4000244141</ele>
        <time>2024-10-15T06:56:36.000Z</time>
      </trkpt>
      <trkpt lat="45.10858" lon="5.99625">
        <ele>1376.5999755859</ele>
        <time>2024-10-15T06:56:37.000Z</time>
      </trkpt>
      <trkpt lat="45.10857" lon="5.99625">
        <ele>1376.5999755859</ele>
        <time>2024-10-15T06:56:38.000Z</time>
      </trkpt>
      <trkpt lat="45.10857" lon="5.99625">
        <ele>1376.8000488281</ele>
        <time>2024-10-15T06:56:39.000Z</time>
      </trkpt>
      <trkpt lat="45.10857" lon="5.99625">
        <ele>1377</ele>
        <time>2024-10-15T06:56:40.000Z</time>
      </trkpt>
      <trkpt lat="45.10857" lon="5.99625">
        <ele>1377</ele>
        <time>2024-10-15T06:56:41.000Z</time>
      </trkpt>
      <trkpt lat="45.10857" lon="5.99625">
        <ele>1377.4000244141</ele>
        <time>2024-10-15T06:56:42.000Z</time>
      </trkpt>
      <trkpt lat="45.10857" lon="5.99625">
        <ele>1377.5999755859</ele>
        <time>2024-10-15T06:56:43.000Z</time>
      </trkpt>
      <trkpt lat="45.10857" lon="5.99625">
        <ele>1377.8000488281</ele>
        <time>2024-10-15T06:56:44.000Z</time>
      </trkpt>
      <trkpt lat="45.10857" lon="5.99625">
        <ele>1378</ele>
        <time>2024-10-15T06:56:45.000Z</time>
      </trkpt>
      <trkpt lat="45.10857" lon="5.99625">
        <ele>1378</ele>
        <time>2024-10-15T06:56:46.000Z</time>
      </trkpt>
      <trkpt lat="45.10857" lon="5.99625">
        <ele>1378</ele>
        <time>2024-10-15T06:56:47.000Z</time>
      </trkpt>
      <trkpt lat="45.10857" lon="5.99625">
        <ele>1378</ele>
        <time>2024-10-15T06:56:48.000Z</time>
      </trkpt>
      <trkpt lat="45.10857" lon="5.99625">
        <ele>1378.1999511719</ele>
        <time>2024-10-15T06:56:49.000Z</time>
      </trkpt>
      <trkpt lat="45.10857" lon="5.99625">
        <ele>1378.1999511719</ele>
        <time>2024-10-15T06:56:50.000Z</time>
      </trkpt>
      <trkpt lat="45.10857" lon="5.99625">
        <ele>1378.1999511719</ele>
        <time>2024-10-15T06:56:51.000Z</time>
      </trkpt>
      <trkpt lat="45.10857" lon="5.99625">
        <ele>1378.1999511719</ele>
        <time>2024-10-15T06:56:52.000Z</time>
      </trkpt>
      <trkpt lat="45.10857" lon="5.99625">
        <ele>1378.1999511719</ele>
        <time>2024-10-15T06:56:53.000Z</time>
      </trkpt>
      <trkpt lat="45.10857" lon="5.99625">
        <ele>1378.1999511719</ele>
        <time>2024-10-15T06:56:54.000Z</time>
      </trkpt>
      <trkpt lat="45.10857" lon="5.99625">
        <ele>1378.1999511719</ele>
        <time>2024-10-15T06:56:55.000Z</time>
      </trkpt>
      <trkpt lat="45.10857" lon="5.99625">
        <ele>1378.4000244141</ele>
        <time>2024-10-15T06:56:56.000Z</time>
      </trkpt>
      <trkpt lat="45.10857" lon="5.99625">
        <ele>1378.5999755859</ele>
        <time>2024-10-15T06:56:57.000Z</time>
      </trkpt>
      <trkpt lat="45.10857" lon="5.99625">
        <ele>1378.5999755859</ele>
        <time>2024-10-15T06:56:58.000Z</time>
      </trkpt>
      <trkpt lat="45.10857" lon="5.99625">
        <ele>1378.5999755859</ele>
        <time>2024-10-15T06:56:59.000Z</time>
      </trkpt>
      <trkpt lat="45.10857" lon="5.99625">
        <ele>1378.8000488281</ele>
        <time>2024-10-15T06:57:00.000Z</time>
      </trkpt>
      <trkpt lat="45.10857" lon="5.99625">
        <ele>1379</ele>
        <time>2024-10-15T06:57:01.000Z</time>
      </trkpt>
      <trkpt lat="45.10856" lon="5.99625">
        <ele>1379.1999511719</ele>
        <time>2024-10-15T06:57:02.000Z</time>
      </trkpt>
      <trkpt lat="45.10856" lon="5.99625">
        <ele>1379.4000244141</ele>
        <time>2024-10-15T06:57:03.000Z</time>
      </trkpt>
      <trkpt lat="45.10856" lon="5.99625">
        <ele>1379.4000244141</ele>
        <time>2024-10-15T06:57:04.000Z</time>
      </trkpt>
      <trkpt lat="45.10856" lon="5.99625">
        <ele>1379.5999755859</ele>
        <time>2024-10-15T06:57:05.000Z</time>
      </trkpt>
      <trkpt lat="45.10856" lon="5.99625">
        <ele>1379.5999755859</ele>
        <time>2024-10-15T06:57:06.000Z</time>
      </trkpt>
      <trkpt lat="45.10856" lon="5.99625">
        <ele>1379.5999755859</ele>
        <time>2024-10-15T06:57:07.000Z</time>
      </trkpt>
      <trkpt lat="45.10856" lon="5.99625">
        <ele>1379.5999755859</ele>
        <time>2024-10-15T06:57:08.000Z</time>
      </trkpt>
      <trkpt lat="45.10856" lon="5.99625">
        <ele>1380</ele>
        <time>2024-10-15T06:57:09.000Z</time>
      </trkpt>
      <trkpt lat="45.10856" lon="5.99625">
        <ele>1380.4000244141</ele>
        <time>2024-10-15T06:57:10.000Z</time>
      </trkpt>
      <trkpt lat="45.10856" lon="5.99625">
        <ele>1380.4000244141</ele>
        <time>2024-10-15T06:57:11.000Z</time>
      </trkpt>
      <trkpt lat="45.10856" lon="5.99625">
        <ele>1380.5999755859</ele>
        <time>2024-10-15T06:57:12.000Z</time>
      </trkpt>
      <trkpt lat="45.10856" lon="5.99625">
        <ele>1380.8000488281</ele>
        <time>2024-10-15T06:57:13.000Z</time>
      </trkpt>
      <trkpt lat="45.10856" lon="5.99625">
        <ele>1380.8000488281</ele>
        <time>2024-10-15T06:57:14.000Z</time>
      </trkpt>
      <trkpt lat="45.10856" lon="5.99625">
        <ele>1380.8000488281</ele>
        <time>2024-10-15T06:57:15.000Z</time>
      </trkpt>
      <trkpt lat="45.10856" lon="5.99625">
        <ele>1380.8000488281</ele>
        <time>2024-10-15T06:57:16.000Z</time>
      </trkpt>
      <trkpt lat="45.10856" lon="5.99625">
        <ele>1381</ele>
        <time>2024-10-15T06:57:17.000Z</time>
      </trkpt>
      <trkpt lat="45.10856" lon="5.99625">
        <ele>1381.4000244141</ele>
        <time>2024-10-15T06:57:18.000Z</time>
      </trkpt>
      <trkpt lat="45.10856" lon="5.99625">
        <ele>1381.4000244141</ele>
        <time>2024-10-15T06:57:19.000Z</time>
      </trkpt>
      <trkpt lat="45.10856" lon="5.99625">
        <ele>1381.5999755859</ele>
        <time>2024-10-15T06:57:20.000Z</time>
      </trkpt>
      <trkpt lat="45.10856" lon="5.99625">
        <ele>1381.5999755859</ele>
        <time>2024-10-15T06:57:21.000Z</time>
      </trkpt>
      <trkpt lat="45.10856" lon="5.99625">
        <ele>1382</ele>
        <time>2024-10-15T06:57:22.000Z</time>
      </trkpt>
      <trkpt lat="45.10856" lon="5.99625">
        <ele>1382.4000244141</ele>
        <time>2024-10-15T06:57:23.000Z</time>
      </trkpt>
      <trkpt lat="45.10856" lon="5.99625">
        <ele>1382.5999755859</ele>
        <time>2024-10-15T06:57:24.000Z</time>
      </trkpt>
      <trkpt lat="45.10855" lon="5.99625">
        <ele>1382.8000488281</ele>
        <time>2024-10-15T06:57:25.000Z</time>
      </trkpt>
      <trkpt lat="45.10855" lon="5.99625">
        <ele>1382.8000488281</ele>
        <time>2024-10-15T06:57:26.000Z</time>
      </trkpt>
      <trkpt lat="45.10855" lon="5.99625">
        <ele>1383.1999511719</ele>
        <time>2024-10-15T06:57:27.000Z</time>
      </trkpt>
      <trkpt lat="45.10855" lon="5.99625">
        <ele>1383.4000244141</ele>
        <time>2024-10-15T06:57:28.000Z</time>
      </trkpt>
      <trkpt lat="45.10855" lon="5.99625">
        <ele>1383.8000488281</ele>
        <time>2024-10-15T06:57:29.000Z</time>
      </trkpt>
      <trkpt lat="45.10855" lon="5.99625">
        <ele>1383.8000488281</ele>
        <time>2024-10-15T06:57:30.000Z</time>
      </trkpt>
      <trkpt lat="45.10855" lon="5.99625">
        <ele>1383.8000488281</ele>
        <time>2024-10-15T06:57:31.000Z</time>
      </trkpt>
      <trkpt lat="45.10855" lon="5.99625">
        <ele>1383.8000488281</ele>
        <time>2024-10-15T06:57:32.000Z</time>
      </trkpt>
      <trkpt lat="45.10855" lon="5.99625">
        <ele>1383.8000488281</ele>
        <time>2024-10-15T06:57:33.000Z</time>
      </trkpt>
      <trkpt lat="45.10855" lon="5.99625">
        <ele>1383.8000488281</ele>
        <time>2024-10-15T06:57:34.000Z</time>
      </trkpt>
      <trkpt lat="45.10855" lon="5.99625">
        <ele>1384</ele>
        <time>2024-10-15T06:57:35.000Z</time>
      </trkpt>
      <trkpt lat="45.10855" lon="5.99625">
        <ele>1384</ele>
        <time>2024-10-15T06:57:36.000Z</time>
      </trkpt>
      <trkpt lat="45.10855" lon="5.99625">
        <ele>1384</ele>
        <time>2024-10-15T06:57:37.000Z</time>
      </trkpt>
      <trkpt lat="45.10855" lon="5.99625">
        <ele>1384</ele>
        <time>2024-10-15T06:57:38.000Z</time>
      </trkpt>
      <trkpt lat="45.10855" lon="5.99625">
        <ele>1384.1999511719</ele>
        <time>2024-10-15T06:57:39.000Z</time>
      </trkpt>
      <trkpt lat="45.10855" lon="5.99625">
        <ele>1384.1999511719</ele>
        <time>2024-10-15T06:57:40.000Z</time>
      </trkpt>
      <trkpt lat="45.10855" lon="5.99625">
        <ele>1384.1999511719</ele>
        <time>2024-10-15T06:57:41.000Z</time>
      </trkpt>
      <trkpt lat="45.10855" lon="5.99625">
        <ele>1384.1999511719</ele>
        <time>2024-10-15T06:57:42.000Z</time>
      </trkpt>
      <trkpt lat="45.10855" lon="5.99624">
        <ele>1384.4000244141</ele>
        <time>2024-10-15T06:57:43.000Z</time>
      </trkpt>
      <trkpt lat="45.10855" lon="5.99624">
        <ele>1384.4000244141</ele>
        <time>2024-10-15T06:57:44.000Z</time>
      </trkpt>
      <trkpt lat="45.10855" lon="5.99624">
        <ele>1384.4000244141</ele>
        <time>2024-10-15T06:57:45.000Z</time>
      </trkpt>
      <trkpt lat="45.10854" lon="5.99624">
        <ele>1384.8000488281</ele>
        <time>2024-10-15T06:57:46.000Z</time>
      </trkpt>
      <trkpt lat="45.10854" lon="5.99624">
        <ele>1385</ele>
        <time>2024-10-15T06:57:47.000Z</time>
      </trkpt>
      <trkpt lat="45.10854" lon="5.99624">
        <ele>1385</ele>
        <time>2024-10-15T06:57:48.000Z</time>
      </trkpt>
      <trkpt lat="45.10854" lon="5.99624">
        <ele>1385</ele>
        <time>2024-10-15T06:57:49.000Z</time>
      </trkpt>
      <trkpt lat="45.10854" lon="5.99624">
        <ele>1385</ele>
        <time>2024-10-15T06:57:50.000Z</time>
      </trkpt>
      <trkpt lat="45.10854" lon="5.99624">
        <ele>1385</ele>
        <time>2024-10-15T06:57:51.000Z</time>
      </trkpt>
      <trkpt lat="45.10854" lon="5.99624">
        <ele>1385</ele>
        <time>2024-10-15T06:57:52.000Z</time>
      </trkpt>
      <trkpt lat="45.10854" lon="5.99624">
        <ele>1385</ele>
        <time>2024-10-15T06:57:53.000Z</time>
      </trkpt>
      <trkpt lat="45.1085" lon="5.99621">
        <ele>1385.1999511719</ele>
        <time>2024-10-15T06:57:54.000Z</time>
      </trkpt>
      <trkpt lat="45.10846" lon="5.99617">
        <ele>1385.1999511719</ele>
        <time>2024-10-15T06:57:55.000Z</time>
      </trkpt>
      <trkpt lat="45.10842" lon="5.99613">
        <ele>1385.4000244141</ele>
        <time>2024-10-15T06:57:56.000Z</time>
      </trkpt>
      <trkpt lat="45.10838" lon="5.99609">
        <ele>1385.4000244141</ele>
        <time>2024-10-15T06:57:57.000Z</time>
      </trkpt>
      <trkpt lat="45.10833" lon="5.99604">
        <ele>1385.4000244141</ele>
        <time>2024-10-15T06:57:58.000Z</time>
      </trkpt>
      <trkpt lat="45.10828" lon="5.99601">
        <ele>1385.5999755859</ele>
        <time>2024-10-15T06:57:59.000Z</time>
      </trkpt>
      <trkpt lat="45.10824" lon="5.99597">
        <ele>1385.5999755859</ele>
        <time>2024-10-15T06:58:00.000Z</time>
      </trkpt>
      <trkpt lat="45.1082" lon="5.99593">
        <ele>1385.8000488281</ele>
        <time>2024-10-15T06:58:01.000Z</time>
      </trkpt>
      <trkpt lat="45.10816" lon="5.9959">
        <ele>1386.1999511719</ele>
        <time>2024-10-15T06:58:02.000Z</time>
      </trkpt>
      <trkpt lat="45.10812" lon="5.99586">
        <ele>1386.4000244141</ele>
        <time>2024-10-15T06:58:03.000Z</time>
      </trkpt>
      <trkpt lat="45.10811" lon="5.99585">
        <ele>1386.5999755859</ele>
        <time>2024-10-15T06:58:04.000Z</time>
      </trkpt>
      <trkpt lat="45.10811" lon="5.99584">
        <ele>1386.8000488281</ele>
        <time>2024-10-15T06:58:05.000Z</time>
      </trkpt>
      <trkpt lat="45.10811" lon="5.99584">
        <ele>1386.8000488281</ele>
        <time>2024-10-15T06:58:06.000Z</time>
      </trkpt>
      <trkpt lat="45.1081" lon="5.99583">
        <ele>1387</ele>
        <time>2024-10-15T06:58:07.000Z</time>
      </trkpt>
      <trkpt lat="45.1081" lon="5.99582">
        <ele>1387.1999511719</ele>
        <time>2024-10-15T06:58:08.000Z</time>
      </trkpt>
      <trkpt lat="45.1081" lon="5.99582">
        <ele>1387.4000244141</ele>
        <time>2024-10-15T06:58:09.000Z</time>
      </trkpt>
      <trkpt lat="45.1081" lon="5.99581">
        <ele>1387.8000488281</ele>
        <time>2024-10-15T06:58:10.000Z</time>
      </trkpt>
      <trkpt lat="45.10809" lon="5.9958">
        <ele>1388</ele>
        <time>2024-10-15T06:58:11.000Z</time>
      </trkpt>
      <trkpt lat="45.10809" lon="5.99579">
        <ele>1388</ele>
        <time>2024-10-15T06:58:12.000Z</time>
      </trkpt>
      <trkpt lat="45.10808" lon="5.99578">
        <ele>1388.1999511719</ele>
        <time>2024-10-15T06:58:13.000Z</time>
      </trkpt>
      <trkpt lat="45.10808" lon="5.99578">
        <ele>1388.4000244141</ele>
        <time>2024-10-15T06:58:14.000Z</time>
      </trkpt>
      <trkpt lat="45.10808" lon="5.99577">
        <ele>1388.5999755859</ele>
        <time>2024-10-15T06:58:15.000Z</time>
      </trkpt>
      <trkpt lat="45.10807" lon="5.99577">
        <ele>1388.8000488281</ele>
        <time>2024-10-15T06:58:16.000Z</time>
      </trkpt>
      <trkpt lat="45.10807" lon="5.99577">
        <ele>1388.8000488281</ele>
        <time>2024-10-15T06:58:17.000Z</time>
      </trkpt>
      <trkpt lat="45.10806" lon="5.99577">
        <ele>1389</ele>
        <time>2024-10-15T06:58:18.000Z</time>
      </trkpt>
      <trkpt lat="45.10806" lon="5.99576">
        <ele>1389.1999511719</ele>
        <time>2024-10-15T06:58:19.000Z</time>
      </trkpt>
      <trkpt lat="45.10806" lon="5.99574">
        <ele>1389.5999755859</ele>
        <time>2024-10-15T06:58:20.000Z</time>
      </trkpt>
      <trkpt lat="45.10806" lon="5.99574">
        <ele>1390</ele>
        <time>2024-10-15T06:58:21.000Z</time>
      </trkpt>
      <trkpt lat="45.10806" lon="5.99574">
        <ele>1390.1999511719</ele>
        <time>2024-10-15T06:58:22.000Z</time>
      </trkpt>
      <trkpt lat="45.10806" lon="5.99573">
        <ele>1390.4000244141</ele>
        <time>2024-10-15T06:58:23.000Z</time>
      </trkpt>
      <trkpt lat="45.10805" lon="5.99573">
        <ele>1390.4000244141</ele>
        <time>2024-10-15T06:58:24.000Z</time>
      </trkpt>
      <trkpt lat="45.10804" lon="5.99573">
        <ele>1390.5999755859</ele>
        <time>2024-10-15T06:58:25.000Z</time>
      </trkpt>
      <trkpt lat="45.10803" lon="5.99573">
        <ele>1390.8000488281</ele>
        <time>2024-10-15T06:58:26.000Z</time>
      </trkpt>
      <trkpt lat="45.10802" lon="5.99573">
        <ele>1390.8000488281</ele>
        <time>2024-10-15T06:58:27.000Z</time>
      </trkpt>
      <trkpt lat="45.10802" lon="5.99572">
        <ele>1390.8000488281</ele>
        <time>2024-10-15T06:58:28.000Z</time>
      </trkpt>
      <trkpt lat="45.10801" lon="5.99571">
        <ele>1390.8000488281</ele>
        <time>2024-10-15T06:58:29.000Z</time>
      </trkpt>
      <trkpt lat="45.108" lon="5.9957">
        <ele>1390.8000488281</ele>
        <time>2024-10-15T06:58:30.000Z</time>
      </trkpt>
      <trkpt lat="45.10799" lon="5.99569">
        <ele>1390.8000488281</ele>
        <time>2024-10-15T06:58:31.000Z</time>
      </trkpt>
      <trkpt lat="45.10799" lon="5.99568">
        <ele>1390.8000488281</ele>
        <time>2024-10-15T06:58:32.000Z</time>
      </trkpt>
      <trkpt lat="45.10799" lon="5.99567">
        <ele>1390.8000488281</ele>
        <time>2024-10-15T06:58:33.000Z</time>
      </trkpt>
      <trkpt lat="45.10799" lon="5.99565">
        <ele>1390.5999755859</ele>
        <time>2024-10-15T06:58:34.000Z</time>
      </trkpt>
      <trkpt lat="45.10798" lon="5.99563">
        <ele>1390.5999755859</ele>
        <time>2024-10-15T06:58:35.000Z</time>
      </trkpt>
      <trkpt lat="45.10798" lon="5.99562">
        <ele>1390.5999755859</ele>
        <time>2024-10-15T06:58:36.000Z</time>
      </trkpt>
      <trkpt lat="45.10797" lon="5.99561">
        <ele>1390.4000244141</ele>
        <time>2024-10-15T06:58:37.000Z</time>
      </trkpt>
      <trkpt lat="45.10797" lon="5.9956">
        <ele>1390.4000244141</ele>
        <time>2024-10-15T06:58:38.000Z</time>
      </trkpt>
      <trkpt lat="45.10796" lon="5.9956">
        <ele>1390.4000244141</ele>
        <time>2024-10-15T06:58:39.000Z</time>
      </trkpt>
      <trkpt lat="45.10796" lon="5.99559">
        <ele>1390.4000244141</ele>
        <time>2024-10-15T06:58:40.000Z</time>
      </trkpt>
      <trkpt lat="45.10795" lon="5.99559">
        <ele>1390.4000244141</ele>
        <time>2024-10-15T06:58:41.000Z</time>
      </trkpt>
      <trkpt lat="45.10794" lon="5.99557">
        <ele>1390.5999755859</ele>
        <time>2024-10-15T06:58:42.000Z</time>
      </trkpt>
      <trkpt lat="45.10794" lon="5.99556">
        <ele>1390.5999755859</ele>
        <time>2024-10-15T06:58:43.000Z</time>
      </trkpt>
      <trkpt lat="45.10793" lon="5.99556">
        <ele>1390.5999755859</ele>
        <time>2024-10-15T06:58:44.000Z</time>
      </trkpt>
      <trkpt lat="45.10792" lon="5.99555">
        <ele>1390.5999755859</ele>
        <time>2024-10-15T06:58:45.000Z</time>
      </trkpt>
      <trkpt lat="45.10791" lon="5.99553">
        <ele>1390.5999755859</ele>
        <time>2024-10-15T06:58:46.000Z</time>
      </trkpt>
      <trkpt lat="45.1079" lon="5.99551">
        <ele>1390.5999755859</ele>
        <time>2024-10-15T06:58:47.000Z</time>
      </trkpt>
      <trkpt lat="45.1079" lon="5.99551">
        <ele>1390.5999755859</ele>
        <time>2024-10-15T06:58:48.000Z</time>
      </trkpt>
      <trkpt lat="45.10789" lon="5.99549">
        <ele>1390.5999755859</ele>
        <time>2024-10-15T06:58:49.000Z</time>
      </trkpt>
      <trkpt lat="45.10788" lon="5.99548">
        <ele>1390.5999755859</ele>
        <time>2024-10-15T06:58:50.000Z</time>
      </trkpt>
      <trkpt lat="45.10787" lon="5.99548">
        <ele>1390.5999755859</ele>
        <time>2024-10-15T06:58:51.000Z</time>
      </trkpt>
      <trkpt lat="45.10787" lon="5.99548">
        <ele>1390.5999755859</ele>
        <time>2024-10-15T06:58:52.000Z</time>
      </trkpt>
      <trkpt lat="45.10787" lon="5.99548">
        <ele>1390.5999755859</ele>
        <time>2024-10-15T06:58:53.000Z</time>
      </trkpt>
      <trkpt lat="45.10786" lon="5.99546">
        <ele>1390.4000244141</ele>
        <time>2024-10-15T06:58:54.000Z</time>
      </trkpt>
      <trkpt lat="45.10786" lon="5.99545">
        <ele>1390.4000244141</ele>
        <time>2024-10-15T06:58:55.000Z</time>
      </trkpt>
      <trkpt lat="45.10785" lon="5.99544">
        <ele>1390.1999511719</ele>
        <time>2024-10-15T06:58:56.000Z</time>
      </trkpt>
      <trkpt lat="45.10785" lon="5.99543">
        <ele>1390.1999511719</ele>
        <time>2024-10-15T06:58:57.000Z</time>
      </trkpt>
      <trkpt lat="45.10784" lon="5.99542">
        <ele>1390.4000244141</ele>
        <time>2024-10-15T06:58:58.000Z</time>
      </trkpt>
      <trkpt lat="45.10784" lon="5.99541">
        <ele>1390.4000244141</ele>
        <time>2024-10-15T06:58:59.000Z</time>
      </trkpt>
      <trkpt lat="45.10783" lon="5.9954">
        <ele>1390.4000244141</ele>
        <time>2024-10-15T06:59:00.000Z</time>
      </trkpt>
      <trkpt lat="45.10783" lon="5.99539">
        <ele>1390.8000488281</ele>
        <time>2024-10-15T06:59:01.000Z</time>
      </trkpt>
      <trkpt lat="45.10782" lon="5.99537">
        <ele>1390.8000488281</ele>
        <time>2024-10-15T06:59:02.000Z</time>
      </trkpt>
      <trkpt lat="45.10783" lon="5.99536">
        <ele>1391</ele>
        <time>2024-10-15T06:59:03.000Z</time>
      </trkpt>
      <trkpt lat="45.10783" lon="5.99534">
        <ele>1391</ele>
        <time>2024-10-15T06:59:04.000Z</time>
      </trkpt>
      <trkpt lat="45.10783" lon="5.99533">
        <ele>1391.1999511719</ele>
        <time>2024-10-15T06:59:05.000Z</time>
      </trkpt>
      <trkpt lat="45.10783" lon="5.99532">
        <ele>1391.1999511719</ele>
        <time>2024-10-15T06:59:06.000Z</time>
      </trkpt>
      <trkpt lat="45.10783" lon="5.99531">
        <ele>1391.4000244141</ele>
        <time>2024-10-15T06:59:07.000Z</time>
      </trkpt>
      <trkpt lat="45.10783" lon="5.99529">
        <ele>1391.5999755859</ele>
        <time>2024-10-15T06:59:08.000Z</time>
      </trkpt>
      <trkpt lat="45.10784" lon="5.99527">
        <ele>1391.5999755859</ele>
        <time>2024-10-15T06:59:09.000Z</time>
      </trkpt>
      <trkpt lat="45.10784" lon="5.99526">
        <ele>1391.8000488281</ele>
        <time>2024-10-15T06:59:10.000Z</time>
      </trkpt>
      <trkpt lat="45.10784" lon="5.99526">
        <ele>1392.1999511719</ele>
        <time>2024-10-15T06:59:11.000Z</time>
      </trkpt>
      <trkpt lat="45.10784" lon="5.99525">
        <ele>1392.1999511719</ele>
        <time>2024-10-15T06:59:12.000Z</time>
      </trkpt>
      <trkpt lat="45.10785" lon="5.99524">
        <ele>1392.4000244141</ele>
        <time>2024-10-15T06:59:13.000Z</time>
      </trkpt>
      <trkpt lat="45.10785" lon="5.99523">
        <ele>1392.8000488281</ele>
        <time>2024-10-15T06:59:14.000Z</time>
      </trkpt>
      <trkpt lat="45.10785" lon="5.99523">
        <ele>1393</ele>
        <time>2024-10-15T06:59:15.000Z</time>
      </trkpt>
      <trkpt lat="45.10784" lon="5.99522">
        <ele>1393.1999511719</ele>
        <time>2024-10-15T06:59:16.000Z</time>
      </trkpt>
      <trkpt lat="45.10784" lon="5.99521">
        <ele>1393.4000244141</ele>
        <time>2024-10-15T06:59:17.000Z</time>
      </trkpt>
      <trkpt lat="45.10784" lon="5.9952">
        <ele>1393.5999755859</ele>
        <time>2024-10-15T06:59:18.000Z</time>
      </trkpt>
      <trkpt lat="45.10784" lon="5.99519">
        <ele>1393.8000488281</ele>
        <time>2024-10-15T06:59:19.000Z</time>
      </trkpt>
      <trkpt lat="45.10785" lon="5.99517">
        <ele>1393.8000488281</ele>
        <time>2024-10-15T06:59:20.000Z</time>
      </trkpt>
      <trkpt lat="45.10786" lon="5.99516">
        <ele>1394</ele>
        <time>2024-10-15T06:59:21.000Z</time>
      </trkpt>
      <trkpt lat="45.10786" lon="5.99515">
        <ele>1394.1999511719</ele>
        <time>2024-10-15T06:59:22.000Z</time>
      </trkpt>
      <trkpt lat="45.10786" lon="5.99515">
        <ele>1394.4000244141</ele>
        <time>2024-10-15T06:59:23.000Z</time>
      </trkpt>
      <trkpt lat="45.10787" lon="5.99514">
        <ele>1394.8000488281</ele>
        <time>2024-10-15T06:59:24.000Z</time>
      </trkpt>
      <trkpt lat="45.10788" lon="5.99513">
        <ele>1395</ele>
        <time>2024-10-15T06:59:25.000Z</time>
      </trkpt>
      <trkpt lat="45.10788" lon="5.99512">
        <ele>1395.4000244141</ele>
        <time>2024-10-15T06:59:26.000Z</time>
      </trkpt>
      <trkpt lat="45.1079" lon="5.99513">
        <ele>1395.5999755859</ele>
        <time>2024-10-15T06:59:27.000Z</time>
      </trkpt>
      <trkpt lat="45.1079" lon="5.99512">
        <ele>1395.8000488281</ele>
        <time>2024-10-15T06:59:28.000Z</time>
      </trkpt>
      <trkpt lat="45.1079" lon="5.99512">
        <ele>1396</ele>
        <time>2024-10-15T06:59:29.000Z</time>
      </trkpt>
      <trkpt lat="45.1079" lon="5.99512">
        <ele>1396.1999511719</ele>
        <time>2024-10-15T06:59:30.000Z</time>
      </trkpt>
      <trkpt lat="45.10791" lon="5.99512">
        <ele>1396.5999755859</ele>
        <time>2024-10-15T06:59:31.000Z</time>
      </trkpt>
      <trkpt lat="45.10791" lon="5.99511">
        <ele>1397</ele>
        <time>2024-10-15T06:59:32.000Z</time>
      </trkpt>
      <trkpt lat="45.10791" lon="5.9951">
        <ele>1397.1999511719</ele>
        <time>2024-10-15T06:59:33.000Z</time>
      </trkpt>
      <trkpt lat="45.10791" lon="5.9951">
        <ele>1397.4000244141</ele>
        <time>2024-10-15T06:59:34.000Z</time>
      </trkpt>
      <trkpt lat="45.1079" lon="5.99511">
        <ele>1397.8000488281</ele>
        <time>2024-10-15T06:59:35.000Z</time>
      </trkpt>
      <trkpt lat="45.10791" lon="5.9951">
        <ele>1397.8000488281</ele>
        <time>2024-10-15T06:59:36.000Z</time>
      </trkpt>
      <trkpt lat="45.10791" lon="5.9951">
        <ele>1398.1999511719</ele>
        <time>2024-10-15T06:59:37.000Z</time>
      </trkpt>
      <trkpt lat="45.1079" lon="5.9951">
        <ele>1398.1999511719</ele>
        <time>2024-10-15T06:59:38.000Z</time>
      </trkpt>
      <trkpt lat="45.1079" lon="5.99509">
        <ele>1398.5999755859</ele>
        <time>2024-10-15T06:59:39.000Z</time>
      </trkpt>
      <trkpt lat="45.1079" lon="5.99508">
        <ele>1398.5999755859</ele>
        <time>2024-10-15T06:59:40.000Z</time>
      </trkpt>
      <trkpt lat="45.1079" lon="5.99508">
        <ele>1399</ele>
        <time>2024-10-15T06:59:41.000Z</time>
      </trkpt>
      <trkpt lat="45.10791" lon="5.99508">
        <ele>1399</ele>
        <time>2024-10-15T06:59:42.000Z</time>
      </trkpt>
      <trkpt lat="45.10791" lon="5.99508">
        <ele>1399.4000244141</ele>
        <time>2024-10-15T06:59:43.000Z</time>
      </trkpt>
      <trkpt lat="45.10791" lon="5.99508">
        <ele>1399.5999755859</ele>
        <time>2024-10-15T06:59:44.000Z</time>
      </trkpt>
      <trkpt lat="45.10791" lon="5.99508">
        <ele>1399.5999755859</ele>
        <time>2024-10-15T06:59:45.000Z</time>
      </trkpt>
      <trkpt lat="45.10791" lon="5.99508">
        <ele>1399.8000488281</ele>
        <time>2024-10-15T06:59:46.000Z</time>
      </trkpt>
      <trkpt lat="45.10791" lon="5.99508">
        <ele>1399.8000488281</ele>
        <time>2024-10-15T06:59:47.000Z</time>
      </trkpt>
      <trkpt lat="45.10791" lon="5.99508">
        <ele>1400</ele>
        <time>2024-10-15T06:59:48.000Z</time>
      </trkpt>
      <trkpt lat="45.10791" lon="5.99508">
        <ele>1400.4000244141</ele>
        <time>2024-10-15T06:59:49.000Z</time>
      </trkpt>
      <trkpt lat="45.10791" lon="5.99508">
        <ele>1400.5999755859</ele>
        <time>2024-10-15T06:59:50.000Z</time>
      </trkpt>
      <trkpt lat="45.10791" lon="5.99508">
        <ele>1400.5999755859</ele>
        <time>2024-10-15T06:59:51.000Z</time>
      </trkpt>
      <trkpt lat="45.10791" lon="5.99508">
        <ele>1400.8000488281</ele>
        <time>2024-10-15T06:59:52.000Z</time>
      </trkpt>
      <trkpt lat="45.10791" lon="5.99508">
        <ele>1401</ele>
        <time>2024-10-15T06:59:53.000Z</time>
      </trkpt>
      <trkpt lat="45.10791" lon="5.99508">
        <ele>1401.4000244141</ele>
        <time>2024-10-15T06:59:54.000Z</time>
      </trkpt>
      <trkpt lat="45.10791" lon="5.99508">
        <ele>1401.8000488281</ele>
        <time>2024-10-15T06:59:55.000Z</time>
      </trkpt>
      <trkpt lat="45.10791" lon="5.99508">
        <ele>1402</ele>
        <time>2024-10-15T06:59:56.000Z</time>
      </trkpt>
      <trkpt lat="45.1079" lon="5.99507">
        <ele>1402</ele>
        <time>2024-10-15T06:59:57.000Z</time>
      </trkpt>
      <trkpt lat="45.1079" lon="5.99507">
        <ele>1402.1999511719</ele>
        <time>2024-10-15T06:59:58.000Z</time>
      </trkpt>
      <trkpt lat="45.1079" lon="5.99506">
        <ele>1402.4000244141</ele>
        <time>2024-10-15T06:59:59.000Z</time>
      </trkpt>
      <trkpt lat="45.1079" lon="5.99506">
        <ele>1402.5999755859</ele>
        <time>2024-10-15T07:00:00.000Z</time>
      </trkpt>
      <trkpt lat="45.10789" lon="5.99505">
        <ele>1402.8000488281</ele>
        <time>2024-10-15T07:00:01.000Z</time>
      </trkpt>
      <trkpt lat="45.10788" lon="5.99504">
        <ele>1403</ele>
        <time>2024-10-15T07:00:02.000Z</time>
      </trkpt>
      <trkpt lat="45.10788" lon="5.99503">
        <ele>1403.1999511719</ele>
        <time>2024-10-15T07:00:03.000Z</time>
      </trkpt>
      <trkpt lat="45.10787" lon="5.99501">
        <ele>1403.1999511719</ele>
        <time>2024-10-15T07:00:04.000Z</time>
      </trkpt>
      <trkpt lat="45.10786" lon="5.99501">
        <ele>1403.1999511719</ele>
        <time>2024-10-15T07:00:05.000Z</time>
      </trkpt>
      <trkpt lat="45.10786" lon="5.995">
        <ele>1403.5999755859</ele>
        <time>2024-10-15T07:00:06.000Z</time>
      </trkpt>
      <trkpt lat="45.10786" lon="5.995">
        <ele>1403.8000488281</ele>
        <time>2024-10-15T07:00:07.000Z</time>
      </trkpt>
      <trkpt lat="45.10786" lon="5.99501">
        <ele>1404</ele>
        <time>2024-10-15T07:00:08.000Z</time>
      </trkpt>
      <trkpt lat="45.10785" lon="5.99501">
        <ele>1404</ele>
        <time>2024-10-15T07:00:09.000Z</time>
      </trkpt>
      <trkpt lat="45.10785" lon="5.99501">
        <ele>1404.4000244141</ele>
        <time>2024-10-15T07:00:10.000Z</time>
      </trkpt>
      <trkpt lat="45.10785" lon="5.99501">
        <ele>1404.4000244141</ele>
        <time>2024-10-15T07:00:11.000Z</time>
      </trkpt>
      <trkpt lat="45.10784" lon="5.99501">
        <ele>1404.5999755859</ele>
        <time>2024-10-15T07:00:12.000Z</time>
      </trkpt>
      <trkpt lat="45.10784" lon="5.995">
        <ele>1404.8000488281</ele>
        <time>2024-10-15T07:00:13.000Z</time>
      </trkpt>
      <trkpt lat="45.10784" lon="5.995">
        <ele>1405.1999511719</ele>
        <time>2024-10-15T07:00:14.000Z</time>
      </trkpt>
      <trkpt lat="45.10784" lon="5.995">
        <ele>1405.4000244141</ele>
        <time>2024-10-15T07:00:15.000Z</time>
      </trkpt>
      <trkpt lat="45.10783" lon="5.995">
        <ele>1405.5999755859</ele>
        <time>2024-10-15T07:00:16.000Z</time>
      </trkpt>
      <trkpt lat="45.10783" lon="5.99499">
        <ele>1406</ele>
        <time>2024-10-15T07:00:17.000Z</time>
      </trkpt>
      <trkpt lat="45.10781" lon="5.99499">
        <ele>1406</ele>
        <time>2024-10-15T07:00:18.000Z</time>
      </trkpt>
      <trkpt lat="45.10781" lon="5.99498">
        <ele>1406.4000244141</ele>
        <time>2024-10-15T07:00:19.000Z</time>
      </trkpt>
      <trkpt lat="45.10781" lon="5.99498">
        <ele>1406.5999755859</ele>
        <time>2024-10-15T07:00:20.000Z</time>
      </trkpt>
      <trkpt lat="45.10781" lon="5.99498">
        <ele>1407</ele>
        <time>2024-10-15T07:00:21.000Z</time>
      </trkpt>
      <trkpt lat="45.10782" lon="5.99497">
        <ele>1407</ele>
        <time>2024-10-15T07:00:22.000Z</time>
      </trkpt>
      <trkpt lat="45.10782" lon="5.99497">
        <ele>1407.1999511719</ele>
        <time>2024-10-15T07:00:23.000Z</time>
      </trkpt>
      <trkpt lat="45.10783" lon="5.99496">
        <ele>1407.4000244141</ele>
        <time>2024-10-15T07:00:24.000Z</time>
      </trkpt>
      <trkpt lat="45.10782" lon="5.99495">
        <ele>1407.8000488281</ele>
        <time>2024-10-15T07:00:25.000Z</time>
      </trkpt>
      <trkpt lat="45.10783" lon="5.99494">
        <ele>1408</ele>
        <time>2024-10-15T07:00:26.000Z</time>
      </trkpt>
      <trkpt lat="45.10783" lon="5.99494">
        <ele>1408</ele>
        <time>2024-10-15T07:00:27.000Z</time>
      </trkpt>
      <trkpt lat="45.10783" lon="5.99494">
        <ele>1408.1999511719</ele>
        <time>2024-10-15T07:00:28.000Z</time>
      </trkpt>
      <trkpt lat="45.10783" lon="5.99494">
        <ele>1408.4000244141</ele>
        <time>2024-10-15T07:00:29.000Z</time>
      </trkpt>
      <trkpt lat="45.10783" lon="5.99494">
        <ele>1408.8000488281</ele>
        <time>2024-10-15T07:00:30.000Z</time>
      </trkpt>
      <trkpt lat="45.10783" lon="5.99494">
        <ele>1409</ele>
        <time>2024-10-15T07:00:31.000Z</time>
      </trkpt>
      <trkpt lat="45.10783" lon="5.99494">
        <ele>1409.1999511719</ele>
        <time>2024-10-15T07:00:32.000Z</time>
      </trkpt>
      <trkpt lat="45.10783" lon="5.99494">
        <ele>1409.1999511719</ele>
        <time>2024-10-15T07:00:33.000Z</time>
      </trkpt>
      <trkpt lat="45.10783" lon="5.99494">
        <ele>1409.4000244141</ele>
        <time>2024-10-15T07:00:34.000Z</time>
      </trkpt>
      <trkpt lat="45.10783" lon="5.99494">
        <ele>1409.5999755859</ele>
        <time>2024-10-15T07:00:35.000Z</time>
      </trkpt>
      <trkpt lat="45.10783" lon="5.99494">
        <ele>1409.5999755859</ele>
        <time>2024-10-15T07:00:36.000Z</time>
      </trkpt>
      <trkpt lat="45.10783" lon="5.99494">
        <ele>1409.8000488281</ele>
        <time>2024-10-15T07:00:37.000Z</time>
      </trkpt>
      <trkpt lat="45.10783" lon="5.99494">
        <ele>1410</ele>
        <time>2024-10-15T07:00:38.000Z</time>
      </trkpt>
      <trkpt lat="45.10783" lon="5.99494">
        <ele>1410.1999511719</ele>
        <time>2024-10-15T07:00:39.000Z</time>
      </trkpt>
      <trkpt lat="45.10783" lon="5.99494">
        <ele>1410.5999755859</ele>
        <time>2024-10-15T07:00:40.000Z</time>
      </trkpt>
      <trkpt lat="45.10783" lon="5.99494">
        <ele>1411</ele>
        <time>2024-10-15T07:00:41.000Z</time>
      </trkpt>
      <trkpt lat="45.10783" lon="5.99494">
        <ele>1411</ele>
        <time>2024-10-15T07:00:42.000Z</time>
      </trkpt>
      <trkpt lat="45.10783" lon="5.99494">
        <ele>1411</ele>
        <time>2024-10-15T07:00:43.000Z</time>
      </trkpt>
      <trkpt lat="45.10783" lon="5.99493">
        <ele>1411.1999511719</ele>
        <time>2024-10-15T07:00:44.000Z</time>
      </trkpt>
      <trkpt lat="45.10783" lon="5.99492">
        <ele>1411.4000244141</ele>
        <time>2024-10-15T07:00:45.000Z</time>
      </trkpt>
      <trkpt lat="45.10783" lon="5.99492">
        <ele>1411.5999755859</ele>
        <time>2024-10-15T07:00:46.000Z</time>
      </trkpt>
      <trkpt lat="45.10783" lon="5.99492">
        <ele>1411.5999755859</ele>
        <time>2024-10-15T07:00:47.000Z</time>
      </trkpt>
      <trkpt lat="45.10783" lon="5.99491">
        <ele>1412</ele>
        <time>2024-10-15T07:00:48.000Z</time>
      </trkpt>
      <trkpt lat="45.10783" lon="5.9949">
        <ele>1412.1999511719</ele>
        <time>2024-10-15T07:00:49.000Z</time>
      </trkpt>
      <trkpt lat="45.10783" lon="5.9949">
        <ele>1412.4000244141</ele>
        <time>2024-10-15T07:00:50.000Z</time>
      </trkpt>
      <trkpt lat="45.10783" lon="5.99489">
        <ele>1412.8000488281</ele>
        <time>2024-10-15T07:00:51.000Z</time>
      </trkpt>
      <trkpt lat="45.10783" lon="5.99489">
        <ele>1413</ele>
        <time>2024-10-15T07:00:52.000Z</time>
      </trkpt>
      <trkpt lat="45.10783" lon="5.99489">
        <ele>1413</ele>
        <time>2024-10-15T07:00:53.000Z</time>
      </trkpt>
      <trkpt lat="45.10783" lon="5.99489">
        <ele>1413</ele>
        <time>2024-10-15T07:00:54.000Z</time>
      </trkpt>
      <trkpt lat="45.10783" lon="5.99488">
        <ele>1413.4000244141</ele>
        <time>2024-10-15T07:00:55.000Z</time>
      </trkpt>
      <trkpt lat="45.10783" lon="5.99488">
        <ele>1413.5999755859</ele>
        <time>2024-10-15T07:00:56.000Z</time>
      </trkpt>
      <trkpt lat="45.10783" lon="5.99488">
        <ele>1414</ele>
        <time>2024-10-15T07:00:57.000Z</time>
      </trkpt>
      <trkpt lat="45.10783" lon="5.99488">
        <ele>1414</ele>
        <time>2024-10-15T07:00:58.000Z</time>
      </trkpt>
      <trkpt lat="45.10783" lon="5.99488">
        <ele>1414.1999511719</ele>
        <time>2024-10-15T07:00:59.000Z</time>
      </trkpt>
      <trkpt lat="45.10783" lon="5.99488">
        <ele>1414.1999511719</ele>
        <time>2024-10-15T07:01:00.000Z</time>
      </trkpt>
      <trkpt lat="45.10783" lon="5.99487">
        <ele>1414.5999755859</ele>
        <time>2024-10-15T07:01:01.000Z</time>
      </trkpt>
      <trkpt lat="45.10783" lon="5.99487">
        <ele>1414.8000488281</ele>
        <time>2024-10-15T07:01:02.000Z</time>
      </trkpt>
      <trkpt lat="45.10783" lon="5.99487">
        <ele>1415</ele>
        <time>2024-10-15T07:01:03.000Z</time>
      </trkpt>
      <trkpt lat="45.10783" lon="5.99487">
        <ele>1415.1999511719</ele>
        <time>2024-10-15T07:01:04.000Z</time>
      </trkpt>
      <trkpt lat="45.10783" lon="5.99487">
        <ele>1415.4000244141</ele>
        <time>2024-10-15T07:01:05.000Z</time>
      </trkpt>
      <trkpt lat="45.10783" lon="5.99487">
        <ele>1415.8000488281</ele>
        <time>2024-10-15T07:01:06.000Z</time>
      </trkpt>
      <trkpt lat="45.10783" lon="5.99487">
        <ele>1416</ele>
        <time>2024-10-15T07:01:07.000Z</time>
      </trkpt>
      <trkpt lat="45.10783" lon="5.99487">
        <ele>1416.4000244141</ele>
        <time>2024-10-15T07:01:08.000Z</time>
      </trkpt>
      <trkpt lat="45.10782" lon="5.99487">
        <ele>1416.5999755859</ele>
        <time>2024-10-15T07:01:09.000Z</time>
      </trkpt>
      <trkpt lat="45.10782" lon="5.99487">
        <ele>1416.5999755859</ele>
        <time>2024-10-15T07:01:10.000Z</time>
      </trkpt>
      <trkpt lat="45.10781" lon="5.99487">
        <ele>1416.5999755859</ele>
        <time>2024-10-15T07:01:11.000Z</time>
      </trkpt>
      <trkpt lat="45.1078" lon="5.99486">
        <ele>1416.5999755859</ele>
        <time>2024-10-15T07:01:12.000Z</time>
      </trkpt>
      <trkpt lat="45.10779" lon="5.99486">
        <ele>1416.5999755859</ele>
        <time>2024-10-15T07:01:13.000Z</time>
      </trkpt>
      <trkpt lat="45.10779" lon="5.99486">
        <ele>1417</ele>
        <time>2024-10-15T07:01:14.000Z</time>
      </trkpt>
      <trkpt lat="45.10778" lon="5.99486">
        <ele>1417.1999511719</ele>
        <time>2024-10-15T07:01:15.000Z</time>
      </trkpt>
      <trkpt lat="45.10778" lon="5.99486">
        <ele>1417.4000244141</ele>
        <time>2024-10-15T07:01:16.000Z</time>
      </trkpt>
      <trkpt lat="45.10777" lon="5.99486">
        <ele>1417.4000244141</ele>
        <time>2024-10-15T07:01:17.000Z</time>
      </trkpt>
      <trkpt lat="45.10777" lon="5.99486">
        <ele>1417.4000244141</ele>
        <time>2024-10-15T07:01:18.000Z</time>
      </trkpt>
      <trkpt lat="45.10777" lon="5.99486">
        <ele>1417.4000244141</ele>
        <time>2024-10-15T07:01:19.000Z</time>
      </trkpt>
      <trkpt lat="45.10777" lon="5.99486">
        <ele>1417.5999755859</ele>
        <time>2024-10-15T07:01:20.000Z</time>
      </trkpt>
      <trkpt lat="45.10777" lon="5.99487">
        <ele>1417.5999755859</ele>
        <time>2024-10-15T07:01:21.000Z</time>
      </trkpt>
      <trkpt lat="45.10778" lon="5.99487">
        <ele>1417.8000488281</ele>
        <time>2024-10-15T07:01:22.000Z</time>
      </trkpt>
      <trkpt lat="45.10778" lon="5.99487">
        <ele>1418</ele>
        <time>2024-10-15T07:01:23.000Z</time>
      </trkpt>
      <trkpt lat="45.10777" lon="5.99487">
        <ele>1418.4000244141</ele>
        <time>2024-10-15T07:01:24.000Z</time>
      </trkpt>
      <trkpt lat="45.10777" lon="5.99487">
        <ele>1418.5999755859</ele>
        <time>2024-10-15T07:01:25.000Z</time>
      </trkpt>
      <trkpt lat="45.10777" lon="5.99487">
        <ele>1418.5999755859</ele>
        <time>2024-10-15T07:01:26.000Z</time>
      </trkpt>
      <trkpt lat="45.10777" lon="5.99487">
        <ele>1418.5999755859</ele>
        <time>2024-10-15T07:01:27.000Z</time>
      </trkpt>
      <trkpt lat="45.10777" lon="5.99487">
        <ele>1418.8000488281</ele>
        <time>2024-10-15T07:01:28.000Z</time>
      </trkpt>
      <trkpt lat="45.10777" lon="5.99487">
        <ele>1418.8000488281</ele>
        <time>2024-10-15T07:01:29.000Z</time>
      </trkpt>
      <trkpt lat="45.10777" lon="5.99487">
        <ele>1418.8000488281</ele>
        <time>2024-10-15T07:01:30.000Z</time>
      </trkpt>
      <trkpt lat="45.10777" lon="5.99487">
        <ele>1419</ele>
        <time>2024-10-15T07:01:31.000Z</time>
      </trkpt>
      <trkpt lat="45.10777" lon="5.99487">
        <ele>1419.4000244141</ele>
        <time>2024-10-15T07:01:32.000Z</time>
      </trkpt>
      <trkpt lat="45.10777" lon="5.99487">
        <ele>1419.5999755859</ele>
        <time>2024-10-15T07:01:33.000Z</time>
      </trkpt>
      <trkpt lat="45.10777" lon="5.99487">
        <ele>1419.8000488281</ele>
        <time>2024-10-15T07:01:34.000Z</time>
      </trkpt>
      <trkpt lat="45.10777" lon="5.99487">
        <ele>1419.8000488281</ele>
        <time>2024-10-15T07:01:35.000Z</time>
      </trkpt>
      <trkpt lat="45.10777" lon="5.99487">
        <ele>1419.8000488281</ele>
        <time>2024-10-15T07:01:36.000Z</time>
      </trkpt>
      <trkpt lat="45.10777" lon="5.99487">
        <ele>1419.8000488281</ele>
        <time>2024-10-15T07:01:37.000Z</time>
      </trkpt>
      <trkpt lat="45.10776" lon="5.99487">
        <ele>1420</ele>
        <time>2024-10-15T07:01:38.000Z</time>
      </trkpt>
      <trkpt lat="45.10775" lon="5.99488">
        <ele>1420.4000244141</ele>
        <time>2024-10-15T07:01:39.000Z</time>
      </trkpt>
      <trkpt lat="45.10774" lon="5.99488">
        <ele>1420.5999755859</ele>
        <time>2024-10-15T07:01:40.000Z</time>
      </trkpt>
      <trkpt lat="45.10774" lon="5.99489">
        <ele>1420.5999755859</ele>
        <time>2024-10-15T07:01:41.000Z</time>
      </trkpt>
      <trkpt lat="45.10774" lon="5.9949">
        <ele>1420.8000488281</ele>
        <time>2024-10-15T07:01:42.000Z</time>
      </trkpt>
      <trkpt lat="45.10773" lon="5.99491">
        <ele>1420.8000488281</ele>
        <time>2024-10-15T07:01:43.000Z</time>
      </trkpt>
      <trkpt lat="45.10772" lon="5.99492">
        <ele>1421.1999511719</ele>
        <time>2024-10-15T07:01:44.000Z</time>
      </trkpt>
      <trkpt lat="45.10771" lon="5.99493">
        <ele>1421.4000244141</ele>
        <time>2024-10-15T07:01:45.000Z</time>
      </trkpt>
      <trkpt lat="45.1077" lon="5.99494">
        <ele>1421.4000244141</ele>
        <time>2024-10-15T07:01:46.000Z</time>
      </trkpt>
      <trkpt lat="45.10769" lon="5.99495">
        <ele>1421.5999755859</ele>
        <time>2024-10-15T07:01:47.000Z</time>
      </trkpt>
      <trkpt lat="45.10768" lon="5.99495">
        <ele>1421.8000488281</ele>
        <time>2024-10-15T07:01:48.000Z</time>
      </trkpt>
      <trkpt lat="45.10768" lon="5.99496">
        <ele>1422</ele>
        <time>2024-10-15T07:01:49.000Z</time>
      </trkpt>
      <trkpt lat="45.10767" lon="5.99496">
        <ele>1422.1999511719</ele>
        <time>2024-10-15T07:01:50.000Z</time>
      </trkpt>
      <trkpt lat="45.10767" lon="5.99497">
        <ele>1422.4000244141</ele>
        <time>2024-10-15T07:01:51.000Z</time>
      </trkpt>
      <trkpt lat="45.10767" lon="5.99497">
        <ele>1422.4000244141</ele>
        <time>2024-10-15T07:01:52.000Z</time>
      </trkpt>
      <trkpt lat="45.10766" lon="5.99499">
        <ele>1422.4000244141</ele>
        <time>2024-10-15T07:01:53.000Z</time>
      </trkpt>
      <trkpt lat="45.10765" lon="5.99501">
        <ele>1422.4000244141</ele>
        <time>2024-10-15T07:01:54.000Z</time>
      </trkpt>
      <trkpt lat="45.10764" lon="5.99502">
        <ele>1422.4000244141</ele>
        <time>2024-10-15T07:01:55.000Z</time>
      </trkpt>
      <trkpt lat="45.10764" lon="5.99503">
        <ele>1422.4000244141</ele>
        <time>2024-10-15T07:01:56.000Z</time>
      </trkpt>
      <trkpt lat="45.10762" lon="5.99503">
        <ele>1422.5999755859</ele>
        <time>2024-10-15T07:01:57.000Z</time>
      </trkpt>
      <trkpt lat="45.10762" lon="5.99504">
        <ele>1422.8000488281</ele>
        <time>2024-10-15T07:01:58.000Z</time>
      </trkpt>
      <trkpt lat="45.10761" lon="5.99504">
        <ele>1423.1999511719</ele>
        <time>2024-10-15T07:01:59.000Z</time>
      </trkpt>
      <trkpt lat="45.10761" lon="5.99505">
        <ele>1423.4000244141</ele>
        <time>2024-10-15T07:02:00.000Z</time>
      </trkpt>
      <trkpt lat="45.1076" lon="5.99506">
        <ele>1423.8000488281</ele>
        <time>2024-10-15T07:02:01.000Z</time>
      </trkpt>
      <trkpt lat="45.1076" lon="5.99506">
        <ele>1423.8000488281</ele>
        <time>2024-10-15T07:02:02.000Z</time>
      </trkpt>
      <trkpt lat="45.1076" lon="5.99506">
        <ele>1424</ele>
        <time>2024-10-15T07:02:03.000Z</time>
      </trkpt>
      <trkpt lat="45.10761" lon="5.99505">
        <ele>1424.1999511719</ele>
        <time>2024-10-15T07:02:04.000Z</time>
      </trkpt>
      <trkpt lat="45.10761" lon="5.99503">
        <ele>1424.4000244141</ele>
        <time>2024-10-15T07:02:05.000Z</time>
      </trkpt>
      <trkpt lat="45.10761" lon="5.99503">
        <ele>1424.5999755859</ele>
        <time>2024-10-15T07:02:06.000Z</time>
      </trkpt>
      <trkpt lat="45.1076" lon="5.99502">
        <ele>1424.8000488281</ele>
        <time>2024-10-15T07:02:07.000Z</time>
      </trkpt>
      <trkpt lat="45.10761" lon="5.99501">
        <ele>1425</ele>
        <time>2024-10-15T07:02:08.000Z</time>
      </trkpt>
      <trkpt lat="45.10761" lon="5.99501">
        <ele>1425</ele>
        <time>2024-10-15T07:02:09.000Z</time>
      </trkpt>
      <trkpt lat="45.10761" lon="5.99501">
        <ele>1425</ele>
        <time>2024-10-15T07:02:10.000Z</time>
      </trkpt>
      <trkpt lat="45.10762" lon="5.99502">
        <ele>1425</ele>
        <time>2024-10-15T07:02:11.000Z</time>
      </trkpt>
      <trkpt lat="45.10762" lon="5.99501">
        <ele>1425</ele>
        <time>2024-10-15T07:02:12.000Z</time>
      </trkpt>
      <trkpt lat="45.10764" lon="5.995">
        <ele>1425</ele>
        <time>2024-10-15T07:02:13.000Z</time>
      </trkpt>
      <trkpt lat="45.10764" lon="5.99499">
        <ele>1425</ele>
        <time>2024-10-15T07:02:14.000Z</time>
      </trkpt>
      <trkpt lat="45.10764" lon="5.99498">
        <ele>1425</ele>
        <time>2024-10-15T07:02:15.000Z</time>
      </trkpt>
      <trkpt lat="45.10764" lon="5.99498">
        <ele>1425</ele>
        <time>2024-10-15T07:02:16.000Z</time>
      </trkpt>
      <trkpt lat="45.10764" lon="5.99498">
        <ele>1425.1999511719</ele>
        <time>2024-10-15T07:02:17.000Z</time>
      </trkpt>
      <trkpt lat="45.10764" lon="5.99498">
        <ele>1425.1999511719</ele>
        <time>2024-10-15T07:02:18.000Z</time>
      </trkpt>
      <trkpt lat="45.10764" lon="5.99498">
        <ele>1425.1999511719</ele>
        <time>2024-10-15T07:02:19.000Z</time>
      </trkpt>
      <trkpt lat="45.10764" lon="5.99498">
        <ele>1425.1999511719</ele>
        <time>2024-10-15T07:02:20.000Z</time>
      </trkpt>
      <trkpt lat="45.10764" lon="5.99498">
        <ele>1425.1999511719</ele>
        <time>2024-10-15T07:02:21.000Z</time>
      </trkpt>
      <trkpt lat="45.10764" lon="5.99498">
        <ele>1425.1999511719</ele>
        <time>2024-10-15T07:02:22.000Z</time>
      </trkpt>
      <trkpt lat="45.10764" lon="5.99498">
        <ele>1425.1999511719</ele>
        <time>2024-10-15T07:02:23.000Z</time>
      </trkpt>
      <trkpt lat="45.10764" lon="5.99498">
        <ele>1425.4000244141</ele>
        <time>2024-10-15T07:02:24.000Z</time>
      </trkpt>
      <trkpt lat="45.10764" lon="5.99498">
        <ele>1425.4000244141</ele>
        <time>2024-10-15T07:02:25.000Z</time>
      </trkpt>
      <trkpt lat="45.10764" lon="5.99498">
        <ele>1425.5999755859</ele>
        <time>2024-10-15T07:02:26.000Z</time>
      </trkpt>
      <trkpt lat="45.10764" lon="5.99498">
        <ele>1425.5999755859</ele>
        <time>2024-10-15T07:02:27.000Z</time>
      </trkpt>
      <trkpt lat="45.10764" lon="5.99498">
        <ele>1425.8000488281</ele>
        <time>2024-10-15T07:02:28.000Z</time>
      </trkpt>
      <trkpt lat="45.10764" lon="5.99498">
        <ele>1426.1999511719</ele>
        <time>2024-10-15T07:02:29.000Z</time>
      </trkpt>
      <trkpt lat="45.10764" lon="5.99498">
        <ele>1426.4000244141</ele>
        <time>2024-10-15T07:02:30.000Z</time>
      </trkpt>
      <trkpt lat="45.10764" lon="5.99499">
        <ele>1426.5999755859</ele>
        <time>2024-10-15T07:02:31.000Z</time>
      </trkpt>
      <trkpt lat="45.10764" lon="5.99499">
        <ele>1427</ele>
        <time>2024-10-15T07:02:32.000Z</time>
      </trkpt>
      <trkpt lat="45.10764" lon="5.99499">
        <ele>1427.1999511719</ele>
        <time>2024-10-15T07:02:33.000Z</time>
      </trkpt>
      <trkpt lat="45.10764" lon="5.99499">
        <ele>1427.1999511719</ele>
        <time>2024-10-15T07:02:34.000Z</time>
      </trkpt>
      <trkpt lat="45.10764" lon="5.99499">
        <ele>1427.1999511719</ele>
        <time>2024-10-15T07:02:35.000Z</time>
      </trkpt>
      <trkpt lat="45.10764" lon="5.99499">
        <ele>1427.4000244141</ele>
        <time>2024-10-15T07:02:36.000Z</time>
      </trkpt>
      <trkpt lat="45.10764" lon="5.99499">
        <ele>1427.4000244141</ele>
        <time>2024-10-15T07:02:37.000Z</time>
      </trkpt>
      <trkpt lat="45.10764" lon="5.99499">
        <ele>1427.5999755859</ele>
        <time>2024-10-15T07:02:38.000Z</time>
      </trkpt>
      <trkpt lat="45.10764" lon="5.99499">
        <ele>1427.8000488281</ele>
        <time>2024-10-15T07:02:39.000Z</time>
      </trkpt>
      <trkpt lat="45.10764" lon="5.99499">
        <ele>1428</ele>
        <time>2024-10-15T07:02:40.000Z</time>
      </trkpt>
      <trkpt lat="45.10764" lon="5.99499">
        <ele>1428.4000244141</ele>
        <time>2024-10-15T07:02:41.000Z</time>
      </trkpt>
      <trkpt lat="45.10764" lon="5.99499">
        <ele>1428.4000244141</ele>
        <time>2024-10-15T07:02:42.000Z</time>
      </trkpt>
      <trkpt lat="45.10764" lon="5.99499">
        <ele>1428.5999755859</ele>
        <time>2024-10-15T07:02:43.000Z</time>
      </trkpt>
      <trkpt lat="45.10765" lon="5.99499">
        <ele>1429</ele>
        <time>2024-10-15T07:02:44.000Z</time>
      </trkpt>
      <trkpt lat="45.10765" lon="5.995">
        <ele>1429</ele>
        <time>2024-10-15T07:02:45.000Z</time>
      </trkpt>
      <trkpt lat="45.10765" lon="5.995">
        <ele>1429.1999511719</ele>
        <time>2024-10-15T07:02:46.000Z</time>
      </trkpt>
      <trkpt lat="45.10765" lon="5.995">
        <ele>1429.4000244141</ele>
        <time>2024-10-15T07:02:47.000Z</time>
      </trkpt>
      <trkpt lat="45.10765" lon="5.995">
        <ele>1429.5999755859</ele>
        <time>2024-10-15T07:02:48.000Z</time>
      </trkpt>
      <trkpt lat="45.10766" lon="5.995">
        <ele>1429.5999755859</ele>
        <time>2024-10-15T07:02:49.000Z</time>
      </trkpt>
      <trkpt lat="45.10766" lon="5.995">
        <ele>1429.8000488281</ele>
        <time>2024-10-15T07:02:50.000Z</time>
      </trkpt>
      <trkpt lat="45.10766" lon="5.99501">
        <ele>1429.8000488281</ele>
        <time>2024-10-15T07:02:51.000Z</time>
      </trkpt>
      <trkpt lat="45.10765" lon="5.99502">
        <ele>1430</ele>
        <time>2024-10-15T07:02:52.000Z</time>
      </trkpt>
      <trkpt lat="45.10765" lon="5.99502">
        <ele>1430.1999511719</ele>
        <time>2024-10-15T07:02:53.000Z</time>
      </trkpt>
      <trkpt lat="45.10764" lon="5.99502">
        <ele>1430.1999511719</ele>
        <time>2024-10-15T07:02:54.000Z</time>
      </trkpt>
      <trkpt lat="45.10764" lon="5.99503">
        <ele>1430.1999511719</ele>
        <time>2024-10-15T07:02:55.000Z</time>
      </trkpt>
      <trkpt lat="45.10764" lon="5.99503">
        <ele>1430.4000244141</ele>
        <time>2024-10-15T07:02:56.000Z</time>
      </trkpt>
      <trkpt lat="45.10764" lon="5.99502">
        <ele>1430.5999755859</ele>
        <time>2024-10-15T07:02:57.000Z</time>
      </trkpt>
      <trkpt lat="45.10763" lon="5.99505">
        <ele>1430.5999755859</ele>
        <time>2024-10-15T07:02:58.000Z</time>
      </trkpt>
      <trkpt lat="45.10761" lon="5.99508">
        <ele>1430.8000488281</ele>
        <time>2024-10-15T07:02:59.000Z</time>
      </trkpt>
      <trkpt lat="45.10761" lon="5.99507">
        <ele>1431</ele>
        <time>2024-10-15T07:03:00.000Z</time>
      </trkpt>
      <trkpt lat="45.10761" lon="5.99507">
        <ele>1431</ele>
        <time>2024-10-15T07:03:01.000Z</time>
      </trkpt>
      <trkpt lat="45.10761" lon="5.99506">
        <ele>1431.1999511719</ele>
        <time>2024-10-15T07:03:02.000Z</time>
      </trkpt>
      <trkpt lat="45.10761" lon="5.99505">
        <ele>1431.1999511719</ele>
        <time>2024-10-15T07:03:03.000Z</time>
      </trkpt>
      <trkpt lat="45.10762" lon="5.99505">
        <ele>1431.4000244141</ele>
        <time>2024-10-15T07:03:04.000Z</time>
      </trkpt>
      <trkpt lat="45.10762" lon="5.99504">
        <ele>1431.4000244141</ele>
        <time>2024-10-15T07:03:05.000Z</time>
      </trkpt>
      <trkpt lat="45.10762" lon="5.99504">
        <ele>1431.5999755859</ele>
        <time>2024-10-15T07:03:06.000Z</time>
      </trkpt>
      <trkpt lat="45.10762" lon="5.99504">
        <ele>1431.5999755859</ele>
        <time>2024-10-15T07:03:07.000Z</time>
      </trkpt>
      <trkpt lat="45.10762" lon="5.99504">
        <ele>1431.5999755859</ele>
        <time>2024-10-15T07:03:08.000Z</time>
      </trkpt>
      <trkpt lat="45.10763" lon="5.99503">
        <ele>1431.8000488281</ele>
        <time>2024-10-15T07:03:09.000Z</time>
      </trkpt>
      <trkpt lat="45.10763" lon="5.99502">
        <ele>1431.8000488281</ele>
        <time>2024-10-15T07:03:10.000Z</time>
      </trkpt>
      <trkpt lat="45.10763" lon="5.99502">
        <ele>1431.8000488281</ele>
        <time>2024-10-15T07:03:11.000Z</time>
      </trkpt>
      <trkpt lat="45.10763" lon="5.99502">
        <ele>1431.8000488281</ele>
        <time>2024-10-15T07:03:12.000Z</time>
      </trkpt>
      <trkpt lat="45.10762" lon="5.99503">
        <ele>1431.8000488281</ele>
        <time>2024-10-15T07:03:13.000Z</time>
      </trkpt>
      <trkpt lat="45.10761" lon="5.99505">
        <ele>1431.8000488281</ele>
        <time>2024-10-15T07:03:14.000Z</time>
      </trkpt>
      <trkpt lat="45.1076" lon="5.99506">
        <ele>1431.8000488281</ele>
        <time>2024-10-15T07:03:15.000Z</time>
      </trkpt>
      <trkpt lat="45.10757" lon="5.99513">
        <ele>1431.8000488281</ele>
        <time>2024-10-15T07:03:16.000Z</time>
      </trkpt>
      <trkpt lat="45.10755" lon="5.99517">
        <ele>1431.8000488281</ele>
        <time>2024-10-15T07:03:17.000Z</time>
      </trkpt>
      <trkpt lat="45.10754" lon="5.99519">
        <ele>1431.5999755859</ele>
        <time>2024-10-15T07:03:18.000Z</time>
      </trkpt>
      <trkpt lat="45.10751" lon="5.99525">
        <ele>1431.5999755859</ele>
        <time>2024-10-15T07:03:19.000Z</time>
      </trkpt>
      <trkpt lat="45.10749" lon="5.99528">
        <ele>1431.8000488281</ele>
        <time>2024-10-15T07:03:20.000Z</time>
      </trkpt>
      <trkpt lat="45.10749" lon="5.99528">
        <ele>1431.8000488281</ele>
        <time>2024-10-15T07:03:21.000Z</time>
      </trkpt>
      <trkpt lat="45.10749" lon="5.99528">
        <ele>1431.8000488281</ele>
        <time>2024-10-15T07:03:22.000Z</time>
      </trkpt>
      <trkpt lat="45.10749" lon="5.99528">
        <ele>1431.8000488281</ele>
        <time>2024-10-15T07:03:23.000Z</time>
      </trkpt>
      <trkpt lat="45.1075" lon="5.99528">
        <ele>1431.8000488281</ele>
        <time>2024-10-15T07:03:24.000Z</time>
      </trkpt>
      <trkpt lat="45.1075" lon="5.99529">
        <ele>1431.8000488281</ele>
        <time>2024-10-15T07:03:25.000Z</time>
      </trkpt>
      <trkpt lat="45.10751" lon="5.99528">
        <ele>1431.5999755859</ele>
        <time>2024-10-15T07:03:26.000Z</time>
      </trkpt>
      <trkpt lat="45.10751" lon="5.99528">
        <ele>1431.5999755859</ele>
        <time>2024-10-15T07:03:27.000Z</time>
      </trkpt>
      <trkpt lat="45.10751" lon="5.99528">
        <ele>1431.5999755859</ele>
        <time>2024-10-15T07:03:28.000Z</time>
      </trkpt>
      <trkpt lat="45.10751" lon="5.99529">
        <ele>1431.5999755859</ele>
        <time>2024-10-15T07:03:29.000Z</time>
      </trkpt>
      <trkpt lat="45.10751" lon="5.99528">
        <ele>1431.8000488281</ele>
        <time>2024-10-15T07:03:30.000Z</time>
      </trkpt>
      <trkpt lat="45.10751" lon="5.99529">
        <ele>1431.8000488281</ele>
        <time>2024-10-15T07:03:31.000Z</time>
      </trkpt>
      <trkpt lat="45.10752" lon="5.99528">
        <ele>1432</ele>
        <time>2024-10-15T07:03:32.000Z</time>
      </trkpt>
      <trkpt lat="45.10752" lon="5.99529">
        <ele>1432.1999511719</ele>
        <time>2024-10-15T07:03:33.000Z</time>
      </trkpt>
      <trkpt lat="45.10752" lon="5.99529">
        <ele>1432.4000244141</ele>
        <time>2024-10-15T07:03:34.000Z</time>
      </trkpt>
      <trkpt lat="45.10752" lon="5.99529">
        <ele>1432.4000244141</ele>
        <time>2024-10-15T07:03:35.000Z</time>
      </trkpt>
      <trkpt lat="45.10752" lon="5.99529">
        <ele>1432.4000244141</ele>
        <time>2024-10-15T07:03:36.000Z</time>
      </trkpt>
      <trkpt lat="45.10752" lon="5.99529">
        <ele>1432.5999755859</ele>
        <time>2024-10-15T07:03:37.000Z</time>
      </trkpt>
      <trkpt lat="45.10752" lon="5.99529">
        <ele>1432.5999755859</ele>
        <time>2024-10-15T07:03:38.000Z</time>
      </trkpt>
      <trkpt lat="45.10752" lon="5.99529">
        <ele>1432.5999755859</ele>
        <time>2024-10-15T07:03:39.000Z</time>
      </trkpt>
      <trkpt lat="45.10752" lon="5.99529">
        <ele>1432.5999755859</ele>
        <time>2024-10-15T07:03:40.000Z</time>
      </trkpt>
      <trkpt lat="45.10752" lon="5.99529">
        <ele>1432.8000488281</ele>
        <time>2024-10-15T07:03:41.000Z</time>
      </trkpt>
      <trkpt lat="45.10752" lon="5.99529">
        <ele>1432.8000488281</ele>
        <time>2024-10-15T07:03:42.000Z</time>
      </trkpt>
      <trkpt lat="45.10752" lon="5.99529">
        <ele>1432.8000488281</ele>
        <time>2024-10-15T07:03:43.000Z</time>
      </trkpt>
      <trkpt lat="45.10752" lon="5.99529">
        <ele>1432.8000488281</ele>
        <time>2024-10-15T07:03:44.000Z</time>
      </trkpt>
      <trkpt lat="45.10752" lon="5.99529">
        <ele>1432.8000488281</ele>
        <time>2024-10-15T07:03:45.000Z</time>
      </trkpt>
      <trkpt lat="45.10752" lon="5.99529">
        <ele>1432.8000488281</ele>
        <time>2024-10-15T07:03:46.000Z</time>
      </trkpt>
      <trkpt lat="45.10752" lon="5.99529">
        <ele>1432.8000488281</ele>
        <time>2024-10-15T07:03:47.000Z</time>
      </trkpt>
      <trkpt lat="45.10752" lon="5.99529">
        <ele>1432.8000488281</ele>
        <time>2024-10-15T07:03:48.000Z</time>
      </trkpt>
      <trkpt lat="45.10752" lon="5.99529">
        <ele>1432.8000488281</ele>
        <time>2024-10-15T07:03:49.000Z</time>
      </trkpt>
      <trkpt lat="45.10752" lon="5.99529">
        <ele>1432.8000488281</ele>
        <time>2024-10-15T07:03:50.000Z</time>
      </trkpt>
      <trkpt lat="45.10752" lon="5.99529">
        <ele>1432.8000488281</ele>
        <time>2024-10-15T07:03:51.000Z</time>
      </trkpt>
      <trkpt lat="45.10752" lon="5.99529">
        <ele>1432.8000488281</ele>
        <time>2024-10-15T07:03:52.000Z</time>
      </trkpt>
      <trkpt lat="45.10752" lon="5.99529">
        <ele>1432.5999755859</ele>
        <time>2024-10-15T07:03:53.000Z</time>
      </trkpt>
      <trkpt lat="45.10752" lon="5.99529">
        <ele>1432.5999755859</ele>
        <time>2024-10-15T07:03:54.000Z</time>
      </trkpt>
      <trkpt lat="45.10752" lon="5.99528">
        <ele>1432.5999755859</ele>
        <time>2024-10-15T07:03:55.000Z</time>
      </trkpt>
      <trkpt lat="45.10752" lon="5.99528">
        <ele>1432.8000488281</ele>
        <time>2024-10-15T07:03:56.000Z</time>
      </trkpt>
      <trkpt lat="45.10752" lon="5.99528">
        <ele>1432.8000488281</ele>
        <time>2024-10-15T07:03:57.000Z</time>
      </trkpt>
      <trkpt lat="45.10754" lon="5.99528">
        <ele>1433</ele>
        <time>2024-10-15T07:03:58.000Z</time>
      </trkpt>
      <trkpt lat="45.10754" lon="5.99527">
        <ele>1433</ele>
        <time>2024-10-15T07:03:59.000Z</time>
      </trkpt>
      <trkpt lat="45.10755" lon="5.99527">
        <ele>1433</ele>
        <time>2024-10-15T07:04:00.000Z</time>
      </trkpt>
      <trkpt lat="45.10755" lon="5.99526">
        <ele>1433.1999511719</ele>
        <time>2024-10-15T07:04:01.000Z</time>
      </trkpt>
      <trkpt lat="45.10755" lon="5.99525">
        <ele>1433</ele>
        <time>2024-10-15T07:04:02.000Z</time>
      </trkpt>
      <trkpt lat="45.10755" lon="5.99525">
        <ele>1433</ele>
        <time>2024-10-15T07:04:03.000Z</time>
      </trkpt>
      <trkpt lat="45.10755" lon="5.99525">
        <ele>1433</ele>
        <time>2024-10-15T07:04:04.000Z</time>
      </trkpt>
      <trkpt lat="45.10755" lon="5.99525">
        <ele>1433</ele>
        <time>2024-10-15T07:04:05.000Z</time>
      </trkpt>
      <trkpt lat="45.10755" lon="5.99525">
        <ele>1433</ele>
        <time>2024-10-15T07:04:06.000Z</time>
      </trkpt>
      <trkpt lat="45.10755" lon="5.99525">
        <ele>1433</ele>
        <time>2024-10-15T07:04:07.000Z</time>
      </trkpt>
      <trkpt lat="45.10756" lon="5.99525">
        <ele>1433.1999511719</ele>
        <time>2024-10-15T07:04:08.000Z</time>
      </trkpt>
      <trkpt lat="45.10756" lon="5.99525">
        <ele>1433.1999511719</ele>
        <time>2024-10-15T07:04:09.000Z</time>
      </trkpt>
      <trkpt lat="45.10756" lon="5.99525">
        <ele>1433.1999511719</ele>
        <time>2024-10-15T07:04:10.000Z</time>
      </trkpt>
      <trkpt lat="45.10756" lon="5.99525">
        <ele>1433.1999511719</ele>
        <time>2024-10-15T07:04:11.000Z</time>
      </trkpt>
      <trkpt lat="45.10756" lon="5.99525">
        <ele>1433.1999511719</ele>
        <time>2024-10-15T07:04:12.000Z</time>
      </trkpt>
      <trkpt lat="45.10756" lon="5.99524">
        <ele>1433.1999511719</ele>
        <time>2024-10-15T07:04:13.000Z</time>
      </trkpt>
      <trkpt lat="45.10756" lon="5.99524">
        <ele>1433.4000244141</ele>
        <time>2024-10-15T07:04:14.000Z</time>
      </trkpt>
      <trkpt lat="45.10757" lon="5.99524">
        <ele>1433.4000244141</ele>
        <time>2024-10-15T07:04:15.000Z</time>
      </trkpt>
      <trkpt lat="45.10757" lon="5.99524">
        <ele>1433.4000244141</ele>
        <time>2024-10-15T07:04:16.000Z</time>
      </trkpt>
      <trkpt lat="45.10757" lon="5.99524">
        <ele>1433.4000244141</ele>
        <time>2024-10-15T07:04:17.000Z</time>
      </trkpt>
      <trkpt lat="45.10757" lon="5.99524">
        <ele>1433.5999755859</ele>
        <time>2024-10-15T07:04:18.000Z</time>
      </trkpt>
      <trkpt lat="45.10757" lon="5.99524">
        <ele>1433.5999755859</ele>
        <time>2024-10-15T07:04:19.000Z</time>
      </trkpt>
      <trkpt lat="45.10757" lon="5.99524">
        <ele>1433.5999755859</ele>
        <time>2024-10-15T07:04:20.000Z</time>
      </trkpt>
      <trkpt lat="45.10757" lon="5.99524">
        <ele>1433.5999755859</ele>
        <time>2024-10-15T07:04:21.000Z</time>
      </trkpt>
      <trkpt lat="45.10757" lon="5.99524">
        <ele>1433.5999755859</ele>
        <time>2024-10-15T07:04:22.000Z</time>
      </trkpt>
      <trkpt lat="45.10757" lon="5.99524">
        <ele>1433.5999755859</ele>
        <time>2024-10-15T07:04:23.000Z</time>
      </trkpt>
      <trkpt lat="45.10757" lon="5.99524">
        <ele>1433.5999755859</ele>
        <time>2024-10-15T07:04:24.000Z</time>
      </trkpt>
      <trkpt lat="45.10757" lon="5.99524">
        <ele>1433.5999755859</ele>
        <time>2024-10-15T07:04:25.000Z</time>
      </trkpt>
      <trkpt lat="45.10757" lon="5.99524">
        <ele>1433.8000488281</ele>
        <time>2024-10-15T07:04:26.000Z</time>
      </trkpt>
      <trkpt lat="45.10757" lon="5.99524">
        <ele>1433.8000488281</ele>
        <time>2024-10-15T07:04:27.000Z</time>
      </trkpt>
      <trkpt lat="45.10758" lon="5.99524">
        <ele>1433.8000488281</ele>
        <time>2024-10-15T07:04:28.000Z</time>
      </trkpt>
      <trkpt lat="45.10758" lon="5.99524">
        <ele>1434</ele>
        <time>2024-10-15T07:04:29.000Z</time>
      </trkpt>
      <trkpt lat="45.10758" lon="5.99524">
        <ele>1434</ele>
        <time>2024-10-15T07:04:30.000Z</time>
      </trkpt>
      <trkpt lat="45.10758" lon="5.99524">
        <ele>1434</ele>
        <time>2024-10-15T07:04:31.000Z</time>
      </trkpt>
      <trkpt lat="45.10758" lon="5.99524">
        <ele>1434.1999511719</ele>
        <time>2024-10-15T07:04:32.000Z</time>
      </trkpt>
      <trkpt lat="45.10758" lon="5.99524">
        <ele>1434.1999511719</ele>
        <time>2024-10-15T07:04:33.000Z</time>
      </trkpt>
      <trkpt lat="45.10758" lon="5.99524">
        <ele>1434.4000244141</ele>
        <time>2024-10-15T07:04:34.000Z</time>
      </trkpt>
      <trkpt lat="45.10758" lon="5.99524">
        <ele>1434.4000244141</ele>
        <time>2024-10-15T07:04:35.000Z</time>
      </trkpt>
      <trkpt lat="45.10758" lon="5.99524">
        <ele>1434.5999755859</ele>
        <time>2024-10-15T07:04:36.000Z</time>
      </trkpt>
      <trkpt lat="45.10758" lon="5.99524">
        <ele>1434.4000244141</ele>
        <time>2024-10-15T07:04:37.000Z</time>
      </trkpt>
      <trkpt lat="45.10758" lon="5.99524">
        <ele>1434.4000244141</ele>
        <time>2024-10-15T07:04:38.000Z</time>
      </trkpt>
      <trkpt lat="45.10758" lon="5.99524">
        <ele>1434.4000244141</ele>
        <time>2024-10-15T07:04:39.000Z</time>
      </trkpt>
      <trkpt lat="45.10759" lon="5.99524">
        <ele>1434.5999755859</ele>
        <time>2024-10-15T07:04:40.000Z</time>
      </trkpt>
      <trkpt lat="45.10759" lon="5.99524">
        <ele>1434.5999755859</ele>
        <time>2024-10-15T07:04:41.000Z</time>
      </trkpt>
      <trkpt lat="45.10759" lon="5.99524">
        <ele>1434.5999755859</ele>
        <time>2024-10-15T07:04:42.000Z</time>
      </trkpt>
      <trkpt lat="45.10759" lon="5.99524">
        <ele>1434.5999755859</ele>
        <time>2024-10-15T07:04:43.000Z</time>
      </trkpt>
      <trkpt lat="45.10759" lon="5.99524">
        <ele>1434.5999755859</ele>
        <time>2024-10-15T07:04:44.000Z</time>
      </trkpt>
      <trkpt lat="45.10761" lon="5.99523">
        <ele>1434.5999755859</ele>
        <time>2024-10-15T07:04:45.000Z</time>
      </trkpt>
      <trkpt lat="45.10761" lon="5.99522">
        <ele>1434.5999755859</ele>
        <time>2024-10-15T07:04:46.000Z</time>
      </trkpt>
      <trkpt lat="45.10762" lon="5.99522">
        <ele>1434.4000244141</ele>
        <time>2024-10-15T07:04:47.000Z</time>
      </trkpt>
      <trkpt lat="45.10762" lon="5.99522">
        <ele>1434.4000244141</ele>
        <time>2024-10-15T07:04:48.000Z</time>
      </trkpt>
      <trkpt lat="45.10761" lon="5.99522">
        <ele>1434.4000244141</ele>
        <time>2024-10-15T07:04:49.000Z</time>
      </trkpt>
      <trkpt lat="45.1076" lon="5.99521">
        <ele>1434.4000244141</ele>
        <time>2024-10-15T07:04:50.000Z</time>
      </trkpt>
      <trkpt lat="45.1076" lon="5.99521">
        <ele>1434.4000244141</ele>
        <time>2024-10-15T07:04:51.000Z</time>
      </trkpt>
      <trkpt lat="45.1076" lon="5.99521">
        <ele>1434.4000244141</ele>
        <time>2024-10-15T07:04:52.000Z</time>
      </trkpt>
      <trkpt lat="45.1076" lon="5.99521">
        <ele>1434.4000244141</ele>
        <time>2024-10-15T07:04:53.000Z</time>
      </trkpt>
      <trkpt lat="45.1076" lon="5.99521">
        <ele>1434.4000244141</ele>
        <time>2024-10-15T07:04:54.000Z</time>
      </trkpt>
      <trkpt lat="45.1076" lon="5.99521">
        <ele>1434.5999755859</ele>
        <time>2024-10-15T07:04:55.000Z</time>
      </trkpt>
      <trkpt lat="45.1076" lon="5.99521">
        <ele>1434.5999755859</ele>
        <time>2024-10-15T07:04:56.000Z</time>
      </trkpt>
      <trkpt lat="45.1076" lon="5.99521">
        <ele>1434.5999755859</ele>
        <time>2024-10-15T07:04:57.000Z</time>
      </trkpt>
      <trkpt lat="45.1076" lon="5.99521">
        <ele>1434.5999755859</ele>
        <time>2024-10-15T07:04:58.000Z</time>
      </trkpt>
      <trkpt lat="45.1076" lon="5.99521">
        <ele>1434.5999755859</ele>
        <time>2024-10-15T07:04:59.000Z</time>
      </trkpt>
      <trkpt lat="45.1076" lon="5.99521">
        <ele>1434.5999755859</ele>
        <time>2024-10-15T07:05:00.000Z</time>
      </trkpt>
      <trkpt lat="45.1076" lon="5.99521">
        <ele>1434.5999755859</ele>
        <time>2024-10-15T07:05:01.000Z</time>
      </trkpt>
      <trkpt lat="45.1076" lon="5.99521">
        <ele>1434.5999755859</ele>
        <time>2024-10-15T07:05:02.000Z</time>
      </trkpt>
      <trkpt lat="45.1076" lon="5.99521">
        <ele>1434.8000488281</ele>
        <time>2024-10-15T07:05:03.000Z</time>
      </trkpt>
      <trkpt lat="45.1076" lon="5.99521">
        <ele>1434.8000488281</ele>
        <time>2024-10-15T07:05:04.000Z</time>
      </trkpt>
      <trkpt lat="45.1076" lon="5.99521">
        <ele>1434.8000488281</ele>
        <time>2024-10-15T07:05:05.000Z</time>
      </trkpt>
      <trkpt lat="45.1076" lon="5.99521">
        <ele>1434.8000488281</ele>
        <time>2024-10-15T07:05:06.000Z</time>
      </trkpt>
      <trkpt lat="45.1076" lon="5.99521">
        <ele>1435</ele>
        <time>2024-10-15T07:05:07.000Z</time>
      </trkpt>
      <trkpt lat="45.1076" lon="5.99521">
        <ele>1435</ele>
        <time>2024-10-15T07:05:08.000Z</time>
      </trkpt>
      <trkpt lat="45.1076" lon="5.99521">
        <ele>1435.1999511719</ele>
        <time>2024-10-15T07:05:09.000Z</time>
      </trkpt>
      <trkpt lat="45.1076" lon="5.99521">
        <ele>1435.1999511719</ele>
        <time>2024-10-15T07:05:10.000Z</time>
      </trkpt>
      <trkpt lat="45.1076" lon="5.99521">
        <ele>1435.4000244141</ele>
        <time>2024-10-15T07:05:11.000Z</time>
      </trkpt>
      <trkpt lat="45.1076" lon="5.99521">
        <ele>1435.4000244141</ele>
        <time>2024-10-15T07:05:12.000Z</time>
      </trkpt>
      <trkpt lat="45.1076" lon="5.99521">
        <ele>1435.4000244141</ele>
        <time>2024-10-15T07:05:13.000Z</time>
      </trkpt>
      <trkpt lat="45.1076" lon="5.99521">
        <ele>1435.5999755859</ele>
        <time>2024-10-15T07:05:14.000Z</time>
      </trkpt>
      <trkpt lat="45.1076" lon="5.99521">
        <ele>1435.5999755859</ele>
        <time>2024-10-15T07:05:15.000Z</time>
      </trkpt>
      <trkpt lat="45.1076" lon="5.9952">
        <ele>1435.5999755859</ele>
        <time>2024-10-15T07:05:16.000Z</time>
      </trkpt>
      <trkpt lat="45.1076" lon="5.9952">
        <ele>1435.5999755859</ele>
        <time>2024-10-15T07:05:17.000Z</time>
      </trkpt>
      <trkpt lat="45.1076" lon="5.9952">
        <ele>1435.5999755859</ele>
        <time>2024-10-15T07:05:18.000Z</time>
      </trkpt>
      <trkpt lat="45.1076" lon="5.9952">
        <ele>1435.5999755859</ele>
        <time>2024-10-15T07:05:19.000Z</time>
      </trkpt>
      <trkpt lat="45.1076" lon="5.99519">
        <ele>1435.5999755859</ele>
        <time>2024-10-15T07:05:20.000Z</time>
      </trkpt>
      <trkpt lat="45.1076" lon="5.99519">
        <ele>1435.5999755859</ele>
        <time>2024-10-15T07:05:21.000Z</time>
      </trkpt>
      <trkpt lat="45.10761" lon="5.99517">
        <ele>1435.5999755859</ele>
        <time>2024-10-15T07:05:22.000Z</time>
      </trkpt>
      <trkpt lat="45.10761" lon="5.99516">
        <ele>1435.5999755859</ele>
        <time>2024-10-15T07:05:23.000Z</time>
      </trkpt>
      <trkpt lat="45.1076" lon="5.99516">
        <ele>1435.8000488281</ele>
        <time>2024-10-15T07:05:24.000Z</time>
      </trkpt>
      <trkpt lat="45.1076" lon="5.99516">
        <ele>1435.8000488281</ele>
        <time>2024-10-15T07:05:25.000Z</time>
      </trkpt>
      <trkpt lat="45.10759" lon="5.99517">
        <ele>1435.8000488281</ele>
        <time>2024-10-15T07:05:26.000Z</time>
      </trkpt>
      <trkpt lat="45.10758" lon="5.99518">
        <ele>1435.8000488281</ele>
        <time>2024-10-15T07:05:27.000Z</time>
      </trkpt>
      <trkpt lat="45.10758" lon="5.99518">
        <ele>1436</ele>
        <time>2024-10-15T07:05:28.000Z</time>
      </trkpt>
      <trkpt lat="45.10759" lon="5.99518">
        <ele>1436</ele>
        <time>2024-10-15T07:05:29.000Z</time>
      </trkpt>
      <trkpt lat="45.10759" lon="5.99517">
        <ele>1436.1999511719</ele>
        <time>2024-10-15T07:05:30.000Z</time>
      </trkpt>
      <trkpt lat="45.10759" lon="5.99518">
        <ele>1436.1999511719</ele>
        <time>2024-10-15T07:05:31.000Z</time>
      </trkpt>
      <trkpt lat="45.1076" lon="5.99518">
        <ele>1436.4000244141</ele>
        <time>2024-10-15T07:05:32.000Z</time>
      </trkpt>
      <trkpt lat="45.10759" lon="5.99517">
        <ele>1436.5999755859</ele>
        <time>2024-10-15T07:05:33.000Z</time>
      </trkpt>
      <trkpt lat="45.10759" lon="5.99517">
        <ele>1436.8000488281</ele>
        <time>2024-10-15T07:05:34.000Z</time>
      </trkpt>
      <trkpt lat="45.10759" lon="5.99517">
        <ele>1437.1999511719</ele>
        <time>2024-10-15T07:05:35.000Z</time>
      </trkpt>
      <trkpt lat="45.10759" lon="5.99517">
        <ele>1437.4000244141</ele>
        <time>2024-10-15T07:05:36.000Z</time>
      </trkpt>
      <trkpt lat="45.10759" lon="5.99516">
        <ele>1437.4000244141</ele>
        <time>2024-10-15T07:05:37.000Z</time>
      </trkpt>
      <trkpt lat="45.10759" lon="5.99516">
        <ele>1437.5999755859</ele>
        <time>2024-10-15T07:05:38.000Z</time>
      </trkpt>
      <trkpt lat="45.1076" lon="5.99514">
        <ele>1437.5999755859</ele>
        <time>2024-10-15T07:05:39.000Z</time>
      </trkpt>
      <trkpt lat="45.1076" lon="5.99513">
        <ele>1437.5999755859</ele>
        <time>2024-10-15T07:05:40.000Z</time>
      </trkpt>
      <trkpt lat="45.1076" lon="5.99514">
        <ele>1437.8000488281</ele>
        <time>2024-10-15T07:05:41.000Z</time>
      </trkpt>
      <trkpt lat="45.1076" lon="5.99514">
        <ele>1437.8000488281</ele>
        <time>2024-10-15T07:05:42.000Z</time>
      </trkpt>
      <trkpt lat="45.1076" lon="5.99515">
        <ele>1437.8000488281</ele>
        <time>2024-10-15T07:05:43.000Z</time>
      </trkpt>
      <trkpt lat="45.1076" lon="5.99514">
        <ele>1437.8000488281</ele>
        <time>2024-10-15T07:05:44.000Z</time>
      </trkpt>
      <trkpt lat="45.10761" lon="5.99514">
        <ele>1437.8000488281</ele>
        <time>2024-10-15T07:05:45.000Z</time>
      </trkpt>
      <trkpt lat="45.10761" lon="5.99514">
        <ele>1437.8000488281</ele>
        <time>2024-10-15T07:05:46.000Z</time>
      </trkpt>
      <trkpt lat="45.10761" lon="5.99514">
        <ele>1437.8000488281</ele>
        <time>2024-10-15T07:05:47.000Z</time>
      </trkpt>
      <trkpt lat="45.10761" lon="5.99514">
        <ele>1437.8000488281</ele>
        <time>2024-10-15T07:05:48.000Z</time>
      </trkpt>
      <trkpt lat="45.10761" lon="5.99514">
        <ele>1437.8000488281</ele>
        <time>2024-10-15T07:05:49.000Z</time>
      </trkpt>
      <trkpt lat="45.10761" lon="5.99514">
        <ele>1437.8000488281</ele>
        <time>2024-10-15T07:05:50.000Z</time>
      </trkpt>
      <trkpt lat="45.10761" lon="5.99514">
        <ele>1437.8000488281</ele>
        <time>2024-10-15T07:05:51.000Z</time>
      </trkpt>
      <trkpt lat="45.10761" lon="5.99514">
        <ele>1437.8000488281</ele>
        <time>2024-10-15T07:05:52.000Z</time>
      </trkpt>
      <trkpt lat="45.10761" lon="5.99514">
        <ele>1437.8000488281</ele>
        <time>2024-10-15T07:05:53.000Z</time>
      </trkpt>
      <trkpt lat="45.10761" lon="5.99514">
        <ele>1438</ele>
        <time>2024-10-15T07:05:54.000Z</time>
      </trkpt>
      <trkpt lat="45.10761" lon="5.99514">
        <ele>1438</ele>
        <time>2024-10-15T07:05:55.000Z</time>
      </trkpt>
      <trkpt lat="45.10761" lon="5.99514">
        <ele>1438</ele>
        <time>2024-10-15T07:05:56.000Z</time>
      </trkpt>
      <trkpt lat="45.10761" lon="5.99514">
        <ele>1438</ele>
        <time>2024-10-15T07:05:57.000Z</time>
      </trkpt>
      <trkpt lat="45.10761" lon="5.99514">
        <ele>1438</ele>
        <time>2024-10-15T07:05:58.000Z</time>
      </trkpt>
      <trkpt lat="45.10761" lon="5.99514">
        <ele>1437.8000488281</ele>
        <time>2024-10-15T07:05:59.000Z</time>
      </trkpt>
      <trkpt lat="45.10761" lon="5.99514">
        <ele>1437.5999755859</ele>
        <time>2024-10-15T07:06:00.000Z</time>
      </trkpt>
      <trkpt lat="45.10761" lon="5.99514">
        <ele>1437.5999755859</ele>
        <time>2024-10-15T07:06:01.000Z</time>
      </trkpt>
      <trkpt lat="45.10761" lon="5.99514">
        <ele>1437.5999755859</ele>
        <time>2024-10-15T07:06:02.000Z</time>
      </trkpt>
      <trkpt lat="45.10761" lon="5.99514">
        <ele>1437.4000244141</ele>
        <time>2024-10-15T07:06:03.000Z</time>
      </trkpt>
      <trkpt lat="45.10761" lon="5.99514">
        <ele>1437</ele>
        <time>2024-10-15T07:06:04.000Z</time>
      </trkpt>
      <trkpt lat="45.10761" lon="5.99514">
        <ele>1437</ele>
        <time>2024-10-15T07:06:05.000Z</time>
      </trkpt>
      <trkpt lat="45.10761" lon="5.99514">
        <ele>1437</ele>
        <time>2024-10-15T07:06:06.000Z</time>
      </trkpt>
      <trkpt lat="45.10761" lon="5.99514">
        <ele>1437</ele>
        <time>2024-10-15T07:06:07.000Z</time>
      </trkpt>
      <trkpt lat="45.10761" lon="5.99514">
        <ele>1437</ele>
        <time>2024-10-15T07:06:08.000Z</time>
      </trkpt>
      <trkpt lat="45.10761" lon="5.99514">
        <ele>1437</ele>
        <time>2024-10-15T07:06:09.000Z</time>
      </trkpt>
      <trkpt lat="45.10762" lon="5.99514">
        <ele>1437</ele>
        <time>2024-10-15T07:06:10.000Z</time>
      </trkpt>
      <trkpt lat="45.10762" lon="5.99514">
        <ele>1437</ele>
        <time>2024-10-15T07:06:11.000Z</time>
      </trkpt>
      <trkpt lat="45.10762" lon="5.99514">
        <ele>1437.1999511719</ele>
        <time>2024-10-15T07:06:12.000Z</time>
      </trkpt>
      <trkpt lat="45.10763" lon="5.99514">
        <ele>1437.1999511719</ele>
        <time>2024-10-15T07:06:13.000Z</time>
      </trkpt>
      <trkpt lat="45.10764" lon="5.99514">
        <ele>1437.4000244141</ele>
        <time>2024-10-15T07:06:14.000Z</time>
      </trkpt>
      <trkpt lat="45.10764" lon="5.99514">
        <ele>1437.4000244141</ele>
        <time>2024-10-15T07:06:15.000Z</time>
      </trkpt>
      <trkpt lat="45.10764" lon="5.99514">
        <ele>1437.5999755859</ele>
        <time>2024-10-15T07:06:16.000Z</time>
      </trkpt>
      <trkpt lat="45.10764" lon="5.99513">
        <ele>1437.5999755859</ele>
        <time>2024-10-15T07:06:17.000Z</time>
      </trkpt>
      <trkpt lat="45.10764" lon="5.99513">
        <ele>1437.8000488281</ele>
        <time>2024-10-15T07:06:18.000Z</time>
      </trkpt>
      <trkpt lat="45.10764" lon="5.99513">
        <ele>1437.8000488281</ele>
        <time>2024-10-15T07:06:19.000Z</time>
      </trkpt>
      <trkpt lat="45.10764" lon="5.99513">
        <ele>1437.8000488281</ele>
        <time>2024-10-15T07:06:20.000Z</time>
      </trkpt>
      <trkpt lat="45.10764" lon="5.99513">
        <ele>1438</ele>
        <time>2024-10-15T07:06:21.000Z</time>
      </trkpt>
      <trkpt lat="45.10764" lon="5.99513">
        <ele>1438</ele>
        <time>2024-10-15T07:06:22.000Z</time>
      </trkpt>
      <trkpt lat="45.10765" lon="5.99513">
        <ele>1438</ele>
        <time>2024-10-15T07:06:23.000Z</time>
      </trkpt>
      <trkpt lat="45.10765" lon="5.99513">
        <ele>1438</ele>
        <time>2024-10-15T07:06:24.000Z</time>
      </trkpt>
      <trkpt lat="45.10765" lon="5.99513">
        <ele>1438</ele>
        <time>2024-10-15T07:06:25.000Z</time>
      </trkpt>
      <trkpt lat="45.10765" lon="5.99513">
        <ele>1438.1999511719</ele>
        <time>2024-10-15T07:06:26.000Z</time>
      </trkpt>
      <trkpt lat="45.10765" lon="5.99513">
        <ele>1438.1999511719</ele>
        <time>2024-10-15T07:06:27.000Z</time>
      </trkpt>
      <trkpt lat="45.10765" lon="5.99513">
        <ele>1438.4000244141</ele>
        <time>2024-10-15T07:06:28.000Z</time>
      </trkpt>
      <trkpt lat="45.10765" lon="5.99513">
        <ele>1438.5999755859</ele>
        <time>2024-10-15T07:06:29.000Z</time>
      </trkpt>
      <trkpt lat="45.10765" lon="5.99513">
        <ele>1438.8000488281</ele>
        <time>2024-10-15T07:06:30.000Z</time>
      </trkpt>
      <trkpt lat="45.10765" lon="5.99513">
        <ele>1438.8000488281</ele>
        <time>2024-10-15T07:06:31.000Z</time>
      </trkpt>
      <trkpt lat="45.10765" lon="5.99513">
        <ele>1438.8000488281</ele>
        <time>2024-10-15T07:06:32.000Z</time>
      </trkpt>
      <trkpt lat="45.10765" lon="5.99513">
        <ele>1439</ele>
        <time>2024-10-15T07:06:33.000Z</time>
      </trkpt>
      <trkpt lat="45.10765" lon="5.99513">
        <ele>1439</ele>
        <time>2024-10-15T07:06:34.000Z</time>
      </trkpt>
      <trkpt lat="45.10765" lon="5.99513">
        <ele>1439</ele>
        <time>2024-10-15T07:06:35.000Z</time>
      </trkpt>
      <trkpt lat="45.10765" lon="5.99513">
        <ele>1439.1999511719</ele>
        <time>2024-10-15T07:06:36.000Z</time>
      </trkpt>
      <trkpt lat="45.10765" lon="5.99513">
        <ele>1439.1999511719</ele>
        <time>2024-10-15T07:06:37.000Z</time>
      </trkpt>
      <trkpt lat="45.10765" lon="5.99513">
        <ele>1439.1999511719</ele>
        <time>2024-10-15T07:06:38.000Z</time>
      </trkpt>
      <trkpt lat="45.10765" lon="5.99513">
        <ele>1439.1999511719</ele>
        <time>2024-10-15T07:06:39.000Z</time>
      </trkpt>
      <trkpt lat="45.10765" lon="5.99513">
        <ele>1439.4000244141</ele>
        <time>2024-10-15T07:06:40.000Z</time>
      </trkpt>
      <trkpt lat="45.10765" lon="5.99513">
        <ele>1439.5999755859</ele>
        <time>2024-10-15T07:06:41.000Z</time>
      </trkpt>
      <trkpt lat="45.10765" lon="5.99513">
        <ele>1439.5999755859</ele>
        <time>2024-10-15T07:06:42.000Z</time>
      </trkpt>
      <trkpt lat="45.10765" lon="5.99513">
        <ele>1439.5999755859</ele>
        <time>2024-10-15T07:06:43.000Z</time>
      </trkpt>
      <trkpt lat="45.10766" lon="5.99513">
        <ele>1439.8000488281</ele>
        <time>2024-10-15T07:06:44.000Z</time>
      </trkpt>
      <trkpt lat="45.10766" lon="5.99513">
        <ele>1439.8000488281</ele>
        <time>2024-10-15T07:06:45.000Z</time>
      </trkpt>
      <trkpt lat="45.10766" lon="5.99513">
        <ele>1439.8000488281</ele>
        <time>2024-10-15T07:06:46.000Z</time>
      </trkpt>
      <trkpt lat="45.10766" lon="5.99512">
        <ele>1439.8000488281</ele>
        <time>2024-10-15T07:06:47.000Z</time>
      </trkpt>
      <trkpt lat="45.10766" lon="5.99512">
        <ele>1439.8000488281</ele>
        <time>2024-10-15T07:06:48.000Z</time>
      </trkpt>
      <trkpt lat="45.10766" lon="5.99512">
        <ele>1439.8000488281</ele>
        <time>2024-10-15T07:06:49.000Z</time>
      </trkpt>
      <trkpt lat="45.10766" lon="5.99512">
        <ele>1439.8000488281</ele>
        <time>2024-10-15T07:06:50.000Z</time>
      </trkpt>
      <trkpt lat="45.10766" lon="5.99513">
        <ele>1439.8000488281</ele>
        <time>2024-10-15T07:06:51.000Z</time>
      </trkpt>
      <trkpt lat="45.10766" lon="5.99513">
        <ele>1439.8000488281</ele>
        <time>2024-10-15T07:06:52.000Z</time>
      </trkpt>
      <trkpt lat="45.10766" lon="5.99513">
        <ele>1440</ele>
        <time>2024-10-15T07:06:53.000Z</time>
      </trkpt>
      <trkpt lat="45.10766" lon="5.99513">
        <ele>1440</ele>
        <time>2024-10-15T07:06:54.000Z</time>
      </trkpt>
      <trkpt lat="45.10766" lon="5.99513">
        <ele>1440</ele>
        <time>2024-10-15T07:06:55.000Z</time>
      </trkpt>
      <trkpt lat="45.10766" lon="5.99513">
        <ele>1440</ele>
        <time>2024-10-15T07:06:56.000Z</time>
      </trkpt>
      <trkpt lat="45.10766" lon="5.99513">
        <ele>1440</ele>
        <time>2024-10-15T07:06:57.000Z</time>
      </trkpt>
      <trkpt lat="45.10766" lon="5.99513">
        <ele>1440</ele>
        <time>2024-10-15T07:06:58.000Z</time>
      </trkpt>
      <trkpt lat="45.10766" lon="5.99513">
        <ele>1440</ele>
        <time>2024-10-15T07:06:59.000Z</time>
      </trkpt>
      <trkpt lat="45.10766" lon="5.99513">
        <ele>1440</ele>
        <time>2024-10-15T07:07:00.000Z</time>
      </trkpt>
      <trkpt lat="45.10766" lon="5.99513">
        <ele>1440</ele>
        <time>2024-10-15T07:07:01.000Z</time>
      </trkpt>
      <trkpt lat="45.10766" lon="5.99513">
        <ele>1440</ele>
        <time>2024-10-15T07:07:02.000Z</time>
      </trkpt>
      <trkpt lat="45.10766" lon="5.99513">
        <ele>1440</ele>
        <time>2024-10-15T07:07:03.000Z</time>
      </trkpt>
      <trkpt lat="45.10766" lon="5.99513">
        <ele>1440</ele>
        <time>2024-10-15T07:07:04.000Z</time>
      </trkpt>
      <trkpt lat="45.10766" lon="5.99513">
        <ele>1440</ele>
        <time>2024-10-15T07:07:05.000Z</time>
      </trkpt>
      <trkpt lat="45.10766" lon="5.99513">
        <ele>1440.1999511719</ele>
        <time>2024-10-15T07:07:06.000Z</time>
      </trkpt>
      <trkpt lat="45.10766" lon="5.99513">
        <ele>1440.1999511719</ele>
        <time>2024-10-15T07:07:07.000Z</time>
      </trkpt>
      <trkpt lat="45.10766" lon="5.99513">
        <ele>1440.1999511719</ele>
        <time>2024-10-15T07:07:08.000Z</time>
      </trkpt>
      <trkpt lat="45.10766" lon="5.99513">
        <ele>1440</ele>
        <time>2024-10-15T07:07:09.000Z</time>
      </trkpt>
      <trkpt lat="45.10766" lon="5.99513">
        <ele>1440</ele>
        <time>2024-10-15T07:07:10.000Z</time>
      </trkpt>
      <trkpt lat="45.10766" lon="5.99513">
        <ele>1440</ele>
        <time>2024-10-15T07:07:11.000Z</time>
      </trkpt>
      <trkpt lat="45.10766" lon="5.99513">
        <ele>1440</ele>
        <time>2024-10-15T07:07:12.000Z</time>
      </trkpt>
      <trkpt lat="45.10766" lon="5.99513">
        <ele>1440.1999511719</ele>
        <time>2024-10-15T07:07:13.000Z</time>
      </trkpt>
      <trkpt lat="45.10766" lon="5.99513">
        <ele>1440.1999511719</ele>
        <time>2024-10-15T07:07:14.000Z</time>
      </trkpt>
      <trkpt lat="45.10766" lon="5.99513">
        <ele>1440.1999511719</ele>
        <time>2024-10-15T07:07:15.000Z</time>
      </trkpt>
      <trkpt lat="45.10766" lon="5.99513">
        <ele>1440.1999511719</ele>
        <time>2024-10-15T07:07:16.000Z</time>
      </trkpt>
      <trkpt lat="45.10766" lon="5.99513">
        <ele>1440.1999511719</ele>
        <time>2024-10-15T07:07:17.000Z</time>
      </trkpt>
      <trkpt lat="45.10766" lon="5.99513">
        <ele>1440.4000244141</ele>
        <time>2024-10-15T07:07:18.000Z</time>
      </trkpt>
      <trkpt lat="45.10766" lon="5.99513">
        <ele>1440.4000244141</ele>
        <time>2024-10-15T07:07:19.000Z</time>
      </trkpt>
      <trkpt lat="45.10766" lon="5.99512">
        <ele>1440.4000244141</ele>
        <time>2024-10-15T07:07:20.000Z</time>
      </trkpt>
      <trkpt lat="45.10766" lon="5.99512">
        <ele>1440.4000244141</ele>
        <time>2024-10-15T07:07:21.000Z</time>
      </trkpt>
      <trkpt lat="45.10766" lon="5.99512">
        <ele>1440.4000244141</ele>
        <time>2024-10-15T07:07:22.000Z</time>
      </trkpt>
      <trkpt lat="45.10765" lon="5.99512">
        <ele>1440.5999755859</ele>
        <time>2024-10-15T07:07:23.000Z</time>
      </trkpt>
      <trkpt lat="45.10765" lon="5.99512">
        <ele>1440.5999755859</ele>
        <time>2024-10-15T07:07:24.000Z</time>
      </trkpt>
      <trkpt lat="45.10765" lon="5.99512">
        <ele>1440.5999755859</ele>
        <time>2024-10-15T07:07:25.000Z</time>
      </trkpt>
      <trkpt lat="45.10765" lon="5.99512">
        <ele>1440.5999755859</ele>
        <time>2024-10-15T07:07:26.000Z</time>
      </trkpt>
      <trkpt lat="45.10764" lon="5.99512">
        <ele>1440.8000488281</ele>
        <time>2024-10-15T07:07:27.000Z</time>
      </trkpt>
      <trkpt lat="45.10764" lon="5.99512">
        <ele>1440.8000488281</ele>
        <time>2024-10-15T07:07:28.000Z</time>
      </trkpt>
      <trkpt lat="45.10764" lon="5.99512">
        <ele>1440.8000488281</ele>
        <time>2024-10-15T07:07:29.000Z</time>
      </trkpt>
      <trkpt lat="45.10764" lon="5.99512">
        <ele>1440.8000488281</ele>
        <time>2024-10-15T07:07:30.000Z</time>
      </trkpt>
      <trkpt lat="45.10764" lon="5.99512">
        <ele>1441</ele>
        <time>2024-10-15T07:07:31.000Z</time>
      </trkpt>
      <trkpt lat="45.10764" lon="5.99512">
        <ele>1441</ele>
        <time>2024-10-15T07:07:32.000Z</time>
      </trkpt>
      <trkpt lat="45.10764" lon="5.99512">
        <ele>1441</ele>
        <time>2024-10-15T07:07:33.000Z</time>
      </trkpt>
      <trkpt lat="45.10764" lon="5.99512">
        <ele>1441</ele>
        <time>2024-10-15T07:07:34.000Z</time>
      </trkpt>
      <trkpt lat="45.10764" lon="5.99512">
        <ele>1441</ele>
        <time>2024-10-15T07:07:35.000Z</time>
      </trkpt>
      <trkpt lat="45.10764" lon="5.99512">
        <ele>1441</ele>
        <time>2024-10-15T07:07:36.000Z</time>
      </trkpt>
      <trkpt lat="45.10764" lon="5.99512">
        <ele>1440.8000488281</ele>
        <time>2024-10-15T07:07:37.000Z</time>
      </trkpt>
      <trkpt lat="45.10764" lon="5.99511">
        <ele>1440.8000488281</ele>
        <time>2024-10-15T07:07:38.000Z</time>
      </trkpt>
      <trkpt lat="45.10764" lon="5.99511">
        <ele>1440.8000488281</ele>
        <time>2024-10-15T07:07:39.000Z</time>
      </trkpt>
      <trkpt lat="45.10764" lon="5.99511">
        <ele>1440.8000488281</ele>
        <time>2024-10-15T07:07:40.000Z</time>
      </trkpt>
      <trkpt lat="45.10764" lon="5.99511">
        <ele>1440.8000488281</ele>
        <time>2024-10-15T07:07:41.000Z</time>
      </trkpt>
      <trkpt lat="45.10764" lon="5.99511">
        <ele>1440.8000488281</ele>
        <time>2024-10-15T07:07:42.000Z</time>
      </trkpt>
      <trkpt lat="45.10764" lon="5.99511">
        <ele>1441</ele>
        <time>2024-10-15T07:07:43.000Z</time>
      </trkpt>
      <trkpt lat="45.10764" lon="5.99511">
        <ele>1441</ele>
        <time>2024-10-15T07:07:44.000Z</time>
      </trkpt>
      <trkpt lat="45.10764" lon="5.99511">
        <ele>1441.1999511719</ele>
        <time>2024-10-15T07:07:45.000Z</time>
      </trkpt>
      <trkpt lat="45.10764" lon="5.99511">
        <ele>1441.1999511719</ele>
        <time>2024-10-15T07:07:46.000Z</time>
      </trkpt>
      <trkpt lat="45.10764" lon="5.99511">
        <ele>1441.1999511719</ele>
        <time>2024-10-15T07:07:47.000Z</time>
      </trkpt>
      <trkpt lat="45.10764" lon="5.99511">
        <ele>1441.4000244141</ele>
        <time>2024-10-15T07:07:48.000Z</time>
      </trkpt>
      <trkpt lat="45.10764" lon="5.99511">
        <ele>1441.4000244141</ele>
        <time>2024-10-15T07:07:49.000Z</time>
      </trkpt>
      <trkpt lat="45.10764" lon="5.99511">
        <ele>1441.4000244141</ele>
        <time>2024-10-15T07:07:50.000Z</time>
      </trkpt>
      <trkpt lat="45.10764" lon="5.99511">
        <ele>1441.5999755859</ele>
        <time>2024-10-15T07:07:51.000Z</time>
      </trkpt>
      <trkpt lat="45.10764" lon="5.9951">
        <ele>1441.5999755859</ele>
        <time>2024-10-15T07:07:52.000Z</time>
      </trkpt>
      <trkpt lat="45.10764" lon="5.99509">
        <ele>1441.5999755859</ele>
        <time>2024-10-15T07:07:53.000Z</time>
      </trkpt>
      <trkpt lat="45.10763" lon="5.99508">
        <ele>1441.5999755859</ele>
        <time>2024-10-15T07:07:54.000Z</time>
      </trkpt>
      <trkpt lat="45.10763" lon="5.99507">
        <ele>1441.5999755859</ele>
        <time>2024-10-15T07:07:55.000Z</time>
      </trkpt>
      <trkpt lat="45.10763" lon="5.99507">
        <ele>1441.5999755859</ele>
        <time>2024-10-15T07:07:56.000Z</time>
      </trkpt>
      <trkpt lat="45.10763" lon="5.99506">
        <ele>1441.5999755859</ele>
        <time>2024-10-15T07:07:57.000Z</time>
      </trkpt>
      <trkpt lat="45.10763" lon="5.99506">
        <ele>1441.5999755859</ele>
        <time>2024-10-15T07:07:58.000Z</time>
      </trkpt>
      <trkpt lat="45.10763" lon="5.99506">
        <ele>1441.5999755859</ele>
        <time>2024-10-15T07:07:59.000Z</time>
      </trkpt>
      <trkpt lat="45.10763" lon="5.99506">
        <ele>1441.5999755859</ele>
        <time>2024-10-15T07:08:00.000Z</time>
      </trkpt>
      <trkpt lat="45.10763" lon="5.99506">
        <ele>1441.8000488281</ele>
        <time>2024-10-15T07:08:01.000Z</time>
      </trkpt>
      <trkpt lat="45.10763" lon="5.99506">
        <ele>1441.8000488281</ele>
        <time>2024-10-15T07:08:02.000Z</time>
      </trkpt>
      <trkpt lat="45.10763" lon="5.99505">
        <ele>1441.8000488281</ele>
        <time>2024-10-15T07:08:03.000Z</time>
      </trkpt>
      <trkpt lat="45.10763" lon="5.99505">
        <ele>1441.8000488281</ele>
        <time>2024-10-15T07:08:04.000Z</time>
      </trkpt>
      <trkpt lat="45.10763" lon="5.99505">
        <ele>1442</ele>
        <time>2024-10-15T07:08:05.000Z</time>
      </trkpt>
      <trkpt lat="45.10763" lon="5.99505">
        <ele>1442.1999511719</ele>
        <time>2024-10-15T07:08:06.000Z</time>
      </trkpt>
      <trkpt lat="45.10763" lon="5.99505">
        <ele>1442.4000244141</ele>
        <time>2024-10-15T07:08:07.000Z</time>
      </trkpt>
      <trkpt lat="45.10763" lon="5.99505">
        <ele>1442.5999755859</ele>
        <time>2024-10-15T07:08:08.000Z</time>
      </trkpt>
      <trkpt lat="45.10763" lon="5.99505">
        <ele>1442.8000488281</ele>
        <time>2024-10-15T07:08:09.000Z</time>
      </trkpt>
      <trkpt lat="45.10763" lon="5.99505">
        <ele>1443</ele>
        <time>2024-10-15T07:08:10.000Z</time>
      </trkpt>
      <trkpt lat="45.10763" lon="5.99505">
        <ele>1443</ele>
        <time>2024-10-15T07:08:11.000Z</time>
      </trkpt>
      <trkpt lat="45.10763" lon="5.99505">
        <ele>1443.1999511719</ele>
        <time>2024-10-15T07:08:12.000Z</time>
      </trkpt>
      <trkpt lat="45.10763" lon="5.99505">
        <ele>1443.4000244141</ele>
        <time>2024-10-15T07:08:13.000Z</time>
      </trkpt>
      <trkpt lat="45.10763" lon="5.99505">
        <ele>1443.8000488281</ele>
        <time>2024-10-15T07:08:14.000Z</time>
      </trkpt>
      <trkpt lat="45.10763" lon="5.99505">
        <ele>1443.8000488281</ele>
        <time>2024-10-15T07:08:15.000Z</time>
      </trkpt>
      <trkpt lat="45.10763" lon="5.99505">
        <ele>1444</ele>
        <time>2024-10-15T07:08:16.000Z</time>
      </trkpt>
      <trkpt lat="45.10763" lon="5.99505">
        <ele>1444.1999511719</ele>
        <time>2024-10-15T07:08:17.000Z</time>
      </trkpt>
      <trkpt lat="45.10763" lon="5.99505">
        <ele>1444.8000488281</ele>
        <time>2024-10-15T07:08:18.000Z</time>
      </trkpt>
      <trkpt lat="45.10763" lon="5.99505">
        <ele>1445.1999511719</ele>
        <time>2024-10-15T07:08:19.000Z</time>
      </trkpt>
      <trkpt lat="45.10762" lon="5.99505">
        <ele>1445.1999511719</ele>
        <time>2024-10-15T07:08:20.000Z</time>
      </trkpt>
      <trkpt lat="45.10762" lon="5.99505">
        <ele>1445.4000244141</ele>
        <time>2024-10-15T07:08:21.000Z</time>
      </trkpt>
      <trkpt lat="45.10762" lon="5.99505">
        <ele>1445.4000244141</ele>
        <time>2024-10-15T07:08:22.000Z</time>
      </trkpt>
      <trkpt lat="45.10762" lon="5.99505">
        <ele>1445.5999755859</ele>
        <time>2024-10-15T07:08:23.000Z</time>
      </trkpt>
      <trkpt lat="45.10762" lon="5.99505">
        <ele>1445.5999755859</ele>
        <time>2024-10-15T07:08:24.000Z</time>
      </trkpt>
      <trkpt lat="45.10762" lon="5.99505">
        <ele>1445.5999755859</ele>
        <time>2024-10-15T07:08:25.000Z</time>
      </trkpt>
      <trkpt lat="45.10762" lon="5.99505">
        <ele>1445.5999755859</ele>
        <time>2024-10-15T07:08:26.000Z</time>
      </trkpt>
      <trkpt lat="45.10762" lon="5.99505">
        <ele>1446</ele>
        <time>2024-10-15T07:08:27.000Z</time>
      </trkpt>
      <trkpt lat="45.10762" lon="5.99505">
        <ele>1446.1999511719</ele>
        <time>2024-10-15T07:08:28.000Z</time>
      </trkpt>
      <trkpt lat="45.10762" lon="5.99506">
        <ele>1446.4000244141</ele>
        <time>2024-10-15T07:08:29.000Z</time>
      </trkpt>
      <trkpt lat="45.10762" lon="5.99506">
        <ele>1446.4000244141</ele>
        <time>2024-10-15T07:08:30.000Z</time>
      </trkpt>
      <trkpt lat="45.10762" lon="5.99506">
        <ele>1446.4000244141</ele>
        <time>2024-10-15T07:08:31.000Z</time>
      </trkpt>
      <trkpt lat="45.10762" lon="5.99506">
        <ele>1446.4000244141</ele>
        <time>2024-10-15T07:08:32.000Z</time>
      </trkpt>
      <trkpt lat="45.10762" lon="5.99506">
        <ele>1446.4000244141</ele>
        <time>2024-10-15T07:08:33.000Z</time>
      </trkpt>
      <trkpt lat="45.10762" lon="5.99506">
        <ele>1446.5999755859</ele>
        <time>2024-10-15T07:08:34.000Z</time>
      </trkpt>
      <trkpt lat="45.10762" lon="5.99506">
        <ele>1446.5999755859</ele>
        <time>2024-10-15T07:08:35.000Z</time>
      </trkpt>
      <trkpt lat="45.10762" lon="5.99506">
        <ele>1446.8000488281</ele>
        <time>2024-10-15T07:08:36.000Z</time>
      </trkpt>
      <trkpt lat="45.10762" lon="5.99506">
        <ele>1446.8000488281</ele>
        <time>2024-10-15T07:08:37.000Z</time>
      </trkpt>
      <trkpt lat="45.10762" lon="5.99506">
        <ele>1447</ele>
        <time>2024-10-15T07:08:38.000Z</time>
      </trkpt>
      <trkpt lat="45.10762" lon="5.99506">
        <ele>1447.4000244141</ele>
        <time>2024-10-15T07:08:39.000Z</time>
      </trkpt>
      <trkpt lat="45.10762" lon="5.99506">
        <ele>1447.5999755859</ele>
        <time>2024-10-15T07:08:40.000Z</time>
      </trkpt>
      <trkpt lat="45.10762" lon="5.99506">
        <ele>1447.8000488281</ele>
        <time>2024-10-15T07:08:41.000Z</time>
      </trkpt>
      <trkpt lat="45.10762" lon="5.99506">
        <ele>1448</ele>
        <time>2024-10-15T07:08:42.000Z</time>
      </trkpt>
      <trkpt lat="45.10762" lon="5.99506">
        <ele>1448.1999511719</ele>
        <time>2024-10-15T07:08:43.000Z</time>
      </trkpt>
      <trkpt lat="45.10762" lon="5.99506">
        <ele>1448.4000244141</ele>
        <time>2024-10-15T07:08:44.000Z</time>
      </trkpt>
      <trkpt lat="45.10762" lon="5.99506">
        <ele>1448.5999755859</ele>
        <time>2024-10-15T07:08:45.000Z</time>
      </trkpt>
      <trkpt lat="45.10762" lon="5.99506">
        <ele>1448.5999755859</ele>
        <time>2024-10-15T07:08:46.000Z</time>
      </trkpt>
      <trkpt lat="45.10762" lon="5.99506">
        <ele>1448.8000488281</ele>
        <time>2024-10-15T07:08:47.000Z</time>
      </trkpt>
      <trkpt lat="45.10762" lon="5.99506">
        <ele>1449</ele>
        <time>2024-10-15T07:08:48.000Z</time>
      </trkpt>
      <trkpt lat="45.10762" lon="5.99506">
        <ele>1449</ele>
        <time>2024-10-15T07:08:49.000Z</time>
      </trkpt>
      <trkpt lat="45.10762" lon="5.99506">
        <ele>1449</ele>
        <time>2024-10-15T07:08:50.000Z</time>
      </trkpt>
      <trkpt lat="45.10762" lon="5.99506">
        <ele>1449</ele>
        <time>2024-10-15T07:08:51.000Z</time>
      </trkpt>
      <trkpt lat="45.10762" lon="5.99506">
        <ele>1449</ele>
        <time>2024-10-15T07:08:52.000Z</time>
      </trkpt>
      <trkpt lat="45.10762" lon="5.99506">
        <ele>1449</ele>
        <time>2024-10-15T07:08:53.000Z</time>
      </trkpt>
      <trkpt lat="45.10761" lon="5.99506">
        <ele>1449</ele>
        <time>2024-10-15T07:08:54.000Z</time>
      </trkpt>
      <trkpt lat="45.10761" lon="5.99506">
        <ele>1449</ele>
        <time>2024-10-15T07:08:55.000Z</time>
      </trkpt>
      <trkpt lat="45.10761" lon="5.99506">
        <ele>1449</ele>
        <time>2024-10-15T07:08:56.000Z</time>
      </trkpt>
      <trkpt lat="45.10761" lon="5.99507">
        <ele>1449</ele>
        <time>2024-10-15T07:08:57.000Z</time>
      </trkpt>
      <trkpt lat="45.10761" lon="5.99507">
        <ele>1449</ele>
        <time>2024-10-15T07:08:58.000Z</time>
      </trkpt>
      <trkpt lat="45.10761" lon="5.99507">
        <ele>1449</ele>
        <time>2024-10-15T07:08:59.000Z</time>
      </trkpt>
      <trkpt lat="45.10761" lon="5.99507">
        <ele>1449</ele>
        <time>2024-10-15T07:09:00.000Z</time>
      </trkpt>
      <trkpt lat="45.10761" lon="5.99507">
        <ele>1449</ele>
        <time>2024-10-15T07:09:01.000Z</time>
      </trkpt>
      <trkpt lat="45.10761" lon="5.99507">
        <ele>1449</ele>
        <time>2024-10-15T07:09:02.000Z</time>
      </trkpt>
      <trkpt lat="45.1076" lon="5.99507">
        <ele>1449.1999511719</ele>
        <time>2024-10-15T07:09:03.000Z</time>
      </trkpt>
      <trkpt lat="45.1076" lon="5.99507">
        <ele>1449.5999755859</ele>
        <time>2024-10-15T07:09:04.000Z</time>
      </trkpt>
      <trkpt lat="45.1076" lon="5.99507">
        <ele>1449.5999755859</ele>
        <time>2024-10-15T07:09:05.000Z</time>
      </trkpt>
      <trkpt lat="45.1076" lon="5.99507">
        <ele>1449.5999755859</ele>
        <time>2024-10-15T07:09:06.000Z</time>
      </trkpt>
      <trkpt lat="45.1076" lon="5.99507">
        <ele>1449.5999755859</ele>
        <time>2024-10-15T07:09:07.000Z</time>
      </trkpt>
      <trkpt lat="45.1076" lon="5.99507">
        <ele>1449.5999755859</ele>
        <time>2024-10-15T07:09:08.000Z</time>
      </trkpt>
      <trkpt lat="45.1076" lon="5.99507">
        <ele>1449.5999755859</ele>
        <time>2024-10-15T07:09:09.000Z</time>
      </trkpt>
      <trkpt lat="45.1076" lon="5.99507">
        <ele>1449.8000488281</ele>
        <time>2024-10-15T07:09:10.000Z</time>
      </trkpt>
      <trkpt lat="45.1076" lon="5.99507">
        <ele>1450.1999511719</ele>
        <time>2024-10-15T07:09:11.000Z</time>
      </trkpt>
      <trkpt lat="45.1076" lon="5.99507">
        <ele>1450.4000244141</ele>
        <time>2024-10-15T07:09:12.000Z</time>
      </trkpt>
      <trkpt lat="45.1076" lon="5.99507">
        <ele>1450.4000244141</ele>
        <time>2024-10-15T07:09:13.000Z</time>
      </trkpt>
      <trkpt lat="45.1076" lon="5.99507">
        <ele>1450.4000244141</ele>
        <time>2024-10-15T07:09:14.000Z</time>
      </trkpt>
      <trkpt lat="45.1076" lon="5.99507">
        <ele>1450.8000488281</ele>
        <time>2024-10-15T07:09:15.000Z</time>
      </trkpt>
      <trkpt lat="45.1076" lon="5.99508">
        <ele>1451</ele>
        <time>2024-10-15T07:09:16.000Z</time>
      </trkpt>
      <trkpt lat="45.1076" lon="5.99508">
        <ele>1451.1999511719</ele>
        <time>2024-10-15T07:09:17.000Z</time>
      </trkpt>
      <trkpt lat="45.1076" lon="5.99508">
        <ele>1451.4000244141</ele>
        <time>2024-10-15T07:09:18.000Z</time>
      </trkpt>
      <trkpt lat="45.1076" lon="5.99508">
        <ele>1451.5999755859</ele>
        <time>2024-10-15T07:09:19.000Z</time>
      </trkpt>
      <trkpt lat="45.1076" lon="5.99508">
        <ele>1451.8000488281</ele>
        <time>2024-10-15T07:09:20.000Z</time>
      </trkpt>
      <trkpt lat="45.1076" lon="5.99508">
        <ele>1452</ele>
        <time>2024-10-15T07:09:21.000Z</time>
      </trkpt>
      <trkpt lat="45.1076" lon="5.99508">
        <ele>1452</ele>
        <time>2024-10-15T07:09:22.000Z</time>
      </trkpt>
      <trkpt lat="45.1076" lon="5.99508">
        <ele>1452.1999511719</ele>
        <time>2024-10-15T07:09:23.000Z</time>
      </trkpt>
      <trkpt lat="45.1076" lon="5.99508">
        <ele>1452.1999511719</ele>
        <time>2024-10-15T07:09:24.000Z</time>
      </trkpt>
      <trkpt lat="45.1076" lon="5.99508">
        <ele>1452.1999511719</ele>
        <time>2024-10-15T07:09:25.000Z</time>
      </trkpt>
      <trkpt lat="45.1076" lon="5.99508">
        <ele>1452.1999511719</ele>
        <time>2024-10-15T07:09:26.000Z</time>
      </trkpt>
      <trkpt lat="45.1076" lon="5.99508">
        <ele>1452.4000244141</ele>
        <time>2024-10-15T07:09:27.000Z</time>
      </trkpt>
      <trkpt lat="45.1076" lon="5.99508">
        <ele>1452.4000244141</ele>
        <time>2024-10-15T07:09:28.000Z</time>
      </trkpt>
      <trkpt lat="45.1076" lon="5.99508">
        <ele>1452.5999755859</ele>
        <time>2024-10-15T07:09:29.000Z</time>
      </trkpt>
      <trkpt lat="45.10759" lon="5.99509">
        <ele>1452.5999755859</ele>
        <time>2024-10-15T07:09:30.000Z</time>
      </trkpt>
      <trkpt lat="45.10758" lon="5.9951">
        <ele>1452.8000488281</ele>
        <time>2024-10-15T07:09:31.000Z</time>
      </trkpt>
      <trkpt lat="45.10757" lon="5.99512">
        <ele>1453</ele>
        <time>2024-10-15T07:09:32.000Z</time>
      </trkpt>
      <trkpt lat="45.10755" lon="5.99514">
        <ele>1453.1999511719</ele>
        <time>2024-10-15T07:09:33.000Z</time>
      </trkpt>
      <trkpt lat="45.10754" lon="5.99515">
        <ele>1453.1999511719</ele>
        <time>2024-10-15T07:09:34.000Z</time>
      </trkpt>
      <trkpt lat="45.10752" lon="5.99517">
        <ele>1453.5999755859</ele>
        <time>2024-10-15T07:09:35.000Z</time>
      </trkpt>
      <trkpt lat="45.10751" lon="5.99519">
        <ele>1453.5999755859</ele>
        <time>2024-10-15T07:09:36.000Z</time>
      </trkpt>
      <trkpt lat="45.1075" lon="5.99521">
        <ele>1454</ele>
        <time>2024-10-15T07:09:37.000Z</time>
      </trkpt>
      <trkpt lat="45.10748" lon="5.99522">
        <ele>1454.1999511719</ele>
        <time>2024-10-15T07:09:38.000Z</time>
      </trkpt>
      <trkpt lat="45.10747" lon="5.99524">
        <ele>1454.4000244141</ele>
        <time>2024-10-15T07:09:39.000Z</time>
      </trkpt>
      <trkpt lat="45.10747" lon="5.99525">
        <ele>1454.5999755859</ele>
        <time>2024-10-15T07:09:40.000Z</time>
      </trkpt>
      <trkpt lat="45.10746" lon="5.99525">
        <ele>1454.5999755859</ele>
        <time>2024-10-15T07:09:41.000Z</time>
      </trkpt>
      <trkpt lat="45.10746" lon="5.99525">
        <ele>1454.5999755859</ele>
        <time>2024-10-15T07:09:42.000Z</time>
      </trkpt>
      <trkpt lat="45.10745" lon="5.99525">
        <ele>1454.5999755859</ele>
        <time>2024-10-15T07:09:43.000Z</time>
      </trkpt>
      <trkpt lat="45.10745" lon="5.99525">
        <ele>1454.8000488281</ele>
        <time>2024-10-15T07:09:44.000Z</time>
      </trkpt>
      <trkpt lat="45.10744" lon="5.99524">
        <ele>1454.8000488281</ele>
        <time>2024-10-15T07:09:45.000Z</time>
      </trkpt>
      <trkpt lat="45.10744" lon="5.99523">
        <ele>1455</ele>
        <time>2024-10-15T07:09:46.000Z</time>
      </trkpt>
      <trkpt lat="45.10744" lon="5.99523">
        <ele>1455.4000244141</ele>
        <time>2024-10-15T07:09:47.000Z</time>
      </trkpt>
      <trkpt lat="45.10744" lon="5.99523">
        <ele>1455.8000488281</ele>
        <time>2024-10-15T07:09:48.000Z</time>
      </trkpt>
      <trkpt lat="45.10744" lon="5.99522">
        <ele>1455.8000488281</ele>
        <time>2024-10-15T07:09:49.000Z</time>
      </trkpt>
      <trkpt lat="45.10744" lon="5.99522">
        <ele>1456</ele>
        <time>2024-10-15T07:09:50.000Z</time>
      </trkpt>
      <trkpt lat="45.10744" lon="5.99522">
        <ele>1456.1999511719</ele>
        <time>2024-10-15T07:09:51.000Z</time>
      </trkpt>
      <trkpt lat="45.10744" lon="5.99522">
        <ele>1456.1999511719</ele>
        <time>2024-10-15T07:09:52.000Z</time>
      </trkpt>
      <trkpt lat="45.10744" lon="5.99522">
        <ele>1456.4000244141</ele>
        <time>2024-10-15T07:09:53.000Z</time>
      </trkpt>
      <trkpt lat="45.10744" lon="5.99521">
        <ele>1456.8000488281</ele>
        <time>2024-10-15T07:09:54.000Z</time>
      </trkpt>
      <trkpt lat="45.10744" lon="5.99521">
        <ele>1457</ele>
        <time>2024-10-15T07:09:55.000Z</time>
      </trkpt>
      <trkpt lat="45.10744" lon="5.9952">
        <ele>1457.1999511719</ele>
        <time>2024-10-15T07:09:56.000Z</time>
      </trkpt>
      <trkpt lat="45.10744" lon="5.9952">
        <ele>1457.4000244141</ele>
        <time>2024-10-15T07:09:57.000Z</time>
      </trkpt>
      <trkpt lat="45.10744" lon="5.9952">
        <ele>1457.5999755859</ele>
        <time>2024-10-15T07:09:58.000Z</time>
      </trkpt>
      <trkpt lat="45.10744" lon="5.99519">
        <ele>1457.8000488281</ele>
        <time>2024-10-15T07:09:59.000Z</time>
      </trkpt>
      <trkpt lat="45.10743" lon="5.99519">
        <ele>1457.8000488281</ele>
        <time>2024-10-15T07:10:00.000Z</time>
      </trkpt>
      <trkpt lat="45.10743" lon="5.99519">
        <ele>1458</ele>
        <time>2024-10-15T07:10:01.000Z</time>
      </trkpt>
      <trkpt lat="45.10743" lon="5.99519">
        <ele>1458.1999511719</ele>
        <time>2024-10-15T07:10:02.000Z</time>
      </trkpt>
      <trkpt lat="45.10743" lon="5.99518">
        <ele>1458.4000244141</ele>
        <time>2024-10-15T07:10:03.000Z</time>
      </trkpt>
      <trkpt lat="45.10742" lon="5.99518">
        <ele>1458.5999755859</ele>
        <time>2024-10-15T07:10:04.000Z</time>
      </trkpt>
      <trkpt lat="45.10742" lon="5.99518">
        <ele>1458.5999755859</ele>
        <time>2024-10-15T07:10:05.000Z</time>
      </trkpt>
      <trkpt lat="45.10741" lon="5.99519">
        <ele>1458.8000488281</ele>
        <time>2024-10-15T07:10:06.000Z</time>
      </trkpt>
      <trkpt lat="45.10741" lon="5.99518">
        <ele>1459.1999511719</ele>
        <time>2024-10-15T07:10:07.000Z</time>
      </trkpt>
      <trkpt lat="45.1074" lon="5.99519">
        <ele>1459.4000244141</ele>
        <time>2024-10-15T07:10:08.000Z</time>
      </trkpt>
      <trkpt lat="45.1074" lon="5.99519">
        <ele>1459.5999755859</ele>
        <time>2024-10-15T07:10:09.000Z</time>
      </trkpt>
      <trkpt lat="45.1074" lon="5.9952">
        <ele>1460</ele>
        <time>2024-10-15T07:10:10.000Z</time>
      </trkpt>
      <trkpt lat="45.10739" lon="5.9952">
        <ele>1460.4000244141</ele>
        <time>2024-10-15T07:10:11.000Z</time>
      </trkpt>
      <trkpt lat="45.10738" lon="5.99519">
        <ele>1460.5999755859</ele>
        <time>2024-10-15T07:10:12.000Z</time>
      </trkpt>
      <trkpt lat="45.10738" lon="5.99519">
        <ele>1460.5999755859</ele>
        <time>2024-10-15T07:10:13.000Z</time>
      </trkpt>
      <trkpt lat="45.10738" lon="5.99518">
        <ele>1460.8000488281</ele>
        <time>2024-10-15T07:10:14.000Z</time>
      </trkpt>
      <trkpt lat="45.10737" lon="5.99516">
        <ele>1460.8000488281</ele>
        <time>2024-10-15T07:10:15.000Z</time>
      </trkpt>
      <trkpt lat="45.10738" lon="5.99516">
        <ele>1461</ele>
        <time>2024-10-15T07:10:16.000Z</time>
      </trkpt>
      <trkpt lat="45.10737" lon="5.99515">
        <ele>1461.1999511719</ele>
        <time>2024-10-15T07:10:17.000Z</time>
      </trkpt>
      <trkpt lat="45.10737" lon="5.99514">
        <ele>1461.1999511719</ele>
        <time>2024-10-15T07:10:18.000Z</time>
      </trkpt>
      <trkpt lat="45.10737" lon="5.99514">
        <ele>1461.4000244141</ele>
        <time>2024-10-15T07:10:19.000Z</time>
      </trkpt>
      <trkpt lat="45.10736" lon="5.99515">
        <ele>1461.4000244141</ele>
        <time>2024-10-15T07:10:20.000Z</time>
      </trkpt>
      <trkpt lat="45.10736" lon="5.99515">
        <ele>1461.5999755859</ele>
        <time>2024-10-15T07:10:21.000Z</time>
      </trkpt>
      <trkpt lat="45.10736" lon="5.99514">
        <ele>1462</ele>
        <time>2024-10-15T07:10:22.000Z</time>
      </trkpt>
      <trkpt lat="45.10736" lon="5.99514">
        <ele>1462.1999511719</ele>
        <time>2024-10-15T07:10:23.000Z</time>
      </trkpt>
      <trkpt lat="45.10735" lon="5.99514">
        <ele>1462.4000244141</ele>
        <time>2024-10-15T07:10:24.000Z</time>
      </trkpt>
      <trkpt lat="45.10735" lon="5.99514">
        <ele>1462.5999755859</ele>
        <time>2024-10-15T07:10:25.000Z</time>
      </trkpt>
      <trkpt lat="45.10734" lon="5.99514">
        <ele>1462.8000488281</ele>
        <time>2024-10-15T07:10:26.000Z</time>
      </trkpt>
      <trkpt lat="45.10733" lon="5.99513">
        <ele>1463</ele>
        <time>2024-10-15T07:10:27.000Z</time>
      </trkpt>
      <trkpt lat="45.10733" lon="5.99512">
        <ele>1463.1999511719</ele>
        <time>2024-10-15T07:10:28.000Z</time>
      </trkpt>
      <trkpt lat="45.10733" lon="5.99511">
        <ele>1463.4000244141</ele>
        <time>2024-10-15T07:10:29.000Z</time>
      </trkpt>
      <trkpt lat="45.10733" lon="5.99511">
        <ele>1463.4000244141</ele>
        <time>2024-10-15T07:10:30.000Z</time>
      </trkpt>
      <trkpt lat="45.10734" lon="5.9951">
        <ele>1463.8000488281</ele>
        <time>2024-10-15T07:10:31.000Z</time>
      </trkpt>
      <trkpt lat="45.10734" lon="5.9951">
        <ele>1464</ele>
        <time>2024-10-15T07:10:32.000Z</time>
      </trkpt>
      <trkpt lat="45.10734" lon="5.99509">
        <ele>1464</ele>
        <time>2024-10-15T07:10:33.000Z</time>
      </trkpt>
      <trkpt lat="45.10734" lon="5.99509">
        <ele>1464.1999511719</ele>
        <time>2024-10-15T07:10:34.000Z</time>
      </trkpt>
      <trkpt lat="45.10733" lon="5.99508">
        <ele>1464.1999511719</ele>
        <time>2024-10-15T07:10:35.000Z</time>
      </trkpt>
      <trkpt lat="45.10733" lon="5.99508">
        <ele>1464.4000244141</ele>
        <time>2024-10-15T07:10:36.000Z</time>
      </trkpt>
      <trkpt lat="45.10733" lon="5.99507">
        <ele>1464.4000244141</ele>
        <time>2024-10-15T07:10:37.000Z</time>
      </trkpt>
      <trkpt lat="45.10733" lon="5.99507">
        <ele>1464.5999755859</ele>
        <time>2024-10-15T07:10:38.000Z</time>
      </trkpt>
      <trkpt lat="45.10733" lon="5.99506">
        <ele>1464.8000488281</ele>
        <time>2024-10-15T07:10:39.000Z</time>
      </trkpt>
      <trkpt lat="45.10732" lon="5.99506">
        <ele>1465</ele>
        <time>2024-10-15T07:10:40.000Z</time>
      </trkpt>
      <trkpt lat="45.10732" lon="5.99505">
        <ele>1465.1999511719</ele>
        <time>2024-10-15T07:10:41.000Z</time>
      </trkpt>
      <trkpt lat="45.10732" lon="5.99505">
        <ele>1465.1999511719</ele>
        <time>2024-10-15T07:10:42.000Z</time>
      </trkpt>
      <trkpt lat="45.10732" lon="5.99505">
        <ele>1465.5999755859</ele>
        <time>2024-10-15T07:10:43.000Z</time>
      </trkpt>
      <trkpt lat="45.10732" lon="5.99505">
        <ele>1466</ele>
        <time>2024-10-15T07:10:44.000Z</time>
      </trkpt>
      <trkpt lat="45.10732" lon="5.99504">
        <ele>1466.1999511719</ele>
        <time>2024-10-15T07:10:45.000Z</time>
      </trkpt>
      <trkpt lat="45.10732" lon="5.99504">
        <ele>1466.4000244141</ele>
        <time>2024-10-15T07:10:46.000Z</time>
      </trkpt>
      <trkpt lat="45.10732" lon="5.99504">
        <ele>1466.5999755859</ele>
        <time>2024-10-15T07:10:47.000Z</time>
      </trkpt>
      <trkpt lat="45.10732" lon="5.99504">
        <ele>1466.8000488281</ele>
        <time>2024-10-15T07:10:48.000Z</time>
      </trkpt>
      <trkpt lat="45.10732" lon="5.99504">
        <ele>1467</ele>
        <time>2024-10-15T07:10:49.000Z</time>
      </trkpt>
      <trkpt lat="45.10732" lon="5.99504">
        <ele>1467.1999511719</ele>
        <time>2024-10-15T07:10:50.000Z</time>
      </trkpt>
      <trkpt lat="45.10732" lon="5.99504">
        <ele>1467.4000244141</ele>
        <time>2024-10-15T07:10:51.000Z</time>
      </trkpt>
      <trkpt lat="45.10732" lon="5.99504">
        <ele>1467.5999755859</ele>
        <time>2024-10-15T07:10:52.000Z</time>
      </trkpt>
      <trkpt lat="45.10732" lon="5.99504">
        <ele>1467.8000488281</ele>
        <time>2024-10-15T07:10:53.000Z</time>
      </trkpt>
      <trkpt lat="45.10732" lon="5.99504">
        <ele>1467.8000488281</ele>
        <time>2024-10-15T07:10:54.000Z</time>
      </trkpt>
      <trkpt lat="45.10732" lon="5.99504">
        <ele>1467.8000488281</ele>
        <time>2024-10-15T07:10:55.000Z</time>
      </trkpt>
      <trkpt lat="45.10732" lon="5.99504">
        <ele>1468.1999511719</ele>
        <time>2024-10-15T07:10:56.000Z</time>
      </trkpt>
      <trkpt lat="45.10732" lon="5.99504">
        <ele>1468.4000244141</ele>
        <time>2024-10-15T07:10:57.000Z</time>
      </trkpt>
      <trkpt lat="45.10732" lon="5.99504">
        <ele>1468.8000488281</ele>
        <time>2024-10-15T07:10:58.000Z</time>
      </trkpt>
      <trkpt lat="45.10732" lon="5.99504">
        <ele>1469</ele>
        <time>2024-10-15T07:10:59.000Z</time>
      </trkpt>
      <trkpt lat="45.10732" lon="5.99504">
        <ele>1469.5999755859</ele>
        <time>2024-10-15T07:11:00.000Z</time>
      </trkpt>
      <trkpt lat="45.10732" lon="5.99504">
        <ele>1469.5999755859</ele>
        <time>2024-10-15T07:11:01.000Z</time>
      </trkpt>
      <trkpt lat="45.10732" lon="5.99504">
        <ele>1469.8000488281</ele>
        <time>2024-10-15T07:11:02.000Z</time>
      </trkpt>
      <trkpt lat="45.10732" lon="5.99504">
        <ele>1469.8000488281</ele>
        <time>2024-10-15T07:11:03.000Z</time>
      </trkpt>
      <trkpt lat="45.10732" lon="5.99504">
        <ele>1469.8000488281</ele>
        <time>2024-10-15T07:11:04.000Z</time>
      </trkpt>
      <trkpt lat="45.10732" lon="5.99504">
        <ele>1470</ele>
        <time>2024-10-15T07:11:05.000Z</time>
      </trkpt>
      <trkpt lat="45.10732" lon="5.99504">
        <ele>1470</ele>
        <time>2024-10-15T07:11:06.000Z</time>
      </trkpt>
      <trkpt lat="45.10731" lon="5.99504">
        <ele>1470</ele>
        <time>2024-10-15T07:11:07.000Z</time>
      </trkpt>
      <trkpt lat="45.10731" lon="5.99504">
        <ele>1470.1999511719</ele>
        <time>2024-10-15T07:11:08.000Z</time>
      </trkpt>
      <trkpt lat="45.10731" lon="5.99504">
        <ele>1470.4000244141</ele>
        <time>2024-10-15T07:11:09.000Z</time>
      </trkpt>
      <trkpt lat="45.1073" lon="5.99503">
        <ele>1470.5999755859</ele>
        <time>2024-10-15T07:11:10.000Z</time>
      </trkpt>
      <trkpt lat="45.1073" lon="5.99503">
        <ele>1470.8000488281</ele>
        <time>2024-10-15T07:11:11.000Z</time>
      </trkpt>
      <trkpt lat="45.1073" lon="5.99503">
        <ele>1471</ele>
        <time>2024-10-15T07:11:12.000Z</time>
      </trkpt>
      <trkpt lat="45.1073" lon="5.99503">
        <ele>1471.4000244141</ele>
        <time>2024-10-15T07:11:13.000Z</time>
      </trkpt>
      <trkpt lat="45.1073" lon="5.99503">
        <ele>1471.5999755859</ele>
        <time>2024-10-15T07:11:14.000Z</time>
      </trkpt>
      <trkpt lat="45.1073" lon="5.99503">
        <ele>1471.5999755859</ele>
        <time>2024-10-15T07:11:15.000Z</time>
      </trkpt>
      <trkpt lat="45.10729" lon="5.99502">
        <ele>1471.8000488281</ele>
        <time>2024-10-15T07:11:16.000Z</time>
      </trkpt>
      <trkpt lat="45.10729" lon="5.99502">
        <ele>1472</ele>
        <time>2024-10-15T07:11:17.000Z</time>
      </trkpt>
      <trkpt lat="45.10728" lon="5.99502">
        <ele>1472</ele>
        <time>2024-10-15T07:11:18.000Z</time>
      </trkpt>
      <trkpt lat="45.10727" lon="5.99502">
        <ele>1472.1999511719</ele>
        <time>2024-10-15T07:11:19.000Z</time>
      </trkpt>
      <trkpt lat="45.10727" lon="5.99502">
        <ele>1472.1999511719</ele>
        <time>2024-10-15T07:11:20.000Z</time>
      </trkpt>
      <trkpt lat="45.10726" lon="5.99502">
        <ele>1472.4000244141</ele>
        <time>2024-10-15T07:11:21.000Z</time>
      </trkpt>
      <trkpt lat="45.10726" lon="5.99501">
        <ele>1472.8000488281</ele>
        <time>2024-10-15T07:11:22.000Z</time>
      </trkpt>
      <trkpt lat="45.10725" lon="5.99501">
        <ele>1472.8000488281</ele>
        <time>2024-10-15T07:11:23.000Z</time>
      </trkpt>
      <trkpt lat="45.10725" lon="5.99501">
        <ele>1473</ele>
        <time>2024-10-15T07:11:24.000Z</time>
      </trkpt>
      <trkpt lat="45.10724" lon="5.995">
        <ele>1473.1999511719</ele>
        <time>2024-10-15T07:11:25.000Z</time>
      </trkpt>
      <trkpt lat="45.10724" lon="5.995">
        <ele>1473.4000244141</ele>
        <time>2024-10-15T07:11:26.000Z</time>
      </trkpt>
      <trkpt lat="45.10723" lon="5.99501">
        <ele>1473.4000244141</ele>
        <time>2024-10-15T07:11:27.000Z</time>
      </trkpt>
      <trkpt lat="45.10722" lon="5.99499">
        <ele>1473.5999755859</ele>
        <time>2024-10-15T07:11:28.000Z</time>
      </trkpt>
      <trkpt lat="45.10721" lon="5.99499">
        <ele>1473.5999755859</ele>
        <time>2024-10-15T07:11:29.000Z</time>
      </trkpt>
      <trkpt lat="45.10719" lon="5.99498">
        <ele>1473.8000488281</ele>
        <time>2024-10-15T07:11:30.000Z</time>
      </trkpt>
      <trkpt lat="45.10718" lon="5.99497">
        <ele>1474</ele>
        <time>2024-10-15T07:11:31.000Z</time>
      </trkpt>
      <trkpt lat="45.10717" lon="5.99496">
        <ele>1474</ele>
        <time>2024-10-15T07:11:32.000Z</time>
      </trkpt>
      <trkpt lat="45.10716" lon="5.99496">
        <ele>1474.1999511719</ele>
        <time>2024-10-15T07:11:33.000Z</time>
      </trkpt>
      <trkpt lat="45.10715" lon="5.99494">
        <ele>1474.4000244141</ele>
        <time>2024-10-15T07:11:34.000Z</time>
      </trkpt>
      <trkpt lat="45.10713" lon="5.99493">
        <ele>1474.5999755859</ele>
        <time>2024-10-15T07:11:35.000Z</time>
      </trkpt>
      <trkpt lat="45.10713" lon="5.99492">
        <ele>1474.5999755859</ele>
        <time>2024-10-15T07:11:36.000Z</time>
      </trkpt>
      <trkpt lat="45.10712" lon="5.99491">
        <ele>1474.8000488281</ele>
        <time>2024-10-15T07:11:37.000Z</time>
      </trkpt>
      <trkpt lat="45.10712" lon="5.99491">
        <ele>1475.1999511719</ele>
        <time>2024-10-15T07:11:38.000Z</time>
      </trkpt>
      <trkpt lat="45.10712" lon="5.9949">
        <ele>1475.4000244141</ele>
        <time>2024-10-15T07:11:39.000Z</time>
      </trkpt>
      <trkpt lat="45.10712" lon="5.99491">
        <ele>1475.4000244141</ele>
        <time>2024-10-15T07:11:40.000Z</time>
      </trkpt>
      <trkpt lat="45.10712" lon="5.9949">
        <ele>1475.5999755859</ele>
        <time>2024-10-15T07:11:41.000Z</time>
      </trkpt>
      <trkpt lat="45.10712" lon="5.9949">
        <ele>1476</ele>
        <time>2024-10-15T07:11:42.000Z</time>
      </trkpt>
      <trkpt lat="45.10712" lon="5.99489">
        <ele>1476.1999511719</ele>
        <time>2024-10-15T07:11:43.000Z</time>
      </trkpt>
      <trkpt lat="45.10711" lon="5.99489">
        <ele>1476.4000244141</ele>
        <time>2024-10-15T07:11:44.000Z</time>
      </trkpt>
      <trkpt lat="45.10711" lon="5.99489">
        <ele>1476.5999755859</ele>
        <time>2024-10-15T07:11:45.000Z</time>
      </trkpt>
      <trkpt lat="45.10711" lon="5.99489">
        <ele>1476.8000488281</ele>
        <time>2024-10-15T07:11:46.000Z</time>
      </trkpt>
      <trkpt lat="45.10711" lon="5.99489">
        <ele>1476.8000488281</ele>
        <time>2024-10-15T07:11:47.000Z</time>
      </trkpt>
      <trkpt lat="45.1071" lon="5.99489">
        <ele>1477.1999511719</ele>
        <time>2024-10-15T07:11:48.000Z</time>
      </trkpt>
      <trkpt lat="45.10709" lon="5.99489">
        <ele>1477.5999755859</ele>
        <time>2024-10-15T07:11:49.000Z</time>
      </trkpt>
      <trkpt lat="45.10709" lon="5.99489">
        <ele>1477.8000488281</ele>
        <time>2024-10-15T07:11:50.000Z</time>
      </trkpt>
      <trkpt lat="45.10708" lon="5.9949">
        <ele>1478</ele>
        <time>2024-10-15T07:11:51.000Z</time>
      </trkpt>
      <trkpt lat="45.10708" lon="5.9949">
        <ele>1478</ele>
        <time>2024-10-15T07:11:52.000Z</time>
      </trkpt>
      <trkpt lat="45.10708" lon="5.9949">
        <ele>1478.4000244141</ele>
        <time>2024-10-15T07:11:53.000Z</time>
      </trkpt>
      <trkpt lat="45.10707" lon="5.9949">
        <ele>1478.5999755859</ele>
        <time>2024-10-15T07:11:54.000Z</time>
      </trkpt>
      <trkpt lat="45.10707" lon="5.9949">
        <ele>1478.5999755859</ele>
        <time>2024-10-15T07:11:55.000Z</time>
      </trkpt>
      <trkpt lat="45.10706" lon="5.99491">
        <ele>1479</ele>
        <time>2024-10-15T07:11:56.000Z</time>
      </trkpt>
      <trkpt lat="45.10706" lon="5.9949">
        <ele>1479.1999511719</ele>
        <time>2024-10-15T07:11:57.000Z</time>
      </trkpt>
      <trkpt lat="45.10705" lon="5.9949">
        <ele>1479.4000244141</ele>
        <time>2024-10-15T07:11:58.000Z</time>
      </trkpt>
      <trkpt lat="45.10705" lon="5.99489">
        <ele>1479.5999755859</ele>
        <time>2024-10-15T07:11:59.000Z</time>
      </trkpt>
      <trkpt lat="45.10704" lon="5.99489">
        <ele>1480</ele>
        <time>2024-10-15T07:12:00.000Z</time>
      </trkpt>
      <trkpt lat="45.10704" lon="5.99489">
        <ele>1480.1999511719</ele>
        <time>2024-10-15T07:12:01.000Z</time>
      </trkpt>
      <trkpt lat="45.10704" lon="5.99488">
        <ele>1480.5999755859</ele>
        <time>2024-10-15T07:12:02.000Z</time>
      </trkpt>
      <trkpt lat="45.10704" lon="5.99488">
        <ele>1480.8000488281</ele>
        <time>2024-10-15T07:12:03.000Z</time>
      </trkpt>
      <trkpt lat="45.10704" lon="5.99488">
        <ele>1481</ele>
        <time>2024-10-15T07:12:04.000Z</time>
      </trkpt>
      <trkpt lat="45.10704" lon="5.99489">
        <ele>1481.1999511719</ele>
        <time>2024-10-15T07:12:05.000Z</time>
      </trkpt>
      <trkpt lat="45.10703" lon="5.99489">
        <ele>1481.1999511719</ele>
        <time>2024-10-15T07:12:06.000Z</time>
      </trkpt>
      <trkpt lat="45.10703" lon="5.99489">
        <ele>1481.4000244141</ele>
        <time>2024-10-15T07:12:07.000Z</time>
      </trkpt>
      <trkpt lat="45.10702" lon="5.99489">
        <ele>1481.8000488281</ele>
        <time>2024-10-15T07:12:08.000Z</time>
      </trkpt>
      <trkpt lat="45.10702" lon="5.99489">
        <ele>1481.8000488281</ele>
        <time>2024-10-15T07:12:09.000Z</time>
      </trkpt>
      <trkpt lat="45.10702" lon="5.99489">
        <ele>1482.1999511719</ele>
        <time>2024-10-15T07:12:10.000Z</time>
      </trkpt>
      <trkpt lat="45.10702" lon="5.99488">
        <ele>1482.4000244141</ele>
        <time>2024-10-15T07:12:11.000Z</time>
      </trkpt>
      <trkpt lat="45.10702" lon="5.99488">
        <ele>1482.4000244141</ele>
        <time>2024-10-15T07:12:12.000Z</time>
      </trkpt>
      <trkpt lat="45.10702" lon="5.99487">
        <ele>1482.4000244141</ele>
        <time>2024-10-15T07:12:13.000Z</time>
      </trkpt>
      <trkpt lat="45.10702" lon="5.99486">
        <ele>1482.5999755859</ele>
        <time>2024-10-15T07:12:14.000Z</time>
      </trkpt>
      <trkpt lat="45.10701" lon="5.99485">
        <ele>1482.5999755859</ele>
        <time>2024-10-15T07:12:15.000Z</time>
      </trkpt>
      <trkpt lat="45.10701" lon="5.99484">
        <ele>1482.8000488281</ele>
        <time>2024-10-15T07:12:16.000Z</time>
      </trkpt>
      <trkpt lat="45.10701" lon="5.99484">
        <ele>1483</ele>
        <time>2024-10-15T07:12:17.000Z</time>
      </trkpt>
      <trkpt lat="45.10701" lon="5.99483">
        <ele>1483.1999511719</ele>
        <time>2024-10-15T07:12:18.000Z</time>
      </trkpt>
      <trkpt lat="45.10701" lon="5.99483">
        <ele>1483.5999755859</ele>
        <time>2024-10-15T07:12:19.000Z</time>
      </trkpt>
      <trkpt lat="45.10701" lon="5.99482">
        <ele>1483.8000488281</ele>
        <time>2024-10-15T07:12:20.000Z</time>
      </trkpt>
      <trkpt lat="45.10701" lon="5.99481">
        <ele>1484.1999511719</ele>
        <time>2024-10-15T07:12:21.000Z</time>
      </trkpt>
      <trkpt lat="45.10701" lon="5.9948">
        <ele>1484.5999755859</ele>
        <time>2024-10-15T07:12:22.000Z</time>
      </trkpt>
      <trkpt lat="45.10701" lon="5.99479">
        <ele>1484.5999755859</ele>
        <time>2024-10-15T07:12:23.000Z</time>
      </trkpt>
      <trkpt lat="45.10701" lon="5.99478">
        <ele>1484.8000488281</ele>
        <time>2024-10-15T07:12:24.000Z</time>
      </trkpt>
      <trkpt lat="45.10702" lon="5.99477">
        <ele>1485</ele>
        <time>2024-10-15T07:12:25.000Z</time>
      </trkpt>
      <trkpt lat="45.10702" lon="5.99477">
        <ele>1485</ele>
        <time>2024-10-15T07:12:26.000Z</time>
      </trkpt>
      <trkpt lat="45.10702" lon="5.99477">
        <ele>1485.1999511719</ele>
        <time>2024-10-15T07:12:27.000Z</time>
      </trkpt>
      <trkpt lat="45.10702" lon="5.99477">
        <ele>1485.8000488281</ele>
        <time>2024-10-15T07:12:28.000Z</time>
      </trkpt>
      <trkpt lat="45.10702" lon="5.99477">
        <ele>1486</ele>
        <time>2024-10-15T07:12:29.000Z</time>
      </trkpt>
      <trkpt lat="45.10701" lon="5.99476">
        <ele>1486.1999511719</ele>
        <time>2024-10-15T07:12:30.000Z</time>
      </trkpt>
      <trkpt lat="45.10702" lon="5.99474">
        <ele>1486.4000244141</ele>
        <time>2024-10-15T07:12:31.000Z</time>
      </trkpt>
      <trkpt lat="45.10702" lon="5.99474">
        <ele>1486.8000488281</ele>
        <time>2024-10-15T07:12:32.000Z</time>
      </trkpt>
      <trkpt lat="45.10702" lon="5.99473">
        <ele>1486.8000488281</ele>
        <time>2024-10-15T07:12:33.000Z</time>
      </trkpt>
      <trkpt lat="45.10702" lon="5.99473">
        <ele>1487</ele>
        <time>2024-10-15T07:12:34.000Z</time>
      </trkpt>
      <trkpt lat="45.10702" lon="5.99473">
        <ele>1487.1999511719</ele>
        <time>2024-10-15T07:12:35.000Z</time>
      </trkpt>
      <trkpt lat="45.10701" lon="5.99472">
        <ele>1487.4000244141</ele>
        <time>2024-10-15T07:12:36.000Z</time>
      </trkpt>
      <trkpt lat="45.10701" lon="5.99471">
        <ele>1487.8000488281</ele>
        <time>2024-10-15T07:12:37.000Z</time>
      </trkpt>
      <trkpt lat="45.10702" lon="5.99469">
        <ele>1488</ele>
        <time>2024-10-15T07:12:38.000Z</time>
      </trkpt>
      <trkpt lat="45.10702" lon="5.99468">
        <ele>1488.1999511719</ele>
        <time>2024-10-15T07:12:39.000Z</time>
      </trkpt>
      <trkpt lat="45.10702" lon="5.99467">
        <ele>1488.4000244141</ele>
        <time>2024-10-15T07:12:40.000Z</time>
      </trkpt>
      <trkpt lat="45.10701" lon="5.99466">
        <ele>1488.5999755859</ele>
        <time>2024-10-15T07:12:41.000Z</time>
      </trkpt>
      <trkpt lat="45.10702" lon="5.99465">
        <ele>1488.8000488281</ele>
        <time>2024-10-15T07:12:42.000Z</time>
      </trkpt>
      <trkpt lat="45.10702" lon="5.99465">
        <ele>1488.8000488281</ele>
        <time>2024-10-15T07:12:43.000Z</time>
      </trkpt>
      <trkpt lat="45.10702" lon="5.99465">
        <ele>1489.1999511719</ele>
        <time>2024-10-15T07:12:44.000Z</time>
      </trkpt>
      <trkpt lat="45.10702" lon="5.99464">
        <ele>1489.4000244141</ele>
        <time>2024-10-15T07:12:45.000Z</time>
      </trkpt>
      <trkpt lat="45.10703" lon="5.99464">
        <ele>1489.8000488281</ele>
        <time>2024-10-15T07:12:46.000Z</time>
      </trkpt>
      <trkpt lat="45.10703" lon="5.99463">
        <ele>1489.8000488281</ele>
        <time>2024-10-15T07:12:47.000Z</time>
      </trkpt>
      <trkpt lat="45.10703" lon="5.99462">
        <ele>1490</ele>
        <time>2024-10-15T07:12:48.000Z</time>
      </trkpt>
      <trkpt lat="45.10704" lon="5.99463">
        <ele>1490.1999511719</ele>
        <time>2024-10-15T07:12:49.000Z</time>
      </trkpt>
      <trkpt lat="45.10704" lon="5.99463">
        <ele>1490.5999755859</ele>
        <time>2024-10-15T07:12:50.000Z</time>
      </trkpt>
      <trkpt lat="45.10704" lon="5.99463">
        <ele>1490.5999755859</ele>
        <time>2024-10-15T07:12:51.000Z</time>
      </trkpt>
      <trkpt lat="45.10704" lon="5.99463">
        <ele>1490.5999755859</ele>
        <time>2024-10-15T07:12:52.000Z</time>
      </trkpt>
      <trkpt lat="45.10703" lon="5.99463">
        <ele>1490.8000488281</ele>
        <time>2024-10-15T07:12:53.000Z</time>
      </trkpt>
      <trkpt lat="45.10703" lon="5.99461">
        <ele>1490.8000488281</ele>
        <time>2024-10-15T07:12:54.000Z</time>
      </trkpt>
      <trkpt lat="45.10703" lon="5.99461">
        <ele>1491</ele>
        <time>2024-10-15T07:12:55.000Z</time>
      </trkpt>
      <trkpt lat="45.10704" lon="5.99461">
        <ele>1491.1999511719</ele>
        <time>2024-10-15T07:12:56.000Z</time>
      </trkpt>
      <trkpt lat="45.10704" lon="5.99461">
        <ele>1491.5999755859</ele>
        <time>2024-10-15T07:12:57.000Z</time>
      </trkpt>
      <trkpt lat="45.10704" lon="5.99461">
        <ele>1491.8000488281</ele>
        <time>2024-10-15T07:12:58.000Z</time>
      </trkpt>
      <trkpt lat="45.10704" lon="5.9946">
        <ele>1492</ele>
        <time>2024-10-15T07:12:59.000Z</time>
      </trkpt>
      <trkpt lat="45.10704" lon="5.9946">
        <ele>1492.1999511719</ele>
        <time>2024-10-15T07:13:00.000Z</time>
      </trkpt>
      <trkpt lat="45.10704" lon="5.99459">
        <ele>1492.4000244141</ele>
        <time>2024-10-15T07:13:01.000Z</time>
      </trkpt>
      <trkpt lat="45.10704" lon="5.99459">
        <ele>1492.5999755859</ele>
        <time>2024-10-15T07:13:02.000Z</time>
      </trkpt>
      <trkpt lat="45.10705" lon="5.99458">
        <ele>1492.8000488281</ele>
        <time>2024-10-15T07:13:03.000Z</time>
      </trkpt>
      <trkpt lat="45.10705" lon="5.99457">
        <ele>1493</ele>
        <time>2024-10-15T07:13:04.000Z</time>
      </trkpt>
      <trkpt lat="45.10705" lon="5.99457">
        <ele>1493.1999511719</ele>
        <time>2024-10-15T07:13:05.000Z</time>
      </trkpt>
      <trkpt lat="45.10705" lon="5.99457">
        <ele>1493.4000244141</ele>
        <time>2024-10-15T07:13:06.000Z</time>
      </trkpt>
      <trkpt lat="45.10705" lon="5.99456">
        <ele>1493.4000244141</ele>
        <time>2024-10-15T07:13:07.000Z</time>
      </trkpt>
      <trkpt lat="45.10705" lon="5.99456">
        <ele>1493.5999755859</ele>
        <time>2024-10-15T07:13:08.000Z</time>
      </trkpt>
      <trkpt lat="45.10705" lon="5.99454">
        <ele>1493.8000488281</ele>
        <time>2024-10-15T07:13:09.000Z</time>
      </trkpt>
      <trkpt lat="45.10705" lon="5.99453">
        <ele>1494</ele>
        <time>2024-10-15T07:13:10.000Z</time>
      </trkpt>
      <trkpt lat="45.10705" lon="5.99451">
        <ele>1494.1999511719</ele>
        <time>2024-10-15T07:13:11.000Z</time>
      </trkpt>
      <trkpt lat="45.10705" lon="5.9945">
        <ele>1494.4000244141</ele>
        <time>2024-10-15T07:13:12.000Z</time>
      </trkpt>
      <trkpt lat="45.10705" lon="5.99449">
        <ele>1494.5999755859</ele>
        <time>2024-10-15T07:13:13.000Z</time>
      </trkpt>
      <trkpt lat="45.10706" lon="5.99448">
        <ele>1494.8000488281</ele>
        <time>2024-10-15T07:13:14.000Z</time>
      </trkpt>
      <trkpt lat="45.10706" lon="5.99448">
        <ele>1495</ele>
        <time>2024-10-15T07:13:15.000Z</time>
      </trkpt>
      <trkpt lat="45.10706" lon="5.99448">
        <ele>1495</ele>
        <time>2024-10-15T07:13:16.000Z</time>
      </trkpt>
      <trkpt lat="45.10706" lon="5.99447">
        <ele>1495.1999511719</ele>
        <time>2024-10-15T07:13:17.000Z</time>
      </trkpt>
      <trkpt lat="45.10706" lon="5.99446">
        <ele>1495.1999511719</ele>
        <time>2024-10-15T07:13:18.000Z</time>
      </trkpt>
      <trkpt lat="45.10706" lon="5.99446">
        <ele>1495.4000244141</ele>
        <time>2024-10-15T07:13:19.000Z</time>
      </trkpt>
      <trkpt lat="45.10706" lon="5.99444">
        <ele>1495.5999755859</ele>
        <time>2024-10-15T07:13:20.000Z</time>
      </trkpt>
      <trkpt lat="45.10706" lon="5.99444">
        <ele>1495.8000488281</ele>
        <time>2024-10-15T07:13:21.000Z</time>
      </trkpt>
      <trkpt lat="45.10706" lon="5.99443">
        <ele>1496</ele>
        <time>2024-10-15T07:13:22.000Z</time>
      </trkpt>
      <trkpt lat="45.10706" lon="5.99443">
        <ele>1496.4000244141</ele>
        <time>2024-10-15T07:13:23.000Z</time>
      </trkpt>
      <trkpt lat="45.10706" lon="5.99443">
        <ele>1496.5999755859</ele>
        <time>2024-10-15T07:13:24.000Z</time>
      </trkpt>
      <trkpt lat="45.10706" lon="5.99443">
        <ele>1496.5999755859</ele>
        <time>2024-10-15T07:13:25.000Z</time>
      </trkpt>
      <trkpt lat="45.10706" lon="5.99443">
        <ele>1497</ele>
        <time>2024-10-15T07:13:26.000Z</time>
      </trkpt>
      <trkpt lat="45.10706" lon="5.99443">
        <ele>1497.4000244141</ele>
        <time>2024-10-15T07:13:27.000Z</time>
      </trkpt>
      <trkpt lat="45.10706" lon="5.99442">
        <ele>1497.5999755859</ele>
        <time>2024-10-15T07:13:28.000Z</time>
      </trkpt>
      <trkpt lat="45.10706" lon="5.99441">
        <ele>1497.5999755859</ele>
        <time>2024-10-15T07:13:29.000Z</time>
      </trkpt>
      <trkpt lat="45.10705" lon="5.99442">
        <ele>1498</ele>
        <time>2024-10-15T07:13:30.000Z</time>
      </trkpt>
      <trkpt lat="45.10705" lon="5.99441">
        <ele>1498.1999511719</ele>
        <time>2024-10-15T07:13:31.000Z</time>
      </trkpt>
      <trkpt lat="45.10705" lon="5.99441">
        <ele>1498.4000244141</ele>
        <time>2024-10-15T07:13:32.000Z</time>
      </trkpt>
      <trkpt lat="45.10705" lon="5.9944">
        <ele>1498.5999755859</ele>
        <time>2024-10-15T07:13:33.000Z</time>
      </trkpt>
      <trkpt lat="45.10705" lon="5.9944">
        <ele>1498.8000488281</ele>
        <time>2024-10-15T07:13:34.000Z</time>
      </trkpt>
      <trkpt lat="45.10705" lon="5.9944">
        <ele>1499</ele>
        <time>2024-10-15T07:13:35.000Z</time>
      </trkpt>
      <trkpt lat="45.10704" lon="5.99439">
        <ele>1499.4000244141</ele>
        <time>2024-10-15T07:13:36.000Z</time>
      </trkpt>
      <trkpt lat="45.10704" lon="5.99439">
        <ele>1499.5999755859</ele>
        <time>2024-10-15T07:13:37.000Z</time>
      </trkpt>
      <trkpt lat="45.10704" lon="5.99439">
        <ele>1499.5999755859</ele>
        <time>2024-10-15T07:13:38.000Z</time>
      </trkpt>
      <trkpt lat="45.10704" lon="5.99439">
        <ele>1499.8000488281</ele>
        <time>2024-10-15T07:13:39.000Z</time>
      </trkpt>
      <trkpt lat="45.10704" lon="5.99438">
        <ele>1500</ele>
        <time>2024-10-15T07:13:40.000Z</time>
      </trkpt>
      <trkpt lat="45.10704" lon="5.99438">
        <ele>1500.1999511719</ele>
        <time>2024-10-15T07:13:41.000Z</time>
      </trkpt>
      <trkpt lat="45.10703" lon="5.99438">
        <ele>1500.4000244141</ele>
        <time>2024-10-15T07:13:42.000Z</time>
      </trkpt>
      <trkpt lat="45.10703" lon="5.99437">
        <ele>1500.5999755859</ele>
        <time>2024-10-15T07:13:43.000Z</time>
      </trkpt>
      <trkpt lat="45.10702" lon="5.99437">
        <ele>1500.8000488281</ele>
        <time>2024-10-15T07:13:44.000Z</time>
      </trkpt>
      <trkpt lat="45.10701" lon="5.99436">
        <ele>1501</ele>
        <time>2024-10-15T07:13:45.000Z</time>
      </trkpt>
      <trkpt lat="45.10701" lon="5.99435">
        <ele>1501.1999511719</ele>
        <time>2024-10-15T07:13:46.000Z</time>
      </trkpt>
      <trkpt lat="45.107" lon="5.99435">
        <ele>1501.4000244141</ele>
        <time>2024-10-15T07:13:47.000Z</time>
      </trkpt>
      <trkpt lat="45.10699" lon="5.99433">
        <ele>1501.8000488281</ele>
        <time>2024-10-15T07:13:48.000Z</time>
      </trkpt>
      <trkpt lat="45.10699" lon="5.99433">
        <ele>1502</ele>
        <time>2024-10-15T07:13:49.000Z</time>
      </trkpt>
      <trkpt lat="45.10698" lon="5.99432">
        <ele>1502</ele>
        <time>2024-10-15T07:13:50.000Z</time>
      </trkpt>
      <trkpt lat="45.10698" lon="5.99432">
        <ele>1502</ele>
        <time>2024-10-15T07:13:51.000Z</time>
      </trkpt>
      <trkpt lat="45.10697" lon="5.99432">
        <ele>1502.1999511719</ele>
        <time>2024-10-15T07:13:52.000Z</time>
      </trkpt>
      <trkpt lat="45.10697" lon="5.99431">
        <ele>1502.1999511719</ele>
        <time>2024-10-15T07:13:53.000Z</time>
      </trkpt>
      <trkpt lat="45.10696" lon="5.99431">
        <ele>1502.4000244141</ele>
        <time>2024-10-15T07:13:54.000Z</time>
      </trkpt>
      <trkpt lat="45.10696" lon="5.99431">
        <ele>1502.5999755859</ele>
        <time>2024-10-15T07:13:55.000Z</time>
      </trkpt>
      <trkpt lat="45.10696" lon="5.9943">
        <ele>1502.8000488281</ele>
        <time>2024-10-15T07:13:56.000Z</time>
      </trkpt>
      <trkpt lat="45.10696" lon="5.9943">
        <ele>1503</ele>
        <time>2024-10-15T07:13:57.000Z</time>
      </trkpt>
      <trkpt lat="45.10696" lon="5.99429">
        <ele>1503.1999511719</ele>
        <time>2024-10-15T07:13:58.000Z</time>
      </trkpt>
      <trkpt lat="45.10695" lon="5.99427">
        <ele>1503.4000244141</ele>
        <time>2024-10-15T07:13:59.000Z</time>
      </trkpt>
      <trkpt lat="45.10695" lon="5.99426">
        <ele>1503.4000244141</ele>
        <time>2024-10-15T07:14:00.000Z</time>
      </trkpt>
      <trkpt lat="45.10694" lon="5.99425">
        <ele>1503.5999755859</ele>
        <time>2024-10-15T07:14:01.000Z</time>
      </trkpt>
      <trkpt lat="45.10694" lon="5.99424">
        <ele>1503.8000488281</ele>
        <time>2024-10-15T07:14:02.000Z</time>
      </trkpt>
      <trkpt lat="45.10694" lon="5.99424">
        <ele>1504</ele>
        <time>2024-10-15T07:14:03.000Z</time>
      </trkpt>
      <trkpt lat="45.10693" lon="5.99423">
        <ele>1504.1999511719</ele>
        <time>2024-10-15T07:14:04.000Z</time>
      </trkpt>
      <trkpt lat="45.10693" lon="5.99422">
        <ele>1504.5999755859</ele>
        <time>2024-10-15T07:14:05.000Z</time>
      </trkpt>
      <trkpt lat="45.10692" lon="5.9942">
        <ele>1504.8000488281</ele>
        <time>2024-10-15T07:14:06.000Z</time>
      </trkpt>
      <trkpt lat="45.10692" lon="5.99419">
        <ele>1505</ele>
        <time>2024-10-15T07:14:07.000Z</time>
      </trkpt>
      <trkpt lat="45.10692" lon="5.99418">
        <ele>1505.1999511719</ele>
        <time>2024-10-15T07:14:08.000Z</time>
      </trkpt>
      <trkpt lat="45.10692" lon="5.99417">
        <ele>1505.1999511719</ele>
        <time>2024-10-15T07:14:09.000Z</time>
      </trkpt>
      <trkpt lat="45.10692" lon="5.99416">
        <ele>1505.5999755859</ele>
        <time>2024-10-15T07:14:10.000Z</time>
      </trkpt>
      <trkpt lat="45.10691" lon="5.99415">
        <ele>1505.8000488281</ele>
        <time>2024-10-15T07:14:11.000Z</time>
      </trkpt>
      <trkpt lat="45.10691" lon="5.99415">
        <ele>1505.8000488281</ele>
        <time>2024-10-15T07:14:12.000Z</time>
      </trkpt>
      <trkpt lat="45.10691" lon="5.99415">
        <ele>1506</ele>
        <time>2024-10-15T07:14:13.000Z</time>
      </trkpt>
      <trkpt lat="45.10692" lon="5.99413">
        <ele>1506.1999511719</ele>
        <time>2024-10-15T07:14:14.000Z</time>
      </trkpt>
      <trkpt lat="45.10692" lon="5.99413">
        <ele>1506.4000244141</ele>
        <time>2024-10-15T07:14:15.000Z</time>
      </trkpt>
      <trkpt lat="45.10692" lon="5.99413">
        <ele>1506.5999755859</ele>
        <time>2024-10-15T07:14:16.000Z</time>
      </trkpt>
      <trkpt lat="45.10692" lon="5.99412">
        <ele>1507</ele>
        <time>2024-10-15T07:14:17.000Z</time>
      </trkpt>
      <trkpt lat="45.10692" lon="5.99411">
        <ele>1507.1999511719</ele>
        <time>2024-10-15T07:14:18.000Z</time>
      </trkpt>
      <trkpt lat="45.10692" lon="5.99411">
        <ele>1507.4000244141</ele>
        <time>2024-10-15T07:14:19.000Z</time>
      </trkpt>
      <trkpt lat="45.10692" lon="5.99411">
        <ele>1507.8000488281</ele>
        <time>2024-10-15T07:14:20.000Z</time>
      </trkpt>
      <trkpt lat="45.10692" lon="5.9941">
        <ele>1507.8000488281</ele>
        <time>2024-10-15T07:14:21.000Z</time>
      </trkpt>
      <trkpt lat="45.10692" lon="5.9941">
        <ele>1508</ele>
        <time>2024-10-15T07:14:22.000Z</time>
      </trkpt>
      <trkpt lat="45.10692" lon="5.99409">
        <ele>1508.1999511719</ele>
        <time>2024-10-15T07:14:23.000Z</time>
      </trkpt>
      <trkpt lat="45.10692" lon="5.99409">
        <ele>1508.4000244141</ele>
        <time>2024-10-15T07:14:24.000Z</time>
      </trkpt>
      <trkpt lat="45.10692" lon="5.99409">
        <ele>1508.4000244141</ele>
        <time>2024-10-15T07:14:25.000Z</time>
      </trkpt>
      <trkpt lat="45.10691" lon="5.99408">
        <ele>1508.5999755859</ele>
        <time>2024-10-15T07:14:26.000Z</time>
      </trkpt>
      <trkpt lat="45.10691" lon="5.99407">
        <ele>1508.8000488281</ele>
        <time>2024-10-15T07:14:27.000Z</time>
      </trkpt>
      <trkpt lat="45.10691" lon="5.99406">
        <ele>1509</ele>
        <time>2024-10-15T07:14:28.000Z</time>
      </trkpt>
      <trkpt lat="45.10691" lon="5.99405">
        <ele>1509.1999511719</ele>
        <time>2024-10-15T07:14:29.000Z</time>
      </trkpt>
      <trkpt lat="45.10691" lon="5.99405">
        <ele>1509.4000244141</ele>
        <time>2024-10-15T07:14:30.000Z</time>
      </trkpt>
      <trkpt lat="45.10691" lon="5.99405">
        <ele>1509.5999755859</ele>
        <time>2024-10-15T07:14:31.000Z</time>
      </trkpt>
      <trkpt lat="45.10691" lon="5.99405">
        <ele>1509.8000488281</ele>
        <time>2024-10-15T07:14:32.000Z</time>
      </trkpt>
      <trkpt lat="45.10691" lon="5.99404">
        <ele>1510</ele>
        <time>2024-10-15T07:14:33.000Z</time>
      </trkpt>
      <trkpt lat="45.10691" lon="5.99404">
        <ele>1510</ele>
        <time>2024-10-15T07:14:34.000Z</time>
      </trkpt>
      <trkpt lat="45.10691" lon="5.99403">
        <ele>1510.1999511719</ele>
        <time>2024-10-15T07:14:35.000Z</time>
      </trkpt>
      <trkpt lat="45.1069" lon="5.99402">
        <ele>1510.1999511719</ele>
        <time>2024-10-15T07:14:36.000Z</time>
      </trkpt>
      <trkpt lat="45.10689" lon="5.99401">
        <ele>1510.1999511719</ele>
        <time>2024-10-15T07:14:37.000Z</time>
      </trkpt>
      <trkpt lat="45.10689" lon="5.994">
        <ele>1510.1999511719</ele>
        <time>2024-10-15T07:14:38.000Z</time>
      </trkpt>
      <trkpt lat="45.10689" lon="5.994">
        <ele>1510.4000244141</ele>
        <time>2024-10-15T07:14:39.000Z</time>
      </trkpt>
      <trkpt lat="45.10689" lon="5.99398">
        <ele>1510.5999755859</ele>
        <time>2024-10-15T07:14:40.000Z</time>
      </trkpt>
      <trkpt lat="45.10688" lon="5.99397">
        <ele>1510.8000488281</ele>
        <time>2024-10-15T07:14:41.000Z</time>
      </trkpt>
      <trkpt lat="45.10688" lon="5.99396">
        <ele>1510.8000488281</ele>
        <time>2024-10-15T07:14:42.000Z</time>
      </trkpt>
      <trkpt lat="45.10687" lon="5.99394">
        <ele>1511</ele>
        <time>2024-10-15T07:14:43.000Z</time>
      </trkpt>
      <trkpt lat="45.10687" lon="5.99393">
        <ele>1511</ele>
        <time>2024-10-15T07:14:44.000Z</time>
      </trkpt>
      <trkpt lat="45.10687" lon="5.99392">
        <ele>1511.1999511719</ele>
        <time>2024-10-15T07:14:45.000Z</time>
      </trkpt>
      <trkpt lat="45.10687" lon="5.99392">
        <ele>1511.1999511719</ele>
        <time>2024-10-15T07:14:46.000Z</time>
      </trkpt>
      <trkpt lat="45.10687" lon="5.99391">
        <ele>1511.4000244141</ele>
        <time>2024-10-15T07:14:47.000Z</time>
      </trkpt>
      <trkpt lat="45.10687" lon="5.9939">
        <ele>1511.5999755859</ele>
        <time>2024-10-15T07:14:48.000Z</time>
      </trkpt>
      <trkpt lat="45.10687" lon="5.99388">
        <ele>1511.5999755859</ele>
        <time>2024-10-15T07:14:49.000Z</time>
      </trkpt>
      <trkpt lat="45.10687" lon="5.99388">
        <ele>1512</ele>
        <time>2024-10-15T07:14:50.000Z</time>
      </trkpt>
      <trkpt lat="45.10687" lon="5.99385">
        <ele>1512.1999511719</ele>
        <time>2024-10-15T07:14:51.000Z</time>
      </trkpt>
      <trkpt lat="45.10687" lon="5.99385">
        <ele>1512.4000244141</ele>
        <time>2024-10-15T07:14:52.000Z</time>
      </trkpt>
      <trkpt lat="45.10688" lon="5.99384">
        <ele>1512.5999755859</ele>
        <time>2024-10-15T07:14:53.000Z</time>
      </trkpt>
      <trkpt lat="45.10688" lon="5.99383">
        <ele>1512.8000488281</ele>
        <time>2024-10-15T07:14:54.000Z</time>
      </trkpt>
      <trkpt lat="45.10688" lon="5.99383">
        <ele>1513.1999511719</ele>
        <time>2024-10-15T07:14:55.000Z</time>
      </trkpt>
      <trkpt lat="45.10688" lon="5.99381">
        <ele>1513.1999511719</ele>
        <time>2024-10-15T07:14:56.000Z</time>
      </trkpt>
      <trkpt lat="45.10687" lon="5.99379">
        <ele>1513.4000244141</ele>
        <time>2024-10-15T07:14:57.000Z</time>
      </trkpt>
      <trkpt lat="45.10687" lon="5.99379">
        <ele>1513.5999755859</ele>
        <time>2024-10-15T07:14:58.000Z</time>
      </trkpt>
      <trkpt lat="45.10686" lon="5.99378">
        <ele>1513.8000488281</ele>
        <time>2024-10-15T07:14:59.000Z</time>
      </trkpt>
      <trkpt lat="45.10686" lon="5.99377">
        <ele>1513.8000488281</ele>
        <time>2024-10-15T07:15:00.000Z</time>
      </trkpt>
      <trkpt lat="45.10686" lon="5.99376">
        <ele>1514</ele>
        <time>2024-10-15T07:15:01.000Z</time>
      </trkpt>
      <trkpt lat="45.10686" lon="5.99375">
        <ele>1514.1999511719</ele>
        <time>2024-10-15T07:15:02.000Z</time>
      </trkpt>
      <trkpt lat="45.10686" lon="5.99375">
        <ele>1514.1999511719</ele>
        <time>2024-10-15T07:15:03.000Z</time>
      </trkpt>
      <trkpt lat="45.10685" lon="5.99373">
        <ele>1514.4000244141</ele>
        <time>2024-10-15T07:15:04.000Z</time>
      </trkpt>
      <trkpt lat="45.10685" lon="5.99372">
        <ele>1514.5999755859</ele>
        <time>2024-10-15T07:15:05.000Z</time>
      </trkpt>
      <trkpt lat="45.10684" lon="5.9937">
        <ele>1514.8000488281</ele>
        <time>2024-10-15T07:15:06.000Z</time>
      </trkpt>
      <trkpt lat="45.10684" lon="5.99369">
        <ele>1515</ele>
        <time>2024-10-15T07:15:07.000Z</time>
      </trkpt>
      <trkpt lat="45.10683" lon="5.99369">
        <ele>1515</ele>
        <time>2024-10-15T07:15:08.000Z</time>
      </trkpt>
      <trkpt lat="45.10682" lon="5.99368">
        <ele>1515.1999511719</ele>
        <time>2024-10-15T07:15:09.000Z</time>
      </trkpt>
      <trkpt lat="45.10682" lon="5.99368">
        <ele>1515.4000244141</ele>
        <time>2024-10-15T07:15:10.000Z</time>
      </trkpt>
      <trkpt lat="45.10681" lon="5.99368">
        <ele>1515.4000244141</ele>
        <time>2024-10-15T07:15:11.000Z</time>
      </trkpt>
      <trkpt lat="45.10681" lon="5.99369">
        <ele>1515.5999755859</ele>
        <time>2024-10-15T07:15:12.000Z</time>
      </trkpt>
      <trkpt lat="45.1068" lon="5.99369">
        <ele>1515.5999755859</ele>
        <time>2024-10-15T07:15:13.000Z</time>
      </trkpt>
      <trkpt lat="45.10679" lon="5.9937">
        <ele>1515.5999755859</ele>
        <time>2024-10-15T07:15:14.000Z</time>
      </trkpt>
      <trkpt lat="45.10678" lon="5.9937">
        <ele>1515.5999755859</ele>
        <time>2024-10-15T07:15:15.000Z</time>
      </trkpt>
      <trkpt lat="45.10677" lon="5.9937">
        <ele>1515.4000244141</ele>
        <time>2024-10-15T07:15:16.000Z</time>
      </trkpt>
      <trkpt lat="45.10677" lon="5.9937">
        <ele>1515.4000244141</ele>
        <time>2024-10-15T07:15:17.000Z</time>
      </trkpt>
      <trkpt lat="45.10677" lon="5.9937">
        <ele>1515.1999511719</ele>
        <time>2024-10-15T07:15:18.000Z</time>
      </trkpt>
      <trkpt lat="45.10677" lon="5.9937">
        <ele>1515.1999511719</ele>
        <time>2024-10-15T07:15:19.000Z</time>
      </trkpt>
      <trkpt lat="45.10676" lon="5.9937">
        <ele>1515.1999511719</ele>
        <time>2024-10-15T07:15:20.000Z</time>
      </trkpt>
      <trkpt lat="45.10676" lon="5.99369">
        <ele>1515.1999511719</ele>
        <time>2024-10-15T07:15:21.000Z</time>
      </trkpt>
      <trkpt lat="45.10675" lon="5.99369">
        <ele>1515.1999511719</ele>
        <time>2024-10-15T07:15:22.000Z</time>
      </trkpt>
      <trkpt lat="45.10675" lon="5.99369">
        <ele>1515.1999511719</ele>
        <time>2024-10-15T07:15:23.000Z</time>
      </trkpt>
      <trkpt lat="45.10675" lon="5.99369">
        <ele>1515.1999511719</ele>
        <time>2024-10-15T07:15:24.000Z</time>
      </trkpt>
      <trkpt lat="45.10674" lon="5.99369">
        <ele>1515.1999511719</ele>
        <time>2024-10-15T07:15:25.000Z</time>
      </trkpt>
      <trkpt lat="45.10674" lon="5.99369">
        <ele>1515.1999511719</ele>
        <time>2024-10-15T07:15:26.000Z</time>
      </trkpt>
      <trkpt lat="45.10675" lon="5.99369">
        <ele>1514.8000488281</ele>
        <time>2024-10-15T07:15:27.000Z</time>
      </trkpt>
      <trkpt lat="45.10675" lon="5.99368">
        <ele>1514.4000244141</ele>
        <time>2024-10-15T07:15:28.000Z</time>
      </trkpt>
      <trkpt lat="45.10675" lon="5.99368">
        <ele>1514.4000244141</ele>
        <time>2024-10-15T07:15:29.000Z</time>
      </trkpt>
      <trkpt lat="45.10675" lon="5.99368">
        <ele>1514.4000244141</ele>
        <time>2024-10-15T07:15:30.000Z</time>
      </trkpt>
      <trkpt lat="45.10675" lon="5.99368">
        <ele>1514.1999511719</ele>
        <time>2024-10-15T07:15:31.000Z</time>
      </trkpt>
      <trkpt lat="45.10675" lon="5.99368">
        <ele>1514</ele>
        <time>2024-10-15T07:15:32.000Z</time>
      </trkpt>
      <trkpt lat="45.10675" lon="5.99368">
        <ele>1514</ele>
        <time>2024-10-15T07:15:33.000Z</time>
      </trkpt>
      <trkpt lat="45.10674" lon="5.99368">
        <ele>1513.5999755859</ele>
        <time>2024-10-15T07:15:34.000Z</time>
      </trkpt>
      <trkpt lat="45.10674" lon="5.99367">
        <ele>1513.4000244141</ele>
        <time>2024-10-15T07:15:35.000Z</time>
      </trkpt>
      <trkpt lat="45.10674" lon="5.99367">
        <ele>1513.1999511719</ele>
        <time>2024-10-15T07:15:36.000Z</time>
      </trkpt>
      <trkpt lat="45.10674" lon="5.99367">
        <ele>1513.1999511719</ele>
        <time>2024-10-15T07:15:37.000Z</time>
      </trkpt>
      <trkpt lat="45.10674" lon="5.99366">
        <ele>1513</ele>
        <time>2024-10-15T07:15:38.000Z</time>
      </trkpt>
      <trkpt lat="45.10674" lon="5.99366">
        <ele>1512.8000488281</ele>
        <time>2024-10-15T07:15:39.000Z</time>
      </trkpt>
      <trkpt lat="45.10674" lon="5.99365">
        <ele>1512.5999755859</ele>
        <time>2024-10-15T07:15:40.000Z</time>
      </trkpt>
      <trkpt lat="45.10673" lon="5.99364">
        <ele>1512.4000244141</ele>
        <time>2024-10-15T07:15:41.000Z</time>
      </trkpt>
      <trkpt lat="45.10673" lon="5.99364">
        <ele>1512.1999511719</ele>
        <time>2024-10-15T07:15:42.000Z</time>
      </trkpt>
      <trkpt lat="45.10672" lon="5.99363">
        <ele>1512.1999511719</ele>
        <time>2024-10-15T07:15:43.000Z</time>
      </trkpt>
      <trkpt lat="45.10672" lon="5.99363">
        <ele>1512.1999511719</ele>
        <time>2024-10-15T07:15:44.000Z</time>
      </trkpt>
      <trkpt lat="45.10672" lon="5.99363">
        <ele>1512.1999511719</ele>
        <time>2024-10-15T07:15:45.000Z</time>
      </trkpt>
      <trkpt lat="45.10672" lon="5.99363">
        <ele>1512</ele>
        <time>2024-10-15T07:15:46.000Z</time>
      </trkpt>
      <trkpt lat="45.10671" lon="5.99363">
        <ele>1511.8000488281</ele>
        <time>2024-10-15T07:15:47.000Z</time>
      </trkpt>
      <trkpt lat="45.10671" lon="5.99362">
        <ele>1511.8000488281</ele>
        <time>2024-10-15T07:15:48.000Z</time>
      </trkpt>
      <trkpt lat="45.10671" lon="5.99362">
        <ele>1511.5999755859</ele>
        <time>2024-10-15T07:15:49.000Z</time>
      </trkpt>
      <trkpt lat="45.1067" lon="5.99363">
        <ele>1511.4000244141</ele>
        <time>2024-10-15T07:15:50.000Z</time>
      </trkpt>
      <trkpt lat="45.1067" lon="5.99363">
        <ele>1511.4000244141</ele>
        <time>2024-10-15T07:15:51.000Z</time>
      </trkpt>
      <trkpt lat="45.1067" lon="5.99363">
        <ele>1511.1999511719</ele>
        <time>2024-10-15T07:15:52.000Z</time>
      </trkpt>
      <trkpt lat="45.1067" lon="5.99363">
        <ele>1510.8000488281</ele>
        <time>2024-10-15T07:15:53.000Z</time>
      </trkpt>
      <trkpt lat="45.10669" lon="5.99363">
        <ele>1510.5999755859</ele>
        <time>2024-10-15T07:15:54.000Z</time>
      </trkpt>
      <trkpt lat="45.10669" lon="5.99363">
        <ele>1510.5999755859</ele>
        <time>2024-10-15T07:15:55.000Z</time>
      </trkpt>
      <trkpt lat="45.10669" lon="5.99362">
        <ele>1510.5999755859</ele>
        <time>2024-10-15T07:15:56.000Z</time>
      </trkpt>
      <trkpt lat="45.10669" lon="5.99362">
        <ele>1510.4000244141</ele>
        <time>2024-10-15T07:15:57.000Z</time>
      </trkpt>
      <trkpt lat="45.10669" lon="5.99362">
        <ele>1510.4000244141</ele>
        <time>2024-10-15T07:15:58.000Z</time>
      </trkpt>
      <trkpt lat="45.10669" lon="5.99361">
        <ele>1510.4000244141</ele>
        <time>2024-10-15T07:15:59.000Z</time>
      </trkpt>
      <trkpt lat="45.10669" lon="5.9936">
        <ele>1510.4000244141</ele>
        <time>2024-10-15T07:16:00.000Z</time>
      </trkpt>
      <trkpt lat="45.10669" lon="5.9936">
        <ele>1510.1999511719</ele>
        <time>2024-10-15T07:16:01.000Z</time>
      </trkpt>
      <trkpt lat="45.1067" lon="5.9936">
        <ele>1510.1999511719</ele>
        <time>2024-10-15T07:16:02.000Z</time>
      </trkpt>
      <trkpt lat="45.1067" lon="5.99359">
        <ele>1510</ele>
        <time>2024-10-15T07:16:03.000Z</time>
      </trkpt>
      <trkpt lat="45.1067" lon="5.99359">
        <ele>1509.5999755859</ele>
        <time>2024-10-15T07:16:04.000Z</time>
      </trkpt>
      <trkpt lat="45.1067" lon="5.99358">
        <ele>1509.5999755859</ele>
        <time>2024-10-15T07:16:05.000Z</time>
      </trkpt>
      <trkpt lat="45.10669" lon="5.99356">
        <ele>1509.4000244141</ele>
        <time>2024-10-15T07:16:06.000Z</time>
      </trkpt>
      <trkpt lat="45.10668" lon="5.99355">
        <ele>1509.1999511719</ele>
        <time>2024-10-15T07:16:07.000Z</time>
      </trkpt>
      <trkpt lat="45.10667" lon="5.99354">
        <ele>1509</ele>
        <time>2024-10-15T07:16:08.000Z</time>
      </trkpt>
      <trkpt lat="45.10667" lon="5.99353">
        <ele>1509</ele>
        <time>2024-10-15T07:16:09.000Z</time>
      </trkpt>
      <trkpt lat="45.10666" lon="5.99353">
        <ele>1508.8000488281</ele>
        <time>2024-10-15T07:16:10.000Z</time>
      </trkpt>
      <trkpt lat="45.10665" lon="5.99351">
        <ele>1508.5999755859</ele>
        <time>2024-10-15T07:16:11.000Z</time>
      </trkpt>
      <trkpt lat="45.10665" lon="5.99351">
        <ele>1508.4000244141</ele>
        <time>2024-10-15T07:16:12.000Z</time>
      </trkpt>
      <trkpt lat="45.10665" lon="5.9935">
        <ele>1508.4000244141</ele>
        <time>2024-10-15T07:16:13.000Z</time>
      </trkpt>
      <trkpt lat="45.10665" lon="5.99349">
        <ele>1508.1999511719</ele>
        <time>2024-10-15T07:16:14.000Z</time>
      </trkpt>
      <trkpt lat="45.10664" lon="5.99349">
        <ele>1508.1999511719</ele>
        <time>2024-10-15T07:16:15.000Z</time>
      </trkpt>
      <trkpt lat="45.10664" lon="5.99349">
        <ele>1508.1999511719</ele>
        <time>2024-10-15T07:16:16.000Z</time>
      </trkpt>
      <trkpt lat="45.10663" lon="5.99348">
        <ele>1508.1999511719</ele>
        <time>2024-10-15T07:16:17.000Z</time>
      </trkpt>
      <trkpt lat="45.10662" lon="5.99348">
        <ele>1508.4000244141</ele>
        <time>2024-10-15T07:16:18.000Z</time>
      </trkpt>
      <trkpt lat="45.10662" lon="5.99347">
        <ele>1508.8000488281</ele>
        <time>2024-10-15T07:16:19.000Z</time>
      </trkpt>
      <trkpt lat="45.10661" lon="5.99346">
        <ele>1509.1999511719</ele>
        <time>2024-10-15T07:16:20.000Z</time>
      </trkpt>
      <trkpt lat="45.10661" lon="5.99345">
        <ele>1509.5999755859</ele>
        <time>2024-10-15T07:16:21.000Z</time>
      </trkpt>
      <trkpt lat="45.1066" lon="5.99345">
        <ele>1510</ele>
        <time>2024-10-15T07:16:22.000Z</time>
      </trkpt>
      <trkpt lat="45.1066" lon="5.99345">
        <ele>1510.4000244141</ele>
        <time>2024-10-15T07:16:23.000Z</time>
      </trkpt>
      <trkpt lat="45.1066" lon="5.99345">
        <ele>1511</ele>
        <time>2024-10-15T07:16:24.000Z</time>
      </trkpt>
      <trkpt lat="45.1066" lon="5.99345">
        <ele>1511.1999511719</ele>
        <time>2024-10-15T07:16:25.000Z</time>
      </trkpt>
      <trkpt lat="45.1066" lon="5.99345">
        <ele>1511.4000244141</ele>
        <time>2024-10-15T07:16:26.000Z</time>
      </trkpt>
      <trkpt lat="45.1066" lon="5.99345">
        <ele>1511.8000488281</ele>
        <time>2024-10-15T07:16:27.000Z</time>
      </trkpt>
      <trkpt lat="45.10659" lon="5.99343">
        <ele>1512.1999511719</ele>
        <time>2024-10-15T07:16:28.000Z</time>
      </trkpt>
      <trkpt lat="45.10659" lon="5.99343">
        <ele>1512.5999755859</ele>
        <time>2024-10-15T07:16:29.000Z</time>
      </trkpt>
      <trkpt lat="45.1066" lon="5.99343">
        <ele>1512.8000488281</ele>
        <time>2024-10-15T07:16:30.000Z</time>
      </trkpt>
      <trkpt lat="45.1066" lon="5.99343">
        <ele>1513</ele>
        <time>2024-10-15T07:16:31.000Z</time>
      </trkpt>
      <trkpt lat="45.1066" lon="5.99343">
        <ele>1513.1999511719</ele>
        <time>2024-10-15T07:16:32.000Z</time>
      </trkpt>
      <trkpt lat="45.1066" lon="5.99343">
        <ele>1513.4000244141</ele>
        <time>2024-10-15T07:16:33.000Z</time>
      </trkpt>
      <trkpt lat="45.10661" lon="5.99343">
        <ele>1513.8000488281</ele>
        <time>2024-10-15T07:16:34.000Z</time>
      </trkpt>
      <trkpt lat="45.10661" lon="5.99343">
        <ele>1514</ele>
        <time>2024-10-15T07:16:35.000Z</time>
      </trkpt>
      <trkpt lat="45.10661" lon="5.99342">
        <ele>1514.4000244141</ele>
        <time>2024-10-15T07:16:36.000Z</time>
      </trkpt>
      <trkpt lat="45.10661" lon="5.99342">
        <ele>1514.5999755859</ele>
        <time>2024-10-15T07:16:37.000Z</time>
      </trkpt>
      <trkpt lat="45.10661" lon="5.99342">
        <ele>1514.8000488281</ele>
        <time>2024-10-15T07:16:38.000Z</time>
      </trkpt>
      <trkpt lat="45.10661" lon="5.99342">
        <ele>1515</ele>
        <time>2024-10-15T07:16:39.000Z</time>
      </trkpt>
      <trkpt lat="45.10661" lon="5.99341">
        <ele>1515.1999511719</ele>
        <time>2024-10-15T07:16:40.000Z</time>
      </trkpt>
      <trkpt lat="45.10661" lon="5.9934">
        <ele>1515.4000244141</ele>
        <time>2024-10-15T07:16:41.000Z</time>
      </trkpt>
      <trkpt lat="45.1066" lon="5.99339">
        <ele>1515.5999755859</ele>
        <time>2024-10-15T07:16:42.000Z</time>
      </trkpt>
      <trkpt lat="45.10659" lon="5.99337">
        <ele>1516</ele>
        <time>2024-10-15T07:16:43.000Z</time>
      </trkpt>
      <trkpt lat="45.10659" lon="5.99337">
        <ele>1516.1999511719</ele>
        <time>2024-10-15T07:16:44.000Z</time>
      </trkpt>
      <trkpt lat="45.10659" lon="5.99336">
        <ele>1516.5999755859</ele>
        <time>2024-10-15T07:16:45.000Z</time>
      </trkpt>
      <trkpt lat="45.10659" lon="5.99336">
        <ele>1516.8000488281</ele>
        <time>2024-10-15T07:16:46.000Z</time>
      </trkpt>
      <trkpt lat="45.10659" lon="5.99335">
        <ele>1517</ele>
        <time>2024-10-15T07:16:47.000Z</time>
      </trkpt>
      <trkpt lat="45.10659" lon="5.99334">
        <ele>1517.5999755859</ele>
        <time>2024-10-15T07:16:48.000Z</time>
      </trkpt>
      <trkpt lat="45.10658" lon="5.99333">
        <ele>1517.5999755859</ele>
        <time>2024-10-15T07:16:49.000Z</time>
      </trkpt>
      <trkpt lat="45.10657" lon="5.99333">
        <ele>1517.8000488281</ele>
        <time>2024-10-15T07:16:50.000Z</time>
      </trkpt>
      <trkpt lat="45.10657" lon="5.99332">
        <ele>1518.1999511719</ele>
        <time>2024-10-15T07:16:51.000Z</time>
      </trkpt>
      <trkpt lat="45.10656" lon="5.99332">
        <ele>1518.4000244141</ele>
        <time>2024-10-15T07:16:52.000Z</time>
      </trkpt>
      <trkpt lat="45.10656" lon="5.99332">
        <ele>1518.5999755859</ele>
        <time>2024-10-15T07:16:53.000Z</time>
      </trkpt>
      <trkpt lat="45.10656" lon="5.99332">
        <ele>1518.8000488281</ele>
        <time>2024-10-15T07:16:54.000Z</time>
      </trkpt>
      <trkpt lat="45.10656" lon="5.99332">
        <ele>1519.1999511719</ele>
        <time>2024-10-15T07:16:55.000Z</time>
      </trkpt>
      <trkpt lat="45.10655" lon="5.99331">
        <ele>1519.1999511719</ele>
        <time>2024-10-15T07:16:56.000Z</time>
      </trkpt>
      <trkpt lat="45.10655" lon="5.9933">
        <ele>1519.5999755859</ele>
        <time>2024-10-15T07:16:57.000Z</time>
      </trkpt>
      <trkpt lat="45.10655" lon="5.99329">
        <ele>1519.5999755859</ele>
        <time>2024-10-15T07:16:58.000Z</time>
      </trkpt>
      <trkpt lat="45.10655" lon="5.99328">
        <ele>1519.8000488281</ele>
        <time>2024-10-15T07:16:59.000Z</time>
      </trkpt>
      <trkpt lat="45.10655" lon="5.99327">
        <ele>1520</ele>
        <time>2024-10-15T07:17:00.000Z</time>
      </trkpt>
      <trkpt lat="45.10655" lon="5.99327">
        <ele>1520.1999511719</ele>
        <time>2024-10-15T07:17:01.000Z</time>
      </trkpt>
      <trkpt lat="45.10655" lon="5.99327">
        <ele>1520.4000244141</ele>
        <time>2024-10-15T07:17:02.000Z</time>
      </trkpt>
      <trkpt lat="45.10655" lon="5.99327">
        <ele>1520.5999755859</ele>
        <time>2024-10-15T07:17:03.000Z</time>
      </trkpt>
      <trkpt lat="45.10655" lon="5.99327">
        <ele>1520.5999755859</ele>
        <time>2024-10-15T07:17:04.000Z</time>
      </trkpt>
      <trkpt lat="45.10654" lon="5.99326">
        <ele>1520.5999755859</ele>
        <time>2024-10-15T07:17:05.000Z</time>
      </trkpt>
      <trkpt lat="45.10654" lon="5.99326">
        <ele>1520.5999755859</ele>
        <time>2024-10-15T07:17:06.000Z</time>
      </trkpt>
      <trkpt lat="45.10654" lon="5.99326">
        <ele>1520.8000488281</ele>
        <time>2024-10-15T07:17:07.000Z</time>
      </trkpt>
      <trkpt lat="45.10654" lon="5.99326">
        <ele>1520.8000488281</ele>
        <time>2024-10-15T07:17:08.000Z</time>
      </trkpt>
      <trkpt lat="45.10654" lon="5.99326">
        <ele>1521</ele>
        <time>2024-10-15T07:17:09.000Z</time>
      </trkpt>
      <trkpt lat="45.10654" lon="5.99326">
        <ele>1521</ele>
        <time>2024-10-15T07:17:10.000Z</time>
      </trkpt>
      <trkpt lat="45.10654" lon="5.99326">
        <ele>1521</ele>
        <time>2024-10-15T07:17:11.000Z</time>
      </trkpt>
      <trkpt lat="45.10654" lon="5.99326">
        <ele>1521</ele>
        <time>2024-10-15T07:17:12.000Z</time>
      </trkpt>
      <trkpt lat="45.10654" lon="5.99326">
        <ele>1521</ele>
        <time>2024-10-15T07:17:13.000Z</time>
      </trkpt>
      <trkpt lat="45.10654" lon="5.99326">
        <ele>1521</ele>
        <time>2024-10-15T07:17:14.000Z</time>
      </trkpt>
      <trkpt lat="45.10654" lon="5.99326">
        <ele>1521</ele>
        <time>2024-10-15T07:17:15.000Z</time>
      </trkpt>
      <trkpt lat="45.10654" lon="5.99326">
        <ele>1521</ele>
        <time>2024-10-15T07:17:16.000Z</time>
      </trkpt>
      <trkpt lat="45.10654" lon="5.99326">
        <ele>1521.1999511719</ele>
        <time>2024-10-15T07:17:17.000Z</time>
      </trkpt>
      <trkpt lat="45.10654" lon="5.99326">
        <ele>1521.1999511719</ele>
        <time>2024-10-15T07:17:18.000Z</time>
      </trkpt>
      <trkpt lat="45.10654" lon="5.99326">
        <ele>1521.1999511719</ele>
        <time>2024-10-15T07:17:19.000Z</time>
      </trkpt>
      <trkpt lat="45.10654" lon="5.99326">
        <ele>1521.1999511719</ele>
        <time>2024-10-15T07:17:20.000Z</time>
      </trkpt>
      <trkpt lat="45.10654" lon="5.99326">
        <ele>1521.4000244141</ele>
        <time>2024-10-15T07:17:21.000Z</time>
      </trkpt>
      <trkpt lat="45.10654" lon="5.99326">
        <ele>1521.4000244141</ele>
        <time>2024-10-15T07:17:22.000Z</time>
      </trkpt>
      <trkpt lat="45.10654" lon="5.99326">
        <ele>1521.8000488281</ele>
        <time>2024-10-15T07:17:23.000Z</time>
      </trkpt>
      <trkpt lat="45.10654" lon="5.99326">
        <ele>1522</ele>
        <time>2024-10-15T07:17:24.000Z</time>
      </trkpt>
      <trkpt lat="45.10654" lon="5.99326">
        <ele>1522.1999511719</ele>
        <time>2024-10-15T07:17:25.000Z</time>
      </trkpt>
      <trkpt lat="45.10654" lon="5.99326">
        <ele>1522.4000244141</ele>
        <time>2024-10-15T07:17:26.000Z</time>
      </trkpt>
      <trkpt lat="45.10654" lon="5.99326">
        <ele>1523</ele>
        <time>2024-10-15T07:17:27.000Z</time>
      </trkpt>
      <trkpt lat="45.10654" lon="5.99326">
        <ele>1523.1999511719</ele>
        <time>2024-10-15T07:17:28.000Z</time>
      </trkpt>
      <trkpt lat="45.10654" lon="5.99326">
        <ele>1523.5999755859</ele>
        <time>2024-10-15T07:17:29.000Z</time>
      </trkpt>
      <trkpt lat="45.10654" lon="5.99326">
        <ele>1523.5999755859</ele>
        <time>2024-10-15T07:17:30.000Z</time>
      </trkpt>
      <trkpt lat="45.10654" lon="5.99326">
        <ele>1523.5999755859</ele>
        <time>2024-10-15T07:17:31.000Z</time>
      </trkpt>
      <trkpt lat="45.10654" lon="5.99326">
        <ele>1523.8000488281</ele>
        <time>2024-10-15T07:17:32.000Z</time>
      </trkpt>
      <trkpt lat="45.10654" lon="5.99326">
        <ele>1524</ele>
        <time>2024-10-15T07:17:33.000Z</time>
      </trkpt>
      <trkpt lat="45.10654" lon="5.99326">
        <ele>1524.1999511719</ele>
        <time>2024-10-15T07:17:34.000Z</time>
      </trkpt>
      <trkpt lat="45.10653" lon="5.99326">
        <ele>1524.5999755859</ele>
        <time>2024-10-15T07:17:35.000Z</time>
      </trkpt>
      <trkpt lat="45.10653" lon="5.99326">
        <ele>1524.5999755859</ele>
        <time>2024-10-15T07:17:36.000Z</time>
      </trkpt>
      <trkpt lat="45.10653" lon="5.99326">
        <ele>1524.8000488281</ele>
        <time>2024-10-15T07:17:37.000Z</time>
      </trkpt>
      <trkpt lat="45.10653" lon="5.99326">
        <ele>1524.8000488281</ele>
        <time>2024-10-15T07:17:38.000Z</time>
      </trkpt>
      <trkpt lat="45.10653" lon="5.99326">
        <ele>1525</ele>
        <time>2024-10-15T07:17:39.000Z</time>
      </trkpt>
      <trkpt lat="45.10653" lon="5.99326">
        <ele>1525.1999511719</ele>
        <time>2024-10-15T07:17:40.000Z</time>
      </trkpt>
      <trkpt lat="45.10652" lon="5.99326">
        <ele>1525.4000244141</ele>
        <time>2024-10-15T07:17:41.000Z</time>
      </trkpt>
      <trkpt lat="45.10652" lon="5.99326">
        <ele>1525.8000488281</ele>
        <time>2024-10-15T07:17:42.000Z</time>
      </trkpt>
      <trkpt lat="45.10652" lon="5.99326">
        <ele>1526</ele>
        <time>2024-10-15T07:17:43.000Z</time>
      </trkpt>
      <trkpt lat="45.10652" lon="5.99326">
        <ele>1526</ele>
        <time>2024-10-15T07:17:44.000Z</time>
      </trkpt>
      <trkpt lat="45.10652" lon="5.99326">
        <ele>1526.1999511719</ele>
        <time>2024-10-15T07:17:45.000Z</time>
      </trkpt>
      <trkpt lat="45.10652" lon="5.99326">
        <ele>1526.1999511719</ele>
        <time>2024-10-15T07:17:46.000Z</time>
      </trkpt>
      <trkpt lat="45.10652" lon="5.99327">
        <ele>1526.5999755859</ele>
        <time>2024-10-15T07:17:47.000Z</time>
      </trkpt>
      <trkpt lat="45.10652" lon="5.99327">
        <ele>1526.8000488281</ele>
        <time>2024-10-15T07:17:48.000Z</time>
      </trkpt>
      <trkpt lat="45.10652" lon="5.99327">
        <ele>1527</ele>
        <time>2024-10-15T07:17:49.000Z</time>
      </trkpt>
      <trkpt lat="45.10652" lon="5.99327">
        <ele>1527.4000244141</ele>
        <time>2024-10-15T07:17:50.000Z</time>
      </trkpt>
      <trkpt lat="45.10652" lon="5.99327">
        <ele>1527.8000488281</ele>
        <time>2024-10-15T07:17:51.000Z</time>
      </trkpt>
      <trkpt lat="45.10652" lon="5.99327">
        <ele>1528</ele>
        <time>2024-10-15T07:17:52.000Z</time>
      </trkpt>
      <trkpt lat="45.10651" lon="5.99327">
        <ele>1528.1999511719</ele>
        <time>2024-10-15T07:17:53.000Z</time>
      </trkpt>
      <trkpt lat="45.10651" lon="5.99327">
        <ele>1528.4000244141</ele>
        <time>2024-10-15T07:17:54.000Z</time>
      </trkpt>
      <trkpt lat="45.10651" lon="5.99327">
        <ele>1528.8000488281</ele>
        <time>2024-10-15T07:17:55.000Z</time>
      </trkpt>
      <trkpt lat="45.10651" lon="5.99328">
        <ele>1529</ele>
        <time>2024-10-15T07:17:56.000Z</time>
      </trkpt>
      <trkpt lat="45.10651" lon="5.99328">
        <ele>1529.1999511719</ele>
        <time>2024-10-15T07:17:57.000Z</time>
      </trkpt>
      <trkpt lat="45.10651" lon="5.99328">
        <ele>1529.4000244141</ele>
        <time>2024-10-15T07:17:58.000Z</time>
      </trkpt>
      <trkpt lat="45.1065" lon="5.99328">
        <ele>1529.5999755859</ele>
        <time>2024-10-15T07:17:59.000Z</time>
      </trkpt>
      <trkpt lat="45.10649" lon="5.99329">
        <ele>1529.8000488281</ele>
        <time>2024-10-15T07:18:00.000Z</time>
      </trkpt>
      <trkpt lat="45.10649" lon="5.99329">
        <ele>1530</ele>
        <time>2024-10-15T07:18:01.000Z</time>
      </trkpt>
      <trkpt lat="45.10649" lon="5.99329">
        <ele>1530.1999511719</ele>
        <time>2024-10-15T07:18:02.000Z</time>
      </trkpt>
      <trkpt lat="45.10649" lon="5.99329">
        <ele>1530.4000244141</ele>
        <time>2024-10-15T07:18:03.000Z</time>
      </trkpt>
      <trkpt lat="45.10649" lon="5.99329">
        <ele>1530.8000488281</ele>
        <time>2024-10-15T07:18:04.000Z</time>
      </trkpt>
      <trkpt lat="45.10649" lon="5.99329">
        <ele>1531</ele>
        <time>2024-10-15T07:18:05.000Z</time>
      </trkpt>
      <trkpt lat="45.10648" lon="5.99329">
        <ele>1531.1999511719</ele>
        <time>2024-10-15T07:18:06.000Z</time>
      </trkpt>
      <trkpt lat="45.10648" lon="5.99329">
        <ele>1531.4000244141</ele>
        <time>2024-10-15T07:18:07.000Z</time>
      </trkpt>
      <trkpt lat="45.10648" lon="5.9933">
        <ele>1531.8000488281</ele>
        <time>2024-10-15T07:18:08.000Z</time>
      </trkpt>
      <trkpt lat="45.10647" lon="5.9933">
        <ele>1532</ele>
        <time>2024-10-15T07:18:09.000Z</time>
      </trkpt>
      <trkpt lat="45.10647" lon="5.9933">
        <ele>1532.1999511719</ele>
        <time>2024-10-15T07:18:10.000Z</time>
      </trkpt>
      <trkpt lat="45.10647" lon="5.9933">
        <ele>1532.4000244141</ele>
        <time>2024-10-15T07:18:11.000Z</time>
      </trkpt>
      <trkpt lat="45.10647" lon="5.9933">
        <ele>1532.4000244141</ele>
        <time>2024-10-15T07:18:12.000Z</time>
      </trkpt>
      <trkpt lat="45.10646" lon="5.9933">
        <ele>1532.5999755859</ele>
        <time>2024-10-15T07:18:13.000Z</time>
      </trkpt>
      <trkpt lat="45.10645" lon="5.9933">
        <ele>1533</ele>
        <time>2024-10-15T07:18:14.000Z</time>
      </trkpt>
      <trkpt lat="45.10645" lon="5.9933">
        <ele>1533.1999511719</ele>
        <time>2024-10-15T07:18:15.000Z</time>
      </trkpt>
      <trkpt lat="45.10645" lon="5.9933">
        <ele>1533.4000244141</ele>
        <time>2024-10-15T07:18:16.000Z</time>
      </trkpt>
      <trkpt lat="45.10644" lon="5.9933">
        <ele>1533.8000488281</ele>
        <time>2024-10-15T07:18:17.000Z</time>
      </trkpt>
      <trkpt lat="45.10643" lon="5.99331">
        <ele>1533.8000488281</ele>
        <time>2024-10-15T07:18:18.000Z</time>
      </trkpt>
      <trkpt lat="45.10642" lon="5.99331">
        <ele>1534</ele>
        <time>2024-10-15T07:18:19.000Z</time>
      </trkpt>
      <trkpt lat="45.10642" lon="5.99331">
        <ele>1534.1999511719</ele>
        <time>2024-10-15T07:18:20.000Z</time>
      </trkpt>
      <trkpt lat="45.10641" lon="5.99332">
        <ele>1534.1999511719</ele>
        <time>2024-10-15T07:18:21.000Z</time>
      </trkpt>
      <trkpt lat="45.10641" lon="5.99332">
        <ele>1534.5999755859</ele>
        <time>2024-10-15T07:18:22.000Z</time>
      </trkpt>
      <trkpt lat="45.10641" lon="5.99332">
        <ele>1534.8000488281</ele>
        <time>2024-10-15T07:18:23.000Z</time>
      </trkpt>
      <trkpt lat="45.1064" lon="5.99332">
        <ele>1535</ele>
        <time>2024-10-15T07:18:24.000Z</time>
      </trkpt>
      <trkpt lat="45.1064" lon="5.99332">
        <ele>1535</ele>
        <time>2024-10-15T07:18:25.000Z</time>
      </trkpt>
      <trkpt lat="45.10639" lon="5.99332">
        <ele>1535.4000244141</ele>
        <time>2024-10-15T07:18:26.000Z</time>
      </trkpt>
      <trkpt lat="45.10639" lon="5.99332">
        <ele>1535.5999755859</ele>
        <time>2024-10-15T07:18:27.000Z</time>
      </trkpt>
      <trkpt lat="45.10637" lon="5.99332">
        <ele>1535.8000488281</ele>
        <time>2024-10-15T07:18:28.000Z</time>
      </trkpt>
      <trkpt lat="45.10637" lon="5.99332">
        <ele>1536.1999511719</ele>
        <time>2024-10-15T07:18:29.000Z</time>
      </trkpt>
      <trkpt lat="45.10636" lon="5.99332">
        <ele>1536.1999511719</ele>
        <time>2024-10-15T07:18:30.000Z</time>
      </trkpt>
      <trkpt lat="45.10635" lon="5.99332">
        <ele>1536.4000244141</ele>
        <time>2024-10-15T07:18:31.000Z</time>
      </trkpt>
      <trkpt lat="45.10634" lon="5.99333">
        <ele>1536.8000488281</ele>
        <time>2024-10-15T07:18:32.000Z</time>
      </trkpt>
      <trkpt lat="45.10633" lon="5.99333">
        <ele>1537</ele>
        <time>2024-10-15T07:18:33.000Z</time>
      </trkpt>
      <trkpt lat="45.10633" lon="5.99333">
        <ele>1537.4000244141</ele>
        <time>2024-10-15T07:18:34.000Z</time>
      </trkpt>
      <trkpt lat="45.10633" lon="5.99334">
        <ele>1537.4000244141</ele>
        <time>2024-10-15T07:18:35.000Z</time>
      </trkpt>
      <trkpt lat="45.10633" lon="5.99334">
        <ele>1537.5999755859</ele>
        <time>2024-10-15T07:18:36.000Z</time>
      </trkpt>
      <trkpt lat="45.10632" lon="5.99334">
        <ele>1537.5999755859</ele>
        <time>2024-10-15T07:18:37.000Z</time>
      </trkpt>
      <trkpt lat="45.10632" lon="5.99334">
        <ele>1537.5999755859</ele>
        <time>2024-10-15T07:18:38.000Z</time>
      </trkpt>
      <trkpt lat="45.10632" lon="5.99334">
        <ele>1537.8000488281</ele>
        <time>2024-10-15T07:18:39.000Z</time>
      </trkpt>
      <trkpt lat="45.10631" lon="5.99334">
        <ele>1538</ele>
        <time>2024-10-15T07:18:40.000Z</time>
      </trkpt>
      <trkpt lat="45.10631" lon="5.99333">
        <ele>1538.4000244141</ele>
        <time>2024-10-15T07:18:41.000Z</time>
      </trkpt>
      <trkpt lat="45.1063" lon="5.99333">
        <ele>1538.5999755859</ele>
        <time>2024-10-15T07:18:42.000Z</time>
      </trkpt>
      <trkpt lat="45.1063" lon="5.99332">
        <ele>1538.8000488281</ele>
        <time>2024-10-15T07:18:43.000Z</time>
      </trkpt>
      <trkpt lat="45.10629" lon="5.99332">
        <ele>1539.1999511719</ele>
        <time>2024-10-15T07:18:44.000Z</time>
      </trkpt>
      <trkpt lat="45.10628" lon="5.99332">
        <ele>1539.4000244141</ele>
        <time>2024-10-15T07:18:45.000Z</time>
      </trkpt>
      <trkpt lat="45.10628" lon="5.99332">
        <ele>1539.4000244141</ele>
        <time>2024-10-15T07:18:46.000Z</time>
      </trkpt>
      <trkpt lat="45.10627" lon="5.99332">
        <ele>1539.5999755859</ele>
        <time>2024-10-15T07:18:47.000Z</time>
      </trkpt>
      <trkpt lat="45.10627" lon="5.99332">
        <ele>1539.8000488281</ele>
        <time>2024-10-15T07:18:48.000Z</time>
      </trkpt>
      <trkpt lat="45.10626" lon="5.99332">
        <ele>1540</ele>
        <time>2024-10-15T07:18:49.000Z</time>
      </trkpt>
      <trkpt lat="45.10626" lon="5.99332">
        <ele>1540.1999511719</ele>
        <time>2024-10-15T07:18:50.000Z</time>
      </trkpt>
      <trkpt lat="45.10626" lon="5.99331">
        <ele>1540.4000244141</ele>
        <time>2024-10-15T07:18:51.000Z</time>
      </trkpt>
      <trkpt lat="45.10625" lon="5.9933">
        <ele>1540.4000244141</ele>
        <time>2024-10-15T07:18:52.000Z</time>
      </trkpt>
      <trkpt lat="45.10625" lon="5.9933">
        <ele>1540.8000488281</ele>
        <time>2024-10-15T07:18:53.000Z</time>
      </trkpt>
      <trkpt lat="45.10625" lon="5.99329">
        <ele>1541.4000244141</ele>
        <time>2024-10-15T07:18:54.000Z</time>
      </trkpt>
      <trkpt lat="45.10625" lon="5.99329">
        <ele>1541.4000244141</ele>
        <time>2024-10-15T07:18:55.000Z</time>
      </trkpt>
      <trkpt lat="45.10625" lon="5.99329">
        <ele>1541.5999755859</ele>
        <time>2024-10-15T07:18:56.000Z</time>
      </trkpt>
      <trkpt lat="45.10624" lon="5.99329">
        <ele>1541.8000488281</ele>
        <time>2024-10-15T07:18:57.000Z</time>
      </trkpt>
      <trkpt lat="45.10624" lon="5.99328">
        <ele>1541.8000488281</ele>
        <time>2024-10-15T07:18:58.000Z</time>
      </trkpt>
      <trkpt lat="45.10624" lon="5.99328">
        <ele>1542.1999511719</ele>
        <time>2024-10-15T07:18:59.000Z</time>
      </trkpt>
      <trkpt lat="45.10624" lon="5.99328">
        <ele>1542.4000244141</ele>
        <time>2024-10-15T07:19:00.000Z</time>
      </trkpt>
      <trkpt lat="45.10623" lon="5.99328">
        <ele>1542.5999755859</ele>
        <time>2024-10-15T07:19:01.000Z</time>
      </trkpt>
      <trkpt lat="45.10623" lon="5.99329">
        <ele>1542.8000488281</ele>
        <time>2024-10-15T07:19:02.000Z</time>
      </trkpt>
      <trkpt lat="45.10623" lon="5.99329">
        <ele>1543.1999511719</ele>
        <time>2024-10-15T07:19:03.000Z</time>
      </trkpt>
      <trkpt lat="45.10622" lon="5.9933">
        <ele>1543.1999511719</ele>
        <time>2024-10-15T07:19:04.000Z</time>
      </trkpt>
      <trkpt lat="45.10622" lon="5.9933">
        <ele>1543.5999755859</ele>
        <time>2024-10-15T07:19:05.000Z</time>
      </trkpt>
      <trkpt lat="45.10622" lon="5.9933">
        <ele>1543.5999755859</ele>
        <time>2024-10-15T07:19:06.000Z</time>
      </trkpt>
      <trkpt lat="45.10621" lon="5.9933">
        <ele>1543.5999755859</ele>
        <time>2024-10-15T07:19:07.000Z</time>
      </trkpt>
      <trkpt lat="45.10621" lon="5.99331">
        <ele>1543.8000488281</ele>
        <time>2024-10-15T07:19:08.000Z</time>
      </trkpt>
      <trkpt lat="45.1062" lon="5.99331">
        <ele>1544</ele>
        <time>2024-10-15T07:19:09.000Z</time>
      </trkpt>
      <trkpt lat="45.1062" lon="5.9933">
        <ele>1544.1999511719</ele>
        <time>2024-10-15T07:19:10.000Z</time>
      </trkpt>
      <trkpt lat="45.1062" lon="5.9933">
        <ele>1544.4000244141</ele>
        <time>2024-10-15T07:19:11.000Z</time>
      </trkpt>
      <trkpt lat="45.1062" lon="5.99329">
        <ele>1544.8000488281</ele>
        <time>2024-10-15T07:19:12.000Z</time>
      </trkpt>
      <trkpt lat="45.1062" lon="5.99329">
        <ele>1545</ele>
        <time>2024-10-15T07:19:13.000Z</time>
      </trkpt>
      <trkpt lat="45.1062" lon="5.99329">
        <ele>1545.4000244141</ele>
        <time>2024-10-15T07:19:14.000Z</time>
      </trkpt>
      <trkpt lat="45.10619" lon="5.99329">
        <ele>1545.4000244141</ele>
        <time>2024-10-15T07:19:15.000Z</time>
      </trkpt>
      <trkpt lat="45.10618" lon="5.99328">
        <ele>1545.8000488281</ele>
        <time>2024-10-15T07:19:16.000Z</time>
      </trkpt>
      <trkpt lat="45.10618" lon="5.99328">
        <ele>1546</ele>
        <time>2024-10-15T07:19:17.000Z</time>
      </trkpt>
      <trkpt lat="45.10618" lon="5.99328">
        <ele>1546.1999511719</ele>
        <time>2024-10-15T07:19:18.000Z</time>
      </trkpt>
      <trkpt lat="45.10618" lon="5.99327">
        <ele>1546.4000244141</ele>
        <time>2024-10-15T07:19:19.000Z</time>
      </trkpt>
      <trkpt lat="45.10617" lon="5.99327">
        <ele>1546.5999755859</ele>
        <time>2024-10-15T07:19:20.000Z</time>
      </trkpt>
      <trkpt lat="45.10617" lon="5.99327">
        <ele>1547</ele>
        <time>2024-10-15T07:19:21.000Z</time>
      </trkpt>
      <trkpt lat="45.10616" lon="5.99326">
        <ele>1547</ele>
        <time>2024-10-15T07:19:22.000Z</time>
      </trkpt>
      <trkpt lat="45.10616" lon="5.99326">
        <ele>1547.1999511719</ele>
        <time>2024-10-15T07:19:23.000Z</time>
      </trkpt>
      <trkpt lat="45.10616" lon="5.99325">
        <ele>1547.4000244141</ele>
        <time>2024-10-15T07:19:24.000Z</time>
      </trkpt>
      <trkpt lat="45.10615" lon="5.99325">
        <ele>1547.4000244141</ele>
        <time>2024-10-15T07:19:25.000Z</time>
      </trkpt>
      <trkpt lat="45.10615" lon="5.99324">
        <ele>1547.5999755859</ele>
        <time>2024-10-15T07:19:26.000Z</time>
      </trkpt>
      <trkpt lat="45.10614" lon="5.99324">
        <ele>1547.8000488281</ele>
        <time>2024-10-15T07:19:27.000Z</time>
      </trkpt>
      <trkpt lat="45.10613" lon="5.99323">
        <ele>1548.1999511719</ele>
        <time>2024-10-15T07:19:28.000Z</time>
      </trkpt>
      <trkpt lat="45.10613" lon="5.99322">
        <ele>1548.4000244141</ele>
        <time>2024-10-15T07:19:29.000Z</time>
      </trkpt>
      <trkpt lat="45.10612" lon="5.99322">
        <ele>1548.5999755859</ele>
        <time>2024-10-15T07:19:30.000Z</time>
      </trkpt>
      <trkpt lat="45.10612" lon="5.99322">
        <ele>1548.5999755859</ele>
        <time>2024-10-15T07:19:31.000Z</time>
      </trkpt>
      <trkpt lat="45.10612" lon="5.99321">
        <ele>1548.8000488281</ele>
        <time>2024-10-15T07:19:32.000Z</time>
      </trkpt>
      <trkpt lat="45.10612" lon="5.99321">
        <ele>1549.4000244141</ele>
        <time>2024-10-15T07:19:33.000Z</time>
      </trkpt>
      <trkpt lat="45.10612" lon="5.99321">
        <ele>1549.5999755859</ele>
        <time>2024-10-15T07:19:34.000Z</time>
      </trkpt>
      <trkpt lat="45.10611" lon="5.99321">
        <ele>1549.8000488281</ele>
        <time>2024-10-15T07:19:35.000Z</time>
      </trkpt>
      <trkpt lat="45.1061" lon="5.9932">
        <ele>1550</ele>
        <time>2024-10-15T07:19:36.000Z</time>
      </trkpt>
      <trkpt lat="45.1061" lon="5.9932">
        <ele>1550.1999511719</ele>
        <time>2024-10-15T07:19:37.000Z</time>
      </trkpt>
      <trkpt lat="45.1061" lon="5.99319">
        <ele>1550.4000244141</ele>
        <time>2024-10-15T07:19:38.000Z</time>
      </trkpt>
      <trkpt lat="45.10609" lon="5.99319">
        <ele>1550.5999755859</ele>
        <time>2024-10-15T07:19:39.000Z</time>
      </trkpt>
      <trkpt lat="45.10609" lon="5.99319">
        <ele>1550.8000488281</ele>
        <time>2024-10-15T07:19:40.000Z</time>
      </trkpt>
      <trkpt lat="45.10609" lon="5.99319">
        <ele>1551</ele>
        <time>2024-10-15T07:19:41.000Z</time>
      </trkpt>
      <trkpt lat="45.10609" lon="5.99319">
        <ele>1551.1999511719</ele>
        <time>2024-10-15T07:19:42.000Z</time>
      </trkpt>
      <trkpt lat="45.10608" lon="5.99319">
        <ele>1551.4000244141</ele>
        <time>2024-10-15T07:19:43.000Z</time>
      </trkpt>
      <trkpt lat="45.10608" lon="5.99318">
        <ele>1551.8000488281</ele>
        <time>2024-10-15T07:19:44.000Z</time>
      </trkpt>
      <trkpt lat="45.10607" lon="5.99318">
        <ele>1552</ele>
        <time>2024-10-15T07:19:45.000Z</time>
      </trkpt>
      <trkpt lat="45.10607" lon="5.99317">
        <ele>1552.1999511719</ele>
        <time>2024-10-15T07:19:46.000Z</time>
      </trkpt>
      <trkpt lat="45.10607" lon="5.99316">
        <ele>1552.4000244141</ele>
        <time>2024-10-15T07:19:47.000Z</time>
      </trkpt>
      <trkpt lat="45.10607" lon="5.99316">
        <ele>1552.8000488281</ele>
        <time>2024-10-15T07:19:48.000Z</time>
      </trkpt>
      <trkpt lat="45.10607" lon="5.99315">
        <ele>1552.8000488281</ele>
        <time>2024-10-15T07:19:49.000Z</time>
      </trkpt>
      <trkpt lat="45.10607" lon="5.99315">
        <ele>1553</ele>
        <time>2024-10-15T07:19:50.000Z</time>
      </trkpt>
      <trkpt lat="45.10606" lon="5.99314">
        <ele>1553.4000244141</ele>
        <time>2024-10-15T07:19:51.000Z</time>
      </trkpt>
      <trkpt lat="45.10606" lon="5.99313">
        <ele>1553.4000244141</ele>
        <time>2024-10-15T07:19:52.000Z</time>
      </trkpt>
      <trkpt lat="45.10606" lon="5.99312">
        <ele>1553.8000488281</ele>
        <time>2024-10-15T07:19:53.000Z</time>
      </trkpt>
      <trkpt lat="45.10605" lon="5.99312">
        <ele>1553.8000488281</ele>
        <time>2024-10-15T07:19:54.000Z</time>
      </trkpt>
      <trkpt lat="45.10604" lon="5.99311">
        <ele>1554.1999511719</ele>
        <time>2024-10-15T07:19:55.000Z</time>
      </trkpt>
      <trkpt lat="45.10604" lon="5.9931">
        <ele>1554.1999511719</ele>
        <time>2024-10-15T07:19:56.000Z</time>
      </trkpt>
      <trkpt lat="45.10603" lon="5.99309">
        <ele>1554.1999511719</ele>
        <time>2024-10-15T07:19:57.000Z</time>
      </trkpt>
      <trkpt lat="45.10603" lon="5.99309">
        <ele>1554.4000244141</ele>
        <time>2024-10-15T07:19:58.000Z</time>
      </trkpt>
      <trkpt lat="45.10603" lon="5.99309">
        <ele>1554.5999755859</ele>
        <time>2024-10-15T07:19:59.000Z</time>
      </trkpt>
      <trkpt lat="45.10603" lon="5.99309">
        <ele>1554.8000488281</ele>
        <time>2024-10-15T07:20:00.000Z</time>
      </trkpt>
      <trkpt lat="45.10602" lon="5.99308">
        <ele>1555</ele>
        <time>2024-10-15T07:20:01.000Z</time>
      </trkpt>
      <trkpt lat="45.10602" lon="5.99307">
        <ele>1555.1999511719</ele>
        <time>2024-10-15T07:20:02.000Z</time>
      </trkpt>
      <trkpt lat="45.10601" lon="5.99307">
        <ele>1555.4000244141</ele>
        <time>2024-10-15T07:20:03.000Z</time>
      </trkpt>
      <trkpt lat="45.10601" lon="5.99306">
        <ele>1555.8000488281</ele>
        <time>2024-10-15T07:20:04.000Z</time>
      </trkpt>
      <trkpt lat="45.10601" lon="5.99305">
        <ele>1555.8000488281</ele>
        <time>2024-10-15T07:20:05.000Z</time>
      </trkpt>
      <trkpt lat="45.10601" lon="5.99305">
        <ele>1556.1999511719</ele>
        <time>2024-10-15T07:20:06.000Z</time>
      </trkpt>
      <trkpt lat="45.10601" lon="5.99304">
        <ele>1556.1999511719</ele>
        <time>2024-10-15T07:20:07.000Z</time>
      </trkpt>
      <trkpt lat="45.10601" lon="5.99303">
        <ele>1556.4000244141</ele>
        <time>2024-10-15T07:20:08.000Z</time>
      </trkpt>
      <trkpt lat="45.10601" lon="5.99301">
        <ele>1556.8000488281</ele>
        <time>2024-10-15T07:20:09.000Z</time>
      </trkpt>
      <trkpt lat="45.106" lon="5.99299">
        <ele>1557</ele>
        <time>2024-10-15T07:20:10.000Z</time>
      </trkpt>
      <trkpt lat="45.10601" lon="5.99297">
        <ele>1557.4000244141</ele>
        <time>2024-10-15T07:20:11.000Z</time>
      </trkpt>
      <trkpt lat="45.10601" lon="5.99295">
        <ele>1557.4000244141</ele>
        <time>2024-10-15T07:20:12.000Z</time>
      </trkpt>
      <trkpt lat="45.10601" lon="5.99295">
        <ele>1557.5999755859</ele>
        <time>2024-10-15T07:20:13.000Z</time>
      </trkpt>
      <trkpt lat="45.106" lon="5.99294">
        <ele>1557.8000488281</ele>
        <time>2024-10-15T07:20:14.000Z</time>
      </trkpt>
      <trkpt lat="45.106" lon="5.99294">
        <ele>1558</ele>
        <time>2024-10-15T07:20:15.000Z</time>
      </trkpt>
      <trkpt lat="45.106" lon="5.99293">
        <ele>1558.1999511719</ele>
        <time>2024-10-15T07:20:16.000Z</time>
      </trkpt>
      <trkpt lat="45.10599" lon="5.99292">
        <ele>1558.1999511719</ele>
        <time>2024-10-15T07:20:17.000Z</time>
      </trkpt>
      <trkpt lat="45.10599" lon="5.99291">
        <ele>1558.1999511719</ele>
        <time>2024-10-15T07:20:18.000Z</time>
      </trkpt>
      <trkpt lat="45.10598" lon="5.9929">
        <ele>1558.1999511719</ele>
        <time>2024-10-15T07:20:19.000Z</time>
      </trkpt>
      <trkpt lat="45.10598" lon="5.99289">
        <ele>1558</ele>
        <time>2024-10-15T07:20:20.000Z</time>
      </trkpt>
      <trkpt lat="45.10597" lon="5.99288">
        <ele>1557.8000488281</ele>
        <time>2024-10-15T07:20:21.000Z</time>
      </trkpt>
      <trkpt lat="45.10596" lon="5.99286">
        <ele>1557.8000488281</ele>
        <time>2024-10-15T07:20:22.000Z</time>
      </trkpt>
      <trkpt lat="45.10596" lon="5.99286">
        <ele>1557.8000488281</ele>
        <time>2024-10-15T07:20:23.000Z</time>
      </trkpt>
      <trkpt lat="45.10596" lon="5.99286">
        <ele>1557.8000488281</ele>
        <time>2024-10-15T07:20:24.000Z</time>
      </trkpt>
      <trkpt lat="45.10595" lon="5.99283">
        <ele>1557.5999755859</ele>
        <time>2024-10-15T07:20:25.000Z</time>
      </trkpt>
      <trkpt lat="45.10595" lon="5.99281">
        <ele>1557.4000244141</ele>
        <time>2024-10-15T07:20:26.000Z</time>
      </trkpt>
      <trkpt lat="45.10594" lon="5.99279">
        <ele>1557.1999511719</ele>
        <time>2024-10-15T07:20:27.000Z</time>
      </trkpt>
      <trkpt lat="45.10593" lon="5.99278">
        <ele>1557.1999511719</ele>
        <time>2024-10-15T07:20:28.000Z</time>
      </trkpt>
      <trkpt lat="45.10593" lon="5.99278">
        <ele>1557.1999511719</ele>
        <time>2024-10-15T07:20:29.000Z</time>
      </trkpt>
      <trkpt lat="45.10592" lon="5.99277">
        <ele>1557.1999511719</ele>
        <time>2024-10-15T07:20:30.000Z</time>
      </trkpt>
      <trkpt lat="45.10591" lon="5.99277">
        <ele>1557.1999511719</ele>
        <time>2024-10-15T07:20:31.000Z</time>
      </trkpt>
      <trkpt lat="45.10591" lon="5.99277">
        <ele>1557.1999511719</ele>
        <time>2024-10-15T07:20:32.000Z</time>
      </trkpt>
      <trkpt lat="45.10591" lon="5.99278">
        <ele>1557.4000244141</ele>
        <time>2024-10-15T07:20:33.000Z</time>
      </trkpt>
      <trkpt lat="45.10589" lon="5.99278">
        <ele>1557.4000244141</ele>
        <time>2024-10-15T07:20:34.000Z</time>
      </trkpt>
      <trkpt lat="45.10589" lon="5.99279">
        <ele>1557.5999755859</ele>
        <time>2024-10-15T07:20:35.000Z</time>
      </trkpt>
      <trkpt lat="45.10588" lon="5.99278">
        <ele>1557.8000488281</ele>
        <time>2024-10-15T07:20:36.000Z</time>
      </trkpt>
      <trkpt lat="45.10586" lon="5.99278">
        <ele>1558</ele>
        <time>2024-10-15T07:20:37.000Z</time>
      </trkpt>
      <trkpt lat="45.10585" lon="5.99278">
        <ele>1558</ele>
        <time>2024-10-15T07:20:38.000Z</time>
      </trkpt>
      <trkpt lat="45.10584" lon="5.99278">
        <ele>1558.1999511719</ele>
        <time>2024-10-15T07:20:39.000Z</time>
      </trkpt>
      <trkpt lat="45.10583" lon="5.99277">
        <ele>1558.4000244141</ele>
        <time>2024-10-15T07:20:40.000Z</time>
      </trkpt>
      <trkpt lat="45.10582" lon="5.99277">
        <ele>1558.8000488281</ele>
        <time>2024-10-15T07:20:41.000Z</time>
      </trkpt>
      <trkpt lat="45.10582" lon="5.99277">
        <ele>1559.1999511719</ele>
        <time>2024-10-15T07:20:42.000Z</time>
      </trkpt>
      <trkpt lat="45.10581" lon="5.99277">
        <ele>1559.4000244141</ele>
        <time>2024-10-15T07:20:43.000Z</time>
      </trkpt>
      <trkpt lat="45.10581" lon="5.99276">
        <ele>1559.5999755859</ele>
        <time>2024-10-15T07:20:44.000Z</time>
      </trkpt>
      <trkpt lat="45.10581" lon="5.99275">
        <ele>1559.8000488281</ele>
        <time>2024-10-15T07:20:45.000Z</time>
      </trkpt>
      <trkpt lat="45.1058" lon="5.99275">
        <ele>1560.1999511719</ele>
        <time>2024-10-15T07:20:46.000Z</time>
      </trkpt>
      <trkpt lat="45.1058" lon="5.99274">
        <ele>1560.4000244141</ele>
        <time>2024-10-15T07:20:47.000Z</time>
      </trkpt>
      <trkpt lat="45.10579" lon="5.99273">
        <ele>1560.5999755859</ele>
        <time>2024-10-15T07:20:48.000Z</time>
      </trkpt>
      <trkpt lat="45.10579" lon="5.99273">
        <ele>1560.8000488281</ele>
        <time>2024-10-15T07:20:49.000Z</time>
      </trkpt>
      <trkpt lat="45.10579" lon="5.99272">
        <ele>1560.8000488281</ele>
        <time>2024-10-15T07:20:50.000Z</time>
      </trkpt>
      <trkpt lat="45.10578" lon="5.99272">
        <ele>1561</ele>
        <time>2024-10-15T07:20:51.000Z</time>
      </trkpt>
      <trkpt lat="45.10578" lon="5.99272">
        <ele>1561.1999511719</ele>
        <time>2024-10-15T07:20:52.000Z</time>
      </trkpt>
      <trkpt lat="45.10577" lon="5.99272">
        <ele>1561.1999511719</ele>
        <time>2024-10-15T07:20:53.000Z</time>
      </trkpt>
      <trkpt lat="45.10577" lon="5.99272">
        <ele>1561.4000244141</ele>
        <time>2024-10-15T07:20:54.000Z</time>
      </trkpt>
      <trkpt lat="45.10577" lon="5.99271">
        <ele>1561.8000488281</ele>
        <time>2024-10-15T07:20:55.000Z</time>
      </trkpt>
      <trkpt lat="45.10576" lon="5.99271">
        <ele>1562</ele>
        <time>2024-10-15T07:20:56.000Z</time>
      </trkpt>
      <trkpt lat="45.10576" lon="5.99271">
        <ele>1562</ele>
        <time>2024-10-15T07:20:57.000Z</time>
      </trkpt>
      <trkpt lat="45.10576" lon="5.99271">
        <ele>1562.4000244141</ele>
        <time>2024-10-15T07:20:58.000Z</time>
      </trkpt>
      <trkpt lat="45.10576" lon="5.9927">
        <ele>1562.5999755859</ele>
        <time>2024-10-15T07:20:59.000Z</time>
      </trkpt>
      <trkpt lat="45.10576" lon="5.99269">
        <ele>1562.5999755859</ele>
        <time>2024-10-15T07:21:00.000Z</time>
      </trkpt>
      <trkpt lat="45.10576" lon="5.99269">
        <ele>1562.8000488281</ele>
        <time>2024-10-15T07:21:01.000Z</time>
      </trkpt>
      <trkpt lat="45.10577" lon="5.99269">
        <ele>1563</ele>
        <time>2024-10-15T07:21:02.000Z</time>
      </trkpt>
      <trkpt lat="45.10577" lon="5.99269">
        <ele>1563.1999511719</ele>
        <time>2024-10-15T07:21:03.000Z</time>
      </trkpt>
      <trkpt lat="45.10577" lon="5.99269">
        <ele>1563.1999511719</ele>
        <time>2024-10-15T07:21:04.000Z</time>
      </trkpt>
      <trkpt lat="45.10577" lon="5.99269">
        <ele>1563.4000244141</ele>
        <time>2024-10-15T07:21:05.000Z</time>
      </trkpt>
      <trkpt lat="45.10577" lon="5.99269">
        <ele>1563.5999755859</ele>
        <time>2024-10-15T07:21:06.000Z</time>
      </trkpt>
      <trkpt lat="45.10577" lon="5.99269">
        <ele>1563.8000488281</ele>
        <time>2024-10-15T07:21:07.000Z</time>
      </trkpt>
      <trkpt lat="45.10577" lon="5.99269">
        <ele>1563.8000488281</ele>
        <time>2024-10-15T07:21:08.000Z</time>
      </trkpt>
      <trkpt lat="45.10577" lon="5.99269">
        <ele>1564.1999511719</ele>
        <time>2024-10-15T07:21:09.000Z</time>
      </trkpt>
      <trkpt lat="45.10577" lon="5.99269">
        <ele>1564.1999511719</ele>
        <time>2024-10-15T07:21:10.000Z</time>
      </trkpt>
      <trkpt lat="45.10577" lon="5.99269">
        <ele>1564.4000244141</ele>
        <time>2024-10-15T07:21:11.000Z</time>
      </trkpt>
      <trkpt lat="45.10577" lon="5.99269">
        <ele>1564.4000244141</ele>
        <time>2024-10-15T07:21:12.000Z</time>
      </trkpt>
      <trkpt lat="45.10576" lon="5.99269">
        <ele>1564.8000488281</ele>
        <time>2024-10-15T07:21:13.000Z</time>
      </trkpt>
      <trkpt lat="45.10576" lon="5.99269">
        <ele>1565</ele>
        <time>2024-10-15T07:21:14.000Z</time>
      </trkpt>
      <trkpt lat="45.10576" lon="5.99269">
        <ele>1565.1999511719</ele>
        <time>2024-10-15T07:21:15.000Z</time>
      </trkpt>
      <trkpt lat="45.10576" lon="5.99269">
        <ele>1565.1999511719</ele>
        <time>2024-10-15T07:21:16.000Z</time>
      </trkpt>
      <trkpt lat="45.10576" lon="5.99269">
        <ele>1565.5999755859</ele>
        <time>2024-10-15T07:21:17.000Z</time>
      </trkpt>
      <trkpt lat="45.10576" lon="5.99269">
        <ele>1565.8000488281</ele>
        <time>2024-10-15T07:21:18.000Z</time>
      </trkpt>
      <trkpt lat="45.10576" lon="5.99269">
        <ele>1566</ele>
        <time>2024-10-15T07:21:19.000Z</time>
      </trkpt>
      <trkpt lat="45.10576" lon="5.99269">
        <ele>1566</ele>
        <time>2024-10-15T07:21:20.000Z</time>
      </trkpt>
      <trkpt lat="45.10576" lon="5.99268">
        <ele>1566.1999511719</ele>
        <time>2024-10-15T07:21:21.000Z</time>
      </trkpt>
      <trkpt lat="45.10576" lon="5.99267">
        <ele>1566.4000244141</ele>
        <time>2024-10-15T07:21:22.000Z</time>
      </trkpt>
      <trkpt lat="45.10576" lon="5.99267">
        <ele>1566.5999755859</ele>
        <time>2024-10-15T07:21:23.000Z</time>
      </trkpt>
      <trkpt lat="45.10576" lon="5.99266">
        <ele>1566.8000488281</ele>
        <time>2024-10-15T07:21:24.000Z</time>
      </trkpt>
      <trkpt lat="45.10576" lon="5.99266">
        <ele>1566.8000488281</ele>
        <time>2024-10-15T07:21:25.000Z</time>
      </trkpt>
      <trkpt lat="45.10576" lon="5.99266">
        <ele>1567</ele>
        <time>2024-10-15T07:21:26.000Z</time>
      </trkpt>
      <trkpt lat="45.10576" lon="5.99266">
        <ele>1567.1999511719</ele>
        <time>2024-10-15T07:21:27.000Z</time>
      </trkpt>
      <trkpt lat="45.10575" lon="5.99265">
        <ele>1567.4000244141</ele>
        <time>2024-10-15T07:21:28.000Z</time>
      </trkpt>
      <trkpt lat="45.10575" lon="5.99264">
        <ele>1567.8000488281</ele>
        <time>2024-10-15T07:21:29.000Z</time>
      </trkpt>
      <trkpt lat="45.10575" lon="5.99264">
        <ele>1567.8000488281</ele>
        <time>2024-10-15T07:21:30.000Z</time>
      </trkpt>
      <trkpt lat="45.10575" lon="5.99264">
        <ele>1568</ele>
        <time>2024-10-15T07:21:31.000Z</time>
      </trkpt>
      <trkpt lat="45.10574" lon="5.99264">
        <ele>1568.1999511719</ele>
        <time>2024-10-15T07:21:32.000Z</time>
      </trkpt>
      <trkpt lat="45.10573" lon="5.99263">
        <ele>1568.4000244141</ele>
        <time>2024-10-15T07:21:33.000Z</time>
      </trkpt>
      <trkpt lat="45.10572" lon="5.99263">
        <ele>1568.4000244141</ele>
        <time>2024-10-15T07:21:34.000Z</time>
      </trkpt>
      <trkpt lat="45.1057" lon="5.99262">
        <ele>1568.8000488281</ele>
        <time>2024-10-15T07:21:35.000Z</time>
      </trkpt>
      <trkpt lat="45.10569" lon="5.99262">
        <ele>1568.8000488281</ele>
        <time>2024-10-15T07:21:36.000Z</time>
      </trkpt>
      <trkpt lat="45.10568" lon="5.99262">
        <ele>1568.8000488281</ele>
        <time>2024-10-15T07:21:37.000Z</time>
      </trkpt>
      <trkpt lat="45.10566" lon="5.99263">
        <ele>1569</ele>
        <time>2024-10-15T07:21:38.000Z</time>
      </trkpt>
      <trkpt lat="45.10565" lon="5.99262">
        <ele>1569</ele>
        <time>2024-10-15T07:21:39.000Z</time>
      </trkpt>
      <trkpt lat="45.10564" lon="5.99262">
        <ele>1569</ele>
        <time>2024-10-15T07:21:40.000Z</time>
      </trkpt>
      <trkpt lat="45.10563" lon="5.99262">
        <ele>1569.1999511719</ele>
        <time>2024-10-15T07:21:41.000Z</time>
      </trkpt>
      <trkpt lat="45.10562" lon="5.99263">
        <ele>1569.1999511719</ele>
        <time>2024-10-15T07:21:42.000Z</time>
      </trkpt>
      <trkpt lat="45.10562" lon="5.99263">
        <ele>1569.1999511719</ele>
        <time>2024-10-15T07:21:43.000Z</time>
      </trkpt>
      <trkpt lat="45.10562" lon="5.99263">
        <ele>1569.1999511719</ele>
        <time>2024-10-15T07:21:44.000Z</time>
      </trkpt>
      <trkpt lat="45.10561" lon="5.99263">
        <ele>1569.1999511719</ele>
        <time>2024-10-15T07:21:45.000Z</time>
      </trkpt>
      <trkpt lat="45.1056" lon="5.99264">
        <ele>1569.4000244141</ele>
        <time>2024-10-15T07:21:46.000Z</time>
      </trkpt>
      <trkpt lat="45.10559" lon="5.99264">
        <ele>1569.4000244141</ele>
        <time>2024-10-15T07:21:47.000Z</time>
      </trkpt>
      <trkpt lat="45.10558" lon="5.99264">
        <ele>1569.4000244141</ele>
        <time>2024-10-15T07:21:48.000Z</time>
      </trkpt>
      <trkpt lat="45.10558" lon="5.99264">
        <ele>1569.4000244141</ele>
        <time>2024-10-15T07:21:49.000Z</time>
      </trkpt>
      <trkpt lat="45.10558" lon="5.99264">
        <ele>1569.5999755859</ele>
        <time>2024-10-15T07:21:50.000Z</time>
      </trkpt>
      <trkpt lat="45.10558" lon="5.99264">
        <ele>1569.5999755859</ele>
        <time>2024-10-15T07:21:51.000Z</time>
      </trkpt>
      <trkpt lat="45.10557" lon="5.99264">
        <ele>1569.8000488281</ele>
        <time>2024-10-15T07:21:52.000Z</time>
      </trkpt>
      <trkpt lat="45.10556" lon="5.99265">
        <ele>1570</ele>
        <time>2024-10-15T07:21:53.000Z</time>
      </trkpt>
      <trkpt lat="45.10555" lon="5.99265">
        <ele>1570</ele>
        <time>2024-10-15T07:21:54.000Z</time>
      </trkpt>
      <trkpt lat="45.10554" lon="5.99265">
        <ele>1570.1999511719</ele>
        <time>2024-10-15T07:21:55.000Z</time>
      </trkpt>
      <trkpt lat="45.10552" lon="5.99266">
        <ele>1570.1999511719</ele>
        <time>2024-10-15T07:21:56.000Z</time>
      </trkpt>
      <trkpt lat="45.10551" lon="5.99267">
        <ele>1570.4000244141</ele>
        <time>2024-10-15T07:21:57.000Z</time>
      </trkpt>
      <trkpt lat="45.1055" lon="5.99267">
        <ele>1570.8000488281</ele>
        <time>2024-10-15T07:21:58.000Z</time>
      </trkpt>
      <trkpt lat="45.1055" lon="5.99267">
        <ele>1570.8000488281</ele>
        <time>2024-10-15T07:21:59.000Z</time>
      </trkpt>
      <trkpt lat="45.10549" lon="5.99267">
        <ele>1570.8000488281</ele>
        <time>2024-10-15T07:22:00.000Z</time>
      </trkpt>
      <trkpt lat="45.10549" lon="5.99268">
        <ele>1571</ele>
        <time>2024-10-15T07:22:01.000Z</time>
      </trkpt>
      <trkpt lat="45.10548" lon="5.99267">
        <ele>1571.1999511719</ele>
        <time>2024-10-15T07:22:02.000Z</time>
      </trkpt>
      <trkpt lat="45.10548" lon="5.99267">
        <ele>1571.1999511719</ele>
        <time>2024-10-15T07:22:03.000Z</time>
      </trkpt>
      <trkpt lat="45.10548" lon="5.99266">
        <ele>1571.4000244141</ele>
        <time>2024-10-15T07:22:04.000Z</time>
      </trkpt>
      <trkpt lat="45.10547" lon="5.99266">
        <ele>1571.4000244141</ele>
        <time>2024-10-15T07:22:05.000Z</time>
      </trkpt>
      <trkpt lat="45.10547" lon="5.99265">
        <ele>1571.4000244141</ele>
        <time>2024-10-15T07:22:06.000Z</time>
      </trkpt>
      <trkpt lat="45.10547" lon="5.99264">
        <ele>1571.4000244141</ele>
        <time>2024-10-15T07:22:07.000Z</time>
      </trkpt>
      <trkpt lat="45.10547" lon="5.99264">
        <ele>1571.4000244141</ele>
        <time>2024-10-15T07:22:08.000Z</time>
      </trkpt>
      <trkpt lat="45.10546" lon="5.99264">
        <ele>1571.4000244141</ele>
        <time>2024-10-15T07:22:09.000Z</time>
      </trkpt>
      <trkpt lat="45.10545" lon="5.99264">
        <ele>1571.4000244141</ele>
        <time>2024-10-15T07:22:10.000Z</time>
      </trkpt>
      <trkpt lat="45.10544" lon="5.99265">
        <ele>1571.4000244141</ele>
        <time>2024-10-15T07:22:11.000Z</time>
      </trkpt>
      <trkpt lat="45.10543" lon="5.99265">
        <ele>1571.4000244141</ele>
        <time>2024-10-15T07:22:12.000Z</time>
      </trkpt>
      <trkpt lat="45.10542" lon="5.99266">
        <ele>1571.4000244141</ele>
        <time>2024-10-15T07:22:13.000Z</time>
      </trkpt>
      <trkpt lat="45.10541" lon="5.99266">
        <ele>1571.4000244141</ele>
        <time>2024-10-15T07:22:14.000Z</time>
      </trkpt>
      <trkpt lat="45.1054" lon="5.99266">
        <ele>1571.4000244141</ele>
        <time>2024-10-15T07:22:15.000Z</time>
      </trkpt>
      <trkpt lat="45.10539" lon="5.99266">
        <ele>1571.1999511719</ele>
        <time>2024-10-15T07:22:16.000Z</time>
      </trkpt>
      <trkpt lat="45.10538" lon="5.99266">
        <ele>1571.1999511719</ele>
        <time>2024-10-15T07:22:17.000Z</time>
      </trkpt>
      <trkpt lat="45.10537" lon="5.99266">
        <ele>1571.1999511719</ele>
        <time>2024-10-15T07:22:18.000Z</time>
      </trkpt>
      <trkpt lat="45.10537" lon="5.99266">
        <ele>1571.1999511719</ele>
        <time>2024-10-15T07:22:19.000Z</time>
      </trkpt>
      <trkpt lat="45.10535" lon="5.99266">
        <ele>1571.1999511719</ele>
        <time>2024-10-15T07:22:20.000Z</time>
      </trkpt>
      <trkpt lat="45.10535" lon="5.99266">
        <ele>1571.1999511719</ele>
        <time>2024-10-15T07:22:21.000Z</time>
      </trkpt>
      <trkpt lat="45.10535" lon="5.99264">
        <ele>1571.1999511719</ele>
        <time>2024-10-15T07:22:22.000Z</time>
      </trkpt>
      <trkpt lat="45.10534" lon="5.99265">
        <ele>1571.1999511719</ele>
        <time>2024-10-15T07:22:23.000Z</time>
      </trkpt>
      <trkpt lat="45.10534" lon="5.99264">
        <ele>1571</ele>
        <time>2024-10-15T07:22:24.000Z</time>
      </trkpt>
      <trkpt lat="45.10534" lon="5.99264">
        <ele>1571</ele>
        <time>2024-10-15T07:22:25.000Z</time>
      </trkpt>
      <trkpt lat="45.10534" lon="5.99265">
        <ele>1570.8000488281</ele>
        <time>2024-10-15T07:22:26.000Z</time>
      </trkpt>
      <trkpt lat="45.10533" lon="5.99265">
        <ele>1570.8000488281</ele>
        <time>2024-10-15T07:22:27.000Z</time>
      </trkpt>
      <trkpt lat="45.10532" lon="5.99266">
        <ele>1570.8000488281</ele>
        <time>2024-10-15T07:22:28.000Z</time>
      </trkpt>
      <trkpt lat="45.10532" lon="5.99266">
        <ele>1570.8000488281</ele>
        <time>2024-10-15T07:22:29.000Z</time>
      </trkpt>
      <trkpt lat="45.10531" lon="5.99266">
        <ele>1570.8000488281</ele>
        <time>2024-10-15T07:22:30.000Z</time>
      </trkpt>
      <trkpt lat="45.1053" lon="5.99266">
        <ele>1570.8000488281</ele>
        <time>2024-10-15T07:22:31.000Z</time>
      </trkpt>
      <trkpt lat="45.1053" lon="5.99266">
        <ele>1570.5999755859</ele>
        <time>2024-10-15T07:22:32.000Z</time>
      </trkpt>
      <trkpt lat="45.10529" lon="5.99267">
        <ele>1570.5999755859</ele>
        <time>2024-10-15T07:22:33.000Z</time>
      </trkpt>
      <trkpt lat="45.10529" lon="5.99267">
        <ele>1570.5999755859</ele>
        <time>2024-10-15T07:22:34.000Z</time>
      </trkpt>
      <trkpt lat="45.10528" lon="5.99268">
        <ele>1570.5999755859</ele>
        <time>2024-10-15T07:22:35.000Z</time>
      </trkpt>
      <trkpt lat="45.10528" lon="5.99268">
        <ele>1570.5999755859</ele>
        <time>2024-10-15T07:22:36.000Z</time>
      </trkpt>
      <trkpt lat="45.10527" lon="5.99268">
        <ele>1570.5999755859</ele>
        <time>2024-10-15T07:22:37.000Z</time>
      </trkpt>
      <trkpt lat="45.10526" lon="5.99269">
        <ele>1570.5999755859</ele>
        <time>2024-10-15T07:22:38.000Z</time>
      </trkpt>
      <trkpt lat="45.10525" lon="5.99269">
        <ele>1570.8000488281</ele>
        <time>2024-10-15T07:22:39.000Z</time>
      </trkpt>
      <trkpt lat="45.10524" lon="5.99268">
        <ele>1570.8000488281</ele>
        <time>2024-10-15T07:22:40.000Z</time>
      </trkpt>
      <trkpt lat="45.10524" lon="5.99269">
        <ele>1571.1999511719</ele>
        <time>2024-10-15T07:22:41.000Z</time>
      </trkpt>
      <trkpt lat="45.10523" lon="5.9927">
        <ele>1571.1999511719</ele>
        <time>2024-10-15T07:22:42.000Z</time>
      </trkpt>
      <trkpt lat="45.10523" lon="5.9927">
        <ele>1571.4000244141</ele>
        <time>2024-10-15T07:22:43.000Z</time>
      </trkpt>
      <trkpt lat="45.10522" lon="5.9927">
        <ele>1571.5999755859</ele>
        <time>2024-10-15T07:22:44.000Z</time>
      </trkpt>
      <trkpt lat="45.10522" lon="5.99271">
        <ele>1571.5999755859</ele>
        <time>2024-10-15T07:22:45.000Z</time>
      </trkpt>
      <trkpt lat="45.10521" lon="5.9927">
        <ele>1571.8000488281</ele>
        <time>2024-10-15T07:22:46.000Z</time>
      </trkpt>
      <trkpt lat="45.10519" lon="5.99269">
        <ele>1572</ele>
        <time>2024-10-15T07:22:47.000Z</time>
      </trkpt>
      <trkpt lat="45.10519" lon="5.99268">
        <ele>1572.1999511719</ele>
        <time>2024-10-15T07:22:48.000Z</time>
      </trkpt>
      <trkpt lat="45.10518" lon="5.99268">
        <ele>1572.1999511719</ele>
        <time>2024-10-15T07:22:49.000Z</time>
      </trkpt>
      <trkpt lat="45.10517" lon="5.99267">
        <ele>1572.4000244141</ele>
        <time>2024-10-15T07:22:50.000Z</time>
      </trkpt>
      <trkpt lat="45.10517" lon="5.99267">
        <ele>1572.8000488281</ele>
        <time>2024-10-15T07:22:51.000Z</time>
      </trkpt>
      <trkpt lat="45.10516" lon="5.99266">
        <ele>1572.8000488281</ele>
        <time>2024-10-15T07:22:52.000Z</time>
      </trkpt>
      <trkpt lat="45.10516" lon="5.99265">
        <ele>1573.1999511719</ele>
        <time>2024-10-15T07:22:53.000Z</time>
      </trkpt>
      <trkpt lat="45.10516" lon="5.99265">
        <ele>1573.4000244141</ele>
        <time>2024-10-15T07:22:54.000Z</time>
      </trkpt>
      <trkpt lat="45.10516" lon="5.99264">
        <ele>1573.5999755859</ele>
        <time>2024-10-15T07:22:55.000Z</time>
      </trkpt>
      <trkpt lat="45.10515" lon="5.99263">
        <ele>1574</ele>
        <time>2024-10-15T07:22:56.000Z</time>
      </trkpt>
      <trkpt lat="45.10514" lon="5.99264">
        <ele>1574.4000244141</ele>
        <time>2024-10-15T07:22:57.000Z</time>
      </trkpt>
      <trkpt lat="45.10514" lon="5.99263">
        <ele>1574.5999755859</ele>
        <time>2024-10-15T07:22:58.000Z</time>
      </trkpt>
      <trkpt lat="45.10513" lon="5.99264">
        <ele>1574.5999755859</ele>
        <time>2024-10-15T07:22:59.000Z</time>
      </trkpt>
      <trkpt lat="45.10513" lon="5.99264">
        <ele>1574.8000488281</ele>
        <time>2024-10-15T07:23:00.000Z</time>
      </trkpt>
      <trkpt lat="45.10513" lon="5.99264">
        <ele>1575</ele>
        <time>2024-10-15T07:23:01.000Z</time>
      </trkpt>
      <trkpt lat="45.10512" lon="5.99263">
        <ele>1575.1999511719</ele>
        <time>2024-10-15T07:23:02.000Z</time>
      </trkpt>
      <trkpt lat="45.10512" lon="5.99263">
        <ele>1575.4000244141</ele>
        <time>2024-10-15T07:23:03.000Z</time>
      </trkpt>
      <trkpt lat="45.10511" lon="5.99263">
        <ele>1575.4000244141</ele>
        <time>2024-10-15T07:23:04.000Z</time>
      </trkpt>
      <trkpt lat="45.10511" lon="5.99262">
        <ele>1575.4000244141</ele>
        <time>2024-10-15T07:23:05.000Z</time>
      </trkpt>
      <trkpt lat="45.10511" lon="5.99261">
        <ele>1575.5999755859</ele>
        <time>2024-10-15T07:23:06.000Z</time>
      </trkpt>
      <trkpt lat="45.10511" lon="5.9926">
        <ele>1575.5999755859</ele>
        <time>2024-10-15T07:23:07.000Z</time>
      </trkpt>
      <trkpt lat="45.10511" lon="5.9926">
        <ele>1575.8000488281</ele>
        <time>2024-10-15T07:23:08.000Z</time>
      </trkpt>
      <trkpt lat="45.10511" lon="5.9926">
        <ele>1575.8000488281</ele>
        <time>2024-10-15T07:23:09.000Z</time>
      </trkpt>
      <trkpt lat="45.10511" lon="5.9926">
        <ele>1576.1999511719</ele>
        <time>2024-10-15T07:23:10.000Z</time>
      </trkpt>
      <trkpt lat="45.10509" lon="5.9926">
        <ele>1576.4000244141</ele>
        <time>2024-10-15T07:23:11.000Z</time>
      </trkpt>
      <trkpt lat="45.10508" lon="5.99258">
        <ele>1576.4000244141</ele>
        <time>2024-10-15T07:23:12.000Z</time>
      </trkpt>
      <trkpt lat="45.10508" lon="5.99258">
        <ele>1577</ele>
        <time>2024-10-15T07:23:13.000Z</time>
      </trkpt>
      <trkpt lat="45.10508" lon="5.99258">
        <ele>1577.1999511719</ele>
        <time>2024-10-15T07:23:14.000Z</time>
      </trkpt>
      <trkpt lat="45.10507" lon="5.99259">
        <ele>1577.4000244141</ele>
        <time>2024-10-15T07:23:15.000Z</time>
      </trkpt>
      <trkpt lat="45.10506" lon="5.99258">
        <ele>1577.5999755859</ele>
        <time>2024-10-15T07:23:16.000Z</time>
      </trkpt>
      <trkpt lat="45.10506" lon="5.99258">
        <ele>1577.8000488281</ele>
        <time>2024-10-15T07:23:17.000Z</time>
      </trkpt>
      <trkpt lat="45.10506" lon="5.99257">
        <ele>1578.1999511719</ele>
        <time>2024-10-15T07:23:18.000Z</time>
      </trkpt>
      <trkpt lat="45.10505" lon="5.99258">
        <ele>1578.4000244141</ele>
        <time>2024-10-15T07:23:19.000Z</time>
      </trkpt>
      <trkpt lat="45.10505" lon="5.99257">
        <ele>1578.8000488281</ele>
        <time>2024-10-15T07:23:20.000Z</time>
      </trkpt>
      <trkpt lat="45.10505" lon="5.99259">
        <ele>1578.8000488281</ele>
        <time>2024-10-15T07:23:21.000Z</time>
      </trkpt>
      <trkpt lat="45.10505" lon="5.99259">
        <ele>1579</ele>
        <time>2024-10-15T07:23:22.000Z</time>
      </trkpt>
      <trkpt lat="45.10504" lon="5.99259">
        <ele>1579.1999511719</ele>
        <time>2024-10-15T07:23:23.000Z</time>
      </trkpt>
      <trkpt lat="45.10504" lon="5.99258">
        <ele>1579.4000244141</ele>
        <time>2024-10-15T07:23:24.000Z</time>
      </trkpt>
      <trkpt lat="45.10504" lon="5.99258">
        <ele>1579.8000488281</ele>
        <time>2024-10-15T07:23:25.000Z</time>
      </trkpt>
      <trkpt lat="45.10504" lon="5.99258">
        <ele>1580</ele>
        <time>2024-10-15T07:23:26.000Z</time>
      </trkpt>
      <trkpt lat="45.10505" lon="5.99258">
        <ele>1580.1999511719</ele>
        <time>2024-10-15T07:23:27.000Z</time>
      </trkpt>
      <trkpt lat="45.10505" lon="5.99258">
        <ele>1580.4000244141</ele>
        <time>2024-10-15T07:23:28.000Z</time>
      </trkpt>
      <trkpt lat="45.10505" lon="5.99258">
        <ele>1580.4000244141</ele>
        <time>2024-10-15T07:23:29.000Z</time>
      </trkpt>
      <trkpt lat="45.10505" lon="5.99258">
        <ele>1580.4000244141</ele>
        <time>2024-10-15T07:23:30.000Z</time>
      </trkpt>
      <trkpt lat="45.10505" lon="5.99258">
        <ele>1580.5999755859</ele>
        <time>2024-10-15T07:23:31.000Z</time>
      </trkpt>
      <trkpt lat="45.10505" lon="5.99258">
        <ele>1580.8000488281</ele>
        <time>2024-10-15T07:23:32.000Z</time>
      </trkpt>
      <trkpt lat="45.10505" lon="5.99257">
        <ele>1581</ele>
        <time>2024-10-15T07:23:33.000Z</time>
      </trkpt>
      <trkpt lat="45.10505" lon="5.99256">
        <ele>1581</ele>
        <time>2024-10-15T07:23:34.000Z</time>
      </trkpt>
      <trkpt lat="45.10505" lon="5.99256">
        <ele>1581.1999511719</ele>
        <time>2024-10-15T07:23:35.000Z</time>
      </trkpt>
      <trkpt lat="45.10505" lon="5.99257">
        <ele>1581.1999511719</ele>
        <time>2024-10-15T07:23:36.000Z</time>
      </trkpt>
      <trkpt lat="45.10504" lon="5.99258">
        <ele>1581.5999755859</ele>
        <time>2024-10-15T07:23:37.000Z</time>
      </trkpt>
      <trkpt lat="45.10504" lon="5.99258">
        <ele>1582</ele>
        <time>2024-10-15T07:23:38.000Z</time>
      </trkpt>
      <trkpt lat="45.10505" lon="5.99258">
        <ele>1582</ele>
        <time>2024-10-15T07:23:39.000Z</time>
      </trkpt>
      <trkpt lat="45.10505" lon="5.99258">
        <ele>1582.1999511719</ele>
        <time>2024-10-15T07:23:40.000Z</time>
      </trkpt>
      <trkpt lat="45.10504" lon="5.99258">
        <ele>1582.5999755859</ele>
        <time>2024-10-15T07:23:41.000Z</time>
      </trkpt>
      <trkpt lat="45.10504" lon="5.99258">
        <ele>1582.8000488281</ele>
        <time>2024-10-15T07:23:42.000Z</time>
      </trkpt>
      <trkpt lat="45.10504" lon="5.99258">
        <ele>1583</ele>
        <time>2024-10-15T07:23:43.000Z</time>
      </trkpt>
      <trkpt lat="45.10504" lon="5.99258">
        <ele>1583.1999511719</ele>
        <time>2024-10-15T07:23:44.000Z</time>
      </trkpt>
      <trkpt lat="45.10503" lon="5.99258">
        <ele>1583.1999511719</ele>
        <time>2024-10-15T07:23:45.000Z</time>
      </trkpt>
      <trkpt lat="45.10503" lon="5.99258">
        <ele>1583.4000244141</ele>
        <time>2024-10-15T07:23:46.000Z</time>
      </trkpt>
      <trkpt lat="45.10503" lon="5.99258">
        <ele>1583.5999755859</ele>
        <time>2024-10-15T07:23:47.000Z</time>
      </trkpt>
      <trkpt lat="45.10502" lon="5.99257">
        <ele>1583.8000488281</ele>
        <time>2024-10-15T07:23:48.000Z</time>
      </trkpt>
      <trkpt lat="45.10502" lon="5.99257">
        <ele>1584.1999511719</ele>
        <time>2024-10-15T07:23:49.000Z</time>
      </trkpt>
      <trkpt lat="45.10502" lon="5.99257">
        <ele>1584.5999755859</ele>
        <time>2024-10-15T07:23:50.000Z</time>
      </trkpt>
      <trkpt lat="45.10501" lon="5.99257">
        <ele>1584.5999755859</ele>
        <time>2024-10-15T07:23:51.000Z</time>
      </trkpt>
      <trkpt lat="45.105" lon="5.99257">
        <ele>1585</ele>
        <time>2024-10-15T07:23:52.000Z</time>
      </trkpt>
      <trkpt lat="45.105" lon="5.99257">
        <ele>1585.4000244141</ele>
        <time>2024-10-15T07:23:53.000Z</time>
      </trkpt>
      <trkpt lat="45.105" lon="5.99257">
        <ele>1585.4000244141</ele>
        <time>2024-10-15T07:23:54.000Z</time>
      </trkpt>
      <trkpt lat="45.10499" lon="5.99257">
        <ele>1585.5999755859</ele>
        <time>2024-10-15T07:23:55.000Z</time>
      </trkpt>
      <trkpt lat="45.10499" lon="5.99257">
        <ele>1586</ele>
        <time>2024-10-15T07:23:56.000Z</time>
      </trkpt>
      <trkpt lat="45.10499" lon="5.99257">
        <ele>1586</ele>
        <time>2024-10-15T07:23:57.000Z</time>
      </trkpt>
      <trkpt lat="45.10498" lon="5.99257">
        <ele>1586.1999511719</ele>
        <time>2024-10-15T07:23:58.000Z</time>
      </trkpt>
      <trkpt lat="45.10498" lon="5.99258">
        <ele>1586.5999755859</ele>
        <time>2024-10-15T07:23:59.000Z</time>
      </trkpt>
      <trkpt lat="45.10497" lon="5.99257">
        <ele>1587</ele>
        <time>2024-10-15T07:24:00.000Z</time>
      </trkpt>
      <trkpt lat="45.10497" lon="5.99258">
        <ele>1587</ele>
        <time>2024-10-15T07:24:01.000Z</time>
      </trkpt>
      <trkpt lat="45.10497" lon="5.99258">
        <ele>1587.1999511719</ele>
        <time>2024-10-15T07:24:02.000Z</time>
      </trkpt>
      <trkpt lat="45.10497" lon="5.99259">
        <ele>1587.4000244141</ele>
        <time>2024-10-15T07:24:03.000Z</time>
      </trkpt>
      <trkpt lat="45.10497" lon="5.9926">
        <ele>1587.5999755859</ele>
        <time>2024-10-15T07:24:04.000Z</time>
      </trkpt>
      <trkpt lat="45.10497" lon="5.9926">
        <ele>1587.8000488281</ele>
        <time>2024-10-15T07:24:05.000Z</time>
      </trkpt>
      <trkpt lat="45.10497" lon="5.99261">
        <ele>1588</ele>
        <time>2024-10-15T07:24:06.000Z</time>
      </trkpt>
      <trkpt lat="45.10496" lon="5.99261">
        <ele>1588.1999511719</ele>
        <time>2024-10-15T07:24:07.000Z</time>
      </trkpt>
      <trkpt lat="45.10496" lon="5.99261">
        <ele>1588.4000244141</ele>
        <time>2024-10-15T07:24:08.000Z</time>
      </trkpt>
      <trkpt lat="45.10495" lon="5.99262">
        <ele>1588.5999755859</ele>
        <time>2024-10-15T07:24:09.000Z</time>
      </trkpt>
      <trkpt lat="45.10495" lon="5.99262">
        <ele>1589</ele>
        <time>2024-10-15T07:24:10.000Z</time>
      </trkpt>
      <trkpt lat="45.10495" lon="5.99261">
        <ele>1589.1999511719</ele>
        <time>2024-10-15T07:24:11.000Z</time>
      </trkpt>
      <trkpt lat="45.10494" lon="5.9926">
        <ele>1589.4000244141</ele>
        <time>2024-10-15T07:24:12.000Z</time>
      </trkpt>
      <trkpt lat="45.10494" lon="5.9926">
        <ele>1589.5999755859</ele>
        <time>2024-10-15T07:24:13.000Z</time>
      </trkpt>
      <trkpt lat="45.10494" lon="5.99259">
        <ele>1589.8000488281</ele>
        <time>2024-10-15T07:24:14.000Z</time>
      </trkpt>
      <trkpt lat="45.10493" lon="5.99259">
        <ele>1590</ele>
        <time>2024-10-15T07:24:15.000Z</time>
      </trkpt>
      <trkpt lat="45.10493" lon="5.99258">
        <ele>1590.1999511719</ele>
        <time>2024-10-15T07:24:16.000Z</time>
      </trkpt>
      <trkpt lat="45.10494" lon="5.99257">
        <ele>1590.5999755859</ele>
        <time>2024-10-15T07:24:17.000Z</time>
      </trkpt>
      <trkpt lat="45.10494" lon="5.99257">
        <ele>1591</ele>
        <time>2024-10-15T07:24:18.000Z</time>
      </trkpt>
      <trkpt lat="45.10494" lon="5.99258">
        <ele>1591</ele>
        <time>2024-10-15T07:24:19.000Z</time>
      </trkpt>
      <trkpt lat="45.10494" lon="5.99258">
        <ele>1591.1999511719</ele>
        <time>2024-10-15T07:24:20.000Z</time>
      </trkpt>
      <trkpt lat="45.10494" lon="5.99259">
        <ele>1591.4000244141</ele>
        <time>2024-10-15T07:24:21.000Z</time>
      </trkpt>
      <trkpt lat="45.10494" lon="5.99259">
        <ele>1591.5999755859</ele>
        <time>2024-10-15T07:24:22.000Z</time>
      </trkpt>
      <trkpt lat="45.10495" lon="5.99258">
        <ele>1592</ele>
        <time>2024-10-15T07:24:23.000Z</time>
      </trkpt>
      <trkpt lat="45.10495" lon="5.99258">
        <ele>1592.1999511719</ele>
        <time>2024-10-15T07:24:24.000Z</time>
      </trkpt>
      <trkpt lat="45.10494" lon="5.99258">
        <ele>1592.4000244141</ele>
        <time>2024-10-15T07:24:25.000Z</time>
      </trkpt>
      <trkpt lat="45.10494" lon="5.99258">
        <ele>1592.4000244141</ele>
        <time>2024-10-15T07:24:26.000Z</time>
      </trkpt>
      <trkpt lat="45.10494" lon="5.99258">
        <ele>1592.8000488281</ele>
        <time>2024-10-15T07:24:27.000Z</time>
      </trkpt>
      <trkpt lat="45.10494" lon="5.99258">
        <ele>1592.8000488281</ele>
        <time>2024-10-15T07:24:28.000Z</time>
      </trkpt>
      <trkpt lat="45.10493" lon="5.99258">
        <ele>1593</ele>
        <time>2024-10-15T07:24:29.000Z</time>
      </trkpt>
      <trkpt lat="45.10493" lon="5.99259">
        <ele>1593.1999511719</ele>
        <time>2024-10-15T07:24:30.000Z</time>
      </trkpt>
      <trkpt lat="45.10493" lon="5.99259">
        <ele>1593.5999755859</ele>
        <time>2024-10-15T07:24:31.000Z</time>
      </trkpt>
      <trkpt lat="45.10493" lon="5.99259">
        <ele>1593.8000488281</ele>
        <time>2024-10-15T07:24:32.000Z</time>
      </trkpt>
      <trkpt lat="45.10492" lon="5.9926">
        <ele>1594</ele>
        <time>2024-10-15T07:24:33.000Z</time>
      </trkpt>
      <trkpt lat="45.10491" lon="5.9926">
        <ele>1594.1999511719</ele>
        <time>2024-10-15T07:24:34.000Z</time>
      </trkpt>
      <trkpt lat="45.10491" lon="5.9926">
        <ele>1594.5999755859</ele>
        <time>2024-10-15T07:24:35.000Z</time>
      </trkpt>
      <trkpt lat="45.10491" lon="5.9926">
        <ele>1594.5999755859</ele>
        <time>2024-10-15T07:24:36.000Z</time>
      </trkpt>
      <trkpt lat="45.1049" lon="5.9926">
        <ele>1594.8000488281</ele>
        <time>2024-10-15T07:24:37.000Z</time>
      </trkpt>
      <trkpt lat="45.10489" lon="5.9926">
        <ele>1595.1999511719</ele>
        <time>2024-10-15T07:24:38.000Z</time>
      </trkpt>
      <trkpt lat="45.10489" lon="5.99261">
        <ele>1595.4000244141</ele>
        <time>2024-10-15T07:24:39.000Z</time>
      </trkpt>
      <trkpt lat="45.10488" lon="5.99261">
        <ele>1595.5999755859</ele>
        <time>2024-10-15T07:24:40.000Z</time>
      </trkpt>
      <trkpt lat="45.10488" lon="5.99261">
        <ele>1596</ele>
        <time>2024-10-15T07:24:41.000Z</time>
      </trkpt>
      <trkpt lat="45.10487" lon="5.99261">
        <ele>1596.1999511719</ele>
        <time>2024-10-15T07:24:42.000Z</time>
      </trkpt>
      <trkpt lat="45.10487" lon="5.99261">
        <ele>1596.4000244141</ele>
        <time>2024-10-15T07:24:43.000Z</time>
      </trkpt>
      <trkpt lat="45.10486" lon="5.99261">
        <ele>1596.4000244141</ele>
        <time>2024-10-15T07:24:44.000Z</time>
      </trkpt>
      <trkpt lat="45.10486" lon="5.99261">
        <ele>1596.8000488281</ele>
        <time>2024-10-15T07:24:45.000Z</time>
      </trkpt>
      <trkpt lat="45.10486" lon="5.99261">
        <ele>1597</ele>
        <time>2024-10-15T07:24:46.000Z</time>
      </trkpt>
      <trkpt lat="45.10485" lon="5.99262">
        <ele>1597</ele>
        <time>2024-10-15T07:24:47.000Z</time>
      </trkpt>
      <trkpt lat="45.10484" lon="5.99262">
        <ele>1597.4000244141</ele>
        <time>2024-10-15T07:24:48.000Z</time>
      </trkpt>
      <trkpt lat="45.10484" lon="5.99262">
        <ele>1597.8000488281</ele>
        <time>2024-10-15T07:24:49.000Z</time>
      </trkpt>
      <trkpt lat="45.10483" lon="5.99262">
        <ele>1597.8000488281</ele>
        <time>2024-10-15T07:24:50.000Z</time>
      </trkpt>
      <trkpt lat="45.10483" lon="5.99264">
        <ele>1598</ele>
        <time>2024-10-15T07:24:51.000Z</time>
      </trkpt>
      <trkpt lat="45.10482" lon="5.99265">
        <ele>1598.1999511719</ele>
        <time>2024-10-15T07:24:52.000Z</time>
      </trkpt>
      <trkpt lat="45.10482" lon="5.99265">
        <ele>1598.4000244141</ele>
        <time>2024-10-15T07:24:53.000Z</time>
      </trkpt>
      <trkpt lat="45.10481" lon="5.99265">
        <ele>1598.5999755859</ele>
        <time>2024-10-15T07:24:54.000Z</time>
      </trkpt>
      <trkpt lat="45.1048" lon="5.99265">
        <ele>1598.5999755859</ele>
        <time>2024-10-15T07:24:55.000Z</time>
      </trkpt>
      <trkpt lat="45.1048" lon="5.99265">
        <ele>1598.8000488281</ele>
        <time>2024-10-15T07:24:56.000Z</time>
      </trkpt>
      <trkpt lat="45.10479" lon="5.99265">
        <ele>1599</ele>
        <time>2024-10-15T07:24:57.000Z</time>
      </trkpt>
      <trkpt lat="45.10478" lon="5.99265">
        <ele>1599.1999511719</ele>
        <time>2024-10-15T07:24:58.000Z</time>
      </trkpt>
      <trkpt lat="45.10478" lon="5.99265">
        <ele>1599.4000244141</ele>
        <time>2024-10-15T07:24:59.000Z</time>
      </trkpt>
      <trkpt lat="45.10478" lon="5.99265">
        <ele>1599.5999755859</ele>
        <time>2024-10-15T07:25:00.000Z</time>
      </trkpt>
      <trkpt lat="45.10478" lon="5.99265">
        <ele>1599.8000488281</ele>
        <time>2024-10-15T07:25:01.000Z</time>
      </trkpt>
      <trkpt lat="45.10477" lon="5.99265">
        <ele>1600</ele>
        <time>2024-10-15T07:25:02.000Z</time>
      </trkpt>
      <trkpt lat="45.10477" lon="5.99265">
        <ele>1600.4000244141</ele>
        <time>2024-10-15T07:25:03.000Z</time>
      </trkpt>
      <trkpt lat="45.10477" lon="5.99266">
        <ele>1600.4000244141</ele>
        <time>2024-10-15T07:25:04.000Z</time>
      </trkpt>
      <trkpt lat="45.10476" lon="5.99266">
        <ele>1600.8000488281</ele>
        <time>2024-10-15T07:25:05.000Z</time>
      </trkpt>
      <trkpt lat="45.10476" lon="5.99267">
        <ele>1600.8000488281</ele>
        <time>2024-10-15T07:25:06.000Z</time>
      </trkpt>
      <trkpt lat="45.10476" lon="5.99266">
        <ele>1601.1999511719</ele>
        <time>2024-10-15T07:25:07.000Z</time>
      </trkpt>
      <trkpt lat="45.10475" lon="5.99267">
        <ele>1601.4000244141</ele>
        <time>2024-10-15T07:25:08.000Z</time>
      </trkpt>
      <trkpt lat="45.10475" lon="5.99267">
        <ele>1601.4000244141</ele>
        <time>2024-10-15T07:25:09.000Z</time>
      </trkpt>
      <trkpt lat="45.10474" lon="5.99268">
        <ele>1601.5999755859</ele>
        <time>2024-10-15T07:25:10.000Z</time>
      </trkpt>
      <trkpt lat="45.10473" lon="5.99268">
        <ele>1601.8000488281</ele>
        <time>2024-10-15T07:25:11.000Z</time>
      </trkpt>
      <trkpt lat="45.10472" lon="5.99268">
        <ele>1602</ele>
        <time>2024-10-15T07:25:12.000Z</time>
      </trkpt>
      <trkpt lat="45.10471" lon="5.99267">
        <ele>1602</ele>
        <time>2024-10-15T07:25:13.000Z</time>
      </trkpt>
      <trkpt lat="45.1047" lon="5.99266">
        <ele>1602.4000244141</ele>
        <time>2024-10-15T07:25:14.000Z</time>
      </trkpt>
      <trkpt lat="45.10469" lon="5.99266">
        <ele>1602.5999755859</ele>
        <time>2024-10-15T07:25:15.000Z</time>
      </trkpt>
      <trkpt lat="45.10469" lon="5.99266">
        <ele>1602.8000488281</ele>
        <time>2024-10-15T07:25:16.000Z</time>
      </trkpt>
      <trkpt lat="45.10469" lon="5.99266">
        <ele>1603</ele>
        <time>2024-10-15T07:25:17.000Z</time>
      </trkpt>
      <trkpt lat="45.10468" lon="5.99266">
        <ele>1603.1999511719</ele>
        <time>2024-10-15T07:25:18.000Z</time>
      </trkpt>
      <trkpt lat="45.10467" lon="5.99266">
        <ele>1603.4000244141</ele>
        <time>2024-10-15T07:25:19.000Z</time>
      </trkpt>
      <trkpt lat="45.10467" lon="5.99265">
        <ele>1603.4000244141</ele>
        <time>2024-10-15T07:25:20.000Z</time>
      </trkpt>
      <trkpt lat="45.10467" lon="5.99266">
        <ele>1603.5999755859</ele>
        <time>2024-10-15T07:25:21.000Z</time>
      </trkpt>
      <trkpt lat="45.10466" lon="5.99266">
        <ele>1603.5999755859</ele>
        <time>2024-10-15T07:25:22.000Z</time>
      </trkpt>
      <trkpt lat="45.10466" lon="5.99266">
        <ele>1604</ele>
        <time>2024-10-15T07:25:23.000Z</time>
      </trkpt>
      <trkpt lat="45.10466" lon="5.99266">
        <ele>1604.1999511719</ele>
        <time>2024-10-15T07:25:24.000Z</time>
      </trkpt>
      <trkpt lat="45.10465" lon="5.99266">
        <ele>1604.8000488281</ele>
        <time>2024-10-15T07:25:25.000Z</time>
      </trkpt>
      <trkpt lat="45.10464" lon="5.99267">
        <ele>1605</ele>
        <time>2024-10-15T07:25:26.000Z</time>
      </trkpt>
      <trkpt lat="45.10464" lon="5.99267">
        <ele>1605.1999511719</ele>
        <time>2024-10-15T07:25:27.000Z</time>
      </trkpt>
      <trkpt lat="45.10463" lon="5.99267">
        <ele>1605.4000244141</ele>
        <time>2024-10-15T07:25:28.000Z</time>
      </trkpt>
      <trkpt lat="45.10463" lon="5.99267">
        <ele>1605.5999755859</ele>
        <time>2024-10-15T07:25:29.000Z</time>
      </trkpt>
      <trkpt lat="45.10463" lon="5.99267">
        <ele>1606</ele>
        <time>2024-10-15T07:25:30.000Z</time>
      </trkpt>
      <trkpt lat="45.10462" lon="5.99268">
        <ele>1606</ele>
        <time>2024-10-15T07:25:31.000Z</time>
      </trkpt>
      <trkpt lat="45.10461" lon="5.99269">
        <ele>1606.1999511719</ele>
        <time>2024-10-15T07:25:32.000Z</time>
      </trkpt>
      <trkpt lat="45.1046" lon="5.99269">
        <ele>1606.1999511719</ele>
        <time>2024-10-15T07:25:33.000Z</time>
      </trkpt>
      <trkpt lat="45.10459" lon="5.9927">
        <ele>1606.1999511719</ele>
        <time>2024-10-15T07:25:34.000Z</time>
      </trkpt>
      <trkpt lat="45.10459" lon="5.99271">
        <ele>1606.1999511719</ele>
        <time>2024-10-15T07:25:35.000Z</time>
      </trkpt>
      <trkpt lat="45.10458" lon="5.99271">
        <ele>1606.1999511719</ele>
        <time>2024-10-15T07:25:36.000Z</time>
      </trkpt>
      <trkpt lat="45.10458" lon="5.99271">
        <ele>1606.4000244141</ele>
        <time>2024-10-15T07:25:37.000Z</time>
      </trkpt>
      <trkpt lat="45.10457" lon="5.99271">
        <ele>1606.4000244141</ele>
        <time>2024-10-15T07:25:38.000Z</time>
      </trkpt>
      <trkpt lat="45.10456" lon="5.99271">
        <ele>1606.5999755859</ele>
        <time>2024-10-15T07:25:39.000Z</time>
      </trkpt>
      <trkpt lat="45.10456" lon="5.99271">
        <ele>1607</ele>
        <time>2024-10-15T07:25:40.000Z</time>
      </trkpt>
      <trkpt lat="45.10456" lon="5.99271">
        <ele>1607.1999511719</ele>
        <time>2024-10-15T07:25:41.000Z</time>
      </trkpt>
      <trkpt lat="45.10456" lon="5.99271">
        <ele>1607.5999755859</ele>
        <time>2024-10-15T07:25:42.000Z</time>
      </trkpt>
      <trkpt lat="45.10455" lon="5.99271">
        <ele>1607.5999755859</ele>
        <time>2024-10-15T07:25:43.000Z</time>
      </trkpt>
      <trkpt lat="45.10455" lon="5.99271">
        <ele>1607.8000488281</ele>
        <time>2024-10-15T07:25:44.000Z</time>
      </trkpt>
      <trkpt lat="45.10454" lon="5.99271">
        <ele>1608</ele>
        <time>2024-10-15T07:25:45.000Z</time>
      </trkpt>
      <trkpt lat="45.10454" lon="5.99271">
        <ele>1608.4000244141</ele>
        <time>2024-10-15T07:25:46.000Z</time>
      </trkpt>
      <trkpt lat="45.10454" lon="5.99272">
        <ele>1608.8000488281</ele>
        <time>2024-10-15T07:25:47.000Z</time>
      </trkpt>
      <trkpt lat="45.10454" lon="5.99272">
        <ele>1609.1999511719</ele>
        <time>2024-10-15T07:25:48.000Z</time>
      </trkpt>
      <trkpt lat="45.10454" lon="5.99273">
        <ele>1609.4000244141</ele>
        <time>2024-10-15T07:25:49.000Z</time>
      </trkpt>
      <trkpt lat="45.10453" lon="5.99274">
        <ele>1609.5999755859</ele>
        <time>2024-10-15T07:25:50.000Z</time>
      </trkpt>
      <trkpt lat="45.10453" lon="5.99274">
        <ele>1609.5999755859</ele>
        <time>2024-10-15T07:25:51.000Z</time>
      </trkpt>
      <trkpt lat="45.10453" lon="5.99275">
        <ele>1609.8000488281</ele>
        <time>2024-10-15T07:25:52.000Z</time>
      </trkpt>
      <trkpt lat="45.10453" lon="5.99275">
        <ele>1609.8000488281</ele>
        <time>2024-10-15T07:25:53.000Z</time>
      </trkpt>
      <trkpt lat="45.10453" lon="5.99275">
        <ele>1610.1999511719</ele>
        <time>2024-10-15T07:25:54.000Z</time>
      </trkpt>
      <trkpt lat="45.10452" lon="5.99276">
        <ele>1610.4000244141</ele>
        <time>2024-10-15T07:25:55.000Z</time>
      </trkpt>
      <trkpt lat="45.10452" lon="5.99277">
        <ele>1610.5999755859</ele>
        <time>2024-10-15T07:25:56.000Z</time>
      </trkpt>
      <trkpt lat="45.10452" lon="5.99277">
        <ele>1610.5999755859</ele>
        <time>2024-10-15T07:25:57.000Z</time>
      </trkpt>
      <trkpt lat="45.10452" lon="5.99277">
        <ele>1610.8000488281</ele>
        <time>2024-10-15T07:25:58.000Z</time>
      </trkpt>
      <trkpt lat="45.10452" lon="5.99278">
        <ele>1611</ele>
        <time>2024-10-15T07:25:59.000Z</time>
      </trkpt>
      <trkpt lat="45.10452" lon="5.99278">
        <ele>1611.1999511719</ele>
        <time>2024-10-15T07:26:00.000Z</time>
      </trkpt>
      <trkpt lat="45.10451" lon="5.99277">
        <ele>1611.5999755859</ele>
        <time>2024-10-15T07:26:01.000Z</time>
      </trkpt>
      <trkpt lat="45.1045" lon="5.99277">
        <ele>1611.8000488281</ele>
        <time>2024-10-15T07:26:02.000Z</time>
      </trkpt>
      <trkpt lat="45.1045" lon="5.99277">
        <ele>1611.8000488281</ele>
        <time>2024-10-15T07:26:03.000Z</time>
      </trkpt>
      <trkpt lat="45.10449" lon="5.99277">
        <ele>1612.1999511719</ele>
        <time>2024-10-15T07:26:04.000Z</time>
      </trkpt>
      <trkpt lat="45.10449" lon="5.99278">
        <ele>1612.4000244141</ele>
        <time>2024-10-15T07:26:05.000Z</time>
      </trkpt>
      <trkpt lat="45.10448" lon="5.99279">
        <ele>1612.5999755859</ele>
        <time>2024-10-15T07:26:06.000Z</time>
      </trkpt>
      <trkpt lat="45.10448" lon="5.9928">
        <ele>1612.8000488281</ele>
        <time>2024-10-15T07:26:07.000Z</time>
      </trkpt>
      <trkpt lat="45.10447" lon="5.99281">
        <ele>1612.8000488281</ele>
        <time>2024-10-15T07:26:08.000Z</time>
      </trkpt>
      <trkpt lat="45.10446" lon="5.99281">
        <ele>1613.1999511719</ele>
        <time>2024-10-15T07:26:09.000Z</time>
      </trkpt>
      <trkpt lat="45.10445" lon="5.99281">
        <ele>1613.5999755859</ele>
        <time>2024-10-15T07:26:10.000Z</time>
      </trkpt>
      <trkpt lat="45.10445" lon="5.99281">
        <ele>1613.5999755859</ele>
        <time>2024-10-15T07:26:11.000Z</time>
      </trkpt>
      <trkpt lat="45.10445" lon="5.99282">
        <ele>1613.8000488281</ele>
        <time>2024-10-15T07:26:12.000Z</time>
      </trkpt>
      <trkpt lat="45.10444" lon="5.99282">
        <ele>1614</ele>
        <time>2024-10-15T07:26:13.000Z</time>
      </trkpt>
      <trkpt lat="45.10444" lon="5.99282">
        <ele>1614</ele>
        <time>2024-10-15T07:26:14.000Z</time>
      </trkpt>
      <trkpt lat="45.10444" lon="5.99283">
        <ele>1614.4000244141</ele>
        <time>2024-10-15T07:26:15.000Z</time>
      </trkpt>
      <trkpt lat="45.10443" lon="5.99283">
        <ele>1614.5999755859</ele>
        <time>2024-10-15T07:26:16.000Z</time>
      </trkpt>
      <trkpt lat="45.10443" lon="5.99284">
        <ele>1614.8000488281</ele>
        <time>2024-10-15T07:26:17.000Z</time>
      </trkpt>
      <trkpt lat="45.10442" lon="5.99284">
        <ele>1615</ele>
        <time>2024-10-15T07:26:18.000Z</time>
      </trkpt>
      <trkpt lat="45.10442" lon="5.99284">
        <ele>1615.1999511719</ele>
        <time>2024-10-15T07:26:19.000Z</time>
      </trkpt>
      <trkpt lat="45.10442" lon="5.99284">
        <ele>1615.1999511719</ele>
        <time>2024-10-15T07:26:20.000Z</time>
      </trkpt>
      <trkpt lat="45.10442" lon="5.99284">
        <ele>1615.5999755859</ele>
        <time>2024-10-15T07:26:21.000Z</time>
      </trkpt>
      <trkpt lat="45.10441" lon="5.99284">
        <ele>1615.8000488281</ele>
        <time>2024-10-15T07:26:22.000Z</time>
      </trkpt>
      <trkpt lat="45.10442" lon="5.99284">
        <ele>1616</ele>
        <time>2024-10-15T07:26:23.000Z</time>
      </trkpt>
      <trkpt lat="45.10441" lon="5.99284">
        <ele>1616.1999511719</ele>
        <time>2024-10-15T07:26:24.000Z</time>
      </trkpt>
      <trkpt lat="45.10441" lon="5.99284">
        <ele>1616.5999755859</ele>
        <time>2024-10-15T07:26:25.000Z</time>
      </trkpt>
      <trkpt lat="45.1044" lon="5.99284">
        <ele>1616.8000488281</ele>
        <time>2024-10-15T07:26:26.000Z</time>
      </trkpt>
      <trkpt lat="45.1044" lon="5.99283">
        <ele>1617</ele>
        <time>2024-10-15T07:26:27.000Z</time>
      </trkpt>
      <trkpt lat="45.1044" lon="5.99283">
        <ele>1617.4000244141</ele>
        <time>2024-10-15T07:26:28.000Z</time>
      </trkpt>
      <trkpt lat="45.10439" lon="5.99283">
        <ele>1617.5999755859</ele>
        <time>2024-10-15T07:26:29.000Z</time>
      </trkpt>
      <trkpt lat="45.10439" lon="5.99283">
        <ele>1617.8000488281</ele>
        <time>2024-10-15T07:26:30.000Z</time>
      </trkpt>
      <trkpt lat="45.10439" lon="5.99282">
        <ele>1618.1999511719</ele>
        <time>2024-10-15T07:26:31.000Z</time>
      </trkpt>
      <trkpt lat="45.10438" lon="5.99282">
        <ele>1618.1999511719</ele>
        <time>2024-10-15T07:26:32.000Z</time>
      </trkpt>
      <trkpt lat="45.10438" lon="5.99282">
        <ele>1618.8000488281</ele>
        <time>2024-10-15T07:26:33.000Z</time>
      </trkpt>
      <trkpt lat="45.10438" lon="5.99282">
        <ele>1619</ele>
        <time>2024-10-15T07:26:34.000Z</time>
      </trkpt>
      <trkpt lat="45.10437" lon="5.99282">
        <ele>1619.1999511719</ele>
        <time>2024-10-15T07:26:35.000Z</time>
      </trkpt>
      <trkpt lat="45.10437" lon="5.99283">
        <ele>1619.4000244141</ele>
        <time>2024-10-15T07:26:36.000Z</time>
      </trkpt>
      <trkpt lat="45.10436" lon="5.99283">
        <ele>1619.5999755859</ele>
        <time>2024-10-15T07:26:37.000Z</time>
      </trkpt>
      <trkpt lat="45.10436" lon="5.99283">
        <ele>1619.8000488281</ele>
        <time>2024-10-15T07:26:38.000Z</time>
      </trkpt>
      <trkpt lat="45.10436" lon="5.99283">
        <ele>1620</ele>
        <time>2024-10-15T07:26:39.000Z</time>
      </trkpt>
      <trkpt lat="45.10435" lon="5.99283">
        <ele>1620</ele>
        <time>2024-10-15T07:26:40.000Z</time>
      </trkpt>
      <trkpt lat="45.10435" lon="5.99283">
        <ele>1620.4000244141</ele>
        <time>2024-10-15T07:26:41.000Z</time>
      </trkpt>
      <trkpt lat="45.10435" lon="5.99283">
        <ele>1620.5999755859</ele>
        <time>2024-10-15T07:26:42.000Z</time>
      </trkpt>
      <trkpt lat="45.10434" lon="5.99283">
        <ele>1621</ele>
        <time>2024-10-15T07:26:43.000Z</time>
      </trkpt>
      <trkpt lat="45.10434" lon="5.99284">
        <ele>1621</ele>
        <time>2024-10-15T07:26:44.000Z</time>
      </trkpt>
      <trkpt lat="45.10434" lon="5.99284">
        <ele>1621.1999511719</ele>
        <time>2024-10-15T07:26:45.000Z</time>
      </trkpt>
      <trkpt lat="45.10434" lon="5.99285">
        <ele>1621.4000244141</ele>
        <time>2024-10-15T07:26:46.000Z</time>
      </trkpt>
      <trkpt lat="45.10433" lon="5.99285">
        <ele>1621.5999755859</ele>
        <time>2024-10-15T07:26:47.000Z</time>
      </trkpt>
      <trkpt lat="45.10432" lon="5.99285">
        <ele>1621.8000488281</ele>
        <time>2024-10-15T07:26:48.000Z</time>
      </trkpt>
      <trkpt lat="45.10432" lon="5.99285">
        <ele>1622.1999511719</ele>
        <time>2024-10-15T07:26:49.000Z</time>
      </trkpt>
      <trkpt lat="45.10432" lon="5.99285">
        <ele>1622.4000244141</ele>
        <time>2024-10-15T07:26:50.000Z</time>
      </trkpt>
      <trkpt lat="45.10431" lon="5.99285">
        <ele>1622.5999755859</ele>
        <time>2024-10-15T07:26:51.000Z</time>
      </trkpt>
      <trkpt lat="45.10432" lon="5.99285">
        <ele>1622.5999755859</ele>
        <time>2024-10-15T07:26:52.000Z</time>
      </trkpt>
      <trkpt lat="45.10432" lon="5.99286">
        <ele>1622.8000488281</ele>
        <time>2024-10-15T07:26:53.000Z</time>
      </trkpt>
      <trkpt lat="45.10432" lon="5.99286">
        <ele>1623</ele>
        <time>2024-10-15T07:26:54.000Z</time>
      </trkpt>
      <trkpt lat="45.10431" lon="5.99286">
        <ele>1623.1999511719</ele>
        <time>2024-10-15T07:26:55.000Z</time>
      </trkpt>
      <trkpt lat="45.10431" lon="5.99286">
        <ele>1623.4000244141</ele>
        <time>2024-10-15T07:26:56.000Z</time>
      </trkpt>
      <trkpt lat="45.10431" lon="5.99286">
        <ele>1623.5999755859</ele>
        <time>2024-10-15T07:26:57.000Z</time>
      </trkpt>
      <trkpt lat="45.10431" lon="5.99286">
        <ele>1623.8000488281</ele>
        <time>2024-10-15T07:26:58.000Z</time>
      </trkpt>
      <trkpt lat="45.1043" lon="5.99286">
        <ele>1624.1999511719</ele>
        <time>2024-10-15T07:26:59.000Z</time>
      </trkpt>
      <trkpt lat="45.1043" lon="5.99286">
        <ele>1624.4000244141</ele>
        <time>2024-10-15T07:27:00.000Z</time>
      </trkpt>
      <trkpt lat="45.1043" lon="5.99286">
        <ele>1624.4000244141</ele>
        <time>2024-10-15T07:27:01.000Z</time>
      </trkpt>
      <trkpt lat="45.1043" lon="5.99286">
        <ele>1624.8000488281</ele>
        <time>2024-10-15T07:27:02.000Z</time>
      </trkpt>
      <trkpt lat="45.10429" lon="5.99286">
        <ele>1624.8000488281</ele>
        <time>2024-10-15T07:27:03.000Z</time>
      </trkpt>
      <trkpt lat="45.10429" lon="5.99286">
        <ele>1625</ele>
        <time>2024-10-15T07:27:04.000Z</time>
      </trkpt>
      <trkpt lat="45.10429" lon="5.99286">
        <ele>1625.1999511719</ele>
        <time>2024-10-15T07:27:05.000Z</time>
      </trkpt>
      <trkpt lat="45.10429" lon="5.99287">
        <ele>1625.4000244141</ele>
        <time>2024-10-15T07:27:06.000Z</time>
      </trkpt>
      <trkpt lat="45.10429" lon="5.99287">
        <ele>1625.4000244141</ele>
        <time>2024-10-15T07:27:07.000Z</time>
      </trkpt>
      <trkpt lat="45.10429" lon="5.99287">
        <ele>1625.5999755859</ele>
        <time>2024-10-15T07:27:08.000Z</time>
      </trkpt>
      <trkpt lat="45.10429" lon="5.99287">
        <ele>1625.5999755859</ele>
        <time>2024-10-15T07:27:09.000Z</time>
      </trkpt>
      <trkpt lat="45.10429" lon="5.99288">
        <ele>1625.8000488281</ele>
        <time>2024-10-15T07:27:10.000Z</time>
      </trkpt>
      <trkpt lat="45.10428" lon="5.99288">
        <ele>1625.8000488281</ele>
        <time>2024-10-15T07:27:11.000Z</time>
      </trkpt>
      <trkpt lat="45.10428" lon="5.99289">
        <ele>1625.8000488281</ele>
        <time>2024-10-15T07:27:12.000Z</time>
      </trkpt>
      <trkpt lat="45.10428" lon="5.99289">
        <ele>1626</ele>
        <time>2024-10-15T07:27:13.000Z</time>
      </trkpt>
      <trkpt lat="45.10428" lon="5.99289">
        <ele>1626.1999511719</ele>
        <time>2024-10-15T07:27:14.000Z</time>
      </trkpt>
      <trkpt lat="45.10428" lon="5.9929">
        <ele>1626.4000244141</ele>
        <time>2024-10-15T07:27:15.000Z</time>
      </trkpt>
      <trkpt lat="45.10428" lon="5.99291">
        <ele>1626.5999755859</ele>
        <time>2024-10-15T07:27:16.000Z</time>
      </trkpt>
      <trkpt lat="45.10428" lon="5.99291">
        <ele>1626.8000488281</ele>
        <time>2024-10-15T07:27:17.000Z</time>
      </trkpt>
      <trkpt lat="45.10428" lon="5.99292">
        <ele>1626.8000488281</ele>
        <time>2024-10-15T07:27:18.000Z</time>
      </trkpt>
      <trkpt lat="45.10427" lon="5.99293">
        <ele>1627</ele>
        <time>2024-10-15T07:27:19.000Z</time>
      </trkpt>
      <trkpt lat="45.10426" lon="5.99293">
        <ele>1627</ele>
        <time>2024-10-15T07:27:20.000Z</time>
      </trkpt>
      <trkpt lat="45.10426" lon="5.99294">
        <ele>1627.1999511719</ele>
        <time>2024-10-15T07:27:21.000Z</time>
      </trkpt>
      <trkpt lat="45.10426" lon="5.99294">
        <ele>1627.4000244141</ele>
        <time>2024-10-15T07:27:22.000Z</time>
      </trkpt>
      <trkpt lat="45.10426" lon="5.99294">
        <ele>1627.4000244141</ele>
        <time>2024-10-15T07:27:23.000Z</time>
      </trkpt>
      <trkpt lat="45.10426" lon="5.99294">
        <ele>1627.4000244141</ele>
        <time>2024-10-15T07:27:24.000Z</time>
      </trkpt>
      <trkpt lat="45.10425" lon="5.99294">
        <ele>1627.4000244141</ele>
        <time>2024-10-15T07:27:25.000Z</time>
      </trkpt>
      <trkpt lat="45.10425" lon="5.99294">
        <ele>1627.5999755859</ele>
        <time>2024-10-15T07:27:26.000Z</time>
      </trkpt>
      <trkpt lat="45.10424" lon="5.99294">
        <ele>1627.8000488281</ele>
        <time>2024-10-15T07:27:27.000Z</time>
      </trkpt>
      <trkpt lat="45.10423" lon="5.99294">
        <ele>1628.1999511719</ele>
        <time>2024-10-15T07:27:28.000Z</time>
      </trkpt>
      <trkpt lat="45.10423" lon="5.99294">
        <ele>1628.1999511719</ele>
        <time>2024-10-15T07:27:29.000Z</time>
      </trkpt>
      <trkpt lat="45.10423" lon="5.99294">
        <ele>1628.1999511719</ele>
        <time>2024-10-15T07:27:30.000Z</time>
      </trkpt>
      <trkpt lat="45.10423" lon="5.99295">
        <ele>1628.1999511719</ele>
        <time>2024-10-15T07:27:31.000Z</time>
      </trkpt>
      <trkpt lat="45.10422" lon="5.99295">
        <ele>1628</ele>
        <time>2024-10-15T07:27:32.000Z</time>
      </trkpt>
      <trkpt lat="45.10422" lon="5.99296">
        <ele>1628</ele>
        <time>2024-10-15T07:27:33.000Z</time>
      </trkpt>
      <trkpt lat="45.10422" lon="5.99296">
        <ele>1627.5999755859</ele>
        <time>2024-10-15T07:27:34.000Z</time>
      </trkpt>
      <trkpt lat="45.10422" lon="5.99296">
        <ele>1627.4000244141</ele>
        <time>2024-10-15T07:27:35.000Z</time>
      </trkpt>
      <trkpt lat="45.10422" lon="5.99297">
        <ele>1627.1999511719</ele>
        <time>2024-10-15T07:27:36.000Z</time>
      </trkpt>
      <trkpt lat="45.10421" lon="5.99297">
        <ele>1627</ele>
        <time>2024-10-15T07:27:37.000Z</time>
      </trkpt>
      <trkpt lat="45.1042" lon="5.99298">
        <ele>1626.8000488281</ele>
        <time>2024-10-15T07:27:38.000Z</time>
      </trkpt>
      <trkpt lat="45.10419" lon="5.99299">
        <ele>1626.4000244141</ele>
        <time>2024-10-15T07:27:39.000Z</time>
      </trkpt>
      <trkpt lat="45.10419" lon="5.993">
        <ele>1626.1999511719</ele>
        <time>2024-10-15T07:27:40.000Z</time>
      </trkpt>
      <trkpt lat="45.10419" lon="5.99299">
        <ele>1626.1999511719</ele>
        <time>2024-10-15T07:27:41.000Z</time>
      </trkpt>
      <trkpt lat="45.10418" lon="5.993">
        <ele>1626.1999511719</ele>
        <time>2024-10-15T07:27:42.000Z</time>
      </trkpt>
      <trkpt lat="45.10418" lon="5.993">
        <ele>1626.1999511719</ele>
        <time>2024-10-15T07:27:43.000Z</time>
      </trkpt>
      <trkpt lat="45.10417" lon="5.993">
        <ele>1626.4000244141</ele>
        <time>2024-10-15T07:27:44.000Z</time>
      </trkpt>
      <trkpt lat="45.10417" lon="5.993">
        <ele>1626.4000244141</ele>
        <time>2024-10-15T07:27:45.000Z</time>
      </trkpt>
      <trkpt lat="45.10416" lon="5.99301">
        <ele>1626.5999755859</ele>
        <time>2024-10-15T07:27:46.000Z</time>
      </trkpt>
      <trkpt lat="45.10416" lon="5.99301">
        <ele>1627</ele>
        <time>2024-10-15T07:27:47.000Z</time>
      </trkpt>
      <trkpt lat="45.10415" lon="5.99301">
        <ele>1627.4000244141</ele>
        <time>2024-10-15T07:27:48.000Z</time>
      </trkpt>
      <trkpt lat="45.10414" lon="5.99301">
        <ele>1627.4000244141</ele>
        <time>2024-10-15T07:27:49.000Z</time>
      </trkpt>
      <trkpt lat="45.10414" lon="5.99301">
        <ele>1627.8000488281</ele>
        <time>2024-10-15T07:27:50.000Z</time>
      </trkpt>
      <trkpt lat="45.10414" lon="5.99301">
        <ele>1628.1999511719</ele>
        <time>2024-10-15T07:27:51.000Z</time>
      </trkpt>
      <trkpt lat="45.10414" lon="5.99302">
        <ele>1628.4000244141</ele>
        <time>2024-10-15T07:27:52.000Z</time>
      </trkpt>
      <trkpt lat="45.10414" lon="5.99302">
        <ele>1628.8000488281</ele>
        <time>2024-10-15T07:27:53.000Z</time>
      </trkpt>
      <trkpt lat="45.10414" lon="5.99303">
        <ele>1629.1999511719</ele>
        <time>2024-10-15T07:27:54.000Z</time>
      </trkpt>
      <trkpt lat="45.10414" lon="5.99303">
        <ele>1629.4000244141</ele>
        <time>2024-10-15T07:27:55.000Z</time>
      </trkpt>
      <trkpt lat="45.10413" lon="5.99303">
        <ele>1629.5999755859</ele>
        <time>2024-10-15T07:27:56.000Z</time>
      </trkpt>
      <trkpt lat="45.10413" lon="5.99304">
        <ele>1629.5999755859</ele>
        <time>2024-10-15T07:27:57.000Z</time>
      </trkpt>
      <trkpt lat="45.10413" lon="5.99305">
        <ele>1629.8000488281</ele>
        <time>2024-10-15T07:27:58.000Z</time>
      </trkpt>
      <trkpt lat="45.10412" lon="5.99305">
        <ele>1630</ele>
        <time>2024-10-15T07:27:59.000Z</time>
      </trkpt>
      <trkpt lat="45.10412" lon="5.99305">
        <ele>1630.1999511719</ele>
        <time>2024-10-15T07:28:00.000Z</time>
      </trkpt>
      <trkpt lat="45.10412" lon="5.99305">
        <ele>1630.1999511719</ele>
        <time>2024-10-15T07:28:01.000Z</time>
      </trkpt>
      <trkpt lat="45.10411" lon="5.99305">
        <ele>1630.4000244141</ele>
        <time>2024-10-15T07:28:02.000Z</time>
      </trkpt>
      <trkpt lat="45.10411" lon="5.99305">
        <ele>1630.5999755859</ele>
        <time>2024-10-15T07:28:03.000Z</time>
      </trkpt>
      <trkpt lat="45.1041" lon="5.99305">
        <ele>1630.5999755859</ele>
        <time>2024-10-15T07:28:04.000Z</time>
      </trkpt>
      <trkpt lat="45.1041" lon="5.99305">
        <ele>1630.8000488281</ele>
        <time>2024-10-15T07:28:05.000Z</time>
      </trkpt>
      <trkpt lat="45.1041" lon="5.99306">
        <ele>1631</ele>
        <time>2024-10-15T07:28:06.000Z</time>
      </trkpt>
      <trkpt lat="45.10409" lon="5.99305">
        <ele>1631.1999511719</ele>
        <time>2024-10-15T07:28:07.000Z</time>
      </trkpt>
      <trkpt lat="45.10409" lon="5.99305">
        <ele>1631.4000244141</ele>
        <time>2024-10-15T07:28:08.000Z</time>
      </trkpt>
      <trkpt lat="45.10409" lon="5.99305">
        <ele>1632</ele>
        <time>2024-10-15T07:28:09.000Z</time>
      </trkpt>
      <trkpt lat="45.10409" lon="5.99304">
        <ele>1632.1999511719</ele>
        <time>2024-10-15T07:28:10.000Z</time>
      </trkpt>
      <trkpt lat="45.10408" lon="5.99304">
        <ele>1632.4000244141</ele>
        <time>2024-10-15T07:28:11.000Z</time>
      </trkpt>
      <trkpt lat="45.10408" lon="5.99304">
        <ele>1632.5999755859</ele>
        <time>2024-10-15T07:28:12.000Z</time>
      </trkpt>
      <trkpt lat="45.10408" lon="5.99304">
        <ele>1633</ele>
        <time>2024-10-15T07:28:13.000Z</time>
      </trkpt>
      <trkpt lat="45.10408" lon="5.99304">
        <ele>1633.1999511719</ele>
        <time>2024-10-15T07:28:14.000Z</time>
      </trkpt>
      <trkpt lat="45.10408" lon="5.99304">
        <ele>1633.4000244141</ele>
        <time>2024-10-15T07:28:15.000Z</time>
      </trkpt>
      <trkpt lat="45.10407" lon="5.99304">
        <ele>1633.5999755859</ele>
        <time>2024-10-15T07:28:16.000Z</time>
      </trkpt>
      <trkpt lat="45.10407" lon="5.99304">
        <ele>1633.8000488281</ele>
        <time>2024-10-15T07:28:17.000Z</time>
      </trkpt>
      <trkpt lat="45.10406" lon="5.99304">
        <ele>1634</ele>
        <time>2024-10-15T07:28:18.000Z</time>
      </trkpt>
      <trkpt lat="45.10406" lon="5.99305">
        <ele>1634.1999511719</ele>
        <time>2024-10-15T07:28:19.000Z</time>
      </trkpt>
      <trkpt lat="45.10405" lon="5.99305">
        <ele>1634.4000244141</ele>
        <time>2024-10-15T07:28:20.000Z</time>
      </trkpt>
      <trkpt lat="45.10405" lon="5.99304">
        <ele>1634.4000244141</ele>
        <time>2024-10-15T07:28:21.000Z</time>
      </trkpt>
      <trkpt lat="45.10405" lon="5.99305">
        <ele>1634.5999755859</ele>
        <time>2024-10-15T07:28:22.000Z</time>
      </trkpt>
      <trkpt lat="45.10405" lon="5.99305">
        <ele>1634.5999755859</ele>
        <time>2024-10-15T07:28:23.000Z</time>
      </trkpt>
      <trkpt lat="45.10404" lon="5.99305">
        <ele>1634.8000488281</ele>
        <time>2024-10-15T07:28:24.000Z</time>
      </trkpt>
      <trkpt lat="45.10404" lon="5.99306">
        <ele>1635</ele>
        <time>2024-10-15T07:28:25.000Z</time>
      </trkpt>
      <trkpt lat="45.10404" lon="5.99306">
        <ele>1635.4000244141</ele>
        <time>2024-10-15T07:28:26.000Z</time>
      </trkpt>
      <trkpt lat="45.10403" lon="5.99305">
        <ele>1635.5999755859</ele>
        <time>2024-10-15T07:28:27.000Z</time>
      </trkpt>
      <trkpt lat="45.10403" lon="5.99305">
        <ele>1635.8000488281</ele>
        <time>2024-10-15T07:28:28.000Z</time>
      </trkpt>
      <trkpt lat="45.10403" lon="5.99305">
        <ele>1636</ele>
        <time>2024-10-15T07:28:29.000Z</time>
      </trkpt>
      <trkpt lat="45.10403" lon="5.99305">
        <ele>1636.1999511719</ele>
        <time>2024-10-15T07:28:30.000Z</time>
      </trkpt>
      <trkpt lat="45.10402" lon="5.99304">
        <ele>1636.4000244141</ele>
        <time>2024-10-15T07:28:31.000Z</time>
      </trkpt>
      <trkpt lat="45.10402" lon="5.99305">
        <ele>1636.4000244141</ele>
        <time>2024-10-15T07:28:32.000Z</time>
      </trkpt>
      <trkpt lat="45.10401" lon="5.99305">
        <ele>1636.5999755859</ele>
        <time>2024-10-15T07:28:33.000Z</time>
      </trkpt>
      <trkpt lat="45.10401" lon="5.99305">
        <ele>1636.5999755859</ele>
        <time>2024-10-15T07:28:34.000Z</time>
      </trkpt>
      <trkpt lat="45.10401" lon="5.99305">
        <ele>1636.8000488281</ele>
        <time>2024-10-15T07:28:35.000Z</time>
      </trkpt>
      <trkpt lat="45.10401" lon="5.99305">
        <ele>1637</ele>
        <time>2024-10-15T07:28:36.000Z</time>
      </trkpt>
      <trkpt lat="45.104" lon="5.99305">
        <ele>1637</ele>
        <time>2024-10-15T07:28:37.000Z</time>
      </trkpt>
      <trkpt lat="45.104" lon="5.99304">
        <ele>1637.1999511719</ele>
        <time>2024-10-15T07:28:38.000Z</time>
      </trkpt>
      <trkpt lat="45.10399" lon="5.99304">
        <ele>1637.4000244141</ele>
        <time>2024-10-15T07:28:39.000Z</time>
      </trkpt>
      <trkpt lat="45.10399" lon="5.99304">
        <ele>1637.5999755859</ele>
        <time>2024-10-15T07:28:40.000Z</time>
      </trkpt>
      <trkpt lat="45.10398" lon="5.99304">
        <ele>1637.5999755859</ele>
        <time>2024-10-15T07:28:41.000Z</time>
      </trkpt>
      <trkpt lat="45.10398" lon="5.99305">
        <ele>1637.5999755859</ele>
        <time>2024-10-15T07:28:42.000Z</time>
      </trkpt>
      <trkpt lat="45.10398" lon="5.99305">
        <ele>1637.5999755859</ele>
        <time>2024-10-15T07:28:43.000Z</time>
      </trkpt>
      <trkpt lat="45.10397" lon="5.99305">
        <ele>1637.5999755859</ele>
        <time>2024-10-15T07:28:44.000Z</time>
      </trkpt>
      <trkpt lat="45.10397" lon="5.99306">
        <ele>1637.4000244141</ele>
        <time>2024-10-15T07:28:45.000Z</time>
      </trkpt>
      <trkpt lat="45.10396" lon="5.99306">
        <ele>1637.4000244141</ele>
        <time>2024-10-15T07:28:46.000Z</time>
      </trkpt>
      <trkpt lat="45.10395" lon="5.99307">
        <ele>1637.4000244141</ele>
        <time>2024-10-15T07:28:47.000Z</time>
      </trkpt>
      <trkpt lat="45.10394" lon="5.99307">
        <ele>1637.4000244141</ele>
        <time>2024-10-15T07:28:48.000Z</time>
      </trkpt>
      <trkpt lat="45.10394" lon="5.99306">
        <ele>1637.4000244141</ele>
        <time>2024-10-15T07:28:49.000Z</time>
      </trkpt>
      <trkpt lat="45.10393" lon="5.99306">
        <ele>1637.4000244141</ele>
        <time>2024-10-15T07:28:50.000Z</time>
      </trkpt>
      <trkpt lat="45.10393" lon="5.99306">
        <ele>1637.4000244141</ele>
        <time>2024-10-15T07:28:51.000Z</time>
      </trkpt>
      <trkpt lat="45.10392" lon="5.99306">
        <ele>1637.5999755859</ele>
        <time>2024-10-15T07:28:52.000Z</time>
      </trkpt>
      <trkpt lat="45.10391" lon="5.99306">
        <ele>1637.8000488281</ele>
        <time>2024-10-15T07:28:53.000Z</time>
      </trkpt>
      <trkpt lat="45.10391" lon="5.99306">
        <ele>1638</ele>
        <time>2024-10-15T07:28:54.000Z</time>
      </trkpt>
      <trkpt lat="45.1039" lon="5.99306">
        <ele>1638</ele>
        <time>2024-10-15T07:28:55.000Z</time>
      </trkpt>
      <trkpt lat="45.1039" lon="5.99306">
        <ele>1638</ele>
        <time>2024-10-15T07:28:56.000Z</time>
      </trkpt>
      <trkpt lat="45.10389" lon="5.99306">
        <ele>1638.1999511719</ele>
        <time>2024-10-15T07:28:57.000Z</time>
      </trkpt>
      <trkpt lat="45.10389" lon="5.99306">
        <ele>1638.1999511719</ele>
        <time>2024-10-15T07:28:58.000Z</time>
      </trkpt>
      <trkpt lat="45.10388" lon="5.99307">
        <ele>1638.4000244141</ele>
        <time>2024-10-15T07:28:59.000Z</time>
      </trkpt>
      <trkpt lat="45.10388" lon="5.99308">
        <ele>1638.4000244141</ele>
        <time>2024-10-15T07:29:00.000Z</time>
      </trkpt>
      <trkpt lat="45.10387" lon="5.99308">
        <ele>1638.5999755859</ele>
        <time>2024-10-15T07:29:01.000Z</time>
      </trkpt>
      <trkpt lat="45.10386" lon="5.99309">
        <ele>1638.8000488281</ele>
        <time>2024-10-15T07:29:02.000Z</time>
      </trkpt>
      <trkpt lat="45.10385" lon="5.99309">
        <ele>1639</ele>
        <time>2024-10-15T07:29:03.000Z</time>
      </trkpt>
      <trkpt lat="45.10385" lon="5.99308">
        <ele>1639</ele>
        <time>2024-10-15T07:29:04.000Z</time>
      </trkpt>
      <trkpt lat="45.10384" lon="5.99308">
        <ele>1639.1999511719</ele>
        <time>2024-10-15T07:29:05.000Z</time>
      </trkpt>
      <trkpt lat="45.10384" lon="5.99307">
        <ele>1639.5999755859</ele>
        <time>2024-10-15T07:29:06.000Z</time>
      </trkpt>
      <trkpt lat="45.10384" lon="5.99307">
        <ele>1639.8000488281</ele>
        <time>2024-10-15T07:29:07.000Z</time>
      </trkpt>
      <trkpt lat="45.10383" lon="5.99307">
        <ele>1640</ele>
        <time>2024-10-15T07:29:08.000Z</time>
      </trkpt>
      <trkpt lat="45.10383" lon="5.99306">
        <ele>1640.1999511719</ele>
        <time>2024-10-15T07:29:09.000Z</time>
      </trkpt>
      <trkpt lat="45.10383" lon="5.99305">
        <ele>1640.5999755859</ele>
        <time>2024-10-15T07:29:10.000Z</time>
      </trkpt>
      <trkpt lat="45.10382" lon="5.99306">
        <ele>1640.8000488281</ele>
        <time>2024-10-15T07:29:11.000Z</time>
      </trkpt>
      <trkpt lat="45.10382" lon="5.99306">
        <ele>1641.4000244141</ele>
        <time>2024-10-15T07:29:12.000Z</time>
      </trkpt>
      <trkpt lat="45.10381" lon="5.99307">
        <ele>1641.8000488281</ele>
        <time>2024-10-15T07:29:13.000Z</time>
      </trkpt>
      <trkpt lat="45.10381" lon="5.99307">
        <ele>1641.8000488281</ele>
        <time>2024-10-15T07:29:14.000Z</time>
      </trkpt>
      <trkpt lat="45.1038" lon="5.99307">
        <ele>1642</ele>
        <time>2024-10-15T07:29:15.000Z</time>
      </trkpt>
      <trkpt lat="45.10379" lon="5.99307">
        <ele>1642.1999511719</ele>
        <time>2024-10-15T07:29:16.000Z</time>
      </trkpt>
      <trkpt lat="45.10379" lon="5.99307">
        <ele>1642.4000244141</ele>
        <time>2024-10-15T07:29:17.000Z</time>
      </trkpt>
      <trkpt lat="45.10378" lon="5.99307">
        <ele>1642.5999755859</ele>
        <time>2024-10-15T07:29:18.000Z</time>
      </trkpt>
      <trkpt lat="45.10378" lon="5.99307">
        <ele>1642.8000488281</ele>
        <time>2024-10-15T07:29:19.000Z</time>
      </trkpt>
      <trkpt lat="45.10378" lon="5.99307">
        <ele>1643</ele>
        <time>2024-10-15T07:29:20.000Z</time>
      </trkpt>
      <trkpt lat="45.10378" lon="5.99306">
        <ele>1643.1999511719</ele>
        <time>2024-10-15T07:29:21.000Z</time>
      </trkpt>
      <trkpt lat="45.10377" lon="5.99306">
        <ele>1643.1999511719</ele>
        <time>2024-10-15T07:29:22.000Z</time>
      </trkpt>
      <trkpt lat="45.10376" lon="5.99306">
        <ele>1643.5999755859</ele>
        <time>2024-10-15T07:29:23.000Z</time>
      </trkpt>
      <trkpt lat="45.10375" lon="5.99306">
        <ele>1643.5999755859</ele>
        <time>2024-10-15T07:29:24.000Z</time>
      </trkpt>
      <trkpt lat="45.10375" lon="5.99305">
        <ele>1643.8000488281</ele>
        <time>2024-10-15T07:29:25.000Z</time>
      </trkpt>
      <trkpt lat="45.10375" lon="5.99305">
        <ele>1644</ele>
        <time>2024-10-15T07:29:26.000Z</time>
      </trkpt>
      <trkpt lat="45.10374" lon="5.99305">
        <ele>1644</ele>
        <time>2024-10-15T07:29:27.000Z</time>
      </trkpt>
      <trkpt lat="45.10374" lon="5.99304">
        <ele>1644.4000244141</ele>
        <time>2024-10-15T07:29:28.000Z</time>
      </trkpt>
      <trkpt lat="45.10373" lon="5.99304">
        <ele>1644.5999755859</ele>
        <time>2024-10-15T07:29:29.000Z</time>
      </trkpt>
      <trkpt lat="45.10373" lon="5.99304">
        <ele>1644.8000488281</ele>
        <time>2024-10-15T07:29:30.000Z</time>
      </trkpt>
      <trkpt lat="45.10373" lon="5.99304">
        <ele>1644.8000488281</ele>
        <time>2024-10-15T07:29:31.000Z</time>
      </trkpt>
      <trkpt lat="45.10373" lon="5.99304">
        <ele>1645</ele>
        <time>2024-10-15T07:29:32.000Z</time>
      </trkpt>
      <trkpt lat="45.10372" lon="5.99304">
        <ele>1645.1999511719</ele>
        <time>2024-10-15T07:29:33.000Z</time>
      </trkpt>
      <trkpt lat="45.10372" lon="5.99303">
        <ele>1645.4000244141</ele>
        <time>2024-10-15T07:29:34.000Z</time>
      </trkpt>
      <trkpt lat="45.10372" lon="5.99303">
        <ele>1645.4000244141</ele>
        <time>2024-10-15T07:29:35.000Z</time>
      </trkpt>
      <trkpt lat="45.10371" lon="5.99303">
        <ele>1645.5999755859</ele>
        <time>2024-10-15T07:29:36.000Z</time>
      </trkpt>
      <trkpt lat="45.10371" lon="5.99303">
        <ele>1645.5999755859</ele>
        <time>2024-10-15T07:29:37.000Z</time>
      </trkpt>
      <trkpt lat="45.10371" lon="5.99302">
        <ele>1645.5999755859</ele>
        <time>2024-10-15T07:29:38.000Z</time>
      </trkpt>
      <trkpt lat="45.10371" lon="5.99302">
        <ele>1645.8000488281</ele>
        <time>2024-10-15T07:29:39.000Z</time>
      </trkpt>
      <trkpt lat="45.10371" lon="5.99302">
        <ele>1645.8000488281</ele>
        <time>2024-10-15T07:29:40.000Z</time>
      </trkpt>
      <trkpt lat="45.10371" lon="5.99301">
        <ele>1646</ele>
        <time>2024-10-15T07:29:41.000Z</time>
      </trkpt>
      <trkpt lat="45.1037" lon="5.99301">
        <ele>1646.5999755859</ele>
        <time>2024-10-15T07:29:42.000Z</time>
      </trkpt>
      <trkpt lat="45.1037" lon="5.99301">
        <ele>1646.8000488281</ele>
        <time>2024-10-15T07:29:43.000Z</time>
      </trkpt>
      <trkpt lat="45.10369" lon="5.99301">
        <ele>1647</ele>
        <time>2024-10-15T07:29:44.000Z</time>
      </trkpt>
      <trkpt lat="45.10369" lon="5.993">
        <ele>1647.1999511719</ele>
        <time>2024-10-15T07:29:45.000Z</time>
      </trkpt>
      <trkpt lat="45.10369" lon="5.993">
        <ele>1647.4000244141</ele>
        <time>2024-10-15T07:29:46.000Z</time>
      </trkpt>
      <trkpt lat="45.10368" lon="5.993">
        <ele>1647.4000244141</ele>
        <time>2024-10-15T07:29:47.000Z</time>
      </trkpt>
      <trkpt lat="45.10368" lon="5.993">
        <ele>1647.5999755859</ele>
        <time>2024-10-15T07:29:48.000Z</time>
      </trkpt>
      <trkpt lat="45.10367" lon="5.99299">
        <ele>1647.5999755859</ele>
        <time>2024-10-15T07:29:49.000Z</time>
      </trkpt>
      <trkpt lat="45.10367" lon="5.99298">
        <ele>1647.8000488281</ele>
        <time>2024-10-15T07:29:50.000Z</time>
      </trkpt>
      <trkpt lat="45.10366" lon="5.99298">
        <ele>1648.1999511719</ele>
        <time>2024-10-15T07:29:51.000Z</time>
      </trkpt>
      <trkpt lat="45.10366" lon="5.99298">
        <ele>1648.1999511719</ele>
        <time>2024-10-15T07:29:52.000Z</time>
      </trkpt>
      <trkpt lat="45.10366" lon="5.99298">
        <ele>1648.4000244141</ele>
        <time>2024-10-15T07:29:53.000Z</time>
      </trkpt>
      <trkpt lat="45.10366" lon="5.99298">
        <ele>1648.4000244141</ele>
        <time>2024-10-15T07:29:54.000Z</time>
      </trkpt>
      <trkpt lat="45.10366" lon="5.99298">
        <ele>1648.5999755859</ele>
        <time>2024-10-15T07:29:55.000Z</time>
      </trkpt>
      <trkpt lat="45.10365" lon="5.99299">
        <ele>1648.8000488281</ele>
        <time>2024-10-15T07:29:56.000Z</time>
      </trkpt>
      <trkpt lat="45.10365" lon="5.99299">
        <ele>1649</ele>
        <time>2024-10-15T07:29:57.000Z</time>
      </trkpt>
      <trkpt lat="45.10365" lon="5.99299">
        <ele>1649.4000244141</ele>
        <time>2024-10-15T07:29:58.000Z</time>
      </trkpt>
      <trkpt lat="45.10365" lon="5.99299">
        <ele>1649.8000488281</ele>
        <time>2024-10-15T07:29:59.000Z</time>
      </trkpt>
      <trkpt lat="45.10364" lon="5.99299">
        <ele>1650</ele>
        <time>2024-10-15T07:30:00.000Z</time>
      </trkpt>
      <trkpt lat="45.10364" lon="5.99299">
        <ele>1650.1999511719</ele>
        <time>2024-10-15T07:30:01.000Z</time>
      </trkpt>
      <trkpt lat="45.10363" lon="5.99299">
        <ele>1650.4000244141</ele>
        <time>2024-10-15T07:30:02.000Z</time>
      </trkpt>
      <trkpt lat="45.10363" lon="5.99299">
        <ele>1650.4000244141</ele>
        <time>2024-10-15T07:30:03.000Z</time>
      </trkpt>
      <trkpt lat="45.10362" lon="5.99299">
        <ele>1650.4000244141</ele>
        <time>2024-10-15T07:30:04.000Z</time>
      </trkpt>
      <trkpt lat="45.10362" lon="5.99298">
        <ele>1650.4000244141</ele>
        <time>2024-10-15T07:30:05.000Z</time>
      </trkpt>
      <trkpt lat="45.10361" lon="5.99298">
        <ele>1650.5999755859</ele>
        <time>2024-10-15T07:30:06.000Z</time>
      </trkpt>
      <trkpt lat="45.10361" lon="5.99298">
        <ele>1650.5999755859</ele>
        <time>2024-10-15T07:30:07.000Z</time>
      </trkpt>
      <trkpt lat="45.10361" lon="5.99298">
        <ele>1650.5999755859</ele>
        <time>2024-10-15T07:30:08.000Z</time>
      </trkpt>
      <trkpt lat="45.10361" lon="5.99298">
        <ele>1650.8000488281</ele>
        <time>2024-10-15T07:30:09.000Z</time>
      </trkpt>
      <trkpt lat="45.10361" lon="5.99298">
        <ele>1651</ele>
        <time>2024-10-15T07:30:10.000Z</time>
      </trkpt>
      <trkpt lat="45.10361" lon="5.99298">
        <ele>1651.1999511719</ele>
        <time>2024-10-15T07:30:11.000Z</time>
      </trkpt>
      <trkpt lat="45.10361" lon="5.99298">
        <ele>1651.5999755859</ele>
        <time>2024-10-15T07:30:12.000Z</time>
      </trkpt>
      <trkpt lat="45.10361" lon="5.99298">
        <ele>1652</ele>
        <time>2024-10-15T07:30:13.000Z</time>
      </trkpt>
      <trkpt lat="45.10361" lon="5.99298">
        <ele>1652.1999511719</ele>
        <time>2024-10-15T07:30:14.000Z</time>
      </trkpt>
      <trkpt lat="45.10361" lon="5.99298">
        <ele>1652.1999511719</ele>
        <time>2024-10-15T07:30:15.000Z</time>
      </trkpt>
      <trkpt lat="45.10361" lon="5.99298">
        <ele>1652.4000244141</ele>
        <time>2024-10-15T07:30:16.000Z</time>
      </trkpt>
      <trkpt lat="45.10361" lon="5.99298">
        <ele>1652.4000244141</ele>
        <time>2024-10-15T07:30:17.000Z</time>
      </trkpt>
      <trkpt lat="45.10361" lon="5.99298">
        <ele>1652.8000488281</ele>
        <time>2024-10-15T07:30:18.000Z</time>
      </trkpt>
      <trkpt lat="45.10361" lon="5.99298">
        <ele>1653.1999511719</ele>
        <time>2024-10-15T07:30:19.000Z</time>
      </trkpt>
      <trkpt lat="45.10361" lon="5.99298">
        <ele>1653.1999511719</ele>
        <time>2024-10-15T07:30:20.000Z</time>
      </trkpt>
      <trkpt lat="45.10361" lon="5.99298">
        <ele>1653.4000244141</ele>
        <time>2024-10-15T07:30:21.000Z</time>
      </trkpt>
      <trkpt lat="45.10361" lon="5.99298">
        <ele>1653.5999755859</ele>
        <time>2024-10-15T07:30:22.000Z</time>
      </trkpt>
      <trkpt lat="45.10361" lon="5.99298">
        <ele>1654</ele>
        <time>2024-10-15T07:30:23.000Z</time>
      </trkpt>
      <trkpt lat="45.10361" lon="5.99298">
        <ele>1654.4000244141</ele>
        <time>2024-10-15T07:30:24.000Z</time>
      </trkpt>
      <trkpt lat="45.10361" lon="5.99298">
        <ele>1654.5999755859</ele>
        <time>2024-10-15T07:30:25.000Z</time>
      </trkpt>
      <trkpt lat="45.10361" lon="5.99298">
        <ele>1654.5999755859</ele>
        <time>2024-10-15T07:30:26.000Z</time>
      </trkpt>
      <trkpt lat="45.1036" lon="5.99298">
        <ele>1654.5999755859</ele>
        <time>2024-10-15T07:30:27.000Z</time>
      </trkpt>
      <trkpt lat="45.1036" lon="5.99298">
        <ele>1654.8000488281</ele>
        <time>2024-10-15T07:30:28.000Z</time>
      </trkpt>
      <trkpt lat="45.1036" lon="5.99298">
        <ele>1654.8000488281</ele>
        <time>2024-10-15T07:30:29.000Z</time>
      </trkpt>
      <trkpt lat="45.10359" lon="5.99297">
        <ele>1655</ele>
        <time>2024-10-15T07:30:30.000Z</time>
      </trkpt>
      <trkpt lat="45.10359" lon="5.99297">
        <ele>1655.4000244141</ele>
        <time>2024-10-15T07:30:31.000Z</time>
      </trkpt>
      <trkpt lat="45.10359" lon="5.99297">
        <ele>1655.5999755859</ele>
        <time>2024-10-15T07:30:32.000Z</time>
      </trkpt>
      <trkpt lat="45.10359" lon="5.99296">
        <ele>1655.8000488281</ele>
        <time>2024-10-15T07:30:33.000Z</time>
      </trkpt>
      <trkpt lat="45.10359" lon="5.99296">
        <ele>1655.8000488281</ele>
        <time>2024-10-15T07:30:34.000Z</time>
      </trkpt>
      <trkpt lat="45.10359" lon="5.99295">
        <ele>1656</ele>
        <time>2024-10-15T07:30:35.000Z</time>
      </trkpt>
      <trkpt lat="45.10359" lon="5.99295">
        <ele>1656.1999511719</ele>
        <time>2024-10-15T07:30:36.000Z</time>
      </trkpt>
      <trkpt lat="45.10359" lon="5.99295">
        <ele>1656.4000244141</ele>
        <time>2024-10-15T07:30:37.000Z</time>
      </trkpt>
      <trkpt lat="45.10359" lon="5.99294">
        <ele>1656.5999755859</ele>
        <time>2024-10-15T07:30:38.000Z</time>
      </trkpt>
      <trkpt lat="45.10359" lon="5.99294">
        <ele>1656.8000488281</ele>
        <time>2024-10-15T07:30:39.000Z</time>
      </trkpt>
      <trkpt lat="45.10359" lon="5.99294">
        <ele>1657</ele>
        <time>2024-10-15T07:30:40.000Z</time>
      </trkpt>
      <trkpt lat="45.10359" lon="5.99293">
        <ele>1657</ele>
        <time>2024-10-15T07:30:41.000Z</time>
      </trkpt>
      <trkpt lat="45.1036" lon="5.99293">
        <ele>1657.1999511719</ele>
        <time>2024-10-15T07:30:42.000Z</time>
      </trkpt>
      <trkpt lat="45.10361" lon="5.99293">
        <ele>1657.8000488281</ele>
        <time>2024-10-15T07:30:43.000Z</time>
      </trkpt>
      <trkpt lat="45.10362" lon="5.99292">
        <ele>1658</ele>
        <time>2024-10-15T07:30:44.000Z</time>
      </trkpt>
      <trkpt lat="45.10363" lon="5.99291">
        <ele>1658.1999511719</ele>
        <time>2024-10-15T07:30:45.000Z</time>
      </trkpt>
      <trkpt lat="45.10364" lon="5.99291">
        <ele>1658.5999755859</ele>
        <time>2024-10-15T07:30:46.000Z</time>
      </trkpt>
      <trkpt lat="45.10365" lon="5.9929">
        <ele>1658.5999755859</ele>
        <time>2024-10-15T07:30:47.000Z</time>
      </trkpt>
      <trkpt lat="45.10366" lon="5.9929">
        <ele>1659</ele>
        <time>2024-10-15T07:30:48.000Z</time>
      </trkpt>
      <trkpt lat="45.10367" lon="5.99289">
        <ele>1659.1999511719</ele>
        <time>2024-10-15T07:30:49.000Z</time>
      </trkpt>
      <trkpt lat="45.10368" lon="5.99288">
        <ele>1659.4000244141</ele>
        <time>2024-10-15T07:30:50.000Z</time>
      </trkpt>
      <trkpt lat="45.10369" lon="5.99288">
        <ele>1659.5999755859</ele>
        <time>2024-10-15T07:30:51.000Z</time>
      </trkpt>
      <trkpt lat="45.10369" lon="5.99288">
        <ele>1660</ele>
        <time>2024-10-15T07:30:52.000Z</time>
      </trkpt>
      <trkpt lat="45.1037" lon="5.99287">
        <ele>1660.1999511719</ele>
        <time>2024-10-15T07:30:53.000Z</time>
      </trkpt>
      <trkpt lat="45.1037" lon="5.99287">
        <ele>1660.1999511719</ele>
        <time>2024-10-15T07:30:54.000Z</time>
      </trkpt>
      <trkpt lat="45.1037" lon="5.99287">
        <ele>1660.4000244141</ele>
        <time>2024-10-15T07:30:55.000Z</time>
      </trkpt>
      <trkpt lat="45.1037" lon="5.99287">
        <ele>1660.5999755859</ele>
        <time>2024-10-15T07:30:56.000Z</time>
      </trkpt>
      <trkpt lat="45.1037" lon="5.99287">
        <ele>1660.5999755859</ele>
        <time>2024-10-15T07:30:57.000Z</time>
      </trkpt>
      <trkpt lat="45.1037" lon="5.99287">
        <ele>1660.5999755859</ele>
        <time>2024-10-15T07:30:58.000Z</time>
      </trkpt>
      <trkpt lat="45.1037" lon="5.99287">
        <ele>1660.5999755859</ele>
        <time>2024-10-15T07:30:59.000Z</time>
      </trkpt>
      <trkpt lat="45.1037" lon="5.99287">
        <ele>1660.5999755859</ele>
        <time>2024-10-15T07:31:00.000Z</time>
      </trkpt>
      <trkpt lat="45.1037" lon="5.99287">
        <ele>1660.5999755859</ele>
        <time>2024-10-15T07:31:01.000Z</time>
      </trkpt>
      <trkpt lat="45.1037" lon="5.99287">
        <ele>1660.5999755859</ele>
        <time>2024-10-15T07:31:02.000Z</time>
      </trkpt>
      <trkpt lat="45.1037" lon="5.99287">
        <ele>1660.5999755859</ele>
        <time>2024-10-15T07:31:03.000Z</time>
      </trkpt>
      <trkpt lat="45.1037" lon="5.99287">
        <ele>1660.8000488281</ele>
        <time>2024-10-15T07:31:04.000Z</time>
      </trkpt>
      <trkpt lat="45.1037" lon="5.99287">
        <ele>1660.8000488281</ele>
        <time>2024-10-15T07:31:05.000Z</time>
      </trkpt>
      <trkpt lat="45.1037" lon="5.99287">
        <ele>1660.8000488281</ele>
        <time>2024-10-15T07:31:06.000Z</time>
      </trkpt>
      <trkpt lat="45.1037" lon="5.99287">
        <ele>1661</ele>
        <time>2024-10-15T07:31:07.000Z</time>
      </trkpt>
      <trkpt lat="45.1037" lon="5.99287">
        <ele>1661</ele>
        <time>2024-10-15T07:31:08.000Z</time>
      </trkpt>
      <trkpt lat="45.1037" lon="5.99287">
        <ele>1661</ele>
        <time>2024-10-15T07:31:09.000Z</time>
      </trkpt>
      <trkpt lat="45.1037" lon="5.99287">
        <ele>1661.4000244141</ele>
        <time>2024-10-15T07:31:10.000Z</time>
      </trkpt>
      <trkpt lat="45.1037" lon="5.99287">
        <ele>1661.8000488281</ele>
        <time>2024-10-15T07:31:11.000Z</time>
      </trkpt>
      <trkpt lat="45.1037" lon="5.99287">
        <ele>1662</ele>
        <time>2024-10-15T07:31:12.000Z</time>
      </trkpt>
      <trkpt lat="45.1037" lon="5.99287">
        <ele>1662.1999511719</ele>
        <time>2024-10-15T07:31:13.000Z</time>
      </trkpt>
      <trkpt lat="45.1037" lon="5.99287">
        <ele>1662.4000244141</ele>
        <time>2024-10-15T07:31:14.000Z</time>
      </trkpt>
      <trkpt lat="45.1037" lon="5.99287">
        <ele>1662.5999755859</ele>
        <time>2024-10-15T07:31:15.000Z</time>
      </trkpt>
      <trkpt lat="45.1037" lon="5.99287">
        <ele>1663</ele>
        <time>2024-10-15T07:31:16.000Z</time>
      </trkpt>
      <trkpt lat="45.1037" lon="5.99287">
        <ele>1663</ele>
        <time>2024-10-15T07:31:17.000Z</time>
      </trkpt>
      <trkpt lat="45.1037" lon="5.99287">
        <ele>1663.1999511719</ele>
        <time>2024-10-15T07:31:18.000Z</time>
      </trkpt>
      <trkpt lat="45.10371" lon="5.99286">
        <ele>1663.5999755859</ele>
        <time>2024-10-15T07:31:19.000Z</time>
      </trkpt>
      <trkpt lat="45.10371" lon="5.99286">
        <ele>1663.8000488281</ele>
        <time>2024-10-15T07:31:20.000Z</time>
      </trkpt>
      <trkpt lat="45.10371" lon="5.99286">
        <ele>1663.8000488281</ele>
        <time>2024-10-15T07:31:21.000Z</time>
      </trkpt>
      <trkpt lat="45.10372" lon="5.99285">
        <ele>1664</ele>
        <time>2024-10-15T07:31:22.000Z</time>
      </trkpt>
      <trkpt lat="45.10372" lon="5.99285">
        <ele>1664.1999511719</ele>
        <time>2024-10-15T07:31:23.000Z</time>
      </trkpt>
      <trkpt lat="45.10372" lon="5.99284">
        <ele>1664.4000244141</ele>
        <time>2024-10-15T07:31:24.000Z</time>
      </trkpt>
      <trkpt lat="45.10373" lon="5.99284">
        <ele>1664.5999755859</ele>
        <time>2024-10-15T07:31:25.000Z</time>
      </trkpt>
      <trkpt lat="45.10373" lon="5.99283">
        <ele>1664.8000488281</ele>
        <time>2024-10-15T07:31:26.000Z</time>
      </trkpt>
      <trkpt lat="45.10373" lon="5.99282">
        <ele>1665</ele>
        <time>2024-10-15T07:31:27.000Z</time>
      </trkpt>
      <trkpt lat="45.10374" lon="5.99282">
        <ele>1665.1999511719</ele>
        <time>2024-10-15T07:31:28.000Z</time>
      </trkpt>
      <trkpt lat="45.10374" lon="5.99282">
        <ele>1665.4000244141</ele>
        <time>2024-10-15T07:31:29.000Z</time>
      </trkpt>
      <trkpt lat="45.10374" lon="5.99281">
        <ele>1665.5999755859</ele>
        <time>2024-10-15T07:31:30.000Z</time>
      </trkpt>
      <trkpt lat="45.10374" lon="5.99281">
        <ele>1665.8000488281</ele>
        <time>2024-10-15T07:31:31.000Z</time>
      </trkpt>
      <trkpt lat="45.10374" lon="5.9928">
        <ele>1666</ele>
        <time>2024-10-15T07:31:32.000Z</time>
      </trkpt>
      <trkpt lat="45.10374" lon="5.9928">
        <ele>1666</ele>
        <time>2024-10-15T07:31:33.000Z</time>
      </trkpt>
      <trkpt lat="45.10375" lon="5.99279">
        <ele>1666.1999511719</ele>
        <time>2024-10-15T07:31:34.000Z</time>
      </trkpt>
      <trkpt lat="45.10375" lon="5.99278">
        <ele>1666.4000244141</ele>
        <time>2024-10-15T07:31:35.000Z</time>
      </trkpt>
      <trkpt lat="45.10375" lon="5.99278">
        <ele>1666.4000244141</ele>
        <time>2024-10-15T07:31:36.000Z</time>
      </trkpt>
      <trkpt lat="45.10376" lon="5.99277">
        <ele>1666.4000244141</ele>
        <time>2024-10-15T07:31:37.000Z</time>
      </trkpt>
      <trkpt lat="45.10376" lon="5.99277">
        <ele>1666.5999755859</ele>
        <time>2024-10-15T07:31:38.000Z</time>
      </trkpt>
      <trkpt lat="45.10376" lon="5.99277">
        <ele>1666.5999755859</ele>
        <time>2024-10-15T07:31:39.000Z</time>
      </trkpt>
      <trkpt lat="45.10376" lon="5.99276">
        <ele>1666.5999755859</ele>
        <time>2024-10-15T07:31:40.000Z</time>
      </trkpt>
      <trkpt lat="45.10377" lon="5.99276">
        <ele>1666.5999755859</ele>
        <time>2024-10-15T07:31:41.000Z</time>
      </trkpt>
      <trkpt lat="45.10377" lon="5.99276">
        <ele>1666.8000488281</ele>
        <time>2024-10-15T07:31:42.000Z</time>
      </trkpt>
      <trkpt lat="45.10377" lon="5.99275">
        <ele>1667</ele>
        <time>2024-10-15T07:31:43.000Z</time>
      </trkpt>
      <trkpt lat="45.10377" lon="5.99275">
        <ele>1667</ele>
        <time>2024-10-15T07:31:44.000Z</time>
      </trkpt>
      <trkpt lat="45.10377" lon="5.99275">
        <ele>1667</ele>
        <time>2024-10-15T07:31:45.000Z</time>
      </trkpt>
      <trkpt lat="45.10377" lon="5.99274">
        <ele>1667.1999511719</ele>
        <time>2024-10-15T07:31:46.000Z</time>
      </trkpt>
      <trkpt lat="45.10377" lon="5.99274">
        <ele>1667.1999511719</ele>
        <time>2024-10-15T07:31:47.000Z</time>
      </trkpt>
      <trkpt lat="45.10378" lon="5.99273">
        <ele>1667.1999511719</ele>
        <time>2024-10-15T07:31:48.000Z</time>
      </trkpt>
      <trkpt lat="45.10378" lon="5.99273">
        <ele>1667.1999511719</ele>
        <time>2024-10-15T07:31:49.000Z</time>
      </trkpt>
      <trkpt lat="45.10378" lon="5.99273">
        <ele>1667.1999511719</ele>
        <time>2024-10-15T07:31:50.000Z</time>
      </trkpt>
      <trkpt lat="45.10378" lon="5.99273">
        <ele>1667.4000244141</ele>
        <time>2024-10-15T07:31:51.000Z</time>
      </trkpt>
      <trkpt lat="45.10378" lon="5.99272">
        <ele>1667.4000244141</ele>
        <time>2024-10-15T07:31:52.000Z</time>
      </trkpt>
      <trkpt lat="45.10379" lon="5.99272">
        <ele>1667.8000488281</ele>
        <time>2024-10-15T07:31:53.000Z</time>
      </trkpt>
      <trkpt lat="45.10379" lon="5.99272">
        <ele>1668.1999511719</ele>
        <time>2024-10-15T07:31:54.000Z</time>
      </trkpt>
      <trkpt lat="45.10379" lon="5.99272">
        <ele>1668.4000244141</ele>
        <time>2024-10-15T07:31:55.000Z</time>
      </trkpt>
      <trkpt lat="45.10379" lon="5.99272">
        <ele>1668.4000244141</ele>
        <time>2024-10-15T07:31:56.000Z</time>
      </trkpt>
      <trkpt lat="45.10379" lon="5.99272">
        <ele>1668.8000488281</ele>
        <time>2024-10-15T07:31:57.000Z</time>
      </trkpt>
      <trkpt lat="45.10379" lon="5.99272">
        <ele>1669.1999511719</ele>
        <time>2024-10-15T07:31:58.000Z</time>
      </trkpt>
      <trkpt lat="45.10379" lon="5.99272">
        <ele>1669.4000244141</ele>
        <time>2024-10-15T07:31:59.000Z</time>
      </trkpt>
      <trkpt lat="45.10379" lon="5.99272">
        <ele>1669.4000244141</ele>
        <time>2024-10-15T07:32:00.000Z</time>
      </trkpt>
      <trkpt lat="45.10379" lon="5.99272">
        <ele>1669.4000244141</ele>
        <time>2024-10-15T07:32:01.000Z</time>
      </trkpt>
      <trkpt lat="45.10379" lon="5.99271">
        <ele>1669.4000244141</ele>
        <time>2024-10-15T07:32:02.000Z</time>
      </trkpt>
      <trkpt lat="45.10379" lon="5.99271">
        <ele>1669.5999755859</ele>
        <time>2024-10-15T07:32:03.000Z</time>
      </trkpt>
      <trkpt lat="45.10379" lon="5.99271">
        <ele>1669.8000488281</ele>
        <time>2024-10-15T07:32:04.000Z</time>
      </trkpt>
      <trkpt lat="45.10379" lon="5.9927">
        <ele>1670.1999511719</ele>
        <time>2024-10-15T07:32:05.000Z</time>
      </trkpt>
      <trkpt lat="45.10379" lon="5.9927">
        <ele>1670.4000244141</ele>
        <time>2024-10-15T07:32:06.000Z</time>
      </trkpt>
      <trkpt lat="45.10379" lon="5.9927">
        <ele>1670.5999755859</ele>
        <time>2024-10-15T07:32:07.000Z</time>
      </trkpt>
      <trkpt lat="45.10379" lon="5.9927">
        <ele>1670.8000488281</ele>
        <time>2024-10-15T07:32:08.000Z</time>
      </trkpt>
      <trkpt lat="45.10379" lon="5.99269">
        <ele>1671</ele>
        <time>2024-10-15T07:32:09.000Z</time>
      </trkpt>
      <trkpt lat="45.10379" lon="5.99269">
        <ele>1671.1999511719</ele>
        <time>2024-10-15T07:32:10.000Z</time>
      </trkpt>
      <trkpt lat="45.10379" lon="5.99268">
        <ele>1671.5999755859</ele>
        <time>2024-10-15T07:32:11.000Z</time>
      </trkpt>
      <trkpt lat="45.10379" lon="5.99268">
        <ele>1671.8000488281</ele>
        <time>2024-10-15T07:32:12.000Z</time>
      </trkpt>
      <trkpt lat="45.10379" lon="5.99268">
        <ele>1671.8000488281</ele>
        <time>2024-10-15T07:32:13.000Z</time>
      </trkpt>
      <trkpt lat="45.10379" lon="5.99267">
        <ele>1672</ele>
        <time>2024-10-15T07:32:14.000Z</time>
      </trkpt>
      <trkpt lat="45.1038" lon="5.99267">
        <ele>1672.1999511719</ele>
        <time>2024-10-15T07:32:15.000Z</time>
      </trkpt>
      <trkpt lat="45.1038" lon="5.99266">
        <ele>1672.4000244141</ele>
        <time>2024-10-15T07:32:16.000Z</time>
      </trkpt>
      <trkpt lat="45.1038" lon="5.99266">
        <ele>1672.5999755859</ele>
        <time>2024-10-15T07:32:17.000Z</time>
      </trkpt>
      <trkpt lat="45.1038" lon="5.99265">
        <ele>1673</ele>
        <time>2024-10-15T07:32:18.000Z</time>
      </trkpt>
      <trkpt lat="45.1038" lon="5.99265">
        <ele>1673.4000244141</ele>
        <time>2024-10-15T07:32:19.000Z</time>
      </trkpt>
      <trkpt lat="45.1038" lon="5.99265">
        <ele>1673.4000244141</ele>
        <time>2024-10-15T07:32:20.000Z</time>
      </trkpt>
      <trkpt lat="45.1038" lon="5.99264">
        <ele>1673.5999755859</ele>
        <time>2024-10-15T07:32:21.000Z</time>
      </trkpt>
      <trkpt lat="45.1038" lon="5.99264">
        <ele>1673.5999755859</ele>
        <time>2024-10-15T07:32:22.000Z</time>
      </trkpt>
      <trkpt lat="45.1038" lon="5.99263">
        <ele>1673.5999755859</ele>
        <time>2024-10-15T07:32:23.000Z</time>
      </trkpt>
      <trkpt lat="45.1038" lon="5.99263">
        <ele>1673.5999755859</ele>
        <time>2024-10-15T07:32:24.000Z</time>
      </trkpt>
      <trkpt lat="45.1038" lon="5.99263">
        <ele>1674</ele>
        <time>2024-10-15T07:32:25.000Z</time>
      </trkpt>
      <trkpt lat="45.1038" lon="5.99262">
        <ele>1674.1999511719</ele>
        <time>2024-10-15T07:32:26.000Z</time>
      </trkpt>
      <trkpt lat="45.1038" lon="5.99262">
        <ele>1674.4000244141</ele>
        <time>2024-10-15T07:32:27.000Z</time>
      </trkpt>
      <trkpt lat="45.10381" lon="5.99262">
        <ele>1674.4000244141</ele>
        <time>2024-10-15T07:32:28.000Z</time>
      </trkpt>
      <trkpt lat="45.10381" lon="5.99261">
        <ele>1675</ele>
        <time>2024-10-15T07:32:29.000Z</time>
      </trkpt>
      <trkpt lat="45.10381" lon="5.99261">
        <ele>1675.1999511719</ele>
        <time>2024-10-15T07:32:30.000Z</time>
      </trkpt>
      <trkpt lat="45.10382" lon="5.99261">
        <ele>1675.1999511719</ele>
        <time>2024-10-15T07:32:31.000Z</time>
      </trkpt>
      <trkpt lat="45.10382" lon="5.9926">
        <ele>1675.4000244141</ele>
        <time>2024-10-15T07:32:32.000Z</time>
      </trkpt>
      <trkpt lat="45.10383" lon="5.9926">
        <ele>1675.4000244141</ele>
        <time>2024-10-15T07:32:33.000Z</time>
      </trkpt>
      <trkpt lat="45.10383" lon="5.9926">
        <ele>1675.4000244141</ele>
        <time>2024-10-15T07:32:34.000Z</time>
      </trkpt>
      <trkpt lat="45.10383" lon="5.9926">
        <ele>1675.4000244141</ele>
        <time>2024-10-15T07:32:35.000Z</time>
      </trkpt>
      <trkpt lat="45.10383" lon="5.99259">
        <ele>1675.5999755859</ele>
        <time>2024-10-15T07:32:36.000Z</time>
      </trkpt>
      <trkpt lat="45.10383" lon="5.99259">
        <ele>1675.8000488281</ele>
        <time>2024-10-15T07:32:37.000Z</time>
      </trkpt>
      <trkpt lat="45.10383" lon="5.99259">
        <ele>1676.1999511719</ele>
        <time>2024-10-15T07:32:38.000Z</time>
      </trkpt>
      <trkpt lat="45.10383" lon="5.99258">
        <ele>1676.1999511719</ele>
        <time>2024-10-15T07:32:39.000Z</time>
      </trkpt>
      <trkpt lat="45.10383" lon="5.99258">
        <ele>1676.5999755859</ele>
        <time>2024-10-15T07:32:40.000Z</time>
      </trkpt>
      <trkpt lat="45.10383" lon="5.99258">
        <ele>1676.8000488281</ele>
        <time>2024-10-15T07:32:41.000Z</time>
      </trkpt>
      <trkpt lat="45.10383" lon="5.99257">
        <ele>1677</ele>
        <time>2024-10-15T07:32:42.000Z</time>
      </trkpt>
      <trkpt lat="45.10383" lon="5.99257">
        <ele>1677</ele>
        <time>2024-10-15T07:32:43.000Z</time>
      </trkpt>
      <trkpt lat="45.10383" lon="5.99256">
        <ele>1677.1999511719</ele>
        <time>2024-10-15T07:32:44.000Z</time>
      </trkpt>
      <trkpt lat="45.10383" lon="5.99256">
        <ele>1677.4000244141</ele>
        <time>2024-10-15T07:32:45.000Z</time>
      </trkpt>
      <trkpt lat="45.10383" lon="5.99256">
        <ele>1677.5999755859</ele>
        <time>2024-10-15T07:32:46.000Z</time>
      </trkpt>
      <trkpt lat="45.10383" lon="5.99255">
        <ele>1677.8000488281</ele>
        <time>2024-10-15T07:32:47.000Z</time>
      </trkpt>
      <trkpt lat="45.10383" lon="5.99255">
        <ele>1678</ele>
        <time>2024-10-15T07:32:48.000Z</time>
      </trkpt>
      <trkpt lat="45.10383" lon="5.99255">
        <ele>1678</ele>
        <time>2024-10-15T07:32:49.000Z</time>
      </trkpt>
      <trkpt lat="45.10383" lon="5.99254">
        <ele>1678.1999511719</ele>
        <time>2024-10-15T07:32:50.000Z</time>
      </trkpt>
      <trkpt lat="45.10383" lon="5.99254">
        <ele>1678.1999511719</ele>
        <time>2024-10-15T07:32:51.000Z</time>
      </trkpt>
      <trkpt lat="45.10383" lon="5.99254">
        <ele>1678.4000244141</ele>
        <time>2024-10-15T07:32:52.000Z</time>
      </trkpt>
      <trkpt lat="45.10383" lon="5.99253">
        <ele>1678.4000244141</ele>
        <time>2024-10-15T07:32:53.000Z</time>
      </trkpt>
      <trkpt lat="45.10383" lon="5.99253">
        <ele>1678.8000488281</ele>
        <time>2024-10-15T07:32:54.000Z</time>
      </trkpt>
      <trkpt lat="45.10383" lon="5.99253">
        <ele>1679.1999511719</ele>
        <time>2024-10-15T07:32:55.000Z</time>
      </trkpt>
      <trkpt lat="45.10383" lon="5.99253">
        <ele>1679.1999511719</ele>
        <time>2024-10-15T07:32:56.000Z</time>
      </trkpt>
      <trkpt lat="45.10383" lon="5.99252">
        <ele>1679.1999511719</ele>
        <time>2024-10-15T07:32:57.000Z</time>
      </trkpt>
      <trkpt lat="45.10383" lon="5.99252">
        <ele>1679.1999511719</ele>
        <time>2024-10-15T07:32:58.000Z</time>
      </trkpt>
      <trkpt lat="45.10384" lon="5.99252">
        <ele>1679.1999511719</ele>
        <time>2024-10-15T07:32:59.000Z</time>
      </trkpt>
      <trkpt lat="45.10384" lon="5.99252">
        <ele>1679.4000244141</ele>
        <time>2024-10-15T07:33:00.000Z</time>
      </trkpt>
      <trkpt lat="45.10384" lon="5.99251">
        <ele>1679.4000244141</ele>
        <time>2024-10-15T07:33:01.000Z</time>
      </trkpt>
      <trkpt lat="45.10384" lon="5.99251">
        <ele>1679.8000488281</ele>
        <time>2024-10-15T07:33:02.000Z</time>
      </trkpt>
      <trkpt lat="45.10384" lon="5.99251">
        <ele>1679.8000488281</ele>
        <time>2024-10-15T07:33:03.000Z</time>
      </trkpt>
      <trkpt lat="45.10384" lon="5.9925">
        <ele>1680.1999511719</ele>
        <time>2024-10-15T07:33:04.000Z</time>
      </trkpt>
      <trkpt lat="45.10384" lon="5.9925">
        <ele>1680.5999755859</ele>
        <time>2024-10-15T07:33:05.000Z</time>
      </trkpt>
      <trkpt lat="45.10384" lon="5.9925">
        <ele>1681</ele>
        <time>2024-10-15T07:33:06.000Z</time>
      </trkpt>
      <trkpt lat="45.10384" lon="5.99249">
        <ele>1681.4000244141</ele>
        <time>2024-10-15T07:33:07.000Z</time>
      </trkpt>
      <trkpt lat="45.10384" lon="5.99249">
        <ele>1681.4000244141</ele>
        <time>2024-10-15T07:33:08.000Z</time>
      </trkpt>
      <trkpt lat="45.10384" lon="5.99248">
        <ele>1681.4000244141</ele>
        <time>2024-10-15T07:33:09.000Z</time>
      </trkpt>
      <trkpt lat="45.10384" lon="5.99248">
        <ele>1681.8000488281</ele>
        <time>2024-10-15T07:33:10.000Z</time>
      </trkpt>
      <trkpt lat="45.10384" lon="5.99248">
        <ele>1682</ele>
        <time>2024-10-15T07:33:11.000Z</time>
      </trkpt>
      <trkpt lat="45.10384" lon="5.99247">
        <ele>1682</ele>
        <time>2024-10-15T07:33:12.000Z</time>
      </trkpt>
      <trkpt lat="45.10384" lon="5.99247">
        <ele>1682.1999511719</ele>
        <time>2024-10-15T07:33:13.000Z</time>
      </trkpt>
      <trkpt lat="45.10384" lon="5.99247">
        <ele>1682.1999511719</ele>
        <time>2024-10-15T07:33:14.000Z</time>
      </trkpt>
      <trkpt lat="45.10384" lon="5.99247">
        <ele>1682</ele>
        <time>2024-10-15T07:33:15.000Z</time>
      </trkpt>
      <trkpt lat="45.10385" lon="5.99247">
        <ele>1682</ele>
        <time>2024-10-15T07:33:16.000Z</time>
      </trkpt>
      <trkpt lat="45.10385" lon="5.99247">
        <ele>1682.1999511719</ele>
        <time>2024-10-15T07:33:17.000Z</time>
      </trkpt>
      <trkpt lat="45.10385" lon="5.99246">
        <ele>1682.1999511719</ele>
        <time>2024-10-15T07:33:18.000Z</time>
      </trkpt>
      <trkpt lat="45.10386" lon="5.99246">
        <ele>1682.1999511719</ele>
        <time>2024-10-15T07:33:19.000Z</time>
      </trkpt>
      <trkpt lat="45.10386" lon="5.99246">
        <ele>1682.4000244141</ele>
        <time>2024-10-15T07:33:20.000Z</time>
      </trkpt>
      <trkpt lat="45.10386" lon="5.99246">
        <ele>1682.4000244141</ele>
        <time>2024-10-15T07:33:21.000Z</time>
      </trkpt>
      <trkpt lat="45.10387" lon="5.99246">
        <ele>1682.4000244141</ele>
        <time>2024-10-15T07:33:22.000Z</time>
      </trkpt>
      <trkpt lat="45.10387" lon="5.99246">
        <ele>1682.8000488281</ele>
        <time>2024-10-15T07:33:23.000Z</time>
      </trkpt>
      <trkpt lat="45.10387" lon="5.99246">
        <ele>1683</ele>
        <time>2024-10-15T07:33:24.000Z</time>
      </trkpt>
      <trkpt lat="45.10387" lon="5.99246">
        <ele>1683</ele>
        <time>2024-10-15T07:33:25.000Z</time>
      </trkpt>
      <trkpt lat="45.10388" lon="5.99246">
        <ele>1683</ele>
        <time>2024-10-15T07:33:26.000Z</time>
      </trkpt>
      <trkpt lat="45.10388" lon="5.99246">
        <ele>1683</ele>
        <time>2024-10-15T07:33:27.000Z</time>
      </trkpt>
      <trkpt lat="45.10388" lon="5.99246">
        <ele>1683.1999511719</ele>
        <time>2024-10-15T07:33:28.000Z</time>
      </trkpt>
      <trkpt lat="45.10388" lon="5.99246">
        <ele>1683.4000244141</ele>
        <time>2024-10-15T07:33:29.000Z</time>
      </trkpt>
      <trkpt lat="45.10388" lon="5.99246">
        <ele>1683.5999755859</ele>
        <time>2024-10-15T07:33:30.000Z</time>
      </trkpt>
      <trkpt lat="45.10388" lon="5.99245">
        <ele>1683.8000488281</ele>
        <time>2024-10-15T07:33:31.000Z</time>
      </trkpt>
      <trkpt lat="45.10388" lon="5.99245">
        <ele>1684</ele>
        <time>2024-10-15T07:33:32.000Z</time>
      </trkpt>
      <trkpt lat="45.10388" lon="5.99245">
        <ele>1684.1999511719</ele>
        <time>2024-10-15T07:33:33.000Z</time>
      </trkpt>
      <trkpt lat="45.10388" lon="5.99245">
        <ele>1684.1999511719</ele>
        <time>2024-10-15T07:33:34.000Z</time>
      </trkpt>
      <trkpt lat="45.10389" lon="5.99245">
        <ele>1684.4000244141</ele>
        <time>2024-10-15T07:33:35.000Z</time>
      </trkpt>
      <trkpt lat="45.10389" lon="5.99244">
        <ele>1684.5999755859</ele>
        <time>2024-10-15T07:33:36.000Z</time>
      </trkpt>
      <trkpt lat="45.10389" lon="5.99244">
        <ele>1684.8000488281</ele>
        <time>2024-10-15T07:33:37.000Z</time>
      </trkpt>
      <trkpt lat="45.10389" lon="5.99244">
        <ele>1684.8000488281</ele>
        <time>2024-10-15T07:33:38.000Z</time>
      </trkpt>
      <trkpt lat="45.10389" lon="5.99244">
        <ele>1684.8000488281</ele>
        <time>2024-10-15T07:33:39.000Z</time>
      </trkpt>
      <trkpt lat="45.10389" lon="5.99243">
        <ele>1684.8000488281</ele>
        <time>2024-10-15T07:33:40.000Z</time>
      </trkpt>
      <trkpt lat="45.10389" lon="5.99243">
        <ele>1684.5999755859</ele>
        <time>2024-10-15T07:33:41.000Z</time>
      </trkpt>
      <trkpt lat="45.1039" lon="5.99243">
        <ele>1684.5999755859</ele>
        <time>2024-10-15T07:33:42.000Z</time>
      </trkpt>
      <trkpt lat="45.1039" lon="5.99242">
        <ele>1684.5999755859</ele>
        <time>2024-10-15T07:33:43.000Z</time>
      </trkpt>
      <trkpt lat="45.1039" lon="5.99242">
        <ele>1684.5999755859</ele>
        <time>2024-10-15T07:33:44.000Z</time>
      </trkpt>
      <trkpt lat="45.1039" lon="5.99242">
        <ele>1684.5999755859</ele>
        <time>2024-10-15T07:33:45.000Z</time>
      </trkpt>
      <trkpt lat="45.1039" lon="5.99241">
        <ele>1684.5999755859</ele>
        <time>2024-10-15T07:33:46.000Z</time>
      </trkpt>
      <trkpt lat="45.1039" lon="5.99241">
        <ele>1684.8000488281</ele>
        <time>2024-10-15T07:33:47.000Z</time>
      </trkpt>
      <trkpt lat="45.1039" lon="5.9924">
        <ele>1685</ele>
        <time>2024-10-15T07:33:48.000Z</time>
      </trkpt>
      <trkpt lat="45.1039" lon="5.9924">
        <ele>1685.1999511719</ele>
        <time>2024-10-15T07:33:49.000Z</time>
      </trkpt>
      <trkpt lat="45.1039" lon="5.99239">
        <ele>1685.5999755859</ele>
        <time>2024-10-15T07:33:50.000Z</time>
      </trkpt>
      <trkpt lat="45.1039" lon="5.99239">
        <ele>1685.5999755859</ele>
        <time>2024-10-15T07:33:51.000Z</time>
      </trkpt>
      <trkpt lat="45.1039" lon="5.99239">
        <ele>1685.5999755859</ele>
        <time>2024-10-15T07:33:52.000Z</time>
      </trkpt>
      <trkpt lat="45.10391" lon="5.99239">
        <ele>1685.5999755859</ele>
        <time>2024-10-15T07:33:53.000Z</time>
      </trkpt>
      <trkpt lat="45.10391" lon="5.99238">
        <ele>1686</ele>
        <time>2024-10-15T07:33:54.000Z</time>
      </trkpt>
      <trkpt lat="45.10391" lon="5.99238">
        <ele>1686.1999511719</ele>
        <time>2024-10-15T07:33:55.000Z</time>
      </trkpt>
      <trkpt lat="45.10391" lon="5.99238">
        <ele>1686.4000244141</ele>
        <time>2024-10-15T07:33:56.000Z</time>
      </trkpt>
      <trkpt lat="45.10391" lon="5.99238">
        <ele>1686.4000244141</ele>
        <time>2024-10-15T07:33:57.000Z</time>
      </trkpt>
      <trkpt lat="45.10391" lon="5.99238">
        <ele>1686.5999755859</ele>
        <time>2024-10-15T07:33:58.000Z</time>
      </trkpt>
      <trkpt lat="45.10391" lon="5.99238">
        <ele>1686.8000488281</ele>
        <time>2024-10-15T07:33:59.000Z</time>
      </trkpt>
      <trkpt lat="45.10391" lon="5.99238">
        <ele>1687</ele>
        <time>2024-10-15T07:34:00.000Z</time>
      </trkpt>
      <trkpt lat="45.10391" lon="5.99238">
        <ele>1687.1999511719</ele>
        <time>2024-10-15T07:34:01.000Z</time>
      </trkpt>
      <trkpt lat="45.10391" lon="5.99237">
        <ele>1687.4000244141</ele>
        <time>2024-10-15T07:34:02.000Z</time>
      </trkpt>
      <trkpt lat="45.10391" lon="5.99237">
        <ele>1687.5999755859</ele>
        <time>2024-10-15T07:34:03.000Z</time>
      </trkpt>
      <trkpt lat="45.10391" lon="5.99237">
        <ele>1687.5999755859</ele>
        <time>2024-10-15T07:34:04.000Z</time>
      </trkpt>
      <trkpt lat="45.10391" lon="5.99237">
        <ele>1687.5999755859</ele>
        <time>2024-10-15T07:34:05.000Z</time>
      </trkpt>
      <trkpt lat="45.10391" lon="5.99237">
        <ele>1687.8000488281</ele>
        <time>2024-10-15T07:34:06.000Z</time>
      </trkpt>
      <trkpt lat="45.10391" lon="5.99237">
        <ele>1688</ele>
        <time>2024-10-15T07:34:07.000Z</time>
      </trkpt>
      <trkpt lat="45.10391" lon="5.99236">
        <ele>1688.1999511719</ele>
        <time>2024-10-15T07:34:08.000Z</time>
      </trkpt>
      <trkpt lat="45.10391" lon="5.99236">
        <ele>1688.1999511719</ele>
        <time>2024-10-15T07:34:09.000Z</time>
      </trkpt>
      <trkpt lat="45.10391" lon="5.99236">
        <ele>1688.1999511719</ele>
        <time>2024-10-15T07:34:10.000Z</time>
      </trkpt>
      <trkpt lat="45.10391" lon="5.99236">
        <ele>1688.1999511719</ele>
        <time>2024-10-15T07:34:11.000Z</time>
      </trkpt>
      <trkpt lat="45.10391" lon="5.99236">
        <ele>1688.1999511719</ele>
        <time>2024-10-15T07:34:12.000Z</time>
      </trkpt>
      <trkpt lat="45.10391" lon="5.99236">
        <ele>1688.4000244141</ele>
        <time>2024-10-15T07:34:13.000Z</time>
      </trkpt>
      <trkpt lat="45.10391" lon="5.99235">
        <ele>1688.5999755859</ele>
        <time>2024-10-15T07:34:14.000Z</time>
      </trkpt>
      <trkpt lat="45.10392" lon="5.99235">
        <ele>1688.8000488281</ele>
        <time>2024-10-15T07:34:15.000Z</time>
      </trkpt>
      <trkpt lat="45.10392" lon="5.99235">
        <ele>1688.8000488281</ele>
        <time>2024-10-15T07:34:16.000Z</time>
      </trkpt>
      <trkpt lat="45.10392" lon="5.99235">
        <ele>1688.8000488281</ele>
        <time>2024-10-15T07:34:17.000Z</time>
      </trkpt>
      <trkpt lat="45.10392" lon="5.99235">
        <ele>1688.8000488281</ele>
        <time>2024-10-15T07:34:18.000Z</time>
      </trkpt>
      <trkpt lat="45.10392" lon="5.99235">
        <ele>1688.8000488281</ele>
        <time>2024-10-15T07:34:19.000Z</time>
      </trkpt>
      <trkpt lat="45.10392" lon="5.99235">
        <ele>1688.8000488281</ele>
        <time>2024-10-15T07:34:20.000Z</time>
      </trkpt>
      <trkpt lat="45.10392" lon="5.99235">
        <ele>1688.5999755859</ele>
        <time>2024-10-15T07:34:21.000Z</time>
      </trkpt>
      <trkpt lat="45.10392" lon="5.99235">
        <ele>1688.5999755859</ele>
        <time>2024-10-15T07:34:22.000Z</time>
      </trkpt>
      <trkpt lat="45.10392" lon="5.99235">
        <ele>1688.5999755859</ele>
        <time>2024-10-15T07:34:23.000Z</time>
      </trkpt>
      <trkpt lat="45.10392" lon="5.99235">
        <ele>1688.5999755859</ele>
        <time>2024-10-15T07:34:24.000Z</time>
      </trkpt>
      <trkpt lat="45.10392" lon="5.99235">
        <ele>1688.5999755859</ele>
        <time>2024-10-15T07:34:25.000Z</time>
      </trkpt>
      <trkpt lat="45.10392" lon="5.99235">
        <ele>1688.5999755859</ele>
        <time>2024-10-15T07:34:26.000Z</time>
      </trkpt>
      <trkpt lat="45.10392" lon="5.99235">
        <ele>1688.5999755859</ele>
        <time>2024-10-15T07:34:27.000Z</time>
      </trkpt>
      <trkpt lat="45.10392" lon="5.99235">
        <ele>1688.5999755859</ele>
        <time>2024-10-15T07:34:28.000Z</time>
      </trkpt>
      <trkpt lat="45.10392" lon="5.99235">
        <ele>1688.4000244141</ele>
        <time>2024-10-15T07:34:29.000Z</time>
      </trkpt>
      <trkpt lat="45.10392" lon="5.99235">
        <ele>1688.4000244141</ele>
        <time>2024-10-15T07:34:30.000Z</time>
      </trkpt>
      <trkpt lat="45.10392" lon="5.99235">
        <ele>1688.4000244141</ele>
        <time>2024-10-15T07:34:31.000Z</time>
      </trkpt>
      <trkpt lat="45.10392" lon="5.99235">
        <ele>1688.4000244141</ele>
        <time>2024-10-15T07:34:32.000Z</time>
      </trkpt>
      <trkpt lat="45.10392" lon="5.99235">
        <ele>1688.1999511719</ele>
        <time>2024-10-15T07:34:33.000Z</time>
      </trkpt>
      <trkpt lat="45.10392" lon="5.99235">
        <ele>1688.1999511719</ele>
        <time>2024-10-15T07:34:34.000Z</time>
      </trkpt>
      <trkpt lat="45.10392" lon="5.99235">
        <ele>1688.1999511719</ele>
        <time>2024-10-15T07:34:35.000Z</time>
      </trkpt>
      <trkpt lat="45.10392" lon="5.99235">
        <ele>1688.1999511719</ele>
        <time>2024-10-15T07:34:36.000Z</time>
      </trkpt>
      <trkpt lat="45.10392" lon="5.99235">
        <ele>1688</ele>
        <time>2024-10-15T07:34:37.000Z</time>
      </trkpt>
      <trkpt lat="45.10392" lon="5.99235">
        <ele>1688</ele>
        <time>2024-10-15T07:34:38.000Z</time>
      </trkpt>
      <trkpt lat="45.10392" lon="5.99234">
        <ele>1688</ele>
        <time>2024-10-15T07:34:39.000Z</time>
      </trkpt>
      <trkpt lat="45.10392" lon="5.99234">
        <ele>1688</ele>
        <time>2024-10-15T07:34:40.000Z</time>
      </trkpt>
      <trkpt lat="45.10392" lon="5.99234">
        <ele>1688</ele>
        <time>2024-10-15T07:34:41.000Z</time>
      </trkpt>
      <trkpt lat="45.10392" lon="5.99234">
        <ele>1688</ele>
        <time>2024-10-15T07:34:42.000Z</time>
      </trkpt>
      <trkpt lat="45.10392" lon="5.99234">
        <ele>1688</ele>
        <time>2024-10-15T07:34:43.000Z</time>
      </trkpt>
      <trkpt lat="45.10392" lon="5.99234">
        <ele>1688</ele>
        <time>2024-10-15T07:34:44.000Z</time>
      </trkpt>
      <trkpt lat="45.10392" lon="5.99234">
        <ele>1688</ele>
        <time>2024-10-15T07:34:45.000Z</time>
      </trkpt>
      <trkpt lat="45.10392" lon="5.99234">
        <ele>1687.5999755859</ele>
        <time>2024-10-15T07:34:46.000Z</time>
      </trkpt>
      <trkpt lat="45.10392" lon="5.99234">
        <ele>1687.5999755859</ele>
        <time>2024-10-15T07:34:47.000Z</time>
      </trkpt>
      <trkpt lat="45.10392" lon="5.99234">
        <ele>1687.5999755859</ele>
        <time>2024-10-15T07:34:48.000Z</time>
      </trkpt>
      <trkpt lat="45.10392" lon="5.99234">
        <ele>1687.4000244141</ele>
        <time>2024-10-15T07:34:49.000Z</time>
      </trkpt>
      <trkpt lat="45.10392" lon="5.99234">
        <ele>1687.4000244141</ele>
        <time>2024-10-15T07:34:50.000Z</time>
      </trkpt>
      <trkpt lat="45.10392" lon="5.99234">
        <ele>1687.4000244141</ele>
        <time>2024-10-15T07:34:51.000Z</time>
      </trkpt>
      <trkpt lat="45.10392" lon="5.99234">
        <ele>1687.1999511719</ele>
        <time>2024-10-15T07:34:52.000Z</time>
      </trkpt>
      <trkpt lat="45.10392" lon="5.99234">
        <ele>1687.1999511719</ele>
        <time>2024-10-15T07:34:53.000Z</time>
      </trkpt>
      <trkpt lat="45.10392" lon="5.99234">
        <ele>1687.1999511719</ele>
        <time>2024-10-15T07:34:54.000Z</time>
      </trkpt>
      <trkpt lat="45.10392" lon="5.99234">
        <ele>1687.1999511719</ele>
        <time>2024-10-15T07:34:55.000Z</time>
      </trkpt>
      <trkpt lat="45.10392" lon="5.99234">
        <ele>1687.1999511719</ele>
        <time>2024-10-15T07:34:56.000Z</time>
      </trkpt>
      <trkpt lat="45.10392" lon="5.99234">
        <ele>1687.1999511719</ele>
        <time>2024-10-15T07:34:57.000Z</time>
      </trkpt>
      <trkpt lat="45.10392" lon="5.99234">
        <ele>1687.1999511719</ele>
        <time>2024-10-15T07:34:58.000Z</time>
      </trkpt>
      <trkpt lat="45.10392" lon="5.99234">
        <ele>1687.1999511719</ele>
        <time>2024-10-15T07:34:59.000Z</time>
      </trkpt>
      <trkpt lat="45.10392" lon="5.99234">
        <ele>1687.1999511719</ele>
        <time>2024-10-15T07:35:00.000Z</time>
      </trkpt>
      <trkpt lat="45.10392" lon="5.99234">
        <ele>1687.1999511719</ele>
        <time>2024-10-15T07:35:01.000Z</time>
      </trkpt>
      <trkpt lat="45.10392" lon="5.99234">
        <ele>1687.1999511719</ele>
        <time>2024-10-15T07:35:02.000Z</time>
      </trkpt>
      <trkpt lat="45.10392" lon="5.99234">
        <ele>1687.1999511719</ele>
        <time>2024-10-15T07:35:03.000Z</time>
      </trkpt>
      <trkpt lat="45.10392" lon="5.99234">
        <ele>1687.1999511719</ele>
        <time>2024-10-15T07:35:04.000Z</time>
      </trkpt>
      <trkpt lat="45.10392" lon="5.99234">
        <ele>1687</ele>
        <time>2024-10-15T07:35:05.000Z</time>
      </trkpt>
      <trkpt lat="45.10392" lon="5.99234">
        <ele>1687</ele>
        <time>2024-10-15T07:35:06.000Z</time>
      </trkpt>
      <trkpt lat="45.10392" lon="5.99234">
        <ele>1687</ele>
        <time>2024-10-15T07:35:07.000Z</time>
      </trkpt>
      <trkpt lat="45.10392" lon="5.99234">
        <ele>1687</ele>
        <time>2024-10-15T07:35:08.000Z</time>
      </trkpt>
      <trkpt lat="45.10392" lon="5.99234">
        <ele>1687</ele>
        <time>2024-10-15T07:35:09.000Z</time>
      </trkpt>
      <trkpt lat="45.10392" lon="5.99234">
        <ele>1687</ele>
        <time>2024-10-15T07:35:10.000Z</time>
      </trkpt>
      <trkpt lat="45.10392" lon="5.99234">
        <ele>1687</ele>
        <time>2024-10-15T07:35:11.000Z</time>
      </trkpt>
      <trkpt lat="45.10392" lon="5.99234">
        <ele>1687</ele>
        <time>2024-10-15T07:35:12.000Z</time>
      </trkpt>
      <trkpt lat="45.10392" lon="5.99234">
        <ele>1687</ele>
        <time>2024-10-15T07:35:13.000Z</time>
      </trkpt>
      <trkpt lat="45.10392" lon="5.99234">
        <ele>1687</ele>
        <time>2024-10-15T07:35:14.000Z</time>
      </trkpt>
      <trkpt lat="45.10392" lon="5.99234">
        <ele>1687</ele>
        <time>2024-10-15T07:35:15.000Z</time>
      </trkpt>
      <trkpt lat="45.10392" lon="5.99234">
        <ele>1687</ele>
        <time>2024-10-15T07:35:16.000Z</time>
      </trkpt>
      <trkpt lat="45.10392" lon="5.99234">
        <ele>1687</ele>
        <time>2024-10-15T07:35:17.000Z</time>
      </trkpt>
      <trkpt lat="45.10392" lon="5.99234">
        <ele>1687</ele>
        <time>2024-10-15T07:35:18.000Z</time>
      </trkpt>
      <trkpt lat="45.10392" lon="5.99234">
        <ele>1687</ele>
        <time>2024-10-15T07:35:19.000Z</time>
      </trkpt>
      <trkpt lat="45.10392" lon="5.99234">
        <ele>1687</ele>
        <time>2024-10-15T07:35:20.000Z</time>
      </trkpt>
      <trkpt lat="45.10392" lon="5.99234">
        <ele>1687</ele>
        <time>2024-10-15T07:35:21.000Z</time>
      </trkpt>
      <trkpt lat="45.10392" lon="5.99234">
        <ele>1687</ele>
        <time>2024-10-15T07:35:22.000Z</time>
      </trkpt>
      <trkpt lat="45.10392" lon="5.99234">
        <ele>1686.8000488281</ele>
        <time>2024-10-15T07:35:23.000Z</time>
      </trkpt>
      <trkpt lat="45.10392" lon="5.99234">
        <ele>1686.8000488281</ele>
        <time>2024-10-15T07:35:24.000Z</time>
      </trkpt>
      <trkpt lat="45.10392" lon="5.99234">
        <ele>1686.8000488281</ele>
        <time>2024-10-15T07:35:25.000Z</time>
      </trkpt>
      <trkpt lat="45.10392" lon="5.99234">
        <ele>1686.5999755859</ele>
        <time>2024-10-15T07:35:26.000Z</time>
      </trkpt>
      <trkpt lat="45.10392" lon="5.99234">
        <ele>1686.4000244141</ele>
        <time>2024-10-15T07:35:27.000Z</time>
      </trkpt>
      <trkpt lat="45.10392" lon="5.99234">
        <ele>1686.4000244141</ele>
        <time>2024-10-15T07:35:28.000Z</time>
      </trkpt>
      <trkpt lat="45.10392" lon="5.99234">
        <ele>1686.1999511719</ele>
        <time>2024-10-15T07:35:29.000Z</time>
      </trkpt>
      <trkpt lat="45.10392" lon="5.99234">
        <ele>1686</ele>
        <time>2024-10-15T07:35:30.000Z</time>
      </trkpt>
      <trkpt lat="45.10392" lon="5.99234">
        <ele>1685.8000488281</ele>
        <time>2024-10-15T07:35:31.000Z</time>
      </trkpt>
      <trkpt lat="45.10392" lon="5.99234">
        <ele>1685.8000488281</ele>
        <time>2024-10-15T07:35:32.000Z</time>
      </trkpt>
      <trkpt lat="45.10392" lon="5.99234">
        <ele>1685.8000488281</ele>
        <time>2024-10-15T07:35:33.000Z</time>
      </trkpt>
      <trkpt lat="45.10392" lon="5.99234">
        <ele>1685.8000488281</ele>
        <time>2024-10-15T07:35:34.000Z</time>
      </trkpt>
      <trkpt lat="45.10392" lon="5.99234">
        <ele>1685.8000488281</ele>
        <time>2024-10-15T07:35:35.000Z</time>
      </trkpt>
      <trkpt lat="45.10392" lon="5.99234">
        <ele>1685.8000488281</ele>
        <time>2024-10-15T07:35:36.000Z</time>
      </trkpt>
      <trkpt lat="45.10392" lon="5.99234">
        <ele>1686</ele>
        <time>2024-10-15T07:35:37.000Z</time>
      </trkpt>
      <trkpt lat="45.10392" lon="5.99234">
        <ele>1686.1999511719</ele>
        <time>2024-10-15T07:35:38.000Z</time>
      </trkpt>
      <trkpt lat="45.10392" lon="5.99234">
        <ele>1686.1999511719</ele>
        <time>2024-10-15T07:35:39.000Z</time>
      </trkpt>
      <trkpt lat="45.10392" lon="5.99234">
        <ele>1686.1999511719</ele>
        <time>2024-10-15T07:35:40.000Z</time>
      </trkpt>
      <trkpt lat="45.10392" lon="5.99234">
        <ele>1686.1999511719</ele>
        <time>2024-10-15T07:35:41.000Z</time>
      </trkpt>
      <trkpt lat="45.10392" lon="5.99234">
        <ele>1686.1999511719</ele>
        <time>2024-10-15T07:35:42.000Z</time>
      </trkpt>
      <trkpt lat="45.10392" lon="5.99234">
        <ele>1686.4000244141</ele>
        <time>2024-10-15T07:35:43.000Z</time>
      </trkpt>
      <trkpt lat="45.10392" lon="5.99234">
        <ele>1686.4000244141</ele>
        <time>2024-10-15T07:35:44.000Z</time>
      </trkpt>
      <trkpt lat="45.10392" lon="5.99233">
        <ele>1686.4000244141</ele>
        <time>2024-10-15T07:35:45.000Z</time>
      </trkpt>
      <trkpt lat="45.10392" lon="5.99233">
        <ele>1686.4000244141</ele>
        <time>2024-10-15T07:35:46.000Z</time>
      </trkpt>
      <trkpt lat="45.10392" lon="5.99233">
        <ele>1686.4000244141</ele>
        <time>2024-10-15T07:35:47.000Z</time>
      </trkpt>
      <trkpt lat="45.10392" lon="5.99233">
        <ele>1686.4000244141</ele>
        <time>2024-10-15T07:35:48.000Z</time>
      </trkpt>
      <trkpt lat="45.10392" lon="5.99233">
        <ele>1686.4000244141</ele>
        <time>2024-10-15T07:35:49.000Z</time>
      </trkpt>
      <trkpt lat="45.10392" lon="5.99233">
        <ele>1686.5999755859</ele>
        <time>2024-10-15T07:35:50.000Z</time>
      </trkpt>
      <trkpt lat="45.10392" lon="5.99233">
        <ele>1686.5999755859</ele>
        <time>2024-10-15T07:35:51.000Z</time>
      </trkpt>
      <trkpt lat="45.10392" lon="5.99233">
        <ele>1686.5999755859</ele>
        <time>2024-10-15T07:35:52.000Z</time>
      </trkpt>
      <trkpt lat="45.10392" lon="5.99233">
        <ele>1686.5999755859</ele>
        <time>2024-10-15T07:35:53.000Z</time>
      </trkpt>
      <trkpt lat="45.10392" lon="5.99233">
        <ele>1686.5999755859</ele>
        <time>2024-10-15T07:35:54.000Z</time>
      </trkpt>
      <trkpt lat="45.10392" lon="5.99233">
        <ele>1686.4000244141</ele>
        <time>2024-10-15T07:35:55.000Z</time>
      </trkpt>
      <trkpt lat="45.10392" lon="5.99233">
        <ele>1686.4000244141</ele>
        <time>2024-10-15T07:35:56.000Z</time>
      </trkpt>
      <trkpt lat="45.10392" lon="5.99233">
        <ele>1686.4000244141</ele>
        <time>2024-10-15T07:35:57.000Z</time>
      </trkpt>
      <trkpt lat="45.10392" lon="5.99233">
        <ele>1686.1999511719</ele>
        <time>2024-10-15T07:35:58.000Z</time>
      </trkpt>
      <trkpt lat="45.10392" lon="5.99233">
        <ele>1686.1999511719</ele>
        <time>2024-10-15T07:35:59.000Z</time>
      </trkpt>
      <trkpt lat="45.10392" lon="5.99233">
        <ele>1686.4000244141</ele>
        <time>2024-10-15T07:36:00.000Z</time>
      </trkpt>
      <trkpt lat="45.10392" lon="5.99233">
        <ele>1686.4000244141</ele>
        <time>2024-10-15T07:36:01.000Z</time>
      </trkpt>
      <trkpt lat="45.10392" lon="5.99233">
        <ele>1686.1999511719</ele>
        <time>2024-10-15T07:36:02.000Z</time>
      </trkpt>
      <trkpt lat="45.10392" lon="5.99233">
        <ele>1686.1999511719</ele>
        <time>2024-10-15T07:36:03.000Z</time>
      </trkpt>
      <trkpt lat="45.10392" lon="5.99233">
        <ele>1686.1999511719</ele>
        <time>2024-10-15T07:36:04.000Z</time>
      </trkpt>
      <trkpt lat="45.10392" lon="5.99233">
        <ele>1686.1999511719</ele>
        <time>2024-10-15T07:36:05.000Z</time>
      </trkpt>
      <trkpt lat="45.10392" lon="5.99233">
        <ele>1686.1999511719</ele>
        <time>2024-10-15T07:36:06.000Z</time>
      </trkpt>
      <trkpt lat="45.10392" lon="5.99233">
        <ele>1686</ele>
        <time>2024-10-15T07:36:07.000Z</time>
      </trkpt>
      <trkpt lat="45.10392" lon="5.99233">
        <ele>1686</ele>
        <time>2024-10-15T07:36:08.000Z</time>
      </trkpt>
      <trkpt lat="45.10392" lon="5.99233">
        <ele>1686</ele>
        <time>2024-10-15T07:36:09.000Z</time>
      </trkpt>
      <trkpt lat="45.10392" lon="5.99233">
        <ele>1686</ele>
        <time>2024-10-15T07:36:10.000Z</time>
      </trkpt>
      <trkpt lat="45.10392" lon="5.99233">
        <ele>1686</ele>
        <time>2024-10-15T07:36:11.000Z</time>
      </trkpt>
      <trkpt lat="45.10392" lon="5.99233">
        <ele>1685.8000488281</ele>
        <time>2024-10-15T07:36:12.000Z</time>
      </trkpt>
      <trkpt lat="45.10392" lon="5.99233">
        <ele>1685.8000488281</ele>
        <time>2024-10-15T07:36:13.000Z</time>
      </trkpt>
      <trkpt lat="45.10392" lon="5.99233">
        <ele>1685.8000488281</ele>
        <time>2024-10-15T07:36:14.000Z</time>
      </trkpt>
      <trkpt lat="45.10392" lon="5.99233">
        <ele>1685.8000488281</ele>
        <time>2024-10-15T07:36:15.000Z</time>
      </trkpt>
      <trkpt lat="45.10392" lon="5.99233">
        <ele>1685.8000488281</ele>
        <time>2024-10-15T07:36:16.000Z</time>
      </trkpt>
      <trkpt lat="45.10392" lon="5.99233">
        <ele>1685.8000488281</ele>
        <time>2024-10-15T07:36:17.000Z</time>
      </trkpt>
      <trkpt lat="45.10392" lon="5.99233">
        <ele>1685.8000488281</ele>
        <time>2024-10-15T07:36:18.000Z</time>
      </trkpt>
      <trkpt lat="45.10392" lon="5.99233">
        <ele>1685.8000488281</ele>
        <time>2024-10-15T07:36:19.000Z</time>
      </trkpt>
      <trkpt lat="45.10392" lon="5.99233">
        <ele>1685.8000488281</ele>
        <time>2024-10-15T07:36:20.000Z</time>
      </trkpt>
      <trkpt lat="45.10392" lon="5.99233">
        <ele>1685.8000488281</ele>
        <time>2024-10-15T07:36:21.000Z</time>
      </trkpt>
      <trkpt lat="45.10392" lon="5.99233">
        <ele>1685.5999755859</ele>
        <time>2024-10-15T07:36:22.000Z</time>
      </trkpt>
      <trkpt lat="45.10393" lon="5.99233">
        <ele>1685.5999755859</ele>
        <time>2024-10-15T07:36:23.000Z</time>
      </trkpt>
      <trkpt lat="45.10393" lon="5.99233">
        <ele>1685.5999755859</ele>
        <time>2024-10-15T07:36:24.000Z</time>
      </trkpt>
      <trkpt lat="45.10393" lon="5.99233">
        <ele>1685.5999755859</ele>
        <time>2024-10-15T07:36:25.000Z</time>
      </trkpt>
      <trkpt lat="45.10393" lon="5.99233">
        <ele>1685.5999755859</ele>
        <time>2024-10-15T07:36:26.000Z</time>
      </trkpt>
      <trkpt lat="45.10393" lon="5.99233">
        <ele>1685.4000244141</ele>
        <time>2024-10-15T07:36:27.000Z</time>
      </trkpt>
      <trkpt lat="45.10393" lon="5.99233">
        <ele>1685.1999511719</ele>
        <time>2024-10-15T07:36:28.000Z</time>
      </trkpt>
      <trkpt lat="45.10393" lon="5.99233">
        <ele>1685.1999511719</ele>
        <time>2024-10-15T07:36:29.000Z</time>
      </trkpt>
      <trkpt lat="45.10393" lon="5.99233">
        <ele>1685.1999511719</ele>
        <time>2024-10-15T07:36:30.000Z</time>
      </trkpt>
      <trkpt lat="45.10393" lon="5.99233">
        <ele>1685</ele>
        <time>2024-10-15T07:36:31.000Z</time>
      </trkpt>
      <trkpt lat="45.10393" lon="5.99233">
        <ele>1685</ele>
        <time>2024-10-15T07:36:32.000Z</time>
      </trkpt>
      <trkpt lat="45.10393" lon="5.99233">
        <ele>1685</ele>
        <time>2024-10-15T07:36:33.000Z</time>
      </trkpt>
      <trkpt lat="45.10393" lon="5.99233">
        <ele>1685</ele>
        <time>2024-10-15T07:36:34.000Z</time>
      </trkpt>
      <trkpt lat="45.10393" lon="5.99233">
        <ele>1685</ele>
        <time>2024-10-15T07:36:35.000Z</time>
      </trkpt>
      <trkpt lat="45.10393" lon="5.99233">
        <ele>1685</ele>
        <time>2024-10-15T07:36:36.000Z</time>
      </trkpt>
      <trkpt lat="45.10393" lon="5.99233">
        <ele>1685</ele>
        <time>2024-10-15T07:36:37.000Z</time>
      </trkpt>
      <trkpt lat="45.10393" lon="5.99233">
        <ele>1685</ele>
        <time>2024-10-15T07:36:38.000Z</time>
      </trkpt>
      <trkpt lat="45.10393" lon="5.99233">
        <ele>1685</ele>
        <time>2024-10-15T07:36:39.000Z</time>
      </trkpt>
      <trkpt lat="45.10393" lon="5.99233">
        <ele>1685</ele>
        <time>2024-10-15T07:36:40.000Z</time>
      </trkpt>
      <trkpt lat="45.10393" lon="5.99233">
        <ele>1685</ele>
        <time>2024-10-15T07:36:41.000Z</time>
      </trkpt>
      <trkpt lat="45.10393" lon="5.99233">
        <ele>1685.1999511719</ele>
        <time>2024-10-15T07:36:42.000Z</time>
      </trkpt>
      <trkpt lat="45.10393" lon="5.99233">
        <ele>1685.4000244141</ele>
        <time>2024-10-15T07:36:43.000Z</time>
      </trkpt>
      <trkpt lat="45.10393" lon="5.99233">
        <ele>1685.4000244141</ele>
        <time>2024-10-15T07:36:44.000Z</time>
      </trkpt>
      <trkpt lat="45.10393" lon="5.99233">
        <ele>1685.4000244141</ele>
        <time>2024-10-15T07:36:45.000Z</time>
      </trkpt>
      <trkpt lat="45.10393" lon="5.99233">
        <ele>1685.4000244141</ele>
        <time>2024-10-15T07:36:46.000Z</time>
      </trkpt>
      <trkpt lat="45.10393" lon="5.99233">
        <ele>1685.5999755859</ele>
        <time>2024-10-15T07:36:47.000Z</time>
      </trkpt>
      <trkpt lat="45.10393" lon="5.99233">
        <ele>1685.5999755859</ele>
        <time>2024-10-15T07:36:48.000Z</time>
      </trkpt>
      <trkpt lat="45.10393" lon="5.99233">
        <ele>1685.5999755859</ele>
        <time>2024-10-15T07:36:49.000Z</time>
      </trkpt>
      <trkpt lat="45.10393" lon="5.99233">
        <ele>1685.5999755859</ele>
        <time>2024-10-15T07:36:50.000Z</time>
      </trkpt>
      <trkpt lat="45.10393" lon="5.99233">
        <ele>1685.5999755859</ele>
        <time>2024-10-15T07:36:51.000Z</time>
      </trkpt>
      <trkpt lat="45.10393" lon="5.99233">
        <ele>1685.5999755859</ele>
        <time>2024-10-15T07:36:52.000Z</time>
      </trkpt>
      <trkpt lat="45.10393" lon="5.99233">
        <ele>1685.4000244141</ele>
        <time>2024-10-15T07:36:53.000Z</time>
      </trkpt>
      <trkpt lat="45.10393" lon="5.99233">
        <ele>1685.4000244141</ele>
        <time>2024-10-15T07:36:54.000Z</time>
      </trkpt>
      <trkpt lat="45.10393" lon="5.99233">
        <ele>1685.1999511719</ele>
        <time>2024-10-15T07:36:55.000Z</time>
      </trkpt>
      <trkpt lat="45.10393" lon="5.99233">
        <ele>1685.1999511719</ele>
        <time>2024-10-15T07:36:56.000Z</time>
      </trkpt>
      <trkpt lat="45.10393" lon="5.99233">
        <ele>1685.1999511719</ele>
        <time>2024-10-15T07:36:57.000Z</time>
      </trkpt>
      <trkpt lat="45.10393" lon="5.99233">
        <ele>1685.1999511719</ele>
        <time>2024-10-15T07:36:58.000Z</time>
      </trkpt>
      <trkpt lat="45.10393" lon="5.99233">
        <ele>1685</ele>
        <time>2024-10-15T07:36:59.000Z</time>
      </trkpt>
      <trkpt lat="45.10393" lon="5.99233">
        <ele>1685</ele>
        <time>2024-10-15T07:37:00.000Z</time>
      </trkpt>
      <trkpt lat="45.10393" lon="5.99233">
        <ele>1685</ele>
        <time>2024-10-15T07:37:01.000Z</time>
      </trkpt>
      <trkpt lat="45.10393" lon="5.99233">
        <ele>1685</ele>
        <time>2024-10-15T07:37:02.000Z</time>
      </trkpt>
      <trkpt lat="45.10393" lon="5.99233">
        <ele>1685</ele>
        <time>2024-10-15T07:37:03.000Z</time>
      </trkpt>
      <trkpt lat="45.10393" lon="5.99233">
        <ele>1685</ele>
        <time>2024-10-15T07:37:04.000Z</time>
      </trkpt>
      <trkpt lat="45.10393" lon="5.99233">
        <ele>1685.1999511719</ele>
        <time>2024-10-15T07:37:05.000Z</time>
      </trkpt>
      <trkpt lat="45.10393" lon="5.99233">
        <ele>1685.1999511719</ele>
        <time>2024-10-15T07:37:06.000Z</time>
      </trkpt>
      <trkpt lat="45.10393" lon="5.99233">
        <ele>1685.1999511719</ele>
        <time>2024-10-15T07:37:07.000Z</time>
      </trkpt>
      <trkpt lat="45.10393" lon="5.99232">
        <ele>1685.1999511719</ele>
        <time>2024-10-15T07:37:08.000Z</time>
      </trkpt>
      <trkpt lat="45.10393" lon="5.99232">
        <ele>1685.1999511719</ele>
        <time>2024-10-15T07:37:09.000Z</time>
      </trkpt>
      <trkpt lat="45.10393" lon="5.99232">
        <ele>1685.1999511719</ele>
        <time>2024-10-15T07:37:10.000Z</time>
      </trkpt>
      <trkpt lat="45.10393" lon="5.99232">
        <ele>1685.1999511719</ele>
        <time>2024-10-15T07:37:11.000Z</time>
      </trkpt>
      <trkpt lat="45.10393" lon="5.99232">
        <ele>1685.1999511719</ele>
        <time>2024-10-15T07:37:12.000Z</time>
      </trkpt>
      <trkpt lat="45.10393" lon="5.99232">
        <ele>1685.1999511719</ele>
        <time>2024-10-15T07:37:13.000Z</time>
      </trkpt>
      <trkpt lat="45.10393" lon="5.99232">
        <ele>1685.1999511719</ele>
        <time>2024-10-15T07:37:14.000Z</time>
      </trkpt>
      <trkpt lat="45.10393" lon="5.99232">
        <ele>1685.1999511719</ele>
        <time>2024-10-15T07:37:15.000Z</time>
      </trkpt>
      <trkpt lat="45.10393" lon="5.99232">
        <ele>1685</ele>
        <time>2024-10-15T07:37:16.000Z</time>
      </trkpt>
      <trkpt lat="45.10393" lon="5.99232">
        <ele>1685</ele>
        <time>2024-10-15T07:37:17.000Z</time>
      </trkpt>
      <trkpt lat="45.10393" lon="5.99232">
        <ele>1685</ele>
        <time>2024-10-15T07:37:18.000Z</time>
      </trkpt>
      <trkpt lat="45.10393" lon="5.99232">
        <ele>1685</ele>
        <time>2024-10-15T07:37:19.000Z</time>
      </trkpt>
      <trkpt lat="45.10393" lon="5.99232">
        <ele>1685</ele>
        <time>2024-10-15T07:37:20.000Z</time>
      </trkpt>
      <trkpt lat="45.10393" lon="5.99232">
        <ele>1685</ele>
        <time>2024-10-15T07:37:21.000Z</time>
      </trkpt>
      <trkpt lat="45.10393" lon="5.99232">
        <ele>1685</ele>
        <time>2024-10-15T07:37:22.000Z</time>
      </trkpt>
      <trkpt lat="45.10393" lon="5.99232">
        <ele>1685</ele>
        <time>2024-10-15T07:37:23.000Z</time>
      </trkpt>
      <trkpt lat="45.10393" lon="5.99232">
        <ele>1685</ele>
        <time>2024-10-15T07:37:24.000Z</time>
      </trkpt>
      <trkpt lat="45.10393" lon="5.99232">
        <ele>1684.8000488281</ele>
        <time>2024-10-15T07:37:25.000Z</time>
      </trkpt>
      <trkpt lat="45.10393" lon="5.99232">
        <ele>1684.8000488281</ele>
        <time>2024-10-15T07:37:26.000Z</time>
      </trkpt>
      <trkpt lat="45.10393" lon="5.99232">
        <ele>1684.8000488281</ele>
        <time>2024-10-15T07:37:27.000Z</time>
      </trkpt>
      <trkpt lat="45.10393" lon="5.99232">
        <ele>1684.8000488281</ele>
        <time>2024-10-15T07:37:28.000Z</time>
      </trkpt>
      <trkpt lat="45.10393" lon="5.99232">
        <ele>1684.5999755859</ele>
        <time>2024-10-15T07:37:29.000Z</time>
      </trkpt>
      <trkpt lat="45.10393" lon="5.99232">
        <ele>1684.5999755859</ele>
        <time>2024-10-15T07:37:30.000Z</time>
      </trkpt>
      <trkpt lat="45.10393" lon="5.99232">
        <ele>1684.5999755859</ele>
        <time>2024-10-15T07:37:31.000Z</time>
      </trkpt>
      <trkpt lat="45.10393" lon="5.99232">
        <ele>1684.5999755859</ele>
        <time>2024-10-15T07:37:32.000Z</time>
      </trkpt>
      <trkpt lat="45.10393" lon="5.99232">
        <ele>1684.5999755859</ele>
        <time>2024-10-15T07:37:33.000Z</time>
      </trkpt>
      <trkpt lat="45.10393" lon="5.99232">
        <ele>1684.8000488281</ele>
        <time>2024-10-15T07:37:34.000Z</time>
      </trkpt>
      <trkpt lat="45.10393" lon="5.99232">
        <ele>1684.8000488281</ele>
        <time>2024-10-15T07:37:35.000Z</time>
      </trkpt>
      <trkpt lat="45.10393" lon="5.99232">
        <ele>1684.8000488281</ele>
        <time>2024-10-15T07:37:36.000Z</time>
      </trkpt>
      <trkpt lat="45.10393" lon="5.99232">
        <ele>1684.5999755859</ele>
        <time>2024-10-15T07:37:37.000Z</time>
      </trkpt>
      <trkpt lat="45.10393" lon="5.99232">
        <ele>1684.5999755859</ele>
        <time>2024-10-15T07:37:38.000Z</time>
      </trkpt>
      <trkpt lat="45.10393" lon="5.99232">
        <ele>1684.5999755859</ele>
        <time>2024-10-15T07:37:39.000Z</time>
      </trkpt>
      <trkpt lat="45.10393" lon="5.99232">
        <ele>1684.5999755859</ele>
        <time>2024-10-15T07:37:40.000Z</time>
      </trkpt>
      <trkpt lat="45.10393" lon="5.99232">
        <ele>1684.5999755859</ele>
        <time>2024-10-15T07:37:41.000Z</time>
      </trkpt>
      <trkpt lat="45.10393" lon="5.99232">
        <ele>1684.4000244141</ele>
        <time>2024-10-15T07:37:42.000Z</time>
      </trkpt>
      <trkpt lat="45.10393" lon="5.99232">
        <ele>1684.4000244141</ele>
        <time>2024-10-15T07:37:43.000Z</time>
      </trkpt>
      <trkpt lat="45.10393" lon="5.99232">
        <ele>1684.4000244141</ele>
        <time>2024-10-15T07:37:44.000Z</time>
      </trkpt>
      <trkpt lat="45.10393" lon="5.99232">
        <ele>1684.4000244141</ele>
        <time>2024-10-15T07:37:45.000Z</time>
      </trkpt>
      <trkpt lat="45.10393" lon="5.99232">
        <ele>1684.1999511719</ele>
        <time>2024-10-15T07:37:46.000Z</time>
      </trkpt>
      <trkpt lat="45.10393" lon="5.99232">
        <ele>1684.1999511719</ele>
        <time>2024-10-15T07:37:47.000Z</time>
      </trkpt>
      <trkpt lat="45.10393" lon="5.99232">
        <ele>1684.1999511719</ele>
        <time>2024-10-15T07:37:48.000Z</time>
      </trkpt>
      <trkpt lat="45.10393" lon="5.99232">
        <ele>1684.1999511719</ele>
        <time>2024-10-15T07:37:49.000Z</time>
      </trkpt>
      <trkpt lat="45.10393" lon="5.99232">
        <ele>1684.1999511719</ele>
        <time>2024-10-15T07:37:50.000Z</time>
      </trkpt>
      <trkpt lat="45.10393" lon="5.99232">
        <ele>1684.1999511719</ele>
        <time>2024-10-15T07:37:51.000Z</time>
      </trkpt>
      <trkpt lat="45.10393" lon="5.99232">
        <ele>1684</ele>
        <time>2024-10-15T07:37:52.000Z</time>
      </trkpt>
      <trkpt lat="45.10393" lon="5.99232">
        <ele>1684</ele>
        <time>2024-10-15T07:37:53.000Z</time>
      </trkpt>
      <trkpt lat="45.10393" lon="5.99232">
        <ele>1684</ele>
        <time>2024-10-15T07:37:54.000Z</time>
      </trkpt>
      <trkpt lat="45.10393" lon="5.99232">
        <ele>1684</ele>
        <time>2024-10-15T07:37:55.000Z</time>
      </trkpt>
      <trkpt lat="45.10393" lon="5.99232">
        <ele>1683.8000488281</ele>
        <time>2024-10-15T07:37:56.000Z</time>
      </trkpt>
      <trkpt lat="45.10393" lon="5.99232">
        <ele>1683.8000488281</ele>
        <time>2024-10-15T07:37:57.000Z</time>
      </trkpt>
      <trkpt lat="45.10393" lon="5.99232">
        <ele>1683.8000488281</ele>
        <time>2024-10-15T07:37:58.000Z</time>
      </trkpt>
      <trkpt lat="45.10393" lon="5.99232">
        <ele>1683.8000488281</ele>
        <time>2024-10-15T07:37:59.000Z</time>
      </trkpt>
      <trkpt lat="45.10393" lon="5.99232">
        <ele>1683.8000488281</ele>
        <time>2024-10-15T07:38:00.000Z</time>
      </trkpt>
      <trkpt lat="45.10393" lon="5.99232">
        <ele>1683.8000488281</ele>
        <time>2024-10-15T07:38:01.000Z</time>
      </trkpt>
      <trkpt lat="45.10393" lon="5.99232">
        <ele>1683.8000488281</ele>
        <time>2024-10-15T07:38:02.000Z</time>
      </trkpt>
      <trkpt lat="45.10393" lon="5.99232">
        <ele>1683.8000488281</ele>
        <time>2024-10-15T07:38:03.000Z</time>
      </trkpt>
      <trkpt lat="45.10393" lon="5.99232">
        <ele>1683.8000488281</ele>
        <time>2024-10-15T07:38:04.000Z</time>
      </trkpt>
      <trkpt lat="45.10393" lon="5.99232">
        <ele>1683.8000488281</ele>
        <time>2024-10-15T07:38:05.000Z</time>
      </trkpt>
      <trkpt lat="45.10393" lon="5.99232">
        <ele>1684</ele>
        <time>2024-10-15T07:38:06.000Z</time>
      </trkpt>
      <trkpt lat="45.10393" lon="5.99232">
        <ele>1684</ele>
        <time>2024-10-15T07:38:07.000Z</time>
      </trkpt>
      <trkpt lat="45.10393" lon="5.99232">
        <ele>1684</ele>
        <time>2024-10-15T07:38:08.000Z</time>
      </trkpt>
      <trkpt lat="45.10393" lon="5.99232">
        <ele>1684</ele>
        <time>2024-10-15T07:38:09.000Z</time>
      </trkpt>
      <trkpt lat="45.10393" lon="5.99232">
        <ele>1684</ele>
        <time>2024-10-15T07:38:10.000Z</time>
      </trkpt>
      <trkpt lat="45.10393" lon="5.99232">
        <ele>1684</ele>
        <time>2024-10-15T07:38:11.000Z</time>
      </trkpt>
      <trkpt lat="45.10393" lon="5.99232">
        <ele>1684</ele>
        <time>2024-10-15T07:38:12.000Z</time>
      </trkpt>
      <trkpt lat="45.10393" lon="5.99232">
        <ele>1684</ele>
        <time>2024-10-15T07:38:13.000Z</time>
      </trkpt>
      <trkpt lat="45.10393" lon="5.99232">
        <ele>1683.8000488281</ele>
        <time>2024-10-15T07:38:14.000Z</time>
      </trkpt>
      <trkpt lat="45.10393" lon="5.99232">
        <ele>1683.8000488281</ele>
        <time>2024-10-15T07:38:15.000Z</time>
      </trkpt>
      <trkpt lat="45.10393" lon="5.99232">
        <ele>1683.8000488281</ele>
        <time>2024-10-15T07:38:16.000Z</time>
      </trkpt>
      <trkpt lat="45.10393" lon="5.99232">
        <ele>1683.8000488281</ele>
        <time>2024-10-15T07:38:17.000Z</time>
      </trkpt>
      <trkpt lat="45.10393" lon="5.99232">
        <ele>1683.8000488281</ele>
        <time>2024-10-15T07:38:18.000Z</time>
      </trkpt>
      <trkpt lat="45.10393" lon="5.99232">
        <ele>1683.8000488281</ele>
        <time>2024-10-15T07:38:19.000Z</time>
      </trkpt>
      <trkpt lat="45.10393" lon="5.99232">
        <ele>1683.5999755859</ele>
        <time>2024-10-15T07:38:20.000Z</time>
      </trkpt>
      <trkpt lat="45.10393" lon="5.99232">
        <ele>1683.5999755859</ele>
        <time>2024-10-15T07:38:21.000Z</time>
      </trkpt>
      <trkpt lat="45.10393" lon="5.99232">
        <ele>1683.5999755859</ele>
        <time>2024-10-15T07:38:22.000Z</time>
      </trkpt>
      <trkpt lat="45.10393" lon="5.99232">
        <ele>1683.5999755859</ele>
        <time>2024-10-15T07:38:23.000Z</time>
      </trkpt>
      <trkpt lat="45.10393" lon="5.99232">
        <ele>1683.8000488281</ele>
        <time>2024-10-15T07:38:24.000Z</time>
      </trkpt>
      <trkpt lat="45.10393" lon="5.99232">
        <ele>1683.8000488281</ele>
        <time>2024-10-15T07:38:25.000Z</time>
      </trkpt>
      <trkpt lat="45.10393" lon="5.99232">
        <ele>1683.8000488281</ele>
        <time>2024-10-15T07:38:26.000Z</time>
      </trkpt>
      <trkpt lat="45.10393" lon="5.99232">
        <ele>1683.8000488281</ele>
        <time>2024-10-15T07:38:27.000Z</time>
      </trkpt>
      <trkpt lat="45.10393" lon="5.99232">
        <ele>1683.8000488281</ele>
        <time>2024-10-15T07:38:28.000Z</time>
      </trkpt>
      <trkpt lat="45.10393" lon="5.99232">
        <ele>1683.8000488281</ele>
        <time>2024-10-15T07:38:29.000Z</time>
      </trkpt>
      <trkpt lat="45.10393" lon="5.99232">
        <ele>1683.8000488281</ele>
        <time>2024-10-15T07:38:30.000Z</time>
      </trkpt>
      <trkpt lat="45.10393" lon="5.99232">
        <ele>1683.8000488281</ele>
        <time>2024-10-15T07:38:31.000Z</time>
      </trkpt>
      <trkpt lat="45.10393" lon="5.99232">
        <ele>1683.8000488281</ele>
        <time>2024-10-15T07:38:32.000Z</time>
      </trkpt>
      <trkpt lat="45.10393" lon="5.99232">
        <ele>1683.8000488281</ele>
        <time>2024-10-15T07:38:33.000Z</time>
      </trkpt>
      <trkpt lat="45.10393" lon="5.99232">
        <ele>1683.8000488281</ele>
        <time>2024-10-15T07:38:34.000Z</time>
      </trkpt>
      <trkpt lat="45.10393" lon="5.99232">
        <ele>1683.8000488281</ele>
        <time>2024-10-15T07:38:35.000Z</time>
      </trkpt>
      <trkpt lat="45.10393" lon="5.99232">
        <ele>1683.8000488281</ele>
        <time>2024-10-15T07:38:36.000Z</time>
      </trkpt>
      <trkpt lat="45.10393" lon="5.99232">
        <ele>1683.8000488281</ele>
        <time>2024-10-15T07:38:37.000Z</time>
      </trkpt>
      <trkpt lat="45.10393" lon="5.99232">
        <ele>1683.8000488281</ele>
        <time>2024-10-15T07:38:38.000Z</time>
      </trkpt>
      <trkpt lat="45.10393" lon="5.99232">
        <ele>1683.8000488281</ele>
        <time>2024-10-15T07:38:39.000Z</time>
      </trkpt>
      <trkpt lat="45.10393" lon="5.99232">
        <ele>1683.8000488281</ele>
        <time>2024-10-15T07:38:40.000Z</time>
      </trkpt>
      <trkpt lat="45.10393" lon="5.99232">
        <ele>1683.8000488281</ele>
        <time>2024-10-15T07:38:41.000Z</time>
      </trkpt>
      <trkpt lat="45.10393" lon="5.99232">
        <ele>1683.5999755859</ele>
        <time>2024-10-15T07:38:42.000Z</time>
      </trkpt>
      <trkpt lat="45.10393" lon="5.99232">
        <ele>1683.5999755859</ele>
        <time>2024-10-15T07:38:43.000Z</time>
      </trkpt>
      <trkpt lat="45.10393" lon="5.99232">
        <ele>1683.4000244141</ele>
        <time>2024-10-15T07:38:44.000Z</time>
      </trkpt>
      <trkpt lat="45.10393" lon="5.99232">
        <ele>1683.1999511719</ele>
        <time>2024-10-15T07:38:45.000Z</time>
      </trkpt>
      <trkpt lat="45.10393" lon="5.99232">
        <ele>1683.1999511719</ele>
        <time>2024-10-15T07:38:46.000Z</time>
      </trkpt>
      <trkpt lat="45.10393" lon="5.99232">
        <ele>1683.1999511719</ele>
        <time>2024-10-15T07:38:47.000Z</time>
      </trkpt>
      <trkpt lat="45.10393" lon="5.99232">
        <ele>1683.1999511719</ele>
        <time>2024-10-15T07:38:48.000Z</time>
      </trkpt>
      <trkpt lat="45.10393" lon="5.99232">
        <ele>1683.1999511719</ele>
        <time>2024-10-15T07:38:49.000Z</time>
      </trkpt>
      <trkpt lat="45.10393" lon="5.99232">
        <ele>1683.4000244141</ele>
        <time>2024-10-15T07:38:50.000Z</time>
      </trkpt>
      <trkpt lat="45.10393" lon="5.99232">
        <ele>1683.4000244141</ele>
        <time>2024-10-15T07:38:51.000Z</time>
      </trkpt>
      <trkpt lat="45.10393" lon="5.99232">
        <ele>1683.4000244141</ele>
        <time>2024-10-15T07:38:52.000Z</time>
      </trkpt>
      <trkpt lat="45.10393" lon="5.99232">
        <ele>1683.4000244141</ele>
        <time>2024-10-15T07:38:53.000Z</time>
      </trkpt>
      <trkpt lat="45.10393" lon="5.99232">
        <ele>1683.4000244141</ele>
        <time>2024-10-15T07:38:54.000Z</time>
      </trkpt>
      <trkpt lat="45.10393" lon="5.99232">
        <ele>1683.4000244141</ele>
        <time>2024-10-15T07:38:55.000Z</time>
      </trkpt>
      <trkpt lat="45.10393" lon="5.99232">
        <ele>1683.1999511719</ele>
        <time>2024-10-15T07:38:56.000Z</time>
      </trkpt>
      <trkpt lat="45.10393" lon="5.99232">
        <ele>1683.1999511719</ele>
        <time>2024-10-15T07:38:57.000Z</time>
      </trkpt>
      <trkpt lat="45.10393" lon="5.99232">
        <ele>1683.4000244141</ele>
        <time>2024-10-15T07:38:58.000Z</time>
      </trkpt>
      <trkpt lat="45.10393" lon="5.99232">
        <ele>1683.1999511719</ele>
        <time>2024-10-15T07:38:59.000Z</time>
      </trkpt>
      <trkpt lat="45.10393" lon="5.99232">
        <ele>1683.1999511719</ele>
        <time>2024-10-15T07:39:00.000Z</time>
      </trkpt>
      <trkpt lat="45.10393" lon="5.99232">
        <ele>1683.1999511719</ele>
        <time>2024-10-15T07:39:01.000Z</time>
      </trkpt>
      <trkpt lat="45.10393" lon="5.99232">
        <ele>1683</ele>
        <time>2024-10-15T07:39:02.000Z</time>
      </trkpt>
      <trkpt lat="45.10393" lon="5.99232">
        <ele>1683</ele>
        <time>2024-10-15T07:39:03.000Z</time>
      </trkpt>
      <trkpt lat="45.10393" lon="5.99232">
        <ele>1682.8000488281</ele>
        <time>2024-10-15T07:39:04.000Z</time>
      </trkpt>
      <trkpt lat="45.10393" lon="5.99232">
        <ele>1682.8000488281</ele>
        <time>2024-10-15T07:39:05.000Z</time>
      </trkpt>
      <trkpt lat="45.10393" lon="5.99232">
        <ele>1682.8000488281</ele>
        <time>2024-10-15T07:39:06.000Z</time>
      </trkpt>
      <trkpt lat="45.10393" lon="5.99232">
        <ele>1682.8000488281</ele>
        <time>2024-10-15T07:39:07.000Z</time>
      </trkpt>
      <trkpt lat="45.10393" lon="5.99232">
        <ele>1682.8000488281</ele>
        <time>2024-10-15T07:39:08.000Z</time>
      </trkpt>
      <trkpt lat="45.10393" lon="5.99232">
        <ele>1682.5999755859</ele>
        <time>2024-10-15T07:39:09.000Z</time>
      </trkpt>
      <trkpt lat="45.10393" lon="5.99232">
        <ele>1682.5999755859</ele>
        <time>2024-10-15T07:39:10.000Z</time>
      </trkpt>
      <trkpt lat="45.10393" lon="5.99232">
        <ele>1682.5999755859</ele>
        <time>2024-10-15T07:39:11.000Z</time>
      </trkpt>
      <trkpt lat="45.10393" lon="5.99232">
        <ele>1682.5999755859</ele>
        <time>2024-10-15T07:39:12.000Z</time>
      </trkpt>
      <trkpt lat="45.10393" lon="5.99232">
        <ele>1682.5999755859</ele>
        <time>2024-10-15T07:39:13.000Z</time>
      </trkpt>
      <trkpt lat="45.10393" lon="5.99232">
        <ele>1682.5999755859</ele>
        <time>2024-10-15T07:39:14.000Z</time>
      </trkpt>
      <trkpt lat="45.10393" lon="5.99232">
        <ele>1682.5999755859</ele>
        <time>2024-10-15T07:39:15.000Z</time>
      </trkpt>
      <trkpt lat="45.10393" lon="5.99232">
        <ele>1682.5999755859</ele>
        <time>2024-10-15T07:39:16.000Z</time>
      </trkpt>
      <trkpt lat="45.10393" lon="5.99232">
        <ele>1682.5999755859</ele>
        <time>2024-10-15T07:39:17.000Z</time>
      </trkpt>
      <trkpt lat="45.10393" lon="5.99232">
        <ele>1682.4000244141</ele>
        <time>2024-10-15T07:39:18.000Z</time>
      </trkpt>
      <trkpt lat="45.10393" lon="5.99231">
        <ele>1682.4000244141</ele>
        <time>2024-10-15T07:39:19.000Z</time>
      </trkpt>
      <trkpt lat="45.10393" lon="5.99231">
        <ele>1682.4000244141</ele>
        <time>2024-10-15T07:39:20.000Z</time>
      </trkpt>
      <trkpt lat="45.10393" lon="5.99231">
        <ele>1682.4000244141</ele>
        <time>2024-10-15T07:39:21.000Z</time>
      </trkpt>
      <trkpt lat="45.10393" lon="5.99231">
        <ele>1682.4000244141</ele>
        <time>2024-10-15T07:39:22.000Z</time>
      </trkpt>
      <trkpt lat="45.10393" lon="5.99231">
        <ele>1682.4000244141</ele>
        <time>2024-10-15T07:39:23.000Z</time>
      </trkpt>
      <trkpt lat="45.10393" lon="5.99231">
        <ele>1682.4000244141</ele>
        <time>2024-10-15T07:39:24.000Z</time>
      </trkpt>
      <trkpt lat="45.10393" lon="5.99231">
        <ele>1682.1999511719</ele>
        <time>2024-10-15T07:39:25.000Z</time>
      </trkpt>
      <trkpt lat="45.10393" lon="5.99231">
        <ele>1682.1999511719</ele>
        <time>2024-10-15T07:39:26.000Z</time>
      </trkpt>
      <trkpt lat="45.10393" lon="5.99231">
        <ele>1682.1999511719</ele>
        <time>2024-10-15T07:39:27.000Z</time>
      </trkpt>
      <trkpt lat="45.10393" lon="5.99231">
        <ele>1682.1999511719</ele>
        <time>2024-10-15T07:39:28.000Z</time>
      </trkpt>
      <trkpt lat="45.10393" lon="5.99231">
        <ele>1682.1999511719</ele>
        <time>2024-10-15T07:39:29.000Z</time>
      </trkpt>
      <trkpt lat="45.10393" lon="5.99231">
        <ele>1682</ele>
        <time>2024-10-15T07:39:30.000Z</time>
      </trkpt>
      <trkpt lat="45.10393" lon="5.99231">
        <ele>1682</ele>
        <time>2024-10-15T07:39:31.000Z</time>
      </trkpt>
      <trkpt lat="45.10393" lon="5.99231">
        <ele>1682</ele>
        <time>2024-10-15T07:39:32.000Z</time>
      </trkpt>
      <trkpt lat="45.10393" lon="5.99231">
        <ele>1682</ele>
        <time>2024-10-15T07:39:33.000Z</time>
      </trkpt>
      <trkpt lat="45.10393" lon="5.99231">
        <ele>1682</ele>
        <time>2024-10-15T07:39:34.000Z</time>
      </trkpt>
      <trkpt lat="45.10393" lon="5.99231">
        <ele>1682</ele>
        <time>2024-10-15T07:39:35.000Z</time>
      </trkpt>
      <trkpt lat="45.10393" lon="5.99231">
        <ele>1682</ele>
        <time>2024-10-15T07:39:36.000Z</time>
      </trkpt>
      <trkpt lat="45.10393" lon="5.99231">
        <ele>1681.8000488281</ele>
        <time>2024-10-15T07:39:37.000Z</time>
      </trkpt>
      <trkpt lat="45.10393" lon="5.99231">
        <ele>1681.8000488281</ele>
        <time>2024-10-15T07:39:38.000Z</time>
      </trkpt>
      <trkpt lat="45.10393" lon="5.99231">
        <ele>1681.8000488281</ele>
        <time>2024-10-15T07:39:39.000Z</time>
      </trkpt>
      <trkpt lat="45.10393" lon="5.99231">
        <ele>1681.8000488281</ele>
        <time>2024-10-15T07:39:40.000Z</time>
      </trkpt>
      <trkpt lat="45.10393" lon="5.99231">
        <ele>1681.8000488281</ele>
        <time>2024-10-15T07:39:41.000Z</time>
      </trkpt>
      <trkpt lat="45.10393" lon="5.99231">
        <ele>1681.8000488281</ele>
        <time>2024-10-15T07:39:42.000Z</time>
      </trkpt>
      <trkpt lat="45.10393" lon="5.99231">
        <ele>1681.8000488281</ele>
        <time>2024-10-15T07:39:43.000Z</time>
      </trkpt>
      <trkpt lat="45.10393" lon="5.99231">
        <ele>1681.8000488281</ele>
        <time>2024-10-15T07:39:44.000Z</time>
      </trkpt>
      <trkpt lat="45.10393" lon="5.99231">
        <ele>1681.5999755859</ele>
        <time>2024-10-15T07:39:45.000Z</time>
      </trkpt>
      <trkpt lat="45.10393" lon="5.99231">
        <ele>1681.5999755859</ele>
        <time>2024-10-15T07:39:46.000Z</time>
      </trkpt>
      <trkpt lat="45.10393" lon="5.99231">
        <ele>1681.5999755859</ele>
        <time>2024-10-15T07:39:47.000Z</time>
      </trkpt>
      <trkpt lat="45.10393" lon="5.99231">
        <ele>1681.5999755859</ele>
        <time>2024-10-15T07:39:48.000Z</time>
      </trkpt>
      <trkpt lat="45.10393" lon="5.99231">
        <ele>1681.5999755859</ele>
        <time>2024-10-15T07:39:49.000Z</time>
      </trkpt>
      <trkpt lat="45.10393" lon="5.99231">
        <ele>1681.5999755859</ele>
        <time>2024-10-15T07:39:50.000Z</time>
      </trkpt>
      <trkpt lat="45.10393" lon="5.99231">
        <ele>1681.5999755859</ele>
        <time>2024-10-15T07:39:51.000Z</time>
      </trkpt>
      <trkpt lat="45.10393" lon="5.99231">
        <ele>1681.5999755859</ele>
        <time>2024-10-15T07:39:52.000Z</time>
      </trkpt>
      <trkpt lat="45.10393" lon="5.99231">
        <ele>1681.4000244141</ele>
        <time>2024-10-15T07:39:53.000Z</time>
      </trkpt>
      <trkpt lat="45.10393" lon="5.99231">
        <ele>1681.4000244141</ele>
        <time>2024-10-15T07:39:54.000Z</time>
      </trkpt>
      <trkpt lat="45.10393" lon="5.99231">
        <ele>1681.4000244141</ele>
        <time>2024-10-15T07:39:55.000Z</time>
      </trkpt>
      <trkpt lat="45.10393" lon="5.99231">
        <ele>1681.4000244141</ele>
        <time>2024-10-15T07:39:56.000Z</time>
      </trkpt>
      <trkpt lat="45.10393" lon="5.99231">
        <ele>1681.4000244141</ele>
        <time>2024-10-15T07:39:57.000Z</time>
      </trkpt>
      <trkpt lat="45.10393" lon="5.99231">
        <ele>1681.1999511719</ele>
        <time>2024-10-15T07:39:58.000Z</time>
      </trkpt>
      <trkpt lat="45.10393" lon="5.99231">
        <ele>1681.1999511719</ele>
        <time>2024-10-15T07:39:59.000Z</time>
      </trkpt>
      <trkpt lat="45.10393" lon="5.99231">
        <ele>1681.1999511719</ele>
        <time>2024-10-15T07:40:00.000Z</time>
      </trkpt>
      <trkpt lat="45.10393" lon="5.99231">
        <ele>1681.1999511719</ele>
        <time>2024-10-15T07:40:01.000Z</time>
      </trkpt>
      <trkpt lat="45.10393" lon="5.99231">
        <ele>1681.1999511719</ele>
        <time>2024-10-15T07:40:02.000Z</time>
      </trkpt>
      <trkpt lat="45.10393" lon="5.99231">
        <ele>1681.1999511719</ele>
        <time>2024-10-15T07:40:03.000Z</time>
      </trkpt>
      <trkpt lat="45.10393" lon="5.99231">
        <ele>1681.1999511719</ele>
        <time>2024-10-15T07:40:04.000Z</time>
      </trkpt>
      <trkpt lat="45.10393" lon="5.99231">
        <ele>1681.1999511719</ele>
        <time>2024-10-15T07:40:05.000Z</time>
      </trkpt>
      <trkpt lat="45.10393" lon="5.99231">
        <ele>1681.1999511719</ele>
        <time>2024-10-15T07:40:06.000Z</time>
      </trkpt>
      <trkpt lat="45.10393" lon="5.99231">
        <ele>1681.1999511719</ele>
        <time>2024-10-15T07:40:07.000Z</time>
      </trkpt>
      <trkpt lat="45.10393" lon="5.99231">
        <ele>1681.1999511719</ele>
        <time>2024-10-15T07:40:08.000Z</time>
      </trkpt>
      <trkpt lat="45.10393" lon="5.99231">
        <ele>1681.1999511719</ele>
        <time>2024-10-15T07:40:09.000Z</time>
      </trkpt>
      <trkpt lat="45.10393" lon="5.99231">
        <ele>1681.1999511719</ele>
        <time>2024-10-15T07:40:10.000Z</time>
      </trkpt>
      <trkpt lat="45.10393" lon="5.99231">
        <ele>1681.1999511719</ele>
        <time>2024-10-15T07:40:11.000Z</time>
      </trkpt>
      <trkpt lat="45.10393" lon="5.99231">
        <ele>1681.1999511719</ele>
        <time>2024-10-15T07:40:12.000Z</time>
      </trkpt>
      <trkpt lat="45.10393" lon="5.99231">
        <ele>1681.1999511719</ele>
        <time>2024-10-15T07:40:13.000Z</time>
      </trkpt>
      <trkpt lat="45.10393" lon="5.99231">
        <ele>1681.1999511719</ele>
        <time>2024-10-15T07:40:14.000Z</time>
      </trkpt>
      <trkpt lat="45.10393" lon="5.99231">
        <ele>1681.1999511719</ele>
        <time>2024-10-15T07:40:15.000Z</time>
      </trkpt>
      <trkpt lat="45.10393" lon="5.99231">
        <ele>1681.1999511719</ele>
        <time>2024-10-15T07:40:16.000Z</time>
      </trkpt>
      <trkpt lat="45.10393" lon="5.99231">
        <ele>1681.1999511719</ele>
        <time>2024-10-15T07:40:17.000Z</time>
      </trkpt>
      <trkpt lat="45.10393" lon="5.99231">
        <ele>1681.1999511719</ele>
        <time>2024-10-15T07:40:18.000Z</time>
      </trkpt>
      <trkpt lat="45.10393" lon="5.99231">
        <ele>1681</ele>
        <time>2024-10-15T07:40:19.000Z</time>
      </trkpt>
      <trkpt lat="45.10393" lon="5.99231">
        <ele>1680.8000488281</ele>
        <time>2024-10-15T07:40:20.000Z</time>
      </trkpt>
      <trkpt lat="45.10393" lon="5.99231">
        <ele>1680.8000488281</ele>
        <time>2024-10-15T07:40:21.000Z</time>
      </trkpt>
      <trkpt lat="45.10393" lon="5.99231">
        <ele>1680.8000488281</ele>
        <time>2024-10-15T07:40:22.000Z</time>
      </trkpt>
      <trkpt lat="45.10393" lon="5.99231">
        <ele>1680.8000488281</ele>
        <time>2024-10-15T07:40:23.000Z</time>
      </trkpt>
      <trkpt lat="45.10393" lon="5.99231">
        <ele>1680.8000488281</ele>
        <time>2024-10-15T07:40:24.000Z</time>
      </trkpt>
      <trkpt lat="45.10393" lon="5.99231">
        <ele>1681</ele>
        <time>2024-10-15T07:40:25.000Z</time>
      </trkpt>
      <trkpt lat="45.10393" lon="5.99231">
        <ele>1681</ele>
        <time>2024-10-15T07:40:26.000Z</time>
      </trkpt>
      <trkpt lat="45.10393" lon="5.99231">
        <ele>1681</ele>
        <time>2024-10-15T07:40:27.000Z</time>
      </trkpt>
      <trkpt lat="45.10393" lon="5.99231">
        <ele>1681</ele>
        <time>2024-10-15T07:40:28.000Z</time>
      </trkpt>
      <trkpt lat="45.10393" lon="5.99231">
        <ele>1681</ele>
        <time>2024-10-15T07:40:29.000Z</time>
      </trkpt>
      <trkpt lat="45.10393" lon="5.99231">
        <ele>1681</ele>
        <time>2024-10-15T07:40:30.000Z</time>
      </trkpt>
      <trkpt lat="45.10393" lon="5.99231">
        <ele>1681</ele>
        <time>2024-10-15T07:40:31.000Z</time>
      </trkpt>
      <trkpt lat="45.10393" lon="5.99231">
        <ele>1681</ele>
        <time>2024-10-15T07:40:32.000Z</time>
      </trkpt>
      <trkpt lat="45.10393" lon="5.99231">
        <ele>1681</ele>
        <time>2024-10-15T07:40:33.000Z</time>
      </trkpt>
      <trkpt lat="45.10393" lon="5.99231">
        <ele>1681</ele>
        <time>2024-10-15T07:40:34.000Z</time>
      </trkpt>
      <trkpt lat="45.10393" lon="5.99231">
        <ele>1681</ele>
        <time>2024-10-15T07:40:35.000Z</time>
      </trkpt>
      <trkpt lat="45.10393" lon="5.99231">
        <ele>1681</ele>
        <time>2024-10-15T07:40:36.000Z</time>
      </trkpt>
      <trkpt lat="45.10393" lon="5.99231">
        <ele>1681</ele>
        <time>2024-10-15T07:40:37.000Z</time>
      </trkpt>
      <trkpt lat="45.10393" lon="5.99231">
        <ele>1681</ele>
        <time>2024-10-15T07:40:38.000Z</time>
      </trkpt>
      <trkpt lat="45.10393" lon="5.99231">
        <ele>1681</ele>
        <time>2024-10-15T07:40:39.000Z</time>
      </trkpt>
      <trkpt lat="45.10393" lon="5.99231">
        <ele>1681</ele>
        <time>2024-10-15T07:40:40.000Z</time>
      </trkpt>
      <trkpt lat="45.10393" lon="5.99231">
        <ele>1681</ele>
        <time>2024-10-15T07:40:41.000Z</time>
      </trkpt>
      <trkpt lat="45.10393" lon="5.99231">
        <ele>1681</ele>
        <time>2024-10-15T07:40:42.000Z</time>
      </trkpt>
      <trkpt lat="45.10393" lon="5.99231">
        <ele>1681</ele>
        <time>2024-10-15T07:40:43.000Z</time>
      </trkpt>
      <trkpt lat="45.10393" lon="5.99231">
        <ele>1681</ele>
        <time>2024-10-15T07:40:44.000Z</time>
      </trkpt>
      <trkpt lat="45.10393" lon="5.99231">
        <ele>1680.8000488281</ele>
        <time>2024-10-15T07:40:45.000Z</time>
      </trkpt>
      <trkpt lat="45.10393" lon="5.99231">
        <ele>1681</ele>
        <time>2024-10-15T07:40:46.000Z</time>
      </trkpt>
      <trkpt lat="45.10393" lon="5.99231">
        <ele>1681</ele>
        <time>2024-10-15T07:40:47.000Z</time>
      </trkpt>
      <trkpt lat="45.10393" lon="5.99231">
        <ele>1680.8000488281</ele>
        <time>2024-10-15T07:40:48.000Z</time>
      </trkpt>
      <trkpt lat="45.10393" lon="5.99231">
        <ele>1681</ele>
        <time>2024-10-15T07:40:49.000Z</time>
      </trkpt>
      <trkpt lat="45.10393" lon="5.99231">
        <ele>1681</ele>
        <time>2024-10-15T07:40:50.000Z</time>
      </trkpt>
      <trkpt lat="45.10393" lon="5.99231">
        <ele>1681.1999511719</ele>
        <time>2024-10-15T07:40:51.000Z</time>
      </trkpt>
      <trkpt lat="45.10393" lon="5.99231">
        <ele>1681.1999511719</ele>
        <time>2024-10-15T07:40:52.000Z</time>
      </trkpt>
      <trkpt lat="45.10393" lon="5.99231">
        <ele>1681.1999511719</ele>
        <time>2024-10-15T07:40:53.000Z</time>
      </trkpt>
      <trkpt lat="45.10393" lon="5.99231">
        <ele>1681.1999511719</ele>
        <time>2024-10-15T07:40:54.000Z</time>
      </trkpt>
      <trkpt lat="45.10393" lon="5.99231">
        <ele>1681.1999511719</ele>
        <time>2024-10-15T07:40:55.000Z</time>
      </trkpt>
      <trkpt lat="45.10393" lon="5.99231">
        <ele>1681.1999511719</ele>
        <time>2024-10-15T07:40:56.000Z</time>
      </trkpt>
      <trkpt lat="45.10393" lon="5.99231">
        <ele>1681.1999511719</ele>
        <time>2024-10-15T07:40:57.000Z</time>
      </trkpt>
      <trkpt lat="45.10393" lon="5.99231">
        <ele>1681.1999511719</ele>
        <time>2024-10-15T07:40:58.000Z</time>
      </trkpt>
      <trkpt lat="45.10393" lon="5.99231">
        <ele>1681.4000244141</ele>
        <time>2024-10-15T07:40:59.000Z</time>
      </trkpt>
      <trkpt lat="45.10393" lon="5.99231">
        <ele>1681.4000244141</ele>
        <time>2024-10-15T07:41:00.000Z</time>
      </trkpt>
      <trkpt lat="45.10393" lon="5.99231">
        <ele>1681.4000244141</ele>
        <time>2024-10-15T07:41:01.000Z</time>
      </trkpt>
      <trkpt lat="45.10393" lon="5.99231">
        <ele>1681.4000244141</ele>
        <time>2024-10-15T07:41:02.000Z</time>
      </trkpt>
      <trkpt lat="45.10393" lon="5.99231">
        <ele>1681.4000244141</ele>
        <time>2024-10-15T07:41:03.000Z</time>
      </trkpt>
      <trkpt lat="45.10393" lon="5.99231">
        <ele>1681.4000244141</ele>
        <time>2024-10-15T07:41:04.000Z</time>
      </trkpt>
      <trkpt lat="45.10394" lon="5.99231">
        <ele>1681.1999511719</ele>
        <time>2024-10-15T07:41:05.000Z</time>
      </trkpt>
      <trkpt lat="45.10394" lon="5.99231">
        <ele>1681.1999511719</ele>
        <time>2024-10-15T07:41:06.000Z</time>
      </trkpt>
      <trkpt lat="45.10394" lon="5.99231">
        <ele>1681.1999511719</ele>
        <time>2024-10-15T07:41:07.000Z</time>
      </trkpt>
      <trkpt lat="45.10394" lon="5.99231">
        <ele>1681.1999511719</ele>
        <time>2024-10-15T07:41:08.000Z</time>
      </trkpt>
      <trkpt lat="45.10394" lon="5.99231">
        <ele>1681.1999511719</ele>
        <time>2024-10-15T07:41:09.000Z</time>
      </trkpt>
      <trkpt lat="45.10394" lon="5.99231">
        <ele>1681.4000244141</ele>
        <time>2024-10-15T07:41:10.000Z</time>
      </trkpt>
      <trkpt lat="45.10394" lon="5.99231">
        <ele>1681.4000244141</ele>
        <time>2024-10-15T07:41:11.000Z</time>
      </trkpt>
      <trkpt lat="45.10394" lon="5.99231">
        <ele>1681.4000244141</ele>
        <time>2024-10-15T07:41:12.000Z</time>
      </trkpt>
      <trkpt lat="45.10394" lon="5.99231">
        <ele>1681.5999755859</ele>
        <time>2024-10-15T07:41:13.000Z</time>
      </trkpt>
      <trkpt lat="45.10394" lon="5.99231">
        <ele>1681.5999755859</ele>
        <time>2024-10-15T07:41:14.000Z</time>
      </trkpt>
      <trkpt lat="45.10394" lon="5.99231">
        <ele>1681.5999755859</ele>
        <time>2024-10-15T07:41:15.000Z</time>
      </trkpt>
      <trkpt lat="45.10394" lon="5.99231">
        <ele>1681.5999755859</ele>
        <time>2024-10-15T07:41:16.000Z</time>
      </trkpt>
      <trkpt lat="45.10394" lon="5.99231">
        <ele>1681.5999755859</ele>
        <time>2024-10-15T07:41:17.000Z</time>
      </trkpt>
      <trkpt lat="45.10394" lon="5.99231">
        <ele>1681.5999755859</ele>
        <time>2024-10-15T07:41:18.000Z</time>
      </trkpt>
      <trkpt lat="45.10394" lon="5.99231">
        <ele>1681.5999755859</ele>
        <time>2024-10-15T07:41:19.000Z</time>
      </trkpt>
      <trkpt lat="45.10394" lon="5.99231">
        <ele>1681.5999755859</ele>
        <time>2024-10-15T07:41:20.000Z</time>
      </trkpt>
      <trkpt lat="45.10394" lon="5.99231">
        <ele>1681.5999755859</ele>
        <time>2024-10-15T07:41:21.000Z</time>
      </trkpt>
      <trkpt lat="45.10394" lon="5.99231">
        <ele>1681.5999755859</ele>
        <time>2024-10-15T07:41:22.000Z</time>
      </trkpt>
      <trkpt lat="45.10394" lon="5.99231">
        <ele>1681.4000244141</ele>
        <time>2024-10-15T07:41:23.000Z</time>
      </trkpt>
      <trkpt lat="45.10394" lon="5.99231">
        <ele>1681.4000244141</ele>
        <time>2024-10-15T07:41:24.000Z</time>
      </trkpt>
      <trkpt lat="45.10394" lon="5.99231">
        <ele>1681.4000244141</ele>
        <time>2024-10-15T07:41:25.000Z</time>
      </trkpt>
      <trkpt lat="45.10394" lon="5.99231">
        <ele>1681.4000244141</ele>
        <time>2024-10-15T07:41:26.000Z</time>
      </trkpt>
      <trkpt lat="45.10394" lon="5.99231">
        <ele>1681.1999511719</ele>
        <time>2024-10-15T07:41:27.000Z</time>
      </trkpt>
      <trkpt lat="45.10394" lon="5.99231">
        <ele>1681</ele>
        <time>2024-10-15T07:41:28.000Z</time>
      </trkpt>
      <trkpt lat="45.10394" lon="5.99231">
        <ele>1681</ele>
        <time>2024-10-15T07:41:29.000Z</time>
      </trkpt>
      <trkpt lat="45.10394" lon="5.99231">
        <ele>1681</ele>
        <time>2024-10-15T07:41:30.000Z</time>
      </trkpt>
      <trkpt lat="45.10394" lon="5.99231">
        <ele>1681</ele>
        <time>2024-10-15T07:41:31.000Z</time>
      </trkpt>
      <trkpt lat="45.10394" lon="5.99231">
        <ele>1681</ele>
        <time>2024-10-15T07:41:32.000Z</time>
      </trkpt>
      <trkpt lat="45.10394" lon="5.99231">
        <ele>1681</ele>
        <time>2024-10-15T07:41:33.000Z</time>
      </trkpt>
      <trkpt lat="45.10394" lon="5.99231">
        <ele>1681.1999511719</ele>
        <time>2024-10-15T07:41:34.000Z</time>
      </trkpt>
      <trkpt lat="45.10394" lon="5.99231">
        <ele>1681.1999511719</ele>
        <time>2024-10-15T07:41:35.000Z</time>
      </trkpt>
      <trkpt lat="45.10394" lon="5.9923">
        <ele>1681.1999511719</ele>
        <time>2024-10-15T07:41:36.000Z</time>
      </trkpt>
      <trkpt lat="45.10394" lon="5.9923">
        <ele>1681.1999511719</ele>
        <time>2024-10-15T07:41:37.000Z</time>
      </trkpt>
      <trkpt lat="45.10394" lon="5.9923">
        <ele>1681.1999511719</ele>
        <time>2024-10-15T07:41:38.000Z</time>
      </trkpt>
      <trkpt lat="45.10394" lon="5.9923">
        <ele>1681.1999511719</ele>
        <time>2024-10-15T07:41:39.000Z</time>
      </trkpt>
      <trkpt lat="45.10394" lon="5.9923">
        <ele>1681.1999511719</ele>
        <time>2024-10-15T07:41:40.000Z</time>
      </trkpt>
      <trkpt lat="45.10394" lon="5.9923">
        <ele>1681.1999511719</ele>
        <time>2024-10-15T07:41:41.000Z</time>
      </trkpt>
      <trkpt lat="45.10394" lon="5.9923">
        <ele>1681.4000244141</ele>
        <time>2024-10-15T07:41:42.000Z</time>
      </trkpt>
      <trkpt lat="45.10394" lon="5.9923">
        <ele>1681.4000244141</ele>
        <time>2024-10-15T07:41:43.000Z</time>
      </trkpt>
      <trkpt lat="45.10394" lon="5.9923">
        <ele>1681.4000244141</ele>
        <time>2024-10-15T07:41:44.000Z</time>
      </trkpt>
      <trkpt lat="45.10394" lon="5.9923">
        <ele>1681.4000244141</ele>
        <time>2024-10-15T07:41:45.000Z</time>
      </trkpt>
      <trkpt lat="45.10394" lon="5.9923">
        <ele>1681.4000244141</ele>
        <time>2024-10-15T07:41:46.000Z</time>
      </trkpt>
      <trkpt lat="45.10394" lon="5.9923">
        <ele>1681.4000244141</ele>
        <time>2024-10-15T07:41:47.000Z</time>
      </trkpt>
      <trkpt lat="45.10394" lon="5.9923">
        <ele>1681.4000244141</ele>
        <time>2024-10-15T07:41:48.000Z</time>
      </trkpt>
      <trkpt lat="45.10394" lon="5.9923">
        <ele>1681.4000244141</ele>
        <time>2024-10-15T07:41:49.000Z</time>
      </trkpt>
      <trkpt lat="45.10394" lon="5.9923">
        <ele>1681.4000244141</ele>
        <time>2024-10-15T07:41:50.000Z</time>
      </trkpt>
      <trkpt lat="45.10394" lon="5.9923">
        <ele>1681.4000244141</ele>
        <time>2024-10-15T07:41:51.000Z</time>
      </trkpt>
      <trkpt lat="45.10394" lon="5.9923">
        <ele>1681.4000244141</ele>
        <time>2024-10-15T07:41:52.000Z</time>
      </trkpt>
      <trkpt lat="45.10394" lon="5.9923">
        <ele>1681.4000244141</ele>
        <time>2024-10-15T07:41:53.000Z</time>
      </trkpt>
      <trkpt lat="45.10394" lon="5.9923">
        <ele>1681.4000244141</ele>
        <time>2024-10-15T07:41:54.000Z</time>
      </trkpt>
      <trkpt lat="45.10394" lon="5.9923">
        <ele>1681.4000244141</ele>
        <time>2024-10-15T07:41:55.000Z</time>
      </trkpt>
      <trkpt lat="45.10394" lon="5.9923">
        <ele>1681.4000244141</ele>
        <time>2024-10-15T07:41:56.000Z</time>
      </trkpt>
      <trkpt lat="45.10394" lon="5.9923">
        <ele>1681.1999511719</ele>
        <time>2024-10-15T07:41:57.000Z</time>
      </trkpt>
      <trkpt lat="45.10394" lon="5.9923">
        <ele>1681.1999511719</ele>
        <time>2024-10-15T07:41:58.000Z</time>
      </trkpt>
      <trkpt lat="45.10394" lon="5.9923">
        <ele>1681.1999511719</ele>
        <time>2024-10-15T07:41:59.000Z</time>
      </trkpt>
      <trkpt lat="45.10394" lon="5.9923">
        <ele>1681.1999511719</ele>
        <time>2024-10-15T07:42:00.000Z</time>
      </trkpt>
      <trkpt lat="45.10394" lon="5.9923">
        <ele>1681.1999511719</ele>
        <time>2024-10-15T07:42:01.000Z</time>
      </trkpt>
      <trkpt lat="45.10394" lon="5.9923">
        <ele>1681.1999511719</ele>
        <time>2024-10-15T07:42:02.000Z</time>
      </trkpt>
      <trkpt lat="45.10394" lon="5.9923">
        <ele>1681.1999511719</ele>
        <time>2024-10-15T07:42:03.000Z</time>
      </trkpt>
      <trkpt lat="45.10394" lon="5.9923">
        <ele>1681.1999511719</ele>
        <time>2024-10-15T07:42:04.000Z</time>
      </trkpt>
      <trkpt lat="45.10394" lon="5.9923">
        <ele>1681.4000244141</ele>
        <time>2024-10-15T07:42:05.000Z</time>
      </trkpt>
      <trkpt lat="45.10394" lon="5.9923">
        <ele>1681.4000244141</ele>
        <time>2024-10-15T07:42:06.000Z</time>
      </trkpt>
      <trkpt lat="45.10394" lon="5.99229">
        <ele>1681.4000244141</ele>
        <time>2024-10-15T07:42:07.000Z</time>
      </trkpt>
      <trkpt lat="45.10395" lon="5.99227">
        <ele>1681.4000244141</ele>
        <time>2024-10-15T07:42:08.000Z</time>
      </trkpt>
      <trkpt lat="45.10395" lon="5.99225">
        <ele>1681.4000244141</ele>
        <time>2024-10-15T07:42:09.000Z</time>
      </trkpt>
      <trkpt lat="45.10396" lon="5.99223">
        <ele>1681.5999755859</ele>
        <time>2024-10-15T07:42:10.000Z</time>
      </trkpt>
      <trkpt lat="45.10397" lon="5.9922">
        <ele>1681.5999755859</ele>
        <time>2024-10-15T07:42:11.000Z</time>
      </trkpt>
      <trkpt lat="45.10398" lon="5.99218">
        <ele>1681.5999755859</ele>
        <time>2024-10-15T07:42:12.000Z</time>
      </trkpt>
      <trkpt lat="45.10398" lon="5.99215">
        <ele>1681.8000488281</ele>
        <time>2024-10-15T07:42:13.000Z</time>
      </trkpt>
      <trkpt lat="45.10399" lon="5.99213">
        <ele>1681.8000488281</ele>
        <time>2024-10-15T07:42:14.000Z</time>
      </trkpt>
      <trkpt lat="45.104" lon="5.99211">
        <ele>1682</ele>
        <time>2024-10-15T07:42:15.000Z</time>
      </trkpt>
      <trkpt lat="45.10401" lon="5.99209">
        <ele>1682</ele>
        <time>2024-10-15T07:42:16.000Z</time>
      </trkpt>
      <trkpt lat="45.10402" lon="5.99207">
        <ele>1682.1999511719</ele>
        <time>2024-10-15T07:42:17.000Z</time>
      </trkpt>
      <trkpt lat="45.10402" lon="5.99206">
        <ele>1682.1999511719</ele>
        <time>2024-10-15T07:42:18.000Z</time>
      </trkpt>
      <trkpt lat="45.10403" lon="5.99205">
        <ele>1682.4000244141</ele>
        <time>2024-10-15T07:42:19.000Z</time>
      </trkpt>
      <trkpt lat="45.10403" lon="5.99204">
        <ele>1682.4000244141</ele>
        <time>2024-10-15T07:42:20.000Z</time>
      </trkpt>
      <trkpt lat="45.10404" lon="5.99204">
        <ele>1682.5999755859</ele>
        <time>2024-10-15T07:42:21.000Z</time>
      </trkpt>
      <trkpt lat="45.10404" lon="5.99203">
        <ele>1683</ele>
        <time>2024-10-15T07:42:22.000Z</time>
      </trkpt>
      <trkpt lat="45.10405" lon="5.99203">
        <ele>1683.1999511719</ele>
        <time>2024-10-15T07:42:23.000Z</time>
      </trkpt>
      <trkpt lat="45.10405" lon="5.99202">
        <ele>1683.1999511719</ele>
        <time>2024-10-15T07:42:24.000Z</time>
      </trkpt>
      <trkpt lat="45.10405" lon="5.99202">
        <ele>1683.4000244141</ele>
        <time>2024-10-15T07:42:25.000Z</time>
      </trkpt>
      <trkpt lat="45.10406" lon="5.99201">
        <ele>1683.5999755859</ele>
        <time>2024-10-15T07:42:26.000Z</time>
      </trkpt>
      <trkpt lat="45.10406" lon="5.99201">
        <ele>1683.8000488281</ele>
        <time>2024-10-15T07:42:27.000Z</time>
      </trkpt>
      <trkpt lat="45.10406" lon="5.992">
        <ele>1683.8000488281</ele>
        <time>2024-10-15T07:42:28.000Z</time>
      </trkpt>
      <trkpt lat="45.10406" lon="5.99199">
        <ele>1684</ele>
        <time>2024-10-15T07:42:29.000Z</time>
      </trkpt>
      <trkpt lat="45.10407" lon="5.99198">
        <ele>1684.4000244141</ele>
        <time>2024-10-15T07:42:30.000Z</time>
      </trkpt>
      <trkpt lat="45.10407" lon="5.99198">
        <ele>1684.4000244141</ele>
        <time>2024-10-15T07:42:31.000Z</time>
      </trkpt>
      <trkpt lat="45.10407" lon="5.99197">
        <ele>1684.8000488281</ele>
        <time>2024-10-15T07:42:32.000Z</time>
      </trkpt>
      <trkpt lat="45.10407" lon="5.99196">
        <ele>1685</ele>
        <time>2024-10-15T07:42:33.000Z</time>
      </trkpt>
      <trkpt lat="45.10407" lon="5.99195">
        <ele>1685.1999511719</ele>
        <time>2024-10-15T07:42:34.000Z</time>
      </trkpt>
      <trkpt lat="45.10407" lon="5.99195">
        <ele>1685.1999511719</ele>
        <time>2024-10-15T07:42:35.000Z</time>
      </trkpt>
      <trkpt lat="45.10407" lon="5.99195">
        <ele>1685.4000244141</ele>
        <time>2024-10-15T07:42:36.000Z</time>
      </trkpt>
      <trkpt lat="45.10407" lon="5.99195">
        <ele>1685.5999755859</ele>
        <time>2024-10-15T07:42:37.000Z</time>
      </trkpt>
      <trkpt lat="45.10407" lon="5.99194">
        <ele>1685.5999755859</ele>
        <time>2024-10-15T07:42:38.000Z</time>
      </trkpt>
      <trkpt lat="45.10407" lon="5.99194">
        <ele>1685.5999755859</ele>
        <time>2024-10-15T07:42:39.000Z</time>
      </trkpt>
      <trkpt lat="45.10407" lon="5.99193">
        <ele>1685.5999755859</ele>
        <time>2024-10-15T07:42:40.000Z</time>
      </trkpt>
      <trkpt lat="45.10408" lon="5.99193">
        <ele>1685.5999755859</ele>
        <time>2024-10-15T07:42:41.000Z</time>
      </trkpt>
      <trkpt lat="45.10408" lon="5.99192">
        <ele>1686</ele>
        <time>2024-10-15T07:42:42.000Z</time>
      </trkpt>
      <trkpt lat="45.10409" lon="5.99192">
        <ele>1686.1999511719</ele>
        <time>2024-10-15T07:42:43.000Z</time>
      </trkpt>
      <trkpt lat="45.10409" lon="5.99191">
        <ele>1686.1999511719</ele>
        <time>2024-10-15T07:42:44.000Z</time>
      </trkpt>
      <trkpt lat="45.1041" lon="5.9919">
        <ele>1686.1999511719</ele>
        <time>2024-10-15T07:42:45.000Z</time>
      </trkpt>
      <trkpt lat="45.1041" lon="5.99189">
        <ele>1686.4000244141</ele>
        <time>2024-10-15T07:42:46.000Z</time>
      </trkpt>
      <trkpt lat="45.10411" lon="5.99188">
        <ele>1686.8000488281</ele>
        <time>2024-10-15T07:42:47.000Z</time>
      </trkpt>
      <trkpt lat="45.10411" lon="5.99187">
        <ele>1686.8000488281</ele>
        <time>2024-10-15T07:42:48.000Z</time>
      </trkpt>
      <trkpt lat="45.10411" lon="5.99187">
        <ele>1687</ele>
        <time>2024-10-15T07:42:49.000Z</time>
      </trkpt>
      <trkpt lat="45.10411" lon="5.99186">
        <ele>1687.1999511719</ele>
        <time>2024-10-15T07:42:50.000Z</time>
      </trkpt>
      <trkpt lat="45.10412" lon="5.99186">
        <ele>1687.4000244141</ele>
        <time>2024-10-15T07:42:51.000Z</time>
      </trkpt>
      <trkpt lat="45.10412" lon="5.99185">
        <ele>1687.5999755859</ele>
        <time>2024-10-15T07:42:52.000Z</time>
      </trkpt>
      <trkpt lat="45.10413" lon="5.99185">
        <ele>1687.5999755859</ele>
        <time>2024-10-15T07:42:53.000Z</time>
      </trkpt>
      <trkpt lat="45.10413" lon="5.99184">
        <ele>1687.8000488281</ele>
        <time>2024-10-15T07:42:54.000Z</time>
      </trkpt>
      <trkpt lat="45.10414" lon="5.99184">
        <ele>1688</ele>
        <time>2024-10-15T07:42:55.000Z</time>
      </trkpt>
      <trkpt lat="45.10414" lon="5.99184">
        <ele>1688.1999511719</ele>
        <time>2024-10-15T07:42:56.000Z</time>
      </trkpt>
      <trkpt lat="45.10415" lon="5.99183">
        <ele>1688.4000244141</ele>
        <time>2024-10-15T07:42:57.000Z</time>
      </trkpt>
      <trkpt lat="45.10416" lon="5.99182">
        <ele>1688.5999755859</ele>
        <time>2024-10-15T07:42:58.000Z</time>
      </trkpt>
      <trkpt lat="45.10416" lon="5.99182">
        <ele>1688.5999755859</ele>
        <time>2024-10-15T07:42:59.000Z</time>
      </trkpt>
      <trkpt lat="45.10417" lon="5.99181">
        <ele>1688.8000488281</ele>
        <time>2024-10-15T07:43:00.000Z</time>
      </trkpt>
      <trkpt lat="45.10417" lon="5.9918">
        <ele>1689</ele>
        <time>2024-10-15T07:43:01.000Z</time>
      </trkpt>
      <trkpt lat="45.10418" lon="5.99179">
        <ele>1689</ele>
        <time>2024-10-15T07:43:02.000Z</time>
      </trkpt>
      <trkpt lat="45.10418" lon="5.99179">
        <ele>1689</ele>
        <time>2024-10-15T07:43:03.000Z</time>
      </trkpt>
      <trkpt lat="45.10418" lon="5.99178">
        <ele>1689</ele>
        <time>2024-10-15T07:43:04.000Z</time>
      </trkpt>
      <trkpt lat="45.10418" lon="5.99178">
        <ele>1689.1999511719</ele>
        <time>2024-10-15T07:43:05.000Z</time>
      </trkpt>
      <trkpt lat="45.10419" lon="5.99178">
        <ele>1689.1999511719</ele>
        <time>2024-10-15T07:43:06.000Z</time>
      </trkpt>
      <trkpt lat="45.1042" lon="5.99177">
        <ele>1689.4000244141</ele>
        <time>2024-10-15T07:43:07.000Z</time>
      </trkpt>
      <trkpt lat="45.1042" lon="5.99176">
        <ele>1689.4000244141</ele>
        <time>2024-10-15T07:43:08.000Z</time>
      </trkpt>
      <trkpt lat="45.10421" lon="5.99175">
        <ele>1689.5999755859</ele>
        <time>2024-10-15T07:43:09.000Z</time>
      </trkpt>
      <trkpt lat="45.10421" lon="5.99174">
        <ele>1689.5999755859</ele>
        <time>2024-10-15T07:43:10.000Z</time>
      </trkpt>
      <trkpt lat="45.10421" lon="5.99174">
        <ele>1689.8000488281</ele>
        <time>2024-10-15T07:43:11.000Z</time>
      </trkpt>
      <trkpt lat="45.10421" lon="5.99173">
        <ele>1689.8000488281</ele>
        <time>2024-10-15T07:43:12.000Z</time>
      </trkpt>
      <trkpt lat="45.10421" lon="5.99172">
        <ele>1690</ele>
        <time>2024-10-15T07:43:13.000Z</time>
      </trkpt>
      <trkpt lat="45.10421" lon="5.99172">
        <ele>1690</ele>
        <time>2024-10-15T07:43:14.000Z</time>
      </trkpt>
      <trkpt lat="45.10421" lon="5.99171">
        <ele>1690.1999511719</ele>
        <time>2024-10-15T07:43:15.000Z</time>
      </trkpt>
      <trkpt lat="45.10421" lon="5.9917">
        <ele>1690.4000244141</ele>
        <time>2024-10-15T07:43:16.000Z</time>
      </trkpt>
      <trkpt lat="45.10421" lon="5.9917">
        <ele>1690.5999755859</ele>
        <time>2024-10-15T07:43:17.000Z</time>
      </trkpt>
      <trkpt lat="45.10421" lon="5.9917">
        <ele>1690.8000488281</ele>
        <time>2024-10-15T07:43:18.000Z</time>
      </trkpt>
      <trkpt lat="45.10421" lon="5.99169">
        <ele>1691.1999511719</ele>
        <time>2024-10-15T07:43:19.000Z</time>
      </trkpt>
      <trkpt lat="45.10421" lon="5.99168">
        <ele>1691.1999511719</ele>
        <time>2024-10-15T07:43:20.000Z</time>
      </trkpt>
      <trkpt lat="45.10421" lon="5.99167">
        <ele>1691.5999755859</ele>
        <time>2024-10-15T07:43:21.000Z</time>
      </trkpt>
      <trkpt lat="45.10421" lon="5.99166">
        <ele>1691.5999755859</ele>
        <time>2024-10-15T07:43:22.000Z</time>
      </trkpt>
      <trkpt lat="45.10422" lon="5.99165">
        <ele>1691.8000488281</ele>
        <time>2024-10-15T07:43:23.000Z</time>
      </trkpt>
      <trkpt lat="45.10422" lon="5.99164">
        <ele>1692</ele>
        <time>2024-10-15T07:43:24.000Z</time>
      </trkpt>
      <trkpt lat="45.10422" lon="5.99162">
        <ele>1692.1999511719</ele>
        <time>2024-10-15T07:43:25.000Z</time>
      </trkpt>
      <trkpt lat="45.10422" lon="5.99161">
        <ele>1692.1999511719</ele>
        <time>2024-10-15T07:43:26.000Z</time>
      </trkpt>
      <trkpt lat="45.10423" lon="5.9916">
        <ele>1692.1999511719</ele>
        <time>2024-10-15T07:43:27.000Z</time>
      </trkpt>
      <trkpt lat="45.10423" lon="5.9916">
        <ele>1692.4000244141</ele>
        <time>2024-10-15T07:43:28.000Z</time>
      </trkpt>
      <trkpt lat="45.10424" lon="5.99159">
        <ele>1692.5999755859</ele>
        <time>2024-10-15T07:43:29.000Z</time>
      </trkpt>
      <trkpt lat="45.10424" lon="5.99158">
        <ele>1692.5999755859</ele>
        <time>2024-10-15T07:43:30.000Z</time>
      </trkpt>
      <trkpt lat="45.10425" lon="5.99157">
        <ele>1692.8000488281</ele>
        <time>2024-10-15T07:43:31.000Z</time>
      </trkpt>
      <trkpt lat="45.10425" lon="5.99157">
        <ele>1692.8000488281</ele>
        <time>2024-10-15T07:43:32.000Z</time>
      </trkpt>
      <trkpt lat="45.10426" lon="5.99156">
        <ele>1693</ele>
        <time>2024-10-15T07:43:33.000Z</time>
      </trkpt>
      <trkpt lat="45.10427" lon="5.99155">
        <ele>1693.1999511719</ele>
        <time>2024-10-15T07:43:34.000Z</time>
      </trkpt>
      <trkpt lat="45.10427" lon="5.99154">
        <ele>1693.4000244141</ele>
        <time>2024-10-15T07:43:35.000Z</time>
      </trkpt>
      <trkpt lat="45.10427" lon="5.99153">
        <ele>1693.5999755859</ele>
        <time>2024-10-15T07:43:36.000Z</time>
      </trkpt>
      <trkpt lat="45.10428" lon="5.99153">
        <ele>1693.8000488281</ele>
        <time>2024-10-15T07:43:37.000Z</time>
      </trkpt>
      <trkpt lat="45.10428" lon="5.99152">
        <ele>1694</ele>
        <time>2024-10-15T07:43:38.000Z</time>
      </trkpt>
      <trkpt lat="45.10428" lon="5.99151">
        <ele>1694.1999511719</ele>
        <time>2024-10-15T07:43:39.000Z</time>
      </trkpt>
      <trkpt lat="45.10428" lon="5.99149">
        <ele>1694.4000244141</ele>
        <time>2024-10-15T07:43:40.000Z</time>
      </trkpt>
      <trkpt lat="45.10429" lon="5.99149">
        <ele>1694.5999755859</ele>
        <time>2024-10-15T07:43:41.000Z</time>
      </trkpt>
      <trkpt lat="45.10429" lon="5.99149">
        <ele>1694.5999755859</ele>
        <time>2024-10-15T07:43:42.000Z</time>
      </trkpt>
      <trkpt lat="45.10429" lon="5.99148">
        <ele>1694.8000488281</ele>
        <time>2024-10-15T07:43:43.000Z</time>
      </trkpt>
      <trkpt lat="45.1043" lon="5.99147">
        <ele>1695</ele>
        <time>2024-10-15T07:43:44.000Z</time>
      </trkpt>
      <trkpt lat="45.1043" lon="5.99146">
        <ele>1695</ele>
        <time>2024-10-15T07:43:45.000Z</time>
      </trkpt>
      <trkpt lat="45.1043" lon="5.99146">
        <ele>1695.1999511719</ele>
        <time>2024-10-15T07:43:46.000Z</time>
      </trkpt>
      <trkpt lat="45.1043" lon="5.99145">
        <ele>1695.4000244141</ele>
        <time>2024-10-15T07:43:47.000Z</time>
      </trkpt>
      <trkpt lat="45.1043" lon="5.99144">
        <ele>1695.5999755859</ele>
        <time>2024-10-15T07:43:48.000Z</time>
      </trkpt>
      <trkpt lat="45.1043" lon="5.99144">
        <ele>1695.8000488281</ele>
        <time>2024-10-15T07:43:49.000Z</time>
      </trkpt>
      <trkpt lat="45.1043" lon="5.99143">
        <ele>1696</ele>
        <time>2024-10-15T07:43:50.000Z</time>
      </trkpt>
      <trkpt lat="45.1043" lon="5.99142">
        <ele>1696</ele>
        <time>2024-10-15T07:43:51.000Z</time>
      </trkpt>
      <trkpt lat="45.10431" lon="5.99142">
        <ele>1696.1999511719</ele>
        <time>2024-10-15T07:43:52.000Z</time>
      </trkpt>
      <trkpt lat="45.10431" lon="5.99141">
        <ele>1696.5999755859</ele>
        <time>2024-10-15T07:43:53.000Z</time>
      </trkpt>
      <trkpt lat="45.10431" lon="5.9914">
        <ele>1696.8000488281</ele>
        <time>2024-10-15T07:43:54.000Z</time>
      </trkpt>
      <trkpt lat="45.10431" lon="5.9914">
        <ele>1697</ele>
        <time>2024-10-15T07:43:55.000Z</time>
      </trkpt>
      <trkpt lat="45.10431" lon="5.9914">
        <ele>1697.1999511719</ele>
        <time>2024-10-15T07:43:56.000Z</time>
      </trkpt>
      <trkpt lat="45.10431" lon="5.99139">
        <ele>1697.1999511719</ele>
        <time>2024-10-15T07:43:57.000Z</time>
      </trkpt>
      <trkpt lat="45.10432" lon="5.99139">
        <ele>1697.4000244141</ele>
        <time>2024-10-15T07:43:58.000Z</time>
      </trkpt>
      <trkpt lat="45.10432" lon="5.99139">
        <ele>1697.4000244141</ele>
        <time>2024-10-15T07:43:59.000Z</time>
      </trkpt>
      <trkpt lat="45.10433" lon="5.99138">
        <ele>1697.5999755859</ele>
        <time>2024-10-15T07:44:00.000Z</time>
      </trkpt>
      <trkpt lat="45.10433" lon="5.99137">
        <ele>1697.8000488281</ele>
        <time>2024-10-15T07:44:01.000Z</time>
      </trkpt>
      <trkpt lat="45.10433" lon="5.99136">
        <ele>1697.8000488281</ele>
        <time>2024-10-15T07:44:02.000Z</time>
      </trkpt>
      <trkpt lat="45.10433" lon="5.99135">
        <ele>1698.1999511719</ele>
        <time>2024-10-15T07:44:03.000Z</time>
      </trkpt>
      <trkpt lat="45.10433" lon="5.99135">
        <ele>1698.4000244141</ele>
        <time>2024-10-15T07:44:04.000Z</time>
      </trkpt>
      <trkpt lat="45.10433" lon="5.99134">
        <ele>1698.5999755859</ele>
        <time>2024-10-15T07:44:05.000Z</time>
      </trkpt>
      <trkpt lat="45.10433" lon="5.99134">
        <ele>1698.8000488281</ele>
        <time>2024-10-15T07:44:06.000Z</time>
      </trkpt>
      <trkpt lat="45.10433" lon="5.99134">
        <ele>1699</ele>
        <time>2024-10-15T07:44:07.000Z</time>
      </trkpt>
      <trkpt lat="45.10433" lon="5.99133">
        <ele>1699.1999511719</ele>
        <time>2024-10-15T07:44:08.000Z</time>
      </trkpt>
      <trkpt lat="45.10434" lon="5.99132">
        <ele>1699.5999755859</ele>
        <time>2024-10-15T07:44:09.000Z</time>
      </trkpt>
      <trkpt lat="45.10434" lon="5.99131">
        <ele>1699.8000488281</ele>
        <time>2024-10-15T07:44:10.000Z</time>
      </trkpt>
      <trkpt lat="45.10434" lon="5.9913">
        <ele>1699.8000488281</ele>
        <time>2024-10-15T07:44:11.000Z</time>
      </trkpt>
      <trkpt lat="45.10433" lon="5.9913">
        <ele>1700</ele>
        <time>2024-10-15T07:44:12.000Z</time>
      </trkpt>
      <trkpt lat="45.10433" lon="5.9913">
        <ele>1700.1999511719</ele>
        <time>2024-10-15T07:44:13.000Z</time>
      </trkpt>
      <trkpt lat="45.10433" lon="5.9913">
        <ele>1700.5999755859</ele>
        <time>2024-10-15T07:44:14.000Z</time>
      </trkpt>
      <trkpt lat="45.10433" lon="5.99129">
        <ele>1700.5999755859</ele>
        <time>2024-10-15T07:44:15.000Z</time>
      </trkpt>
      <trkpt lat="45.10433" lon="5.99129">
        <ele>1700.8000488281</ele>
        <time>2024-10-15T07:44:16.000Z</time>
      </trkpt>
      <trkpt lat="45.10432" lon="5.99128">
        <ele>1701</ele>
        <time>2024-10-15T07:44:17.000Z</time>
      </trkpt>
      <trkpt lat="45.10432" lon="5.99128">
        <ele>1701.1999511719</ele>
        <time>2024-10-15T07:44:18.000Z</time>
      </trkpt>
      <trkpt lat="45.10432" lon="5.99128">
        <ele>1701.1999511719</ele>
        <time>2024-10-15T07:44:19.000Z</time>
      </trkpt>
      <trkpt lat="45.10432" lon="5.99128">
        <ele>1701.4000244141</ele>
        <time>2024-10-15T07:44:20.000Z</time>
      </trkpt>
      <trkpt lat="45.10432" lon="5.99128">
        <ele>1701.5999755859</ele>
        <time>2024-10-15T07:44:21.000Z</time>
      </trkpt>
      <trkpt lat="45.10432" lon="5.99127">
        <ele>1702</ele>
        <time>2024-10-15T07:44:22.000Z</time>
      </trkpt>
      <trkpt lat="45.10432" lon="5.99126">
        <ele>1702.1999511719</ele>
        <time>2024-10-15T07:44:23.000Z</time>
      </trkpt>
      <trkpt lat="45.10432" lon="5.99126">
        <ele>1702.4000244141</ele>
        <time>2024-10-15T07:44:24.000Z</time>
      </trkpt>
      <trkpt lat="45.10432" lon="5.99126">
        <ele>1702.5999755859</ele>
        <time>2024-10-15T07:44:25.000Z</time>
      </trkpt>
      <trkpt lat="45.10433" lon="5.99125">
        <ele>1703</ele>
        <time>2024-10-15T07:44:26.000Z</time>
      </trkpt>
      <trkpt lat="45.10433" lon="5.99124">
        <ele>1703.1999511719</ele>
        <time>2024-10-15T07:44:27.000Z</time>
      </trkpt>
      <trkpt lat="45.10434" lon="5.99123">
        <ele>1703.1999511719</ele>
        <time>2024-10-15T07:44:28.000Z</time>
      </trkpt>
      <trkpt lat="45.10434" lon="5.99123">
        <ele>1703.4000244141</ele>
        <time>2024-10-15T07:44:29.000Z</time>
      </trkpt>
      <trkpt lat="45.10434" lon="5.99122">
        <ele>1703.4000244141</ele>
        <time>2024-10-15T07:44:30.000Z</time>
      </trkpt>
      <trkpt lat="45.10434" lon="5.99121">
        <ele>1703.5999755859</ele>
        <time>2024-10-15T07:44:31.000Z</time>
      </trkpt>
      <trkpt lat="45.10434" lon="5.99121">
        <ele>1703.8000488281</ele>
        <time>2024-10-15T07:44:32.000Z</time>
      </trkpt>
      <trkpt lat="45.10435" lon="5.9912">
        <ele>1704</ele>
        <time>2024-10-15T07:44:33.000Z</time>
      </trkpt>
      <trkpt lat="45.10435" lon="5.9912">
        <ele>1704.1999511719</ele>
        <time>2024-10-15T07:44:34.000Z</time>
      </trkpt>
      <trkpt lat="45.10435" lon="5.99119">
        <ele>1704.1999511719</ele>
        <time>2024-10-15T07:44:35.000Z</time>
      </trkpt>
      <trkpt lat="45.10435" lon="5.99119">
        <ele>1704.4000244141</ele>
        <time>2024-10-15T07:44:36.000Z</time>
      </trkpt>
      <trkpt lat="45.10435" lon="5.99119">
        <ele>1704.5999755859</ele>
        <time>2024-10-15T07:44:37.000Z</time>
      </trkpt>
      <trkpt lat="45.10435" lon="5.99119">
        <ele>1704.5999755859</ele>
        <time>2024-10-15T07:44:38.000Z</time>
      </trkpt>
      <trkpt lat="45.10435" lon="5.99118">
        <ele>1704.5999755859</ele>
        <time>2024-10-15T07:44:39.000Z</time>
      </trkpt>
      <trkpt lat="45.10435" lon="5.99118">
        <ele>1704.8000488281</ele>
        <time>2024-10-15T07:44:40.000Z</time>
      </trkpt>
      <trkpt lat="45.10435" lon="5.99118">
        <ele>1704.8000488281</ele>
        <time>2024-10-15T07:44:41.000Z</time>
      </trkpt>
      <trkpt lat="45.10435" lon="5.99117">
        <ele>1705.1999511719</ele>
        <time>2024-10-15T07:44:42.000Z</time>
      </trkpt>
      <trkpt lat="45.10435" lon="5.99117">
        <ele>1705.5999755859</ele>
        <time>2024-10-15T07:44:43.000Z</time>
      </trkpt>
      <trkpt lat="45.10435" lon="5.99117">
        <ele>1705.5999755859</ele>
        <time>2024-10-15T07:44:44.000Z</time>
      </trkpt>
      <trkpt lat="45.10435" lon="5.99117">
        <ele>1705.8000488281</ele>
        <time>2024-10-15T07:44:45.000Z</time>
      </trkpt>
      <trkpt lat="45.10435" lon="5.99117">
        <ele>1706.1999511719</ele>
        <time>2024-10-15T07:44:46.000Z</time>
      </trkpt>
      <trkpt lat="45.10435" lon="5.99117">
        <ele>1706.4000244141</ele>
        <time>2024-10-15T07:44:47.000Z</time>
      </trkpt>
      <trkpt lat="45.10435" lon="5.99117">
        <ele>1706.5999755859</ele>
        <time>2024-10-15T07:44:48.000Z</time>
      </trkpt>
      <trkpt lat="45.10435" lon="5.99117">
        <ele>1706.8000488281</ele>
        <time>2024-10-15T07:44:49.000Z</time>
      </trkpt>
      <trkpt lat="45.10435" lon="5.99117">
        <ele>1707</ele>
        <time>2024-10-15T07:44:50.000Z</time>
      </trkpt>
      <trkpt lat="45.10435" lon="5.99117">
        <ele>1707.1999511719</ele>
        <time>2024-10-15T07:44:51.000Z</time>
      </trkpt>
      <trkpt lat="45.10435" lon="5.99117">
        <ele>1707.4000244141</ele>
        <time>2024-10-15T07:44:52.000Z</time>
      </trkpt>
      <trkpt lat="45.10435" lon="5.99117">
        <ele>1707.4000244141</ele>
        <time>2024-10-15T07:44:53.000Z</time>
      </trkpt>
      <trkpt lat="45.10435" lon="5.99117">
        <ele>1707.5999755859</ele>
        <time>2024-10-15T07:44:54.000Z</time>
      </trkpt>
      <trkpt lat="45.10435" lon="5.99117">
        <ele>1707.8000488281</ele>
        <time>2024-10-15T07:44:55.000Z</time>
      </trkpt>
      <trkpt lat="45.10435" lon="5.99117">
        <ele>1708</ele>
        <time>2024-10-15T07:44:56.000Z</time>
      </trkpt>
      <trkpt lat="45.10435" lon="5.99117">
        <ele>1708.1999511719</ele>
        <time>2024-10-15T07:44:57.000Z</time>
      </trkpt>
      <trkpt lat="45.10435" lon="5.99117">
        <ele>1708.4000244141</ele>
        <time>2024-10-15T07:44:58.000Z</time>
      </trkpt>
      <trkpt lat="45.10435" lon="5.99117">
        <ele>1708.5999755859</ele>
        <time>2024-10-15T07:44:59.000Z</time>
      </trkpt>
      <trkpt lat="45.10435" lon="5.99117">
        <ele>1708.5999755859</ele>
        <time>2024-10-15T07:45:00.000Z</time>
      </trkpt>
      <trkpt lat="45.10435" lon="5.99116">
        <ele>1708.8000488281</ele>
        <time>2024-10-15T07:45:01.000Z</time>
      </trkpt>
      <trkpt lat="45.10435" lon="5.99116">
        <ele>1708.8000488281</ele>
        <time>2024-10-15T07:45:02.000Z</time>
      </trkpt>
      <trkpt lat="45.10434" lon="5.99115">
        <ele>1709.1999511719</ele>
        <time>2024-10-15T07:45:03.000Z</time>
      </trkpt>
      <trkpt lat="45.10434" lon="5.99114">
        <ele>1709.4000244141</ele>
        <time>2024-10-15T07:45:04.000Z</time>
      </trkpt>
      <trkpt lat="45.10434" lon="5.99114">
        <ele>1709.5999755859</ele>
        <time>2024-10-15T07:45:05.000Z</time>
      </trkpt>
      <trkpt lat="45.10434" lon="5.99113">
        <ele>1710</ele>
        <time>2024-10-15T07:45:06.000Z</time>
      </trkpt>
      <trkpt lat="45.10434" lon="5.99113">
        <ele>1710.1999511719</ele>
        <time>2024-10-15T07:45:07.000Z</time>
      </trkpt>
      <trkpt lat="45.10434" lon="5.99112">
        <ele>1710.1999511719</ele>
        <time>2024-10-15T07:45:08.000Z</time>
      </trkpt>
      <trkpt lat="45.10434" lon="5.99112">
        <ele>1710.4000244141</ele>
        <time>2024-10-15T07:45:09.000Z</time>
      </trkpt>
      <trkpt lat="45.10434" lon="5.99112">
        <ele>1710.5999755859</ele>
        <time>2024-10-15T07:45:10.000Z</time>
      </trkpt>
      <trkpt lat="45.10434" lon="5.99111">
        <ele>1710.8000488281</ele>
        <time>2024-10-15T07:45:11.000Z</time>
      </trkpt>
      <trkpt lat="45.10433" lon="5.99111">
        <ele>1711</ele>
        <time>2024-10-15T07:45:12.000Z</time>
      </trkpt>
      <trkpt lat="45.10433" lon="5.99111">
        <ele>1711</ele>
        <time>2024-10-15T07:45:13.000Z</time>
      </trkpt>
      <trkpt lat="45.10433" lon="5.99111">
        <ele>1711.1999511719</ele>
        <time>2024-10-15T07:45:14.000Z</time>
      </trkpt>
      <trkpt lat="45.10432" lon="5.99111">
        <ele>1711.4000244141</ele>
        <time>2024-10-15T07:45:15.000Z</time>
      </trkpt>
      <trkpt lat="45.10432" lon="5.99111">
        <ele>1711.5999755859</ele>
        <time>2024-10-15T07:45:16.000Z</time>
      </trkpt>
      <trkpt lat="45.10431" lon="5.99111">
        <ele>1711.8000488281</ele>
        <time>2024-10-15T07:45:17.000Z</time>
      </trkpt>
      <trkpt lat="45.10431" lon="5.99111">
        <ele>1711.8000488281</ele>
        <time>2024-10-15T07:45:18.000Z</time>
      </trkpt>
      <trkpt lat="45.10431" lon="5.99111">
        <ele>1712</ele>
        <time>2024-10-15T07:45:19.000Z</time>
      </trkpt>
      <trkpt lat="45.1043" lon="5.99111">
        <ele>1712</ele>
        <time>2024-10-15T07:45:20.000Z</time>
      </trkpt>
      <trkpt lat="45.1043" lon="5.9911">
        <ele>1712.1999511719</ele>
        <time>2024-10-15T07:45:21.000Z</time>
      </trkpt>
      <trkpt lat="45.10429" lon="5.9911">
        <ele>1712.4000244141</ele>
        <time>2024-10-15T07:45:22.000Z</time>
      </trkpt>
      <trkpt lat="45.10429" lon="5.9911">
        <ele>1712.5999755859</ele>
        <time>2024-10-15T07:45:23.000Z</time>
      </trkpt>
      <trkpt lat="45.10429" lon="5.9911">
        <ele>1713</ele>
        <time>2024-10-15T07:45:24.000Z</time>
      </trkpt>
      <trkpt lat="45.10428" lon="5.99109">
        <ele>1713.1999511719</ele>
        <time>2024-10-15T07:45:25.000Z</time>
      </trkpt>
      <trkpt lat="45.10428" lon="5.99109">
        <ele>1713.4000244141</ele>
        <time>2024-10-15T07:45:26.000Z</time>
      </trkpt>
      <trkpt lat="45.10428" lon="5.99109">
        <ele>1713.5999755859</ele>
        <time>2024-10-15T07:45:27.000Z</time>
      </trkpt>
      <trkpt lat="45.10427" lon="5.99109">
        <ele>1713.8000488281</ele>
        <time>2024-10-15T07:45:28.000Z</time>
      </trkpt>
      <trkpt lat="45.10427" lon="5.99109">
        <ele>1714</ele>
        <time>2024-10-15T07:45:29.000Z</time>
      </trkpt>
      <trkpt lat="45.10426" lon="5.99109">
        <ele>1714.4000244141</ele>
        <time>2024-10-15T07:45:30.000Z</time>
      </trkpt>
      <trkpt lat="45.10426" lon="5.99109">
        <ele>1714.5999755859</ele>
        <time>2024-10-15T07:45:31.000Z</time>
      </trkpt>
      <trkpt lat="45.10426" lon="5.99109">
        <ele>1714.5999755859</ele>
        <time>2024-10-15T07:45:32.000Z</time>
      </trkpt>
      <trkpt lat="45.10425" lon="5.99109">
        <ele>1714.8000488281</ele>
        <time>2024-10-15T07:45:33.000Z</time>
      </trkpt>
      <trkpt lat="45.10425" lon="5.99109">
        <ele>1715</ele>
        <time>2024-10-15T07:45:34.000Z</time>
      </trkpt>
      <trkpt lat="45.10424" lon="5.99109">
        <ele>1715.1999511719</ele>
        <time>2024-10-15T07:45:35.000Z</time>
      </trkpt>
      <trkpt lat="45.10424" lon="5.99109">
        <ele>1715.1999511719</ele>
        <time>2024-10-15T07:45:36.000Z</time>
      </trkpt>
      <trkpt lat="45.10423" lon="5.99109">
        <ele>1715.4000244141</ele>
        <time>2024-10-15T07:45:37.000Z</time>
      </trkpt>
      <trkpt lat="45.10423" lon="5.99109">
        <ele>1715.5999755859</ele>
        <time>2024-10-15T07:45:38.000Z</time>
      </trkpt>
      <trkpt lat="45.10423" lon="5.99109">
        <ele>1715.8000488281</ele>
        <time>2024-10-15T07:45:39.000Z</time>
      </trkpt>
      <trkpt lat="45.10422" lon="5.99109">
        <ele>1715.8000488281</ele>
        <time>2024-10-15T07:45:40.000Z</time>
      </trkpt>
      <trkpt lat="45.10422" lon="5.99109">
        <ele>1715.8000488281</ele>
        <time>2024-10-15T07:45:41.000Z</time>
      </trkpt>
      <trkpt lat="45.10422" lon="5.99109">
        <ele>1716</ele>
        <time>2024-10-15T07:45:42.000Z</time>
      </trkpt>
      <trkpt lat="45.10422" lon="5.99108">
        <ele>1716.1999511719</ele>
        <time>2024-10-15T07:45:43.000Z</time>
      </trkpt>
      <trkpt lat="45.10421" lon="5.99108">
        <ele>1716.1999511719</ele>
        <time>2024-10-15T07:45:44.000Z</time>
      </trkpt>
      <trkpt lat="45.10421" lon="5.99108">
        <ele>1716.4000244141</ele>
        <time>2024-10-15T07:45:45.000Z</time>
      </trkpt>
      <trkpt lat="45.10421" lon="5.99108">
        <ele>1716.4000244141</ele>
        <time>2024-10-15T07:45:46.000Z</time>
      </trkpt>
      <trkpt lat="45.10421" lon="5.99108">
        <ele>1716.5999755859</ele>
        <time>2024-10-15T07:45:47.000Z</time>
      </trkpt>
      <trkpt lat="45.10421" lon="5.99108">
        <ele>1716.8000488281</ele>
        <time>2024-10-15T07:45:48.000Z</time>
      </trkpt>
      <trkpt lat="45.10421" lon="5.99108">
        <ele>1717</ele>
        <time>2024-10-15T07:45:49.000Z</time>
      </trkpt>
      <trkpt lat="45.10421" lon="5.99108">
        <ele>1717.4000244141</ele>
        <time>2024-10-15T07:45:50.000Z</time>
      </trkpt>
      <trkpt lat="45.10421" lon="5.99108">
        <ele>1717.5999755859</ele>
        <time>2024-10-15T07:45:51.000Z</time>
      </trkpt>
      <trkpt lat="45.1042" lon="5.99107">
        <ele>1717.5999755859</ele>
        <time>2024-10-15T07:45:52.000Z</time>
      </trkpt>
      <trkpt lat="45.1042" lon="5.99107">
        <ele>1717.5999755859</ele>
        <time>2024-10-15T07:45:53.000Z</time>
      </trkpt>
      <trkpt lat="45.1042" lon="5.99107">
        <ele>1717.8000488281</ele>
        <time>2024-10-15T07:45:54.000Z</time>
      </trkpt>
      <trkpt lat="45.1042" lon="5.99106">
        <ele>1718.1999511719</ele>
        <time>2024-10-15T07:45:55.000Z</time>
      </trkpt>
      <trkpt lat="45.10419" lon="5.99106">
        <ele>1718.1999511719</ele>
        <time>2024-10-15T07:45:56.000Z</time>
      </trkpt>
      <trkpt lat="45.10419" lon="5.99106">
        <ele>1718.1999511719</ele>
        <time>2024-10-15T07:45:57.000Z</time>
      </trkpt>
      <trkpt lat="45.10419" lon="5.99105">
        <ele>1718.1999511719</ele>
        <time>2024-10-15T07:45:58.000Z</time>
      </trkpt>
      <trkpt lat="45.10419" lon="5.99105">
        <ele>1718.4000244141</ele>
        <time>2024-10-15T07:45:59.000Z</time>
      </trkpt>
      <trkpt lat="45.10419" lon="5.99105">
        <ele>1718.4000244141</ele>
        <time>2024-10-15T07:46:00.000Z</time>
      </trkpt>
      <trkpt lat="45.10418" lon="5.99104">
        <ele>1718.5999755859</ele>
        <time>2024-10-15T07:46:01.000Z</time>
      </trkpt>
      <trkpt lat="45.10418" lon="5.99104">
        <ele>1718.5999755859</ele>
        <time>2024-10-15T07:46:02.000Z</time>
      </trkpt>
      <trkpt lat="45.10418" lon="5.99104">
        <ele>1719</ele>
        <time>2024-10-15T07:46:03.000Z</time>
      </trkpt>
      <trkpt lat="45.10418" lon="5.99104">
        <ele>1719.1999511719</ele>
        <time>2024-10-15T07:46:04.000Z</time>
      </trkpt>
      <trkpt lat="45.10418" lon="5.99104">
        <ele>1719.4000244141</ele>
        <time>2024-10-15T07:46:05.000Z</time>
      </trkpt>
      <trkpt lat="45.10418" lon="5.99104">
        <ele>1719.4000244141</ele>
        <time>2024-10-15T07:46:06.000Z</time>
      </trkpt>
      <trkpt lat="45.10417" lon="5.99104">
        <ele>1719.5999755859</ele>
        <time>2024-10-15T07:46:07.000Z</time>
      </trkpt>
      <trkpt lat="45.10417" lon="5.99104">
        <ele>1719.8000488281</ele>
        <time>2024-10-15T07:46:08.000Z</time>
      </trkpt>
      <trkpt lat="45.10417" lon="5.99104">
        <ele>1720</ele>
        <time>2024-10-15T07:46:09.000Z</time>
      </trkpt>
      <trkpt lat="45.10417" lon="5.99104">
        <ele>1720.4000244141</ele>
        <time>2024-10-15T07:46:10.000Z</time>
      </trkpt>
      <trkpt lat="45.10416" lon="5.99104">
        <ele>1720.5999755859</ele>
        <time>2024-10-15T07:46:11.000Z</time>
      </trkpt>
      <trkpt lat="45.10416" lon="5.99104">
        <ele>1720.8000488281</ele>
        <time>2024-10-15T07:46:12.000Z</time>
      </trkpt>
      <trkpt lat="45.10416" lon="5.99104">
        <ele>1720.8000488281</ele>
        <time>2024-10-15T07:46:13.000Z</time>
      </trkpt>
      <trkpt lat="45.10415" lon="5.99104">
        <ele>1720.8000488281</ele>
        <time>2024-10-15T07:46:14.000Z</time>
      </trkpt>
      <trkpt lat="45.10415" lon="5.99103">
        <ele>1721</ele>
        <time>2024-10-15T07:46:15.000Z</time>
      </trkpt>
      <trkpt lat="45.10415" lon="5.99103">
        <ele>1721.1999511719</ele>
        <time>2024-10-15T07:46:16.000Z</time>
      </trkpt>
      <trkpt lat="45.10415" lon="5.99103">
        <ele>1721.4000244141</ele>
        <time>2024-10-15T07:46:17.000Z</time>
      </trkpt>
      <trkpt lat="45.10414" lon="5.99102">
        <ele>1721.5999755859</ele>
        <time>2024-10-15T07:46:18.000Z</time>
      </trkpt>
      <trkpt lat="45.10414" lon="5.99102">
        <ele>1722</ele>
        <time>2024-10-15T07:46:19.000Z</time>
      </trkpt>
      <trkpt lat="45.10414" lon="5.99101">
        <ele>1722.1999511719</ele>
        <time>2024-10-15T07:46:20.000Z</time>
      </trkpt>
      <trkpt lat="45.10414" lon="5.99101">
        <ele>1722.5999755859</ele>
        <time>2024-10-15T07:46:21.000Z</time>
      </trkpt>
      <trkpt lat="45.10414" lon="5.99101">
        <ele>1722.8000488281</ele>
        <time>2024-10-15T07:46:22.000Z</time>
      </trkpt>
      <trkpt lat="45.10414" lon="5.99101">
        <ele>1722.8000488281</ele>
        <time>2024-10-15T07:46:23.000Z</time>
      </trkpt>
      <trkpt lat="45.10413" lon="5.991">
        <ele>1723</ele>
        <time>2024-10-15T07:46:24.000Z</time>
      </trkpt>
      <trkpt lat="45.10413" lon="5.991">
        <ele>1723</ele>
        <time>2024-10-15T07:46:25.000Z</time>
      </trkpt>
      <trkpt lat="45.10413" lon="5.991">
        <ele>1723.1999511719</ele>
        <time>2024-10-15T07:46:26.000Z</time>
      </trkpt>
      <trkpt lat="45.10413" lon="5.99099">
        <ele>1723.1999511719</ele>
        <time>2024-10-15T07:46:27.000Z</time>
      </trkpt>
      <trkpt lat="45.10413" lon="5.99099">
        <ele>1723.4000244141</ele>
        <time>2024-10-15T07:46:28.000Z</time>
      </trkpt>
      <trkpt lat="45.10413" lon="5.99099">
        <ele>1723.8000488281</ele>
        <time>2024-10-15T07:46:29.000Z</time>
      </trkpt>
      <trkpt lat="45.10413" lon="5.99098">
        <ele>1723.8000488281</ele>
        <time>2024-10-15T07:46:30.000Z</time>
      </trkpt>
      <trkpt lat="45.10413" lon="5.99098">
        <ele>1724</ele>
        <time>2024-10-15T07:46:31.000Z</time>
      </trkpt>
      <trkpt lat="45.10413" lon="5.99097">
        <ele>1724.1999511719</ele>
        <time>2024-10-15T07:46:32.000Z</time>
      </trkpt>
      <trkpt lat="45.10413" lon="5.99097">
        <ele>1724.4000244141</ele>
        <time>2024-10-15T07:46:33.000Z</time>
      </trkpt>
      <trkpt lat="45.10413" lon="5.99097">
        <ele>1724.8000488281</ele>
        <time>2024-10-15T07:46:34.000Z</time>
      </trkpt>
      <trkpt lat="45.10413" lon="5.99096">
        <ele>1725</ele>
        <time>2024-10-15T07:46:35.000Z</time>
      </trkpt>
      <trkpt lat="45.10413" lon="5.99096">
        <ele>1725.4000244141</ele>
        <time>2024-10-15T07:46:36.000Z</time>
      </trkpt>
      <trkpt lat="45.10413" lon="5.99095">
        <ele>1725.4000244141</ele>
        <time>2024-10-15T07:46:37.000Z</time>
      </trkpt>
      <trkpt lat="45.10413" lon="5.99095">
        <ele>1725.4000244141</ele>
        <time>2024-10-15T07:46:38.000Z</time>
      </trkpt>
      <trkpt lat="45.10413" lon="5.99095">
        <ele>1725.5999755859</ele>
        <time>2024-10-15T07:46:39.000Z</time>
      </trkpt>
      <trkpt lat="45.10413" lon="5.99095">
        <ele>1725.5999755859</ele>
        <time>2024-10-15T07:46:40.000Z</time>
      </trkpt>
      <trkpt lat="45.10413" lon="5.99094">
        <ele>1725.5999755859</ele>
        <time>2024-10-15T07:46:41.000Z</time>
      </trkpt>
      <trkpt lat="45.10413" lon="5.99094">
        <ele>1725.8000488281</ele>
        <time>2024-10-15T07:46:42.000Z</time>
      </trkpt>
      <trkpt lat="45.10413" lon="5.99094">
        <ele>1725.8000488281</ele>
        <time>2024-10-15T07:46:43.000Z</time>
      </trkpt>
      <trkpt lat="45.10413" lon="5.99094">
        <ele>1725.8000488281</ele>
        <time>2024-10-15T07:46:44.000Z</time>
      </trkpt>
      <trkpt lat="45.10414" lon="5.99093">
        <ele>1725.8000488281</ele>
        <time>2024-10-15T07:46:45.000Z</time>
      </trkpt>
      <trkpt lat="45.10414" lon="5.99093">
        <ele>1725.8000488281</ele>
        <time>2024-10-15T07:46:46.000Z</time>
      </trkpt>
      <trkpt lat="45.10414" lon="5.99093">
        <ele>1726</ele>
        <time>2024-10-15T07:46:47.000Z</time>
      </trkpt>
      <trkpt lat="45.10414" lon="5.99092">
        <ele>1726</ele>
        <time>2024-10-15T07:46:48.000Z</time>
      </trkpt>
      <trkpt lat="45.10414" lon="5.99092">
        <ele>1726.4000244141</ele>
        <time>2024-10-15T07:46:49.000Z</time>
      </trkpt>
      <trkpt lat="45.10414" lon="5.99092">
        <ele>1726.4000244141</ele>
        <time>2024-10-15T07:46:50.000Z</time>
      </trkpt>
      <trkpt lat="45.10414" lon="5.99092">
        <ele>1726.5999755859</ele>
        <time>2024-10-15T07:46:51.000Z</time>
      </trkpt>
      <trkpt lat="45.10414" lon="5.99092">
        <ele>1727</ele>
        <time>2024-10-15T07:46:52.000Z</time>
      </trkpt>
      <trkpt lat="45.10414" lon="5.99091">
        <ele>1727.1999511719</ele>
        <time>2024-10-15T07:46:53.000Z</time>
      </trkpt>
      <trkpt lat="45.10415" lon="5.99091">
        <ele>1727.4000244141</ele>
        <time>2024-10-15T07:46:54.000Z</time>
      </trkpt>
      <trkpt lat="45.10415" lon="5.99091">
        <ele>1727.4000244141</ele>
        <time>2024-10-15T07:46:55.000Z</time>
      </trkpt>
      <trkpt lat="45.10415" lon="5.99091">
        <ele>1727.5999755859</ele>
        <time>2024-10-15T07:46:56.000Z</time>
      </trkpt>
      <trkpt lat="45.10415" lon="5.9909">
        <ele>1727.5999755859</ele>
        <time>2024-10-15T07:46:57.000Z</time>
      </trkpt>
      <trkpt lat="45.10415" lon="5.9909">
        <ele>1727.5999755859</ele>
        <time>2024-10-15T07:46:58.000Z</time>
      </trkpt>
      <trkpt lat="45.10415" lon="5.9909">
        <ele>1727.8000488281</ele>
        <time>2024-10-15T07:46:59.000Z</time>
      </trkpt>
      <trkpt lat="45.10415" lon="5.99089">
        <ele>1727.8000488281</ele>
        <time>2024-10-15T07:47:00.000Z</time>
      </trkpt>
      <trkpt lat="45.10415" lon="5.99089">
        <ele>1727.8000488281</ele>
        <time>2024-10-15T07:47:01.000Z</time>
      </trkpt>
      <trkpt lat="45.10415" lon="5.99089">
        <ele>1727.8000488281</ele>
        <time>2024-10-15T07:47:02.000Z</time>
      </trkpt>
      <trkpt lat="45.10415" lon="5.99089">
        <ele>1728.1999511719</ele>
        <time>2024-10-15T07:47:03.000Z</time>
      </trkpt>
      <trkpt lat="45.10415" lon="5.99089">
        <ele>1728.5999755859</ele>
        <time>2024-10-15T07:47:04.000Z</time>
      </trkpt>
      <trkpt lat="45.10415" lon="5.99088">
        <ele>1728.5999755859</ele>
        <time>2024-10-15T07:47:05.000Z</time>
      </trkpt>
      <trkpt lat="45.10415" lon="5.99088">
        <ele>1728.8000488281</ele>
        <time>2024-10-15T07:47:06.000Z</time>
      </trkpt>
      <trkpt lat="45.10415" lon="5.99087">
        <ele>1729</ele>
        <time>2024-10-15T07:47:07.000Z</time>
      </trkpt>
      <trkpt lat="45.10415" lon="5.99087">
        <ele>1729.1999511719</ele>
        <time>2024-10-15T07:47:08.000Z</time>
      </trkpt>
      <trkpt lat="45.10415" lon="5.99086">
        <ele>1729.4000244141</ele>
        <time>2024-10-15T07:47:09.000Z</time>
      </trkpt>
      <trkpt lat="45.10415" lon="5.99086">
        <ele>1729.8000488281</ele>
        <time>2024-10-15T07:47:10.000Z</time>
      </trkpt>
      <trkpt lat="45.10415" lon="5.99085">
        <ele>1729.8000488281</ele>
        <time>2024-10-15T07:47:11.000Z</time>
      </trkpt>
      <trkpt lat="45.10415" lon="5.99085">
        <ele>1730</ele>
        <time>2024-10-15T07:47:12.000Z</time>
      </trkpt>
      <trkpt lat="45.10415" lon="5.99084">
        <ele>1730.1999511719</ele>
        <time>2024-10-15T07:47:13.000Z</time>
      </trkpt>
      <trkpt lat="45.10415" lon="5.99084">
        <ele>1730.1999511719</ele>
        <time>2024-10-15T07:47:14.000Z</time>
      </trkpt>
      <trkpt lat="45.10415" lon="5.99083">
        <ele>1730.1999511719</ele>
        <time>2024-10-15T07:47:15.000Z</time>
      </trkpt>
      <trkpt lat="45.10415" lon="5.99083">
        <ele>1730.1999511719</ele>
        <time>2024-10-15T07:47:16.000Z</time>
      </trkpt>
      <trkpt lat="45.10415" lon="5.99082">
        <ele>1730.1999511719</ele>
        <time>2024-10-15T07:47:17.000Z</time>
      </trkpt>
      <trkpt lat="45.10415" lon="5.99082">
        <ele>1730.1999511719</ele>
        <time>2024-10-15T07:47:18.000Z</time>
      </trkpt>
      <trkpt lat="45.10416" lon="5.99081">
        <ele>1730.4000244141</ele>
        <time>2024-10-15T07:47:19.000Z</time>
      </trkpt>
      <trkpt lat="45.10416" lon="5.99081">
        <ele>1730.4000244141</ele>
        <time>2024-10-15T07:47:20.000Z</time>
      </trkpt>
      <trkpt lat="45.10416" lon="5.9908">
        <ele>1730.5999755859</ele>
        <time>2024-10-15T07:47:21.000Z</time>
      </trkpt>
      <trkpt lat="45.10416" lon="5.9908">
        <ele>1731</ele>
        <time>2024-10-15T07:47:22.000Z</time>
      </trkpt>
      <trkpt lat="45.10416" lon="5.99079">
        <ele>1731.1999511719</ele>
        <time>2024-10-15T07:47:23.000Z</time>
      </trkpt>
      <trkpt lat="45.10416" lon="5.99079">
        <ele>1731.4000244141</ele>
        <time>2024-10-15T07:47:24.000Z</time>
      </trkpt>
      <trkpt lat="45.10416" lon="5.99078">
        <ele>1731.4000244141</ele>
        <time>2024-10-15T07:47:25.000Z</time>
      </trkpt>
      <trkpt lat="45.10416" lon="5.99078">
        <ele>1732</ele>
        <time>2024-10-15T07:47:26.000Z</time>
      </trkpt>
      <trkpt lat="45.10416" lon="5.99078">
        <ele>1732.1999511719</ele>
        <time>2024-10-15T07:47:27.000Z</time>
      </trkpt>
      <trkpt lat="45.10416" lon="5.99077">
        <ele>1732.4000244141</ele>
        <time>2024-10-15T07:47:28.000Z</time>
      </trkpt>
      <trkpt lat="45.10416" lon="5.99077">
        <ele>1732.5999755859</ele>
        <time>2024-10-15T07:47:29.000Z</time>
      </trkpt>
      <trkpt lat="45.10416" lon="5.99077">
        <ele>1732.5999755859</ele>
        <time>2024-10-15T07:47:30.000Z</time>
      </trkpt>
      <trkpt lat="45.10416" lon="5.99076">
        <ele>1732.5999755859</ele>
        <time>2024-10-15T07:47:31.000Z</time>
      </trkpt>
      <trkpt lat="45.10416" lon="5.99076">
        <ele>1732.8000488281</ele>
        <time>2024-10-15T07:47:32.000Z</time>
      </trkpt>
      <trkpt lat="45.10416" lon="5.99076">
        <ele>1732.8000488281</ele>
        <time>2024-10-15T07:47:33.000Z</time>
      </trkpt>
      <trkpt lat="45.10416" lon="5.99075">
        <ele>1733</ele>
        <time>2024-10-15T07:47:34.000Z</time>
      </trkpt>
      <trkpt lat="45.10416" lon="5.99075">
        <ele>1733</ele>
        <time>2024-10-15T07:47:35.000Z</time>
      </trkpt>
      <trkpt lat="45.10416" lon="5.99075">
        <ele>1733.1999511719</ele>
        <time>2024-10-15T07:47:36.000Z</time>
      </trkpt>
      <trkpt lat="45.10416" lon="5.99075">
        <ele>1733.5999755859</ele>
        <time>2024-10-15T07:47:37.000Z</time>
      </trkpt>
      <trkpt lat="45.10416" lon="5.99075">
        <ele>1734</ele>
        <time>2024-10-15T07:47:38.000Z</time>
      </trkpt>
      <trkpt lat="45.10416" lon="5.99075">
        <ele>1734</ele>
        <time>2024-10-15T07:47:39.000Z</time>
      </trkpt>
      <trkpt lat="45.10416" lon="5.99074">
        <ele>1734.4000244141</ele>
        <time>2024-10-15T07:47:40.000Z</time>
      </trkpt>
      <trkpt lat="45.10416" lon="5.99074">
        <ele>1734.5999755859</ele>
        <time>2024-10-15T07:47:41.000Z</time>
      </trkpt>
      <trkpt lat="45.10416" lon="5.99074">
        <ele>1734.8000488281</ele>
        <time>2024-10-15T07:47:42.000Z</time>
      </trkpt>
      <trkpt lat="45.10416" lon="5.99074">
        <ele>1734.8000488281</ele>
        <time>2024-10-15T07:47:43.000Z</time>
      </trkpt>
      <trkpt lat="45.10416" lon="5.99074">
        <ele>1734.8000488281</ele>
        <time>2024-10-15T07:47:44.000Z</time>
      </trkpt>
      <trkpt lat="45.10416" lon="5.99074">
        <ele>1735</ele>
        <time>2024-10-15T07:47:45.000Z</time>
      </trkpt>
      <trkpt lat="45.10415" lon="5.99074">
        <ele>1735.4000244141</ele>
        <time>2024-10-15T07:47:46.000Z</time>
      </trkpt>
      <trkpt lat="45.10415" lon="5.99073">
        <ele>1736</ele>
        <time>2024-10-15T07:47:47.000Z</time>
      </trkpt>
      <trkpt lat="45.10415" lon="5.99073">
        <ele>1736</ele>
        <time>2024-10-15T07:47:48.000Z</time>
      </trkpt>
      <trkpt lat="45.10415" lon="5.99073">
        <ele>1736</ele>
        <time>2024-10-15T07:47:49.000Z</time>
      </trkpt>
      <trkpt lat="45.10415" lon="5.99073">
        <ele>1736</ele>
        <time>2024-10-15T07:47:50.000Z</time>
      </trkpt>
      <trkpt lat="45.10415" lon="5.99072">
        <ele>1736.1999511719</ele>
        <time>2024-10-15T07:47:51.000Z</time>
      </trkpt>
      <trkpt lat="45.10415" lon="5.99072">
        <ele>1736.4000244141</ele>
        <time>2024-10-15T07:47:52.000Z</time>
      </trkpt>
      <trkpt lat="45.10415" lon="5.99072">
        <ele>1736.4000244141</ele>
        <time>2024-10-15T07:47:53.000Z</time>
      </trkpt>
      <trkpt lat="45.10414" lon="5.99072">
        <ele>1736.4000244141</ele>
        <time>2024-10-15T07:47:54.000Z</time>
      </trkpt>
      <trkpt lat="45.10414" lon="5.99072">
        <ele>1736.4000244141</ele>
        <time>2024-10-15T07:47:55.000Z</time>
      </trkpt>
      <trkpt lat="45.10414" lon="5.99071">
        <ele>1736.5999755859</ele>
        <time>2024-10-15T07:47:56.000Z</time>
      </trkpt>
      <trkpt lat="45.10414" lon="5.99071">
        <ele>1736.5999755859</ele>
        <time>2024-10-15T07:47:57.000Z</time>
      </trkpt>
      <trkpt lat="45.10414" lon="5.99071">
        <ele>1736.8000488281</ele>
        <time>2024-10-15T07:47:58.000Z</time>
      </trkpt>
      <trkpt lat="45.10414" lon="5.99071">
        <ele>1737</ele>
        <time>2024-10-15T07:47:59.000Z</time>
      </trkpt>
      <trkpt lat="45.10414" lon="5.99071">
        <ele>1737.1999511719</ele>
        <time>2024-10-15T07:48:00.000Z</time>
      </trkpt>
      <trkpt lat="45.10414" lon="5.99071">
        <ele>1737.4000244141</ele>
        <time>2024-10-15T07:48:01.000Z</time>
      </trkpt>
      <trkpt lat="45.10414" lon="5.99071">
        <ele>1737.4000244141</ele>
        <time>2024-10-15T07:48:02.000Z</time>
      </trkpt>
      <trkpt lat="45.10414" lon="5.99071">
        <ele>1737.4000244141</ele>
        <time>2024-10-15T07:48:03.000Z</time>
      </trkpt>
      <trkpt lat="45.10414" lon="5.99071">
        <ele>1737.4000244141</ele>
        <time>2024-10-15T07:48:04.000Z</time>
      </trkpt>
      <trkpt lat="45.10414" lon="5.99071">
        <ele>1737.4000244141</ele>
        <time>2024-10-15T07:48:05.000Z</time>
      </trkpt>
      <trkpt lat="45.10414" lon="5.99071">
        <ele>1737.4000244141</ele>
        <time>2024-10-15T07:48:06.000Z</time>
      </trkpt>
      <trkpt lat="45.10414" lon="5.9907">
        <ele>1737.4000244141</ele>
        <time>2024-10-15T07:48:07.000Z</time>
      </trkpt>
      <trkpt lat="45.10414" lon="5.9907">
        <ele>1737.4000244141</ele>
        <time>2024-10-15T07:48:08.000Z</time>
      </trkpt>
      <trkpt lat="45.10414" lon="5.9907">
        <ele>1737.4000244141</ele>
        <time>2024-10-15T07:48:09.000Z</time>
      </trkpt>
      <trkpt lat="45.10414" lon="5.9907">
        <ele>1737.4000244141</ele>
        <time>2024-10-15T07:48:10.000Z</time>
      </trkpt>
      <trkpt lat="45.10414" lon="5.9907">
        <ele>1737.8000488281</ele>
        <time>2024-10-15T07:48:11.000Z</time>
      </trkpt>
      <trkpt lat="45.10414" lon="5.9907">
        <ele>1737.8000488281</ele>
        <time>2024-10-15T07:48:12.000Z</time>
      </trkpt>
      <trkpt lat="45.10414" lon="5.9907">
        <ele>1738</ele>
        <time>2024-10-15T07:48:13.000Z</time>
      </trkpt>
      <trkpt lat="45.10414" lon="5.9907">
        <ele>1738.1999511719</ele>
        <time>2024-10-15T07:48:14.000Z</time>
      </trkpt>
      <trkpt lat="45.10414" lon="5.9907">
        <ele>1738.4000244141</ele>
        <time>2024-10-15T07:48:15.000Z</time>
      </trkpt>
      <trkpt lat="45.10414" lon="5.9907">
        <ele>1738.5999755859</ele>
        <time>2024-10-15T07:48:16.000Z</time>
      </trkpt>
      <trkpt lat="45.10414" lon="5.9907">
        <ele>1738.8000488281</ele>
        <time>2024-10-15T07:48:17.000Z</time>
      </trkpt>
      <trkpt lat="45.10414" lon="5.9907">
        <ele>1738.8000488281</ele>
        <time>2024-10-15T07:48:18.000Z</time>
      </trkpt>
      <trkpt lat="45.10414" lon="5.9907">
        <ele>1739</ele>
        <time>2024-10-15T07:48:19.000Z</time>
      </trkpt>
      <trkpt lat="45.10414" lon="5.9907">
        <ele>1739</ele>
        <time>2024-10-15T07:48:20.000Z</time>
      </trkpt>
      <trkpt lat="45.10414" lon="5.9907">
        <ele>1739</ele>
        <time>2024-10-15T07:48:21.000Z</time>
      </trkpt>
      <trkpt lat="45.10414" lon="5.9907">
        <ele>1739</ele>
        <time>2024-10-15T07:48:22.000Z</time>
      </trkpt>
      <trkpt lat="45.10414" lon="5.9907">
        <ele>1739</ele>
        <time>2024-10-15T07:48:23.000Z</time>
      </trkpt>
      <trkpt lat="45.10414" lon="5.9907">
        <ele>1739</ele>
        <time>2024-10-15T07:48:24.000Z</time>
      </trkpt>
      <trkpt lat="45.10414" lon="5.9907">
        <ele>1739</ele>
        <time>2024-10-15T07:48:25.000Z</time>
      </trkpt>
      <trkpt lat="45.10414" lon="5.9907">
        <ele>1739</ele>
        <time>2024-10-15T07:48:26.000Z</time>
      </trkpt>
      <trkpt lat="45.10415" lon="5.99067">
        <ele>1739.1999511719</ele>
        <time>2024-10-15T07:48:27.000Z</time>
      </trkpt>
      <trkpt lat="45.10416" lon="5.99063">
        <ele>1739.1999511719</ele>
        <time>2024-10-15T07:48:28.000Z</time>
      </trkpt>
      <trkpt lat="45.10417" lon="5.9906">
        <ele>1739.1999511719</ele>
        <time>2024-10-15T07:48:29.000Z</time>
      </trkpt>
      <trkpt lat="45.10418" lon="5.99057">
        <ele>1739.4000244141</ele>
        <time>2024-10-15T07:48:30.000Z</time>
      </trkpt>
      <trkpt lat="45.10419" lon="5.99054">
        <ele>1739.5999755859</ele>
        <time>2024-10-15T07:48:31.000Z</time>
      </trkpt>
      <trkpt lat="45.1042" lon="5.99051">
        <ele>1739.8000488281</ele>
        <time>2024-10-15T07:48:32.000Z</time>
      </trkpt>
      <trkpt lat="45.10421" lon="5.99047">
        <ele>1740</ele>
        <time>2024-10-15T07:48:33.000Z</time>
      </trkpt>
      <trkpt lat="45.10422" lon="5.99044">
        <ele>1740.1999511719</ele>
        <time>2024-10-15T07:48:34.000Z</time>
      </trkpt>
      <trkpt lat="45.10423" lon="5.9904">
        <ele>1740.1999511719</ele>
        <time>2024-10-15T07:48:35.000Z</time>
      </trkpt>
      <trkpt lat="45.10424" lon="5.99037">
        <ele>1740.1999511719</ele>
        <time>2024-10-15T07:48:36.000Z</time>
      </trkpt>
      <trkpt lat="45.10424" lon="5.99036">
        <ele>1740.1999511719</ele>
        <time>2024-10-15T07:48:37.000Z</time>
      </trkpt>
      <trkpt lat="45.10423" lon="5.99036">
        <ele>1740.1999511719</ele>
        <time>2024-10-15T07:48:38.000Z</time>
      </trkpt>
      <trkpt lat="45.10423" lon="5.99035">
        <ele>1740.1999511719</ele>
        <time>2024-10-15T07:48:39.000Z</time>
      </trkpt>
      <trkpt lat="45.10423" lon="5.99034">
        <ele>1740.4000244141</ele>
        <time>2024-10-15T07:48:40.000Z</time>
      </trkpt>
      <trkpt lat="45.10423" lon="5.99032">
        <ele>1740.5999755859</ele>
        <time>2024-10-15T07:48:41.000Z</time>
      </trkpt>
      <trkpt lat="45.10423" lon="5.99032">
        <ele>1740.8000488281</ele>
        <time>2024-10-15T07:48:42.000Z</time>
      </trkpt>
      <trkpt lat="45.10423" lon="5.99032">
        <ele>1741</ele>
        <time>2024-10-15T07:48:43.000Z</time>
      </trkpt>
      <trkpt lat="45.10423" lon="5.99032">
        <ele>1741.4000244141</ele>
        <time>2024-10-15T07:48:44.000Z</time>
      </trkpt>
      <trkpt lat="45.10423" lon="5.99032">
        <ele>1741.8000488281</ele>
        <time>2024-10-15T07:48:45.000Z</time>
      </trkpt>
      <trkpt lat="45.10424" lon="5.99032">
        <ele>1742</ele>
        <time>2024-10-15T07:48:46.000Z</time>
      </trkpt>
      <trkpt lat="45.10423" lon="5.99032">
        <ele>1742</ele>
        <time>2024-10-15T07:48:47.000Z</time>
      </trkpt>
      <trkpt lat="45.10423" lon="5.99031">
        <ele>1742</ele>
        <time>2024-10-15T07:48:48.000Z</time>
      </trkpt>
      <trkpt lat="45.10423" lon="5.99031">
        <ele>1742</ele>
        <time>2024-10-15T07:48:49.000Z</time>
      </trkpt>
      <trkpt lat="45.10424" lon="5.99031">
        <ele>1742</ele>
        <time>2024-10-15T07:48:50.000Z</time>
      </trkpt>
      <trkpt lat="45.10424" lon="5.9903">
        <ele>1742</ele>
        <time>2024-10-15T07:48:51.000Z</time>
      </trkpt>
      <trkpt lat="45.10425" lon="5.9903">
        <ele>1742</ele>
        <time>2024-10-15T07:48:52.000Z</time>
      </trkpt>
      <trkpt lat="45.10425" lon="5.99029">
        <ele>1742.1999511719</ele>
        <time>2024-10-15T07:48:53.000Z</time>
      </trkpt>
      <trkpt lat="45.10426" lon="5.99028">
        <ele>1742.5999755859</ele>
        <time>2024-10-15T07:48:54.000Z</time>
      </trkpt>
      <trkpt lat="45.10426" lon="5.99027">
        <ele>1742.8000488281</ele>
        <time>2024-10-15T07:48:55.000Z</time>
      </trkpt>
      <trkpt lat="45.10427" lon="5.99026">
        <ele>1743.1999511719</ele>
        <time>2024-10-15T07:48:56.000Z</time>
      </trkpt>
      <trkpt lat="45.10427" lon="5.99025">
        <ele>1743.1999511719</ele>
        <time>2024-10-15T07:48:57.000Z</time>
      </trkpt>
      <trkpt lat="45.10427" lon="5.99024">
        <ele>1743.4000244141</ele>
        <time>2024-10-15T07:48:58.000Z</time>
      </trkpt>
      <trkpt lat="45.10428" lon="5.99024">
        <ele>1743.4000244141</ele>
        <time>2024-10-15T07:48:59.000Z</time>
      </trkpt>
      <trkpt lat="45.10428" lon="5.99023">
        <ele>1743.5999755859</ele>
        <time>2024-10-15T07:49:00.000Z</time>
      </trkpt>
      <trkpt lat="45.10428" lon="5.99022">
        <ele>1743.8000488281</ele>
        <time>2024-10-15T07:49:01.000Z</time>
      </trkpt>
      <trkpt lat="45.10428" lon="5.99021">
        <ele>1744.1999511719</ele>
        <time>2024-10-15T07:49:02.000Z</time>
      </trkpt>
      <trkpt lat="45.10428" lon="5.99021">
        <ele>1744.5999755859</ele>
        <time>2024-10-15T07:49:03.000Z</time>
      </trkpt>
      <trkpt lat="45.10429" lon="5.9902">
        <ele>1745</ele>
        <time>2024-10-15T07:49:04.000Z</time>
      </trkpt>
      <trkpt lat="45.10429" lon="5.99019">
        <ele>1745.1999511719</ele>
        <time>2024-10-15T07:49:05.000Z</time>
      </trkpt>
      <trkpt lat="45.10429" lon="5.99018">
        <ele>1745.4000244141</ele>
        <time>2024-10-15T07:49:06.000Z</time>
      </trkpt>
      <trkpt lat="45.10429" lon="5.99017">
        <ele>1745.4000244141</ele>
        <time>2024-10-15T07:49:07.000Z</time>
      </trkpt>
      <trkpt lat="45.1043" lon="5.99016">
        <ele>1745.5999755859</ele>
        <time>2024-10-15T07:49:08.000Z</time>
      </trkpt>
      <trkpt lat="45.1043" lon="5.99015">
        <ele>1745.8000488281</ele>
        <time>2024-10-15T07:49:09.000Z</time>
      </trkpt>
      <trkpt lat="45.1043" lon="5.99014">
        <ele>1746</ele>
        <time>2024-10-15T07:49:10.000Z</time>
      </trkpt>
      <trkpt lat="45.10431" lon="5.99013">
        <ele>1746.4000244141</ele>
        <time>2024-10-15T07:49:11.000Z</time>
      </trkpt>
      <trkpt lat="45.10431" lon="5.99012">
        <ele>1746.4000244141</ele>
        <time>2024-10-15T07:49:12.000Z</time>
      </trkpt>
      <trkpt lat="45.10431" lon="5.99011">
        <ele>1746.5999755859</ele>
        <time>2024-10-15T07:49:13.000Z</time>
      </trkpt>
      <trkpt lat="45.10431" lon="5.99011">
        <ele>1746.5999755859</ele>
        <time>2024-10-15T07:49:14.000Z</time>
      </trkpt>
      <trkpt lat="45.10432" lon="5.9901">
        <ele>1746.5999755859</ele>
        <time>2024-10-15T07:49:15.000Z</time>
      </trkpt>
      <trkpt lat="45.10432" lon="5.99009">
        <ele>1746.8000488281</ele>
        <time>2024-10-15T07:49:16.000Z</time>
      </trkpt>
      <trkpt lat="45.10432" lon="5.99009">
        <ele>1746.8000488281</ele>
        <time>2024-10-15T07:49:17.000Z</time>
      </trkpt>
      <trkpt lat="45.10432" lon="5.99009">
        <ele>1747</ele>
        <time>2024-10-15T07:49:18.000Z</time>
      </trkpt>
      <trkpt lat="45.10432" lon="5.99008">
        <ele>1747.1999511719</ele>
        <time>2024-10-15T07:49:19.000Z</time>
      </trkpt>
      <trkpt lat="45.10432" lon="5.99008">
        <ele>1747.4000244141</ele>
        <time>2024-10-15T07:49:20.000Z</time>
      </trkpt>
      <trkpt lat="45.10432" lon="5.99007">
        <ele>1747.4000244141</ele>
        <time>2024-10-15T07:49:21.000Z</time>
      </trkpt>
      <trkpt lat="45.10433" lon="5.99007">
        <ele>1747.5999755859</ele>
        <time>2024-10-15T07:49:22.000Z</time>
      </trkpt>
      <trkpt lat="45.10433" lon="5.99006">
        <ele>1747.8000488281</ele>
        <time>2024-10-15T07:49:23.000Z</time>
      </trkpt>
      <trkpt lat="45.10434" lon="5.99006">
        <ele>1748</ele>
        <time>2024-10-15T07:49:24.000Z</time>
      </trkpt>
      <trkpt lat="45.10434" lon="5.99005">
        <ele>1748</ele>
        <time>2024-10-15T07:49:25.000Z</time>
      </trkpt>
      <trkpt lat="45.10435" lon="5.99005">
        <ele>1748.1999511719</ele>
        <time>2024-10-15T07:49:26.000Z</time>
      </trkpt>
      <trkpt lat="45.10435" lon="5.99004">
        <ele>1748.1999511719</ele>
        <time>2024-10-15T07:49:27.000Z</time>
      </trkpt>
      <trkpt lat="45.10435" lon="5.99004">
        <ele>1748.1999511719</ele>
        <time>2024-10-15T07:49:28.000Z</time>
      </trkpt>
      <trkpt lat="45.10435" lon="5.99003">
        <ele>1748.4000244141</ele>
        <time>2024-10-15T07:49:29.000Z</time>
      </trkpt>
      <trkpt lat="45.10435" lon="5.99003">
        <ele>1748.5999755859</ele>
        <time>2024-10-15T07:49:30.000Z</time>
      </trkpt>
      <trkpt lat="45.10435" lon="5.99002">
        <ele>1749</ele>
        <time>2024-10-15T07:49:31.000Z</time>
      </trkpt>
      <trkpt lat="45.10436" lon="5.99002">
        <ele>1749</ele>
        <time>2024-10-15T07:49:32.000Z</time>
      </trkpt>
      <trkpt lat="45.10436" lon="5.99002">
        <ele>1749.1999511719</ele>
        <time>2024-10-15T07:49:33.000Z</time>
      </trkpt>
      <trkpt lat="45.10437" lon="5.99001">
        <ele>1749.4000244141</ele>
        <time>2024-10-15T07:49:34.000Z</time>
      </trkpt>
      <trkpt lat="45.10437" lon="5.99001">
        <ele>1749.5999755859</ele>
        <time>2024-10-15T07:49:35.000Z</time>
      </trkpt>
      <trkpt lat="45.10438" lon="5.99">
        <ele>1749.5999755859</ele>
        <time>2024-10-15T07:49:36.000Z</time>
      </trkpt>
      <trkpt lat="45.10439" lon="5.98999">
        <ele>1749.8000488281</ele>
        <time>2024-10-15T07:49:37.000Z</time>
      </trkpt>
      <trkpt lat="45.1044" lon="5.98999">
        <ele>1749.8000488281</ele>
        <time>2024-10-15T07:49:38.000Z</time>
      </trkpt>
      <trkpt lat="45.1044" lon="5.98999">
        <ele>1750</ele>
        <time>2024-10-15T07:49:39.000Z</time>
      </trkpt>
      <trkpt lat="45.10441" lon="5.98999">
        <ele>1750</ele>
        <time>2024-10-15T07:49:40.000Z</time>
      </trkpt>
      <trkpt lat="45.10441" lon="5.98998">
        <ele>1750.4000244141</ele>
        <time>2024-10-15T07:49:41.000Z</time>
      </trkpt>
      <trkpt lat="45.10441" lon="5.98998">
        <ele>1750.5999755859</ele>
        <time>2024-10-15T07:49:42.000Z</time>
      </trkpt>
      <trkpt lat="45.10442" lon="5.98998">
        <ele>1750.5999755859</ele>
        <time>2024-10-15T07:49:43.000Z</time>
      </trkpt>
      <trkpt lat="45.10442" lon="5.98997">
        <ele>1750.5999755859</ele>
        <time>2024-10-15T07:49:44.000Z</time>
      </trkpt>
      <trkpt lat="45.10443" lon="5.98997">
        <ele>1751</ele>
        <time>2024-10-15T07:49:45.000Z</time>
      </trkpt>
      <trkpt lat="45.10443" lon="5.98997">
        <ele>1751</ele>
        <time>2024-10-15T07:49:46.000Z</time>
      </trkpt>
      <trkpt lat="45.10443" lon="5.98996">
        <ele>1751.1999511719</ele>
        <time>2024-10-15T07:49:47.000Z</time>
      </trkpt>
      <trkpt lat="45.10443" lon="5.98995">
        <ele>1751.4000244141</ele>
        <time>2024-10-15T07:49:48.000Z</time>
      </trkpt>
      <trkpt lat="45.10444" lon="5.98995">
        <ele>1751.8000488281</ele>
        <time>2024-10-15T07:49:49.000Z</time>
      </trkpt>
      <trkpt lat="45.10444" lon="5.98995">
        <ele>1751.8000488281</ele>
        <time>2024-10-15T07:49:50.000Z</time>
      </trkpt>
      <trkpt lat="45.10444" lon="5.98994">
        <ele>1752</ele>
        <time>2024-10-15T07:49:51.000Z</time>
      </trkpt>
      <trkpt lat="45.10444" lon="5.98993">
        <ele>1752.1999511719</ele>
        <time>2024-10-15T07:49:52.000Z</time>
      </trkpt>
      <trkpt lat="45.10444" lon="5.98993">
        <ele>1752.5999755859</ele>
        <time>2024-10-15T07:49:53.000Z</time>
      </trkpt>
      <trkpt lat="45.10444" lon="5.98992">
        <ele>1753</ele>
        <time>2024-10-15T07:49:54.000Z</time>
      </trkpt>
      <trkpt lat="45.10445" lon="5.98992">
        <ele>1753.4000244141</ele>
        <time>2024-10-15T07:49:55.000Z</time>
      </trkpt>
      <trkpt lat="45.10445" lon="5.98991">
        <ele>1754</ele>
        <time>2024-10-15T07:49:56.000Z</time>
      </trkpt>
      <trkpt lat="45.10445" lon="5.9899">
        <ele>1754</ele>
        <time>2024-10-15T07:49:57.000Z</time>
      </trkpt>
      <trkpt lat="45.10445" lon="5.98989">
        <ele>1754.1999511719</ele>
        <time>2024-10-15T07:49:58.000Z</time>
      </trkpt>
      <trkpt lat="45.10445" lon="5.98989">
        <ele>1754.4000244141</ele>
        <time>2024-10-15T07:49:59.000Z</time>
      </trkpt>
      <trkpt lat="45.10446" lon="5.98988">
        <ele>1754.4000244141</ele>
        <time>2024-10-15T07:50:00.000Z</time>
      </trkpt>
      <trkpt lat="45.10446" lon="5.98988">
        <ele>1754.4000244141</ele>
        <time>2024-10-15T07:50:01.000Z</time>
      </trkpt>
      <trkpt lat="45.10446" lon="5.98987">
        <ele>1754.5999755859</ele>
        <time>2024-10-15T07:50:02.000Z</time>
      </trkpt>
      <trkpt lat="45.10446" lon="5.98986">
        <ele>1754.5999755859</ele>
        <time>2024-10-15T07:50:03.000Z</time>
      </trkpt>
      <trkpt lat="45.10446" lon="5.98985">
        <ele>1755</ele>
        <time>2024-10-15T07:50:04.000Z</time>
      </trkpt>
      <trkpt lat="45.10446" lon="5.98985">
        <ele>1755</ele>
        <time>2024-10-15T07:50:05.000Z</time>
      </trkpt>
      <trkpt lat="45.10446" lon="5.98984">
        <ele>1755.1999511719</ele>
        <time>2024-10-15T07:50:06.000Z</time>
      </trkpt>
      <trkpt lat="45.10446" lon="5.98983">
        <ele>1755.4000244141</ele>
        <time>2024-10-15T07:50:07.000Z</time>
      </trkpt>
      <trkpt lat="45.10446" lon="5.98983">
        <ele>1755.4000244141</ele>
        <time>2024-10-15T07:50:08.000Z</time>
      </trkpt>
      <trkpt lat="45.10447" lon="5.98982">
        <ele>1755.5999755859</ele>
        <time>2024-10-15T07:50:09.000Z</time>
      </trkpt>
      <trkpt lat="45.10447" lon="5.98982">
        <ele>1755.8000488281</ele>
        <time>2024-10-15T07:50:10.000Z</time>
      </trkpt>
      <trkpt lat="45.10447" lon="5.98981">
        <ele>1756</ele>
        <time>2024-10-15T07:50:11.000Z</time>
      </trkpt>
      <trkpt lat="45.10447" lon="5.98981">
        <ele>1756.1999511719</ele>
        <time>2024-10-15T07:50:12.000Z</time>
      </trkpt>
      <trkpt lat="45.10447" lon="5.9898">
        <ele>1756.4000244141</ele>
        <time>2024-10-15T07:50:13.000Z</time>
      </trkpt>
      <trkpt lat="45.10448" lon="5.98979">
        <ele>1756.8000488281</ele>
        <time>2024-10-15T07:50:14.000Z</time>
      </trkpt>
      <trkpt lat="45.10448" lon="5.98979">
        <ele>1756.8000488281</ele>
        <time>2024-10-15T07:50:15.000Z</time>
      </trkpt>
      <trkpt lat="45.10448" lon="5.98978">
        <ele>1757</ele>
        <time>2024-10-15T07:50:16.000Z</time>
      </trkpt>
      <trkpt lat="45.10448" lon="5.98978">
        <ele>1757.1999511719</ele>
        <time>2024-10-15T07:50:17.000Z</time>
      </trkpt>
      <trkpt lat="45.10448" lon="5.98977">
        <ele>1757.4000244141</ele>
        <time>2024-10-15T07:50:18.000Z</time>
      </trkpt>
      <trkpt lat="45.10448" lon="5.98977">
        <ele>1757.8000488281</ele>
        <time>2024-10-15T07:50:19.000Z</time>
      </trkpt>
      <trkpt lat="45.10448" lon="5.98977">
        <ele>1757.8000488281</ele>
        <time>2024-10-15T07:50:20.000Z</time>
      </trkpt>
      <trkpt lat="45.10449" lon="5.98976">
        <ele>1758.1999511719</ele>
        <time>2024-10-15T07:50:21.000Z</time>
      </trkpt>
      <trkpt lat="45.10449" lon="5.98975">
        <ele>1758.4000244141</ele>
        <time>2024-10-15T07:50:22.000Z</time>
      </trkpt>
      <trkpt lat="45.10449" lon="5.98975">
        <ele>1758.4000244141</ele>
        <time>2024-10-15T07:50:23.000Z</time>
      </trkpt>
      <trkpt lat="45.10449" lon="5.98974">
        <ele>1758.5999755859</ele>
        <time>2024-10-15T07:50:24.000Z</time>
      </trkpt>
      <trkpt lat="45.10449" lon="5.98974">
        <ele>1758.5999755859</ele>
        <time>2024-10-15T07:50:25.000Z</time>
      </trkpt>
      <trkpt lat="45.10449" lon="5.98973">
        <ele>1758.8000488281</ele>
        <time>2024-10-15T07:50:26.000Z</time>
      </trkpt>
      <trkpt lat="45.1045" lon="5.98973">
        <ele>1759</ele>
        <time>2024-10-15T07:50:27.000Z</time>
      </trkpt>
      <trkpt lat="45.1045" lon="5.98972">
        <ele>1759.1999511719</ele>
        <time>2024-10-15T07:50:28.000Z</time>
      </trkpt>
      <trkpt lat="45.1045" lon="5.98971">
        <ele>1759.4000244141</ele>
        <time>2024-10-15T07:50:29.000Z</time>
      </trkpt>
      <trkpt lat="45.1045" lon="5.98971">
        <ele>1759.5999755859</ele>
        <time>2024-10-15T07:50:30.000Z</time>
      </trkpt>
      <trkpt lat="45.1045" lon="5.9897">
        <ele>1759.5999755859</ele>
        <time>2024-10-15T07:50:31.000Z</time>
      </trkpt>
      <trkpt lat="45.1045" lon="5.9897">
        <ele>1760</ele>
        <time>2024-10-15T07:50:32.000Z</time>
      </trkpt>
      <trkpt lat="45.1045" lon="5.98969">
        <ele>1760.4000244141</ele>
        <time>2024-10-15T07:50:33.000Z</time>
      </trkpt>
      <trkpt lat="45.1045" lon="5.98969">
        <ele>1761</ele>
        <time>2024-10-15T07:50:34.000Z</time>
      </trkpt>
      <trkpt lat="45.1045" lon="5.98968">
        <ele>1761.1999511719</ele>
        <time>2024-10-15T07:50:35.000Z</time>
      </trkpt>
      <trkpt lat="45.1045" lon="5.98967">
        <ele>1761.4000244141</ele>
        <time>2024-10-15T07:50:36.000Z</time>
      </trkpt>
      <trkpt lat="45.1045" lon="5.98966">
        <ele>1761.8000488281</ele>
        <time>2024-10-15T07:50:37.000Z</time>
      </trkpt>
      <trkpt lat="45.10449" lon="5.98966">
        <ele>1761.8000488281</ele>
        <time>2024-10-15T07:50:38.000Z</time>
      </trkpt>
      <trkpt lat="45.1045" lon="5.98965">
        <ele>1761.8000488281</ele>
        <time>2024-10-15T07:50:39.000Z</time>
      </trkpt>
      <trkpt lat="45.1045" lon="5.98965">
        <ele>1762</ele>
        <time>2024-10-15T07:50:40.000Z</time>
      </trkpt>
      <trkpt lat="45.1045" lon="5.98964">
        <ele>1762.1999511719</ele>
        <time>2024-10-15T07:50:41.000Z</time>
      </trkpt>
      <trkpt lat="45.1045" lon="5.98964">
        <ele>1762.4000244141</ele>
        <time>2024-10-15T07:50:42.000Z</time>
      </trkpt>
      <trkpt lat="45.1045" lon="5.98964">
        <ele>1762.8000488281</ele>
        <time>2024-10-15T07:50:43.000Z</time>
      </trkpt>
      <trkpt lat="45.1045" lon="5.98963">
        <ele>1763.1999511719</ele>
        <time>2024-10-15T07:50:44.000Z</time>
      </trkpt>
      <trkpt lat="45.10449" lon="5.98963">
        <ele>1763.8000488281</ele>
        <time>2024-10-15T07:50:45.000Z</time>
      </trkpt>
      <trkpt lat="45.10449" lon="5.98962">
        <ele>1764</ele>
        <time>2024-10-15T07:50:46.000Z</time>
      </trkpt>
      <trkpt lat="45.10449" lon="5.98962">
        <ele>1764</ele>
        <time>2024-10-15T07:50:47.000Z</time>
      </trkpt>
      <trkpt lat="45.1045" lon="5.98961">
        <ele>1764</ele>
        <time>2024-10-15T07:50:48.000Z</time>
      </trkpt>
      <trkpt lat="45.10449" lon="5.98961">
        <ele>1764.1999511719</ele>
        <time>2024-10-15T07:50:49.000Z</time>
      </trkpt>
      <trkpt lat="45.10449" lon="5.98961">
        <ele>1764.1999511719</ele>
        <time>2024-10-15T07:50:50.000Z</time>
      </trkpt>
      <trkpt lat="45.10449" lon="5.9896">
        <ele>1764.4000244141</ele>
        <time>2024-10-15T07:50:51.000Z</time>
      </trkpt>
      <trkpt lat="45.10449" lon="5.9896">
        <ele>1764.5999755859</ele>
        <time>2024-10-15T07:50:52.000Z</time>
      </trkpt>
      <trkpt lat="45.10449" lon="5.98959">
        <ele>1764.5999755859</ele>
        <time>2024-10-15T07:50:53.000Z</time>
      </trkpt>
      <trkpt lat="45.1045" lon="5.98959">
        <ele>1764.5999755859</ele>
        <time>2024-10-15T07:50:54.000Z</time>
      </trkpt>
      <trkpt lat="45.1045" lon="5.98958">
        <ele>1764.5999755859</ele>
        <time>2024-10-15T07:50:55.000Z</time>
      </trkpt>
      <trkpt lat="45.1045" lon="5.98957">
        <ele>1764.8000488281</ele>
        <time>2024-10-15T07:50:56.000Z</time>
      </trkpt>
      <trkpt lat="45.1045" lon="5.98957">
        <ele>1765</ele>
        <time>2024-10-15T07:50:57.000Z</time>
      </trkpt>
      <trkpt lat="45.1045" lon="5.98957">
        <ele>1765.1999511719</ele>
        <time>2024-10-15T07:50:58.000Z</time>
      </trkpt>
      <trkpt lat="45.1045" lon="5.98956">
        <ele>1765.4000244141</ele>
        <time>2024-10-15T07:50:59.000Z</time>
      </trkpt>
      <trkpt lat="45.1045" lon="5.98956">
        <ele>1765.5999755859</ele>
        <time>2024-10-15T07:51:00.000Z</time>
      </trkpt>
      <trkpt lat="45.1045" lon="5.98955">
        <ele>1765.8000488281</ele>
        <time>2024-10-15T07:51:01.000Z</time>
      </trkpt>
      <trkpt lat="45.1045" lon="5.98955">
        <ele>1766</ele>
        <time>2024-10-15T07:51:02.000Z</time>
      </trkpt>
      <trkpt lat="45.1045" lon="5.98954">
        <ele>1766.4000244141</ele>
        <time>2024-10-15T07:51:03.000Z</time>
      </trkpt>
      <trkpt lat="45.1045" lon="5.98953">
        <ele>1766.5999755859</ele>
        <time>2024-10-15T07:51:04.000Z</time>
      </trkpt>
      <trkpt lat="45.1045" lon="5.98953">
        <ele>1766.8000488281</ele>
        <time>2024-10-15T07:51:05.000Z</time>
      </trkpt>
      <trkpt lat="45.1045" lon="5.98952">
        <ele>1767</ele>
        <time>2024-10-15T07:51:06.000Z</time>
      </trkpt>
      <trkpt lat="45.1045" lon="5.98952">
        <ele>1767.1999511719</ele>
        <time>2024-10-15T07:51:07.000Z</time>
      </trkpt>
      <trkpt lat="45.1045" lon="5.98951">
        <ele>1767.4000244141</ele>
        <time>2024-10-15T07:51:08.000Z</time>
      </trkpt>
      <trkpt lat="45.1045" lon="5.98951">
        <ele>1767.5999755859</ele>
        <time>2024-10-15T07:51:09.000Z</time>
      </trkpt>
      <trkpt lat="45.10449" lon="5.98951">
        <ele>1768</ele>
        <time>2024-10-15T07:51:10.000Z</time>
      </trkpt>
      <trkpt lat="45.10449" lon="5.98951">
        <ele>1768.1999511719</ele>
        <time>2024-10-15T07:51:11.000Z</time>
      </trkpt>
      <trkpt lat="45.10448" lon="5.98951">
        <ele>1768.4000244141</ele>
        <time>2024-10-15T07:51:12.000Z</time>
      </trkpt>
      <trkpt lat="45.10447" lon="5.9895">
        <ele>1768.8000488281</ele>
        <time>2024-10-15T07:51:13.000Z</time>
      </trkpt>
      <trkpt lat="45.10447" lon="5.98949">
        <ele>1769.1999511719</ele>
        <time>2024-10-15T07:51:14.000Z</time>
      </trkpt>
      <trkpt lat="45.10447" lon="5.98948">
        <ele>1769.4000244141</ele>
        <time>2024-10-15T07:51:15.000Z</time>
      </trkpt>
      <trkpt lat="45.10447" lon="5.98947">
        <ele>1769.8000488281</ele>
        <time>2024-10-15T07:51:16.000Z</time>
      </trkpt>
      <trkpt lat="45.10448" lon="5.98946">
        <ele>1770</ele>
        <time>2024-10-15T07:51:17.000Z</time>
      </trkpt>
      <trkpt lat="45.10448" lon="5.98945">
        <ele>1770</ele>
        <time>2024-10-15T07:51:18.000Z</time>
      </trkpt>
      <trkpt lat="45.10448" lon="5.98944">
        <ele>1770</ele>
        <time>2024-10-15T07:51:19.000Z</time>
      </trkpt>
      <trkpt lat="45.10449" lon="5.98943">
        <ele>1770</ele>
        <time>2024-10-15T07:51:20.000Z</time>
      </trkpt>
      <trkpt lat="45.10449" lon="5.98943">
        <ele>1769.8000488281</ele>
        <time>2024-10-15T07:51:21.000Z</time>
      </trkpt>
      <trkpt lat="45.10449" lon="5.98942">
        <ele>1769.8000488281</ele>
        <time>2024-10-15T07:51:22.000Z</time>
      </trkpt>
      <trkpt lat="45.10449" lon="5.98942">
        <ele>1769.8000488281</ele>
        <time>2024-10-15T07:51:23.000Z</time>
      </trkpt>
      <trkpt lat="45.10449" lon="5.98942">
        <ele>1769.8000488281</ele>
        <time>2024-10-15T07:51:24.000Z</time>
      </trkpt>
      <trkpt lat="45.10449" lon="5.98942">
        <ele>1769.8000488281</ele>
        <time>2024-10-15T07:51:25.000Z</time>
      </trkpt>
      <trkpt lat="45.10449" lon="5.98942">
        <ele>1769.8000488281</ele>
        <time>2024-10-15T07:51:26.000Z</time>
      </trkpt>
      <trkpt lat="45.10449" lon="5.98942">
        <ele>1769.5999755859</ele>
        <time>2024-10-15T07:51:27.000Z</time>
      </trkpt>
      <trkpt lat="45.10448" lon="5.98942">
        <ele>1769.5999755859</ele>
        <time>2024-10-15T07:51:28.000Z</time>
      </trkpt>
      <trkpt lat="45.10448" lon="5.98942">
        <ele>1769.5999755859</ele>
        <time>2024-10-15T07:51:29.000Z</time>
      </trkpt>
      <trkpt lat="45.10448" lon="5.98942">
        <ele>1769.5999755859</ele>
        <time>2024-10-15T07:51:30.000Z</time>
      </trkpt>
      <trkpt lat="45.10448" lon="5.98942">
        <ele>1769.5999755859</ele>
        <time>2024-10-15T07:51:31.000Z</time>
      </trkpt>
      <trkpt lat="45.10448" lon="5.98942">
        <ele>1769.5999755859</ele>
        <time>2024-10-15T07:51:32.000Z</time>
      </trkpt>
      <trkpt lat="45.10448" lon="5.98942">
        <ele>1769.5999755859</ele>
        <time>2024-10-15T07:51:33.000Z</time>
      </trkpt>
      <trkpt lat="45.10448" lon="5.98942">
        <ele>1769.5999755859</ele>
        <time>2024-10-15T07:51:34.000Z</time>
      </trkpt>
      <trkpt lat="45.10448" lon="5.98942">
        <ele>1769.4000244141</ele>
        <time>2024-10-15T07:51:35.000Z</time>
      </trkpt>
      <trkpt lat="45.10448" lon="5.98942">
        <ele>1769.4000244141</ele>
        <time>2024-10-15T07:51:36.000Z</time>
      </trkpt>
      <trkpt lat="45.10448" lon="5.98942">
        <ele>1769.4000244141</ele>
        <time>2024-10-15T07:51:37.000Z</time>
      </trkpt>
      <trkpt lat="45.10448" lon="5.98942">
        <ele>1769.4000244141</ele>
        <time>2024-10-15T07:51:38.000Z</time>
      </trkpt>
      <trkpt lat="45.10448" lon="5.98942">
        <ele>1769.1999511719</ele>
        <time>2024-10-15T07:51:39.000Z</time>
      </trkpt>
      <trkpt lat="45.10448" lon="5.98942">
        <ele>1769.1999511719</ele>
        <time>2024-10-15T07:51:40.000Z</time>
      </trkpt>
      <trkpt lat="45.10448" lon="5.98942">
        <ele>1769.1999511719</ele>
        <time>2024-10-15T07:51:41.000Z</time>
      </trkpt>
      <trkpt lat="45.10448" lon="5.98942">
        <ele>1769.1999511719</ele>
        <time>2024-10-15T07:51:42.000Z</time>
      </trkpt>
      <trkpt lat="45.10448" lon="5.98942">
        <ele>1769.1999511719</ele>
        <time>2024-10-15T07:51:43.000Z</time>
      </trkpt>
      <trkpt lat="45.10448" lon="5.98942">
        <ele>1769.1999511719</ele>
        <time>2024-10-15T07:51:44.000Z</time>
      </trkpt>
      <trkpt lat="45.10448" lon="5.98942">
        <ele>1769.1999511719</ele>
        <time>2024-10-15T07:51:45.000Z</time>
      </trkpt>
      <trkpt lat="45.10448" lon="5.98942">
        <ele>1769.1999511719</ele>
        <time>2024-10-15T07:51:46.000Z</time>
      </trkpt>
      <trkpt lat="45.10448" lon="5.98942">
        <ele>1769.1999511719</ele>
        <time>2024-10-15T07:51:47.000Z</time>
      </trkpt>
      <trkpt lat="45.10448" lon="5.98942">
        <ele>1769.4000244141</ele>
        <time>2024-10-15T07:51:48.000Z</time>
      </trkpt>
      <trkpt lat="45.10448" lon="5.98942">
        <ele>1769.4000244141</ele>
        <time>2024-10-15T07:51:49.000Z</time>
      </trkpt>
      <trkpt lat="45.10448" lon="5.98942">
        <ele>1769.4000244141</ele>
        <time>2024-10-15T07:51:50.000Z</time>
      </trkpt>
      <trkpt lat="45.10448" lon="5.98942">
        <ele>1769.4000244141</ele>
        <time>2024-10-15T07:51:51.000Z</time>
      </trkpt>
      <trkpt lat="45.10448" lon="5.98942">
        <ele>1769.5999755859</ele>
        <time>2024-10-15T07:51:52.000Z</time>
      </trkpt>
      <trkpt lat="45.10448" lon="5.98942">
        <ele>1769.5999755859</ele>
        <time>2024-10-15T07:51:53.000Z</time>
      </trkpt>
      <trkpt lat="45.10448" lon="5.98942">
        <ele>1769.5999755859</ele>
        <time>2024-10-15T07:51:54.000Z</time>
      </trkpt>
      <trkpt lat="45.10448" lon="5.98942">
        <ele>1769.5999755859</ele>
        <time>2024-10-15T07:51:55.000Z</time>
      </trkpt>
      <trkpt lat="45.10448" lon="5.98942">
        <ele>1769.5999755859</ele>
        <time>2024-10-15T07:51:56.000Z</time>
      </trkpt>
      <trkpt lat="45.10448" lon="5.98942">
        <ele>1769.5999755859</ele>
        <time>2024-10-15T07:51:57.000Z</time>
      </trkpt>
      <trkpt lat="45.10448" lon="5.98942">
        <ele>1769.5999755859</ele>
        <time>2024-10-15T07:51:58.000Z</time>
      </trkpt>
      <trkpt lat="45.10448" lon="5.98942">
        <ele>1769.5999755859</ele>
        <time>2024-10-15T07:51:59.000Z</time>
      </trkpt>
      <trkpt lat="45.10448" lon="5.98942">
        <ele>1769.5999755859</ele>
        <time>2024-10-15T07:52:00.000Z</time>
      </trkpt>
      <trkpt lat="45.10448" lon="5.98942">
        <ele>1769.8000488281</ele>
        <time>2024-10-15T07:52:01.000Z</time>
      </trkpt>
      <trkpt lat="45.10448" lon="5.98942">
        <ele>1769.8000488281</ele>
        <time>2024-10-15T07:52:02.000Z</time>
      </trkpt>
      <trkpt lat="45.10448" lon="5.98942">
        <ele>1769.8000488281</ele>
        <time>2024-10-15T07:52:03.000Z</time>
      </trkpt>
      <trkpt lat="45.10448" lon="5.98942">
        <ele>1769.8000488281</ele>
        <time>2024-10-15T07:52:04.000Z</time>
      </trkpt>
      <trkpt lat="45.10448" lon="5.98942">
        <ele>1770</ele>
        <time>2024-10-15T07:52:05.000Z</time>
      </trkpt>
      <trkpt lat="45.10448" lon="5.98942">
        <ele>1770</ele>
        <time>2024-10-15T07:52:06.000Z</time>
      </trkpt>
      <trkpt lat="45.10448" lon="5.98943">
        <ele>1770</ele>
        <time>2024-10-15T07:52:07.000Z</time>
      </trkpt>
      <trkpt lat="45.10448" lon="5.98943">
        <ele>1770</ele>
        <time>2024-10-15T07:52:08.000Z</time>
      </trkpt>
      <trkpt lat="45.10447" lon="5.98943">
        <ele>1770</ele>
        <time>2024-10-15T07:52:09.000Z</time>
      </trkpt>
      <trkpt lat="45.10447" lon="5.98943">
        <ele>1770</ele>
        <time>2024-10-15T07:52:10.000Z</time>
      </trkpt>
      <trkpt lat="45.10447" lon="5.98944">
        <ele>1770</ele>
        <time>2024-10-15T07:52:11.000Z</time>
      </trkpt>
      <trkpt lat="45.10447" lon="5.98944">
        <ele>1770.1999511719</ele>
        <time>2024-10-15T07:52:12.000Z</time>
      </trkpt>
      <trkpt lat="45.10447" lon="5.98945">
        <ele>1770.4000244141</ele>
        <time>2024-10-15T07:52:13.000Z</time>
      </trkpt>
      <trkpt lat="45.10447" lon="5.98945">
        <ele>1770.5999755859</ele>
        <time>2024-10-15T07:52:14.000Z</time>
      </trkpt>
      <trkpt lat="45.10447" lon="5.98945">
        <ele>1770.5999755859</ele>
        <time>2024-10-15T07:52:15.000Z</time>
      </trkpt>
      <trkpt lat="45.10447" lon="5.98945">
        <ele>1770.5999755859</ele>
        <time>2024-10-15T07:52:16.000Z</time>
      </trkpt>
      <trkpt lat="45.10447" lon="5.98945">
        <ele>1770.5999755859</ele>
        <time>2024-10-15T07:52:17.000Z</time>
      </trkpt>
      <trkpt lat="45.10447" lon="5.98945">
        <ele>1770.5999755859</ele>
        <time>2024-10-15T07:52:18.000Z</time>
      </trkpt>
      <trkpt lat="45.10447" lon="5.98945">
        <ele>1770.5999755859</ele>
        <time>2024-10-15T07:52:19.000Z</time>
      </trkpt>
      <trkpt lat="45.10447" lon="5.98945">
        <ele>1770.5999755859</ele>
        <time>2024-10-15T07:52:20.000Z</time>
      </trkpt>
      <trkpt lat="45.10447" lon="5.98945">
        <ele>1770.5999755859</ele>
        <time>2024-10-15T07:52:21.000Z</time>
      </trkpt>
      <trkpt lat="45.10447" lon="5.98945">
        <ele>1770.5999755859</ele>
        <time>2024-10-15T07:52:22.000Z</time>
      </trkpt>
      <trkpt lat="45.10447" lon="5.98945">
        <ele>1770.5999755859</ele>
        <time>2024-10-15T07:52:23.000Z</time>
      </trkpt>
      <trkpt lat="45.10447" lon="5.98945">
        <ele>1770.5999755859</ele>
        <time>2024-10-15T07:52:24.000Z</time>
      </trkpt>
      <trkpt lat="45.10447" lon="5.98945">
        <ele>1770.4000244141</ele>
        <time>2024-10-15T07:52:25.000Z</time>
      </trkpt>
      <trkpt lat="45.10447" lon="5.98945">
        <ele>1770.4000244141</ele>
        <time>2024-10-15T07:52:26.000Z</time>
      </trkpt>
      <trkpt lat="45.10447" lon="5.98945">
        <ele>1770.5999755859</ele>
        <time>2024-10-15T07:52:27.000Z</time>
      </trkpt>
      <trkpt lat="45.10447" lon="5.98945">
        <ele>1770.5999755859</ele>
        <time>2024-10-15T07:52:28.000Z</time>
      </trkpt>
      <trkpt lat="45.10447" lon="5.98945">
        <ele>1770.5999755859</ele>
        <time>2024-10-15T07:52:29.000Z</time>
      </trkpt>
      <trkpt lat="45.10446" lon="5.98945">
        <ele>1770.5999755859</ele>
        <time>2024-10-15T07:52:30.000Z</time>
      </trkpt>
      <trkpt lat="45.10446" lon="5.98945">
        <ele>1770.5999755859</ele>
        <time>2024-10-15T07:52:31.000Z</time>
      </trkpt>
      <trkpt lat="45.10446" lon="5.98945">
        <ele>1770.4000244141</ele>
        <time>2024-10-15T07:52:32.000Z</time>
      </trkpt>
      <trkpt lat="45.10446" lon="5.98945">
        <ele>1770</ele>
        <time>2024-10-15T07:52:33.000Z</time>
      </trkpt>
      <trkpt lat="45.10446" lon="5.98945">
        <ele>1769.8000488281</ele>
        <time>2024-10-15T07:52:34.000Z</time>
      </trkpt>
      <trkpt lat="45.10446" lon="5.98945">
        <ele>1770</ele>
        <time>2024-10-15T07:52:35.000Z</time>
      </trkpt>
      <trkpt lat="45.10446" lon="5.98945">
        <ele>1770</ele>
        <time>2024-10-15T07:52:36.000Z</time>
      </trkpt>
      <trkpt lat="45.10446" lon="5.98945">
        <ele>1770</ele>
        <time>2024-10-15T07:52:37.000Z</time>
      </trkpt>
      <trkpt lat="45.10446" lon="5.98945">
        <ele>1770</ele>
        <time>2024-10-15T07:52:38.000Z</time>
      </trkpt>
      <trkpt lat="45.10446" lon="5.98945">
        <ele>1770</ele>
        <time>2024-10-15T07:52:39.000Z</time>
      </trkpt>
      <trkpt lat="45.10446" lon="5.98945">
        <ele>1770.1999511719</ele>
        <time>2024-10-15T07:52:40.000Z</time>
      </trkpt>
      <trkpt lat="45.10446" lon="5.98945">
        <ele>1770.1999511719</ele>
        <time>2024-10-15T07:52:41.000Z</time>
      </trkpt>
      <trkpt lat="45.10446" lon="5.98945">
        <ele>1770.1999511719</ele>
        <time>2024-10-15T07:52:42.000Z</time>
      </trkpt>
      <trkpt lat="45.10446" lon="5.98944">
        <ele>1770.1999511719</ele>
        <time>2024-10-15T07:52:43.000Z</time>
      </trkpt>
      <trkpt lat="45.10446" lon="5.98944">
        <ele>1770.4000244141</ele>
        <time>2024-10-15T07:52:44.000Z</time>
      </trkpt>
      <trkpt lat="45.10446" lon="5.98944">
        <ele>1770.4000244141</ele>
        <time>2024-10-15T07:52:45.000Z</time>
      </trkpt>
      <trkpt lat="45.10447" lon="5.98944">
        <ele>1770.4000244141</ele>
        <time>2024-10-15T07:52:46.000Z</time>
      </trkpt>
      <trkpt lat="45.10447" lon="5.98944">
        <ele>1770.4000244141</ele>
        <time>2024-10-15T07:52:47.000Z</time>
      </trkpt>
      <trkpt lat="45.10447" lon="5.98944">
        <ele>1770.5999755859</ele>
        <time>2024-10-15T07:52:48.000Z</time>
      </trkpt>
      <trkpt lat="45.10447" lon="5.98944">
        <ele>1770.5999755859</ele>
        <time>2024-10-15T07:52:49.000Z</time>
      </trkpt>
      <trkpt lat="45.10447" lon="5.98944">
        <ele>1770.8000488281</ele>
        <time>2024-10-15T07:52:50.000Z</time>
      </trkpt>
      <trkpt lat="45.10447" lon="5.98944">
        <ele>1771</ele>
        <time>2024-10-15T07:52:51.000Z</time>
      </trkpt>
      <trkpt lat="45.10447" lon="5.98943">
        <ele>1771</ele>
        <time>2024-10-15T07:52:52.000Z</time>
      </trkpt>
      <trkpt lat="45.10448" lon="5.9894">
        <ele>1771</ele>
        <time>2024-10-15T07:52:53.000Z</time>
      </trkpt>
      <trkpt lat="45.10449" lon="5.98937">
        <ele>1771</ele>
        <time>2024-10-15T07:52:54.000Z</time>
      </trkpt>
      <trkpt lat="45.10449" lon="5.98935">
        <ele>1771</ele>
        <time>2024-10-15T07:52:55.000Z</time>
      </trkpt>
      <trkpt lat="45.10449" lon="5.98933">
        <ele>1770.8000488281</ele>
        <time>2024-10-15T07:52:56.000Z</time>
      </trkpt>
      <trkpt lat="45.1045" lon="5.98932">
        <ele>1770.8000488281</ele>
        <time>2024-10-15T07:52:57.000Z</time>
      </trkpt>
      <trkpt lat="45.1045" lon="5.98931">
        <ele>1770.8000488281</ele>
        <time>2024-10-15T07:52:58.000Z</time>
      </trkpt>
      <trkpt lat="45.10451" lon="5.9893">
        <ele>1771</ele>
        <time>2024-10-15T07:52:59.000Z</time>
      </trkpt>
      <trkpt lat="45.10451" lon="5.98929">
        <ele>1771</ele>
        <time>2024-10-15T07:53:00.000Z</time>
      </trkpt>
      <trkpt lat="45.10451" lon="5.98928">
        <ele>1771.1999511719</ele>
        <time>2024-10-15T07:53:01.000Z</time>
      </trkpt>
      <trkpt lat="45.10452" lon="5.98928">
        <ele>1771.1999511719</ele>
        <time>2024-10-15T07:53:02.000Z</time>
      </trkpt>
      <trkpt lat="45.10452" lon="5.98928">
        <ele>1771.4000244141</ele>
        <time>2024-10-15T07:53:03.000Z</time>
      </trkpt>
      <trkpt lat="45.10452" lon="5.98928">
        <ele>1771.4000244141</ele>
        <time>2024-10-15T07:53:04.000Z</time>
      </trkpt>
      <trkpt lat="45.10451" lon="5.98928">
        <ele>1771.4000244141</ele>
        <time>2024-10-15T07:53:05.000Z</time>
      </trkpt>
      <trkpt lat="45.10452" lon="5.98928">
        <ele>1771.5999755859</ele>
        <time>2024-10-15T07:53:06.000Z</time>
      </trkpt>
      <trkpt lat="45.10452" lon="5.98928">
        <ele>1771.5999755859</ele>
        <time>2024-10-15T07:53:07.000Z</time>
      </trkpt>
      <trkpt lat="45.10452" lon="5.98928">
        <ele>1771.5999755859</ele>
        <time>2024-10-15T07:53:08.000Z</time>
      </trkpt>
      <trkpt lat="45.10452" lon="5.98928">
        <ele>1771.5999755859</ele>
        <time>2024-10-15T07:53:09.000Z</time>
      </trkpt>
      <trkpt lat="45.10452" lon="5.98928">
        <ele>1771.5999755859</ele>
        <time>2024-10-15T07:53:10.000Z</time>
      </trkpt>
      <trkpt lat="45.10452" lon="5.98928">
        <ele>1771.5999755859</ele>
        <time>2024-10-15T07:53:11.000Z</time>
      </trkpt>
      <trkpt lat="45.10452" lon="5.98928">
        <ele>1771.8000488281</ele>
        <time>2024-10-15T07:53:12.000Z</time>
      </trkpt>
      <trkpt lat="45.10452" lon="5.98928">
        <ele>1771.8000488281</ele>
        <time>2024-10-15T07:53:13.000Z</time>
      </trkpt>
      <trkpt lat="45.10452" lon="5.98928">
        <ele>1771.5999755859</ele>
        <time>2024-10-15T07:53:14.000Z</time>
      </trkpt>
      <trkpt lat="45.10452" lon="5.98928">
        <ele>1771.5999755859</ele>
        <time>2024-10-15T07:53:15.000Z</time>
      </trkpt>
      <trkpt lat="45.10452" lon="5.98928">
        <ele>1771.5999755859</ele>
        <time>2024-10-15T07:53:16.000Z</time>
      </trkpt>
      <trkpt lat="45.10452" lon="5.98928">
        <ele>1771.5999755859</ele>
        <time>2024-10-15T07:53:17.000Z</time>
      </trkpt>
      <trkpt lat="45.10452" lon="5.98928">
        <ele>1771.5999755859</ele>
        <time>2024-10-15T07:53:18.000Z</time>
      </trkpt>
      <trkpt lat="45.10452" lon="5.98928">
        <ele>1771.5999755859</ele>
        <time>2024-10-15T07:53:19.000Z</time>
      </trkpt>
      <trkpt lat="45.10452" lon="5.98928">
        <ele>1771.5999755859</ele>
        <time>2024-10-15T07:53:20.000Z</time>
      </trkpt>
      <trkpt lat="45.10452" lon="5.98928">
        <ele>1771.5999755859</ele>
        <time>2024-10-15T07:53:21.000Z</time>
      </trkpt>
      <trkpt lat="45.10452" lon="5.98928">
        <ele>1771.8000488281</ele>
        <time>2024-10-15T07:53:22.000Z</time>
      </trkpt>
      <trkpt lat="45.10452" lon="5.98928">
        <ele>1771.8000488281</ele>
        <time>2024-10-15T07:53:23.000Z</time>
      </trkpt>
      <trkpt lat="45.10451" lon="5.98928">
        <ele>1771.8000488281</ele>
        <time>2024-10-15T07:53:24.000Z</time>
      </trkpt>
      <trkpt lat="45.10451" lon="5.98928">
        <ele>1771.8000488281</ele>
        <time>2024-10-15T07:53:25.000Z</time>
      </trkpt>
      <trkpt lat="45.10451" lon="5.98928">
        <ele>1771.8000488281</ele>
        <time>2024-10-15T07:53:26.000Z</time>
      </trkpt>
      <trkpt lat="45.10451" lon="5.98928">
        <ele>1771.8000488281</ele>
        <time>2024-10-15T07:53:27.000Z</time>
      </trkpt>
      <trkpt lat="45.10451" lon="5.98928">
        <ele>1771.8000488281</ele>
        <time>2024-10-15T07:53:28.000Z</time>
      </trkpt>
      <trkpt lat="45.10451" lon="5.98928">
        <ele>1771.8000488281</ele>
        <time>2024-10-15T07:53:29.000Z</time>
      </trkpt>
      <trkpt lat="45.10451" lon="5.98928">
        <ele>1771.8000488281</ele>
        <time>2024-10-15T07:53:30.000Z</time>
      </trkpt>
      <trkpt lat="45.10451" lon="5.98928">
        <ele>1771.8000488281</ele>
        <time>2024-10-15T07:53:31.000Z</time>
      </trkpt>
      <trkpt lat="45.10451" lon="5.98928">
        <ele>1771.8000488281</ele>
        <time>2024-10-15T07:53:32.000Z</time>
      </trkpt>
      <trkpt lat="45.10451" lon="5.98928">
        <ele>1771.5999755859</ele>
        <time>2024-10-15T07:53:33.000Z</time>
      </trkpt>
      <trkpt lat="45.10451" lon="5.98928">
        <ele>1771.5999755859</ele>
        <time>2024-10-15T07:53:34.000Z</time>
      </trkpt>
      <trkpt lat="45.10451" lon="5.98928">
        <ele>1771.5999755859</ele>
        <time>2024-10-15T07:53:35.000Z</time>
      </trkpt>
      <trkpt lat="45.10451" lon="5.98928">
        <ele>1771.5999755859</ele>
        <time>2024-10-15T07:53:36.000Z</time>
      </trkpt>
      <trkpt lat="45.10451" lon="5.98928">
        <ele>1771.5999755859</ele>
        <time>2024-10-15T07:53:37.000Z</time>
      </trkpt>
      <trkpt lat="45.10451" lon="5.98928">
        <ele>1771.5999755859</ele>
        <time>2024-10-15T07:53:38.000Z</time>
      </trkpt>
      <trkpt lat="45.10451" lon="5.98928">
        <ele>1771.4000244141</ele>
        <time>2024-10-15T07:53:39.000Z</time>
      </trkpt>
      <trkpt lat="45.10451" lon="5.98928">
        <ele>1771.1999511719</ele>
        <time>2024-10-15T07:53:40.000Z</time>
      </trkpt>
      <trkpt lat="45.10451" lon="5.98928">
        <ele>1771</ele>
        <time>2024-10-15T07:53:41.000Z</time>
      </trkpt>
      <trkpt lat="45.10451" lon="5.98928">
        <ele>1770.5999755859</ele>
        <time>2024-10-15T07:53:42.000Z</time>
      </trkpt>
      <trkpt lat="45.10451" lon="5.98928">
        <ele>1770.1999511719</ele>
        <time>2024-10-15T07:53:43.000Z</time>
      </trkpt>
      <trkpt lat="45.10451" lon="5.98928">
        <ele>1770</ele>
        <time>2024-10-15T07:53:44.000Z</time>
      </trkpt>
      <trkpt lat="45.10451" lon="5.98928">
        <ele>1769.8000488281</ele>
        <time>2024-10-15T07:53:45.000Z</time>
      </trkpt>
      <trkpt lat="45.10451" lon="5.98928">
        <ele>1769.5999755859</ele>
        <time>2024-10-15T07:53:46.000Z</time>
      </trkpt>
      <trkpt lat="45.10451" lon="5.98928">
        <ele>1769.4000244141</ele>
        <time>2024-10-15T07:53:47.000Z</time>
      </trkpt>
      <trkpt lat="45.10451" lon="5.98928">
        <ele>1769.4000244141</ele>
        <time>2024-10-15T07:53:48.000Z</time>
      </trkpt>
      <trkpt lat="45.10452" lon="5.98928">
        <ele>1769.1999511719</ele>
        <time>2024-10-15T07:53:49.000Z</time>
      </trkpt>
      <trkpt lat="45.10452" lon="5.98928">
        <ele>1769.1999511719</ele>
        <time>2024-10-15T07:53:50.000Z</time>
      </trkpt>
      <trkpt lat="45.10452" lon="5.98928">
        <ele>1769</ele>
        <time>2024-10-15T07:53:51.000Z</time>
      </trkpt>
      <trkpt lat="45.10452" lon="5.98928">
        <ele>1768.8000488281</ele>
        <time>2024-10-15T07:53:52.000Z</time>
      </trkpt>
      <trkpt lat="45.10452" lon="5.98927">
        <ele>1768.4000244141</ele>
        <time>2024-10-15T07:53:53.000Z</time>
      </trkpt>
      <trkpt lat="45.10452" lon="5.98927">
        <ele>1768.1999511719</ele>
        <time>2024-10-15T07:53:54.000Z</time>
      </trkpt>
      <trkpt lat="45.10452" lon="5.98926">
        <ele>1768</ele>
        <time>2024-10-15T07:53:55.000Z</time>
      </trkpt>
      <trkpt lat="45.10452" lon="5.98925">
        <ele>1767.8000488281</ele>
        <time>2024-10-15T07:53:56.000Z</time>
      </trkpt>
      <trkpt lat="45.10453" lon="5.98924">
        <ele>1767.4000244141</ele>
        <time>2024-10-15T07:53:57.000Z</time>
      </trkpt>
      <trkpt lat="45.10453" lon="5.98923">
        <ele>1767.1999511719</ele>
        <time>2024-10-15T07:53:58.000Z</time>
      </trkpt>
      <trkpt lat="45.10453" lon="5.98922">
        <ele>1767.1999511719</ele>
        <time>2024-10-15T07:53:59.000Z</time>
      </trkpt>
      <trkpt lat="45.10453" lon="5.98922">
        <ele>1767.1999511719</ele>
        <time>2024-10-15T07:54:00.000Z</time>
      </trkpt>
      <trkpt lat="45.10453" lon="5.98921">
        <ele>1766.8000488281</ele>
        <time>2024-10-15T07:54:01.000Z</time>
      </trkpt>
      <trkpt lat="45.10453" lon="5.9892">
        <ele>1766.8000488281</ele>
        <time>2024-10-15T07:54:02.000Z</time>
      </trkpt>
      <trkpt lat="45.10453" lon="5.98919">
        <ele>1766.8000488281</ele>
        <time>2024-10-15T07:54:03.000Z</time>
      </trkpt>
      <trkpt lat="45.10453" lon="5.98918">
        <ele>1766.5999755859</ele>
        <time>2024-10-15T07:54:04.000Z</time>
      </trkpt>
      <trkpt lat="45.10453" lon="5.98917">
        <ele>1766.5999755859</ele>
        <time>2024-10-15T07:54:05.000Z</time>
      </trkpt>
      <trkpt lat="45.10453" lon="5.98917">
        <ele>1766.4000244141</ele>
        <time>2024-10-15T07:54:06.000Z</time>
      </trkpt>
      <trkpt lat="45.10453" lon="5.98917">
        <ele>1766.1999511719</ele>
        <time>2024-10-15T07:54:07.000Z</time>
      </trkpt>
      <trkpt lat="45.10453" lon="5.98916">
        <ele>1765.8000488281</ele>
        <time>2024-10-15T07:54:08.000Z</time>
      </trkpt>
      <trkpt lat="45.10453" lon="5.98916">
        <ele>1765.8000488281</ele>
        <time>2024-10-15T07:54:09.000Z</time>
      </trkpt>
      <trkpt lat="45.10453" lon="5.98915">
        <ele>1765.8000488281</ele>
        <time>2024-10-15T07:54:10.000Z</time>
      </trkpt>
      <trkpt lat="45.10453" lon="5.98915">
        <ele>1765.8000488281</ele>
        <time>2024-10-15T07:54:11.000Z</time>
      </trkpt>
      <trkpt lat="45.10453" lon="5.98915">
        <ele>1765.5999755859</ele>
        <time>2024-10-15T07:54:12.000Z</time>
      </trkpt>
      <trkpt lat="45.10453" lon="5.98914">
        <ele>1765.5999755859</ele>
        <time>2024-10-15T07:54:13.000Z</time>
      </trkpt>
      <trkpt lat="45.10453" lon="5.98914">
        <ele>1765.5999755859</ele>
        <time>2024-10-15T07:54:14.000Z</time>
      </trkpt>
      <trkpt lat="45.10452" lon="5.98913">
        <ele>1765.5999755859</ele>
        <time>2024-10-15T07:54:15.000Z</time>
      </trkpt>
      <trkpt lat="45.10452" lon="5.98913">
        <ele>1765.5999755859</ele>
        <time>2024-10-15T07:54:16.000Z</time>
      </trkpt>
      <trkpt lat="45.10452" lon="5.98912">
        <ele>1765.4000244141</ele>
        <time>2024-10-15T07:54:17.000Z</time>
      </trkpt>
      <trkpt lat="45.10452" lon="5.98912">
        <ele>1765.4000244141</ele>
        <time>2024-10-15T07:54:18.000Z</time>
      </trkpt>
      <trkpt lat="45.10452" lon="5.98912">
        <ele>1765.4000244141</ele>
        <time>2024-10-15T07:54:19.000Z</time>
      </trkpt>
      <trkpt lat="45.10451" lon="5.98911">
        <ele>1765.4000244141</ele>
        <time>2024-10-15T07:54:20.000Z</time>
      </trkpt>
      <trkpt lat="45.10451" lon="5.98911">
        <ele>1765.4000244141</ele>
        <time>2024-10-15T07:54:21.000Z</time>
      </trkpt>
      <trkpt lat="45.10451" lon="5.98911">
        <ele>1765.1999511719</ele>
        <time>2024-10-15T07:54:22.000Z</time>
      </trkpt>
      <trkpt lat="45.10451" lon="5.98911">
        <ele>1765</ele>
        <time>2024-10-15T07:54:23.000Z</time>
      </trkpt>
      <trkpt lat="45.10451" lon="5.98911">
        <ele>1765</ele>
        <time>2024-10-15T07:54:24.000Z</time>
      </trkpt>
      <trkpt lat="45.10451" lon="5.98911">
        <ele>1764.8000488281</ele>
        <time>2024-10-15T07:54:25.000Z</time>
      </trkpt>
      <trkpt lat="45.10451" lon="5.9891">
        <ele>1764.5999755859</ele>
        <time>2024-10-15T07:54:26.000Z</time>
      </trkpt>
      <trkpt lat="45.10451" lon="5.9891">
        <ele>1764.5999755859</ele>
        <time>2024-10-15T07:54:27.000Z</time>
      </trkpt>
      <trkpt lat="45.10451" lon="5.9891">
        <ele>1764.4000244141</ele>
        <time>2024-10-15T07:54:28.000Z</time>
      </trkpt>
      <trkpt lat="45.1045" lon="5.9891">
        <ele>1764.4000244141</ele>
        <time>2024-10-15T07:54:29.000Z</time>
      </trkpt>
      <trkpt lat="45.1045" lon="5.9891">
        <ele>1764.4000244141</ele>
        <time>2024-10-15T07:54:30.000Z</time>
      </trkpt>
      <trkpt lat="45.1045" lon="5.9891">
        <ele>1764.4000244141</ele>
        <time>2024-10-15T07:54:31.000Z</time>
      </trkpt>
      <trkpt lat="45.1045" lon="5.9891">
        <ele>1764.4000244141</ele>
        <time>2024-10-15T07:54:32.000Z</time>
      </trkpt>
      <trkpt lat="45.1045" lon="5.98909">
        <ele>1764.4000244141</ele>
        <time>2024-10-15T07:54:33.000Z</time>
      </trkpt>
      <trkpt lat="45.1045" lon="5.98909">
        <ele>1764.4000244141</ele>
        <time>2024-10-15T07:54:34.000Z</time>
      </trkpt>
      <trkpt lat="45.1045" lon="5.98909">
        <ele>1764.4000244141</ele>
        <time>2024-10-15T07:54:35.000Z</time>
      </trkpt>
      <trkpt lat="45.1045" lon="5.98909">
        <ele>1764.4000244141</ele>
        <time>2024-10-15T07:54:36.000Z</time>
      </trkpt>
      <trkpt lat="45.1045" lon="5.98909">
        <ele>1764.4000244141</ele>
        <time>2024-10-15T07:54:37.000Z</time>
      </trkpt>
      <trkpt lat="45.1045" lon="5.98909">
        <ele>1764.4000244141</ele>
        <time>2024-10-15T07:54:38.000Z</time>
      </trkpt>
      <trkpt lat="45.1045" lon="5.98909">
        <ele>1764.4000244141</ele>
        <time>2024-10-15T07:54:39.000Z</time>
      </trkpt>
      <trkpt lat="45.1045" lon="5.98909">
        <ele>1764.4000244141</ele>
        <time>2024-10-15T07:54:40.000Z</time>
      </trkpt>
      <trkpt lat="45.10449" lon="5.98909">
        <ele>1764.4000244141</ele>
        <time>2024-10-15T07:54:41.000Z</time>
      </trkpt>
      <trkpt lat="45.10449" lon="5.98909">
        <ele>1764.5999755859</ele>
        <time>2024-10-15T07:54:42.000Z</time>
      </trkpt>
      <trkpt lat="45.10449" lon="5.98909">
        <ele>1764.8000488281</ele>
        <time>2024-10-15T07:54:43.000Z</time>
      </trkpt>
      <trkpt lat="45.10448" lon="5.98909">
        <ele>1765</ele>
        <time>2024-10-15T07:54:44.000Z</time>
      </trkpt>
      <trkpt lat="45.10448" lon="5.98909">
        <ele>1765.1999511719</ele>
        <time>2024-10-15T07:54:45.000Z</time>
      </trkpt>
      <trkpt lat="45.10448" lon="5.98909">
        <ele>1765.5999755859</ele>
        <time>2024-10-15T07:54:46.000Z</time>
      </trkpt>
      <trkpt lat="45.10448" lon="5.98908">
        <ele>1765.8000488281</ele>
        <time>2024-10-15T07:54:47.000Z</time>
      </trkpt>
      <trkpt lat="45.10448" lon="5.98908">
        <ele>1766</ele>
        <time>2024-10-15T07:54:48.000Z</time>
      </trkpt>
      <trkpt lat="45.10448" lon="5.98908">
        <ele>1766.1999511719</ele>
        <time>2024-10-15T07:54:49.000Z</time>
      </trkpt>
      <trkpt lat="45.10448" lon="5.98908">
        <ele>1766.4000244141</ele>
        <time>2024-10-15T07:54:50.000Z</time>
      </trkpt>
      <trkpt lat="45.10448" lon="5.98908">
        <ele>1766.8000488281</ele>
        <time>2024-10-15T07:54:51.000Z</time>
      </trkpt>
      <trkpt lat="45.10447" lon="5.98908">
        <ele>1767</ele>
        <time>2024-10-15T07:54:52.000Z</time>
      </trkpt>
      <trkpt lat="45.10447" lon="5.98907">
        <ele>1767.1999511719</ele>
        <time>2024-10-15T07:54:53.000Z</time>
      </trkpt>
      <trkpt lat="45.10446" lon="5.98907">
        <ele>1767.5999755859</ele>
        <time>2024-10-15T07:54:54.000Z</time>
      </trkpt>
      <trkpt lat="45.10446" lon="5.98907">
        <ele>1767.5999755859</ele>
        <time>2024-10-15T07:54:55.000Z</time>
      </trkpt>
      <trkpt lat="45.10446" lon="5.98906">
        <ele>1768</ele>
        <time>2024-10-15T07:54:56.000Z</time>
      </trkpt>
      <trkpt lat="45.10445" lon="5.98906">
        <ele>1768.1999511719</ele>
        <time>2024-10-15T07:54:57.000Z</time>
      </trkpt>
      <trkpt lat="45.10445" lon="5.98906">
        <ele>1768.5999755859</ele>
        <time>2024-10-15T07:54:58.000Z</time>
      </trkpt>
      <trkpt lat="45.10444" lon="5.98905">
        <ele>1768.5999755859</ele>
        <time>2024-10-15T07:54:59.000Z</time>
      </trkpt>
      <trkpt lat="45.10444" lon="5.98905">
        <ele>1768.8000488281</ele>
        <time>2024-10-15T07:55:00.000Z</time>
      </trkpt>
      <trkpt lat="45.10444" lon="5.98905">
        <ele>1769</ele>
        <time>2024-10-15T07:55:01.000Z</time>
      </trkpt>
      <trkpt lat="45.10444" lon="5.98905">
        <ele>1769.4000244141</ele>
        <time>2024-10-15T07:55:02.000Z</time>
      </trkpt>
      <trkpt lat="45.10443" lon="5.98904">
        <ele>1769.5999755859</ele>
        <time>2024-10-15T07:55:03.000Z</time>
      </trkpt>
      <trkpt lat="45.10443" lon="5.98904">
        <ele>1769.5999755859</ele>
        <time>2024-10-15T07:55:04.000Z</time>
      </trkpt>
      <trkpt lat="45.10443" lon="5.98904">
        <ele>1769.5999755859</ele>
        <time>2024-10-15T07:55:05.000Z</time>
      </trkpt>
      <trkpt lat="45.10443" lon="5.98904">
        <ele>1769.8000488281</ele>
        <time>2024-10-15T07:55:06.000Z</time>
      </trkpt>
      <trkpt lat="45.10443" lon="5.98904">
        <ele>1770.1999511719</ele>
        <time>2024-10-15T07:55:07.000Z</time>
      </trkpt>
      <trkpt lat="45.10442" lon="5.98904">
        <ele>1770.1999511719</ele>
        <time>2024-10-15T07:55:08.000Z</time>
      </trkpt>
      <trkpt lat="45.10442" lon="5.98903">
        <ele>1770.5999755859</ele>
        <time>2024-10-15T07:55:09.000Z</time>
      </trkpt>
      <trkpt lat="45.10442" lon="5.98903">
        <ele>1770.5999755859</ele>
        <time>2024-10-15T07:55:10.000Z</time>
      </trkpt>
      <trkpt lat="45.10441" lon="5.98902">
        <ele>1770.8000488281</ele>
        <time>2024-10-15T07:55:11.000Z</time>
      </trkpt>
      <trkpt lat="45.10441" lon="5.98902">
        <ele>1771</ele>
        <time>2024-10-15T07:55:12.000Z</time>
      </trkpt>
      <trkpt lat="45.10441" lon="5.98902">
        <ele>1771</ele>
        <time>2024-10-15T07:55:13.000Z</time>
      </trkpt>
      <trkpt lat="45.1044" lon="5.98902">
        <ele>1771.1999511719</ele>
        <time>2024-10-15T07:55:14.000Z</time>
      </trkpt>
      <trkpt lat="45.1044" lon="5.98902">
        <ele>1771.5999755859</ele>
        <time>2024-10-15T07:55:15.000Z</time>
      </trkpt>
      <trkpt lat="45.1044" lon="5.98902">
        <ele>1771.5999755859</ele>
        <time>2024-10-15T07:55:16.000Z</time>
      </trkpt>
      <trkpt lat="45.1044" lon="5.98902">
        <ele>1771.5999755859</ele>
        <time>2024-10-15T07:55:17.000Z</time>
      </trkpt>
      <trkpt lat="45.10439" lon="5.98902">
        <ele>1771.8000488281</ele>
        <time>2024-10-15T07:55:18.000Z</time>
      </trkpt>
      <trkpt lat="45.10439" lon="5.98902">
        <ele>1771.8000488281</ele>
        <time>2024-10-15T07:55:19.000Z</time>
      </trkpt>
      <trkpt lat="45.10439" lon="5.98901">
        <ele>1772</ele>
        <time>2024-10-15T07:55:20.000Z</time>
      </trkpt>
      <trkpt lat="45.10439" lon="5.98901">
        <ele>1772.1999511719</ele>
        <time>2024-10-15T07:55:21.000Z</time>
      </trkpt>
      <trkpt lat="45.10439" lon="5.98901">
        <ele>1772.1999511719</ele>
        <time>2024-10-15T07:55:22.000Z</time>
      </trkpt>
      <trkpt lat="45.10439" lon="5.98901">
        <ele>1772.4000244141</ele>
        <time>2024-10-15T07:55:23.000Z</time>
      </trkpt>
      <trkpt lat="45.10438" lon="5.98901">
        <ele>1772.5999755859</ele>
        <time>2024-10-15T07:55:24.000Z</time>
      </trkpt>
      <trkpt lat="45.10438" lon="5.98901">
        <ele>1772.5999755859</ele>
        <time>2024-10-15T07:55:25.000Z</time>
      </trkpt>
      <trkpt lat="45.10438" lon="5.989">
        <ele>1773</ele>
        <time>2024-10-15T07:55:26.000Z</time>
      </trkpt>
      <trkpt lat="45.10438" lon="5.989">
        <ele>1773.4000244141</ele>
        <time>2024-10-15T07:55:27.000Z</time>
      </trkpt>
      <trkpt lat="45.10438" lon="5.98899">
        <ele>1773.4000244141</ele>
        <time>2024-10-15T07:55:28.000Z</time>
      </trkpt>
      <trkpt lat="45.10438" lon="5.98899">
        <ele>1773.5999755859</ele>
        <time>2024-10-15T07:55:29.000Z</time>
      </trkpt>
      <trkpt lat="45.10438" lon="5.98898">
        <ele>1773.8000488281</ele>
        <time>2024-10-15T07:55:30.000Z</time>
      </trkpt>
      <trkpt lat="45.10437" lon="5.98898">
        <ele>1774.1999511719</ele>
        <time>2024-10-15T07:55:31.000Z</time>
      </trkpt>
      <trkpt lat="45.10437" lon="5.98898">
        <ele>1774.1999511719</ele>
        <time>2024-10-15T07:55:32.000Z</time>
      </trkpt>
      <trkpt lat="45.10437" lon="5.98897">
        <ele>1774.4000244141</ele>
        <time>2024-10-15T07:55:33.000Z</time>
      </trkpt>
      <trkpt lat="45.10437" lon="5.98897">
        <ele>1774.5999755859</ele>
        <time>2024-10-15T07:55:34.000Z</time>
      </trkpt>
      <trkpt lat="45.10436" lon="5.98897">
        <ele>1775</ele>
        <time>2024-10-15T07:55:35.000Z</time>
      </trkpt>
      <trkpt lat="45.10436" lon="5.98897">
        <ele>1775.1999511719</ele>
        <time>2024-10-15T07:55:36.000Z</time>
      </trkpt>
      <trkpt lat="45.10436" lon="5.98896">
        <ele>1775.1999511719</ele>
        <time>2024-10-15T07:55:37.000Z</time>
      </trkpt>
      <trkpt lat="45.10436" lon="5.98896">
        <ele>1775.1999511719</ele>
        <time>2024-10-15T07:55:38.000Z</time>
      </trkpt>
      <trkpt lat="45.10435" lon="5.98896">
        <ele>1775.1999511719</ele>
        <time>2024-10-15T07:55:39.000Z</time>
      </trkpt>
      <trkpt lat="45.10435" lon="5.98895">
        <ele>1775.4000244141</ele>
        <time>2024-10-15T07:55:40.000Z</time>
      </trkpt>
      <trkpt lat="45.10434" lon="5.98895">
        <ele>1775.4000244141</ele>
        <time>2024-10-15T07:55:41.000Z</time>
      </trkpt>
      <trkpt lat="45.10434" lon="5.98895">
        <ele>1775.4000244141</ele>
        <time>2024-10-15T07:55:42.000Z</time>
      </trkpt>
      <trkpt lat="45.10434" lon="5.98895">
        <ele>1775.5999755859</ele>
        <time>2024-10-15T07:55:43.000Z</time>
      </trkpt>
      <trkpt lat="45.10433" lon="5.98894">
        <ele>1775.8000488281</ele>
        <time>2024-10-15T07:55:44.000Z</time>
      </trkpt>
      <trkpt lat="45.10433" lon="5.98894">
        <ele>1775.8000488281</ele>
        <time>2024-10-15T07:55:45.000Z</time>
      </trkpt>
      <trkpt lat="45.10433" lon="5.98894">
        <ele>1776</ele>
        <time>2024-10-15T07:55:46.000Z</time>
      </trkpt>
      <trkpt lat="45.10433" lon="5.98894">
        <ele>1776.1999511719</ele>
        <time>2024-10-15T07:55:47.000Z</time>
      </trkpt>
      <trkpt lat="45.10432" lon="5.98893">
        <ele>1776.1999511719</ele>
        <time>2024-10-15T07:55:48.000Z</time>
      </trkpt>
      <trkpt lat="45.10432" lon="5.98893">
        <ele>1776.1999511719</ele>
        <time>2024-10-15T07:55:49.000Z</time>
      </trkpt>
      <trkpt lat="45.10432" lon="5.98893">
        <ele>1776.1999511719</ele>
        <time>2024-10-15T07:55:50.000Z</time>
      </trkpt>
      <trkpt lat="45.10432" lon="5.98893">
        <ele>1776.1999511719</ele>
        <time>2024-10-15T07:55:51.000Z</time>
      </trkpt>
      <trkpt lat="45.10432" lon="5.98893">
        <ele>1776.4000244141</ele>
        <time>2024-10-15T07:55:52.000Z</time>
      </trkpt>
      <trkpt lat="45.10431" lon="5.98893">
        <ele>1776.4000244141</ele>
        <time>2024-10-15T07:55:53.000Z</time>
      </trkpt>
      <trkpt lat="45.10431" lon="5.98892">
        <ele>1776.4000244141</ele>
        <time>2024-10-15T07:55:54.000Z</time>
      </trkpt>
      <trkpt lat="45.10431" lon="5.98892">
        <ele>1776.8000488281</ele>
        <time>2024-10-15T07:55:55.000Z</time>
      </trkpt>
      <trkpt lat="45.10431" lon="5.98892">
        <ele>1777</ele>
        <time>2024-10-15T07:55:56.000Z</time>
      </trkpt>
      <trkpt lat="45.10431" lon="5.98892">
        <ele>1777</ele>
        <time>2024-10-15T07:55:57.000Z</time>
      </trkpt>
      <trkpt lat="45.1043" lon="5.98892">
        <ele>1777.1999511719</ele>
        <time>2024-10-15T07:55:58.000Z</time>
      </trkpt>
      <trkpt lat="45.1043" lon="5.98892">
        <ele>1777.5999755859</ele>
        <time>2024-10-15T07:55:59.000Z</time>
      </trkpt>
      <trkpt lat="45.1043" lon="5.98892">
        <ele>1778</ele>
        <time>2024-10-15T07:56:00.000Z</time>
      </trkpt>
      <trkpt lat="45.1043" lon="5.98892">
        <ele>1778.1999511719</ele>
        <time>2024-10-15T07:56:01.000Z</time>
      </trkpt>
      <trkpt lat="45.10429" lon="5.98892">
        <ele>1778.4000244141</ele>
        <time>2024-10-15T07:56:02.000Z</time>
      </trkpt>
      <trkpt lat="45.10429" lon="5.98892">
        <ele>1778.4000244141</ele>
        <time>2024-10-15T07:56:03.000Z</time>
      </trkpt>
      <trkpt lat="45.10429" lon="5.98892">
        <ele>1778.5999755859</ele>
        <time>2024-10-15T07:56:04.000Z</time>
      </trkpt>
      <trkpt lat="45.10429" lon="5.98891">
        <ele>1778.5999755859</ele>
        <time>2024-10-15T07:56:05.000Z</time>
      </trkpt>
      <trkpt lat="45.10429" lon="5.98891">
        <ele>1778.8000488281</ele>
        <time>2024-10-15T07:56:06.000Z</time>
      </trkpt>
      <trkpt lat="45.10429" lon="5.98891">
        <ele>1778.8000488281</ele>
        <time>2024-10-15T07:56:07.000Z</time>
      </trkpt>
      <trkpt lat="45.10429" lon="5.98891">
        <ele>1779.1999511719</ele>
        <time>2024-10-15T07:56:08.000Z</time>
      </trkpt>
      <trkpt lat="45.10429" lon="5.98891">
        <ele>1779.4000244141</ele>
        <time>2024-10-15T07:56:09.000Z</time>
      </trkpt>
      <trkpt lat="45.10429" lon="5.9889">
        <ele>1779.4000244141</ele>
        <time>2024-10-15T07:56:10.000Z</time>
      </trkpt>
      <trkpt lat="45.10429" lon="5.9889">
        <ele>1779.4000244141</ele>
        <time>2024-10-15T07:56:11.000Z</time>
      </trkpt>
      <trkpt lat="45.10429" lon="5.9889">
        <ele>1779.4000244141</ele>
        <time>2024-10-15T07:56:12.000Z</time>
      </trkpt>
      <trkpt lat="45.10429" lon="5.9889">
        <ele>1779.4000244141</ele>
        <time>2024-10-15T07:56:13.000Z</time>
      </trkpt>
      <trkpt lat="45.10429" lon="5.9889">
        <ele>1780</ele>
        <time>2024-10-15T07:56:14.000Z</time>
      </trkpt>
      <trkpt lat="45.10429" lon="5.98889">
        <ele>1780</ele>
        <time>2024-10-15T07:56:15.000Z</time>
      </trkpt>
      <trkpt lat="45.10429" lon="5.98889">
        <ele>1780</ele>
        <time>2024-10-15T07:56:16.000Z</time>
      </trkpt>
      <trkpt lat="45.10429" lon="5.98889">
        <ele>1780.1999511719</ele>
        <time>2024-10-15T07:56:17.000Z</time>
      </trkpt>
      <trkpt lat="45.10429" lon="5.98889">
        <ele>1780.1999511719</ele>
        <time>2024-10-15T07:56:18.000Z</time>
      </trkpt>
      <trkpt lat="45.10429" lon="5.98889">
        <ele>1780.4000244141</ele>
        <time>2024-10-15T07:56:19.000Z</time>
      </trkpt>
      <trkpt lat="45.10429" lon="5.98889">
        <ele>1780.5999755859</ele>
        <time>2024-10-15T07:56:20.000Z</time>
      </trkpt>
      <trkpt lat="45.10429" lon="5.98888">
        <ele>1780.8000488281</ele>
        <time>2024-10-15T07:56:21.000Z</time>
      </trkpt>
      <trkpt lat="45.10429" lon="5.98888">
        <ele>1780.8000488281</ele>
        <time>2024-10-15T07:56:22.000Z</time>
      </trkpt>
      <trkpt lat="45.10429" lon="5.98888">
        <ele>1781</ele>
        <time>2024-10-15T07:56:23.000Z</time>
      </trkpt>
      <trkpt lat="45.10429" lon="5.98888">
        <ele>1781</ele>
        <time>2024-10-15T07:56:24.000Z</time>
      </trkpt>
      <trkpt lat="45.10429" lon="5.98888">
        <ele>1781.1999511719</ele>
        <time>2024-10-15T07:56:25.000Z</time>
      </trkpt>
      <trkpt lat="45.10429" lon="5.98888">
        <ele>1781.1999511719</ele>
        <time>2024-10-15T07:56:26.000Z</time>
      </trkpt>
      <trkpt lat="45.10429" lon="5.98888">
        <ele>1781.1999511719</ele>
        <time>2024-10-15T07:56:27.000Z</time>
      </trkpt>
      <trkpt lat="45.10429" lon="5.98888">
        <ele>1781.4000244141</ele>
        <time>2024-10-15T07:56:28.000Z</time>
      </trkpt>
      <trkpt lat="45.10429" lon="5.98888">
        <ele>1781.4000244141</ele>
        <time>2024-10-15T07:56:29.000Z</time>
      </trkpt>
      <trkpt lat="45.10429" lon="5.98888">
        <ele>1781.4000244141</ele>
        <time>2024-10-15T07:56:30.000Z</time>
      </trkpt>
      <trkpt lat="45.10429" lon="5.98888">
        <ele>1781.4000244141</ele>
        <time>2024-10-15T07:56:31.000Z</time>
      </trkpt>
      <trkpt lat="45.10429" lon="5.98888">
        <ele>1781.4000244141</ele>
        <time>2024-10-15T07:56:32.000Z</time>
      </trkpt>
      <trkpt lat="45.10429" lon="5.98888">
        <ele>1781.4000244141</ele>
        <time>2024-10-15T07:56:33.000Z</time>
      </trkpt>
      <trkpt lat="45.10429" lon="5.98888">
        <ele>1781.4000244141</ele>
        <time>2024-10-15T07:56:34.000Z</time>
      </trkpt>
      <trkpt lat="45.10429" lon="5.98888">
        <ele>1781.4000244141</ele>
        <time>2024-10-15T07:56:35.000Z</time>
      </trkpt>
      <trkpt lat="45.10429" lon="5.98888">
        <ele>1781.4000244141</ele>
        <time>2024-10-15T07:56:36.000Z</time>
      </trkpt>
      <trkpt lat="45.10429" lon="5.98888">
        <ele>1781.4000244141</ele>
        <time>2024-10-15T07:56:37.000Z</time>
      </trkpt>
      <trkpt lat="45.10429" lon="5.98888">
        <ele>1781.4000244141</ele>
        <time>2024-10-15T07:56:38.000Z</time>
      </trkpt>
      <trkpt lat="45.10429" lon="5.98888">
        <ele>1781.4000244141</ele>
        <time>2024-10-15T07:56:39.000Z</time>
      </trkpt>
      <trkpt lat="45.10429" lon="5.98888">
        <ele>1781.4000244141</ele>
        <time>2024-10-15T07:56:40.000Z</time>
      </trkpt>
      <trkpt lat="45.10429" lon="5.98888">
        <ele>1781.4000244141</ele>
        <time>2024-10-15T07:56:41.000Z</time>
      </trkpt>
      <trkpt lat="45.10429" lon="5.98888">
        <ele>1781.4000244141</ele>
        <time>2024-10-15T07:56:42.000Z</time>
      </trkpt>
      <trkpt lat="45.10429" lon="5.98888">
        <ele>1781.1999511719</ele>
        <time>2024-10-15T07:56:43.000Z</time>
      </trkpt>
      <trkpt lat="45.10429" lon="5.98888">
        <ele>1781.1999511719</ele>
        <time>2024-10-15T07:56:44.000Z</time>
      </trkpt>
      <trkpt lat="45.10429" lon="5.98888">
        <ele>1781</ele>
        <time>2024-10-15T07:56:45.000Z</time>
      </trkpt>
      <trkpt lat="45.10429" lon="5.98888">
        <ele>1781</ele>
        <time>2024-10-15T07:56:46.000Z</time>
      </trkpt>
      <trkpt lat="45.10429" lon="5.98888">
        <ele>1780.8000488281</ele>
        <time>2024-10-15T07:56:47.000Z</time>
      </trkpt>
      <trkpt lat="45.10429" lon="5.98887">
        <ele>1780.8000488281</ele>
        <time>2024-10-15T07:56:48.000Z</time>
      </trkpt>
      <trkpt lat="45.10429" lon="5.98887">
        <ele>1780.5999755859</ele>
        <time>2024-10-15T07:56:49.000Z</time>
      </trkpt>
      <trkpt lat="45.10429" lon="5.98887">
        <ele>1780.5999755859</ele>
        <time>2024-10-15T07:56:50.000Z</time>
      </trkpt>
      <trkpt lat="45.10429" lon="5.98887">
        <ele>1780.5999755859</ele>
        <time>2024-10-15T07:56:51.000Z</time>
      </trkpt>
      <trkpt lat="45.10429" lon="5.98887">
        <ele>1780.4000244141</ele>
        <time>2024-10-15T07:56:52.000Z</time>
      </trkpt>
      <trkpt lat="45.10429" lon="5.98887">
        <ele>1780.4000244141</ele>
        <time>2024-10-15T07:56:53.000Z</time>
      </trkpt>
      <trkpt lat="45.10429" lon="5.98887">
        <ele>1780.4000244141</ele>
        <time>2024-10-15T07:56:54.000Z</time>
      </trkpt>
      <trkpt lat="45.10429" lon="5.98887">
        <ele>1780.1999511719</ele>
        <time>2024-10-15T07:56:55.000Z</time>
      </trkpt>
      <trkpt lat="45.10429" lon="5.98887">
        <ele>1780.1999511719</ele>
        <time>2024-10-15T07:56:56.000Z</time>
      </trkpt>
      <trkpt lat="45.10429" lon="5.98887">
        <ele>1780</ele>
        <time>2024-10-15T07:56:57.000Z</time>
      </trkpt>
      <trkpt lat="45.10429" lon="5.98887">
        <ele>1780</ele>
        <time>2024-10-15T07:56:58.000Z</time>
      </trkpt>
      <trkpt lat="45.10429" lon="5.98887">
        <ele>1780</ele>
        <time>2024-10-15T07:56:59.000Z</time>
      </trkpt>
      <trkpt lat="45.10429" lon="5.98885">
        <ele>1780</ele>
        <time>2024-10-15T07:57:00.000Z</time>
      </trkpt>
      <trkpt lat="45.1043" lon="5.98882">
        <ele>1779.8000488281</ele>
        <time>2024-10-15T07:57:01.000Z</time>
      </trkpt>
      <trkpt lat="45.10431" lon="5.98879">
        <ele>1779.8000488281</ele>
        <time>2024-10-15T07:57:02.000Z</time>
      </trkpt>
      <trkpt lat="45.10432" lon="5.98876">
        <ele>1779.8000488281</ele>
        <time>2024-10-15T07:57:03.000Z</time>
      </trkpt>
      <trkpt lat="45.10432" lon="5.98874">
        <ele>1779.5999755859</ele>
        <time>2024-10-15T07:57:04.000Z</time>
      </trkpt>
      <trkpt lat="45.10433" lon="5.98871">
        <ele>1779.5999755859</ele>
        <time>2024-10-15T07:57:05.000Z</time>
      </trkpt>
      <trkpt lat="45.10433" lon="5.98866">
        <ele>1779.5999755859</ele>
        <time>2024-10-15T07:57:06.000Z</time>
      </trkpt>
      <trkpt lat="45.10433" lon="5.98863">
        <ele>1779.5999755859</ele>
        <time>2024-10-15T07:57:07.000Z</time>
      </trkpt>
      <trkpt lat="45.10434" lon="5.98861">
        <ele>1779.4000244141</ele>
        <time>2024-10-15T07:57:08.000Z</time>
      </trkpt>
      <trkpt lat="45.10435" lon="5.98858">
        <ele>1779.4000244141</ele>
        <time>2024-10-15T07:57:09.000Z</time>
      </trkpt>
      <trkpt lat="45.10434" lon="5.98858">
        <ele>1779.4000244141</ele>
        <time>2024-10-15T07:57:10.000Z</time>
      </trkpt>
      <trkpt lat="45.10434" lon="5.98857">
        <ele>1779.4000244141</ele>
        <time>2024-10-15T07:57:11.000Z</time>
      </trkpt>
      <trkpt lat="45.10434" lon="5.98857">
        <ele>1779.4000244141</ele>
        <time>2024-10-15T07:57:12.000Z</time>
      </trkpt>
      <trkpt lat="45.10434" lon="5.98857">
        <ele>1779.4000244141</ele>
        <time>2024-10-15T07:57:13.000Z</time>
      </trkpt>
      <trkpt lat="45.10433" lon="5.98856">
        <ele>1779.4000244141</ele>
        <time>2024-10-15T07:57:14.000Z</time>
      </trkpt>
      <trkpt lat="45.10433" lon="5.98855">
        <ele>1779.4000244141</ele>
        <time>2024-10-15T07:57:15.000Z</time>
      </trkpt>
      <trkpt lat="45.10433" lon="5.98854">
        <ele>1779.5999755859</ele>
        <time>2024-10-15T07:57:16.000Z</time>
      </trkpt>
      <trkpt lat="45.10433" lon="5.98853">
        <ele>1779.8000488281</ele>
        <time>2024-10-15T07:57:17.000Z</time>
      </trkpt>
      <trkpt lat="45.10435" lon="5.98852">
        <ele>1780</ele>
        <time>2024-10-15T07:57:18.000Z</time>
      </trkpt>
      <trkpt lat="45.10435" lon="5.98852">
        <ele>1780</ele>
        <time>2024-10-15T07:57:19.000Z</time>
      </trkpt>
      <trkpt lat="45.10435" lon="5.9885">
        <ele>1780</ele>
        <time>2024-10-15T07:57:20.000Z</time>
      </trkpt>
      <trkpt lat="45.10436" lon="5.98849">
        <ele>1780</ele>
        <time>2024-10-15T07:57:21.000Z</time>
      </trkpt>
      <trkpt lat="45.10436" lon="5.98849">
        <ele>1779.8000488281</ele>
        <time>2024-10-15T07:57:22.000Z</time>
      </trkpt>
      <trkpt lat="45.10436" lon="5.98848">
        <ele>1779.8000488281</ele>
        <time>2024-10-15T07:57:23.000Z</time>
      </trkpt>
      <trkpt lat="45.10437" lon="5.98848">
        <ele>1779.5999755859</ele>
        <time>2024-10-15T07:57:24.000Z</time>
      </trkpt>
      <trkpt lat="45.10437" lon="5.98847">
        <ele>1779.5999755859</ele>
        <time>2024-10-15T07:57:25.000Z</time>
      </trkpt>
      <trkpt lat="45.10438" lon="5.98847">
        <ele>1779.4000244141</ele>
        <time>2024-10-15T07:57:26.000Z</time>
      </trkpt>
      <trkpt lat="45.10439" lon="5.98846">
        <ele>1779.4000244141</ele>
        <time>2024-10-15T07:57:27.000Z</time>
      </trkpt>
      <trkpt lat="45.10439" lon="5.98845">
        <ele>1779.4000244141</ele>
        <time>2024-10-15T07:57:28.000Z</time>
      </trkpt>
      <trkpt lat="45.10438" lon="5.98844">
        <ele>1779.4000244141</ele>
        <time>2024-10-15T07:57:29.000Z</time>
      </trkpt>
      <trkpt lat="45.10437" lon="5.98843">
        <ele>1779.4000244141</ele>
        <time>2024-10-15T07:57:30.000Z</time>
      </trkpt>
      <trkpt lat="45.10437" lon="5.98843">
        <ele>1779.5999755859</ele>
        <time>2024-10-15T07:57:31.000Z</time>
      </trkpt>
      <trkpt lat="45.10437" lon="5.98842">
        <ele>1779.8000488281</ele>
        <time>2024-10-15T07:57:32.000Z</time>
      </trkpt>
      <trkpt lat="45.10438" lon="5.98842">
        <ele>1779.8000488281</ele>
        <time>2024-10-15T07:57:33.000Z</time>
      </trkpt>
      <trkpt lat="45.10438" lon="5.98841">
        <ele>1779.8000488281</ele>
        <time>2024-10-15T07:57:34.000Z</time>
      </trkpt>
      <trkpt lat="45.10438" lon="5.9884">
        <ele>1779.8000488281</ele>
        <time>2024-10-15T07:57:35.000Z</time>
      </trkpt>
      <trkpt lat="45.10438" lon="5.9884">
        <ele>1779.8000488281</ele>
        <time>2024-10-15T07:57:36.000Z</time>
      </trkpt>
      <trkpt lat="45.10438" lon="5.98839">
        <ele>1779.8000488281</ele>
        <time>2024-10-15T07:57:37.000Z</time>
      </trkpt>
      <trkpt lat="45.10438" lon="5.98838">
        <ele>1779.5999755859</ele>
        <time>2024-10-15T07:57:38.000Z</time>
      </trkpt>
      <trkpt lat="45.10437" lon="5.98838">
        <ele>1779.5999755859</ele>
        <time>2024-10-15T07:57:39.000Z</time>
      </trkpt>
      <trkpt lat="45.10437" lon="5.98837">
        <ele>1779.5999755859</ele>
        <time>2024-10-15T07:57:40.000Z</time>
      </trkpt>
      <trkpt lat="45.10439" lon="5.98838">
        <ele>1779.5999755859</ele>
        <time>2024-10-15T07:57:41.000Z</time>
      </trkpt>
      <trkpt lat="45.10441" lon="5.98837">
        <ele>1779.4000244141</ele>
        <time>2024-10-15T07:57:42.000Z</time>
      </trkpt>
      <trkpt lat="45.10442" lon="5.98837">
        <ele>1779.4000244141</ele>
        <time>2024-10-15T07:57:43.000Z</time>
      </trkpt>
      <trkpt lat="45.10443" lon="5.98835">
        <ele>1779.4000244141</ele>
        <time>2024-10-15T07:57:44.000Z</time>
      </trkpt>
      <trkpt lat="45.10446" lon="5.98835">
        <ele>1779.1999511719</ele>
        <time>2024-10-15T07:57:45.000Z</time>
      </trkpt>
      <trkpt lat="45.10447" lon="5.98835">
        <ele>1779.1999511719</ele>
        <time>2024-10-15T07:57:46.000Z</time>
      </trkpt>
      <trkpt lat="45.10448" lon="5.98834">
        <ele>1779</ele>
        <time>2024-10-15T07:57:47.000Z</time>
      </trkpt>
      <trkpt lat="45.10448" lon="5.98833">
        <ele>1778.8000488281</ele>
        <time>2024-10-15T07:57:48.000Z</time>
      </trkpt>
      <trkpt lat="45.10448" lon="5.98833">
        <ele>1778.5999755859</ele>
        <time>2024-10-15T07:57:49.000Z</time>
      </trkpt>
      <trkpt lat="45.10446" lon="5.98833">
        <ele>1778.1999511719</ele>
        <time>2024-10-15T07:57:50.000Z</time>
      </trkpt>
      <trkpt lat="45.10445" lon="5.98833">
        <ele>1778</ele>
        <time>2024-10-15T07:57:51.000Z</time>
      </trkpt>
      <trkpt lat="45.10445" lon="5.98832">
        <ele>1777.8000488281</ele>
        <time>2024-10-15T07:57:52.000Z</time>
      </trkpt>
      <trkpt lat="45.10444" lon="5.98832">
        <ele>1777.8000488281</ele>
        <time>2024-10-15T07:57:53.000Z</time>
      </trkpt>
      <trkpt lat="45.10445" lon="5.98831">
        <ele>1777.8000488281</ele>
        <time>2024-10-15T07:57:54.000Z</time>
      </trkpt>
      <trkpt lat="45.10446" lon="5.98829">
        <ele>1777.5999755859</ele>
        <time>2024-10-15T07:57:55.000Z</time>
      </trkpt>
      <trkpt lat="45.10446" lon="5.98829">
        <ele>1777.5999755859</ele>
        <time>2024-10-15T07:57:56.000Z</time>
      </trkpt>
      <trkpt lat="45.10446" lon="5.98829">
        <ele>1777.4000244141</ele>
        <time>2024-10-15T07:57:57.000Z</time>
      </trkpt>
      <trkpt lat="45.10447" lon="5.98829">
        <ele>1777.4000244141</ele>
        <time>2024-10-15T07:57:58.000Z</time>
      </trkpt>
      <trkpt lat="45.10447" lon="5.98828">
        <ele>1777.1999511719</ele>
        <time>2024-10-15T07:57:59.000Z</time>
      </trkpt>
      <trkpt lat="45.10447" lon="5.98828">
        <ele>1777</ele>
        <time>2024-10-15T07:58:00.000Z</time>
      </trkpt>
      <trkpt lat="45.10448" lon="5.98828">
        <ele>1776.8000488281</ele>
        <time>2024-10-15T07:58:01.000Z</time>
      </trkpt>
      <trkpt lat="45.10448" lon="5.98828">
        <ele>1776.8000488281</ele>
        <time>2024-10-15T07:58:02.000Z</time>
      </trkpt>
      <trkpt lat="45.10448" lon="5.98828">
        <ele>1776.8000488281</ele>
        <time>2024-10-15T07:58:03.000Z</time>
      </trkpt>
      <trkpt lat="45.10449" lon="5.98827">
        <ele>1776.8000488281</ele>
        <time>2024-10-15T07:58:04.000Z</time>
      </trkpt>
      <trkpt lat="45.10449" lon="5.98827">
        <ele>1776.8000488281</ele>
        <time>2024-10-15T07:58:05.000Z</time>
      </trkpt>
      <trkpt lat="45.10449" lon="5.98827">
        <ele>1776.5999755859</ele>
        <time>2024-10-15T07:58:06.000Z</time>
      </trkpt>
      <trkpt lat="45.10449" lon="5.98827">
        <ele>1776.5999755859</ele>
        <time>2024-10-15T07:58:07.000Z</time>
      </trkpt>
      <trkpt lat="45.10449" lon="5.98826">
        <ele>1776.5999755859</ele>
        <time>2024-10-15T07:58:08.000Z</time>
      </trkpt>
      <trkpt lat="45.10449" lon="5.98826">
        <ele>1776.8000488281</ele>
        <time>2024-10-15T07:58:09.000Z</time>
      </trkpt>
      <trkpt lat="45.10448" lon="5.98825">
        <ele>1776.8000488281</ele>
        <time>2024-10-15T07:58:10.000Z</time>
      </trkpt>
      <trkpt lat="45.10448" lon="5.98824">
        <ele>1777</ele>
        <time>2024-10-15T07:58:11.000Z</time>
      </trkpt>
      <trkpt lat="45.10448" lon="5.98823">
        <ele>1777</ele>
        <time>2024-10-15T07:58:12.000Z</time>
      </trkpt>
      <trkpt lat="45.10448" lon="5.98823">
        <ele>1777</ele>
        <time>2024-10-15T07:58:13.000Z</time>
      </trkpt>
      <trkpt lat="45.10447" lon="5.98822">
        <ele>1777</ele>
        <time>2024-10-15T07:58:14.000Z</time>
      </trkpt>
      <trkpt lat="45.10447" lon="5.98821">
        <ele>1777</ele>
        <time>2024-10-15T07:58:15.000Z</time>
      </trkpt>
      <trkpt lat="45.10447" lon="5.98821">
        <ele>1777</ele>
        <time>2024-10-15T07:58:16.000Z</time>
      </trkpt>
      <trkpt lat="45.10447" lon="5.98821">
        <ele>1777</ele>
        <time>2024-10-15T07:58:17.000Z</time>
      </trkpt>
      <trkpt lat="45.10447" lon="5.98821">
        <ele>1776.8000488281</ele>
        <time>2024-10-15T07:58:18.000Z</time>
      </trkpt>
      <trkpt lat="45.10447" lon="5.98821">
        <ele>1776.8000488281</ele>
        <time>2024-10-15T07:58:19.000Z</time>
      </trkpt>
      <trkpt lat="45.10447" lon="5.98819">
        <ele>1776.8000488281</ele>
        <time>2024-10-15T07:58:20.000Z</time>
      </trkpt>
      <trkpt lat="45.10446" lon="5.98819">
        <ele>1776.8000488281</ele>
        <time>2024-10-15T07:58:21.000Z</time>
      </trkpt>
      <trkpt lat="45.10447" lon="5.98818">
        <ele>1776.5999755859</ele>
        <time>2024-10-15T07:58:22.000Z</time>
      </trkpt>
      <trkpt lat="45.10447" lon="5.98817">
        <ele>1776.5999755859</ele>
        <time>2024-10-15T07:58:23.000Z</time>
      </trkpt>
      <trkpt lat="45.10447" lon="5.98817">
        <ele>1776.4000244141</ele>
        <time>2024-10-15T07:58:24.000Z</time>
      </trkpt>
      <trkpt lat="45.10447" lon="5.98816">
        <ele>1776.1999511719</ele>
        <time>2024-10-15T07:58:25.000Z</time>
      </trkpt>
      <trkpt lat="45.10448" lon="5.98815">
        <ele>1776</ele>
        <time>2024-10-15T07:58:26.000Z</time>
      </trkpt>
      <trkpt lat="45.10449" lon="5.98815">
        <ele>1776</ele>
        <time>2024-10-15T07:58:27.000Z</time>
      </trkpt>
      <trkpt lat="45.1045" lon="5.98814">
        <ele>1776</ele>
        <time>2024-10-15T07:58:28.000Z</time>
      </trkpt>
      <trkpt lat="45.10451" lon="5.98813">
        <ele>1776</ele>
        <time>2024-10-15T07:58:29.000Z</time>
      </trkpt>
      <trkpt lat="45.10451" lon="5.98812">
        <ele>1776</ele>
        <time>2024-10-15T07:58:30.000Z</time>
      </trkpt>
      <trkpt lat="45.10451" lon="5.98811">
        <ele>1776</ele>
        <time>2024-10-15T07:58:31.000Z</time>
      </trkpt>
      <trkpt lat="45.10452" lon="5.9881">
        <ele>1776.1999511719</ele>
        <time>2024-10-15T07:58:32.000Z</time>
      </trkpt>
      <trkpt lat="45.10452" lon="5.9881">
        <ele>1776.1999511719</ele>
        <time>2024-10-15T07:58:33.000Z</time>
      </trkpt>
      <trkpt lat="45.10453" lon="5.98809">
        <ele>1776.4000244141</ele>
        <time>2024-10-15T07:58:34.000Z</time>
      </trkpt>
      <trkpt lat="45.10454" lon="5.98808">
        <ele>1776.5999755859</ele>
        <time>2024-10-15T07:58:35.000Z</time>
      </trkpt>
      <trkpt lat="45.10455" lon="5.98807">
        <ele>1776.8000488281</ele>
        <time>2024-10-15T07:58:36.000Z</time>
      </trkpt>
      <trkpt lat="45.10454" lon="5.98805">
        <ele>1776.8000488281</ele>
        <time>2024-10-15T07:58:37.000Z</time>
      </trkpt>
      <trkpt lat="45.10454" lon="5.98805">
        <ele>1777.1999511719</ele>
        <time>2024-10-15T07:58:38.000Z</time>
      </trkpt>
      <trkpt lat="45.10454" lon="5.98804">
        <ele>1777.5999755859</ele>
        <time>2024-10-15T07:58:39.000Z</time>
      </trkpt>
      <trkpt lat="45.10454" lon="5.98803">
        <ele>1777.8000488281</ele>
        <time>2024-10-15T07:58:40.000Z</time>
      </trkpt>
      <trkpt lat="45.10455" lon="5.98802">
        <ele>1778</ele>
        <time>2024-10-15T07:58:41.000Z</time>
      </trkpt>
      <trkpt lat="45.10455" lon="5.98801">
        <ele>1778.1999511719</ele>
        <time>2024-10-15T07:58:42.000Z</time>
      </trkpt>
      <trkpt lat="45.10454" lon="5.98801">
        <ele>1778.4000244141</ele>
        <time>2024-10-15T07:58:43.000Z</time>
      </trkpt>
      <trkpt lat="45.10454" lon="5.988">
        <ele>1778.5999755859</ele>
        <time>2024-10-15T07:58:44.000Z</time>
      </trkpt>
      <trkpt lat="45.10454" lon="5.988">
        <ele>1778.8000488281</ele>
        <time>2024-10-15T07:58:45.000Z</time>
      </trkpt>
      <trkpt lat="45.10454" lon="5.98799">
        <ele>1779</ele>
        <time>2024-10-15T07:58:46.000Z</time>
      </trkpt>
      <trkpt lat="45.10454" lon="5.98799">
        <ele>1779</ele>
        <time>2024-10-15T07:58:47.000Z</time>
      </trkpt>
      <trkpt lat="45.10454" lon="5.98799">
        <ele>1779.1999511719</ele>
        <time>2024-10-15T07:58:48.000Z</time>
      </trkpt>
      <trkpt lat="45.10454" lon="5.98799">
        <ele>1779.1999511719</ele>
        <time>2024-10-15T07:58:49.000Z</time>
      </trkpt>
      <trkpt lat="45.10454" lon="5.98797">
        <ele>1779.5999755859</ele>
        <time>2024-10-15T07:58:50.000Z</time>
      </trkpt>
      <trkpt lat="45.10453" lon="5.98798">
        <ele>1779.5999755859</ele>
        <time>2024-10-15T07:58:51.000Z</time>
      </trkpt>
      <trkpt lat="45.10454" lon="5.98797">
        <ele>1779.8000488281</ele>
        <time>2024-10-15T07:58:52.000Z</time>
      </trkpt>
      <trkpt lat="45.10454" lon="5.98797">
        <ele>1780</ele>
        <time>2024-10-15T07:58:53.000Z</time>
      </trkpt>
      <trkpt lat="45.10454" lon="5.98796">
        <ele>1780.1999511719</ele>
        <time>2024-10-15T07:58:54.000Z</time>
      </trkpt>
      <trkpt lat="45.10454" lon="5.98795">
        <ele>1780.4000244141</ele>
        <time>2024-10-15T07:58:55.000Z</time>
      </trkpt>
      <trkpt lat="45.10455" lon="5.98794">
        <ele>1780.5999755859</ele>
        <time>2024-10-15T07:58:56.000Z</time>
      </trkpt>
      <trkpt lat="45.10455" lon="5.98794">
        <ele>1780.8000488281</ele>
        <time>2024-10-15T07:58:57.000Z</time>
      </trkpt>
      <trkpt lat="45.10454" lon="5.98793">
        <ele>1781</ele>
        <time>2024-10-15T07:58:58.000Z</time>
      </trkpt>
      <trkpt lat="45.10454" lon="5.98794">
        <ele>1781.1999511719</ele>
        <time>2024-10-15T07:58:59.000Z</time>
      </trkpt>
      <trkpt lat="45.10455" lon="5.98795">
        <ele>1781.5999755859</ele>
        <time>2024-10-15T07:59:00.000Z</time>
      </trkpt>
      <trkpt lat="45.10455" lon="5.98794">
        <ele>1781.5999755859</ele>
        <time>2024-10-15T07:59:01.000Z</time>
      </trkpt>
      <trkpt lat="45.10455" lon="5.98794">
        <ele>1781.5999755859</ele>
        <time>2024-10-15T07:59:02.000Z</time>
      </trkpt>
      <trkpt lat="45.10455" lon="5.98794">
        <ele>1781.5999755859</ele>
        <time>2024-10-15T07:59:03.000Z</time>
      </trkpt>
      <trkpt lat="45.10455" lon="5.98794">
        <ele>1781.5999755859</ele>
        <time>2024-10-15T07:59:04.000Z</time>
      </trkpt>
      <trkpt lat="45.10455" lon="5.98794">
        <ele>1781.5999755859</ele>
        <time>2024-10-15T07:59:05.000Z</time>
      </trkpt>
      <trkpt lat="45.10455" lon="5.98794">
        <ele>1781.8000488281</ele>
        <time>2024-10-15T07:59:06.000Z</time>
      </trkpt>
      <trkpt lat="45.10455" lon="5.98794">
        <ele>1781.8000488281</ele>
        <time>2024-10-15T07:59:07.000Z</time>
      </trkpt>
      <trkpt lat="45.10455" lon="5.98794">
        <ele>1781.8000488281</ele>
        <time>2024-10-15T07:59:08.000Z</time>
      </trkpt>
      <trkpt lat="45.10455" lon="5.98794">
        <ele>1782</ele>
        <time>2024-10-15T07:59:09.000Z</time>
      </trkpt>
      <trkpt lat="45.10455" lon="5.98794">
        <ele>1782.1999511719</ele>
        <time>2024-10-15T07:59:10.000Z</time>
      </trkpt>
      <trkpt lat="45.10455" lon="5.98794">
        <ele>1782.1999511719</ele>
        <time>2024-10-15T07:59:11.000Z</time>
      </trkpt>
      <trkpt lat="45.10455" lon="5.98794">
        <ele>1782.1999511719</ele>
        <time>2024-10-15T07:59:12.000Z</time>
      </trkpt>
      <trkpt lat="45.10455" lon="5.98794">
        <ele>1782.1999511719</ele>
        <time>2024-10-15T07:59:13.000Z</time>
      </trkpt>
      <trkpt lat="45.10455" lon="5.98794">
        <ele>1782.1999511719</ele>
        <time>2024-10-15T07:59:14.000Z</time>
      </trkpt>
      <trkpt lat="45.10455" lon="5.98794">
        <ele>1782.1999511719</ele>
        <time>2024-10-15T07:59:15.000Z</time>
      </trkpt>
      <trkpt lat="45.10455" lon="5.98794">
        <ele>1782.1999511719</ele>
        <time>2024-10-15T07:59:16.000Z</time>
      </trkpt>
      <trkpt lat="45.10455" lon="5.98794">
        <ele>1782.1999511719</ele>
        <time>2024-10-15T07:59:17.000Z</time>
      </trkpt>
      <trkpt lat="45.10455" lon="5.98794">
        <ele>1782.1999511719</ele>
        <time>2024-10-15T07:59:18.000Z</time>
      </trkpt>
      <trkpt lat="45.10455" lon="5.98794">
        <ele>1782.1999511719</ele>
        <time>2024-10-15T07:59:19.000Z</time>
      </trkpt>
      <trkpt lat="45.10454" lon="5.98794">
        <ele>1782.1999511719</ele>
        <time>2024-10-15T07:59:20.000Z</time>
      </trkpt>
      <trkpt lat="45.10454" lon="5.98793">
        <ele>1782.1999511719</ele>
        <time>2024-10-15T07:59:21.000Z</time>
      </trkpt>
      <trkpt lat="45.10454" lon="5.98793">
        <ele>1782.1999511719</ele>
        <time>2024-10-15T07:59:22.000Z</time>
      </trkpt>
      <trkpt lat="45.10454" lon="5.98793">
        <ele>1782.1999511719</ele>
        <time>2024-10-15T07:59:23.000Z</time>
      </trkpt>
      <trkpt lat="45.10454" lon="5.98793">
        <ele>1782.1999511719</ele>
        <time>2024-10-15T07:59:24.000Z</time>
      </trkpt>
      <trkpt lat="45.10454" lon="5.98792">
        <ele>1782</ele>
        <time>2024-10-15T07:59:25.000Z</time>
      </trkpt>
      <trkpt lat="45.10454" lon="5.98792">
        <ele>1782</ele>
        <time>2024-10-15T07:59:26.000Z</time>
      </trkpt>
      <trkpt lat="45.10454" lon="5.98792">
        <ele>1782</ele>
        <time>2024-10-15T07:59:27.000Z</time>
      </trkpt>
      <trkpt lat="45.10454" lon="5.98792">
        <ele>1782</ele>
        <time>2024-10-15T07:59:28.000Z</time>
      </trkpt>
      <trkpt lat="45.10454" lon="5.98792">
        <ele>1782</ele>
        <time>2024-10-15T07:59:29.000Z</time>
      </trkpt>
      <trkpt lat="45.10454" lon="5.98792">
        <ele>1782.1999511719</ele>
        <time>2024-10-15T07:59:30.000Z</time>
      </trkpt>
      <trkpt lat="45.10454" lon="5.98792">
        <ele>1782.4000244141</ele>
        <time>2024-10-15T07:59:31.000Z</time>
      </trkpt>
      <trkpt lat="45.10454" lon="5.98792">
        <ele>1782.4000244141</ele>
        <time>2024-10-15T07:59:32.000Z</time>
      </trkpt>
      <trkpt lat="45.10454" lon="5.98792">
        <ele>1782.4000244141</ele>
        <time>2024-10-15T07:59:33.000Z</time>
      </trkpt>
      <trkpt lat="45.10454" lon="5.98792">
        <ele>1782.4000244141</ele>
        <time>2024-10-15T07:59:34.000Z</time>
      </trkpt>
      <trkpt lat="45.10454" lon="5.98792">
        <ele>1782.4000244141</ele>
        <time>2024-10-15T07:59:35.000Z</time>
      </trkpt>
      <trkpt lat="45.10454" lon="5.98792">
        <ele>1782.4000244141</ele>
        <time>2024-10-15T07:59:36.000Z</time>
      </trkpt>
      <trkpt lat="45.10454" lon="5.98792">
        <ele>1782.4000244141</ele>
        <time>2024-10-15T07:59:37.000Z</time>
      </trkpt>
      <trkpt lat="45.10453" lon="5.98792">
        <ele>1782.4000244141</ele>
        <time>2024-10-15T07:59:38.000Z</time>
      </trkpt>
      <trkpt lat="45.10453" lon="5.98792">
        <ele>1782.4000244141</ele>
        <time>2024-10-15T07:59:39.000Z</time>
      </trkpt>
      <trkpt lat="45.10453" lon="5.98792">
        <ele>1782.1999511719</ele>
        <time>2024-10-15T07:59:40.000Z</time>
      </trkpt>
      <trkpt lat="45.10453" lon="5.98792">
        <ele>1782.1999511719</ele>
        <time>2024-10-15T07:59:41.000Z</time>
      </trkpt>
      <trkpt lat="45.10453" lon="5.98792">
        <ele>1782.1999511719</ele>
        <time>2024-10-15T07:59:42.000Z</time>
      </trkpt>
      <trkpt lat="45.10453" lon="5.98792">
        <ele>1782.1999511719</ele>
        <time>2024-10-15T07:59:43.000Z</time>
      </trkpt>
      <trkpt lat="45.10452" lon="5.98792">
        <ele>1782.1999511719</ele>
        <time>2024-10-15T07:59:44.000Z</time>
      </trkpt>
      <trkpt lat="45.10452" lon="5.98792">
        <ele>1782.1999511719</ele>
        <time>2024-10-15T07:59:45.000Z</time>
      </trkpt>
      <trkpt lat="45.10452" lon="5.98792">
        <ele>1782.4000244141</ele>
        <time>2024-10-15T07:59:46.000Z</time>
      </trkpt>
      <trkpt lat="45.10452" lon="5.98792">
        <ele>1782.4000244141</ele>
        <time>2024-10-15T07:59:47.000Z</time>
      </trkpt>
      <trkpt lat="45.10452" lon="5.98792">
        <ele>1782.5999755859</ele>
        <time>2024-10-15T07:59:48.000Z</time>
      </trkpt>
      <trkpt lat="45.10452" lon="5.98792">
        <ele>1782.5999755859</ele>
        <time>2024-10-15T07:59:49.000Z</time>
      </trkpt>
      <trkpt lat="45.10452" lon="5.98792">
        <ele>1782.8000488281</ele>
        <time>2024-10-15T07:59:50.000Z</time>
      </trkpt>
      <trkpt lat="45.10452" lon="5.98792">
        <ele>1783.1999511719</ele>
        <time>2024-10-15T07:59:51.000Z</time>
      </trkpt>
      <trkpt lat="45.10452" lon="5.98792">
        <ele>1783.1999511719</ele>
        <time>2024-10-15T07:59:52.000Z</time>
      </trkpt>
      <trkpt lat="45.10452" lon="5.98792">
        <ele>1783.1999511719</ele>
        <time>2024-10-15T07:59:53.000Z</time>
      </trkpt>
      <trkpt lat="45.10452" lon="5.98792">
        <ele>1783.4000244141</ele>
        <time>2024-10-15T07:59:54.000Z</time>
      </trkpt>
      <trkpt lat="45.10452" lon="5.98791">
        <ele>1783.8000488281</ele>
        <time>2024-10-15T07:59:55.000Z</time>
      </trkpt>
      <trkpt lat="45.10452" lon="5.9879">
        <ele>1784</ele>
        <time>2024-10-15T07:59:56.000Z</time>
      </trkpt>
      <trkpt lat="45.10451" lon="5.98789">
        <ele>1784.4000244141</ele>
        <time>2024-10-15T07:59:57.000Z</time>
      </trkpt>
      <trkpt lat="45.10451" lon="5.98788">
        <ele>1784.4000244141</ele>
        <time>2024-10-15T07:59:58.000Z</time>
      </trkpt>
      <trkpt lat="45.10451" lon="5.98787">
        <ele>1784.5999755859</ele>
        <time>2024-10-15T07:59:59.000Z</time>
      </trkpt>
      <trkpt lat="45.10451" lon="5.98785">
        <ele>1784.8000488281</ele>
        <time>2024-10-15T08:00:00.000Z</time>
      </trkpt>
      <trkpt lat="45.10451" lon="5.98783">
        <ele>1785.1999511719</ele>
        <time>2024-10-15T08:00:01.000Z</time>
      </trkpt>
      <trkpt lat="45.1045" lon="5.98782">
        <ele>1785.4000244141</ele>
        <time>2024-10-15T08:00:02.000Z</time>
      </trkpt>
      <trkpt lat="45.1045" lon="5.9878">
        <ele>1785.4000244141</ele>
        <time>2024-10-15T08:00:03.000Z</time>
      </trkpt>
      <trkpt lat="45.1045" lon="5.98779">
        <ele>1785.8000488281</ele>
        <time>2024-10-15T08:00:04.000Z</time>
      </trkpt>
      <trkpt lat="45.1045" lon="5.98778">
        <ele>1786</ele>
        <time>2024-10-15T08:00:05.000Z</time>
      </trkpt>
      <trkpt lat="45.10451" lon="5.98778">
        <ele>1786</ele>
        <time>2024-10-15T08:00:06.000Z</time>
      </trkpt>
      <trkpt lat="45.10451" lon="5.98778">
        <ele>1786.1999511719</ele>
        <time>2024-10-15T08:00:07.000Z</time>
      </trkpt>
      <trkpt lat="45.1045" lon="5.98778">
        <ele>1786.1999511719</ele>
        <time>2024-10-15T08:00:08.000Z</time>
      </trkpt>
      <trkpt lat="45.10451" lon="5.98778">
        <ele>1786.4000244141</ele>
        <time>2024-10-15T08:00:09.000Z</time>
      </trkpt>
      <trkpt lat="45.10451" lon="5.98778">
        <ele>1786.4000244141</ele>
        <time>2024-10-15T08:00:10.000Z</time>
      </trkpt>
      <trkpt lat="45.1045" lon="5.98778">
        <ele>1786.4000244141</ele>
        <time>2024-10-15T08:00:11.000Z</time>
      </trkpt>
      <trkpt lat="45.1045" lon="5.98777">
        <ele>1786.4000244141</ele>
        <time>2024-10-15T08:00:12.000Z</time>
      </trkpt>
      <trkpt lat="45.10451" lon="5.98777">
        <ele>1786.4000244141</ele>
        <time>2024-10-15T08:00:13.000Z</time>
      </trkpt>
      <trkpt lat="45.1045" lon="5.98777">
        <ele>1786.4000244141</ele>
        <time>2024-10-15T08:00:14.000Z</time>
      </trkpt>
      <trkpt lat="45.1045" lon="5.98777">
        <ele>1786.4000244141</ele>
        <time>2024-10-15T08:00:15.000Z</time>
      </trkpt>
      <trkpt lat="45.1045" lon="5.98776">
        <ele>1786.4000244141</ele>
        <time>2024-10-15T08:00:16.000Z</time>
      </trkpt>
      <trkpt lat="45.1045" lon="5.98776">
        <ele>1786.5999755859</ele>
        <time>2024-10-15T08:00:17.000Z</time>
      </trkpt>
      <trkpt lat="45.10451" lon="5.98776">
        <ele>1786.8000488281</ele>
        <time>2024-10-15T08:00:18.000Z</time>
      </trkpt>
      <trkpt lat="45.10451" lon="5.98776">
        <ele>1787</ele>
        <time>2024-10-15T08:00:19.000Z</time>
      </trkpt>
      <trkpt lat="45.10451" lon="5.98776">
        <ele>1787.1999511719</ele>
        <time>2024-10-15T08:00:20.000Z</time>
      </trkpt>
      <trkpt lat="45.10451" lon="5.98775">
        <ele>1787.1999511719</ele>
        <time>2024-10-15T08:00:21.000Z</time>
      </trkpt>
      <trkpt lat="45.10451" lon="5.98774">
        <ele>1787.4000244141</ele>
        <time>2024-10-15T08:00:22.000Z</time>
      </trkpt>
      <trkpt lat="45.1045" lon="5.98774">
        <ele>1787.5999755859</ele>
        <time>2024-10-15T08:00:23.000Z</time>
      </trkpt>
      <trkpt lat="45.1045" lon="5.98774">
        <ele>1787.8000488281</ele>
        <time>2024-10-15T08:00:24.000Z</time>
      </trkpt>
      <trkpt lat="45.1045" lon="5.98774">
        <ele>1788</ele>
        <time>2024-10-15T08:00:25.000Z</time>
      </trkpt>
      <trkpt lat="45.1045" lon="5.98774">
        <ele>1788.4000244141</ele>
        <time>2024-10-15T08:00:26.000Z</time>
      </trkpt>
      <trkpt lat="45.1045" lon="5.98774">
        <ele>1788.4000244141</ele>
        <time>2024-10-15T08:00:27.000Z</time>
      </trkpt>
      <trkpt lat="45.1045" lon="5.98774">
        <ele>1788.5999755859</ele>
        <time>2024-10-15T08:00:28.000Z</time>
      </trkpt>
      <trkpt lat="45.1045" lon="5.98774">
        <ele>1788.5999755859</ele>
        <time>2024-10-15T08:00:29.000Z</time>
      </trkpt>
      <trkpt lat="45.1045" lon="5.98774">
        <ele>1788.5999755859</ele>
        <time>2024-10-15T08:00:30.000Z</time>
      </trkpt>
      <trkpt lat="45.1045" lon="5.98774">
        <ele>1788.5999755859</ele>
        <time>2024-10-15T08:00:31.000Z</time>
      </trkpt>
      <trkpt lat="45.1045" lon="5.98774">
        <ele>1788.8000488281</ele>
        <time>2024-10-15T08:00:32.000Z</time>
      </trkpt>
      <trkpt lat="45.1045" lon="5.98774">
        <ele>1788.8000488281</ele>
        <time>2024-10-15T08:00:33.000Z</time>
      </trkpt>
      <trkpt lat="45.1045" lon="5.98774">
        <ele>1789</ele>
        <time>2024-10-15T08:00:34.000Z</time>
      </trkpt>
      <trkpt lat="45.1045" lon="5.98774">
        <ele>1789.1999511719</ele>
        <time>2024-10-15T08:00:35.000Z</time>
      </trkpt>
      <trkpt lat="45.1045" lon="5.98774">
        <ele>1789.1999511719</ele>
        <time>2024-10-15T08:00:36.000Z</time>
      </trkpt>
      <trkpt lat="45.1045" lon="5.98774">
        <ele>1789.1999511719</ele>
        <time>2024-10-15T08:00:37.000Z</time>
      </trkpt>
      <trkpt lat="45.1045" lon="5.98774">
        <ele>1789.1999511719</ele>
        <time>2024-10-15T08:00:38.000Z</time>
      </trkpt>
      <trkpt lat="45.1045" lon="5.98774">
        <ele>1789.1999511719</ele>
        <time>2024-10-15T08:00:39.000Z</time>
      </trkpt>
      <trkpt lat="45.1045" lon="5.98774">
        <ele>1789.1999511719</ele>
        <time>2024-10-15T08:00:40.000Z</time>
      </trkpt>
      <trkpt lat="45.1045" lon="5.98774">
        <ele>1789</ele>
        <time>2024-10-15T08:00:41.000Z</time>
      </trkpt>
      <trkpt lat="45.1045" lon="5.98773">
        <ele>1789</ele>
        <time>2024-10-15T08:00:42.000Z</time>
      </trkpt>
      <trkpt lat="45.1045" lon="5.98773">
        <ele>1789</ele>
        <time>2024-10-15T08:00:43.000Z</time>
      </trkpt>
      <trkpt lat="45.10451" lon="5.98773">
        <ele>1789</ele>
        <time>2024-10-15T08:00:44.000Z</time>
      </trkpt>
      <trkpt lat="45.10451" lon="5.98773">
        <ele>1789</ele>
        <time>2024-10-15T08:00:45.000Z</time>
      </trkpt>
      <trkpt lat="45.10451" lon="5.98773">
        <ele>1789.1999511719</ele>
        <time>2024-10-15T08:00:46.000Z</time>
      </trkpt>
      <trkpt lat="45.10451" lon="5.98773">
        <ele>1789.1999511719</ele>
        <time>2024-10-15T08:00:47.000Z</time>
      </trkpt>
      <trkpt lat="45.10451" lon="5.98773">
        <ele>1789.5999755859</ele>
        <time>2024-10-15T08:00:48.000Z</time>
      </trkpt>
      <trkpt lat="45.1045" lon="5.98773">
        <ele>1789.8000488281</ele>
        <time>2024-10-15T08:00:49.000Z</time>
      </trkpt>
      <trkpt lat="45.1045" lon="5.98773">
        <ele>1789.8000488281</ele>
        <time>2024-10-15T08:00:50.000Z</time>
      </trkpt>
      <trkpt lat="45.1045" lon="5.98773">
        <ele>1789.8000488281</ele>
        <time>2024-10-15T08:00:51.000Z</time>
      </trkpt>
      <trkpt lat="45.1045" lon="5.98773">
        <ele>1789.8000488281</ele>
        <time>2024-10-15T08:00:52.000Z</time>
      </trkpt>
      <trkpt lat="45.10451" lon="5.98773">
        <ele>1789.8000488281</ele>
        <time>2024-10-15T08:00:53.000Z</time>
      </trkpt>
      <trkpt lat="45.10451" lon="5.98773">
        <ele>1789.8000488281</ele>
        <time>2024-10-15T08:00:54.000Z</time>
      </trkpt>
      <trkpt lat="45.10451" lon="5.98773">
        <ele>1789.8000488281</ele>
        <time>2024-10-15T08:00:55.000Z</time>
      </trkpt>
      <trkpt lat="45.10451" lon="5.98773">
        <ele>1789.8000488281</ele>
        <time>2024-10-15T08:00:56.000Z</time>
      </trkpt>
      <trkpt lat="45.10451" lon="5.98773">
        <ele>1789.8000488281</ele>
        <time>2024-10-15T08:00:57.000Z</time>
      </trkpt>
      <trkpt lat="45.10451" lon="5.98773">
        <ele>1789.8000488281</ele>
        <time>2024-10-15T08:00:58.000Z</time>
      </trkpt>
      <trkpt lat="45.10451" lon="5.98773">
        <ele>1789.8000488281</ele>
        <time>2024-10-15T08:00:59.000Z</time>
      </trkpt>
      <trkpt lat="45.10451" lon="5.98773">
        <ele>1789.8000488281</ele>
        <time>2024-10-15T08:01:00.000Z</time>
      </trkpt>
      <trkpt lat="45.10451" lon="5.98773">
        <ele>1789.8000488281</ele>
        <time>2024-10-15T08:01:01.000Z</time>
      </trkpt>
      <trkpt lat="45.10451" lon="5.98773">
        <ele>1790</ele>
        <time>2024-10-15T08:01:02.000Z</time>
      </trkpt>
      <trkpt lat="45.10451" lon="5.98773">
        <ele>1790</ele>
        <time>2024-10-15T08:01:03.000Z</time>
      </trkpt>
      <trkpt lat="45.10451" lon="5.98773">
        <ele>1790.1999511719</ele>
        <time>2024-10-15T08:01:04.000Z</time>
      </trkpt>
      <trkpt lat="45.10451" lon="5.98773">
        <ele>1790.4000244141</ele>
        <time>2024-10-15T08:01:05.000Z</time>
      </trkpt>
      <trkpt lat="45.10451" lon="5.98773">
        <ele>1790.8000488281</ele>
        <time>2024-10-15T08:01:06.000Z</time>
      </trkpt>
      <trkpt lat="45.10451" lon="5.98773">
        <ele>1791.1999511719</ele>
        <time>2024-10-15T08:01:07.000Z</time>
      </trkpt>
      <trkpt lat="45.10451" lon="5.98773">
        <ele>1791.4000244141</ele>
        <time>2024-10-15T08:01:08.000Z</time>
      </trkpt>
      <trkpt lat="45.10451" lon="5.98773">
        <ele>1791.5999755859</ele>
        <time>2024-10-15T08:01:09.000Z</time>
      </trkpt>
      <trkpt lat="45.10451" lon="5.98773">
        <ele>1791.8000488281</ele>
        <time>2024-10-15T08:01:10.000Z</time>
      </trkpt>
      <trkpt lat="45.1045" lon="5.98773">
        <ele>1792.1999511719</ele>
        <time>2024-10-15T08:01:11.000Z</time>
      </trkpt>
      <trkpt lat="45.1045" lon="5.98772">
        <ele>1792.4000244141</ele>
        <time>2024-10-15T08:01:12.000Z</time>
      </trkpt>
      <trkpt lat="45.1045" lon="5.98772">
        <ele>1792.5999755859</ele>
        <time>2024-10-15T08:01:13.000Z</time>
      </trkpt>
      <trkpt lat="45.1045" lon="5.98772">
        <ele>1792.8000488281</ele>
        <time>2024-10-15T08:01:14.000Z</time>
      </trkpt>
      <trkpt lat="45.1045" lon="5.98772">
        <ele>1793</ele>
        <time>2024-10-15T08:01:15.000Z</time>
      </trkpt>
      <trkpt lat="45.1045" lon="5.98772">
        <ele>1793.1999511719</ele>
        <time>2024-10-15T08:01:16.000Z</time>
      </trkpt>
      <trkpt lat="45.1045" lon="5.98772">
        <ele>1793.4000244141</ele>
        <time>2024-10-15T08:01:17.000Z</time>
      </trkpt>
      <trkpt lat="45.1045" lon="5.98771">
        <ele>1793.5999755859</ele>
        <time>2024-10-15T08:01:18.000Z</time>
      </trkpt>
      <trkpt lat="45.1045" lon="5.98771">
        <ele>1793.8000488281</ele>
        <time>2024-10-15T08:01:19.000Z</time>
      </trkpt>
      <trkpt lat="45.10449" lon="5.9877">
        <ele>1793.8000488281</ele>
        <time>2024-10-15T08:01:20.000Z</time>
      </trkpt>
      <trkpt lat="45.10449" lon="5.9877">
        <ele>1794</ele>
        <time>2024-10-15T08:01:21.000Z</time>
      </trkpt>
      <trkpt lat="45.10449" lon="5.98769">
        <ele>1794</ele>
        <time>2024-10-15T08:01:22.000Z</time>
      </trkpt>
      <trkpt lat="45.10449" lon="5.98769">
        <ele>1794</ele>
        <time>2024-10-15T08:01:23.000Z</time>
      </trkpt>
      <trkpt lat="45.10449" lon="5.98769">
        <ele>1794.1999511719</ele>
        <time>2024-10-15T08:01:24.000Z</time>
      </trkpt>
      <trkpt lat="45.10448" lon="5.98769">
        <ele>1794.1999511719</ele>
        <time>2024-10-15T08:01:25.000Z</time>
      </trkpt>
      <trkpt lat="45.10448" lon="5.98769">
        <ele>1794.1999511719</ele>
        <time>2024-10-15T08:01:26.000Z</time>
      </trkpt>
      <trkpt lat="45.10447" lon="5.98768">
        <ele>1794.4000244141</ele>
        <time>2024-10-15T08:01:27.000Z</time>
      </trkpt>
      <trkpt lat="45.10447" lon="5.98768">
        <ele>1794.5999755859</ele>
        <time>2024-10-15T08:01:28.000Z</time>
      </trkpt>
      <trkpt lat="45.10447" lon="5.98767">
        <ele>1794.8000488281</ele>
        <time>2024-10-15T08:01:29.000Z</time>
      </trkpt>
      <trkpt lat="45.10446" lon="5.98767">
        <ele>1795</ele>
        <time>2024-10-15T08:01:30.000Z</time>
      </trkpt>
      <trkpt lat="45.10446" lon="5.98766">
        <ele>1795.1999511719</ele>
        <time>2024-10-15T08:01:31.000Z</time>
      </trkpt>
      <trkpt lat="45.10446" lon="5.98766">
        <ele>1795.1999511719</ele>
        <time>2024-10-15T08:01:32.000Z</time>
      </trkpt>
      <trkpt lat="45.10445" lon="5.98766">
        <ele>1795.4000244141</ele>
        <time>2024-10-15T08:01:33.000Z</time>
      </trkpt>
      <trkpt lat="45.10445" lon="5.98765">
        <ele>1795.4000244141</ele>
        <time>2024-10-15T08:01:34.000Z</time>
      </trkpt>
      <trkpt lat="45.10445" lon="5.98765">
        <ele>1795.5999755859</ele>
        <time>2024-10-15T08:01:35.000Z</time>
      </trkpt>
      <trkpt lat="45.10445" lon="5.98765">
        <ele>1795.8000488281</ele>
        <time>2024-10-15T08:01:36.000Z</time>
      </trkpt>
      <trkpt lat="45.10445" lon="5.98764">
        <ele>1796.1999511719</ele>
        <time>2024-10-15T08:01:37.000Z</time>
      </trkpt>
      <trkpt lat="45.10445" lon="5.98763">
        <ele>1796.4000244141</ele>
        <time>2024-10-15T08:01:38.000Z</time>
      </trkpt>
      <trkpt lat="45.10444" lon="5.98761">
        <ele>1796.8000488281</ele>
        <time>2024-10-15T08:01:39.000Z</time>
      </trkpt>
      <trkpt lat="45.10444" lon="5.9876">
        <ele>1797</ele>
        <time>2024-10-15T08:01:40.000Z</time>
      </trkpt>
      <trkpt lat="45.10443" lon="5.98759">
        <ele>1797</ele>
        <time>2024-10-15T08:01:41.000Z</time>
      </trkpt>
      <trkpt lat="45.10443" lon="5.98757">
        <ele>1797</ele>
        <time>2024-10-15T08:01:42.000Z</time>
      </trkpt>
      <trkpt lat="45.10443" lon="5.98756">
        <ele>1797.1999511719</ele>
        <time>2024-10-15T08:01:43.000Z</time>
      </trkpt>
      <trkpt lat="45.10443" lon="5.98755">
        <ele>1797.4000244141</ele>
        <time>2024-10-15T08:01:44.000Z</time>
      </trkpt>
      <trkpt lat="45.10443" lon="5.98754">
        <ele>1797.5999755859</ele>
        <time>2024-10-15T08:01:45.000Z</time>
      </trkpt>
      <trkpt lat="45.10442" lon="5.98752">
        <ele>1797.8000488281</ele>
        <time>2024-10-15T08:01:46.000Z</time>
      </trkpt>
      <trkpt lat="45.10442" lon="5.98752">
        <ele>1798</ele>
        <time>2024-10-15T08:01:47.000Z</time>
      </trkpt>
      <trkpt lat="45.10442" lon="5.98752">
        <ele>1798</ele>
        <time>2024-10-15T08:01:48.000Z</time>
      </trkpt>
      <trkpt lat="45.10442" lon="5.98751">
        <ele>1798.4000244141</ele>
        <time>2024-10-15T08:01:49.000Z</time>
      </trkpt>
      <trkpt lat="45.10443" lon="5.9875">
        <ele>1798.5999755859</ele>
        <time>2024-10-15T08:01:50.000Z</time>
      </trkpt>
      <trkpt lat="45.10443" lon="5.9875">
        <ele>1798.5999755859</ele>
        <time>2024-10-15T08:01:51.000Z</time>
      </trkpt>
      <trkpt lat="45.10443" lon="5.98749">
        <ele>1798.8000488281</ele>
        <time>2024-10-15T08:01:52.000Z</time>
      </trkpt>
      <trkpt lat="45.10442" lon="5.98749">
        <ele>1798.8000488281</ele>
        <time>2024-10-15T08:01:53.000Z</time>
      </trkpt>
      <trkpt lat="45.10442" lon="5.98749">
        <ele>1799</ele>
        <time>2024-10-15T08:01:54.000Z</time>
      </trkpt>
      <trkpt lat="45.10441" lon="5.98748">
        <ele>1799</ele>
        <time>2024-10-15T08:01:55.000Z</time>
      </trkpt>
      <trkpt lat="45.10441" lon="5.98748">
        <ele>1799</ele>
        <time>2024-10-15T08:01:56.000Z</time>
      </trkpt>
      <trkpt lat="45.10441" lon="5.98748">
        <ele>1799</ele>
        <time>2024-10-15T08:01:57.000Z</time>
      </trkpt>
      <trkpt lat="45.10441" lon="5.98747">
        <ele>1799.1999511719</ele>
        <time>2024-10-15T08:01:58.000Z</time>
      </trkpt>
      <trkpt lat="45.10441" lon="5.98747">
        <ele>1799.4000244141</ele>
        <time>2024-10-15T08:01:59.000Z</time>
      </trkpt>
      <trkpt lat="45.10441" lon="5.98746">
        <ele>1799.5999755859</ele>
        <time>2024-10-15T08:02:00.000Z</time>
      </trkpt>
      <trkpt lat="45.10441" lon="5.98746">
        <ele>1799.5999755859</ele>
        <time>2024-10-15T08:02:01.000Z</time>
      </trkpt>
      <trkpt lat="45.1044" lon="5.98745">
        <ele>1799.8000488281</ele>
        <time>2024-10-15T08:02:02.000Z</time>
      </trkpt>
      <trkpt lat="45.1044" lon="5.98745">
        <ele>1800</ele>
        <time>2024-10-15T08:02:03.000Z</time>
      </trkpt>
      <trkpt lat="45.1044" lon="5.98744">
        <ele>1800.1999511719</ele>
        <time>2024-10-15T08:02:04.000Z</time>
      </trkpt>
      <trkpt lat="45.1044" lon="5.98743">
        <ele>1800.4000244141</ele>
        <time>2024-10-15T08:02:05.000Z</time>
      </trkpt>
      <trkpt lat="45.1044" lon="5.98742">
        <ele>1800.8000488281</ele>
        <time>2024-10-15T08:02:06.000Z</time>
      </trkpt>
      <trkpt lat="45.1044" lon="5.98742">
        <ele>1800.8000488281</ele>
        <time>2024-10-15T08:02:07.000Z</time>
      </trkpt>
      <trkpt lat="45.1044" lon="5.98742">
        <ele>1801</ele>
        <time>2024-10-15T08:02:08.000Z</time>
      </trkpt>
      <trkpt lat="45.1044" lon="5.98742">
        <ele>1801.1999511719</ele>
        <time>2024-10-15T08:02:09.000Z</time>
      </trkpt>
      <trkpt lat="45.1044" lon="5.98742">
        <ele>1801.5999755859</ele>
        <time>2024-10-15T08:02:10.000Z</time>
      </trkpt>
      <trkpt lat="45.1044" lon="5.98742">
        <ele>1801.8000488281</ele>
        <time>2024-10-15T08:02:11.000Z</time>
      </trkpt>
      <trkpt lat="45.1044" lon="5.98742">
        <ele>1801.8000488281</ele>
        <time>2024-10-15T08:02:12.000Z</time>
      </trkpt>
      <trkpt lat="45.1044" lon="5.98742">
        <ele>1802.1999511719</ele>
        <time>2024-10-15T08:02:13.000Z</time>
      </trkpt>
      <trkpt lat="45.10439" lon="5.98742">
        <ele>1802.4000244141</ele>
        <time>2024-10-15T08:02:14.000Z</time>
      </trkpt>
      <trkpt lat="45.10439" lon="5.98742">
        <ele>1802.4000244141</ele>
        <time>2024-10-15T08:02:15.000Z</time>
      </trkpt>
      <trkpt lat="45.10439" lon="5.98742">
        <ele>1802.4000244141</ele>
        <time>2024-10-15T08:02:16.000Z</time>
      </trkpt>
      <trkpt lat="45.10439" lon="5.98742">
        <ele>1802.5999755859</ele>
        <time>2024-10-15T08:02:17.000Z</time>
      </trkpt>
      <trkpt lat="45.10438" lon="5.98743">
        <ele>1802.8000488281</ele>
        <time>2024-10-15T08:02:18.000Z</time>
      </trkpt>
      <trkpt lat="45.10437" lon="5.98743">
        <ele>1802.8000488281</ele>
        <time>2024-10-15T08:02:19.000Z</time>
      </trkpt>
      <trkpt lat="45.10437" lon="5.98743">
        <ele>1803</ele>
        <time>2024-10-15T08:02:20.000Z</time>
      </trkpt>
      <trkpt lat="45.10437" lon="5.98742">
        <ele>1803.1999511719</ele>
        <time>2024-10-15T08:02:21.000Z</time>
      </trkpt>
      <trkpt lat="45.10437" lon="5.98742">
        <ele>1803.4000244141</ele>
        <time>2024-10-15T08:02:22.000Z</time>
      </trkpt>
      <trkpt lat="45.10437" lon="5.98741">
        <ele>1803.4000244141</ele>
        <time>2024-10-15T08:02:23.000Z</time>
      </trkpt>
      <trkpt lat="45.10437" lon="5.98741">
        <ele>1803.5999755859</ele>
        <time>2024-10-15T08:02:24.000Z</time>
      </trkpt>
      <trkpt lat="45.10437" lon="5.98741">
        <ele>1803.8000488281</ele>
        <time>2024-10-15T08:02:25.000Z</time>
      </trkpt>
      <trkpt lat="45.10437" lon="5.9874">
        <ele>1804</ele>
        <time>2024-10-15T08:02:26.000Z</time>
      </trkpt>
      <trkpt lat="45.10437" lon="5.9874">
        <ele>1804</ele>
        <time>2024-10-15T08:02:27.000Z</time>
      </trkpt>
      <trkpt lat="45.10437" lon="5.9874">
        <ele>1804.1999511719</ele>
        <time>2024-10-15T08:02:28.000Z</time>
      </trkpt>
      <trkpt lat="45.10438" lon="5.98739">
        <ele>1804.1999511719</ele>
        <time>2024-10-15T08:02:29.000Z</time>
      </trkpt>
      <trkpt lat="45.10438" lon="5.98739">
        <ele>1804.1999511719</ele>
        <time>2024-10-15T08:02:30.000Z</time>
      </trkpt>
      <trkpt lat="45.10438" lon="5.98739">
        <ele>1804.4000244141</ele>
        <time>2024-10-15T08:02:31.000Z</time>
      </trkpt>
      <trkpt lat="45.10438" lon="5.98738">
        <ele>1804.4000244141</ele>
        <time>2024-10-15T08:02:32.000Z</time>
      </trkpt>
      <trkpt lat="45.10438" lon="5.98738">
        <ele>1804.4000244141</ele>
        <time>2024-10-15T08:02:33.000Z</time>
      </trkpt>
      <trkpt lat="45.10437" lon="5.98738">
        <ele>1804.4000244141</ele>
        <time>2024-10-15T08:02:34.000Z</time>
      </trkpt>
      <trkpt lat="45.10437" lon="5.98737">
        <ele>1804.5999755859</ele>
        <time>2024-10-15T08:02:35.000Z</time>
      </trkpt>
      <trkpt lat="45.10437" lon="5.98737">
        <ele>1804.8000488281</ele>
        <time>2024-10-15T08:02:36.000Z</time>
      </trkpt>
      <trkpt lat="45.10437" lon="5.98736">
        <ele>1805</ele>
        <time>2024-10-15T08:02:37.000Z</time>
      </trkpt>
      <trkpt lat="45.10437" lon="5.98735">
        <ele>1805</ele>
        <time>2024-10-15T08:02:38.000Z</time>
      </trkpt>
      <trkpt lat="45.10437" lon="5.98735">
        <ele>1805</ele>
        <time>2024-10-15T08:02:39.000Z</time>
      </trkpt>
      <trkpt lat="45.10437" lon="5.98735">
        <ele>1805.1999511719</ele>
        <time>2024-10-15T08:02:40.000Z</time>
      </trkpt>
      <trkpt lat="45.10437" lon="5.98734">
        <ele>1805.1999511719</ele>
        <time>2024-10-15T08:02:41.000Z</time>
      </trkpt>
      <trkpt lat="45.10437" lon="5.98732">
        <ele>1805.4000244141</ele>
        <time>2024-10-15T08:02:42.000Z</time>
      </trkpt>
      <trkpt lat="45.10437" lon="5.98732">
        <ele>1805.5999755859</ele>
        <time>2024-10-15T08:02:43.000Z</time>
      </trkpt>
      <trkpt lat="45.10437" lon="5.98732">
        <ele>1806</ele>
        <time>2024-10-15T08:02:44.000Z</time>
      </trkpt>
      <trkpt lat="45.10436" lon="5.98732">
        <ele>1806</ele>
        <time>2024-10-15T08:02:45.000Z</time>
      </trkpt>
      <trkpt lat="45.10436" lon="5.98732">
        <ele>1806.1999511719</ele>
        <time>2024-10-15T08:02:46.000Z</time>
      </trkpt>
      <trkpt lat="45.10436" lon="5.98732">
        <ele>1806.1999511719</ele>
        <time>2024-10-15T08:02:47.000Z</time>
      </trkpt>
      <trkpt lat="45.10435" lon="5.98732">
        <ele>1806.1999511719</ele>
        <time>2024-10-15T08:02:48.000Z</time>
      </trkpt>
      <trkpt lat="45.10435" lon="5.98732">
        <ele>1806.5999755859</ele>
        <time>2024-10-15T08:02:49.000Z</time>
      </trkpt>
      <trkpt lat="45.10435" lon="5.98731">
        <ele>1806.5999755859</ele>
        <time>2024-10-15T08:02:50.000Z</time>
      </trkpt>
      <trkpt lat="45.10435" lon="5.98731">
        <ele>1806.5999755859</ele>
        <time>2024-10-15T08:02:51.000Z</time>
      </trkpt>
      <trkpt lat="45.10435" lon="5.98731">
        <ele>1806.8000488281</ele>
        <time>2024-10-15T08:02:52.000Z</time>
      </trkpt>
      <trkpt lat="45.10435" lon="5.98731">
        <ele>1807.1999511719</ele>
        <time>2024-10-15T08:02:53.000Z</time>
      </trkpt>
      <trkpt lat="45.10435" lon="5.98731">
        <ele>1807.4000244141</ele>
        <time>2024-10-15T08:02:54.000Z</time>
      </trkpt>
      <trkpt lat="45.10435" lon="5.9873">
        <ele>1807.4000244141</ele>
        <time>2024-10-15T08:02:55.000Z</time>
      </trkpt>
      <trkpt lat="45.10435" lon="5.98729">
        <ele>1807.4000244141</ele>
        <time>2024-10-15T08:02:56.000Z</time>
      </trkpt>
      <trkpt lat="45.10435" lon="5.98729">
        <ele>1807.5999755859</ele>
        <time>2024-10-15T08:02:57.000Z</time>
      </trkpt>
      <trkpt lat="45.10435" lon="5.98729">
        <ele>1808</ele>
        <time>2024-10-15T08:02:58.000Z</time>
      </trkpt>
      <trkpt lat="45.10435" lon="5.98729">
        <ele>1808</ele>
        <time>2024-10-15T08:02:59.000Z</time>
      </trkpt>
      <trkpt lat="45.10435" lon="5.98729">
        <ele>1808.1999511719</ele>
        <time>2024-10-15T08:03:00.000Z</time>
      </trkpt>
      <trkpt lat="45.10435" lon="5.98729">
        <ele>1808.1999511719</ele>
        <time>2024-10-15T08:03:01.000Z</time>
      </trkpt>
      <trkpt lat="45.10435" lon="5.98729">
        <ele>1808.1999511719</ele>
        <time>2024-10-15T08:03:02.000Z</time>
      </trkpt>
      <trkpt lat="45.10435" lon="5.98729">
        <ele>1808.1999511719</ele>
        <time>2024-10-15T08:03:03.000Z</time>
      </trkpt>
      <trkpt lat="45.10435" lon="5.98729">
        <ele>1808.4000244141</ele>
        <time>2024-10-15T08:03:04.000Z</time>
      </trkpt>
      <trkpt lat="45.10435" lon="5.98729">
        <ele>1808.8000488281</ele>
        <time>2024-10-15T08:03:05.000Z</time>
      </trkpt>
      <trkpt lat="45.10435" lon="5.98729">
        <ele>1809</ele>
        <time>2024-10-15T08:03:06.000Z</time>
      </trkpt>
      <trkpt lat="45.10435" lon="5.98729">
        <ele>1809</ele>
        <time>2024-10-15T08:03:07.000Z</time>
      </trkpt>
      <trkpt lat="45.10435" lon="5.98729">
        <ele>1809</ele>
        <time>2024-10-15T08:03:08.000Z</time>
      </trkpt>
      <trkpt lat="45.10435" lon="5.98729">
        <ele>1809.1999511719</ele>
        <time>2024-10-15T08:03:09.000Z</time>
      </trkpt>
      <trkpt lat="45.10435" lon="5.98729">
        <ele>1809.4000244141</ele>
        <time>2024-10-15T08:03:10.000Z</time>
      </trkpt>
      <trkpt lat="45.10435" lon="5.98729">
        <ele>1809.4000244141</ele>
        <time>2024-10-15T08:03:11.000Z</time>
      </trkpt>
      <trkpt lat="45.10435" lon="5.98729">
        <ele>1809.4000244141</ele>
        <time>2024-10-15T08:03:12.000Z</time>
      </trkpt>
      <trkpt lat="45.10435" lon="5.98729">
        <ele>1809.4000244141</ele>
        <time>2024-10-15T08:03:13.000Z</time>
      </trkpt>
      <trkpt lat="45.10435" lon="5.98729">
        <ele>1809.4000244141</ele>
        <time>2024-10-15T08:03:14.000Z</time>
      </trkpt>
      <trkpt lat="45.10435" lon="5.98729">
        <ele>1809.5999755859</ele>
        <time>2024-10-15T08:03:15.000Z</time>
      </trkpt>
      <trkpt lat="45.10435" lon="5.98729">
        <ele>1809.5999755859</ele>
        <time>2024-10-15T08:03:16.000Z</time>
      </trkpt>
      <trkpt lat="45.10435" lon="5.98729">
        <ele>1809.8000488281</ele>
        <time>2024-10-15T08:03:17.000Z</time>
      </trkpt>
      <trkpt lat="45.10435" lon="5.98728">
        <ele>1810</ele>
        <time>2024-10-15T08:03:18.000Z</time>
      </trkpt>
      <trkpt lat="45.10435" lon="5.98727">
        <ele>1810.1999511719</ele>
        <time>2024-10-15T08:03:19.000Z</time>
      </trkpt>
      <trkpt lat="45.10435" lon="5.98727">
        <ele>1810.1999511719</ele>
        <time>2024-10-15T08:03:20.000Z</time>
      </trkpt>
      <trkpt lat="45.10435" lon="5.98726">
        <ele>1810.1999511719</ele>
        <time>2024-10-15T08:03:21.000Z</time>
      </trkpt>
      <trkpt lat="45.10435" lon="5.98726">
        <ele>1810.1999511719</ele>
        <time>2024-10-15T08:03:22.000Z</time>
      </trkpt>
      <trkpt lat="45.10435" lon="5.98725">
        <ele>1810.1999511719</ele>
        <time>2024-10-15T08:03:23.000Z</time>
      </trkpt>
      <trkpt lat="45.10435" lon="5.98725">
        <ele>1810.1999511719</ele>
        <time>2024-10-15T08:03:24.000Z</time>
      </trkpt>
      <trkpt lat="45.10435" lon="5.98724">
        <ele>1810.1999511719</ele>
        <time>2024-10-15T08:03:25.000Z</time>
      </trkpt>
      <trkpt lat="45.10435" lon="5.98723">
        <ele>1810.1999511719</ele>
        <time>2024-10-15T08:03:26.000Z</time>
      </trkpt>
      <trkpt lat="45.10435" lon="5.98723">
        <ele>1810.1999511719</ele>
        <time>2024-10-15T08:03:27.000Z</time>
      </trkpt>
      <trkpt lat="45.10435" lon="5.98722">
        <ele>1810.1999511719</ele>
        <time>2024-10-15T08:03:28.000Z</time>
      </trkpt>
      <trkpt lat="45.10435" lon="5.98722">
        <ele>1810.1999511719</ele>
        <time>2024-10-15T08:03:29.000Z</time>
      </trkpt>
      <trkpt lat="45.10435" lon="5.98721">
        <ele>1810.1999511719</ele>
        <time>2024-10-15T08:03:30.000Z</time>
      </trkpt>
      <trkpt lat="45.10435" lon="5.9872">
        <ele>1810.4000244141</ele>
        <time>2024-10-15T08:03:31.000Z</time>
      </trkpt>
      <trkpt lat="45.10435" lon="5.9872">
        <ele>1810.4000244141</ele>
        <time>2024-10-15T08:03:32.000Z</time>
      </trkpt>
      <trkpt lat="45.10435" lon="5.98719">
        <ele>1810.4000244141</ele>
        <time>2024-10-15T08:03:33.000Z</time>
      </trkpt>
      <trkpt lat="45.10435" lon="5.98719">
        <ele>1810.4000244141</ele>
        <time>2024-10-15T08:03:34.000Z</time>
      </trkpt>
      <trkpt lat="45.10435" lon="5.98719">
        <ele>1810.4000244141</ele>
        <time>2024-10-15T08:03:35.000Z</time>
      </trkpt>
      <trkpt lat="45.10435" lon="5.98719">
        <ele>1810.4000244141</ele>
        <time>2024-10-15T08:03:36.000Z</time>
      </trkpt>
      <trkpt lat="45.10435" lon="5.98719">
        <ele>1810.4000244141</ele>
        <time>2024-10-15T08:03:37.000Z</time>
      </trkpt>
      <trkpt lat="45.10435" lon="5.98719">
        <ele>1810.4000244141</ele>
        <time>2024-10-15T08:03:38.000Z</time>
      </trkpt>
      <trkpt lat="45.10435" lon="5.98719">
        <ele>1810.4000244141</ele>
        <time>2024-10-15T08:03:39.000Z</time>
      </trkpt>
      <trkpt lat="45.10435" lon="5.98719">
        <ele>1810.8000488281</ele>
        <time>2024-10-15T08:03:40.000Z</time>
      </trkpt>
      <trkpt lat="45.10435" lon="5.98719">
        <ele>1811</ele>
        <time>2024-10-15T08:03:41.000Z</time>
      </trkpt>
      <trkpt lat="45.10435" lon="5.98719">
        <ele>1811.1999511719</ele>
        <time>2024-10-15T08:03:42.000Z</time>
      </trkpt>
      <trkpt lat="45.10435" lon="5.98718">
        <ele>1811.4000244141</ele>
        <time>2024-10-15T08:03:43.000Z</time>
      </trkpt>
      <trkpt lat="45.10435" lon="5.98717">
        <ele>1811.4000244141</ele>
        <time>2024-10-15T08:03:44.000Z</time>
      </trkpt>
      <trkpt lat="45.10435" lon="5.98717">
        <ele>1811.5999755859</ele>
        <time>2024-10-15T08:03:45.000Z</time>
      </trkpt>
      <trkpt lat="45.10435" lon="5.98717">
        <ele>1811.5999755859</ele>
        <time>2024-10-15T08:03:46.000Z</time>
      </trkpt>
      <trkpt lat="45.10435" lon="5.98717">
        <ele>1811.8000488281</ele>
        <time>2024-10-15T08:03:47.000Z</time>
      </trkpt>
      <trkpt lat="45.10435" lon="5.98717">
        <ele>1811.8000488281</ele>
        <time>2024-10-15T08:03:48.000Z</time>
      </trkpt>
      <trkpt lat="45.10435" lon="5.98717">
        <ele>1811.8000488281</ele>
        <time>2024-10-15T08:03:49.000Z</time>
      </trkpt>
      <trkpt lat="45.10435" lon="5.98716">
        <ele>1811.8000488281</ele>
        <time>2024-10-15T08:03:50.000Z</time>
      </trkpt>
      <trkpt lat="45.10435" lon="5.98716">
        <ele>1812</ele>
        <time>2024-10-15T08:03:51.000Z</time>
      </trkpt>
      <trkpt lat="45.10435" lon="5.98715">
        <ele>1812</ele>
        <time>2024-10-15T08:03:52.000Z</time>
      </trkpt>
      <trkpt lat="45.10435" lon="5.98714">
        <ele>1812</ele>
        <time>2024-10-15T08:03:53.000Z</time>
      </trkpt>
      <trkpt lat="45.10435" lon="5.98713">
        <ele>1812</ele>
        <time>2024-10-15T08:03:54.000Z</time>
      </trkpt>
      <trkpt lat="45.10435" lon="5.98713">
        <ele>1812</ele>
        <time>2024-10-15T08:03:55.000Z</time>
      </trkpt>
      <trkpt lat="45.10435" lon="5.98713">
        <ele>1812</ele>
        <time>2024-10-15T08:03:56.000Z</time>
      </trkpt>
      <trkpt lat="45.10435" lon="5.98712">
        <ele>1812</ele>
        <time>2024-10-15T08:03:57.000Z</time>
      </trkpt>
      <trkpt lat="45.10435" lon="5.98712">
        <ele>1812</ele>
        <time>2024-10-15T08:03:58.000Z</time>
      </trkpt>
      <trkpt lat="45.10434" lon="5.98711">
        <ele>1812</ele>
        <time>2024-10-15T08:03:59.000Z</time>
      </trkpt>
      <trkpt lat="45.10434" lon="5.98711">
        <ele>1812</ele>
        <time>2024-10-15T08:04:00.000Z</time>
      </trkpt>
      <trkpt lat="45.10434" lon="5.98711">
        <ele>1812.1999511719</ele>
        <time>2024-10-15T08:04:01.000Z</time>
      </trkpt>
      <trkpt lat="45.10434" lon="5.9871">
        <ele>1812.1999511719</ele>
        <time>2024-10-15T08:04:02.000Z</time>
      </trkpt>
      <trkpt lat="45.10434" lon="5.9871">
        <ele>1812.1999511719</ele>
        <time>2024-10-15T08:04:03.000Z</time>
      </trkpt>
      <trkpt lat="45.10434" lon="5.98709">
        <ele>1812.1999511719</ele>
        <time>2024-10-15T08:04:04.000Z</time>
      </trkpt>
      <trkpt lat="45.10434" lon="5.98708">
        <ele>1812.1999511719</ele>
        <time>2024-10-15T08:04:05.000Z</time>
      </trkpt>
      <trkpt lat="45.10434" lon="5.98706">
        <ele>1812.1999511719</ele>
        <time>2024-10-15T08:04:06.000Z</time>
      </trkpt>
      <trkpt lat="45.10434" lon="5.98705">
        <ele>1812.4000244141</ele>
        <time>2024-10-15T08:04:07.000Z</time>
      </trkpt>
      <trkpt lat="45.10434" lon="5.98704">
        <ele>1812.4000244141</ele>
        <time>2024-10-15T08:04:08.000Z</time>
      </trkpt>
      <trkpt lat="45.10434" lon="5.98703">
        <ele>1812.5999755859</ele>
        <time>2024-10-15T08:04:09.000Z</time>
      </trkpt>
      <trkpt lat="45.10434" lon="5.98703">
        <ele>1812.5999755859</ele>
        <time>2024-10-15T08:04:10.000Z</time>
      </trkpt>
      <trkpt lat="45.10434" lon="5.98702">
        <ele>1812.8000488281</ele>
        <time>2024-10-15T08:04:11.000Z</time>
      </trkpt>
      <trkpt lat="45.10434" lon="5.98701">
        <ele>1812.8000488281</ele>
        <time>2024-10-15T08:04:12.000Z</time>
      </trkpt>
      <trkpt lat="45.10434" lon="5.987">
        <ele>1813</ele>
        <time>2024-10-15T08:04:13.000Z</time>
      </trkpt>
      <trkpt lat="45.10434" lon="5.98699">
        <ele>1813</ele>
        <time>2024-10-15T08:04:14.000Z</time>
      </trkpt>
      <trkpt lat="45.10434" lon="5.98698">
        <ele>1813.1999511719</ele>
        <time>2024-10-15T08:04:15.000Z</time>
      </trkpt>
      <trkpt lat="45.10434" lon="5.98698">
        <ele>1813.1999511719</ele>
        <time>2024-10-15T08:04:16.000Z</time>
      </trkpt>
      <trkpt lat="45.10434" lon="5.98698">
        <ele>1813.1999511719</ele>
        <time>2024-10-15T08:04:17.000Z</time>
      </trkpt>
      <trkpt lat="45.10434" lon="5.98698">
        <ele>1813.4000244141</ele>
        <time>2024-10-15T08:04:18.000Z</time>
      </trkpt>
      <trkpt lat="45.10434" lon="5.98698">
        <ele>1813.4000244141</ele>
        <time>2024-10-15T08:04:19.000Z</time>
      </trkpt>
      <trkpt lat="45.10434" lon="5.98698">
        <ele>1813.4000244141</ele>
        <time>2024-10-15T08:04:20.000Z</time>
      </trkpt>
      <trkpt lat="45.10434" lon="5.98698">
        <ele>1813.4000244141</ele>
        <time>2024-10-15T08:04:21.000Z</time>
      </trkpt>
      <trkpt lat="45.10434" lon="5.98698">
        <ele>1813.5999755859</ele>
        <time>2024-10-15T08:04:22.000Z</time>
      </trkpt>
      <trkpt lat="45.10434" lon="5.98698">
        <ele>1813.5999755859</ele>
        <time>2024-10-15T08:04:23.000Z</time>
      </trkpt>
      <trkpt lat="45.10434" lon="5.98698">
        <ele>1813.8000488281</ele>
        <time>2024-10-15T08:04:24.000Z</time>
      </trkpt>
      <trkpt lat="45.10434" lon="5.98698">
        <ele>1814</ele>
        <time>2024-10-15T08:04:25.000Z</time>
      </trkpt>
      <trkpt lat="45.10434" lon="5.98698">
        <ele>1814.1999511719</ele>
        <time>2024-10-15T08:04:26.000Z</time>
      </trkpt>
      <trkpt lat="45.10434" lon="5.98698">
        <ele>1814.4000244141</ele>
        <time>2024-10-15T08:04:27.000Z</time>
      </trkpt>
      <trkpt lat="45.10434" lon="5.98698">
        <ele>1814.5999755859</ele>
        <time>2024-10-15T08:04:28.000Z</time>
      </trkpt>
      <trkpt lat="45.10434" lon="5.98698">
        <ele>1814.8000488281</ele>
        <time>2024-10-15T08:04:29.000Z</time>
      </trkpt>
      <trkpt lat="45.10434" lon="5.98698">
        <ele>1815</ele>
        <time>2024-10-15T08:04:30.000Z</time>
      </trkpt>
      <trkpt lat="45.10434" lon="5.98698">
        <ele>1815</ele>
        <time>2024-10-15T08:04:31.000Z</time>
      </trkpt>
      <trkpt lat="45.10434" lon="5.98698">
        <ele>1815</ele>
        <time>2024-10-15T08:04:32.000Z</time>
      </trkpt>
      <trkpt lat="45.10434" lon="5.98698">
        <ele>1815.1999511719</ele>
        <time>2024-10-15T08:04:33.000Z</time>
      </trkpt>
      <trkpt lat="45.10434" lon="5.98698">
        <ele>1815.4000244141</ele>
        <time>2024-10-15T08:04:34.000Z</time>
      </trkpt>
      <trkpt lat="45.10434" lon="5.98698">
        <ele>1815.4000244141</ele>
        <time>2024-10-15T08:04:35.000Z</time>
      </trkpt>
      <trkpt lat="45.10434" lon="5.98698">
        <ele>1815.4000244141</ele>
        <time>2024-10-15T08:04:36.000Z</time>
      </trkpt>
      <trkpt lat="45.10434" lon="5.98697">
        <ele>1815.5999755859</ele>
        <time>2024-10-15T08:04:37.000Z</time>
      </trkpt>
      <trkpt lat="45.10434" lon="5.98697">
        <ele>1815.5999755859</ele>
        <time>2024-10-15T08:04:38.000Z</time>
      </trkpt>
      <trkpt lat="45.10434" lon="5.98696">
        <ele>1815.8000488281</ele>
        <time>2024-10-15T08:04:39.000Z</time>
      </trkpt>
      <trkpt lat="45.10434" lon="5.98695">
        <ele>1816</ele>
        <time>2024-10-15T08:04:40.000Z</time>
      </trkpt>
      <trkpt lat="45.10434" lon="5.98695">
        <ele>1816</ele>
        <time>2024-10-15T08:04:41.000Z</time>
      </trkpt>
      <trkpt lat="45.10434" lon="5.98694">
        <ele>1816</ele>
        <time>2024-10-15T08:04:42.000Z</time>
      </trkpt>
      <trkpt lat="45.10434" lon="5.98694">
        <ele>1816</ele>
        <time>2024-10-15T08:04:43.000Z</time>
      </trkpt>
      <trkpt lat="45.10434" lon="5.98694">
        <ele>1816</ele>
        <time>2024-10-15T08:04:44.000Z</time>
      </trkpt>
      <trkpt lat="45.10434" lon="5.98694">
        <ele>1816</ele>
        <time>2024-10-15T08:04:45.000Z</time>
      </trkpt>
      <trkpt lat="45.10434" lon="5.98694">
        <ele>1815.8000488281</ele>
        <time>2024-10-15T08:04:46.000Z</time>
      </trkpt>
      <trkpt lat="45.10434" lon="5.98694">
        <ele>1815.8000488281</ele>
        <time>2024-10-15T08:04:47.000Z</time>
      </trkpt>
      <trkpt lat="45.10434" lon="5.98694">
        <ele>1815.8000488281</ele>
        <time>2024-10-15T08:04:48.000Z</time>
      </trkpt>
      <trkpt lat="45.10434" lon="5.98694">
        <ele>1815.8000488281</ele>
        <time>2024-10-15T08:04:49.000Z</time>
      </trkpt>
      <trkpt lat="45.10434" lon="5.98694">
        <ele>1815.5999755859</ele>
        <time>2024-10-15T08:04:50.000Z</time>
      </trkpt>
      <trkpt lat="45.10435" lon="5.98694">
        <ele>1815.4000244141</ele>
        <time>2024-10-15T08:04:51.000Z</time>
      </trkpt>
      <trkpt lat="45.10435" lon="5.98694">
        <ele>1815.4000244141</ele>
        <time>2024-10-15T08:04:52.000Z</time>
      </trkpt>
      <trkpt lat="45.10435" lon="5.98694">
        <ele>1815.4000244141</ele>
        <time>2024-10-15T08:04:53.000Z</time>
      </trkpt>
      <trkpt lat="45.10435" lon="5.98694">
        <ele>1815.4000244141</ele>
        <time>2024-10-15T08:04:54.000Z</time>
      </trkpt>
      <trkpt lat="45.10435" lon="5.98694">
        <ele>1815.4000244141</ele>
        <time>2024-10-15T08:04:55.000Z</time>
      </trkpt>
      <trkpt lat="45.10435" lon="5.98694">
        <ele>1815.4000244141</ele>
        <time>2024-10-15T08:04:56.000Z</time>
      </trkpt>
      <trkpt lat="45.10435" lon="5.98694">
        <ele>1815.1999511719</ele>
        <time>2024-10-15T08:04:57.000Z</time>
      </trkpt>
      <trkpt lat="45.10435" lon="5.98694">
        <ele>1815.1999511719</ele>
        <time>2024-10-15T08:04:58.000Z</time>
      </trkpt>
      <trkpt lat="45.10435" lon="5.98694">
        <ele>1815</ele>
        <time>2024-10-15T08:04:59.000Z</time>
      </trkpt>
      <trkpt lat="45.10434" lon="5.98694">
        <ele>1815</ele>
        <time>2024-10-15T08:05:00.000Z</time>
      </trkpt>
      <trkpt lat="45.10434" lon="5.98695">
        <ele>1815.1999511719</ele>
        <time>2024-10-15T08:05:01.000Z</time>
      </trkpt>
      <trkpt lat="45.10434" lon="5.98695">
        <ele>1815.1999511719</ele>
        <time>2024-10-15T08:05:02.000Z</time>
      </trkpt>
      <trkpt lat="45.10434" lon="5.98695">
        <ele>1815.1999511719</ele>
        <time>2024-10-15T08:05:03.000Z</time>
      </trkpt>
      <trkpt lat="45.10434" lon="5.98695">
        <ele>1815.4000244141</ele>
        <time>2024-10-15T08:05:04.000Z</time>
      </trkpt>
      <trkpt lat="45.10434" lon="5.98695">
        <ele>1815.5999755859</ele>
        <time>2024-10-15T08:05:05.000Z</time>
      </trkpt>
      <trkpt lat="45.10434" lon="5.98695">
        <ele>1815.5999755859</ele>
        <time>2024-10-15T08:05:06.000Z</time>
      </trkpt>
      <trkpt lat="45.10434" lon="5.98695">
        <ele>1815.5999755859</ele>
        <time>2024-10-15T08:05:07.000Z</time>
      </trkpt>
      <trkpt lat="45.10434" lon="5.98695">
        <ele>1815.8000488281</ele>
        <time>2024-10-15T08:05:08.000Z</time>
      </trkpt>
      <trkpt lat="45.10434" lon="5.98695">
        <ele>1815.8000488281</ele>
        <time>2024-10-15T08:05:09.000Z</time>
      </trkpt>
      <trkpt lat="45.10434" lon="5.98695">
        <ele>1816.1999511719</ele>
        <time>2024-10-15T08:05:10.000Z</time>
      </trkpt>
      <trkpt lat="45.10434" lon="5.98695">
        <ele>1816.1999511719</ele>
        <time>2024-10-15T08:05:11.000Z</time>
      </trkpt>
      <trkpt lat="45.10434" lon="5.98695">
        <ele>1816.4000244141</ele>
        <time>2024-10-15T08:05:12.000Z</time>
      </trkpt>
      <trkpt lat="45.10434" lon="5.98695">
        <ele>1816.4000244141</ele>
        <time>2024-10-15T08:05:13.000Z</time>
      </trkpt>
      <trkpt lat="45.10434" lon="5.98695">
        <ele>1816.5999755859</ele>
        <time>2024-10-15T08:05:14.000Z</time>
      </trkpt>
      <trkpt lat="45.10434" lon="5.98695">
        <ele>1817</ele>
        <time>2024-10-15T08:05:15.000Z</time>
      </trkpt>
      <trkpt lat="45.10433" lon="5.98695">
        <ele>1817.1999511719</ele>
        <time>2024-10-15T08:05:16.000Z</time>
      </trkpt>
      <trkpt lat="45.10433" lon="5.98695">
        <ele>1817.4000244141</ele>
        <time>2024-10-15T08:05:17.000Z</time>
      </trkpt>
      <trkpt lat="45.10433" lon="5.98695">
        <ele>1817.4000244141</ele>
        <time>2024-10-15T08:05:18.000Z</time>
      </trkpt>
      <trkpt lat="45.10433" lon="5.98695">
        <ele>1817.5999755859</ele>
        <time>2024-10-15T08:05:19.000Z</time>
      </trkpt>
      <trkpt lat="45.10433" lon="5.98695">
        <ele>1817.5999755859</ele>
        <time>2024-10-15T08:05:20.000Z</time>
      </trkpt>
      <trkpt lat="45.10433" lon="5.98695">
        <ele>1817.8000488281</ele>
        <time>2024-10-15T08:05:21.000Z</time>
      </trkpt>
      <trkpt lat="45.10432" lon="5.98695">
        <ele>1817.8000488281</ele>
        <time>2024-10-15T08:05:22.000Z</time>
      </trkpt>
      <trkpt lat="45.10432" lon="5.98695">
        <ele>1818</ele>
        <time>2024-10-15T08:05:23.000Z</time>
      </trkpt>
      <trkpt lat="45.10432" lon="5.98695">
        <ele>1818.1999511719</ele>
        <time>2024-10-15T08:05:24.000Z</time>
      </trkpt>
      <trkpt lat="45.10432" lon="5.98695">
        <ele>1818.1999511719</ele>
        <time>2024-10-15T08:05:25.000Z</time>
      </trkpt>
      <trkpt lat="45.10432" lon="5.98695">
        <ele>1818.1999511719</ele>
        <time>2024-10-15T08:05:26.000Z</time>
      </trkpt>
      <trkpt lat="45.10432" lon="5.98694">
        <ele>1818.4000244141</ele>
        <time>2024-10-15T08:05:27.000Z</time>
      </trkpt>
      <trkpt lat="45.10432" lon="5.98694">
        <ele>1818.5999755859</ele>
        <time>2024-10-15T08:05:28.000Z</time>
      </trkpt>
      <trkpt lat="45.10432" lon="5.98694">
        <ele>1818.8000488281</ele>
        <time>2024-10-15T08:05:29.000Z</time>
      </trkpt>
      <trkpt lat="45.10432" lon="5.98694">
        <ele>1819.1999511719</ele>
        <time>2024-10-15T08:05:30.000Z</time>
      </trkpt>
      <trkpt lat="45.10432" lon="5.98693">
        <ele>1819.4000244141</ele>
        <time>2024-10-15T08:05:31.000Z</time>
      </trkpt>
      <trkpt lat="45.10432" lon="5.98693">
        <ele>1819.5999755859</ele>
        <time>2024-10-15T08:05:32.000Z</time>
      </trkpt>
      <trkpt lat="45.10432" lon="5.98693">
        <ele>1819.8000488281</ele>
        <time>2024-10-15T08:05:33.000Z</time>
      </trkpt>
      <trkpt lat="45.10432" lon="5.98693">
        <ele>1819.8000488281</ele>
        <time>2024-10-15T08:05:34.000Z</time>
      </trkpt>
      <trkpt lat="45.10432" lon="5.98693">
        <ele>1820</ele>
        <time>2024-10-15T08:05:35.000Z</time>
      </trkpt>
      <trkpt lat="45.10432" lon="5.98693">
        <ele>1820.1999511719</ele>
        <time>2024-10-15T08:05:36.000Z</time>
      </trkpt>
      <trkpt lat="45.10432" lon="5.98693">
        <ele>1820.1999511719</ele>
        <time>2024-10-15T08:05:37.000Z</time>
      </trkpt>
      <trkpt lat="45.10432" lon="5.98693">
        <ele>1820.4000244141</ele>
        <time>2024-10-15T08:05:38.000Z</time>
      </trkpt>
      <trkpt lat="45.10431" lon="5.98693">
        <ele>1820.4000244141</ele>
        <time>2024-10-15T08:05:39.000Z</time>
      </trkpt>
      <trkpt lat="45.10431" lon="5.98693">
        <ele>1820.5999755859</ele>
        <time>2024-10-15T08:05:40.000Z</time>
      </trkpt>
      <trkpt lat="45.10431" lon="5.98692">
        <ele>1820.5999755859</ele>
        <time>2024-10-15T08:05:41.000Z</time>
      </trkpt>
      <trkpt lat="45.10431" lon="5.98692">
        <ele>1820.8000488281</ele>
        <time>2024-10-15T08:05:42.000Z</time>
      </trkpt>
      <trkpt lat="45.10431" lon="5.98692">
        <ele>1820.8000488281</ele>
        <time>2024-10-15T08:05:43.000Z</time>
      </trkpt>
      <trkpt lat="45.10431" lon="5.98692">
        <ele>1821</ele>
        <time>2024-10-15T08:05:44.000Z</time>
      </trkpt>
      <trkpt lat="45.1043" lon="5.98692">
        <ele>1821.1999511719</ele>
        <time>2024-10-15T08:05:45.000Z</time>
      </trkpt>
      <trkpt lat="45.1043" lon="5.98692">
        <ele>1821.1999511719</ele>
        <time>2024-10-15T08:05:46.000Z</time>
      </trkpt>
      <trkpt lat="45.1043" lon="5.98692">
        <ele>1821.1999511719</ele>
        <time>2024-10-15T08:05:47.000Z</time>
      </trkpt>
      <trkpt lat="45.1043" lon="5.98692">
        <ele>1821.4000244141</ele>
        <time>2024-10-15T08:05:48.000Z</time>
      </trkpt>
      <trkpt lat="45.10429" lon="5.98692">
        <ele>1821.5999755859</ele>
        <time>2024-10-15T08:05:49.000Z</time>
      </trkpt>
      <trkpt lat="45.10429" lon="5.98692">
        <ele>1821.8000488281</ele>
        <time>2024-10-15T08:05:50.000Z</time>
      </trkpt>
      <trkpt lat="45.10429" lon="5.98692">
        <ele>1821.8000488281</ele>
        <time>2024-10-15T08:05:51.000Z</time>
      </trkpt>
      <trkpt lat="45.10429" lon="5.98692">
        <ele>1822</ele>
        <time>2024-10-15T08:05:52.000Z</time>
      </trkpt>
      <trkpt lat="45.10429" lon="5.98692">
        <ele>1822</ele>
        <time>2024-10-15T08:05:53.000Z</time>
      </trkpt>
      <trkpt lat="45.10429" lon="5.98692">
        <ele>1822.1999511719</ele>
        <time>2024-10-15T08:05:54.000Z</time>
      </trkpt>
      <trkpt lat="45.10428" lon="5.98692">
        <ele>1822.5999755859</ele>
        <time>2024-10-15T08:05:55.000Z</time>
      </trkpt>
      <trkpt lat="45.10428" lon="5.98692">
        <ele>1822.5999755859</ele>
        <time>2024-10-15T08:05:56.000Z</time>
      </trkpt>
      <trkpt lat="45.10428" lon="5.98692">
        <ele>1822.8000488281</ele>
        <time>2024-10-15T08:05:57.000Z</time>
      </trkpt>
      <trkpt lat="45.10428" lon="5.98692">
        <ele>1823</ele>
        <time>2024-10-15T08:05:58.000Z</time>
      </trkpt>
      <trkpt lat="45.10428" lon="5.98692">
        <ele>1823.1999511719</ele>
        <time>2024-10-15T08:05:59.000Z</time>
      </trkpt>
      <trkpt lat="45.10428" lon="5.98692">
        <ele>1823.4000244141</ele>
        <time>2024-10-15T08:06:00.000Z</time>
      </trkpt>
      <trkpt lat="45.10428" lon="5.98692">
        <ele>1823.4000244141</ele>
        <time>2024-10-15T08:06:01.000Z</time>
      </trkpt>
      <trkpt lat="45.10428" lon="5.98691">
        <ele>1823.8000488281</ele>
        <time>2024-10-15T08:06:02.000Z</time>
      </trkpt>
      <trkpt lat="45.10428" lon="5.98691">
        <ele>1823.8000488281</ele>
        <time>2024-10-15T08:06:03.000Z</time>
      </trkpt>
      <trkpt lat="45.10428" lon="5.98691">
        <ele>1824</ele>
        <time>2024-10-15T08:06:04.000Z</time>
      </trkpt>
      <trkpt lat="45.10427" lon="5.98691">
        <ele>1824</ele>
        <time>2024-10-15T08:06:05.000Z</time>
      </trkpt>
      <trkpt lat="45.10427" lon="5.98691">
        <ele>1824.4000244141</ele>
        <time>2024-10-15T08:06:06.000Z</time>
      </trkpt>
      <trkpt lat="45.10427" lon="5.98691">
        <ele>1824.5999755859</ele>
        <time>2024-10-15T08:06:07.000Z</time>
      </trkpt>
      <trkpt lat="45.10427" lon="5.98691">
        <ele>1824.5999755859</ele>
        <time>2024-10-15T08:06:08.000Z</time>
      </trkpt>
      <trkpt lat="45.10426" lon="5.9869">
        <ele>1824.8000488281</ele>
        <time>2024-10-15T08:06:09.000Z</time>
      </trkpt>
      <trkpt lat="45.10426" lon="5.9869">
        <ele>1825</ele>
        <time>2024-10-15T08:06:10.000Z</time>
      </trkpt>
      <trkpt lat="45.10426" lon="5.9869">
        <ele>1825.1999511719</ele>
        <time>2024-10-15T08:06:11.000Z</time>
      </trkpt>
      <trkpt lat="45.10426" lon="5.9869">
        <ele>1825.5999755859</ele>
        <time>2024-10-15T08:06:12.000Z</time>
      </trkpt>
      <trkpt lat="45.10425" lon="5.9869">
        <ele>1825.8000488281</ele>
        <time>2024-10-15T08:06:13.000Z</time>
      </trkpt>
      <trkpt lat="45.10425" lon="5.9869">
        <ele>1826</ele>
        <time>2024-10-15T08:06:14.000Z</time>
      </trkpt>
      <trkpt lat="45.10425" lon="5.9869">
        <ele>1826</ele>
        <time>2024-10-15T08:06:15.000Z</time>
      </trkpt>
      <trkpt lat="45.10425" lon="5.98689">
        <ele>1826</ele>
        <time>2024-10-15T08:06:16.000Z</time>
      </trkpt>
      <trkpt lat="45.10425" lon="5.98689">
        <ele>1826.1999511719</ele>
        <time>2024-10-15T08:06:17.000Z</time>
      </trkpt>
      <trkpt lat="45.10425" lon="5.98689">
        <ele>1826.4000244141</ele>
        <time>2024-10-15T08:06:18.000Z</time>
      </trkpt>
      <trkpt lat="45.10425" lon="5.98689">
        <ele>1826.5999755859</ele>
        <time>2024-10-15T08:06:19.000Z</time>
      </trkpt>
      <trkpt lat="45.10425" lon="5.98689">
        <ele>1826.5999755859</ele>
        <time>2024-10-15T08:06:20.000Z</time>
      </trkpt>
      <trkpt lat="45.10424" lon="5.98689">
        <ele>1826.8000488281</ele>
        <time>2024-10-15T08:06:21.000Z</time>
      </trkpt>
      <trkpt lat="45.10424" lon="5.98689">
        <ele>1827.1999511719</ele>
        <time>2024-10-15T08:06:22.000Z</time>
      </trkpt>
      <trkpt lat="45.10423" lon="5.98689">
        <ele>1827.4000244141</ele>
        <time>2024-10-15T08:06:23.000Z</time>
      </trkpt>
      <trkpt lat="45.10423" lon="5.98689">
        <ele>1827.4000244141</ele>
        <time>2024-10-15T08:06:24.000Z</time>
      </trkpt>
      <trkpt lat="45.10422" lon="5.98689">
        <ele>1827.5999755859</ele>
        <time>2024-10-15T08:06:25.000Z</time>
      </trkpt>
      <trkpt lat="45.10422" lon="5.98688">
        <ele>1828</ele>
        <time>2024-10-15T08:06:26.000Z</time>
      </trkpt>
      <trkpt lat="45.10422" lon="5.98688">
        <ele>1828.1999511719</ele>
        <time>2024-10-15T08:06:27.000Z</time>
      </trkpt>
      <trkpt lat="45.10422" lon="5.98688">
        <ele>1828.1999511719</ele>
        <time>2024-10-15T08:06:28.000Z</time>
      </trkpt>
      <trkpt lat="45.10421" lon="5.98688">
        <ele>1828.4000244141</ele>
        <time>2024-10-15T08:06:29.000Z</time>
      </trkpt>
      <trkpt lat="45.10421" lon="5.98688">
        <ele>1828.8000488281</ele>
        <time>2024-10-15T08:06:30.000Z</time>
      </trkpt>
      <trkpt lat="45.10421" lon="5.98688">
        <ele>1829</ele>
        <time>2024-10-15T08:06:31.000Z</time>
      </trkpt>
      <trkpt lat="45.10421" lon="5.98688">
        <ele>1829.1999511719</ele>
        <time>2024-10-15T08:06:32.000Z</time>
      </trkpt>
      <trkpt lat="45.10421" lon="5.98688">
        <ele>1829.1999511719</ele>
        <time>2024-10-15T08:06:33.000Z</time>
      </trkpt>
      <trkpt lat="45.1042" lon="5.98688">
        <ele>1829.4000244141</ele>
        <time>2024-10-15T08:06:34.000Z</time>
      </trkpt>
      <trkpt lat="45.1042" lon="5.98688">
        <ele>1829.4000244141</ele>
        <time>2024-10-15T08:06:35.000Z</time>
      </trkpt>
      <trkpt lat="45.1042" lon="5.98687">
        <ele>1829.4000244141</ele>
        <time>2024-10-15T08:06:36.000Z</time>
      </trkpt>
      <trkpt lat="45.1042" lon="5.98687">
        <ele>1829.5999755859</ele>
        <time>2024-10-15T08:06:37.000Z</time>
      </trkpt>
      <trkpt lat="45.1042" lon="5.98687">
        <ele>1829.5999755859</ele>
        <time>2024-10-15T08:06:38.000Z</time>
      </trkpt>
      <trkpt lat="45.1042" lon="5.98687">
        <ele>1829.5999755859</ele>
        <time>2024-10-15T08:06:39.000Z</time>
      </trkpt>
      <trkpt lat="45.1042" lon="5.98687">
        <ele>1829.8000488281</ele>
        <time>2024-10-15T08:06:40.000Z</time>
      </trkpt>
      <trkpt lat="45.1042" lon="5.98687">
        <ele>1830</ele>
        <time>2024-10-15T08:06:41.000Z</time>
      </trkpt>
      <trkpt lat="45.10419" lon="5.98686">
        <ele>1830.1999511719</ele>
        <time>2024-10-15T08:06:42.000Z</time>
      </trkpt>
      <trkpt lat="45.10419" lon="5.98686">
        <ele>1830.1999511719</ele>
        <time>2024-10-15T08:06:43.000Z</time>
      </trkpt>
      <trkpt lat="45.10419" lon="5.98686">
        <ele>1830.4000244141</ele>
        <time>2024-10-15T08:06:44.000Z</time>
      </trkpt>
      <trkpt lat="45.10419" lon="5.98685">
        <ele>1830.5999755859</ele>
        <time>2024-10-15T08:06:45.000Z</time>
      </trkpt>
      <trkpt lat="45.10419" lon="5.98685">
        <ele>1830.8000488281</ele>
        <time>2024-10-15T08:06:46.000Z</time>
      </trkpt>
      <trkpt lat="45.10419" lon="5.98685">
        <ele>1830.8000488281</ele>
        <time>2024-10-15T08:06:47.000Z</time>
      </trkpt>
      <trkpt lat="45.10419" lon="5.98685">
        <ele>1831.1999511719</ele>
        <time>2024-10-15T08:06:48.000Z</time>
      </trkpt>
      <trkpt lat="45.10419" lon="5.98685">
        <ele>1831.4000244141</ele>
        <time>2024-10-15T08:06:49.000Z</time>
      </trkpt>
      <trkpt lat="45.10419" lon="5.98685">
        <ele>1831.4000244141</ele>
        <time>2024-10-15T08:06:50.000Z</time>
      </trkpt>
      <trkpt lat="45.10419" lon="5.98684">
        <ele>1831.5999755859</ele>
        <time>2024-10-15T08:06:51.000Z</time>
      </trkpt>
      <trkpt lat="45.10419" lon="5.98684">
        <ele>1831.8000488281</ele>
        <time>2024-10-15T08:06:52.000Z</time>
      </trkpt>
      <trkpt lat="45.10419" lon="5.98684">
        <ele>1832.1999511719</ele>
        <time>2024-10-15T08:06:53.000Z</time>
      </trkpt>
      <trkpt lat="45.10419" lon="5.98684">
        <ele>1832.4000244141</ele>
        <time>2024-10-15T08:06:54.000Z</time>
      </trkpt>
      <trkpt lat="45.10419" lon="5.98684">
        <ele>1832.4000244141</ele>
        <time>2024-10-15T08:06:55.000Z</time>
      </trkpt>
      <trkpt lat="45.10419" lon="5.98684">
        <ele>1832.5999755859</ele>
        <time>2024-10-15T08:06:56.000Z</time>
      </trkpt>
      <trkpt lat="45.10418" lon="5.98684">
        <ele>1832.8000488281</ele>
        <time>2024-10-15T08:06:57.000Z</time>
      </trkpt>
      <trkpt lat="45.10418" lon="5.98684">
        <ele>1833.1999511719</ele>
        <time>2024-10-15T08:06:58.000Z</time>
      </trkpt>
      <trkpt lat="45.10418" lon="5.98684">
        <ele>1833.4000244141</ele>
        <time>2024-10-15T08:06:59.000Z</time>
      </trkpt>
      <trkpt lat="45.10418" lon="5.98684">
        <ele>1833.4000244141</ele>
        <time>2024-10-15T08:07:00.000Z</time>
      </trkpt>
      <trkpt lat="45.10418" lon="5.98684">
        <ele>1833.4000244141</ele>
        <time>2024-10-15T08:07:01.000Z</time>
      </trkpt>
      <trkpt lat="45.10417" lon="5.98683">
        <ele>1833.5999755859</ele>
        <time>2024-10-15T08:07:02.000Z</time>
      </trkpt>
      <trkpt lat="45.10417" lon="5.98683">
        <ele>1833.8000488281</ele>
        <time>2024-10-15T08:07:03.000Z</time>
      </trkpt>
      <trkpt lat="45.10417" lon="5.98683">
        <ele>1834</ele>
        <time>2024-10-15T08:07:04.000Z</time>
      </trkpt>
      <trkpt lat="45.10417" lon="5.98683">
        <ele>1834.1999511719</ele>
        <time>2024-10-15T08:07:05.000Z</time>
      </trkpt>
      <trkpt lat="45.10417" lon="5.98683">
        <ele>1834.4000244141</ele>
        <time>2024-10-15T08:07:06.000Z</time>
      </trkpt>
      <trkpt lat="45.10417" lon="5.98683">
        <ele>1834.5999755859</ele>
        <time>2024-10-15T08:07:07.000Z</time>
      </trkpt>
      <trkpt lat="45.10416" lon="5.98683">
        <ele>1835</ele>
        <time>2024-10-15T08:07:08.000Z</time>
      </trkpt>
      <trkpt lat="45.10416" lon="5.98683">
        <ele>1835.1999511719</ele>
        <time>2024-10-15T08:07:09.000Z</time>
      </trkpt>
      <trkpt lat="45.10416" lon="5.98683">
        <ele>1835.5999755859</ele>
        <time>2024-10-15T08:07:10.000Z</time>
      </trkpt>
      <trkpt lat="45.10416" lon="5.98683">
        <ele>1835.5999755859</ele>
        <time>2024-10-15T08:07:11.000Z</time>
      </trkpt>
      <trkpt lat="45.10416" lon="5.98683">
        <ele>1835.8000488281</ele>
        <time>2024-10-15T08:07:12.000Z</time>
      </trkpt>
      <trkpt lat="45.10416" lon="5.98682">
        <ele>1836</ele>
        <time>2024-10-15T08:07:13.000Z</time>
      </trkpt>
      <trkpt lat="45.10416" lon="5.98682">
        <ele>1836</ele>
        <time>2024-10-15T08:07:14.000Z</time>
      </trkpt>
      <trkpt lat="45.10416" lon="5.98682">
        <ele>1836</ele>
        <time>2024-10-15T08:07:15.000Z</time>
      </trkpt>
      <trkpt lat="45.10415" lon="5.98682">
        <ele>1836.1999511719</ele>
        <time>2024-10-15T08:07:16.000Z</time>
      </trkpt>
      <trkpt lat="45.10415" lon="5.98682">
        <ele>1836.8000488281</ele>
        <time>2024-10-15T08:07:17.000Z</time>
      </trkpt>
      <trkpt lat="45.10415" lon="5.98682">
        <ele>1836.8000488281</ele>
        <time>2024-10-15T08:07:18.000Z</time>
      </trkpt>
      <trkpt lat="45.10415" lon="5.98682">
        <ele>1836.8000488281</ele>
        <time>2024-10-15T08:07:19.000Z</time>
      </trkpt>
      <trkpt lat="45.10415" lon="5.98682">
        <ele>1836.8000488281</ele>
        <time>2024-10-15T08:07:20.000Z</time>
      </trkpt>
      <trkpt lat="45.10414" lon="5.98682">
        <ele>1837</ele>
        <time>2024-10-15T08:07:21.000Z</time>
      </trkpt>
      <trkpt lat="45.10414" lon="5.98681">
        <ele>1837</ele>
        <time>2024-10-15T08:07:22.000Z</time>
      </trkpt>
      <trkpt lat="45.10414" lon="5.98681">
        <ele>1837.1999511719</ele>
        <time>2024-10-15T08:07:23.000Z</time>
      </trkpt>
      <trkpt lat="45.10414" lon="5.98681">
        <ele>1837.1999511719</ele>
        <time>2024-10-15T08:07:24.000Z</time>
      </trkpt>
      <trkpt lat="45.10414" lon="5.98681">
        <ele>1837.1999511719</ele>
        <time>2024-10-15T08:07:25.000Z</time>
      </trkpt>
      <trkpt lat="45.10414" lon="5.98681">
        <ele>1837.5999755859</ele>
        <time>2024-10-15T08:07:26.000Z</time>
      </trkpt>
      <trkpt lat="45.10413" lon="5.98681">
        <ele>1837.8000488281</ele>
        <time>2024-10-15T08:07:27.000Z</time>
      </trkpt>
      <trkpt lat="45.10413" lon="5.98681">
        <ele>1838.1999511719</ele>
        <time>2024-10-15T08:07:28.000Z</time>
      </trkpt>
      <trkpt lat="45.10413" lon="5.9868">
        <ele>1838.1999511719</ele>
        <time>2024-10-15T08:07:29.000Z</time>
      </trkpt>
      <trkpt lat="45.10413" lon="5.9868">
        <ele>1838.5999755859</ele>
        <time>2024-10-15T08:07:30.000Z</time>
      </trkpt>
      <trkpt lat="45.10413" lon="5.9868">
        <ele>1838.8000488281</ele>
        <time>2024-10-15T08:07:31.000Z</time>
      </trkpt>
      <trkpt lat="45.10413" lon="5.9868">
        <ele>1839</ele>
        <time>2024-10-15T08:07:32.000Z</time>
      </trkpt>
      <trkpt lat="45.10413" lon="5.9868">
        <ele>1839.4000244141</ele>
        <time>2024-10-15T08:07:33.000Z</time>
      </trkpt>
      <trkpt lat="45.10413" lon="5.9868">
        <ele>1839.4000244141</ele>
        <time>2024-10-15T08:07:34.000Z</time>
      </trkpt>
      <trkpt lat="45.10413" lon="5.9868">
        <ele>1839.4000244141</ele>
        <time>2024-10-15T08:07:35.000Z</time>
      </trkpt>
      <trkpt lat="45.10413" lon="5.9868">
        <ele>1839.4000244141</ele>
        <time>2024-10-15T08:07:36.000Z</time>
      </trkpt>
      <trkpt lat="45.10413" lon="5.9868">
        <ele>1839.5999755859</ele>
        <time>2024-10-15T08:07:37.000Z</time>
      </trkpt>
      <trkpt lat="45.10413" lon="5.9868">
        <ele>1839.5999755859</ele>
        <time>2024-10-15T08:07:38.000Z</time>
      </trkpt>
      <trkpt lat="45.10413" lon="5.9868">
        <ele>1839.8000488281</ele>
        <time>2024-10-15T08:07:39.000Z</time>
      </trkpt>
      <trkpt lat="45.10413" lon="5.9868">
        <ele>1839.8000488281</ele>
        <time>2024-10-15T08:07:40.000Z</time>
      </trkpt>
      <trkpt lat="45.10413" lon="5.9868">
        <ele>1839.8000488281</ele>
        <time>2024-10-15T08:07:41.000Z</time>
      </trkpt>
      <trkpt lat="45.10413" lon="5.9868">
        <ele>1839.8000488281</ele>
        <time>2024-10-15T08:07:42.000Z</time>
      </trkpt>
      <trkpt lat="45.10413" lon="5.9868">
        <ele>1840.1999511719</ele>
        <time>2024-10-15T08:07:43.000Z</time>
      </trkpt>
      <trkpt lat="45.10413" lon="5.9868">
        <ele>1840.5999755859</ele>
        <time>2024-10-15T08:07:44.000Z</time>
      </trkpt>
      <trkpt lat="45.10413" lon="5.9868">
        <ele>1840.8000488281</ele>
        <time>2024-10-15T08:07:45.000Z</time>
      </trkpt>
      <trkpt lat="45.10413" lon="5.9868">
        <ele>1840.8000488281</ele>
        <time>2024-10-15T08:07:46.000Z</time>
      </trkpt>
      <trkpt lat="45.10413" lon="5.9868">
        <ele>1840.8000488281</ele>
        <time>2024-10-15T08:07:47.000Z</time>
      </trkpt>
      <trkpt lat="45.10413" lon="5.9868">
        <ele>1841</ele>
        <time>2024-10-15T08:07:48.000Z</time>
      </trkpt>
      <trkpt lat="45.10413" lon="5.9868">
        <ele>1841.1999511719</ele>
        <time>2024-10-15T08:07:49.000Z</time>
      </trkpt>
      <trkpt lat="45.10413" lon="5.9868">
        <ele>1841.4000244141</ele>
        <time>2024-10-15T08:07:50.000Z</time>
      </trkpt>
      <trkpt lat="45.10413" lon="5.9868">
        <ele>1841.4000244141</ele>
        <time>2024-10-15T08:07:51.000Z</time>
      </trkpt>
      <trkpt lat="45.10413" lon="5.9868">
        <ele>1841.4000244141</ele>
        <time>2024-10-15T08:07:52.000Z</time>
      </trkpt>
      <trkpt lat="45.10413" lon="5.9868">
        <ele>1841.4000244141</ele>
        <time>2024-10-15T08:07:53.000Z</time>
      </trkpt>
      <trkpt lat="45.10413" lon="5.9868">
        <ele>1841.4000244141</ele>
        <time>2024-10-15T08:07:54.000Z</time>
      </trkpt>
      <trkpt lat="45.10412" lon="5.98679">
        <ele>1841.5999755859</ele>
        <time>2024-10-15T08:07:55.000Z</time>
      </trkpt>
      <trkpt lat="45.10411" lon="5.98678">
        <ele>1841.8000488281</ele>
        <time>2024-10-15T08:07:56.000Z</time>
      </trkpt>
      <trkpt lat="45.10411" lon="5.98678">
        <ele>1842</ele>
        <time>2024-10-15T08:07:57.000Z</time>
      </trkpt>
      <trkpt lat="45.1041" lon="5.98676">
        <ele>1842.1999511719</ele>
        <time>2024-10-15T08:07:58.000Z</time>
      </trkpt>
      <trkpt lat="45.1041" lon="5.98676">
        <ele>1842.1999511719</ele>
        <time>2024-10-15T08:07:59.000Z</time>
      </trkpt>
      <trkpt lat="45.1041" lon="5.98676">
        <ele>1842.1999511719</ele>
        <time>2024-10-15T08:08:00.000Z</time>
      </trkpt>
      <trkpt lat="45.1041" lon="5.98676">
        <ele>1842.1999511719</ele>
        <time>2024-10-15T08:08:01.000Z</time>
      </trkpt>
      <trkpt lat="45.1041" lon="5.98676">
        <ele>1842.1999511719</ele>
        <time>2024-10-15T08:08:02.000Z</time>
      </trkpt>
      <trkpt lat="45.1041" lon="5.98676">
        <ele>1842.1999511719</ele>
        <time>2024-10-15T08:08:03.000Z</time>
      </trkpt>
      <trkpt lat="45.1041" lon="5.98676">
        <ele>1842.1999511719</ele>
        <time>2024-10-15T08:08:04.000Z</time>
      </trkpt>
      <trkpt lat="45.10407" lon="5.98673">
        <ele>1842.1999511719</ele>
        <time>2024-10-15T08:08:05.000Z</time>
      </trkpt>
      <trkpt lat="45.10407" lon="5.98673">
        <ele>1842.1999511719</ele>
        <time>2024-10-15T08:08:06.000Z</time>
      </trkpt>
      <trkpt lat="45.10407" lon="5.98673">
        <ele>1842.4000244141</ele>
        <time>2024-10-15T08:08:07.000Z</time>
      </trkpt>
      <trkpt lat="45.10407" lon="5.98672">
        <ele>1842.5999755859</ele>
        <time>2024-10-15T08:08:08.000Z</time>
      </trkpt>
      <trkpt lat="45.10407" lon="5.98672">
        <ele>1843</ele>
        <time>2024-10-15T08:08:09.000Z</time>
      </trkpt>
      <trkpt lat="45.10407" lon="5.98672">
        <ele>1843</ele>
        <time>2024-10-15T08:08:10.000Z</time>
      </trkpt>
      <trkpt lat="45.10407" lon="5.98672">
        <ele>1843.4000244141</ele>
        <time>2024-10-15T08:08:11.000Z</time>
      </trkpt>
      <trkpt lat="45.10407" lon="5.98672">
        <ele>1843.5999755859</ele>
        <time>2024-10-15T08:08:12.000Z</time>
      </trkpt>
      <trkpt lat="45.10407" lon="5.98671">
        <ele>1843.8000488281</ele>
        <time>2024-10-15T08:08:13.000Z</time>
      </trkpt>
      <trkpt lat="45.10407" lon="5.98671">
        <ele>1844.1999511719</ele>
        <time>2024-10-15T08:08:14.000Z</time>
      </trkpt>
      <trkpt lat="45.10407" lon="5.98671">
        <ele>1844.4000244141</ele>
        <time>2024-10-15T08:08:15.000Z</time>
      </trkpt>
      <trkpt lat="45.10407" lon="5.98671">
        <ele>1844.5999755859</ele>
        <time>2024-10-15T08:08:16.000Z</time>
      </trkpt>
      <trkpt lat="45.10407" lon="5.98671">
        <ele>1844.8000488281</ele>
        <time>2024-10-15T08:08:17.000Z</time>
      </trkpt>
      <trkpt lat="45.10407" lon="5.98671">
        <ele>1844.8000488281</ele>
        <time>2024-10-15T08:08:18.000Z</time>
      </trkpt>
      <trkpt lat="45.10407" lon="5.98671">
        <ele>1845</ele>
        <time>2024-10-15T08:08:19.000Z</time>
      </trkpt>
      <trkpt lat="45.10406" lon="5.9867">
        <ele>1845.1999511719</ele>
        <time>2024-10-15T08:08:20.000Z</time>
      </trkpt>
      <trkpt lat="45.10406" lon="5.9867">
        <ele>1845.1999511719</ele>
        <time>2024-10-15T08:08:21.000Z</time>
      </trkpt>
      <trkpt lat="45.10406" lon="5.9867">
        <ele>1845.4000244141</ele>
        <time>2024-10-15T08:08:22.000Z</time>
      </trkpt>
      <trkpt lat="45.10406" lon="5.98669">
        <ele>1845.4000244141</ele>
        <time>2024-10-15T08:08:23.000Z</time>
      </trkpt>
      <trkpt lat="45.10406" lon="5.98669">
        <ele>1845.4000244141</ele>
        <time>2024-10-15T08:08:24.000Z</time>
      </trkpt>
      <trkpt lat="45.10406" lon="5.98668">
        <ele>1845.4000244141</ele>
        <time>2024-10-15T08:08:25.000Z</time>
      </trkpt>
      <trkpt lat="45.10406" lon="5.98668">
        <ele>1845.8000488281</ele>
        <time>2024-10-15T08:08:26.000Z</time>
      </trkpt>
      <trkpt lat="45.10406" lon="5.98668">
        <ele>1846</ele>
        <time>2024-10-15T08:08:27.000Z</time>
      </trkpt>
      <trkpt lat="45.10406" lon="5.98668">
        <ele>1846.1999511719</ele>
        <time>2024-10-15T08:08:28.000Z</time>
      </trkpt>
      <trkpt lat="45.10406" lon="5.98668">
        <ele>1846.5999755859</ele>
        <time>2024-10-15T08:08:29.000Z</time>
      </trkpt>
      <trkpt lat="45.10406" lon="5.98667">
        <ele>1846.5999755859</ele>
        <time>2024-10-15T08:08:30.000Z</time>
      </trkpt>
      <trkpt lat="45.10406" lon="5.98667">
        <ele>1846.8000488281</ele>
        <time>2024-10-15T08:08:31.000Z</time>
      </trkpt>
      <trkpt lat="45.10406" lon="5.98667">
        <ele>1846.8000488281</ele>
        <time>2024-10-15T08:08:32.000Z</time>
      </trkpt>
      <trkpt lat="45.10406" lon="5.98667">
        <ele>1846.8000488281</ele>
        <time>2024-10-15T08:08:33.000Z</time>
      </trkpt>
      <trkpt lat="45.10406" lon="5.98667">
        <ele>1846.8000488281</ele>
        <time>2024-10-15T08:08:34.000Z</time>
      </trkpt>
      <trkpt lat="45.10406" lon="5.98667">
        <ele>1846.8000488281</ele>
        <time>2024-10-15T08:08:35.000Z</time>
      </trkpt>
      <trkpt lat="45.10406" lon="5.98667">
        <ele>1846.5999755859</ele>
        <time>2024-10-15T08:08:36.000Z</time>
      </trkpt>
      <trkpt lat="45.10407" lon="5.98666">
        <ele>1846.4000244141</ele>
        <time>2024-10-15T08:08:37.000Z</time>
      </trkpt>
      <trkpt lat="45.10407" lon="5.98666">
        <ele>1846.4000244141</ele>
        <time>2024-10-15T08:08:38.000Z</time>
      </trkpt>
      <trkpt lat="45.10407" lon="5.98665">
        <ele>1846.4000244141</ele>
        <time>2024-10-15T08:08:39.000Z</time>
      </trkpt>
      <trkpt lat="45.10407" lon="5.98665">
        <ele>1846.1999511719</ele>
        <time>2024-10-15T08:08:40.000Z</time>
      </trkpt>
      <trkpt lat="45.10407" lon="5.98665">
        <ele>1846.1999511719</ele>
        <time>2024-10-15T08:08:41.000Z</time>
      </trkpt>
      <trkpt lat="45.10407" lon="5.98665">
        <ele>1846</ele>
        <time>2024-10-15T08:08:42.000Z</time>
      </trkpt>
      <trkpt lat="45.10407" lon="5.98665">
        <ele>1846</ele>
        <time>2024-10-15T08:08:43.000Z</time>
      </trkpt>
      <trkpt lat="45.10407" lon="5.98665">
        <ele>1846</ele>
        <time>2024-10-15T08:08:44.000Z</time>
      </trkpt>
      <trkpt lat="45.10407" lon="5.98665">
        <ele>1846</ele>
        <time>2024-10-15T08:08:45.000Z</time>
      </trkpt>
      <trkpt lat="45.10407" lon="5.98665">
        <ele>1845.8000488281</ele>
        <time>2024-10-15T08:08:46.000Z</time>
      </trkpt>
      <trkpt lat="45.10407" lon="5.98665">
        <ele>1845.8000488281</ele>
        <time>2024-10-15T08:08:47.000Z</time>
      </trkpt>
      <trkpt lat="45.10407" lon="5.98665">
        <ele>1845.8000488281</ele>
        <time>2024-10-15T08:08:48.000Z</time>
      </trkpt>
      <trkpt lat="45.10407" lon="5.98664">
        <ele>1845.8000488281</ele>
        <time>2024-10-15T08:08:49.000Z</time>
      </trkpt>
      <trkpt lat="45.10407" lon="5.98664">
        <ele>1845.5999755859</ele>
        <time>2024-10-15T08:08:50.000Z</time>
      </trkpt>
      <trkpt lat="45.10407" lon="5.98664">
        <ele>1845.5999755859</ele>
        <time>2024-10-15T08:08:51.000Z</time>
      </trkpt>
      <trkpt lat="45.10407" lon="5.98664">
        <ele>1845.5999755859</ele>
        <time>2024-10-15T08:08:52.000Z</time>
      </trkpt>
      <trkpt lat="45.10407" lon="5.98664">
        <ele>1845.5999755859</ele>
        <time>2024-10-15T08:08:53.000Z</time>
      </trkpt>
      <trkpt lat="45.10407" lon="5.98664">
        <ele>1845.5999755859</ele>
        <time>2024-10-15T08:08:54.000Z</time>
      </trkpt>
      <trkpt lat="45.10407" lon="5.98663">
        <ele>1845.5999755859</ele>
        <time>2024-10-15T08:08:55.000Z</time>
      </trkpt>
      <trkpt lat="45.10408" lon="5.98663">
        <ele>1845.8000488281</ele>
        <time>2024-10-15T08:08:56.000Z</time>
      </trkpt>
      <trkpt lat="45.10409" lon="5.98662">
        <ele>1846.1999511719</ele>
        <time>2024-10-15T08:08:57.000Z</time>
      </trkpt>
      <trkpt lat="45.10409" lon="5.98661">
        <ele>1846.4000244141</ele>
        <time>2024-10-15T08:08:58.000Z</time>
      </trkpt>
      <trkpt lat="45.1041" lon="5.9866">
        <ele>1846.4000244141</ele>
        <time>2024-10-15T08:08:59.000Z</time>
      </trkpt>
      <trkpt lat="45.10411" lon="5.98659">
        <ele>1846.5999755859</ele>
        <time>2024-10-15T08:09:00.000Z</time>
      </trkpt>
      <trkpt lat="45.10411" lon="5.98659">
        <ele>1847</ele>
        <time>2024-10-15T08:09:01.000Z</time>
      </trkpt>
      <trkpt lat="45.10412" lon="5.98658">
        <ele>1847.4000244141</ele>
        <time>2024-10-15T08:09:02.000Z</time>
      </trkpt>
      <trkpt lat="45.10413" lon="5.98658">
        <ele>1847.5999755859</ele>
        <time>2024-10-15T08:09:03.000Z</time>
      </trkpt>
      <trkpt lat="45.10413" lon="5.98658">
        <ele>1847.5999755859</ele>
        <time>2024-10-15T08:09:04.000Z</time>
      </trkpt>
      <trkpt lat="45.10413" lon="5.98657">
        <ele>1847.5999755859</ele>
        <time>2024-10-15T08:09:05.000Z</time>
      </trkpt>
      <trkpt lat="45.10413" lon="5.98657">
        <ele>1847.5999755859</ele>
        <time>2024-10-15T08:09:06.000Z</time>
      </trkpt>
      <trkpt lat="45.10414" lon="5.98657">
        <ele>1847.5999755859</ele>
        <time>2024-10-15T08:09:07.000Z</time>
      </trkpt>
      <trkpt lat="45.10413" lon="5.98657">
        <ele>1847.8000488281</ele>
        <time>2024-10-15T08:09:08.000Z</time>
      </trkpt>
      <trkpt lat="45.10413" lon="5.98657">
        <ele>1847.8000488281</ele>
        <time>2024-10-15T08:09:09.000Z</time>
      </trkpt>
      <trkpt lat="45.10413" lon="5.98657">
        <ele>1847.8000488281</ele>
        <time>2024-10-15T08:09:10.000Z</time>
      </trkpt>
      <trkpt lat="45.10413" lon="5.98657">
        <ele>1848</ele>
        <time>2024-10-15T08:09:11.000Z</time>
      </trkpt>
      <trkpt lat="45.10413" lon="5.98657">
        <ele>1848</ele>
        <time>2024-10-15T08:09:12.000Z</time>
      </trkpt>
      <trkpt lat="45.10413" lon="5.98657">
        <ele>1848</ele>
        <time>2024-10-15T08:09:13.000Z</time>
      </trkpt>
      <trkpt lat="45.10413" lon="5.98657">
        <ele>1848</ele>
        <time>2024-10-15T08:09:14.000Z</time>
      </trkpt>
      <trkpt lat="45.10413" lon="5.98657">
        <ele>1848</ele>
        <time>2024-10-15T08:09:15.000Z</time>
      </trkpt>
      <trkpt lat="45.10413" lon="5.98657">
        <ele>1848.1999511719</ele>
        <time>2024-10-15T08:09:16.000Z</time>
      </trkpt>
      <trkpt lat="45.10413" lon="5.98657">
        <ele>1848.1999511719</ele>
        <time>2024-10-15T08:09:17.000Z</time>
      </trkpt>
      <trkpt lat="45.10413" lon="5.98657">
        <ele>1848.1999511719</ele>
        <time>2024-10-15T08:09:18.000Z</time>
      </trkpt>
      <trkpt lat="45.10413" lon="5.98657">
        <ele>1848.1999511719</ele>
        <time>2024-10-15T08:09:19.000Z</time>
      </trkpt>
      <trkpt lat="45.10413" lon="5.98657">
        <ele>1848.4000244141</ele>
        <time>2024-10-15T08:09:20.000Z</time>
      </trkpt>
      <trkpt lat="45.10413" lon="5.98657">
        <ele>1848.4000244141</ele>
        <time>2024-10-15T08:09:21.000Z</time>
      </trkpt>
      <trkpt lat="45.10413" lon="5.98657">
        <ele>1848.8000488281</ele>
        <time>2024-10-15T08:09:22.000Z</time>
      </trkpt>
      <trkpt lat="45.10413" lon="5.98657">
        <ele>1849</ele>
        <time>2024-10-15T08:09:23.000Z</time>
      </trkpt>
      <trkpt lat="45.10413" lon="5.98657">
        <ele>1849</ele>
        <time>2024-10-15T08:09:24.000Z</time>
      </trkpt>
      <trkpt lat="45.10413" lon="5.98657">
        <ele>1849</ele>
        <time>2024-10-15T08:09:25.000Z</time>
      </trkpt>
      <trkpt lat="45.10413" lon="5.98657">
        <ele>1849.1999511719</ele>
        <time>2024-10-15T08:09:26.000Z</time>
      </trkpt>
      <trkpt lat="45.10413" lon="5.98657">
        <ele>1849.5999755859</ele>
        <time>2024-10-15T08:09:27.000Z</time>
      </trkpt>
      <trkpt lat="45.10413" lon="5.98657">
        <ele>1849.8000488281</ele>
        <time>2024-10-15T08:09:28.000Z</time>
      </trkpt>
      <trkpt lat="45.10413" lon="5.98657">
        <ele>1849.8000488281</ele>
        <time>2024-10-15T08:09:29.000Z</time>
      </trkpt>
      <trkpt lat="45.10413" lon="5.98657">
        <ele>1850</ele>
        <time>2024-10-15T08:09:30.000Z</time>
      </trkpt>
      <trkpt lat="45.10413" lon="5.98657">
        <ele>1850.4000244141</ele>
        <time>2024-10-15T08:09:31.000Z</time>
      </trkpt>
      <trkpt lat="45.10414" lon="5.98657">
        <ele>1850.4000244141</ele>
        <time>2024-10-15T08:09:32.000Z</time>
      </trkpt>
      <trkpt lat="45.10414" lon="5.98657">
        <ele>1850.4000244141</ele>
        <time>2024-10-15T08:09:33.000Z</time>
      </trkpt>
      <trkpt lat="45.10414" lon="5.98657">
        <ele>1850.4000244141</ele>
        <time>2024-10-15T08:09:34.000Z</time>
      </trkpt>
      <trkpt lat="45.10414" lon="5.98657">
        <ele>1850.4000244141</ele>
        <time>2024-10-15T08:09:35.000Z</time>
      </trkpt>
      <trkpt lat="45.10414" lon="5.98657">
        <ele>1850.5999755859</ele>
        <time>2024-10-15T08:09:36.000Z</time>
      </trkpt>
      <trkpt lat="45.10414" lon="5.98657">
        <ele>1850.8000488281</ele>
        <time>2024-10-15T08:09:37.000Z</time>
      </trkpt>
      <trkpt lat="45.10414" lon="5.98657">
        <ele>1851</ele>
        <time>2024-10-15T08:09:38.000Z</time>
      </trkpt>
      <trkpt lat="45.10414" lon="5.98657">
        <ele>1851.1999511719</ele>
        <time>2024-10-15T08:09:39.000Z</time>
      </trkpt>
      <trkpt lat="45.10415" lon="5.98657">
        <ele>1851.1999511719</ele>
        <time>2024-10-15T08:09:40.000Z</time>
      </trkpt>
      <trkpt lat="45.10415" lon="5.98657">
        <ele>1851.1999511719</ele>
        <time>2024-10-15T08:09:41.000Z</time>
      </trkpt>
      <trkpt lat="45.10415" lon="5.98657">
        <ele>1851.1999511719</ele>
        <time>2024-10-15T08:09:42.000Z</time>
      </trkpt>
      <trkpt lat="45.10415" lon="5.98657">
        <ele>1851.1999511719</ele>
        <time>2024-10-15T08:09:43.000Z</time>
      </trkpt>
      <trkpt lat="45.10415" lon="5.98656">
        <ele>1851.4000244141</ele>
        <time>2024-10-15T08:09:44.000Z</time>
      </trkpt>
      <trkpt lat="45.10415" lon="5.98656">
        <ele>1851.4000244141</ele>
        <time>2024-10-15T08:09:45.000Z</time>
      </trkpt>
      <trkpt lat="45.10415" lon="5.98656">
        <ele>1851.4000244141</ele>
        <time>2024-10-15T08:09:46.000Z</time>
      </trkpt>
      <trkpt lat="45.10415" lon="5.98656">
        <ele>1851.4000244141</ele>
        <time>2024-10-15T08:09:47.000Z</time>
      </trkpt>
      <trkpt lat="45.10415" lon="5.98656">
        <ele>1851.4000244141</ele>
        <time>2024-10-15T08:09:48.000Z</time>
      </trkpt>
      <trkpt lat="45.10415" lon="5.98655">
        <ele>1851.1999511719</ele>
        <time>2024-10-15T08:09:49.000Z</time>
      </trkpt>
      <trkpt lat="45.10415" lon="5.98655">
        <ele>1851.1999511719</ele>
        <time>2024-10-15T08:09:50.000Z</time>
      </trkpt>
      <trkpt lat="45.10415" lon="5.98655">
        <ele>1851.1999511719</ele>
        <time>2024-10-15T08:09:51.000Z</time>
      </trkpt>
      <trkpt lat="45.10416" lon="5.98654">
        <ele>1851.1999511719</ele>
        <time>2024-10-15T08:09:52.000Z</time>
      </trkpt>
      <trkpt lat="45.10416" lon="5.98654">
        <ele>1851.1999511719</ele>
        <time>2024-10-15T08:09:53.000Z</time>
      </trkpt>
      <trkpt lat="45.10416" lon="5.98653">
        <ele>1851.1999511719</ele>
        <time>2024-10-15T08:09:54.000Z</time>
      </trkpt>
      <trkpt lat="45.10416" lon="5.98653">
        <ele>1851.4000244141</ele>
        <time>2024-10-15T08:09:55.000Z</time>
      </trkpt>
      <trkpt lat="45.10416" lon="5.98653">
        <ele>1851.5999755859</ele>
        <time>2024-10-15T08:09:56.000Z</time>
      </trkpt>
      <trkpt lat="45.10416" lon="5.98652">
        <ele>1851.8000488281</ele>
        <time>2024-10-15T08:09:57.000Z</time>
      </trkpt>
      <trkpt lat="45.10416" lon="5.98652">
        <ele>1852</ele>
        <time>2024-10-15T08:09:58.000Z</time>
      </trkpt>
      <trkpt lat="45.10415" lon="5.98652">
        <ele>1852</ele>
        <time>2024-10-15T08:09:59.000Z</time>
      </trkpt>
      <trkpt lat="45.10416" lon="5.98651">
        <ele>1852</ele>
        <time>2024-10-15T08:10:00.000Z</time>
      </trkpt>
      <trkpt lat="45.10416" lon="5.98649">
        <ele>1852.1999511719</ele>
        <time>2024-10-15T08:10:01.000Z</time>
      </trkpt>
      <trkpt lat="45.10417" lon="5.98647">
        <ele>1852.4000244141</ele>
        <time>2024-10-15T08:10:02.000Z</time>
      </trkpt>
      <trkpt lat="45.10417" lon="5.98646">
        <ele>1852.4000244141</ele>
        <time>2024-10-15T08:10:03.000Z</time>
      </trkpt>
      <trkpt lat="45.10417" lon="5.98645">
        <ele>1852.8000488281</ele>
        <time>2024-10-15T08:10:04.000Z</time>
      </trkpt>
      <trkpt lat="45.10417" lon="5.98644">
        <ele>1853</ele>
        <time>2024-10-15T08:10:05.000Z</time>
      </trkpt>
      <trkpt lat="45.10417" lon="5.98644">
        <ele>1853.5999755859</ele>
        <time>2024-10-15T08:10:06.000Z</time>
      </trkpt>
      <trkpt lat="45.10417" lon="5.98644">
        <ele>1853.8000488281</ele>
        <time>2024-10-15T08:10:07.000Z</time>
      </trkpt>
      <trkpt lat="45.10417" lon="5.98644">
        <ele>1853.8000488281</ele>
        <time>2024-10-15T08:10:08.000Z</time>
      </trkpt>
      <trkpt lat="45.10417" lon="5.98644">
        <ele>1853.8000488281</ele>
        <time>2024-10-15T08:10:09.000Z</time>
      </trkpt>
      <trkpt lat="45.10417" lon="5.98644">
        <ele>1853.8000488281</ele>
        <time>2024-10-15T08:10:10.000Z</time>
      </trkpt>
      <trkpt lat="45.10417" lon="5.98644">
        <ele>1853.8000488281</ele>
        <time>2024-10-15T08:10:11.000Z</time>
      </trkpt>
      <trkpt lat="45.10417" lon="5.98644">
        <ele>1853.8000488281</ele>
        <time>2024-10-15T08:10:12.000Z</time>
      </trkpt>
      <trkpt lat="45.10417" lon="5.98644">
        <ele>1853.8000488281</ele>
        <time>2024-10-15T08:10:13.000Z</time>
      </trkpt>
      <trkpt lat="45.10417" lon="5.98644">
        <ele>1853.5999755859</ele>
        <time>2024-10-15T08:10:14.000Z</time>
      </trkpt>
      <trkpt lat="45.10417" lon="5.98644">
        <ele>1853.1999511719</ele>
        <time>2024-10-15T08:10:15.000Z</time>
      </trkpt>
      <trkpt lat="45.10417" lon="5.98644">
        <ele>1853.1999511719</ele>
        <time>2024-10-15T08:10:16.000Z</time>
      </trkpt>
      <trkpt lat="45.10417" lon="5.98644">
        <ele>1853.1999511719</ele>
        <time>2024-10-15T08:10:17.000Z</time>
      </trkpt>
      <trkpt lat="45.10417" lon="5.98644">
        <ele>1853.1999511719</ele>
        <time>2024-10-15T08:10:18.000Z</time>
      </trkpt>
      <trkpt lat="45.10417" lon="5.98643">
        <ele>1853.1999511719</ele>
        <time>2024-10-15T08:10:19.000Z</time>
      </trkpt>
      <trkpt lat="45.10417" lon="5.98642">
        <ele>1853.1999511719</ele>
        <time>2024-10-15T08:10:20.000Z</time>
      </trkpt>
      <trkpt lat="45.10417" lon="5.98641">
        <ele>1853.1999511719</ele>
        <time>2024-10-15T08:10:21.000Z</time>
      </trkpt>
      <trkpt lat="45.10416" lon="5.9864">
        <ele>1853.1999511719</ele>
        <time>2024-10-15T08:10:22.000Z</time>
      </trkpt>
      <trkpt lat="45.10416" lon="5.98639">
        <ele>1853.1999511719</ele>
        <time>2024-10-15T08:10:23.000Z</time>
      </trkpt>
      <trkpt lat="45.10416" lon="5.98638">
        <ele>1853.4000244141</ele>
        <time>2024-10-15T08:10:24.000Z</time>
      </trkpt>
      <trkpt lat="45.10416" lon="5.98637">
        <ele>1853.4000244141</ele>
        <time>2024-10-15T08:10:25.000Z</time>
      </trkpt>
      <trkpt lat="45.10416" lon="5.98637">
        <ele>1853.4000244141</ele>
        <time>2024-10-15T08:10:26.000Z</time>
      </trkpt>
      <trkpt lat="45.10416" lon="5.98636">
        <ele>1853.4000244141</ele>
        <time>2024-10-15T08:10:27.000Z</time>
      </trkpt>
      <trkpt lat="45.10416" lon="5.98635">
        <ele>1853.4000244141</ele>
        <time>2024-10-15T08:10:28.000Z</time>
      </trkpt>
      <trkpt lat="45.10416" lon="5.98634">
        <ele>1853.1999511719</ele>
        <time>2024-10-15T08:10:29.000Z</time>
      </trkpt>
      <trkpt lat="45.10416" lon="5.98634">
        <ele>1853.1999511719</ele>
        <time>2024-10-15T08:10:30.000Z</time>
      </trkpt>
      <trkpt lat="45.10416" lon="5.98634">
        <ele>1853.1999511719</ele>
        <time>2024-10-15T08:10:31.000Z</time>
      </trkpt>
      <trkpt lat="45.10416" lon="5.98634">
        <ele>1853.1999511719</ele>
        <time>2024-10-15T08:10:32.000Z</time>
      </trkpt>
      <trkpt lat="45.10416" lon="5.98634">
        <ele>1853.1999511719</ele>
        <time>2024-10-15T08:10:33.000Z</time>
      </trkpt>
      <trkpt lat="45.10416" lon="5.98634">
        <ele>1853</ele>
        <time>2024-10-15T08:10:34.000Z</time>
      </trkpt>
      <trkpt lat="45.10416" lon="5.98634">
        <ele>1853</ele>
        <time>2024-10-15T08:10:35.000Z</time>
      </trkpt>
      <trkpt lat="45.10416" lon="5.98634">
        <ele>1853</ele>
        <time>2024-10-15T08:10:36.000Z</time>
      </trkpt>
      <trkpt lat="45.10416" lon="5.98634">
        <ele>1853</ele>
        <time>2024-10-15T08:10:37.000Z</time>
      </trkpt>
      <trkpt lat="45.10416" lon="5.98634">
        <ele>1853</ele>
        <time>2024-10-15T08:10:38.000Z</time>
      </trkpt>
      <trkpt lat="45.10416" lon="5.98634">
        <ele>1853</ele>
        <time>2024-10-15T08:10:39.000Z</time>
      </trkpt>
      <trkpt lat="45.10416" lon="5.98634">
        <ele>1853</ele>
        <time>2024-10-15T08:10:40.000Z</time>
      </trkpt>
      <trkpt lat="45.10416" lon="5.98634">
        <ele>1853</ele>
        <time>2024-10-15T08:10:41.000Z</time>
      </trkpt>
      <trkpt lat="45.10416" lon="5.98634">
        <ele>1853</ele>
        <time>2024-10-15T08:10:42.000Z</time>
      </trkpt>
      <trkpt lat="45.10416" lon="5.98634">
        <ele>1853</ele>
        <time>2024-10-15T08:10:43.000Z</time>
      </trkpt>
      <trkpt lat="45.10416" lon="5.98634">
        <ele>1852.8000488281</ele>
        <time>2024-10-15T08:10:44.000Z</time>
      </trkpt>
      <trkpt lat="45.10416" lon="5.98634">
        <ele>1852.8000488281</ele>
        <time>2024-10-15T08:10:45.000Z</time>
      </trkpt>
      <trkpt lat="45.10416" lon="5.98634">
        <ele>1852.8000488281</ele>
        <time>2024-10-15T08:10:46.000Z</time>
      </trkpt>
      <trkpt lat="45.10416" lon="5.98634">
        <ele>1852.8000488281</ele>
        <time>2024-10-15T08:10:47.000Z</time>
      </trkpt>
      <trkpt lat="45.10416" lon="5.98634">
        <ele>1852.8000488281</ele>
        <time>2024-10-15T08:10:48.000Z</time>
      </trkpt>
      <trkpt lat="45.10416" lon="5.98634">
        <ele>1852.8000488281</ele>
        <time>2024-10-15T08:10:49.000Z</time>
      </trkpt>
      <trkpt lat="45.10416" lon="5.98634">
        <ele>1853</ele>
        <time>2024-10-15T08:10:50.000Z</time>
      </trkpt>
      <trkpt lat="45.10416" lon="5.98634">
        <ele>1853.4000244141</ele>
        <time>2024-10-15T08:10:51.000Z</time>
      </trkpt>
      <trkpt lat="45.10416" lon="5.98634">
        <ele>1853.5999755859</ele>
        <time>2024-10-15T08:10:52.000Z</time>
      </trkpt>
      <trkpt lat="45.10416" lon="5.98634">
        <ele>1853.5999755859</ele>
        <time>2024-10-15T08:10:53.000Z</time>
      </trkpt>
      <trkpt lat="45.10416" lon="5.98634">
        <ele>1853.8000488281</ele>
        <time>2024-10-15T08:10:54.000Z</time>
      </trkpt>
      <trkpt lat="45.10416" lon="5.98634">
        <ele>1854</ele>
        <time>2024-10-15T08:10:55.000Z</time>
      </trkpt>
      <trkpt lat="45.10416" lon="5.98634">
        <ele>1854</ele>
        <time>2024-10-15T08:10:56.000Z</time>
      </trkpt>
      <trkpt lat="45.10416" lon="5.98634">
        <ele>1854.1999511719</ele>
        <time>2024-10-15T08:10:57.000Z</time>
      </trkpt>
      <trkpt lat="45.10416" lon="5.98634">
        <ele>1854.4000244141</ele>
        <time>2024-10-15T08:10:58.000Z</time>
      </trkpt>
      <trkpt lat="45.10416" lon="5.98634">
        <ele>1854.5999755859</ele>
        <time>2024-10-15T08:10:59.000Z</time>
      </trkpt>
      <trkpt lat="45.10416" lon="5.98634">
        <ele>1855.1999511719</ele>
        <time>2024-10-15T08:11:00.000Z</time>
      </trkpt>
      <trkpt lat="45.10416" lon="5.98634">
        <ele>1855.4000244141</ele>
        <time>2024-10-15T08:11:01.000Z</time>
      </trkpt>
      <trkpt lat="45.10416" lon="5.98634">
        <ele>1855.8000488281</ele>
        <time>2024-10-15T08:11:02.000Z</time>
      </trkpt>
      <trkpt lat="45.10416" lon="5.98634">
        <ele>1855.8000488281</ele>
        <time>2024-10-15T08:11:03.000Z</time>
      </trkpt>
      <trkpt lat="45.10416" lon="5.98634">
        <ele>1856</ele>
        <time>2024-10-15T08:11:04.000Z</time>
      </trkpt>
      <trkpt lat="45.10416" lon="5.98634">
        <ele>1856.4000244141</ele>
        <time>2024-10-15T08:11:05.000Z</time>
      </trkpt>
      <trkpt lat="45.10416" lon="5.98634">
        <ele>1856.5999755859</ele>
        <time>2024-10-15T08:11:06.000Z</time>
      </trkpt>
      <trkpt lat="45.10415" lon="5.98635">
        <ele>1857</ele>
        <time>2024-10-15T08:11:07.000Z</time>
      </trkpt>
      <trkpt lat="45.10415" lon="5.98635">
        <ele>1857.4000244141</ele>
        <time>2024-10-15T08:11:08.000Z</time>
      </trkpt>
      <trkpt lat="45.10415" lon="5.98635">
        <ele>1857.5999755859</ele>
        <time>2024-10-15T08:11:09.000Z</time>
      </trkpt>
      <trkpt lat="45.10415" lon="5.98634">
        <ele>1857.8000488281</ele>
        <time>2024-10-15T08:11:10.000Z</time>
      </trkpt>
      <trkpt lat="45.10414" lon="5.98634">
        <ele>1858.1999511719</ele>
        <time>2024-10-15T08:11:11.000Z</time>
      </trkpt>
      <trkpt lat="45.10414" lon="5.98633">
        <ele>1858.1999511719</ele>
        <time>2024-10-15T08:11:12.000Z</time>
      </trkpt>
      <trkpt lat="45.10414" lon="5.98633">
        <ele>1858.5999755859</ele>
        <time>2024-10-15T08:11:13.000Z</time>
      </trkpt>
      <trkpt lat="45.10413" lon="5.98633">
        <ele>1859</ele>
        <time>2024-10-15T08:11:14.000Z</time>
      </trkpt>
      <trkpt lat="45.10413" lon="5.98633">
        <ele>1859</ele>
        <time>2024-10-15T08:11:15.000Z</time>
      </trkpt>
      <trkpt lat="45.10413" lon="5.98632">
        <ele>1859</ele>
        <time>2024-10-15T08:11:16.000Z</time>
      </trkpt>
      <trkpt lat="45.10412" lon="5.98632">
        <ele>1859.1999511719</ele>
        <time>2024-10-15T08:11:17.000Z</time>
      </trkpt>
      <trkpt lat="45.10411" lon="5.98631">
        <ele>1859.8000488281</ele>
        <time>2024-10-15T08:11:18.000Z</time>
      </trkpt>
      <trkpt lat="45.10411" lon="5.9863">
        <ele>1860</ele>
        <time>2024-10-15T08:11:19.000Z</time>
      </trkpt>
      <trkpt lat="45.10411" lon="5.9863">
        <ele>1860.1999511719</ele>
        <time>2024-10-15T08:11:20.000Z</time>
      </trkpt>
      <trkpt lat="45.10411" lon="5.98629">
        <ele>1860.4000244141</ele>
        <time>2024-10-15T08:11:21.000Z</time>
      </trkpt>
      <trkpt lat="45.10411" lon="5.98629">
        <ele>1860.5999755859</ele>
        <time>2024-10-15T08:11:22.000Z</time>
      </trkpt>
      <trkpt lat="45.1041" lon="5.98628">
        <ele>1860.5999755859</ele>
        <time>2024-10-15T08:11:23.000Z</time>
      </trkpt>
      <trkpt lat="45.1041" lon="5.98628">
        <ele>1861</ele>
        <time>2024-10-15T08:11:24.000Z</time>
      </trkpt>
      <trkpt lat="45.1041" lon="5.98628">
        <ele>1861</ele>
        <time>2024-10-15T08:11:25.000Z</time>
      </trkpt>
      <trkpt lat="45.1041" lon="5.98628">
        <ele>1861.1999511719</ele>
        <time>2024-10-15T08:11:26.000Z</time>
      </trkpt>
      <trkpt lat="45.1041" lon="5.98628">
        <ele>1861.1999511719</ele>
        <time>2024-10-15T08:11:27.000Z</time>
      </trkpt>
      <trkpt lat="45.1041" lon="5.98627">
        <ele>1861.4000244141</ele>
        <time>2024-10-15T08:11:28.000Z</time>
      </trkpt>
      <trkpt lat="45.1041" lon="5.98627">
        <ele>1861.4000244141</ele>
        <time>2024-10-15T08:11:29.000Z</time>
      </trkpt>
      <trkpt lat="45.1041" lon="5.98626">
        <ele>1861.4000244141</ele>
        <time>2024-10-15T08:11:30.000Z</time>
      </trkpt>
      <trkpt lat="45.1041" lon="5.98626">
        <ele>1861.8000488281</ele>
        <time>2024-10-15T08:11:31.000Z</time>
      </trkpt>
      <trkpt lat="45.10411" lon="5.98625">
        <ele>1862.1999511719</ele>
        <time>2024-10-15T08:11:32.000Z</time>
      </trkpt>
      <trkpt lat="45.10411" lon="5.98625">
        <ele>1862.5999755859</ele>
        <time>2024-10-15T08:11:33.000Z</time>
      </trkpt>
      <trkpt lat="45.10411" lon="5.98623">
        <ele>1862.5999755859</ele>
        <time>2024-10-15T08:11:34.000Z</time>
      </trkpt>
      <trkpt lat="45.10411" lon="5.98623">
        <ele>1863</ele>
        <time>2024-10-15T08:11:35.000Z</time>
      </trkpt>
      <trkpt lat="45.10411" lon="5.98623">
        <ele>1863.1999511719</ele>
        <time>2024-10-15T08:11:36.000Z</time>
      </trkpt>
      <trkpt lat="45.10411" lon="5.98622">
        <ele>1863.1999511719</ele>
        <time>2024-10-15T08:11:37.000Z</time>
      </trkpt>
      <trkpt lat="45.10411" lon="5.98622">
        <ele>1863.1999511719</ele>
        <time>2024-10-15T08:11:38.000Z</time>
      </trkpt>
      <trkpt lat="45.10411" lon="5.98622">
        <ele>1863.1999511719</ele>
        <time>2024-10-15T08:11:39.000Z</time>
      </trkpt>
      <trkpt lat="45.10411" lon="5.98623">
        <ele>1863.1999511719</ele>
        <time>2024-10-15T08:11:40.000Z</time>
      </trkpt>
      <trkpt lat="45.10411" lon="5.98623">
        <ele>1863.4000244141</ele>
        <time>2024-10-15T08:11:41.000Z</time>
      </trkpt>
      <trkpt lat="45.10411" lon="5.98623">
        <ele>1863.4000244141</ele>
        <time>2024-10-15T08:11:42.000Z</time>
      </trkpt>
      <trkpt lat="45.10411" lon="5.98623">
        <ele>1863.4000244141</ele>
        <time>2024-10-15T08:11:43.000Z</time>
      </trkpt>
      <trkpt lat="45.1041" lon="5.98624">
        <ele>1863.4000244141</ele>
        <time>2024-10-15T08:11:44.000Z</time>
      </trkpt>
      <trkpt lat="45.1041" lon="5.98623">
        <ele>1863.5999755859</ele>
        <time>2024-10-15T08:11:45.000Z</time>
      </trkpt>
      <trkpt lat="45.1041" lon="5.98623">
        <ele>1863.5999755859</ele>
        <time>2024-10-15T08:11:46.000Z</time>
      </trkpt>
      <trkpt lat="45.1041" lon="5.98623">
        <ele>1863.8000488281</ele>
        <time>2024-10-15T08:11:47.000Z</time>
      </trkpt>
      <trkpt lat="45.1041" lon="5.98623">
        <ele>1864</ele>
        <time>2024-10-15T08:11:48.000Z</time>
      </trkpt>
      <trkpt lat="45.1041" lon="5.98623">
        <ele>1864.4000244141</ele>
        <time>2024-10-15T08:11:49.000Z</time>
      </trkpt>
      <trkpt lat="45.1041" lon="5.98623">
        <ele>1864.5999755859</ele>
        <time>2024-10-15T08:11:50.000Z</time>
      </trkpt>
      <trkpt lat="45.10409" lon="5.98622">
        <ele>1864.8000488281</ele>
        <time>2024-10-15T08:11:51.000Z</time>
      </trkpt>
      <trkpt lat="45.10409" lon="5.98622">
        <ele>1865</ele>
        <time>2024-10-15T08:11:52.000Z</time>
      </trkpt>
      <trkpt lat="45.10409" lon="5.98622">
        <ele>1865.1999511719</ele>
        <time>2024-10-15T08:11:53.000Z</time>
      </trkpt>
      <trkpt lat="45.10409" lon="5.98622">
        <ele>1865.5999755859</ele>
        <time>2024-10-15T08:11:54.000Z</time>
      </trkpt>
      <trkpt lat="45.10409" lon="5.98622">
        <ele>1865.5999755859</ele>
        <time>2024-10-15T08:11:55.000Z</time>
      </trkpt>
      <trkpt lat="45.10409" lon="5.98622">
        <ele>1865.5999755859</ele>
        <time>2024-10-15T08:11:56.000Z</time>
      </trkpt>
      <trkpt lat="45.10409" lon="5.98622">
        <ele>1865.5999755859</ele>
        <time>2024-10-15T08:11:57.000Z</time>
      </trkpt>
      <trkpt lat="45.10409" lon="5.98622">
        <ele>1865.8000488281</ele>
        <time>2024-10-15T08:11:58.000Z</time>
      </trkpt>
      <trkpt lat="45.10409" lon="5.98622">
        <ele>1865.8000488281</ele>
        <time>2024-10-15T08:11:59.000Z</time>
      </trkpt>
      <trkpt lat="45.10409" lon="5.98622">
        <ele>1865.8000488281</ele>
        <time>2024-10-15T08:12:00.000Z</time>
      </trkpt>
      <trkpt lat="45.10409" lon="5.98622">
        <ele>1866</ele>
        <time>2024-10-15T08:12:01.000Z</time>
      </trkpt>
      <trkpt lat="45.10409" lon="5.98622">
        <ele>1866.1999511719</ele>
        <time>2024-10-15T08:12:02.000Z</time>
      </trkpt>
      <trkpt lat="45.10409" lon="5.98622">
        <ele>1866.4000244141</ele>
        <time>2024-10-15T08:12:03.000Z</time>
      </trkpt>
      <trkpt lat="45.10409" lon="5.98622">
        <ele>1866.4000244141</ele>
        <time>2024-10-15T08:12:04.000Z</time>
      </trkpt>
      <trkpt lat="45.10409" lon="5.98622">
        <ele>1866.8000488281</ele>
        <time>2024-10-15T08:12:05.000Z</time>
      </trkpt>
      <trkpt lat="45.10409" lon="5.98622">
        <ele>1866.8000488281</ele>
        <time>2024-10-15T08:12:06.000Z</time>
      </trkpt>
      <trkpt lat="45.10409" lon="5.98622">
        <ele>1867.1999511719</ele>
        <time>2024-10-15T08:12:07.000Z</time>
      </trkpt>
      <trkpt lat="45.10409" lon="5.98622">
        <ele>1867.4000244141</ele>
        <time>2024-10-15T08:12:08.000Z</time>
      </trkpt>
      <trkpt lat="45.10409" lon="5.98622">
        <ele>1867.8000488281</ele>
        <time>2024-10-15T08:12:09.000Z</time>
      </trkpt>
      <trkpt lat="45.10409" lon="5.98622">
        <ele>1868</ele>
        <time>2024-10-15T08:12:10.000Z</time>
      </trkpt>
      <trkpt lat="45.10409" lon="5.98622">
        <ele>1868.1999511719</ele>
        <time>2024-10-15T08:12:11.000Z</time>
      </trkpt>
      <trkpt lat="45.10409" lon="5.98622">
        <ele>1868.4000244141</ele>
        <time>2024-10-15T08:12:12.000Z</time>
      </trkpt>
      <trkpt lat="45.10409" lon="5.98622">
        <ele>1868.5999755859</ele>
        <time>2024-10-15T08:12:13.000Z</time>
      </trkpt>
      <trkpt lat="45.10409" lon="5.98622">
        <ele>1869</ele>
        <time>2024-10-15T08:12:14.000Z</time>
      </trkpt>
      <trkpt lat="45.10409" lon="5.98622">
        <ele>1869</ele>
        <time>2024-10-15T08:12:15.000Z</time>
      </trkpt>
      <trkpt lat="45.10409" lon="5.98622">
        <ele>1869</ele>
        <time>2024-10-15T08:12:16.000Z</time>
      </trkpt>
      <trkpt lat="45.10409" lon="5.98622">
        <ele>1869.1999511719</ele>
        <time>2024-10-15T08:12:17.000Z</time>
      </trkpt>
      <trkpt lat="45.10409" lon="5.98622">
        <ele>1869.1999511719</ele>
        <time>2024-10-15T08:12:18.000Z</time>
      </trkpt>
      <trkpt lat="45.10409" lon="5.98622">
        <ele>1869.1999511719</ele>
        <time>2024-10-15T08:12:19.000Z</time>
      </trkpt>
      <trkpt lat="45.10409" lon="5.98621">
        <ele>1869.1999511719</ele>
        <time>2024-10-15T08:12:20.000Z</time>
      </trkpt>
      <trkpt lat="45.10408" lon="5.98621">
        <ele>1869.1999511719</ele>
        <time>2024-10-15T08:12:21.000Z</time>
      </trkpt>
      <trkpt lat="45.10408" lon="5.9862">
        <ele>1869.1999511719</ele>
        <time>2024-10-15T08:12:22.000Z</time>
      </trkpt>
      <trkpt lat="45.10408" lon="5.98619">
        <ele>1869.4000244141</ele>
        <time>2024-10-15T08:12:23.000Z</time>
      </trkpt>
      <trkpt lat="45.10408" lon="5.98619">
        <ele>1869.4000244141</ele>
        <time>2024-10-15T08:12:24.000Z</time>
      </trkpt>
      <trkpt lat="45.10408" lon="5.98618">
        <ele>1869.4000244141</ele>
        <time>2024-10-15T08:12:25.000Z</time>
      </trkpt>
      <trkpt lat="45.10408" lon="5.98618">
        <ele>1869.4000244141</ele>
        <time>2024-10-15T08:12:26.000Z</time>
      </trkpt>
      <trkpt lat="45.10408" lon="5.98618">
        <ele>1869.4000244141</ele>
        <time>2024-10-15T08:12:27.000Z</time>
      </trkpt>
      <trkpt lat="45.10408" lon="5.98617">
        <ele>1869.4000244141</ele>
        <time>2024-10-15T08:12:28.000Z</time>
      </trkpt>
      <trkpt lat="45.10408" lon="5.98617">
        <ele>1869.4000244141</ele>
        <time>2024-10-15T08:12:29.000Z</time>
      </trkpt>
      <trkpt lat="45.10408" lon="5.98617">
        <ele>1869.4000244141</ele>
        <time>2024-10-15T08:12:30.000Z</time>
      </trkpt>
      <trkpt lat="45.10408" lon="5.98617">
        <ele>1869.4000244141</ele>
        <time>2024-10-15T08:12:31.000Z</time>
      </trkpt>
      <trkpt lat="45.10408" lon="5.98617">
        <ele>1869.4000244141</ele>
        <time>2024-10-15T08:12:32.000Z</time>
      </trkpt>
      <trkpt lat="45.10408" lon="5.98617">
        <ele>1869.4000244141</ele>
        <time>2024-10-15T08:12:33.000Z</time>
      </trkpt>
      <trkpt lat="45.10408" lon="5.98617">
        <ele>1869.4000244141</ele>
        <time>2024-10-15T08:12:34.000Z</time>
      </trkpt>
      <trkpt lat="45.10408" lon="5.98617">
        <ele>1869.4000244141</ele>
        <time>2024-10-15T08:12:35.000Z</time>
      </trkpt>
      <trkpt lat="45.10408" lon="5.98617">
        <ele>1869.4000244141</ele>
        <time>2024-10-15T08:12:36.000Z</time>
      </trkpt>
      <trkpt lat="45.10408" lon="5.98617">
        <ele>1869.1999511719</ele>
        <time>2024-10-15T08:12:37.000Z</time>
      </trkpt>
      <trkpt lat="45.10408" lon="5.98617">
        <ele>1869.1999511719</ele>
        <time>2024-10-15T08:12:38.000Z</time>
      </trkpt>
      <trkpt lat="45.10408" lon="5.98617">
        <ele>1869.1999511719</ele>
        <time>2024-10-15T08:12:39.000Z</time>
      </trkpt>
      <trkpt lat="45.10408" lon="5.98617">
        <ele>1869.1999511719</ele>
        <time>2024-10-15T08:12:40.000Z</time>
      </trkpt>
      <trkpt lat="45.10408" lon="5.98617">
        <ele>1869.1999511719</ele>
        <time>2024-10-15T08:12:41.000Z</time>
      </trkpt>
      <trkpt lat="45.10408" lon="5.98617">
        <ele>1869.1999511719</ele>
        <time>2024-10-15T08:12:42.000Z</time>
      </trkpt>
      <trkpt lat="45.10408" lon="5.98617">
        <ele>1869.4000244141</ele>
        <time>2024-10-15T08:12:43.000Z</time>
      </trkpt>
      <trkpt lat="45.10408" lon="5.98617">
        <ele>1869.4000244141</ele>
        <time>2024-10-15T08:12:44.000Z</time>
      </trkpt>
      <trkpt lat="45.10408" lon="5.98617">
        <ele>1869.4000244141</ele>
        <time>2024-10-15T08:12:45.000Z</time>
      </trkpt>
      <trkpt lat="45.10408" lon="5.98617">
        <ele>1869.4000244141</ele>
        <time>2024-10-15T08:12:46.000Z</time>
      </trkpt>
      <trkpt lat="45.10408" lon="5.98617">
        <ele>1869.5999755859</ele>
        <time>2024-10-15T08:12:47.000Z</time>
      </trkpt>
      <trkpt lat="45.10408" lon="5.98617">
        <ele>1869.5999755859</ele>
        <time>2024-10-15T08:12:48.000Z</time>
      </trkpt>
      <trkpt lat="45.10408" lon="5.98617">
        <ele>1869.4000244141</ele>
        <time>2024-10-15T08:12:49.000Z</time>
      </trkpt>
      <trkpt lat="45.10408" lon="5.98617">
        <ele>1869.5999755859</ele>
        <time>2024-10-15T08:12:50.000Z</time>
      </trkpt>
      <trkpt lat="45.10408" lon="5.98617">
        <ele>1869.5999755859</ele>
        <time>2024-10-15T08:12:51.000Z</time>
      </trkpt>
      <trkpt lat="45.10408" lon="5.98617">
        <ele>1869.5999755859</ele>
        <time>2024-10-15T08:12:52.000Z</time>
      </trkpt>
      <trkpt lat="45.10408" lon="5.98617">
        <ele>1869.5999755859</ele>
        <time>2024-10-15T08:12:53.000Z</time>
      </trkpt>
      <trkpt lat="45.10408" lon="5.98617">
        <ele>1869.8000488281</ele>
        <time>2024-10-15T08:12:54.000Z</time>
      </trkpt>
      <trkpt lat="45.10408" lon="5.98617">
        <ele>1869.8000488281</ele>
        <time>2024-10-15T08:12:55.000Z</time>
      </trkpt>
      <trkpt lat="45.10408" lon="5.98617">
        <ele>1870.1999511719</ele>
        <time>2024-10-15T08:12:56.000Z</time>
      </trkpt>
      <trkpt lat="45.10408" lon="5.98617">
        <ele>1870.1999511719</ele>
        <time>2024-10-15T08:12:57.000Z</time>
      </trkpt>
      <trkpt lat="45.10408" lon="5.98617">
        <ele>1870.4000244141</ele>
        <time>2024-10-15T08:12:58.000Z</time>
      </trkpt>
      <trkpt lat="45.10408" lon="5.98617">
        <ele>1870.8000488281</ele>
        <time>2024-10-15T08:12:59.000Z</time>
      </trkpt>
      <trkpt lat="45.10408" lon="5.98617">
        <ele>1871</ele>
        <time>2024-10-15T08:13:00.000Z</time>
      </trkpt>
      <trkpt lat="45.10408" lon="5.98616">
        <ele>1871.1999511719</ele>
        <time>2024-10-15T08:13:01.000Z</time>
      </trkpt>
      <trkpt lat="45.10408" lon="5.98616">
        <ele>1871.5999755859</ele>
        <time>2024-10-15T08:13:02.000Z</time>
      </trkpt>
      <trkpt lat="45.10408" lon="5.98616">
        <ele>1871.5999755859</ele>
        <time>2024-10-15T08:13:03.000Z</time>
      </trkpt>
      <trkpt lat="45.10408" lon="5.98616">
        <ele>1871.8000488281</ele>
        <time>2024-10-15T08:13:04.000Z</time>
      </trkpt>
      <trkpt lat="45.10408" lon="5.98615">
        <ele>1872.1999511719</ele>
        <time>2024-10-15T08:13:05.000Z</time>
      </trkpt>
      <trkpt lat="45.10407" lon="5.98615">
        <ele>1872.4000244141</ele>
        <time>2024-10-15T08:13:06.000Z</time>
      </trkpt>
      <trkpt lat="45.10407" lon="5.98614">
        <ele>1872.4000244141</ele>
        <time>2024-10-15T08:13:07.000Z</time>
      </trkpt>
      <trkpt lat="45.10407" lon="5.98614">
        <ele>1872.5999755859</ele>
        <time>2024-10-15T08:13:08.000Z</time>
      </trkpt>
      <trkpt lat="45.10406" lon="5.98613">
        <ele>1872.8000488281</ele>
        <time>2024-10-15T08:13:09.000Z</time>
      </trkpt>
      <trkpt lat="45.10406" lon="5.98612">
        <ele>1872.8000488281</ele>
        <time>2024-10-15T08:13:10.000Z</time>
      </trkpt>
      <trkpt lat="45.10406" lon="5.98612">
        <ele>1873</ele>
        <time>2024-10-15T08:13:11.000Z</time>
      </trkpt>
      <trkpt lat="45.10406" lon="5.98611">
        <ele>1873</ele>
        <time>2024-10-15T08:13:12.000Z</time>
      </trkpt>
      <trkpt lat="45.10406" lon="5.98611">
        <ele>1873.1999511719</ele>
        <time>2024-10-15T08:13:13.000Z</time>
      </trkpt>
      <trkpt lat="45.10406" lon="5.98611">
        <ele>1873.5999755859</ele>
        <time>2024-10-15T08:13:14.000Z</time>
      </trkpt>
      <trkpt lat="45.10406" lon="5.9861">
        <ele>1873.8000488281</ele>
        <time>2024-10-15T08:13:15.000Z</time>
      </trkpt>
      <trkpt lat="45.10406" lon="5.9861">
        <ele>1873.8000488281</ele>
        <time>2024-10-15T08:13:16.000Z</time>
      </trkpt>
      <trkpt lat="45.10406" lon="5.98609">
        <ele>1873.8000488281</ele>
        <time>2024-10-15T08:13:17.000Z</time>
      </trkpt>
      <trkpt lat="45.10406" lon="5.98609">
        <ele>1874</ele>
        <time>2024-10-15T08:13:18.000Z</time>
      </trkpt>
      <trkpt lat="45.10406" lon="5.98608">
        <ele>1874</ele>
        <time>2024-10-15T08:13:19.000Z</time>
      </trkpt>
      <trkpt lat="45.10406" lon="5.98608">
        <ele>1874.1999511719</ele>
        <time>2024-10-15T08:13:20.000Z</time>
      </trkpt>
      <trkpt lat="45.10406" lon="5.98608">
        <ele>1874.1999511719</ele>
        <time>2024-10-15T08:13:21.000Z</time>
      </trkpt>
      <trkpt lat="45.10406" lon="5.98607">
        <ele>1874.1999511719</ele>
        <time>2024-10-15T08:13:22.000Z</time>
      </trkpt>
      <trkpt lat="45.10406" lon="5.98607">
        <ele>1874.4000244141</ele>
        <time>2024-10-15T08:13:23.000Z</time>
      </trkpt>
      <trkpt lat="45.10406" lon="5.98606">
        <ele>1874.5999755859</ele>
        <time>2024-10-15T08:13:24.000Z</time>
      </trkpt>
      <trkpt lat="45.10406" lon="5.98606">
        <ele>1874.8000488281</ele>
        <time>2024-10-15T08:13:25.000Z</time>
      </trkpt>
      <trkpt lat="45.10406" lon="5.98605">
        <ele>1874.8000488281</ele>
        <time>2024-10-15T08:13:26.000Z</time>
      </trkpt>
      <trkpt lat="45.10406" lon="5.98604">
        <ele>1874.8000488281</ele>
        <time>2024-10-15T08:13:27.000Z</time>
      </trkpt>
      <trkpt lat="45.10406" lon="5.98604">
        <ele>1875</ele>
        <time>2024-10-15T08:13:28.000Z</time>
      </trkpt>
      <trkpt lat="45.10406" lon="5.98603">
        <ele>1875</ele>
        <time>2024-10-15T08:13:29.000Z</time>
      </trkpt>
      <trkpt lat="45.10406" lon="5.98603">
        <ele>1875.1999511719</ele>
        <time>2024-10-15T08:13:30.000Z</time>
      </trkpt>
      <trkpt lat="45.10406" lon="5.98602">
        <ele>1875.1999511719</ele>
        <time>2024-10-15T08:13:31.000Z</time>
      </trkpt>
      <trkpt lat="45.10406" lon="5.98602">
        <ele>1875.4000244141</ele>
        <time>2024-10-15T08:13:32.000Z</time>
      </trkpt>
      <trkpt lat="45.10406" lon="5.98601">
        <ele>1875.8000488281</ele>
        <time>2024-10-15T08:13:33.000Z</time>
      </trkpt>
      <trkpt lat="45.10407" lon="5.98601">
        <ele>1875.8000488281</ele>
        <time>2024-10-15T08:13:34.000Z</time>
      </trkpt>
      <trkpt lat="45.10407" lon="5.986">
        <ele>1876.1999511719</ele>
        <time>2024-10-15T08:13:35.000Z</time>
      </trkpt>
      <trkpt lat="45.10408" lon="5.98599">
        <ele>1876.1999511719</ele>
        <time>2024-10-15T08:13:36.000Z</time>
      </trkpt>
      <trkpt lat="45.10408" lon="5.98599">
        <ele>1876.1999511719</ele>
        <time>2024-10-15T08:13:37.000Z</time>
      </trkpt>
      <trkpt lat="45.10408" lon="5.98599">
        <ele>1876.4000244141</ele>
        <time>2024-10-15T08:13:38.000Z</time>
      </trkpt>
      <trkpt lat="45.10409" lon="5.98598">
        <ele>1876.4000244141</ele>
        <time>2024-10-15T08:13:39.000Z</time>
      </trkpt>
      <trkpt lat="45.10409" lon="5.98598">
        <ele>1876.4000244141</ele>
        <time>2024-10-15T08:13:40.000Z</time>
      </trkpt>
      <trkpt lat="45.10409" lon="5.98597">
        <ele>1876.4000244141</ele>
        <time>2024-10-15T08:13:41.000Z</time>
      </trkpt>
      <trkpt lat="45.10409" lon="5.98597">
        <ele>1876.5999755859</ele>
        <time>2024-10-15T08:13:42.000Z</time>
      </trkpt>
      <trkpt lat="45.10409" lon="5.98596">
        <ele>1876.5999755859</ele>
        <time>2024-10-15T08:13:43.000Z</time>
      </trkpt>
      <trkpt lat="45.10409" lon="5.98595">
        <ele>1876.8000488281</ele>
        <time>2024-10-15T08:13:44.000Z</time>
      </trkpt>
      <trkpt lat="45.10409" lon="5.98595">
        <ele>1877</ele>
        <time>2024-10-15T08:13:45.000Z</time>
      </trkpt>
      <trkpt lat="45.10409" lon="5.98594">
        <ele>1877.1999511719</ele>
        <time>2024-10-15T08:13:46.000Z</time>
      </trkpt>
      <trkpt lat="45.10409" lon="5.98594">
        <ele>1877.1999511719</ele>
        <time>2024-10-15T08:13:47.000Z</time>
      </trkpt>
      <trkpt lat="45.10409" lon="5.98594">
        <ele>1877.4000244141</ele>
        <time>2024-10-15T08:13:48.000Z</time>
      </trkpt>
      <trkpt lat="45.10409" lon="5.98594">
        <ele>1877.4000244141</ele>
        <time>2024-10-15T08:13:49.000Z</time>
      </trkpt>
      <trkpt lat="45.10409" lon="5.98593">
        <ele>1877.4000244141</ele>
        <time>2024-10-15T08:13:50.000Z</time>
      </trkpt>
      <trkpt lat="45.10409" lon="5.98593">
        <ele>1877.5999755859</ele>
        <time>2024-10-15T08:13:51.000Z</time>
      </trkpt>
      <trkpt lat="45.10409" lon="5.98593">
        <ele>1877.8000488281</ele>
        <time>2024-10-15T08:13:52.000Z</time>
      </trkpt>
      <trkpt lat="45.10409" lon="5.98593">
        <ele>1877.8000488281</ele>
        <time>2024-10-15T08:13:53.000Z</time>
      </trkpt>
      <trkpt lat="45.1041" lon="5.98593">
        <ele>1878</ele>
        <time>2024-10-15T08:13:54.000Z</time>
      </trkpt>
      <trkpt lat="45.10411" lon="5.98593">
        <ele>1878.1999511719</ele>
        <time>2024-10-15T08:13:55.000Z</time>
      </trkpt>
      <trkpt lat="45.10411" lon="5.98593">
        <ele>1878.4000244141</ele>
        <time>2024-10-15T08:13:56.000Z</time>
      </trkpt>
      <trkpt lat="45.10411" lon="5.98593">
        <ele>1878.8000488281</ele>
        <time>2024-10-15T08:13:57.000Z</time>
      </trkpt>
      <trkpt lat="45.10411" lon="5.98592">
        <ele>1879</ele>
        <time>2024-10-15T08:13:58.000Z</time>
      </trkpt>
      <trkpt lat="45.10412" lon="5.98592">
        <ele>1879</ele>
        <time>2024-10-15T08:13:59.000Z</time>
      </trkpt>
      <trkpt lat="45.10412" lon="5.98592">
        <ele>1879</ele>
        <time>2024-10-15T08:14:00.000Z</time>
      </trkpt>
      <trkpt lat="45.10412" lon="5.98592">
        <ele>1879</ele>
        <time>2024-10-15T08:14:01.000Z</time>
      </trkpt>
      <trkpt lat="45.10413" lon="5.98592">
        <ele>1879</ele>
        <time>2024-10-15T08:14:02.000Z</time>
      </trkpt>
      <trkpt lat="45.10413" lon="5.98591">
        <ele>1879.1999511719</ele>
        <time>2024-10-15T08:14:03.000Z</time>
      </trkpt>
      <trkpt lat="45.10413" lon="5.98591">
        <ele>1879.4000244141</ele>
        <time>2024-10-15T08:14:04.000Z</time>
      </trkpt>
      <trkpt lat="45.10413" lon="5.98591">
        <ele>1879.4000244141</ele>
        <time>2024-10-15T08:14:05.000Z</time>
      </trkpt>
      <trkpt lat="45.10413" lon="5.98591">
        <ele>1879.5999755859</ele>
        <time>2024-10-15T08:14:06.000Z</time>
      </trkpt>
      <trkpt lat="45.10414" lon="5.98591">
        <ele>1879.8000488281</ele>
        <time>2024-10-15T08:14:07.000Z</time>
      </trkpt>
      <trkpt lat="45.10414" lon="5.9859">
        <ele>1880</ele>
        <time>2024-10-15T08:14:08.000Z</time>
      </trkpt>
      <trkpt lat="45.10415" lon="5.9859">
        <ele>1880</ele>
        <time>2024-10-15T08:14:09.000Z</time>
      </trkpt>
      <trkpt lat="45.10415" lon="5.98589">
        <ele>1880.4000244141</ele>
        <time>2024-10-15T08:14:10.000Z</time>
      </trkpt>
      <trkpt lat="45.10415" lon="5.9859">
        <ele>1880.5999755859</ele>
        <time>2024-10-15T08:14:11.000Z</time>
      </trkpt>
      <trkpt lat="45.10415" lon="5.9859">
        <ele>1880.8000488281</ele>
        <time>2024-10-15T08:14:12.000Z</time>
      </trkpt>
      <trkpt lat="45.10415" lon="5.98591">
        <ele>1881.1999511719</ele>
        <time>2024-10-15T08:14:13.000Z</time>
      </trkpt>
      <trkpt lat="45.10415" lon="5.98591">
        <ele>1881.4000244141</ele>
        <time>2024-10-15T08:14:14.000Z</time>
      </trkpt>
      <trkpt lat="45.10415" lon="5.98591">
        <ele>1881.4000244141</ele>
        <time>2024-10-15T08:14:15.000Z</time>
      </trkpt>
      <trkpt lat="45.10415" lon="5.98591">
        <ele>1881.4000244141</ele>
        <time>2024-10-15T08:14:16.000Z</time>
      </trkpt>
      <trkpt lat="45.10414" lon="5.98591">
        <ele>1881.4000244141</ele>
        <time>2024-10-15T08:14:17.000Z</time>
      </trkpt>
      <trkpt lat="45.10415" lon="5.98591">
        <ele>1881.4000244141</ele>
        <time>2024-10-15T08:14:18.000Z</time>
      </trkpt>
      <trkpt lat="45.10415" lon="5.98591">
        <ele>1881.4000244141</ele>
        <time>2024-10-15T08:14:19.000Z</time>
      </trkpt>
      <trkpt lat="45.10415" lon="5.98591">
        <ele>1881.4000244141</ele>
        <time>2024-10-15T08:14:20.000Z</time>
      </trkpt>
      <trkpt lat="45.10415" lon="5.98591">
        <ele>1881.4000244141</ele>
        <time>2024-10-15T08:14:21.000Z</time>
      </trkpt>
      <trkpt lat="45.10415" lon="5.98591">
        <ele>1881.4000244141</ele>
        <time>2024-10-15T08:14:22.000Z</time>
      </trkpt>
      <trkpt lat="45.10415" lon="5.98591">
        <ele>1881.4000244141</ele>
        <time>2024-10-15T08:14:23.000Z</time>
      </trkpt>
      <trkpt lat="45.10415" lon="5.98591">
        <ele>1881.4000244141</ele>
        <time>2024-10-15T08:14:24.000Z</time>
      </trkpt>
      <trkpt lat="45.10415" lon="5.98591">
        <ele>1881.4000244141</ele>
        <time>2024-10-15T08:14:25.000Z</time>
      </trkpt>
      <trkpt lat="45.10415" lon="5.98591">
        <ele>1881.4000244141</ele>
        <time>2024-10-15T08:14:26.000Z</time>
      </trkpt>
      <trkpt lat="45.10415" lon="5.98591">
        <ele>1881.4000244141</ele>
        <time>2024-10-15T08:14:27.000Z</time>
      </trkpt>
      <trkpt lat="45.10415" lon="5.98591">
        <ele>1881.4000244141</ele>
        <time>2024-10-15T08:14:28.000Z</time>
      </trkpt>
      <trkpt lat="45.10415" lon="5.98591">
        <ele>1881.4000244141</ele>
        <time>2024-10-15T08:14:29.000Z</time>
      </trkpt>
      <trkpt lat="45.10415" lon="5.98591">
        <ele>1881.4000244141</ele>
        <time>2024-10-15T08:14:30.000Z</time>
      </trkpt>
      <trkpt lat="45.10415" lon="5.98591">
        <ele>1881.4000244141</ele>
        <time>2024-10-15T08:14:31.000Z</time>
      </trkpt>
      <trkpt lat="45.10415" lon="5.98591">
        <ele>1881.5999755859</ele>
        <time>2024-10-15T08:14:32.000Z</time>
      </trkpt>
      <trkpt lat="45.10415" lon="5.98591">
        <ele>1881.5999755859</ele>
        <time>2024-10-15T08:14:33.000Z</time>
      </trkpt>
      <trkpt lat="45.10415" lon="5.98591">
        <ele>1881.8000488281</ele>
        <time>2024-10-15T08:14:34.000Z</time>
      </trkpt>
      <trkpt lat="45.10414" lon="5.98591">
        <ele>1881.8000488281</ele>
        <time>2024-10-15T08:14:35.000Z</time>
      </trkpt>
      <trkpt lat="45.10414" lon="5.98591">
        <ele>1882</ele>
        <time>2024-10-15T08:14:36.000Z</time>
      </trkpt>
      <trkpt lat="45.10414" lon="5.98591">
        <ele>1882</ele>
        <time>2024-10-15T08:14:37.000Z</time>
      </trkpt>
      <trkpt lat="45.10414" lon="5.98591">
        <ele>1882.1999511719</ele>
        <time>2024-10-15T08:14:38.000Z</time>
      </trkpt>
      <trkpt lat="45.10414" lon="5.98591">
        <ele>1882.5999755859</ele>
        <time>2024-10-15T08:14:39.000Z</time>
      </trkpt>
      <trkpt lat="45.10414" lon="5.98591">
        <ele>1882.5999755859</ele>
        <time>2024-10-15T08:14:40.000Z</time>
      </trkpt>
      <trkpt lat="45.10414" lon="5.98591">
        <ele>1882.5999755859</ele>
        <time>2024-10-15T08:14:41.000Z</time>
      </trkpt>
      <trkpt lat="45.10414" lon="5.98591">
        <ele>1882.8000488281</ele>
        <time>2024-10-15T08:14:42.000Z</time>
      </trkpt>
      <trkpt lat="45.10414" lon="5.98591">
        <ele>1882.8000488281</ele>
        <time>2024-10-15T08:14:43.000Z</time>
      </trkpt>
      <trkpt lat="45.10414" lon="5.98591">
        <ele>1882.8000488281</ele>
        <time>2024-10-15T08:14:44.000Z</time>
      </trkpt>
      <trkpt lat="45.10414" lon="5.98591">
        <ele>1882.8000488281</ele>
        <time>2024-10-15T08:14:45.000Z</time>
      </trkpt>
      <trkpt lat="45.10414" lon="5.98591">
        <ele>1883.1999511719</ele>
        <time>2024-10-15T08:14:46.000Z</time>
      </trkpt>
      <trkpt lat="45.10414" lon="5.98591">
        <ele>1883.4000244141</ele>
        <time>2024-10-15T08:14:47.000Z</time>
      </trkpt>
      <trkpt lat="45.10414" lon="5.98591">
        <ele>1883.4000244141</ele>
        <time>2024-10-15T08:14:48.000Z</time>
      </trkpt>
      <trkpt lat="45.10414" lon="5.98591">
        <ele>1883.5999755859</ele>
        <time>2024-10-15T08:14:49.000Z</time>
      </trkpt>
      <trkpt lat="45.10415" lon="5.9859">
        <ele>1883.5999755859</ele>
        <time>2024-10-15T08:14:50.000Z</time>
      </trkpt>
      <trkpt lat="45.10415" lon="5.98589">
        <ele>1883.8000488281</ele>
        <time>2024-10-15T08:14:51.000Z</time>
      </trkpt>
      <trkpt lat="45.10415" lon="5.98589">
        <ele>1884</ele>
        <time>2024-10-15T08:14:52.000Z</time>
      </trkpt>
      <trkpt lat="45.10416" lon="5.98588">
        <ele>1884.4000244141</ele>
        <time>2024-10-15T08:14:53.000Z</time>
      </trkpt>
      <trkpt lat="45.10417" lon="5.98587">
        <ele>1884.5999755859</ele>
        <time>2024-10-15T08:14:54.000Z</time>
      </trkpt>
      <trkpt lat="45.10418" lon="5.98587">
        <ele>1884.8000488281</ele>
        <time>2024-10-15T08:14:55.000Z</time>
      </trkpt>
      <trkpt lat="45.10418" lon="5.98587">
        <ele>1885</ele>
        <time>2024-10-15T08:14:56.000Z</time>
      </trkpt>
      <trkpt lat="45.10418" lon="5.98586">
        <ele>1885.4000244141</ele>
        <time>2024-10-15T08:14:57.000Z</time>
      </trkpt>
      <trkpt lat="45.10418" lon="5.98586">
        <ele>1885.5999755859</ele>
        <time>2024-10-15T08:14:58.000Z</time>
      </trkpt>
      <trkpt lat="45.10418" lon="5.98586">
        <ele>1885.8000488281</ele>
        <time>2024-10-15T08:14:59.000Z</time>
      </trkpt>
      <trkpt lat="45.10419" lon="5.98585">
        <ele>1886.1999511719</ele>
        <time>2024-10-15T08:15:00.000Z</time>
      </trkpt>
      <trkpt lat="45.10419" lon="5.98585">
        <ele>1886.1999511719</ele>
        <time>2024-10-15T08:15:01.000Z</time>
      </trkpt>
      <trkpt lat="45.10419" lon="5.98585">
        <ele>1886.1999511719</ele>
        <time>2024-10-15T08:15:02.000Z</time>
      </trkpt>
      <trkpt lat="45.10419" lon="5.98585">
        <ele>1886.1999511719</ele>
        <time>2024-10-15T08:15:03.000Z</time>
      </trkpt>
      <trkpt lat="45.10419" lon="5.98584">
        <ele>1886.4000244141</ele>
        <time>2024-10-15T08:15:04.000Z</time>
      </trkpt>
      <trkpt lat="45.10419" lon="5.98584">
        <ele>1886.4000244141</ele>
        <time>2024-10-15T08:15:05.000Z</time>
      </trkpt>
      <trkpt lat="45.10419" lon="5.98584">
        <ele>1886.4000244141</ele>
        <time>2024-10-15T08:15:06.000Z</time>
      </trkpt>
      <trkpt lat="45.10419" lon="5.98584">
        <ele>1886.8000488281</ele>
        <time>2024-10-15T08:15:07.000Z</time>
      </trkpt>
      <trkpt lat="45.10419" lon="5.98584">
        <ele>1887</ele>
        <time>2024-10-15T08:15:08.000Z</time>
      </trkpt>
      <trkpt lat="45.10419" lon="5.98584">
        <ele>1887.1999511719</ele>
        <time>2024-10-15T08:15:09.000Z</time>
      </trkpt>
      <trkpt lat="45.10419" lon="5.98584">
        <ele>1887.4000244141</ele>
        <time>2024-10-15T08:15:10.000Z</time>
      </trkpt>
      <trkpt lat="45.10419" lon="5.98584">
        <ele>1887.4000244141</ele>
        <time>2024-10-15T08:15:11.000Z</time>
      </trkpt>
      <trkpt lat="45.1042" lon="5.98584">
        <ele>1887.5999755859</ele>
        <time>2024-10-15T08:15:12.000Z</time>
      </trkpt>
      <trkpt lat="45.1042" lon="5.98584">
        <ele>1887.5999755859</ele>
        <time>2024-10-15T08:15:13.000Z</time>
      </trkpt>
      <trkpt lat="45.1042" lon="5.98584">
        <ele>1887.8000488281</ele>
        <time>2024-10-15T08:15:14.000Z</time>
      </trkpt>
      <trkpt lat="45.10421" lon="5.98583">
        <ele>1888</ele>
        <time>2024-10-15T08:15:15.000Z</time>
      </trkpt>
      <trkpt lat="45.10421" lon="5.98583">
        <ele>1888</ele>
        <time>2024-10-15T08:15:16.000Z</time>
      </trkpt>
      <trkpt lat="45.10421" lon="5.98583">
        <ele>1888.1999511719</ele>
        <time>2024-10-15T08:15:17.000Z</time>
      </trkpt>
      <trkpt lat="45.10421" lon="5.98583">
        <ele>1888.4000244141</ele>
        <time>2024-10-15T08:15:18.000Z</time>
      </trkpt>
      <trkpt lat="45.10421" lon="5.98583">
        <ele>1888.4000244141</ele>
        <time>2024-10-15T08:15:19.000Z</time>
      </trkpt>
      <trkpt lat="45.10421" lon="5.98583">
        <ele>1888.4000244141</ele>
        <time>2024-10-15T08:15:20.000Z</time>
      </trkpt>
      <trkpt lat="45.10421" lon="5.98583">
        <ele>1888.4000244141</ele>
        <time>2024-10-15T08:15:21.000Z</time>
      </trkpt>
      <trkpt lat="45.10421" lon="5.98583">
        <ele>1888.4000244141</ele>
        <time>2024-10-15T08:15:22.000Z</time>
      </trkpt>
      <trkpt lat="45.10421" lon="5.98583">
        <ele>1888.4000244141</ele>
        <time>2024-10-15T08:15:23.000Z</time>
      </trkpt>
      <trkpt lat="45.10421" lon="5.98583">
        <ele>1888.4000244141</ele>
        <time>2024-10-15T08:15:24.000Z</time>
      </trkpt>
      <trkpt lat="45.10421" lon="5.98583">
        <ele>1888.4000244141</ele>
        <time>2024-10-15T08:15:25.000Z</time>
      </trkpt>
      <trkpt lat="45.10421" lon="5.98583">
        <ele>1888.4000244141</ele>
        <time>2024-10-15T08:15:26.000Z</time>
      </trkpt>
      <trkpt lat="45.10421" lon="5.98583">
        <ele>1888.5999755859</ele>
        <time>2024-10-15T08:15:27.000Z</time>
      </trkpt>
      <trkpt lat="45.10422" lon="5.98583">
        <ele>1888.8000488281</ele>
        <time>2024-10-15T08:15:28.000Z</time>
      </trkpt>
      <trkpt lat="45.10422" lon="5.98583">
        <ele>1889.1999511719</ele>
        <time>2024-10-15T08:15:29.000Z</time>
      </trkpt>
      <trkpt lat="45.10422" lon="5.98583">
        <ele>1889.1999511719</ele>
        <time>2024-10-15T08:15:30.000Z</time>
      </trkpt>
      <trkpt lat="45.10422" lon="5.98583">
        <ele>1889.1999511719</ele>
        <time>2024-10-15T08:15:31.000Z</time>
      </trkpt>
      <trkpt lat="45.10422" lon="5.98583">
        <ele>1889.1999511719</ele>
        <time>2024-10-15T08:15:32.000Z</time>
      </trkpt>
      <trkpt lat="45.10422" lon="5.98583">
        <ele>1889.1999511719</ele>
        <time>2024-10-15T08:15:33.000Z</time>
      </trkpt>
      <trkpt lat="45.10422" lon="5.98583">
        <ele>1889.1999511719</ele>
        <time>2024-10-15T08:15:34.000Z</time>
      </trkpt>
      <trkpt lat="45.10422" lon="5.98583">
        <ele>1889.4000244141</ele>
        <time>2024-10-15T08:15:35.000Z</time>
      </trkpt>
      <trkpt lat="45.10422" lon="5.98583">
        <ele>1889.4000244141</ele>
        <time>2024-10-15T08:15:36.000Z</time>
      </trkpt>
      <trkpt lat="45.10422" lon="5.98583">
        <ele>1889.4000244141</ele>
        <time>2024-10-15T08:15:37.000Z</time>
      </trkpt>
      <trkpt lat="45.10422" lon="5.98582">
        <ele>1889.4000244141</ele>
        <time>2024-10-15T08:15:38.000Z</time>
      </trkpt>
      <trkpt lat="45.10423" lon="5.98582">
        <ele>1889.1999511719</ele>
        <time>2024-10-15T08:15:39.000Z</time>
      </trkpt>
      <trkpt lat="45.10423" lon="5.98582">
        <ele>1889.1999511719</ele>
        <time>2024-10-15T08:15:40.000Z</time>
      </trkpt>
      <trkpt lat="45.10423" lon="5.98582">
        <ele>1889.1999511719</ele>
        <time>2024-10-15T08:15:41.000Z</time>
      </trkpt>
      <trkpt lat="45.10423" lon="5.98581">
        <ele>1889.1999511719</ele>
        <time>2024-10-15T08:15:42.000Z</time>
      </trkpt>
      <trkpt lat="45.10424" lon="5.98581">
        <ele>1889.1999511719</ele>
        <time>2024-10-15T08:15:43.000Z</time>
      </trkpt>
      <trkpt lat="45.10424" lon="5.9858">
        <ele>1889.1999511719</ele>
        <time>2024-10-15T08:15:44.000Z</time>
      </trkpt>
      <trkpt lat="45.10424" lon="5.9858">
        <ele>1889.1999511719</ele>
        <time>2024-10-15T08:15:45.000Z</time>
      </trkpt>
      <trkpt lat="45.10425" lon="5.98579">
        <ele>1889.1999511719</ele>
        <time>2024-10-15T08:15:46.000Z</time>
      </trkpt>
      <trkpt lat="45.10425" lon="5.98579">
        <ele>1889.1999511719</ele>
        <time>2024-10-15T08:15:47.000Z</time>
      </trkpt>
      <trkpt lat="45.10425" lon="5.98578">
        <ele>1889.1999511719</ele>
        <time>2024-10-15T08:15:48.000Z</time>
      </trkpt>
      <trkpt lat="45.10425" lon="5.98578">
        <ele>1889.4000244141</ele>
        <time>2024-10-15T08:15:49.000Z</time>
      </trkpt>
      <trkpt lat="45.10425" lon="5.98577">
        <ele>1889.5999755859</ele>
        <time>2024-10-15T08:15:50.000Z</time>
      </trkpt>
      <trkpt lat="45.10425" lon="5.98576">
        <ele>1889.5999755859</ele>
        <time>2024-10-15T08:15:51.000Z</time>
      </trkpt>
      <trkpt lat="45.10425" lon="5.98575">
        <ele>1889.8000488281</ele>
        <time>2024-10-15T08:15:52.000Z</time>
      </trkpt>
      <trkpt lat="45.10425" lon="5.98575">
        <ele>1890</ele>
        <time>2024-10-15T08:15:53.000Z</time>
      </trkpt>
      <trkpt lat="45.10425" lon="5.98575">
        <ele>1890.1999511719</ele>
        <time>2024-10-15T08:15:54.000Z</time>
      </trkpt>
      <trkpt lat="45.10425" lon="5.98575">
        <ele>1890.5999755859</ele>
        <time>2024-10-15T08:15:55.000Z</time>
      </trkpt>
      <trkpt lat="45.10424" lon="5.98575">
        <ele>1890.5999755859</ele>
        <time>2024-10-15T08:15:56.000Z</time>
      </trkpt>
      <trkpt lat="45.10424" lon="5.98575">
        <ele>1890.8000488281</ele>
        <time>2024-10-15T08:15:57.000Z</time>
      </trkpt>
      <trkpt lat="45.10424" lon="5.98575">
        <ele>1890.8000488281</ele>
        <time>2024-10-15T08:15:58.000Z</time>
      </trkpt>
      <trkpt lat="45.10424" lon="5.98575">
        <ele>1891</ele>
        <time>2024-10-15T08:15:59.000Z</time>
      </trkpt>
      <trkpt lat="45.10424" lon="5.98575">
        <ele>1891</ele>
        <time>2024-10-15T08:16:00.000Z</time>
      </trkpt>
      <trkpt lat="45.10424" lon="5.98574">
        <ele>1891</ele>
        <time>2024-10-15T08:16:01.000Z</time>
      </trkpt>
      <trkpt lat="45.10424" lon="5.98574">
        <ele>1891.1999511719</ele>
        <time>2024-10-15T08:16:02.000Z</time>
      </trkpt>
      <trkpt lat="45.10424" lon="5.98574">
        <ele>1891.4000244141</ele>
        <time>2024-10-15T08:16:03.000Z</time>
      </trkpt>
      <trkpt lat="45.10424" lon="5.98574">
        <ele>1891.4000244141</ele>
        <time>2024-10-15T08:16:04.000Z</time>
      </trkpt>
      <trkpt lat="45.10424" lon="5.98574">
        <ele>1891.4000244141</ele>
        <time>2024-10-15T08:16:05.000Z</time>
      </trkpt>
      <trkpt lat="45.10424" lon="5.98574">
        <ele>1891.5999755859</ele>
        <time>2024-10-15T08:16:06.000Z</time>
      </trkpt>
      <trkpt lat="45.10424" lon="5.98574">
        <ele>1891.8000488281</ele>
        <time>2024-10-15T08:16:07.000Z</time>
      </trkpt>
      <trkpt lat="45.10424" lon="5.98574">
        <ele>1891.8000488281</ele>
        <time>2024-10-15T08:16:08.000Z</time>
      </trkpt>
      <trkpt lat="45.10424" lon="5.98574">
        <ele>1892</ele>
        <time>2024-10-15T08:16:09.000Z</time>
      </trkpt>
      <trkpt lat="45.10424" lon="5.98574">
        <ele>1892.1999511719</ele>
        <time>2024-10-15T08:16:10.000Z</time>
      </trkpt>
      <trkpt lat="45.10424" lon="5.98574">
        <ele>1892.1999511719</ele>
        <time>2024-10-15T08:16:11.000Z</time>
      </trkpt>
      <trkpt lat="45.10424" lon="5.98574">
        <ele>1892.4000244141</ele>
        <time>2024-10-15T08:16:12.000Z</time>
      </trkpt>
      <trkpt lat="45.10424" lon="5.98574">
        <ele>1892.4000244141</ele>
        <time>2024-10-15T08:16:13.000Z</time>
      </trkpt>
      <trkpt lat="45.10424" lon="5.98574">
        <ele>1892.8000488281</ele>
        <time>2024-10-15T08:16:14.000Z</time>
      </trkpt>
      <trkpt lat="45.10424" lon="5.98574">
        <ele>1892.8000488281</ele>
        <time>2024-10-15T08:16:15.000Z</time>
      </trkpt>
      <trkpt lat="45.10424" lon="5.98574">
        <ele>1892.8000488281</ele>
        <time>2024-10-15T08:16:16.000Z</time>
      </trkpt>
      <trkpt lat="45.10424" lon="5.98574">
        <ele>1893</ele>
        <time>2024-10-15T08:16:17.000Z</time>
      </trkpt>
      <trkpt lat="45.10424" lon="5.98574">
        <ele>1893</ele>
        <time>2024-10-15T08:16:18.000Z</time>
      </trkpt>
      <trkpt lat="45.10424" lon="5.98574">
        <ele>1893</ele>
        <time>2024-10-15T08:16:19.000Z</time>
      </trkpt>
      <trkpt lat="45.10424" lon="5.98574">
        <ele>1893.1999511719</ele>
        <time>2024-10-15T08:16:20.000Z</time>
      </trkpt>
      <trkpt lat="45.10424" lon="5.98574">
        <ele>1893.1999511719</ele>
        <time>2024-10-15T08:16:21.000Z</time>
      </trkpt>
      <trkpt lat="45.10424" lon="5.98574">
        <ele>1893.4000244141</ele>
        <time>2024-10-15T08:16:22.000Z</time>
      </trkpt>
      <trkpt lat="45.10424" lon="5.98573">
        <ele>1893.4000244141</ele>
        <time>2024-10-15T08:16:23.000Z</time>
      </trkpt>
      <trkpt lat="45.10424" lon="5.98573">
        <ele>1893.5999755859</ele>
        <time>2024-10-15T08:16:24.000Z</time>
      </trkpt>
      <trkpt lat="45.10424" lon="5.98573">
        <ele>1893.5999755859</ele>
        <time>2024-10-15T08:16:25.000Z</time>
      </trkpt>
      <trkpt lat="45.10424" lon="5.98573">
        <ele>1893.8000488281</ele>
        <time>2024-10-15T08:16:26.000Z</time>
      </trkpt>
      <trkpt lat="45.10424" lon="5.98573">
        <ele>1894</ele>
        <time>2024-10-15T08:16:27.000Z</time>
      </trkpt>
      <trkpt lat="45.10424" lon="5.98573">
        <ele>1894</ele>
        <time>2024-10-15T08:16:28.000Z</time>
      </trkpt>
      <trkpt lat="45.10424" lon="5.98573">
        <ele>1894</ele>
        <time>2024-10-15T08:16:29.000Z</time>
      </trkpt>
      <trkpt lat="45.10424" lon="5.98573">
        <ele>1894</ele>
        <time>2024-10-15T08:16:30.000Z</time>
      </trkpt>
      <trkpt lat="45.10424" lon="5.98573">
        <ele>1894</ele>
        <time>2024-10-15T08:16:31.000Z</time>
      </trkpt>
      <trkpt lat="45.10424" lon="5.98572">
        <ele>1894.1999511719</ele>
        <time>2024-10-15T08:16:32.000Z</time>
      </trkpt>
      <trkpt lat="45.10424" lon="5.98572">
        <ele>1894.1999511719</ele>
        <time>2024-10-15T08:16:33.000Z</time>
      </trkpt>
      <trkpt lat="45.10424" lon="5.98572">
        <ele>1894.4000244141</ele>
        <time>2024-10-15T08:16:34.000Z</time>
      </trkpt>
      <trkpt lat="45.10424" lon="5.98572">
        <ele>1894.4000244141</ele>
        <time>2024-10-15T08:16:35.000Z</time>
      </trkpt>
      <trkpt lat="45.10424" lon="5.98572">
        <ele>1894.5999755859</ele>
        <time>2024-10-15T08:16:36.000Z</time>
      </trkpt>
      <trkpt lat="45.10424" lon="5.98572">
        <ele>1894.5999755859</ele>
        <time>2024-10-15T08:16:37.000Z</time>
      </trkpt>
      <trkpt lat="45.10424" lon="5.98572">
        <ele>1894.5999755859</ele>
        <time>2024-10-15T08:16:38.000Z</time>
      </trkpt>
      <trkpt lat="45.10424" lon="5.98572">
        <ele>1894.5999755859</ele>
        <time>2024-10-15T08:16:39.000Z</time>
      </trkpt>
      <trkpt lat="45.10423" lon="5.98572">
        <ele>1894.5999755859</ele>
        <time>2024-10-15T08:16:40.000Z</time>
      </trkpt>
      <trkpt lat="45.10423" lon="5.98572">
        <ele>1894.8000488281</ele>
        <time>2024-10-15T08:16:41.000Z</time>
      </trkpt>
      <trkpt lat="45.10423" lon="5.98571">
        <ele>1894.8000488281</ele>
        <time>2024-10-15T08:16:42.000Z</time>
      </trkpt>
      <trkpt lat="45.10423" lon="5.98571">
        <ele>1895</ele>
        <time>2024-10-15T08:16:43.000Z</time>
      </trkpt>
      <trkpt lat="45.10423" lon="5.98571">
        <ele>1895</ele>
        <time>2024-10-15T08:16:44.000Z</time>
      </trkpt>
      <trkpt lat="45.10423" lon="5.98571">
        <ele>1895</ele>
        <time>2024-10-15T08:16:45.000Z</time>
      </trkpt>
      <trkpt lat="45.10423" lon="5.98571">
        <ele>1895.1999511719</ele>
        <time>2024-10-15T08:16:46.000Z</time>
      </trkpt>
      <trkpt lat="45.10423" lon="5.9857">
        <ele>1895.1999511719</ele>
        <time>2024-10-15T08:16:47.000Z</time>
      </trkpt>
      <trkpt lat="45.10423" lon="5.9857">
        <ele>1895.1999511719</ele>
        <time>2024-10-15T08:16:48.000Z</time>
      </trkpt>
      <trkpt lat="45.10423" lon="5.9857">
        <ele>1895.4000244141</ele>
        <time>2024-10-15T08:16:49.000Z</time>
      </trkpt>
      <trkpt lat="45.10423" lon="5.9857">
        <ele>1895.5999755859</ele>
        <time>2024-10-15T08:16:50.000Z</time>
      </trkpt>
      <trkpt lat="45.10423" lon="5.9857">
        <ele>1895.5999755859</ele>
        <time>2024-10-15T08:16:51.000Z</time>
      </trkpt>
      <trkpt lat="45.10423" lon="5.9857">
        <ele>1895.8000488281</ele>
        <time>2024-10-15T08:16:52.000Z</time>
      </trkpt>
      <trkpt lat="45.10423" lon="5.9857">
        <ele>1895.8000488281</ele>
        <time>2024-10-15T08:16:53.000Z</time>
      </trkpt>
      <trkpt lat="45.10424" lon="5.9857">
        <ele>1895.8000488281</ele>
        <time>2024-10-15T08:16:54.000Z</time>
      </trkpt>
      <trkpt lat="45.10424" lon="5.9857">
        <ele>1895.8000488281</ele>
        <time>2024-10-15T08:16:55.000Z</time>
      </trkpt>
      <trkpt lat="45.10424" lon="5.9857">
        <ele>1895.8000488281</ele>
        <time>2024-10-15T08:16:56.000Z</time>
      </trkpt>
      <trkpt lat="45.10424" lon="5.9857">
        <ele>1896</ele>
        <time>2024-10-15T08:16:57.000Z</time>
      </trkpt>
      <trkpt lat="45.10424" lon="5.9857">
        <ele>1896</ele>
        <time>2024-10-15T08:16:58.000Z</time>
      </trkpt>
      <trkpt lat="45.10424" lon="5.9857">
        <ele>1896.1999511719</ele>
        <time>2024-10-15T08:16:59.000Z</time>
      </trkpt>
      <trkpt lat="45.10424" lon="5.9857">
        <ele>1896.4000244141</ele>
        <time>2024-10-15T08:17:00.000Z</time>
      </trkpt>
      <trkpt lat="45.10424" lon="5.9857">
        <ele>1896.5999755859</ele>
        <time>2024-10-15T08:17:01.000Z</time>
      </trkpt>
      <trkpt lat="45.10424" lon="5.9857">
        <ele>1896.5999755859</ele>
        <time>2024-10-15T08:17:02.000Z</time>
      </trkpt>
      <trkpt lat="45.10424" lon="5.9857">
        <ele>1896.5999755859</ele>
        <time>2024-10-15T08:17:03.000Z</time>
      </trkpt>
      <trkpt lat="45.10424" lon="5.9857">
        <ele>1896.5999755859</ele>
        <time>2024-10-15T08:17:04.000Z</time>
      </trkpt>
      <trkpt lat="45.10424" lon="5.9857">
        <ele>1896.5999755859</ele>
        <time>2024-10-15T08:17:05.000Z</time>
      </trkpt>
      <trkpt lat="45.10424" lon="5.9857">
        <ele>1896.8000488281</ele>
        <time>2024-10-15T08:17:06.000Z</time>
      </trkpt>
      <trkpt lat="45.10424" lon="5.98569">
        <ele>1896.8000488281</ele>
        <time>2024-10-15T08:17:07.000Z</time>
      </trkpt>
      <trkpt lat="45.10424" lon="5.98569">
        <ele>1897</ele>
        <time>2024-10-15T08:17:08.000Z</time>
      </trkpt>
      <trkpt lat="45.10424" lon="5.98569">
        <ele>1897</ele>
        <time>2024-10-15T08:17:09.000Z</time>
      </trkpt>
      <trkpt lat="45.10424" lon="5.98569">
        <ele>1897</ele>
        <time>2024-10-15T08:17:10.000Z</time>
      </trkpt>
      <trkpt lat="45.10424" lon="5.98569">
        <ele>1897.1999511719</ele>
        <time>2024-10-15T08:17:11.000Z</time>
      </trkpt>
      <trkpt lat="45.10424" lon="5.98569">
        <ele>1897.4000244141</ele>
        <time>2024-10-15T08:17:12.000Z</time>
      </trkpt>
      <trkpt lat="45.10424" lon="5.98569">
        <ele>1897.4000244141</ele>
        <time>2024-10-15T08:17:13.000Z</time>
      </trkpt>
      <trkpt lat="45.10424" lon="5.98568">
        <ele>1897.4000244141</ele>
        <time>2024-10-15T08:17:14.000Z</time>
      </trkpt>
      <trkpt lat="45.10424" lon="5.98568">
        <ele>1897.5999755859</ele>
        <time>2024-10-15T08:17:15.000Z</time>
      </trkpt>
      <trkpt lat="45.10424" lon="5.98568">
        <ele>1897.5999755859</ele>
        <time>2024-10-15T08:17:16.000Z</time>
      </trkpt>
      <trkpt lat="45.10424" lon="5.98568">
        <ele>1897.5999755859</ele>
        <time>2024-10-15T08:17:17.000Z</time>
      </trkpt>
      <trkpt lat="45.10424" lon="5.98569">
        <ele>1897.5999755859</ele>
        <time>2024-10-15T08:17:18.000Z</time>
      </trkpt>
      <trkpt lat="45.10424" lon="5.98568">
        <ele>1897.5999755859</ele>
        <time>2024-10-15T08:17:19.000Z</time>
      </trkpt>
      <trkpt lat="45.10424" lon="5.98569">
        <ele>1897.5999755859</ele>
        <time>2024-10-15T08:17:20.000Z</time>
      </trkpt>
      <trkpt lat="45.10423" lon="5.98569">
        <ele>1897.5999755859</ele>
        <time>2024-10-15T08:17:21.000Z</time>
      </trkpt>
      <trkpt lat="45.10422" lon="5.9857">
        <ele>1897.5999755859</ele>
        <time>2024-10-15T08:17:22.000Z</time>
      </trkpt>
      <trkpt lat="45.10421" lon="5.9857">
        <ele>1897.4000244141</ele>
        <time>2024-10-15T08:17:23.000Z</time>
      </trkpt>
      <trkpt lat="45.10421" lon="5.9857">
        <ele>1897.4000244141</ele>
        <time>2024-10-15T08:17:24.000Z</time>
      </trkpt>
      <trkpt lat="45.10421" lon="5.9857">
        <ele>1897.1999511719</ele>
        <time>2024-10-15T08:17:25.000Z</time>
      </trkpt>
      <trkpt lat="45.10421" lon="5.9857">
        <ele>1897.1999511719</ele>
        <time>2024-10-15T08:17:26.000Z</time>
      </trkpt>
      <trkpt lat="45.10421" lon="5.9857">
        <ele>1897.1999511719</ele>
        <time>2024-10-15T08:17:27.000Z</time>
      </trkpt>
      <trkpt lat="45.10421" lon="5.9857">
        <ele>1897.1999511719</ele>
        <time>2024-10-15T08:17:28.000Z</time>
      </trkpt>
      <trkpt lat="45.10421" lon="5.9857">
        <ele>1897.1999511719</ele>
        <time>2024-10-15T08:17:29.000Z</time>
      </trkpt>
      <trkpt lat="45.10421" lon="5.9857">
        <ele>1897.1999511719</ele>
        <time>2024-10-15T08:17:30.000Z</time>
      </trkpt>
      <trkpt lat="45.10421" lon="5.9857">
        <ele>1897.1999511719</ele>
        <time>2024-10-15T08:17:31.000Z</time>
      </trkpt>
      <trkpt lat="45.10421" lon="5.9857">
        <ele>1897.1999511719</ele>
        <time>2024-10-15T08:17:32.000Z</time>
      </trkpt>
      <trkpt lat="45.10421" lon="5.9857">
        <ele>1897.4000244141</ele>
        <time>2024-10-15T08:17:33.000Z</time>
      </trkpt>
      <trkpt lat="45.10421" lon="5.9857">
        <ele>1897.5999755859</ele>
        <time>2024-10-15T08:17:34.000Z</time>
      </trkpt>
      <trkpt lat="45.10421" lon="5.9857">
        <ele>1897.5999755859</ele>
        <time>2024-10-15T08:17:35.000Z</time>
      </trkpt>
      <trkpt lat="45.10421" lon="5.9857">
        <ele>1897.8000488281</ele>
        <time>2024-10-15T08:17:36.000Z</time>
      </trkpt>
      <trkpt lat="45.10421" lon="5.9857">
        <ele>1898.1999511719</ele>
        <time>2024-10-15T08:17:37.000Z</time>
      </trkpt>
      <trkpt lat="45.10421" lon="5.9857">
        <ele>1898.5999755859</ele>
        <time>2024-10-15T08:17:38.000Z</time>
      </trkpt>
      <trkpt lat="45.10421" lon="5.9857">
        <ele>1898.5999755859</ele>
        <time>2024-10-15T08:17:39.000Z</time>
      </trkpt>
      <trkpt lat="45.10421" lon="5.9857">
        <ele>1898.8000488281</ele>
        <time>2024-10-15T08:17:40.000Z</time>
      </trkpt>
      <trkpt lat="45.10421" lon="5.9857">
        <ele>1899</ele>
        <time>2024-10-15T08:17:41.000Z</time>
      </trkpt>
      <trkpt lat="45.10421" lon="5.9857">
        <ele>1899.1999511719</ele>
        <time>2024-10-15T08:17:42.000Z</time>
      </trkpt>
      <trkpt lat="45.10421" lon="5.98569">
        <ele>1899.1999511719</ele>
        <time>2024-10-15T08:17:43.000Z</time>
      </trkpt>
      <trkpt lat="45.1042" lon="5.98569">
        <ele>1899.4000244141</ele>
        <time>2024-10-15T08:17:44.000Z</time>
      </trkpt>
      <trkpt lat="45.1042" lon="5.98569">
        <ele>1899.4000244141</ele>
        <time>2024-10-15T08:17:45.000Z</time>
      </trkpt>
      <trkpt lat="45.1042" lon="5.98569">
        <ele>1899.4000244141</ele>
        <time>2024-10-15T08:17:46.000Z</time>
      </trkpt>
      <trkpt lat="45.1042" lon="5.98569">
        <ele>1899.4000244141</ele>
        <time>2024-10-15T08:17:47.000Z</time>
      </trkpt>
      <trkpt lat="45.1042" lon="5.98568">
        <ele>1899.4000244141</ele>
        <time>2024-10-15T08:17:48.000Z</time>
      </trkpt>
      <trkpt lat="45.1042" lon="5.98568">
        <ele>1899.4000244141</ele>
        <time>2024-10-15T08:17:49.000Z</time>
      </trkpt>
      <trkpt lat="45.1042" lon="5.98568">
        <ele>1899.4000244141</ele>
        <time>2024-10-15T08:17:50.000Z</time>
      </trkpt>
      <trkpt lat="45.1042" lon="5.98568">
        <ele>1899.4000244141</ele>
        <time>2024-10-15T08:17:51.000Z</time>
      </trkpt>
      <trkpt lat="45.1042" lon="5.98567">
        <ele>1899.4000244141</ele>
        <time>2024-10-15T08:17:52.000Z</time>
      </trkpt>
      <trkpt lat="45.1042" lon="5.98567">
        <ele>1899.5999755859</ele>
        <time>2024-10-15T08:17:53.000Z</time>
      </trkpt>
      <trkpt lat="45.1042" lon="5.98567">
        <ele>1899.5999755859</ele>
        <time>2024-10-15T08:17:54.000Z</time>
      </trkpt>
      <trkpt lat="45.1042" lon="5.98566">
        <ele>1899.8000488281</ele>
        <time>2024-10-15T08:17:55.000Z</time>
      </trkpt>
      <trkpt lat="45.1042" lon="5.98566">
        <ele>1900</ele>
        <time>2024-10-15T08:17:56.000Z</time>
      </trkpt>
      <trkpt lat="45.1042" lon="5.98566">
        <ele>1900</ele>
        <time>2024-10-15T08:17:57.000Z</time>
      </trkpt>
      <trkpt lat="45.1042" lon="5.98566">
        <ele>1900.1999511719</ele>
        <time>2024-10-15T08:17:58.000Z</time>
      </trkpt>
      <trkpt lat="45.1042" lon="5.98566">
        <ele>1900.4000244141</ele>
        <time>2024-10-15T08:17:59.000Z</time>
      </trkpt>
      <trkpt lat="45.1042" lon="5.98566">
        <ele>1900.5999755859</ele>
        <time>2024-10-15T08:18:00.000Z</time>
      </trkpt>
      <trkpt lat="45.1042" lon="5.98565">
        <ele>1900.5999755859</ele>
        <time>2024-10-15T08:18:01.000Z</time>
      </trkpt>
      <trkpt lat="45.1042" lon="5.98565">
        <ele>1900.8000488281</ele>
        <time>2024-10-15T08:18:02.000Z</time>
      </trkpt>
      <trkpt lat="45.1042" lon="5.98564">
        <ele>1901</ele>
        <time>2024-10-15T08:18:03.000Z</time>
      </trkpt>
      <trkpt lat="45.1042" lon="5.98564">
        <ele>1901.1999511719</ele>
        <time>2024-10-15T08:18:04.000Z</time>
      </trkpt>
      <trkpt lat="45.1042" lon="5.98564">
        <ele>1901.4000244141</ele>
        <time>2024-10-15T08:18:05.000Z</time>
      </trkpt>
      <trkpt lat="45.1042" lon="5.98564">
        <ele>1901.5999755859</ele>
        <time>2024-10-15T08:18:06.000Z</time>
      </trkpt>
      <trkpt lat="45.1042" lon="5.98564">
        <ele>1901.8000488281</ele>
        <time>2024-10-15T08:18:07.000Z</time>
      </trkpt>
      <trkpt lat="45.1042" lon="5.98563">
        <ele>1902</ele>
        <time>2024-10-15T08:18:08.000Z</time>
      </trkpt>
      <trkpt lat="45.1042" lon="5.98563">
        <ele>1902.4000244141</ele>
        <time>2024-10-15T08:18:09.000Z</time>
      </trkpt>
      <trkpt lat="45.10421" lon="5.98562">
        <ele>1902.8000488281</ele>
        <time>2024-10-15T08:18:10.000Z</time>
      </trkpt>
      <trkpt lat="45.10421" lon="5.9856">
        <ele>1903.1999511719</ele>
        <time>2024-10-15T08:18:11.000Z</time>
      </trkpt>
      <trkpt lat="45.10419" lon="5.98558">
        <ele>1903.4000244141</ele>
        <time>2024-10-15T08:18:12.000Z</time>
      </trkpt>
      <trkpt lat="45.1042" lon="5.98558">
        <ele>1903.8000488281</ele>
        <time>2024-10-15T08:18:13.000Z</time>
      </trkpt>
      <trkpt lat="45.1042" lon="5.98557">
        <ele>1904.1999511719</ele>
        <time>2024-10-15T08:18:14.000Z</time>
      </trkpt>
      <trkpt lat="45.10419" lon="5.98557">
        <ele>1904.1999511719</ele>
        <time>2024-10-15T08:18:15.000Z</time>
      </trkpt>
      <trkpt lat="45.10418" lon="5.98557">
        <ele>1904.4000244141</ele>
        <time>2024-10-15T08:18:16.000Z</time>
      </trkpt>
      <trkpt lat="45.10417" lon="5.98557">
        <ele>1904.4000244141</ele>
        <time>2024-10-15T08:18:17.000Z</time>
      </trkpt>
      <trkpt lat="45.10418" lon="5.98556">
        <ele>1904.4000244141</ele>
        <time>2024-10-15T08:18:18.000Z</time>
      </trkpt>
      <trkpt lat="45.10418" lon="5.98557">
        <ele>1904.4000244141</ele>
        <time>2024-10-15T08:18:19.000Z</time>
      </trkpt>
      <trkpt lat="45.10418" lon="5.98557">
        <ele>1904.4000244141</ele>
        <time>2024-10-15T08:18:20.000Z</time>
      </trkpt>
      <trkpt lat="45.10418" lon="5.98557">
        <ele>1904.4000244141</ele>
        <time>2024-10-15T08:18:21.000Z</time>
      </trkpt>
      <trkpt lat="45.10418" lon="5.98557">
        <ele>1904.4000244141</ele>
        <time>2024-10-15T08:18:22.000Z</time>
      </trkpt>
      <trkpt lat="45.10418" lon="5.98557">
        <ele>1904.4000244141</ele>
        <time>2024-10-15T08:18:23.000Z</time>
      </trkpt>
      <trkpt lat="45.10419" lon="5.98557">
        <ele>1904.4000244141</ele>
        <time>2024-10-15T08:18:24.000Z</time>
      </trkpt>
      <trkpt lat="45.10419" lon="5.98558">
        <ele>1904.5999755859</ele>
        <time>2024-10-15T08:18:25.000Z</time>
      </trkpt>
      <trkpt lat="45.10419" lon="5.98557">
        <ele>1904.8000488281</ele>
        <time>2024-10-15T08:18:26.000Z</time>
      </trkpt>
      <trkpt lat="45.10419" lon="5.98557">
        <ele>1904.8000488281</ele>
        <time>2024-10-15T08:18:27.000Z</time>
      </trkpt>
      <trkpt lat="45.10419" lon="5.98557">
        <ele>1904.8000488281</ele>
        <time>2024-10-15T08:18:28.000Z</time>
      </trkpt>
      <trkpt lat="45.10419" lon="5.98557">
        <ele>1904.8000488281</ele>
        <time>2024-10-15T08:18:29.000Z</time>
      </trkpt>
      <trkpt lat="45.1042" lon="5.98557">
        <ele>1904.8000488281</ele>
        <time>2024-10-15T08:18:30.000Z</time>
      </trkpt>
      <trkpt lat="45.1042" lon="5.98557">
        <ele>1904.8000488281</ele>
        <time>2024-10-15T08:18:31.000Z</time>
      </trkpt>
      <trkpt lat="45.1042" lon="5.98558">
        <ele>1904.8000488281</ele>
        <time>2024-10-15T08:18:32.000Z</time>
      </trkpt>
      <trkpt lat="45.10421" lon="5.98558">
        <ele>1904.8000488281</ele>
        <time>2024-10-15T08:18:33.000Z</time>
      </trkpt>
      <trkpt lat="45.10421" lon="5.98558">
        <ele>1904.8000488281</ele>
        <time>2024-10-15T08:18:34.000Z</time>
      </trkpt>
      <trkpt lat="45.10421" lon="5.98558">
        <ele>1905</ele>
        <time>2024-10-15T08:18:35.000Z</time>
      </trkpt>
      <trkpt lat="45.10422" lon="5.98557">
        <ele>1905</ele>
        <time>2024-10-15T08:18:36.000Z</time>
      </trkpt>
      <trkpt lat="45.10422" lon="5.98557">
        <ele>1905</ele>
        <time>2024-10-15T08:18:37.000Z</time>
      </trkpt>
      <trkpt lat="45.1042" lon="5.98559">
        <ele>1905</ele>
        <time>2024-10-15T08:18:38.000Z</time>
      </trkpt>
      <trkpt lat="45.1042" lon="5.98561">
        <ele>1905.1999511719</ele>
        <time>2024-10-15T08:18:39.000Z</time>
      </trkpt>
      <trkpt lat="45.10419" lon="5.98562">
        <ele>1905.1999511719</ele>
        <time>2024-10-15T08:18:40.000Z</time>
      </trkpt>
      <trkpt lat="45.10419" lon="5.98564">
        <ele>1905.1999511719</ele>
        <time>2024-10-15T08:18:41.000Z</time>
      </trkpt>
      <trkpt lat="45.10418" lon="5.98565">
        <ele>1905.1999511719</ele>
        <time>2024-10-15T08:18:42.000Z</time>
      </trkpt>
      <trkpt lat="45.10416" lon="5.98564">
        <ele>1905.1999511719</ele>
        <time>2024-10-15T08:18:43.000Z</time>
      </trkpt>
      <trkpt lat="45.10416" lon="5.98564">
        <ele>1905.1999511719</ele>
        <time>2024-10-15T08:18:44.000Z</time>
      </trkpt>
      <trkpt lat="45.10416" lon="5.98563">
        <ele>1905.5999755859</ele>
        <time>2024-10-15T08:18:45.000Z</time>
      </trkpt>
      <trkpt lat="45.10416" lon="5.98563">
        <ele>1905.5999755859</ele>
        <time>2024-10-15T08:18:46.000Z</time>
      </trkpt>
      <trkpt lat="45.10416" lon="5.98563">
        <ele>1905.8000488281</ele>
        <time>2024-10-15T08:18:47.000Z</time>
      </trkpt>
      <trkpt lat="45.10416" lon="5.98563">
        <ele>1906</ele>
        <time>2024-10-15T08:18:48.000Z</time>
      </trkpt>
      <trkpt lat="45.10417" lon="5.98563">
        <ele>1906</ele>
        <time>2024-10-15T08:18:49.000Z</time>
      </trkpt>
      <trkpt lat="45.10417" lon="5.98563">
        <ele>1906.1999511719</ele>
        <time>2024-10-15T08:18:50.000Z</time>
      </trkpt>
      <trkpt lat="45.10417" lon="5.98563">
        <ele>1906.1999511719</ele>
        <time>2024-10-15T08:18:51.000Z</time>
      </trkpt>
      <trkpt lat="45.10417" lon="5.98563">
        <ele>1906.1999511719</ele>
        <time>2024-10-15T08:18:52.000Z</time>
      </trkpt>
      <trkpt lat="45.10418" lon="5.98563">
        <ele>1906.1999511719</ele>
        <time>2024-10-15T08:18:53.000Z</time>
      </trkpt>
      <trkpt lat="45.10418" lon="5.98563">
        <ele>1906.1999511719</ele>
        <time>2024-10-15T08:18:54.000Z</time>
      </trkpt>
      <trkpt lat="45.10419" lon="5.98563">
        <ele>1906.1999511719</ele>
        <time>2024-10-15T08:18:55.000Z</time>
      </trkpt>
      <trkpt lat="45.10419" lon="5.98563">
        <ele>1906.1999511719</ele>
        <time>2024-10-15T08:18:56.000Z</time>
      </trkpt>
      <trkpt lat="45.10419" lon="5.98563">
        <ele>1906</ele>
        <time>2024-10-15T08:18:57.000Z</time>
      </trkpt>
      <trkpt lat="45.10418" lon="5.98563">
        <ele>1906</ele>
        <time>2024-10-15T08:18:58.000Z</time>
      </trkpt>
      <trkpt lat="45.10419" lon="5.98564">
        <ele>1906</ele>
        <time>2024-10-15T08:18:59.000Z</time>
      </trkpt>
      <trkpt lat="45.10419" lon="5.98564">
        <ele>1906</ele>
        <time>2024-10-15T08:19:00.000Z</time>
      </trkpt>
      <trkpt lat="45.10419" lon="5.98564">
        <ele>1906</ele>
        <time>2024-10-15T08:19:01.000Z</time>
      </trkpt>
      <trkpt lat="45.10418" lon="5.98564">
        <ele>1906</ele>
        <time>2024-10-15T08:19:02.000Z</time>
      </trkpt>
      <trkpt lat="45.10418" lon="5.98565">
        <ele>1906</ele>
        <time>2024-10-15T08:19:03.000Z</time>
      </trkpt>
      <trkpt lat="45.10418" lon="5.98564">
        <ele>1906</ele>
        <time>2024-10-15T08:19:04.000Z</time>
      </trkpt>
      <trkpt lat="45.10419" lon="5.98564">
        <ele>1906</ele>
        <time>2024-10-15T08:19:05.000Z</time>
      </trkpt>
      <trkpt lat="45.10419" lon="5.98564">
        <ele>1906</ele>
        <time>2024-10-15T08:19:06.000Z</time>
      </trkpt>
      <trkpt lat="45.10419" lon="5.98565">
        <ele>1906</ele>
        <time>2024-10-15T08:19:07.000Z</time>
      </trkpt>
      <trkpt lat="45.1042" lon="5.98564">
        <ele>1906</ele>
        <time>2024-10-15T08:19:08.000Z</time>
      </trkpt>
      <trkpt lat="45.1042" lon="5.98564">
        <ele>1906</ele>
        <time>2024-10-15T08:19:09.000Z</time>
      </trkpt>
      <trkpt lat="45.10419" lon="5.98564">
        <ele>1906.1999511719</ele>
        <time>2024-10-15T08:19:10.000Z</time>
      </trkpt>
      <trkpt lat="45.10419" lon="5.98564">
        <ele>1906.1999511719</ele>
        <time>2024-10-15T08:19:11.000Z</time>
      </trkpt>
      <trkpt lat="45.10418" lon="5.98564">
        <ele>1906.1999511719</ele>
        <time>2024-10-15T08:19:12.000Z</time>
      </trkpt>
      <trkpt lat="45.10416" lon="5.98563">
        <ele>1906.1999511719</ele>
        <time>2024-10-15T08:19:13.000Z</time>
      </trkpt>
      <trkpt lat="45.10413" lon="5.98564">
        <ele>1906.1999511719</ele>
        <time>2024-10-15T08:19:14.000Z</time>
      </trkpt>
      <trkpt lat="45.10411" lon="5.98565">
        <ele>1906.1999511719</ele>
        <time>2024-10-15T08:19:15.000Z</time>
      </trkpt>
      <trkpt lat="45.10411" lon="5.98564">
        <ele>1906.1999511719</ele>
        <time>2024-10-15T08:19:16.000Z</time>
      </trkpt>
      <trkpt lat="45.1041" lon="5.98564">
        <ele>1906.1999511719</ele>
        <time>2024-10-15T08:19:17.000Z</time>
      </trkpt>
      <trkpt lat="45.10409" lon="5.98562">
        <ele>1906.1999511719</ele>
        <time>2024-10-15T08:19:18.000Z</time>
      </trkpt>
      <trkpt lat="45.10408" lon="5.98562">
        <ele>1906.4000244141</ele>
        <time>2024-10-15T08:19:19.000Z</time>
      </trkpt>
      <trkpt lat="45.10408" lon="5.98562">
        <ele>1906.4000244141</ele>
        <time>2024-10-15T08:19:20.000Z</time>
      </trkpt>
      <trkpt lat="45.10408" lon="5.98562">
        <ele>1906.5999755859</ele>
        <time>2024-10-15T08:19:21.000Z</time>
      </trkpt>
      <trkpt lat="45.10409" lon="5.98561">
        <ele>1906.5999755859</ele>
        <time>2024-10-15T08:19:22.000Z</time>
      </trkpt>
      <trkpt lat="45.1041" lon="5.98561">
        <ele>1906.5999755859</ele>
        <time>2024-10-15T08:19:23.000Z</time>
      </trkpt>
      <trkpt lat="45.1041" lon="5.98561">
        <ele>1906.8000488281</ele>
        <time>2024-10-15T08:19:24.000Z</time>
      </trkpt>
      <trkpt lat="45.1041" lon="5.98561">
        <ele>1906.8000488281</ele>
        <time>2024-10-15T08:19:25.000Z</time>
      </trkpt>
      <trkpt lat="45.10411" lon="5.98562">
        <ele>1906.8000488281</ele>
        <time>2024-10-15T08:19:26.000Z</time>
      </trkpt>
      <trkpt lat="45.10411" lon="5.98562">
        <ele>1906.8000488281</ele>
        <time>2024-10-15T08:19:27.000Z</time>
      </trkpt>
      <trkpt lat="45.10411" lon="5.98562">
        <ele>1906.8000488281</ele>
        <time>2024-10-15T08:19:28.000Z</time>
      </trkpt>
      <trkpt lat="45.10411" lon="5.98562">
        <ele>1907</ele>
        <time>2024-10-15T08:19:29.000Z</time>
      </trkpt>
      <trkpt lat="45.10412" lon="5.98562">
        <ele>1907.1999511719</ele>
        <time>2024-10-15T08:19:30.000Z</time>
      </trkpt>
      <trkpt lat="45.10413" lon="5.98563">
        <ele>1907.1999511719</ele>
        <time>2024-10-15T08:19:31.000Z</time>
      </trkpt>
      <trkpt lat="45.10413" lon="5.98563">
        <ele>1907.5999755859</ele>
        <time>2024-10-15T08:19:32.000Z</time>
      </trkpt>
      <trkpt lat="45.10413" lon="5.98563">
        <ele>1907.8000488281</ele>
        <time>2024-10-15T08:19:33.000Z</time>
      </trkpt>
      <trkpt lat="45.10413" lon="5.98563">
        <ele>1908</ele>
        <time>2024-10-15T08:19:34.000Z</time>
      </trkpt>
      <trkpt lat="45.10413" lon="5.98563">
        <ele>1908.1999511719</ele>
        <time>2024-10-15T08:19:35.000Z</time>
      </trkpt>
      <trkpt lat="45.10413" lon="5.98563">
        <ele>1908.1999511719</ele>
        <time>2024-10-15T08:19:36.000Z</time>
      </trkpt>
      <trkpt lat="45.10413" lon="5.98563">
        <ele>1908.1999511719</ele>
        <time>2024-10-15T08:19:37.000Z</time>
      </trkpt>
      <trkpt lat="45.10413" lon="5.98563">
        <ele>1908.1999511719</ele>
        <time>2024-10-15T08:19:38.000Z</time>
      </trkpt>
      <trkpt lat="45.10413" lon="5.98563">
        <ele>1908.1999511719</ele>
        <time>2024-10-15T08:19:39.000Z</time>
      </trkpt>
      <trkpt lat="45.10413" lon="5.98563">
        <ele>1908.1999511719</ele>
        <time>2024-10-15T08:19:40.000Z</time>
      </trkpt>
      <trkpt lat="45.10413" lon="5.98563">
        <ele>1908.1999511719</ele>
        <time>2024-10-15T08:19:41.000Z</time>
      </trkpt>
      <trkpt lat="45.10413" lon="5.98563">
        <ele>1908.1999511719</ele>
        <time>2024-10-15T08:19:42.000Z</time>
      </trkpt>
      <trkpt lat="45.10413" lon="5.98563">
        <ele>1908.1999511719</ele>
        <time>2024-10-15T08:19:43.000Z</time>
      </trkpt>
      <trkpt lat="45.10413" lon="5.98563">
        <ele>1908.1999511719</ele>
        <time>2024-10-15T08:19:44.000Z</time>
      </trkpt>
      <trkpt lat="45.10413" lon="5.98563">
        <ele>1908.1999511719</ele>
        <time>2024-10-15T08:19:45.000Z</time>
      </trkpt>
      <trkpt lat="45.10413" lon="5.98563">
        <ele>1908.1999511719</ele>
        <time>2024-10-15T08:19:46.000Z</time>
      </trkpt>
      <trkpt lat="45.10413" lon="5.98563">
        <ele>1908.1999511719</ele>
        <time>2024-10-15T08:19:47.000Z</time>
      </trkpt>
      <trkpt lat="45.10413" lon="5.98563">
        <ele>1908.1999511719</ele>
        <time>2024-10-15T08:19:48.000Z</time>
      </trkpt>
      <trkpt lat="45.10413" lon="5.98563">
        <ele>1908.4000244141</ele>
        <time>2024-10-15T08:19:49.000Z</time>
      </trkpt>
      <trkpt lat="45.10413" lon="5.98563">
        <ele>1908.5999755859</ele>
        <time>2024-10-15T08:19:50.000Z</time>
      </trkpt>
      <trkpt lat="45.10413" lon="5.98564">
        <ele>1909</ele>
        <time>2024-10-15T08:19:51.000Z</time>
      </trkpt>
      <trkpt lat="45.10413" lon="5.98564">
        <ele>1909.1999511719</ele>
        <time>2024-10-15T08:19:52.000Z</time>
      </trkpt>
      <trkpt lat="45.10413" lon="5.98565">
        <ele>1909.4000244141</ele>
        <time>2024-10-15T08:19:53.000Z</time>
      </trkpt>
      <trkpt lat="45.10413" lon="5.98565">
        <ele>1910</ele>
        <time>2024-10-15T08:19:54.000Z</time>
      </trkpt>
      <trkpt lat="45.10413" lon="5.98565">
        <ele>1910.1999511719</ele>
        <time>2024-10-15T08:19:55.000Z</time>
      </trkpt>
      <trkpt lat="45.10413" lon="5.98565">
        <ele>1910.1999511719</ele>
        <time>2024-10-15T08:19:56.000Z</time>
      </trkpt>
      <trkpt lat="45.10413" lon="5.98565">
        <ele>1910.1999511719</ele>
        <time>2024-10-15T08:19:57.000Z</time>
      </trkpt>
      <trkpt lat="45.10413" lon="5.98565">
        <ele>1910.1999511719</ele>
        <time>2024-10-15T08:19:58.000Z</time>
      </trkpt>
      <trkpt lat="45.10413" lon="5.98565">
        <ele>1910.4000244141</ele>
        <time>2024-10-15T08:19:59.000Z</time>
      </trkpt>
      <trkpt lat="45.10413" lon="5.98565">
        <ele>1910.5999755859</ele>
        <time>2024-10-15T08:20:00.000Z</time>
      </trkpt>
      <trkpt lat="45.10413" lon="5.98565">
        <ele>1910.5999755859</ele>
        <time>2024-10-15T08:20:01.000Z</time>
      </trkpt>
      <trkpt lat="45.10413" lon="5.98565">
        <ele>1910.8000488281</ele>
        <time>2024-10-15T08:20:02.000Z</time>
      </trkpt>
      <trkpt lat="45.10413" lon="5.98566">
        <ele>1910.8000488281</ele>
        <time>2024-10-15T08:20:03.000Z</time>
      </trkpt>
      <trkpt lat="45.10413" lon="5.98566">
        <ele>1910.8000488281</ele>
        <time>2024-10-15T08:20:04.000Z</time>
      </trkpt>
      <trkpt lat="45.10414" lon="5.98566">
        <ele>1910.8000488281</ele>
        <time>2024-10-15T08:20:05.000Z</time>
      </trkpt>
      <trkpt lat="45.10414" lon="5.98566">
        <ele>1911.1999511719</ele>
        <time>2024-10-15T08:20:06.000Z</time>
      </trkpt>
      <trkpt lat="45.10414" lon="5.98566">
        <ele>1911.4000244141</ele>
        <time>2024-10-15T08:20:07.000Z</time>
      </trkpt>
      <trkpt lat="45.10414" lon="5.98566">
        <ele>1911.5999755859</ele>
        <time>2024-10-15T08:20:08.000Z</time>
      </trkpt>
      <trkpt lat="45.10414" lon="5.98566">
        <ele>1911.8000488281</ele>
        <time>2024-10-15T08:20:09.000Z</time>
      </trkpt>
      <trkpt lat="45.10414" lon="5.98566">
        <ele>1911.8000488281</ele>
        <time>2024-10-15T08:20:10.000Z</time>
      </trkpt>
      <trkpt lat="45.10414" lon="5.98566">
        <ele>1911.8000488281</ele>
        <time>2024-10-15T08:20:11.000Z</time>
      </trkpt>
      <trkpt lat="45.10414" lon="5.98566">
        <ele>1911.8000488281</ele>
        <time>2024-10-15T08:20:12.000Z</time>
      </trkpt>
      <trkpt lat="45.10414" lon="5.98566">
        <ele>1911.8000488281</ele>
        <time>2024-10-15T08:20:13.000Z</time>
      </trkpt>
      <trkpt lat="45.10414" lon="5.98566">
        <ele>1911.8000488281</ele>
        <time>2024-10-15T08:20:14.000Z</time>
      </trkpt>
      <trkpt lat="45.10414" lon="5.98566">
        <ele>1911.8000488281</ele>
        <time>2024-10-15T08:20:15.000Z</time>
      </trkpt>
      <trkpt lat="45.10414" lon="5.98566">
        <ele>1911.8000488281</ele>
        <time>2024-10-15T08:20:16.000Z</time>
      </trkpt>
      <trkpt lat="45.10414" lon="5.98566">
        <ele>1911.8000488281</ele>
        <time>2024-10-15T08:20:17.000Z</time>
      </trkpt>
      <trkpt lat="45.10414" lon="5.98566">
        <ele>1911.5999755859</ele>
        <time>2024-10-15T08:20:18.000Z</time>
      </trkpt>
      <trkpt lat="45.10414" lon="5.98566">
        <ele>1911.5999755859</ele>
        <time>2024-10-15T08:20:19.000Z</time>
      </trkpt>
      <trkpt lat="45.10414" lon="5.98566">
        <ele>1911.5999755859</ele>
        <time>2024-10-15T08:20:20.000Z</time>
      </trkpt>
      <trkpt lat="45.10414" lon="5.98565">
        <ele>1911.5999755859</ele>
        <time>2024-10-15T08:20:21.000Z</time>
      </trkpt>
      <trkpt lat="45.10414" lon="5.98565">
        <ele>1911.5999755859</ele>
        <time>2024-10-15T08:20:22.000Z</time>
      </trkpt>
      <trkpt lat="45.10415" lon="5.98565">
        <ele>1911.5999755859</ele>
        <time>2024-10-15T08:20:23.000Z</time>
      </trkpt>
      <trkpt lat="45.10414" lon="5.98565">
        <ele>1911.5999755859</ele>
        <time>2024-10-15T08:20:24.000Z</time>
      </trkpt>
      <trkpt lat="45.10414" lon="5.98565">
        <ele>1911.5999755859</ele>
        <time>2024-10-15T08:20:25.000Z</time>
      </trkpt>
      <trkpt lat="45.10414" lon="5.98565">
        <ele>1911.5999755859</ele>
        <time>2024-10-15T08:20:26.000Z</time>
      </trkpt>
      <trkpt lat="45.10414" lon="5.98565">
        <ele>1911.5999755859</ele>
        <time>2024-10-15T08:20:27.000Z</time>
      </trkpt>
      <trkpt lat="45.10414" lon="5.98565">
        <ele>1911.5999755859</ele>
        <time>2024-10-15T08:20:28.000Z</time>
      </trkpt>
      <trkpt lat="45.10414" lon="5.98565">
        <ele>1911.4000244141</ele>
        <time>2024-10-15T08:20:29.000Z</time>
      </trkpt>
      <trkpt lat="45.10414" lon="5.98565">
        <ele>1911.4000244141</ele>
        <time>2024-10-15T08:20:30.000Z</time>
      </trkpt>
      <trkpt lat="45.10414" lon="5.98565">
        <ele>1911.4000244141</ele>
        <time>2024-10-15T08:20:31.000Z</time>
      </trkpt>
      <trkpt lat="45.10414" lon="5.98565">
        <ele>1911.4000244141</ele>
        <time>2024-10-15T08:20:32.000Z</time>
      </trkpt>
      <trkpt lat="45.10414" lon="5.98565">
        <ele>1911.4000244141</ele>
        <time>2024-10-15T08:20:33.000Z</time>
      </trkpt>
      <trkpt lat="45.10414" lon="5.98564">
        <ele>1911.4000244141</ele>
        <time>2024-10-15T08:20:34.000Z</time>
      </trkpt>
      <trkpt lat="45.10414" lon="5.98564">
        <ele>1911.4000244141</ele>
        <time>2024-10-15T08:20:35.000Z</time>
      </trkpt>
      <trkpt lat="45.10414" lon="5.98564">
        <ele>1911.4000244141</ele>
        <time>2024-10-15T08:20:36.000Z</time>
      </trkpt>
      <trkpt lat="45.10414" lon="5.98564">
        <ele>1911.4000244141</ele>
        <time>2024-10-15T08:20:37.000Z</time>
      </trkpt>
      <trkpt lat="45.10414" lon="5.98564">
        <ele>1911.4000244141</ele>
        <time>2024-10-15T08:20:38.000Z</time>
      </trkpt>
      <trkpt lat="45.10414" lon="5.98563">
        <ele>1911.4000244141</ele>
        <time>2024-10-15T08:20:39.000Z</time>
      </trkpt>
      <trkpt lat="45.10414" lon="5.98563">
        <ele>1911.4000244141</ele>
        <time>2024-10-15T08:20:40.000Z</time>
      </trkpt>
      <trkpt lat="45.10414" lon="5.98562">
        <ele>1911.4000244141</ele>
        <time>2024-10-15T08:20:41.000Z</time>
      </trkpt>
      <trkpt lat="45.10414" lon="5.98562">
        <ele>1911.4000244141</ele>
        <time>2024-10-15T08:20:42.000Z</time>
      </trkpt>
      <trkpt lat="45.10414" lon="5.98562">
        <ele>1911.4000244141</ele>
        <time>2024-10-15T08:20:43.000Z</time>
      </trkpt>
      <trkpt lat="45.10414" lon="5.98561">
        <ele>1911.4000244141</ele>
        <time>2024-10-15T08:20:44.000Z</time>
      </trkpt>
      <trkpt lat="45.10413" lon="5.98561">
        <ele>1911.4000244141</ele>
        <time>2024-10-15T08:20:45.000Z</time>
      </trkpt>
      <trkpt lat="45.10413" lon="5.98561">
        <ele>1911.1999511719</ele>
        <time>2024-10-15T08:20:46.000Z</time>
      </trkpt>
      <trkpt lat="45.10412" lon="5.98561">
        <ele>1911.1999511719</ele>
        <time>2024-10-15T08:20:47.000Z</time>
      </trkpt>
      <trkpt lat="45.10412" lon="5.98561">
        <ele>1911.1999511719</ele>
        <time>2024-10-15T08:20:48.000Z</time>
      </trkpt>
      <trkpt lat="45.10412" lon="5.98561">
        <ele>1911.1999511719</ele>
        <time>2024-10-15T08:20:49.000Z</time>
      </trkpt>
      <trkpt lat="45.10412" lon="5.98561">
        <ele>1911.1999511719</ele>
        <time>2024-10-15T08:20:50.000Z</time>
      </trkpt>
      <trkpt lat="45.10412" lon="5.98561">
        <ele>1911.1999511719</ele>
        <time>2024-10-15T08:20:51.000Z</time>
      </trkpt>
      <trkpt lat="45.10412" lon="5.98561">
        <ele>1911.1999511719</ele>
        <time>2024-10-15T08:20:52.000Z</time>
      </trkpt>
      <trkpt lat="45.10412" lon="5.98561">
        <ele>1911.1999511719</ele>
        <time>2024-10-15T08:20:53.000Z</time>
      </trkpt>
      <trkpt lat="45.10412" lon="5.98561">
        <ele>1911.1999511719</ele>
        <time>2024-10-15T08:20:54.000Z</time>
      </trkpt>
      <trkpt lat="45.10412" lon="5.98561">
        <ele>1911.1999511719</ele>
        <time>2024-10-15T08:20:55.000Z</time>
      </trkpt>
      <trkpt lat="45.10412" lon="5.98561">
        <ele>1911.1999511719</ele>
        <time>2024-10-15T08:20:56.000Z</time>
      </trkpt>
      <trkpt lat="45.10412" lon="5.98561">
        <ele>1911.1999511719</ele>
        <time>2024-10-15T08:20:57.000Z</time>
      </trkpt>
      <trkpt lat="45.10412" lon="5.98561">
        <ele>1911.1999511719</ele>
        <time>2024-10-15T08:20:58.000Z</time>
      </trkpt>
      <trkpt lat="45.10412" lon="5.98561">
        <ele>1911.1999511719</ele>
        <time>2024-10-15T08:20:59.000Z</time>
      </trkpt>
      <trkpt lat="45.10412" lon="5.98561">
        <ele>1911.1999511719</ele>
        <time>2024-10-15T08:21:00.000Z</time>
      </trkpt>
      <trkpt lat="45.10412" lon="5.98561">
        <ele>1911.1999511719</ele>
        <time>2024-10-15T08:21:01.000Z</time>
      </trkpt>
      <trkpt lat="45.10412" lon="5.98561">
        <ele>1911.1999511719</ele>
        <time>2024-10-15T08:21:02.000Z</time>
      </trkpt>
      <trkpt lat="45.10413" lon="5.98561">
        <ele>1911.1999511719</ele>
        <time>2024-10-15T08:21:03.000Z</time>
      </trkpt>
      <trkpt lat="45.10413" lon="5.98561">
        <ele>1911.1999511719</ele>
        <time>2024-10-15T08:21:04.000Z</time>
      </trkpt>
      <trkpt lat="45.10414" lon="5.98561">
        <ele>1911.1999511719</ele>
        <time>2024-10-15T08:21:05.000Z</time>
      </trkpt>
      <trkpt lat="45.10414" lon="5.9856">
        <ele>1911.1999511719</ele>
        <time>2024-10-15T08:21:06.000Z</time>
      </trkpt>
      <trkpt lat="45.10414" lon="5.9856">
        <ele>1911.1999511719</ele>
        <time>2024-10-15T08:21:07.000Z</time>
      </trkpt>
      <trkpt lat="45.10414" lon="5.9856">
        <ele>1911.1999511719</ele>
        <time>2024-10-15T08:21:08.000Z</time>
      </trkpt>
      <trkpt lat="45.10415" lon="5.9856">
        <ele>1911.4000244141</ele>
        <time>2024-10-15T08:21:09.000Z</time>
      </trkpt>
      <trkpt lat="45.10416" lon="5.98559">
        <ele>1911.4000244141</ele>
        <time>2024-10-15T08:21:10.000Z</time>
      </trkpt>
      <trkpt lat="45.10416" lon="5.98559">
        <ele>1911.4000244141</ele>
        <time>2024-10-15T08:21:11.000Z</time>
      </trkpt>
      <trkpt lat="45.10416" lon="5.98559">
        <ele>1911.4000244141</ele>
        <time>2024-10-15T08:21:12.000Z</time>
      </trkpt>
      <trkpt lat="45.10416" lon="5.98559">
        <ele>1911.4000244141</ele>
        <time>2024-10-15T08:21:13.000Z</time>
      </trkpt>
      <trkpt lat="45.10416" lon="5.98559">
        <ele>1911.4000244141</ele>
        <time>2024-10-15T08:21:14.000Z</time>
      </trkpt>
      <trkpt lat="45.10416" lon="5.98559">
        <ele>1911.4000244141</ele>
        <time>2024-10-15T08:21:15.000Z</time>
      </trkpt>
      <trkpt lat="45.10416" lon="5.98559">
        <ele>1911.4000244141</ele>
        <time>2024-10-15T08:21:16.000Z</time>
      </trkpt>
      <trkpt lat="45.10416" lon="5.98559">
        <ele>1911.4000244141</ele>
        <time>2024-10-15T08:21:17.000Z</time>
      </trkpt>
      <trkpt lat="45.10416" lon="5.98559">
        <ele>1911.5999755859</ele>
        <time>2024-10-15T08:21:18.000Z</time>
      </trkpt>
      <trkpt lat="45.10416" lon="5.98558">
        <ele>1911.5999755859</ele>
        <time>2024-10-15T08:21:19.000Z</time>
      </trkpt>
      <trkpt lat="45.10416" lon="5.98558">
        <ele>1911.5999755859</ele>
        <time>2024-10-15T08:21:20.000Z</time>
      </trkpt>
      <trkpt lat="45.10416" lon="5.98559">
        <ele>1911.5999755859</ele>
        <time>2024-10-15T08:21:21.000Z</time>
      </trkpt>
      <trkpt lat="45.10416" lon="5.98559">
        <ele>1911.5999755859</ele>
        <time>2024-10-15T08:21:22.000Z</time>
      </trkpt>
      <trkpt lat="45.10415" lon="5.98559">
        <ele>1911.5999755859</ele>
        <time>2024-10-15T08:21:23.000Z</time>
      </trkpt>
      <trkpt lat="45.10415" lon="5.98559">
        <ele>1911.5999755859</ele>
        <time>2024-10-15T08:21:24.000Z</time>
      </trkpt>
      <trkpt lat="45.10415" lon="5.98559">
        <ele>1911.5999755859</ele>
        <time>2024-10-15T08:21:25.000Z</time>
      </trkpt>
      <trkpt lat="45.10415" lon="5.98559">
        <ele>1911.5999755859</ele>
        <time>2024-10-15T08:21:26.000Z</time>
      </trkpt>
      <trkpt lat="45.10415" lon="5.98559">
        <ele>1911.4000244141</ele>
        <time>2024-10-15T08:21:27.000Z</time>
      </trkpt>
      <trkpt lat="45.10415" lon="5.98559">
        <ele>1911.4000244141</ele>
        <time>2024-10-15T08:21:28.000Z</time>
      </trkpt>
      <trkpt lat="45.10415" lon="5.98559">
        <ele>1911.4000244141</ele>
        <time>2024-10-15T08:21:29.000Z</time>
      </trkpt>
      <trkpt lat="45.10415" lon="5.98559">
        <ele>1911.4000244141</ele>
        <time>2024-10-15T08:21:30.000Z</time>
      </trkpt>
      <trkpt lat="45.10415" lon="5.98559">
        <ele>1911.5999755859</ele>
        <time>2024-10-15T08:21:31.000Z</time>
      </trkpt>
      <trkpt lat="45.10415" lon="5.98559">
        <ele>1911.5999755859</ele>
        <time>2024-10-15T08:21:32.000Z</time>
      </trkpt>
      <trkpt lat="45.10415" lon="5.98559">
        <ele>1911.5999755859</ele>
        <time>2024-10-15T08:21:33.000Z</time>
      </trkpt>
      <trkpt lat="45.10415" lon="5.98559">
        <ele>1911.8000488281</ele>
        <time>2024-10-15T08:21:34.000Z</time>
      </trkpt>
      <trkpt lat="45.10415" lon="5.98559">
        <ele>1911.8000488281</ele>
        <time>2024-10-15T08:21:35.000Z</time>
      </trkpt>
      <trkpt lat="45.10415" lon="5.98559">
        <ele>1912</ele>
        <time>2024-10-15T08:21:36.000Z</time>
      </trkpt>
      <trkpt lat="45.10415" lon="5.98559">
        <ele>1912.1999511719</ele>
        <time>2024-10-15T08:21:37.000Z</time>
      </trkpt>
      <trkpt lat="45.10415" lon="5.98559">
        <ele>1912.4000244141</ele>
        <time>2024-10-15T08:21:38.000Z</time>
      </trkpt>
      <trkpt lat="45.10415" lon="5.98559">
        <ele>1912.8000488281</ele>
        <time>2024-10-15T08:21:39.000Z</time>
      </trkpt>
      <trkpt lat="45.10415" lon="5.98559">
        <ele>1913</ele>
        <time>2024-10-15T08:21:40.000Z</time>
      </trkpt>
      <trkpt lat="45.10415" lon="5.98559">
        <ele>1913</ele>
        <time>2024-10-15T08:21:41.000Z</time>
      </trkpt>
      <trkpt lat="45.10415" lon="5.98559">
        <ele>1913.4000244141</ele>
        <time>2024-10-15T08:21:42.000Z</time>
      </trkpt>
      <trkpt lat="45.10415" lon="5.98559">
        <ele>1913.5999755859</ele>
        <time>2024-10-15T08:21:43.000Z</time>
      </trkpt>
      <trkpt lat="45.10415" lon="5.98559">
        <ele>1913.8000488281</ele>
        <time>2024-10-15T08:21:44.000Z</time>
      </trkpt>
      <trkpt lat="45.10415" lon="5.98559">
        <ele>1914</ele>
        <time>2024-10-15T08:21:45.000Z</time>
      </trkpt>
      <trkpt lat="45.10415" lon="5.98559">
        <ele>1914</ele>
        <time>2024-10-15T08:21:46.000Z</time>
      </trkpt>
      <trkpt lat="45.10415" lon="5.98559">
        <ele>1914</ele>
        <time>2024-10-15T08:21:47.000Z</time>
      </trkpt>
      <trkpt lat="45.10415" lon="5.98559">
        <ele>1914.1999511719</ele>
        <time>2024-10-15T08:21:48.000Z</time>
      </trkpt>
      <trkpt lat="45.10415" lon="5.98559">
        <ele>1914.1999511719</ele>
        <time>2024-10-15T08:21:49.000Z</time>
      </trkpt>
      <trkpt lat="45.10415" lon="5.98559">
        <ele>1914.4000244141</ele>
        <time>2024-10-15T08:21:50.000Z</time>
      </trkpt>
      <trkpt lat="45.10415" lon="5.98559">
        <ele>1914.4000244141</ele>
        <time>2024-10-15T08:21:51.000Z</time>
      </trkpt>
      <trkpt lat="45.10416" lon="5.98559">
        <ele>1914.4000244141</ele>
        <time>2024-10-15T08:21:52.000Z</time>
      </trkpt>
      <trkpt lat="45.10417" lon="5.98559">
        <ele>1914.4000244141</ele>
        <time>2024-10-15T08:21:53.000Z</time>
      </trkpt>
      <trkpt lat="45.10417" lon="5.98558">
        <ele>1914.4000244141</ele>
        <time>2024-10-15T08:21:54.000Z</time>
      </trkpt>
      <trkpt lat="45.10417" lon="5.98558">
        <ele>1914.4000244141</ele>
        <time>2024-10-15T08:21:55.000Z</time>
      </trkpt>
      <trkpt lat="45.10419" lon="5.98557">
        <ele>1914.4000244141</ele>
        <time>2024-10-15T08:21:56.000Z</time>
      </trkpt>
      <trkpt lat="45.10419" lon="5.98557">
        <ele>1914.4000244141</ele>
        <time>2024-10-15T08:21:57.000Z</time>
      </trkpt>
      <trkpt lat="45.10419" lon="5.98557">
        <ele>1914.4000244141</ele>
        <time>2024-10-15T08:21:58.000Z</time>
      </trkpt>
      <trkpt lat="45.10419" lon="5.98557">
        <ele>1914.4000244141</ele>
        <time>2024-10-15T08:21:59.000Z</time>
      </trkpt>
      <trkpt lat="45.1042" lon="5.98557">
        <ele>1914.4000244141</ele>
        <time>2024-10-15T08:22:00.000Z</time>
      </trkpt>
      <trkpt lat="45.1042" lon="5.98557">
        <ele>1914.4000244141</ele>
        <time>2024-10-15T08:22:01.000Z</time>
      </trkpt>
      <trkpt lat="45.1042" lon="5.98556">
        <ele>1914.4000244141</ele>
        <time>2024-10-15T08:22:02.000Z</time>
      </trkpt>
      <trkpt lat="45.1042" lon="5.98556">
        <ele>1914.4000244141</ele>
        <time>2024-10-15T08:22:03.000Z</time>
      </trkpt>
      <trkpt lat="45.1042" lon="5.98555">
        <ele>1914.5999755859</ele>
        <time>2024-10-15T08:22:04.000Z</time>
      </trkpt>
      <trkpt lat="45.1042" lon="5.98555">
        <ele>1914.5999755859</ele>
        <time>2024-10-15T08:22:05.000Z</time>
      </trkpt>
      <trkpt lat="45.1042" lon="5.98555">
        <ele>1914.8000488281</ele>
        <time>2024-10-15T08:22:06.000Z</time>
      </trkpt>
      <trkpt lat="45.1042" lon="5.98555">
        <ele>1915</ele>
        <time>2024-10-15T08:22:07.000Z</time>
      </trkpt>
      <trkpt lat="45.1042" lon="5.98555">
        <ele>1915.1999511719</ele>
        <time>2024-10-15T08:22:08.000Z</time>
      </trkpt>
      <trkpt lat="45.1042" lon="5.98554">
        <ele>1915.1999511719</ele>
        <time>2024-10-15T08:22:09.000Z</time>
      </trkpt>
      <trkpt lat="45.1042" lon="5.98554">
        <ele>1915.1999511719</ele>
        <time>2024-10-15T08:22:10.000Z</time>
      </trkpt>
      <trkpt lat="45.1042" lon="5.98554">
        <ele>1915.1999511719</ele>
        <time>2024-10-15T08:22:11.000Z</time>
      </trkpt>
      <trkpt lat="45.1042" lon="5.98553">
        <ele>1915.4000244141</ele>
        <time>2024-10-15T08:22:12.000Z</time>
      </trkpt>
      <trkpt lat="45.10421" lon="5.98552">
        <ele>1915.4000244141</ele>
        <time>2024-10-15T08:22:13.000Z</time>
      </trkpt>
      <trkpt lat="45.10421" lon="5.98552">
        <ele>1915.4000244141</ele>
        <time>2024-10-15T08:22:14.000Z</time>
      </trkpt>
      <trkpt lat="45.10421" lon="5.98551">
        <ele>1915.5999755859</ele>
        <time>2024-10-15T08:22:15.000Z</time>
      </trkpt>
      <trkpt lat="45.10421" lon="5.98551">
        <ele>1915.5999755859</ele>
        <time>2024-10-15T08:22:16.000Z</time>
      </trkpt>
      <trkpt lat="45.10422" lon="5.98551">
        <ele>1915.5999755859</ele>
        <time>2024-10-15T08:22:17.000Z</time>
      </trkpt>
      <trkpt lat="45.10422" lon="5.9855">
        <ele>1915.8000488281</ele>
        <time>2024-10-15T08:22:18.000Z</time>
      </trkpt>
      <trkpt lat="45.10422" lon="5.9855">
        <ele>1915.8000488281</ele>
        <time>2024-10-15T08:22:19.000Z</time>
      </trkpt>
      <trkpt lat="45.10421" lon="5.98551">
        <ele>1915.8000488281</ele>
        <time>2024-10-15T08:22:20.000Z</time>
      </trkpt>
      <trkpt lat="45.10421" lon="5.9855">
        <ele>1916</ele>
        <time>2024-10-15T08:22:21.000Z</time>
      </trkpt>
      <trkpt lat="45.10421" lon="5.9855">
        <ele>1916.4000244141</ele>
        <time>2024-10-15T08:22:22.000Z</time>
      </trkpt>
      <trkpt lat="45.10422" lon="5.9855">
        <ele>1916.5999755859</ele>
        <time>2024-10-15T08:22:23.000Z</time>
      </trkpt>
      <trkpt lat="45.10422" lon="5.9855">
        <ele>1916.5999755859</ele>
        <time>2024-10-15T08:22:24.000Z</time>
      </trkpt>
      <trkpt lat="45.10422" lon="5.9855">
        <ele>1916.5999755859</ele>
        <time>2024-10-15T08:22:25.000Z</time>
      </trkpt>
      <trkpt lat="45.10422" lon="5.98549">
        <ele>1916.5999755859</ele>
        <time>2024-10-15T08:22:26.000Z</time>
      </trkpt>
      <trkpt lat="45.10421" lon="5.98549">
        <ele>1917</ele>
        <time>2024-10-15T08:22:27.000Z</time>
      </trkpt>
      <trkpt lat="45.10421" lon="5.98548">
        <ele>1917.1999511719</ele>
        <time>2024-10-15T08:22:28.000Z</time>
      </trkpt>
      <trkpt lat="45.10421" lon="5.98548">
        <ele>1917.4000244141</ele>
        <time>2024-10-15T08:22:29.000Z</time>
      </trkpt>
      <trkpt lat="45.1042" lon="5.98549">
        <ele>1917.5999755859</ele>
        <time>2024-10-15T08:22:30.000Z</time>
      </trkpt>
      <trkpt lat="45.10419" lon="5.98548">
        <ele>1917.8000488281</ele>
        <time>2024-10-15T08:22:31.000Z</time>
      </trkpt>
      <trkpt lat="45.10418" lon="5.98548">
        <ele>1917.8000488281</ele>
        <time>2024-10-15T08:22:32.000Z</time>
      </trkpt>
      <trkpt lat="45.10418" lon="5.98548">
        <ele>1918</ele>
        <time>2024-10-15T08:22:33.000Z</time>
      </trkpt>
      <trkpt lat="45.10418" lon="5.98548">
        <ele>1918</ele>
        <time>2024-10-15T08:22:34.000Z</time>
      </trkpt>
      <trkpt lat="45.10419" lon="5.98547">
        <ele>1918.1999511719</ele>
        <time>2024-10-15T08:22:35.000Z</time>
      </trkpt>
      <trkpt lat="45.10419" lon="5.98547">
        <ele>1918.1999511719</ele>
        <time>2024-10-15T08:22:36.000Z</time>
      </trkpt>
      <trkpt lat="45.10419" lon="5.98547">
        <ele>1918.8000488281</ele>
        <time>2024-10-15T08:22:37.000Z</time>
      </trkpt>
      <trkpt lat="45.10419" lon="5.98547">
        <ele>1918.8000488281</ele>
        <time>2024-10-15T08:22:38.000Z</time>
      </trkpt>
      <trkpt lat="45.10419" lon="5.98547">
        <ele>1919</ele>
        <time>2024-10-15T08:22:39.000Z</time>
      </trkpt>
      <trkpt lat="45.10419" lon="5.98547">
        <ele>1919.1999511719</ele>
        <time>2024-10-15T08:22:40.000Z</time>
      </trkpt>
      <trkpt lat="45.1042" lon="5.98547">
        <ele>1919.1999511719</ele>
        <time>2024-10-15T08:22:41.000Z</time>
      </trkpt>
      <trkpt lat="45.1042" lon="5.98546">
        <ele>1919.4000244141</ele>
        <time>2024-10-15T08:22:42.000Z</time>
      </trkpt>
      <trkpt lat="45.1042" lon="5.98545">
        <ele>1919.4000244141</ele>
        <time>2024-10-15T08:22:43.000Z</time>
      </trkpt>
      <trkpt lat="45.1042" lon="5.98545">
        <ele>1919.4000244141</ele>
        <time>2024-10-15T08:22:44.000Z</time>
      </trkpt>
      <trkpt lat="45.1042" lon="5.98545">
        <ele>1919.4000244141</ele>
        <time>2024-10-15T08:22:45.000Z</time>
      </trkpt>
      <trkpt lat="45.1042" lon="5.98545">
        <ele>1919.4000244141</ele>
        <time>2024-10-15T08:22:46.000Z</time>
      </trkpt>
      <trkpt lat="45.1042" lon="5.98545">
        <ele>1919.5999755859</ele>
        <time>2024-10-15T08:22:47.000Z</time>
      </trkpt>
      <trkpt lat="45.1042" lon="5.98545">
        <ele>1919.8000488281</ele>
        <time>2024-10-15T08:22:48.000Z</time>
      </trkpt>
      <trkpt lat="45.1042" lon="5.98545">
        <ele>1920.1999511719</ele>
        <time>2024-10-15T08:22:49.000Z</time>
      </trkpt>
      <trkpt lat="45.1042" lon="5.98545">
        <ele>1920.5999755859</ele>
        <time>2024-10-15T08:22:50.000Z</time>
      </trkpt>
      <trkpt lat="45.1042" lon="5.98545">
        <ele>1920.8000488281</ele>
        <time>2024-10-15T08:22:51.000Z</time>
      </trkpt>
      <trkpt lat="45.1042" lon="5.98545">
        <ele>1921</ele>
        <time>2024-10-15T08:22:52.000Z</time>
      </trkpt>
      <trkpt lat="45.1042" lon="5.98545">
        <ele>1921.1999511719</ele>
        <time>2024-10-15T08:22:53.000Z</time>
      </trkpt>
      <trkpt lat="45.1042" lon="5.98545">
        <ele>1921.4000244141</ele>
        <time>2024-10-15T08:22:54.000Z</time>
      </trkpt>
      <trkpt lat="45.1042" lon="5.98545">
        <ele>1921.4000244141</ele>
        <time>2024-10-15T08:22:55.000Z</time>
      </trkpt>
      <trkpt lat="45.1042" lon="5.98545">
        <ele>1921.4000244141</ele>
        <time>2024-10-15T08:22:56.000Z</time>
      </trkpt>
      <trkpt lat="45.1042" lon="5.98545">
        <ele>1921.4000244141</ele>
        <time>2024-10-15T08:22:57.000Z</time>
      </trkpt>
      <trkpt lat="45.1042" lon="5.98545">
        <ele>1921.5999755859</ele>
        <time>2024-10-15T08:22:58.000Z</time>
      </trkpt>
      <trkpt lat="45.1042" lon="5.98545">
        <ele>1921.5999755859</ele>
        <time>2024-10-15T08:22:59.000Z</time>
      </trkpt>
      <trkpt lat="45.1042" lon="5.98545">
        <ele>1921.8000488281</ele>
        <time>2024-10-15T08:23:00.000Z</time>
      </trkpt>
      <trkpt lat="45.1042" lon="5.98545">
        <ele>1922</ele>
        <time>2024-10-15T08:23:01.000Z</time>
      </trkpt>
      <trkpt lat="45.1042" lon="5.98545">
        <ele>1922.4000244141</ele>
        <time>2024-10-15T08:23:02.000Z</time>
      </trkpt>
      <trkpt lat="45.1042" lon="5.98545">
        <ele>1922.5999755859</ele>
        <time>2024-10-15T08:23:03.000Z</time>
      </trkpt>
      <trkpt lat="45.1042" lon="5.98545">
        <ele>1922.5999755859</ele>
        <time>2024-10-15T08:23:04.000Z</time>
      </trkpt>
      <trkpt lat="45.1042" lon="5.98544">
        <ele>1922.5999755859</ele>
        <time>2024-10-15T08:23:05.000Z</time>
      </trkpt>
      <trkpt lat="45.1042" lon="5.98544">
        <ele>1922.8000488281</ele>
        <time>2024-10-15T08:23:06.000Z</time>
      </trkpt>
      <trkpt lat="45.1042" lon="5.98543">
        <ele>1923</ele>
        <time>2024-10-15T08:23:07.000Z</time>
      </trkpt>
      <trkpt lat="45.1042" lon="5.98543">
        <ele>1923.1999511719</ele>
        <time>2024-10-15T08:23:08.000Z</time>
      </trkpt>
      <trkpt lat="45.1042" lon="5.98543">
        <ele>1923.4000244141</ele>
        <time>2024-10-15T08:23:09.000Z</time>
      </trkpt>
      <trkpt lat="45.1042" lon="5.98543">
        <ele>1923.5999755859</ele>
        <time>2024-10-15T08:23:10.000Z</time>
      </trkpt>
      <trkpt lat="45.1042" lon="5.98542">
        <ele>1923.8000488281</ele>
        <time>2024-10-15T08:23:11.000Z</time>
      </trkpt>
      <trkpt lat="45.1042" lon="5.98542">
        <ele>1924.1999511719</ele>
        <time>2024-10-15T08:23:12.000Z</time>
      </trkpt>
      <trkpt lat="45.1042" lon="5.98542">
        <ele>1924.5999755859</ele>
        <time>2024-10-15T08:23:13.000Z</time>
      </trkpt>
      <trkpt lat="45.1042" lon="5.98542">
        <ele>1924.8000488281</ele>
        <time>2024-10-15T08:23:14.000Z</time>
      </trkpt>
      <trkpt lat="45.1042" lon="5.98542">
        <ele>1925</ele>
        <time>2024-10-15T08:23:15.000Z</time>
      </trkpt>
      <trkpt lat="45.1042" lon="5.98542">
        <ele>1925.4000244141</ele>
        <time>2024-10-15T08:23:16.000Z</time>
      </trkpt>
      <trkpt lat="45.1042" lon="5.98542">
        <ele>1925.5999755859</ele>
        <time>2024-10-15T08:23:17.000Z</time>
      </trkpt>
      <trkpt lat="45.1042" lon="5.98542">
        <ele>1925.5999755859</ele>
        <time>2024-10-15T08:23:18.000Z</time>
      </trkpt>
      <trkpt lat="45.10421" lon="5.98541">
        <ele>1925.8000488281</ele>
        <time>2024-10-15T08:23:19.000Z</time>
      </trkpt>
      <trkpt lat="45.10421" lon="5.98541">
        <ele>1925.8000488281</ele>
        <time>2024-10-15T08:23:20.000Z</time>
      </trkpt>
      <trkpt lat="45.10421" lon="5.98541">
        <ele>1926</ele>
        <time>2024-10-15T08:23:21.000Z</time>
      </trkpt>
      <trkpt lat="45.10421" lon="5.98541">
        <ele>1926.1999511719</ele>
        <time>2024-10-15T08:23:22.000Z</time>
      </trkpt>
      <trkpt lat="45.10421" lon="5.9854">
        <ele>1926.4000244141</ele>
        <time>2024-10-15T08:23:23.000Z</time>
      </trkpt>
      <trkpt lat="45.10421" lon="5.9854">
        <ele>1926.5999755859</ele>
        <time>2024-10-15T08:23:24.000Z</time>
      </trkpt>
      <trkpt lat="45.10422" lon="5.98539">
        <ele>1926.5999755859</ele>
        <time>2024-10-15T08:23:25.000Z</time>
      </trkpt>
      <trkpt lat="45.10423" lon="5.98539">
        <ele>1926.8000488281</ele>
        <time>2024-10-15T08:23:26.000Z</time>
      </trkpt>
      <trkpt lat="45.10423" lon="5.98539">
        <ele>1927.4000244141</ele>
        <time>2024-10-15T08:23:27.000Z</time>
      </trkpt>
      <trkpt lat="45.10423" lon="5.98539">
        <ele>1927.5999755859</ele>
        <time>2024-10-15T08:23:28.000Z</time>
      </trkpt>
      <trkpt lat="45.10423" lon="5.98539">
        <ele>1927.5999755859</ele>
        <time>2024-10-15T08:23:29.000Z</time>
      </trkpt>
      <trkpt lat="45.10423" lon="5.98539">
        <ele>1927.8000488281</ele>
        <time>2024-10-15T08:23:30.000Z</time>
      </trkpt>
      <trkpt lat="45.10423" lon="5.98539">
        <ele>1927.8000488281</ele>
        <time>2024-10-15T08:23:31.000Z</time>
      </trkpt>
      <trkpt lat="45.10423" lon="5.98539">
        <ele>1928</ele>
        <time>2024-10-15T08:23:32.000Z</time>
      </trkpt>
      <trkpt lat="45.10423" lon="5.98539">
        <ele>1928</ele>
        <time>2024-10-15T08:23:33.000Z</time>
      </trkpt>
      <trkpt lat="45.10423" lon="5.98539">
        <ele>1928.1999511719</ele>
        <time>2024-10-15T08:23:34.000Z</time>
      </trkpt>
      <trkpt lat="45.10423" lon="5.98539">
        <ele>1928</ele>
        <time>2024-10-15T08:23:35.000Z</time>
      </trkpt>
      <trkpt lat="45.10423" lon="5.98538">
        <ele>1928</ele>
        <time>2024-10-15T08:23:36.000Z</time>
      </trkpt>
      <trkpt lat="45.10423" lon="5.98538">
        <ele>1928</ele>
        <time>2024-10-15T08:23:37.000Z</time>
      </trkpt>
      <trkpt lat="45.10423" lon="5.98537">
        <ele>1927.8000488281</ele>
        <time>2024-10-15T08:23:38.000Z</time>
      </trkpt>
      <trkpt lat="45.10423" lon="5.98537">
        <ele>1927.8000488281</ele>
        <time>2024-10-15T08:23:39.000Z</time>
      </trkpt>
      <trkpt lat="45.10423" lon="5.98537">
        <ele>1927.8000488281</ele>
        <time>2024-10-15T08:23:40.000Z</time>
      </trkpt>
      <trkpt lat="45.10423" lon="5.98537">
        <ele>1927.5999755859</ele>
        <time>2024-10-15T08:23:41.000Z</time>
      </trkpt>
      <trkpt lat="45.10423" lon="5.98536">
        <ele>1927.4000244141</ele>
        <time>2024-10-15T08:23:42.000Z</time>
      </trkpt>
      <trkpt lat="45.10423" lon="5.98536">
        <ele>1927.4000244141</ele>
        <time>2024-10-15T08:23:43.000Z</time>
      </trkpt>
      <trkpt lat="45.10422" lon="5.98538">
        <ele>1927.1999511719</ele>
        <time>2024-10-15T08:23:47.000Z</time>
      </trkpt>
      <trkpt lat="45.10423" lon="5.98538">
        <ele>1927.1999511719</ele>
        <time>2024-10-15T08:23:48.000Z</time>
      </trkpt>
      <trkpt lat="45.10422" lon="5.98538">
        <ele>1927</ele>
        <time>2024-10-15T08:23:49.000Z</time>
      </trkpt>
      <trkpt lat="45.10422" lon="5.98538">
        <ele>1927</ele>
        <time>2024-10-15T08:23:50.000Z</time>
      </trkpt>
      <trkpt lat="45.10422" lon="5.98538">
        <ele>1927</ele>
        <time>2024-10-15T08:23:51.000Z</time>
      </trkpt>
      <trkpt lat="45.10422" lon="5.98538">
        <ele>1927</ele>
        <time>2024-10-15T08:23:52.000Z</time>
      </trkpt>
      <trkpt lat="45.10422" lon="5.98538">
        <ele>1927</ele>
        <time>2024-10-15T08:23:53.000Z</time>
      </trkpt>
      <trkpt lat="45.10422" lon="5.98538">
        <ele>1926.8000488281</ele>
        <time>2024-10-15T08:23:54.000Z</time>
      </trkpt>
      <trkpt lat="45.10422" lon="5.98537">
        <ele>1926.8000488281</ele>
        <time>2024-10-15T08:23:55.000Z</time>
      </trkpt>
      <trkpt lat="45.10424" lon="5.98538">
        <ele>1926.8000488281</ele>
        <time>2024-10-15T08:23:56.000Z</time>
      </trkpt>
      <trkpt lat="45.10424" lon="5.98538">
        <ele>1926.8000488281</ele>
        <time>2024-10-15T08:23:57.000Z</time>
      </trkpt>
      <trkpt lat="45.10424" lon="5.98538">
        <ele>1926.8000488281</ele>
        <time>2024-10-15T08:23:58.000Z</time>
      </trkpt>
      <trkpt lat="45.10424" lon="5.98538">
        <ele>1926.8000488281</ele>
        <time>2024-10-15T08:23:59.000Z</time>
      </trkpt>
      <trkpt lat="45.10423" lon="5.98537">
        <ele>1926.8000488281</ele>
        <time>2024-10-15T08:24:00.000Z</time>
      </trkpt>
      <trkpt lat="45.10424" lon="5.98536">
        <ele>1927</ele>
        <time>2024-10-15T08:24:01.000Z</time>
      </trkpt>
      <trkpt lat="45.10424" lon="5.98535">
        <ele>1927</ele>
        <time>2024-10-15T08:24:02.000Z</time>
      </trkpt>
      <trkpt lat="45.10424" lon="5.98534">
        <ele>1927</ele>
        <time>2024-10-15T08:24:03.000Z</time>
      </trkpt>
      <trkpt lat="45.10424" lon="5.98534">
        <ele>1927.1999511719</ele>
        <time>2024-10-15T08:24:04.000Z</time>
      </trkpt>
      <trkpt lat="45.10424" lon="5.98534">
        <ele>1927.5999755859</ele>
        <time>2024-10-15T08:24:05.000Z</time>
      </trkpt>
      <trkpt lat="45.10425" lon="5.98533">
        <ele>1928</ele>
        <time>2024-10-15T08:24:06.000Z</time>
      </trkpt>
      <trkpt lat="45.10425" lon="5.98533">
        <ele>1928.1999511719</ele>
        <time>2024-10-15T08:24:07.000Z</time>
      </trkpt>
      <trkpt lat="45.10425" lon="5.98532">
        <ele>1928.1999511719</ele>
        <time>2024-10-15T08:24:08.000Z</time>
      </trkpt>
      <trkpt lat="45.10425" lon="5.98531">
        <ele>1928.1999511719</ele>
        <time>2024-10-15T08:24:09.000Z</time>
      </trkpt>
      <trkpt lat="45.10426" lon="5.9853">
        <ele>1928.4000244141</ele>
        <time>2024-10-15T08:24:10.000Z</time>
      </trkpt>
      <trkpt lat="45.10426" lon="5.9853">
        <ele>1928.8000488281</ele>
        <time>2024-10-15T08:24:11.000Z</time>
      </trkpt>
      <trkpt lat="45.10426" lon="5.9853">
        <ele>1929</ele>
        <time>2024-10-15T08:24:12.000Z</time>
      </trkpt>
      <trkpt lat="45.10426" lon="5.98529">
        <ele>1929</ele>
        <time>2024-10-15T08:24:13.000Z</time>
      </trkpt>
      <trkpt lat="45.10425" lon="5.98529">
        <ele>1929.1999511719</ele>
        <time>2024-10-15T08:24:14.000Z</time>
      </trkpt>
      <trkpt lat="45.10425" lon="5.98528">
        <ele>1929.5999755859</ele>
        <time>2024-10-15T08:24:15.000Z</time>
      </trkpt>
      <trkpt lat="45.10424" lon="5.98527">
        <ele>1929.8000488281</ele>
        <time>2024-10-15T08:24:16.000Z</time>
      </trkpt>
      <trkpt lat="45.10425" lon="5.98526">
        <ele>1930</ele>
        <time>2024-10-15T08:24:17.000Z</time>
      </trkpt>
      <trkpt lat="45.10426" lon="5.98526">
        <ele>1930.1999511719</ele>
        <time>2024-10-15T08:24:18.000Z</time>
      </trkpt>
      <trkpt lat="45.10426" lon="5.98526">
        <ele>1930.4000244141</ele>
        <time>2024-10-15T08:24:19.000Z</time>
      </trkpt>
      <trkpt lat="45.10426" lon="5.98526">
        <ele>1930.5999755859</ele>
        <time>2024-10-15T08:24:20.000Z</time>
      </trkpt>
      <trkpt lat="45.10426" lon="5.98525">
        <ele>1930.5999755859</ele>
        <time>2024-10-15T08:24:21.000Z</time>
      </trkpt>
      <trkpt lat="45.10425" lon="5.98524">
        <ele>1930.8000488281</ele>
        <time>2024-10-15T08:24:22.000Z</time>
      </trkpt>
      <trkpt lat="45.10425" lon="5.98523">
        <ele>1931.1999511719</ele>
        <time>2024-10-15T08:24:23.000Z</time>
      </trkpt>
      <trkpt lat="45.10425" lon="5.98523">
        <ele>1931.4000244141</ele>
        <time>2024-10-15T08:24:24.000Z</time>
      </trkpt>
      <trkpt lat="45.10425" lon="5.98523">
        <ele>1931.4000244141</ele>
        <time>2024-10-15T08:24:25.000Z</time>
      </trkpt>
      <trkpt lat="45.10426" lon="5.98522">
        <ele>1931.5999755859</ele>
        <time>2024-10-15T08:24:26.000Z</time>
      </trkpt>
      <trkpt lat="45.10426" lon="5.98522">
        <ele>1931.8000488281</ele>
        <time>2024-10-15T08:24:27.000Z</time>
      </trkpt>
      <trkpt lat="45.10426" lon="5.98521">
        <ele>1932.1999511719</ele>
        <time>2024-10-15T08:24:28.000Z</time>
      </trkpt>
      <trkpt lat="45.10426" lon="5.98521">
        <ele>1932.4000244141</ele>
        <time>2024-10-15T08:24:29.000Z</time>
      </trkpt>
      <trkpt lat="45.10425" lon="5.98521">
        <ele>1932.5999755859</ele>
        <time>2024-10-15T08:24:30.000Z</time>
      </trkpt>
      <trkpt lat="45.10425" lon="5.98521">
        <ele>1932.8000488281</ele>
        <time>2024-10-15T08:24:31.000Z</time>
      </trkpt>
      <trkpt lat="45.10425" lon="5.98521">
        <ele>1932.8000488281</ele>
        <time>2024-10-15T08:24:32.000Z</time>
      </trkpt>
      <trkpt lat="45.10427" lon="5.9852">
        <ele>1933</ele>
        <time>2024-10-15T08:24:33.000Z</time>
      </trkpt>
      <trkpt lat="45.10426" lon="5.9852">
        <ele>1933.1999511719</ele>
        <time>2024-10-15T08:24:34.000Z</time>
      </trkpt>
      <trkpt lat="45.10426" lon="5.9852">
        <ele>1933.5999755859</ele>
        <time>2024-10-15T08:24:35.000Z</time>
      </trkpt>
      <trkpt lat="45.10426" lon="5.9852">
        <ele>1933.8000488281</ele>
        <time>2024-10-15T08:24:36.000Z</time>
      </trkpt>
      <trkpt lat="45.10426" lon="5.9852">
        <ele>1934.1999511719</ele>
        <time>2024-10-15T08:24:37.000Z</time>
      </trkpt>
      <trkpt lat="45.10427" lon="5.98519">
        <ele>1934.1999511719</ele>
        <time>2024-10-15T08:24:38.000Z</time>
      </trkpt>
      <trkpt lat="45.10428" lon="5.9852">
        <ele>1934.5999755859</ele>
        <time>2024-10-15T08:24:39.000Z</time>
      </trkpt>
      <trkpt lat="45.10428" lon="5.9852">
        <ele>1934.8000488281</ele>
        <time>2024-10-15T08:24:40.000Z</time>
      </trkpt>
      <trkpt lat="45.10428" lon="5.9852">
        <ele>1935</ele>
        <time>2024-10-15T08:24:41.000Z</time>
      </trkpt>
      <trkpt lat="45.10428" lon="5.98519">
        <ele>1935.1999511719</ele>
        <time>2024-10-15T08:24:42.000Z</time>
      </trkpt>
      <trkpt lat="45.10428" lon="5.98519">
        <ele>1935.4000244141</ele>
        <time>2024-10-15T08:24:43.000Z</time>
      </trkpt>
      <trkpt lat="45.10428" lon="5.9852">
        <ele>1935.8000488281</ele>
        <time>2024-10-15T08:24:44.000Z</time>
      </trkpt>
      <trkpt lat="45.10428" lon="5.9852">
        <ele>1936</ele>
        <time>2024-10-15T08:24:45.000Z</time>
      </trkpt>
      <trkpt lat="45.10428" lon="5.98521">
        <ele>1936.1999511719</ele>
        <time>2024-10-15T08:24:46.000Z</time>
      </trkpt>
      <trkpt lat="45.10428" lon="5.98521">
        <ele>1936.5999755859</ele>
        <time>2024-10-15T08:24:47.000Z</time>
      </trkpt>
      <trkpt lat="45.10429" lon="5.98521">
        <ele>1936.5999755859</ele>
        <time>2024-10-15T08:24:48.000Z</time>
      </trkpt>
      <trkpt lat="45.10429" lon="5.98521">
        <ele>1936.8000488281</ele>
        <time>2024-10-15T08:24:49.000Z</time>
      </trkpt>
      <trkpt lat="45.1043" lon="5.98521">
        <ele>1937</ele>
        <time>2024-10-15T08:24:50.000Z</time>
      </trkpt>
      <trkpt lat="45.1043" lon="5.98521">
        <ele>1937.4000244141</ele>
        <time>2024-10-15T08:24:51.000Z</time>
      </trkpt>
      <trkpt lat="45.1043" lon="5.9852">
        <ele>1937.5999755859</ele>
        <time>2024-10-15T08:24:52.000Z</time>
      </trkpt>
      <trkpt lat="45.1043" lon="5.9852">
        <ele>1937.8000488281</ele>
        <time>2024-10-15T08:24:53.000Z</time>
      </trkpt>
      <trkpt lat="45.1043" lon="5.9852">
        <ele>1938.1999511719</ele>
        <time>2024-10-15T08:24:54.000Z</time>
      </trkpt>
      <trkpt lat="45.1043" lon="5.9852">
        <ele>1938.4000244141</ele>
        <time>2024-10-15T08:24:55.000Z</time>
      </trkpt>
      <trkpt lat="45.1043" lon="5.9852">
        <ele>1938.5999755859</ele>
        <time>2024-10-15T08:24:56.000Z</time>
      </trkpt>
      <trkpt lat="45.10431" lon="5.98519">
        <ele>1938.5999755859</ele>
        <time>2024-10-15T08:24:57.000Z</time>
      </trkpt>
      <trkpt lat="45.1043" lon="5.98519">
        <ele>1938.5999755859</ele>
        <time>2024-10-15T08:24:58.000Z</time>
      </trkpt>
      <trkpt lat="45.1043" lon="5.98519">
        <ele>1938.5999755859</ele>
        <time>2024-10-15T08:24:59.000Z</time>
      </trkpt>
      <trkpt lat="45.10432" lon="5.98519">
        <ele>1938.5999755859</ele>
        <time>2024-10-15T08:25:00.000Z</time>
      </trkpt>
      <trkpt lat="45.10433" lon="5.98519">
        <ele>1938.8000488281</ele>
        <time>2024-10-15T08:25:01.000Z</time>
      </trkpt>
      <trkpt lat="45.10433" lon="5.98519">
        <ele>1938.8000488281</ele>
        <time>2024-10-15T08:25:02.000Z</time>
      </trkpt>
      <trkpt lat="45.10433" lon="5.98519">
        <ele>1938.8000488281</ele>
        <time>2024-10-15T08:25:03.000Z</time>
      </trkpt>
      <trkpt lat="45.10433" lon="5.98519">
        <ele>1939</ele>
        <time>2024-10-15T08:25:04.000Z</time>
      </trkpt>
      <trkpt lat="45.10433" lon="5.98519">
        <ele>1939.1999511719</ele>
        <time>2024-10-15T08:25:05.000Z</time>
      </trkpt>
      <trkpt lat="45.10433" lon="5.98519">
        <ele>1939.4000244141</ele>
        <time>2024-10-15T08:25:06.000Z</time>
      </trkpt>
      <trkpt lat="45.10433" lon="5.98519">
        <ele>1939.4000244141</ele>
        <time>2024-10-15T08:25:07.000Z</time>
      </trkpt>
      <trkpt lat="45.10433" lon="5.98518">
        <ele>1939.5999755859</ele>
        <time>2024-10-15T08:25:08.000Z</time>
      </trkpt>
      <trkpt lat="45.10433" lon="5.98518">
        <ele>1939.5999755859</ele>
        <time>2024-10-15T08:25:09.000Z</time>
      </trkpt>
      <trkpt lat="45.10433" lon="5.98519">
        <ele>1939.5999755859</ele>
        <time>2024-10-15T08:25:10.000Z</time>
      </trkpt>
      <trkpt lat="45.10434" lon="5.98518">
        <ele>1939.5999755859</ele>
        <time>2024-10-15T08:25:11.000Z</time>
      </trkpt>
      <trkpt lat="45.10433" lon="5.98519">
        <ele>1939.5999755859</ele>
        <time>2024-10-15T08:25:12.000Z</time>
      </trkpt>
      <trkpt lat="45.10434" lon="5.98518">
        <ele>1939.5999755859</ele>
        <time>2024-10-15T08:25:13.000Z</time>
      </trkpt>
      <trkpt lat="45.10434" lon="5.98518">
        <ele>1939.5999755859</ele>
        <time>2024-10-15T08:25:14.000Z</time>
      </trkpt>
      <trkpt lat="45.10434" lon="5.98518">
        <ele>1939.5999755859</ele>
        <time>2024-10-15T08:25:15.000Z</time>
      </trkpt>
      <trkpt lat="45.10434" lon="5.98518">
        <ele>1939.5999755859</ele>
        <time>2024-10-15T08:25:16.000Z</time>
      </trkpt>
      <trkpt lat="45.10434" lon="5.98517">
        <ele>1939.5999755859</ele>
        <time>2024-10-15T08:25:17.000Z</time>
      </trkpt>
      <trkpt lat="45.10434" lon="5.98517">
        <ele>1939.5999755859</ele>
        <time>2024-10-15T08:25:18.000Z</time>
      </trkpt>
      <trkpt lat="45.10434" lon="5.98517">
        <ele>1939.5999755859</ele>
        <time>2024-10-15T08:25:19.000Z</time>
      </trkpt>
      <trkpt lat="45.10435" lon="5.98517">
        <ele>1939.8000488281</ele>
        <time>2024-10-15T08:25:20.000Z</time>
      </trkpt>
      <trkpt lat="45.10435" lon="5.98517">
        <ele>1940</ele>
        <time>2024-10-15T08:25:21.000Z</time>
      </trkpt>
      <trkpt lat="45.10435" lon="5.98516">
        <ele>1940.1999511719</ele>
        <time>2024-10-15T08:25:22.000Z</time>
      </trkpt>
      <trkpt lat="45.10435" lon="5.98516">
        <ele>1940.4000244141</ele>
        <time>2024-10-15T08:25:23.000Z</time>
      </trkpt>
      <trkpt lat="45.10435" lon="5.98516">
        <ele>1940.5999755859</ele>
        <time>2024-10-15T08:25:24.000Z</time>
      </trkpt>
      <trkpt lat="45.10435" lon="5.98516">
        <ele>1941</ele>
        <time>2024-10-15T08:25:25.000Z</time>
      </trkpt>
      <trkpt lat="45.10435" lon="5.98516">
        <ele>1941.1999511719</ele>
        <time>2024-10-15T08:25:26.000Z</time>
      </trkpt>
      <trkpt lat="45.10435" lon="5.98515">
        <ele>1941.4000244141</ele>
        <time>2024-10-15T08:25:27.000Z</time>
      </trkpt>
      <trkpt lat="45.10435" lon="5.98515">
        <ele>1941.4000244141</ele>
        <time>2024-10-15T08:25:28.000Z</time>
      </trkpt>
      <trkpt lat="45.10435" lon="5.98515">
        <ele>1941.5999755859</ele>
        <time>2024-10-15T08:25:29.000Z</time>
      </trkpt>
      <trkpt lat="45.10435" lon="5.98515">
        <ele>1941.5999755859</ele>
        <time>2024-10-15T08:25:30.000Z</time>
      </trkpt>
      <trkpt lat="45.10435" lon="5.98515">
        <ele>1941.5999755859</ele>
        <time>2024-10-15T08:25:31.000Z</time>
      </trkpt>
      <trkpt lat="45.10435" lon="5.98515">
        <ele>1941.5999755859</ele>
        <time>2024-10-15T08:25:32.000Z</time>
      </trkpt>
      <trkpt lat="45.10435" lon="5.98515">
        <ele>1941.8000488281</ele>
        <time>2024-10-15T08:25:33.000Z</time>
      </trkpt>
      <trkpt lat="45.10435" lon="5.98515">
        <ele>1941.8000488281</ele>
        <time>2024-10-15T08:25:34.000Z</time>
      </trkpt>
      <trkpt lat="45.10435" lon="5.98515">
        <ele>1941.8000488281</ele>
        <time>2024-10-15T08:25:35.000Z</time>
      </trkpt>
      <trkpt lat="45.10435" lon="5.98515">
        <ele>1941.8000488281</ele>
        <time>2024-10-15T08:25:36.000Z</time>
      </trkpt>
      <trkpt lat="45.10435" lon="5.98515">
        <ele>1941.8000488281</ele>
        <time>2024-10-15T08:25:37.000Z</time>
      </trkpt>
      <trkpt lat="45.10435" lon="5.98515">
        <ele>1941.8000488281</ele>
        <time>2024-10-15T08:25:38.000Z</time>
      </trkpt>
      <trkpt lat="45.10435" lon="5.98515">
        <ele>1941.8000488281</ele>
        <time>2024-10-15T08:25:39.000Z</time>
      </trkpt>
      <trkpt lat="45.10435" lon="5.98515">
        <ele>1941.8000488281</ele>
        <time>2024-10-15T08:25:40.000Z</time>
      </trkpt>
      <trkpt lat="45.10435" lon="5.98515">
        <ele>1942</ele>
        <time>2024-10-15T08:25:41.000Z</time>
      </trkpt>
      <trkpt lat="45.10435" lon="5.98515">
        <ele>1942</ele>
        <time>2024-10-15T08:25:42.000Z</time>
      </trkpt>
      <trkpt lat="45.10435" lon="5.98515">
        <ele>1942.1999511719</ele>
        <time>2024-10-15T08:25:43.000Z</time>
      </trkpt>
      <trkpt lat="45.10435" lon="5.98515">
        <ele>1942.1999511719</ele>
        <time>2024-10-15T08:25:44.000Z</time>
      </trkpt>
      <trkpt lat="45.10435" lon="5.98515">
        <ele>1942.4000244141</ele>
        <time>2024-10-15T08:25:45.000Z</time>
      </trkpt>
      <trkpt lat="45.10435" lon="5.98515">
        <ele>1942.8000488281</ele>
        <time>2024-10-15T08:25:46.000Z</time>
      </trkpt>
      <trkpt lat="45.10435" lon="5.98515">
        <ele>1943</ele>
        <time>2024-10-15T08:25:47.000Z</time>
      </trkpt>
      <trkpt lat="45.10435" lon="5.98515">
        <ele>1943.1999511719</ele>
        <time>2024-10-15T08:25:48.000Z</time>
      </trkpt>
      <trkpt lat="45.10435" lon="5.98515">
        <ele>1943.4000244141</ele>
        <time>2024-10-15T08:25:49.000Z</time>
      </trkpt>
      <trkpt lat="45.10435" lon="5.98515">
        <ele>1943.5999755859</ele>
        <time>2024-10-15T08:25:50.000Z</time>
      </trkpt>
      <trkpt lat="45.10435" lon="5.98515">
        <ele>1943.8000488281</ele>
        <time>2024-10-15T08:25:51.000Z</time>
      </trkpt>
      <trkpt lat="45.10435" lon="5.98515">
        <ele>1943.8000488281</ele>
        <time>2024-10-15T08:25:52.000Z</time>
      </trkpt>
      <trkpt lat="45.10435" lon="5.98515">
        <ele>1944</ele>
        <time>2024-10-15T08:25:53.000Z</time>
      </trkpt>
      <trkpt lat="45.10435" lon="5.98515">
        <ele>1944.1999511719</ele>
        <time>2024-10-15T08:25:54.000Z</time>
      </trkpt>
      <trkpt lat="45.10435" lon="5.98515">
        <ele>1944.4000244141</ele>
        <time>2024-10-15T08:25:55.000Z</time>
      </trkpt>
      <trkpt lat="45.10435" lon="5.98515">
        <ele>1944.5999755859</ele>
        <time>2024-10-15T08:25:56.000Z</time>
      </trkpt>
      <trkpt lat="45.10435" lon="5.98514">
        <ele>1944.8000488281</ele>
        <time>2024-10-15T08:25:57.000Z</time>
      </trkpt>
      <trkpt lat="45.10435" lon="5.98514">
        <ele>1945.1999511719</ele>
        <time>2024-10-15T08:25:58.000Z</time>
      </trkpt>
      <trkpt lat="45.10435" lon="5.98514">
        <ele>1945.5999755859</ele>
        <time>2024-10-15T08:25:59.000Z</time>
      </trkpt>
      <trkpt lat="45.10435" lon="5.98513">
        <ele>1945.8000488281</ele>
        <time>2024-10-15T08:26:00.000Z</time>
      </trkpt>
      <trkpt lat="45.10435" lon="5.98513">
        <ele>1946</ele>
        <time>2024-10-15T08:26:01.000Z</time>
      </trkpt>
      <trkpt lat="45.10435" lon="5.98513">
        <ele>1946.1999511719</ele>
        <time>2024-10-15T08:26:02.000Z</time>
      </trkpt>
      <trkpt lat="45.10435" lon="5.98512">
        <ele>1946.5999755859</ele>
        <time>2024-10-15T08:26:03.000Z</time>
      </trkpt>
      <trkpt lat="45.10435" lon="5.98512">
        <ele>1946.8000488281</ele>
        <time>2024-10-15T08:26:04.000Z</time>
      </trkpt>
      <trkpt lat="45.10435" lon="5.98512">
        <ele>1947</ele>
        <time>2024-10-15T08:26:05.000Z</time>
      </trkpt>
      <trkpt lat="45.10435" lon="5.98512">
        <ele>1947.1999511719</ele>
        <time>2024-10-15T08:26:06.000Z</time>
      </trkpt>
      <trkpt lat="45.10435" lon="5.98512">
        <ele>1947.5999755859</ele>
        <time>2024-10-15T08:26:07.000Z</time>
      </trkpt>
      <trkpt lat="45.10435" lon="5.98512">
        <ele>1947.8000488281</ele>
        <time>2024-10-15T08:26:08.000Z</time>
      </trkpt>
      <trkpt lat="45.10435" lon="5.98511">
        <ele>1948</ele>
        <time>2024-10-15T08:26:09.000Z</time>
      </trkpt>
      <trkpt lat="45.10435" lon="5.98511">
        <ele>1948</ele>
        <time>2024-10-15T08:26:10.000Z</time>
      </trkpt>
      <trkpt lat="45.10435" lon="5.98511">
        <ele>1948.1999511719</ele>
        <time>2024-10-15T08:26:11.000Z</time>
      </trkpt>
      <trkpt lat="45.10435" lon="5.98511">
        <ele>1948.4000244141</ele>
        <time>2024-10-15T08:26:12.000Z</time>
      </trkpt>
      <trkpt lat="45.10435" lon="5.98511">
        <ele>1948.5999755859</ele>
        <time>2024-10-15T08:26:13.000Z</time>
      </trkpt>
      <trkpt lat="45.10435" lon="5.98511">
        <ele>1948.5999755859</ele>
        <time>2024-10-15T08:26:14.000Z</time>
      </trkpt>
      <trkpt lat="45.10435" lon="5.9851">
        <ele>1948.5999755859</ele>
        <time>2024-10-15T08:26:15.000Z</time>
      </trkpt>
      <trkpt lat="45.10435" lon="5.9851">
        <ele>1948.8000488281</ele>
        <time>2024-10-15T08:26:16.000Z</time>
      </trkpt>
      <trkpt lat="45.10435" lon="5.9851">
        <ele>1948.8000488281</ele>
        <time>2024-10-15T08:26:17.000Z</time>
      </trkpt>
      <trkpt lat="45.10435" lon="5.9851">
        <ele>1948.8000488281</ele>
        <time>2024-10-15T08:26:18.000Z</time>
      </trkpt>
      <trkpt lat="45.10435" lon="5.9851">
        <ele>1949</ele>
        <time>2024-10-15T08:26:19.000Z</time>
      </trkpt>
      <trkpt lat="45.10435" lon="5.98509">
        <ele>1949.1999511719</ele>
        <time>2024-10-15T08:26:20.000Z</time>
      </trkpt>
      <trkpt lat="45.10436" lon="5.98509">
        <ele>1949.1999511719</ele>
        <time>2024-10-15T08:26:21.000Z</time>
      </trkpt>
      <trkpt lat="45.10436" lon="5.98509">
        <ele>1949.1999511719</ele>
        <time>2024-10-15T08:26:22.000Z</time>
      </trkpt>
      <trkpt lat="45.10436" lon="5.98509">
        <ele>1949.4000244141</ele>
        <time>2024-10-15T08:26:23.000Z</time>
      </trkpt>
      <trkpt lat="45.10436" lon="5.98509">
        <ele>1949.4000244141</ele>
        <time>2024-10-15T08:26:24.000Z</time>
      </trkpt>
      <trkpt lat="45.10436" lon="5.98509">
        <ele>1949.4000244141</ele>
        <time>2024-10-15T08:26:25.000Z</time>
      </trkpt>
      <trkpt lat="45.10436" lon="5.98509">
        <ele>1949.5999755859</ele>
        <time>2024-10-15T08:26:26.000Z</time>
      </trkpt>
      <trkpt lat="45.10436" lon="5.98509">
        <ele>1949.5999755859</ele>
        <time>2024-10-15T08:26:27.000Z</time>
      </trkpt>
      <trkpt lat="45.10436" lon="5.98509">
        <ele>1949.8000488281</ele>
        <time>2024-10-15T08:26:28.000Z</time>
      </trkpt>
      <trkpt lat="45.10436" lon="5.98509">
        <ele>1949.8000488281</ele>
        <time>2024-10-15T08:26:29.000Z</time>
      </trkpt>
      <trkpt lat="45.10436" lon="5.98509">
        <ele>1950</ele>
        <time>2024-10-15T08:26:30.000Z</time>
      </trkpt>
      <trkpt lat="45.10436" lon="5.98509">
        <ele>1950</ele>
        <time>2024-10-15T08:26:31.000Z</time>
      </trkpt>
      <trkpt lat="45.10436" lon="5.98509">
        <ele>1950</ele>
        <time>2024-10-15T08:26:32.000Z</time>
      </trkpt>
      <trkpt lat="45.10436" lon="5.98509">
        <ele>1950</ele>
        <time>2024-10-15T08:26:33.000Z</time>
      </trkpt>
      <trkpt lat="45.10436" lon="5.98509">
        <ele>1950.1999511719</ele>
        <time>2024-10-15T08:26:34.000Z</time>
      </trkpt>
      <trkpt lat="45.10436" lon="5.98509">
        <ele>1950.1999511719</ele>
        <time>2024-10-15T08:26:35.000Z</time>
      </trkpt>
      <trkpt lat="45.10436" lon="5.98509">
        <ele>1950.4000244141</ele>
        <time>2024-10-15T08:26:36.000Z</time>
      </trkpt>
      <trkpt lat="45.10436" lon="5.98508">
        <ele>1950.5999755859</ele>
        <time>2024-10-15T08:26:37.000Z</time>
      </trkpt>
      <trkpt lat="45.10436" lon="5.98508">
        <ele>1950.8000488281</ele>
        <time>2024-10-15T08:26:38.000Z</time>
      </trkpt>
      <trkpt lat="45.10436" lon="5.98508">
        <ele>1951</ele>
        <time>2024-10-15T08:26:39.000Z</time>
      </trkpt>
      <trkpt lat="45.10436" lon="5.98507">
        <ele>1951.1999511719</ele>
        <time>2024-10-15T08:26:40.000Z</time>
      </trkpt>
      <trkpt lat="45.10436" lon="5.98507">
        <ele>1951.1999511719</ele>
        <time>2024-10-15T08:26:41.000Z</time>
      </trkpt>
      <trkpt lat="45.10436" lon="5.98507">
        <ele>1951.5999755859</ele>
        <time>2024-10-15T08:26:42.000Z</time>
      </trkpt>
      <trkpt lat="45.10435" lon="5.98507">
        <ele>1951.8000488281</ele>
        <time>2024-10-15T08:26:43.000Z</time>
      </trkpt>
      <trkpt lat="45.10435" lon="5.98506">
        <ele>1951.8000488281</ele>
        <time>2024-10-15T08:26:44.000Z</time>
      </trkpt>
      <trkpt lat="45.10434" lon="5.98506">
        <ele>1951.8000488281</ele>
        <time>2024-10-15T08:26:45.000Z</time>
      </trkpt>
      <trkpt lat="45.10434" lon="5.98506">
        <ele>1951.8000488281</ele>
        <time>2024-10-15T08:26:46.000Z</time>
      </trkpt>
      <trkpt lat="45.10434" lon="5.98506">
        <ele>1951.8000488281</ele>
        <time>2024-10-15T08:26:47.000Z</time>
      </trkpt>
      <trkpt lat="45.10433" lon="5.98506">
        <ele>1951.8000488281</ele>
        <time>2024-10-15T08:26:48.000Z</time>
      </trkpt>
      <trkpt lat="45.10433" lon="5.98506">
        <ele>1951.8000488281</ele>
        <time>2024-10-15T08:26:49.000Z</time>
      </trkpt>
      <trkpt lat="45.10433" lon="5.98506">
        <ele>1951.8000488281</ele>
        <time>2024-10-15T08:26:50.000Z</time>
      </trkpt>
      <trkpt lat="45.10433" lon="5.98505">
        <ele>1951.8000488281</ele>
        <time>2024-10-15T08:26:51.000Z</time>
      </trkpt>
      <trkpt lat="45.10432" lon="5.98504">
        <ele>1951.8000488281</ele>
        <time>2024-10-15T08:26:52.000Z</time>
      </trkpt>
      <trkpt lat="45.10432" lon="5.98503">
        <ele>1952</ele>
        <time>2024-10-15T08:26:53.000Z</time>
      </trkpt>
      <trkpt lat="45.10431" lon="5.98502">
        <ele>1952</ele>
        <time>2024-10-15T08:26:54.000Z</time>
      </trkpt>
      <trkpt lat="45.10431" lon="5.98501">
        <ele>1952</ele>
        <time>2024-10-15T08:26:55.000Z</time>
      </trkpt>
      <trkpt lat="45.10431" lon="5.985">
        <ele>1952.1999511719</ele>
        <time>2024-10-15T08:26:56.000Z</time>
      </trkpt>
      <trkpt lat="45.10431" lon="5.985">
        <ele>1952.4000244141</ele>
        <time>2024-10-15T08:26:57.000Z</time>
      </trkpt>
      <trkpt lat="45.10431" lon="5.98498">
        <ele>1952.5999755859</ele>
        <time>2024-10-15T08:26:58.000Z</time>
      </trkpt>
      <trkpt lat="45.10432" lon="5.98496">
        <ele>1952.5999755859</ele>
        <time>2024-10-15T08:26:59.000Z</time>
      </trkpt>
      <trkpt lat="45.10432" lon="5.98496">
        <ele>1952.8000488281</ele>
        <time>2024-10-15T08:27:00.000Z</time>
      </trkpt>
      <trkpt lat="45.10433" lon="5.98495">
        <ele>1953</ele>
        <time>2024-10-15T08:27:01.000Z</time>
      </trkpt>
      <trkpt lat="45.10433" lon="5.98495">
        <ele>1953</ele>
        <time>2024-10-15T08:27:02.000Z</time>
      </trkpt>
      <trkpt lat="45.10433" lon="5.98494">
        <ele>1953</ele>
        <time>2024-10-15T08:27:03.000Z</time>
      </trkpt>
      <trkpt lat="45.10433" lon="5.98494">
        <ele>1953</ele>
        <time>2024-10-15T08:27:04.000Z</time>
      </trkpt>
      <trkpt lat="45.10433" lon="5.98495">
        <ele>1953.4000244141</ele>
        <time>2024-10-15T08:27:05.000Z</time>
      </trkpt>
      <trkpt lat="45.10433" lon="5.98494">
        <ele>1953.5999755859</ele>
        <time>2024-10-15T08:27:06.000Z</time>
      </trkpt>
      <trkpt lat="45.10433" lon="5.98494">
        <ele>1953.8000488281</ele>
        <time>2024-10-15T08:27:07.000Z</time>
      </trkpt>
      <trkpt lat="45.10433" lon="5.98494">
        <ele>1954</ele>
        <time>2024-10-15T08:27:08.000Z</time>
      </trkpt>
      <trkpt lat="45.10433" lon="5.98493">
        <ele>1954.1999511719</ele>
        <time>2024-10-15T08:27:09.000Z</time>
      </trkpt>
      <trkpt lat="45.10433" lon="5.98493">
        <ele>1954.8000488281</ele>
        <time>2024-10-15T08:27:10.000Z</time>
      </trkpt>
      <trkpt lat="45.10433" lon="5.98493">
        <ele>1954.8000488281</ele>
        <time>2024-10-15T08:27:11.000Z</time>
      </trkpt>
      <trkpt lat="45.10433" lon="5.98492">
        <ele>1955</ele>
        <time>2024-10-15T08:27:12.000Z</time>
      </trkpt>
      <trkpt lat="45.10434" lon="5.98492">
        <ele>1955.1999511719</ele>
        <time>2024-10-15T08:27:13.000Z</time>
      </trkpt>
      <trkpt lat="45.10434" lon="5.98492">
        <ele>1955.1999511719</ele>
        <time>2024-10-15T08:27:14.000Z</time>
      </trkpt>
      <trkpt lat="45.10434" lon="5.98492">
        <ele>1955.5999755859</ele>
        <time>2024-10-15T08:27:15.000Z</time>
      </trkpt>
      <trkpt lat="45.10434" lon="5.98492">
        <ele>1956</ele>
        <time>2024-10-15T08:27:16.000Z</time>
      </trkpt>
      <trkpt lat="45.10434" lon="5.98491">
        <ele>1956</ele>
        <time>2024-10-15T08:27:17.000Z</time>
      </trkpt>
      <trkpt lat="45.10434" lon="5.98491">
        <ele>1956.1999511719</ele>
        <time>2024-10-15T08:27:18.000Z</time>
      </trkpt>
      <trkpt lat="45.10433" lon="5.98492">
        <ele>1956.5999755859</ele>
        <time>2024-10-15T08:27:19.000Z</time>
      </trkpt>
      <trkpt lat="45.10433" lon="5.98491">
        <ele>1956.8000488281</ele>
        <time>2024-10-15T08:27:20.000Z</time>
      </trkpt>
      <trkpt lat="45.10433" lon="5.98491">
        <ele>1957</ele>
        <time>2024-10-15T08:27:21.000Z</time>
      </trkpt>
      <trkpt lat="45.10433" lon="5.98491">
        <ele>1957</ele>
        <time>2024-10-15T08:27:22.000Z</time>
      </trkpt>
      <trkpt lat="45.10433" lon="5.9849">
        <ele>1957</ele>
        <time>2024-10-15T08:27:23.000Z</time>
      </trkpt>
      <trkpt lat="45.10433" lon="5.9849">
        <ele>1957.1999511719</ele>
        <time>2024-10-15T08:27:24.000Z</time>
      </trkpt>
      <trkpt lat="45.10433" lon="5.9849">
        <ele>1957.4000244141</ele>
        <time>2024-10-15T08:27:25.000Z</time>
      </trkpt>
      <trkpt lat="45.10433" lon="5.9849">
        <ele>1957.5999755859</ele>
        <time>2024-10-15T08:27:26.000Z</time>
      </trkpt>
      <trkpt lat="45.10433" lon="5.98489">
        <ele>1957.8000488281</ele>
        <time>2024-10-15T08:27:27.000Z</time>
      </trkpt>
      <trkpt lat="45.10433" lon="5.98489">
        <ele>1958</ele>
        <time>2024-10-15T08:27:28.000Z</time>
      </trkpt>
      <trkpt lat="45.10433" lon="5.98489">
        <ele>1958.1999511719</ele>
        <time>2024-10-15T08:27:29.000Z</time>
      </trkpt>
      <trkpt lat="45.10433" lon="5.98489">
        <ele>1958.4000244141</ele>
        <time>2024-10-15T08:27:30.000Z</time>
      </trkpt>
      <trkpt lat="45.10433" lon="5.98488">
        <ele>1958.8000488281</ele>
        <time>2024-10-15T08:27:31.000Z</time>
      </trkpt>
      <trkpt lat="45.10433" lon="5.98488">
        <ele>1959</ele>
        <time>2024-10-15T08:27:32.000Z</time>
      </trkpt>
      <trkpt lat="45.10432" lon="5.98488">
        <ele>1959</ele>
        <time>2024-10-15T08:27:33.000Z</time>
      </trkpt>
      <trkpt lat="45.10432" lon="5.98487">
        <ele>1959</ele>
        <time>2024-10-15T08:27:34.000Z</time>
      </trkpt>
      <trkpt lat="45.10432" lon="5.98487">
        <ele>1959.1999511719</ele>
        <time>2024-10-15T08:27:35.000Z</time>
      </trkpt>
      <trkpt lat="45.10432" lon="5.98487">
        <ele>1959.1999511719</ele>
        <time>2024-10-15T08:27:36.000Z</time>
      </trkpt>
      <trkpt lat="45.10432" lon="5.98486">
        <ele>1959.4000244141</ele>
        <time>2024-10-15T08:27:37.000Z</time>
      </trkpt>
      <trkpt lat="45.10432" lon="5.98486">
        <ele>1959.5999755859</ele>
        <time>2024-10-15T08:27:38.000Z</time>
      </trkpt>
      <trkpt lat="45.10432" lon="5.98486">
        <ele>1959.8000488281</ele>
        <time>2024-10-15T08:27:39.000Z</time>
      </trkpt>
      <trkpt lat="45.10432" lon="5.98485">
        <ele>1960</ele>
        <time>2024-10-15T08:27:40.000Z</time>
      </trkpt>
      <trkpt lat="45.10433" lon="5.98485">
        <ele>1960.1999511719</ele>
        <time>2024-10-15T08:27:41.000Z</time>
      </trkpt>
      <trkpt lat="45.10433" lon="5.98485">
        <ele>1960.1999511719</ele>
        <time>2024-10-15T08:27:42.000Z</time>
      </trkpt>
      <trkpt lat="45.10433" lon="5.98485">
        <ele>1960.4000244141</ele>
        <time>2024-10-15T08:27:43.000Z</time>
      </trkpt>
      <trkpt lat="45.10433" lon="5.98485">
        <ele>1960.4000244141</ele>
        <time>2024-10-15T08:27:44.000Z</time>
      </trkpt>
      <trkpt lat="45.10433" lon="5.98484">
        <ele>1960.4000244141</ele>
        <time>2024-10-15T08:27:45.000Z</time>
      </trkpt>
      <trkpt lat="45.10433" lon="5.98484">
        <ele>1960.4000244141</ele>
        <time>2024-10-15T08:27:46.000Z</time>
      </trkpt>
      <trkpt lat="45.10433" lon="5.98484">
        <ele>1960.4000244141</ele>
        <time>2024-10-15T08:27:47.000Z</time>
      </trkpt>
      <trkpt lat="45.10433" lon="5.98484">
        <ele>1960.4000244141</ele>
        <time>2024-10-15T08:27:48.000Z</time>
      </trkpt>
      <trkpt lat="45.10433" lon="5.98484">
        <ele>1960.5999755859</ele>
        <time>2024-10-15T08:27:49.000Z</time>
      </trkpt>
      <trkpt lat="45.10433" lon="5.98484">
        <ele>1960.8000488281</ele>
        <time>2024-10-15T08:27:50.000Z</time>
      </trkpt>
      <trkpt lat="45.10433" lon="5.98484">
        <ele>1961.1999511719</ele>
        <time>2024-10-15T08:27:51.000Z</time>
      </trkpt>
      <trkpt lat="45.10433" lon="5.98484">
        <ele>1961.1999511719</ele>
        <time>2024-10-15T08:27:52.000Z</time>
      </trkpt>
      <trkpt lat="45.10433" lon="5.98484">
        <ele>1961.4000244141</ele>
        <time>2024-10-15T08:27:53.000Z</time>
      </trkpt>
      <trkpt lat="45.10433" lon="5.98484">
        <ele>1961.5999755859</ele>
        <time>2024-10-15T08:27:54.000Z</time>
      </trkpt>
      <trkpt lat="45.10433" lon="5.98484">
        <ele>1961.8000488281</ele>
        <time>2024-10-15T08:27:55.000Z</time>
      </trkpt>
      <trkpt lat="45.10433" lon="5.98484">
        <ele>1962</ele>
        <time>2024-10-15T08:27:56.000Z</time>
      </trkpt>
      <trkpt lat="45.10433" lon="5.98484">
        <ele>1962.1999511719</ele>
        <time>2024-10-15T08:27:57.000Z</time>
      </trkpt>
      <trkpt lat="45.10433" lon="5.98484">
        <ele>1962.5999755859</ele>
        <time>2024-10-15T08:27:58.000Z</time>
      </trkpt>
      <trkpt lat="45.10433" lon="5.98484">
        <ele>1962.5999755859</ele>
        <time>2024-10-15T08:27:59.000Z</time>
      </trkpt>
      <trkpt lat="45.10433" lon="5.98484">
        <ele>1962.5999755859</ele>
        <time>2024-10-15T08:28:00.000Z</time>
      </trkpt>
      <trkpt lat="45.10433" lon="5.98484">
        <ele>1962.5999755859</ele>
        <time>2024-10-15T08:28:01.000Z</time>
      </trkpt>
      <trkpt lat="45.10434" lon="5.98484">
        <ele>1962.8000488281</ele>
        <time>2024-10-15T08:28:02.000Z</time>
      </trkpt>
      <trkpt lat="45.10434" lon="5.98484">
        <ele>1962.8000488281</ele>
        <time>2024-10-15T08:28:03.000Z</time>
      </trkpt>
      <trkpt lat="45.10434" lon="5.98484">
        <ele>1962.8000488281</ele>
        <time>2024-10-15T08:28:04.000Z</time>
      </trkpt>
      <trkpt lat="45.10434" lon="5.98484">
        <ele>1962.8000488281</ele>
        <time>2024-10-15T08:28:05.000Z</time>
      </trkpt>
      <trkpt lat="45.10434" lon="5.98483">
        <ele>1962.8000488281</ele>
        <time>2024-10-15T08:28:06.000Z</time>
      </trkpt>
      <trkpt lat="45.10434" lon="5.98483">
        <ele>1962.8000488281</ele>
        <time>2024-10-15T08:28:07.000Z</time>
      </trkpt>
      <trkpt lat="45.10434" lon="5.98483">
        <ele>1962.8000488281</ele>
        <time>2024-10-15T08:28:08.000Z</time>
      </trkpt>
      <trkpt lat="45.10434" lon="5.98483">
        <ele>1962.8000488281</ele>
        <time>2024-10-15T08:28:09.000Z</time>
      </trkpt>
      <trkpt lat="45.10434" lon="5.98483">
        <ele>1962.8000488281</ele>
        <time>2024-10-15T08:28:10.000Z</time>
      </trkpt>
      <trkpt lat="45.10434" lon="5.98483">
        <ele>1963</ele>
        <time>2024-10-15T08:28:11.000Z</time>
      </trkpt>
      <trkpt lat="45.10435" lon="5.98483">
        <ele>1963.1999511719</ele>
        <time>2024-10-15T08:28:12.000Z</time>
      </trkpt>
      <trkpt lat="45.10435" lon="5.98483">
        <ele>1963.4000244141</ele>
        <time>2024-10-15T08:28:13.000Z</time>
      </trkpt>
      <trkpt lat="45.10435" lon="5.98483">
        <ele>1963.4000244141</ele>
        <time>2024-10-15T08:28:14.000Z</time>
      </trkpt>
      <trkpt lat="45.10435" lon="5.98483">
        <ele>1963.4000244141</ele>
        <time>2024-10-15T08:28:15.000Z</time>
      </trkpt>
      <trkpt lat="45.10435" lon="5.98482">
        <ele>1963.4000244141</ele>
        <time>2024-10-15T08:28:16.000Z</time>
      </trkpt>
      <trkpt lat="45.10435" lon="5.98482">
        <ele>1963.4000244141</ele>
        <time>2024-10-15T08:28:17.000Z</time>
      </trkpt>
      <trkpt lat="45.10435" lon="5.98482">
        <ele>1963.4000244141</ele>
        <time>2024-10-15T08:28:18.000Z</time>
      </trkpt>
      <trkpt lat="45.10435" lon="5.98482">
        <ele>1963.4000244141</ele>
        <time>2024-10-15T08:28:19.000Z</time>
      </trkpt>
      <trkpt lat="45.10435" lon="5.98482">
        <ele>1963.5999755859</ele>
        <time>2024-10-15T08:28:20.000Z</time>
      </trkpt>
      <trkpt lat="45.10435" lon="5.98482">
        <ele>1963.8000488281</ele>
        <time>2024-10-15T08:28:21.000Z</time>
      </trkpt>
      <trkpt lat="45.10435" lon="5.98482">
        <ele>1964.1999511719</ele>
        <time>2024-10-15T08:28:22.000Z</time>
      </trkpt>
      <trkpt lat="45.10435" lon="5.98482">
        <ele>1964.4000244141</ele>
        <time>2024-10-15T08:28:23.000Z</time>
      </trkpt>
      <trkpt lat="45.10435" lon="5.98482">
        <ele>1964.4000244141</ele>
        <time>2024-10-15T08:28:24.000Z</time>
      </trkpt>
      <trkpt lat="45.10435" lon="5.98482">
        <ele>1964.4000244141</ele>
        <time>2024-10-15T08:28:25.000Z</time>
      </trkpt>
      <trkpt lat="45.10435" lon="5.98482">
        <ele>1964.5999755859</ele>
        <time>2024-10-15T08:28:26.000Z</time>
      </trkpt>
      <trkpt lat="45.10435" lon="5.98482">
        <ele>1964.8000488281</ele>
        <time>2024-10-15T08:28:27.000Z</time>
      </trkpt>
      <trkpt lat="45.10435" lon="5.98482">
        <ele>1964.8000488281</ele>
        <time>2024-10-15T08:28:28.000Z</time>
      </trkpt>
      <trkpt lat="45.10435" lon="5.98482">
        <ele>1964.8000488281</ele>
        <time>2024-10-15T08:28:29.000Z</time>
      </trkpt>
      <trkpt lat="45.10434" lon="5.98482">
        <ele>1964.8000488281</ele>
        <time>2024-10-15T08:28:30.000Z</time>
      </trkpt>
      <trkpt lat="45.10434" lon="5.98482">
        <ele>1964.8000488281</ele>
        <time>2024-10-15T08:28:31.000Z</time>
      </trkpt>
      <trkpt lat="45.10434" lon="5.98481">
        <ele>1964.8000488281</ele>
        <time>2024-10-15T08:28:32.000Z</time>
      </trkpt>
      <trkpt lat="45.10434" lon="5.98481">
        <ele>1964.8000488281</ele>
        <time>2024-10-15T08:28:33.000Z</time>
      </trkpt>
      <trkpt lat="45.10434" lon="5.98481">
        <ele>1964.8000488281</ele>
        <time>2024-10-15T08:28:34.000Z</time>
      </trkpt>
      <trkpt lat="45.10434" lon="5.98481">
        <ele>1965</ele>
        <time>2024-10-15T08:28:35.000Z</time>
      </trkpt>
      <trkpt lat="45.10434" lon="5.98481">
        <ele>1965</ele>
        <time>2024-10-15T08:28:36.000Z</time>
      </trkpt>
      <trkpt lat="45.10434" lon="5.9848">
        <ele>1965.1999511719</ele>
        <time>2024-10-15T08:28:37.000Z</time>
      </trkpt>
      <trkpt lat="45.10434" lon="5.9848">
        <ele>1965.1999511719</ele>
        <time>2024-10-15T08:28:38.000Z</time>
      </trkpt>
      <trkpt lat="45.10434" lon="5.9848">
        <ele>1965.4000244141</ele>
        <time>2024-10-15T08:28:39.000Z</time>
      </trkpt>
      <trkpt lat="45.10434" lon="5.98479">
        <ele>1965.4000244141</ele>
        <time>2024-10-15T08:28:40.000Z</time>
      </trkpt>
      <trkpt lat="45.10434" lon="5.98479">
        <ele>1965.8000488281</ele>
        <time>2024-10-15T08:28:41.000Z</time>
      </trkpt>
      <trkpt lat="45.10434" lon="5.98479">
        <ele>1966</ele>
        <time>2024-10-15T08:28:42.000Z</time>
      </trkpt>
      <trkpt lat="45.10434" lon="5.98478">
        <ele>1966.1999511719</ele>
        <time>2024-10-15T08:28:43.000Z</time>
      </trkpt>
      <trkpt lat="45.10434" lon="5.98478">
        <ele>1966.1999511719</ele>
        <time>2024-10-15T08:28:44.000Z</time>
      </trkpt>
      <trkpt lat="45.10435" lon="5.98477">
        <ele>1966.4000244141</ele>
        <time>2024-10-15T08:28:45.000Z</time>
      </trkpt>
      <trkpt lat="45.10435" lon="5.98477">
        <ele>1966.5999755859</ele>
        <time>2024-10-15T08:28:46.000Z</time>
      </trkpt>
      <trkpt lat="45.10435" lon="5.98477">
        <ele>1966.5999755859</ele>
        <time>2024-10-15T08:28:47.000Z</time>
      </trkpt>
      <trkpt lat="45.10435" lon="5.98476">
        <ele>1966.5999755859</ele>
        <time>2024-10-15T08:28:48.000Z</time>
      </trkpt>
      <trkpt lat="45.10435" lon="5.98476">
        <ele>1966.5999755859</ele>
        <time>2024-10-15T08:28:49.000Z</time>
      </trkpt>
      <trkpt lat="45.10436" lon="5.98476">
        <ele>1967</ele>
        <time>2024-10-15T08:28:50.000Z</time>
      </trkpt>
      <trkpt lat="45.10437" lon="5.98476">
        <ele>1967.1999511719</ele>
        <time>2024-10-15T08:28:51.000Z</time>
      </trkpt>
      <trkpt lat="45.10436" lon="5.98477">
        <ele>1967.5999755859</ele>
        <time>2024-10-15T08:28:52.000Z</time>
      </trkpt>
      <trkpt lat="45.10436" lon="5.98477">
        <ele>1967.5999755859</ele>
        <time>2024-10-15T08:28:53.000Z</time>
      </trkpt>
      <trkpt lat="45.10436" lon="5.98477">
        <ele>1967.8000488281</ele>
        <time>2024-10-15T08:28:54.000Z</time>
      </trkpt>
      <trkpt lat="45.10435" lon="5.98478">
        <ele>1967.8000488281</ele>
        <time>2024-10-15T08:28:55.000Z</time>
      </trkpt>
      <trkpt lat="45.10436" lon="5.98477">
        <ele>1967.5999755859</ele>
        <time>2024-10-15T08:28:56.000Z</time>
      </trkpt>
      <trkpt lat="45.10436" lon="5.98477">
        <ele>1967.8000488281</ele>
        <time>2024-10-15T08:28:57.000Z</time>
      </trkpt>
      <trkpt lat="45.10437" lon="5.98476">
        <ele>1967.8000488281</ele>
        <time>2024-10-15T08:28:58.000Z</time>
      </trkpt>
      <trkpt lat="45.10437" lon="5.98476">
        <ele>1967.8000488281</ele>
        <time>2024-10-15T08:28:59.000Z</time>
      </trkpt>
      <trkpt lat="45.10437" lon="5.98476">
        <ele>1967.8000488281</ele>
        <time>2024-10-15T08:29:00.000Z</time>
      </trkpt>
      <trkpt lat="45.10437" lon="5.98476">
        <ele>1968</ele>
        <time>2024-10-15T08:29:01.000Z</time>
      </trkpt>
      <trkpt lat="45.10437" lon="5.98476">
        <ele>1968</ele>
        <time>2024-10-15T08:29:02.000Z</time>
      </trkpt>
      <trkpt lat="45.10437" lon="5.98476">
        <ele>1968</ele>
        <time>2024-10-15T08:29:03.000Z</time>
      </trkpt>
      <trkpt lat="45.10437" lon="5.98476">
        <ele>1968</ele>
        <time>2024-10-15T08:29:04.000Z</time>
      </trkpt>
      <trkpt lat="45.10437" lon="5.98476">
        <ele>1968.1999511719</ele>
        <time>2024-10-15T08:29:05.000Z</time>
      </trkpt>
      <trkpt lat="45.10437" lon="5.98476">
        <ele>1968.1999511719</ele>
        <time>2024-10-15T08:29:06.000Z</time>
      </trkpt>
      <trkpt lat="45.10437" lon="5.98476">
        <ele>1968.4000244141</ele>
        <time>2024-10-15T08:29:07.000Z</time>
      </trkpt>
      <trkpt lat="45.10437" lon="5.98476">
        <ele>1968.4000244141</ele>
        <time>2024-10-15T08:29:08.000Z</time>
      </trkpt>
      <trkpt lat="45.10437" lon="5.98476">
        <ele>1968.5999755859</ele>
        <time>2024-10-15T08:29:09.000Z</time>
      </trkpt>
      <trkpt lat="45.10437" lon="5.98476">
        <ele>1968.5999755859</ele>
        <time>2024-10-15T08:29:10.000Z</time>
      </trkpt>
      <trkpt lat="45.10437" lon="5.98476">
        <ele>1968.5999755859</ele>
        <time>2024-10-15T08:29:11.000Z</time>
      </trkpt>
      <trkpt lat="45.10438" lon="5.98476">
        <ele>1968.5999755859</ele>
        <time>2024-10-15T08:29:12.000Z</time>
      </trkpt>
      <trkpt lat="45.1044" lon="5.98475">
        <ele>1968.5999755859</ele>
        <time>2024-10-15T08:29:13.000Z</time>
      </trkpt>
      <trkpt lat="45.10439" lon="5.98476">
        <ele>1968.5999755859</ele>
        <time>2024-10-15T08:29:14.000Z</time>
      </trkpt>
      <trkpt lat="45.10439" lon="5.98476">
        <ele>1968.5999755859</ele>
        <time>2024-10-15T08:29:15.000Z</time>
      </trkpt>
      <trkpt lat="45.10439" lon="5.98476">
        <ele>1968.5999755859</ele>
        <time>2024-10-15T08:29:16.000Z</time>
      </trkpt>
      <trkpt lat="45.10439" lon="5.98475">
        <ele>1968.5999755859</ele>
        <time>2024-10-15T08:29:17.000Z</time>
      </trkpt>
      <trkpt lat="45.10439" lon="5.98475">
        <ele>1968.5999755859</ele>
        <time>2024-10-15T08:29:18.000Z</time>
      </trkpt>
      <trkpt lat="45.10439" lon="5.98474">
        <ele>1968.5999755859</ele>
        <time>2024-10-15T08:29:19.000Z</time>
      </trkpt>
      <trkpt lat="45.10439" lon="5.98473">
        <ele>1968.5999755859</ele>
        <time>2024-10-15T08:29:20.000Z</time>
      </trkpt>
      <trkpt lat="45.10439" lon="5.98473">
        <ele>1968.5999755859</ele>
        <time>2024-10-15T08:29:21.000Z</time>
      </trkpt>
      <trkpt lat="45.10439" lon="5.98472">
        <ele>1968.5999755859</ele>
        <time>2024-10-15T08:29:22.000Z</time>
      </trkpt>
      <trkpt lat="45.10439" lon="5.98473">
        <ele>1968.5999755859</ele>
        <time>2024-10-15T08:29:23.000Z</time>
      </trkpt>
      <trkpt lat="45.10439" lon="5.98473">
        <ele>1968.5999755859</ele>
        <time>2024-10-15T08:29:24.000Z</time>
      </trkpt>
      <trkpt lat="45.1044" lon="5.98472">
        <ele>1968.5999755859</ele>
        <time>2024-10-15T08:29:25.000Z</time>
      </trkpt>
      <trkpt lat="45.1044" lon="5.98472">
        <ele>1968.8000488281</ele>
        <time>2024-10-15T08:29:26.000Z</time>
      </trkpt>
      <trkpt lat="45.1044" lon="5.98472">
        <ele>1969</ele>
        <time>2024-10-15T08:29:27.000Z</time>
      </trkpt>
      <trkpt lat="45.10439" lon="5.98472">
        <ele>1969</ele>
        <time>2024-10-15T08:29:28.000Z</time>
      </trkpt>
      <trkpt lat="45.10439" lon="5.98472">
        <ele>1969.1999511719</ele>
        <time>2024-10-15T08:29:29.000Z</time>
      </trkpt>
      <trkpt lat="45.10439" lon="5.98472">
        <ele>1969.1999511719</ele>
        <time>2024-10-15T08:29:30.000Z</time>
      </trkpt>
      <trkpt lat="45.10439" lon="5.98473">
        <ele>1969.1999511719</ele>
        <time>2024-10-15T08:29:31.000Z</time>
      </trkpt>
      <trkpt lat="45.10439" lon="5.98472">
        <ele>1969.1999511719</ele>
        <time>2024-10-15T08:29:32.000Z</time>
      </trkpt>
      <trkpt lat="45.10439" lon="5.98471">
        <ele>1969.1999511719</ele>
        <time>2024-10-15T08:29:33.000Z</time>
      </trkpt>
      <trkpt lat="45.10439" lon="5.98471">
        <ele>1969.4000244141</ele>
        <time>2024-10-15T08:29:34.000Z</time>
      </trkpt>
      <trkpt lat="45.10439" lon="5.98471">
        <ele>1969.5999755859</ele>
        <time>2024-10-15T08:29:35.000Z</time>
      </trkpt>
      <trkpt lat="45.10439" lon="5.98471">
        <ele>1969.8000488281</ele>
        <time>2024-10-15T08:29:36.000Z</time>
      </trkpt>
      <trkpt lat="45.10439" lon="5.98471">
        <ele>1970</ele>
        <time>2024-10-15T08:29:37.000Z</time>
      </trkpt>
      <trkpt lat="45.10439" lon="5.98471">
        <ele>1970</ele>
        <time>2024-10-15T08:29:38.000Z</time>
      </trkpt>
      <trkpt lat="45.10439" lon="5.98472">
        <ele>1970.1999511719</ele>
        <time>2024-10-15T08:29:39.000Z</time>
      </trkpt>
      <trkpt lat="45.10439" lon="5.98472">
        <ele>1970.4000244141</ele>
        <time>2024-10-15T08:29:40.000Z</time>
      </trkpt>
      <trkpt lat="45.1044" lon="5.98472">
        <ele>1970.4000244141</ele>
        <time>2024-10-15T08:29:41.000Z</time>
      </trkpt>
      <trkpt lat="45.1044" lon="5.98472">
        <ele>1970.5999755859</ele>
        <time>2024-10-15T08:29:42.000Z</time>
      </trkpt>
      <trkpt lat="45.1044" lon="5.98471">
        <ele>1970.8000488281</ele>
        <time>2024-10-15T08:29:43.000Z</time>
      </trkpt>
      <trkpt lat="45.1044" lon="5.98471">
        <ele>1970.8000488281</ele>
        <time>2024-10-15T08:29:44.000Z</time>
      </trkpt>
      <trkpt lat="45.1044" lon="5.98471">
        <ele>1971</ele>
        <time>2024-10-15T08:29:45.000Z</time>
      </trkpt>
      <trkpt lat="45.1044" lon="5.9847">
        <ele>1971</ele>
        <time>2024-10-15T08:29:46.000Z</time>
      </trkpt>
      <trkpt lat="45.10439" lon="5.9847">
        <ele>1971</ele>
        <time>2024-10-15T08:29:47.000Z</time>
      </trkpt>
      <trkpt lat="45.10439" lon="5.98471">
        <ele>1971</ele>
        <time>2024-10-15T08:29:48.000Z</time>
      </trkpt>
      <trkpt lat="45.10439" lon="5.98471">
        <ele>1971</ele>
        <time>2024-10-15T08:29:49.000Z</time>
      </trkpt>
      <trkpt lat="45.1044" lon="5.98471">
        <ele>1971.4000244141</ele>
        <time>2024-10-15T08:29:50.000Z</time>
      </trkpt>
      <trkpt lat="45.1044" lon="5.9847">
        <ele>1971.4000244141</ele>
        <time>2024-10-15T08:29:51.000Z</time>
      </trkpt>
      <trkpt lat="45.10439" lon="5.9847">
        <ele>1971.4000244141</ele>
        <time>2024-10-15T08:29:52.000Z</time>
      </trkpt>
      <trkpt lat="45.10439" lon="5.9847">
        <ele>1971.5999755859</ele>
        <time>2024-10-15T08:29:53.000Z</time>
      </trkpt>
      <trkpt lat="45.1044" lon="5.9847">
        <ele>1971.5999755859</ele>
        <time>2024-10-15T08:29:54.000Z</time>
      </trkpt>
      <trkpt lat="45.1044" lon="5.9847">
        <ele>1971.5999755859</ele>
        <time>2024-10-15T08:29:55.000Z</time>
      </trkpt>
      <trkpt lat="45.10441" lon="5.9847">
        <ele>1971.8000488281</ele>
        <time>2024-10-15T08:29:56.000Z</time>
      </trkpt>
      <trkpt lat="45.10441" lon="5.98469">
        <ele>1972</ele>
        <time>2024-10-15T08:29:57.000Z</time>
      </trkpt>
      <trkpt lat="45.1044" lon="5.98469">
        <ele>1972.1999511719</ele>
        <time>2024-10-15T08:29:58.000Z</time>
      </trkpt>
      <trkpt lat="45.10439" lon="5.98469">
        <ele>1972.4000244141</ele>
        <time>2024-10-15T08:29:59.000Z</time>
      </trkpt>
      <trkpt lat="45.10439" lon="5.98468">
        <ele>1972.5999755859</ele>
        <time>2024-10-15T08:30:00.000Z</time>
      </trkpt>
      <trkpt lat="45.10438" lon="5.98469">
        <ele>1972.8000488281</ele>
        <time>2024-10-15T08:30:01.000Z</time>
      </trkpt>
      <trkpt lat="45.10437" lon="5.98469">
        <ele>1972.8000488281</ele>
        <time>2024-10-15T08:30:02.000Z</time>
      </trkpt>
      <trkpt lat="45.10438" lon="5.98467">
        <ele>1973.1999511719</ele>
        <time>2024-10-15T08:30:03.000Z</time>
      </trkpt>
      <trkpt lat="45.10438" lon="5.98466">
        <ele>1973.4000244141</ele>
        <time>2024-10-15T08:30:04.000Z</time>
      </trkpt>
      <trkpt lat="45.10438" lon="5.98466">
        <ele>1973.5999755859</ele>
        <time>2024-10-15T08:30:05.000Z</time>
      </trkpt>
      <trkpt lat="45.10438" lon="5.98466">
        <ele>1973.8000488281</ele>
        <time>2024-10-15T08:30:06.000Z</time>
      </trkpt>
      <trkpt lat="45.10439" lon="5.98466">
        <ele>1974</ele>
        <time>2024-10-15T08:30:07.000Z</time>
      </trkpt>
      <trkpt lat="45.10439" lon="5.98465">
        <ele>1974.1999511719</ele>
        <time>2024-10-15T08:30:08.000Z</time>
      </trkpt>
      <trkpt lat="45.1044" lon="5.98465">
        <ele>1974.4000244141</ele>
        <time>2024-10-15T08:30:09.000Z</time>
      </trkpt>
      <trkpt lat="45.1044" lon="5.98465">
        <ele>1974.5999755859</ele>
        <time>2024-10-15T08:30:10.000Z</time>
      </trkpt>
      <trkpt lat="45.1044" lon="5.98465">
        <ele>1974.5999755859</ele>
        <time>2024-10-15T08:30:11.000Z</time>
      </trkpt>
      <trkpt lat="45.1044" lon="5.98464">
        <ele>1974.8000488281</ele>
        <time>2024-10-15T08:30:12.000Z</time>
      </trkpt>
      <trkpt lat="45.1044" lon="5.98464">
        <ele>1974.8000488281</ele>
        <time>2024-10-15T08:30:13.000Z</time>
      </trkpt>
      <trkpt lat="45.10439" lon="5.98464">
        <ele>1975</ele>
        <time>2024-10-15T08:30:14.000Z</time>
      </trkpt>
      <trkpt lat="45.10439" lon="5.98464">
        <ele>1975.1999511719</ele>
        <time>2024-10-15T08:30:15.000Z</time>
      </trkpt>
      <trkpt lat="45.10439" lon="5.98464">
        <ele>1975.4000244141</ele>
        <time>2024-10-15T08:30:16.000Z</time>
      </trkpt>
      <trkpt lat="45.10439" lon="5.98464">
        <ele>1975.5999755859</ele>
        <time>2024-10-15T08:30:17.000Z</time>
      </trkpt>
      <trkpt lat="45.10438" lon="5.98464">
        <ele>1975.8000488281</ele>
        <time>2024-10-15T08:30:18.000Z</time>
      </trkpt>
      <trkpt lat="45.10438" lon="5.98464">
        <ele>1975.8000488281</ele>
        <time>2024-10-15T08:30:19.000Z</time>
      </trkpt>
      <trkpt lat="45.10438" lon="5.98464">
        <ele>1976.4000244141</ele>
        <time>2024-10-15T08:30:20.000Z</time>
      </trkpt>
      <trkpt lat="45.10438" lon="5.98464">
        <ele>1976.5999755859</ele>
        <time>2024-10-15T08:30:21.000Z</time>
      </trkpt>
      <trkpt lat="45.10438" lon="5.98464">
        <ele>1976.5999755859</ele>
        <time>2024-10-15T08:30:22.000Z</time>
      </trkpt>
      <trkpt lat="45.10438" lon="5.98464">
        <ele>1976.8000488281</ele>
        <time>2024-10-15T08:30:23.000Z</time>
      </trkpt>
      <trkpt lat="45.10438" lon="5.98464">
        <ele>1976.8000488281</ele>
        <time>2024-10-15T08:30:24.000Z</time>
      </trkpt>
      <trkpt lat="45.10438" lon="5.98464">
        <ele>1976.8000488281</ele>
        <time>2024-10-15T08:30:25.000Z</time>
      </trkpt>
      <trkpt lat="45.10438" lon="5.98464">
        <ele>1977</ele>
        <time>2024-10-15T08:30:26.000Z</time>
      </trkpt>
      <trkpt lat="45.10437" lon="5.98465">
        <ele>1977</ele>
        <time>2024-10-15T08:30:27.000Z</time>
      </trkpt>
      <trkpt lat="45.10436" lon="5.98465">
        <ele>1977.1999511719</ele>
        <time>2024-10-15T08:30:28.000Z</time>
      </trkpt>
      <trkpt lat="45.10435" lon="5.98464">
        <ele>1977.1999511719</ele>
        <time>2024-10-15T08:30:29.000Z</time>
      </trkpt>
      <trkpt lat="45.10434" lon="5.98464">
        <ele>1977.1999511719</ele>
        <time>2024-10-15T08:30:30.000Z</time>
      </trkpt>
      <trkpt lat="45.10434" lon="5.98464">
        <ele>1977.4000244141</ele>
        <time>2024-10-15T08:30:31.000Z</time>
      </trkpt>
      <trkpt lat="45.10434" lon="5.98463">
        <ele>1977.4000244141</ele>
        <time>2024-10-15T08:30:32.000Z</time>
      </trkpt>
      <trkpt lat="45.10434" lon="5.98463">
        <ele>1977.5999755859</ele>
        <time>2024-10-15T08:30:33.000Z</time>
      </trkpt>
      <trkpt lat="45.10434" lon="5.98463">
        <ele>1977.5999755859</ele>
        <time>2024-10-15T08:30:34.000Z</time>
      </trkpt>
      <trkpt lat="45.10434" lon="5.98463">
        <ele>1977.5999755859</ele>
        <time>2024-10-15T08:30:35.000Z</time>
      </trkpt>
      <trkpt lat="45.10434" lon="5.98462">
        <ele>1977.8000488281</ele>
        <time>2024-10-15T08:30:36.000Z</time>
      </trkpt>
      <trkpt lat="45.10434" lon="5.98462">
        <ele>1977.8000488281</ele>
        <time>2024-10-15T08:30:37.000Z</time>
      </trkpt>
      <trkpt lat="45.10434" lon="5.98462">
        <ele>1977.8000488281</ele>
        <time>2024-10-15T08:30:38.000Z</time>
      </trkpt>
      <trkpt lat="45.10433" lon="5.98461">
        <ele>1977.8000488281</ele>
        <time>2024-10-15T08:30:39.000Z</time>
      </trkpt>
      <trkpt lat="45.10433" lon="5.9846">
        <ele>1978</ele>
        <time>2024-10-15T08:30:40.000Z</time>
      </trkpt>
      <trkpt lat="45.10432" lon="5.9846">
        <ele>1978</ele>
        <time>2024-10-15T08:30:41.000Z</time>
      </trkpt>
      <trkpt lat="45.10432" lon="5.9846">
        <ele>1978.1999511719</ele>
        <time>2024-10-15T08:30:42.000Z</time>
      </trkpt>
      <trkpt lat="45.10432" lon="5.9846">
        <ele>1978.1999511719</ele>
        <time>2024-10-15T08:30:43.000Z</time>
      </trkpt>
      <trkpt lat="45.10433" lon="5.9846">
        <ele>1978.1999511719</ele>
        <time>2024-10-15T08:30:44.000Z</time>
      </trkpt>
      <trkpt lat="45.10433" lon="5.9846">
        <ele>1978.4000244141</ele>
        <time>2024-10-15T08:30:45.000Z</time>
      </trkpt>
      <trkpt lat="45.10433" lon="5.9846">
        <ele>1978.5999755859</ele>
        <time>2024-10-15T08:30:46.000Z</time>
      </trkpt>
      <trkpt lat="45.10433" lon="5.9846">
        <ele>1978.5999755859</ele>
        <time>2024-10-15T08:30:47.000Z</time>
      </trkpt>
      <trkpt lat="45.10433" lon="5.98459">
        <ele>1978.5999755859</ele>
        <time>2024-10-15T08:30:48.000Z</time>
      </trkpt>
      <trkpt lat="45.10433" lon="5.98459">
        <ele>1978.8000488281</ele>
        <time>2024-10-15T08:30:49.000Z</time>
      </trkpt>
      <trkpt lat="45.10433" lon="5.98459">
        <ele>1979</ele>
        <time>2024-10-15T08:30:50.000Z</time>
      </trkpt>
      <trkpt lat="45.10433" lon="5.98458">
        <ele>1979.1999511719</ele>
        <time>2024-10-15T08:30:51.000Z</time>
      </trkpt>
      <trkpt lat="45.10432" lon="5.98458">
        <ele>1979.1999511719</ele>
        <time>2024-10-15T08:30:52.000Z</time>
      </trkpt>
      <trkpt lat="45.10433" lon="5.98458">
        <ele>1979.4000244141</ele>
        <time>2024-10-15T08:30:53.000Z</time>
      </trkpt>
      <trkpt lat="45.10433" lon="5.98458">
        <ele>1979.5999755859</ele>
        <time>2024-10-15T08:30:54.000Z</time>
      </trkpt>
      <trkpt lat="45.10433" lon="5.98458">
        <ele>1979.5999755859</ele>
        <time>2024-10-15T08:30:55.000Z</time>
      </trkpt>
      <trkpt lat="45.10433" lon="5.98458">
        <ele>1979.5999755859</ele>
        <time>2024-10-15T08:30:56.000Z</time>
      </trkpt>
      <trkpt lat="45.10433" lon="5.98458">
        <ele>1979.5999755859</ele>
        <time>2024-10-15T08:30:57.000Z</time>
      </trkpt>
      <trkpt lat="45.10433" lon="5.98458">
        <ele>1980</ele>
        <time>2024-10-15T08:30:58.000Z</time>
      </trkpt>
      <trkpt lat="45.10433" lon="5.98458">
        <ele>1980</ele>
        <time>2024-10-15T08:30:59.000Z</time>
      </trkpt>
      <trkpt lat="45.10433" lon="5.98458">
        <ele>1980</ele>
        <time>2024-10-15T08:31:00.000Z</time>
      </trkpt>
      <trkpt lat="45.10433" lon="5.98458">
        <ele>1980.1999511719</ele>
        <time>2024-10-15T08:31:01.000Z</time>
      </trkpt>
      <trkpt lat="45.10433" lon="5.98458">
        <ele>1980.1999511719</ele>
        <time>2024-10-15T08:31:02.000Z</time>
      </trkpt>
      <trkpt lat="45.10433" lon="5.98458">
        <ele>1980.1999511719</ele>
        <time>2024-10-15T08:31:03.000Z</time>
      </trkpt>
      <trkpt lat="45.10433" lon="5.98458">
        <ele>1980.4000244141</ele>
        <time>2024-10-15T08:31:04.000Z</time>
      </trkpt>
      <trkpt lat="45.10433" lon="5.98458">
        <ele>1980.5999755859</ele>
        <time>2024-10-15T08:31:05.000Z</time>
      </trkpt>
      <trkpt lat="45.10433" lon="5.98458">
        <ele>1980.5999755859</ele>
        <time>2024-10-15T08:31:06.000Z</time>
      </trkpt>
      <trkpt lat="45.10433" lon="5.98458">
        <ele>1980.5999755859</ele>
        <time>2024-10-15T08:31:07.000Z</time>
      </trkpt>
      <trkpt lat="45.10433" lon="5.98458">
        <ele>1980.5999755859</ele>
        <time>2024-10-15T08:31:08.000Z</time>
      </trkpt>
      <trkpt lat="45.10433" lon="5.98458">
        <ele>1980.5999755859</ele>
        <time>2024-10-15T08:31:09.000Z</time>
      </trkpt>
      <trkpt lat="45.10433" lon="5.98458">
        <ele>1980.8000488281</ele>
        <time>2024-10-15T08:31:10.000Z</time>
      </trkpt>
      <trkpt lat="45.10433" lon="5.98457">
        <ele>1980.8000488281</ele>
        <time>2024-10-15T08:31:11.000Z</time>
      </trkpt>
      <trkpt lat="45.10433" lon="5.98457">
        <ele>1980.8000488281</ele>
        <time>2024-10-15T08:31:12.000Z</time>
      </trkpt>
      <trkpt lat="45.10434" lon="5.98457">
        <ele>1980.8000488281</ele>
        <time>2024-10-15T08:31:13.000Z</time>
      </trkpt>
      <trkpt lat="45.10435" lon="5.98457">
        <ele>1980.5999755859</ele>
        <time>2024-10-15T08:31:14.000Z</time>
      </trkpt>
      <trkpt lat="45.10437" lon="5.98455">
        <ele>1980.5999755859</ele>
        <time>2024-10-15T08:31:15.000Z</time>
      </trkpt>
      <trkpt lat="45.10439" lon="5.98455">
        <ele>1980.5999755859</ele>
        <time>2024-10-15T08:31:16.000Z</time>
      </trkpt>
      <trkpt lat="45.1044" lon="5.98453">
        <ele>1980.5999755859</ele>
        <time>2024-10-15T08:31:17.000Z</time>
      </trkpt>
      <trkpt lat="45.10441" lon="5.98452">
        <ele>1980.8000488281</ele>
        <time>2024-10-15T08:31:18.000Z</time>
      </trkpt>
      <trkpt lat="45.10441" lon="5.98451">
        <ele>1981</ele>
        <time>2024-10-15T08:31:19.000Z</time>
      </trkpt>
      <trkpt lat="45.10442" lon="5.9845">
        <ele>1981.1999511719</ele>
        <time>2024-10-15T08:31:20.000Z</time>
      </trkpt>
      <trkpt lat="45.10442" lon="5.9845">
        <ele>1981.5999755859</ele>
        <time>2024-10-15T08:31:21.000Z</time>
      </trkpt>
      <trkpt lat="45.10442" lon="5.9845">
        <ele>1981.5999755859</ele>
        <time>2024-10-15T08:31:22.000Z</time>
      </trkpt>
      <trkpt lat="45.10442" lon="5.9845">
        <ele>1981.8000488281</ele>
        <time>2024-10-15T08:31:23.000Z</time>
      </trkpt>
      <trkpt lat="45.10442" lon="5.98449">
        <ele>1981.5999755859</ele>
        <time>2024-10-15T08:31:24.000Z</time>
      </trkpt>
      <trkpt lat="45.10441" lon="5.98448">
        <ele>1981.5999755859</ele>
        <time>2024-10-15T08:31:25.000Z</time>
      </trkpt>
      <trkpt lat="45.10441" lon="5.98448">
        <ele>1981.5999755859</ele>
        <time>2024-10-15T08:31:26.000Z</time>
      </trkpt>
      <trkpt lat="45.10441" lon="5.98449">
        <ele>1981.5999755859</ele>
        <time>2024-10-15T08:31:27.000Z</time>
      </trkpt>
      <trkpt lat="45.10441" lon="5.98449">
        <ele>1981.5999755859</ele>
        <time>2024-10-15T08:31:28.000Z</time>
      </trkpt>
      <trkpt lat="45.10441" lon="5.98449">
        <ele>1981.5999755859</ele>
        <time>2024-10-15T08:31:29.000Z</time>
      </trkpt>
      <trkpt lat="45.10441" lon="5.9845">
        <ele>1981.4000244141</ele>
        <time>2024-10-15T08:31:30.000Z</time>
      </trkpt>
      <trkpt lat="45.10441" lon="5.98451">
        <ele>1981.4000244141</ele>
        <time>2024-10-15T08:31:31.000Z</time>
      </trkpt>
      <trkpt lat="45.10441" lon="5.98452">
        <ele>1981.4000244141</ele>
        <time>2024-10-15T08:31:32.000Z</time>
      </trkpt>
      <trkpt lat="45.10442" lon="5.98452">
        <ele>1981.4000244141</ele>
        <time>2024-10-15T08:31:33.000Z</time>
      </trkpt>
      <trkpt lat="45.10442" lon="5.98451">
        <ele>1981.4000244141</ele>
        <time>2024-10-15T08:31:34.000Z</time>
      </trkpt>
      <trkpt lat="45.10442" lon="5.98451">
        <ele>1981.4000244141</ele>
        <time>2024-10-15T08:31:35.000Z</time>
      </trkpt>
      <trkpt lat="45.10442" lon="5.98451">
        <ele>1981.5999755859</ele>
        <time>2024-10-15T08:31:36.000Z</time>
      </trkpt>
      <trkpt lat="45.10443" lon="5.98452">
        <ele>1981.5999755859</ele>
        <time>2024-10-15T08:31:37.000Z</time>
      </trkpt>
      <trkpt lat="45.10443" lon="5.98453">
        <ele>1981.8000488281</ele>
        <time>2024-10-15T08:31:38.000Z</time>
      </trkpt>
      <trkpt lat="45.10443" lon="5.98452">
        <ele>1981.8000488281</ele>
        <time>2024-10-15T08:31:39.000Z</time>
      </trkpt>
      <trkpt lat="45.10441" lon="5.98452">
        <ele>1982</ele>
        <time>2024-10-15T08:31:40.000Z</time>
      </trkpt>
      <trkpt lat="45.10441" lon="5.98452">
        <ele>1982.4000244141</ele>
        <time>2024-10-15T08:31:41.000Z</time>
      </trkpt>
      <trkpt lat="45.1044" lon="5.98453">
        <ele>1982.4000244141</ele>
        <time>2024-10-15T08:31:42.000Z</time>
      </trkpt>
      <trkpt lat="45.1044" lon="5.98453">
        <ele>1982.4000244141</ele>
        <time>2024-10-15T08:31:43.000Z</time>
      </trkpt>
      <trkpt lat="45.1044" lon="5.98453">
        <ele>1982.4000244141</ele>
        <time>2024-10-15T08:31:44.000Z</time>
      </trkpt>
      <trkpt lat="45.1044" lon="5.98453">
        <ele>1982.4000244141</ele>
        <time>2024-10-15T08:31:45.000Z</time>
      </trkpt>
      <trkpt lat="45.1044" lon="5.98453">
        <ele>1982.4000244141</ele>
        <time>2024-10-15T08:31:46.000Z</time>
      </trkpt>
      <trkpt lat="45.10441" lon="5.98453">
        <ele>1982.4000244141</ele>
        <time>2024-10-15T08:31:47.000Z</time>
      </trkpt>
      <trkpt lat="45.10442" lon="5.98453">
        <ele>1982.4000244141</ele>
        <time>2024-10-15T08:31:48.000Z</time>
      </trkpt>
      <trkpt lat="45.10442" lon="5.98453">
        <ele>1982.4000244141</ele>
        <time>2024-10-15T08:31:49.000Z</time>
      </trkpt>
      <trkpt lat="45.10442" lon="5.98453">
        <ele>1982.4000244141</ele>
        <time>2024-10-15T08:31:50.000Z</time>
      </trkpt>
      <trkpt lat="45.10442" lon="5.98453">
        <ele>1982.4000244141</ele>
        <time>2024-10-15T08:31:51.000Z</time>
      </trkpt>
      <trkpt lat="45.10442" lon="5.98453">
        <ele>1982.4000244141</ele>
        <time>2024-10-15T08:31:52.000Z</time>
      </trkpt>
      <trkpt lat="45.10442" lon="5.98453">
        <ele>1982.4000244141</ele>
        <time>2024-10-15T08:31:53.000Z</time>
      </trkpt>
      <trkpt lat="45.10442" lon="5.98453">
        <ele>1982.4000244141</ele>
        <time>2024-10-15T08:31:54.000Z</time>
      </trkpt>
      <trkpt lat="45.10442" lon="5.98453">
        <ele>1982.4000244141</ele>
        <time>2024-10-15T08:31:55.000Z</time>
      </trkpt>
      <trkpt lat="45.10441" lon="5.98453">
        <ele>1982.4000244141</ele>
        <time>2024-10-15T08:31:56.000Z</time>
      </trkpt>
      <trkpt lat="45.1044" lon="5.98453">
        <ele>1982.4000244141</ele>
        <time>2024-10-15T08:31:57.000Z</time>
      </trkpt>
      <trkpt lat="45.10439" lon="5.98453">
        <ele>1982.4000244141</ele>
        <time>2024-10-15T08:31:58.000Z</time>
      </trkpt>
      <trkpt lat="45.10437" lon="5.98453">
        <ele>1982.4000244141</ele>
        <time>2024-10-15T08:31:59.000Z</time>
      </trkpt>
      <trkpt lat="45.10437" lon="5.98453">
        <ele>1982.4000244141</ele>
        <time>2024-10-15T08:32:00.000Z</time>
      </trkpt>
      <trkpt lat="45.10437" lon="5.98453">
        <ele>1982.4000244141</ele>
        <time>2024-10-15T08:32:01.000Z</time>
      </trkpt>
      <trkpt lat="45.10437" lon="5.98453">
        <ele>1982.4000244141</ele>
        <time>2024-10-15T08:32:02.000Z</time>
      </trkpt>
      <trkpt lat="45.10437" lon="5.98453">
        <ele>1982.4000244141</ele>
        <time>2024-10-15T08:32:03.000Z</time>
      </trkpt>
      <trkpt lat="45.10437" lon="5.98453">
        <ele>1982.4000244141</ele>
        <time>2024-10-15T08:32:04.000Z</time>
      </trkpt>
      <trkpt lat="45.10436" lon="5.98453">
        <ele>1982.4000244141</ele>
        <time>2024-10-15T08:32:05.000Z</time>
      </trkpt>
      <trkpt lat="45.10436" lon="5.98453">
        <ele>1982.4000244141</ele>
        <time>2024-10-15T08:32:06.000Z</time>
      </trkpt>
      <trkpt lat="45.10436" lon="5.98453">
        <ele>1982.1999511719</ele>
        <time>2024-10-15T08:32:07.000Z</time>
      </trkpt>
      <trkpt lat="45.10435" lon="5.98453">
        <ele>1982.1999511719</ele>
        <time>2024-10-15T08:32:08.000Z</time>
      </trkpt>
      <trkpt lat="45.10435" lon="5.98453">
        <ele>1982.1999511719</ele>
        <time>2024-10-15T08:32:09.000Z</time>
      </trkpt>
      <trkpt lat="45.10435" lon="5.98453">
        <ele>1982.1999511719</ele>
        <time>2024-10-15T08:32:10.000Z</time>
      </trkpt>
      <trkpt lat="45.10435" lon="5.98453">
        <ele>1982.1999511719</ele>
        <time>2024-10-15T08:32:11.000Z</time>
      </trkpt>
      <trkpt lat="45.10435" lon="5.98453">
        <ele>1982.1999511719</ele>
        <time>2024-10-15T08:32:12.000Z</time>
      </trkpt>
      <trkpt lat="45.10435" lon="5.98453">
        <ele>1982.4000244141</ele>
        <time>2024-10-15T08:32:13.000Z</time>
      </trkpt>
      <trkpt lat="45.10435" lon="5.98453">
        <ele>1982.4000244141</ele>
        <time>2024-10-15T08:32:14.000Z</time>
      </trkpt>
      <trkpt lat="45.10433" lon="5.98452">
        <ele>1982.4000244141</ele>
        <time>2024-10-15T08:32:15.000Z</time>
      </trkpt>
      <trkpt lat="45.10432" lon="5.98452">
        <ele>1982.4000244141</ele>
        <time>2024-10-15T08:32:16.000Z</time>
      </trkpt>
      <trkpt lat="45.10432" lon="5.98452">
        <ele>1982.5999755859</ele>
        <time>2024-10-15T08:32:17.000Z</time>
      </trkpt>
      <trkpt lat="45.10431" lon="5.98451">
        <ele>1982.5999755859</ele>
        <time>2024-10-15T08:32:18.000Z</time>
      </trkpt>
      <trkpt lat="45.1043" lon="5.9845">
        <ele>1982.5999755859</ele>
        <time>2024-10-15T08:32:19.000Z</time>
      </trkpt>
      <trkpt lat="45.10429" lon="5.9845">
        <ele>1982.8000488281</ele>
        <time>2024-10-15T08:32:20.000Z</time>
      </trkpt>
      <trkpt lat="45.10429" lon="5.98451">
        <ele>1982.8000488281</ele>
        <time>2024-10-15T08:32:21.000Z</time>
      </trkpt>
      <trkpt lat="45.10427" lon="5.9845">
        <ele>1983</ele>
        <time>2024-10-15T08:32:22.000Z</time>
      </trkpt>
      <trkpt lat="45.10427" lon="5.9845">
        <ele>1983</ele>
        <time>2024-10-15T08:32:23.000Z</time>
      </trkpt>
      <trkpt lat="45.10427" lon="5.98451">
        <ele>1983.1999511719</ele>
        <time>2024-10-15T08:32:24.000Z</time>
      </trkpt>
      <trkpt lat="45.10427" lon="5.98451">
        <ele>1983.1999511719</ele>
        <time>2024-10-15T08:32:25.000Z</time>
      </trkpt>
      <trkpt lat="45.10426" lon="5.9845">
        <ele>1983.1999511719</ele>
        <time>2024-10-15T08:32:26.000Z</time>
      </trkpt>
      <trkpt lat="45.10425" lon="5.9845">
        <ele>1983.1999511719</ele>
        <time>2024-10-15T08:32:27.000Z</time>
      </trkpt>
      <trkpt lat="45.10425" lon="5.98449">
        <ele>1983.1999511719</ele>
        <time>2024-10-15T08:32:28.000Z</time>
      </trkpt>
      <trkpt lat="45.10425" lon="5.98449">
        <ele>1983.1999511719</ele>
        <time>2024-10-15T08:32:29.000Z</time>
      </trkpt>
      <trkpt lat="45.10425" lon="5.98449">
        <ele>1983.4000244141</ele>
        <time>2024-10-15T08:32:30.000Z</time>
      </trkpt>
      <trkpt lat="45.10425" lon="5.98449">
        <ele>1983.4000244141</ele>
        <time>2024-10-15T08:32:31.000Z</time>
      </trkpt>
      <trkpt lat="45.10425" lon="5.98449">
        <ele>1983.5999755859</ele>
        <time>2024-10-15T08:32:32.000Z</time>
      </trkpt>
      <trkpt lat="45.10425" lon="5.98449">
        <ele>1983.4000244141</ele>
        <time>2024-10-15T08:32:33.000Z</time>
      </trkpt>
      <trkpt lat="45.10425" lon="5.98449">
        <ele>1983.4000244141</ele>
        <time>2024-10-15T08:32:34.000Z</time>
      </trkpt>
      <trkpt lat="45.10425" lon="5.98449">
        <ele>1983.4000244141</ele>
        <time>2024-10-15T08:32:35.000Z</time>
      </trkpt>
      <trkpt lat="45.10425" lon="5.98449">
        <ele>1983.4000244141</ele>
        <time>2024-10-15T08:32:36.000Z</time>
      </trkpt>
      <trkpt lat="45.10425" lon="5.98449">
        <ele>1983.5999755859</ele>
        <time>2024-10-15T08:32:37.000Z</time>
      </trkpt>
      <trkpt lat="45.10424" lon="5.98449">
        <ele>1983.5999755859</ele>
        <time>2024-10-15T08:32:38.000Z</time>
      </trkpt>
      <trkpt lat="45.10424" lon="5.98449">
        <ele>1983.5999755859</ele>
        <time>2024-10-15T08:32:39.000Z</time>
      </trkpt>
      <trkpt lat="45.10424" lon="5.98449">
        <ele>1983.5999755859</ele>
        <time>2024-10-15T08:32:40.000Z</time>
      </trkpt>
      <trkpt lat="45.10424" lon="5.98449">
        <ele>1984</ele>
        <time>2024-10-15T08:32:41.000Z</time>
      </trkpt>
      <trkpt lat="45.10424" lon="5.98449">
        <ele>1984</ele>
        <time>2024-10-15T08:32:42.000Z</time>
      </trkpt>
      <trkpt lat="45.10424" lon="5.98449">
        <ele>1984</ele>
        <time>2024-10-15T08:32:43.000Z</time>
      </trkpt>
      <trkpt lat="45.10424" lon="5.98449">
        <ele>1984</ele>
        <time>2024-10-15T08:32:44.000Z</time>
      </trkpt>
      <trkpt lat="45.10424" lon="5.98449">
        <ele>1984</ele>
        <time>2024-10-15T08:32:45.000Z</time>
      </trkpt>
      <trkpt lat="45.10424" lon="5.98449">
        <ele>1984</ele>
        <time>2024-10-15T08:32:46.000Z</time>
      </trkpt>
      <trkpt lat="45.10424" lon="5.98449">
        <ele>1984</ele>
        <time>2024-10-15T08:32:47.000Z</time>
      </trkpt>
      <trkpt lat="45.10424" lon="5.98449">
        <ele>1983.8000488281</ele>
        <time>2024-10-15T08:32:48.000Z</time>
      </trkpt>
      <trkpt lat="45.10424" lon="5.98449">
        <ele>1983.8000488281</ele>
        <time>2024-10-15T08:32:49.000Z</time>
      </trkpt>
      <trkpt lat="45.10424" lon="5.98449">
        <ele>1983.8000488281</ele>
        <time>2024-10-15T08:32:50.000Z</time>
      </trkpt>
      <trkpt lat="45.10424" lon="5.98449">
        <ele>1983.8000488281</ele>
        <time>2024-10-15T08:32:51.000Z</time>
      </trkpt>
      <trkpt lat="45.10424" lon="5.98449">
        <ele>1983.8000488281</ele>
        <time>2024-10-15T08:32:52.000Z</time>
      </trkpt>
      <trkpt lat="45.10424" lon="5.98449">
        <ele>1983.8000488281</ele>
        <time>2024-10-15T08:32:53.000Z</time>
      </trkpt>
      <trkpt lat="45.10424" lon="5.98449">
        <ele>1983.8000488281</ele>
        <time>2024-10-15T08:32:54.000Z</time>
      </trkpt>
      <trkpt lat="45.10424" lon="5.98449">
        <ele>1983.5999755859</ele>
        <time>2024-10-15T08:32:55.000Z</time>
      </trkpt>
      <trkpt lat="45.10424" lon="5.98449">
        <ele>1983.5999755859</ele>
        <time>2024-10-15T08:32:56.000Z</time>
      </trkpt>
      <trkpt lat="45.10424" lon="5.98449">
        <ele>1983.5999755859</ele>
        <time>2024-10-15T08:32:57.000Z</time>
      </trkpt>
      <trkpt lat="45.10424" lon="5.98449">
        <ele>1983.5999755859</ele>
        <time>2024-10-15T08:32:58.000Z</time>
      </trkpt>
      <trkpt lat="45.10424" lon="5.98449">
        <ele>1983.5999755859</ele>
        <time>2024-10-15T08:32:59.000Z</time>
      </trkpt>
      <trkpt lat="45.10424" lon="5.98449">
        <ele>1983.4000244141</ele>
        <time>2024-10-15T08:33:00.000Z</time>
      </trkpt>
      <trkpt lat="45.10424" lon="5.98449">
        <ele>1983.4000244141</ele>
        <time>2024-10-15T08:33:01.000Z</time>
      </trkpt>
      <trkpt lat="45.10424" lon="5.98449">
        <ele>1983.4000244141</ele>
        <time>2024-10-15T08:33:02.000Z</time>
      </trkpt>
      <trkpt lat="45.10424" lon="5.98449">
        <ele>1983.4000244141</ele>
        <time>2024-10-15T08:33:03.000Z</time>
      </trkpt>
      <trkpt lat="45.10424" lon="5.98449">
        <ele>1983.4000244141</ele>
        <time>2024-10-15T08:33:04.000Z</time>
      </trkpt>
      <trkpt lat="45.10424" lon="5.98449">
        <ele>1983.4000244141</ele>
        <time>2024-10-15T08:33:05.000Z</time>
      </trkpt>
      <trkpt lat="45.10424" lon="5.98449">
        <ele>1983.4000244141</ele>
        <time>2024-10-15T08:33:06.000Z</time>
      </trkpt>
      <trkpt lat="45.10424" lon="5.98449">
        <ele>1983.4000244141</ele>
        <time>2024-10-15T08:33:07.000Z</time>
      </trkpt>
      <trkpt lat="45.10424" lon="5.98448">
        <ele>1983.4000244141</ele>
        <time>2024-10-15T08:33:08.000Z</time>
      </trkpt>
      <trkpt lat="45.10424" lon="5.98448">
        <ele>1983.8000488281</ele>
        <time>2024-10-15T08:33:09.000Z</time>
      </trkpt>
      <trkpt lat="45.10424" lon="5.98448">
        <ele>1984</ele>
        <time>2024-10-15T08:33:10.000Z</time>
      </trkpt>
      <trkpt lat="45.10424" lon="5.98448">
        <ele>1984.4000244141</ele>
        <time>2024-10-15T08:33:11.000Z</time>
      </trkpt>
      <trkpt lat="45.10424" lon="5.98448">
        <ele>1984.5999755859</ele>
        <time>2024-10-15T08:33:12.000Z</time>
      </trkpt>
      <trkpt lat="45.10424" lon="5.98448">
        <ele>1984.5999755859</ele>
        <time>2024-10-15T08:33:13.000Z</time>
      </trkpt>
      <trkpt lat="45.10424" lon="5.98448">
        <ele>1984.8000488281</ele>
        <time>2024-10-15T08:33:14.000Z</time>
      </trkpt>
      <trkpt lat="45.10424" lon="5.98448">
        <ele>1985</ele>
        <time>2024-10-15T08:33:15.000Z</time>
      </trkpt>
      <trkpt lat="45.10424" lon="5.98448">
        <ele>1985.1999511719</ele>
        <time>2024-10-15T08:33:16.000Z</time>
      </trkpt>
      <trkpt lat="45.10424" lon="5.98448">
        <ele>1985.4000244141</ele>
        <time>2024-10-15T08:33:17.000Z</time>
      </trkpt>
      <trkpt lat="45.10424" lon="5.98448">
        <ele>1985.5999755859</ele>
        <time>2024-10-15T08:33:18.000Z</time>
      </trkpt>
      <trkpt lat="45.10424" lon="5.98448">
        <ele>1985.5999755859</ele>
        <time>2024-10-15T08:33:19.000Z</time>
      </trkpt>
      <trkpt lat="45.10424" lon="5.98448">
        <ele>1985.8000488281</ele>
        <time>2024-10-15T08:33:20.000Z</time>
      </trkpt>
      <trkpt lat="45.10424" lon="5.98448">
        <ele>1985.8000488281</ele>
        <time>2024-10-15T08:33:21.000Z</time>
      </trkpt>
      <trkpt lat="45.10424" lon="5.98448">
        <ele>1985.8000488281</ele>
        <time>2024-10-15T08:33:22.000Z</time>
      </trkpt>
      <trkpt lat="45.10424" lon="5.98448">
        <ele>1985.8000488281</ele>
        <time>2024-10-15T08:33:23.000Z</time>
      </trkpt>
      <trkpt lat="45.10425" lon="5.98447">
        <ele>1985.8000488281</ele>
        <time>2024-10-15T08:33:24.000Z</time>
      </trkpt>
      <trkpt lat="45.10425" lon="5.98447">
        <ele>1985.8000488281</ele>
        <time>2024-10-15T08:33:25.000Z</time>
      </trkpt>
      <trkpt lat="45.10425" lon="5.98447">
        <ele>1985.8000488281</ele>
        <time>2024-10-15T08:33:26.000Z</time>
      </trkpt>
      <trkpt lat="45.10425" lon="5.98447">
        <ele>1985.8000488281</ele>
        <time>2024-10-15T08:33:27.000Z</time>
      </trkpt>
      <trkpt lat="45.10425" lon="5.98447">
        <ele>1985.5999755859</ele>
        <time>2024-10-15T08:33:28.000Z</time>
      </trkpt>
      <trkpt lat="45.10425" lon="5.98447">
        <ele>1985.5999755859</ele>
        <time>2024-10-15T08:33:29.000Z</time>
      </trkpt>
      <trkpt lat="45.10425" lon="5.98447">
        <ele>1985.5999755859</ele>
        <time>2024-10-15T08:33:30.000Z</time>
      </trkpt>
      <trkpt lat="45.10425" lon="5.98447">
        <ele>1985.5999755859</ele>
        <time>2024-10-15T08:33:31.000Z</time>
      </trkpt>
      <trkpt lat="45.10426" lon="5.98447">
        <ele>1985.5999755859</ele>
        <time>2024-10-15T08:33:32.000Z</time>
      </trkpt>
      <trkpt lat="45.10426" lon="5.98447">
        <ele>1985.5999755859</ele>
        <time>2024-10-15T08:33:33.000Z</time>
      </trkpt>
      <trkpt lat="45.10426" lon="5.98447">
        <ele>1985.5999755859</ele>
        <time>2024-10-15T08:33:34.000Z</time>
      </trkpt>
      <trkpt lat="45.10426" lon="5.98447">
        <ele>1985.5999755859</ele>
        <time>2024-10-15T08:33:35.000Z</time>
      </trkpt>
      <trkpt lat="45.10426" lon="5.98447">
        <ele>1985.5999755859</ele>
        <time>2024-10-15T08:33:36.000Z</time>
      </trkpt>
      <trkpt lat="45.10426" lon="5.98447">
        <ele>1985.5999755859</ele>
        <time>2024-10-15T08:33:37.000Z</time>
      </trkpt>
      <trkpt lat="45.10426" lon="5.98447">
        <ele>1985.4000244141</ele>
        <time>2024-10-15T08:33:38.000Z</time>
      </trkpt>
      <trkpt lat="45.10427" lon="5.98447">
        <ele>1985.4000244141</ele>
        <time>2024-10-15T08:33:39.000Z</time>
      </trkpt>
      <trkpt lat="45.10427" lon="5.98447">
        <ele>1985.4000244141</ele>
        <time>2024-10-15T08:33:40.000Z</time>
      </trkpt>
      <trkpt lat="45.10427" lon="5.98447">
        <ele>1985.4000244141</ele>
        <time>2024-10-15T08:33:41.000Z</time>
      </trkpt>
      <trkpt lat="45.10427" lon="5.98447">
        <ele>1985.4000244141</ele>
        <time>2024-10-15T08:33:42.000Z</time>
      </trkpt>
      <trkpt lat="45.10427" lon="5.98447">
        <ele>1985.5999755859</ele>
        <time>2024-10-15T08:33:43.000Z</time>
      </trkpt>
      <trkpt lat="45.10427" lon="5.98447">
        <ele>1985.8000488281</ele>
        <time>2024-10-15T08:33:44.000Z</time>
      </trkpt>
      <trkpt lat="45.10427" lon="5.98447">
        <ele>1985.8000488281</ele>
        <time>2024-10-15T08:33:45.000Z</time>
      </trkpt>
      <trkpt lat="45.10427" lon="5.98447">
        <ele>1986</ele>
        <time>2024-10-15T08:33:46.000Z</time>
      </trkpt>
      <trkpt lat="45.10427" lon="5.98447">
        <ele>1986.1999511719</ele>
        <time>2024-10-15T08:33:47.000Z</time>
      </trkpt>
      <trkpt lat="45.10427" lon="5.98447">
        <ele>1986.4000244141</ele>
        <time>2024-10-15T08:33:48.000Z</time>
      </trkpt>
      <trkpt lat="45.10427" lon="5.98447">
        <ele>1986.5999755859</ele>
        <time>2024-10-15T08:33:49.000Z</time>
      </trkpt>
      <trkpt lat="45.10427" lon="5.98447">
        <ele>1986.8000488281</ele>
        <time>2024-10-15T08:33:50.000Z</time>
      </trkpt>
      <trkpt lat="45.10427" lon="5.98447">
        <ele>1986.8000488281</ele>
        <time>2024-10-15T08:33:51.000Z</time>
      </trkpt>
      <trkpt lat="45.10427" lon="5.98447">
        <ele>1987</ele>
        <time>2024-10-15T08:33:52.000Z</time>
      </trkpt>
      <trkpt lat="45.10427" lon="5.98447">
        <ele>1987</ele>
        <time>2024-10-15T08:33:53.000Z</time>
      </trkpt>
      <trkpt lat="45.10427" lon="5.98447">
        <ele>1987</ele>
        <time>2024-10-15T08:33:54.000Z</time>
      </trkpt>
      <trkpt lat="45.10427" lon="5.98447">
        <ele>1987.1999511719</ele>
        <time>2024-10-15T08:33:55.000Z</time>
      </trkpt>
      <trkpt lat="45.10427" lon="5.98446">
        <ele>1987.4000244141</ele>
        <time>2024-10-15T08:33:56.000Z</time>
      </trkpt>
      <trkpt lat="45.10427" lon="5.98446">
        <ele>1987.4000244141</ele>
        <time>2024-10-15T08:33:57.000Z</time>
      </trkpt>
      <trkpt lat="45.10427" lon="5.98446">
        <ele>1987.4000244141</ele>
        <time>2024-10-15T08:33:58.000Z</time>
      </trkpt>
      <trkpt lat="45.10427" lon="5.98446">
        <ele>1987.5999755859</ele>
        <time>2024-10-15T08:33:59.000Z</time>
      </trkpt>
      <trkpt lat="45.10427" lon="5.98446">
        <ele>1987.8000488281</ele>
        <time>2024-10-15T08:34:00.000Z</time>
      </trkpt>
      <trkpt lat="45.10427" lon="5.98446">
        <ele>1988</ele>
        <time>2024-10-15T08:34:01.000Z</time>
      </trkpt>
      <trkpt lat="45.10427" lon="5.98446">
        <ele>1988</ele>
        <time>2024-10-15T08:34:02.000Z</time>
      </trkpt>
      <trkpt lat="45.10427" lon="5.98446">
        <ele>1988</ele>
        <time>2024-10-15T08:34:03.000Z</time>
      </trkpt>
      <trkpt lat="45.10428" lon="5.98446">
        <ele>1987.8000488281</ele>
        <time>2024-10-15T08:34:04.000Z</time>
      </trkpt>
      <trkpt lat="45.10428" lon="5.98446">
        <ele>1987.8000488281</ele>
        <time>2024-10-15T08:34:05.000Z</time>
      </trkpt>
      <trkpt lat="45.10428" lon="5.98446">
        <ele>1987.8000488281</ele>
        <time>2024-10-15T08:34:06.000Z</time>
      </trkpt>
      <trkpt lat="45.10428" lon="5.98446">
        <ele>1987.8000488281</ele>
        <time>2024-10-15T08:34:07.000Z</time>
      </trkpt>
      <trkpt lat="45.10428" lon="5.98446">
        <ele>1987.8000488281</ele>
        <time>2024-10-15T08:34:08.000Z</time>
      </trkpt>
      <trkpt lat="45.10428" lon="5.98446">
        <ele>1987.8000488281</ele>
        <time>2024-10-15T08:34:09.000Z</time>
      </trkpt>
      <trkpt lat="45.10428" lon="5.98446">
        <ele>1987.8000488281</ele>
        <time>2024-10-15T08:34:10.000Z</time>
      </trkpt>
      <trkpt lat="45.10428" lon="5.98446">
        <ele>1987.8000488281</ele>
        <time>2024-10-15T08:34:11.000Z</time>
      </trkpt>
      <trkpt lat="45.10428" lon="5.98445">
        <ele>1987.8000488281</ele>
        <time>2024-10-15T08:34:12.000Z</time>
      </trkpt>
      <trkpt lat="45.10428" lon="5.98445">
        <ele>1987.8000488281</ele>
        <time>2024-10-15T08:34:13.000Z</time>
      </trkpt>
      <trkpt lat="45.10428" lon="5.98445">
        <ele>1988</ele>
        <time>2024-10-15T08:34:14.000Z</time>
      </trkpt>
      <trkpt lat="45.10428" lon="5.98445">
        <ele>1988.1999511719</ele>
        <time>2024-10-15T08:34:15.000Z</time>
      </trkpt>
      <trkpt lat="45.10428" lon="5.98445">
        <ele>1988.4000244141</ele>
        <time>2024-10-15T08:34:16.000Z</time>
      </trkpt>
      <trkpt lat="45.10428" lon="5.98445">
        <ele>1988.4000244141</ele>
        <time>2024-10-15T08:34:17.000Z</time>
      </trkpt>
      <trkpt lat="45.10428" lon="5.98445">
        <ele>1988.5999755859</ele>
        <time>2024-10-15T08:34:18.000Z</time>
      </trkpt>
      <trkpt lat="45.10428" lon="5.98445">
        <ele>1988.8000488281</ele>
        <time>2024-10-15T08:34:19.000Z</time>
      </trkpt>
      <trkpt lat="45.10428" lon="5.98445">
        <ele>1988.8000488281</ele>
        <time>2024-10-15T08:34:20.000Z</time>
      </trkpt>
      <trkpt lat="45.10428" lon="5.98445">
        <ele>1989.1999511719</ele>
        <time>2024-10-15T08:34:21.000Z</time>
      </trkpt>
      <trkpt lat="45.10428" lon="5.98445">
        <ele>1989.5999755859</ele>
        <time>2024-10-15T08:34:22.000Z</time>
      </trkpt>
      <trkpt lat="45.10428" lon="5.98445">
        <ele>1989.8000488281</ele>
        <time>2024-10-15T08:34:23.000Z</time>
      </trkpt>
      <trkpt lat="45.10428" lon="5.98445">
        <ele>1990</ele>
        <time>2024-10-15T08:34:24.000Z</time>
      </trkpt>
      <trkpt lat="45.10428" lon="5.98445">
        <ele>1990</ele>
        <time>2024-10-15T08:34:25.000Z</time>
      </trkpt>
      <trkpt lat="45.10428" lon="5.98445">
        <ele>1990.1999511719</ele>
        <time>2024-10-15T08:34:26.000Z</time>
      </trkpt>
      <trkpt lat="45.10428" lon="5.98445">
        <ele>1990.5999755859</ele>
        <time>2024-10-15T08:34:27.000Z</time>
      </trkpt>
      <trkpt lat="45.10428" lon="5.98445">
        <ele>1991</ele>
        <time>2024-10-15T08:34:28.000Z</time>
      </trkpt>
      <trkpt lat="45.10429" lon="5.98445">
        <ele>1991.1999511719</ele>
        <time>2024-10-15T08:34:29.000Z</time>
      </trkpt>
      <trkpt lat="45.10429" lon="5.98445">
        <ele>1991.1999511719</ele>
        <time>2024-10-15T08:34:30.000Z</time>
      </trkpt>
      <trkpt lat="45.10429" lon="5.98444">
        <ele>1991.1999511719</ele>
        <time>2024-10-15T08:34:31.000Z</time>
      </trkpt>
      <trkpt lat="45.10429" lon="5.98444">
        <ele>1991.1999511719</ele>
        <time>2024-10-15T08:34:32.000Z</time>
      </trkpt>
      <trkpt lat="45.10429" lon="5.98444">
        <ele>1991.1999511719</ele>
        <time>2024-10-15T08:34:33.000Z</time>
      </trkpt>
      <trkpt lat="45.10429" lon="5.98443">
        <ele>1991.1999511719</ele>
        <time>2024-10-15T08:34:34.000Z</time>
      </trkpt>
      <trkpt lat="45.10429" lon="5.98443">
        <ele>1991.1999511719</ele>
        <time>2024-10-15T08:34:35.000Z</time>
      </trkpt>
      <trkpt lat="45.10429" lon="5.98443">
        <ele>1991.4000244141</ele>
        <time>2024-10-15T08:34:36.000Z</time>
      </trkpt>
      <trkpt lat="45.10429" lon="5.98443">
        <ele>1991.5999755859</ele>
        <time>2024-10-15T08:34:37.000Z</time>
      </trkpt>
      <trkpt lat="45.10429" lon="5.98442">
        <ele>1992</ele>
        <time>2024-10-15T08:34:38.000Z</time>
      </trkpt>
      <trkpt lat="45.10429" lon="5.98442">
        <ele>1992.1999511719</ele>
        <time>2024-10-15T08:34:39.000Z</time>
      </trkpt>
      <trkpt lat="45.10429" lon="5.98442">
        <ele>1992.1999511719</ele>
        <time>2024-10-15T08:34:40.000Z</time>
      </trkpt>
      <trkpt lat="45.10429" lon="5.98442">
        <ele>1992.4000244141</ele>
        <time>2024-10-15T08:34:41.000Z</time>
      </trkpt>
      <trkpt lat="45.10429" lon="5.98442">
        <ele>1992.4000244141</ele>
        <time>2024-10-15T08:34:42.000Z</time>
      </trkpt>
      <trkpt lat="45.10429" lon="5.98441">
        <ele>1993</ele>
        <time>2024-10-15T08:34:43.000Z</time>
      </trkpt>
      <trkpt lat="45.10429" lon="5.98441">
        <ele>1993.4000244141</ele>
        <time>2024-10-15T08:34:44.000Z</time>
      </trkpt>
      <trkpt lat="45.10429" lon="5.98441">
        <ele>1993.4000244141</ele>
        <time>2024-10-15T08:34:45.000Z</time>
      </trkpt>
      <trkpt lat="45.10429" lon="5.98441">
        <ele>1993.4000244141</ele>
        <time>2024-10-15T08:34:46.000Z</time>
      </trkpt>
      <trkpt lat="45.10428" lon="5.98441">
        <ele>1993.5999755859</ele>
        <time>2024-10-15T08:34:47.000Z</time>
      </trkpt>
      <trkpt lat="45.10428" lon="5.9844">
        <ele>1993.8000488281</ele>
        <time>2024-10-15T08:34:48.000Z</time>
      </trkpt>
      <trkpt lat="45.10428" lon="5.9844">
        <ele>1994</ele>
        <time>2024-10-15T08:34:49.000Z</time>
      </trkpt>
      <trkpt lat="45.10428" lon="5.9844">
        <ele>1994</ele>
        <time>2024-10-15T08:34:50.000Z</time>
      </trkpt>
      <trkpt lat="45.10428" lon="5.98439">
        <ele>1994</ele>
        <time>2024-10-15T08:34:51.000Z</time>
      </trkpt>
      <trkpt lat="45.10428" lon="5.98439">
        <ele>1994.1999511719</ele>
        <time>2024-10-15T08:34:52.000Z</time>
      </trkpt>
      <trkpt lat="45.10428" lon="5.98439">
        <ele>1994.4000244141</ele>
        <time>2024-10-15T08:34:53.000Z</time>
      </trkpt>
      <trkpt lat="45.10428" lon="5.98439">
        <ele>1994.5999755859</ele>
        <time>2024-10-15T08:34:54.000Z</time>
      </trkpt>
      <trkpt lat="45.10428" lon="5.98439">
        <ele>1994.5999755859</ele>
        <time>2024-10-15T08:34:55.000Z</time>
      </trkpt>
      <trkpt lat="45.10428" lon="5.98439">
        <ele>1994.8000488281</ele>
        <time>2024-10-15T08:34:56.000Z</time>
      </trkpt>
      <trkpt lat="45.10428" lon="5.98439">
        <ele>1994.8000488281</ele>
        <time>2024-10-15T08:34:57.000Z</time>
      </trkpt>
      <trkpt lat="45.10428" lon="5.98439">
        <ele>1994.8000488281</ele>
        <time>2024-10-15T08:34:58.000Z</time>
      </trkpt>
      <trkpt lat="45.10427" lon="5.98439">
        <ele>1994.8000488281</ele>
        <time>2024-10-15T08:34:59.000Z</time>
      </trkpt>
      <trkpt lat="45.10427" lon="5.98439">
        <ele>1995.1999511719</ele>
        <time>2024-10-15T08:35:00.000Z</time>
      </trkpt>
      <trkpt lat="45.10427" lon="5.98439">
        <ele>1995.4000244141</ele>
        <time>2024-10-15T08:35:01.000Z</time>
      </trkpt>
      <trkpt lat="45.10427" lon="5.98439">
        <ele>1995.4000244141</ele>
        <time>2024-10-15T08:35:02.000Z</time>
      </trkpt>
      <trkpt lat="45.10427" lon="5.98439">
        <ele>1995.4000244141</ele>
        <time>2024-10-15T08:35:03.000Z</time>
      </trkpt>
      <trkpt lat="45.10427" lon="5.98439">
        <ele>1995.1999511719</ele>
        <time>2024-10-15T08:35:04.000Z</time>
      </trkpt>
      <trkpt lat="45.10427" lon="5.98439">
        <ele>1995.1999511719</ele>
        <time>2024-10-15T08:35:05.000Z</time>
      </trkpt>
      <trkpt lat="45.10427" lon="5.98439">
        <ele>1995</ele>
        <time>2024-10-15T08:35:06.000Z</time>
      </trkpt>
      <trkpt lat="45.10427" lon="5.98439">
        <ele>1995</ele>
        <time>2024-10-15T08:35:07.000Z</time>
      </trkpt>
      <trkpt lat="45.10427" lon="5.98439">
        <ele>1995</ele>
        <time>2024-10-15T08:35:08.000Z</time>
      </trkpt>
      <trkpt lat="45.10427" lon="5.98439">
        <ele>1995</ele>
        <time>2024-10-15T08:35:09.000Z</time>
      </trkpt>
      <trkpt lat="45.10427" lon="5.98439">
        <ele>1995</ele>
        <time>2024-10-15T08:35:10.000Z</time>
      </trkpt>
      <trkpt lat="45.10427" lon="5.98439">
        <ele>1995</ele>
        <time>2024-10-15T08:35:11.000Z</time>
      </trkpt>
      <trkpt lat="45.10426" lon="5.98439">
        <ele>1995</ele>
        <time>2024-10-15T08:35:12.000Z</time>
      </trkpt>
      <trkpt lat="45.10426" lon="5.98439">
        <ele>1995</ele>
        <time>2024-10-15T08:35:13.000Z</time>
      </trkpt>
      <trkpt lat="45.10426" lon="5.98439">
        <ele>1995</ele>
        <time>2024-10-15T08:35:14.000Z</time>
      </trkpt>
      <trkpt lat="45.10426" lon="5.98439">
        <ele>1995</ele>
        <time>2024-10-15T08:35:15.000Z</time>
      </trkpt>
      <trkpt lat="45.10426" lon="5.98439">
        <ele>1995</ele>
        <time>2024-10-15T08:35:16.000Z</time>
      </trkpt>
      <trkpt lat="45.10426" lon="5.98439">
        <ele>1995</ele>
        <time>2024-10-15T08:35:17.000Z</time>
      </trkpt>
      <trkpt lat="45.10426" lon="5.98439">
        <ele>1995</ele>
        <time>2024-10-15T08:35:18.000Z</time>
      </trkpt>
      <trkpt lat="45.10426" lon="5.98439">
        <ele>1995</ele>
        <time>2024-10-15T08:35:19.000Z</time>
      </trkpt>
      <trkpt lat="45.10426" lon="5.98439">
        <ele>1995</ele>
        <time>2024-10-15T08:35:20.000Z</time>
      </trkpt>
      <trkpt lat="45.10426" lon="5.98439">
        <ele>1995.1999511719</ele>
        <time>2024-10-15T08:35:21.000Z</time>
      </trkpt>
      <trkpt lat="45.10426" lon="5.98439">
        <ele>1995.1999511719</ele>
        <time>2024-10-15T08:35:22.000Z</time>
      </trkpt>
      <trkpt lat="45.10426" lon="5.98439">
        <ele>1995.1999511719</ele>
        <time>2024-10-15T08:35:23.000Z</time>
      </trkpt>
      <trkpt lat="45.10426" lon="5.98439">
        <ele>1995.1999511719</ele>
        <time>2024-10-15T08:35:24.000Z</time>
      </trkpt>
      <trkpt lat="45.10426" lon="5.98439">
        <ele>1995.1999511719</ele>
        <time>2024-10-15T08:35:25.000Z</time>
      </trkpt>
      <trkpt lat="45.10426" lon="5.98439">
        <ele>1995.1999511719</ele>
        <time>2024-10-15T08:35:26.000Z</time>
      </trkpt>
      <trkpt lat="45.10426" lon="5.98439">
        <ele>1995.1999511719</ele>
        <time>2024-10-15T08:35:27.000Z</time>
      </trkpt>
      <trkpt lat="45.10426" lon="5.98439">
        <ele>1995.1999511719</ele>
        <time>2024-10-15T08:35:28.000Z</time>
      </trkpt>
      <trkpt lat="45.10426" lon="5.98439">
        <ele>1995.1999511719</ele>
        <time>2024-10-15T08:35:29.000Z</time>
      </trkpt>
      <trkpt lat="45.10426" lon="5.98439">
        <ele>1995.4000244141</ele>
        <time>2024-10-15T08:35:30.000Z</time>
      </trkpt>
      <trkpt lat="45.10426" lon="5.98439">
        <ele>1995.4000244141</ele>
        <time>2024-10-15T08:35:31.000Z</time>
      </trkpt>
      <trkpt lat="45.10426" lon="5.98439">
        <ele>1995.4000244141</ele>
        <time>2024-10-15T08:35:32.000Z</time>
      </trkpt>
      <trkpt lat="45.10426" lon="5.98439">
        <ele>1995.4000244141</ele>
        <time>2024-10-15T08:35:33.000Z</time>
      </trkpt>
      <trkpt lat="45.10426" lon="5.98439">
        <ele>1995.4000244141</ele>
        <time>2024-10-15T08:35:34.000Z</time>
      </trkpt>
      <trkpt lat="45.10426" lon="5.98439">
        <ele>1995.4000244141</ele>
        <time>2024-10-15T08:35:35.000Z</time>
      </trkpt>
      <trkpt lat="45.10426" lon="5.98439">
        <ele>1995.4000244141</ele>
        <time>2024-10-15T08:35:36.000Z</time>
      </trkpt>
      <trkpt lat="45.10426" lon="5.98439">
        <ele>1995.4000244141</ele>
        <time>2024-10-15T08:35:37.000Z</time>
      </trkpt>
      <trkpt lat="45.10426" lon="5.98439">
        <ele>1995.5999755859</ele>
        <time>2024-10-15T08:35:38.000Z</time>
      </trkpt>
      <trkpt lat="45.10426" lon="5.98439">
        <ele>1995.5999755859</ele>
        <time>2024-10-15T08:35:39.000Z</time>
      </trkpt>
      <trkpt lat="45.10426" lon="5.98439">
        <ele>1995.5999755859</ele>
        <time>2024-10-15T08:35:40.000Z</time>
      </trkpt>
      <trkpt lat="45.10426" lon="5.98439">
        <ele>1995.5999755859</ele>
        <time>2024-10-15T08:35:41.000Z</time>
      </trkpt>
      <trkpt lat="45.10426" lon="5.98439">
        <ele>1995.5999755859</ele>
        <time>2024-10-15T08:35:42.000Z</time>
      </trkpt>
      <trkpt lat="45.10426" lon="5.98439">
        <ele>1995.5999755859</ele>
        <time>2024-10-15T08:35:43.000Z</time>
      </trkpt>
      <trkpt lat="45.10426" lon="5.98439">
        <ele>1995.5999755859</ele>
        <time>2024-10-15T08:35:44.000Z</time>
      </trkpt>
      <trkpt lat="45.10426" lon="5.98439">
        <ele>1995.5999755859</ele>
        <time>2024-10-15T08:35:45.000Z</time>
      </trkpt>
      <trkpt lat="45.10425" lon="5.98439">
        <ele>1995.5999755859</ele>
        <time>2024-10-15T08:35:46.000Z</time>
      </trkpt>
      <trkpt lat="45.10425" lon="5.98439">
        <ele>1995.8000488281</ele>
        <time>2024-10-15T08:35:47.000Z</time>
      </trkpt>
      <trkpt lat="45.10425" lon="5.98438">
        <ele>1995.8000488281</ele>
        <time>2024-10-15T08:35:48.000Z</time>
      </trkpt>
      <trkpt lat="45.10425" lon="5.98438">
        <ele>1995.8000488281</ele>
        <time>2024-10-15T08:35:49.000Z</time>
      </trkpt>
      <trkpt lat="45.10425" lon="5.98438">
        <ele>1995.8000488281</ele>
        <time>2024-10-15T08:35:50.000Z</time>
      </trkpt>
      <trkpt lat="45.10425" lon="5.98438">
        <ele>1995.8000488281</ele>
        <time>2024-10-15T08:35:51.000Z</time>
      </trkpt>
      <trkpt lat="45.10425" lon="5.98438">
        <ele>1995.8000488281</ele>
        <time>2024-10-15T08:35:52.000Z</time>
      </trkpt>
      <trkpt lat="45.10425" lon="5.98438">
        <ele>1995.8000488281</ele>
        <time>2024-10-15T08:35:53.000Z</time>
      </trkpt>
      <trkpt lat="45.10425" lon="5.98438">
        <ele>1995.8000488281</ele>
        <time>2024-10-15T08:35:54.000Z</time>
      </trkpt>
      <trkpt lat="45.10425" lon="5.98438">
        <ele>1996</ele>
        <time>2024-10-15T08:35:55.000Z</time>
      </trkpt>
      <trkpt lat="45.10425" lon="5.98438">
        <ele>1996</ele>
        <time>2024-10-15T08:35:56.000Z</time>
      </trkpt>
      <trkpt lat="45.10425" lon="5.98438">
        <ele>1996</ele>
        <time>2024-10-15T08:35:57.000Z</time>
      </trkpt>
      <trkpt lat="45.10425" lon="5.98438">
        <ele>1996</ele>
        <time>2024-10-15T08:35:58.000Z</time>
      </trkpt>
      <trkpt lat="45.10425" lon="5.98438">
        <ele>1996.1999511719</ele>
        <time>2024-10-15T08:35:59.000Z</time>
      </trkpt>
      <trkpt lat="45.10425" lon="5.98438">
        <ele>1996.1999511719</ele>
        <time>2024-10-15T08:36:00.000Z</time>
      </trkpt>
      <trkpt lat="45.10425" lon="5.98438">
        <ele>1996.1999511719</ele>
        <time>2024-10-15T08:36:01.000Z</time>
      </trkpt>
      <trkpt lat="45.10425" lon="5.98438">
        <ele>1996.1999511719</ele>
        <time>2024-10-15T08:36:02.000Z</time>
      </trkpt>
      <trkpt lat="45.10425" lon="5.98437">
        <ele>1996</ele>
        <time>2024-10-15T08:36:03.000Z</time>
      </trkpt>
      <trkpt lat="45.10424" lon="5.98437">
        <ele>1996</ele>
        <time>2024-10-15T08:36:04.000Z</time>
      </trkpt>
      <trkpt lat="45.10424" lon="5.98437">
        <ele>1996</ele>
        <time>2024-10-15T08:36:05.000Z</time>
      </trkpt>
      <trkpt lat="45.10424" lon="5.98437">
        <ele>1996</ele>
        <time>2024-10-15T08:36:06.000Z</time>
      </trkpt>
      <trkpt lat="45.10424" lon="5.98436">
        <ele>1996</ele>
        <time>2024-10-15T08:36:07.000Z</time>
      </trkpt>
      <trkpt lat="45.10424" lon="5.98436">
        <ele>1996</ele>
        <time>2024-10-15T08:36:08.000Z</time>
      </trkpt>
      <trkpt lat="45.10424" lon="5.98436">
        <ele>1996</ele>
        <time>2024-10-15T08:36:09.000Z</time>
      </trkpt>
      <trkpt lat="45.10424" lon="5.98436">
        <ele>1996</ele>
        <time>2024-10-15T08:36:10.000Z</time>
      </trkpt>
      <trkpt lat="45.10424" lon="5.98436">
        <ele>1996</ele>
        <time>2024-10-15T08:36:11.000Z</time>
      </trkpt>
      <trkpt lat="45.10424" lon="5.98436">
        <ele>1996</ele>
        <time>2024-10-15T08:36:12.000Z</time>
      </trkpt>
      <trkpt lat="45.10424" lon="5.98435">
        <ele>1996</ele>
        <time>2024-10-15T08:36:13.000Z</time>
      </trkpt>
      <trkpt lat="45.10424" lon="5.98435">
        <ele>1996</ele>
        <time>2024-10-15T08:36:14.000Z</time>
      </trkpt>
      <trkpt lat="45.10424" lon="5.98435">
        <ele>1996</ele>
        <time>2024-10-15T08:36:15.000Z</time>
      </trkpt>
      <trkpt lat="45.10424" lon="5.98435">
        <ele>1996</ele>
        <time>2024-10-15T08:36:16.000Z</time>
      </trkpt>
      <trkpt lat="45.10424" lon="5.98435">
        <ele>1995.8000488281</ele>
        <time>2024-10-15T08:36:17.000Z</time>
      </trkpt>
      <trkpt lat="45.10424" lon="5.98435">
        <ele>1995.8000488281</ele>
        <time>2024-10-15T08:36:18.000Z</time>
      </trkpt>
      <trkpt lat="45.10424" lon="5.98435">
        <ele>1995.8000488281</ele>
        <time>2024-10-15T08:36:19.000Z</time>
      </trkpt>
      <trkpt lat="45.10424" lon="5.98435">
        <ele>1995.8000488281</ele>
        <time>2024-10-15T08:36:20.000Z</time>
      </trkpt>
      <trkpt lat="45.10423" lon="5.98435">
        <ele>1995.5999755859</ele>
        <time>2024-10-15T08:36:21.000Z</time>
      </trkpt>
      <trkpt lat="45.10423" lon="5.98435">
        <ele>1995.5999755859</ele>
        <time>2024-10-15T08:36:22.000Z</time>
      </trkpt>
      <trkpt lat="45.10423" lon="5.98435">
        <ele>1995.5999755859</ele>
        <time>2024-10-15T08:36:23.000Z</time>
      </trkpt>
      <trkpt lat="45.10423" lon="5.98435">
        <ele>1995.5999755859</ele>
        <time>2024-10-15T08:36:24.000Z</time>
      </trkpt>
      <trkpt lat="45.10423" lon="5.98435">
        <ele>1995.5999755859</ele>
        <time>2024-10-15T08:36:25.000Z</time>
      </trkpt>
      <trkpt lat="45.10423" lon="5.98434">
        <ele>1995.5999755859</ele>
        <time>2024-10-15T08:36:26.000Z</time>
      </trkpt>
      <trkpt lat="45.10422" lon="5.98432">
        <ele>1995.5999755859</ele>
        <time>2024-10-15T08:36:27.000Z</time>
      </trkpt>
      <trkpt lat="45.10422" lon="5.98431">
        <ele>1995.8000488281</ele>
        <time>2024-10-15T08:36:28.000Z</time>
      </trkpt>
      <trkpt lat="45.10421" lon="5.98431">
        <ele>1996</ele>
        <time>2024-10-15T08:36:29.000Z</time>
      </trkpt>
      <trkpt lat="45.1042" lon="5.9843">
        <ele>1996.1999511719</ele>
        <time>2024-10-15T08:36:30.000Z</time>
      </trkpt>
      <trkpt lat="45.1042" lon="5.98429">
        <ele>1996.1999511719</ele>
        <time>2024-10-15T08:36:31.000Z</time>
      </trkpt>
      <trkpt lat="45.10419" lon="5.98428">
        <ele>1996.1999511719</ele>
        <time>2024-10-15T08:36:32.000Z</time>
      </trkpt>
      <trkpt lat="45.10418" lon="5.98427">
        <ele>1996.1999511719</ele>
        <time>2024-10-15T08:36:33.000Z</time>
      </trkpt>
      <trkpt lat="45.10417" lon="5.98426">
        <ele>1996.1999511719</ele>
        <time>2024-10-15T08:36:34.000Z</time>
      </trkpt>
      <trkpt lat="45.10416" lon="5.98425">
        <ele>1996.1999511719</ele>
        <time>2024-10-15T08:36:35.000Z</time>
      </trkpt>
      <trkpt lat="45.10416" lon="5.98425">
        <ele>1996</ele>
        <time>2024-10-15T08:36:36.000Z</time>
      </trkpt>
      <trkpt lat="45.10415" lon="5.98425">
        <ele>1996</ele>
        <time>2024-10-15T08:36:37.000Z</time>
      </trkpt>
      <trkpt lat="45.10415" lon="5.98424">
        <ele>1996</ele>
        <time>2024-10-15T08:36:38.000Z</time>
      </trkpt>
      <trkpt lat="45.10414" lon="5.98423">
        <ele>1995.8000488281</ele>
        <time>2024-10-15T08:36:39.000Z</time>
      </trkpt>
      <trkpt lat="45.10414" lon="5.98423">
        <ele>1995.8000488281</ele>
        <time>2024-10-15T08:36:40.000Z</time>
      </trkpt>
      <trkpt lat="45.10414" lon="5.98422">
        <ele>1995.8000488281</ele>
        <time>2024-10-15T08:36:41.000Z</time>
      </trkpt>
      <trkpt lat="45.10414" lon="5.98421">
        <ele>1995.8000488281</ele>
        <time>2024-10-15T08:36:42.000Z</time>
      </trkpt>
      <trkpt lat="45.10414" lon="5.9842">
        <ele>1995.8000488281</ele>
        <time>2024-10-15T08:36:43.000Z</time>
      </trkpt>
      <trkpt lat="45.10413" lon="5.9842">
        <ele>1995.8000488281</ele>
        <time>2024-10-15T08:36:44.000Z</time>
      </trkpt>
      <trkpt lat="45.10413" lon="5.9842">
        <ele>1996</ele>
        <time>2024-10-15T08:36:45.000Z</time>
      </trkpt>
      <trkpt lat="45.10414" lon="5.9842">
        <ele>1996</ele>
        <time>2024-10-15T08:36:46.000Z</time>
      </trkpt>
      <trkpt lat="45.10414" lon="5.9842">
        <ele>1996.1999511719</ele>
        <time>2024-10-15T08:36:47.000Z</time>
      </trkpt>
      <trkpt lat="45.10413" lon="5.9842">
        <ele>1996.4000244141</ele>
        <time>2024-10-15T08:36:48.000Z</time>
      </trkpt>
      <trkpt lat="45.10412" lon="5.98421">
        <ele>1996.4000244141</ele>
        <time>2024-10-15T08:36:49.000Z</time>
      </trkpt>
      <trkpt lat="45.10411" lon="5.9842">
        <ele>1996.4000244141</ele>
        <time>2024-10-15T08:36:50.000Z</time>
      </trkpt>
      <trkpt lat="45.1041" lon="5.9842">
        <ele>1996.4000244141</ele>
        <time>2024-10-15T08:36:51.000Z</time>
      </trkpt>
      <trkpt lat="45.10411" lon="5.9842">
        <ele>1996.5999755859</ele>
        <time>2024-10-15T08:36:52.000Z</time>
      </trkpt>
      <trkpt lat="45.10411" lon="5.98419">
        <ele>1996.5999755859</ele>
        <time>2024-10-15T08:36:53.000Z</time>
      </trkpt>
      <trkpt lat="45.1041" lon="5.98418">
        <ele>1996.8000488281</ele>
        <time>2024-10-15T08:36:54.000Z</time>
      </trkpt>
      <trkpt lat="45.1041" lon="5.98418">
        <ele>1997</ele>
        <time>2024-10-15T08:36:55.000Z</time>
      </trkpt>
      <trkpt lat="45.1041" lon="5.98417">
        <ele>1997.1999511719</ele>
        <time>2024-10-15T08:36:56.000Z</time>
      </trkpt>
      <trkpt lat="45.1041" lon="5.98417">
        <ele>1997.4000244141</ele>
        <time>2024-10-15T08:36:57.000Z</time>
      </trkpt>
      <trkpt lat="45.1041" lon="5.98417">
        <ele>1997.5999755859</ele>
        <time>2024-10-15T08:36:58.000Z</time>
      </trkpt>
      <trkpt lat="45.1041" lon="5.98417">
        <ele>1997.8000488281</ele>
        <time>2024-10-15T08:36:59.000Z</time>
      </trkpt>
      <trkpt lat="45.1041" lon="5.98417">
        <ele>1998</ele>
        <time>2024-10-15T08:37:00.000Z</time>
      </trkpt>
      <trkpt lat="45.10409" lon="5.98417">
        <ele>1997.8000488281</ele>
        <time>2024-10-15T08:37:01.000Z</time>
      </trkpt>
      <trkpt lat="45.10409" lon="5.98416">
        <ele>1997.8000488281</ele>
        <time>2024-10-15T08:37:02.000Z</time>
      </trkpt>
      <trkpt lat="45.1041" lon="5.98416">
        <ele>1997.8000488281</ele>
        <time>2024-10-15T08:37:03.000Z</time>
      </trkpt>
      <trkpt lat="45.1041" lon="5.98416">
        <ele>1997.8000488281</ele>
        <time>2024-10-15T08:37:04.000Z</time>
      </trkpt>
      <trkpt lat="45.1041" lon="5.98414">
        <ele>1997.8000488281</ele>
        <time>2024-10-15T08:37:05.000Z</time>
      </trkpt>
      <trkpt lat="45.10409" lon="5.98414">
        <ele>1997.5999755859</ele>
        <time>2024-10-15T08:37:06.000Z</time>
      </trkpt>
      <trkpt lat="45.10409" lon="5.98415">
        <ele>1997.5999755859</ele>
        <time>2024-10-15T08:37:07.000Z</time>
      </trkpt>
      <trkpt lat="45.10409" lon="5.98415">
        <ele>1997.5999755859</ele>
        <time>2024-10-15T08:37:08.000Z</time>
      </trkpt>
      <trkpt lat="45.10409" lon="5.98415">
        <ele>1997.5999755859</ele>
        <time>2024-10-15T08:37:09.000Z</time>
      </trkpt>
      <trkpt lat="45.10409" lon="5.98415">
        <ele>1997.5999755859</ele>
        <time>2024-10-15T08:37:10.000Z</time>
      </trkpt>
      <trkpt lat="45.10409" lon="5.98415">
        <ele>1997.5999755859</ele>
        <time>2024-10-15T08:37:11.000Z</time>
      </trkpt>
      <trkpt lat="45.10409" lon="5.98415">
        <ele>1997.4000244141</ele>
        <time>2024-10-15T08:37:12.000Z</time>
      </trkpt>
      <trkpt lat="45.10409" lon="5.98415">
        <ele>1997.1999511719</ele>
        <time>2024-10-15T08:37:13.000Z</time>
      </trkpt>
      <trkpt lat="45.10409" lon="5.98415">
        <ele>1997</ele>
        <time>2024-10-15T08:37:14.000Z</time>
      </trkpt>
      <trkpt lat="45.10409" lon="5.98415">
        <ele>1997</ele>
        <time>2024-10-15T08:37:15.000Z</time>
      </trkpt>
      <trkpt lat="45.10409" lon="5.98415">
        <ele>1997</ele>
        <time>2024-10-15T08:37:16.000Z</time>
      </trkpt>
      <trkpt lat="45.10409" lon="5.98415">
        <ele>1997</ele>
        <time>2024-10-15T08:37:17.000Z</time>
      </trkpt>
      <trkpt lat="45.10409" lon="5.98415">
        <ele>1997</ele>
        <time>2024-10-15T08:37:18.000Z</time>
      </trkpt>
      <trkpt lat="45.10409" lon="5.98415">
        <ele>1996.8000488281</ele>
        <time>2024-10-15T08:37:19.000Z</time>
      </trkpt>
      <trkpt lat="45.10409" lon="5.98415">
        <ele>1996.5999755859</ele>
        <time>2024-10-15T08:37:20.000Z</time>
      </trkpt>
      <trkpt lat="45.10409" lon="5.98415">
        <ele>1996.1999511719</ele>
        <time>2024-10-15T08:37:21.000Z</time>
      </trkpt>
      <trkpt lat="45.10409" lon="5.98415">
        <ele>1996.1999511719</ele>
        <time>2024-10-15T08:37:22.000Z</time>
      </trkpt>
      <trkpt lat="45.10409" lon="5.98415">
        <ele>1996</ele>
        <time>2024-10-15T08:37:23.000Z</time>
      </trkpt>
      <trkpt lat="45.10409" lon="5.98415">
        <ele>1995.8000488281</ele>
        <time>2024-10-15T08:37:24.000Z</time>
      </trkpt>
      <trkpt lat="45.1041" lon="5.98415">
        <ele>1995.5999755859</ele>
        <time>2024-10-15T08:37:25.000Z</time>
      </trkpt>
      <trkpt lat="45.1041" lon="5.98414">
        <ele>1995.5999755859</ele>
        <time>2024-10-15T08:37:26.000Z</time>
      </trkpt>
      <trkpt lat="45.1041" lon="5.98414">
        <ele>1995.1999511719</ele>
        <time>2024-10-15T08:37:27.000Z</time>
      </trkpt>
      <trkpt lat="45.1041" lon="5.98414">
        <ele>1995</ele>
        <time>2024-10-15T08:37:28.000Z</time>
      </trkpt>
      <trkpt lat="45.1041" lon="5.98414">
        <ele>1995</ele>
        <time>2024-10-15T08:37:29.000Z</time>
      </trkpt>
      <trkpt lat="45.1041" lon="5.98414">
        <ele>1994.8000488281</ele>
        <time>2024-10-15T08:37:30.000Z</time>
      </trkpt>
      <trkpt lat="45.1041" lon="5.98414">
        <ele>1994.5999755859</ele>
        <time>2024-10-15T08:37:31.000Z</time>
      </trkpt>
      <trkpt lat="45.1041" lon="5.98414">
        <ele>1994.4000244141</ele>
        <time>2024-10-15T08:37:32.000Z</time>
      </trkpt>
      <trkpt lat="45.1041" lon="5.98414">
        <ele>1994.1999511719</ele>
        <time>2024-10-15T08:37:33.000Z</time>
      </trkpt>
      <trkpt lat="45.1041" lon="5.98414">
        <ele>1994</ele>
        <time>2024-10-15T08:37:34.000Z</time>
      </trkpt>
      <trkpt lat="45.1041" lon="5.98413">
        <ele>1993.8000488281</ele>
        <time>2024-10-15T08:37:35.000Z</time>
      </trkpt>
      <trkpt lat="45.1041" lon="5.98413">
        <ele>1993.8000488281</ele>
        <time>2024-10-15T08:37:36.000Z</time>
      </trkpt>
      <trkpt lat="45.1041" lon="5.98413">
        <ele>1993.5999755859</ele>
        <time>2024-10-15T08:37:37.000Z</time>
      </trkpt>
      <trkpt lat="45.1041" lon="5.98413">
        <ele>1993.4000244141</ele>
        <time>2024-10-15T08:37:38.000Z</time>
      </trkpt>
      <trkpt lat="45.1041" lon="5.98413">
        <ele>1993.4000244141</ele>
        <time>2024-10-15T08:37:39.000Z</time>
      </trkpt>
      <trkpt lat="45.10409" lon="5.9841">
        <ele>1993.4000244141</ele>
        <time>2024-10-15T08:37:40.000Z</time>
      </trkpt>
      <trkpt lat="45.10406" lon="5.98409">
        <ele>1993.4000244141</ele>
        <time>2024-10-15T08:37:41.000Z</time>
      </trkpt>
      <trkpt lat="45.10405" lon="5.98407">
        <ele>1993.5999755859</ele>
        <time>2024-10-15T08:37:42.000Z</time>
      </trkpt>
      <trkpt lat="45.10403" lon="5.98406">
        <ele>1993.8000488281</ele>
        <time>2024-10-15T08:37:43.000Z</time>
      </trkpt>
      <trkpt lat="45.10403" lon="5.98405">
        <ele>1994.1999511719</ele>
        <time>2024-10-15T08:37:44.000Z</time>
      </trkpt>
      <trkpt lat="45.10403" lon="5.98405">
        <ele>1994.5999755859</ele>
        <time>2024-10-15T08:37:45.000Z</time>
      </trkpt>
      <trkpt lat="45.10402" lon="5.98405">
        <ele>1994.8000488281</ele>
        <time>2024-10-15T08:37:46.000Z</time>
      </trkpt>
      <trkpt lat="45.10401" lon="5.98405">
        <ele>1995</ele>
        <time>2024-10-15T08:37:47.000Z</time>
      </trkpt>
      <trkpt lat="45.104" lon="5.98405">
        <ele>1995</ele>
        <time>2024-10-15T08:37:48.000Z</time>
      </trkpt>
      <trkpt lat="45.10399" lon="5.98405">
        <ele>1995.4000244141</ele>
        <time>2024-10-15T08:37:49.000Z</time>
      </trkpt>
      <trkpt lat="45.10401" lon="5.98405">
        <ele>1995.5999755859</ele>
        <time>2024-10-15T08:37:50.000Z</time>
      </trkpt>
      <trkpt lat="45.10401" lon="5.98406">
        <ele>1995.5999755859</ele>
        <time>2024-10-15T08:37:51.000Z</time>
      </trkpt>
      <trkpt lat="45.10401" lon="5.98406">
        <ele>1995.5999755859</ele>
        <time>2024-10-15T08:37:52.000Z</time>
      </trkpt>
      <trkpt lat="45.10401" lon="5.98406">
        <ele>1995.5999755859</ele>
        <time>2024-10-15T08:37:53.000Z</time>
      </trkpt>
      <trkpt lat="45.10401" lon="5.98405">
        <ele>1995.8000488281</ele>
        <time>2024-10-15T08:37:54.000Z</time>
      </trkpt>
      <trkpt lat="45.10402" lon="5.98405">
        <ele>1995.8000488281</ele>
        <time>2024-10-15T08:37:55.000Z</time>
      </trkpt>
      <trkpt lat="45.10402" lon="5.98405">
        <ele>1995.8000488281</ele>
        <time>2024-10-15T08:37:56.000Z</time>
      </trkpt>
      <trkpt lat="45.10402" lon="5.98406">
        <ele>1995.8000488281</ele>
        <time>2024-10-15T08:37:57.000Z</time>
      </trkpt>
      <trkpt lat="45.10402" lon="5.98405">
        <ele>1995.8000488281</ele>
        <time>2024-10-15T08:37:58.000Z</time>
      </trkpt>
      <trkpt lat="45.10402" lon="5.98405">
        <ele>1995.8000488281</ele>
        <time>2024-10-15T08:37:59.000Z</time>
      </trkpt>
      <trkpt lat="45.10402" lon="5.98405">
        <ele>1995.8000488281</ele>
        <time>2024-10-15T08:38:00.000Z</time>
      </trkpt>
      <trkpt lat="45.10401" lon="5.98405">
        <ele>1996</ele>
        <time>2024-10-15T08:38:01.000Z</time>
      </trkpt>
      <trkpt lat="45.10402" lon="5.98405">
        <ele>1996.1999511719</ele>
        <time>2024-10-15T08:38:02.000Z</time>
      </trkpt>
      <trkpt lat="45.10402" lon="5.98405">
        <ele>1996.4000244141</ele>
        <time>2024-10-15T08:38:03.000Z</time>
      </trkpt>
      <trkpt lat="45.10403" lon="5.98405">
        <ele>1996.5999755859</ele>
        <time>2024-10-15T08:38:04.000Z</time>
      </trkpt>
      <trkpt lat="45.10404" lon="5.98405">
        <ele>1996.8000488281</ele>
        <time>2024-10-15T08:38:05.000Z</time>
      </trkpt>
      <trkpt lat="45.10404" lon="5.98405">
        <ele>1996.8000488281</ele>
        <time>2024-10-15T08:38:06.000Z</time>
      </trkpt>
      <trkpt lat="45.10404" lon="5.98405">
        <ele>1996.8000488281</ele>
        <time>2024-10-15T08:38:07.000Z</time>
      </trkpt>
      <trkpt lat="45.10404" lon="5.98404">
        <ele>1996.8000488281</ele>
        <time>2024-10-15T08:38:08.000Z</time>
      </trkpt>
      <trkpt lat="45.10404" lon="5.98404">
        <ele>1996.8000488281</ele>
        <time>2024-10-15T08:38:09.000Z</time>
      </trkpt>
      <trkpt lat="45.10404" lon="5.98404">
        <ele>1996.8000488281</ele>
        <time>2024-10-15T08:38:10.000Z</time>
      </trkpt>
      <trkpt lat="45.10404" lon="5.98404">
        <ele>1996.8000488281</ele>
        <time>2024-10-15T08:38:11.000Z</time>
      </trkpt>
      <trkpt lat="45.10405" lon="5.98404">
        <ele>1996.8000488281</ele>
        <time>2024-10-15T08:38:12.000Z</time>
      </trkpt>
      <trkpt lat="45.10405" lon="5.98403">
        <ele>1996.8000488281</ele>
        <time>2024-10-15T08:38:13.000Z</time>
      </trkpt>
      <trkpt lat="45.10405" lon="5.98403">
        <ele>1996.8000488281</ele>
        <time>2024-10-15T08:38:14.000Z</time>
      </trkpt>
      <trkpt lat="45.10405" lon="5.98403">
        <ele>1996.8000488281</ele>
        <time>2024-10-15T08:38:15.000Z</time>
      </trkpt>
      <trkpt lat="45.10405" lon="5.98403">
        <ele>1996.8000488281</ele>
        <time>2024-10-15T08:38:16.000Z</time>
      </trkpt>
      <trkpt lat="45.10405" lon="5.98403">
        <ele>1996.8000488281</ele>
        <time>2024-10-15T08:38:17.000Z</time>
      </trkpt>
      <trkpt lat="45.10405" lon="5.98403">
        <ele>1996.8000488281</ele>
        <time>2024-10-15T08:38:18.000Z</time>
      </trkpt>
      <trkpt lat="45.10405" lon="5.98403">
        <ele>1996.8000488281</ele>
        <time>2024-10-15T08:38:19.000Z</time>
      </trkpt>
      <trkpt lat="45.10405" lon="5.98403">
        <ele>1996.8000488281</ele>
        <time>2024-10-15T08:38:20.000Z</time>
      </trkpt>
      <trkpt lat="45.10405" lon="5.98403">
        <ele>1996.8000488281</ele>
        <time>2024-10-15T08:38:21.000Z</time>
      </trkpt>
      <trkpt lat="45.10405" lon="5.98403">
        <ele>1996.8000488281</ele>
        <time>2024-10-15T08:38:22.000Z</time>
      </trkpt>
      <trkpt lat="45.10405" lon="5.98403">
        <ele>1996.8000488281</ele>
        <time>2024-10-15T08:38:23.000Z</time>
      </trkpt>
      <trkpt lat="45.10405" lon="5.98404">
        <ele>1997</ele>
        <time>2024-10-15T08:38:24.000Z</time>
      </trkpt>
      <trkpt lat="45.10405" lon="5.98404">
        <ele>1997</ele>
        <time>2024-10-15T08:38:25.000Z</time>
      </trkpt>
      <trkpt lat="45.10405" lon="5.98404">
        <ele>1997</ele>
        <time>2024-10-15T08:38:26.000Z</time>
      </trkpt>
      <trkpt lat="45.10405" lon="5.98404">
        <ele>1997</ele>
        <time>2024-10-15T08:38:27.000Z</time>
      </trkpt>
      <trkpt lat="45.10405" lon="5.98404">
        <ele>1997</ele>
        <time>2024-10-15T08:38:28.000Z</time>
      </trkpt>
      <trkpt lat="45.10405" lon="5.98404">
        <ele>1997</ele>
        <time>2024-10-15T08:38:29.000Z</time>
      </trkpt>
      <trkpt lat="45.10405" lon="5.98404">
        <ele>1997</ele>
        <time>2024-10-15T08:38:30.000Z</time>
      </trkpt>
      <trkpt lat="45.10405" lon="5.98404">
        <ele>1997</ele>
        <time>2024-10-15T08:38:31.000Z</time>
      </trkpt>
      <trkpt lat="45.10405" lon="5.98404">
        <ele>1997</ele>
        <time>2024-10-15T08:38:32.000Z</time>
      </trkpt>
      <trkpt lat="45.10405" lon="5.98404">
        <ele>1997</ele>
        <time>2024-10-15T08:38:33.000Z</time>
      </trkpt>
      <trkpt lat="45.10405" lon="5.98404">
        <ele>1997.1999511719</ele>
        <time>2024-10-15T08:38:34.000Z</time>
      </trkpt>
      <trkpt lat="45.10405" lon="5.98404">
        <ele>1997.1999511719</ele>
        <time>2024-10-15T08:38:35.000Z</time>
      </trkpt>
      <trkpt lat="45.10405" lon="5.98404">
        <ele>1997.1999511719</ele>
        <time>2024-10-15T08:38:36.000Z</time>
      </trkpt>
      <trkpt lat="45.10405" lon="5.98404">
        <ele>1997.1999511719</ele>
        <time>2024-10-15T08:38:37.000Z</time>
      </trkpt>
      <trkpt lat="45.10405" lon="5.98404">
        <ele>1997.1999511719</ele>
        <time>2024-10-15T08:38:38.000Z</time>
      </trkpt>
      <trkpt lat="45.10405" lon="5.98404">
        <ele>1997.1999511719</ele>
        <time>2024-10-15T08:38:39.000Z</time>
      </trkpt>
      <trkpt lat="45.10405" lon="5.98404">
        <ele>1997.1999511719</ele>
        <time>2024-10-15T08:38:40.000Z</time>
      </trkpt>
      <trkpt lat="45.10405" lon="5.98405">
        <ele>1997.1999511719</ele>
        <time>2024-10-15T08:38:41.000Z</time>
      </trkpt>
      <trkpt lat="45.10405" lon="5.98405">
        <ele>1997.1999511719</ele>
        <time>2024-10-15T08:38:42.000Z</time>
      </trkpt>
      <trkpt lat="45.10405" lon="5.98405">
        <ele>1997.1999511719</ele>
        <time>2024-10-15T08:38:43.000Z</time>
      </trkpt>
      <trkpt lat="45.10405" lon="5.98405">
        <ele>1997.1999511719</ele>
        <time>2024-10-15T08:38:44.000Z</time>
      </trkpt>
      <trkpt lat="45.10405" lon="5.98405">
        <ele>1997.1999511719</ele>
        <time>2024-10-15T08:38:45.000Z</time>
      </trkpt>
      <trkpt lat="45.10405" lon="5.98405">
        <ele>1997.1999511719</ele>
        <time>2024-10-15T08:38:46.000Z</time>
      </trkpt>
      <trkpt lat="45.10405" lon="5.98405">
        <ele>1997.1999511719</ele>
        <time>2024-10-15T08:38:47.000Z</time>
      </trkpt>
      <trkpt lat="45.10405" lon="5.98405">
        <ele>1997.1999511719</ele>
        <time>2024-10-15T08:38:48.000Z</time>
      </trkpt>
      <trkpt lat="45.10405" lon="5.98405">
        <ele>1997.1999511719</ele>
        <time>2024-10-15T08:38:49.000Z</time>
      </trkpt>
      <trkpt lat="45.10405" lon="5.98405">
        <ele>1997.1999511719</ele>
        <time>2024-10-15T08:38:50.000Z</time>
      </trkpt>
      <trkpt lat="45.10404" lon="5.98405">
        <ele>1997.1999511719</ele>
        <time>2024-10-15T08:38:51.000Z</time>
      </trkpt>
      <trkpt lat="45.10404" lon="5.98406">
        <ele>1997.1999511719</ele>
        <time>2024-10-15T08:38:52.000Z</time>
      </trkpt>
      <trkpt lat="45.10404" lon="5.98406">
        <ele>1997.1999511719</ele>
        <time>2024-10-15T08:38:53.000Z</time>
      </trkpt>
      <trkpt lat="45.10404" lon="5.98406">
        <ele>1997.1999511719</ele>
        <time>2024-10-15T08:38:54.000Z</time>
      </trkpt>
      <trkpt lat="45.10404" lon="5.98406">
        <ele>1997.1999511719</ele>
        <time>2024-10-15T08:38:55.000Z</time>
      </trkpt>
      <trkpt lat="45.10404" lon="5.98406">
        <ele>1997.1999511719</ele>
        <time>2024-10-15T08:38:56.000Z</time>
      </trkpt>
      <trkpt lat="45.10404" lon="5.98406">
        <ele>1997.1999511719</ele>
        <time>2024-10-15T08:38:57.000Z</time>
      </trkpt>
      <trkpt lat="45.10404" lon="5.98406">
        <ele>1997.1999511719</ele>
        <time>2024-10-15T08:38:58.000Z</time>
      </trkpt>
      <trkpt lat="45.10404" lon="5.98406">
        <ele>1997.1999511719</ele>
        <time>2024-10-15T08:38:59.000Z</time>
      </trkpt>
      <trkpt lat="45.10404" lon="5.98406">
        <ele>1997</ele>
        <time>2024-10-15T08:39:00.000Z</time>
      </trkpt>
      <trkpt lat="45.10404" lon="5.98406">
        <ele>1997</ele>
        <time>2024-10-15T08:39:01.000Z</time>
      </trkpt>
      <trkpt lat="45.10404" lon="5.98406">
        <ele>1997</ele>
        <time>2024-10-15T08:39:02.000Z</time>
      </trkpt>
      <trkpt lat="45.10404" lon="5.98406">
        <ele>1997</ele>
        <time>2024-10-15T08:39:03.000Z</time>
      </trkpt>
      <trkpt lat="45.10404" lon="5.98406">
        <ele>1997</ele>
        <time>2024-10-15T08:39:04.000Z</time>
      </trkpt>
      <trkpt lat="45.10404" lon="5.98406">
        <ele>1997</ele>
        <time>2024-10-15T08:39:05.000Z</time>
      </trkpt>
      <trkpt lat="45.10404" lon="5.98406">
        <ele>1997</ele>
        <time>2024-10-15T08:39:06.000Z</time>
      </trkpt>
      <trkpt lat="45.10404" lon="5.98406">
        <ele>1996.8000488281</ele>
        <time>2024-10-15T08:39:07.000Z</time>
      </trkpt>
      <trkpt lat="45.10404" lon="5.98406">
        <ele>1996.8000488281</ele>
        <time>2024-10-15T08:39:08.000Z</time>
      </trkpt>
      <trkpt lat="45.10404" lon="5.98406">
        <ele>1996.8000488281</ele>
        <time>2024-10-15T08:39:09.000Z</time>
      </trkpt>
      <trkpt lat="45.10404" lon="5.98406">
        <ele>1996.8000488281</ele>
        <time>2024-10-15T08:39:10.000Z</time>
      </trkpt>
      <trkpt lat="45.10404" lon="5.98406">
        <ele>1997</ele>
        <time>2024-10-15T08:39:11.000Z</time>
      </trkpt>
      <trkpt lat="45.10404" lon="5.98406">
        <ele>1997.1999511719</ele>
        <time>2024-10-15T08:39:12.000Z</time>
      </trkpt>
      <trkpt lat="45.10404" lon="5.98406">
        <ele>1997.1999511719</ele>
        <time>2024-10-15T08:39:13.000Z</time>
      </trkpt>
      <trkpt lat="45.10404" lon="5.98406">
        <ele>1997.4000244141</ele>
        <time>2024-10-15T08:39:14.000Z</time>
      </trkpt>
      <trkpt lat="45.10404" lon="5.98406">
        <ele>1997.4000244141</ele>
        <time>2024-10-15T08:39:15.000Z</time>
      </trkpt>
      <trkpt lat="45.10404" lon="5.98406">
        <ele>1997.5999755859</ele>
        <time>2024-10-15T08:39:16.000Z</time>
      </trkpt>
      <trkpt lat="45.10404" lon="5.98406">
        <ele>1997.5999755859</ele>
        <time>2024-10-15T08:39:17.000Z</time>
      </trkpt>
      <trkpt lat="45.10404" lon="5.98406">
        <ele>1997.8000488281</ele>
        <time>2024-10-15T08:39:18.000Z</time>
      </trkpt>
      <trkpt lat="45.10404" lon="5.98407">
        <ele>1998.1999511719</ele>
        <time>2024-10-15T08:39:19.000Z</time>
      </trkpt>
      <trkpt lat="45.10404" lon="5.98407">
        <ele>1998.1999511719</ele>
        <time>2024-10-15T08:39:20.000Z</time>
      </trkpt>
      <trkpt lat="45.10404" lon="5.98407">
        <ele>1998.4000244141</ele>
        <time>2024-10-15T08:39:21.000Z</time>
      </trkpt>
      <trkpt lat="45.10404" lon="5.98407">
        <ele>1998.5999755859</ele>
        <time>2024-10-15T08:39:22.000Z</time>
      </trkpt>
      <trkpt lat="45.10404" lon="5.98407">
        <ele>1998.8000488281</ele>
        <time>2024-10-15T08:39:23.000Z</time>
      </trkpt>
      <trkpt lat="45.10404" lon="5.98407">
        <ele>1999</ele>
        <time>2024-10-15T08:39:24.000Z</time>
      </trkpt>
      <trkpt lat="45.10403" lon="5.98407">
        <ele>1999.5999755859</ele>
        <time>2024-10-15T08:39:25.000Z</time>
      </trkpt>
      <trkpt lat="45.10403" lon="5.98408">
        <ele>1999.8000488281</ele>
        <time>2024-10-15T08:39:26.000Z</time>
      </trkpt>
      <trkpt lat="45.10403" lon="5.98408">
        <ele>2000</ele>
        <time>2024-10-15T08:39:27.000Z</time>
      </trkpt>
      <trkpt lat="45.10403" lon="5.98408">
        <ele>2000</ele>
        <time>2024-10-15T08:39:28.000Z</time>
      </trkpt>
      <trkpt lat="45.10404" lon="5.98409">
        <ele>2000</ele>
        <time>2024-10-15T08:39:29.000Z</time>
      </trkpt>
      <trkpt lat="45.10403" lon="5.9841">
        <ele>2000.1999511719</ele>
        <time>2024-10-15T08:39:30.000Z</time>
      </trkpt>
      <trkpt lat="45.10403" lon="5.98411">
        <ele>2000.4000244141</ele>
        <time>2024-10-15T08:39:31.000Z</time>
      </trkpt>
      <trkpt lat="45.10403" lon="5.98412">
        <ele>2000.5999755859</ele>
        <time>2024-10-15T08:39:32.000Z</time>
      </trkpt>
      <trkpt lat="45.10404" lon="5.98412">
        <ele>2001</ele>
        <time>2024-10-15T08:39:33.000Z</time>
      </trkpt>
      <trkpt lat="45.10404" lon="5.98412">
        <ele>2001.1999511719</ele>
        <time>2024-10-15T08:39:34.000Z</time>
      </trkpt>
      <trkpt lat="45.10405" lon="5.98412">
        <ele>2001.4000244141</ele>
        <time>2024-10-15T08:39:35.000Z</time>
      </trkpt>
      <trkpt lat="45.10405" lon="5.98413">
        <ele>2001.8000488281</ele>
        <time>2024-10-15T08:39:36.000Z</time>
      </trkpt>
      <trkpt lat="45.10405" lon="5.98413">
        <ele>2001.8000488281</ele>
        <time>2024-10-15T08:39:37.000Z</time>
      </trkpt>
      <trkpt lat="45.10404" lon="5.98414">
        <ele>2002</ele>
        <time>2024-10-15T08:39:38.000Z</time>
      </trkpt>
      <trkpt lat="45.10404" lon="5.98414">
        <ele>2002.4000244141</ele>
        <time>2024-10-15T08:39:39.000Z</time>
      </trkpt>
      <trkpt lat="45.10403" lon="5.98414">
        <ele>2002.5999755859</ele>
        <time>2024-10-15T08:39:40.000Z</time>
      </trkpt>
      <trkpt lat="45.10403" lon="5.98415">
        <ele>2003</ele>
        <time>2024-10-15T08:39:41.000Z</time>
      </trkpt>
      <trkpt lat="45.10404" lon="5.98415">
        <ele>2003.1999511719</ele>
        <time>2024-10-15T08:39:42.000Z</time>
      </trkpt>
      <trkpt lat="45.10404" lon="5.98415">
        <ele>2003.5999755859</ele>
        <time>2024-10-15T08:39:43.000Z</time>
      </trkpt>
      <trkpt lat="45.10404" lon="5.98415">
        <ele>2003.8000488281</ele>
        <time>2024-10-15T08:39:44.000Z</time>
      </trkpt>
      <trkpt lat="45.10403" lon="5.98416">
        <ele>2003.8000488281</ele>
        <time>2024-10-15T08:39:45.000Z</time>
      </trkpt>
      <trkpt lat="45.10404" lon="5.98415">
        <ele>2004</ele>
        <time>2024-10-15T08:39:46.000Z</time>
      </trkpt>
      <trkpt lat="45.10403" lon="5.98416">
        <ele>2004.4000244141</ele>
        <time>2024-10-15T08:39:47.000Z</time>
      </trkpt>
      <trkpt lat="45.10403" lon="5.98416">
        <ele>2004.4000244141</ele>
        <time>2024-10-15T08:39:48.000Z</time>
      </trkpt>
      <trkpt lat="45.10403" lon="5.98417">
        <ele>2004.5999755859</ele>
        <time>2024-10-15T08:39:49.000Z</time>
      </trkpt>
      <trkpt lat="45.10403" lon="5.98417">
        <ele>2004.8000488281</ele>
        <time>2024-10-15T08:39:50.000Z</time>
      </trkpt>
      <trkpt lat="45.10402" lon="5.98418">
        <ele>2005</ele>
        <time>2024-10-15T08:39:51.000Z</time>
      </trkpt>
      <trkpt lat="45.10402" lon="5.98418">
        <ele>2005.1999511719</ele>
        <time>2024-10-15T08:39:52.000Z</time>
      </trkpt>
      <trkpt lat="45.10401" lon="5.98418">
        <ele>2005.1999511719</ele>
        <time>2024-10-15T08:39:53.000Z</time>
      </trkpt>
      <trkpt lat="45.10401" lon="5.98418">
        <ele>2005.4000244141</ele>
        <time>2024-10-15T08:39:54.000Z</time>
      </trkpt>
      <trkpt lat="45.10401" lon="5.98419">
        <ele>2005.5999755859</ele>
        <time>2024-10-15T08:39:55.000Z</time>
      </trkpt>
      <trkpt lat="45.104" lon="5.98419">
        <ele>2005.8000488281</ele>
        <time>2024-10-15T08:39:56.000Z</time>
      </trkpt>
      <trkpt lat="45.104" lon="5.98419">
        <ele>2006.4000244141</ele>
        <time>2024-10-15T08:39:57.000Z</time>
      </trkpt>
      <trkpt lat="45.104" lon="5.98418">
        <ele>2006.5999755859</ele>
        <time>2024-10-15T08:39:58.000Z</time>
      </trkpt>
      <trkpt lat="45.104" lon="5.98417">
        <ele>2006.5999755859</ele>
        <time>2024-10-15T08:39:59.000Z</time>
      </trkpt>
      <trkpt lat="45.104" lon="5.98417">
        <ele>2006.5999755859</ele>
        <time>2024-10-15T08:40:00.000Z</time>
      </trkpt>
      <trkpt lat="45.104" lon="5.98417">
        <ele>2006.8000488281</ele>
        <time>2024-10-15T08:40:01.000Z</time>
      </trkpt>
      <trkpt lat="45.10401" lon="5.98416">
        <ele>2006.8000488281</ele>
        <time>2024-10-15T08:40:02.000Z</time>
      </trkpt>
      <trkpt lat="45.10401" lon="5.98418">
        <ele>2006.8000488281</ele>
        <time>2024-10-15T08:40:03.000Z</time>
      </trkpt>
      <trkpt lat="45.10401" lon="5.98419">
        <ele>2006.8000488281</ele>
        <time>2024-10-15T08:40:04.000Z</time>
      </trkpt>
      <trkpt lat="45.10402" lon="5.98419">
        <ele>2006.8000488281</ele>
        <time>2024-10-15T08:40:05.000Z</time>
      </trkpt>
      <trkpt lat="45.10402" lon="5.9842">
        <ele>2006.8000488281</ele>
        <time>2024-10-15T08:40:06.000Z</time>
      </trkpt>
      <trkpt lat="45.10402" lon="5.9842">
        <ele>2007</ele>
        <time>2024-10-15T08:40:07.000Z</time>
      </trkpt>
      <trkpt lat="45.10402" lon="5.98421">
        <ele>2007.1999511719</ele>
        <time>2024-10-15T08:40:08.000Z</time>
      </trkpt>
      <trkpt lat="45.10402" lon="5.98421">
        <ele>2007.4000244141</ele>
        <time>2024-10-15T08:40:09.000Z</time>
      </trkpt>
      <trkpt lat="45.10401" lon="5.98421">
        <ele>2007.4000244141</ele>
        <time>2024-10-15T08:40:10.000Z</time>
      </trkpt>
      <trkpt lat="45.10401" lon="5.98421">
        <ele>2007.4000244141</ele>
        <time>2024-10-15T08:40:11.000Z</time>
      </trkpt>
      <trkpt lat="45.10401" lon="5.98421">
        <ele>2007.5999755859</ele>
        <time>2024-10-15T08:40:12.000Z</time>
      </trkpt>
      <trkpt lat="45.10401" lon="5.98421">
        <ele>2007.5999755859</ele>
        <time>2024-10-15T08:40:13.000Z</time>
      </trkpt>
      <trkpt lat="45.10401" lon="5.98421">
        <ele>2007.5999755859</ele>
        <time>2024-10-15T08:40:14.000Z</time>
      </trkpt>
      <trkpt lat="45.104" lon="5.98421">
        <ele>2007.5999755859</ele>
        <time>2024-10-15T08:40:15.000Z</time>
      </trkpt>
      <trkpt lat="45.104" lon="5.98421">
        <ele>2007.4000244141</ele>
        <time>2024-10-15T08:40:16.000Z</time>
      </trkpt>
      <trkpt lat="45.104" lon="5.98421">
        <ele>2007.4000244141</ele>
        <time>2024-10-15T08:40:17.000Z</time>
      </trkpt>
      <trkpt lat="45.104" lon="5.98421">
        <ele>2007.4000244141</ele>
        <time>2024-10-15T08:40:18.000Z</time>
      </trkpt>
      <trkpt lat="45.104" lon="5.98421">
        <ele>2007.4000244141</ele>
        <time>2024-10-15T08:40:19.000Z</time>
      </trkpt>
      <trkpt lat="45.104" lon="5.98421">
        <ele>2007.4000244141</ele>
        <time>2024-10-15T08:40:20.000Z</time>
      </trkpt>
      <trkpt lat="45.104" lon="5.98421">
        <ele>2007.4000244141</ele>
        <time>2024-10-15T08:40:21.000Z</time>
      </trkpt>
      <trkpt lat="45.104" lon="5.98421">
        <ele>2007.1999511719</ele>
        <time>2024-10-15T08:40:22.000Z</time>
      </trkpt>
      <trkpt lat="45.104" lon="5.98421">
        <ele>2007.1999511719</ele>
        <time>2024-10-15T08:40:23.000Z</time>
      </trkpt>
      <trkpt lat="45.104" lon="5.98421">
        <ele>2007.1999511719</ele>
        <time>2024-10-15T08:40:24.000Z</time>
      </trkpt>
      <trkpt lat="45.104" lon="5.98421">
        <ele>2007.1999511719</ele>
        <time>2024-10-15T08:40:25.000Z</time>
      </trkpt>
      <trkpt lat="45.104" lon="5.98421">
        <ele>2007.1999511719</ele>
        <time>2024-10-15T08:40:26.000Z</time>
      </trkpt>
      <trkpt lat="45.104" lon="5.98421">
        <ele>2007.1999511719</ele>
        <time>2024-10-15T08:40:27.000Z</time>
      </trkpt>
      <trkpt lat="45.104" lon="5.98421">
        <ele>2006.8000488281</ele>
        <time>2024-10-15T08:40:28.000Z</time>
      </trkpt>
      <trkpt lat="45.104" lon="5.98421">
        <ele>2006.5999755859</ele>
        <time>2024-10-15T08:40:29.000Z</time>
      </trkpt>
      <trkpt lat="45.104" lon="5.98421">
        <ele>2006.5999755859</ele>
        <time>2024-10-15T08:40:30.000Z</time>
      </trkpt>
      <trkpt lat="45.104" lon="5.98421">
        <ele>2006.5999755859</ele>
        <time>2024-10-15T08:40:31.000Z</time>
      </trkpt>
      <trkpt lat="45.104" lon="5.98421">
        <ele>2006.5999755859</ele>
        <time>2024-10-15T08:40:32.000Z</time>
      </trkpt>
      <trkpt lat="45.104" lon="5.98421">
        <ele>2006.4000244141</ele>
        <time>2024-10-15T08:40:33.000Z</time>
      </trkpt>
      <trkpt lat="45.104" lon="5.98421">
        <ele>2006.4000244141</ele>
        <time>2024-10-15T08:40:34.000Z</time>
      </trkpt>
      <trkpt lat="45.104" lon="5.98421">
        <ele>2006.4000244141</ele>
        <time>2024-10-15T08:40:35.000Z</time>
      </trkpt>
      <trkpt lat="45.10401" lon="5.98421">
        <ele>2006.4000244141</ele>
        <time>2024-10-15T08:40:36.000Z</time>
      </trkpt>
      <trkpt lat="45.10401" lon="5.98421">
        <ele>2006.4000244141</ele>
        <time>2024-10-15T08:40:37.000Z</time>
      </trkpt>
      <trkpt lat="45.10401" lon="5.98421">
        <ele>2006.1999511719</ele>
        <time>2024-10-15T08:40:38.000Z</time>
      </trkpt>
      <trkpt lat="45.10401" lon="5.98421">
        <ele>2006.1999511719</ele>
        <time>2024-10-15T08:40:39.000Z</time>
      </trkpt>
      <trkpt lat="45.10401" lon="5.9842">
        <ele>2006</ele>
        <time>2024-10-15T08:40:40.000Z</time>
      </trkpt>
      <trkpt lat="45.10401" lon="5.9842">
        <ele>2006</ele>
        <time>2024-10-15T08:40:41.000Z</time>
      </trkpt>
      <trkpt lat="45.10401" lon="5.9842">
        <ele>2006</ele>
        <time>2024-10-15T08:40:42.000Z</time>
      </trkpt>
      <trkpt lat="45.10401" lon="5.9842">
        <ele>2006</ele>
        <time>2024-10-15T08:40:43.000Z</time>
      </trkpt>
      <trkpt lat="45.10401" lon="5.9842">
        <ele>2006</ele>
        <time>2024-10-15T08:40:44.000Z</time>
      </trkpt>
      <trkpt lat="45.10401" lon="5.98419">
        <ele>2006</ele>
        <time>2024-10-15T08:40:45.000Z</time>
      </trkpt>
      <trkpt lat="45.10401" lon="5.98419">
        <ele>2006</ele>
        <time>2024-10-15T08:40:46.000Z</time>
      </trkpt>
      <trkpt lat="45.10401" lon="5.98419">
        <ele>2006</ele>
        <time>2024-10-15T08:40:47.000Z</time>
      </trkpt>
      <trkpt lat="45.10402" lon="5.98419">
        <ele>2006</ele>
        <time>2024-10-15T08:40:48.000Z</time>
      </trkpt>
      <trkpt lat="45.10402" lon="5.98419">
        <ele>2006</ele>
        <time>2024-10-15T08:40:49.000Z</time>
      </trkpt>
      <trkpt lat="45.10402" lon="5.98418">
        <ele>2006</ele>
        <time>2024-10-15T08:40:50.000Z</time>
      </trkpt>
      <trkpt lat="45.10402" lon="5.98418">
        <ele>2006</ele>
        <time>2024-10-15T08:40:51.000Z</time>
      </trkpt>
      <trkpt lat="45.10402" lon="5.98417">
        <ele>2006</ele>
        <time>2024-10-15T08:40:52.000Z</time>
      </trkpt>
      <trkpt lat="45.10402" lon="5.98417">
        <ele>2006</ele>
        <time>2024-10-15T08:40:53.000Z</time>
      </trkpt>
      <trkpt lat="45.10402" lon="5.98416">
        <ele>2006.1999511719</ele>
        <time>2024-10-15T08:40:54.000Z</time>
      </trkpt>
      <trkpt lat="45.10402" lon="5.98416">
        <ele>2006.1999511719</ele>
        <time>2024-10-15T08:40:55.000Z</time>
      </trkpt>
      <trkpt lat="45.10402" lon="5.98416">
        <ele>2006.1999511719</ele>
        <time>2024-10-15T08:40:56.000Z</time>
      </trkpt>
      <trkpt lat="45.10402" lon="5.98416">
        <ele>2006.1999511719</ele>
        <time>2024-10-15T08:40:57.000Z</time>
      </trkpt>
      <trkpt lat="45.10402" lon="5.98416">
        <ele>2006.1999511719</ele>
        <time>2024-10-15T08:40:58.000Z</time>
      </trkpt>
      <trkpt lat="45.10402" lon="5.98416">
        <ele>2006.4000244141</ele>
        <time>2024-10-15T08:40:59.000Z</time>
      </trkpt>
      <trkpt lat="45.10402" lon="5.98416">
        <ele>2006.5999755859</ele>
        <time>2024-10-15T08:41:00.000Z</time>
      </trkpt>
      <trkpt lat="45.10402" lon="5.98416">
        <ele>2006.5999755859</ele>
        <time>2024-10-15T08:41:01.000Z</time>
      </trkpt>
      <trkpt lat="45.10402" lon="5.98416">
        <ele>2006.5999755859</ele>
        <time>2024-10-15T08:41:02.000Z</time>
      </trkpt>
      <trkpt lat="45.10402" lon="5.98416">
        <ele>2006.5999755859</ele>
        <time>2024-10-15T08:41:03.000Z</time>
      </trkpt>
      <trkpt lat="45.10402" lon="5.98416">
        <ele>2006.5999755859</ele>
        <time>2024-10-15T08:41:04.000Z</time>
      </trkpt>
      <trkpt lat="45.10402" lon="5.98416">
        <ele>2006.5999755859</ele>
        <time>2024-10-15T08:41:05.000Z</time>
      </trkpt>
      <trkpt lat="45.10402" lon="5.98416">
        <ele>2006.4000244141</ele>
        <time>2024-10-15T08:41:06.000Z</time>
      </trkpt>
      <trkpt lat="45.10402" lon="5.98416">
        <ele>2006.4000244141</ele>
        <time>2024-10-15T08:41:07.000Z</time>
      </trkpt>
      <trkpt lat="45.10402" lon="5.98416">
        <ele>2006.4000244141</ele>
        <time>2024-10-15T08:41:08.000Z</time>
      </trkpt>
      <trkpt lat="45.10402" lon="5.98416">
        <ele>2006.4000244141</ele>
        <time>2024-10-15T08:41:09.000Z</time>
      </trkpt>
      <trkpt lat="45.10402" lon="5.98416">
        <ele>2006.8000488281</ele>
        <time>2024-10-15T08:41:10.000Z</time>
      </trkpt>
      <trkpt lat="45.10403" lon="5.98416">
        <ele>2006.8000488281</ele>
        <time>2024-10-15T08:41:11.000Z</time>
      </trkpt>
      <trkpt lat="45.10403" lon="5.98416">
        <ele>2006.8000488281</ele>
        <time>2024-10-15T08:41:12.000Z</time>
      </trkpt>
      <trkpt lat="45.10403" lon="5.98416">
        <ele>2007</ele>
        <time>2024-10-15T08:41:13.000Z</time>
      </trkpt>
      <trkpt lat="45.10403" lon="5.98416">
        <ele>2007</ele>
        <time>2024-10-15T08:41:14.000Z</time>
      </trkpt>
      <trkpt lat="45.10403" lon="5.98416">
        <ele>2007</ele>
        <time>2024-10-15T08:41:15.000Z</time>
      </trkpt>
      <trkpt lat="45.10403" lon="5.98416">
        <ele>2007.1999511719</ele>
        <time>2024-10-15T08:41:16.000Z</time>
      </trkpt>
      <trkpt lat="45.10403" lon="5.98416">
        <ele>2007.1999511719</ele>
        <time>2024-10-15T08:41:17.000Z</time>
      </trkpt>
      <trkpt lat="45.10403" lon="5.98416">
        <ele>2007.1999511719</ele>
        <time>2024-10-15T08:41:18.000Z</time>
      </trkpt>
      <trkpt lat="45.10403" lon="5.98416">
        <ele>2007.4000244141</ele>
        <time>2024-10-15T08:41:19.000Z</time>
      </trkpt>
      <trkpt lat="45.10403" lon="5.98416">
        <ele>2007.4000244141</ele>
        <time>2024-10-15T08:41:20.000Z</time>
      </trkpt>
      <trkpt lat="45.10403" lon="5.98416">
        <ele>2007.4000244141</ele>
        <time>2024-10-15T08:41:21.000Z</time>
      </trkpt>
      <trkpt lat="45.10403" lon="5.98416">
        <ele>2007.4000244141</ele>
        <time>2024-10-15T08:41:22.000Z</time>
      </trkpt>
      <trkpt lat="45.10403" lon="5.98416">
        <ele>2007.4000244141</ele>
        <time>2024-10-15T08:41:23.000Z</time>
      </trkpt>
      <trkpt lat="45.10403" lon="5.98416">
        <ele>2007.4000244141</ele>
        <time>2024-10-15T08:41:24.000Z</time>
      </trkpt>
      <trkpt lat="45.10403" lon="5.98416">
        <ele>2007.8000488281</ele>
        <time>2024-10-15T08:41:25.000Z</time>
      </trkpt>
      <trkpt lat="45.10403" lon="5.98416">
        <ele>2008.1999511719</ele>
        <time>2024-10-15T08:41:26.000Z</time>
      </trkpt>
      <trkpt lat="45.10403" lon="5.98416">
        <ele>2008.1999511719</ele>
        <time>2024-10-15T08:41:27.000Z</time>
      </trkpt>
      <trkpt lat="45.10403" lon="5.98416">
        <ele>2008.1999511719</ele>
        <time>2024-10-15T08:41:28.000Z</time>
      </trkpt>
      <trkpt lat="45.10403" lon="5.98416">
        <ele>2008.1999511719</ele>
        <time>2024-10-15T08:41:29.000Z</time>
      </trkpt>
      <trkpt lat="45.10403" lon="5.98416">
        <ele>2008</ele>
        <time>2024-10-15T08:41:30.000Z</time>
      </trkpt>
      <trkpt lat="45.10402" lon="5.98416">
        <ele>2007.8000488281</ele>
        <time>2024-10-15T08:41:31.000Z</time>
      </trkpt>
      <trkpt lat="45.10402" lon="5.98416">
        <ele>2007.4000244141</ele>
        <time>2024-10-15T08:41:32.000Z</time>
      </trkpt>
      <trkpt lat="45.10402" lon="5.98416">
        <ele>2007.4000244141</ele>
        <time>2024-10-15T08:41:33.000Z</time>
      </trkpt>
      <trkpt lat="45.10402" lon="5.98416">
        <ele>2007.4000244141</ele>
        <time>2024-10-15T08:41:34.000Z</time>
      </trkpt>
      <trkpt lat="45.10402" lon="5.98416">
        <ele>2007.4000244141</ele>
        <time>2024-10-15T08:41:35.000Z</time>
      </trkpt>
      <trkpt lat="45.10402" lon="5.98416">
        <ele>2007.1999511719</ele>
        <time>2024-10-15T08:41:36.000Z</time>
      </trkpt>
      <trkpt lat="45.10402" lon="5.98416">
        <ele>2007.1999511719</ele>
        <time>2024-10-15T08:41:37.000Z</time>
      </trkpt>
      <trkpt lat="45.10402" lon="5.98415">
        <ele>2007.1999511719</ele>
        <time>2024-10-15T08:41:38.000Z</time>
      </trkpt>
      <trkpt lat="45.10402" lon="5.98415">
        <ele>2007</ele>
        <time>2024-10-15T08:41:39.000Z</time>
      </trkpt>
      <trkpt lat="45.10402" lon="5.98415">
        <ele>2006.8000488281</ele>
        <time>2024-10-15T08:41:40.000Z</time>
      </trkpt>
      <trkpt lat="45.10402" lon="5.98415">
        <ele>2006.5999755859</ele>
        <time>2024-10-15T08:41:41.000Z</time>
      </trkpt>
      <trkpt lat="45.10402" lon="5.98415">
        <ele>2006.5999755859</ele>
        <time>2024-10-15T08:41:42.000Z</time>
      </trkpt>
      <trkpt lat="45.10402" lon="5.98415">
        <ele>2006.5999755859</ele>
        <time>2024-10-15T08:41:43.000Z</time>
      </trkpt>
      <trkpt lat="45.10402" lon="5.98415">
        <ele>2006.5999755859</ele>
        <time>2024-10-15T08:41:44.000Z</time>
      </trkpt>
      <trkpt lat="45.10402" lon="5.98415">
        <ele>2006.5999755859</ele>
        <time>2024-10-15T08:41:45.000Z</time>
      </trkpt>
      <trkpt lat="45.10402" lon="5.98415">
        <ele>2006.5999755859</ele>
        <time>2024-10-15T08:41:46.000Z</time>
      </trkpt>
      <trkpt lat="45.10402" lon="5.98415">
        <ele>2006.8000488281</ele>
        <time>2024-10-15T08:41:47.000Z</time>
      </trkpt>
      <trkpt lat="45.10402" lon="5.98415">
        <ele>2007</ele>
        <time>2024-10-15T08:41:48.000Z</time>
      </trkpt>
      <trkpt lat="45.10402" lon="5.98416">
        <ele>2007.4000244141</ele>
        <time>2024-10-15T08:41:49.000Z</time>
      </trkpt>
      <trkpt lat="45.10402" lon="5.98416">
        <ele>2007.5999755859</ele>
        <time>2024-10-15T08:41:50.000Z</time>
      </trkpt>
      <trkpt lat="45.10403" lon="5.98416">
        <ele>2007.5999755859</ele>
        <time>2024-10-15T08:41:51.000Z</time>
      </trkpt>
      <trkpt lat="45.10403" lon="5.98416">
        <ele>2007.5999755859</ele>
        <time>2024-10-15T08:41:52.000Z</time>
      </trkpt>
      <trkpt lat="45.10403" lon="5.98416">
        <ele>2007.8000488281</ele>
        <time>2024-10-15T08:41:53.000Z</time>
      </trkpt>
      <trkpt lat="45.10403" lon="5.98416">
        <ele>2007.8000488281</ele>
        <time>2024-10-15T08:41:54.000Z</time>
      </trkpt>
      <trkpt lat="45.10403" lon="5.98416">
        <ele>2008.1999511719</ele>
        <time>2024-10-15T08:41:55.000Z</time>
      </trkpt>
      <trkpt lat="45.10403" lon="5.98416">
        <ele>2008.5999755859</ele>
        <time>2024-10-15T08:41:56.000Z</time>
      </trkpt>
      <trkpt lat="45.10403" lon="5.98416">
        <ele>2008.8000488281</ele>
        <time>2024-10-15T08:41:57.000Z</time>
      </trkpt>
      <trkpt lat="45.10403" lon="5.98416">
        <ele>2009</ele>
        <time>2024-10-15T08:41:58.000Z</time>
      </trkpt>
      <trkpt lat="45.10403" lon="5.98416">
        <ele>2009.1999511719</ele>
        <time>2024-10-15T08:41:59.000Z</time>
      </trkpt>
      <trkpt lat="45.10403" lon="5.98416">
        <ele>2009.4000244141</ele>
        <time>2024-10-15T08:42:00.000Z</time>
      </trkpt>
      <trkpt lat="45.10403" lon="5.98416">
        <ele>2009.5999755859</ele>
        <time>2024-10-15T08:42:01.000Z</time>
      </trkpt>
      <trkpt lat="45.10403" lon="5.98416">
        <ele>2009.8000488281</ele>
        <time>2024-10-15T08:42:02.000Z</time>
      </trkpt>
      <trkpt lat="45.10403" lon="5.98417">
        <ele>2010</ele>
        <time>2024-10-15T08:42:03.000Z</time>
      </trkpt>
      <trkpt lat="45.10403" lon="5.98417">
        <ele>2010.1999511719</ele>
        <time>2024-10-15T08:42:04.000Z</time>
      </trkpt>
      <trkpt lat="45.10403" lon="5.98417">
        <ele>2010.1999511719</ele>
        <time>2024-10-15T08:42:05.000Z</time>
      </trkpt>
      <trkpt lat="45.10403" lon="5.98417">
        <ele>2010.1999511719</ele>
        <time>2024-10-15T08:42:06.000Z</time>
      </trkpt>
      <trkpt lat="45.10403" lon="5.98417">
        <ele>2010.1999511719</ele>
        <time>2024-10-15T08:42:07.000Z</time>
      </trkpt>
      <trkpt lat="45.10403" lon="5.98417">
        <ele>2010.1999511719</ele>
        <time>2024-10-15T08:42:08.000Z</time>
      </trkpt>
      <trkpt lat="45.10403" lon="5.98417">
        <ele>2010.1999511719</ele>
        <time>2024-10-15T08:42:09.000Z</time>
      </trkpt>
      <trkpt lat="45.10403" lon="5.98417">
        <ele>2010.1999511719</ele>
        <time>2024-10-15T08:42:10.000Z</time>
      </trkpt>
      <trkpt lat="45.10403" lon="5.98417">
        <ele>2010.1999511719</ele>
        <time>2024-10-15T08:42:11.000Z</time>
      </trkpt>
      <trkpt lat="45.10403" lon="5.98418">
        <ele>2010.1999511719</ele>
        <time>2024-10-15T08:42:12.000Z</time>
      </trkpt>
      <trkpt lat="45.10403" lon="5.98418">
        <ele>2010.1999511719</ele>
        <time>2024-10-15T08:42:13.000Z</time>
      </trkpt>
      <trkpt lat="45.10403" lon="5.98418">
        <ele>2010.1999511719</ele>
        <time>2024-10-15T08:42:14.000Z</time>
      </trkpt>
      <trkpt lat="45.10403" lon="5.98418">
        <ele>2010.1999511719</ele>
        <time>2024-10-15T08:42:15.000Z</time>
      </trkpt>
      <trkpt lat="45.10404" lon="5.98418">
        <ele>2010.1999511719</ele>
        <time>2024-10-15T08:42:16.000Z</time>
      </trkpt>
      <trkpt lat="45.10404" lon="5.98418">
        <ele>2010.1999511719</ele>
        <time>2024-10-15T08:42:17.000Z</time>
      </trkpt>
      <trkpt lat="45.10404" lon="5.98418">
        <ele>2010.4000244141</ele>
        <time>2024-10-15T08:42:18.000Z</time>
      </trkpt>
      <trkpt lat="45.10404" lon="5.98418">
        <ele>2010.4000244141</ele>
        <time>2024-10-15T08:42:19.000Z</time>
      </trkpt>
      <trkpt lat="45.10404" lon="5.98418">
        <ele>2010.4000244141</ele>
        <time>2024-10-15T08:42:20.000Z</time>
      </trkpt>
      <trkpt lat="45.10404" lon="5.98418">
        <ele>2010.4000244141</ele>
        <time>2024-10-15T08:42:21.000Z</time>
      </trkpt>
      <trkpt lat="45.10404" lon="5.98418">
        <ele>2010.4000244141</ele>
        <time>2024-10-15T08:42:22.000Z</time>
      </trkpt>
      <trkpt lat="45.10404" lon="5.98418">
        <ele>2010.4000244141</ele>
        <time>2024-10-15T08:42:23.000Z</time>
      </trkpt>
      <trkpt lat="45.10404" lon="5.98418">
        <ele>2010.4000244141</ele>
        <time>2024-10-15T08:42:24.000Z</time>
      </trkpt>
      <trkpt lat="45.10404" lon="5.98418">
        <ele>2010.4000244141</ele>
        <time>2024-10-15T08:42:25.000Z</time>
      </trkpt>
      <trkpt lat="45.10404" lon="5.98418">
        <ele>2010.4000244141</ele>
        <time>2024-10-15T08:42:26.000Z</time>
      </trkpt>
      <trkpt lat="45.10404" lon="5.98418">
        <ele>2010.4000244141</ele>
        <time>2024-10-15T08:42:27.000Z</time>
      </trkpt>
      <trkpt lat="45.10404" lon="5.98418">
        <ele>2010.4000244141</ele>
        <time>2024-10-15T08:42:28.000Z</time>
      </trkpt>
      <trkpt lat="45.10404" lon="5.98418">
        <ele>2010.4000244141</ele>
        <time>2024-10-15T08:42:29.000Z</time>
      </trkpt>
      <trkpt lat="45.10404" lon="5.98418">
        <ele>2010.4000244141</ele>
        <time>2024-10-15T08:42:30.000Z</time>
      </trkpt>
      <trkpt lat="45.10404" lon="5.98417">
        <ele>2010.4000244141</ele>
        <time>2024-10-15T08:42:31.000Z</time>
      </trkpt>
      <trkpt lat="45.10404" lon="5.98417">
        <ele>2010.4000244141</ele>
        <time>2024-10-15T08:42:32.000Z</time>
      </trkpt>
      <trkpt lat="45.10404" lon="5.98417">
        <ele>2010.4000244141</ele>
        <time>2024-10-15T08:42:33.000Z</time>
      </trkpt>
      <trkpt lat="45.10404" lon="5.98417">
        <ele>2010.4000244141</ele>
        <time>2024-10-15T08:42:34.000Z</time>
      </trkpt>
      <trkpt lat="45.10404" lon="5.98416">
        <ele>2010.4000244141</ele>
        <time>2024-10-15T08:42:35.000Z</time>
      </trkpt>
      <trkpt lat="45.10404" lon="5.98416">
        <ele>2010.4000244141</ele>
        <time>2024-10-15T08:42:36.000Z</time>
      </trkpt>
      <trkpt lat="45.10404" lon="5.98416">
        <ele>2010.1999511719</ele>
        <time>2024-10-15T08:42:37.000Z</time>
      </trkpt>
      <trkpt lat="45.10404" lon="5.98416">
        <ele>2010.1999511719</ele>
        <time>2024-10-15T08:42:38.000Z</time>
      </trkpt>
      <trkpt lat="45.10404" lon="5.98416">
        <ele>2010.1999511719</ele>
        <time>2024-10-15T08:42:39.000Z</time>
      </trkpt>
      <trkpt lat="45.10404" lon="5.98416">
        <ele>2010.1999511719</ele>
        <time>2024-10-15T08:42:40.000Z</time>
      </trkpt>
      <trkpt lat="45.10404" lon="5.98416">
        <ele>2010.1999511719</ele>
        <time>2024-10-15T08:42:41.000Z</time>
      </trkpt>
      <trkpt lat="45.10404" lon="5.98415">
        <ele>2010.1999511719</ele>
        <time>2024-10-15T08:42:42.000Z</time>
      </trkpt>
      <trkpt lat="45.10404" lon="5.98415">
        <ele>2010.1999511719</ele>
        <time>2024-10-15T08:42:43.000Z</time>
      </trkpt>
      <trkpt lat="45.10404" lon="5.98415">
        <ele>2010.1999511719</ele>
        <time>2024-10-15T08:42:44.000Z</time>
      </trkpt>
      <trkpt lat="45.10404" lon="5.98415">
        <ele>2010.1999511719</ele>
        <time>2024-10-15T08:42:45.000Z</time>
      </trkpt>
      <trkpt lat="45.10404" lon="5.98415">
        <ele>2010.1999511719</ele>
        <time>2024-10-15T08:42:46.000Z</time>
      </trkpt>
      <trkpt lat="45.10404" lon="5.98415">
        <ele>2010.1999511719</ele>
        <time>2024-10-15T08:42:47.000Z</time>
      </trkpt>
      <trkpt lat="45.10404" lon="5.98415">
        <ele>2010.4000244141</ele>
        <time>2024-10-15T08:42:48.000Z</time>
      </trkpt>
      <trkpt lat="45.10404" lon="5.98415">
        <ele>2010.4000244141</ele>
        <time>2024-10-15T08:42:49.000Z</time>
      </trkpt>
      <trkpt lat="45.10404" lon="5.98415">
        <ele>2010.4000244141</ele>
        <time>2024-10-15T08:42:50.000Z</time>
      </trkpt>
      <trkpt lat="45.10404" lon="5.98415">
        <ele>2010.4000244141</ele>
        <time>2024-10-15T08:42:51.000Z</time>
      </trkpt>
      <trkpt lat="45.10404" lon="5.98415">
        <ele>2010.1999511719</ele>
        <time>2024-10-15T08:42:52.000Z</time>
      </trkpt>
      <trkpt lat="45.10404" lon="5.98415">
        <ele>2010.1999511719</ele>
        <time>2024-10-15T08:42:53.000Z</time>
      </trkpt>
      <trkpt lat="45.10404" lon="5.98415">
        <ele>2010.1999511719</ele>
        <time>2024-10-15T08:42:54.000Z</time>
      </trkpt>
      <trkpt lat="45.10404" lon="5.98415">
        <ele>2010.1999511719</ele>
        <time>2024-10-15T08:42:55.000Z</time>
      </trkpt>
      <trkpt lat="45.10404" lon="5.98415">
        <ele>2010.1999511719</ele>
        <time>2024-10-15T08:42:56.000Z</time>
      </trkpt>
      <trkpt lat="45.10404" lon="5.98415">
        <ele>2010.1999511719</ele>
        <time>2024-10-15T08:42:57.000Z</time>
      </trkpt>
      <trkpt lat="45.10404" lon="5.98415">
        <ele>2010.1999511719</ele>
        <time>2024-10-15T08:42:58.000Z</time>
      </trkpt>
      <trkpt lat="45.10404" lon="5.98415">
        <ele>2010.4000244141</ele>
        <time>2024-10-15T08:42:59.000Z</time>
      </trkpt>
      <trkpt lat="45.10404" lon="5.98416">
        <ele>2010.4000244141</ele>
        <time>2024-10-15T08:43:00.000Z</time>
      </trkpt>
      <trkpt lat="45.10403" lon="5.98416">
        <ele>2010.5999755859</ele>
        <time>2024-10-15T08:43:01.000Z</time>
      </trkpt>
      <trkpt lat="45.10403" lon="5.98416">
        <ele>2011</ele>
        <time>2024-10-15T08:43:02.000Z</time>
      </trkpt>
      <trkpt lat="45.10403" lon="5.98416">
        <ele>2011.1999511719</ele>
        <time>2024-10-15T08:43:03.000Z</time>
      </trkpt>
      <trkpt lat="45.10403" lon="5.98416">
        <ele>2011.4000244141</ele>
        <time>2024-10-15T08:43:04.000Z</time>
      </trkpt>
      <trkpt lat="45.10403" lon="5.98416">
        <ele>2011.5999755859</ele>
        <time>2024-10-15T08:43:05.000Z</time>
      </trkpt>
      <trkpt lat="45.10403" lon="5.98416">
        <ele>2011.5999755859</ele>
        <time>2024-10-15T08:43:06.000Z</time>
      </trkpt>
      <trkpt lat="45.10403" lon="5.98416">
        <ele>2011.5999755859</ele>
        <time>2024-10-15T08:43:07.000Z</time>
      </trkpt>
      <trkpt lat="45.10403" lon="5.98416">
        <ele>2011.5999755859</ele>
        <time>2024-10-15T08:43:08.000Z</time>
      </trkpt>
      <trkpt lat="45.10403" lon="5.98416">
        <ele>2011.5999755859</ele>
        <time>2024-10-15T08:43:09.000Z</time>
      </trkpt>
      <trkpt lat="45.10402" lon="5.98416">
        <ele>2011.5999755859</ele>
        <time>2024-10-15T08:43:10.000Z</time>
      </trkpt>
      <trkpt lat="45.10402" lon="5.98417">
        <ele>2011.8000488281</ele>
        <time>2024-10-15T08:43:11.000Z</time>
      </trkpt>
      <trkpt lat="45.10402" lon="5.98417">
        <ele>2012.1999511719</ele>
        <time>2024-10-15T08:43:12.000Z</time>
      </trkpt>
      <trkpt lat="45.10402" lon="5.98417">
        <ele>2012.1999511719</ele>
        <time>2024-10-15T08:43:13.000Z</time>
      </trkpt>
      <trkpt lat="45.10402" lon="5.98417">
        <ele>2012.4000244141</ele>
        <time>2024-10-15T08:43:14.000Z</time>
      </trkpt>
      <trkpt lat="45.10402" lon="5.98418">
        <ele>2012.5999755859</ele>
        <time>2024-10-15T08:43:15.000Z</time>
      </trkpt>
      <trkpt lat="45.10402" lon="5.98418">
        <ele>2012.8000488281</ele>
        <time>2024-10-15T08:43:16.000Z</time>
      </trkpt>
      <trkpt lat="45.10402" lon="5.98418">
        <ele>2013.1999511719</ele>
        <time>2024-10-15T08:43:17.000Z</time>
      </trkpt>
      <trkpt lat="45.10401" lon="5.98418">
        <ele>2013.4000244141</ele>
        <time>2024-10-15T08:43:18.000Z</time>
      </trkpt>
      <trkpt lat="45.10401" lon="5.98418">
        <ele>2013.4000244141</ele>
        <time>2024-10-15T08:43:19.000Z</time>
      </trkpt>
      <trkpt lat="45.10401" lon="5.98419">
        <ele>2013.5999755859</ele>
        <time>2024-10-15T08:43:20.000Z</time>
      </trkpt>
      <trkpt lat="45.10401" lon="5.98419">
        <ele>2013.5999755859</ele>
        <time>2024-10-15T08:43:21.000Z</time>
      </trkpt>
      <trkpt lat="45.10401" lon="5.98419">
        <ele>2014</ele>
        <time>2024-10-15T08:43:22.000Z</time>
      </trkpt>
      <trkpt lat="45.10401" lon="5.98419">
        <ele>2014.1999511719</ele>
        <time>2024-10-15T08:43:23.000Z</time>
      </trkpt>
      <trkpt lat="45.10401" lon="5.98419">
        <ele>2014.4000244141</ele>
        <time>2024-10-15T08:43:24.000Z</time>
      </trkpt>
      <trkpt lat="45.10401" lon="5.98419">
        <ele>2014.5999755859</ele>
        <time>2024-10-15T08:43:25.000Z</time>
      </trkpt>
      <trkpt lat="45.10401" lon="5.98419">
        <ele>2014.8000488281</ele>
        <time>2024-10-15T08:43:26.000Z</time>
      </trkpt>
      <trkpt lat="45.10401" lon="5.98419">
        <ele>2014.8000488281</ele>
        <time>2024-10-15T08:43:27.000Z</time>
      </trkpt>
      <trkpt lat="45.10401" lon="5.9842">
        <ele>2015</ele>
        <time>2024-10-15T08:43:28.000Z</time>
      </trkpt>
      <trkpt lat="45.104" lon="5.9842">
        <ele>2015.1999511719</ele>
        <time>2024-10-15T08:43:29.000Z</time>
      </trkpt>
      <trkpt lat="45.104" lon="5.9842">
        <ele>2015.4000244141</ele>
        <time>2024-10-15T08:43:30.000Z</time>
      </trkpt>
      <trkpt lat="45.104" lon="5.9842">
        <ele>2015.5999755859</ele>
        <time>2024-10-15T08:43:31.000Z</time>
      </trkpt>
      <trkpt lat="45.104" lon="5.9842">
        <ele>2015.5999755859</ele>
        <time>2024-10-15T08:43:32.000Z</time>
      </trkpt>
      <trkpt lat="45.104" lon="5.9842">
        <ele>2015.5999755859</ele>
        <time>2024-10-15T08:43:33.000Z</time>
      </trkpt>
      <trkpt lat="45.104" lon="5.98421">
        <ele>2016</ele>
        <time>2024-10-15T08:43:34.000Z</time>
      </trkpt>
      <trkpt lat="45.104" lon="5.98421">
        <ele>2016.1999511719</ele>
        <time>2024-10-15T08:43:35.000Z</time>
      </trkpt>
      <trkpt lat="45.104" lon="5.98421">
        <ele>2016.4000244141</ele>
        <time>2024-10-15T08:43:36.000Z</time>
      </trkpt>
      <trkpt lat="45.10399" lon="5.98421">
        <ele>2016.4000244141</ele>
        <time>2024-10-15T08:43:37.000Z</time>
      </trkpt>
      <trkpt lat="45.10399" lon="5.98421">
        <ele>2016.5999755859</ele>
        <time>2024-10-15T08:43:38.000Z</time>
      </trkpt>
      <trkpt lat="45.10399" lon="5.98421">
        <ele>2017</ele>
        <time>2024-10-15T08:43:39.000Z</time>
      </trkpt>
      <trkpt lat="45.10399" lon="5.98421">
        <ele>2017.1999511719</ele>
        <time>2024-10-15T08:43:40.000Z</time>
      </trkpt>
      <trkpt lat="45.10398" lon="5.98423">
        <ele>2017.1999511719</ele>
        <time>2024-10-15T08:43:41.000Z</time>
      </trkpt>
      <trkpt lat="45.10398" lon="5.98424">
        <ele>2017.1999511719</ele>
        <time>2024-10-15T08:43:42.000Z</time>
      </trkpt>
      <trkpt lat="45.10398" lon="5.98424">
        <ele>2017.1999511719</ele>
        <time>2024-10-15T08:43:43.000Z</time>
      </trkpt>
      <trkpt lat="45.10397" lon="5.98425">
        <ele>2017.1999511719</ele>
        <time>2024-10-15T08:43:44.000Z</time>
      </trkpt>
      <trkpt lat="45.10395" lon="5.98426">
        <ele>2017.5999755859</ele>
        <time>2024-10-15T08:43:45.000Z</time>
      </trkpt>
      <trkpt lat="45.10394" lon="5.98426">
        <ele>2017.5999755859</ele>
        <time>2024-10-15T08:43:46.000Z</time>
      </trkpt>
      <trkpt lat="45.10394" lon="5.98426">
        <ele>2017.8000488281</ele>
        <time>2024-10-15T08:43:47.000Z</time>
      </trkpt>
      <trkpt lat="45.10394" lon="5.98426">
        <ele>2018</ele>
        <time>2024-10-15T08:43:48.000Z</time>
      </trkpt>
      <trkpt lat="45.10394" lon="5.98426">
        <ele>2018.4000244141</ele>
        <time>2024-10-15T08:43:49.000Z</time>
      </trkpt>
      <trkpt lat="45.10394" lon="5.98426">
        <ele>2018.4000244141</ele>
        <time>2024-10-15T08:43:50.000Z</time>
      </trkpt>
      <trkpt lat="45.10394" lon="5.98426">
        <ele>2018.5999755859</ele>
        <time>2024-10-15T08:43:51.000Z</time>
      </trkpt>
      <trkpt lat="45.10394" lon="5.98426">
        <ele>2019</ele>
        <time>2024-10-15T08:43:52.000Z</time>
      </trkpt>
      <trkpt lat="45.10394" lon="5.98426">
        <ele>2019</ele>
        <time>2024-10-15T08:43:53.000Z</time>
      </trkpt>
      <trkpt lat="45.10394" lon="5.98426">
        <ele>2019.4000244141</ele>
        <time>2024-10-15T08:43:54.000Z</time>
      </trkpt>
      <trkpt lat="45.10394" lon="5.98426">
        <ele>2019.5999755859</ele>
        <time>2024-10-15T08:43:55.000Z</time>
      </trkpt>
      <trkpt lat="45.10394" lon="5.98426">
        <ele>2019.8000488281</ele>
        <time>2024-10-15T08:43:56.000Z</time>
      </trkpt>
      <trkpt lat="45.10394" lon="5.98427">
        <ele>2019.8000488281</ele>
        <time>2024-10-15T08:43:57.000Z</time>
      </trkpt>
      <trkpt lat="45.10394" lon="5.98427">
        <ele>2019.8000488281</ele>
        <time>2024-10-15T08:43:58.000Z</time>
      </trkpt>
      <trkpt lat="45.10394" lon="5.98427">
        <ele>2020</ele>
        <time>2024-10-15T08:43:59.000Z</time>
      </trkpt>
      <trkpt lat="45.10393" lon="5.98428">
        <ele>2020</ele>
        <time>2024-10-15T08:44:00.000Z</time>
      </trkpt>
      <trkpt lat="45.10393" lon="5.98428">
        <ele>2020</ele>
        <time>2024-10-15T08:44:01.000Z</time>
      </trkpt>
      <trkpt lat="45.10393" lon="5.98428">
        <ele>2020.1999511719</ele>
        <time>2024-10-15T08:44:02.000Z</time>
      </trkpt>
      <trkpt lat="45.10393" lon="5.98428">
        <ele>2020.1999511719</ele>
        <time>2024-10-15T08:44:03.000Z</time>
      </trkpt>
      <trkpt lat="45.10393" lon="5.98428">
        <ele>2020.1999511719</ele>
        <time>2024-10-15T08:44:04.000Z</time>
      </trkpt>
      <trkpt lat="45.10392" lon="5.98429">
        <ele>2020.1999511719</ele>
        <time>2024-10-15T08:44:05.000Z</time>
      </trkpt>
      <trkpt lat="45.10391" lon="5.98429">
        <ele>2020.1999511719</ele>
        <time>2024-10-15T08:44:06.000Z</time>
      </trkpt>
      <trkpt lat="45.10391" lon="5.9843">
        <ele>2020.4000244141</ele>
        <time>2024-10-15T08:44:07.000Z</time>
      </trkpt>
      <trkpt lat="45.10391" lon="5.9843">
        <ele>2020.5999755859</ele>
        <time>2024-10-15T08:44:08.000Z</time>
      </trkpt>
      <trkpt lat="45.10391" lon="5.9843">
        <ele>2020.5999755859</ele>
        <time>2024-10-15T08:44:09.000Z</time>
      </trkpt>
      <trkpt lat="45.10391" lon="5.9843">
        <ele>2020.8000488281</ele>
        <time>2024-10-15T08:44:10.000Z</time>
      </trkpt>
      <trkpt lat="45.10391" lon="5.98431">
        <ele>2020.8000488281</ele>
        <time>2024-10-15T08:44:11.000Z</time>
      </trkpt>
      <trkpt lat="45.10391" lon="5.98431">
        <ele>2020.8000488281</ele>
        <time>2024-10-15T08:44:12.000Z</time>
      </trkpt>
      <trkpt lat="45.10391" lon="5.98431">
        <ele>2020.8000488281</ele>
        <time>2024-10-15T08:44:13.000Z</time>
      </trkpt>
      <trkpt lat="45.10391" lon="5.98431">
        <ele>2020.8000488281</ele>
        <time>2024-10-15T08:44:14.000Z</time>
      </trkpt>
      <trkpt lat="45.10391" lon="5.98431">
        <ele>2020.5999755859</ele>
        <time>2024-10-15T08:44:15.000Z</time>
      </trkpt>
      <trkpt lat="45.10391" lon="5.98431">
        <ele>2020.5999755859</ele>
        <time>2024-10-15T08:44:16.000Z</time>
      </trkpt>
      <trkpt lat="45.1039" lon="5.98431">
        <ele>2020.5999755859</ele>
        <time>2024-10-15T08:44:17.000Z</time>
      </trkpt>
      <trkpt lat="45.1039" lon="5.98431">
        <ele>2020.5999755859</ele>
        <time>2024-10-15T08:44:18.000Z</time>
      </trkpt>
      <trkpt lat="45.1039" lon="5.98432">
        <ele>2020.5999755859</ele>
        <time>2024-10-15T08:44:19.000Z</time>
      </trkpt>
      <trkpt lat="45.1039" lon="5.98432">
        <ele>2020.5999755859</ele>
        <time>2024-10-15T08:44:20.000Z</time>
      </trkpt>
      <trkpt lat="45.1039" lon="5.98432">
        <ele>2020.8000488281</ele>
        <time>2024-10-15T08:44:21.000Z</time>
      </trkpt>
      <trkpt lat="45.1039" lon="5.98433">
        <ele>2020.8000488281</ele>
        <time>2024-10-15T08:44:22.000Z</time>
      </trkpt>
      <trkpt lat="45.10391" lon="5.98433">
        <ele>2020.8000488281</ele>
        <time>2024-10-15T08:44:23.000Z</time>
      </trkpt>
      <trkpt lat="45.10391" lon="5.98433">
        <ele>2021.1999511719</ele>
        <time>2024-10-15T08:44:24.000Z</time>
      </trkpt>
      <trkpt lat="45.10392" lon="5.98434">
        <ele>2021.1999511719</ele>
        <time>2024-10-15T08:44:25.000Z</time>
      </trkpt>
      <trkpt lat="45.10393" lon="5.98434">
        <ele>2021.4000244141</ele>
        <time>2024-10-15T08:44:26.000Z</time>
      </trkpt>
      <trkpt lat="45.10393" lon="5.98435">
        <ele>2021.5999755859</ele>
        <time>2024-10-15T08:44:27.000Z</time>
      </trkpt>
      <trkpt lat="45.10392" lon="5.98436">
        <ele>2021.5999755859</ele>
        <time>2024-10-15T08:44:28.000Z</time>
      </trkpt>
      <trkpt lat="45.10392" lon="5.98436">
        <ele>2021.5999755859</ele>
        <time>2024-10-15T08:44:29.000Z</time>
      </trkpt>
      <trkpt lat="45.10393" lon="5.98437">
        <ele>2022</ele>
        <time>2024-10-15T08:44:30.000Z</time>
      </trkpt>
      <trkpt lat="45.10393" lon="5.98438">
        <ele>2022.1999511719</ele>
        <time>2024-10-15T08:44:31.000Z</time>
      </trkpt>
      <trkpt lat="45.10393" lon="5.98438">
        <ele>2022.1999511719</ele>
        <time>2024-10-15T08:44:32.000Z</time>
      </trkpt>
      <trkpt lat="45.10392" lon="5.98438">
        <ele>2022.4000244141</ele>
        <time>2024-10-15T08:44:33.000Z</time>
      </trkpt>
      <trkpt lat="45.10392" lon="5.98439">
        <ele>2022.5999755859</ele>
        <time>2024-10-15T08:44:34.000Z</time>
      </trkpt>
      <trkpt lat="45.10393" lon="5.98439">
        <ele>2022.8000488281</ele>
        <time>2024-10-15T08:44:35.000Z</time>
      </trkpt>
      <trkpt lat="45.10393" lon="5.9844">
        <ele>2023</ele>
        <time>2024-10-15T08:44:36.000Z</time>
      </trkpt>
      <trkpt lat="45.10392" lon="5.9844">
        <ele>2023.1999511719</ele>
        <time>2024-10-15T08:44:37.000Z</time>
      </trkpt>
      <trkpt lat="45.10392" lon="5.9844">
        <ele>2023.5999755859</ele>
        <time>2024-10-15T08:44:38.000Z</time>
      </trkpt>
      <trkpt lat="45.10392" lon="5.98439">
        <ele>2023.8000488281</ele>
        <time>2024-10-15T08:44:39.000Z</time>
      </trkpt>
      <trkpt lat="45.10391" lon="5.98439">
        <ele>2024</ele>
        <time>2024-10-15T08:44:40.000Z</time>
      </trkpt>
      <trkpt lat="45.10391" lon="5.98439">
        <ele>2024</ele>
        <time>2024-10-15T08:44:41.000Z</time>
      </trkpt>
      <trkpt lat="45.10391" lon="5.98439">
        <ele>2024.4000244141</ele>
        <time>2024-10-15T08:44:42.000Z</time>
      </trkpt>
      <trkpt lat="45.10391" lon="5.9844">
        <ele>2024.5999755859</ele>
        <time>2024-10-15T08:44:43.000Z</time>
      </trkpt>
      <trkpt lat="45.10391" lon="5.9844">
        <ele>2024.8000488281</ele>
        <time>2024-10-15T08:44:44.000Z</time>
      </trkpt>
      <trkpt lat="45.10391" lon="5.9844">
        <ele>2025</ele>
        <time>2024-10-15T08:44:45.000Z</time>
      </trkpt>
      <trkpt lat="45.10392" lon="5.9844">
        <ele>2025</ele>
        <time>2024-10-15T08:44:46.000Z</time>
      </trkpt>
      <trkpt lat="45.10391" lon="5.9844">
        <ele>2025.1999511719</ele>
        <time>2024-10-15T08:44:47.000Z</time>
      </trkpt>
      <trkpt lat="45.10391" lon="5.9844">
        <ele>2025.1999511719</ele>
        <time>2024-10-15T08:44:48.000Z</time>
      </trkpt>
      <trkpt lat="45.10391" lon="5.9844">
        <ele>2025.1999511719</ele>
        <time>2024-10-15T08:44:49.000Z</time>
      </trkpt>
      <trkpt lat="45.10391" lon="5.9844">
        <ele>2025.1999511719</ele>
        <time>2024-10-15T08:44:50.000Z</time>
      </trkpt>
      <trkpt lat="45.10391" lon="5.9844">
        <ele>2025.4000244141</ele>
        <time>2024-10-15T08:44:51.000Z</time>
      </trkpt>
      <trkpt lat="45.10391" lon="5.9844">
        <ele>2025.5999755859</ele>
        <time>2024-10-15T08:44:52.000Z</time>
      </trkpt>
      <trkpt lat="45.10391" lon="5.9844">
        <ele>2025.5999755859</ele>
        <time>2024-10-15T08:44:53.000Z</time>
      </trkpt>
      <trkpt lat="45.10391" lon="5.9844">
        <ele>2025.5999755859</ele>
        <time>2024-10-15T08:44:54.000Z</time>
      </trkpt>
      <trkpt lat="45.10391" lon="5.9844">
        <ele>2025.5999755859</ele>
        <time>2024-10-15T08:44:55.000Z</time>
      </trkpt>
      <trkpt lat="45.10391" lon="5.9844">
        <ele>2025.5999755859</ele>
        <time>2024-10-15T08:44:56.000Z</time>
      </trkpt>
      <trkpt lat="45.10391" lon="5.9844">
        <ele>2025.5999755859</ele>
        <time>2024-10-15T08:44:57.000Z</time>
      </trkpt>
      <trkpt lat="45.10391" lon="5.9844">
        <ele>2025</ele>
        <time>2024-10-15T08:44:58.000Z</time>
      </trkpt>
      <trkpt lat="45.10391" lon="5.98439">
        <ele>2024.5999755859</ele>
        <time>2024-10-15T08:44:59.000Z</time>
      </trkpt>
      <trkpt lat="45.10391" lon="5.98439">
        <ele>2024.5999755859</ele>
        <time>2024-10-15T08:45:00.000Z</time>
      </trkpt>
      <trkpt lat="45.10391" lon="5.98439">
        <ele>2024.5999755859</ele>
        <time>2024-10-15T08:45:01.000Z</time>
      </trkpt>
      <trkpt lat="45.10391" lon="5.98439">
        <ele>2024.5999755859</ele>
        <time>2024-10-15T08:45:02.000Z</time>
      </trkpt>
      <trkpt lat="45.10391" lon="5.98439">
        <ele>2024.5999755859</ele>
        <time>2024-10-15T08:45:03.000Z</time>
      </trkpt>
      <trkpt lat="45.10391" lon="5.98439">
        <ele>2024.5999755859</ele>
        <time>2024-10-15T08:45:04.000Z</time>
      </trkpt>
      <trkpt lat="45.10391" lon="5.98439">
        <ele>2024.5999755859</ele>
        <time>2024-10-15T08:45:05.000Z</time>
      </trkpt>
      <trkpt lat="45.10391" lon="5.98439">
        <ele>2024.8000488281</ele>
        <time>2024-10-15T08:45:06.000Z</time>
      </trkpt>
      <trkpt lat="45.1039" lon="5.98439">
        <ele>2025.1999511719</ele>
        <time>2024-10-15T08:45:07.000Z</time>
      </trkpt>
      <trkpt lat="45.1039" lon="5.98439">
        <ele>2025.4000244141</ele>
        <time>2024-10-15T08:45:08.000Z</time>
      </trkpt>
      <trkpt lat="45.1039" lon="5.98439">
        <ele>2025.5999755859</ele>
        <time>2024-10-15T08:45:09.000Z</time>
      </trkpt>
      <trkpt lat="45.1039" lon="5.98439">
        <ele>2025.5999755859</ele>
        <time>2024-10-15T08:45:10.000Z</time>
      </trkpt>
      <trkpt lat="45.10389" lon="5.98439">
        <ele>2025.5999755859</ele>
        <time>2024-10-15T08:45:11.000Z</time>
      </trkpt>
      <trkpt lat="45.10389" lon="5.98439">
        <ele>2025.8000488281</ele>
        <time>2024-10-15T08:45:12.000Z</time>
      </trkpt>
      <trkpt lat="45.10389" lon="5.98439">
        <ele>2025.8000488281</ele>
        <time>2024-10-15T08:45:13.000Z</time>
      </trkpt>
      <trkpt lat="45.10389" lon="5.98439">
        <ele>2025.8000488281</ele>
        <time>2024-10-15T08:45:14.000Z</time>
      </trkpt>
      <trkpt lat="45.10388" lon="5.98439">
        <ele>2025.8000488281</ele>
        <time>2024-10-15T08:45:15.000Z</time>
      </trkpt>
      <trkpt lat="45.10388" lon="5.98439">
        <ele>2025.8000488281</ele>
        <time>2024-10-15T08:45:16.000Z</time>
      </trkpt>
      <trkpt lat="45.10388" lon="5.98439">
        <ele>2025.8000488281</ele>
        <time>2024-10-15T08:45:17.000Z</time>
      </trkpt>
      <trkpt lat="45.10388" lon="5.98439">
        <ele>2025.8000488281</ele>
        <time>2024-10-15T08:45:18.000Z</time>
      </trkpt>
      <trkpt lat="45.10388" lon="5.98439">
        <ele>2025.8000488281</ele>
        <time>2024-10-15T08:45:19.000Z</time>
      </trkpt>
      <trkpt lat="45.10388" lon="5.98439">
        <ele>2025.8000488281</ele>
        <time>2024-10-15T08:45:20.000Z</time>
      </trkpt>
      <trkpt lat="45.10388" lon="5.98439">
        <ele>2026</ele>
        <time>2024-10-15T08:45:21.000Z</time>
      </trkpt>
      <trkpt lat="45.10388" lon="5.9844">
        <ele>2026.4000244141</ele>
        <time>2024-10-15T08:45:22.000Z</time>
      </trkpt>
      <trkpt lat="45.10388" lon="5.9844">
        <ele>2026.8000488281</ele>
        <time>2024-10-15T08:45:23.000Z</time>
      </trkpt>
      <trkpt lat="45.10388" lon="5.9844">
        <ele>2027</ele>
        <time>2024-10-15T08:45:24.000Z</time>
      </trkpt>
      <trkpt lat="45.10388" lon="5.9844">
        <ele>2026.8000488281</ele>
        <time>2024-10-15T08:45:25.000Z</time>
      </trkpt>
      <trkpt lat="45.10387" lon="5.9844">
        <ele>2026.8000488281</ele>
        <time>2024-10-15T08:45:26.000Z</time>
      </trkpt>
      <trkpt lat="45.10387" lon="5.9844">
        <ele>2026.8000488281</ele>
        <time>2024-10-15T08:45:27.000Z</time>
      </trkpt>
      <trkpt lat="45.10387" lon="5.9844">
        <ele>2026.5999755859</ele>
        <time>2024-10-15T08:45:28.000Z</time>
      </trkpt>
      <trkpt lat="45.10387" lon="5.9844">
        <ele>2026.5999755859</ele>
        <time>2024-10-15T08:45:29.000Z</time>
      </trkpt>
      <trkpt lat="45.10387" lon="5.9844">
        <ele>2026.5999755859</ele>
        <time>2024-10-15T08:45:30.000Z</time>
      </trkpt>
      <trkpt lat="45.10387" lon="5.9844">
        <ele>2026.4000244141</ele>
        <time>2024-10-15T08:45:31.000Z</time>
      </trkpt>
      <trkpt lat="45.10387" lon="5.9844">
        <ele>2026.5999755859</ele>
        <time>2024-10-15T08:45:32.000Z</time>
      </trkpt>
      <trkpt lat="45.10387" lon="5.9844">
        <ele>2026.8000488281</ele>
        <time>2024-10-15T08:45:33.000Z</time>
      </trkpt>
      <trkpt lat="45.10387" lon="5.9844">
        <ele>2026.8000488281</ele>
        <time>2024-10-15T08:45:34.000Z</time>
      </trkpt>
      <trkpt lat="45.10387" lon="5.9844">
        <ele>2027</ele>
        <time>2024-10-15T08:45:35.000Z</time>
      </trkpt>
      <trkpt lat="45.10387" lon="5.98441">
        <ele>2027</ele>
        <time>2024-10-15T08:45:36.000Z</time>
      </trkpt>
      <trkpt lat="45.10387" lon="5.98441">
        <ele>2027</ele>
        <time>2024-10-15T08:45:37.000Z</time>
      </trkpt>
      <trkpt lat="45.10387" lon="5.98441">
        <ele>2027</ele>
        <time>2024-10-15T08:45:38.000Z</time>
      </trkpt>
      <trkpt lat="45.10387" lon="5.98442">
        <ele>2026.8000488281</ele>
        <time>2024-10-15T08:45:39.000Z</time>
      </trkpt>
      <trkpt lat="45.10387" lon="5.98442">
        <ele>2026.5999755859</ele>
        <time>2024-10-15T08:45:40.000Z</time>
      </trkpt>
      <trkpt lat="45.10387" lon="5.98443">
        <ele>2026.5999755859</ele>
        <time>2024-10-15T08:45:41.000Z</time>
      </trkpt>
      <trkpt lat="45.10387" lon="5.98443">
        <ele>2026.5999755859</ele>
        <time>2024-10-15T08:45:42.000Z</time>
      </trkpt>
      <trkpt lat="45.10387" lon="5.98443">
        <ele>2026.4000244141</ele>
        <time>2024-10-15T08:45:43.000Z</time>
      </trkpt>
      <trkpt lat="45.10387" lon="5.98443">
        <ele>2026.4000244141</ele>
        <time>2024-10-15T08:45:44.000Z</time>
      </trkpt>
      <trkpt lat="45.10387" lon="5.98443">
        <ele>2026.4000244141</ele>
        <time>2024-10-15T08:45:45.000Z</time>
      </trkpt>
      <trkpt lat="45.10387" lon="5.98443">
        <ele>2026.4000244141</ele>
        <time>2024-10-15T08:45:46.000Z</time>
      </trkpt>
      <trkpt lat="45.10387" lon="5.98443">
        <ele>2026.4000244141</ele>
        <time>2024-10-15T08:45:47.000Z</time>
      </trkpt>
      <trkpt lat="45.10387" lon="5.98443">
        <ele>2026.4000244141</ele>
        <time>2024-10-15T08:45:48.000Z</time>
      </trkpt>
      <trkpt lat="45.10387" lon="5.98443">
        <ele>2026.1999511719</ele>
        <time>2024-10-15T08:45:49.000Z</time>
      </trkpt>
      <trkpt lat="45.10387" lon="5.98443">
        <ele>2026.1999511719</ele>
        <time>2024-10-15T08:45:50.000Z</time>
      </trkpt>
      <trkpt lat="45.10387" lon="5.98443">
        <ele>2026.1999511719</ele>
        <time>2024-10-15T08:45:51.000Z</time>
      </trkpt>
      <trkpt lat="45.10387" lon="5.98444">
        <ele>2026.1999511719</ele>
        <time>2024-10-15T08:45:52.000Z</time>
      </trkpt>
      <trkpt lat="45.10387" lon="5.98444">
        <ele>2026.1999511719</ele>
        <time>2024-10-15T08:45:53.000Z</time>
      </trkpt>
      <trkpt lat="45.10387" lon="5.98444">
        <ele>2026.4000244141</ele>
        <time>2024-10-15T08:45:54.000Z</time>
      </trkpt>
      <trkpt lat="45.10387" lon="5.98444">
        <ele>2026.4000244141</ele>
        <time>2024-10-15T08:45:55.000Z</time>
      </trkpt>
      <trkpt lat="45.10387" lon="5.98444">
        <ele>2026.4000244141</ele>
        <time>2024-10-15T08:45:56.000Z</time>
      </trkpt>
      <trkpt lat="45.10387" lon="5.98444">
        <ele>2026.4000244141</ele>
        <time>2024-10-15T08:45:57.000Z</time>
      </trkpt>
      <trkpt lat="45.10387" lon="5.98444">
        <ele>2026.4000244141</ele>
        <time>2024-10-15T08:45:58.000Z</time>
      </trkpt>
      <trkpt lat="45.10387" lon="5.98444">
        <ele>2026.4000244141</ele>
        <time>2024-10-15T08:45:59.000Z</time>
      </trkpt>
      <trkpt lat="45.10387" lon="5.98444">
        <ele>2026.1999511719</ele>
        <time>2024-10-15T08:46:00.000Z</time>
      </trkpt>
      <trkpt lat="45.10387" lon="5.98444">
        <ele>2026</ele>
        <time>2024-10-15T08:46:01.000Z</time>
      </trkpt>
      <trkpt lat="45.10388" lon="5.98444">
        <ele>2026</ele>
        <time>2024-10-15T08:46:02.000Z</time>
      </trkpt>
      <trkpt lat="45.10388" lon="5.98444">
        <ele>2025.8000488281</ele>
        <time>2024-10-15T08:46:03.000Z</time>
      </trkpt>
      <trkpt lat="45.10388" lon="5.98444">
        <ele>2025.8000488281</ele>
        <time>2024-10-15T08:46:04.000Z</time>
      </trkpt>
      <trkpt lat="45.10388" lon="5.98444">
        <ele>2025.8000488281</ele>
        <time>2024-10-15T08:46:05.000Z</time>
      </trkpt>
      <trkpt lat="45.10388" lon="5.98444">
        <ele>2025.8000488281</ele>
        <time>2024-10-15T08:46:06.000Z</time>
      </trkpt>
      <trkpt lat="45.10388" lon="5.98444">
        <ele>2025.8000488281</ele>
        <time>2024-10-15T08:46:07.000Z</time>
      </trkpt>
      <trkpt lat="45.10388" lon="5.98444">
        <ele>2025.8000488281</ele>
        <time>2024-10-15T08:46:08.000Z</time>
      </trkpt>
      <trkpt lat="45.10388" lon="5.98444">
        <ele>2026</ele>
        <time>2024-10-15T08:46:09.000Z</time>
      </trkpt>
      <trkpt lat="45.10388" lon="5.98444">
        <ele>2026</ele>
        <time>2024-10-15T08:46:10.000Z</time>
      </trkpt>
      <trkpt lat="45.10388" lon="5.98444">
        <ele>2026</ele>
        <time>2024-10-15T08:46:11.000Z</time>
      </trkpt>
      <trkpt lat="45.10388" lon="5.98444">
        <ele>2026</ele>
        <time>2024-10-15T08:46:12.000Z</time>
      </trkpt>
      <trkpt lat="45.10388" lon="5.98444">
        <ele>2026</ele>
        <time>2024-10-15T08:46:13.000Z</time>
      </trkpt>
      <trkpt lat="45.10388" lon="5.98444">
        <ele>2026</ele>
        <time>2024-10-15T08:46:14.000Z</time>
      </trkpt>
      <trkpt lat="45.10388" lon="5.98444">
        <ele>2026</ele>
        <time>2024-10-15T08:46:15.000Z</time>
      </trkpt>
      <trkpt lat="45.10388" lon="5.98444">
        <ele>2026.1999511719</ele>
        <time>2024-10-15T08:46:16.000Z</time>
      </trkpt>
      <trkpt lat="45.10388" lon="5.98444">
        <ele>2026.1999511719</ele>
        <time>2024-10-15T08:46:17.000Z</time>
      </trkpt>
      <trkpt lat="45.10388" lon="5.98444">
        <ele>2026.4000244141</ele>
        <time>2024-10-15T08:46:18.000Z</time>
      </trkpt>
      <trkpt lat="45.10388" lon="5.98444">
        <ele>2026.5999755859</ele>
        <time>2024-10-15T08:46:19.000Z</time>
      </trkpt>
      <trkpt lat="45.10388" lon="5.98444">
        <ele>2026.5999755859</ele>
        <time>2024-10-15T08:46:20.000Z</time>
      </trkpt>
      <trkpt lat="45.10387" lon="5.98444">
        <ele>2026.5999755859</ele>
        <time>2024-10-15T08:46:21.000Z</time>
      </trkpt>
      <trkpt lat="45.10387" lon="5.98444">
        <ele>2026.5999755859</ele>
        <time>2024-10-15T08:46:22.000Z</time>
      </trkpt>
      <trkpt lat="45.10387" lon="5.98444">
        <ele>2026.5999755859</ele>
        <time>2024-10-15T08:46:23.000Z</time>
      </trkpt>
      <trkpt lat="45.10386" lon="5.98444">
        <ele>2026.5999755859</ele>
        <time>2024-10-15T08:46:24.000Z</time>
      </trkpt>
      <trkpt lat="45.10386" lon="5.98444">
        <ele>2026.5999755859</ele>
        <time>2024-10-15T08:46:25.000Z</time>
      </trkpt>
      <trkpt lat="45.10386" lon="5.98444">
        <ele>2026.4000244141</ele>
        <time>2024-10-15T08:46:26.000Z</time>
      </trkpt>
      <trkpt lat="45.10386" lon="5.98444">
        <ele>2026.4000244141</ele>
        <time>2024-10-15T08:46:27.000Z</time>
      </trkpt>
      <trkpt lat="45.10385" lon="5.98444">
        <ele>2026</ele>
        <time>2024-10-15T08:46:28.000Z</time>
      </trkpt>
      <trkpt lat="45.10385" lon="5.98444">
        <ele>2025.8000488281</ele>
        <time>2024-10-15T08:46:29.000Z</time>
      </trkpt>
      <trkpt lat="45.10385" lon="5.98443">
        <ele>2025.5999755859</ele>
        <time>2024-10-15T08:46:30.000Z</time>
      </trkpt>
      <trkpt lat="45.10385" lon="5.98443">
        <ele>2025.5999755859</ele>
        <time>2024-10-15T08:46:31.000Z</time>
      </trkpt>
      <trkpt lat="45.10385" lon="5.98443">
        <ele>2025.5999755859</ele>
        <time>2024-10-15T08:46:32.000Z</time>
      </trkpt>
      <trkpt lat="45.10385" lon="5.98443">
        <ele>2025.5999755859</ele>
        <time>2024-10-15T08:46:33.000Z</time>
      </trkpt>
      <trkpt lat="45.10385" lon="5.98443">
        <ele>2025.4000244141</ele>
        <time>2024-10-15T08:46:34.000Z</time>
      </trkpt>
      <trkpt lat="45.10385" lon="5.98443">
        <ele>2025.4000244141</ele>
        <time>2024-10-15T08:46:35.000Z</time>
      </trkpt>
      <trkpt lat="45.10385" lon="5.98443">
        <ele>2025.4000244141</ele>
        <time>2024-10-15T08:46:36.000Z</time>
      </trkpt>
      <trkpt lat="45.10385" lon="5.98443">
        <ele>2025.4000244141</ele>
        <time>2024-10-15T08:46:37.000Z</time>
      </trkpt>
      <trkpt lat="45.10385" lon="5.98443">
        <ele>2025.1999511719</ele>
        <time>2024-10-15T08:46:38.000Z</time>
      </trkpt>
      <trkpt lat="45.10384" lon="5.98443">
        <ele>2025.1999511719</ele>
        <time>2024-10-15T08:46:39.000Z</time>
      </trkpt>
      <trkpt lat="45.10384" lon="5.98443">
        <ele>2025</ele>
        <time>2024-10-15T08:46:40.000Z</time>
      </trkpt>
      <trkpt lat="45.10384" lon="5.98443">
        <ele>2025</ele>
        <time>2024-10-15T08:46:41.000Z</time>
      </trkpt>
      <trkpt lat="45.10384" lon="5.98443">
        <ele>2025</ele>
        <time>2024-10-15T08:46:42.000Z</time>
      </trkpt>
      <trkpt lat="45.10384" lon="5.98443">
        <ele>2024.5999755859</ele>
        <time>2024-10-15T08:46:43.000Z</time>
      </trkpt>
      <trkpt lat="45.10384" lon="5.98443">
        <ele>2024.4000244141</ele>
        <time>2024-10-15T08:46:44.000Z</time>
      </trkpt>
      <trkpt lat="45.10384" lon="5.98443">
        <ele>2024.1999511719</ele>
        <time>2024-10-15T08:46:45.000Z</time>
      </trkpt>
      <trkpt lat="45.10384" lon="5.98443">
        <ele>2024</ele>
        <time>2024-10-15T08:46:46.000Z</time>
      </trkpt>
      <trkpt lat="45.10384" lon="5.98443">
        <ele>2023.8000488281</ele>
        <time>2024-10-15T08:46:47.000Z</time>
      </trkpt>
      <trkpt lat="45.10384" lon="5.98443">
        <ele>2023.4000244141</ele>
        <time>2024-10-15T08:46:48.000Z</time>
      </trkpt>
      <trkpt lat="45.10384" lon="5.98443">
        <ele>2023.1999511719</ele>
        <time>2024-10-15T08:46:49.000Z</time>
      </trkpt>
      <trkpt lat="45.10384" lon="5.98443">
        <ele>2023.1999511719</ele>
        <time>2024-10-15T08:46:50.000Z</time>
      </trkpt>
      <trkpt lat="45.10384" lon="5.98443">
        <ele>2023.1999511719</ele>
        <time>2024-10-15T08:46:51.000Z</time>
      </trkpt>
      <trkpt lat="45.10384" lon="5.98443">
        <ele>2023.1999511719</ele>
        <time>2024-10-15T08:46:52.000Z</time>
      </trkpt>
      <trkpt lat="45.10384" lon="5.98443">
        <ele>2023.4000244141</ele>
        <time>2024-10-15T08:46:53.000Z</time>
      </trkpt>
      <trkpt lat="45.10384" lon="5.98443">
        <ele>2023.4000244141</ele>
        <time>2024-10-15T08:46:54.000Z</time>
      </trkpt>
      <trkpt lat="45.10384" lon="5.98443">
        <ele>2023.4000244141</ele>
        <time>2024-10-15T08:46:55.000Z</time>
      </trkpt>
      <trkpt lat="45.10384" lon="5.98443">
        <ele>2023.5999755859</ele>
        <time>2024-10-15T08:46:56.000Z</time>
      </trkpt>
      <trkpt lat="45.10384" lon="5.98444">
        <ele>2023.8000488281</ele>
        <time>2024-10-15T08:46:57.000Z</time>
      </trkpt>
      <trkpt lat="45.10384" lon="5.98444">
        <ele>2024</ele>
        <time>2024-10-15T08:46:58.000Z</time>
      </trkpt>
      <trkpt lat="45.10384" lon="5.98444">
        <ele>2024.1999511719</ele>
        <time>2024-10-15T08:46:59.000Z</time>
      </trkpt>
      <trkpt lat="45.10384" lon="5.98444">
        <ele>2024.8000488281</ele>
        <time>2024-10-15T08:47:00.000Z</time>
      </trkpt>
      <trkpt lat="45.10384" lon="5.98445">
        <ele>2025.1999511719</ele>
        <time>2024-10-15T08:47:01.000Z</time>
      </trkpt>
      <trkpt lat="45.10384" lon="5.98445">
        <ele>2025.5999755859</ele>
        <time>2024-10-15T08:47:02.000Z</time>
      </trkpt>
      <trkpt lat="45.10384" lon="5.98446">
        <ele>2025.5999755859</ele>
        <time>2024-10-15T08:47:03.000Z</time>
      </trkpt>
      <trkpt lat="45.10384" lon="5.98446">
        <ele>2025.8000488281</ele>
        <time>2024-10-15T08:47:04.000Z</time>
      </trkpt>
      <trkpt lat="45.10384" lon="5.98447">
        <ele>2026.1999511719</ele>
        <time>2024-10-15T08:47:05.000Z</time>
      </trkpt>
      <trkpt lat="45.10384" lon="5.98447">
        <ele>2026.4000244141</ele>
        <time>2024-10-15T08:47:06.000Z</time>
      </trkpt>
      <trkpt lat="45.10384" lon="5.98447">
        <ele>2026.4000244141</ele>
        <time>2024-10-15T08:47:07.000Z</time>
      </trkpt>
      <trkpt lat="45.10384" lon="5.98448">
        <ele>2026.5999755859</ele>
        <time>2024-10-15T08:47:08.000Z</time>
      </trkpt>
      <trkpt lat="45.10383" lon="5.98448">
        <ele>2027</ele>
        <time>2024-10-15T08:47:09.000Z</time>
      </trkpt>
      <trkpt lat="45.10383" lon="5.98448">
        <ele>2027</ele>
        <time>2024-10-15T08:47:10.000Z</time>
      </trkpt>
      <trkpt lat="45.10383" lon="5.98448">
        <ele>2027</ele>
        <time>2024-10-15T08:47:11.000Z</time>
      </trkpt>
      <trkpt lat="45.10382" lon="5.98448">
        <ele>2027.4000244141</ele>
        <time>2024-10-15T08:47:12.000Z</time>
      </trkpt>
      <trkpt lat="45.10382" lon="5.98448">
        <ele>2027.8000488281</ele>
        <time>2024-10-15T08:47:13.000Z</time>
      </trkpt>
      <trkpt lat="45.10382" lon="5.98448">
        <ele>2028.1999511719</ele>
        <time>2024-10-15T08:47:14.000Z</time>
      </trkpt>
      <trkpt lat="45.10382" lon="5.98448">
        <ele>2028.1999511719</ele>
        <time>2024-10-15T08:47:15.000Z</time>
      </trkpt>
      <trkpt lat="45.10381" lon="5.98448">
        <ele>2028.4000244141</ele>
        <time>2024-10-15T08:47:16.000Z</time>
      </trkpt>
      <trkpt lat="45.10381" lon="5.98448">
        <ele>2028.4000244141</ele>
        <time>2024-10-15T08:47:17.000Z</time>
      </trkpt>
      <trkpt lat="45.10381" lon="5.98448">
        <ele>2028.4000244141</ele>
        <time>2024-10-15T08:47:18.000Z</time>
      </trkpt>
      <trkpt lat="45.10381" lon="5.98448">
        <ele>2028.5999755859</ele>
        <time>2024-10-15T08:47:19.000Z</time>
      </trkpt>
      <trkpt lat="45.1038" lon="5.98448">
        <ele>2028.5999755859</ele>
        <time>2024-10-15T08:47:20.000Z</time>
      </trkpt>
      <trkpt lat="45.1038" lon="5.98449">
        <ele>2028.8000488281</ele>
        <time>2024-10-15T08:47:21.000Z</time>
      </trkpt>
      <trkpt lat="45.1038" lon="5.98449">
        <ele>2028.8000488281</ele>
        <time>2024-10-15T08:47:22.000Z</time>
      </trkpt>
      <trkpt lat="45.1038" lon="5.98449">
        <ele>2029</ele>
        <time>2024-10-15T08:47:23.000Z</time>
      </trkpt>
      <trkpt lat="45.10379" lon="5.98449">
        <ele>2028.8000488281</ele>
        <time>2024-10-15T08:47:24.000Z</time>
      </trkpt>
      <trkpt lat="45.10379" lon="5.98449">
        <ele>2028.8000488281</ele>
        <time>2024-10-15T08:47:25.000Z</time>
      </trkpt>
      <trkpt lat="45.10379" lon="5.98449">
        <ele>2028.8000488281</ele>
        <time>2024-10-15T08:47:26.000Z</time>
      </trkpt>
      <trkpt lat="45.10379" lon="5.98449">
        <ele>2028.8000488281</ele>
        <time>2024-10-15T08:47:27.000Z</time>
      </trkpt>
      <trkpt lat="45.10379" lon="5.98449">
        <ele>2028.8000488281</ele>
        <time>2024-10-15T08:47:28.000Z</time>
      </trkpt>
      <trkpt lat="45.10379" lon="5.98449">
        <ele>2028.8000488281</ele>
        <time>2024-10-15T08:47:29.000Z</time>
      </trkpt>
      <trkpt lat="45.10379" lon="5.98449">
        <ele>2029</ele>
        <time>2024-10-15T08:47:30.000Z</time>
      </trkpt>
      <trkpt lat="45.10379" lon="5.98449">
        <ele>2029.1999511719</ele>
        <time>2024-10-15T08:47:31.000Z</time>
      </trkpt>
      <trkpt lat="45.10379" lon="5.98449">
        <ele>2029.4000244141</ele>
        <time>2024-10-15T08:47:32.000Z</time>
      </trkpt>
      <trkpt lat="45.10378" lon="5.98449">
        <ele>2029.4000244141</ele>
        <time>2024-10-15T08:47:33.000Z</time>
      </trkpt>
      <trkpt lat="45.10378" lon="5.98449">
        <ele>2029.4000244141</ele>
        <time>2024-10-15T08:47:34.000Z</time>
      </trkpt>
      <trkpt lat="45.10378" lon="5.98449">
        <ele>2029.5999755859</ele>
        <time>2024-10-15T08:47:35.000Z</time>
      </trkpt>
      <trkpt lat="45.10378" lon="5.98448">
        <ele>2029.5999755859</ele>
        <time>2024-10-15T08:47:36.000Z</time>
      </trkpt>
      <trkpt lat="45.10378" lon="5.98448">
        <ele>2030</ele>
        <time>2024-10-15T08:47:37.000Z</time>
      </trkpt>
      <trkpt lat="45.10378" lon="5.98448">
        <ele>2030.1999511719</ele>
        <time>2024-10-15T08:47:38.000Z</time>
      </trkpt>
      <trkpt lat="45.10378" lon="5.98448">
        <ele>2030.4000244141</ele>
        <time>2024-10-15T08:47:39.000Z</time>
      </trkpt>
      <trkpt lat="45.10378" lon="5.98448">
        <ele>2030.4000244141</ele>
        <time>2024-10-15T08:47:40.000Z</time>
      </trkpt>
      <trkpt lat="45.10378" lon="5.98448">
        <ele>2030.5999755859</ele>
        <time>2024-10-15T08:47:41.000Z</time>
      </trkpt>
      <trkpt lat="45.10378" lon="5.98448">
        <ele>2030.8000488281</ele>
        <time>2024-10-15T08:47:42.000Z</time>
      </trkpt>
      <trkpt lat="45.10378" lon="5.98448">
        <ele>2030.8000488281</ele>
        <time>2024-10-15T08:47:43.000Z</time>
      </trkpt>
      <trkpt lat="45.10378" lon="5.98448">
        <ele>2031</ele>
        <time>2024-10-15T08:47:44.000Z</time>
      </trkpt>
      <trkpt lat="45.10378" lon="5.98448">
        <ele>2031.1999511719</ele>
        <time>2024-10-15T08:47:45.000Z</time>
      </trkpt>
      <trkpt lat="45.10378" lon="5.98448">
        <ele>2031.4000244141</ele>
        <time>2024-10-15T08:47:46.000Z</time>
      </trkpt>
      <trkpt lat="45.10378" lon="5.98447">
        <ele>2031.5999755859</ele>
        <time>2024-10-15T08:47:47.000Z</time>
      </trkpt>
      <trkpt lat="45.10378" lon="5.98447">
        <ele>2032</ele>
        <time>2024-10-15T08:47:48.000Z</time>
      </trkpt>
      <trkpt lat="45.10378" lon="5.98447">
        <ele>2032.5999755859</ele>
        <time>2024-10-15T08:47:49.000Z</time>
      </trkpt>
      <trkpt lat="45.10378" lon="5.98447">
        <ele>2032.5999755859</ele>
        <time>2024-10-15T08:47:50.000Z</time>
      </trkpt>
      <trkpt lat="45.10378" lon="5.98446">
        <ele>2032.8000488281</ele>
        <time>2024-10-15T08:47:51.000Z</time>
      </trkpt>
      <trkpt lat="45.10378" lon="5.98446">
        <ele>2032.8000488281</ele>
        <time>2024-10-15T08:47:52.000Z</time>
      </trkpt>
      <trkpt lat="45.10378" lon="5.98446">
        <ele>2032.8000488281</ele>
        <time>2024-10-15T08:47:53.000Z</time>
      </trkpt>
      <trkpt lat="45.10378" lon="5.98446">
        <ele>2032.8000488281</ele>
        <time>2024-10-15T08:47:54.000Z</time>
      </trkpt>
      <trkpt lat="45.10378" lon="5.98446">
        <ele>2032.8000488281</ele>
        <time>2024-10-15T08:47:55.000Z</time>
      </trkpt>
      <trkpt lat="45.10378" lon="5.98445">
        <ele>2033</ele>
        <time>2024-10-15T08:47:56.000Z</time>
      </trkpt>
      <trkpt lat="45.10378" lon="5.98445">
        <ele>2033.1999511719</ele>
        <time>2024-10-15T08:47:57.000Z</time>
      </trkpt>
      <trkpt lat="45.10378" lon="5.98445">
        <ele>2033.5999755859</ele>
        <time>2024-10-15T08:47:58.000Z</time>
      </trkpt>
      <trkpt lat="45.10377" lon="5.98445">
        <ele>2033.8000488281</ele>
        <time>2024-10-15T08:47:59.000Z</time>
      </trkpt>
      <trkpt lat="45.10377" lon="5.98445">
        <ele>2034</ele>
        <time>2024-10-15T08:48:00.000Z</time>
      </trkpt>
      <trkpt lat="45.10377" lon="5.98444">
        <ele>2034.1999511719</ele>
        <time>2024-10-15T08:48:01.000Z</time>
      </trkpt>
      <trkpt lat="45.10377" lon="5.98444">
        <ele>2034.4000244141</ele>
        <time>2024-10-15T08:48:02.000Z</time>
      </trkpt>
      <trkpt lat="45.10377" lon="5.98444">
        <ele>2034.5999755859</ele>
        <time>2024-10-15T08:48:03.000Z</time>
      </trkpt>
      <trkpt lat="45.10377" lon="5.98444">
        <ele>2034.8000488281</ele>
        <time>2024-10-15T08:48:04.000Z</time>
      </trkpt>
      <trkpt lat="45.10377" lon="5.98444">
        <ele>2035.1999511719</ele>
        <time>2024-10-15T08:48:05.000Z</time>
      </trkpt>
      <trkpt lat="45.10377" lon="5.98444">
        <ele>2035.4000244141</ele>
        <time>2024-10-15T08:48:06.000Z</time>
      </trkpt>
      <trkpt lat="45.10377" lon="5.98444">
        <ele>2035.5999755859</ele>
        <time>2024-10-15T08:48:07.000Z</time>
      </trkpt>
      <trkpt lat="45.10377" lon="5.98444">
        <ele>2035.8000488281</ele>
        <time>2024-10-15T08:48:08.000Z</time>
      </trkpt>
      <trkpt lat="45.10377" lon="5.98444">
        <ele>2036.1999511719</ele>
        <time>2024-10-15T08:48:09.000Z</time>
      </trkpt>
      <trkpt lat="45.10377" lon="5.98444">
        <ele>2036.1999511719</ele>
        <time>2024-10-15T08:48:10.000Z</time>
      </trkpt>
      <trkpt lat="45.10377" lon="5.98444">
        <ele>2036.4000244141</ele>
        <time>2024-10-15T08:48:11.000Z</time>
      </trkpt>
      <trkpt lat="45.10377" lon="5.98444">
        <ele>2036.8000488281</ele>
        <time>2024-10-15T08:48:12.000Z</time>
      </trkpt>
      <trkpt lat="45.10377" lon="5.98444">
        <ele>2037</ele>
        <time>2024-10-15T08:48:13.000Z</time>
      </trkpt>
      <trkpt lat="45.10377" lon="5.98444">
        <ele>2037</ele>
        <time>2024-10-15T08:48:14.000Z</time>
      </trkpt>
      <trkpt lat="45.10377" lon="5.98444">
        <ele>2037</ele>
        <time>2024-10-15T08:48:15.000Z</time>
      </trkpt>
      <trkpt lat="45.10377" lon="5.98444">
        <ele>2037.1999511719</ele>
        <time>2024-10-15T08:48:16.000Z</time>
      </trkpt>
      <trkpt lat="45.10377" lon="5.98444">
        <ele>2037.1999511719</ele>
        <time>2024-10-15T08:48:17.000Z</time>
      </trkpt>
      <trkpt lat="45.10377" lon="5.98444">
        <ele>2037.1999511719</ele>
        <time>2024-10-15T08:48:18.000Z</time>
      </trkpt>
      <trkpt lat="45.10377" lon="5.98444">
        <ele>2037.1999511719</ele>
        <time>2024-10-15T08:48:19.000Z</time>
      </trkpt>
      <trkpt lat="45.10377" lon="5.98444">
        <ele>2037.1999511719</ele>
        <time>2024-10-15T08:48:20.000Z</time>
      </trkpt>
      <trkpt lat="45.10377" lon="5.98444">
        <ele>2037.1999511719</ele>
        <time>2024-10-15T08:48:21.000Z</time>
      </trkpt>
      <trkpt lat="45.10377" lon="5.98444">
        <ele>2037.1999511719</ele>
        <time>2024-10-15T08:48:22.000Z</time>
      </trkpt>
      <trkpt lat="45.10377" lon="5.98444">
        <ele>2037.4000244141</ele>
        <time>2024-10-15T08:48:23.000Z</time>
      </trkpt>
      <trkpt lat="45.10377" lon="5.98444">
        <ele>2037.4000244141</ele>
        <time>2024-10-15T08:48:24.000Z</time>
      </trkpt>
      <trkpt lat="45.10377" lon="5.98444">
        <ele>2037.4000244141</ele>
        <time>2024-10-15T08:48:25.000Z</time>
      </trkpt>
      <trkpt lat="45.10377" lon="5.98443">
        <ele>2037.4000244141</ele>
        <time>2024-10-15T08:48:26.000Z</time>
      </trkpt>
      <trkpt lat="45.10377" lon="5.98443">
        <ele>2037.4000244141</ele>
        <time>2024-10-15T08:48:27.000Z</time>
      </trkpt>
      <trkpt lat="45.10377" lon="5.98443">
        <ele>2037.4000244141</ele>
        <time>2024-10-15T08:48:28.000Z</time>
      </trkpt>
      <trkpt lat="45.10377" lon="5.98443">
        <ele>2037.4000244141</ele>
        <time>2024-10-15T08:48:29.000Z</time>
      </trkpt>
      <trkpt lat="45.10377" lon="5.98443">
        <ele>2037.4000244141</ele>
        <time>2024-10-15T08:48:30.000Z</time>
      </trkpt>
      <trkpt lat="45.10377" lon="5.98443">
        <ele>2037.4000244141</ele>
        <time>2024-10-15T08:48:31.000Z</time>
      </trkpt>
      <trkpt lat="45.10377" lon="5.98443">
        <ele>2037.4000244141</ele>
        <time>2024-10-15T08:48:32.000Z</time>
      </trkpt>
      <trkpt lat="45.10377" lon="5.98443">
        <ele>2037.4000244141</ele>
        <time>2024-10-15T08:48:33.000Z</time>
      </trkpt>
      <trkpt lat="45.10377" lon="5.98443">
        <ele>2037.4000244141</ele>
        <time>2024-10-15T08:48:34.000Z</time>
      </trkpt>
      <trkpt lat="45.10377" lon="5.98443">
        <ele>2037.4000244141</ele>
        <time>2024-10-15T08:48:35.000Z</time>
      </trkpt>
      <trkpt lat="45.10377" lon="5.98443">
        <ele>2037.4000244141</ele>
        <time>2024-10-15T08:48:36.000Z</time>
      </trkpt>
      <trkpt lat="45.10377" lon="5.98443">
        <ele>2037.4000244141</ele>
        <time>2024-10-15T08:48:37.000Z</time>
      </trkpt>
      <trkpt lat="45.10377" lon="5.98443">
        <ele>2037.4000244141</ele>
        <time>2024-10-15T08:48:38.000Z</time>
      </trkpt>
      <trkpt lat="45.10377" lon="5.98443">
        <ele>2037.4000244141</ele>
        <time>2024-10-15T08:48:39.000Z</time>
      </trkpt>
      <trkpt lat="45.10377" lon="5.98443">
        <ele>2037.4000244141</ele>
        <time>2024-10-15T08:48:40.000Z</time>
      </trkpt>
      <trkpt lat="45.10377" lon="5.98443">
        <ele>2037.4000244141</ele>
        <time>2024-10-15T08:48:41.000Z</time>
      </trkpt>
      <trkpt lat="45.10377" lon="5.98443">
        <ele>2037.4000244141</ele>
        <time>2024-10-15T08:48:42.000Z</time>
      </trkpt>
      <trkpt lat="45.10377" lon="5.98443">
        <ele>2037.4000244141</ele>
        <time>2024-10-15T08:48:43.000Z</time>
      </trkpt>
      <trkpt lat="45.10377" lon="5.98443">
        <ele>2037.5999755859</ele>
        <time>2024-10-15T08:48:44.000Z</time>
      </trkpt>
      <trkpt lat="45.10377" lon="5.98443">
        <ele>2037.5999755859</ele>
        <time>2024-10-15T08:48:45.000Z</time>
      </trkpt>
      <trkpt lat="45.10377" lon="5.98443">
        <ele>2037.5999755859</ele>
        <time>2024-10-15T08:48:46.000Z</time>
      </trkpt>
      <trkpt lat="45.10377" lon="5.98443">
        <ele>2037.5999755859</ele>
        <time>2024-10-15T08:48:47.000Z</time>
      </trkpt>
      <trkpt lat="45.10377" lon="5.98443">
        <ele>2037.5999755859</ele>
        <time>2024-10-15T08:48:48.000Z</time>
      </trkpt>
      <trkpt lat="45.10377" lon="5.98443">
        <ele>2037.5999755859</ele>
        <time>2024-10-15T08:48:49.000Z</time>
      </trkpt>
      <trkpt lat="45.10377" lon="5.98443">
        <ele>2037.4000244141</ele>
        <time>2024-10-15T08:48:50.000Z</time>
      </trkpt>
      <trkpt lat="45.10377" lon="5.98443">
        <ele>2037.4000244141</ele>
        <time>2024-10-15T08:48:51.000Z</time>
      </trkpt>
      <trkpt lat="45.10377" lon="5.98443">
        <ele>2037.4000244141</ele>
        <time>2024-10-15T08:48:52.000Z</time>
      </trkpt>
      <trkpt lat="45.10377" lon="5.98443">
        <ele>2037.4000244141</ele>
        <time>2024-10-15T08:48:53.000Z</time>
      </trkpt>
      <trkpt lat="45.10377" lon="5.98443">
        <ele>2037.4000244141</ele>
        <time>2024-10-15T08:48:54.000Z</time>
      </trkpt>
      <trkpt lat="45.10377" lon="5.98443">
        <ele>2037.1999511719</ele>
        <time>2024-10-15T08:48:55.000Z</time>
      </trkpt>
      <trkpt lat="45.10377" lon="5.98443">
        <ele>2037.1999511719</ele>
        <time>2024-10-15T08:48:56.000Z</time>
      </trkpt>
      <trkpt lat="45.10377" lon="5.98443">
        <ele>2037.1999511719</ele>
        <time>2024-10-15T08:48:57.000Z</time>
      </trkpt>
      <trkpt lat="45.10377" lon="5.98443">
        <ele>2037.1999511719</ele>
        <time>2024-10-15T08:48:58.000Z</time>
      </trkpt>
      <trkpt lat="45.10377" lon="5.98443">
        <ele>2037.1999511719</ele>
        <time>2024-10-15T08:48:59.000Z</time>
      </trkpt>
      <trkpt lat="45.10377" lon="5.98443">
        <ele>2037.4000244141</ele>
        <time>2024-10-15T08:49:00.000Z</time>
      </trkpt>
      <trkpt lat="45.10376" lon="5.98443">
        <ele>2037.4000244141</ele>
        <time>2024-10-15T08:49:01.000Z</time>
      </trkpt>
      <trkpt lat="45.10376" lon="5.98443">
        <ele>2037.5999755859</ele>
        <time>2024-10-15T08:49:02.000Z</time>
      </trkpt>
      <trkpt lat="45.10376" lon="5.98443">
        <ele>2037.5999755859</ele>
        <time>2024-10-15T08:49:03.000Z</time>
      </trkpt>
      <trkpt lat="45.10376" lon="5.98443">
        <ele>2037.5999755859</ele>
        <time>2024-10-15T08:49:04.000Z</time>
      </trkpt>
      <trkpt lat="45.10376" lon="5.98443">
        <ele>2037.5999755859</ele>
        <time>2024-10-15T08:49:05.000Z</time>
      </trkpt>
      <trkpt lat="45.10376" lon="5.98443">
        <ele>2037.4000244141</ele>
        <time>2024-10-15T08:49:06.000Z</time>
      </trkpt>
      <trkpt lat="45.10376" lon="5.98443">
        <ele>2037.4000244141</ele>
        <time>2024-10-15T08:49:07.000Z</time>
      </trkpt>
      <trkpt lat="45.10376" lon="5.98443">
        <ele>2037.1999511719</ele>
        <time>2024-10-15T08:49:08.000Z</time>
      </trkpt>
      <trkpt lat="45.10376" lon="5.98443">
        <ele>2037.1999511719</ele>
        <time>2024-10-15T08:49:09.000Z</time>
      </trkpt>
      <trkpt lat="45.10376" lon="5.98443">
        <ele>2037.1999511719</ele>
        <time>2024-10-15T08:49:10.000Z</time>
      </trkpt>
      <trkpt lat="45.10376" lon="5.98443">
        <ele>2037.1999511719</ele>
        <time>2024-10-15T08:49:11.000Z</time>
      </trkpt>
      <trkpt lat="45.10376" lon="5.98443">
        <ele>2037.1999511719</ele>
        <time>2024-10-15T08:49:12.000Z</time>
      </trkpt>
      <trkpt lat="45.10376" lon="5.98443">
        <ele>2037.1999511719</ele>
        <time>2024-10-15T08:49:13.000Z</time>
      </trkpt>
      <trkpt lat="45.10376" lon="5.98443">
        <ele>2037.1999511719</ele>
        <time>2024-10-15T08:49:14.000Z</time>
      </trkpt>
      <trkpt lat="45.10376" lon="5.98443">
        <ele>2037.4000244141</ele>
        <time>2024-10-15T08:49:15.000Z</time>
      </trkpt>
      <trkpt lat="45.10376" lon="5.98443">
        <ele>2037.4000244141</ele>
        <time>2024-10-15T08:49:16.000Z</time>
      </trkpt>
      <trkpt lat="45.10376" lon="5.98443">
        <ele>2037.4000244141</ele>
        <time>2024-10-15T08:49:17.000Z</time>
      </trkpt>
      <trkpt lat="45.10376" lon="5.98443">
        <ele>2037.4000244141</ele>
        <time>2024-10-15T08:49:18.000Z</time>
      </trkpt>
      <trkpt lat="45.10376" lon="5.98443">
        <ele>2037.1999511719</ele>
        <time>2024-10-15T08:49:19.000Z</time>
      </trkpt>
      <trkpt lat="45.10376" lon="5.98443">
        <ele>2037.1999511719</ele>
        <time>2024-10-15T08:49:20.000Z</time>
      </trkpt>
      <trkpt lat="45.10376" lon="5.98443">
        <ele>2037.1999511719</ele>
        <time>2024-10-15T08:49:21.000Z</time>
      </trkpt>
      <trkpt lat="45.10376" lon="5.98443">
        <ele>2037.1999511719</ele>
        <time>2024-10-15T08:49:22.000Z</time>
      </trkpt>
      <trkpt lat="45.10376" lon="5.98443">
        <ele>2037.1999511719</ele>
        <time>2024-10-15T08:49:23.000Z</time>
      </trkpt>
      <trkpt lat="45.10376" lon="5.98442">
        <ele>2037.4000244141</ele>
        <time>2024-10-15T08:49:24.000Z</time>
      </trkpt>
      <trkpt lat="45.10376" lon="5.98442">
        <ele>2037.4000244141</ele>
        <time>2024-10-15T08:49:25.000Z</time>
      </trkpt>
      <trkpt lat="45.10376" lon="5.98442">
        <ele>2037.4000244141</ele>
        <time>2024-10-15T08:49:26.000Z</time>
      </trkpt>
      <trkpt lat="45.10376" lon="5.98442">
        <ele>2037.4000244141</ele>
        <time>2024-10-15T08:49:27.000Z</time>
      </trkpt>
      <trkpt lat="45.10376" lon="5.98442">
        <ele>2037.4000244141</ele>
        <time>2024-10-15T08:49:28.000Z</time>
      </trkpt>
      <trkpt lat="45.10376" lon="5.98442">
        <ele>2037.5999755859</ele>
        <time>2024-10-15T08:49:29.000Z</time>
      </trkpt>
      <trkpt lat="45.10376" lon="5.98442">
        <ele>2037.5999755859</ele>
        <time>2024-10-15T08:49:30.000Z</time>
      </trkpt>
      <trkpt lat="45.10376" lon="5.98442">
        <ele>2037.5999755859</ele>
        <time>2024-10-15T08:49:31.000Z</time>
      </trkpt>
      <trkpt lat="45.10376" lon="5.98442">
        <ele>2037.5999755859</ele>
        <time>2024-10-15T08:49:32.000Z</time>
      </trkpt>
      <trkpt lat="45.10376" lon="5.98442">
        <ele>2037.5999755859</ele>
        <time>2024-10-15T08:49:33.000Z</time>
      </trkpt>
      <trkpt lat="45.10376" lon="5.98442">
        <ele>2037.8000488281</ele>
        <time>2024-10-15T08:49:34.000Z</time>
      </trkpt>
      <trkpt lat="45.10376" lon="5.98442">
        <ele>2038</ele>
        <time>2024-10-15T08:49:35.000Z</time>
      </trkpt>
      <trkpt lat="45.10376" lon="5.98442">
        <ele>2038.1999511719</ele>
        <time>2024-10-15T08:49:36.000Z</time>
      </trkpt>
      <trkpt lat="45.10376" lon="5.98442">
        <ele>2038.1999511719</ele>
        <time>2024-10-15T08:49:37.000Z</time>
      </trkpt>
      <trkpt lat="45.10376" lon="5.98442">
        <ele>2038.1999511719</ele>
        <time>2024-10-15T08:49:38.000Z</time>
      </trkpt>
      <trkpt lat="45.10376" lon="5.98442">
        <ele>2038.1999511719</ele>
        <time>2024-10-15T08:49:39.000Z</time>
      </trkpt>
      <trkpt lat="45.10376" lon="5.98442">
        <ele>2038.4000244141</ele>
        <time>2024-10-15T08:49:40.000Z</time>
      </trkpt>
      <trkpt lat="45.10376" lon="5.98442">
        <ele>2038.4000244141</ele>
        <time>2024-10-15T08:49:41.000Z</time>
      </trkpt>
      <trkpt lat="45.10376" lon="5.98442">
        <ele>2038.5999755859</ele>
        <time>2024-10-15T08:49:42.000Z</time>
      </trkpt>
      <trkpt lat="45.10376" lon="5.98442">
        <ele>2038.8000488281</ele>
        <time>2024-10-15T08:49:43.000Z</time>
      </trkpt>
      <trkpt lat="45.10376" lon="5.98442">
        <ele>2039</ele>
        <time>2024-10-15T08:49:44.000Z</time>
      </trkpt>
      <trkpt lat="45.10376" lon="5.98442">
        <ele>2039</ele>
        <time>2024-10-15T08:49:45.000Z</time>
      </trkpt>
      <trkpt lat="45.10376" lon="5.98442">
        <ele>2039</ele>
        <time>2024-10-15T08:49:46.000Z</time>
      </trkpt>
      <trkpt lat="45.10376" lon="5.98442">
        <ele>2039.1999511719</ele>
        <time>2024-10-15T08:49:47.000Z</time>
      </trkpt>
      <trkpt lat="45.10376" lon="5.98442">
        <ele>2039.1999511719</ele>
        <time>2024-10-15T08:49:48.000Z</time>
      </trkpt>
      <trkpt lat="45.10376" lon="5.98442">
        <ele>2039.4000244141</ele>
        <time>2024-10-15T08:49:49.000Z</time>
      </trkpt>
      <trkpt lat="45.10376" lon="5.98442">
        <ele>2039.4000244141</ele>
        <time>2024-10-15T08:49:50.000Z</time>
      </trkpt>
      <trkpt lat="45.10376" lon="5.98442">
        <ele>2039.4000244141</ele>
        <time>2024-10-15T08:49:51.000Z</time>
      </trkpt>
      <trkpt lat="45.10376" lon="5.98442">
        <ele>2039.4000244141</ele>
        <time>2024-10-15T08:49:52.000Z</time>
      </trkpt>
      <trkpt lat="45.10376" lon="5.98442">
        <ele>2039.4000244141</ele>
        <time>2024-10-15T08:49:53.000Z</time>
      </trkpt>
      <trkpt lat="45.10376" lon="5.98442">
        <ele>2039.4000244141</ele>
        <time>2024-10-15T08:49:54.000Z</time>
      </trkpt>
      <trkpt lat="45.10376" lon="5.98442">
        <ele>2039</ele>
        <time>2024-10-15T08:49:55.000Z</time>
      </trkpt>
      <trkpt lat="45.10376" lon="5.98442">
        <ele>2038.5999755859</ele>
        <time>2024-10-15T08:49:56.000Z</time>
      </trkpt>
      <trkpt lat="45.10376" lon="5.98442">
        <ele>2038.5999755859</ele>
        <time>2024-10-15T08:49:57.000Z</time>
      </trkpt>
      <trkpt lat="45.10376" lon="5.98442">
        <ele>2038.4000244141</ele>
        <time>2024-10-15T08:49:58.000Z</time>
      </trkpt>
      <trkpt lat="45.10376" lon="5.98442">
        <ele>2038.4000244141</ele>
        <time>2024-10-15T08:49:59.000Z</time>
      </trkpt>
      <trkpt lat="45.10376" lon="5.98442">
        <ele>2038.1999511719</ele>
        <time>2024-10-15T08:50:00.000Z</time>
      </trkpt>
      <trkpt lat="45.10376" lon="5.98442">
        <ele>2038.1999511719</ele>
        <time>2024-10-15T08:50:01.000Z</time>
      </trkpt>
      <trkpt lat="45.10376" lon="5.98442">
        <ele>2038.1999511719</ele>
        <time>2024-10-15T08:50:02.000Z</time>
      </trkpt>
      <trkpt lat="45.10376" lon="5.98442">
        <ele>2038.1999511719</ele>
        <time>2024-10-15T08:50:03.000Z</time>
      </trkpt>
      <trkpt lat="45.10376" lon="5.98442">
        <ele>2038.1999511719</ele>
        <time>2024-10-15T08:50:04.000Z</time>
      </trkpt>
      <trkpt lat="45.10376" lon="5.98442">
        <ele>2038.1999511719</ele>
        <time>2024-10-15T08:50:05.000Z</time>
      </trkpt>
      <trkpt lat="45.10376" lon="5.98442">
        <ele>2038.1999511719</ele>
        <time>2024-10-15T08:50:06.000Z</time>
      </trkpt>
      <trkpt lat="45.10376" lon="5.98442">
        <ele>2038.1999511719</ele>
        <time>2024-10-15T08:50:07.000Z</time>
      </trkpt>
      <trkpt lat="45.10376" lon="5.98442">
        <ele>2038.1999511719</ele>
        <time>2024-10-15T08:50:08.000Z</time>
      </trkpt>
      <trkpt lat="45.10376" lon="5.98442">
        <ele>2038.1999511719</ele>
        <time>2024-10-15T08:50:09.000Z</time>
      </trkpt>
      <trkpt lat="45.10376" lon="5.98442">
        <ele>2038.1999511719</ele>
        <time>2024-10-15T08:50:10.000Z</time>
      </trkpt>
      <trkpt lat="45.10376" lon="5.98442">
        <ele>2038.1999511719</ele>
        <time>2024-10-15T08:50:11.000Z</time>
      </trkpt>
      <trkpt lat="45.10376" lon="5.98442">
        <ele>2038.1999511719</ele>
        <time>2024-10-15T08:50:12.000Z</time>
      </trkpt>
      <trkpt lat="45.10376" lon="5.98442">
        <ele>2038.4000244141</ele>
        <time>2024-10-15T08:50:13.000Z</time>
      </trkpt>
      <trkpt lat="45.10376" lon="5.98442">
        <ele>2038.4000244141</ele>
        <time>2024-10-15T08:50:14.000Z</time>
      </trkpt>
      <trkpt lat="45.10376" lon="5.98442">
        <ele>2038.4000244141</ele>
        <time>2024-10-15T08:50:15.000Z</time>
      </trkpt>
      <trkpt lat="45.10376" lon="5.98442">
        <ele>2038.4000244141</ele>
        <time>2024-10-15T08:50:16.000Z</time>
      </trkpt>
      <trkpt lat="45.10376" lon="5.98442">
        <ele>2038.4000244141</ele>
        <time>2024-10-15T08:50:17.000Z</time>
      </trkpt>
      <trkpt lat="45.10376" lon="5.98442">
        <ele>2038.4000244141</ele>
        <time>2024-10-15T08:50:18.000Z</time>
      </trkpt>
      <trkpt lat="45.10376" lon="5.98442">
        <ele>2038.4000244141</ele>
        <time>2024-10-15T08:50:19.000Z</time>
      </trkpt>
      <trkpt lat="45.10376" lon="5.98442">
        <ele>2038.5999755859</ele>
        <time>2024-10-15T08:50:20.000Z</time>
      </trkpt>
      <trkpt lat="45.10376" lon="5.98442">
        <ele>2038.5999755859</ele>
        <time>2024-10-15T08:50:21.000Z</time>
      </trkpt>
      <trkpt lat="45.10376" lon="5.98442">
        <ele>2038.5999755859</ele>
        <time>2024-10-15T08:50:22.000Z</time>
      </trkpt>
      <trkpt lat="45.10376" lon="5.98442">
        <ele>2038.5999755859</ele>
        <time>2024-10-15T08:50:23.000Z</time>
      </trkpt>
      <trkpt lat="45.10376" lon="5.98442">
        <ele>2038.8000488281</ele>
        <time>2024-10-15T08:50:24.000Z</time>
      </trkpt>
      <trkpt lat="45.10376" lon="5.98442">
        <ele>2038.8000488281</ele>
        <time>2024-10-15T08:50:25.000Z</time>
      </trkpt>
      <trkpt lat="45.10376" lon="5.98442">
        <ele>2038.8000488281</ele>
        <time>2024-10-15T08:50:26.000Z</time>
      </trkpt>
      <trkpt lat="45.10376" lon="5.98442">
        <ele>2038.8000488281</ele>
        <time>2024-10-15T08:50:27.000Z</time>
      </trkpt>
      <trkpt lat="45.10376" lon="5.98442">
        <ele>2038.5999755859</ele>
        <time>2024-10-15T08:50:28.000Z</time>
      </trkpt>
      <trkpt lat="45.10376" lon="5.98442">
        <ele>2038.5999755859</ele>
        <time>2024-10-15T08:50:29.000Z</time>
      </trkpt>
      <trkpt lat="45.10376" lon="5.98442">
        <ele>2038.4000244141</ele>
        <time>2024-10-15T08:50:30.000Z</time>
      </trkpt>
      <trkpt lat="45.10376" lon="5.98442">
        <ele>2038.5999755859</ele>
        <time>2024-10-15T08:50:31.000Z</time>
      </trkpt>
      <trkpt lat="45.10376" lon="5.98442">
        <ele>2038.5999755859</ele>
        <time>2024-10-15T08:50:32.000Z</time>
      </trkpt>
      <trkpt lat="45.10376" lon="5.98442">
        <ele>2038.5999755859</ele>
        <time>2024-10-15T08:50:33.000Z</time>
      </trkpt>
      <trkpt lat="45.10376" lon="5.98442">
        <ele>2039</ele>
        <time>2024-10-15T08:50:34.000Z</time>
      </trkpt>
      <trkpt lat="45.10376" lon="5.98442">
        <ele>2039.1999511719</ele>
        <time>2024-10-15T08:50:35.000Z</time>
      </trkpt>
      <trkpt lat="45.10376" lon="5.98442">
        <ele>2039.1999511719</ele>
        <time>2024-10-15T08:50:36.000Z</time>
      </trkpt>
      <trkpt lat="45.10376" lon="5.98442">
        <ele>2039.1999511719</ele>
        <time>2024-10-15T08:50:37.000Z</time>
      </trkpt>
      <trkpt lat="45.10376" lon="5.98442">
        <ele>2039.1999511719</ele>
        <time>2024-10-15T08:50:38.000Z</time>
      </trkpt>
      <trkpt lat="45.10376" lon="5.98442">
        <ele>2039.1999511719</ele>
        <time>2024-10-15T08:50:39.000Z</time>
      </trkpt>
      <trkpt lat="45.10376" lon="5.98442">
        <ele>2039.4000244141</ele>
        <time>2024-10-15T08:50:40.000Z</time>
      </trkpt>
      <trkpt lat="45.10376" lon="5.98442">
        <ele>2039.4000244141</ele>
        <time>2024-10-15T08:50:41.000Z</time>
      </trkpt>
      <trkpt lat="45.10376" lon="5.98442">
        <ele>2039.4000244141</ele>
        <time>2024-10-15T08:50:42.000Z</time>
      </trkpt>
      <trkpt lat="45.10376" lon="5.98442">
        <ele>2039.5999755859</ele>
        <time>2024-10-15T08:50:43.000Z</time>
      </trkpt>
      <trkpt lat="45.10376" lon="5.98442">
        <ele>2039.5999755859</ele>
        <time>2024-10-15T08:50:44.000Z</time>
      </trkpt>
      <trkpt lat="45.10376" lon="5.98442">
        <ele>2039.8000488281</ele>
        <time>2024-10-15T08:50:45.000Z</time>
      </trkpt>
      <trkpt lat="45.10376" lon="5.98442">
        <ele>2039.8000488281</ele>
        <time>2024-10-15T08:50:46.000Z</time>
      </trkpt>
      <trkpt lat="45.10376" lon="5.98441">
        <ele>2039.8000488281</ele>
        <time>2024-10-15T08:50:47.000Z</time>
      </trkpt>
      <trkpt lat="45.10376" lon="5.98441">
        <ele>2039.8000488281</ele>
        <time>2024-10-15T08:50:48.000Z</time>
      </trkpt>
      <trkpt lat="45.10376" lon="5.98441">
        <ele>2039.8000488281</ele>
        <time>2024-10-15T08:50:49.000Z</time>
      </trkpt>
      <trkpt lat="45.10376" lon="5.98441">
        <ele>2039.8000488281</ele>
        <time>2024-10-15T08:50:50.000Z</time>
      </trkpt>
      <trkpt lat="45.10376" lon="5.98441">
        <ele>2039.8000488281</ele>
        <time>2024-10-15T08:50:51.000Z</time>
      </trkpt>
      <trkpt lat="45.10376" lon="5.98441">
        <ele>2039.8000488281</ele>
        <time>2024-10-15T08:50:52.000Z</time>
      </trkpt>
      <trkpt lat="45.10376" lon="5.98441">
        <ele>2039.8000488281</ele>
        <time>2024-10-15T08:50:53.000Z</time>
      </trkpt>
      <trkpt lat="45.10376" lon="5.98441">
        <ele>2040</ele>
        <time>2024-10-15T08:50:54.000Z</time>
      </trkpt>
      <trkpt lat="45.10376" lon="5.98441">
        <ele>2040.4000244141</ele>
        <time>2024-10-15T08:50:55.000Z</time>
      </trkpt>
      <trkpt lat="45.10376" lon="5.98441">
        <ele>2040.4000244141</ele>
        <time>2024-10-15T08:50:56.000Z</time>
      </trkpt>
      <trkpt lat="45.10376" lon="5.98441">
        <ele>2040.4000244141</ele>
        <time>2024-10-15T08:50:57.000Z</time>
      </trkpt>
      <trkpt lat="45.10376" lon="5.98441">
        <ele>2040.4000244141</ele>
        <time>2024-10-15T08:50:58.000Z</time>
      </trkpt>
      <trkpt lat="45.10376" lon="5.98441">
        <ele>2040.4000244141</ele>
        <time>2024-10-15T08:50:59.000Z</time>
      </trkpt>
      <trkpt lat="45.10376" lon="5.98441">
        <ele>2040.1999511719</ele>
        <time>2024-10-15T08:51:00.000Z</time>
      </trkpt>
      <trkpt lat="45.10376" lon="5.98441">
        <ele>2040.1999511719</ele>
        <time>2024-10-15T08:51:01.000Z</time>
      </trkpt>
      <trkpt lat="45.10376" lon="5.98441">
        <ele>2040.1999511719</ele>
        <time>2024-10-15T08:51:02.000Z</time>
      </trkpt>
      <trkpt lat="45.10376" lon="5.98441">
        <ele>2040</ele>
        <time>2024-10-15T08:51:03.000Z</time>
      </trkpt>
      <trkpt lat="45.10376" lon="5.98441">
        <ele>2040</ele>
        <time>2024-10-15T08:51:04.000Z</time>
      </trkpt>
      <trkpt lat="45.10376" lon="5.98441">
        <ele>2039.8000488281</ele>
        <time>2024-10-15T08:51:05.000Z</time>
      </trkpt>
      <trkpt lat="45.10376" lon="5.98441">
        <ele>2039.8000488281</ele>
        <time>2024-10-15T08:51:06.000Z</time>
      </trkpt>
      <trkpt lat="45.10376" lon="5.98441">
        <ele>2039.8000488281</ele>
        <time>2024-10-15T08:51:07.000Z</time>
      </trkpt>
      <trkpt lat="45.10376" lon="5.98441">
        <ele>2039.5999755859</ele>
        <time>2024-10-15T08:51:08.000Z</time>
      </trkpt>
      <trkpt lat="45.10376" lon="5.98441">
        <ele>2039.5999755859</ele>
        <time>2024-10-15T08:51:09.000Z</time>
      </trkpt>
      <trkpt lat="45.10376" lon="5.98441">
        <ele>2039.5999755859</ele>
        <time>2024-10-15T08:51:10.000Z</time>
      </trkpt>
      <trkpt lat="45.10376" lon="5.98441">
        <ele>2039.5999755859</ele>
        <time>2024-10-15T08:51:11.000Z</time>
      </trkpt>
      <trkpt lat="45.10376" lon="5.98441">
        <ele>2039.5999755859</ele>
        <time>2024-10-15T08:51:12.000Z</time>
      </trkpt>
      <trkpt lat="45.10376" lon="5.98441">
        <ele>2039.5999755859</ele>
        <time>2024-10-15T08:51:13.000Z</time>
      </trkpt>
      <trkpt lat="45.10376" lon="5.98441">
        <ele>2039.5999755859</ele>
        <time>2024-10-15T08:51:14.000Z</time>
      </trkpt>
      <trkpt lat="45.10376" lon="5.98441">
        <ele>2039.5999755859</ele>
        <time>2024-10-15T08:51:15.000Z</time>
      </trkpt>
      <trkpt lat="45.10376" lon="5.98441">
        <ele>2039.5999755859</ele>
        <time>2024-10-15T08:51:16.000Z</time>
      </trkpt>
      <trkpt lat="45.10376" lon="5.98441">
        <ele>2039.5999755859</ele>
        <time>2024-10-15T08:51:17.000Z</time>
      </trkpt>
      <trkpt lat="45.10376" lon="5.98441">
        <ele>2039.5999755859</ele>
        <time>2024-10-15T08:51:18.000Z</time>
      </trkpt>
      <trkpt lat="45.10376" lon="5.98441">
        <ele>2039.5999755859</ele>
        <time>2024-10-15T08:51:19.000Z</time>
      </trkpt>
      <trkpt lat="45.10376" lon="5.98441">
        <ele>2039.8000488281</ele>
        <time>2024-10-15T08:51:20.000Z</time>
      </trkpt>
      <trkpt lat="45.10376" lon="5.98441">
        <ele>2039.8000488281</ele>
        <time>2024-10-15T08:51:21.000Z</time>
      </trkpt>
      <trkpt lat="45.10376" lon="5.98441">
        <ele>2039.8000488281</ele>
        <time>2024-10-15T08:51:22.000Z</time>
      </trkpt>
      <trkpt lat="45.10376" lon="5.98441">
        <ele>2039.8000488281</ele>
        <time>2024-10-15T08:51:23.000Z</time>
      </trkpt>
      <trkpt lat="45.10376" lon="5.98441">
        <ele>2039.8000488281</ele>
        <time>2024-10-15T08:51:24.000Z</time>
      </trkpt>
      <trkpt lat="45.10376" lon="5.98441">
        <ele>2039.8000488281</ele>
        <time>2024-10-15T08:51:25.000Z</time>
      </trkpt>
      <trkpt lat="45.10376" lon="5.98441">
        <ele>2039.8000488281</ele>
        <time>2024-10-15T08:51:26.000Z</time>
      </trkpt>
      <trkpt lat="45.10376" lon="5.98441">
        <ele>2039.5999755859</ele>
        <time>2024-10-15T08:51:27.000Z</time>
      </trkpt>
      <trkpt lat="45.10376" lon="5.98441">
        <ele>2039.4000244141</ele>
        <time>2024-10-15T08:51:28.000Z</time>
      </trkpt>
      <trkpt lat="45.10376" lon="5.98441">
        <ele>2039.4000244141</ele>
        <time>2024-10-15T08:51:29.000Z</time>
      </trkpt>
      <trkpt lat="45.10376" lon="5.98441">
        <ele>2039.4000244141</ele>
        <time>2024-10-15T08:51:30.000Z</time>
      </trkpt>
      <trkpt lat="45.10376" lon="5.98441">
        <ele>2039.4000244141</ele>
        <time>2024-10-15T08:51:31.000Z</time>
      </trkpt>
      <trkpt lat="45.10376" lon="5.98441">
        <ele>2039.4000244141</ele>
        <time>2024-10-15T08:51:32.000Z</time>
      </trkpt>
      <trkpt lat="45.10376" lon="5.98441">
        <ele>2039.5999755859</ele>
        <time>2024-10-15T08:51:33.000Z</time>
      </trkpt>
      <trkpt lat="45.10376" lon="5.98441">
        <ele>2039.5999755859</ele>
        <time>2024-10-15T08:51:34.000Z</time>
      </trkpt>
      <trkpt lat="45.10376" lon="5.98441">
        <ele>2039.8000488281</ele>
        <time>2024-10-15T08:51:35.000Z</time>
      </trkpt>
      <trkpt lat="45.10376" lon="5.98441">
        <ele>2039.8000488281</ele>
        <time>2024-10-15T08:51:36.000Z</time>
      </trkpt>
      <trkpt lat="45.10376" lon="5.98441">
        <ele>2039.8000488281</ele>
        <time>2024-10-15T08:51:37.000Z</time>
      </trkpt>
      <trkpt lat="45.10376" lon="5.98441">
        <ele>2040</ele>
        <time>2024-10-15T08:51:38.000Z</time>
      </trkpt>
      <trkpt lat="45.10376" lon="5.98441">
        <ele>2040</ele>
        <time>2024-10-15T08:51:39.000Z</time>
      </trkpt>
      <trkpt lat="45.10376" lon="5.98441">
        <ele>2040</ele>
        <time>2024-10-15T08:51:40.000Z</time>
      </trkpt>
      <trkpt lat="45.10376" lon="5.98441">
        <ele>2040.1999511719</ele>
        <time>2024-10-15T08:51:41.000Z</time>
      </trkpt>
      <trkpt lat="45.10376" lon="5.98441">
        <ele>2040.1999511719</ele>
        <time>2024-10-15T08:51:42.000Z</time>
      </trkpt>
      <trkpt lat="45.10376" lon="5.98441">
        <ele>2040.1999511719</ele>
        <time>2024-10-15T08:51:43.000Z</time>
      </trkpt>
      <trkpt lat="45.10376" lon="5.98441">
        <ele>2040.1999511719</ele>
        <time>2024-10-15T08:51:44.000Z</time>
      </trkpt>
      <trkpt lat="45.10376" lon="5.98441">
        <ele>2040</ele>
        <time>2024-10-15T08:51:45.000Z</time>
      </trkpt>
      <trkpt lat="45.10376" lon="5.98441">
        <ele>2040</ele>
        <time>2024-10-15T08:51:46.000Z</time>
      </trkpt>
      <trkpt lat="45.10376" lon="5.98441">
        <ele>2040</ele>
        <time>2024-10-15T08:51:47.000Z</time>
      </trkpt>
      <trkpt lat="45.10376" lon="5.98441">
        <ele>2040.1999511719</ele>
        <time>2024-10-15T08:51:48.000Z</time>
      </trkpt>
      <trkpt lat="45.10376" lon="5.98441">
        <ele>2040.1999511719</ele>
        <time>2024-10-15T08:51:49.000Z</time>
      </trkpt>
      <trkpt lat="45.10376" lon="5.98441">
        <ele>2040.1999511719</ele>
        <time>2024-10-15T08:51:50.000Z</time>
      </trkpt>
      <trkpt lat="45.10376" lon="5.98441">
        <ele>2040.1999511719</ele>
        <time>2024-10-15T08:51:51.000Z</time>
      </trkpt>
      <trkpt lat="45.10376" lon="5.98441">
        <ele>2040.1999511719</ele>
        <time>2024-10-15T08:51:52.000Z</time>
      </trkpt>
      <trkpt lat="45.10376" lon="5.98441">
        <ele>2040.1999511719</ele>
        <time>2024-10-15T08:51:53.000Z</time>
      </trkpt>
      <trkpt lat="45.10376" lon="5.98441">
        <ele>2040</ele>
        <time>2024-10-15T08:51:54.000Z</time>
      </trkpt>
      <trkpt lat="45.10376" lon="5.98441">
        <ele>2040</ele>
        <time>2024-10-15T08:51:55.000Z</time>
      </trkpt>
      <trkpt lat="45.10376" lon="5.98441">
        <ele>2040</ele>
        <time>2024-10-15T08:51:56.000Z</time>
      </trkpt>
      <trkpt lat="45.10376" lon="5.98441">
        <ele>2040.1999511719</ele>
        <time>2024-10-15T08:51:57.000Z</time>
      </trkpt>
      <trkpt lat="45.10376" lon="5.98441">
        <ele>2040.1999511719</ele>
        <time>2024-10-15T08:51:58.000Z</time>
      </trkpt>
      <trkpt lat="45.10376" lon="5.98441">
        <ele>2040.1999511719</ele>
        <time>2024-10-15T08:51:59.000Z</time>
      </trkpt>
      <trkpt lat="45.10376" lon="5.98441">
        <ele>2040.1999511719</ele>
        <time>2024-10-15T08:52:00.000Z</time>
      </trkpt>
      <trkpt lat="45.10376" lon="5.98441">
        <ele>2040.1999511719</ele>
        <time>2024-10-15T08:52:01.000Z</time>
      </trkpt>
      <trkpt lat="45.10376" lon="5.98441">
        <ele>2040.1999511719</ele>
        <time>2024-10-15T08:52:02.000Z</time>
      </trkpt>
      <trkpt lat="45.10376" lon="5.98441">
        <ele>2040</ele>
        <time>2024-10-15T08:52:03.000Z</time>
      </trkpt>
      <trkpt lat="45.10376" lon="5.98441">
        <ele>2040</ele>
        <time>2024-10-15T08:52:04.000Z</time>
      </trkpt>
      <trkpt lat="45.10376" lon="5.98441">
        <ele>2040</ele>
        <time>2024-10-15T08:52:05.000Z</time>
      </trkpt>
      <trkpt lat="45.10376" lon="5.9844">
        <ele>2039.8000488281</ele>
        <time>2024-10-15T08:52:06.000Z</time>
      </trkpt>
      <trkpt lat="45.10376" lon="5.9844">
        <ele>2039.8000488281</ele>
        <time>2024-10-15T08:52:07.000Z</time>
      </trkpt>
      <trkpt lat="45.10376" lon="5.9844">
        <ele>2039.8000488281</ele>
        <time>2024-10-15T08:52:08.000Z</time>
      </trkpt>
      <trkpt lat="45.10376" lon="5.9844">
        <ele>2039.8000488281</ele>
        <time>2024-10-15T08:52:09.000Z</time>
      </trkpt>
      <trkpt lat="45.10376" lon="5.9844">
        <ele>2039.8000488281</ele>
        <time>2024-10-15T08:52:10.000Z</time>
      </trkpt>
      <trkpt lat="45.10376" lon="5.9844">
        <ele>2039.8000488281</ele>
        <time>2024-10-15T08:52:11.000Z</time>
      </trkpt>
      <trkpt lat="45.10376" lon="5.9844">
        <ele>2039.8000488281</ele>
        <time>2024-10-15T08:52:12.000Z</time>
      </trkpt>
      <trkpt lat="45.10376" lon="5.9844">
        <ele>2039.8000488281</ele>
        <time>2024-10-15T08:52:13.000Z</time>
      </trkpt>
      <trkpt lat="45.10375" lon="5.9844">
        <ele>2039.8000488281</ele>
        <time>2024-10-15T08:52:14.000Z</time>
      </trkpt>
      <trkpt lat="45.10375" lon="5.9844">
        <ele>2040</ele>
        <time>2024-10-15T08:52:15.000Z</time>
      </trkpt>
      <trkpt lat="45.10375" lon="5.9844">
        <ele>2040</ele>
        <time>2024-10-15T08:52:16.000Z</time>
      </trkpt>
      <trkpt lat="45.10375" lon="5.9844">
        <ele>2040</ele>
        <time>2024-10-15T08:52:17.000Z</time>
      </trkpt>
      <trkpt lat="45.10375" lon="5.9844">
        <ele>2040</ele>
        <time>2024-10-15T08:52:18.000Z</time>
      </trkpt>
      <trkpt lat="45.10375" lon="5.9844">
        <ele>2040.1999511719</ele>
        <time>2024-10-15T08:52:19.000Z</time>
      </trkpt>
      <trkpt lat="45.10375" lon="5.9844">
        <ele>2040.1999511719</ele>
        <time>2024-10-15T08:52:20.000Z</time>
      </trkpt>
      <trkpt lat="45.10375" lon="5.9844">
        <ele>2040.1999511719</ele>
        <time>2024-10-15T08:52:21.000Z</time>
      </trkpt>
      <trkpt lat="45.10375" lon="5.9844">
        <ele>2040.1999511719</ele>
        <time>2024-10-15T08:52:22.000Z</time>
      </trkpt>
      <trkpt lat="45.10375" lon="5.9844">
        <ele>2040.4000244141</ele>
        <time>2024-10-15T08:52:23.000Z</time>
      </trkpt>
      <trkpt lat="45.10375" lon="5.9844">
        <ele>2040.4000244141</ele>
        <time>2024-10-15T08:52:24.000Z</time>
      </trkpt>
      <trkpt lat="45.10375" lon="5.9844">
        <ele>2040.5999755859</ele>
        <time>2024-10-15T08:52:25.000Z</time>
      </trkpt>
      <trkpt lat="45.10375" lon="5.9844">
        <ele>2040.5999755859</ele>
        <time>2024-10-15T08:52:26.000Z</time>
      </trkpt>
      <trkpt lat="45.10375" lon="5.9844">
        <ele>2040.5999755859</ele>
        <time>2024-10-15T08:52:27.000Z</time>
      </trkpt>
      <trkpt lat="45.10375" lon="5.9844">
        <ele>2040.5999755859</ele>
        <time>2024-10-15T08:52:28.000Z</time>
      </trkpt>
      <trkpt lat="45.10375" lon="5.9844">
        <ele>2040.5999755859</ele>
        <time>2024-10-15T08:52:29.000Z</time>
      </trkpt>
      <trkpt lat="45.10375" lon="5.9844">
        <ele>2040.8000488281</ele>
        <time>2024-10-15T08:52:30.000Z</time>
      </trkpt>
      <trkpt lat="45.10375" lon="5.9844">
        <ele>2040.8000488281</ele>
        <time>2024-10-15T08:52:31.000Z</time>
      </trkpt>
      <trkpt lat="45.10375" lon="5.9844">
        <ele>2040.8000488281</ele>
        <time>2024-10-15T08:52:32.000Z</time>
      </trkpt>
      <trkpt lat="45.10375" lon="5.9844">
        <ele>2040.8000488281</ele>
        <time>2024-10-15T08:52:33.000Z</time>
      </trkpt>
      <trkpt lat="45.10375" lon="5.9844">
        <ele>2040.8000488281</ele>
        <time>2024-10-15T08:52:34.000Z</time>
      </trkpt>
      <trkpt lat="45.10375" lon="5.9844">
        <ele>2040.8000488281</ele>
        <time>2024-10-15T08:52:35.000Z</time>
      </trkpt>
      <trkpt lat="45.10375" lon="5.9844">
        <ele>2040.8000488281</ele>
        <time>2024-10-15T08:52:36.000Z</time>
      </trkpt>
      <trkpt lat="45.10375" lon="5.9844">
        <ele>2040.8000488281</ele>
        <time>2024-10-15T08:52:37.000Z</time>
      </trkpt>
      <trkpt lat="45.10375" lon="5.9844">
        <ele>2040.8000488281</ele>
        <time>2024-10-15T08:52:38.000Z</time>
      </trkpt>
      <trkpt lat="45.10375" lon="5.9844">
        <ele>2040.8000488281</ele>
        <time>2024-10-15T08:52:39.000Z</time>
      </trkpt>
      <trkpt lat="45.10375" lon="5.9844">
        <ele>2040.8000488281</ele>
        <time>2024-10-15T08:52:40.000Z</time>
      </trkpt>
      <trkpt lat="45.10375" lon="5.9844">
        <ele>2040.8000488281</ele>
        <time>2024-10-15T08:52:41.000Z</time>
      </trkpt>
      <trkpt lat="45.10375" lon="5.9844">
        <ele>2040.8000488281</ele>
        <time>2024-10-15T08:52:42.000Z</time>
      </trkpt>
      <trkpt lat="45.10375" lon="5.9844">
        <ele>2041</ele>
        <time>2024-10-15T08:52:43.000Z</time>
      </trkpt>
      <trkpt lat="45.10375" lon="5.9844">
        <ele>2041</ele>
        <time>2024-10-15T08:52:44.000Z</time>
      </trkpt>
      <trkpt lat="45.10375" lon="5.9844">
        <ele>2041.1999511719</ele>
        <time>2024-10-15T08:52:45.000Z</time>
      </trkpt>
      <trkpt lat="45.10375" lon="5.9844">
        <ele>2041.1999511719</ele>
        <time>2024-10-15T08:52:46.000Z</time>
      </trkpt>
      <trkpt lat="45.10375" lon="5.9844">
        <ele>2041.1999511719</ele>
        <time>2024-10-15T08:52:47.000Z</time>
      </trkpt>
      <trkpt lat="45.10375" lon="5.9844">
        <ele>2041.1999511719</ele>
        <time>2024-10-15T08:52:48.000Z</time>
      </trkpt>
      <trkpt lat="45.10375" lon="5.9844">
        <ele>2041.1999511719</ele>
        <time>2024-10-15T08:52:49.000Z</time>
      </trkpt>
      <trkpt lat="45.10375" lon="5.9844">
        <ele>2041.1999511719</ele>
        <time>2024-10-15T08:52:50.000Z</time>
      </trkpt>
      <trkpt lat="45.10375" lon="5.9844">
        <ele>2041.1999511719</ele>
        <time>2024-10-15T08:52:51.000Z</time>
      </trkpt>
      <trkpt lat="45.10375" lon="5.9844">
        <ele>2041.1999511719</ele>
        <time>2024-10-15T08:52:52.000Z</time>
      </trkpt>
      <trkpt lat="45.10375" lon="5.9844">
        <ele>2041.1999511719</ele>
        <time>2024-10-15T08:52:53.000Z</time>
      </trkpt>
      <trkpt lat="45.10375" lon="5.9844">
        <ele>2041.1999511719</ele>
        <time>2024-10-15T08:52:54.000Z</time>
      </trkpt>
      <trkpt lat="45.10375" lon="5.9844">
        <ele>2041.1999511719</ele>
        <time>2024-10-15T08:52:55.000Z</time>
      </trkpt>
      <trkpt lat="45.10375" lon="5.9844">
        <ele>2041.1999511719</ele>
        <time>2024-10-15T08:52:56.000Z</time>
      </trkpt>
      <trkpt lat="45.10375" lon="5.9844">
        <ele>2041.4000244141</ele>
        <time>2024-10-15T08:52:57.000Z</time>
      </trkpt>
      <trkpt lat="45.10375" lon="5.9844">
        <ele>2041.4000244141</ele>
        <time>2024-10-15T08:52:58.000Z</time>
      </trkpt>
      <trkpt lat="45.10375" lon="5.9844">
        <ele>2041.4000244141</ele>
        <time>2024-10-15T08:52:59.000Z</time>
      </trkpt>
      <trkpt lat="45.10375" lon="5.9844">
        <ele>2041.8000488281</ele>
        <time>2024-10-15T08:53:00.000Z</time>
      </trkpt>
      <trkpt lat="45.10375" lon="5.9844">
        <ele>2041.8000488281</ele>
        <time>2024-10-15T08:53:01.000Z</time>
      </trkpt>
      <trkpt lat="45.10375" lon="5.9844">
        <ele>2042</ele>
        <time>2024-10-15T08:53:02.000Z</time>
      </trkpt>
      <trkpt lat="45.10375" lon="5.9844">
        <ele>2042</ele>
        <time>2024-10-15T08:53:03.000Z</time>
      </trkpt>
      <trkpt lat="45.10375" lon="5.9844">
        <ele>2042</ele>
        <time>2024-10-15T08:53:04.000Z</time>
      </trkpt>
      <trkpt lat="45.10375" lon="5.9844">
        <ele>2042</ele>
        <time>2024-10-15T08:53:05.000Z</time>
      </trkpt>
      <trkpt lat="45.10375" lon="5.9844">
        <ele>2042</ele>
        <time>2024-10-15T08:53:06.000Z</time>
      </trkpt>
      <trkpt lat="45.10375" lon="5.9844">
        <ele>2042</ele>
        <time>2024-10-15T08:53:07.000Z</time>
      </trkpt>
      <trkpt lat="45.10375" lon="5.9844">
        <ele>2042.1999511719</ele>
        <time>2024-10-15T08:53:08.000Z</time>
      </trkpt>
      <trkpt lat="45.10375" lon="5.9844">
        <ele>2042.1999511719</ele>
        <time>2024-10-15T08:53:09.000Z</time>
      </trkpt>
      <trkpt lat="45.10375" lon="5.9844">
        <ele>2042.4000244141</ele>
        <time>2024-10-15T08:53:10.000Z</time>
      </trkpt>
      <trkpt lat="45.10375" lon="5.9844">
        <ele>2042.4000244141</ele>
        <time>2024-10-15T08:53:11.000Z</time>
      </trkpt>
      <trkpt lat="45.10375" lon="5.9844">
        <ele>2042.4000244141</ele>
        <time>2024-10-15T08:53:12.000Z</time>
      </trkpt>
      <trkpt lat="45.10375" lon="5.9844">
        <ele>2042.4000244141</ele>
        <time>2024-10-15T08:53:13.000Z</time>
      </trkpt>
      <trkpt lat="45.10375" lon="5.9844">
        <ele>2042.4000244141</ele>
        <time>2024-10-15T08:53:14.000Z</time>
      </trkpt>
      <trkpt lat="45.10375" lon="5.9844">
        <ele>2042.4000244141</ele>
        <time>2024-10-15T08:53:15.000Z</time>
      </trkpt>
      <trkpt lat="45.10375" lon="5.9844">
        <ele>2042.1999511719</ele>
        <time>2024-10-15T08:53:16.000Z</time>
      </trkpt>
      <trkpt lat="45.10375" lon="5.9844">
        <ele>2042</ele>
        <time>2024-10-15T08:53:17.000Z</time>
      </trkpt>
      <trkpt lat="45.10375" lon="5.9844">
        <ele>2041.8000488281</ele>
        <time>2024-10-15T08:53:18.000Z</time>
      </trkpt>
      <trkpt lat="45.10375" lon="5.9844">
        <ele>2041.8000488281</ele>
        <time>2024-10-15T08:53:19.000Z</time>
      </trkpt>
      <trkpt lat="45.10375" lon="5.9844">
        <ele>2041.8000488281</ele>
        <time>2024-10-15T08:53:20.000Z</time>
      </trkpt>
      <trkpt lat="45.10375" lon="5.9844">
        <ele>2041.8000488281</ele>
        <time>2024-10-15T08:53:21.000Z</time>
      </trkpt>
      <trkpt lat="45.10375" lon="5.9844">
        <ele>2041.5999755859</ele>
        <time>2024-10-15T08:53:22.000Z</time>
      </trkpt>
      <trkpt lat="45.10375" lon="5.9844">
        <ele>2041.8000488281</ele>
        <time>2024-10-15T08:53:23.000Z</time>
      </trkpt>
      <trkpt lat="45.10375" lon="5.9844">
        <ele>2041.8000488281</ele>
        <time>2024-10-15T08:53:24.000Z</time>
      </trkpt>
      <trkpt lat="45.10375" lon="5.9844">
        <ele>2041.8000488281</ele>
        <time>2024-10-15T08:53:25.000Z</time>
      </trkpt>
      <trkpt lat="45.10375" lon="5.9844">
        <ele>2042</ele>
        <time>2024-10-15T08:53:26.000Z</time>
      </trkpt>
      <trkpt lat="45.10375" lon="5.9844">
        <ele>2042.1999511719</ele>
        <time>2024-10-15T08:53:27.000Z</time>
      </trkpt>
      <trkpt lat="45.10375" lon="5.9844">
        <ele>2042.4000244141</ele>
        <time>2024-10-15T08:53:28.000Z</time>
      </trkpt>
      <trkpt lat="45.10375" lon="5.9844">
        <ele>2042.4000244141</ele>
        <time>2024-10-15T08:53:29.000Z</time>
      </trkpt>
      <trkpt lat="45.10375" lon="5.9844">
        <ele>2042.5999755859</ele>
        <time>2024-10-15T08:53:30.000Z</time>
      </trkpt>
      <trkpt lat="45.10375" lon="5.9844">
        <ele>2043</ele>
        <time>2024-10-15T08:53:31.000Z</time>
      </trkpt>
      <trkpt lat="45.10375" lon="5.9844">
        <ele>2043.1999511719</ele>
        <time>2024-10-15T08:53:32.000Z</time>
      </trkpt>
      <trkpt lat="45.10375" lon="5.9844">
        <ele>2043.4000244141</ele>
        <time>2024-10-15T08:53:33.000Z</time>
      </trkpt>
      <trkpt lat="45.10375" lon="5.9844">
        <ele>2043.4000244141</ele>
        <time>2024-10-15T08:53:34.000Z</time>
      </trkpt>
      <trkpt lat="45.10375" lon="5.9844">
        <ele>2043.5999755859</ele>
        <time>2024-10-15T08:53:35.000Z</time>
      </trkpt>
      <trkpt lat="45.10375" lon="5.9844">
        <ele>2043.5999755859</ele>
        <time>2024-10-15T08:53:36.000Z</time>
      </trkpt>
      <trkpt lat="45.10375" lon="5.9844">
        <ele>2043.5999755859</ele>
        <time>2024-10-15T08:53:37.000Z</time>
      </trkpt>
      <trkpt lat="45.10375" lon="5.9844">
        <ele>2043.5999755859</ele>
        <time>2024-10-15T08:53:38.000Z</time>
      </trkpt>
      <trkpt lat="45.10375" lon="5.9844">
        <ele>2043.4000244141</ele>
        <time>2024-10-15T08:53:39.000Z</time>
      </trkpt>
      <trkpt lat="45.10375" lon="5.9844">
        <ele>2043</ele>
        <time>2024-10-15T08:53:40.000Z</time>
      </trkpt>
      <trkpt lat="45.10375" lon="5.9844">
        <ele>2043</ele>
        <time>2024-10-15T08:53:41.000Z</time>
      </trkpt>
      <trkpt lat="45.10375" lon="5.9844">
        <ele>2043</ele>
        <time>2024-10-15T08:53:42.000Z</time>
      </trkpt>
      <trkpt lat="45.10375" lon="5.9844">
        <ele>2043</ele>
        <time>2024-10-15T08:53:43.000Z</time>
      </trkpt>
      <trkpt lat="45.10375" lon="5.9844">
        <ele>2043</ele>
        <time>2024-10-15T08:53:44.000Z</time>
      </trkpt>
      <trkpt lat="45.10375" lon="5.9844">
        <ele>2043</ele>
        <time>2024-10-15T08:53:45.000Z</time>
      </trkpt>
      <trkpt lat="45.10375" lon="5.9844">
        <ele>2042.8000488281</ele>
        <time>2024-10-15T08:53:46.000Z</time>
      </trkpt>
      <trkpt lat="45.10375" lon="5.9844">
        <ele>2042.8000488281</ele>
        <time>2024-10-15T08:53:47.000Z</time>
      </trkpt>
      <trkpt lat="45.10375" lon="5.9844">
        <ele>2042.8000488281</ele>
        <time>2024-10-15T08:53:48.000Z</time>
      </trkpt>
      <trkpt lat="45.10375" lon="5.98439">
        <ele>2042.8000488281</ele>
        <time>2024-10-15T08:53:49.000Z</time>
      </trkpt>
      <trkpt lat="45.10375" lon="5.98439">
        <ele>2042.8000488281</ele>
        <time>2024-10-15T08:53:50.000Z</time>
      </trkpt>
      <trkpt lat="45.10375" lon="5.98439">
        <ele>2042.8000488281</ele>
        <time>2024-10-15T08:53:51.000Z</time>
      </trkpt>
      <trkpt lat="45.10375" lon="5.98439">
        <ele>2042.8000488281</ele>
        <time>2024-10-15T08:53:52.000Z</time>
      </trkpt>
      <trkpt lat="45.10375" lon="5.98439">
        <ele>2042.8000488281</ele>
        <time>2024-10-15T08:53:53.000Z</time>
      </trkpt>
      <trkpt lat="45.10375" lon="5.98439">
        <ele>2042.8000488281</ele>
        <time>2024-10-15T08:53:54.000Z</time>
      </trkpt>
      <trkpt lat="45.10375" lon="5.98439">
        <ele>2042.8000488281</ele>
        <time>2024-10-15T08:53:55.000Z</time>
      </trkpt>
      <trkpt lat="45.10375" lon="5.98439">
        <ele>2042.8000488281</ele>
        <time>2024-10-15T08:53:56.000Z</time>
      </trkpt>
      <trkpt lat="45.10375" lon="5.98439">
        <ele>2042.8000488281</ele>
        <time>2024-10-15T08:53:57.000Z</time>
      </trkpt>
      <trkpt lat="45.10375" lon="5.98439">
        <ele>2042.8000488281</ele>
        <time>2024-10-15T08:53:58.000Z</time>
      </trkpt>
      <trkpt lat="45.10375" lon="5.98439">
        <ele>2042.5999755859</ele>
        <time>2024-10-15T08:53:59.000Z</time>
      </trkpt>
      <trkpt lat="45.10375" lon="5.98439">
        <ele>2042.5999755859</ele>
        <time>2024-10-15T08:54:00.000Z</time>
      </trkpt>
      <trkpt lat="45.10375" lon="5.98439">
        <ele>2042.4000244141</ele>
        <time>2024-10-15T08:54:01.000Z</time>
      </trkpt>
      <trkpt lat="45.10375" lon="5.98439">
        <ele>2042.4000244141</ele>
        <time>2024-10-15T08:54:02.000Z</time>
      </trkpt>
      <trkpt lat="45.10375" lon="5.98439">
        <ele>2042.4000244141</ele>
        <time>2024-10-15T08:54:03.000Z</time>
      </trkpt>
      <trkpt lat="45.10375" lon="5.98439">
        <ele>2042.4000244141</ele>
        <time>2024-10-15T08:54:04.000Z</time>
      </trkpt>
      <trkpt lat="45.10375" lon="5.98439">
        <ele>2042.4000244141</ele>
        <time>2024-10-15T08:54:05.000Z</time>
      </trkpt>
      <trkpt lat="45.10375" lon="5.98439">
        <ele>2042.4000244141</ele>
        <time>2024-10-15T08:54:06.000Z</time>
      </trkpt>
      <trkpt lat="45.10375" lon="5.98439">
        <ele>2042.4000244141</ele>
        <time>2024-10-15T08:54:07.000Z</time>
      </trkpt>
      <trkpt lat="45.10375" lon="5.98439">
        <ele>2042.4000244141</ele>
        <time>2024-10-15T08:54:08.000Z</time>
      </trkpt>
      <trkpt lat="45.10375" lon="5.98439">
        <ele>2042.4000244141</ele>
        <time>2024-10-15T08:54:09.000Z</time>
      </trkpt>
      <trkpt lat="45.10375" lon="5.98439">
        <ele>2042.4000244141</ele>
        <time>2024-10-15T08:54:10.000Z</time>
      </trkpt>
      <trkpt lat="45.10375" lon="5.98439">
        <ele>2042.4000244141</ele>
        <time>2024-10-15T08:54:11.000Z</time>
      </trkpt>
      <trkpt lat="45.10375" lon="5.98439">
        <ele>2042.5999755859</ele>
        <time>2024-10-15T08:54:12.000Z</time>
      </trkpt>
      <trkpt lat="45.10375" lon="5.98439">
        <ele>2042.5999755859</ele>
        <time>2024-10-15T08:54:13.000Z</time>
      </trkpt>
      <trkpt lat="45.10375" lon="5.98439">
        <ele>2042.8000488281</ele>
        <time>2024-10-15T08:54:14.000Z</time>
      </trkpt>
      <trkpt lat="45.10375" lon="5.98439">
        <ele>2042.8000488281</ele>
        <time>2024-10-15T08:54:15.000Z</time>
      </trkpt>
      <trkpt lat="45.10375" lon="5.98439">
        <ele>2043</ele>
        <time>2024-10-15T08:54:16.000Z</time>
      </trkpt>
      <trkpt lat="45.10375" lon="5.98439">
        <ele>2043</ele>
        <time>2024-10-15T08:54:17.000Z</time>
      </trkpt>
      <trkpt lat="45.10375" lon="5.98439">
        <ele>2043</ele>
        <time>2024-10-15T08:54:18.000Z</time>
      </trkpt>
      <trkpt lat="45.10375" lon="5.98439">
        <ele>2043</ele>
        <time>2024-10-15T08:54:19.000Z</time>
      </trkpt>
      <trkpt lat="45.10375" lon="5.98439">
        <ele>2043</ele>
        <time>2024-10-15T08:54:20.000Z</time>
      </trkpt>
      <trkpt lat="45.10375" lon="5.98439">
        <ele>2043</ele>
        <time>2024-10-15T08:54:21.000Z</time>
      </trkpt>
      <trkpt lat="45.10375" lon="5.98439">
        <ele>2043.4000244141</ele>
        <time>2024-10-15T08:54:22.000Z</time>
      </trkpt>
      <trkpt lat="45.10375" lon="5.98439">
        <ele>2043.4000244141</ele>
        <time>2024-10-15T08:54:23.000Z</time>
      </trkpt>
      <trkpt lat="45.10375" lon="5.98439">
        <ele>2043.4000244141</ele>
        <time>2024-10-15T08:54:24.000Z</time>
      </trkpt>
      <trkpt lat="45.10375" lon="5.98439">
        <ele>2043.4000244141</ele>
        <time>2024-10-15T08:54:25.000Z</time>
      </trkpt>
      <trkpt lat="45.10375" lon="5.98439">
        <ele>2043.4000244141</ele>
        <time>2024-10-15T08:54:26.000Z</time>
      </trkpt>
      <trkpt lat="45.10375" lon="5.98439">
        <ele>2043.4000244141</ele>
        <time>2024-10-15T08:54:27.000Z</time>
      </trkpt>
      <trkpt lat="45.10375" lon="5.98439">
        <ele>2043.4000244141</ele>
        <time>2024-10-15T08:54:28.000Z</time>
      </trkpt>
      <trkpt lat="45.10375" lon="5.98439">
        <ele>2043.4000244141</ele>
        <time>2024-10-15T08:54:29.000Z</time>
      </trkpt>
      <trkpt lat="45.10375" lon="5.98439">
        <ele>2043.4000244141</ele>
        <time>2024-10-15T08:54:30.000Z</time>
      </trkpt>
      <trkpt lat="45.10375" lon="5.98439">
        <ele>2043.1999511719</ele>
        <time>2024-10-15T08:54:31.000Z</time>
      </trkpt>
      <trkpt lat="45.10375" lon="5.98439">
        <ele>2042.8000488281</ele>
        <time>2024-10-15T08:54:32.000Z</time>
      </trkpt>
      <trkpt lat="45.10375" lon="5.98439">
        <ele>2042.5999755859</ele>
        <time>2024-10-15T08:54:33.000Z</time>
      </trkpt>
      <trkpt lat="45.10375" lon="5.98439">
        <ele>2042.5999755859</ele>
        <time>2024-10-15T08:54:34.000Z</time>
      </trkpt>
      <trkpt lat="45.10375" lon="5.98439">
        <ele>2042.4000244141</ele>
        <time>2024-10-15T08:54:35.000Z</time>
      </trkpt>
      <trkpt lat="45.10375" lon="5.98439">
        <ele>2042.4000244141</ele>
        <time>2024-10-15T08:54:36.000Z</time>
      </trkpt>
      <trkpt lat="45.10375" lon="5.98439">
        <ele>2042.4000244141</ele>
        <time>2024-10-15T08:54:37.000Z</time>
      </trkpt>
      <trkpt lat="45.10375" lon="5.98439">
        <ele>2042.4000244141</ele>
        <time>2024-10-15T08:54:38.000Z</time>
      </trkpt>
      <trkpt lat="45.10375" lon="5.98439">
        <ele>2042.4000244141</ele>
        <time>2024-10-15T08:54:39.000Z</time>
      </trkpt>
      <trkpt lat="45.10375" lon="5.98439">
        <ele>2042.4000244141</ele>
        <time>2024-10-15T08:54:40.000Z</time>
      </trkpt>
      <trkpt lat="45.10375" lon="5.98439">
        <ele>2042.4000244141</ele>
        <time>2024-10-15T08:54:41.000Z</time>
      </trkpt>
      <trkpt lat="45.10375" lon="5.98439">
        <ele>2042.4000244141</ele>
        <time>2024-10-15T08:54:42.000Z</time>
      </trkpt>
      <trkpt lat="45.10375" lon="5.98439">
        <ele>2042.4000244141</ele>
        <time>2024-10-15T08:54:43.000Z</time>
      </trkpt>
      <trkpt lat="45.10375" lon="5.98439">
        <ele>2042.4000244141</ele>
        <time>2024-10-15T08:54:44.000Z</time>
      </trkpt>
      <trkpt lat="45.10375" lon="5.98439">
        <ele>2042.5999755859</ele>
        <time>2024-10-15T08:54:45.000Z</time>
      </trkpt>
      <trkpt lat="45.10375" lon="5.98439">
        <ele>2042.5999755859</ele>
        <time>2024-10-15T08:54:46.000Z</time>
      </trkpt>
      <trkpt lat="45.10375" lon="5.98439">
        <ele>2042.5999755859</ele>
        <time>2024-10-15T08:54:47.000Z</time>
      </trkpt>
      <trkpt lat="45.10375" lon="5.98439">
        <ele>2042.5999755859</ele>
        <time>2024-10-15T08:54:48.000Z</time>
      </trkpt>
      <trkpt lat="45.10375" lon="5.98439">
        <ele>2042.8000488281</ele>
        <time>2024-10-15T08:54:49.000Z</time>
      </trkpt>
      <trkpt lat="45.10375" lon="5.98439">
        <ele>2043</ele>
        <time>2024-10-15T08:54:50.000Z</time>
      </trkpt>
      <trkpt lat="45.10375" lon="5.98439">
        <ele>2043</ele>
        <time>2024-10-15T08:54:51.000Z</time>
      </trkpt>
      <trkpt lat="45.10375" lon="5.98439">
        <ele>2043</ele>
        <time>2024-10-15T08:54:52.000Z</time>
      </trkpt>
      <trkpt lat="45.10375" lon="5.98439">
        <ele>2043</ele>
        <time>2024-10-15T08:54:53.000Z</time>
      </trkpt>
      <trkpt lat="45.10375" lon="5.98439">
        <ele>2043.1999511719</ele>
        <time>2024-10-15T08:54:54.000Z</time>
      </trkpt>
      <trkpt lat="45.10375" lon="5.98439">
        <ele>2043.1999511719</ele>
        <time>2024-10-15T08:54:55.000Z</time>
      </trkpt>
      <trkpt lat="45.10375" lon="5.98439">
        <ele>2043.1999511719</ele>
        <time>2024-10-15T08:54:56.000Z</time>
      </trkpt>
      <trkpt lat="45.10375" lon="5.98439">
        <ele>2043.1999511719</ele>
        <time>2024-10-15T08:54:57.000Z</time>
      </trkpt>
      <trkpt lat="45.10375" lon="5.98439">
        <ele>2043.4000244141</ele>
        <time>2024-10-15T08:54:58.000Z</time>
      </trkpt>
      <trkpt lat="45.10375" lon="5.98439">
        <ele>2043.4000244141</ele>
        <time>2024-10-15T08:54:59.000Z</time>
      </trkpt>
      <trkpt lat="45.10375" lon="5.98439">
        <ele>2043.5999755859</ele>
        <time>2024-10-15T08:55:00.000Z</time>
      </trkpt>
      <trkpt lat="45.10375" lon="5.98439">
        <ele>2043.8000488281</ele>
        <time>2024-10-15T08:55:01.000Z</time>
      </trkpt>
      <trkpt lat="45.10375" lon="5.98439">
        <ele>2043.8000488281</ele>
        <time>2024-10-15T08:55:02.000Z</time>
      </trkpt>
      <trkpt lat="45.10375" lon="5.98439">
        <ele>2043.8000488281</ele>
        <time>2024-10-15T08:55:03.000Z</time>
      </trkpt>
      <trkpt lat="45.10375" lon="5.98439">
        <ele>2044</ele>
        <time>2024-10-15T08:55:04.000Z</time>
      </trkpt>
      <trkpt lat="45.10375" lon="5.98439">
        <ele>2044</ele>
        <time>2024-10-15T08:55:05.000Z</time>
      </trkpt>
      <trkpt lat="45.10375" lon="5.98439">
        <ele>2043.8000488281</ele>
        <time>2024-10-15T08:55:06.000Z</time>
      </trkpt>
      <trkpt lat="45.10375" lon="5.98439">
        <ele>2043.8000488281</ele>
        <time>2024-10-15T08:55:07.000Z</time>
      </trkpt>
      <trkpt lat="45.10375" lon="5.98439">
        <ele>2043.8000488281</ele>
        <time>2024-10-15T08:55:08.000Z</time>
      </trkpt>
      <trkpt lat="45.10375" lon="5.98439">
        <ele>2043.5999755859</ele>
        <time>2024-10-15T08:55:09.000Z</time>
      </trkpt>
      <trkpt lat="45.10375" lon="5.98439">
        <ele>2043.5999755859</ele>
        <time>2024-10-15T08:55:10.000Z</time>
      </trkpt>
      <trkpt lat="45.10375" lon="5.98439">
        <ele>2043.4000244141</ele>
        <time>2024-10-15T08:55:11.000Z</time>
      </trkpt>
      <trkpt lat="45.10375" lon="5.98439">
        <ele>2043.4000244141</ele>
        <time>2024-10-15T08:55:12.000Z</time>
      </trkpt>
      <trkpt lat="45.10375" lon="5.98439">
        <ele>2043.4000244141</ele>
        <time>2024-10-15T08:55:13.000Z</time>
      </trkpt>
      <trkpt lat="45.10375" lon="5.98439">
        <ele>2043.4000244141</ele>
        <time>2024-10-15T08:55:14.000Z</time>
      </trkpt>
      <trkpt lat="45.10375" lon="5.98439">
        <ele>2043.4000244141</ele>
        <time>2024-10-15T08:55:15.000Z</time>
      </trkpt>
      <trkpt lat="45.10375" lon="5.98439">
        <ele>2043.4000244141</ele>
        <time>2024-10-15T08:55:16.000Z</time>
      </trkpt>
      <trkpt lat="45.10375" lon="5.98439">
        <ele>2043.5999755859</ele>
        <time>2024-10-15T08:55:17.000Z</time>
      </trkpt>
      <trkpt lat="45.10375" lon="5.98439">
        <ele>2043.5999755859</ele>
        <time>2024-10-15T08:55:18.000Z</time>
      </trkpt>
      <trkpt lat="45.10375" lon="5.98439">
        <ele>2043.5999755859</ele>
        <time>2024-10-15T08:55:19.000Z</time>
      </trkpt>
      <trkpt lat="45.10375" lon="5.98439">
        <ele>2043.8000488281</ele>
        <time>2024-10-15T08:55:20.000Z</time>
      </trkpt>
      <trkpt lat="45.10375" lon="5.98439">
        <ele>2043.8000488281</ele>
        <time>2024-10-15T08:55:21.000Z</time>
      </trkpt>
      <trkpt lat="45.10375" lon="5.98439">
        <ele>2043.8000488281</ele>
        <time>2024-10-15T08:55:22.000Z</time>
      </trkpt>
      <trkpt lat="45.10375" lon="5.98439">
        <ele>2043.8000488281</ele>
        <time>2024-10-15T08:55:23.000Z</time>
      </trkpt>
      <trkpt lat="45.10375" lon="5.98439">
        <ele>2043.8000488281</ele>
        <time>2024-10-15T08:55:24.000Z</time>
      </trkpt>
      <trkpt lat="45.10375" lon="5.98439">
        <ele>2043.4000244141</ele>
        <time>2024-10-15T08:55:25.000Z</time>
      </trkpt>
      <trkpt lat="45.10375" lon="5.98439">
        <ele>2043.1999511719</ele>
        <time>2024-10-15T08:55:26.000Z</time>
      </trkpt>
      <trkpt lat="45.10375" lon="5.98439">
        <ele>2043.1999511719</ele>
        <time>2024-10-15T08:55:27.000Z</time>
      </trkpt>
      <trkpt lat="45.10375" lon="5.98439">
        <ele>2042.8000488281</ele>
        <time>2024-10-15T08:55:28.000Z</time>
      </trkpt>
      <trkpt lat="45.10375" lon="5.98439">
        <ele>2042.4000244141</ele>
        <time>2024-10-15T08:55:29.000Z</time>
      </trkpt>
      <trkpt lat="45.10375" lon="5.98439">
        <ele>2042.4000244141</ele>
        <time>2024-10-15T08:55:30.000Z</time>
      </trkpt>
      <trkpt lat="45.10375" lon="5.98439">
        <ele>2042.4000244141</ele>
        <time>2024-10-15T08:55:31.000Z</time>
      </trkpt>
      <trkpt lat="45.10375" lon="5.98439">
        <ele>2042.4000244141</ele>
        <time>2024-10-15T08:55:32.000Z</time>
      </trkpt>
      <trkpt lat="45.10375" lon="5.98439">
        <ele>2042.1999511719</ele>
        <time>2024-10-15T08:55:33.000Z</time>
      </trkpt>
      <trkpt lat="45.10375" lon="5.98439">
        <ele>2041.8000488281</ele>
        <time>2024-10-15T08:55:34.000Z</time>
      </trkpt>
      <trkpt lat="45.10375" lon="5.98439">
        <ele>2041.8000488281</ele>
        <time>2024-10-15T08:55:35.000Z</time>
      </trkpt>
      <trkpt lat="45.10375" lon="5.98439">
        <ele>2041.8000488281</ele>
        <time>2024-10-15T08:55:36.000Z</time>
      </trkpt>
      <trkpt lat="45.10375" lon="5.98439">
        <ele>2041.8000488281</ele>
        <time>2024-10-15T08:55:37.000Z</time>
      </trkpt>
      <trkpt lat="45.10375" lon="5.98438">
        <ele>2041.8000488281</ele>
        <time>2024-10-15T08:55:38.000Z</time>
      </trkpt>
      <trkpt lat="45.10374" lon="5.98437">
        <ele>2041.8000488281</ele>
        <time>2024-10-15T08:55:39.000Z</time>
      </trkpt>
      <trkpt lat="45.10372" lon="5.98434">
        <ele>2041.8000488281</ele>
        <time>2024-10-15T08:55:40.000Z</time>
      </trkpt>
      <trkpt lat="45.10371" lon="5.98432">
        <ele>2042</ele>
        <time>2024-10-15T08:55:41.000Z</time>
      </trkpt>
      <trkpt lat="45.10369" lon="5.9843">
        <ele>2042</ele>
        <time>2024-10-15T08:55:42.000Z</time>
      </trkpt>
      <trkpt lat="45.10368" lon="5.98427">
        <ele>2042</ele>
        <time>2024-10-15T08:55:43.000Z</time>
      </trkpt>
      <trkpt lat="45.10367" lon="5.98425">
        <ele>2042</ele>
        <time>2024-10-15T08:55:44.000Z</time>
      </trkpt>
      <trkpt lat="45.10365" lon="5.98423">
        <ele>2042</ele>
        <time>2024-10-15T08:55:45.000Z</time>
      </trkpt>
      <trkpt lat="45.10364" lon="5.98421">
        <ele>2042</ele>
        <time>2024-10-15T08:55:46.000Z</time>
      </trkpt>
      <trkpt lat="45.10362" lon="5.9842">
        <ele>2042.1999511719</ele>
        <time>2024-10-15T08:55:47.000Z</time>
      </trkpt>
      <trkpt lat="45.1036" lon="5.98419">
        <ele>2042.4000244141</ele>
        <time>2024-10-15T08:55:48.000Z</time>
      </trkpt>
      <trkpt lat="45.10359" lon="5.98419">
        <ele>2042.5999755859</ele>
        <time>2024-10-15T08:55:49.000Z</time>
      </trkpt>
      <trkpt lat="45.10358" lon="5.98418">
        <ele>2042.4000244141</ele>
        <time>2024-10-15T08:55:50.000Z</time>
      </trkpt>
      <trkpt lat="45.10358" lon="5.98418">
        <ele>2042.4000244141</ele>
        <time>2024-10-15T08:55:51.000Z</time>
      </trkpt>
      <trkpt lat="45.10358" lon="5.98417">
        <ele>2042.4000244141</ele>
        <time>2024-10-15T08:55:52.000Z</time>
      </trkpt>
      <trkpt lat="45.10358" lon="5.98417">
        <ele>2042.4000244141</ele>
        <time>2024-10-15T08:55:53.000Z</time>
      </trkpt>
      <trkpt lat="45.10357" lon="5.98416">
        <ele>2042.1999511719</ele>
        <time>2024-10-15T08:55:54.000Z</time>
      </trkpt>
      <trkpt lat="45.10357" lon="5.98416">
        <ele>2042.1999511719</ele>
        <time>2024-10-15T08:55:55.000Z</time>
      </trkpt>
      <trkpt lat="45.10356" lon="5.98415">
        <ele>2042.1999511719</ele>
        <time>2024-10-15T08:55:56.000Z</time>
      </trkpt>
      <trkpt lat="45.10355" lon="5.98414">
        <ele>2042</ele>
        <time>2024-10-15T08:55:57.000Z</time>
      </trkpt>
      <trkpt lat="45.10354" lon="5.98412">
        <ele>2042</ele>
        <time>2024-10-15T08:55:58.000Z</time>
      </trkpt>
      <trkpt lat="45.10353" lon="5.98411">
        <ele>2042</ele>
        <time>2024-10-15T08:55:59.000Z</time>
      </trkpt>
      <trkpt lat="45.10353" lon="5.9841">
        <ele>2042</ele>
        <time>2024-10-15T08:56:00.000Z</time>
      </trkpt>
      <trkpt lat="45.10352" lon="5.98409">
        <ele>2042.1999511719</ele>
        <time>2024-10-15T08:56:01.000Z</time>
      </trkpt>
      <trkpt lat="45.10351" lon="5.98408">
        <ele>2042.1999511719</ele>
        <time>2024-10-15T08:56:02.000Z</time>
      </trkpt>
      <trkpt lat="45.1035" lon="5.98408">
        <ele>2042.1999511719</ele>
        <time>2024-10-15T08:56:03.000Z</time>
      </trkpt>
      <trkpt lat="45.10349" lon="5.98406">
        <ele>2042.5999755859</ele>
        <time>2024-10-15T08:56:04.000Z</time>
      </trkpt>
      <trkpt lat="45.10348" lon="5.98406">
        <ele>2042.8000488281</ele>
        <time>2024-10-15T08:56:05.000Z</time>
      </trkpt>
      <trkpt lat="45.10347" lon="5.98405">
        <ele>2042.8000488281</ele>
        <time>2024-10-15T08:56:06.000Z</time>
      </trkpt>
      <trkpt lat="45.10347" lon="5.98404">
        <ele>2043.1999511719</ele>
        <time>2024-10-15T08:56:07.000Z</time>
      </trkpt>
      <trkpt lat="45.10345" lon="5.98404">
        <ele>2043.4000244141</ele>
        <time>2024-10-15T08:56:08.000Z</time>
      </trkpt>
      <trkpt lat="45.10345" lon="5.98403">
        <ele>2043.4000244141</ele>
        <time>2024-10-15T08:56:09.000Z</time>
      </trkpt>
      <trkpt lat="45.10345" lon="5.98403">
        <ele>2043.5999755859</ele>
        <time>2024-10-15T08:56:10.000Z</time>
      </trkpt>
      <trkpt lat="45.10344" lon="5.98403">
        <ele>2043.8000488281</ele>
        <time>2024-10-15T08:56:11.000Z</time>
      </trkpt>
      <trkpt lat="45.10343" lon="5.98403">
        <ele>2043.8000488281</ele>
        <time>2024-10-15T08:56:12.000Z</time>
      </trkpt>
      <trkpt lat="45.10342" lon="5.98403">
        <ele>2044</ele>
        <time>2024-10-15T08:56:13.000Z</time>
      </trkpt>
      <trkpt lat="45.10341" lon="5.98402">
        <ele>2044.1999511719</ele>
        <time>2024-10-15T08:56:14.000Z</time>
      </trkpt>
      <trkpt lat="45.10341" lon="5.98402">
        <ele>2044.5999755859</ele>
        <time>2024-10-15T08:56:15.000Z</time>
      </trkpt>
      <trkpt lat="45.1034" lon="5.98401">
        <ele>2044.8000488281</ele>
        <time>2024-10-15T08:56:16.000Z</time>
      </trkpt>
      <trkpt lat="45.1034" lon="5.98401">
        <ele>2045</ele>
        <time>2024-10-15T08:56:17.000Z</time>
      </trkpt>
      <trkpt lat="45.10339" lon="5.98401">
        <ele>2045</ele>
        <time>2024-10-15T08:56:18.000Z</time>
      </trkpt>
      <trkpt lat="45.10338" lon="5.98401">
        <ele>2045</ele>
        <time>2024-10-15T08:56:19.000Z</time>
      </trkpt>
      <trkpt lat="45.10337" lon="5.98401">
        <ele>2045</ele>
        <time>2024-10-15T08:56:20.000Z</time>
      </trkpt>
      <trkpt lat="45.10336" lon="5.984">
        <ele>2045</ele>
        <time>2024-10-15T08:56:21.000Z</time>
      </trkpt>
      <trkpt lat="45.10335" lon="5.98399">
        <ele>2044.8000488281</ele>
        <time>2024-10-15T08:56:22.000Z</time>
      </trkpt>
      <trkpt lat="45.10335" lon="5.98399">
        <ele>2044.5999755859</ele>
        <time>2024-10-15T08:56:23.000Z</time>
      </trkpt>
      <trkpt lat="45.10335" lon="5.98399">
        <ele>2044.4000244141</ele>
        <time>2024-10-15T08:56:24.000Z</time>
      </trkpt>
      <trkpt lat="45.10335" lon="5.98399">
        <ele>2044.4000244141</ele>
        <time>2024-10-15T08:56:25.000Z</time>
      </trkpt>
      <trkpt lat="45.10335" lon="5.98398">
        <ele>2044.1999511719</ele>
        <time>2024-10-15T08:56:26.000Z</time>
      </trkpt>
      <trkpt lat="45.10335" lon="5.98398">
        <ele>2044</ele>
        <time>2024-10-15T08:56:27.000Z</time>
      </trkpt>
      <trkpt lat="45.10334" lon="5.98398">
        <ele>2043.5999755859</ele>
        <time>2024-10-15T08:56:28.000Z</time>
      </trkpt>
      <trkpt lat="45.10334" lon="5.98397">
        <ele>2043.4000244141</ele>
        <time>2024-10-15T08:56:29.000Z</time>
      </trkpt>
      <trkpt lat="45.10334" lon="5.98397">
        <ele>2043</ele>
        <time>2024-10-15T08:56:30.000Z</time>
      </trkpt>
      <trkpt lat="45.10333" lon="5.98397">
        <ele>2042.8000488281</ele>
        <time>2024-10-15T08:56:31.000Z</time>
      </trkpt>
      <trkpt lat="45.10333" lon="5.98398">
        <ele>2042.8000488281</ele>
        <time>2024-10-15T08:56:32.000Z</time>
      </trkpt>
      <trkpt lat="45.10333" lon="5.98398">
        <ele>2042.8000488281</ele>
        <time>2024-10-15T08:56:33.000Z</time>
      </trkpt>
      <trkpt lat="45.10333" lon="5.98399">
        <ele>2042.8000488281</ele>
        <time>2024-10-15T08:56:34.000Z</time>
      </trkpt>
      <trkpt lat="45.10332" lon="5.98399">
        <ele>2042.8000488281</ele>
        <time>2024-10-15T08:56:35.000Z</time>
      </trkpt>
      <trkpt lat="45.10331" lon="5.98398">
        <ele>2043</ele>
        <time>2024-10-15T08:56:36.000Z</time>
      </trkpt>
      <trkpt lat="45.1033" lon="5.98398">
        <ele>2043.1999511719</ele>
        <time>2024-10-15T08:56:37.000Z</time>
      </trkpt>
      <trkpt lat="45.10329" lon="5.98397">
        <ele>2043.1999511719</ele>
        <time>2024-10-15T08:56:38.000Z</time>
      </trkpt>
      <trkpt lat="45.10329" lon="5.98397">
        <ele>2043.1999511719</ele>
        <time>2024-10-15T08:56:39.000Z</time>
      </trkpt>
      <trkpt lat="45.10328" lon="5.98396">
        <ele>2043.1999511719</ele>
        <time>2024-10-15T08:56:40.000Z</time>
      </trkpt>
      <trkpt lat="45.10328" lon="5.98395">
        <ele>2043</ele>
        <time>2024-10-15T08:56:41.000Z</time>
      </trkpt>
      <trkpt lat="45.10327" lon="5.98394">
        <ele>2042.8000488281</ele>
        <time>2024-10-15T08:56:42.000Z</time>
      </trkpt>
      <trkpt lat="45.10326" lon="5.98393">
        <ele>2042.8000488281</ele>
        <time>2024-10-15T08:56:43.000Z</time>
      </trkpt>
      <trkpt lat="45.10326" lon="5.98392">
        <ele>2042.8000488281</ele>
        <time>2024-10-15T08:56:44.000Z</time>
      </trkpt>
      <trkpt lat="45.10325" lon="5.98391">
        <ele>2042.8000488281</ele>
        <time>2024-10-15T08:56:45.000Z</time>
      </trkpt>
      <trkpt lat="45.10325" lon="5.9839">
        <ele>2042.8000488281</ele>
        <time>2024-10-15T08:56:46.000Z</time>
      </trkpt>
      <trkpt lat="45.10324" lon="5.9839">
        <ele>2043</ele>
        <time>2024-10-15T08:56:47.000Z</time>
      </trkpt>
      <trkpt lat="45.10324" lon="5.98391">
        <ele>2043.4000244141</ele>
        <time>2024-10-15T08:56:48.000Z</time>
      </trkpt>
      <trkpt lat="45.10323" lon="5.98391">
        <ele>2043.5999755859</ele>
        <time>2024-10-15T08:56:49.000Z</time>
      </trkpt>
      <trkpt lat="45.10323" lon="5.98392">
        <ele>2044.1999511719</ele>
        <time>2024-10-15T08:56:50.000Z</time>
      </trkpt>
      <trkpt lat="45.10323" lon="5.98392">
        <ele>2044.1999511719</ele>
        <time>2024-10-15T08:56:51.000Z</time>
      </trkpt>
      <trkpt lat="45.10322" lon="5.98393">
        <ele>2044.4000244141</ele>
        <time>2024-10-15T08:56:52.000Z</time>
      </trkpt>
      <trkpt lat="45.10322" lon="5.98393">
        <ele>2044.5999755859</ele>
        <time>2024-10-15T08:56:53.000Z</time>
      </trkpt>
      <trkpt lat="45.10322" lon="5.98394">
        <ele>2044.8000488281</ele>
        <time>2024-10-15T08:56:54.000Z</time>
      </trkpt>
      <trkpt lat="45.10321" lon="5.98395">
        <ele>2045.1999511719</ele>
        <time>2024-10-15T08:56:55.000Z</time>
      </trkpt>
      <trkpt lat="45.10321" lon="5.98395">
        <ele>2045.5999755859</ele>
        <time>2024-10-15T08:56:56.000Z</time>
      </trkpt>
      <trkpt lat="45.1032" lon="5.98394">
        <ele>2045.5999755859</ele>
        <time>2024-10-15T08:56:57.000Z</time>
      </trkpt>
      <trkpt lat="45.1032" lon="5.98394">
        <ele>2045.8000488281</ele>
        <time>2024-10-15T08:56:58.000Z</time>
      </trkpt>
      <trkpt lat="45.10319" lon="5.98394">
        <ele>2046</ele>
        <time>2024-10-15T08:56:59.000Z</time>
      </trkpt>
      <trkpt lat="45.10319" lon="5.98394">
        <ele>2046</ele>
        <time>2024-10-15T08:57:00.000Z</time>
      </trkpt>
      <trkpt lat="45.10319" lon="5.98394">
        <ele>2046.1999511719</ele>
        <time>2024-10-15T08:57:01.000Z</time>
      </trkpt>
      <trkpt lat="45.10318" lon="5.98394">
        <ele>2046.1999511719</ele>
        <time>2024-10-15T08:57:02.000Z</time>
      </trkpt>
      <trkpt lat="45.10318" lon="5.98394">
        <ele>2046.1999511719</ele>
        <time>2024-10-15T08:57:03.000Z</time>
      </trkpt>
      <trkpt lat="45.10318" lon="5.98394">
        <ele>2046.1999511719</ele>
        <time>2024-10-15T08:57:04.000Z</time>
      </trkpt>
      <trkpt lat="45.10318" lon="5.98394">
        <ele>2046.1999511719</ele>
        <time>2024-10-15T08:57:05.000Z</time>
      </trkpt>
      <trkpt lat="45.10318" lon="5.98394">
        <ele>2046.4000244141</ele>
        <time>2024-10-15T08:57:06.000Z</time>
      </trkpt>
      <trkpt lat="45.10317" lon="5.98393">
        <ele>2046.4000244141</ele>
        <time>2024-10-15T08:57:07.000Z</time>
      </trkpt>
      <trkpt lat="45.10316" lon="5.98392">
        <ele>2046.4000244141</ele>
        <time>2024-10-15T08:57:08.000Z</time>
      </trkpt>
      <trkpt lat="45.10316" lon="5.98392">
        <ele>2046.5999755859</ele>
        <time>2024-10-15T08:57:09.000Z</time>
      </trkpt>
      <trkpt lat="45.10316" lon="5.98392">
        <ele>2046.5999755859</ele>
        <time>2024-10-15T08:57:10.000Z</time>
      </trkpt>
      <trkpt lat="45.10315" lon="5.98391">
        <ele>2046.8000488281</ele>
        <time>2024-10-15T08:57:11.000Z</time>
      </trkpt>
      <trkpt lat="45.10315" lon="5.98391">
        <ele>2047.1999511719</ele>
        <time>2024-10-15T08:57:12.000Z</time>
      </trkpt>
      <trkpt lat="45.10314" lon="5.9839">
        <ele>2047.4000244141</ele>
        <time>2024-10-15T08:57:13.000Z</time>
      </trkpt>
      <trkpt lat="45.10314" lon="5.9839">
        <ele>2047.5999755859</ele>
        <time>2024-10-15T08:57:14.000Z</time>
      </trkpt>
      <trkpt lat="45.10313" lon="5.9839">
        <ele>2047.5999755859</ele>
        <time>2024-10-15T08:57:15.000Z</time>
      </trkpt>
      <trkpt lat="45.10313" lon="5.9839">
        <ele>2047.5999755859</ele>
        <time>2024-10-15T08:57:16.000Z</time>
      </trkpt>
      <trkpt lat="45.10313" lon="5.9839">
        <ele>2047.5999755859</ele>
        <time>2024-10-15T08:57:17.000Z</time>
      </trkpt>
      <trkpt lat="45.10313" lon="5.98391">
        <ele>2047.5999755859</ele>
        <time>2024-10-15T08:57:18.000Z</time>
      </trkpt>
      <trkpt lat="45.10313" lon="5.98391">
        <ele>2047.5999755859</ele>
        <time>2024-10-15T08:57:19.000Z</time>
      </trkpt>
      <trkpt lat="45.10313" lon="5.98391">
        <ele>2047.5999755859</ele>
        <time>2024-10-15T08:57:20.000Z</time>
      </trkpt>
      <trkpt lat="45.10313" lon="5.98391">
        <ele>2047.5999755859</ele>
        <time>2024-10-15T08:57:21.000Z</time>
      </trkpt>
      <trkpt lat="45.10313" lon="5.98391">
        <ele>2048</ele>
        <time>2024-10-15T08:57:22.000Z</time>
      </trkpt>
      <trkpt lat="45.10313" lon="5.98391">
        <ele>2048</ele>
        <time>2024-10-15T08:57:23.000Z</time>
      </trkpt>
      <trkpt lat="45.10313" lon="5.9839">
        <ele>2048</ele>
        <time>2024-10-15T08:57:24.000Z</time>
      </trkpt>
      <trkpt lat="45.10313" lon="5.98389">
        <ele>2048</ele>
        <time>2024-10-15T08:57:25.000Z</time>
      </trkpt>
      <trkpt lat="45.10312" lon="5.98388">
        <ele>2048</ele>
        <time>2024-10-15T08:57:26.000Z</time>
      </trkpt>
      <trkpt lat="45.10312" lon="5.98386">
        <ele>2048</ele>
        <time>2024-10-15T08:57:27.000Z</time>
      </trkpt>
      <trkpt lat="45.10311" lon="5.98385">
        <ele>2048</ele>
        <time>2024-10-15T08:57:28.000Z</time>
      </trkpt>
      <trkpt lat="45.10311" lon="5.98384">
        <ele>2047.8000488281</ele>
        <time>2024-10-15T08:57:29.000Z</time>
      </trkpt>
      <trkpt lat="45.10311" lon="5.98382">
        <ele>2047.8000488281</ele>
        <time>2024-10-15T08:57:30.000Z</time>
      </trkpt>
      <trkpt lat="45.1031" lon="5.98382">
        <ele>2047.8000488281</ele>
        <time>2024-10-15T08:57:31.000Z</time>
      </trkpt>
      <trkpt lat="45.1031" lon="5.98381">
        <ele>2047.5999755859</ele>
        <time>2024-10-15T08:57:32.000Z</time>
      </trkpt>
      <trkpt lat="45.1031" lon="5.9838">
        <ele>2047.5999755859</ele>
        <time>2024-10-15T08:57:33.000Z</time>
      </trkpt>
      <trkpt lat="45.10309" lon="5.98379">
        <ele>2047.1999511719</ele>
        <time>2024-10-15T08:57:34.000Z</time>
      </trkpt>
      <trkpt lat="45.10308" lon="5.98378">
        <ele>2047</ele>
        <time>2024-10-15T08:57:35.000Z</time>
      </trkpt>
      <trkpt lat="45.10307" lon="5.98378">
        <ele>2046.8000488281</ele>
        <time>2024-10-15T08:57:36.000Z</time>
      </trkpt>
      <trkpt lat="45.10307" lon="5.98377">
        <ele>2046.8000488281</ele>
        <time>2024-10-15T08:57:37.000Z</time>
      </trkpt>
      <trkpt lat="45.10306" lon="5.98376">
        <ele>2046.8000488281</ele>
        <time>2024-10-15T08:57:38.000Z</time>
      </trkpt>
      <trkpt lat="45.10305" lon="5.98376">
        <ele>2046.8000488281</ele>
        <time>2024-10-15T08:57:39.000Z</time>
      </trkpt>
      <trkpt lat="45.10304" lon="5.98375">
        <ele>2046.8000488281</ele>
        <time>2024-10-15T08:57:40.000Z</time>
      </trkpt>
      <trkpt lat="45.10304" lon="5.98374">
        <ele>2047</ele>
        <time>2024-10-15T08:57:41.000Z</time>
      </trkpt>
      <trkpt lat="45.10303" lon="5.98373">
        <ele>2047</ele>
        <time>2024-10-15T08:57:42.000Z</time>
      </trkpt>
      <trkpt lat="45.10302" lon="5.98372">
        <ele>2047</ele>
        <time>2024-10-15T08:57:43.000Z</time>
      </trkpt>
      <trkpt lat="45.10302" lon="5.98372">
        <ele>2047</ele>
        <time>2024-10-15T08:57:44.000Z</time>
      </trkpt>
      <trkpt lat="45.10302" lon="5.98372">
        <ele>2047.1999511719</ele>
        <time>2024-10-15T08:57:45.000Z</time>
      </trkpt>
      <trkpt lat="45.10302" lon="5.98372">
        <ele>2047.1999511719</ele>
        <time>2024-10-15T08:57:46.000Z</time>
      </trkpt>
      <trkpt lat="45.10302" lon="5.98372">
        <ele>2047.1999511719</ele>
        <time>2024-10-15T08:57:47.000Z</time>
      </trkpt>
      <trkpt lat="45.10302" lon="5.98371">
        <ele>2047.1999511719</ele>
        <time>2024-10-15T08:57:48.000Z</time>
      </trkpt>
      <trkpt lat="45.10302" lon="5.9837">
        <ele>2047.1999511719</ele>
        <time>2024-10-15T08:57:49.000Z</time>
      </trkpt>
      <trkpt lat="45.10301" lon="5.98368">
        <ele>2047.1999511719</ele>
        <time>2024-10-15T08:57:50.000Z</time>
      </trkpt>
      <trkpt lat="45.10301" lon="5.98367">
        <ele>2047</ele>
        <time>2024-10-15T08:57:51.000Z</time>
      </trkpt>
      <trkpt lat="45.10301" lon="5.98366">
        <ele>2047</ele>
        <time>2024-10-15T08:57:52.000Z</time>
      </trkpt>
      <trkpt lat="45.10301" lon="5.98366">
        <ele>2046.8000488281</ele>
        <time>2024-10-15T08:57:53.000Z</time>
      </trkpt>
      <trkpt lat="45.10301" lon="5.98365">
        <ele>2046.8000488281</ele>
        <time>2024-10-15T08:57:54.000Z</time>
      </trkpt>
      <trkpt lat="45.10301" lon="5.98364">
        <ele>2046.8000488281</ele>
        <time>2024-10-15T08:57:55.000Z</time>
      </trkpt>
      <trkpt lat="45.103" lon="5.98364">
        <ele>2046.5999755859</ele>
        <time>2024-10-15T08:57:56.000Z</time>
      </trkpt>
      <trkpt lat="45.103" lon="5.98363">
        <ele>2046.5999755859</ele>
        <time>2024-10-15T08:57:57.000Z</time>
      </trkpt>
      <trkpt lat="45.103" lon="5.98363">
        <ele>2046.1999511719</ele>
        <time>2024-10-15T08:57:58.000Z</time>
      </trkpt>
      <trkpt lat="45.103" lon="5.98363">
        <ele>2046</ele>
        <time>2024-10-15T08:57:59.000Z</time>
      </trkpt>
      <trkpt lat="45.10299" lon="5.98363">
        <ele>2046</ele>
        <time>2024-10-15T08:58:00.000Z</time>
      </trkpt>
      <trkpt lat="45.10299" lon="5.98363">
        <ele>2046</ele>
        <time>2024-10-15T08:58:01.000Z</time>
      </trkpt>
      <trkpt lat="45.10299" lon="5.98363">
        <ele>2046</ele>
        <time>2024-10-15T08:58:02.000Z</time>
      </trkpt>
      <trkpt lat="45.10299" lon="5.98363">
        <ele>2046</ele>
        <time>2024-10-15T08:58:03.000Z</time>
      </trkpt>
      <trkpt lat="45.10298" lon="5.98363">
        <ele>2046</ele>
        <time>2024-10-15T08:58:04.000Z</time>
      </trkpt>
      <trkpt lat="45.10298" lon="5.98362">
        <ele>2046.1999511719</ele>
        <time>2024-10-15T08:58:05.000Z</time>
      </trkpt>
      <trkpt lat="45.10298" lon="5.98362">
        <ele>2046.4000244141</ele>
        <time>2024-10-15T08:58:06.000Z</time>
      </trkpt>
      <trkpt lat="45.10297" lon="5.98362">
        <ele>2046.5999755859</ele>
        <time>2024-10-15T08:58:07.000Z</time>
      </trkpt>
      <trkpt lat="45.10297" lon="5.98361">
        <ele>2046.5999755859</ele>
        <time>2024-10-15T08:58:08.000Z</time>
      </trkpt>
      <trkpt lat="45.10296" lon="5.98361">
        <ele>2046.8000488281</ele>
        <time>2024-10-15T08:58:09.000Z</time>
      </trkpt>
      <trkpt lat="45.10296" lon="5.98361">
        <ele>2047</ele>
        <time>2024-10-15T08:58:10.000Z</time>
      </trkpt>
      <trkpt lat="45.10296" lon="5.9836">
        <ele>2047.1999511719</ele>
        <time>2024-10-15T08:58:11.000Z</time>
      </trkpt>
      <trkpt lat="45.10295" lon="5.9836">
        <ele>2047.5999755859</ele>
        <time>2024-10-15T08:58:12.000Z</time>
      </trkpt>
      <trkpt lat="45.10295" lon="5.98359">
        <ele>2047.8000488281</ele>
        <time>2024-10-15T08:58:13.000Z</time>
      </trkpt>
      <trkpt lat="45.10295" lon="5.98358">
        <ele>2048</ele>
        <time>2024-10-15T08:58:14.000Z</time>
      </trkpt>
      <trkpt lat="45.10294" lon="5.98357">
        <ele>2048</ele>
        <time>2024-10-15T08:58:15.000Z</time>
      </trkpt>
      <trkpt lat="45.10294" lon="5.98356">
        <ele>2048.1999511719</ele>
        <time>2024-10-15T08:58:16.000Z</time>
      </trkpt>
      <trkpt lat="45.10294" lon="5.98355">
        <ele>2048.3999023438</ele>
        <time>2024-10-15T08:58:17.000Z</time>
      </trkpt>
      <trkpt lat="45.10293" lon="5.98355">
        <ele>2048.6000976562</ele>
        <time>2024-10-15T08:58:18.000Z</time>
      </trkpt>
      <trkpt lat="45.10293" lon="5.98354">
        <ele>2048.8000488281</ele>
        <time>2024-10-15T08:58:19.000Z</time>
      </trkpt>
      <trkpt lat="45.10293" lon="5.98353">
        <ele>2049.1999511719</ele>
        <time>2024-10-15T08:58:20.000Z</time>
      </trkpt>
      <trkpt lat="45.10294" lon="5.98353">
        <ele>2049.3999023438</ele>
        <time>2024-10-15T08:58:21.000Z</time>
      </trkpt>
      <trkpt lat="45.10294" lon="5.98353">
        <ele>2049.6000976562</ele>
        <time>2024-10-15T08:58:22.000Z</time>
      </trkpt>
      <trkpt lat="45.10293" lon="5.98352">
        <ele>2049.8000488281</ele>
        <time>2024-10-15T08:58:23.000Z</time>
      </trkpt>
      <trkpt lat="45.10294" lon="5.98351">
        <ele>2050.1999511719</ele>
        <time>2024-10-15T08:58:24.000Z</time>
      </trkpt>
      <trkpt lat="45.10294" lon="5.9835">
        <ele>2050.3999023438</ele>
        <time>2024-10-15T08:58:25.000Z</time>
      </trkpt>
      <trkpt lat="45.10294" lon="5.9835">
        <ele>2050.8000488281</ele>
        <time>2024-10-15T08:58:26.000Z</time>
      </trkpt>
      <trkpt lat="45.10294" lon="5.9835">
        <ele>2051</ele>
        <time>2024-10-15T08:58:27.000Z</time>
      </trkpt>
      <trkpt lat="45.10294" lon="5.98349">
        <ele>2051.3999023438</ele>
        <time>2024-10-15T08:58:28.000Z</time>
      </trkpt>
      <trkpt lat="45.10294" lon="5.98349">
        <ele>2051.6000976562</ele>
        <time>2024-10-15T08:58:29.000Z</time>
      </trkpt>
      <trkpt lat="45.10294" lon="5.98349">
        <ele>2051.8000488281</ele>
        <time>2024-10-15T08:58:30.000Z</time>
      </trkpt>
      <trkpt lat="45.10294" lon="5.98348">
        <ele>2052.1999511719</ele>
        <time>2024-10-15T08:58:31.000Z</time>
      </trkpt>
      <trkpt lat="45.10294" lon="5.98348">
        <ele>2052.1999511719</ele>
        <time>2024-10-15T08:58:32.000Z</time>
      </trkpt>
      <trkpt lat="45.10294" lon="5.98347">
        <ele>2052.3999023438</ele>
        <time>2024-10-15T08:58:33.000Z</time>
      </trkpt>
      <trkpt lat="45.10294" lon="5.98346">
        <ele>2052.8000488281</ele>
        <time>2024-10-15T08:58:34.000Z</time>
      </trkpt>
      <trkpt lat="45.10294" lon="5.98346">
        <ele>2053.1999511719</ele>
        <time>2024-10-15T08:58:35.000Z</time>
      </trkpt>
      <trkpt lat="45.10294" lon="5.98346">
        <ele>2053.3999023438</ele>
        <time>2024-10-15T08:58:36.000Z</time>
      </trkpt>
      <trkpt lat="45.10294" lon="5.98346">
        <ele>2053.3999023438</ele>
        <time>2024-10-15T08:58:37.000Z</time>
      </trkpt>
      <trkpt lat="45.10295" lon="5.98346">
        <ele>2053.3999023438</ele>
        <time>2024-10-15T08:58:38.000Z</time>
      </trkpt>
      <trkpt lat="45.10295" lon="5.98346">
        <ele>2053.3999023438</ele>
        <time>2024-10-15T08:58:39.000Z</time>
      </trkpt>
      <trkpt lat="45.10295" lon="5.98346">
        <ele>2053.6000976562</ele>
        <time>2024-10-15T08:58:40.000Z</time>
      </trkpt>
      <trkpt lat="45.10295" lon="5.98346">
        <ele>2053.6000976562</ele>
        <time>2024-10-15T08:58:41.000Z</time>
      </trkpt>
      <trkpt lat="45.10295" lon="5.98346">
        <ele>2053.6000976562</ele>
        <time>2024-10-15T08:58:42.000Z</time>
      </trkpt>
      <trkpt lat="45.10295" lon="5.98346">
        <ele>2053.6000976562</ele>
        <time>2024-10-15T08:58:43.000Z</time>
      </trkpt>
      <trkpt lat="45.10295" lon="5.98346">
        <ele>2053.6000976562</ele>
        <time>2024-10-15T08:58:44.000Z</time>
      </trkpt>
      <trkpt lat="45.10295" lon="5.98346">
        <ele>2053.6000976562</ele>
        <time>2024-10-15T08:58:45.000Z</time>
      </trkpt>
      <trkpt lat="45.10295" lon="5.98346">
        <ele>2053.8000488281</ele>
        <time>2024-10-15T08:58:46.000Z</time>
      </trkpt>
      <trkpt lat="45.10295" lon="5.98346">
        <ele>2053.8000488281</ele>
        <time>2024-10-15T08:58:47.000Z</time>
      </trkpt>
      <trkpt lat="45.10295" lon="5.98346">
        <ele>2054</ele>
        <time>2024-10-15T08:58:48.000Z</time>
      </trkpt>
      <trkpt lat="45.10295" lon="5.98346">
        <ele>2054.3999023438</ele>
        <time>2024-10-15T08:58:49.000Z</time>
      </trkpt>
      <trkpt lat="45.10295" lon="5.98346">
        <ele>2054.3999023438</ele>
        <time>2024-10-15T08:58:50.000Z</time>
      </trkpt>
      <trkpt lat="45.10294" lon="5.98345">
        <ele>2054.6000976562</ele>
        <time>2024-10-15T08:58:51.000Z</time>
      </trkpt>
      <trkpt lat="45.10294" lon="5.98345">
        <ele>2055</ele>
        <time>2024-10-15T08:58:52.000Z</time>
      </trkpt>
      <trkpt lat="45.10293" lon="5.98344">
        <ele>2055.1999511719</ele>
        <time>2024-10-15T08:58:53.000Z</time>
      </trkpt>
      <trkpt lat="45.10293" lon="5.98344">
        <ele>2055.3999023438</ele>
        <time>2024-10-15T08:58:54.000Z</time>
      </trkpt>
      <trkpt lat="45.10292" lon="5.98343">
        <ele>2055.6000976562</ele>
        <time>2024-10-15T08:58:55.000Z</time>
      </trkpt>
      <trkpt lat="45.10292" lon="5.98343">
        <ele>2056</ele>
        <time>2024-10-15T08:58:56.000Z</time>
      </trkpt>
      <trkpt lat="45.10291" lon="5.98342">
        <ele>2056</ele>
        <time>2024-10-15T08:58:57.000Z</time>
      </trkpt>
      <trkpt lat="45.10291" lon="5.98342">
        <ele>2056.3999023438</ele>
        <time>2024-10-15T08:58:58.000Z</time>
      </trkpt>
      <trkpt lat="45.1029" lon="5.98342">
        <ele>2056.6000976562</ele>
        <time>2024-10-15T08:58:59.000Z</time>
      </trkpt>
      <trkpt lat="45.10289" lon="5.98342">
        <ele>2056.8000488281</ele>
        <time>2024-10-15T08:59:00.000Z</time>
      </trkpt>
      <trkpt lat="45.10289" lon="5.98342">
        <ele>2057</ele>
        <time>2024-10-15T08:59:01.000Z</time>
      </trkpt>
      <trkpt lat="45.10289" lon="5.98342">
        <ele>2057.3999023438</ele>
        <time>2024-10-15T08:59:02.000Z</time>
      </trkpt>
      <trkpt lat="45.10288" lon="5.98341">
        <ele>2057.6000976562</ele>
        <time>2024-10-15T08:59:03.000Z</time>
      </trkpt>
      <trkpt lat="45.10288" lon="5.98341">
        <ele>2057.8000488281</ele>
        <time>2024-10-15T08:59:04.000Z</time>
      </trkpt>
      <trkpt lat="45.10287" lon="5.98341">
        <ele>2058</ele>
        <time>2024-10-15T08:59:05.000Z</time>
      </trkpt>
      <trkpt lat="45.10287" lon="5.9834">
        <ele>2058.1999511719</ele>
        <time>2024-10-15T08:59:06.000Z</time>
      </trkpt>
      <trkpt lat="45.10287" lon="5.98339">
        <ele>2058.3999023438</ele>
        <time>2024-10-15T08:59:07.000Z</time>
      </trkpt>
      <trkpt lat="45.10286" lon="5.98339">
        <ele>2058.6000976562</ele>
        <time>2024-10-15T08:59:08.000Z</time>
      </trkpt>
      <trkpt lat="45.10286" lon="5.98339">
        <ele>2058.6000976562</ele>
        <time>2024-10-15T08:59:09.000Z</time>
      </trkpt>
      <trkpt lat="45.10286" lon="5.98338">
        <ele>2058.8000488281</ele>
        <time>2024-10-15T08:59:10.000Z</time>
      </trkpt>
      <trkpt lat="45.10285" lon="5.98338">
        <ele>2059</ele>
        <time>2024-10-15T08:59:11.000Z</time>
      </trkpt>
      <trkpt lat="45.10285" lon="5.98338">
        <ele>2059.3999023438</ele>
        <time>2024-10-15T08:59:12.000Z</time>
      </trkpt>
      <trkpt lat="45.10284" lon="5.98338">
        <ele>2059.3999023438</ele>
        <time>2024-10-15T08:59:13.000Z</time>
      </trkpt>
      <trkpt lat="45.10284" lon="5.98338">
        <ele>2059.8000488281</ele>
        <time>2024-10-15T08:59:14.000Z</time>
      </trkpt>
      <trkpt lat="45.10283" lon="5.98338">
        <ele>2059.8000488281</ele>
        <time>2024-10-15T08:59:15.000Z</time>
      </trkpt>
      <trkpt lat="45.10283" lon="5.98337">
        <ele>2060.1999511719</ele>
        <time>2024-10-15T08:59:16.000Z</time>
      </trkpt>
      <trkpt lat="45.10283" lon="5.98337">
        <ele>2060.6000976562</ele>
        <time>2024-10-15T08:59:17.000Z</time>
      </trkpt>
      <trkpt lat="45.10282" lon="5.98337">
        <ele>2061</ele>
        <time>2024-10-15T08:59:18.000Z</time>
      </trkpt>
      <trkpt lat="45.10282" lon="5.98337">
        <ele>2061.1999511719</ele>
        <time>2024-10-15T08:59:19.000Z</time>
      </trkpt>
      <trkpt lat="45.10282" lon="5.98336">
        <ele>2061.3999023438</ele>
        <time>2024-10-15T08:59:20.000Z</time>
      </trkpt>
      <trkpt lat="45.10282" lon="5.98336">
        <ele>2061.6000976562</ele>
        <time>2024-10-15T08:59:21.000Z</time>
      </trkpt>
      <trkpt lat="45.10282" lon="5.98336">
        <ele>2061.8000488281</ele>
        <time>2024-10-15T08:59:22.000Z</time>
      </trkpt>
      <trkpt lat="45.10281" lon="5.98335">
        <ele>2062</ele>
        <time>2024-10-15T08:59:23.000Z</time>
      </trkpt>
      <trkpt lat="45.10281" lon="5.98335">
        <ele>2062.3999023438</ele>
        <time>2024-10-15T08:59:24.000Z</time>
      </trkpt>
      <trkpt lat="45.10281" lon="5.98335">
        <ele>2062.6000976562</ele>
        <time>2024-10-15T08:59:25.000Z</time>
      </trkpt>
      <trkpt lat="45.10281" lon="5.98335">
        <ele>2062.8000488281</ele>
        <time>2024-10-15T08:59:26.000Z</time>
      </trkpt>
      <trkpt lat="45.1028" lon="5.98334">
        <ele>2063</ele>
        <time>2024-10-15T08:59:27.000Z</time>
      </trkpt>
      <trkpt lat="45.1028" lon="5.98335">
        <ele>2063.1999511719</ele>
        <time>2024-10-15T08:59:28.000Z</time>
      </trkpt>
      <trkpt lat="45.1028" lon="5.98335">
        <ele>2063.3999023438</ele>
        <time>2024-10-15T08:59:29.000Z</time>
      </trkpt>
      <trkpt lat="45.1028" lon="5.98335">
        <ele>2063.6000976562</ele>
        <time>2024-10-15T08:59:30.000Z</time>
      </trkpt>
      <trkpt lat="45.1028" lon="5.98336">
        <ele>2063.6000976562</ele>
        <time>2024-10-15T08:59:31.000Z</time>
      </trkpt>
      <trkpt lat="45.1028" lon="5.98336">
        <ele>2063.6000976562</ele>
        <time>2024-10-15T08:59:32.000Z</time>
      </trkpt>
      <trkpt lat="45.1028" lon="5.98336">
        <ele>2064</ele>
        <time>2024-10-15T08:59:33.000Z</time>
      </trkpt>
      <trkpt lat="45.1028" lon="5.98336">
        <ele>2064.3999023438</ele>
        <time>2024-10-15T08:59:34.000Z</time>
      </trkpt>
      <trkpt lat="45.1028" lon="5.98336">
        <ele>2064.6000976562</ele>
        <time>2024-10-15T08:59:35.000Z</time>
      </trkpt>
      <trkpt lat="45.1028" lon="5.98336">
        <ele>2064.8000488281</ele>
        <time>2024-10-15T08:59:36.000Z</time>
      </trkpt>
      <trkpt lat="45.1028" lon="5.98336">
        <ele>2065</ele>
        <time>2024-10-15T08:59:37.000Z</time>
      </trkpt>
      <trkpt lat="45.1028" lon="5.98336">
        <ele>2065.1999511719</ele>
        <time>2024-10-15T08:59:38.000Z</time>
      </trkpt>
      <trkpt lat="45.1028" lon="5.98336">
        <ele>2065.3999023438</ele>
        <time>2024-10-15T08:59:39.000Z</time>
      </trkpt>
      <trkpt lat="45.1028" lon="5.98336">
        <ele>2065.6000976562</ele>
        <time>2024-10-15T08:59:40.000Z</time>
      </trkpt>
      <trkpt lat="45.1028" lon="5.98336">
        <ele>2065.8000488281</ele>
        <time>2024-10-15T08:59:41.000Z</time>
      </trkpt>
      <trkpt lat="45.1028" lon="5.98336">
        <ele>2066</ele>
        <time>2024-10-15T08:59:42.000Z</time>
      </trkpt>
      <trkpt lat="45.1028" lon="5.98336">
        <ele>2066.1999511719</ele>
        <time>2024-10-15T08:59:43.000Z</time>
      </trkpt>
      <trkpt lat="45.1028" lon="5.98336">
        <ele>2066.3999023438</ele>
        <time>2024-10-15T08:59:44.000Z</time>
      </trkpt>
      <trkpt lat="45.1028" lon="5.98336">
        <ele>2066.8000488281</ele>
        <time>2024-10-15T08:59:45.000Z</time>
      </trkpt>
      <trkpt lat="45.1028" lon="5.98336">
        <ele>2066.8000488281</ele>
        <time>2024-10-15T08:59:46.000Z</time>
      </trkpt>
      <trkpt lat="45.1028" lon="5.98336">
        <ele>2067</ele>
        <time>2024-10-15T08:59:47.000Z</time>
      </trkpt>
      <trkpt lat="45.10279" lon="5.98335">
        <ele>2067.3999023438</ele>
        <time>2024-10-15T08:59:48.000Z</time>
      </trkpt>
      <trkpt lat="45.10279" lon="5.98335">
        <ele>2067.3999023438</ele>
        <time>2024-10-15T08:59:49.000Z</time>
      </trkpt>
      <trkpt lat="45.10279" lon="5.98335">
        <ele>2067.3999023438</ele>
        <time>2024-10-15T08:59:50.000Z</time>
      </trkpt>
      <trkpt lat="45.10278" lon="5.98335">
        <ele>2067.3999023438</ele>
        <time>2024-10-15T08:59:51.000Z</time>
      </trkpt>
      <trkpt lat="45.10278" lon="5.98335">
        <ele>2067.3999023438</ele>
        <time>2024-10-15T08:59:52.000Z</time>
      </trkpt>
      <trkpt lat="45.10278" lon="5.98335">
        <ele>2067.3999023438</ele>
        <time>2024-10-15T08:59:53.000Z</time>
      </trkpt>
      <trkpt lat="45.10277" lon="5.98335">
        <ele>2067.3999023438</ele>
        <time>2024-10-15T08:59:54.000Z</time>
      </trkpt>
      <trkpt lat="45.10277" lon="5.98335">
        <ele>2067.3999023438</ele>
        <time>2024-10-15T08:59:55.000Z</time>
      </trkpt>
      <trkpt lat="45.10277" lon="5.98335">
        <ele>2067.6000976562</ele>
        <time>2024-10-15T08:59:56.000Z</time>
      </trkpt>
      <trkpt lat="45.10277" lon="5.98335">
        <ele>2067.6000976562</ele>
        <time>2024-10-15T08:59:57.000Z</time>
      </trkpt>
      <trkpt lat="45.10276" lon="5.98334">
        <ele>2067.6000976562</ele>
        <time>2024-10-15T08:59:58.000Z</time>
      </trkpt>
      <trkpt lat="45.10276" lon="5.98332">
        <ele>2067.8000488281</ele>
        <time>2024-10-15T08:59:59.000Z</time>
      </trkpt>
      <trkpt lat="45.10275" lon="5.9833">
        <ele>2068</ele>
        <time>2024-10-15T09:00:00.000Z</time>
      </trkpt>
      <trkpt lat="45.10275" lon="5.98329">
        <ele>2068.1999511719</ele>
        <time>2024-10-15T09:00:01.000Z</time>
      </trkpt>
      <trkpt lat="45.10274" lon="5.98327">
        <ele>2068.1999511719</ele>
        <time>2024-10-15T09:00:02.000Z</time>
      </trkpt>
      <trkpt lat="45.10273" lon="5.98326">
        <ele>2068.3999023438</ele>
        <time>2024-10-15T09:00:03.000Z</time>
      </trkpt>
      <trkpt lat="45.10273" lon="5.98324">
        <ele>2068.6000976562</ele>
        <time>2024-10-15T09:00:04.000Z</time>
      </trkpt>
      <trkpt lat="45.10272" lon="5.98323">
        <ele>2068.8000488281</ele>
        <time>2024-10-15T09:00:05.000Z</time>
      </trkpt>
      <trkpt lat="45.10272" lon="5.9832">
        <ele>2069.1999511719</ele>
        <time>2024-10-15T09:00:06.000Z</time>
      </trkpt>
      <trkpt lat="45.10271" lon="5.98319">
        <ele>2069.6000976562</ele>
        <time>2024-10-15T09:00:07.000Z</time>
      </trkpt>
      <trkpt lat="45.10271" lon="5.98318">
        <ele>2069.8000488281</ele>
        <time>2024-10-15T09:00:08.000Z</time>
      </trkpt>
      <trkpt lat="45.10271" lon="5.98318">
        <ele>2070</ele>
        <time>2024-10-15T09:00:09.000Z</time>
      </trkpt>
      <trkpt lat="45.10271" lon="5.98318">
        <ele>2070</ele>
        <time>2024-10-15T09:00:10.000Z</time>
      </trkpt>
      <trkpt lat="45.10271" lon="5.98317">
        <ele>2070.1999511719</ele>
        <time>2024-10-15T09:00:11.000Z</time>
      </trkpt>
      <trkpt lat="45.1027" lon="5.98317">
        <ele>2070.6000976562</ele>
        <time>2024-10-15T09:00:12.000Z</time>
      </trkpt>
      <trkpt lat="45.1027" lon="5.98317">
        <ele>2070.8000488281</ele>
        <time>2024-10-15T09:00:13.000Z</time>
      </trkpt>
      <trkpt lat="45.1027" lon="5.98317">
        <ele>2071</ele>
        <time>2024-10-15T09:00:14.000Z</time>
      </trkpt>
      <trkpt lat="45.1027" lon="5.98317">
        <ele>2071.1999511719</ele>
        <time>2024-10-15T09:00:15.000Z</time>
      </trkpt>
      <trkpt lat="45.10269" lon="5.98317">
        <ele>2071.6000976562</ele>
        <time>2024-10-15T09:00:16.000Z</time>
      </trkpt>
      <trkpt lat="45.10269" lon="5.98316">
        <ele>2071.8000488281</ele>
        <time>2024-10-15T09:00:17.000Z</time>
      </trkpt>
      <trkpt lat="45.10269" lon="5.98316">
        <ele>2072</ele>
        <time>2024-10-15T09:00:18.000Z</time>
      </trkpt>
      <trkpt lat="45.10269" lon="5.98315">
        <ele>2072.3999023438</ele>
        <time>2024-10-15T09:00:19.000Z</time>
      </trkpt>
      <trkpt lat="45.10268" lon="5.98315">
        <ele>2072.3999023438</ele>
        <time>2024-10-15T09:00:20.000Z</time>
      </trkpt>
      <trkpt lat="45.10268" lon="5.98314">
        <ele>2072.8000488281</ele>
        <time>2024-10-15T09:00:21.000Z</time>
      </trkpt>
      <trkpt lat="45.10268" lon="5.98314">
        <ele>2073</ele>
        <time>2024-10-15T09:00:22.000Z</time>
      </trkpt>
      <trkpt lat="45.10268" lon="5.98314">
        <ele>2073.1999511719</ele>
        <time>2024-10-15T09:00:23.000Z</time>
      </trkpt>
      <trkpt lat="45.10268" lon="5.98314">
        <ele>2073.3999023438</ele>
        <time>2024-10-15T09:00:24.000Z</time>
      </trkpt>
      <trkpt lat="45.10268" lon="5.98313">
        <ele>2073.6000976562</ele>
        <time>2024-10-15T09:00:25.000Z</time>
      </trkpt>
      <trkpt lat="45.10268" lon="5.98313">
        <ele>2073.8000488281</ele>
        <time>2024-10-15T09:00:26.000Z</time>
      </trkpt>
      <trkpt lat="45.10268" lon="5.98313">
        <ele>2074.1999511719</ele>
        <time>2024-10-15T09:00:27.000Z</time>
      </trkpt>
      <trkpt lat="45.10268" lon="5.98313">
        <ele>2074.6000976562</ele>
        <time>2024-10-15T09:00:28.000Z</time>
      </trkpt>
      <trkpt lat="45.10268" lon="5.98313">
        <ele>2074.8000488281</ele>
        <time>2024-10-15T09:00:29.000Z</time>
      </trkpt>
      <trkpt lat="45.10268" lon="5.98313">
        <ele>2075</ele>
        <time>2024-10-15T09:00:30.000Z</time>
      </trkpt>
      <trkpt lat="45.10268" lon="5.98313">
        <ele>2075</ele>
        <time>2024-10-15T09:00:31.000Z</time>
      </trkpt>
      <trkpt lat="45.10268" lon="5.98313">
        <ele>2075.1999511719</ele>
        <time>2024-10-15T09:00:32.000Z</time>
      </trkpt>
      <trkpt lat="45.10268" lon="5.98313">
        <ele>2075.3999023438</ele>
        <time>2024-10-15T09:00:33.000Z</time>
      </trkpt>
      <trkpt lat="45.10268" lon="5.98313">
        <ele>2075.3999023438</ele>
        <time>2024-10-15T09:00:34.000Z</time>
      </trkpt>
      <trkpt lat="45.10268" lon="5.98313">
        <ele>2075.6000976562</ele>
        <time>2024-10-15T09:00:35.000Z</time>
      </trkpt>
      <trkpt lat="45.10268" lon="5.98313">
        <ele>2075.8000488281</ele>
        <time>2024-10-15T09:00:36.000Z</time>
      </trkpt>
      <trkpt lat="45.10268" lon="5.98313">
        <ele>2075.8000488281</ele>
        <time>2024-10-15T09:00:37.000Z</time>
      </trkpt>
      <trkpt lat="45.10268" lon="5.98313">
        <ele>2076</ele>
        <time>2024-10-15T09:00:38.000Z</time>
      </trkpt>
      <trkpt lat="45.10268" lon="5.98313">
        <ele>2076</ele>
        <time>2024-10-15T09:00:39.000Z</time>
      </trkpt>
      <trkpt lat="45.10268" lon="5.98313">
        <ele>2076.1999511719</ele>
        <time>2024-10-15T09:00:40.000Z</time>
      </trkpt>
      <trkpt lat="45.10267" lon="5.98313">
        <ele>2076.1999511719</ele>
        <time>2024-10-15T09:00:41.000Z</time>
      </trkpt>
      <trkpt lat="45.10267" lon="5.98313">
        <ele>2076.1999511719</ele>
        <time>2024-10-15T09:00:42.000Z</time>
      </trkpt>
      <trkpt lat="45.10267" lon="5.98313">
        <ele>2076.1999511719</ele>
        <time>2024-10-15T09:00:43.000Z</time>
      </trkpt>
      <trkpt lat="45.10267" lon="5.98313">
        <ele>2076.1999511719</ele>
        <time>2024-10-15T09:00:44.000Z</time>
      </trkpt>
      <trkpt lat="45.10266" lon="5.98313">
        <ele>2076.3999023438</ele>
        <time>2024-10-15T09:00:45.000Z</time>
      </trkpt>
      <trkpt lat="45.10266" lon="5.98313">
        <ele>2076.6000976562</ele>
        <time>2024-10-15T09:00:46.000Z</time>
      </trkpt>
      <trkpt lat="45.10266" lon="5.98313">
        <ele>2077.1999511719</ele>
        <time>2024-10-15T09:00:47.000Z</time>
      </trkpt>
      <trkpt lat="45.10266" lon="5.98313">
        <ele>2077.3999023438</ele>
        <time>2024-10-15T09:00:48.000Z</time>
      </trkpt>
      <trkpt lat="45.10266" lon="5.98313">
        <ele>2077.6000976562</ele>
        <time>2024-10-15T09:00:49.000Z</time>
      </trkpt>
      <trkpt lat="45.10266" lon="5.98313">
        <ele>2077.8000488281</ele>
        <time>2024-10-15T09:00:50.000Z</time>
      </trkpt>
      <trkpt lat="45.10266" lon="5.98313">
        <ele>2078.3999023438</ele>
        <time>2024-10-15T09:00:51.000Z</time>
      </trkpt>
      <trkpt lat="45.10266" lon="5.98313">
        <ele>2078.6000976562</ele>
        <time>2024-10-15T09:00:52.000Z</time>
      </trkpt>
      <trkpt lat="45.10266" lon="5.98313">
        <ele>2078.6000976562</ele>
        <time>2024-10-15T09:00:53.000Z</time>
      </trkpt>
      <trkpt lat="45.10265" lon="5.98313">
        <ele>2078.8000488281</ele>
        <time>2024-10-15T09:00:54.000Z</time>
      </trkpt>
      <trkpt lat="45.10265" lon="5.98314">
        <ele>2079</ele>
        <time>2024-10-15T09:00:55.000Z</time>
      </trkpt>
      <trkpt lat="45.10265" lon="5.98314">
        <ele>2079.1999511719</ele>
        <time>2024-10-15T09:00:56.000Z</time>
      </trkpt>
      <trkpt lat="45.10265" lon="5.98314">
        <ele>2079.3999023438</ele>
        <time>2024-10-15T09:00:57.000Z</time>
      </trkpt>
      <trkpt lat="45.10265" lon="5.98314">
        <ele>2079.3999023438</ele>
        <time>2024-10-15T09:00:58.000Z</time>
      </trkpt>
      <trkpt lat="45.10264" lon="5.98314">
        <ele>2079.3999023438</ele>
        <time>2024-10-15T09:00:59.000Z</time>
      </trkpt>
      <trkpt lat="45.10264" lon="5.98314">
        <ele>2079.1999511719</ele>
        <time>2024-10-15T09:01:00.000Z</time>
      </trkpt>
      <trkpt lat="45.10263" lon="5.98314">
        <ele>2079.1999511719</ele>
        <time>2024-10-15T09:01:01.000Z</time>
      </trkpt>
      <trkpt lat="45.10263" lon="5.98314">
        <ele>2079.1999511719</ele>
        <time>2024-10-15T09:01:02.000Z</time>
      </trkpt>
      <trkpt lat="45.10263" lon="5.98314">
        <ele>2079.1999511719</ele>
        <time>2024-10-15T09:01:03.000Z</time>
      </trkpt>
      <trkpt lat="45.10263" lon="5.98314">
        <ele>2079.1999511719</ele>
        <time>2024-10-15T09:01:04.000Z</time>
      </trkpt>
      <trkpt lat="45.10263" lon="5.98314">
        <ele>2079.3999023438</ele>
        <time>2024-10-15T09:01:05.000Z</time>
      </trkpt>
      <trkpt lat="45.10263" lon="5.98314">
        <ele>2079.6000976562</ele>
        <time>2024-10-15T09:01:06.000Z</time>
      </trkpt>
      <trkpt lat="45.10263" lon="5.98314">
        <ele>2079.6000976562</ele>
        <time>2024-10-15T09:01:07.000Z</time>
      </trkpt>
      <trkpt lat="45.10263" lon="5.98314">
        <ele>2079.8000488281</ele>
        <time>2024-10-15T09:01:08.000Z</time>
      </trkpt>
      <trkpt lat="45.10263" lon="5.98314">
        <ele>2079.8000488281</ele>
        <time>2024-10-15T09:01:09.000Z</time>
      </trkpt>
      <trkpt lat="45.10263" lon="5.98314">
        <ele>2080.1999511719</ele>
        <time>2024-10-15T09:01:10.000Z</time>
      </trkpt>
      <trkpt lat="45.10263" lon="5.98314">
        <ele>2080.3999023438</ele>
        <time>2024-10-15T09:01:11.000Z</time>
      </trkpt>
      <trkpt lat="45.10262" lon="5.98315">
        <ele>2080.6000976562</ele>
        <time>2024-10-15T09:01:12.000Z</time>
      </trkpt>
      <trkpt lat="45.10262" lon="5.98315">
        <ele>2081</ele>
        <time>2024-10-15T09:01:13.000Z</time>
      </trkpt>
      <trkpt lat="45.10262" lon="5.98315">
        <ele>2081</ele>
        <time>2024-10-15T09:01:14.000Z</time>
      </trkpt>
      <trkpt lat="45.10262" lon="5.98315">
        <ele>2081.1999511719</ele>
        <time>2024-10-15T09:01:15.000Z</time>
      </trkpt>
      <trkpt lat="45.10262" lon="5.98315">
        <ele>2082</ele>
        <time>2024-10-15T09:01:16.000Z</time>
      </trkpt>
      <trkpt lat="45.10262" lon="5.98315">
        <ele>2082.1999511719</ele>
        <time>2024-10-15T09:01:17.000Z</time>
      </trkpt>
      <trkpt lat="45.10262" lon="5.98315">
        <ele>2082.3999023438</ele>
        <time>2024-10-15T09:01:18.000Z</time>
      </trkpt>
      <trkpt lat="45.10262" lon="5.98315">
        <ele>2082.3999023438</ele>
        <time>2024-10-15T09:01:19.000Z</time>
      </trkpt>
      <trkpt lat="45.10262" lon="5.98315">
        <ele>2082.3999023438</ele>
        <time>2024-10-15T09:01:20.000Z</time>
      </trkpt>
      <trkpt lat="45.10262" lon="5.98315">
        <ele>2082.3999023438</ele>
        <time>2024-10-15T09:01:21.000Z</time>
      </trkpt>
      <trkpt lat="45.10262" lon="5.98315">
        <ele>2082.6000976562</ele>
        <time>2024-10-15T09:01:22.000Z</time>
      </trkpt>
      <trkpt lat="45.10262" lon="5.98315">
        <ele>2082.8000488281</ele>
        <time>2024-10-15T09:01:23.000Z</time>
      </trkpt>
      <trkpt lat="45.10262" lon="5.98316">
        <ele>2082.8000488281</ele>
        <time>2024-10-15T09:01:24.000Z</time>
      </trkpt>
      <trkpt lat="45.10262" lon="5.98316">
        <ele>2083</ele>
        <time>2024-10-15T09:01:25.000Z</time>
      </trkpt>
      <trkpt lat="45.10262" lon="5.98316">
        <ele>2083.1999511719</ele>
        <time>2024-10-15T09:01:26.000Z</time>
      </trkpt>
      <trkpt lat="45.10262" lon="5.98316">
        <ele>2083.1999511719</ele>
        <time>2024-10-15T09:01:27.000Z</time>
      </trkpt>
      <trkpt lat="45.10262" lon="5.98316">
        <ele>2083.3999023438</ele>
        <time>2024-10-15T09:01:28.000Z</time>
      </trkpt>
      <trkpt lat="45.10262" lon="5.98316">
        <ele>2083.3999023438</ele>
        <time>2024-10-15T09:01:29.000Z</time>
      </trkpt>
      <trkpt lat="45.10262" lon="5.98316">
        <ele>2083.3999023438</ele>
        <time>2024-10-15T09:01:30.000Z</time>
      </trkpt>
      <trkpt lat="45.10262" lon="5.98316">
        <ele>2083.3999023438</ele>
        <time>2024-10-15T09:01:31.000Z</time>
      </trkpt>
      <trkpt lat="45.10262" lon="5.98316">
        <ele>2083.3999023438</ele>
        <time>2024-10-15T09:01:32.000Z</time>
      </trkpt>
      <trkpt lat="45.10262" lon="5.98316">
        <ele>2083.3999023438</ele>
        <time>2024-10-15T09:01:33.000Z</time>
      </trkpt>
      <trkpt lat="45.10262" lon="5.98316">
        <ele>2083.3999023438</ele>
        <time>2024-10-15T09:01:34.000Z</time>
      </trkpt>
      <trkpt lat="45.10262" lon="5.98316">
        <ele>2083.6000976562</ele>
        <time>2024-10-15T09:01:35.000Z</time>
      </trkpt>
      <trkpt lat="45.10262" lon="5.98316">
        <ele>2083.8000488281</ele>
        <time>2024-10-15T09:01:36.000Z</time>
      </trkpt>
      <trkpt lat="45.10262" lon="5.98316">
        <ele>2083.8000488281</ele>
        <time>2024-10-15T09:01:37.000Z</time>
      </trkpt>
      <trkpt lat="45.10262" lon="5.98316">
        <ele>2083.8000488281</ele>
        <time>2024-10-15T09:01:38.000Z</time>
      </trkpt>
      <trkpt lat="45.10262" lon="5.98316">
        <ele>2084.1999511719</ele>
        <time>2024-10-15T09:01:39.000Z</time>
      </trkpt>
      <trkpt lat="45.10262" lon="5.98316">
        <ele>2084.3999023438</ele>
        <time>2024-10-15T09:01:40.000Z</time>
      </trkpt>
      <trkpt lat="45.10261" lon="5.98316">
        <ele>2084.3999023438</ele>
        <time>2024-10-15T09:01:41.000Z</time>
      </trkpt>
      <trkpt lat="45.10261" lon="5.98315">
        <ele>2084.8000488281</ele>
        <time>2024-10-15T09:01:42.000Z</time>
      </trkpt>
      <trkpt lat="45.10261" lon="5.98315">
        <ele>2085</ele>
        <time>2024-10-15T09:01:43.000Z</time>
      </trkpt>
      <trkpt lat="45.10261" lon="5.98315">
        <ele>2085.3999023438</ele>
        <time>2024-10-15T09:01:44.000Z</time>
      </trkpt>
      <trkpt lat="45.10261" lon="5.98315">
        <ele>2085.8000488281</ele>
        <time>2024-10-15T09:01:45.000Z</time>
      </trkpt>
      <trkpt lat="45.10261" lon="5.98315">
        <ele>2086.1999511719</ele>
        <time>2024-10-15T09:01:46.000Z</time>
      </trkpt>
      <trkpt lat="45.10261" lon="5.98315">
        <ele>2086.3999023438</ele>
        <time>2024-10-15T09:01:47.000Z</time>
      </trkpt>
      <trkpt lat="45.10261" lon="5.98314">
        <ele>2086.8000488281</ele>
        <time>2024-10-15T09:01:48.000Z</time>
      </trkpt>
      <trkpt lat="45.10261" lon="5.98314">
        <ele>2086.8000488281</ele>
        <time>2024-10-15T09:01:49.000Z</time>
      </trkpt>
      <trkpt lat="45.10261" lon="5.98314">
        <ele>2087</ele>
        <time>2024-10-15T09:01:50.000Z</time>
      </trkpt>
      <trkpt lat="45.10261" lon="5.98313">
        <ele>2087</ele>
        <time>2024-10-15T09:01:51.000Z</time>
      </trkpt>
      <trkpt lat="45.1026" lon="5.98313">
        <ele>2087.3999023438</ele>
        <time>2024-10-15T09:01:52.000Z</time>
      </trkpt>
      <trkpt lat="45.1026" lon="5.98313">
        <ele>2087.6000976562</ele>
        <time>2024-10-15T09:01:53.000Z</time>
      </trkpt>
      <trkpt lat="45.1026" lon="5.98312">
        <ele>2087.8000488281</ele>
        <time>2024-10-15T09:01:54.000Z</time>
      </trkpt>
      <trkpt lat="45.10259" lon="5.98312">
        <ele>2088.1999511719</ele>
        <time>2024-10-15T09:01:55.000Z</time>
      </trkpt>
      <trkpt lat="45.10259" lon="5.98312">
        <ele>2088.3999023438</ele>
        <time>2024-10-15T09:01:56.000Z</time>
      </trkpt>
      <trkpt lat="45.10258" lon="5.98311">
        <ele>2088.6000976562</ele>
        <time>2024-10-15T09:01:57.000Z</time>
      </trkpt>
      <trkpt lat="45.10258" lon="5.98311">
        <ele>2088.8000488281</ele>
        <time>2024-10-15T09:01:58.000Z</time>
      </trkpt>
      <trkpt lat="45.10257" lon="5.98311">
        <ele>2089</ele>
        <time>2024-10-15T09:01:59.000Z</time>
      </trkpt>
      <trkpt lat="45.10257" lon="5.98311">
        <ele>2089.1999511719</ele>
        <time>2024-10-15T09:02:00.000Z</time>
      </trkpt>
      <trkpt lat="45.10257" lon="5.98311">
        <ele>2089.3999023438</ele>
        <time>2024-10-15T09:02:01.000Z</time>
      </trkpt>
      <trkpt lat="45.10257" lon="5.98311">
        <ele>2089.6000976562</ele>
        <time>2024-10-15T09:02:02.000Z</time>
      </trkpt>
      <trkpt lat="45.10256" lon="5.98311">
        <ele>2089.8000488281</ele>
        <time>2024-10-15T09:02:03.000Z</time>
      </trkpt>
      <trkpt lat="45.10256" lon="5.98311">
        <ele>2090.1999511719</ele>
        <time>2024-10-15T09:02:04.000Z</time>
      </trkpt>
      <trkpt lat="45.10256" lon="5.98311">
        <ele>2090.3999023438</ele>
        <time>2024-10-15T09:02:05.000Z</time>
      </trkpt>
      <trkpt lat="45.10255" lon="5.9831">
        <ele>2090.8000488281</ele>
        <time>2024-10-15T09:02:06.000Z</time>
      </trkpt>
      <trkpt lat="45.10255" lon="5.9831">
        <ele>2091</ele>
        <time>2024-10-15T09:02:07.000Z</time>
      </trkpt>
      <trkpt lat="45.10255" lon="5.9831">
        <ele>2091.1999511719</ele>
        <time>2024-10-15T09:02:08.000Z</time>
      </trkpt>
      <trkpt lat="45.10255" lon="5.9831">
        <ele>2091.3999023438</ele>
        <time>2024-10-15T09:02:09.000Z</time>
      </trkpt>
      <trkpt lat="45.10254" lon="5.9831">
        <ele>2091.8000488281</ele>
        <time>2024-10-15T09:02:10.000Z</time>
      </trkpt>
      <trkpt lat="45.10254" lon="5.9831">
        <ele>2091.8000488281</ele>
        <time>2024-10-15T09:02:11.000Z</time>
      </trkpt>
      <trkpt lat="45.10253" lon="5.9831">
        <ele>2092.3999023438</ele>
        <time>2024-10-15T09:02:12.000Z</time>
      </trkpt>
      <trkpt lat="45.10253" lon="5.9831">
        <ele>2092.6000976562</ele>
        <time>2024-10-15T09:02:13.000Z</time>
      </trkpt>
      <trkpt lat="45.10252" lon="5.9831">
        <ele>2092.6000976562</ele>
        <time>2024-10-15T09:02:14.000Z</time>
      </trkpt>
      <trkpt lat="45.10252" lon="5.9831">
        <ele>2092.8000488281</ele>
        <time>2024-10-15T09:02:15.000Z</time>
      </trkpt>
      <trkpt lat="45.10251" lon="5.9831">
        <ele>2092.8000488281</ele>
        <time>2024-10-15T09:02:16.000Z</time>
      </trkpt>
      <trkpt lat="45.10251" lon="5.9831">
        <ele>2092.8000488281</ele>
        <time>2024-10-15T09:02:17.000Z</time>
      </trkpt>
      <trkpt lat="45.10251" lon="5.9831">
        <ele>2093</ele>
        <time>2024-10-15T09:02:18.000Z</time>
      </trkpt>
      <trkpt lat="45.1025" lon="5.9831">
        <ele>2093.1999511719</ele>
        <time>2024-10-15T09:02:19.000Z</time>
      </trkpt>
      <trkpt lat="45.1025" lon="5.98309">
        <ele>2093.3999023438</ele>
        <time>2024-10-15T09:02:20.000Z</time>
      </trkpt>
      <trkpt lat="45.10249" lon="5.98309">
        <ele>2093.6000976562</ele>
        <time>2024-10-15T09:02:21.000Z</time>
      </trkpt>
      <trkpt lat="45.10249" lon="5.98308">
        <ele>2093.8000488281</ele>
        <time>2024-10-15T09:02:22.000Z</time>
      </trkpt>
      <trkpt lat="45.10249" lon="5.98308">
        <ele>2093.8000488281</ele>
        <time>2024-10-15T09:02:23.000Z</time>
      </trkpt>
      <trkpt lat="45.10249" lon="5.98308">
        <ele>2093.8000488281</ele>
        <time>2024-10-15T09:02:24.000Z</time>
      </trkpt>
      <trkpt lat="45.10248" lon="5.98308">
        <ele>2094</ele>
        <time>2024-10-15T09:02:25.000Z</time>
      </trkpt>
      <trkpt lat="45.10248" lon="5.98308">
        <ele>2094.6000976562</ele>
        <time>2024-10-15T09:02:26.000Z</time>
      </trkpt>
      <trkpt lat="45.10248" lon="5.98308">
        <ele>2094.6000976562</ele>
        <time>2024-10-15T09:02:27.000Z</time>
      </trkpt>
      <trkpt lat="45.10248" lon="5.98308">
        <ele>2094.8000488281</ele>
        <time>2024-10-15T09:02:28.000Z</time>
      </trkpt>
      <trkpt lat="45.10248" lon="5.98308">
        <ele>2094.8000488281</ele>
        <time>2024-10-15T09:02:29.000Z</time>
      </trkpt>
      <trkpt lat="45.10248" lon="5.98308">
        <ele>2094.8000488281</ele>
        <time>2024-10-15T09:02:30.000Z</time>
      </trkpt>
      <trkpt lat="45.10248" lon="5.98308">
        <ele>2094.8000488281</ele>
        <time>2024-10-15T09:02:31.000Z</time>
      </trkpt>
      <trkpt lat="45.10248" lon="5.98308">
        <ele>2094.8000488281</ele>
        <time>2024-10-15T09:02:32.000Z</time>
      </trkpt>
      <trkpt lat="45.10247" lon="5.98308">
        <ele>2094.8000488281</ele>
        <time>2024-10-15T09:02:33.000Z</time>
      </trkpt>
      <trkpt lat="45.10247" lon="5.98308">
        <ele>2094.8000488281</ele>
        <time>2024-10-15T09:02:34.000Z</time>
      </trkpt>
      <trkpt lat="45.10247" lon="5.98308">
        <ele>2094.8000488281</ele>
        <time>2024-10-15T09:02:35.000Z</time>
      </trkpt>
      <trkpt lat="45.10247" lon="5.98308">
        <ele>2094.6000976562</ele>
        <time>2024-10-15T09:02:36.000Z</time>
      </trkpt>
      <trkpt lat="45.10247" lon="5.98308">
        <ele>2094.6000976562</ele>
        <time>2024-10-15T09:02:37.000Z</time>
      </trkpt>
      <trkpt lat="45.10246" lon="5.98308">
        <ele>2094.6000976562</ele>
        <time>2024-10-15T09:02:38.000Z</time>
      </trkpt>
      <trkpt lat="45.10246" lon="5.98308">
        <ele>2094.6000976562</ele>
        <time>2024-10-15T09:02:39.000Z</time>
      </trkpt>
      <trkpt lat="45.10246" lon="5.98308">
        <ele>2094.8000488281</ele>
        <time>2024-10-15T09:02:40.000Z</time>
      </trkpt>
      <trkpt lat="45.10245" lon="5.98308">
        <ele>2095</ele>
        <time>2024-10-15T09:02:41.000Z</time>
      </trkpt>
      <trkpt lat="45.10245" lon="5.98308">
        <ele>2095.3999023438</ele>
        <time>2024-10-15T09:02:42.000Z</time>
      </trkpt>
      <trkpt lat="45.10245" lon="5.98308">
        <ele>2095.6000976562</ele>
        <time>2024-10-15T09:02:43.000Z</time>
      </trkpt>
      <trkpt lat="45.10245" lon="5.98308">
        <ele>2096</ele>
        <time>2024-10-15T09:02:44.000Z</time>
      </trkpt>
      <trkpt lat="45.10244" lon="5.98309">
        <ele>2096.3999023438</ele>
        <time>2024-10-15T09:02:45.000Z</time>
      </trkpt>
      <trkpt lat="45.10244" lon="5.98309">
        <ele>2096.8000488281</ele>
        <time>2024-10-15T09:02:46.000Z</time>
      </trkpt>
      <trkpt lat="45.10244" lon="5.98309">
        <ele>2096.8000488281</ele>
        <time>2024-10-15T09:02:47.000Z</time>
      </trkpt>
      <trkpt lat="45.10244" lon="5.98309">
        <ele>2097</ele>
        <time>2024-10-15T09:02:48.000Z</time>
      </trkpt>
      <trkpt lat="45.10244" lon="5.98309">
        <ele>2097.3999023438</ele>
        <time>2024-10-15T09:02:49.000Z</time>
      </trkpt>
      <trkpt lat="45.10244" lon="5.9831">
        <ele>2097.8000488281</ele>
        <time>2024-10-15T09:02:50.000Z</time>
      </trkpt>
      <trkpt lat="45.10244" lon="5.9831">
        <ele>2097.8000488281</ele>
        <time>2024-10-15T09:02:51.000Z</time>
      </trkpt>
      <trkpt lat="45.10244" lon="5.9831">
        <ele>2098</ele>
        <time>2024-10-15T09:02:52.000Z</time>
      </trkpt>
      <trkpt lat="45.10244" lon="5.9831">
        <ele>2098.1999511719</ele>
        <time>2024-10-15T09:02:53.000Z</time>
      </trkpt>
      <trkpt lat="45.10243" lon="5.9831">
        <ele>2098.3999023438</ele>
        <time>2024-10-15T09:02:54.000Z</time>
      </trkpt>
      <trkpt lat="45.10243" lon="5.9831">
        <ele>2098.6000976562</ele>
        <time>2024-10-15T09:02:55.000Z</time>
      </trkpt>
      <trkpt lat="45.10243" lon="5.98311">
        <ele>2098.6000976562</ele>
        <time>2024-10-15T09:02:56.000Z</time>
      </trkpt>
      <trkpt lat="45.10243" lon="5.98311">
        <ele>2099</ele>
        <time>2024-10-15T09:02:57.000Z</time>
      </trkpt>
      <trkpt lat="45.10243" lon="5.98311">
        <ele>2099.1999511719</ele>
        <time>2024-10-15T09:02:58.000Z</time>
      </trkpt>
      <trkpt lat="45.10242" lon="5.98311">
        <ele>2099.1999511719</ele>
        <time>2024-10-15T09:02:59.000Z</time>
      </trkpt>
      <trkpt lat="45.10242" lon="5.98311">
        <ele>2099.3999023438</ele>
        <time>2024-10-15T09:03:00.000Z</time>
      </trkpt>
      <trkpt lat="45.10242" lon="5.98311">
        <ele>2099.6000976562</ele>
        <time>2024-10-15T09:03:01.000Z</time>
      </trkpt>
      <trkpt lat="45.10242" lon="5.98311">
        <ele>2099.8000488281</ele>
        <time>2024-10-15T09:03:02.000Z</time>
      </trkpt>
      <trkpt lat="45.10241" lon="5.98311">
        <ele>2100.1999511719</ele>
        <time>2024-10-15T09:03:03.000Z</time>
      </trkpt>
      <trkpt lat="45.10241" lon="5.98311">
        <ele>2100.6000976562</ele>
        <time>2024-10-15T09:03:04.000Z</time>
      </trkpt>
      <trkpt lat="45.10241" lon="5.98311">
        <ele>2100.8000488281</ele>
        <time>2024-10-15T09:03:05.000Z</time>
      </trkpt>
      <trkpt lat="45.1024" lon="5.98311">
        <ele>2101</ele>
        <time>2024-10-15T09:03:06.000Z</time>
      </trkpt>
      <trkpt lat="45.1024" lon="5.98311">
        <ele>2101</ele>
        <time>2024-10-15T09:03:07.000Z</time>
      </trkpt>
      <trkpt lat="45.1024" lon="5.98311">
        <ele>2101.1999511719</ele>
        <time>2024-10-15T09:03:08.000Z</time>
      </trkpt>
      <trkpt lat="45.10239" lon="5.98311">
        <ele>2101.1999511719</ele>
        <time>2024-10-15T09:03:09.000Z</time>
      </trkpt>
      <trkpt lat="45.10239" lon="5.98311">
        <ele>2101.1999511719</ele>
        <time>2024-10-15T09:03:10.000Z</time>
      </trkpt>
      <trkpt lat="45.10239" lon="5.98311">
        <ele>2101.1999511719</ele>
        <time>2024-10-15T09:03:11.000Z</time>
      </trkpt>
      <trkpt lat="45.10239" lon="5.98311">
        <ele>2101.1999511719</ele>
        <time>2024-10-15T09:03:12.000Z</time>
      </trkpt>
      <trkpt lat="45.10238" lon="5.98311">
        <ele>2101.1999511719</ele>
        <time>2024-10-15T09:03:13.000Z</time>
      </trkpt>
      <trkpt lat="45.10238" lon="5.98311">
        <ele>2101.6000976562</ele>
        <time>2024-10-15T09:03:14.000Z</time>
      </trkpt>
      <trkpt lat="45.10238" lon="5.98311">
        <ele>2101.8000488281</ele>
        <time>2024-10-15T09:03:15.000Z</time>
      </trkpt>
      <trkpt lat="45.10237" lon="5.98311">
        <ele>2101.8000488281</ele>
        <time>2024-10-15T09:03:16.000Z</time>
      </trkpt>
      <trkpt lat="45.10237" lon="5.98311">
        <ele>2102</ele>
        <time>2024-10-15T09:03:17.000Z</time>
      </trkpt>
      <trkpt lat="45.10237" lon="5.9831">
        <ele>2102</ele>
        <time>2024-10-15T09:03:18.000Z</time>
      </trkpt>
      <trkpt lat="45.10236" lon="5.9831">
        <ele>2102.1999511719</ele>
        <time>2024-10-15T09:03:19.000Z</time>
      </trkpt>
      <trkpt lat="45.10236" lon="5.9831">
        <ele>2102.1999511719</ele>
        <time>2024-10-15T09:03:20.000Z</time>
      </trkpt>
      <trkpt lat="45.10236" lon="5.9831">
        <ele>2102.6000976562</ele>
        <time>2024-10-15T09:03:21.000Z</time>
      </trkpt>
      <trkpt lat="45.10236" lon="5.98309">
        <ele>2102.6000976562</ele>
        <time>2024-10-15T09:03:22.000Z</time>
      </trkpt>
      <trkpt lat="45.10235" lon="5.98309">
        <ele>2102.6000976562</ele>
        <time>2024-10-15T09:03:23.000Z</time>
      </trkpt>
      <trkpt lat="45.10235" lon="5.98309">
        <ele>2102.8000488281</ele>
        <time>2024-10-15T09:03:24.000Z</time>
      </trkpt>
      <trkpt lat="45.10235" lon="5.98309">
        <ele>2103</ele>
        <time>2024-10-15T09:03:25.000Z</time>
      </trkpt>
      <trkpt lat="45.10235" lon="5.98308">
        <ele>2103.1999511719</ele>
        <time>2024-10-15T09:03:26.000Z</time>
      </trkpt>
      <trkpt lat="45.10235" lon="5.98308">
        <ele>2103.6000976562</ele>
        <time>2024-10-15T09:03:27.000Z</time>
      </trkpt>
      <trkpt lat="45.10234" lon="5.98307">
        <ele>2104</ele>
        <time>2024-10-15T09:03:28.000Z</time>
      </trkpt>
      <trkpt lat="45.10234" lon="5.98307">
        <ele>2104.1999511719</ele>
        <time>2024-10-15T09:03:29.000Z</time>
      </trkpt>
      <trkpt lat="45.10234" lon="5.98307">
        <ele>2104.6000976562</ele>
        <time>2024-10-15T09:03:30.000Z</time>
      </trkpt>
      <trkpt lat="45.10234" lon="5.98306">
        <ele>2105</ele>
        <time>2024-10-15T09:03:31.000Z</time>
      </trkpt>
      <trkpt lat="45.10234" lon="5.98305">
        <ele>2105</ele>
        <time>2024-10-15T09:03:32.000Z</time>
      </trkpt>
      <trkpt lat="45.10233" lon="5.98302">
        <ele>2105.1999511719</ele>
        <time>2024-10-15T09:03:33.000Z</time>
      </trkpt>
      <trkpt lat="45.10233" lon="5.98299">
        <ele>2105.1999511719</ele>
        <time>2024-10-15T09:03:34.000Z</time>
      </trkpt>
      <trkpt lat="45.10232" lon="5.98297">
        <ele>2105</ele>
        <time>2024-10-15T09:03:35.000Z</time>
      </trkpt>
      <trkpt lat="45.10231" lon="5.98295">
        <ele>2105.1999511719</ele>
        <time>2024-10-15T09:03:36.000Z</time>
      </trkpt>
      <trkpt lat="45.10231" lon="5.98292">
        <ele>2105</ele>
        <time>2024-10-15T09:03:37.000Z</time>
      </trkpt>
      <trkpt lat="45.1023" lon="5.9829">
        <ele>2105.1999511719</ele>
        <time>2024-10-15T09:03:38.000Z</time>
      </trkpt>
      <trkpt lat="45.10229" lon="5.98288">
        <ele>2105.1999511719</ele>
        <time>2024-10-15T09:03:39.000Z</time>
      </trkpt>
      <trkpt lat="45.10228" lon="5.98286">
        <ele>2105.1999511719</ele>
        <time>2024-10-15T09:03:40.000Z</time>
      </trkpt>
      <trkpt lat="45.10227" lon="5.98284">
        <ele>2105.3999023438</ele>
        <time>2024-10-15T09:03:41.000Z</time>
      </trkpt>
      <trkpt lat="45.10227" lon="5.98283">
        <ele>2105.6000976562</ele>
        <time>2024-10-15T09:03:42.000Z</time>
      </trkpt>
      <trkpt lat="45.10226" lon="5.98283">
        <ele>2105.6000976562</ele>
        <time>2024-10-15T09:03:43.000Z</time>
      </trkpt>
      <trkpt lat="45.10226" lon="5.98282">
        <ele>2105.8000488281</ele>
        <time>2024-10-15T09:03:44.000Z</time>
      </trkpt>
      <trkpt lat="45.10226" lon="5.98281">
        <ele>2106</ele>
        <time>2024-10-15T09:03:45.000Z</time>
      </trkpt>
      <trkpt lat="45.10225" lon="5.9828">
        <ele>2106.1999511719</ele>
        <time>2024-10-15T09:03:46.000Z</time>
      </trkpt>
      <trkpt lat="45.10225" lon="5.98279">
        <ele>2106.6000976562</ele>
        <time>2024-10-15T09:03:47.000Z</time>
      </trkpt>
      <trkpt lat="45.10224" lon="5.98278">
        <ele>2106.6000976562</ele>
        <time>2024-10-15T09:03:48.000Z</time>
      </trkpt>
      <trkpt lat="45.10224" lon="5.98277">
        <ele>2106.8000488281</ele>
        <time>2024-10-15T09:03:49.000Z</time>
      </trkpt>
      <trkpt lat="45.10224" lon="5.98276">
        <ele>2107</ele>
        <time>2024-10-15T09:03:50.000Z</time>
      </trkpt>
      <trkpt lat="45.10224" lon="5.98276">
        <ele>2107</ele>
        <time>2024-10-15T09:03:51.000Z</time>
      </trkpt>
      <trkpt lat="45.10223" lon="5.98275">
        <ele>2107.1999511719</ele>
        <time>2024-10-15T09:03:52.000Z</time>
      </trkpt>
      <trkpt lat="45.10223" lon="5.98273">
        <ele>2107.1999511719</ele>
        <time>2024-10-15T09:03:53.000Z</time>
      </trkpt>
      <trkpt lat="45.10223" lon="5.98272">
        <ele>2107.3999023438</ele>
        <time>2024-10-15T09:03:54.000Z</time>
      </trkpt>
      <trkpt lat="45.10223" lon="5.98272">
        <ele>2107.3999023438</ele>
        <time>2024-10-15T09:03:55.000Z</time>
      </trkpt>
      <trkpt lat="45.10223" lon="5.98271">
        <ele>2107.6000976562</ele>
        <time>2024-10-15T09:03:56.000Z</time>
      </trkpt>
      <trkpt lat="45.10223" lon="5.98269">
        <ele>2108</ele>
        <time>2024-10-15T09:03:57.000Z</time>
      </trkpt>
      <trkpt lat="45.10222" lon="5.98269">
        <ele>2108</ele>
        <time>2024-10-15T09:03:58.000Z</time>
      </trkpt>
      <trkpt lat="45.10222" lon="5.98268">
        <ele>2108.1999511719</ele>
        <time>2024-10-15T09:03:59.000Z</time>
      </trkpt>
      <trkpt lat="45.10222" lon="5.98268">
        <ele>2108.3999023438</ele>
        <time>2024-10-15T09:04:00.000Z</time>
      </trkpt>
      <trkpt lat="45.10222" lon="5.98267">
        <ele>2108.6000976562</ele>
        <time>2024-10-15T09:04:01.000Z</time>
      </trkpt>
      <trkpt lat="45.10222" lon="5.98267">
        <ele>2108.6000976562</ele>
        <time>2024-10-15T09:04:02.000Z</time>
      </trkpt>
      <trkpt lat="45.10222" lon="5.98266">
        <ele>2108.6000976562</ele>
        <time>2024-10-15T09:04:03.000Z</time>
      </trkpt>
      <trkpt lat="45.10221" lon="5.98265">
        <ele>2108.8000488281</ele>
        <time>2024-10-15T09:04:04.000Z</time>
      </trkpt>
      <trkpt lat="45.10221" lon="5.98264">
        <ele>2108.8000488281</ele>
        <time>2024-10-15T09:04:05.000Z</time>
      </trkpt>
      <trkpt lat="45.10221" lon="5.98263">
        <ele>2108.8000488281</ele>
        <time>2024-10-15T09:04:06.000Z</time>
      </trkpt>
      <trkpt lat="45.1022" lon="5.98263">
        <ele>2108.8000488281</ele>
        <time>2024-10-15T09:04:07.000Z</time>
      </trkpt>
      <trkpt lat="45.1022" lon="5.98262">
        <ele>2108.8000488281</ele>
        <time>2024-10-15T09:04:08.000Z</time>
      </trkpt>
      <trkpt lat="45.1022" lon="5.98262">
        <ele>2108.8000488281</ele>
        <time>2024-10-15T09:04:09.000Z</time>
      </trkpt>
      <trkpt lat="45.1022" lon="5.98261">
        <ele>2108.8000488281</ele>
        <time>2024-10-15T09:04:10.000Z</time>
      </trkpt>
      <trkpt lat="45.10219" lon="5.9826">
        <ele>2109</ele>
        <time>2024-10-15T09:04:11.000Z</time>
      </trkpt>
      <trkpt lat="45.10219" lon="5.9826">
        <ele>2109.3999023438</ele>
        <time>2024-10-15T09:04:12.000Z</time>
      </trkpt>
      <trkpt lat="45.10218" lon="5.98259">
        <ele>2109.6000976562</ele>
        <time>2024-10-15T09:04:13.000Z</time>
      </trkpt>
      <trkpt lat="45.10218" lon="5.98259">
        <ele>2109.8000488281</ele>
        <time>2024-10-15T09:04:14.000Z</time>
      </trkpt>
      <trkpt lat="45.10217" lon="5.98259">
        <ele>2110</ele>
        <time>2024-10-15T09:04:15.000Z</time>
      </trkpt>
      <trkpt lat="45.10217" lon="5.98258">
        <ele>2110.1999511719</ele>
        <time>2024-10-15T09:04:16.000Z</time>
      </trkpt>
      <trkpt lat="45.10216" lon="5.98257">
        <ele>2110.3999023438</ele>
        <time>2024-10-15T09:04:17.000Z</time>
      </trkpt>
      <trkpt lat="45.10216" lon="5.98257">
        <ele>2110.3999023438</ele>
        <time>2024-10-15T09:04:18.000Z</time>
      </trkpt>
      <trkpt lat="45.10215" lon="5.98256">
        <ele>2110.6000976562</ele>
        <time>2024-10-15T09:04:19.000Z</time>
      </trkpt>
      <trkpt lat="45.10215" lon="5.98256">
        <ele>2110.8000488281</ele>
        <time>2024-10-15T09:04:20.000Z</time>
      </trkpt>
      <trkpt lat="45.10215" lon="5.98255">
        <ele>2110.8000488281</ele>
        <time>2024-10-15T09:04:21.000Z</time>
      </trkpt>
      <trkpt lat="45.10215" lon="5.98254">
        <ele>2111</ele>
        <time>2024-10-15T09:04:22.000Z</time>
      </trkpt>
      <trkpt lat="45.10214" lon="5.98254">
        <ele>2111.1999511719</ele>
        <time>2024-10-15T09:04:23.000Z</time>
      </trkpt>
      <trkpt lat="45.10214" lon="5.98254">
        <ele>2111.1999511719</ele>
        <time>2024-10-15T09:04:24.000Z</time>
      </trkpt>
      <trkpt lat="45.10214" lon="5.98253">
        <ele>2111.3999023438</ele>
        <time>2024-10-15T09:04:25.000Z</time>
      </trkpt>
      <trkpt lat="45.10214" lon="5.98253">
        <ele>2111.3999023438</ele>
        <time>2024-10-15T09:04:26.000Z</time>
      </trkpt>
      <trkpt lat="45.10213" lon="5.98253">
        <ele>2111.3999023438</ele>
        <time>2024-10-15T09:04:27.000Z</time>
      </trkpt>
      <trkpt lat="45.10213" lon="5.98252">
        <ele>2111.3999023438</ele>
        <time>2024-10-15T09:04:28.000Z</time>
      </trkpt>
      <trkpt lat="45.10213" lon="5.98251">
        <ele>2111.6000976562</ele>
        <time>2024-10-15T09:04:29.000Z</time>
      </trkpt>
      <trkpt lat="45.10212" lon="5.98251">
        <ele>2111.8000488281</ele>
        <time>2024-10-15T09:04:30.000Z</time>
      </trkpt>
      <trkpt lat="45.10212" lon="5.98251">
        <ele>2111.8000488281</ele>
        <time>2024-10-15T09:04:31.000Z</time>
      </trkpt>
      <trkpt lat="45.10212" lon="5.9825">
        <ele>2112</ele>
        <time>2024-10-15T09:04:32.000Z</time>
      </trkpt>
      <trkpt lat="45.10211" lon="5.9825">
        <ele>2112.1999511719</ele>
        <time>2024-10-15T09:04:33.000Z</time>
      </trkpt>
      <trkpt lat="45.10211" lon="5.9825">
        <ele>2112.3999023438</ele>
        <time>2024-10-15T09:04:34.000Z</time>
      </trkpt>
      <trkpt lat="45.10211" lon="5.98248">
        <ele>2112.3999023438</ele>
        <time>2024-10-15T09:04:35.000Z</time>
      </trkpt>
      <trkpt lat="45.10211" lon="5.98248">
        <ele>2112.6000976562</ele>
        <time>2024-10-15T09:04:36.000Z</time>
      </trkpt>
      <trkpt lat="45.10211" lon="5.98248">
        <ele>2112.6000976562</ele>
        <time>2024-10-15T09:04:37.000Z</time>
      </trkpt>
      <trkpt lat="45.10211" lon="5.98247">
        <ele>2112.6000976562</ele>
        <time>2024-10-15T09:04:38.000Z</time>
      </trkpt>
      <trkpt lat="45.10211" lon="5.98247">
        <ele>2112.6000976562</ele>
        <time>2024-10-15T09:04:39.000Z</time>
      </trkpt>
      <trkpt lat="45.10211" lon="5.98246">
        <ele>2112.6000976562</ele>
        <time>2024-10-15T09:04:40.000Z</time>
      </trkpt>
      <trkpt lat="45.10211" lon="5.98245">
        <ele>2112.6000976562</ele>
        <time>2024-10-15T09:04:41.000Z</time>
      </trkpt>
      <trkpt lat="45.10211" lon="5.98244">
        <ele>2112.3999023438</ele>
        <time>2024-10-15T09:04:42.000Z</time>
      </trkpt>
      <trkpt lat="45.10211" lon="5.98243">
        <ele>2112.3999023438</ele>
        <time>2024-10-15T09:04:43.000Z</time>
      </trkpt>
      <trkpt lat="45.10211" lon="5.98242">
        <ele>2112.3999023438</ele>
        <time>2024-10-15T09:04:44.000Z</time>
      </trkpt>
      <trkpt lat="45.10211" lon="5.98241">
        <ele>2112.1999511719</ele>
        <time>2024-10-15T09:04:45.000Z</time>
      </trkpt>
      <trkpt lat="45.10211" lon="5.9824">
        <ele>2112.1999511719</ele>
        <time>2024-10-15T09:04:46.000Z</time>
      </trkpt>
      <trkpt lat="45.10211" lon="5.9824">
        <ele>2112.1999511719</ele>
        <time>2024-10-15T09:04:47.000Z</time>
      </trkpt>
      <trkpt lat="45.10211" lon="5.98239">
        <ele>2112.1999511719</ele>
        <time>2024-10-15T09:04:48.000Z</time>
      </trkpt>
      <trkpt lat="45.10211" lon="5.98239">
        <ele>2112.1999511719</ele>
        <time>2024-10-15T09:04:49.000Z</time>
      </trkpt>
      <trkpt lat="45.10211" lon="5.98239">
        <ele>2112.1999511719</ele>
        <time>2024-10-15T09:04:50.000Z</time>
      </trkpt>
      <trkpt lat="45.10211" lon="5.98238">
        <ele>2112.3999023438</ele>
        <time>2024-10-15T09:04:51.000Z</time>
      </trkpt>
      <trkpt lat="45.10211" lon="5.98238">
        <ele>2112.6000976562</ele>
        <time>2024-10-15T09:04:52.000Z</time>
      </trkpt>
      <trkpt lat="45.10211" lon="5.98238">
        <ele>2112.6000976562</ele>
        <time>2024-10-15T09:04:53.000Z</time>
      </trkpt>
      <trkpt lat="45.10211" lon="5.98238">
        <ele>2112.6000976562</ele>
        <time>2024-10-15T09:04:54.000Z</time>
      </trkpt>
      <trkpt lat="45.10211" lon="5.98237">
        <ele>2112.6000976562</ele>
        <time>2024-10-15T09:04:55.000Z</time>
      </trkpt>
      <trkpt lat="45.10211" lon="5.98235">
        <ele>2112.8000488281</ele>
        <time>2024-10-15T09:04:56.000Z</time>
      </trkpt>
      <trkpt lat="45.10211" lon="5.98234">
        <ele>2112.8000488281</ele>
        <time>2024-10-15T09:04:57.000Z</time>
      </trkpt>
      <trkpt lat="45.10211" lon="5.98233">
        <ele>2113</ele>
        <time>2024-10-15T09:04:58.000Z</time>
      </trkpt>
      <trkpt lat="45.10211" lon="5.98233">
        <ele>2113.1999511719</ele>
        <time>2024-10-15T09:04:59.000Z</time>
      </trkpt>
      <trkpt lat="45.10211" lon="5.98233">
        <ele>2113.3999023438</ele>
        <time>2024-10-15T09:05:00.000Z</time>
      </trkpt>
      <trkpt lat="45.10212" lon="5.98233">
        <ele>2113.3999023438</ele>
        <time>2024-10-15T09:05:01.000Z</time>
      </trkpt>
      <trkpt lat="45.10212" lon="5.98233">
        <ele>2113.3999023438</ele>
        <time>2024-10-15T09:05:02.000Z</time>
      </trkpt>
      <trkpt lat="45.10212" lon="5.98233">
        <ele>2113.3999023438</ele>
        <time>2024-10-15T09:05:03.000Z</time>
      </trkpt>
      <trkpt lat="45.10212" lon="5.98233">
        <ele>2113.6000976562</ele>
        <time>2024-10-15T09:05:04.000Z</time>
      </trkpt>
      <trkpt lat="45.10211" lon="5.98232">
        <ele>2113.6000976562</ele>
        <time>2024-10-15T09:05:05.000Z</time>
      </trkpt>
      <trkpt lat="45.10211" lon="5.98231">
        <ele>2113.8000488281</ele>
        <time>2024-10-15T09:05:06.000Z</time>
      </trkpt>
      <trkpt lat="45.10211" lon="5.9823">
        <ele>2114.1999511719</ele>
        <time>2024-10-15T09:05:07.000Z</time>
      </trkpt>
      <trkpt lat="45.10211" lon="5.9823">
        <ele>2114.3999023438</ele>
        <time>2024-10-15T09:05:08.000Z</time>
      </trkpt>
      <trkpt lat="45.10211" lon="5.9823">
        <ele>2114.3999023438</ele>
        <time>2024-10-15T09:05:09.000Z</time>
      </trkpt>
      <trkpt lat="45.10211" lon="5.98229">
        <ele>2114.3999023438</ele>
        <time>2024-10-15T09:05:10.000Z</time>
      </trkpt>
      <trkpt lat="45.10211" lon="5.98229">
        <ele>2114.3999023438</ele>
        <time>2024-10-15T09:05:11.000Z</time>
      </trkpt>
      <trkpt lat="45.10211" lon="5.98229">
        <ele>2114.3999023438</ele>
        <time>2024-10-15T09:05:12.000Z</time>
      </trkpt>
      <trkpt lat="45.10211" lon="5.98229">
        <ele>2114.3999023438</ele>
        <time>2024-10-15T09:05:13.000Z</time>
      </trkpt>
      <trkpt lat="45.10211" lon="5.98229">
        <ele>2114.3999023438</ele>
        <time>2024-10-15T09:05:14.000Z</time>
      </trkpt>
      <trkpt lat="45.10211" lon="5.98229">
        <ele>2114.6000976562</ele>
        <time>2024-10-15T09:05:15.000Z</time>
      </trkpt>
      <trkpt lat="45.10211" lon="5.98229">
        <ele>2114.6000976562</ele>
        <time>2024-10-15T09:05:16.000Z</time>
      </trkpt>
      <trkpt lat="45.10211" lon="5.98229">
        <ele>2114.6000976562</ele>
        <time>2024-10-15T09:05:17.000Z</time>
      </trkpt>
      <trkpt lat="45.10211" lon="5.98229">
        <ele>2114.6000976562</ele>
        <time>2024-10-15T09:05:18.000Z</time>
      </trkpt>
      <trkpt lat="45.10211" lon="5.98229">
        <ele>2114.6000976562</ele>
        <time>2024-10-15T09:05:19.000Z</time>
      </trkpt>
      <trkpt lat="45.10211" lon="5.98229">
        <ele>2114.6000976562</ele>
        <time>2024-10-15T09:05:20.000Z</time>
      </trkpt>
      <trkpt lat="45.10211" lon="5.98229">
        <ele>2114.6000976562</ele>
        <time>2024-10-15T09:05:21.000Z</time>
      </trkpt>
      <trkpt lat="45.10211" lon="5.98229">
        <ele>2114.6000976562</ele>
        <time>2024-10-15T09:05:22.000Z</time>
      </trkpt>
      <trkpt lat="45.10211" lon="5.98229">
        <ele>2114.6000976562</ele>
        <time>2024-10-15T09:05:23.000Z</time>
      </trkpt>
      <trkpt lat="45.10211" lon="5.98229">
        <ele>2114.3999023438</ele>
        <time>2024-10-15T09:05:24.000Z</time>
      </trkpt>
      <trkpt lat="45.10211" lon="5.98229">
        <ele>2114.1999511719</ele>
        <time>2024-10-15T09:05:25.000Z</time>
      </trkpt>
      <trkpt lat="45.10211" lon="5.98229">
        <ele>2114.1999511719</ele>
        <time>2024-10-15T09:05:26.000Z</time>
      </trkpt>
      <trkpt lat="45.10211" lon="5.98229">
        <ele>2114</ele>
        <time>2024-10-15T09:05:27.000Z</time>
      </trkpt>
      <trkpt lat="45.10211" lon="5.98229">
        <ele>2114</ele>
        <time>2024-10-15T09:05:28.000Z</time>
      </trkpt>
      <trkpt lat="45.10211" lon="5.98229">
        <ele>2114</ele>
        <time>2024-10-15T09:05:29.000Z</time>
      </trkpt>
      <trkpt lat="45.10211" lon="5.98229">
        <ele>2113.8000488281</ele>
        <time>2024-10-15T09:05:30.000Z</time>
      </trkpt>
      <trkpt lat="45.10211" lon="5.98229">
        <ele>2113.8000488281</ele>
        <time>2024-10-15T09:05:31.000Z</time>
      </trkpt>
      <trkpt lat="45.10211" lon="5.98229">
        <ele>2113.8000488281</ele>
        <time>2024-10-15T09:05:32.000Z</time>
      </trkpt>
      <trkpt lat="45.10211" lon="5.98229">
        <ele>2113.8000488281</ele>
        <time>2024-10-15T09:05:33.000Z</time>
      </trkpt>
      <trkpt lat="45.10211" lon="5.98229">
        <ele>2113.8000488281</ele>
        <time>2024-10-15T09:05:34.000Z</time>
      </trkpt>
      <trkpt lat="45.10211" lon="5.98229">
        <ele>2113.8000488281</ele>
        <time>2024-10-15T09:05:35.000Z</time>
      </trkpt>
      <trkpt lat="45.10211" lon="5.98229">
        <ele>2114</ele>
        <time>2024-10-15T09:05:36.000Z</time>
      </trkpt>
      <trkpt lat="45.10211" lon="5.98227">
        <ele>2114.1999511719</ele>
        <time>2024-10-15T09:05:37.000Z</time>
      </trkpt>
      <trkpt lat="45.1021" lon="5.98226">
        <ele>2114.3999023438</ele>
        <time>2024-10-15T09:05:38.000Z</time>
      </trkpt>
      <trkpt lat="45.1021" lon="5.98225">
        <ele>2114.3999023438</ele>
        <time>2024-10-15T09:05:39.000Z</time>
      </trkpt>
      <trkpt lat="45.10209" lon="5.98224">
        <ele>2114.6000976562</ele>
        <time>2024-10-15T09:05:40.000Z</time>
      </trkpt>
      <trkpt lat="45.10208" lon="5.98223">
        <ele>2114.8000488281</ele>
        <time>2024-10-15T09:05:41.000Z</time>
      </trkpt>
      <trkpt lat="45.10208" lon="5.98222">
        <ele>2115.1999511719</ele>
        <time>2024-10-15T09:05:42.000Z</time>
      </trkpt>
      <trkpt lat="45.10207" lon="5.98221">
        <ele>2115.3999023438</ele>
        <time>2024-10-15T09:05:43.000Z</time>
      </trkpt>
      <trkpt lat="45.10206" lon="5.98219">
        <ele>2115.6000976562</ele>
        <time>2024-10-15T09:05:44.000Z</time>
      </trkpt>
      <trkpt lat="45.10206" lon="5.98219">
        <ele>2115.8000488281</ele>
        <time>2024-10-15T09:05:45.000Z</time>
      </trkpt>
      <trkpt lat="45.10206" lon="5.98218">
        <ele>2116.3999023438</ele>
        <time>2024-10-15T09:05:46.000Z</time>
      </trkpt>
      <trkpt lat="45.10206" lon="5.98218">
        <ele>2116.3999023438</ele>
        <time>2024-10-15T09:05:47.000Z</time>
      </trkpt>
      <trkpt lat="45.10206" lon="5.98218">
        <ele>2116.3999023438</ele>
        <time>2024-10-15T09:05:48.000Z</time>
      </trkpt>
      <trkpt lat="45.10206" lon="5.98218">
        <ele>2116.3999023438</ele>
        <time>2024-10-15T09:05:49.000Z</time>
      </trkpt>
      <trkpt lat="45.10207" lon="5.98218">
        <ele>2116.3999023438</ele>
        <time>2024-10-15T09:05:50.000Z</time>
      </trkpt>
      <trkpt lat="45.10206" lon="5.98218">
        <ele>2116.3999023438</ele>
        <time>2024-10-15T09:05:51.000Z</time>
      </trkpt>
      <trkpt lat="45.10206" lon="5.98218">
        <ele>2116.1999511719</ele>
        <time>2024-10-15T09:05:52.000Z</time>
      </trkpt>
      <trkpt lat="45.10206" lon="5.98218">
        <ele>2116.1999511719</ele>
        <time>2024-10-15T09:05:53.000Z</time>
      </trkpt>
      <trkpt lat="45.10206" lon="5.98218">
        <ele>2116.1999511719</ele>
        <time>2024-10-15T09:05:54.000Z</time>
      </trkpt>
      <trkpt lat="45.10206" lon="5.98218">
        <ele>2116.1999511719</ele>
        <time>2024-10-15T09:05:55.000Z</time>
      </trkpt>
      <trkpt lat="45.10206" lon="5.98218">
        <ele>2116.1999511719</ele>
        <time>2024-10-15T09:05:56.000Z</time>
      </trkpt>
      <trkpt lat="45.10206" lon="5.98218">
        <ele>2116.1999511719</ele>
        <time>2024-10-15T09:05:57.000Z</time>
      </trkpt>
      <trkpt lat="45.10206" lon="5.98218">
        <ele>2116.3999023438</ele>
        <time>2024-10-15T09:05:58.000Z</time>
      </trkpt>
      <trkpt lat="45.10206" lon="5.98218">
        <ele>2116.6000976562</ele>
        <time>2024-10-15T09:05:59.000Z</time>
      </trkpt>
      <trkpt lat="45.10206" lon="5.98218">
        <ele>2116.6000976562</ele>
        <time>2024-10-15T09:06:00.000Z</time>
      </trkpt>
      <trkpt lat="45.10206" lon="5.98218">
        <ele>2116.6000976562</ele>
        <time>2024-10-15T09:06:01.000Z</time>
      </trkpt>
      <trkpt lat="45.10206" lon="5.98218">
        <ele>2116.8000488281</ele>
        <time>2024-10-15T09:06:02.000Z</time>
      </trkpt>
      <trkpt lat="45.10206" lon="5.98218">
        <ele>2116.8000488281</ele>
        <time>2024-10-15T09:06:03.000Z</time>
      </trkpt>
      <trkpt lat="45.10206" lon="5.98218">
        <ele>2116.8000488281</ele>
        <time>2024-10-15T09:06:04.000Z</time>
      </trkpt>
      <trkpt lat="45.10206" lon="5.98218">
        <ele>2116.8000488281</ele>
        <time>2024-10-15T09:06:05.000Z</time>
      </trkpt>
      <trkpt lat="45.10206" lon="5.98218">
        <ele>2116.8000488281</ele>
        <time>2024-10-15T09:06:06.000Z</time>
      </trkpt>
      <trkpt lat="45.10206" lon="5.98218">
        <ele>2116.6000976562</ele>
        <time>2024-10-15T09:06:07.000Z</time>
      </trkpt>
      <trkpt lat="45.10206" lon="5.98218">
        <ele>2116.6000976562</ele>
        <time>2024-10-15T09:06:08.000Z</time>
      </trkpt>
      <trkpt lat="45.10206" lon="5.98218">
        <ele>2116.6000976562</ele>
        <time>2024-10-15T09:06:09.000Z</time>
      </trkpt>
      <trkpt lat="45.10206" lon="5.98218">
        <ele>2116.3999023438</ele>
        <time>2024-10-15T09:06:10.000Z</time>
      </trkpt>
      <trkpt lat="45.10206" lon="5.98218">
        <ele>2116.3999023438</ele>
        <time>2024-10-15T09:06:11.000Z</time>
      </trkpt>
      <trkpt lat="45.10206" lon="5.98218">
        <ele>2116.6000976562</ele>
        <time>2024-10-15T09:06:12.000Z</time>
      </trkpt>
      <trkpt lat="45.10206" lon="5.98218">
        <ele>2116.3999023438</ele>
        <time>2024-10-15T09:06:13.000Z</time>
      </trkpt>
      <trkpt lat="45.10206" lon="5.98218">
        <ele>2116.3999023438</ele>
        <time>2024-10-15T09:06:14.000Z</time>
      </trkpt>
      <trkpt lat="45.10206" lon="5.98218">
        <ele>2116.3999023438</ele>
        <time>2024-10-15T09:06:15.000Z</time>
      </trkpt>
      <trkpt lat="45.10206" lon="5.98218">
        <ele>2116.3999023438</ele>
        <time>2024-10-15T09:06:16.000Z</time>
      </trkpt>
      <trkpt lat="45.10206" lon="5.98218">
        <ele>2116.3999023438</ele>
        <time>2024-10-15T09:06:17.000Z</time>
      </trkpt>
      <trkpt lat="45.10206" lon="5.98218">
        <ele>2116.3999023438</ele>
        <time>2024-10-15T09:06:18.000Z</time>
      </trkpt>
      <trkpt lat="45.10206" lon="5.98217">
        <ele>2116.3999023438</ele>
        <time>2024-10-15T09:06:19.000Z</time>
      </trkpt>
      <trkpt lat="45.10206" lon="5.98217">
        <ele>2116.1999511719</ele>
        <time>2024-10-15T09:06:20.000Z</time>
      </trkpt>
      <trkpt lat="45.10206" lon="5.98217">
        <ele>2116.1999511719</ele>
        <time>2024-10-15T09:06:21.000Z</time>
      </trkpt>
      <trkpt lat="45.10206" lon="5.98216">
        <ele>2116.1999511719</ele>
        <time>2024-10-15T09:06:22.000Z</time>
      </trkpt>
      <trkpt lat="45.10206" lon="5.98216">
        <ele>2116.1999511719</ele>
        <time>2024-10-15T09:06:23.000Z</time>
      </trkpt>
      <trkpt lat="45.10206" lon="5.98216">
        <ele>2116.1999511719</ele>
        <time>2024-10-15T09:06:24.000Z</time>
      </trkpt>
      <trkpt lat="45.10206" lon="5.98216">
        <ele>2116.1999511719</ele>
        <time>2024-10-15T09:06:25.000Z</time>
      </trkpt>
      <trkpt lat="45.10206" lon="5.98216">
        <ele>2116</ele>
        <time>2024-10-15T09:06:26.000Z</time>
      </trkpt>
      <trkpt lat="45.10207" lon="5.98216">
        <ele>2115.8000488281</ele>
        <time>2024-10-15T09:06:27.000Z</time>
      </trkpt>
      <trkpt lat="45.10207" lon="5.98216">
        <ele>2115.8000488281</ele>
        <time>2024-10-15T09:06:28.000Z</time>
      </trkpt>
      <trkpt lat="45.10207" lon="5.98216">
        <ele>2115.3999023438</ele>
        <time>2024-10-15T09:06:29.000Z</time>
      </trkpt>
      <trkpt lat="45.10207" lon="5.98216">
        <ele>2115.1999511719</ele>
        <time>2024-10-15T09:06:30.000Z</time>
      </trkpt>
      <trkpt lat="45.10207" lon="5.98216">
        <ele>2115.1999511719</ele>
        <time>2024-10-15T09:06:31.000Z</time>
      </trkpt>
      <trkpt lat="45.10207" lon="5.98216">
        <ele>2115</ele>
        <time>2024-10-15T09:06:32.000Z</time>
      </trkpt>
      <trkpt lat="45.10207" lon="5.98216">
        <ele>2114.6000976562</ele>
        <time>2024-10-15T09:06:33.000Z</time>
      </trkpt>
      <trkpt lat="45.10207" lon="5.98216">
        <ele>2114.1999511719</ele>
        <time>2024-10-15T09:06:34.000Z</time>
      </trkpt>
      <trkpt lat="45.10209" lon="5.98216">
        <ele>2114</ele>
        <time>2024-10-15T09:06:35.000Z</time>
      </trkpt>
      <trkpt lat="45.1021" lon="5.98216">
        <ele>2113.8000488281</ele>
        <time>2024-10-15T09:06:36.000Z</time>
      </trkpt>
      <trkpt lat="45.10211" lon="5.98217">
        <ele>2113.6000976562</ele>
        <time>2024-10-15T09:06:37.000Z</time>
      </trkpt>
      <trkpt lat="45.10211" lon="5.98217">
        <ele>2113.3999023438</ele>
        <time>2024-10-15T09:06:38.000Z</time>
      </trkpt>
      <trkpt lat="45.10212" lon="5.98217">
        <ele>2113.1999511719</ele>
        <time>2024-10-15T09:06:39.000Z</time>
      </trkpt>
      <trkpt lat="45.10213" lon="5.98217">
        <ele>2113.1999511719</ele>
        <time>2024-10-15T09:06:40.000Z</time>
      </trkpt>
      <trkpt lat="45.10213" lon="5.98217">
        <ele>2113.1999511719</ele>
        <time>2024-10-15T09:06:41.000Z</time>
      </trkpt>
      <trkpt lat="45.10214" lon="5.98217">
        <ele>2113.1999511719</ele>
        <time>2024-10-15T09:06:42.000Z</time>
      </trkpt>
      <trkpt lat="45.10214" lon="5.98217">
        <ele>2113.1999511719</ele>
        <time>2024-10-15T09:06:43.000Z</time>
      </trkpt>
      <trkpt lat="45.10214" lon="5.98217">
        <ele>2113.1999511719</ele>
        <time>2024-10-15T09:06:44.000Z</time>
      </trkpt>
      <trkpt lat="45.10214" lon="5.98217">
        <ele>2113.1999511719</ele>
        <time>2024-10-15T09:06:45.000Z</time>
      </trkpt>
      <trkpt lat="45.10214" lon="5.98217">
        <ele>2113.1999511719</ele>
        <time>2024-10-15T09:06:46.000Z</time>
      </trkpt>
      <trkpt lat="45.10214" lon="5.98217">
        <ele>2113.1999511719</ele>
        <time>2024-10-15T09:06:47.000Z</time>
      </trkpt>
      <trkpt lat="45.10214" lon="5.98217">
        <ele>2113</ele>
        <time>2024-10-15T09:06:48.000Z</time>
      </trkpt>
      <trkpt lat="45.10214" lon="5.98217">
        <ele>2113</ele>
        <time>2024-10-15T09:06:49.000Z</time>
      </trkpt>
      <trkpt lat="45.10214" lon="5.98217">
        <ele>2113</ele>
        <time>2024-10-15T09:06:50.000Z</time>
      </trkpt>
      <trkpt lat="45.10214" lon="5.98217">
        <ele>2113</ele>
        <time>2024-10-15T09:06:51.000Z</time>
      </trkpt>
      <trkpt lat="45.10214" lon="5.98217">
        <ele>2113</ele>
        <time>2024-10-15T09:06:52.000Z</time>
      </trkpt>
      <trkpt lat="45.10214" lon="5.98217">
        <ele>2113</ele>
        <time>2024-10-15T09:06:53.000Z</time>
      </trkpt>
      <trkpt lat="45.10214" lon="5.98217">
        <ele>2113</ele>
        <time>2024-10-15T09:06:54.000Z</time>
      </trkpt>
      <trkpt lat="45.10214" lon="5.98217">
        <ele>2113</ele>
        <time>2024-10-15T09:06:55.000Z</time>
      </trkpt>
      <trkpt lat="45.10214" lon="5.98217">
        <ele>2113</ele>
        <time>2024-10-15T09:06:56.000Z</time>
      </trkpt>
      <trkpt lat="45.10214" lon="5.98217">
        <ele>2112.8000488281</ele>
        <time>2024-10-15T09:06:57.000Z</time>
      </trkpt>
      <trkpt lat="45.10214" lon="5.98217">
        <ele>2112.6000976562</ele>
        <time>2024-10-15T09:06:58.000Z</time>
      </trkpt>
      <trkpt lat="45.10214" lon="5.98217">
        <ele>2112.6000976562</ele>
        <time>2024-10-15T09:06:59.000Z</time>
      </trkpt>
      <trkpt lat="45.10214" lon="5.98217">
        <ele>2112.3999023438</ele>
        <time>2024-10-15T09:07:00.000Z</time>
      </trkpt>
      <trkpt lat="45.10214" lon="5.98217">
        <ele>2112.3999023438</ele>
        <time>2024-10-15T09:07:01.000Z</time>
      </trkpt>
      <trkpt lat="45.10214" lon="5.98217">
        <ele>2112.1999511719</ele>
        <time>2024-10-15T09:07:02.000Z</time>
      </trkpt>
      <trkpt lat="45.10214" lon="5.98217">
        <ele>2112.1999511719</ele>
        <time>2024-10-15T09:07:03.000Z</time>
      </trkpt>
      <trkpt lat="45.10214" lon="5.98217">
        <ele>2112.1999511719</ele>
        <time>2024-10-15T09:07:04.000Z</time>
      </trkpt>
      <trkpt lat="45.10214" lon="5.98217">
        <ele>2112.1999511719</ele>
        <time>2024-10-15T09:07:05.000Z</time>
      </trkpt>
      <trkpt lat="45.10214" lon="5.98217">
        <ele>2112.1999511719</ele>
        <time>2024-10-15T09:07:06.000Z</time>
      </trkpt>
      <trkpt lat="45.10214" lon="5.98217">
        <ele>2112.1999511719</ele>
        <time>2024-10-15T09:07:07.000Z</time>
      </trkpt>
      <trkpt lat="45.10214" lon="5.98216">
        <ele>2112.1999511719</ele>
        <time>2024-10-15T09:07:08.000Z</time>
      </trkpt>
      <trkpt lat="45.10214" lon="5.98216">
        <ele>2112.3999023438</ele>
        <time>2024-10-15T09:07:09.000Z</time>
      </trkpt>
      <trkpt lat="45.10214" lon="5.98215">
        <ele>2112.3999023438</ele>
        <time>2024-10-15T09:07:10.000Z</time>
      </trkpt>
      <trkpt lat="45.10214" lon="5.98215">
        <ele>2112.3999023438</ele>
        <time>2024-10-15T09:07:11.000Z</time>
      </trkpt>
      <trkpt lat="45.10214" lon="5.98215">
        <ele>2112.6000976562</ele>
        <time>2024-10-15T09:07:12.000Z</time>
      </trkpt>
      <trkpt lat="45.10214" lon="5.98214">
        <ele>2112.8000488281</ele>
        <time>2024-10-15T09:07:13.000Z</time>
      </trkpt>
      <trkpt lat="45.10214" lon="5.98214">
        <ele>2113</ele>
        <time>2024-10-15T09:07:14.000Z</time>
      </trkpt>
      <trkpt lat="45.10214" lon="5.98214">
        <ele>2113.1999511719</ele>
        <time>2024-10-15T09:07:15.000Z</time>
      </trkpt>
      <trkpt lat="45.10214" lon="5.98214">
        <ele>2113.1999511719</ele>
        <time>2024-10-15T09:07:16.000Z</time>
      </trkpt>
      <trkpt lat="45.10214" lon="5.98214">
        <ele>2113.1999511719</ele>
        <time>2024-10-15T09:07:17.000Z</time>
      </trkpt>
      <trkpt lat="45.10214" lon="5.98214">
        <ele>2113.1999511719</ele>
        <time>2024-10-15T09:07:18.000Z</time>
      </trkpt>
      <trkpt lat="45.10214" lon="5.98214">
        <ele>2113.1999511719</ele>
        <time>2024-10-15T09:07:19.000Z</time>
      </trkpt>
      <trkpt lat="45.10214" lon="5.98214">
        <ele>2113.1999511719</ele>
        <time>2024-10-15T09:07:20.000Z</time>
      </trkpt>
      <trkpt lat="45.10214" lon="5.98214">
        <ele>2113.1999511719</ele>
        <time>2024-10-15T09:07:21.000Z</time>
      </trkpt>
      <trkpt lat="45.10214" lon="5.98214">
        <ele>2113.1999511719</ele>
        <time>2024-10-15T09:07:22.000Z</time>
      </trkpt>
      <trkpt lat="45.10214" lon="5.98214">
        <ele>2113</ele>
        <time>2024-10-15T09:07:23.000Z</time>
      </trkpt>
      <trkpt lat="45.10214" lon="5.98214">
        <ele>2113</ele>
        <time>2024-10-15T09:07:24.000Z</time>
      </trkpt>
      <trkpt lat="45.10214" lon="5.98214">
        <ele>2113</ele>
        <time>2024-10-15T09:07:25.000Z</time>
      </trkpt>
      <trkpt lat="45.10213" lon="5.98214">
        <ele>2113</ele>
        <time>2024-10-15T09:07:26.000Z</time>
      </trkpt>
      <trkpt lat="45.10213" lon="5.98214">
        <ele>2113.1999511719</ele>
        <time>2024-10-15T09:07:27.000Z</time>
      </trkpt>
      <trkpt lat="45.10213" lon="5.98214">
        <ele>2113.1999511719</ele>
        <time>2024-10-15T09:07:28.000Z</time>
      </trkpt>
      <trkpt lat="45.10214" lon="5.98214">
        <ele>2113.1999511719</ele>
        <time>2024-10-15T09:07:29.000Z</time>
      </trkpt>
      <trkpt lat="45.10214" lon="5.98214">
        <ele>2113.3999023438</ele>
        <time>2024-10-15T09:07:30.000Z</time>
      </trkpt>
      <trkpt lat="45.10214" lon="5.98214">
        <ele>2113.6000976562</ele>
        <time>2024-10-15T09:07:31.000Z</time>
      </trkpt>
      <trkpt lat="45.10214" lon="5.98214">
        <ele>2113.6000976562</ele>
        <time>2024-10-15T09:07:32.000Z</time>
      </trkpt>
      <trkpt lat="45.10214" lon="5.98214">
        <ele>2113.6000976562</ele>
        <time>2024-10-15T09:07:33.000Z</time>
      </trkpt>
      <trkpt lat="45.10214" lon="5.98214">
        <ele>2113.6000976562</ele>
        <time>2024-10-15T09:07:34.000Z</time>
      </trkpt>
      <trkpt lat="45.10214" lon="5.98214">
        <ele>2113.6000976562</ele>
        <time>2024-10-15T09:07:35.000Z</time>
      </trkpt>
      <trkpt lat="45.10214" lon="5.98214">
        <ele>2113.6000976562</ele>
        <time>2024-10-15T09:07:36.000Z</time>
      </trkpt>
      <trkpt lat="45.10214" lon="5.98213">
        <ele>2113.6000976562</ele>
        <time>2024-10-15T09:07:37.000Z</time>
      </trkpt>
      <trkpt lat="45.10214" lon="5.98213">
        <ele>2113.6000976562</ele>
        <time>2024-10-15T09:07:38.000Z</time>
      </trkpt>
      <trkpt lat="45.10214" lon="5.98213">
        <ele>2113.6000976562</ele>
        <time>2024-10-15T09:07:39.000Z</time>
      </trkpt>
      <trkpt lat="45.10214" lon="5.98213">
        <ele>2113.6000976562</ele>
        <time>2024-10-15T09:07:40.000Z</time>
      </trkpt>
      <trkpt lat="45.10214" lon="5.98213">
        <ele>2113.6000976562</ele>
        <time>2024-10-15T09:07:41.000Z</time>
      </trkpt>
      <trkpt lat="45.10214" lon="5.98213">
        <ele>2113.6000976562</ele>
        <time>2024-10-15T09:07:42.000Z</time>
      </trkpt>
      <trkpt lat="45.10214" lon="5.98213">
        <ele>2113.6000976562</ele>
        <time>2024-10-15T09:07:43.000Z</time>
      </trkpt>
      <trkpt lat="45.10214" lon="5.98213">
        <ele>2113.6000976562</ele>
        <time>2024-10-15T09:07:44.000Z</time>
      </trkpt>
      <trkpt lat="45.10214" lon="5.98213">
        <ele>2113.6000976562</ele>
        <time>2024-10-15T09:07:45.000Z</time>
      </trkpt>
      <trkpt lat="45.10214" lon="5.98213">
        <ele>2113.8000488281</ele>
        <time>2024-10-15T09:07:46.000Z</time>
      </trkpt>
      <trkpt lat="45.10213" lon="5.98212">
        <ele>2114</ele>
        <time>2024-10-15T09:07:47.000Z</time>
      </trkpt>
      <trkpt lat="45.10212" lon="5.98211">
        <ele>2114</ele>
        <time>2024-10-15T09:07:48.000Z</time>
      </trkpt>
      <trkpt lat="45.10211" lon="5.9821">
        <ele>2114</ele>
        <time>2024-10-15T09:07:49.000Z</time>
      </trkpt>
      <trkpt lat="45.10209" lon="5.98209">
        <ele>2114</ele>
        <time>2024-10-15T09:07:50.000Z</time>
      </trkpt>
      <trkpt lat="45.10208" lon="5.98208">
        <ele>2113.3999023438</ele>
        <time>2024-10-15T09:07:51.000Z</time>
      </trkpt>
      <trkpt lat="45.10207" lon="5.98208">
        <ele>2113.3999023438</ele>
        <time>2024-10-15T09:07:52.000Z</time>
      </trkpt>
      <trkpt lat="45.10206" lon="5.98207">
        <ele>2113.3999023438</ele>
        <time>2024-10-15T09:07:53.000Z</time>
      </trkpt>
      <trkpt lat="45.10205" lon="5.98206">
        <ele>2113.3999023438</ele>
        <time>2024-10-15T09:07:54.000Z</time>
      </trkpt>
      <trkpt lat="45.10204" lon="5.98206">
        <ele>2113.3999023438</ele>
        <time>2024-10-15T09:07:55.000Z</time>
      </trkpt>
      <trkpt lat="45.10203" lon="5.98206">
        <ele>2113.6000976562</ele>
        <time>2024-10-15T09:07:56.000Z</time>
      </trkpt>
      <trkpt lat="45.10203" lon="5.98205">
        <ele>2113.6000976562</ele>
        <time>2024-10-15T09:07:57.000Z</time>
      </trkpt>
      <trkpt lat="45.10202" lon="5.98205">
        <ele>2113.8000488281</ele>
        <time>2024-10-15T09:07:58.000Z</time>
      </trkpt>
      <trkpt lat="45.10202" lon="5.98205">
        <ele>2113.8000488281</ele>
        <time>2024-10-15T09:07:59.000Z</time>
      </trkpt>
      <trkpt lat="45.10201" lon="5.98205">
        <ele>2114.1999511719</ele>
        <time>2024-10-15T09:08:00.000Z</time>
      </trkpt>
      <trkpt lat="45.102" lon="5.98205">
        <ele>2114.3999023438</ele>
        <time>2024-10-15T09:08:01.000Z</time>
      </trkpt>
      <trkpt lat="45.102" lon="5.98205">
        <ele>2114.3999023438</ele>
        <time>2024-10-15T09:08:02.000Z</time>
      </trkpt>
      <trkpt lat="45.10199" lon="5.98205">
        <ele>2114.3999023438</ele>
        <time>2024-10-15T09:08:03.000Z</time>
      </trkpt>
      <trkpt lat="45.10199" lon="5.98205">
        <ele>2114.6000976562</ele>
        <time>2024-10-15T09:08:04.000Z</time>
      </trkpt>
      <trkpt lat="45.10198" lon="5.98205">
        <ele>2115</ele>
        <time>2024-10-15T09:08:05.000Z</time>
      </trkpt>
      <trkpt lat="45.10198" lon="5.98205">
        <ele>2115.1999511719</ele>
        <time>2024-10-15T09:08:06.000Z</time>
      </trkpt>
      <trkpt lat="45.10197" lon="5.98205">
        <ele>2115.3999023438</ele>
        <time>2024-10-15T09:08:07.000Z</time>
      </trkpt>
      <trkpt lat="45.10196" lon="5.98204">
        <ele>2115.8000488281</ele>
        <time>2024-10-15T09:08:08.000Z</time>
      </trkpt>
      <trkpt lat="45.10196" lon="5.98204">
        <ele>2115.8000488281</ele>
        <time>2024-10-15T09:08:09.000Z</time>
      </trkpt>
      <trkpt lat="45.10196" lon="5.98204">
        <ele>2116</ele>
        <time>2024-10-15T09:08:10.000Z</time>
      </trkpt>
      <trkpt lat="45.10195" lon="5.98204">
        <ele>2116.3999023438</ele>
        <time>2024-10-15T09:08:11.000Z</time>
      </trkpt>
      <trkpt lat="45.10195" lon="5.98204">
        <ele>2116.6000976562</ele>
        <time>2024-10-15T09:08:12.000Z</time>
      </trkpt>
      <trkpt lat="45.10194" lon="5.98204">
        <ele>2116.8000488281</ele>
        <time>2024-10-15T09:08:13.000Z</time>
      </trkpt>
      <trkpt lat="45.10194" lon="5.98204">
        <ele>2117</ele>
        <time>2024-10-15T09:08:14.000Z</time>
      </trkpt>
      <trkpt lat="45.10193" lon="5.98203">
        <ele>2117.3999023438</ele>
        <time>2024-10-15T09:08:15.000Z</time>
      </trkpt>
      <trkpt lat="45.10193" lon="5.98203">
        <ele>2117.6000976562</ele>
        <time>2024-10-15T09:08:16.000Z</time>
      </trkpt>
      <trkpt lat="45.10193" lon="5.98203">
        <ele>2117.6000976562</ele>
        <time>2024-10-15T09:08:17.000Z</time>
      </trkpt>
      <trkpt lat="45.10192" lon="5.98203">
        <ele>2117.8000488281</ele>
        <time>2024-10-15T09:08:18.000Z</time>
      </trkpt>
      <trkpt lat="45.10192" lon="5.98202">
        <ele>2118</ele>
        <time>2024-10-15T09:08:19.000Z</time>
      </trkpt>
      <trkpt lat="45.10191" lon="5.98202">
        <ele>2118.1999511719</ele>
        <time>2024-10-15T09:08:20.000Z</time>
      </trkpt>
      <trkpt lat="45.10191" lon="5.98202">
        <ele>2118.3999023438</ele>
        <time>2024-10-15T09:08:21.000Z</time>
      </trkpt>
      <trkpt lat="45.1019" lon="5.98202">
        <ele>2118.8000488281</ele>
        <time>2024-10-15T09:08:22.000Z</time>
      </trkpt>
      <trkpt lat="45.1019" lon="5.98202">
        <ele>2119.1999511719</ele>
        <time>2024-10-15T09:08:23.000Z</time>
      </trkpt>
      <trkpt lat="45.1019" lon="5.98202">
        <ele>2119.8000488281</ele>
        <time>2024-10-15T09:08:24.000Z</time>
      </trkpt>
      <trkpt lat="45.10189" lon="5.98201">
        <ele>2120.1999511719</ele>
        <time>2024-10-15T09:08:25.000Z</time>
      </trkpt>
      <trkpt lat="45.10189" lon="5.98201">
        <ele>2120.6000976562</ele>
        <time>2024-10-15T09:08:26.000Z</time>
      </trkpt>
      <trkpt lat="45.10188" lon="5.98201">
        <ele>2121</ele>
        <time>2024-10-15T09:08:27.000Z</time>
      </trkpt>
      <trkpt lat="45.10188" lon="5.98201">
        <ele>2121.1999511719</ele>
        <time>2024-10-15T09:08:28.000Z</time>
      </trkpt>
      <trkpt lat="45.10188" lon="5.98201">
        <ele>2121.8000488281</ele>
        <time>2024-10-15T09:08:29.000Z</time>
      </trkpt>
      <trkpt lat="45.10187" lon="5.982">
        <ele>2122</ele>
        <time>2024-10-15T09:08:30.000Z</time>
      </trkpt>
      <trkpt lat="45.10186" lon="5.982">
        <ele>2122.3999023438</ele>
        <time>2024-10-15T09:08:31.000Z</time>
      </trkpt>
      <trkpt lat="45.10186" lon="5.98199">
        <ele>2122.8000488281</ele>
        <time>2024-10-15T09:08:32.000Z</time>
      </trkpt>
      <trkpt lat="45.10186" lon="5.98199">
        <ele>2123.1999511719</ele>
        <time>2024-10-15T09:08:33.000Z</time>
      </trkpt>
      <trkpt lat="45.10185" lon="5.98199">
        <ele>2123.3999023438</ele>
        <time>2024-10-15T09:08:34.000Z</time>
      </trkpt>
      <trkpt lat="45.10185" lon="5.98199">
        <ele>2123.8000488281</ele>
        <time>2024-10-15T09:08:35.000Z</time>
      </trkpt>
      <trkpt lat="45.10184" lon="5.98199">
        <ele>2124</ele>
        <time>2024-10-15T09:08:36.000Z</time>
      </trkpt>
      <trkpt lat="45.10184" lon="5.982">
        <ele>2124.3999023438</ele>
        <time>2024-10-15T09:08:37.000Z</time>
      </trkpt>
      <trkpt lat="45.10183" lon="5.982">
        <ele>2124.8000488281</ele>
        <time>2024-10-15T09:08:38.000Z</time>
      </trkpt>
      <trkpt lat="45.10183" lon="5.982">
        <ele>2125.1999511719</ele>
        <time>2024-10-15T09:08:39.000Z</time>
      </trkpt>
      <trkpt lat="45.10183" lon="5.982">
        <ele>2125.8000488281</ele>
        <time>2024-10-15T09:08:40.000Z</time>
      </trkpt>
      <trkpt lat="45.10183" lon="5.982">
        <ele>2126</ele>
        <time>2024-10-15T09:08:41.000Z</time>
      </trkpt>
      <trkpt lat="45.10182" lon="5.982">
        <ele>2126.6000976562</ele>
        <time>2024-10-15T09:08:42.000Z</time>
      </trkpt>
      <trkpt lat="45.10182" lon="5.982">
        <ele>2127</ele>
        <time>2024-10-15T09:08:43.000Z</time>
      </trkpt>
      <trkpt lat="45.10182" lon="5.982">
        <ele>2127.1999511719</ele>
        <time>2024-10-15T09:08:44.000Z</time>
      </trkpt>
      <trkpt lat="45.10181" lon="5.982">
        <ele>2127.3999023438</ele>
        <time>2024-10-15T09:08:45.000Z</time>
      </trkpt>
      <trkpt lat="45.10181" lon="5.98199">
        <ele>2127.8000488281</ele>
        <time>2024-10-15T09:08:46.000Z</time>
      </trkpt>
      <trkpt lat="45.10181" lon="5.98198">
        <ele>2128.1999511719</ele>
        <time>2024-10-15T09:08:47.000Z</time>
      </trkpt>
      <trkpt lat="45.1018" lon="5.98198">
        <ele>2128.1999511719</ele>
        <time>2024-10-15T09:08:48.000Z</time>
      </trkpt>
      <trkpt lat="45.1018" lon="5.98197">
        <ele>2128.3999023438</ele>
        <time>2024-10-15T09:08:49.000Z</time>
      </trkpt>
      <trkpt lat="45.1018" lon="5.98197">
        <ele>2128.3999023438</ele>
        <time>2024-10-15T09:08:50.000Z</time>
      </trkpt>
      <trkpt lat="45.1018" lon="5.98197">
        <ele>2128.3999023438</ele>
        <time>2024-10-15T09:08:51.000Z</time>
      </trkpt>
      <trkpt lat="45.1018" lon="5.98197">
        <ele>2128.6000976562</ele>
        <time>2024-10-15T09:08:52.000Z</time>
      </trkpt>
      <trkpt lat="45.1018" lon="5.98197">
        <ele>2128.8000488281</ele>
        <time>2024-10-15T09:08:53.000Z</time>
      </trkpt>
      <trkpt lat="45.1018" lon="5.98197">
        <ele>2129.1999511719</ele>
        <time>2024-10-15T09:08:54.000Z</time>
      </trkpt>
      <trkpt lat="45.1018" lon="5.98197">
        <ele>2129.3999023438</ele>
        <time>2024-10-15T09:08:55.000Z</time>
      </trkpt>
      <trkpt lat="45.1018" lon="5.98197">
        <ele>2129.6000976562</ele>
        <time>2024-10-15T09:08:56.000Z</time>
      </trkpt>
      <trkpt lat="45.1018" lon="5.98197">
        <ele>2129.6000976562</ele>
        <time>2024-10-15T09:08:57.000Z</time>
      </trkpt>
      <trkpt lat="45.1018" lon="5.98197">
        <ele>2129.6000976562</ele>
        <time>2024-10-15T09:08:58.000Z</time>
      </trkpt>
      <trkpt lat="45.1018" lon="5.98197">
        <ele>2129.6000976562</ele>
        <time>2024-10-15T09:08:59.000Z</time>
      </trkpt>
      <trkpt lat="45.1018" lon="5.98197">
        <ele>2129.8000488281</ele>
        <time>2024-10-15T09:09:00.000Z</time>
      </trkpt>
      <trkpt lat="45.1018" lon="5.98197">
        <ele>2129.8000488281</ele>
        <time>2024-10-15T09:09:01.000Z</time>
      </trkpt>
      <trkpt lat="45.1018" lon="5.98197">
        <ele>2129.8000488281</ele>
        <time>2024-10-15T09:09:02.000Z</time>
      </trkpt>
      <trkpt lat="45.1018" lon="5.98197">
        <ele>2129.8000488281</ele>
        <time>2024-10-15T09:09:03.000Z</time>
      </trkpt>
      <trkpt lat="45.1018" lon="5.98197">
        <ele>2129.8000488281</ele>
        <time>2024-10-15T09:09:04.000Z</time>
      </trkpt>
      <trkpt lat="45.1018" lon="5.98197">
        <ele>2129.8000488281</ele>
        <time>2024-10-15T09:09:05.000Z</time>
      </trkpt>
      <trkpt lat="45.1018" lon="5.98197">
        <ele>2129.8000488281</ele>
        <time>2024-10-15T09:09:06.000Z</time>
      </trkpt>
      <trkpt lat="45.1018" lon="5.98197">
        <ele>2130.1999511719</ele>
        <time>2024-10-15T09:09:07.000Z</time>
      </trkpt>
      <trkpt lat="45.1018" lon="5.98197">
        <ele>2130.3999023438</ele>
        <time>2024-10-15T09:09:08.000Z</time>
      </trkpt>
      <trkpt lat="45.1018" lon="5.98197">
        <ele>2130.6000976562</ele>
        <time>2024-10-15T09:09:09.000Z</time>
      </trkpt>
      <trkpt lat="45.1018" lon="5.98196">
        <ele>2130.8000488281</ele>
        <time>2024-10-15T09:09:10.000Z</time>
      </trkpt>
      <trkpt lat="45.1018" lon="5.98196">
        <ele>2131</ele>
        <time>2024-10-15T09:09:11.000Z</time>
      </trkpt>
      <trkpt lat="45.10179" lon="5.98196">
        <ele>2131</ele>
        <time>2024-10-15T09:09:12.000Z</time>
      </trkpt>
      <trkpt lat="45.10179" lon="5.98195">
        <ele>2131</ele>
        <time>2024-10-15T09:09:13.000Z</time>
      </trkpt>
      <trkpt lat="45.10179" lon="5.98195">
        <ele>2131</ele>
        <time>2024-10-15T09:09:14.000Z</time>
      </trkpt>
      <trkpt lat="45.10179" lon="5.98195">
        <ele>2131.1999511719</ele>
        <time>2024-10-15T09:09:15.000Z</time>
      </trkpt>
      <trkpt lat="45.10179" lon="5.98195">
        <ele>2131.6000976562</ele>
        <time>2024-10-15T09:09:16.000Z</time>
      </trkpt>
      <trkpt lat="45.10179" lon="5.98195">
        <ele>2132</ele>
        <time>2024-10-15T09:09:17.000Z</time>
      </trkpt>
      <trkpt lat="45.10178" lon="5.98195">
        <ele>2132.1999511719</ele>
        <time>2024-10-15T09:09:18.000Z</time>
      </trkpt>
      <trkpt lat="45.10178" lon="5.98194">
        <ele>2132.1999511719</ele>
        <time>2024-10-15T09:09:19.000Z</time>
      </trkpt>
      <trkpt lat="45.10178" lon="5.98194">
        <ele>2132.3999023438</ele>
        <time>2024-10-15T09:09:20.000Z</time>
      </trkpt>
      <trkpt lat="45.10178" lon="5.98194">
        <ele>2133</ele>
        <time>2024-10-15T09:09:21.000Z</time>
      </trkpt>
      <trkpt lat="45.10178" lon="5.98194">
        <ele>2133.3999023438</ele>
        <time>2024-10-15T09:09:22.000Z</time>
      </trkpt>
      <trkpt lat="45.10178" lon="5.98193">
        <ele>2133.6000976562</ele>
        <time>2024-10-15T09:09:23.000Z</time>
      </trkpt>
      <trkpt lat="45.10178" lon="5.98193">
        <ele>2134</ele>
        <time>2024-10-15T09:09:24.000Z</time>
      </trkpt>
      <trkpt lat="45.10178" lon="5.98193">
        <ele>2134.1999511719</ele>
        <time>2024-10-15T09:09:25.000Z</time>
      </trkpt>
      <trkpt lat="45.10178" lon="5.98192">
        <ele>2134.1999511719</ele>
        <time>2024-10-15T09:09:26.000Z</time>
      </trkpt>
      <trkpt lat="45.10178" lon="5.98192">
        <ele>2134.3999023438</ele>
        <time>2024-10-15T09:09:27.000Z</time>
      </trkpt>
      <trkpt lat="45.10178" lon="5.98192">
        <ele>2134.8000488281</ele>
        <time>2024-10-15T09:09:28.000Z</time>
      </trkpt>
      <trkpt lat="45.10178" lon="5.98191">
        <ele>2135</ele>
        <time>2024-10-15T09:09:29.000Z</time>
      </trkpt>
      <trkpt lat="45.10177" lon="5.98191">
        <ele>2135</ele>
        <time>2024-10-15T09:09:30.000Z</time>
      </trkpt>
      <trkpt lat="45.10177" lon="5.9819">
        <ele>2135.3999023438</ele>
        <time>2024-10-15T09:09:31.000Z</time>
      </trkpt>
      <trkpt lat="45.10177" lon="5.9819">
        <ele>2135.8000488281</ele>
        <time>2024-10-15T09:09:32.000Z</time>
      </trkpt>
      <trkpt lat="45.10177" lon="5.98189">
        <ele>2136</ele>
        <time>2024-10-15T09:09:33.000Z</time>
      </trkpt>
      <trkpt lat="45.10177" lon="5.98189">
        <ele>2136.3999023438</ele>
        <time>2024-10-15T09:09:34.000Z</time>
      </trkpt>
      <trkpt lat="45.10177" lon="5.98188">
        <ele>2136.8000488281</ele>
        <time>2024-10-15T09:09:35.000Z</time>
      </trkpt>
      <trkpt lat="45.10177" lon="5.98188">
        <ele>2137.1999511719</ele>
        <time>2024-10-15T09:09:36.000Z</time>
      </trkpt>
      <trkpt lat="45.10177" lon="5.98187">
        <ele>2137.6000976562</ele>
        <time>2024-10-15T09:09:37.000Z</time>
      </trkpt>
      <trkpt lat="45.10177" lon="5.98187">
        <ele>2137.8000488281</ele>
        <time>2024-10-15T09:09:38.000Z</time>
      </trkpt>
      <trkpt lat="45.10177" lon="5.98186">
        <ele>2138</ele>
        <time>2024-10-15T09:09:39.000Z</time>
      </trkpt>
      <trkpt lat="45.10177" lon="5.98186">
        <ele>2138.1999511719</ele>
        <time>2024-10-15T09:09:40.000Z</time>
      </trkpt>
      <trkpt lat="45.10177" lon="5.98186">
        <ele>2138.1999511719</ele>
        <time>2024-10-15T09:09:41.000Z</time>
      </trkpt>
      <trkpt lat="45.10176" lon="5.98185">
        <ele>2138.3999023438</ele>
        <time>2024-10-15T09:09:42.000Z</time>
      </trkpt>
      <trkpt lat="45.10176" lon="5.98185">
        <ele>2138.8000488281</ele>
        <time>2024-10-15T09:09:43.000Z</time>
      </trkpt>
      <trkpt lat="45.10176" lon="5.98185">
        <ele>2139</ele>
        <time>2024-10-15T09:09:44.000Z</time>
      </trkpt>
      <trkpt lat="45.10176" lon="5.98185">
        <ele>2139.1999511719</ele>
        <time>2024-10-15T09:09:45.000Z</time>
      </trkpt>
      <trkpt lat="45.10176" lon="5.98185">
        <ele>2139.1999511719</ele>
        <time>2024-10-15T09:09:46.000Z</time>
      </trkpt>
      <trkpt lat="45.10176" lon="5.98184">
        <ele>2139.3999023438</ele>
        <time>2024-10-15T09:09:47.000Z</time>
      </trkpt>
      <trkpt lat="45.10175" lon="5.98184">
        <ele>2139.3999023438</ele>
        <time>2024-10-15T09:09:48.000Z</time>
      </trkpt>
      <trkpt lat="45.10175" lon="5.98184">
        <ele>2139.3999023438</ele>
        <time>2024-10-15T09:09:49.000Z</time>
      </trkpt>
      <trkpt lat="45.10175" lon="5.98184">
        <ele>2139.8000488281</ele>
        <time>2024-10-15T09:09:50.000Z</time>
      </trkpt>
      <trkpt lat="45.10175" lon="5.98184">
        <ele>2140</ele>
        <time>2024-10-15T09:09:51.000Z</time>
      </trkpt>
      <trkpt lat="45.10174" lon="5.98184">
        <ele>2140</ele>
        <time>2024-10-15T09:09:52.000Z</time>
      </trkpt>
      <trkpt lat="45.10174" lon="5.98184">
        <ele>2140</ele>
        <time>2024-10-15T09:09:53.000Z</time>
      </trkpt>
      <trkpt lat="45.10174" lon="5.98184">
        <ele>2140.1999511719</ele>
        <time>2024-10-15T09:09:54.000Z</time>
      </trkpt>
      <trkpt lat="45.10174" lon="5.98184">
        <ele>2140.3999023438</ele>
        <time>2024-10-15T09:09:55.000Z</time>
      </trkpt>
      <trkpt lat="45.10174" lon="5.98184">
        <ele>2140.6000976562</ele>
        <time>2024-10-15T09:09:56.000Z</time>
      </trkpt>
      <trkpt lat="45.10173" lon="5.98184">
        <ele>2141</ele>
        <time>2024-10-15T09:09:57.000Z</time>
      </trkpt>
      <trkpt lat="45.10173" lon="5.98184">
        <ele>2141.1999511719</ele>
        <time>2024-10-15T09:09:58.000Z</time>
      </trkpt>
      <trkpt lat="45.10173" lon="5.98184">
        <ele>2141.3999023438</ele>
        <time>2024-10-15T09:09:59.000Z</time>
      </trkpt>
      <trkpt lat="45.10172" lon="5.98184">
        <ele>2141.3999023438</ele>
        <time>2024-10-15T09:10:00.000Z</time>
      </trkpt>
      <trkpt lat="45.10172" lon="5.98184">
        <ele>2141.8000488281</ele>
        <time>2024-10-15T09:10:01.000Z</time>
      </trkpt>
      <trkpt lat="45.10172" lon="5.98184">
        <ele>2141.8000488281</ele>
        <time>2024-10-15T09:10:02.000Z</time>
      </trkpt>
      <trkpt lat="45.10172" lon="5.98184">
        <ele>2141.8000488281</ele>
        <time>2024-10-15T09:10:03.000Z</time>
      </trkpt>
      <trkpt lat="45.10171" lon="5.98184">
        <ele>2141.8000488281</ele>
        <time>2024-10-15T09:10:04.000Z</time>
      </trkpt>
      <trkpt lat="45.10171" lon="5.98184">
        <ele>2141.8000488281</ele>
        <time>2024-10-15T09:10:05.000Z</time>
      </trkpt>
      <trkpt lat="45.10171" lon="5.98183">
        <ele>2142</ele>
        <time>2024-10-15T09:10:06.000Z</time>
      </trkpt>
      <trkpt lat="45.10171" lon="5.98183">
        <ele>2142</ele>
        <time>2024-10-15T09:10:07.000Z</time>
      </trkpt>
      <trkpt lat="45.10171" lon="5.98183">
        <ele>2142.1999511719</ele>
        <time>2024-10-15T09:10:08.000Z</time>
      </trkpt>
      <trkpt lat="45.10171" lon="5.98183">
        <ele>2142.1999511719</ele>
        <time>2024-10-15T09:10:09.000Z</time>
      </trkpt>
      <trkpt lat="45.1017" lon="5.98182">
        <ele>2142.6000976562</ele>
        <time>2024-10-15T09:10:10.000Z</time>
      </trkpt>
      <trkpt lat="45.1017" lon="5.98182">
        <ele>2143</ele>
        <time>2024-10-15T09:10:11.000Z</time>
      </trkpt>
      <trkpt lat="45.1017" lon="5.98181">
        <ele>2143.3999023438</ele>
        <time>2024-10-15T09:10:12.000Z</time>
      </trkpt>
      <trkpt lat="45.1017" lon="5.98181">
        <ele>2143.8000488281</ele>
        <time>2024-10-15T09:10:13.000Z</time>
      </trkpt>
      <trkpt lat="45.1017" lon="5.98181">
        <ele>2144</ele>
        <time>2024-10-15T09:10:14.000Z</time>
      </trkpt>
      <trkpt lat="45.1017" lon="5.98181">
        <ele>2144</ele>
        <time>2024-10-15T09:10:15.000Z</time>
      </trkpt>
      <trkpt lat="45.1017" lon="5.9818">
        <ele>2144</ele>
        <time>2024-10-15T09:10:16.000Z</time>
      </trkpt>
      <trkpt lat="45.1017" lon="5.9818">
        <ele>2144</ele>
        <time>2024-10-15T09:10:17.000Z</time>
      </trkpt>
      <trkpt lat="45.1017" lon="5.9818">
        <ele>2144.1999511719</ele>
        <time>2024-10-15T09:10:18.000Z</time>
      </trkpt>
      <trkpt lat="45.1017" lon="5.9818">
        <ele>2144.6000976562</ele>
        <time>2024-10-15T09:10:19.000Z</time>
      </trkpt>
      <trkpt lat="45.1017" lon="5.9818">
        <ele>2144.6000976562</ele>
        <time>2024-10-15T09:10:20.000Z</time>
      </trkpt>
      <trkpt lat="45.1017" lon="5.98179">
        <ele>2144.8000488281</ele>
        <time>2024-10-15T09:10:21.000Z</time>
      </trkpt>
      <trkpt lat="45.1017" lon="5.98179">
        <ele>2145</ele>
        <time>2024-10-15T09:10:22.000Z</time>
      </trkpt>
      <trkpt lat="45.1017" lon="5.98178">
        <ele>2145</ele>
        <time>2024-10-15T09:10:23.000Z</time>
      </trkpt>
      <trkpt lat="45.1017" lon="5.98178">
        <ele>2145</ele>
        <time>2024-10-15T09:10:24.000Z</time>
      </trkpt>
      <trkpt lat="45.10169" lon="5.98178">
        <ele>2145</ele>
        <time>2024-10-15T09:10:25.000Z</time>
      </trkpt>
      <trkpt lat="45.10169" lon="5.98177">
        <ele>2145.3999023438</ele>
        <time>2024-10-15T09:10:26.000Z</time>
      </trkpt>
      <trkpt lat="45.10169" lon="5.98177">
        <ele>2145.6000976562</ele>
        <time>2024-10-15T09:10:27.000Z</time>
      </trkpt>
      <trkpt lat="45.10169" lon="5.98177">
        <ele>2145.6000976562</ele>
        <time>2024-10-15T09:10:28.000Z</time>
      </trkpt>
      <trkpt lat="45.10169" lon="5.98177">
        <ele>2145.6000976562</ele>
        <time>2024-10-15T09:10:29.000Z</time>
      </trkpt>
      <trkpt lat="45.10169" lon="5.98177">
        <ele>2145.8000488281</ele>
        <time>2024-10-15T09:10:30.000Z</time>
      </trkpt>
      <trkpt lat="45.10169" lon="5.98177">
        <ele>2146.1999511719</ele>
        <time>2024-10-15T09:10:31.000Z</time>
      </trkpt>
      <trkpt lat="45.10169" lon="5.98177">
        <ele>2146.6000976562</ele>
        <time>2024-10-15T09:10:32.000Z</time>
      </trkpt>
      <trkpt lat="45.10169" lon="5.98177">
        <ele>2146.6000976562</ele>
        <time>2024-10-15T09:10:33.000Z</time>
      </trkpt>
      <trkpt lat="45.10168" lon="5.98177">
        <ele>2147</ele>
        <time>2024-10-15T09:10:34.000Z</time>
      </trkpt>
      <trkpt lat="45.10168" lon="5.98177">
        <ele>2147.3999023438</ele>
        <time>2024-10-15T09:10:35.000Z</time>
      </trkpt>
      <trkpt lat="45.10168" lon="5.98177">
        <ele>2147.6000976562</ele>
        <time>2024-10-15T09:10:36.000Z</time>
      </trkpt>
      <trkpt lat="45.10168" lon="5.98176">
        <ele>2147.8000488281</ele>
        <time>2024-10-15T09:10:37.000Z</time>
      </trkpt>
      <trkpt lat="45.10168" lon="5.98176">
        <ele>2148</ele>
        <time>2024-10-15T09:10:38.000Z</time>
      </trkpt>
      <trkpt lat="45.10168" lon="5.98176">
        <ele>2148</ele>
        <time>2024-10-15T09:10:39.000Z</time>
      </trkpt>
      <trkpt lat="45.10168" lon="5.98176">
        <ele>2148.3999023438</ele>
        <time>2024-10-15T09:10:40.000Z</time>
      </trkpt>
      <trkpt lat="45.10168" lon="5.98176">
        <ele>2148.6000976562</ele>
        <time>2024-10-15T09:10:41.000Z</time>
      </trkpt>
      <trkpt lat="45.10167" lon="5.98176">
        <ele>2148.8000488281</ele>
        <time>2024-10-15T09:10:42.000Z</time>
      </trkpt>
      <trkpt lat="45.10167" lon="5.98176">
        <ele>2148.8000488281</ele>
        <time>2024-10-15T09:10:43.000Z</time>
      </trkpt>
      <trkpt lat="45.10167" lon="5.98176">
        <ele>2148.8000488281</ele>
        <time>2024-10-15T09:10:44.000Z</time>
      </trkpt>
      <trkpt lat="45.10167" lon="5.98176">
        <ele>2148.8000488281</ele>
        <time>2024-10-15T09:10:45.000Z</time>
      </trkpt>
      <trkpt lat="45.10167" lon="5.98176">
        <ele>2148.8000488281</ele>
        <time>2024-10-15T09:10:46.000Z</time>
      </trkpt>
      <trkpt lat="45.10166" lon="5.98176">
        <ele>2148.8000488281</ele>
        <time>2024-10-15T09:10:47.000Z</time>
      </trkpt>
      <trkpt lat="45.10166" lon="5.98176">
        <ele>2149.1999511719</ele>
        <time>2024-10-15T09:10:48.000Z</time>
      </trkpt>
      <trkpt lat="45.10166" lon="5.98176">
        <ele>2149.6000976562</ele>
        <time>2024-10-15T09:10:49.000Z</time>
      </trkpt>
      <trkpt lat="45.10166" lon="5.98176">
        <ele>2150.1999511719</ele>
        <time>2024-10-15T09:10:50.000Z</time>
      </trkpt>
      <trkpt lat="45.10166" lon="5.98176">
        <ele>2150.8000488281</ele>
        <time>2024-10-15T09:10:51.000Z</time>
      </trkpt>
      <trkpt lat="45.10166" lon="5.98176">
        <ele>2151</ele>
        <time>2024-10-15T09:10:52.000Z</time>
      </trkpt>
      <trkpt lat="45.10166" lon="5.98176">
        <ele>2151.1999511719</ele>
        <time>2024-10-15T09:10:53.000Z</time>
      </trkpt>
      <trkpt lat="45.10166" lon="5.98176">
        <ele>2151.6000976562</ele>
        <time>2024-10-15T09:10:54.000Z</time>
      </trkpt>
      <trkpt lat="45.10166" lon="5.98176">
        <ele>2151.8000488281</ele>
        <time>2024-10-15T09:10:55.000Z</time>
      </trkpt>
      <trkpt lat="45.10166" lon="5.98176">
        <ele>2151.8000488281</ele>
        <time>2024-10-15T09:10:56.000Z</time>
      </trkpt>
      <trkpt lat="45.10166" lon="5.98176">
        <ele>2151.8000488281</ele>
        <time>2024-10-15T09:10:57.000Z</time>
      </trkpt>
      <trkpt lat="45.10166" lon="5.98176">
        <ele>2152</ele>
        <time>2024-10-15T09:10:58.000Z</time>
      </trkpt>
      <trkpt lat="45.10166" lon="5.98176">
        <ele>2152.1999511719</ele>
        <time>2024-10-15T09:10:59.000Z</time>
      </trkpt>
      <trkpt lat="45.10165" lon="5.98176">
        <ele>2152.1999511719</ele>
        <time>2024-10-15T09:11:00.000Z</time>
      </trkpt>
      <trkpt lat="45.10165" lon="5.98176">
        <ele>2152.1999511719</ele>
        <time>2024-10-15T09:11:01.000Z</time>
      </trkpt>
      <trkpt lat="45.10165" lon="5.98176">
        <ele>2152.1999511719</ele>
        <time>2024-10-15T09:11:02.000Z</time>
      </trkpt>
      <trkpt lat="45.10165" lon="5.98175">
        <ele>2152.1999511719</ele>
        <time>2024-10-15T09:11:03.000Z</time>
      </trkpt>
      <trkpt lat="45.10165" lon="5.98175">
        <ele>2152</ele>
        <time>2024-10-15T09:11:04.000Z</time>
      </trkpt>
      <trkpt lat="45.10165" lon="5.98174">
        <ele>2152</ele>
        <time>2024-10-15T09:11:05.000Z</time>
      </trkpt>
      <trkpt lat="45.10165" lon="5.98174">
        <ele>2152</ele>
        <time>2024-10-15T09:11:06.000Z</time>
      </trkpt>
      <trkpt lat="45.10165" lon="5.98173">
        <ele>2152.1999511719</ele>
        <time>2024-10-15T09:11:07.000Z</time>
      </trkpt>
      <trkpt lat="45.10164" lon="5.98173">
        <ele>2152.3999023438</ele>
        <time>2024-10-15T09:11:08.000Z</time>
      </trkpt>
      <trkpt lat="45.10164" lon="5.98172">
        <ele>2152.3999023438</ele>
        <time>2024-10-15T09:11:09.000Z</time>
      </trkpt>
      <trkpt lat="45.10164" lon="5.98171">
        <ele>2152.3999023438</ele>
        <time>2024-10-15T09:11:10.000Z</time>
      </trkpt>
      <trkpt lat="45.10164" lon="5.9817">
        <ele>2152.8000488281</ele>
        <time>2024-10-15T09:11:11.000Z</time>
      </trkpt>
      <trkpt lat="45.10164" lon="5.9817">
        <ele>2152.8000488281</ele>
        <time>2024-10-15T09:11:12.000Z</time>
      </trkpt>
      <trkpt lat="45.10164" lon="5.98169">
        <ele>2152.8000488281</ele>
        <time>2024-10-15T09:11:13.000Z</time>
      </trkpt>
      <trkpt lat="45.10164" lon="5.98169">
        <ele>2153</ele>
        <time>2024-10-15T09:11:14.000Z</time>
      </trkpt>
      <trkpt lat="45.10164" lon="5.98168">
        <ele>2153</ele>
        <time>2024-10-15T09:11:15.000Z</time>
      </trkpt>
      <trkpt lat="45.10164" lon="5.98168">
        <ele>2152.8000488281</ele>
        <time>2024-10-15T09:11:16.000Z</time>
      </trkpt>
      <trkpt lat="45.10164" lon="5.98168">
        <ele>2152.8000488281</ele>
        <time>2024-10-15T09:11:17.000Z</time>
      </trkpt>
      <trkpt lat="45.10164" lon="5.98168">
        <ele>2152.6000976562</ele>
        <time>2024-10-15T09:11:18.000Z</time>
      </trkpt>
      <trkpt lat="45.10164" lon="5.98168">
        <ele>2152.3999023438</ele>
        <time>2024-10-15T09:11:19.000Z</time>
      </trkpt>
      <trkpt lat="45.10164" lon="5.98168">
        <ele>2152</ele>
        <time>2024-10-15T09:11:20.000Z</time>
      </trkpt>
      <trkpt lat="45.10164" lon="5.98168">
        <ele>2151.6000976562</ele>
        <time>2024-10-15T09:11:21.000Z</time>
      </trkpt>
      <trkpt lat="45.10164" lon="5.98168">
        <ele>2151.3999023438</ele>
        <time>2024-10-15T09:11:22.000Z</time>
      </trkpt>
      <trkpt lat="45.10164" lon="5.98168">
        <ele>2151.1999511719</ele>
        <time>2024-10-15T09:11:23.000Z</time>
      </trkpt>
      <trkpt lat="45.10164" lon="5.98167">
        <ele>2151.1999511719</ele>
        <time>2024-10-15T09:11:24.000Z</time>
      </trkpt>
      <trkpt lat="45.10164" lon="5.98167">
        <ele>2151</ele>
        <time>2024-10-15T09:11:25.000Z</time>
      </trkpt>
      <trkpt lat="45.10164" lon="5.98167">
        <ele>2150.8000488281</ele>
        <time>2024-10-15T09:11:26.000Z</time>
      </trkpt>
      <trkpt lat="45.10164" lon="5.98167">
        <ele>2150.6000976562</ele>
        <time>2024-10-15T09:11:27.000Z</time>
      </trkpt>
      <trkpt lat="45.10164" lon="5.98167">
        <ele>2150.3999023438</ele>
        <time>2024-10-15T09:11:28.000Z</time>
      </trkpt>
      <trkpt lat="45.10164" lon="5.98167">
        <ele>2150.3999023438</ele>
        <time>2024-10-15T09:11:29.000Z</time>
      </trkpt>
      <trkpt lat="45.10164" lon="5.98167">
        <ele>2150.1999511719</ele>
        <time>2024-10-15T09:11:30.000Z</time>
      </trkpt>
      <trkpt lat="45.10164" lon="5.98167">
        <ele>2150.1999511719</ele>
        <time>2024-10-15T09:11:31.000Z</time>
      </trkpt>
      <trkpt lat="45.10164" lon="5.98167">
        <ele>2150.1999511719</ele>
        <time>2024-10-15T09:11:32.000Z</time>
      </trkpt>
      <trkpt lat="45.10164" lon="5.98167">
        <ele>2150.1999511719</ele>
        <time>2024-10-15T09:11:33.000Z</time>
      </trkpt>
      <trkpt lat="45.10164" lon="5.98166">
        <ele>2150.3999023438</ele>
        <time>2024-10-15T09:11:34.000Z</time>
      </trkpt>
      <trkpt lat="45.10164" lon="5.98166">
        <ele>2150.3999023438</ele>
        <time>2024-10-15T09:11:35.000Z</time>
      </trkpt>
      <trkpt lat="45.10164" lon="5.98166">
        <ele>2150.6000976562</ele>
        <time>2024-10-15T09:11:36.000Z</time>
      </trkpt>
      <trkpt lat="45.10164" lon="5.98166">
        <ele>2151</ele>
        <time>2024-10-15T09:11:37.000Z</time>
      </trkpt>
      <trkpt lat="45.10164" lon="5.98166">
        <ele>2151.3999023438</ele>
        <time>2024-10-15T09:11:38.000Z</time>
      </trkpt>
      <trkpt lat="45.10164" lon="5.98166">
        <ele>2151.3999023438</ele>
        <time>2024-10-15T09:11:39.000Z</time>
      </trkpt>
      <trkpt lat="45.10164" lon="5.98166">
        <ele>2151.3999023438</ele>
        <time>2024-10-15T09:11:40.000Z</time>
      </trkpt>
      <trkpt lat="45.10164" lon="5.98166">
        <ele>2151.3999023438</ele>
        <time>2024-10-15T09:11:41.000Z</time>
      </trkpt>
      <trkpt lat="45.10164" lon="5.98166">
        <ele>2151.1999511719</ele>
        <time>2024-10-15T09:11:42.000Z</time>
      </trkpt>
      <trkpt lat="45.10164" lon="5.98166">
        <ele>2151.1999511719</ele>
        <time>2024-10-15T09:11:43.000Z</time>
      </trkpt>
      <trkpt lat="45.10164" lon="5.98166">
        <ele>2151.1999511719</ele>
        <time>2024-10-15T09:11:44.000Z</time>
      </trkpt>
      <trkpt lat="45.10164" lon="5.98166">
        <ele>2151</ele>
        <time>2024-10-15T09:11:45.000Z</time>
      </trkpt>
      <trkpt lat="45.10164" lon="5.98166">
        <ele>2151</ele>
        <time>2024-10-15T09:11:46.000Z</time>
      </trkpt>
      <trkpt lat="45.10164" lon="5.98166">
        <ele>2151</ele>
        <time>2024-10-15T09:11:47.000Z</time>
      </trkpt>
      <trkpt lat="45.10164" lon="5.98166">
        <ele>2150.8000488281</ele>
        <time>2024-10-15T09:11:48.000Z</time>
      </trkpt>
      <trkpt lat="45.10164" lon="5.98166">
        <ele>2150.8000488281</ele>
        <time>2024-10-15T09:11:49.000Z</time>
      </trkpt>
      <trkpt lat="45.10164" lon="5.98166">
        <ele>2150.8000488281</ele>
        <time>2024-10-15T09:11:50.000Z</time>
      </trkpt>
      <trkpt lat="45.10164" lon="5.98166">
        <ele>2150.8000488281</ele>
        <time>2024-10-15T09:11:51.000Z</time>
      </trkpt>
      <trkpt lat="45.10164" lon="5.98166">
        <ele>2150.8000488281</ele>
        <time>2024-10-15T09:11:52.000Z</time>
      </trkpt>
      <trkpt lat="45.10164" lon="5.98166">
        <ele>2151</ele>
        <time>2024-10-15T09:11:53.000Z</time>
      </trkpt>
      <trkpt lat="45.10164" lon="5.98166">
        <ele>2151</ele>
        <time>2024-10-15T09:11:54.000Z</time>
      </trkpt>
      <trkpt lat="45.10164" lon="5.98167">
        <ele>2151</ele>
        <time>2024-10-15T09:11:55.000Z</time>
      </trkpt>
      <trkpt lat="45.10164" lon="5.98167">
        <ele>2151</ele>
        <time>2024-10-15T09:11:56.000Z</time>
      </trkpt>
      <trkpt lat="45.10164" lon="5.98167">
        <ele>2151</ele>
        <time>2024-10-15T09:11:57.000Z</time>
      </trkpt>
      <trkpt lat="45.10164" lon="5.98167">
        <ele>2151</ele>
        <time>2024-10-15T09:11:58.000Z</time>
      </trkpt>
      <trkpt lat="45.10164" lon="5.98167">
        <ele>2150.8000488281</ele>
        <time>2024-10-15T09:11:59.000Z</time>
      </trkpt>
      <trkpt lat="45.10164" lon="5.98167">
        <ele>2150.8000488281</ele>
        <time>2024-10-15T09:12:00.000Z</time>
      </trkpt>
      <trkpt lat="45.10164" lon="5.98167">
        <ele>2150.8000488281</ele>
        <time>2024-10-15T09:12:01.000Z</time>
      </trkpt>
      <trkpt lat="45.10164" lon="5.98167">
        <ele>2150.6000976562</ele>
        <time>2024-10-15T09:12:02.000Z</time>
      </trkpt>
      <trkpt lat="45.10164" lon="5.98167">
        <ele>2150.1999511719</ele>
        <time>2024-10-15T09:12:03.000Z</time>
      </trkpt>
      <trkpt lat="45.10164" lon="5.98166">
        <ele>2149.8000488281</ele>
        <time>2024-10-15T09:12:04.000Z</time>
      </trkpt>
      <trkpt lat="45.10163" lon="5.98164">
        <ele>2149.1999511719</ele>
        <time>2024-10-15T09:12:05.000Z</time>
      </trkpt>
      <trkpt lat="45.10162" lon="5.98163">
        <ele>2148.8000488281</ele>
        <time>2024-10-15T09:12:06.000Z</time>
      </trkpt>
      <trkpt lat="45.10161" lon="5.98162">
        <ele>2148.6000976562</ele>
        <time>2024-10-15T09:12:07.000Z</time>
      </trkpt>
      <trkpt lat="45.1016" lon="5.98161">
        <ele>2148.3999023438</ele>
        <time>2024-10-15T09:12:08.000Z</time>
      </trkpt>
      <trkpt lat="45.10159" lon="5.9816">
        <ele>2148.3999023438</ele>
        <time>2024-10-15T09:12:09.000Z</time>
      </trkpt>
      <trkpt lat="45.10159" lon="5.98159">
        <ele>2148.1999511719</ele>
        <time>2024-10-15T09:12:10.000Z</time>
      </trkpt>
      <trkpt lat="45.10158" lon="5.98157">
        <ele>2148.1999511719</ele>
        <time>2024-10-15T09:12:11.000Z</time>
      </trkpt>
      <trkpt lat="45.10158" lon="5.98156">
        <ele>2148</ele>
        <time>2024-10-15T09:12:12.000Z</time>
      </trkpt>
      <trkpt lat="45.10158" lon="5.98155">
        <ele>2147.3999023438</ele>
        <time>2024-10-15T09:12:13.000Z</time>
      </trkpt>
      <trkpt lat="45.10159" lon="5.98154">
        <ele>2147.1999511719</ele>
        <time>2024-10-15T09:12:14.000Z</time>
      </trkpt>
      <trkpt lat="45.10159" lon="5.98154">
        <ele>2146.8000488281</ele>
        <time>2024-10-15T09:12:15.000Z</time>
      </trkpt>
      <trkpt lat="45.1016" lon="5.98154">
        <ele>2146.6000976562</ele>
        <time>2024-10-15T09:12:16.000Z</time>
      </trkpt>
      <trkpt lat="45.1016" lon="5.98153">
        <ele>2146.3999023438</ele>
        <time>2024-10-15T09:12:17.000Z</time>
      </trkpt>
      <trkpt lat="45.1016" lon="5.98152">
        <ele>2146</ele>
        <time>2024-10-15T09:12:18.000Z</time>
      </trkpt>
      <trkpt lat="45.1016" lon="5.98151">
        <ele>2145.6000976562</ele>
        <time>2024-10-15T09:12:19.000Z</time>
      </trkpt>
      <trkpt lat="45.1016" lon="5.9815">
        <ele>2145</ele>
        <time>2024-10-15T09:12:20.000Z</time>
      </trkpt>
      <trkpt lat="45.1016" lon="5.98149">
        <ele>2144.6000976562</ele>
        <time>2024-10-15T09:12:21.000Z</time>
      </trkpt>
      <trkpt lat="45.1016" lon="5.98149">
        <ele>2144.1999511719</ele>
        <time>2024-10-15T09:12:22.000Z</time>
      </trkpt>
      <trkpt lat="45.1016" lon="5.98148">
        <ele>2143.8000488281</ele>
        <time>2024-10-15T09:12:23.000Z</time>
      </trkpt>
      <trkpt lat="45.1016" lon="5.98147">
        <ele>2143.6000976562</ele>
        <time>2024-10-15T09:12:24.000Z</time>
      </trkpt>
      <trkpt lat="45.1016" lon="5.98147">
        <ele>2143.6000976562</ele>
        <time>2024-10-15T09:12:25.000Z</time>
      </trkpt>
      <trkpt lat="45.10159" lon="5.98146">
        <ele>2143.6000976562</ele>
        <time>2024-10-15T09:12:26.000Z</time>
      </trkpt>
      <trkpt lat="45.10158" lon="5.98146">
        <ele>2143.6000976562</ele>
        <time>2024-10-15T09:12:27.000Z</time>
      </trkpt>
      <trkpt lat="45.10158" lon="5.98145">
        <ele>2143.6000976562</ele>
        <time>2024-10-15T09:12:28.000Z</time>
      </trkpt>
      <trkpt lat="45.10158" lon="5.98144">
        <ele>2143.6000976562</ele>
        <time>2024-10-15T09:12:29.000Z</time>
      </trkpt>
      <trkpt lat="45.10157" lon="5.98142">
        <ele>2143.6000976562</ele>
        <time>2024-10-15T09:12:30.000Z</time>
      </trkpt>
      <trkpt lat="45.10157" lon="5.98141">
        <ele>2143.6000976562</ele>
        <time>2024-10-15T09:12:31.000Z</time>
      </trkpt>
      <trkpt lat="45.10156" lon="5.9814">
        <ele>2143.8000488281</ele>
        <time>2024-10-15T09:12:32.000Z</time>
      </trkpt>
      <trkpt lat="45.10156" lon="5.98139">
        <ele>2143.8000488281</ele>
        <time>2024-10-15T09:12:33.000Z</time>
      </trkpt>
      <trkpt lat="45.10156" lon="5.98139">
        <ele>2144</ele>
        <time>2024-10-15T09:12:34.000Z</time>
      </trkpt>
      <trkpt lat="45.10156" lon="5.98139">
        <ele>2144</ele>
        <time>2024-10-15T09:12:35.000Z</time>
      </trkpt>
      <trkpt lat="45.10156" lon="5.98139">
        <ele>2144</ele>
        <time>2024-10-15T09:12:36.000Z</time>
      </trkpt>
      <trkpt lat="45.10156" lon="5.98139">
        <ele>2144</ele>
        <time>2024-10-15T09:12:37.000Z</time>
      </trkpt>
      <trkpt lat="45.10156" lon="5.98139">
        <ele>2144</ele>
        <time>2024-10-15T09:12:38.000Z</time>
      </trkpt>
      <trkpt lat="45.10156" lon="5.98139">
        <ele>2144</ele>
        <time>2024-10-15T09:12:39.000Z</time>
      </trkpt>
      <trkpt lat="45.10156" lon="5.98139">
        <ele>2144</ele>
        <time>2024-10-15T09:12:40.000Z</time>
      </trkpt>
      <trkpt lat="45.10156" lon="5.98139">
        <ele>2144</ele>
        <time>2024-10-15T09:12:41.000Z</time>
      </trkpt>
      <trkpt lat="45.10156" lon="5.98139">
        <ele>2144</ele>
        <time>2024-10-15T09:12:42.000Z</time>
      </trkpt>
      <trkpt lat="45.10156" lon="5.98139">
        <ele>2144</ele>
        <time>2024-10-15T09:12:43.000Z</time>
      </trkpt>
      <trkpt lat="45.10156" lon="5.98139">
        <ele>2144</ele>
        <time>2024-10-15T09:12:44.000Z</time>
      </trkpt>
      <trkpt lat="45.10156" lon="5.98138">
        <ele>2144</ele>
        <time>2024-10-15T09:12:45.000Z</time>
      </trkpt>
      <trkpt lat="45.10156" lon="5.98138">
        <ele>2144</ele>
        <time>2024-10-15T09:12:46.000Z</time>
      </trkpt>
      <trkpt lat="45.10155" lon="5.98137">
        <ele>2144</ele>
        <time>2024-10-15T09:12:47.000Z</time>
      </trkpt>
      <trkpt lat="45.10156" lon="5.98135">
        <ele>2144</ele>
        <time>2024-10-15T09:12:48.000Z</time>
      </trkpt>
      <trkpt lat="45.10156" lon="5.98134">
        <ele>2143.8000488281</ele>
        <time>2024-10-15T09:12:49.000Z</time>
      </trkpt>
      <trkpt lat="45.10155" lon="5.98132">
        <ele>2143.8000488281</ele>
        <time>2024-10-15T09:12:50.000Z</time>
      </trkpt>
      <trkpt lat="45.10155" lon="5.98131">
        <ele>2143.8000488281</ele>
        <time>2024-10-15T09:12:51.000Z</time>
      </trkpt>
      <trkpt lat="45.10155" lon="5.9813">
        <ele>2143.6000976562</ele>
        <time>2024-10-15T09:12:52.000Z</time>
      </trkpt>
      <trkpt lat="45.10155" lon="5.98129">
        <ele>2143.6000976562</ele>
        <time>2024-10-15T09:12:53.000Z</time>
      </trkpt>
      <trkpt lat="45.10155" lon="5.98128">
        <ele>2143.6000976562</ele>
        <time>2024-10-15T09:12:54.000Z</time>
      </trkpt>
      <trkpt lat="45.10155" lon="5.98128">
        <ele>2143.6000976562</ele>
        <time>2024-10-15T09:12:55.000Z</time>
      </trkpt>
      <trkpt lat="45.10155" lon="5.98127">
        <ele>2143.6000976562</ele>
        <time>2024-10-15T09:12:56.000Z</time>
      </trkpt>
      <trkpt lat="45.10155" lon="5.98127">
        <ele>2144</ele>
        <time>2024-10-15T09:12:57.000Z</time>
      </trkpt>
      <trkpt lat="45.10154" lon="5.98126">
        <ele>2144.6000976562</ele>
        <time>2024-10-15T09:12:58.000Z</time>
      </trkpt>
      <trkpt lat="45.10154" lon="5.98126">
        <ele>2144.8000488281</ele>
        <time>2024-10-15T09:12:59.000Z</time>
      </trkpt>
      <trkpt lat="45.10154" lon="5.98125">
        <ele>2145</ele>
        <time>2024-10-15T09:13:00.000Z</time>
      </trkpt>
      <trkpt lat="45.10155" lon="5.98125">
        <ele>2145.1999511719</ele>
        <time>2024-10-15T09:13:01.000Z</time>
      </trkpt>
      <trkpt lat="45.10155" lon="5.98124">
        <ele>2145.1999511719</ele>
        <time>2024-10-15T09:13:02.000Z</time>
      </trkpt>
      <trkpt lat="45.10155" lon="5.98124">
        <ele>2145.6000976562</ele>
        <time>2024-10-15T09:13:03.000Z</time>
      </trkpt>
      <trkpt lat="45.10155" lon="5.98123">
        <ele>2145.8000488281</ele>
        <time>2024-10-15T09:13:04.000Z</time>
      </trkpt>
      <trkpt lat="45.10155" lon="5.98123">
        <ele>2146</ele>
        <time>2024-10-15T09:13:05.000Z</time>
      </trkpt>
      <trkpt lat="45.10155" lon="5.98122">
        <ele>2146.1999511719</ele>
        <time>2024-10-15T09:13:06.000Z</time>
      </trkpt>
      <trkpt lat="45.10154" lon="5.98121">
        <ele>2146.6000976562</ele>
        <time>2024-10-15T09:13:07.000Z</time>
      </trkpt>
      <trkpt lat="45.10154" lon="5.98121">
        <ele>2147</ele>
        <time>2024-10-15T09:13:08.000Z</time>
      </trkpt>
      <trkpt lat="45.10154" lon="5.98121">
        <ele>2147.1999511719</ele>
        <time>2024-10-15T09:13:09.000Z</time>
      </trkpt>
      <trkpt lat="45.10154" lon="5.9812">
        <ele>2147.3999023438</ele>
        <time>2024-10-15T09:13:10.000Z</time>
      </trkpt>
      <trkpt lat="45.10153" lon="5.9812">
        <ele>2147.3999023438</ele>
        <time>2024-10-15T09:13:11.000Z</time>
      </trkpt>
      <trkpt lat="45.10153" lon="5.98119">
        <ele>2147.8000488281</ele>
        <time>2024-10-15T09:13:12.000Z</time>
      </trkpt>
      <trkpt lat="45.10153" lon="5.98119">
        <ele>2148</ele>
        <time>2024-10-15T09:13:13.000Z</time>
      </trkpt>
      <trkpt lat="45.10153" lon="5.98119">
        <ele>2148</ele>
        <time>2024-10-15T09:13:14.000Z</time>
      </trkpt>
      <trkpt lat="45.10153" lon="5.98118">
        <ele>2148.1999511719</ele>
        <time>2024-10-15T09:13:15.000Z</time>
      </trkpt>
      <trkpt lat="45.10153" lon="5.98118">
        <ele>2148.1999511719</ele>
        <time>2024-10-15T09:13:16.000Z</time>
      </trkpt>
      <trkpt lat="45.10153" lon="5.98117">
        <ele>2148.1999511719</ele>
        <time>2024-10-15T09:13:17.000Z</time>
      </trkpt>
      <trkpt lat="45.10153" lon="5.98117">
        <ele>2148.1999511719</ele>
        <time>2024-10-15T09:13:18.000Z</time>
      </trkpt>
      <trkpt lat="45.10153" lon="5.98116">
        <ele>2148</ele>
        <time>2024-10-15T09:13:19.000Z</time>
      </trkpt>
      <trkpt lat="45.10153" lon="5.98115">
        <ele>2148</ele>
        <time>2024-10-15T09:13:20.000Z</time>
      </trkpt>
      <trkpt lat="45.10153" lon="5.98115">
        <ele>2148</ele>
        <time>2024-10-15T09:13:21.000Z</time>
      </trkpt>
      <trkpt lat="45.10153" lon="5.98114">
        <ele>2148</ele>
        <time>2024-10-15T09:13:22.000Z</time>
      </trkpt>
      <trkpt lat="45.10153" lon="5.98114">
        <ele>2148.1999511719</ele>
        <time>2024-10-15T09:13:23.000Z</time>
      </trkpt>
      <trkpt lat="45.10153" lon="5.98113">
        <ele>2148.3999023438</ele>
        <time>2024-10-15T09:13:24.000Z</time>
      </trkpt>
      <trkpt lat="45.10152" lon="5.98113">
        <ele>2148.6000976562</ele>
        <time>2024-10-15T09:13:25.000Z</time>
      </trkpt>
      <trkpt lat="45.10152" lon="5.98113">
        <ele>2149</ele>
        <time>2024-10-15T09:13:26.000Z</time>
      </trkpt>
      <trkpt lat="45.10152" lon="5.98112">
        <ele>2149</ele>
        <time>2024-10-15T09:13:27.000Z</time>
      </trkpt>
      <trkpt lat="45.10152" lon="5.98112">
        <ele>2149</ele>
        <time>2024-10-15T09:13:28.000Z</time>
      </trkpt>
      <trkpt lat="45.10151" lon="5.98111">
        <ele>2149</ele>
        <time>2024-10-15T09:13:29.000Z</time>
      </trkpt>
      <trkpt lat="45.10151" lon="5.98111">
        <ele>2149.1999511719</ele>
        <time>2024-10-15T09:13:30.000Z</time>
      </trkpt>
      <trkpt lat="45.10151" lon="5.9811">
        <ele>2149.1999511719</ele>
        <time>2024-10-15T09:13:31.000Z</time>
      </trkpt>
      <trkpt lat="45.10151" lon="5.9811">
        <ele>2149.3999023438</ele>
        <time>2024-10-15T09:13:32.000Z</time>
      </trkpt>
      <trkpt lat="45.1015" lon="5.98109">
        <ele>2149.6000976562</ele>
        <time>2024-10-15T09:13:33.000Z</time>
      </trkpt>
      <trkpt lat="45.1015" lon="5.98109">
        <ele>2149.8000488281</ele>
        <time>2024-10-15T09:13:34.000Z</time>
      </trkpt>
      <trkpt lat="45.1015" lon="5.98109">
        <ele>2149.8000488281</ele>
        <time>2024-10-15T09:13:35.000Z</time>
      </trkpt>
      <trkpt lat="45.10149" lon="5.98108">
        <ele>2149.8000488281</ele>
        <time>2024-10-15T09:13:36.000Z</time>
      </trkpt>
      <trkpt lat="45.10149" lon="5.98107">
        <ele>2149.8000488281</ele>
        <time>2024-10-15T09:13:37.000Z</time>
      </trkpt>
      <trkpt lat="45.10149" lon="5.98107">
        <ele>2150</ele>
        <time>2024-10-15T09:13:38.000Z</time>
      </trkpt>
      <trkpt lat="45.10149" lon="5.98106">
        <ele>2150</ele>
        <time>2024-10-15T09:13:39.000Z</time>
      </trkpt>
      <trkpt lat="45.10149" lon="5.98106">
        <ele>2150</ele>
        <time>2024-10-15T09:13:40.000Z</time>
      </trkpt>
      <trkpt lat="45.10149" lon="5.98105">
        <ele>2150</ele>
        <time>2024-10-15T09:13:41.000Z</time>
      </trkpt>
      <trkpt lat="45.10149" lon="5.98105">
        <ele>2150</ele>
        <time>2024-10-15T09:13:42.000Z</time>
      </trkpt>
      <trkpt lat="45.10149" lon="5.98105">
        <ele>2150</ele>
        <time>2024-10-15T09:13:43.000Z</time>
      </trkpt>
      <trkpt lat="45.10149" lon="5.98105">
        <ele>2150</ele>
        <time>2024-10-15T09:13:44.000Z</time>
      </trkpt>
      <trkpt lat="45.10149" lon="5.98104">
        <ele>2150</ele>
        <time>2024-10-15T09:13:45.000Z</time>
      </trkpt>
      <trkpt lat="45.10149" lon="5.98104">
        <ele>2149.8000488281</ele>
        <time>2024-10-15T09:13:46.000Z</time>
      </trkpt>
      <trkpt lat="45.10149" lon="5.98103">
        <ele>2149.6000976562</ele>
        <time>2024-10-15T09:13:47.000Z</time>
      </trkpt>
      <trkpt lat="45.10149" lon="5.98103">
        <ele>2149.6000976562</ele>
        <time>2024-10-15T09:13:48.000Z</time>
      </trkpt>
      <trkpt lat="45.10149" lon="5.98102">
        <ele>2149.3999023438</ele>
        <time>2024-10-15T09:13:49.000Z</time>
      </trkpt>
      <trkpt lat="45.10148" lon="5.98102">
        <ele>2149</ele>
        <time>2024-10-15T09:13:50.000Z</time>
      </trkpt>
      <trkpt lat="45.10147" lon="5.98101">
        <ele>2149</ele>
        <time>2024-10-15T09:13:51.000Z</time>
      </trkpt>
      <trkpt lat="45.10147" lon="5.981">
        <ele>2149</ele>
        <time>2024-10-15T09:13:52.000Z</time>
      </trkpt>
      <trkpt lat="45.10146" lon="5.981">
        <ele>2149</ele>
        <time>2024-10-15T09:13:53.000Z</time>
      </trkpt>
      <trkpt lat="45.10146" lon="5.981">
        <ele>2149</ele>
        <time>2024-10-15T09:13:54.000Z</time>
      </trkpt>
      <trkpt lat="45.10146" lon="5.98099">
        <ele>2149.1999511719</ele>
        <time>2024-10-15T09:13:55.000Z</time>
      </trkpt>
      <trkpt lat="45.10146" lon="5.98099">
        <ele>2149.3999023438</ele>
        <time>2024-10-15T09:13:56.000Z</time>
      </trkpt>
      <trkpt lat="45.10146" lon="5.98098">
        <ele>2149.6000976562</ele>
        <time>2024-10-15T09:13:57.000Z</time>
      </trkpt>
      <trkpt lat="45.10146" lon="5.98098">
        <ele>2149.6000976562</ele>
        <time>2024-10-15T09:13:58.000Z</time>
      </trkpt>
      <trkpt lat="45.10145" lon="5.98099">
        <ele>2150</ele>
        <time>2024-10-15T09:13:59.000Z</time>
      </trkpt>
      <trkpt lat="45.10144" lon="5.98099">
        <ele>2150</ele>
        <time>2024-10-15T09:14:00.000Z</time>
      </trkpt>
      <trkpt lat="45.10144" lon="5.98098">
        <ele>2150.3999023438</ele>
        <time>2024-10-15T09:14:01.000Z</time>
      </trkpt>
      <trkpt lat="45.10144" lon="5.98098">
        <ele>2150.6000976562</ele>
        <time>2024-10-15T09:14:02.000Z</time>
      </trkpt>
      <trkpt lat="45.10144" lon="5.98098">
        <ele>2150.8000488281</ele>
        <time>2024-10-15T09:14:03.000Z</time>
      </trkpt>
      <trkpt lat="45.10144" lon="5.98098">
        <ele>2150.8000488281</ele>
        <time>2024-10-15T09:14:04.000Z</time>
      </trkpt>
      <trkpt lat="45.10143" lon="5.98097">
        <ele>2151</ele>
        <time>2024-10-15T09:14:05.000Z</time>
      </trkpt>
      <trkpt lat="45.10143" lon="5.98097">
        <ele>2151</ele>
        <time>2024-10-15T09:14:06.000Z</time>
      </trkpt>
      <trkpt lat="45.10143" lon="5.98098">
        <ele>2151</ele>
        <time>2024-10-15T09:14:07.000Z</time>
      </trkpt>
      <trkpt lat="45.10143" lon="5.98098">
        <ele>2151</ele>
        <time>2024-10-15T09:14:08.000Z</time>
      </trkpt>
      <trkpt lat="45.10143" lon="5.98098">
        <ele>2151</ele>
        <time>2024-10-15T09:14:09.000Z</time>
      </trkpt>
      <trkpt lat="45.10143" lon="5.98098">
        <ele>2151</ele>
        <time>2024-10-15T09:14:10.000Z</time>
      </trkpt>
      <trkpt lat="45.10143" lon="5.98098">
        <ele>2151</ele>
        <time>2024-10-15T09:14:11.000Z</time>
      </trkpt>
      <trkpt lat="45.10143" lon="5.98098">
        <ele>2151</ele>
        <time>2024-10-15T09:14:12.000Z</time>
      </trkpt>
      <trkpt lat="45.10143" lon="5.98098">
        <ele>2151.1999511719</ele>
        <time>2024-10-15T09:14:13.000Z</time>
      </trkpt>
      <trkpt lat="45.10143" lon="5.98098">
        <ele>2151.1999511719</ele>
        <time>2024-10-15T09:14:14.000Z</time>
      </trkpt>
      <trkpt lat="45.10143" lon="5.98098">
        <ele>2151.3999023438</ele>
        <time>2024-10-15T09:14:15.000Z</time>
      </trkpt>
      <trkpt lat="45.10143" lon="5.98098">
        <ele>2151.3999023438</ele>
        <time>2024-10-15T09:14:16.000Z</time>
      </trkpt>
      <trkpt lat="45.10143" lon="5.98098">
        <ele>2151.3999023438</ele>
        <time>2024-10-15T09:14:17.000Z</time>
      </trkpt>
      <trkpt lat="45.10143" lon="5.98098">
        <ele>2151.3999023438</ele>
        <time>2024-10-15T09:14:18.000Z</time>
      </trkpt>
      <trkpt lat="45.10143" lon="5.98098">
        <ele>2151.6000976562</ele>
        <time>2024-10-15T09:14:19.000Z</time>
      </trkpt>
      <trkpt lat="45.10143" lon="5.98098">
        <ele>2152</ele>
        <time>2024-10-15T09:14:20.000Z</time>
      </trkpt>
      <trkpt lat="45.10143" lon="5.98098">
        <ele>2152.1999511719</ele>
        <time>2024-10-15T09:14:21.000Z</time>
      </trkpt>
      <trkpt lat="45.10143" lon="5.98098">
        <ele>2152.1999511719</ele>
        <time>2024-10-15T09:14:22.000Z</time>
      </trkpt>
      <trkpt lat="45.10143" lon="5.98098">
        <ele>2152.1999511719</ele>
        <time>2024-10-15T09:14:23.000Z</time>
      </trkpt>
      <trkpt lat="45.10143" lon="5.98098">
        <ele>2152.1999511719</ele>
        <time>2024-10-15T09:14:24.000Z</time>
      </trkpt>
      <trkpt lat="45.10143" lon="5.98097">
        <ele>2152.1999511719</ele>
        <time>2024-10-15T09:14:25.000Z</time>
      </trkpt>
      <trkpt lat="45.10143" lon="5.98097">
        <ele>2152</ele>
        <time>2024-10-15T09:14:26.000Z</time>
      </trkpt>
      <trkpt lat="45.10143" lon="5.98097">
        <ele>2152</ele>
        <time>2024-10-15T09:14:27.000Z</time>
      </trkpt>
      <trkpt lat="45.10143" lon="5.98097">
        <ele>2151.8000488281</ele>
        <time>2024-10-15T09:14:28.000Z</time>
      </trkpt>
      <trkpt lat="45.10143" lon="5.98097">
        <ele>2151.6000976562</ele>
        <time>2024-10-15T09:14:29.000Z</time>
      </trkpt>
      <trkpt lat="45.10142" lon="5.98097">
        <ele>2151.6000976562</ele>
        <time>2024-10-15T09:14:30.000Z</time>
      </trkpt>
      <trkpt lat="45.10142" lon="5.98096">
        <ele>2151.3999023438</ele>
        <time>2024-10-15T09:14:31.000Z</time>
      </trkpt>
      <trkpt lat="45.10142" lon="5.98096">
        <ele>2151.3999023438</ele>
        <time>2024-10-15T09:14:32.000Z</time>
      </trkpt>
      <trkpt lat="45.10141" lon="5.98096">
        <ele>2151.3999023438</ele>
        <time>2024-10-15T09:14:33.000Z</time>
      </trkpt>
      <trkpt lat="45.10141" lon="5.98095">
        <ele>2151.3999023438</ele>
        <time>2024-10-15T09:14:34.000Z</time>
      </trkpt>
      <trkpt lat="45.10141" lon="5.98095">
        <ele>2151.6000976562</ele>
        <time>2024-10-15T09:14:35.000Z</time>
      </trkpt>
      <trkpt lat="45.10141" lon="5.98094">
        <ele>2151.8000488281</ele>
        <time>2024-10-15T09:14:36.000Z</time>
      </trkpt>
      <trkpt lat="45.10141" lon="5.98094">
        <ele>2152.3999023438</ele>
        <time>2024-10-15T09:14:37.000Z</time>
      </trkpt>
      <trkpt lat="45.1014" lon="5.98094">
        <ele>2152.6000976562</ele>
        <time>2024-10-15T09:14:38.000Z</time>
      </trkpt>
      <trkpt lat="45.1014" lon="5.98094">
        <ele>2152.8000488281</ele>
        <time>2024-10-15T09:14:39.000Z</time>
      </trkpt>
      <trkpt lat="45.1014" lon="5.98093">
        <ele>2153</ele>
        <time>2024-10-15T09:14:40.000Z</time>
      </trkpt>
      <trkpt lat="45.1014" lon="5.98093">
        <ele>2153</ele>
        <time>2024-10-15T09:14:41.000Z</time>
      </trkpt>
      <trkpt lat="45.1014" lon="5.98093">
        <ele>2153</ele>
        <time>2024-10-15T09:14:42.000Z</time>
      </trkpt>
      <trkpt lat="45.1014" lon="5.98093">
        <ele>2153</ele>
        <time>2024-10-15T09:14:43.000Z</time>
      </trkpt>
      <trkpt lat="45.1014" lon="5.98093">
        <ele>2153</ele>
        <time>2024-10-15T09:14:44.000Z</time>
      </trkpt>
      <trkpt lat="45.1014" lon="5.98093">
        <ele>2153</ele>
        <time>2024-10-15T09:14:45.000Z</time>
      </trkpt>
      <trkpt lat="45.10139" lon="5.98093">
        <ele>2153</ele>
        <time>2024-10-15T09:14:46.000Z</time>
      </trkpt>
      <trkpt lat="45.10138" lon="5.98093">
        <ele>2153.1999511719</ele>
        <time>2024-10-15T09:14:47.000Z</time>
      </trkpt>
      <trkpt lat="45.10138" lon="5.98093">
        <ele>2153.1999511719</ele>
        <time>2024-10-15T09:14:48.000Z</time>
      </trkpt>
      <trkpt lat="45.10138" lon="5.98093">
        <ele>2153.3999023438</ele>
        <time>2024-10-15T09:14:49.000Z</time>
      </trkpt>
      <trkpt lat="45.10137" lon="5.98092">
        <ele>2153.6000976562</ele>
        <time>2024-10-15T09:14:50.000Z</time>
      </trkpt>
      <trkpt lat="45.10137" lon="5.98092">
        <ele>2154.1999511719</ele>
        <time>2024-10-15T09:14:51.000Z</time>
      </trkpt>
      <trkpt lat="45.10137" lon="5.98092">
        <ele>2154.3999023438</ele>
        <time>2024-10-15T09:14:52.000Z</time>
      </trkpt>
      <trkpt lat="45.10137" lon="5.98092">
        <ele>2154.6000976562</ele>
        <time>2024-10-15T09:14:53.000Z</time>
      </trkpt>
      <trkpt lat="45.10137" lon="5.98092">
        <ele>2154.6000976562</ele>
        <time>2024-10-15T09:14:54.000Z</time>
      </trkpt>
      <trkpt lat="45.10137" lon="5.98092">
        <ele>2154.6000976562</ele>
        <time>2024-10-15T09:14:55.000Z</time>
      </trkpt>
      <trkpt lat="45.10137" lon="5.98092">
        <ele>2154.8000488281</ele>
        <time>2024-10-15T09:14:56.000Z</time>
      </trkpt>
      <trkpt lat="45.10137" lon="5.98092">
        <ele>2154.6000976562</ele>
        <time>2024-10-15T09:14:57.000Z</time>
      </trkpt>
      <trkpt lat="45.10137" lon="5.98092">
        <ele>2154.6000976562</ele>
        <time>2024-10-15T09:14:58.000Z</time>
      </trkpt>
      <trkpt lat="45.10137" lon="5.98092">
        <ele>2154.3999023438</ele>
        <time>2024-10-15T09:14:59.000Z</time>
      </trkpt>
      <trkpt lat="45.10137" lon="5.98092">
        <ele>2154.6000976562</ele>
        <time>2024-10-15T09:15:00.000Z</time>
      </trkpt>
      <trkpt lat="45.10137" lon="5.98092">
        <ele>2154.6000976562</ele>
        <time>2024-10-15T09:15:01.000Z</time>
      </trkpt>
      <trkpt lat="45.10137" lon="5.98092">
        <ele>2154.6000976562</ele>
        <time>2024-10-15T09:15:02.000Z</time>
      </trkpt>
      <trkpt lat="45.10137" lon="5.98092">
        <ele>2155</ele>
        <time>2024-10-15T09:15:03.000Z</time>
      </trkpt>
      <trkpt lat="45.10137" lon="5.98092">
        <ele>2155.1999511719</ele>
        <time>2024-10-15T09:15:04.000Z</time>
      </trkpt>
      <trkpt lat="45.10137" lon="5.98092">
        <ele>2155.3999023438</ele>
        <time>2024-10-15T09:15:05.000Z</time>
      </trkpt>
      <trkpt lat="45.10137" lon="5.98092">
        <ele>2155.6000976562</ele>
        <time>2024-10-15T09:15:06.000Z</time>
      </trkpt>
      <trkpt lat="45.10137" lon="5.98092">
        <ele>2155.8000488281</ele>
        <time>2024-10-15T09:15:07.000Z</time>
      </trkpt>
      <trkpt lat="45.10137" lon="5.98092">
        <ele>2156</ele>
        <time>2024-10-15T09:15:08.000Z</time>
      </trkpt>
      <trkpt lat="45.10137" lon="5.98092">
        <ele>2156.1999511719</ele>
        <time>2024-10-15T09:15:09.000Z</time>
      </trkpt>
      <trkpt lat="45.10137" lon="5.98092">
        <ele>2156.6000976562</ele>
        <time>2024-10-15T09:15:10.000Z</time>
      </trkpt>
      <trkpt lat="45.10137" lon="5.98091">
        <ele>2156.8000488281</ele>
        <time>2024-10-15T09:15:11.000Z</time>
      </trkpt>
      <trkpt lat="45.10136" lon="5.98091">
        <ele>2157</ele>
        <time>2024-10-15T09:15:12.000Z</time>
      </trkpt>
      <trkpt lat="45.10136" lon="5.9809">
        <ele>2157.1999511719</ele>
        <time>2024-10-15T09:15:13.000Z</time>
      </trkpt>
      <trkpt lat="45.10135" lon="5.9809">
        <ele>2157.3999023438</ele>
        <time>2024-10-15T09:15:14.000Z</time>
      </trkpt>
      <trkpt lat="45.10135" lon="5.98089">
        <ele>2157.8000488281</ele>
        <time>2024-10-15T09:15:15.000Z</time>
      </trkpt>
      <trkpt lat="45.10135" lon="5.98089">
        <ele>2158</ele>
        <time>2024-10-15T09:15:16.000Z</time>
      </trkpt>
      <trkpt lat="45.10134" lon="5.98088">
        <ele>2158</ele>
        <time>2024-10-15T09:15:17.000Z</time>
      </trkpt>
      <trkpt lat="45.10134" lon="5.98088">
        <ele>2158.1999511719</ele>
        <time>2024-10-15T09:15:18.000Z</time>
      </trkpt>
      <trkpt lat="45.10134" lon="5.98087">
        <ele>2158.3999023438</ele>
        <time>2024-10-15T09:15:19.000Z</time>
      </trkpt>
      <trkpt lat="45.10134" lon="5.98087">
        <ele>2158.8000488281</ele>
        <time>2024-10-15T09:15:20.000Z</time>
      </trkpt>
      <trkpt lat="45.10134" lon="5.98086">
        <ele>2159.1999511719</ele>
        <time>2024-10-15T09:15:21.000Z</time>
      </trkpt>
      <trkpt lat="45.10133" lon="5.98086">
        <ele>2159.3999023438</ele>
        <time>2024-10-15T09:15:22.000Z</time>
      </trkpt>
      <trkpt lat="45.10133" lon="5.98085">
        <ele>2159.8000488281</ele>
        <time>2024-10-15T09:15:23.000Z</time>
      </trkpt>
      <trkpt lat="45.10133" lon="5.98085">
        <ele>2159.8000488281</ele>
        <time>2024-10-15T09:15:24.000Z</time>
      </trkpt>
      <trkpt lat="45.10132" lon="5.98084">
        <ele>2160</ele>
        <time>2024-10-15T09:15:25.000Z</time>
      </trkpt>
      <trkpt lat="45.10132" lon="5.98084">
        <ele>2160</ele>
        <time>2024-10-15T09:15:26.000Z</time>
      </trkpt>
      <trkpt lat="45.10132" lon="5.98084">
        <ele>2160.1999511719</ele>
        <time>2024-10-15T09:15:27.000Z</time>
      </trkpt>
      <trkpt lat="45.10132" lon="5.98084">
        <ele>2160.6000976562</ele>
        <time>2024-10-15T09:15:28.000Z</time>
      </trkpt>
      <trkpt lat="45.10131" lon="5.98083">
        <ele>2160.8000488281</ele>
        <time>2024-10-15T09:15:29.000Z</time>
      </trkpt>
      <trkpt lat="45.10131" lon="5.98083">
        <ele>2161.1999511719</ele>
        <time>2024-10-15T09:15:30.000Z</time>
      </trkpt>
      <trkpt lat="45.10131" lon="5.98083">
        <ele>2161.3999023438</ele>
        <time>2024-10-15T09:15:31.000Z</time>
      </trkpt>
      <trkpt lat="45.10131" lon="5.98083">
        <ele>2161.8000488281</ele>
        <time>2024-10-15T09:15:32.000Z</time>
      </trkpt>
      <trkpt lat="45.10131" lon="5.98082">
        <ele>2162</ele>
        <time>2024-10-15T09:15:33.000Z</time>
      </trkpt>
      <trkpt lat="45.1013" lon="5.98082">
        <ele>2162.1999511719</ele>
        <time>2024-10-15T09:15:34.000Z</time>
      </trkpt>
      <trkpt lat="45.1013" lon="5.98082">
        <ele>2162.6000976562</ele>
        <time>2024-10-15T09:15:35.000Z</time>
      </trkpt>
      <trkpt lat="45.1013" lon="5.98082">
        <ele>2163</ele>
        <time>2024-10-15T09:15:36.000Z</time>
      </trkpt>
      <trkpt lat="45.1013" lon="5.98082">
        <ele>2163</ele>
        <time>2024-10-15T09:15:37.000Z</time>
      </trkpt>
      <trkpt lat="45.1013" lon="5.98082">
        <ele>2163.1999511719</ele>
        <time>2024-10-15T09:15:38.000Z</time>
      </trkpt>
      <trkpt lat="45.1013" lon="5.98082">
        <ele>2163.1999511719</ele>
        <time>2024-10-15T09:15:39.000Z</time>
      </trkpt>
      <trkpt lat="45.1013" lon="5.98081">
        <ele>2163.1999511719</ele>
        <time>2024-10-15T09:15:40.000Z</time>
      </trkpt>
      <trkpt lat="45.1013" lon="5.98081">
        <ele>2163.6000976562</ele>
        <time>2024-10-15T09:15:41.000Z</time>
      </trkpt>
      <trkpt lat="45.10129" lon="5.98081">
        <ele>2163.8000488281</ele>
        <time>2024-10-15T09:15:42.000Z</time>
      </trkpt>
      <trkpt lat="45.10129" lon="5.98081">
        <ele>2164</ele>
        <time>2024-10-15T09:15:43.000Z</time>
      </trkpt>
      <trkpt lat="45.10129" lon="5.98081">
        <ele>2164</ele>
        <time>2024-10-15T09:15:44.000Z</time>
      </trkpt>
      <trkpt lat="45.10128" lon="5.98079">
        <ele>2164.1999511719</ele>
        <time>2024-10-15T09:15:45.000Z</time>
      </trkpt>
      <trkpt lat="45.10127" lon="5.98078">
        <ele>2164.8000488281</ele>
        <time>2024-10-15T09:15:46.000Z</time>
      </trkpt>
      <trkpt lat="45.10127" lon="5.98077">
        <ele>2164.8000488281</ele>
        <time>2024-10-15T09:15:47.000Z</time>
      </trkpt>
      <trkpt lat="45.10126" lon="5.98075">
        <ele>2165</ele>
        <time>2024-10-15T09:15:48.000Z</time>
      </trkpt>
      <trkpt lat="45.10125" lon="5.98074">
        <ele>2165.1999511719</ele>
        <time>2024-10-15T09:15:49.000Z</time>
      </trkpt>
      <trkpt lat="45.10125" lon="5.98073">
        <ele>2165.1999511719</ele>
        <time>2024-10-15T09:15:50.000Z</time>
      </trkpt>
      <trkpt lat="45.10124" lon="5.98071">
        <ele>2165.6000976562</ele>
        <time>2024-10-15T09:15:51.000Z</time>
      </trkpt>
      <trkpt lat="45.10123" lon="5.9807">
        <ele>2165.8000488281</ele>
        <time>2024-10-15T09:15:52.000Z</time>
      </trkpt>
      <trkpt lat="45.10123" lon="5.98068">
        <ele>2166.1999511719</ele>
        <time>2024-10-15T09:15:53.000Z</time>
      </trkpt>
      <trkpt lat="45.10123" lon="5.98067">
        <ele>2166.6000976562</ele>
        <time>2024-10-15T09:15:54.000Z</time>
      </trkpt>
      <trkpt lat="45.10123" lon="5.98067">
        <ele>2166.8000488281</ele>
        <time>2024-10-15T09:15:55.000Z</time>
      </trkpt>
      <trkpt lat="45.10123" lon="5.98066">
        <ele>2166.8000488281</ele>
        <time>2024-10-15T09:15:56.000Z</time>
      </trkpt>
      <trkpt lat="45.10123" lon="5.98066">
        <ele>2166.8000488281</ele>
        <time>2024-10-15T09:15:57.000Z</time>
      </trkpt>
      <trkpt lat="45.10123" lon="5.98065">
        <ele>2167</ele>
        <time>2024-10-15T09:15:58.000Z</time>
      </trkpt>
      <trkpt lat="45.10123" lon="5.98065">
        <ele>2167</ele>
        <time>2024-10-15T09:15:59.000Z</time>
      </trkpt>
      <trkpt lat="45.10123" lon="5.98065">
        <ele>2167</ele>
        <time>2024-10-15T09:16:00.000Z</time>
      </trkpt>
      <trkpt lat="45.10123" lon="5.98065">
        <ele>2167.1999511719</ele>
        <time>2024-10-15T09:16:01.000Z</time>
      </trkpt>
      <trkpt lat="45.10123" lon="5.98065">
        <ele>2167.1999511719</ele>
        <time>2024-10-15T09:16:02.000Z</time>
      </trkpt>
      <trkpt lat="45.10123" lon="5.98065">
        <ele>2167.1999511719</ele>
        <time>2024-10-15T09:16:03.000Z</time>
      </trkpt>
      <trkpt lat="45.10123" lon="5.98065">
        <ele>2167.3999023438</ele>
        <time>2024-10-15T09:16:04.000Z</time>
      </trkpt>
      <trkpt lat="45.10123" lon="5.98065">
        <ele>2167.3999023438</ele>
        <time>2024-10-15T09:16:05.000Z</time>
      </trkpt>
      <trkpt lat="45.10123" lon="5.98065">
        <ele>2167.3999023438</ele>
        <time>2024-10-15T09:16:06.000Z</time>
      </trkpt>
      <trkpt lat="45.10123" lon="5.98065">
        <ele>2167.6000976562</ele>
        <time>2024-10-15T09:16:07.000Z</time>
      </trkpt>
      <trkpt lat="45.10123" lon="5.98065">
        <ele>2167.6000976562</ele>
        <time>2024-10-15T09:16:08.000Z</time>
      </trkpt>
      <trkpt lat="45.10123" lon="5.98065">
        <ele>2167.6000976562</ele>
        <time>2024-10-15T09:16:09.000Z</time>
      </trkpt>
      <trkpt lat="45.10123" lon="5.98065">
        <ele>2167.6000976562</ele>
        <time>2024-10-15T09:16:10.000Z</time>
      </trkpt>
      <trkpt lat="45.10123" lon="5.98065">
        <ele>2167.6000976562</ele>
        <time>2024-10-15T09:16:11.000Z</time>
      </trkpt>
      <trkpt lat="45.10123" lon="5.98065">
        <ele>2167.6000976562</ele>
        <time>2024-10-15T09:16:12.000Z</time>
      </trkpt>
      <trkpt lat="45.10123" lon="5.98065">
        <ele>2167.6000976562</ele>
        <time>2024-10-15T09:16:13.000Z</time>
      </trkpt>
      <trkpt lat="45.10123" lon="5.98065">
        <ele>2167.6000976562</ele>
        <time>2024-10-15T09:16:14.000Z</time>
      </trkpt>
      <trkpt lat="45.10123" lon="5.98065">
        <ele>2167.6000976562</ele>
        <time>2024-10-15T09:16:15.000Z</time>
      </trkpt>
      <trkpt lat="45.10123" lon="5.98065">
        <ele>2167.3999023438</ele>
        <time>2024-10-15T09:16:16.000Z</time>
      </trkpt>
      <trkpt lat="45.10123" lon="5.98065">
        <ele>2167.1999511719</ele>
        <time>2024-10-15T09:16:17.000Z</time>
      </trkpt>
      <trkpt lat="45.10123" lon="5.98065">
        <ele>2167</ele>
        <time>2024-10-15T09:16:18.000Z</time>
      </trkpt>
      <trkpt lat="45.10123" lon="5.98065">
        <ele>2167</ele>
        <time>2024-10-15T09:16:19.000Z</time>
      </trkpt>
      <trkpt lat="45.10123" lon="5.98065">
        <ele>2167</ele>
        <time>2024-10-15T09:16:20.000Z</time>
      </trkpt>
      <trkpt lat="45.10123" lon="5.98065">
        <ele>2167</ele>
        <time>2024-10-15T09:16:21.000Z</time>
      </trkpt>
      <trkpt lat="45.10123" lon="5.98065">
        <ele>2167</ele>
        <time>2024-10-15T09:16:22.000Z</time>
      </trkpt>
      <trkpt lat="45.10123" lon="5.98065">
        <ele>2167</ele>
        <time>2024-10-15T09:16:23.000Z</time>
      </trkpt>
      <trkpt lat="45.10123" lon="5.98065">
        <ele>2167</ele>
        <time>2024-10-15T09:16:24.000Z</time>
      </trkpt>
      <trkpt lat="45.10123" lon="5.98065">
        <ele>2167</ele>
        <time>2024-10-15T09:16:25.000Z</time>
      </trkpt>
      <trkpt lat="45.10123" lon="5.98065">
        <ele>2167.1999511719</ele>
        <time>2024-10-15T09:16:26.000Z</time>
      </trkpt>
      <trkpt lat="45.10123" lon="5.98065">
        <ele>2167.1999511719</ele>
        <time>2024-10-15T09:16:27.000Z</time>
      </trkpt>
      <trkpt lat="45.10123" lon="5.98065">
        <ele>2167.1999511719</ele>
        <time>2024-10-15T09:16:28.000Z</time>
      </trkpt>
      <trkpt lat="45.10123" lon="5.98065">
        <ele>2167.1999511719</ele>
        <time>2024-10-15T09:16:29.000Z</time>
      </trkpt>
      <trkpt lat="45.10123" lon="5.98065">
        <ele>2167.1999511719</ele>
        <time>2024-10-15T09:16:30.000Z</time>
      </trkpt>
      <trkpt lat="45.10123" lon="5.98065">
        <ele>2167.1999511719</ele>
        <time>2024-10-15T09:16:31.000Z</time>
      </trkpt>
      <trkpt lat="45.10123" lon="5.98065">
        <ele>2167.1999511719</ele>
        <time>2024-10-15T09:16:32.000Z</time>
      </trkpt>
      <trkpt lat="45.10123" lon="5.98065">
        <ele>2167.1999511719</ele>
        <time>2024-10-15T09:16:33.000Z</time>
      </trkpt>
      <trkpt lat="45.10124" lon="5.98065">
        <ele>2167.1999511719</ele>
        <time>2024-10-15T09:16:34.000Z</time>
      </trkpt>
      <trkpt lat="45.10124" lon="5.98065">
        <ele>2167.1999511719</ele>
        <time>2024-10-15T09:16:35.000Z</time>
      </trkpt>
      <trkpt lat="45.10124" lon="5.98065">
        <ele>2167.1999511719</ele>
        <time>2024-10-15T09:16:36.000Z</time>
      </trkpt>
      <trkpt lat="45.10124" lon="5.98065">
        <ele>2167.1999511719</ele>
        <time>2024-10-15T09:16:37.000Z</time>
      </trkpt>
      <trkpt lat="45.10124" lon="5.98065">
        <ele>2167.1999511719</ele>
        <time>2024-10-15T09:16:38.000Z</time>
      </trkpt>
      <trkpt lat="45.10124" lon="5.98065">
        <ele>2167.1999511719</ele>
        <time>2024-10-15T09:16:39.000Z</time>
      </trkpt>
      <trkpt lat="45.10124" lon="5.98065">
        <ele>2167.1999511719</ele>
        <time>2024-10-15T09:16:40.000Z</time>
      </trkpt>
      <trkpt lat="45.10124" lon="5.98065">
        <ele>2167.1999511719</ele>
        <time>2024-10-15T09:16:41.000Z</time>
      </trkpt>
      <trkpt lat="45.10124" lon="5.98065">
        <ele>2167.1999511719</ele>
        <time>2024-10-15T09:16:42.000Z</time>
      </trkpt>
      <trkpt lat="45.10124" lon="5.98065">
        <ele>2167.1999511719</ele>
        <time>2024-10-15T09:16:43.000Z</time>
      </trkpt>
      <trkpt lat="45.10124" lon="5.98065">
        <ele>2167.1999511719</ele>
        <time>2024-10-15T09:16:44.000Z</time>
      </trkpt>
      <trkpt lat="45.10124" lon="5.98065">
        <ele>2167.1999511719</ele>
        <time>2024-10-15T09:16:45.000Z</time>
      </trkpt>
      <trkpt lat="45.10124" lon="5.98065">
        <ele>2167.1999511719</ele>
        <time>2024-10-15T09:16:46.000Z</time>
      </trkpt>
      <trkpt lat="45.10124" lon="5.98065">
        <ele>2167.3999023438</ele>
        <time>2024-10-15T09:16:47.000Z</time>
      </trkpt>
      <trkpt lat="45.10124" lon="5.98065">
        <ele>2167.3999023438</ele>
        <time>2024-10-15T09:16:48.000Z</time>
      </trkpt>
      <trkpt lat="45.10124" lon="5.98065">
        <ele>2167.3999023438</ele>
        <time>2024-10-15T09:16:49.000Z</time>
      </trkpt>
      <trkpt lat="45.10124" lon="5.98065">
        <ele>2167.3999023438</ele>
        <time>2024-10-15T09:16:50.000Z</time>
      </trkpt>
      <trkpt lat="45.10124" lon="5.98065">
        <ele>2167.3999023438</ele>
        <time>2024-10-15T09:16:51.000Z</time>
      </trkpt>
      <trkpt lat="45.10124" lon="5.98065">
        <ele>2167.3999023438</ele>
        <time>2024-10-15T09:16:52.000Z</time>
      </trkpt>
      <trkpt lat="45.10124" lon="5.98065">
        <ele>2167.3999023438</ele>
        <time>2024-10-15T09:16:53.000Z</time>
      </trkpt>
      <trkpt lat="45.10124" lon="5.98065">
        <ele>2167.3999023438</ele>
        <time>2024-10-15T09:16:54.000Z</time>
      </trkpt>
      <trkpt lat="45.10124" lon="5.98065">
        <ele>2167.6000976562</ele>
        <time>2024-10-15T09:16:55.000Z</time>
      </trkpt>
      <trkpt lat="45.10124" lon="5.98065">
        <ele>2167.6000976562</ele>
        <time>2024-10-15T09:16:56.000Z</time>
      </trkpt>
      <trkpt lat="45.10124" lon="5.98065">
        <ele>2167.6000976562</ele>
        <time>2024-10-15T09:16:57.000Z</time>
      </trkpt>
      <trkpt lat="45.10124" lon="5.98065">
        <ele>2167.6000976562</ele>
        <time>2024-10-15T09:16:58.000Z</time>
      </trkpt>
      <trkpt lat="45.10124" lon="5.98065">
        <ele>2167.6000976562</ele>
        <time>2024-10-15T09:16:59.000Z</time>
      </trkpt>
      <trkpt lat="45.10124" lon="5.98065">
        <ele>2167.6000976562</ele>
        <time>2024-10-15T09:17:00.000Z</time>
      </trkpt>
      <trkpt lat="45.10124" lon="5.98065">
        <ele>2167.6000976562</ele>
        <time>2024-10-15T09:17:01.000Z</time>
      </trkpt>
      <trkpt lat="45.10124" lon="5.98065">
        <ele>2167.6000976562</ele>
        <time>2024-10-15T09:17:02.000Z</time>
      </trkpt>
      <trkpt lat="45.10124" lon="5.98065">
        <ele>2167.6000976562</ele>
        <time>2024-10-15T09:17:03.000Z</time>
      </trkpt>
      <trkpt lat="45.10124" lon="5.98065">
        <ele>2167.6000976562</ele>
        <time>2024-10-15T09:17:04.000Z</time>
      </trkpt>
      <trkpt lat="45.10124" lon="5.98065">
        <ele>2167.6000976562</ele>
        <time>2024-10-15T09:17:05.000Z</time>
      </trkpt>
      <trkpt lat="45.10124" lon="5.98065">
        <ele>2167.6000976562</ele>
        <time>2024-10-15T09:17:06.000Z</time>
      </trkpt>
      <trkpt lat="45.10124" lon="5.98065">
        <ele>2167.6000976562</ele>
        <time>2024-10-15T09:17:07.000Z</time>
      </trkpt>
      <trkpt lat="45.10124" lon="5.98065">
        <ele>2167.6000976562</ele>
        <time>2024-10-15T09:17:08.000Z</time>
      </trkpt>
      <trkpt lat="45.10124" lon="5.98065">
        <ele>2167.8000488281</ele>
        <time>2024-10-15T09:17:09.000Z</time>
      </trkpt>
      <trkpt lat="45.10124" lon="5.98065">
        <ele>2167.8000488281</ele>
        <time>2024-10-15T09:17:10.000Z</time>
      </trkpt>
      <trkpt lat="45.10124" lon="5.98065">
        <ele>2167.8000488281</ele>
        <time>2024-10-15T09:17:11.000Z</time>
      </trkpt>
      <trkpt lat="45.10124" lon="5.98065">
        <ele>2167.8000488281</ele>
        <time>2024-10-15T09:17:12.000Z</time>
      </trkpt>
      <trkpt lat="45.10124" lon="5.98065">
        <ele>2167.8000488281</ele>
        <time>2024-10-15T09:17:13.000Z</time>
      </trkpt>
      <trkpt lat="45.10124" lon="5.98065">
        <ele>2167.8000488281</ele>
        <time>2024-10-15T09:17:14.000Z</time>
      </trkpt>
      <trkpt lat="45.10124" lon="5.98065">
        <ele>2168</ele>
        <time>2024-10-15T09:17:15.000Z</time>
      </trkpt>
      <trkpt lat="45.10124" lon="5.98065">
        <ele>2168</ele>
        <time>2024-10-15T09:17:16.000Z</time>
      </trkpt>
      <trkpt lat="45.10124" lon="5.98065">
        <ele>2168</ele>
        <time>2024-10-15T09:17:17.000Z</time>
      </trkpt>
      <trkpt lat="45.10124" lon="5.98065">
        <ele>2168</ele>
        <time>2024-10-15T09:17:18.000Z</time>
      </trkpt>
      <trkpt lat="45.10124" lon="5.98065">
        <ele>2168.1999511719</ele>
        <time>2024-10-15T09:17:19.000Z</time>
      </trkpt>
      <trkpt lat="45.10124" lon="5.98066">
        <ele>2168.1999511719</ele>
        <time>2024-10-15T09:17:20.000Z</time>
      </trkpt>
      <trkpt lat="45.10124" lon="5.98066">
        <ele>2168.1999511719</ele>
        <time>2024-10-15T09:17:21.000Z</time>
      </trkpt>
      <trkpt lat="45.10124" lon="5.98066">
        <ele>2168.1999511719</ele>
        <time>2024-10-15T09:17:22.000Z</time>
      </trkpt>
      <trkpt lat="45.10124" lon="5.98066">
        <ele>2168.3999023438</ele>
        <time>2024-10-15T09:17:23.000Z</time>
      </trkpt>
      <trkpt lat="45.10124" lon="5.98066">
        <ele>2168.3999023438</ele>
        <time>2024-10-15T09:17:24.000Z</time>
      </trkpt>
      <trkpt lat="45.10124" lon="5.98066">
        <ele>2168.6000976562</ele>
        <time>2024-10-15T09:17:25.000Z</time>
      </trkpt>
      <trkpt lat="45.10124" lon="5.98066">
        <ele>2168.8000488281</ele>
        <time>2024-10-15T09:17:26.000Z</time>
      </trkpt>
      <trkpt lat="45.10124" lon="5.98066">
        <ele>2168.8000488281</ele>
        <time>2024-10-15T09:17:27.000Z</time>
      </trkpt>
      <trkpt lat="45.10124" lon="5.98066">
        <ele>2168.8000488281</ele>
        <time>2024-10-15T09:17:28.000Z</time>
      </trkpt>
      <trkpt lat="45.10124" lon="5.98066">
        <ele>2168.8000488281</ele>
        <time>2024-10-15T09:17:29.000Z</time>
      </trkpt>
      <trkpt lat="45.10124" lon="5.98066">
        <ele>2168.8000488281</ele>
        <time>2024-10-15T09:17:30.000Z</time>
      </trkpt>
      <trkpt lat="45.10124" lon="5.98066">
        <ele>2169</ele>
        <time>2024-10-15T09:17:31.000Z</time>
      </trkpt>
      <trkpt lat="45.10124" lon="5.98066">
        <ele>2169</ele>
        <time>2024-10-15T09:17:32.000Z</time>
      </trkpt>
      <trkpt lat="45.10124" lon="5.98066">
        <ele>2169</ele>
        <time>2024-10-15T09:17:33.000Z</time>
      </trkpt>
      <trkpt lat="45.10124" lon="5.98066">
        <ele>2169</ele>
        <time>2024-10-15T09:17:34.000Z</time>
      </trkpt>
      <trkpt lat="45.10124" lon="5.98066">
        <ele>2169</ele>
        <time>2024-10-15T09:17:35.000Z</time>
      </trkpt>
      <trkpt lat="45.10124" lon="5.98066">
        <ele>2169</ele>
        <time>2024-10-15T09:17:36.000Z</time>
      </trkpt>
      <trkpt lat="45.10124" lon="5.98066">
        <ele>2169</ele>
        <time>2024-10-15T09:17:37.000Z</time>
      </trkpt>
      <trkpt lat="45.10124" lon="5.98066">
        <ele>2169.1999511719</ele>
        <time>2024-10-15T09:17:38.000Z</time>
      </trkpt>
      <trkpt lat="45.10124" lon="5.98066">
        <ele>2169.1999511719</ele>
        <time>2024-10-15T09:17:39.000Z</time>
      </trkpt>
      <trkpt lat="45.10124" lon="5.98066">
        <ele>2169.1999511719</ele>
        <time>2024-10-15T09:17:40.000Z</time>
      </trkpt>
      <trkpt lat="45.10124" lon="5.98066">
        <ele>2169.1999511719</ele>
        <time>2024-10-15T09:17:41.000Z</time>
      </trkpt>
      <trkpt lat="45.10124" lon="5.98066">
        <ele>2169.1999511719</ele>
        <time>2024-10-15T09:17:42.000Z</time>
      </trkpt>
      <trkpt lat="45.10124" lon="5.98066">
        <ele>2169.3999023438</ele>
        <time>2024-10-15T09:17:43.000Z</time>
      </trkpt>
      <trkpt lat="45.10124" lon="5.98066">
        <ele>2169.3999023438</ele>
        <time>2024-10-15T09:17:44.000Z</time>
      </trkpt>
      <trkpt lat="45.10124" lon="5.98066">
        <ele>2169.3999023438</ele>
        <time>2024-10-15T09:17:45.000Z</time>
      </trkpt>
      <trkpt lat="45.10124" lon="5.98066">
        <ele>2169.3999023438</ele>
        <time>2024-10-15T09:17:46.000Z</time>
      </trkpt>
      <trkpt lat="45.10124" lon="5.98066">
        <ele>2169.3999023438</ele>
        <time>2024-10-15T09:17:47.000Z</time>
      </trkpt>
      <trkpt lat="45.10124" lon="5.98066">
        <ele>2169.6000976562</ele>
        <time>2024-10-15T09:17:48.000Z</time>
      </trkpt>
      <trkpt lat="45.10124" lon="5.98066">
        <ele>2169.6000976562</ele>
        <time>2024-10-15T09:17:49.000Z</time>
      </trkpt>
      <trkpt lat="45.10124" lon="5.98066">
        <ele>2169.6000976562</ele>
        <time>2024-10-15T09:17:50.000Z</time>
      </trkpt>
      <trkpt lat="45.10124" lon="5.98066">
        <ele>2169.6000976562</ele>
        <time>2024-10-15T09:17:51.000Z</time>
      </trkpt>
      <trkpt lat="45.10124" lon="5.98066">
        <ele>2169.6000976562</ele>
        <time>2024-10-15T09:17:52.000Z</time>
      </trkpt>
      <trkpt lat="45.10124" lon="5.98066">
        <ele>2169.6000976562</ele>
        <time>2024-10-15T09:17:53.000Z</time>
      </trkpt>
      <trkpt lat="45.10124" lon="5.98066">
        <ele>2169.6000976562</ele>
        <time>2024-10-15T09:17:54.000Z</time>
      </trkpt>
      <trkpt lat="45.10124" lon="5.98066">
        <ele>2169.6000976562</ele>
        <time>2024-10-15T09:17:55.000Z</time>
      </trkpt>
      <trkpt lat="45.10124" lon="5.98066">
        <ele>2169.6000976562</ele>
        <time>2024-10-15T09:17:56.000Z</time>
      </trkpt>
      <trkpt lat="45.10124" lon="5.98066">
        <ele>2169.6000976562</ele>
        <time>2024-10-15T09:17:57.000Z</time>
      </trkpt>
      <trkpt lat="45.10124" lon="5.98066">
        <ele>2169.8000488281</ele>
        <time>2024-10-15T09:17:58.000Z</time>
      </trkpt>
      <trkpt lat="45.10124" lon="5.98066">
        <ele>2169.8000488281</ele>
        <time>2024-10-15T09:17:59.000Z</time>
      </trkpt>
      <trkpt lat="45.10124" lon="5.98066">
        <ele>2169.8000488281</ele>
        <time>2024-10-15T09:18:00.000Z</time>
      </trkpt>
      <trkpt lat="45.10124" lon="5.98066">
        <ele>2169.8000488281</ele>
        <time>2024-10-15T09:18:01.000Z</time>
      </trkpt>
      <trkpt lat="45.10124" lon="5.98066">
        <ele>2169.8000488281</ele>
        <time>2024-10-15T09:18:02.000Z</time>
      </trkpt>
      <trkpt lat="45.10124" lon="5.98066">
        <ele>2169.8000488281</ele>
        <time>2024-10-15T09:18:03.000Z</time>
      </trkpt>
      <trkpt lat="45.10124" lon="5.98066">
        <ele>2169.8000488281</ele>
        <time>2024-10-15T09:18:04.000Z</time>
      </trkpt>
      <trkpt lat="45.10124" lon="5.98066">
        <ele>2169.8000488281</ele>
        <time>2024-10-15T09:18:05.000Z</time>
      </trkpt>
      <trkpt lat="45.10124" lon="5.98066">
        <ele>2169.8000488281</ele>
        <time>2024-10-15T09:18:06.000Z</time>
      </trkpt>
      <trkpt lat="45.10124" lon="5.98066">
        <ele>2170</ele>
        <time>2024-10-15T09:18:07.000Z</time>
      </trkpt>
      <trkpt lat="45.10125" lon="5.98066">
        <ele>2170</ele>
        <time>2024-10-15T09:18:08.000Z</time>
      </trkpt>
      <trkpt lat="45.10125" lon="5.98065">
        <ele>2170</ele>
        <time>2024-10-15T09:18:09.000Z</time>
      </trkpt>
      <trkpt lat="45.10125" lon="5.98065">
        <ele>2170</ele>
        <time>2024-10-15T09:18:10.000Z</time>
      </trkpt>
      <trkpt lat="45.10125" lon="5.98065">
        <ele>2170</ele>
        <time>2024-10-15T09:18:11.000Z</time>
      </trkpt>
      <trkpt lat="45.10125" lon="5.98065">
        <ele>2170</ele>
        <time>2024-10-15T09:18:12.000Z</time>
      </trkpt>
      <trkpt lat="45.10125" lon="5.98065">
        <ele>2170</ele>
        <time>2024-10-15T09:18:13.000Z</time>
      </trkpt>
      <trkpt lat="45.10125" lon="5.98065">
        <ele>2170</ele>
        <time>2024-10-15T09:18:14.000Z</time>
      </trkpt>
      <trkpt lat="45.10125" lon="5.98065">
        <ele>2170</ele>
        <time>2024-10-15T09:18:15.000Z</time>
      </trkpt>
      <trkpt lat="45.10125" lon="5.98065">
        <ele>2170</ele>
        <time>2024-10-15T09:18:16.000Z</time>
      </trkpt>
      <trkpt lat="45.10125" lon="5.98065">
        <ele>2170</ele>
        <time>2024-10-15T09:18:17.000Z</time>
      </trkpt>
      <trkpt lat="45.10125" lon="5.98065">
        <ele>2170</ele>
        <time>2024-10-15T09:18:18.000Z</time>
      </trkpt>
      <trkpt lat="45.10125" lon="5.98065">
        <ele>2170</ele>
        <time>2024-10-15T09:18:19.000Z</time>
      </trkpt>
      <trkpt lat="45.10125" lon="5.98065">
        <ele>2170</ele>
        <time>2024-10-15T09:18:20.000Z</time>
      </trkpt>
      <trkpt lat="45.10125" lon="5.98065">
        <ele>2170</ele>
        <time>2024-10-15T09:18:21.000Z</time>
      </trkpt>
      <trkpt lat="45.10125" lon="5.98065">
        <ele>2170</ele>
        <time>2024-10-15T09:18:22.000Z</time>
      </trkpt>
      <trkpt lat="45.10125" lon="5.98065">
        <ele>2170</ele>
        <time>2024-10-15T09:18:23.000Z</time>
      </trkpt>
      <trkpt lat="45.10125" lon="5.98065">
        <ele>2170</ele>
        <time>2024-10-15T09:18:24.000Z</time>
      </trkpt>
      <trkpt lat="45.10125" lon="5.98065">
        <ele>2170</ele>
        <time>2024-10-15T09:18:25.000Z</time>
      </trkpt>
      <trkpt lat="45.10124" lon="5.98065">
        <ele>2170</ele>
        <time>2024-10-15T09:18:26.000Z</time>
      </trkpt>
      <trkpt lat="45.10124" lon="5.98065">
        <ele>2170</ele>
        <time>2024-10-15T09:18:27.000Z</time>
      </trkpt>
      <trkpt lat="45.10124" lon="5.98065">
        <ele>2170.1999511719</ele>
        <time>2024-10-15T09:18:28.000Z</time>
      </trkpt>
      <trkpt lat="45.10124" lon="5.98065">
        <ele>2170.1999511719</ele>
        <time>2024-10-15T09:18:29.000Z</time>
      </trkpt>
      <trkpt lat="45.10124" lon="5.98065">
        <ele>2170.1999511719</ele>
        <time>2024-10-15T09:18:30.000Z</time>
      </trkpt>
      <trkpt lat="45.10124" lon="5.98065">
        <ele>2170.1999511719</ele>
        <time>2024-10-15T09:18:31.000Z</time>
      </trkpt>
      <trkpt lat="45.10124" lon="5.98065">
        <ele>2170.1999511719</ele>
        <time>2024-10-15T09:18:32.000Z</time>
      </trkpt>
      <trkpt lat="45.10124" lon="5.98065">
        <ele>2170.1999511719</ele>
        <time>2024-10-15T09:18:33.000Z</time>
      </trkpt>
      <trkpt lat="45.10124" lon="5.98065">
        <ele>2170.1999511719</ele>
        <time>2024-10-15T09:18:34.000Z</time>
      </trkpt>
      <trkpt lat="45.10124" lon="5.98065">
        <ele>2170.1999511719</ele>
        <time>2024-10-15T09:18:35.000Z</time>
      </trkpt>
      <trkpt lat="45.10124" lon="5.98065">
        <ele>2170.1999511719</ele>
        <time>2024-10-15T09:18:36.000Z</time>
      </trkpt>
      <trkpt lat="45.10124" lon="5.98065">
        <ele>2170.1999511719</ele>
        <time>2024-10-15T09:18:37.000Z</time>
      </trkpt>
      <trkpt lat="45.10124" lon="5.98065">
        <ele>2170.1999511719</ele>
        <time>2024-10-15T09:18:38.000Z</time>
      </trkpt>
      <trkpt lat="45.10124" lon="5.98065">
        <ele>2170.1999511719</ele>
        <time>2024-10-15T09:18:39.000Z</time>
      </trkpt>
      <trkpt lat="45.10124" lon="5.98065">
        <ele>2170.1999511719</ele>
        <time>2024-10-15T09:18:40.000Z</time>
      </trkpt>
      <trkpt lat="45.10124" lon="5.98065">
        <ele>2170.1999511719</ele>
        <time>2024-10-15T09:18:41.000Z</time>
      </trkpt>
      <trkpt lat="45.10124" lon="5.98065">
        <ele>2170.3999023438</ele>
        <time>2024-10-15T09:18:42.000Z</time>
      </trkpt>
      <trkpt lat="45.10124" lon="5.98065">
        <ele>2170.3999023438</ele>
        <time>2024-10-15T09:18:43.000Z</time>
      </trkpt>
      <trkpt lat="45.10124" lon="5.98065">
        <ele>2170.3999023438</ele>
        <time>2024-10-15T09:18:44.000Z</time>
      </trkpt>
      <trkpt lat="45.10124" lon="5.98065">
        <ele>2170.3999023438</ele>
        <time>2024-10-15T09:18:45.000Z</time>
      </trkpt>
      <trkpt lat="45.10124" lon="5.98065">
        <ele>2170.3999023438</ele>
        <time>2024-10-15T09:18:46.000Z</time>
      </trkpt>
      <trkpt lat="45.10124" lon="5.98065">
        <ele>2170.3999023438</ele>
        <time>2024-10-15T09:18:47.000Z</time>
      </trkpt>
      <trkpt lat="45.10124" lon="5.98065">
        <ele>2170.3999023438</ele>
        <time>2024-10-15T09:18:48.000Z</time>
      </trkpt>
      <trkpt lat="45.10124" lon="5.98065">
        <ele>2170.3999023438</ele>
        <time>2024-10-15T09:18:49.000Z</time>
      </trkpt>
      <trkpt lat="45.10124" lon="5.98065">
        <ele>2170.3999023438</ele>
        <time>2024-10-15T09:18:50.000Z</time>
      </trkpt>
      <trkpt lat="45.10125" lon="5.98065">
        <ele>2170.3999023438</ele>
        <time>2024-10-15T09:18:51.000Z</time>
      </trkpt>
      <trkpt lat="45.10125" lon="5.98065">
        <ele>2170.3999023438</ele>
        <time>2024-10-15T09:18:52.000Z</time>
      </trkpt>
      <trkpt lat="45.10125" lon="5.98065">
        <ele>2170.3999023438</ele>
        <time>2024-10-15T09:18:53.000Z</time>
      </trkpt>
      <trkpt lat="45.10125" lon="5.98065">
        <ele>2170.3999023438</ele>
        <time>2024-10-15T09:18:54.000Z</time>
      </trkpt>
      <trkpt lat="45.10125" lon="5.98065">
        <ele>2170.3999023438</ele>
        <time>2024-10-15T09:18:55.000Z</time>
      </trkpt>
      <trkpt lat="45.10125" lon="5.98065">
        <ele>2170.6000976562</ele>
        <time>2024-10-15T09:18:56.000Z</time>
      </trkpt>
      <trkpt lat="45.10125" lon="5.98065">
        <ele>2170.6000976562</ele>
        <time>2024-10-15T09:18:57.000Z</time>
      </trkpt>
      <trkpt lat="45.10125" lon="5.98065">
        <ele>2170.6000976562</ele>
        <time>2024-10-15T09:18:58.000Z</time>
      </trkpt>
      <trkpt lat="45.10125" lon="5.98065">
        <ele>2170.6000976562</ele>
        <time>2024-10-15T09:18:59.000Z</time>
      </trkpt>
      <trkpt lat="45.10125" lon="5.98065">
        <ele>2170.8000488281</ele>
        <time>2024-10-15T09:19:00.000Z</time>
      </trkpt>
      <trkpt lat="45.10125" lon="5.98065">
        <ele>2170.8000488281</ele>
        <time>2024-10-15T09:19:01.000Z</time>
      </trkpt>
      <trkpt lat="45.10125" lon="5.98065">
        <ele>2170.8000488281</ele>
        <time>2024-10-15T09:19:02.000Z</time>
      </trkpt>
      <trkpt lat="45.10125" lon="5.98065">
        <ele>2170.8000488281</ele>
        <time>2024-10-15T09:19:03.000Z</time>
      </trkpt>
      <trkpt lat="45.10125" lon="5.98065">
        <ele>2170.8000488281</ele>
        <time>2024-10-15T09:19:04.000Z</time>
      </trkpt>
      <trkpt lat="45.10125" lon="5.98065">
        <ele>2171</ele>
        <time>2024-10-15T09:19:05.000Z</time>
      </trkpt>
      <trkpt lat="45.10125" lon="5.98065">
        <ele>2171</ele>
        <time>2024-10-15T09:19:06.000Z</time>
      </trkpt>
      <trkpt lat="45.10125" lon="5.98065">
        <ele>2171</ele>
        <time>2024-10-15T09:19:07.000Z</time>
      </trkpt>
      <trkpt lat="45.10125" lon="5.98065">
        <ele>2171</ele>
        <time>2024-10-15T09:19:08.000Z</time>
      </trkpt>
      <trkpt lat="45.10125" lon="5.98065">
        <ele>2171</ele>
        <time>2024-10-15T09:19:09.000Z</time>
      </trkpt>
      <trkpt lat="45.10125" lon="5.98065">
        <ele>2170.8000488281</ele>
        <time>2024-10-15T09:19:10.000Z</time>
      </trkpt>
      <trkpt lat="45.10125" lon="5.98065">
        <ele>2170.6000976562</ele>
        <time>2024-10-15T09:19:11.000Z</time>
      </trkpt>
      <trkpt lat="45.10125" lon="5.98065">
        <ele>2170.6000976562</ele>
        <time>2024-10-15T09:19:12.000Z</time>
      </trkpt>
      <trkpt lat="45.10125" lon="5.98065">
        <ele>2170.6000976562</ele>
        <time>2024-10-15T09:19:13.000Z</time>
      </trkpt>
      <trkpt lat="45.10125" lon="5.98065">
        <ele>2170.8000488281</ele>
        <time>2024-10-15T09:19:14.000Z</time>
      </trkpt>
      <trkpt lat="45.10125" lon="5.98065">
        <ele>2170.8000488281</ele>
        <time>2024-10-15T09:19:15.000Z</time>
      </trkpt>
      <trkpt lat="45.10125" lon="5.98065">
        <ele>2171</ele>
        <time>2024-10-15T09:19:16.000Z</time>
      </trkpt>
      <trkpt lat="45.10125" lon="5.98065">
        <ele>2171</ele>
        <time>2024-10-15T09:19:17.000Z</time>
      </trkpt>
      <trkpt lat="45.10125" lon="5.98065">
        <ele>2171.1999511719</ele>
        <time>2024-10-15T09:19:18.000Z</time>
      </trkpt>
      <trkpt lat="45.10125" lon="5.98065">
        <ele>2171.3999023438</ele>
        <time>2024-10-15T09:19:19.000Z</time>
      </trkpt>
      <trkpt lat="45.10125" lon="5.98065">
        <ele>2171.6000976562</ele>
        <time>2024-10-15T09:19:20.000Z</time>
      </trkpt>
      <trkpt lat="45.10125" lon="5.98065">
        <ele>2171.6000976562</ele>
        <time>2024-10-15T09:19:21.000Z</time>
      </trkpt>
      <trkpt lat="45.10125" lon="5.98065">
        <ele>2171.8000488281</ele>
        <time>2024-10-15T09:19:22.000Z</time>
      </trkpt>
      <trkpt lat="45.10125" lon="5.98065">
        <ele>2172.1999511719</ele>
        <time>2024-10-15T09:19:23.000Z</time>
      </trkpt>
      <trkpt lat="45.10125" lon="5.98065">
        <ele>2172.3999023438</ele>
        <time>2024-10-15T09:19:24.000Z</time>
      </trkpt>
      <trkpt lat="45.10125" lon="5.98065">
        <ele>2172.6000976562</ele>
        <time>2024-10-15T09:19:25.000Z</time>
      </trkpt>
      <trkpt lat="45.10125" lon="5.98065">
        <ele>2172.8000488281</ele>
        <time>2024-10-15T09:19:26.000Z</time>
      </trkpt>
      <trkpt lat="45.10125" lon="5.98065">
        <ele>2172.8000488281</ele>
        <time>2024-10-15T09:19:27.000Z</time>
      </trkpt>
      <trkpt lat="45.10125" lon="5.98065">
        <ele>2173</ele>
        <time>2024-10-15T09:19:28.000Z</time>
      </trkpt>
      <trkpt lat="45.10125" lon="5.98065">
        <ele>2173</ele>
        <time>2024-10-15T09:19:29.000Z</time>
      </trkpt>
      <trkpt lat="45.10125" lon="5.98065">
        <ele>2173</ele>
        <time>2024-10-15T09:19:30.000Z</time>
      </trkpt>
      <trkpt lat="45.10125" lon="5.98065">
        <ele>2173</ele>
        <time>2024-10-15T09:19:31.000Z</time>
      </trkpt>
      <trkpt lat="45.10125" lon="5.98065">
        <ele>2173.1999511719</ele>
        <time>2024-10-15T09:19:32.000Z</time>
      </trkpt>
      <trkpt lat="45.10125" lon="5.98065">
        <ele>2173.1999511719</ele>
        <time>2024-10-15T09:19:33.000Z</time>
      </trkpt>
      <trkpt lat="45.10125" lon="5.98065">
        <ele>2173.3999023438</ele>
        <time>2024-10-15T09:19:34.000Z</time>
      </trkpt>
      <trkpt lat="45.10125" lon="5.98065">
        <ele>2173.3999023438</ele>
        <time>2024-10-15T09:19:35.000Z</time>
      </trkpt>
      <trkpt lat="45.10125" lon="5.98065">
        <ele>2173.3999023438</ele>
        <time>2024-10-15T09:19:36.000Z</time>
      </trkpt>
      <trkpt lat="45.10125" lon="5.98065">
        <ele>2173.1999511719</ele>
        <time>2024-10-15T09:19:37.000Z</time>
      </trkpt>
      <trkpt lat="45.10125" lon="5.98065">
        <ele>2173.1999511719</ele>
        <time>2024-10-15T09:19:38.000Z</time>
      </trkpt>
      <trkpt lat="45.10125" lon="5.98065">
        <ele>2173.1999511719</ele>
        <time>2024-10-15T09:19:39.000Z</time>
      </trkpt>
      <trkpt lat="45.10125" lon="5.98065">
        <ele>2173</ele>
        <time>2024-10-15T09:19:40.000Z</time>
      </trkpt>
      <trkpt lat="45.10125" lon="5.98065">
        <ele>2173</ele>
        <time>2024-10-15T09:19:41.000Z</time>
      </trkpt>
      <trkpt lat="45.10125" lon="5.98064">
        <ele>2173</ele>
        <time>2024-10-15T09:19:42.000Z</time>
      </trkpt>
      <trkpt lat="45.10125" lon="5.98064">
        <ele>2173</ele>
        <time>2024-10-15T09:19:43.000Z</time>
      </trkpt>
      <trkpt lat="45.10125" lon="5.98064">
        <ele>2173</ele>
        <time>2024-10-15T09:19:44.000Z</time>
      </trkpt>
      <trkpt lat="45.10125" lon="5.98064">
        <ele>2173.1999511719</ele>
        <time>2024-10-15T09:19:45.000Z</time>
      </trkpt>
      <trkpt lat="45.10125" lon="5.98064">
        <ele>2173.3999023438</ele>
        <time>2024-10-15T09:19:46.000Z</time>
      </trkpt>
      <trkpt lat="45.10125" lon="5.98064">
        <ele>2173.6000976562</ele>
        <time>2024-10-15T09:19:47.000Z</time>
      </trkpt>
      <trkpt lat="45.10125" lon="5.98064">
        <ele>2173.6000976562</ele>
        <time>2024-10-15T09:19:48.000Z</time>
      </trkpt>
      <trkpt lat="45.10125" lon="5.98064">
        <ele>2173.8000488281</ele>
        <time>2024-10-15T09:19:49.000Z</time>
      </trkpt>
      <trkpt lat="45.10125" lon="5.98064">
        <ele>2173.8000488281</ele>
        <time>2024-10-15T09:19:50.000Z</time>
      </trkpt>
      <trkpt lat="45.10125" lon="5.98064">
        <ele>2173.8000488281</ele>
        <time>2024-10-15T09:19:51.000Z</time>
      </trkpt>
      <trkpt lat="45.10125" lon="5.98064">
        <ele>2173.8000488281</ele>
        <time>2024-10-15T09:19:52.000Z</time>
      </trkpt>
      <trkpt lat="45.10125" lon="5.98064">
        <ele>2174</ele>
        <time>2024-10-15T09:19:53.000Z</time>
      </trkpt>
      <trkpt lat="45.10125" lon="5.98064">
        <ele>2174</ele>
        <time>2024-10-15T09:19:54.000Z</time>
      </trkpt>
      <trkpt lat="45.10125" lon="5.98064">
        <ele>2173.8000488281</ele>
        <time>2024-10-15T09:19:55.000Z</time>
      </trkpt>
      <trkpt lat="45.10125" lon="5.98064">
        <ele>2173.8000488281</ele>
        <time>2024-10-15T09:19:56.000Z</time>
      </trkpt>
      <trkpt lat="45.10125" lon="5.98064">
        <ele>2173.6000976562</ele>
        <time>2024-10-15T09:19:57.000Z</time>
      </trkpt>
      <trkpt lat="45.10125" lon="5.98064">
        <ele>2173.6000976562</ele>
        <time>2024-10-15T09:19:58.000Z</time>
      </trkpt>
      <trkpt lat="45.10125" lon="5.98064">
        <ele>2173.3999023438</ele>
        <time>2024-10-15T09:19:59.000Z</time>
      </trkpt>
      <trkpt lat="45.10125" lon="5.98064">
        <ele>2173.3999023438</ele>
        <time>2024-10-15T09:20:00.000Z</time>
      </trkpt>
      <trkpt lat="45.10125" lon="5.98064">
        <ele>2173.3999023438</ele>
        <time>2024-10-15T09:20:01.000Z</time>
      </trkpt>
      <trkpt lat="45.10125" lon="5.98064">
        <ele>2173.3999023438</ele>
        <time>2024-10-15T09:20:02.000Z</time>
      </trkpt>
      <trkpt lat="45.10125" lon="5.98064">
        <ele>2173.3999023438</ele>
        <time>2024-10-15T09:20:03.000Z</time>
      </trkpt>
      <trkpt lat="45.10125" lon="5.98064">
        <ele>2173.3999023438</ele>
        <time>2024-10-15T09:20:04.000Z</time>
      </trkpt>
      <trkpt lat="45.10125" lon="5.98064">
        <ele>2173.3999023438</ele>
        <time>2024-10-15T09:20:05.000Z</time>
      </trkpt>
      <trkpt lat="45.10125" lon="5.98064">
        <ele>2173.3999023438</ele>
        <time>2024-10-15T09:20:06.000Z</time>
      </trkpt>
      <trkpt lat="45.10125" lon="5.98064">
        <ele>2173.3999023438</ele>
        <time>2024-10-15T09:20:07.000Z</time>
      </trkpt>
      <trkpt lat="45.10125" lon="5.98064">
        <ele>2173.6000976562</ele>
        <time>2024-10-15T09:20:08.000Z</time>
      </trkpt>
      <trkpt lat="45.10125" lon="5.98064">
        <ele>2173.6000976562</ele>
        <time>2024-10-15T09:20:09.000Z</time>
      </trkpt>
      <trkpt lat="45.10125" lon="5.98064">
        <ele>2173.6000976562</ele>
        <time>2024-10-15T09:20:10.000Z</time>
      </trkpt>
      <trkpt lat="45.10125" lon="5.98064">
        <ele>2173.8000488281</ele>
        <time>2024-10-15T09:20:11.000Z</time>
      </trkpt>
      <trkpt lat="45.10125" lon="5.98064">
        <ele>2173.8000488281</ele>
        <time>2024-10-15T09:20:12.000Z</time>
      </trkpt>
      <trkpt lat="45.10125" lon="5.98064">
        <ele>2173.8000488281</ele>
        <time>2024-10-15T09:20:13.000Z</time>
      </trkpt>
      <trkpt lat="45.10125" lon="5.98064">
        <ele>2173.8000488281</ele>
        <time>2024-10-15T09:20:14.000Z</time>
      </trkpt>
      <trkpt lat="45.10125" lon="5.98064">
        <ele>2173.8000488281</ele>
        <time>2024-10-15T09:20:15.000Z</time>
      </trkpt>
      <trkpt lat="45.10125" lon="5.98064">
        <ele>2174</ele>
        <time>2024-10-15T09:20:16.000Z</time>
      </trkpt>
      <trkpt lat="45.10125" lon="5.98061">
        <ele>2174</ele>
        <time>2024-10-15T09:20:17.000Z</time>
      </trkpt>
      <trkpt lat="45.10126" lon="5.98058">
        <ele>2174</ele>
        <time>2024-10-15T09:20:18.000Z</time>
      </trkpt>
      <trkpt lat="45.10126" lon="5.98055">
        <ele>2174</ele>
        <time>2024-10-15T09:20:19.000Z</time>
      </trkpt>
      <trkpt lat="45.10126" lon="5.98052">
        <ele>2174</ele>
        <time>2024-10-15T09:20:20.000Z</time>
      </trkpt>
      <trkpt lat="45.10126" lon="5.98049">
        <ele>2174.1999511719</ele>
        <time>2024-10-15T09:20:21.000Z</time>
      </trkpt>
      <trkpt lat="45.10127" lon="5.98047">
        <ele>2174.3999023438</ele>
        <time>2024-10-15T09:20:22.000Z</time>
      </trkpt>
      <trkpt lat="45.10127" lon="5.98044">
        <ele>2174.6000976562</ele>
        <time>2024-10-15T09:20:23.000Z</time>
      </trkpt>
      <trkpt lat="45.10127" lon="5.98041">
        <ele>2175</ele>
        <time>2024-10-15T09:20:24.000Z</time>
      </trkpt>
      <trkpt lat="45.10127" lon="5.98038">
        <ele>2175.6000976562</ele>
        <time>2024-10-15T09:20:25.000Z</time>
      </trkpt>
      <trkpt lat="45.10126" lon="5.98035">
        <ele>2175.8000488281</ele>
        <time>2024-10-15T09:20:26.000Z</time>
      </trkpt>
      <trkpt lat="45.10126" lon="5.98035">
        <ele>2176</ele>
        <time>2024-10-15T09:20:27.000Z</time>
      </trkpt>
      <trkpt lat="45.10126" lon="5.98034">
        <ele>2176</ele>
        <time>2024-10-15T09:20:28.000Z</time>
      </trkpt>
      <trkpt lat="45.10126" lon="5.98033">
        <ele>2176.1999511719</ele>
        <time>2024-10-15T09:20:29.000Z</time>
      </trkpt>
      <trkpt lat="45.10126" lon="5.98033">
        <ele>2176.3999023438</ele>
        <time>2024-10-15T09:20:30.000Z</time>
      </trkpt>
      <trkpt lat="45.10126" lon="5.98033">
        <ele>2176.8000488281</ele>
        <time>2024-10-15T09:20:31.000Z</time>
      </trkpt>
      <trkpt lat="45.10126" lon="5.98033">
        <ele>2177</ele>
        <time>2024-10-15T09:20:32.000Z</time>
      </trkpt>
      <trkpt lat="45.10126" lon="5.98033">
        <ele>2177.1999511719</ele>
        <time>2024-10-15T09:20:33.000Z</time>
      </trkpt>
      <trkpt lat="45.10126" lon="5.98032">
        <ele>2177.1999511719</ele>
        <time>2024-10-15T09:20:34.000Z</time>
      </trkpt>
      <trkpt lat="45.10126" lon="5.98032">
        <ele>2177.1999511719</ele>
        <time>2024-10-15T09:20:35.000Z</time>
      </trkpt>
      <trkpt lat="45.10126" lon="5.98031">
        <ele>2177.3999023438</ele>
        <time>2024-10-15T09:20:36.000Z</time>
      </trkpt>
      <trkpt lat="45.10126" lon="5.98031">
        <ele>2177.6000976562</ele>
        <time>2024-10-15T09:20:37.000Z</time>
      </trkpt>
      <trkpt lat="45.10125" lon="5.9803">
        <ele>2177.8000488281</ele>
        <time>2024-10-15T09:20:38.000Z</time>
      </trkpt>
      <trkpt lat="45.10125" lon="5.9803">
        <ele>2178.1999511719</ele>
        <time>2024-10-15T09:20:39.000Z</time>
      </trkpt>
      <trkpt lat="45.10125" lon="5.9803">
        <ele>2179</ele>
        <time>2024-10-15T09:20:40.000Z</time>
      </trkpt>
      <trkpt lat="45.10125" lon="5.9803">
        <ele>2179.3999023438</ele>
        <time>2024-10-15T09:20:41.000Z</time>
      </trkpt>
      <trkpt lat="45.10125" lon="5.9803">
        <ele>2179.6000976562</ele>
        <time>2024-10-15T09:20:42.000Z</time>
      </trkpt>
      <trkpt lat="45.10124" lon="5.9803">
        <ele>2180</ele>
        <time>2024-10-15T09:20:43.000Z</time>
      </trkpt>
      <trkpt lat="45.10124" lon="5.9803">
        <ele>2180.1999511719</ele>
        <time>2024-10-15T09:20:44.000Z</time>
      </trkpt>
      <trkpt lat="45.10123" lon="5.9803">
        <ele>2180.3999023438</ele>
        <time>2024-10-15T09:20:45.000Z</time>
      </trkpt>
      <trkpt lat="45.10123" lon="5.9803">
        <ele>2181</ele>
        <time>2024-10-15T09:20:46.000Z</time>
      </trkpt>
      <trkpt lat="45.10123" lon="5.98029">
        <ele>2181.1999511719</ele>
        <time>2024-10-15T09:20:47.000Z</time>
      </trkpt>
      <trkpt lat="45.10122" lon="5.98028">
        <ele>2181.8000488281</ele>
        <time>2024-10-15T09:20:48.000Z</time>
      </trkpt>
      <trkpt lat="45.10123" lon="5.98028">
        <ele>2182</ele>
        <time>2024-10-15T09:20:49.000Z</time>
      </trkpt>
      <trkpt lat="45.10123" lon="5.98027">
        <ele>2182.1999511719</ele>
        <time>2024-10-15T09:20:50.000Z</time>
      </trkpt>
      <trkpt lat="45.10123" lon="5.98026">
        <ele>2182.6000976562</ele>
        <time>2024-10-15T09:20:51.000Z</time>
      </trkpt>
      <trkpt lat="45.10123" lon="5.98025">
        <ele>2182.8000488281</ele>
        <time>2024-10-15T09:20:52.000Z</time>
      </trkpt>
      <trkpt lat="45.10123" lon="5.98025">
        <ele>2182.8000488281</ele>
        <time>2024-10-15T09:20:53.000Z</time>
      </trkpt>
      <trkpt lat="45.10122" lon="5.98024">
        <ele>2183</ele>
        <time>2024-10-15T09:20:54.000Z</time>
      </trkpt>
      <trkpt lat="45.10122" lon="5.98024">
        <ele>2183</ele>
        <time>2024-10-15T09:20:55.000Z</time>
      </trkpt>
      <trkpt lat="45.10122" lon="5.98024">
        <ele>2183</ele>
        <time>2024-10-15T09:20:56.000Z</time>
      </trkpt>
      <trkpt lat="45.10122" lon="5.98024">
        <ele>2183</ele>
        <time>2024-10-15T09:20:57.000Z</time>
      </trkpt>
      <trkpt lat="45.10122" lon="5.98023">
        <ele>2183.1999511719</ele>
        <time>2024-10-15T09:20:58.000Z</time>
      </trkpt>
      <trkpt lat="45.10122" lon="5.98023">
        <ele>2183.3999023438</ele>
        <time>2024-10-15T09:20:59.000Z</time>
      </trkpt>
      <trkpt lat="45.10122" lon="5.98022">
        <ele>2183.3999023438</ele>
        <time>2024-10-15T09:21:00.000Z</time>
      </trkpt>
      <trkpt lat="45.10122" lon="5.98022">
        <ele>2183.6000976562</ele>
        <time>2024-10-15T09:21:01.000Z</time>
      </trkpt>
      <trkpt lat="45.10121" lon="5.98022">
        <ele>2183.8000488281</ele>
        <time>2024-10-15T09:21:02.000Z</time>
      </trkpt>
      <trkpt lat="45.10121" lon="5.98021">
        <ele>2184.1999511719</ele>
        <time>2024-10-15T09:21:03.000Z</time>
      </trkpt>
      <trkpt lat="45.10121" lon="5.98021">
        <ele>2184.3999023438</ele>
        <time>2024-10-15T09:21:04.000Z</time>
      </trkpt>
      <trkpt lat="45.10121" lon="5.9802">
        <ele>2184.6000976562</ele>
        <time>2024-10-15T09:21:05.000Z</time>
      </trkpt>
      <trkpt lat="45.10121" lon="5.9802">
        <ele>2184.6000976562</ele>
        <time>2024-10-15T09:21:06.000Z</time>
      </trkpt>
      <trkpt lat="45.10122" lon="5.9802">
        <ele>2184.8000488281</ele>
        <time>2024-10-15T09:21:07.000Z</time>
      </trkpt>
      <trkpt lat="45.10122" lon="5.9802">
        <ele>2185.1999511719</ele>
        <time>2024-10-15T09:21:08.000Z</time>
      </trkpt>
      <trkpt lat="45.10123" lon="5.98019">
        <ele>2185.6000976562</ele>
        <time>2024-10-15T09:21:09.000Z</time>
      </trkpt>
      <trkpt lat="45.10123" lon="5.98019">
        <ele>2185.6000976562</ele>
        <time>2024-10-15T09:21:10.000Z</time>
      </trkpt>
      <trkpt lat="45.10123" lon="5.98018">
        <ele>2185.8000488281</ele>
        <time>2024-10-15T09:21:11.000Z</time>
      </trkpt>
      <trkpt lat="45.10123" lon="5.98018">
        <ele>2185.8000488281</ele>
        <time>2024-10-15T09:21:12.000Z</time>
      </trkpt>
      <trkpt lat="45.10123" lon="5.98018">
        <ele>2186.1999511719</ele>
        <time>2024-10-15T09:21:13.000Z</time>
      </trkpt>
      <trkpt lat="45.10123" lon="5.98018">
        <ele>2186.1999511719</ele>
        <time>2024-10-15T09:21:14.000Z</time>
      </trkpt>
      <trkpt lat="45.10123" lon="5.98018">
        <ele>2186.3999023438</ele>
        <time>2024-10-15T09:21:15.000Z</time>
      </trkpt>
      <trkpt lat="45.10123" lon="5.98018">
        <ele>2186.3999023438</ele>
        <time>2024-10-15T09:21:16.000Z</time>
      </trkpt>
      <trkpt lat="45.10123" lon="5.98018">
        <ele>2186.6000976562</ele>
        <time>2024-10-15T09:21:17.000Z</time>
      </trkpt>
      <trkpt lat="45.10123" lon="5.98018">
        <ele>2186.6000976562</ele>
        <time>2024-10-15T09:21:18.000Z</time>
      </trkpt>
      <trkpt lat="45.10123" lon="5.98018">
        <ele>2186.6000976562</ele>
        <time>2024-10-15T09:21:19.000Z</time>
      </trkpt>
      <trkpt lat="45.10123" lon="5.98018">
        <ele>2186.8000488281</ele>
        <time>2024-10-15T09:21:20.000Z</time>
      </trkpt>
      <trkpt lat="45.10123" lon="5.98018">
        <ele>2187.1999511719</ele>
        <time>2024-10-15T09:21:21.000Z</time>
      </trkpt>
      <trkpt lat="45.10123" lon="5.98018">
        <ele>2187.6000976562</ele>
        <time>2024-10-15T09:21:22.000Z</time>
      </trkpt>
      <trkpt lat="45.10123" lon="5.98018">
        <ele>2187.8000488281</ele>
        <time>2024-10-15T09:21:23.000Z</time>
      </trkpt>
      <trkpt lat="45.10123" lon="5.98018">
        <ele>2188</ele>
        <time>2024-10-15T09:21:24.000Z</time>
      </trkpt>
      <trkpt lat="45.10123" lon="5.98018">
        <ele>2188.3999023438</ele>
        <time>2024-10-15T09:21:25.000Z</time>
      </trkpt>
      <trkpt lat="45.10123" lon="5.98018">
        <ele>2188.6000976562</ele>
        <time>2024-10-15T09:21:26.000Z</time>
      </trkpt>
      <trkpt lat="45.10123" lon="5.98018">
        <ele>2188.6000976562</ele>
        <time>2024-10-15T09:21:27.000Z</time>
      </trkpt>
      <trkpt lat="45.10123" lon="5.98018">
        <ele>2188.6000976562</ele>
        <time>2024-10-15T09:21:28.000Z</time>
      </trkpt>
      <trkpt lat="45.10123" lon="5.98018">
        <ele>2188.8000488281</ele>
        <time>2024-10-15T09:21:29.000Z</time>
      </trkpt>
      <trkpt lat="45.10123" lon="5.98017">
        <ele>2188.8000488281</ele>
        <time>2024-10-15T09:21:30.000Z</time>
      </trkpt>
      <trkpt lat="45.10123" lon="5.98017">
        <ele>2188.8000488281</ele>
        <time>2024-10-15T09:21:31.000Z</time>
      </trkpt>
      <trkpt lat="45.10123" lon="5.98017">
        <ele>2189</ele>
        <time>2024-10-15T09:21:32.000Z</time>
      </trkpt>
      <trkpt lat="45.10123" lon="5.98017">
        <ele>2189.3999023438</ele>
        <time>2024-10-15T09:21:33.000Z</time>
      </trkpt>
      <trkpt lat="45.10123" lon="5.98016">
        <ele>2189.3999023438</ele>
        <time>2024-10-15T09:21:34.000Z</time>
      </trkpt>
      <trkpt lat="45.10123" lon="5.98016">
        <ele>2189.8000488281</ele>
        <time>2024-10-15T09:21:35.000Z</time>
      </trkpt>
      <trkpt lat="45.10123" lon="5.98016">
        <ele>2190.1999511719</ele>
        <time>2024-10-15T09:21:36.000Z</time>
      </trkpt>
      <trkpt lat="45.10123" lon="5.98015">
        <ele>2190.6000976562</ele>
        <time>2024-10-15T09:21:37.000Z</time>
      </trkpt>
      <trkpt lat="45.10123" lon="5.98015">
        <ele>2190.8000488281</ele>
        <time>2024-10-15T09:21:38.000Z</time>
      </trkpt>
      <trkpt lat="45.10123" lon="5.98014">
        <ele>2190.8000488281</ele>
        <time>2024-10-15T09:21:39.000Z</time>
      </trkpt>
      <trkpt lat="45.10123" lon="5.98014">
        <ele>2190.8000488281</ele>
        <time>2024-10-15T09:21:40.000Z</time>
      </trkpt>
      <trkpt lat="45.10123" lon="5.98013">
        <ele>2191</ele>
        <time>2024-10-15T09:21:41.000Z</time>
      </trkpt>
      <trkpt lat="45.10123" lon="5.98013">
        <ele>2191.3999023438</ele>
        <time>2024-10-15T09:21:42.000Z</time>
      </trkpt>
      <trkpt lat="45.10122" lon="5.98012">
        <ele>2191.6000976562</ele>
        <time>2024-10-15T09:21:43.000Z</time>
      </trkpt>
      <trkpt lat="45.10122" lon="5.98012">
        <ele>2192.3999023438</ele>
        <time>2024-10-15T09:21:44.000Z</time>
      </trkpt>
      <trkpt lat="45.10122" lon="5.98011">
        <ele>2192.6000976562</ele>
        <time>2024-10-15T09:21:45.000Z</time>
      </trkpt>
      <trkpt lat="45.10121" lon="5.9801">
        <ele>2192.8000488281</ele>
        <time>2024-10-15T09:21:46.000Z</time>
      </trkpt>
      <trkpt lat="45.10121" lon="5.9801">
        <ele>2192.8000488281</ele>
        <time>2024-10-15T09:21:47.000Z</time>
      </trkpt>
      <trkpt lat="45.10121" lon="5.9801">
        <ele>2193</ele>
        <time>2024-10-15T09:21:48.000Z</time>
      </trkpt>
      <trkpt lat="45.10121" lon="5.9801">
        <ele>2193.3999023438</ele>
        <time>2024-10-15T09:21:49.000Z</time>
      </trkpt>
      <trkpt lat="45.10121" lon="5.9801">
        <ele>2194</ele>
        <time>2024-10-15T09:21:50.000Z</time>
      </trkpt>
      <trkpt lat="45.10121" lon="5.9801">
        <ele>2194.6000976562</ele>
        <time>2024-10-15T09:21:51.000Z</time>
      </trkpt>
      <trkpt lat="45.10121" lon="5.9801">
        <ele>2194.6000976562</ele>
        <time>2024-10-15T09:21:52.000Z</time>
      </trkpt>
      <trkpt lat="45.10121" lon="5.9801">
        <ele>2194.8000488281</ele>
        <time>2024-10-15T09:21:53.000Z</time>
      </trkpt>
      <trkpt lat="45.10121" lon="5.9801">
        <ele>2195.3999023438</ele>
        <time>2024-10-15T09:21:54.000Z</time>
      </trkpt>
      <trkpt lat="45.10121" lon="5.9801">
        <ele>2196.1999511719</ele>
        <time>2024-10-15T09:21:55.000Z</time>
      </trkpt>
      <trkpt lat="45.10121" lon="5.9801">
        <ele>2196.3999023438</ele>
        <time>2024-10-15T09:21:56.000Z</time>
      </trkpt>
      <trkpt lat="45.1012" lon="5.9801">
        <ele>2196.3999023438</ele>
        <time>2024-10-15T09:21:57.000Z</time>
      </trkpt>
      <trkpt lat="45.1012" lon="5.9801">
        <ele>2196.3999023438</ele>
        <time>2024-10-15T09:21:58.000Z</time>
      </trkpt>
      <trkpt lat="45.1012" lon="5.9801">
        <ele>2196.3999023438</ele>
        <time>2024-10-15T09:21:59.000Z</time>
      </trkpt>
      <trkpt lat="45.1012" lon="5.98009">
        <ele>2196.3999023438</ele>
        <time>2024-10-15T09:22:00.000Z</time>
      </trkpt>
      <trkpt lat="45.1012" lon="5.98009">
        <ele>2196.6000976562</ele>
        <time>2024-10-15T09:22:01.000Z</time>
      </trkpt>
      <trkpt lat="45.10119" lon="5.98009">
        <ele>2196.6000976562</ele>
        <time>2024-10-15T09:22:02.000Z</time>
      </trkpt>
      <trkpt lat="45.10119" lon="5.98008">
        <ele>2196.6000976562</ele>
        <time>2024-10-15T09:22:03.000Z</time>
      </trkpt>
      <trkpt lat="45.10119" lon="5.98008">
        <ele>2196.8000488281</ele>
        <time>2024-10-15T09:22:04.000Z</time>
      </trkpt>
      <trkpt lat="45.10119" lon="5.98008">
        <ele>2196.8000488281</ele>
        <time>2024-10-15T09:22:05.000Z</time>
      </trkpt>
      <trkpt lat="45.10119" lon="5.98008">
        <ele>2196.8000488281</ele>
        <time>2024-10-15T09:22:06.000Z</time>
      </trkpt>
      <trkpt lat="45.10119" lon="5.98008">
        <ele>2197</ele>
        <time>2024-10-15T09:22:07.000Z</time>
      </trkpt>
      <trkpt lat="45.10119" lon="5.98008">
        <ele>2197</ele>
        <time>2024-10-15T09:22:08.000Z</time>
      </trkpt>
      <trkpt lat="45.10118" lon="5.98008">
        <ele>2197.1999511719</ele>
        <time>2024-10-15T09:22:09.000Z</time>
      </trkpt>
      <trkpt lat="45.10118" lon="5.98008">
        <ele>2197.6000976562</ele>
        <time>2024-10-15T09:22:10.000Z</time>
      </trkpt>
      <trkpt lat="45.10118" lon="5.98007">
        <ele>2198</ele>
        <time>2024-10-15T09:22:11.000Z</time>
      </trkpt>
      <trkpt lat="45.10117" lon="5.98007">
        <ele>2198</ele>
        <time>2024-10-15T09:22:12.000Z</time>
      </trkpt>
      <trkpt lat="45.10117" lon="5.98007">
        <ele>2198.1999511719</ele>
        <time>2024-10-15T09:22:13.000Z</time>
      </trkpt>
      <trkpt lat="45.10117" lon="5.98007">
        <ele>2198.1999511719</ele>
        <time>2024-10-15T09:22:14.000Z</time>
      </trkpt>
      <trkpt lat="45.10116" lon="5.98006">
        <ele>2198.3999023438</ele>
        <time>2024-10-15T09:22:15.000Z</time>
      </trkpt>
      <trkpt lat="45.10116" lon="5.98005">
        <ele>2198.6000976562</ele>
        <time>2024-10-15T09:22:16.000Z</time>
      </trkpt>
      <trkpt lat="45.10116" lon="5.98005">
        <ele>2199</ele>
        <time>2024-10-15T09:22:17.000Z</time>
      </trkpt>
      <trkpt lat="45.10116" lon="5.98004">
        <ele>2199</ele>
        <time>2024-10-15T09:22:18.000Z</time>
      </trkpt>
      <trkpt lat="45.10116" lon="5.98003">
        <ele>2199.3999023438</ele>
        <time>2024-10-15T09:22:19.000Z</time>
      </trkpt>
      <trkpt lat="45.10116" lon="5.98002">
        <ele>2199.6000976562</ele>
        <time>2024-10-15T09:22:20.000Z</time>
      </trkpt>
      <trkpt lat="45.10116" lon="5.98001">
        <ele>2199.6000976562</ele>
        <time>2024-10-15T09:22:21.000Z</time>
      </trkpt>
      <trkpt lat="45.10116" lon="5.98001">
        <ele>2199.8000488281</ele>
        <time>2024-10-15T09:22:22.000Z</time>
      </trkpt>
      <trkpt lat="45.10116" lon="5.98001">
        <ele>2199.8000488281</ele>
        <time>2024-10-15T09:22:23.000Z</time>
      </trkpt>
      <trkpt lat="45.10116" lon="5.98001">
        <ele>2200.1999511719</ele>
        <time>2024-10-15T09:22:24.000Z</time>
      </trkpt>
      <trkpt lat="45.10116" lon="5.98">
        <ele>2200.1999511719</ele>
        <time>2024-10-15T09:22:25.000Z</time>
      </trkpt>
      <trkpt lat="45.10115" lon="5.98">
        <ele>2200.3999023438</ele>
        <time>2024-10-15T09:22:26.000Z</time>
      </trkpt>
      <trkpt lat="45.10115" lon="5.98">
        <ele>2200.3999023438</ele>
        <time>2024-10-15T09:22:27.000Z</time>
      </trkpt>
      <trkpt lat="45.10115" lon="5.97999">
        <ele>2200.6000976562</ele>
        <time>2024-10-15T09:22:28.000Z</time>
      </trkpt>
      <trkpt lat="45.10115" lon="5.97999">
        <ele>2200.6000976562</ele>
        <time>2024-10-15T09:22:29.000Z</time>
      </trkpt>
      <trkpt lat="45.10115" lon="5.97999">
        <ele>2200.6000976562</ele>
        <time>2024-10-15T09:22:30.000Z</time>
      </trkpt>
      <trkpt lat="45.10115" lon="5.97998">
        <ele>2200.6000976562</ele>
        <time>2024-10-15T09:22:31.000Z</time>
      </trkpt>
      <trkpt lat="45.10115" lon="5.97998">
        <ele>2200.8000488281</ele>
        <time>2024-10-15T09:22:32.000Z</time>
      </trkpt>
      <trkpt lat="45.10115" lon="5.97997">
        <ele>2201.1999511719</ele>
        <time>2024-10-15T09:22:33.000Z</time>
      </trkpt>
      <trkpt lat="45.10115" lon="5.97997">
        <ele>2201.6000976562</ele>
        <time>2024-10-15T09:22:34.000Z</time>
      </trkpt>
      <trkpt lat="45.10115" lon="5.97996">
        <ele>2202.1999511719</ele>
        <time>2024-10-15T09:22:35.000Z</time>
      </trkpt>
      <trkpt lat="45.10115" lon="5.97996">
        <ele>2202.3999023438</ele>
        <time>2024-10-15T09:22:36.000Z</time>
      </trkpt>
      <trkpt lat="45.10115" lon="5.97995">
        <ele>2202.6000976562</ele>
        <time>2024-10-15T09:22:37.000Z</time>
      </trkpt>
      <trkpt lat="45.10115" lon="5.97995">
        <ele>2203</ele>
        <time>2024-10-15T09:22:38.000Z</time>
      </trkpt>
      <trkpt lat="45.10115" lon="5.97994">
        <ele>2203</ele>
        <time>2024-10-15T09:22:39.000Z</time>
      </trkpt>
      <trkpt lat="45.10115" lon="5.97994">
        <ele>2203.1999511719</ele>
        <time>2024-10-15T09:22:40.000Z</time>
      </trkpt>
      <trkpt lat="45.10115" lon="5.97993">
        <ele>2203.3999023438</ele>
        <time>2024-10-15T09:22:41.000Z</time>
      </trkpt>
      <trkpt lat="45.10115" lon="5.97993">
        <ele>2203.6000976562</ele>
        <time>2024-10-15T09:22:42.000Z</time>
      </trkpt>
      <trkpt lat="45.10115" lon="5.97993">
        <ele>2203.8000488281</ele>
        <time>2024-10-15T09:22:43.000Z</time>
      </trkpt>
      <trkpt lat="45.10115" lon="5.97993">
        <ele>2203.8000488281</ele>
        <time>2024-10-15T09:22:44.000Z</time>
      </trkpt>
      <trkpt lat="45.10115" lon="5.97992">
        <ele>2203.8000488281</ele>
        <time>2024-10-15T09:22:45.000Z</time>
      </trkpt>
      <trkpt lat="45.10115" lon="5.97992">
        <ele>2204</ele>
        <time>2024-10-15T09:22:46.000Z</time>
      </trkpt>
      <trkpt lat="45.10115" lon="5.97991">
        <ele>2204</ele>
        <time>2024-10-15T09:22:47.000Z</time>
      </trkpt>
      <trkpt lat="45.10115" lon="5.97991">
        <ele>2204.3999023438</ele>
        <time>2024-10-15T09:22:48.000Z</time>
      </trkpt>
      <trkpt lat="45.10115" lon="5.9799">
        <ele>2205</ele>
        <time>2024-10-15T09:22:49.000Z</time>
      </trkpt>
      <trkpt lat="45.10115" lon="5.9799">
        <ele>2205</ele>
        <time>2024-10-15T09:22:50.000Z</time>
      </trkpt>
      <trkpt lat="45.10115" lon="5.97989">
        <ele>2205.1999511719</ele>
        <time>2024-10-15T09:22:51.000Z</time>
      </trkpt>
      <trkpt lat="45.10115" lon="5.97989">
        <ele>2205.3999023438</ele>
        <time>2024-10-15T09:22:52.000Z</time>
      </trkpt>
      <trkpt lat="45.10115" lon="5.97988">
        <ele>2205.3999023438</ele>
        <time>2024-10-15T09:22:53.000Z</time>
      </trkpt>
      <trkpt lat="45.10115" lon="5.97988">
        <ele>2205.8000488281</ele>
        <time>2024-10-15T09:22:54.000Z</time>
      </trkpt>
      <trkpt lat="45.10115" lon="5.97987">
        <ele>2206</ele>
        <time>2024-10-15T09:22:55.000Z</time>
      </trkpt>
      <trkpt lat="45.10115" lon="5.97987">
        <ele>2206</ele>
        <time>2024-10-15T09:22:56.000Z</time>
      </trkpt>
      <trkpt lat="45.10115" lon="5.97986">
        <ele>2206.1999511719</ele>
        <time>2024-10-15T09:22:57.000Z</time>
      </trkpt>
      <trkpt lat="45.10115" lon="5.97986">
        <ele>2206.1999511719</ele>
        <time>2024-10-15T09:22:58.000Z</time>
      </trkpt>
      <trkpt lat="45.10115" lon="5.97986">
        <ele>2206.8000488281</ele>
        <time>2024-10-15T09:22:59.000Z</time>
      </trkpt>
      <trkpt lat="45.10115" lon="5.97985">
        <ele>2207.1999511719</ele>
        <time>2024-10-15T09:23:00.000Z</time>
      </trkpt>
      <trkpt lat="45.10115" lon="5.97985">
        <ele>2207.6000976562</ele>
        <time>2024-10-15T09:23:01.000Z</time>
      </trkpt>
      <trkpt lat="45.10115" lon="5.97985">
        <ele>2207.6000976562</ele>
        <time>2024-10-15T09:23:02.000Z</time>
      </trkpt>
      <trkpt lat="45.10115" lon="5.97985">
        <ele>2207.8000488281</ele>
        <time>2024-10-15T09:23:03.000Z</time>
      </trkpt>
      <trkpt lat="45.10115" lon="5.97984">
        <ele>2208.1999511719</ele>
        <time>2024-10-15T09:23:04.000Z</time>
      </trkpt>
      <trkpt lat="45.10115" lon="5.97984">
        <ele>2208.3999023438</ele>
        <time>2024-10-15T09:23:05.000Z</time>
      </trkpt>
      <trkpt lat="45.10115" lon="5.97984">
        <ele>2208.6000976562</ele>
        <time>2024-10-15T09:23:06.000Z</time>
      </trkpt>
      <trkpt lat="45.10115" lon="5.97984">
        <ele>2208.8000488281</ele>
        <time>2024-10-15T09:23:07.000Z</time>
      </trkpt>
      <trkpt lat="45.10115" lon="5.97984">
        <ele>2208.8000488281</ele>
        <time>2024-10-15T09:23:08.000Z</time>
      </trkpt>
      <trkpt lat="45.10115" lon="5.97983">
        <ele>2208.8000488281</ele>
        <time>2024-10-15T09:23:09.000Z</time>
      </trkpt>
      <trkpt lat="45.10115" lon="5.97983">
        <ele>2209</ele>
        <time>2024-10-15T09:23:10.000Z</time>
      </trkpt>
      <trkpt lat="45.10115" lon="5.97983">
        <ele>2209</ele>
        <time>2024-10-15T09:23:11.000Z</time>
      </trkpt>
      <trkpt lat="45.10115" lon="5.97983">
        <ele>2209</ele>
        <time>2024-10-15T09:23:12.000Z</time>
      </trkpt>
      <trkpt lat="45.10115" lon="5.97982">
        <ele>2209.1999511719</ele>
        <time>2024-10-15T09:23:13.000Z</time>
      </trkpt>
      <trkpt lat="45.10115" lon="5.97982">
        <ele>2209.3999023438</ele>
        <time>2024-10-15T09:23:14.000Z</time>
      </trkpt>
      <trkpt lat="45.10115" lon="5.97982">
        <ele>2210</ele>
        <time>2024-10-15T09:23:15.000Z</time>
      </trkpt>
      <trkpt lat="45.10115" lon="5.97981">
        <ele>2210</ele>
        <time>2024-10-15T09:23:16.000Z</time>
      </trkpt>
      <trkpt lat="45.10115" lon="5.97981">
        <ele>2210</ele>
        <time>2024-10-15T09:23:17.000Z</time>
      </trkpt>
      <trkpt lat="45.10115" lon="5.97981">
        <ele>2210</ele>
        <time>2024-10-15T09:23:18.000Z</time>
      </trkpt>
      <trkpt lat="45.10115" lon="5.97981">
        <ele>2210.3999023438</ele>
        <time>2024-10-15T09:23:19.000Z</time>
      </trkpt>
      <trkpt lat="45.10115" lon="5.9798">
        <ele>2210.6000976562</ele>
        <time>2024-10-15T09:23:20.000Z</time>
      </trkpt>
      <trkpt lat="45.10115" lon="5.9798">
        <ele>2210.8000488281</ele>
        <time>2024-10-15T09:23:21.000Z</time>
      </trkpt>
      <trkpt lat="45.10115" lon="5.9798">
        <ele>2211</ele>
        <time>2024-10-15T09:23:22.000Z</time>
      </trkpt>
      <trkpt lat="45.10115" lon="5.9798">
        <ele>2211.3999023438</ele>
        <time>2024-10-15T09:23:23.000Z</time>
      </trkpt>
      <trkpt lat="45.10115" lon="5.9798">
        <ele>2211.6000976562</ele>
        <time>2024-10-15T09:23:24.000Z</time>
      </trkpt>
      <trkpt lat="45.10115" lon="5.97979">
        <ele>2211.8000488281</ele>
        <time>2024-10-15T09:23:25.000Z</time>
      </trkpt>
      <trkpt lat="45.10115" lon="5.97979">
        <ele>2212</ele>
        <time>2024-10-15T09:23:26.000Z</time>
      </trkpt>
      <trkpt lat="45.10115" lon="5.97978">
        <ele>2212</ele>
        <time>2024-10-15T09:23:27.000Z</time>
      </trkpt>
      <trkpt lat="45.10115" lon="5.97978">
        <ele>2212.1999511719</ele>
        <time>2024-10-15T09:23:28.000Z</time>
      </trkpt>
      <trkpt lat="45.10114" lon="5.97978">
        <ele>2212.3999023438</ele>
        <time>2024-10-15T09:23:29.000Z</time>
      </trkpt>
      <trkpt lat="45.10114" lon="5.97978">
        <ele>2212.3999023438</ele>
        <time>2024-10-15T09:23:30.000Z</time>
      </trkpt>
      <trkpt lat="45.10114" lon="5.97977">
        <ele>2212.8000488281</ele>
        <time>2024-10-15T09:23:31.000Z</time>
      </trkpt>
      <trkpt lat="45.10114" lon="5.97977">
        <ele>2212.8000488281</ele>
        <time>2024-10-15T09:23:32.000Z</time>
      </trkpt>
      <trkpt lat="45.10114" lon="5.97977">
        <ele>2213</ele>
        <time>2024-10-15T09:23:33.000Z</time>
      </trkpt>
      <trkpt lat="45.10114" lon="5.97976">
        <ele>2213</ele>
        <time>2024-10-15T09:23:34.000Z</time>
      </trkpt>
      <trkpt lat="45.10114" lon="5.97976">
        <ele>2213</ele>
        <time>2024-10-15T09:23:35.000Z</time>
      </trkpt>
      <trkpt lat="45.10114" lon="5.97976">
        <ele>2213.1999511719</ele>
        <time>2024-10-15T09:23:36.000Z</time>
      </trkpt>
      <trkpt lat="45.10114" lon="5.97976">
        <ele>2213.1999511719</ele>
        <time>2024-10-15T09:23:37.000Z</time>
      </trkpt>
      <trkpt lat="45.10114" lon="5.97975">
        <ele>2213.1999511719</ele>
        <time>2024-10-15T09:23:38.000Z</time>
      </trkpt>
      <trkpt lat="45.10114" lon="5.97975">
        <ele>2213.1999511719</ele>
        <time>2024-10-15T09:23:39.000Z</time>
      </trkpt>
      <trkpt lat="45.10114" lon="5.97975">
        <ele>2213.1999511719</ele>
        <time>2024-10-15T09:23:40.000Z</time>
      </trkpt>
      <trkpt lat="45.10114" lon="5.97974">
        <ele>2213.1999511719</ele>
        <time>2024-10-15T09:23:41.000Z</time>
      </trkpt>
      <trkpt lat="45.10114" lon="5.97974">
        <ele>2213.1999511719</ele>
        <time>2024-10-15T09:23:42.000Z</time>
      </trkpt>
      <trkpt lat="45.10114" lon="5.97974">
        <ele>2213.3999023438</ele>
        <time>2024-10-15T09:23:43.000Z</time>
      </trkpt>
      <trkpt lat="45.10114" lon="5.97974">
        <ele>2213.3999023438</ele>
        <time>2024-10-15T09:23:44.000Z</time>
      </trkpt>
      <trkpt lat="45.10114" lon="5.97973">
        <ele>2213.6000976562</ele>
        <time>2024-10-15T09:23:45.000Z</time>
      </trkpt>
      <trkpt lat="45.10114" lon="5.97973">
        <ele>2213.8000488281</ele>
        <time>2024-10-15T09:23:46.000Z</time>
      </trkpt>
      <trkpt lat="45.10114" lon="5.97973">
        <ele>2213.8000488281</ele>
        <time>2024-10-15T09:23:47.000Z</time>
      </trkpt>
      <trkpt lat="45.10114" lon="5.97973">
        <ele>2214.3999023438</ele>
        <time>2024-10-15T09:23:48.000Z</time>
      </trkpt>
      <trkpt lat="45.10114" lon="5.97972">
        <ele>2214.6000976562</ele>
        <time>2024-10-15T09:23:49.000Z</time>
      </trkpt>
      <trkpt lat="45.10114" lon="5.97972">
        <ele>2215.1999511719</ele>
        <time>2024-10-15T09:23:50.000Z</time>
      </trkpt>
      <trkpt lat="45.10114" lon="5.97972">
        <ele>2215.3999023438</ele>
        <time>2024-10-15T09:23:51.000Z</time>
      </trkpt>
      <trkpt lat="45.10114" lon="5.97972">
        <ele>2215.6000976562</ele>
        <time>2024-10-15T09:23:52.000Z</time>
      </trkpt>
      <trkpt lat="45.10114" lon="5.97972">
        <ele>2215.8000488281</ele>
        <time>2024-10-15T09:23:53.000Z</time>
      </trkpt>
      <trkpt lat="45.10114" lon="5.97972">
        <ele>2216</ele>
        <time>2024-10-15T09:23:54.000Z</time>
      </trkpt>
      <trkpt lat="45.10114" lon="5.97972">
        <ele>2216.3999023438</ele>
        <time>2024-10-15T09:23:55.000Z</time>
      </trkpt>
      <trkpt lat="45.10114" lon="5.97972">
        <ele>2216.3999023438</ele>
        <time>2024-10-15T09:23:56.000Z</time>
      </trkpt>
      <trkpt lat="45.10114" lon="5.97972">
        <ele>2216.3999023438</ele>
        <time>2024-10-15T09:23:57.000Z</time>
      </trkpt>
      <trkpt lat="45.10114" lon="5.97972">
        <ele>2216.6000976562</ele>
        <time>2024-10-15T09:23:58.000Z</time>
      </trkpt>
      <trkpt lat="45.10114" lon="5.97971">
        <ele>2217</ele>
        <time>2024-10-15T09:23:59.000Z</time>
      </trkpt>
      <trkpt lat="45.10114" lon="5.97971">
        <ele>2217.1999511719</ele>
        <time>2024-10-15T09:24:00.000Z</time>
      </trkpt>
      <trkpt lat="45.10114" lon="5.97971">
        <ele>2217.1999511719</ele>
        <time>2024-10-15T09:24:01.000Z</time>
      </trkpt>
      <trkpt lat="45.10114" lon="5.97971">
        <ele>2217.3999023438</ele>
        <time>2024-10-15T09:24:02.000Z</time>
      </trkpt>
      <trkpt lat="45.10114" lon="5.9797">
        <ele>2217.8000488281</ele>
        <time>2024-10-15T09:24:03.000Z</time>
      </trkpt>
      <trkpt lat="45.10114" lon="5.9797">
        <ele>2218</ele>
        <time>2024-10-15T09:24:04.000Z</time>
      </trkpt>
      <trkpt lat="45.10113" lon="5.9797">
        <ele>2218.3999023438</ele>
        <time>2024-10-15T09:24:05.000Z</time>
      </trkpt>
      <trkpt lat="45.10113" lon="5.9797">
        <ele>2218.3999023438</ele>
        <time>2024-10-15T09:24:06.000Z</time>
      </trkpt>
      <trkpt lat="45.10113" lon="5.97969">
        <ele>2218.6000976562</ele>
        <time>2024-10-15T09:24:07.000Z</time>
      </trkpt>
      <trkpt lat="45.10113" lon="5.97969">
        <ele>2218.8000488281</ele>
        <time>2024-10-15T09:24:08.000Z</time>
      </trkpt>
      <trkpt lat="45.10113" lon="5.97969">
        <ele>2219</ele>
        <time>2024-10-15T09:24:09.000Z</time>
      </trkpt>
      <trkpt lat="45.10113" lon="5.97968">
        <ele>2219.3999023438</ele>
        <time>2024-10-15T09:24:10.000Z</time>
      </trkpt>
      <trkpt lat="45.10112" lon="5.97968">
        <ele>2219.3999023438</ele>
        <time>2024-10-15T09:24:11.000Z</time>
      </trkpt>
      <trkpt lat="45.10112" lon="5.97968">
        <ele>2219.8000488281</ele>
        <time>2024-10-15T09:24:12.000Z</time>
      </trkpt>
      <trkpt lat="45.10112" lon="5.97967">
        <ele>2220.1999511719</ele>
        <time>2024-10-15T09:24:13.000Z</time>
      </trkpt>
      <trkpt lat="45.10112" lon="5.97967">
        <ele>2220.1999511719</ele>
        <time>2024-10-15T09:24:14.000Z</time>
      </trkpt>
      <trkpt lat="45.10112" lon="5.97967">
        <ele>2220.3999023438</ele>
        <time>2024-10-15T09:24:15.000Z</time>
      </trkpt>
      <trkpt lat="45.10112" lon="5.97966">
        <ele>2221</ele>
        <time>2024-10-15T09:24:16.000Z</time>
      </trkpt>
      <trkpt lat="45.10112" lon="5.97966">
        <ele>2221.1999511719</ele>
        <time>2024-10-15T09:24:17.000Z</time>
      </trkpt>
      <trkpt lat="45.10112" lon="5.97965">
        <ele>2221.1999511719</ele>
        <time>2024-10-15T09:24:18.000Z</time>
      </trkpt>
      <trkpt lat="45.10112" lon="5.97965">
        <ele>2221.1999511719</ele>
        <time>2024-10-15T09:24:19.000Z</time>
      </trkpt>
      <trkpt lat="45.10111" lon="5.97965">
        <ele>2221.8000488281</ele>
        <time>2024-10-15T09:24:20.000Z</time>
      </trkpt>
      <trkpt lat="45.10111" lon="5.97964">
        <ele>2221.8000488281</ele>
        <time>2024-10-15T09:24:21.000Z</time>
      </trkpt>
      <trkpt lat="45.10111" lon="5.97964">
        <ele>2222</ele>
        <time>2024-10-15T09:24:22.000Z</time>
      </trkpt>
      <trkpt lat="45.10111" lon="5.97963">
        <ele>2222.1999511719</ele>
        <time>2024-10-15T09:24:23.000Z</time>
      </trkpt>
      <trkpt lat="45.10111" lon="5.97963">
        <ele>2222.3999023438</ele>
        <time>2024-10-15T09:24:24.000Z</time>
      </trkpt>
      <trkpt lat="45.10111" lon="5.97962">
        <ele>2222.6000976562</ele>
        <time>2024-10-15T09:24:25.000Z</time>
      </trkpt>
      <trkpt lat="45.10111" lon="5.97962">
        <ele>2222.8000488281</ele>
        <time>2024-10-15T09:24:26.000Z</time>
      </trkpt>
      <trkpt lat="45.10111" lon="5.97962">
        <ele>2223</ele>
        <time>2024-10-15T09:24:27.000Z</time>
      </trkpt>
      <trkpt lat="45.10111" lon="5.97961">
        <ele>2223</ele>
        <time>2024-10-15T09:24:28.000Z</time>
      </trkpt>
      <trkpt lat="45.1011" lon="5.97961">
        <ele>2223.1999511719</ele>
        <time>2024-10-15T09:24:29.000Z</time>
      </trkpt>
      <trkpt lat="45.1011" lon="5.97961">
        <ele>2223.1999511719</ele>
        <time>2024-10-15T09:24:30.000Z</time>
      </trkpt>
      <trkpt lat="45.1011" lon="5.9796">
        <ele>2223.1999511719</ele>
        <time>2024-10-15T09:24:31.000Z</time>
      </trkpt>
      <trkpt lat="45.1011" lon="5.9796">
        <ele>2223.6000976562</ele>
        <time>2024-10-15T09:24:32.000Z</time>
      </trkpt>
      <trkpt lat="45.1011" lon="5.9796">
        <ele>2223.8000488281</ele>
        <time>2024-10-15T09:24:33.000Z</time>
      </trkpt>
      <trkpt lat="45.1011" lon="5.9796">
        <ele>2224</ele>
        <time>2024-10-15T09:24:34.000Z</time>
      </trkpt>
      <trkpt lat="45.1011" lon="5.97959">
        <ele>2224.3999023438</ele>
        <time>2024-10-15T09:24:35.000Z</time>
      </trkpt>
      <trkpt lat="45.1011" lon="5.97959">
        <ele>2224.6000976562</ele>
        <time>2024-10-15T09:24:36.000Z</time>
      </trkpt>
      <trkpt lat="45.1011" lon="5.97959">
        <ele>2224.8000488281</ele>
        <time>2024-10-15T09:24:37.000Z</time>
      </trkpt>
      <trkpt lat="45.1011" lon="5.97958">
        <ele>2225</ele>
        <time>2024-10-15T09:24:38.000Z</time>
      </trkpt>
      <trkpt lat="45.10111" lon="5.97957">
        <ele>2225.3999023438</ele>
        <time>2024-10-15T09:24:39.000Z</time>
      </trkpt>
      <trkpt lat="45.10112" lon="5.97956">
        <ele>2225.6000976562</ele>
        <time>2024-10-15T09:24:40.000Z</time>
      </trkpt>
      <trkpt lat="45.10112" lon="5.97956">
        <ele>2226</ele>
        <time>2024-10-15T09:24:41.000Z</time>
      </trkpt>
      <trkpt lat="45.10112" lon="5.97955">
        <ele>2226.1999511719</ele>
        <time>2024-10-15T09:24:42.000Z</time>
      </trkpt>
      <trkpt lat="45.10113" lon="5.97954">
        <ele>2226.1999511719</ele>
        <time>2024-10-15T09:24:43.000Z</time>
      </trkpt>
      <trkpt lat="45.10113" lon="5.97954">
        <ele>2226.1999511719</ele>
        <time>2024-10-15T09:24:44.000Z</time>
      </trkpt>
      <trkpt lat="45.10113" lon="5.97954">
        <ele>2226.1999511719</ele>
        <time>2024-10-15T09:24:45.000Z</time>
      </trkpt>
      <trkpt lat="45.10113" lon="5.97954">
        <ele>2226.3999023438</ele>
        <time>2024-10-15T09:24:46.000Z</time>
      </trkpt>
      <trkpt lat="45.10113" lon="5.97954">
        <ele>2226.1999511719</ele>
        <time>2024-10-15T09:24:47.000Z</time>
      </trkpt>
      <trkpt lat="45.10113" lon="5.97954">
        <ele>2226.1999511719</ele>
        <time>2024-10-15T09:24:48.000Z</time>
      </trkpt>
      <trkpt lat="45.10113" lon="5.97954">
        <ele>2226.1999511719</ele>
        <time>2024-10-15T09:24:49.000Z</time>
      </trkpt>
      <trkpt lat="45.10113" lon="5.97952">
        <ele>2226.1999511719</ele>
        <time>2024-10-15T09:24:50.000Z</time>
      </trkpt>
      <trkpt lat="45.10113" lon="5.97952">
        <ele>2226.1999511719</ele>
        <time>2024-10-15T09:24:51.000Z</time>
      </trkpt>
      <trkpt lat="45.10113" lon="5.97951">
        <ele>2226.1999511719</ele>
        <time>2024-10-15T09:24:52.000Z</time>
      </trkpt>
      <trkpt lat="45.10113" lon="5.97951">
        <ele>2226.1999511719</ele>
        <time>2024-10-15T09:24:53.000Z</time>
      </trkpt>
      <trkpt lat="45.10113" lon="5.97951">
        <ele>2226.1999511719</ele>
        <time>2024-10-15T09:24:54.000Z</time>
      </trkpt>
      <trkpt lat="45.10113" lon="5.97951">
        <ele>2226.1999511719</ele>
        <time>2024-10-15T09:24:55.000Z</time>
      </trkpt>
      <trkpt lat="45.10113" lon="5.97951">
        <ele>2226.6000976562</ele>
        <time>2024-10-15T09:24:56.000Z</time>
      </trkpt>
      <trkpt lat="45.10114" lon="5.97951">
        <ele>2226.8000488281</ele>
        <time>2024-10-15T09:24:57.000Z</time>
      </trkpt>
      <trkpt lat="45.10114" lon="5.97951">
        <ele>2227</ele>
        <time>2024-10-15T09:24:58.000Z</time>
      </trkpt>
      <trkpt lat="45.10114" lon="5.97951">
        <ele>2227</ele>
        <time>2024-10-15T09:24:59.000Z</time>
      </trkpt>
      <trkpt lat="45.10114" lon="5.97951">
        <ele>2227.1999511719</ele>
        <time>2024-10-15T09:25:00.000Z</time>
      </trkpt>
      <trkpt lat="45.10114" lon="5.97951">
        <ele>2227.1999511719</ele>
        <time>2024-10-15T09:25:01.000Z</time>
      </trkpt>
      <trkpt lat="45.10114" lon="5.97951">
        <ele>2227.1999511719</ele>
        <time>2024-10-15T09:25:02.000Z</time>
      </trkpt>
      <trkpt lat="45.10114" lon="5.97951">
        <ele>2227.1999511719</ele>
        <time>2024-10-15T09:25:03.000Z</time>
      </trkpt>
      <trkpt lat="45.10114" lon="5.97951">
        <ele>2227.1999511719</ele>
        <time>2024-10-15T09:25:04.000Z</time>
      </trkpt>
      <trkpt lat="45.10114" lon="5.97951">
        <ele>2227.3999023438</ele>
        <time>2024-10-15T09:25:05.000Z</time>
      </trkpt>
      <trkpt lat="45.10115" lon="5.97951">
        <ele>2227.6000976562</ele>
        <time>2024-10-15T09:25:06.000Z</time>
      </trkpt>
      <trkpt lat="45.10115" lon="5.9795">
        <ele>2227.8000488281</ele>
        <time>2024-10-15T09:25:07.000Z</time>
      </trkpt>
      <trkpt lat="45.10115" lon="5.9795">
        <ele>2228</ele>
        <time>2024-10-15T09:25:08.000Z</time>
      </trkpt>
      <trkpt lat="45.10115" lon="5.9795">
        <ele>2228.3999023438</ele>
        <time>2024-10-15T09:25:09.000Z</time>
      </trkpt>
      <trkpt lat="45.10115" lon="5.97949">
        <ele>2228.6000976562</ele>
        <time>2024-10-15T09:25:10.000Z</time>
      </trkpt>
      <trkpt lat="45.10115" lon="5.97949">
        <ele>2228.6000976562</ele>
        <time>2024-10-15T09:25:11.000Z</time>
      </trkpt>
      <trkpt lat="45.10115" lon="5.97949">
        <ele>2228.8000488281</ele>
        <time>2024-10-15T09:25:12.000Z</time>
      </trkpt>
      <trkpt lat="45.10115" lon="5.97949">
        <ele>2228.6000976562</ele>
        <time>2024-10-15T09:25:13.000Z</time>
      </trkpt>
      <trkpt lat="45.10115" lon="5.97948">
        <ele>2228.6000976562</ele>
        <time>2024-10-15T09:25:14.000Z</time>
      </trkpt>
      <trkpt lat="45.10115" lon="5.97948">
        <ele>2228.6000976562</ele>
        <time>2024-10-15T09:25:15.000Z</time>
      </trkpt>
      <trkpt lat="45.10115" lon="5.97948">
        <ele>2228.6000976562</ele>
        <time>2024-10-15T09:25:16.000Z</time>
      </trkpt>
      <trkpt lat="45.10115" lon="5.97948">
        <ele>2228.6000976562</ele>
        <time>2024-10-15T09:25:17.000Z</time>
      </trkpt>
      <trkpt lat="45.10115" lon="5.97948">
        <ele>2228.6000976562</ele>
        <time>2024-10-15T09:25:18.000Z</time>
      </trkpt>
      <trkpt lat="45.10115" lon="5.97948">
        <ele>2228.6000976562</ele>
        <time>2024-10-15T09:25:19.000Z</time>
      </trkpt>
      <trkpt lat="45.10115" lon="5.97948">
        <ele>2228.6000976562</ele>
        <time>2024-10-15T09:25:20.000Z</time>
      </trkpt>
      <trkpt lat="45.10115" lon="5.97948">
        <ele>2228.6000976562</ele>
        <time>2024-10-15T09:25:21.000Z</time>
      </trkpt>
      <trkpt lat="45.10115" lon="5.97948">
        <ele>2228.6000976562</ele>
        <time>2024-10-15T09:25:22.000Z</time>
      </trkpt>
      <trkpt lat="45.10115" lon="5.97948">
        <ele>2228.6000976562</ele>
        <time>2024-10-15T09:25:23.000Z</time>
      </trkpt>
      <trkpt lat="45.10115" lon="5.97948">
        <ele>2228.6000976562</ele>
        <time>2024-10-15T09:25:24.000Z</time>
      </trkpt>
      <trkpt lat="45.10115" lon="5.97947">
        <ele>2228.6000976562</ele>
        <time>2024-10-15T09:25:25.000Z</time>
      </trkpt>
      <trkpt lat="45.10115" lon="5.97947">
        <ele>2228.3999023438</ele>
        <time>2024-10-15T09:25:26.000Z</time>
      </trkpt>
      <trkpt lat="45.10115" lon="5.97947">
        <ele>2228.3999023438</ele>
        <time>2024-10-15T09:25:27.000Z</time>
      </trkpt>
      <trkpt lat="45.10115" lon="5.97947">
        <ele>2228.3999023438</ele>
        <time>2024-10-15T09:25:28.000Z</time>
      </trkpt>
      <trkpt lat="45.10115" lon="5.97947">
        <ele>2228.3999023438</ele>
        <time>2024-10-15T09:25:29.000Z</time>
      </trkpt>
      <trkpt lat="45.10115" lon="5.97947">
        <ele>2228.6000976562</ele>
        <time>2024-10-15T09:25:30.000Z</time>
      </trkpt>
      <trkpt lat="45.10115" lon="5.97947">
        <ele>2228.6000976562</ele>
        <time>2024-10-15T09:25:31.000Z</time>
      </trkpt>
      <trkpt lat="45.10115" lon="5.97947">
        <ele>2228.6000976562</ele>
        <time>2024-10-15T09:25:32.000Z</time>
      </trkpt>
      <trkpt lat="45.10115" lon="5.97947">
        <ele>2228.6000976562</ele>
        <time>2024-10-15T09:25:33.000Z</time>
      </trkpt>
      <trkpt lat="45.10115" lon="5.97947">
        <ele>2228.6000976562</ele>
        <time>2024-10-15T09:25:34.000Z</time>
      </trkpt>
      <trkpt lat="45.10115" lon="5.97947">
        <ele>2228.6000976562</ele>
        <time>2024-10-15T09:25:35.000Z</time>
      </trkpt>
      <trkpt lat="45.10115" lon="5.97947">
        <ele>2228.6000976562</ele>
        <time>2024-10-15T09:25:36.000Z</time>
      </trkpt>
      <trkpt lat="45.10115" lon="5.97947">
        <ele>2228.6000976562</ele>
        <time>2024-10-15T09:25:37.000Z</time>
      </trkpt>
      <trkpt lat="45.10115" lon="5.97947">
        <ele>2228.3999023438</ele>
        <time>2024-10-15T09:25:38.000Z</time>
      </trkpt>
      <trkpt lat="45.10115" lon="5.97947">
        <ele>2228.3999023438</ele>
        <time>2024-10-15T09:25:39.000Z</time>
      </trkpt>
      <trkpt lat="45.10115" lon="5.97947">
        <ele>2228.1999511719</ele>
        <time>2024-10-15T09:25:40.000Z</time>
      </trkpt>
      <trkpt lat="45.10115" lon="5.97947">
        <ele>2228.1999511719</ele>
        <time>2024-10-15T09:25:41.000Z</time>
      </trkpt>
      <trkpt lat="45.10115" lon="5.97947">
        <ele>2228</ele>
        <time>2024-10-15T09:25:42.000Z</time>
      </trkpt>
      <trkpt lat="45.10115" lon="5.97947">
        <ele>2228</ele>
        <time>2024-10-15T09:25:43.000Z</time>
      </trkpt>
      <trkpt lat="45.10115" lon="5.97947">
        <ele>2228</ele>
        <time>2024-10-15T09:25:44.000Z</time>
      </trkpt>
      <trkpt lat="45.10115" lon="5.97947">
        <ele>2228</ele>
        <time>2024-10-15T09:25:45.000Z</time>
      </trkpt>
      <trkpt lat="45.10115" lon="5.97947">
        <ele>2228.1999511719</ele>
        <time>2024-10-15T09:25:46.000Z</time>
      </trkpt>
      <trkpt lat="45.10115" lon="5.97947">
        <ele>2228.1999511719</ele>
        <time>2024-10-15T09:25:47.000Z</time>
      </trkpt>
      <trkpt lat="45.10115" lon="5.97947">
        <ele>2228.6000976562</ele>
        <time>2024-10-15T09:25:48.000Z</time>
      </trkpt>
      <trkpt lat="45.10115" lon="5.97947">
        <ele>2229</ele>
        <time>2024-10-15T09:25:49.000Z</time>
      </trkpt>
      <trkpt lat="45.10115" lon="5.97947">
        <ele>2229.3999023438</ele>
        <time>2024-10-15T09:25:50.000Z</time>
      </trkpt>
      <trkpt lat="45.10115" lon="5.97947">
        <ele>2229.6000976562</ele>
        <time>2024-10-15T09:25:51.000Z</time>
      </trkpt>
      <trkpt lat="45.10115" lon="5.97947">
        <ele>2229.8000488281</ele>
        <time>2024-10-15T09:25:52.000Z</time>
      </trkpt>
      <trkpt lat="45.10115" lon="5.97947">
        <ele>2230</ele>
        <time>2024-10-15T09:25:53.000Z</time>
      </trkpt>
      <trkpt lat="45.10115" lon="5.97947">
        <ele>2230.6000976562</ele>
        <time>2024-10-15T09:25:54.000Z</time>
      </trkpt>
      <trkpt lat="45.10115" lon="5.97947">
        <ele>2230.6000976562</ele>
        <time>2024-10-15T09:25:55.000Z</time>
      </trkpt>
      <trkpt lat="45.10115" lon="5.97947">
        <ele>2231</ele>
        <time>2024-10-15T09:25:56.000Z</time>
      </trkpt>
      <trkpt lat="45.10115" lon="5.97947">
        <ele>2231.3999023438</ele>
        <time>2024-10-15T09:25:57.000Z</time>
      </trkpt>
      <trkpt lat="45.10115" lon="5.97947">
        <ele>2231.6000976562</ele>
        <time>2024-10-15T09:25:58.000Z</time>
      </trkpt>
      <trkpt lat="45.10115" lon="5.97947">
        <ele>2231.8000488281</ele>
        <time>2024-10-15T09:25:59.000Z</time>
      </trkpt>
      <trkpt lat="45.10115" lon="5.97947">
        <ele>2232</ele>
        <time>2024-10-15T09:26:00.000Z</time>
      </trkpt>
      <trkpt lat="45.10115" lon="5.97947">
        <ele>2232</ele>
        <time>2024-10-15T09:26:01.000Z</time>
      </trkpt>
      <trkpt lat="45.10115" lon="5.97947">
        <ele>2232</ele>
        <time>2024-10-15T09:26:02.000Z</time>
      </trkpt>
      <trkpt lat="45.10115" lon="5.97946">
        <ele>2232.1999511719</ele>
        <time>2024-10-15T09:26:03.000Z</time>
      </trkpt>
      <trkpt lat="45.10115" lon="5.97946">
        <ele>2232.1999511719</ele>
        <time>2024-10-15T09:26:04.000Z</time>
      </trkpt>
      <trkpt lat="45.10114" lon="5.97946">
        <ele>2232.1999511719</ele>
        <time>2024-10-15T09:26:05.000Z</time>
      </trkpt>
      <trkpt lat="45.10114" lon="5.97946">
        <ele>2232.1999511719</ele>
        <time>2024-10-15T09:26:06.000Z</time>
      </trkpt>
      <trkpt lat="45.10114" lon="5.97945">
        <ele>2232.1999511719</ele>
        <time>2024-10-15T09:26:07.000Z</time>
      </trkpt>
      <trkpt lat="45.10114" lon="5.97945">
        <ele>2232.1999511719</ele>
        <time>2024-10-15T09:26:08.000Z</time>
      </trkpt>
      <trkpt lat="45.10114" lon="5.97945">
        <ele>2232.1999511719</ele>
        <time>2024-10-15T09:26:09.000Z</time>
      </trkpt>
      <trkpt lat="45.10114" lon="5.97944">
        <ele>2232.1999511719</ele>
        <time>2024-10-15T09:26:10.000Z</time>
      </trkpt>
      <trkpt lat="45.10114" lon="5.97944">
        <ele>2232.1999511719</ele>
        <time>2024-10-15T09:26:11.000Z</time>
      </trkpt>
      <trkpt lat="45.10114" lon="5.97944">
        <ele>2232.1999511719</ele>
        <time>2024-10-15T09:26:12.000Z</time>
      </trkpt>
      <trkpt lat="45.10114" lon="5.97943">
        <ele>2232.1999511719</ele>
        <time>2024-10-15T09:26:13.000Z</time>
      </trkpt>
      <trkpt lat="45.10114" lon="5.97943">
        <ele>2232.1999511719</ele>
        <time>2024-10-15T09:26:14.000Z</time>
      </trkpt>
      <trkpt lat="45.10114" lon="5.97943">
        <ele>2232.1999511719</ele>
        <time>2024-10-15T09:26:15.000Z</time>
      </trkpt>
      <trkpt lat="45.10114" lon="5.97943">
        <ele>2232.1999511719</ele>
        <time>2024-10-15T09:26:16.000Z</time>
      </trkpt>
      <trkpt lat="45.10114" lon="5.97943">
        <ele>2232</ele>
        <time>2024-10-15T09:26:17.000Z</time>
      </trkpt>
      <trkpt lat="45.10114" lon="5.97943">
        <ele>2231.8000488281</ele>
        <time>2024-10-15T09:26:18.000Z</time>
      </trkpt>
      <trkpt lat="45.10114" lon="5.97943">
        <ele>2231.8000488281</ele>
        <time>2024-10-15T09:26:19.000Z</time>
      </trkpt>
      <trkpt lat="45.10114" lon="5.97943">
        <ele>2231.8000488281</ele>
        <time>2024-10-15T09:26:20.000Z</time>
      </trkpt>
      <trkpt lat="45.10113" lon="5.97943">
        <ele>2231.8000488281</ele>
        <time>2024-10-15T09:26:21.000Z</time>
      </trkpt>
      <trkpt lat="45.10113" lon="5.97943">
        <ele>2231.8000488281</ele>
        <time>2024-10-15T09:26:22.000Z</time>
      </trkpt>
      <trkpt lat="45.10113" lon="5.97943">
        <ele>2231.6000976562</ele>
        <time>2024-10-15T09:26:23.000Z</time>
      </trkpt>
      <trkpt lat="45.10113" lon="5.97943">
        <ele>2231.6000976562</ele>
        <time>2024-10-15T09:26:24.000Z</time>
      </trkpt>
      <trkpt lat="45.10113" lon="5.97943">
        <ele>2231.6000976562</ele>
        <time>2024-10-15T09:26:25.000Z</time>
      </trkpt>
      <trkpt lat="45.10113" lon="5.97943">
        <ele>2231.6000976562</ele>
        <time>2024-10-15T09:26:26.000Z</time>
      </trkpt>
      <trkpt lat="45.10113" lon="5.97943">
        <ele>2231.6000976562</ele>
        <time>2024-10-15T09:26:27.000Z</time>
      </trkpt>
      <trkpt lat="45.10112" lon="5.97943">
        <ele>2231.6000976562</ele>
        <time>2024-10-15T09:26:28.000Z</time>
      </trkpt>
      <trkpt lat="45.10112" lon="5.97943">
        <ele>2231.8000488281</ele>
        <time>2024-10-15T09:26:29.000Z</time>
      </trkpt>
      <trkpt lat="45.10112" lon="5.97943">
        <ele>2231.8000488281</ele>
        <time>2024-10-15T09:26:30.000Z</time>
      </trkpt>
      <trkpt lat="45.10112" lon="5.97943">
        <ele>2231.6000976562</ele>
        <time>2024-10-15T09:26:31.000Z</time>
      </trkpt>
      <trkpt lat="45.10112" lon="5.97943">
        <ele>2231.6000976562</ele>
        <time>2024-10-15T09:26:32.000Z</time>
      </trkpt>
      <trkpt lat="45.10112" lon="5.97943">
        <ele>2231.6000976562</ele>
        <time>2024-10-15T09:26:33.000Z</time>
      </trkpt>
      <trkpt lat="45.10112" lon="5.97943">
        <ele>2231.3999023438</ele>
        <time>2024-10-15T09:26:34.000Z</time>
      </trkpt>
      <trkpt lat="45.10112" lon="5.97943">
        <ele>2231.3999023438</ele>
        <time>2024-10-15T09:26:35.000Z</time>
      </trkpt>
      <trkpt lat="45.10112" lon="5.97943">
        <ele>2231.3999023438</ele>
        <time>2024-10-15T09:26:36.000Z</time>
      </trkpt>
      <trkpt lat="45.10112" lon="5.97943">
        <ele>2231.3999023438</ele>
        <time>2024-10-15T09:26:37.000Z</time>
      </trkpt>
      <trkpt lat="45.10112" lon="5.97943">
        <ele>2231.3999023438</ele>
        <time>2024-10-15T09:26:38.000Z</time>
      </trkpt>
      <trkpt lat="45.10112" lon="5.97943">
        <ele>2231.3999023438</ele>
        <time>2024-10-15T09:26:39.000Z</time>
      </trkpt>
      <trkpt lat="45.10112" lon="5.97943">
        <ele>2231.3999023438</ele>
        <time>2024-10-15T09:26:40.000Z</time>
      </trkpt>
      <trkpt lat="45.10112" lon="5.97943">
        <ele>2231.3999023438</ele>
        <time>2024-10-15T09:26:41.000Z</time>
      </trkpt>
      <trkpt lat="45.10112" lon="5.97943">
        <ele>2231.1999511719</ele>
        <time>2024-10-15T09:26:42.000Z</time>
      </trkpt>
      <trkpt lat="45.10112" lon="5.97943">
        <ele>2231.1999511719</ele>
        <time>2024-10-15T09:26:43.000Z</time>
      </trkpt>
      <trkpt lat="45.10112" lon="5.97943">
        <ele>2231</ele>
        <time>2024-10-15T09:26:44.000Z</time>
      </trkpt>
      <trkpt lat="45.10112" lon="5.97943">
        <ele>2231</ele>
        <time>2024-10-15T09:26:45.000Z</time>
      </trkpt>
      <trkpt lat="45.10112" lon="5.97943">
        <ele>2231</ele>
        <time>2024-10-15T09:26:46.000Z</time>
      </trkpt>
      <trkpt lat="45.10112" lon="5.97943">
        <ele>2231</ele>
        <time>2024-10-15T09:26:47.000Z</time>
      </trkpt>
      <trkpt lat="45.10112" lon="5.97943">
        <ele>2231</ele>
        <time>2024-10-15T09:26:48.000Z</time>
      </trkpt>
      <trkpt lat="45.10112" lon="5.97943">
        <ele>2231</ele>
        <time>2024-10-15T09:26:49.000Z</time>
      </trkpt>
      <trkpt lat="45.10112" lon="5.97943">
        <ele>2231.1999511719</ele>
        <time>2024-10-15T09:26:50.000Z</time>
      </trkpt>
      <trkpt lat="45.10112" lon="5.97943">
        <ele>2231.3999023438</ele>
        <time>2024-10-15T09:26:51.000Z</time>
      </trkpt>
      <trkpt lat="45.10112" lon="5.97943">
        <ele>2231.3999023438</ele>
        <time>2024-10-15T09:26:52.000Z</time>
      </trkpt>
      <trkpt lat="45.10112" lon="5.97943">
        <ele>2231.3999023438</ele>
        <time>2024-10-15T09:26:53.000Z</time>
      </trkpt>
      <trkpt lat="45.10112" lon="5.97943">
        <ele>2231.3999023438</ele>
        <time>2024-10-15T09:26:54.000Z</time>
      </trkpt>
      <trkpt lat="45.10112" lon="5.97943">
        <ele>2231.3999023438</ele>
        <time>2024-10-15T09:26:55.000Z</time>
      </trkpt>
      <trkpt lat="45.10112" lon="5.97943">
        <ele>2231.3999023438</ele>
        <time>2024-10-15T09:26:56.000Z</time>
      </trkpt>
      <trkpt lat="45.10112" lon="5.97943">
        <ele>2231.1999511719</ele>
        <time>2024-10-15T09:26:57.000Z</time>
      </trkpt>
      <trkpt lat="45.10112" lon="5.97943">
        <ele>2231.1999511719</ele>
        <time>2024-10-15T09:26:58.000Z</time>
      </trkpt>
      <trkpt lat="45.10112" lon="5.97943">
        <ele>2231.1999511719</ele>
        <time>2024-10-15T09:26:59.000Z</time>
      </trkpt>
      <trkpt lat="45.10112" lon="5.97943">
        <ele>2231.1999511719</ele>
        <time>2024-10-15T09:27:00.000Z</time>
      </trkpt>
      <trkpt lat="45.10112" lon="5.97943">
        <ele>2231.1999511719</ele>
        <time>2024-10-15T09:27:01.000Z</time>
      </trkpt>
      <trkpt lat="45.10112" lon="5.97943">
        <ele>2231.1999511719</ele>
        <time>2024-10-15T09:27:02.000Z</time>
      </trkpt>
      <trkpt lat="45.10112" lon="5.97943">
        <ele>2231.1999511719</ele>
        <time>2024-10-15T09:27:03.000Z</time>
      </trkpt>
      <trkpt lat="45.10112" lon="5.97943">
        <ele>2231.1999511719</ele>
        <time>2024-10-15T09:27:04.000Z</time>
      </trkpt>
      <trkpt lat="45.10112" lon="5.97943">
        <ele>2231.1999511719</ele>
        <time>2024-10-15T09:27:05.000Z</time>
      </trkpt>
      <trkpt lat="45.10112" lon="5.97943">
        <ele>2231.1999511719</ele>
        <time>2024-10-15T09:27:06.000Z</time>
      </trkpt>
      <trkpt lat="45.10112" lon="5.97943">
        <ele>2231.1999511719</ele>
        <time>2024-10-15T09:27:07.000Z</time>
      </trkpt>
      <trkpt lat="45.10112" lon="5.97943">
        <ele>2231.1999511719</ele>
        <time>2024-10-15T09:27:08.000Z</time>
      </trkpt>
      <trkpt lat="45.10112" lon="5.97943">
        <ele>2231.1999511719</ele>
        <time>2024-10-15T09:27:09.000Z</time>
      </trkpt>
      <trkpt lat="45.10112" lon="5.97943">
        <ele>2231.1999511719</ele>
        <time>2024-10-15T09:27:10.000Z</time>
      </trkpt>
      <trkpt lat="45.10111" lon="5.97943">
        <ele>2231.1999511719</ele>
        <time>2024-10-15T09:27:11.000Z</time>
      </trkpt>
      <trkpt lat="45.10111" lon="5.97943">
        <ele>2231.3999023438</ele>
        <time>2024-10-15T09:27:12.000Z</time>
      </trkpt>
      <trkpt lat="45.10111" lon="5.97943">
        <ele>2231.1999511719</ele>
        <time>2024-10-15T09:27:13.000Z</time>
      </trkpt>
      <trkpt lat="45.10111" lon="5.97943">
        <ele>2231.1999511719</ele>
        <time>2024-10-15T09:27:14.000Z</time>
      </trkpt>
      <trkpt lat="45.10111" lon="5.97943">
        <ele>2231.1999511719</ele>
        <time>2024-10-15T09:27:15.000Z</time>
      </trkpt>
      <trkpt lat="45.10111" lon="5.97943">
        <ele>2231</ele>
        <time>2024-10-15T09:27:16.000Z</time>
      </trkpt>
      <trkpt lat="45.10111" lon="5.97943">
        <ele>2231</ele>
        <time>2024-10-15T09:27:17.000Z</time>
      </trkpt>
      <trkpt lat="45.10111" lon="5.97943">
        <ele>2231</ele>
        <time>2024-10-15T09:27:18.000Z</time>
      </trkpt>
      <trkpt lat="45.10111" lon="5.97943">
        <ele>2231</ele>
        <time>2024-10-15T09:27:19.000Z</time>
      </trkpt>
      <trkpt lat="45.10111" lon="5.97943">
        <ele>2231</ele>
        <time>2024-10-15T09:27:20.000Z</time>
      </trkpt>
      <trkpt lat="45.10111" lon="5.97943">
        <ele>2231</ele>
        <time>2024-10-15T09:27:21.000Z</time>
      </trkpt>
      <trkpt lat="45.10111" lon="5.97943">
        <ele>2231.1999511719</ele>
        <time>2024-10-15T09:27:22.000Z</time>
      </trkpt>
      <trkpt lat="45.10111" lon="5.97943">
        <ele>2231</ele>
        <time>2024-10-15T09:27:23.000Z</time>
      </trkpt>
      <trkpt lat="45.10111" lon="5.97943">
        <ele>2231</ele>
        <time>2024-10-15T09:27:24.000Z</time>
      </trkpt>
      <trkpt lat="45.10111" lon="5.97943">
        <ele>2231.1999511719</ele>
        <time>2024-10-15T09:27:25.000Z</time>
      </trkpt>
      <trkpt lat="45.10111" lon="5.97943">
        <ele>2231.1999511719</ele>
        <time>2024-10-15T09:27:26.000Z</time>
      </trkpt>
      <trkpt lat="45.10111" lon="5.97943">
        <ele>2231.1999511719</ele>
        <time>2024-10-15T09:27:27.000Z</time>
      </trkpt>
      <trkpt lat="45.10111" lon="5.97943">
        <ele>2231.1999511719</ele>
        <time>2024-10-15T09:27:28.000Z</time>
      </trkpt>
      <trkpt lat="45.10111" lon="5.97943">
        <ele>2231.1999511719</ele>
        <time>2024-10-15T09:27:29.000Z</time>
      </trkpt>
      <trkpt lat="45.10111" lon="5.97943">
        <ele>2231.1999511719</ele>
        <time>2024-10-15T09:27:30.000Z</time>
      </trkpt>
      <trkpt lat="45.10111" lon="5.97943">
        <ele>2231.1999511719</ele>
        <time>2024-10-15T09:27:31.000Z</time>
      </trkpt>
      <trkpt lat="45.10111" lon="5.97943">
        <ele>2231.1999511719</ele>
        <time>2024-10-15T09:27:32.000Z</time>
      </trkpt>
      <trkpt lat="45.10111" lon="5.97943">
        <ele>2231.1999511719</ele>
        <time>2024-10-15T09:27:33.000Z</time>
      </trkpt>
      <trkpt lat="45.10111" lon="5.97943">
        <ele>2231.1999511719</ele>
        <time>2024-10-15T09:27:34.000Z</time>
      </trkpt>
      <trkpt lat="45.10111" lon="5.97943">
        <ele>2231.1999511719</ele>
        <time>2024-10-15T09:27:35.000Z</time>
      </trkpt>
      <trkpt lat="45.10111" lon="5.97943">
        <ele>2231.1999511719</ele>
        <time>2024-10-15T09:27:36.000Z</time>
      </trkpt>
      <trkpt lat="45.10111" lon="5.97943">
        <ele>2231.1999511719</ele>
        <time>2024-10-15T09:27:37.000Z</time>
      </trkpt>
      <trkpt lat="45.10111" lon="5.97943">
        <ele>2231.1999511719</ele>
        <time>2024-10-15T09:27:38.000Z</time>
      </trkpt>
      <trkpt lat="45.10111" lon="5.97943">
        <ele>2231.1999511719</ele>
        <time>2024-10-15T09:27:39.000Z</time>
      </trkpt>
      <trkpt lat="45.10111" lon="5.97943">
        <ele>2231.1999511719</ele>
        <time>2024-10-15T09:27:40.000Z</time>
      </trkpt>
      <trkpt lat="45.1011" lon="5.97943">
        <ele>2231.3999023438</ele>
        <time>2024-10-15T09:27:41.000Z</time>
      </trkpt>
      <trkpt lat="45.1011" lon="5.97943">
        <ele>2231.3999023438</ele>
        <time>2024-10-15T09:27:42.000Z</time>
      </trkpt>
      <trkpt lat="45.1011" lon="5.97943">
        <ele>2231.3999023438</ele>
        <time>2024-10-15T09:27:43.000Z</time>
      </trkpt>
      <trkpt lat="45.1011" lon="5.97943">
        <ele>2231.6000976562</ele>
        <time>2024-10-15T09:27:44.000Z</time>
      </trkpt>
      <trkpt lat="45.1011" lon="5.97943">
        <ele>2231.6000976562</ele>
        <time>2024-10-15T09:27:45.000Z</time>
      </trkpt>
      <trkpt lat="45.1011" lon="5.97943">
        <ele>2231.6000976562</ele>
        <time>2024-10-15T09:27:46.000Z</time>
      </trkpt>
      <trkpt lat="45.1011" lon="5.97943">
        <ele>2231.6000976562</ele>
        <time>2024-10-15T09:27:47.000Z</time>
      </trkpt>
      <trkpt lat="45.1011" lon="5.97943">
        <ele>2231.6000976562</ele>
        <time>2024-10-15T09:27:48.000Z</time>
      </trkpt>
      <trkpt lat="45.1011" lon="5.97943">
        <ele>2231.6000976562</ele>
        <time>2024-10-15T09:27:49.000Z</time>
      </trkpt>
      <trkpt lat="45.1011" lon="5.97943">
        <ele>2231.6000976562</ele>
        <time>2024-10-15T09:27:50.000Z</time>
      </trkpt>
      <trkpt lat="45.1011" lon="5.97943">
        <ele>2231.6000976562</ele>
        <time>2024-10-15T09:27:51.000Z</time>
      </trkpt>
      <trkpt lat="45.1011" lon="5.97943">
        <ele>2231.6000976562</ele>
        <time>2024-10-15T09:27:52.000Z</time>
      </trkpt>
      <trkpt lat="45.1011" lon="5.97943">
        <ele>2231.6000976562</ele>
        <time>2024-10-15T09:27:53.000Z</time>
      </trkpt>
      <trkpt lat="45.1011" lon="5.97943">
        <ele>2231.3999023438</ele>
        <time>2024-10-15T09:27:54.000Z</time>
      </trkpt>
      <trkpt lat="45.1011" lon="5.97943">
        <ele>2231.3999023438</ele>
        <time>2024-10-15T09:27:55.000Z</time>
      </trkpt>
      <trkpt lat="45.1011" lon="5.97943">
        <ele>2231.3999023438</ele>
        <time>2024-10-15T09:27:56.000Z</time>
      </trkpt>
      <trkpt lat="45.1011" lon="5.97943">
        <ele>2231.3999023438</ele>
        <time>2024-10-15T09:27:57.000Z</time>
      </trkpt>
      <trkpt lat="45.1011" lon="5.97943">
        <ele>2231.3999023438</ele>
        <time>2024-10-15T09:27:58.000Z</time>
      </trkpt>
      <trkpt lat="45.1011" lon="5.97943">
        <ele>2231.3999023438</ele>
        <time>2024-10-15T09:27:59.000Z</time>
      </trkpt>
      <trkpt lat="45.1011" lon="5.97943">
        <ele>2231.3999023438</ele>
        <time>2024-10-15T09:28:00.000Z</time>
      </trkpt>
      <trkpt lat="45.1011" lon="5.97943">
        <ele>2231.1999511719</ele>
        <time>2024-10-15T09:28:01.000Z</time>
      </trkpt>
      <trkpt lat="45.1011" lon="5.97943">
        <ele>2231.1999511719</ele>
        <time>2024-10-15T09:28:02.000Z</time>
      </trkpt>
      <trkpt lat="45.1011" lon="5.97943">
        <ele>2231.1999511719</ele>
        <time>2024-10-15T09:28:03.000Z</time>
      </trkpt>
      <trkpt lat="45.1011" lon="5.97943">
        <ele>2231.1999511719</ele>
        <time>2024-10-15T09:28:04.000Z</time>
      </trkpt>
      <trkpt lat="45.1011" lon="5.97943">
        <ele>2231.1999511719</ele>
        <time>2024-10-15T09:28:05.000Z</time>
      </trkpt>
      <trkpt lat="45.1011" lon="5.97943">
        <ele>2231.1999511719</ele>
        <time>2024-10-15T09:28:06.000Z</time>
      </trkpt>
      <trkpt lat="45.1011" lon="5.97943">
        <ele>2231.1999511719</ele>
        <time>2024-10-15T09:28:07.000Z</time>
      </trkpt>
      <trkpt lat="45.1011" lon="5.97943">
        <ele>2231.1999511719</ele>
        <time>2024-10-15T09:28:08.000Z</time>
      </trkpt>
      <trkpt lat="45.1011" lon="5.97943">
        <ele>2231.1999511719</ele>
        <time>2024-10-15T09:28:09.000Z</time>
      </trkpt>
      <trkpt lat="45.1011" lon="5.97943">
        <ele>2231.1999511719</ele>
        <time>2024-10-15T09:28:10.000Z</time>
      </trkpt>
      <trkpt lat="45.1011" lon="5.97943">
        <ele>2231</ele>
        <time>2024-10-15T09:28:11.000Z</time>
      </trkpt>
      <trkpt lat="45.1011" lon="5.97943">
        <ele>2231</ele>
        <time>2024-10-15T09:28:12.000Z</time>
      </trkpt>
      <trkpt lat="45.1011" lon="5.97943">
        <ele>2231</ele>
        <time>2024-10-15T09:28:13.000Z</time>
      </trkpt>
      <trkpt lat="45.1011" lon="5.97943">
        <ele>2231</ele>
        <time>2024-10-15T09:28:14.000Z</time>
      </trkpt>
      <trkpt lat="45.1011" lon="5.97943">
        <ele>2231</ele>
        <time>2024-10-15T09:28:15.000Z</time>
      </trkpt>
      <trkpt lat="45.1011" lon="5.97943">
        <ele>2231</ele>
        <time>2024-10-15T09:28:16.000Z</time>
      </trkpt>
      <trkpt lat="45.1011" lon="5.97943">
        <ele>2231</ele>
        <time>2024-10-15T09:28:17.000Z</time>
      </trkpt>
      <trkpt lat="45.1011" lon="5.97943">
        <ele>2231</ele>
        <time>2024-10-15T09:28:18.000Z</time>
      </trkpt>
      <trkpt lat="45.1011" lon="5.97943">
        <ele>2230.8000488281</ele>
        <time>2024-10-15T09:28:19.000Z</time>
      </trkpt>
      <trkpt lat="45.1011" lon="5.97943">
        <ele>2230.8000488281</ele>
        <time>2024-10-15T09:28:20.000Z</time>
      </trkpt>
      <trkpt lat="45.1011" lon="5.97943">
        <ele>2230.8000488281</ele>
        <time>2024-10-15T09:28:21.000Z</time>
      </trkpt>
      <trkpt lat="45.1011" lon="5.97943">
        <ele>2230.8000488281</ele>
        <time>2024-10-15T09:28:22.000Z</time>
      </trkpt>
      <trkpt lat="45.1011" lon="5.97943">
        <ele>2230.8000488281</ele>
        <time>2024-10-15T09:28:23.000Z</time>
      </trkpt>
      <trkpt lat="45.1011" lon="5.97943">
        <ele>2230.8000488281</ele>
        <time>2024-10-15T09:28:24.000Z</time>
      </trkpt>
      <trkpt lat="45.1011" lon="5.97943">
        <ele>2230.8000488281</ele>
        <time>2024-10-15T09:28:25.000Z</time>
      </trkpt>
      <trkpt lat="45.1011" lon="5.97943">
        <ele>2230.8000488281</ele>
        <time>2024-10-15T09:28:26.000Z</time>
      </trkpt>
      <trkpt lat="45.1011" lon="5.97943">
        <ele>2230.8000488281</ele>
        <time>2024-10-15T09:28:27.000Z</time>
      </trkpt>
      <trkpt lat="45.1011" lon="5.97943">
        <ele>2230.8000488281</ele>
        <time>2024-10-15T09:28:28.000Z</time>
      </trkpt>
      <trkpt lat="45.1011" lon="5.97943">
        <ele>2230.8000488281</ele>
        <time>2024-10-15T09:28:29.000Z</time>
      </trkpt>
      <trkpt lat="45.1011" lon="5.97943">
        <ele>2230.8000488281</ele>
        <time>2024-10-15T09:28:30.000Z</time>
      </trkpt>
      <trkpt lat="45.1011" lon="5.97943">
        <ele>2230.8000488281</ele>
        <time>2024-10-15T09:28:31.000Z</time>
      </trkpt>
      <trkpt lat="45.1011" lon="5.97943">
        <ele>2230.8000488281</ele>
        <time>2024-10-15T09:28:32.000Z</time>
      </trkpt>
      <trkpt lat="45.1011" lon="5.97943">
        <ele>2230.8000488281</ele>
        <time>2024-10-15T09:28:33.000Z</time>
      </trkpt>
      <trkpt lat="45.1011" lon="5.97943">
        <ele>2230.8000488281</ele>
        <time>2024-10-15T09:28:34.000Z</time>
      </trkpt>
      <trkpt lat="45.1011" lon="5.97943">
        <ele>2230.8000488281</ele>
        <time>2024-10-15T09:28:35.000Z</time>
      </trkpt>
      <trkpt lat="45.1011" lon="5.97943">
        <ele>2230.8000488281</ele>
        <time>2024-10-15T09:28:36.000Z</time>
      </trkpt>
      <trkpt lat="45.1011" lon="5.97943">
        <ele>2230.8000488281</ele>
        <time>2024-10-15T09:28:37.000Z</time>
      </trkpt>
      <trkpt lat="45.1011" lon="5.97943">
        <ele>2230.8000488281</ele>
        <time>2024-10-15T09:28:38.000Z</time>
      </trkpt>
      <trkpt lat="45.1011" lon="5.97943">
        <ele>2230.8000488281</ele>
        <time>2024-10-15T09:28:39.000Z</time>
      </trkpt>
      <trkpt lat="45.1011" lon="5.97943">
        <ele>2230.6000976562</ele>
        <time>2024-10-15T09:28:40.000Z</time>
      </trkpt>
      <trkpt lat="45.1011" lon="5.97943">
        <ele>2230.6000976562</ele>
        <time>2024-10-15T09:28:41.000Z</time>
      </trkpt>
      <trkpt lat="45.1011" lon="5.97943">
        <ele>2230.6000976562</ele>
        <time>2024-10-15T09:28:42.000Z</time>
      </trkpt>
      <trkpt lat="45.1011" lon="5.97943">
        <ele>2230.6000976562</ele>
        <time>2024-10-15T09:28:43.000Z</time>
      </trkpt>
      <trkpt lat="45.1011" lon="5.97943">
        <ele>2230.6000976562</ele>
        <time>2024-10-15T09:28:44.000Z</time>
      </trkpt>
      <trkpt lat="45.1011" lon="5.97944">
        <ele>2230.6000976562</ele>
        <time>2024-10-15T09:28:45.000Z</time>
      </trkpt>
      <trkpt lat="45.1011" lon="5.97944">
        <ele>2230.6000976562</ele>
        <time>2024-10-15T09:28:46.000Z</time>
      </trkpt>
      <trkpt lat="45.1011" lon="5.97944">
        <ele>2230.6000976562</ele>
        <time>2024-10-15T09:28:47.000Z</time>
      </trkpt>
      <trkpt lat="45.1011" lon="5.97944">
        <ele>2230.6000976562</ele>
        <time>2024-10-15T09:28:48.000Z</time>
      </trkpt>
      <trkpt lat="45.1011" lon="5.97944">
        <ele>2230.6000976562</ele>
        <time>2024-10-15T09:28:49.000Z</time>
      </trkpt>
      <trkpt lat="45.1011" lon="5.97944">
        <ele>2230.6000976562</ele>
        <time>2024-10-15T09:28:50.000Z</time>
      </trkpt>
      <trkpt lat="45.1011" lon="5.97944">
        <ele>2231</ele>
        <time>2024-10-15T09:28:51.000Z</time>
      </trkpt>
      <trkpt lat="45.1011" lon="5.97944">
        <ele>2231.3999023438</ele>
        <time>2024-10-15T09:28:52.000Z</time>
      </trkpt>
      <trkpt lat="45.1011" lon="5.97944">
        <ele>2231.6000976562</ele>
        <time>2024-10-15T09:28:53.000Z</time>
      </trkpt>
      <trkpt lat="45.1011" lon="5.97944">
        <ele>2232.1999511719</ele>
        <time>2024-10-15T09:28:54.000Z</time>
      </trkpt>
      <trkpt lat="45.1011" lon="5.97944">
        <ele>2232.3999023438</ele>
        <time>2024-10-15T09:28:55.000Z</time>
      </trkpt>
      <trkpt lat="45.1011" lon="5.97944">
        <ele>2232.6000976562</ele>
        <time>2024-10-15T09:28:56.000Z</time>
      </trkpt>
      <trkpt lat="45.1011" lon="5.97944">
        <ele>2232.6000976562</ele>
        <time>2024-10-15T09:28:57.000Z</time>
      </trkpt>
      <trkpt lat="45.1011" lon="5.97944">
        <ele>2232.8000488281</ele>
        <time>2024-10-15T09:28:58.000Z</time>
      </trkpt>
      <trkpt lat="45.1011" lon="5.97944">
        <ele>2232.8000488281</ele>
        <time>2024-10-15T09:28:59.000Z</time>
      </trkpt>
      <trkpt lat="45.1011" lon="5.97944">
        <ele>2233</ele>
        <time>2024-10-15T09:29:00.000Z</time>
      </trkpt>
      <trkpt lat="45.1011" lon="5.97944">
        <ele>2233.3999023438</ele>
        <time>2024-10-15T09:29:01.000Z</time>
      </trkpt>
      <trkpt lat="45.1011" lon="5.97944">
        <ele>2233.6000976562</ele>
        <time>2024-10-15T09:29:02.000Z</time>
      </trkpt>
      <trkpt lat="45.1011" lon="5.97944">
        <ele>2234</ele>
        <time>2024-10-15T09:29:03.000Z</time>
      </trkpt>
      <trkpt lat="45.1011" lon="5.97944">
        <ele>2234.1999511719</ele>
        <time>2024-10-15T09:29:04.000Z</time>
      </trkpt>
      <trkpt lat="45.1011" lon="5.97944">
        <ele>2234.1999511719</ele>
        <time>2024-10-15T09:29:05.000Z</time>
      </trkpt>
      <trkpt lat="45.1011" lon="5.97943">
        <ele>2234.1999511719</ele>
        <time>2024-10-15T09:29:06.000Z</time>
      </trkpt>
      <trkpt lat="45.1011" lon="5.97943">
        <ele>2234.6000976562</ele>
        <time>2024-10-15T09:29:07.000Z</time>
      </trkpt>
      <trkpt lat="45.1011" lon="5.97943">
        <ele>2235</ele>
        <time>2024-10-15T09:29:08.000Z</time>
      </trkpt>
      <trkpt lat="45.1011" lon="5.97943">
        <ele>2235.1999511719</ele>
        <time>2024-10-15T09:29:09.000Z</time>
      </trkpt>
      <trkpt lat="45.1011" lon="5.97943">
        <ele>2235.6000976562</ele>
        <time>2024-10-15T09:29:10.000Z</time>
      </trkpt>
      <trkpt lat="45.1011" lon="5.97943">
        <ele>2235.6000976562</ele>
        <time>2024-10-15T09:29:11.000Z</time>
      </trkpt>
      <trkpt lat="45.1011" lon="5.97943">
        <ele>2235.6000976562</ele>
        <time>2024-10-15T09:29:12.000Z</time>
      </trkpt>
      <trkpt lat="45.1011" lon="5.97943">
        <ele>2235.6000976562</ele>
        <time>2024-10-15T09:29:13.000Z</time>
      </trkpt>
      <trkpt lat="45.1011" lon="5.97943">
        <ele>2235.6000976562</ele>
        <time>2024-10-15T09:29:14.000Z</time>
      </trkpt>
      <trkpt lat="45.1011" lon="5.97943">
        <ele>2235.6000976562</ele>
        <time>2024-10-15T09:29:15.000Z</time>
      </trkpt>
      <trkpt lat="45.1011" lon="5.97943">
        <ele>2235.6000976562</ele>
        <time>2024-10-15T09:29:16.000Z</time>
      </trkpt>
      <trkpt lat="45.1011" lon="5.97943">
        <ele>2235.6000976562</ele>
        <time>2024-10-15T09:29:17.000Z</time>
      </trkpt>
      <trkpt lat="45.1011" lon="5.97943">
        <ele>2235.6000976562</ele>
        <time>2024-10-15T09:29:18.000Z</time>
      </trkpt>
      <trkpt lat="45.1011" lon="5.97943">
        <ele>2235.6000976562</ele>
        <time>2024-10-15T09:29:19.000Z</time>
      </trkpt>
      <trkpt lat="45.1011" lon="5.97943">
        <ele>2235.6000976562</ele>
        <time>2024-10-15T09:29:20.000Z</time>
      </trkpt>
      <trkpt lat="45.1011" lon="5.97943">
        <ele>2235.6000976562</ele>
        <time>2024-10-15T09:29:21.000Z</time>
      </trkpt>
      <trkpt lat="45.1011" lon="5.97943">
        <ele>2235.6000976562</ele>
        <time>2024-10-15T09:29:22.000Z</time>
      </trkpt>
      <trkpt lat="45.1011" lon="5.97943">
        <ele>2235.6000976562</ele>
        <time>2024-10-15T09:29:23.000Z</time>
      </trkpt>
      <trkpt lat="45.1011" lon="5.97943">
        <ele>2235.6000976562</ele>
        <time>2024-10-15T09:29:24.000Z</time>
      </trkpt>
      <trkpt lat="45.1011" lon="5.97943">
        <ele>2235.6000976562</ele>
        <time>2024-10-15T09:29:25.000Z</time>
      </trkpt>
      <trkpt lat="45.1011" lon="5.97943">
        <ele>2235.6000976562</ele>
        <time>2024-10-15T09:29:26.000Z</time>
      </trkpt>
      <trkpt lat="45.1011" lon="5.97943">
        <ele>2235.6000976562</ele>
        <time>2024-10-15T09:29:27.000Z</time>
      </trkpt>
      <trkpt lat="45.1011" lon="5.97943">
        <ele>2235.6000976562</ele>
        <time>2024-10-15T09:29:28.000Z</time>
      </trkpt>
      <trkpt lat="45.1011" lon="5.97943">
        <ele>2235.6000976562</ele>
        <time>2024-10-15T09:29:29.000Z</time>
      </trkpt>
      <trkpt lat="45.1011" lon="5.97943">
        <ele>2235.3999023438</ele>
        <time>2024-10-15T09:29:30.000Z</time>
      </trkpt>
      <trkpt lat="45.10111" lon="5.97943">
        <ele>2235.3999023438</ele>
        <time>2024-10-15T09:29:31.000Z</time>
      </trkpt>
      <trkpt lat="45.10111" lon="5.97943">
        <ele>2235.3999023438</ele>
        <time>2024-10-15T09:29:32.000Z</time>
      </trkpt>
      <trkpt lat="45.10111" lon="5.97943">
        <ele>2235.3999023438</ele>
        <time>2024-10-15T09:29:33.000Z</time>
      </trkpt>
      <trkpt lat="45.10111" lon="5.97943">
        <ele>2235.3999023438</ele>
        <time>2024-10-15T09:29:34.000Z</time>
      </trkpt>
      <trkpt lat="45.10111" lon="5.97943">
        <ele>2235.3999023438</ele>
        <time>2024-10-15T09:29:35.000Z</time>
      </trkpt>
      <trkpt lat="45.10111" lon="5.97943">
        <ele>2235.3999023438</ele>
        <time>2024-10-15T09:29:36.000Z</time>
      </trkpt>
      <trkpt lat="45.10111" lon="5.97943">
        <ele>2235.3999023438</ele>
        <time>2024-10-15T09:29:37.000Z</time>
      </trkpt>
      <trkpt lat="45.10111" lon="5.97943">
        <ele>2235.3999023438</ele>
        <time>2024-10-15T09:29:38.000Z</time>
      </trkpt>
      <trkpt lat="45.10111" lon="5.97943">
        <ele>2235.3999023438</ele>
        <time>2024-10-15T09:29:39.000Z</time>
      </trkpt>
      <trkpt lat="45.10111" lon="5.97943">
        <ele>2235.3999023438</ele>
        <time>2024-10-15T09:29:40.000Z</time>
      </trkpt>
      <trkpt lat="45.10111" lon="5.97943">
        <ele>2235.3999023438</ele>
        <time>2024-10-15T09:29:41.000Z</time>
      </trkpt>
      <trkpt lat="45.10111" lon="5.97943">
        <ele>2235.3999023438</ele>
        <time>2024-10-15T09:29:42.000Z</time>
      </trkpt>
      <trkpt lat="45.10111" lon="5.97943">
        <ele>2235.6000976562</ele>
        <time>2024-10-15T09:29:43.000Z</time>
      </trkpt>
      <trkpt lat="45.10111" lon="5.97943">
        <ele>2236</ele>
        <time>2024-10-15T09:29:44.000Z</time>
      </trkpt>
      <trkpt lat="45.10111" lon="5.97943">
        <ele>2236.1999511719</ele>
        <time>2024-10-15T09:29:45.000Z</time>
      </trkpt>
      <trkpt lat="45.10111" lon="5.97943">
        <ele>2236.3999023438</ele>
        <time>2024-10-15T09:29:46.000Z</time>
      </trkpt>
      <trkpt lat="45.10111" lon="5.97943">
        <ele>2236.6000976562</ele>
        <time>2024-10-15T09:29:47.000Z</time>
      </trkpt>
      <trkpt lat="45.10111" lon="5.97943">
        <ele>2236.8000488281</ele>
        <time>2024-10-15T09:29:48.000Z</time>
      </trkpt>
      <trkpt lat="45.10111" lon="5.97943">
        <ele>2236.8000488281</ele>
        <time>2024-10-15T09:29:49.000Z</time>
      </trkpt>
      <trkpt lat="45.10111" lon="5.97943">
        <ele>2237</ele>
        <time>2024-10-15T09:29:50.000Z</time>
      </trkpt>
      <trkpt lat="45.10111" lon="5.97943">
        <ele>2237</ele>
        <time>2024-10-15T09:29:51.000Z</time>
      </trkpt>
      <trkpt lat="45.10111" lon="5.97943">
        <ele>2237.1999511719</ele>
        <time>2024-10-15T09:29:52.000Z</time>
      </trkpt>
      <trkpt lat="45.10111" lon="5.97943">
        <ele>2237.1999511719</ele>
        <time>2024-10-15T09:29:53.000Z</time>
      </trkpt>
      <trkpt lat="45.10111" lon="5.97943">
        <ele>2237.1999511719</ele>
        <time>2024-10-15T09:29:54.000Z</time>
      </trkpt>
      <trkpt lat="45.10111" lon="5.97943">
        <ele>2237.3999023438</ele>
        <time>2024-10-15T09:29:55.000Z</time>
      </trkpt>
      <trkpt lat="45.10111" lon="5.97943">
        <ele>2237.6000976562</ele>
        <time>2024-10-15T09:29:56.000Z</time>
      </trkpt>
      <trkpt lat="45.10111" lon="5.97943">
        <ele>2237.8000488281</ele>
        <time>2024-10-15T09:29:57.000Z</time>
      </trkpt>
      <trkpt lat="45.10111" lon="5.97943">
        <ele>2238</ele>
        <time>2024-10-15T09:29:58.000Z</time>
      </trkpt>
      <trkpt lat="45.10111" lon="5.97943">
        <ele>2238.3999023438</ele>
        <time>2024-10-15T09:29:59.000Z</time>
      </trkpt>
      <trkpt lat="45.10111" lon="5.97943">
        <ele>2238.3999023438</ele>
        <time>2024-10-15T09:30:00.000Z</time>
      </trkpt>
      <trkpt lat="45.10111" lon="5.97943">
        <ele>2238.3999023438</ele>
        <time>2024-10-15T09:30:01.000Z</time>
      </trkpt>
      <trkpt lat="45.10111" lon="5.97943">
        <ele>2238.6000976562</ele>
        <time>2024-10-15T09:30:02.000Z</time>
      </trkpt>
      <trkpt lat="45.10111" lon="5.97943">
        <ele>2238.6000976562</ele>
        <time>2024-10-15T09:30:03.000Z</time>
      </trkpt>
      <trkpt lat="45.10111" lon="5.97943">
        <ele>2238.6000976562</ele>
        <time>2024-10-15T09:30:04.000Z</time>
      </trkpt>
      <trkpt lat="45.10111" lon="5.97943">
        <ele>2238.8000488281</ele>
        <time>2024-10-15T09:30:05.000Z</time>
      </trkpt>
      <trkpt lat="45.10111" lon="5.97943">
        <ele>2238.8000488281</ele>
        <time>2024-10-15T09:30:06.000Z</time>
      </trkpt>
      <trkpt lat="45.10111" lon="5.97943">
        <ele>2239</ele>
        <time>2024-10-15T09:30:07.000Z</time>
      </trkpt>
      <trkpt lat="45.10111" lon="5.97943">
        <ele>2239.1999511719</ele>
        <time>2024-10-15T09:30:08.000Z</time>
      </trkpt>
      <trkpt lat="45.10111" lon="5.97943">
        <ele>2239.6000976562</ele>
        <time>2024-10-15T09:30:09.000Z</time>
      </trkpt>
      <trkpt lat="45.10111" lon="5.97943">
        <ele>2239.8000488281</ele>
        <time>2024-10-15T09:30:10.000Z</time>
      </trkpt>
      <trkpt lat="45.10111" lon="5.97943">
        <ele>2240.6000976562</ele>
        <time>2024-10-15T09:30:11.000Z</time>
      </trkpt>
      <trkpt lat="45.10111" lon="5.97943">
        <ele>2240.6000976562</ele>
        <time>2024-10-15T09:30:12.000Z</time>
      </trkpt>
      <trkpt lat="45.10111" lon="5.97943">
        <ele>2240.6000976562</ele>
        <time>2024-10-15T09:30:13.000Z</time>
      </trkpt>
      <trkpt lat="45.10111" lon="5.97943">
        <ele>2241</ele>
        <time>2024-10-15T09:30:14.000Z</time>
      </trkpt>
      <trkpt lat="45.10111" lon="5.97943">
        <ele>2241.1999511719</ele>
        <time>2024-10-15T09:30:15.000Z</time>
      </trkpt>
      <trkpt lat="45.10111" lon="5.97943">
        <ele>2241.3999023438</ele>
        <time>2024-10-15T09:30:16.000Z</time>
      </trkpt>
      <trkpt lat="45.10111" lon="5.97943">
        <ele>2241.3999023438</ele>
        <time>2024-10-15T09:30:17.000Z</time>
      </trkpt>
      <trkpt lat="45.10111" lon="5.97943">
        <ele>2241.3999023438</ele>
        <time>2024-10-15T09:30:18.000Z</time>
      </trkpt>
      <trkpt lat="45.10111" lon="5.97943">
        <ele>2241.6000976562</ele>
        <time>2024-10-15T09:30:19.000Z</time>
      </trkpt>
      <trkpt lat="45.10111" lon="5.97943">
        <ele>2241.8000488281</ele>
        <time>2024-10-15T09:30:20.000Z</time>
      </trkpt>
      <trkpt lat="45.10111" lon="5.97943">
        <ele>2242</ele>
        <time>2024-10-15T09:30:21.000Z</time>
      </trkpt>
      <trkpt lat="45.10111" lon="5.97943">
        <ele>2242.3999023438</ele>
        <time>2024-10-15T09:30:22.000Z</time>
      </trkpt>
      <trkpt lat="45.10111" lon="5.97943">
        <ele>2242.8000488281</ele>
        <time>2024-10-15T09:30:23.000Z</time>
      </trkpt>
      <trkpt lat="45.10111" lon="5.97943">
        <ele>2242.8000488281</ele>
        <time>2024-10-15T09:30:24.000Z</time>
      </trkpt>
      <trkpt lat="45.10111" lon="5.97943">
        <ele>2243</ele>
        <time>2024-10-15T09:30:25.000Z</time>
      </trkpt>
      <trkpt lat="45.10111" lon="5.97943">
        <ele>2243</ele>
        <time>2024-10-15T09:30:26.000Z</time>
      </trkpt>
      <trkpt lat="45.10111" lon="5.97943">
        <ele>2243.1999511719</ele>
        <time>2024-10-15T09:30:27.000Z</time>
      </trkpt>
      <trkpt lat="45.10111" lon="5.97943">
        <ele>2243.1999511719</ele>
        <time>2024-10-15T09:30:28.000Z</time>
      </trkpt>
      <trkpt lat="45.10111" lon="5.97942">
        <ele>2243.1999511719</ele>
        <time>2024-10-15T09:30:29.000Z</time>
      </trkpt>
      <trkpt lat="45.10111" lon="5.97942">
        <ele>2243.1999511719</ele>
        <time>2024-10-15T09:30:30.000Z</time>
      </trkpt>
      <trkpt lat="45.10111" lon="5.97942">
        <ele>2243.1999511719</ele>
        <time>2024-10-15T09:30:31.000Z</time>
      </trkpt>
      <trkpt lat="45.10111" lon="5.97942">
        <ele>2243.1999511719</ele>
        <time>2024-10-15T09:30:32.000Z</time>
      </trkpt>
      <trkpt lat="45.10111" lon="5.97942">
        <ele>2243.3999023438</ele>
        <time>2024-10-15T09:30:33.000Z</time>
      </trkpt>
      <trkpt lat="45.10111" lon="5.97942">
        <ele>2243.3999023438</ele>
        <time>2024-10-15T09:30:34.000Z</time>
      </trkpt>
      <trkpt lat="45.10111" lon="5.97942">
        <ele>2243.6000976562</ele>
        <time>2024-10-15T09:30:35.000Z</time>
      </trkpt>
      <trkpt lat="45.10111" lon="5.9794">
        <ele>2243.6000976562</ele>
        <time>2024-10-15T09:30:36.000Z</time>
      </trkpt>
      <trkpt lat="45.10111" lon="5.97938">
        <ele>2243.8000488281</ele>
        <time>2024-10-15T09:30:37.000Z</time>
      </trkpt>
      <trkpt lat="45.10112" lon="5.97935">
        <ele>2243.8000488281</ele>
        <time>2024-10-15T09:30:38.000Z</time>
      </trkpt>
      <trkpt lat="45.10112" lon="5.97933">
        <ele>2243.8000488281</ele>
        <time>2024-10-15T09:30:39.000Z</time>
      </trkpt>
      <trkpt lat="45.10112" lon="5.9793">
        <ele>2244</ele>
        <time>2024-10-15T09:30:40.000Z</time>
      </trkpt>
      <trkpt lat="45.10112" lon="5.97927">
        <ele>2244.1999511719</ele>
        <time>2024-10-15T09:30:41.000Z</time>
      </trkpt>
      <trkpt lat="45.10112" lon="5.97925">
        <ele>2244.3999023438</ele>
        <time>2024-10-15T09:30:42.000Z</time>
      </trkpt>
      <trkpt lat="45.10113" lon="5.97922">
        <ele>2244.6000976562</ele>
        <time>2024-10-15T09:30:43.000Z</time>
      </trkpt>
      <trkpt lat="45.10113" lon="5.9792">
        <ele>2244.8000488281</ele>
        <time>2024-10-15T09:30:44.000Z</time>
      </trkpt>
      <trkpt lat="45.10113" lon="5.9792">
        <ele>2244.8000488281</ele>
        <time>2024-10-15T09:30:45.000Z</time>
      </trkpt>
      <trkpt lat="45.10113" lon="5.9792">
        <ele>2244.8000488281</ele>
        <time>2024-10-15T09:30:46.000Z</time>
      </trkpt>
      <trkpt lat="45.10113" lon="5.9792">
        <ele>2244.8000488281</ele>
        <time>2024-10-15T09:30:47.000Z</time>
      </trkpt>
      <trkpt lat="45.10113" lon="5.9792">
        <ele>2244.8000488281</ele>
        <time>2024-10-15T09:30:48.000Z</time>
      </trkpt>
      <trkpt lat="45.10113" lon="5.9792">
        <ele>2244.8000488281</ele>
        <time>2024-10-15T09:30:49.000Z</time>
      </trkpt>
      <trkpt lat="45.10113" lon="5.9792">
        <ele>2244.8000488281</ele>
        <time>2024-10-15T09:30:50.000Z</time>
      </trkpt>
      <trkpt lat="45.10113" lon="5.97919">
        <ele>2244.8000488281</ele>
        <time>2024-10-15T09:30:51.000Z</time>
      </trkpt>
      <trkpt lat="45.10113" lon="5.97919">
        <ele>2245</ele>
        <time>2024-10-15T09:30:52.000Z</time>
      </trkpt>
      <trkpt lat="45.10113" lon="5.97919">
        <ele>2245.3999023438</ele>
        <time>2024-10-15T09:30:53.000Z</time>
      </trkpt>
      <trkpt lat="45.10113" lon="5.97919">
        <ele>2245.3999023438</ele>
        <time>2024-10-15T09:30:54.000Z</time>
      </trkpt>
      <trkpt lat="45.10113" lon="5.97919">
        <ele>2245.6000976562</ele>
        <time>2024-10-15T09:30:55.000Z</time>
      </trkpt>
      <trkpt lat="45.10113" lon="5.97918">
        <ele>2246.1999511719</ele>
        <time>2024-10-15T09:30:56.000Z</time>
      </trkpt>
      <trkpt lat="45.10113" lon="5.97918">
        <ele>2246.3999023438</ele>
        <time>2024-10-15T09:30:57.000Z</time>
      </trkpt>
      <trkpt lat="45.10113" lon="5.97918">
        <ele>2246.6000976562</ele>
        <time>2024-10-15T09:30:58.000Z</time>
      </trkpt>
      <trkpt lat="45.10113" lon="5.97918">
        <ele>2246.6000976562</ele>
        <time>2024-10-15T09:30:59.000Z</time>
      </trkpt>
      <trkpt lat="45.10113" lon="5.97917">
        <ele>2246.6000976562</ele>
        <time>2024-10-15T09:31:00.000Z</time>
      </trkpt>
      <trkpt lat="45.10113" lon="5.97917">
        <ele>2246.8000488281</ele>
        <time>2024-10-15T09:31:01.000Z</time>
      </trkpt>
      <trkpt lat="45.10113" lon="5.97917">
        <ele>2246.8000488281</ele>
        <time>2024-10-15T09:31:02.000Z</time>
      </trkpt>
      <trkpt lat="45.10113" lon="5.97917">
        <ele>2247</ele>
        <time>2024-10-15T09:31:03.000Z</time>
      </trkpt>
      <trkpt lat="45.10113" lon="5.97917">
        <ele>2247.1999511719</ele>
        <time>2024-10-15T09:31:04.000Z</time>
      </trkpt>
      <trkpt lat="45.10113" lon="5.97916">
        <ele>2247.6000976562</ele>
        <time>2024-10-15T09:31:05.000Z</time>
      </trkpt>
      <trkpt lat="45.10113" lon="5.97916">
        <ele>2247.8000488281</ele>
        <time>2024-10-15T09:31:06.000Z</time>
      </trkpt>
      <trkpt lat="45.10113" lon="5.97916">
        <ele>2247.8000488281</ele>
        <time>2024-10-15T09:31:07.000Z</time>
      </trkpt>
      <trkpt lat="45.10112" lon="5.97916">
        <ele>2247.8000488281</ele>
        <time>2024-10-15T09:31:08.000Z</time>
      </trkpt>
      <trkpt lat="45.10112" lon="5.97916">
        <ele>2247.8000488281</ele>
        <time>2024-10-15T09:31:09.000Z</time>
      </trkpt>
      <trkpt lat="45.10112" lon="5.97915">
        <ele>2247.8000488281</ele>
        <time>2024-10-15T09:31:10.000Z</time>
      </trkpt>
      <trkpt lat="45.10112" lon="5.97915">
        <ele>2247.8000488281</ele>
        <time>2024-10-15T09:31:11.000Z</time>
      </trkpt>
      <trkpt lat="45.10112" lon="5.97915">
        <ele>2247.8000488281</ele>
        <time>2024-10-15T09:31:12.000Z</time>
      </trkpt>
      <trkpt lat="45.10112" lon="5.97915">
        <ele>2247.8000488281</ele>
        <time>2024-10-15T09:31:13.000Z</time>
      </trkpt>
      <trkpt lat="45.10112" lon="5.97915">
        <ele>2247.8000488281</ele>
        <time>2024-10-15T09:31:14.000Z</time>
      </trkpt>
      <trkpt lat="45.10111" lon="5.97915">
        <ele>2247.8000488281</ele>
        <time>2024-10-15T09:31:15.000Z</time>
      </trkpt>
      <trkpt lat="45.10111" lon="5.97915">
        <ele>2247.8000488281</ele>
        <time>2024-10-15T09:31:16.000Z</time>
      </trkpt>
      <trkpt lat="45.10111" lon="5.97914">
        <ele>2248.1999511719</ele>
        <time>2024-10-15T09:31:17.000Z</time>
      </trkpt>
      <trkpt lat="45.10111" lon="5.97914">
        <ele>2248.6000976562</ele>
        <time>2024-10-15T09:31:18.000Z</time>
      </trkpt>
      <trkpt lat="45.10111" lon="5.97914">
        <ele>2248.6000976562</ele>
        <time>2024-10-15T09:31:19.000Z</time>
      </trkpt>
      <trkpt lat="45.10111" lon="5.97914">
        <ele>2249</ele>
        <time>2024-10-15T09:31:20.000Z</time>
      </trkpt>
      <trkpt lat="45.10111" lon="5.97914">
        <ele>2249</ele>
        <time>2024-10-15T09:31:21.000Z</time>
      </trkpt>
      <trkpt lat="45.10111" lon="5.97914">
        <ele>2249.1999511719</ele>
        <time>2024-10-15T09:31:22.000Z</time>
      </trkpt>
      <trkpt lat="45.10111" lon="5.97914">
        <ele>2249.3999023438</ele>
        <time>2024-10-15T09:31:23.000Z</time>
      </trkpt>
      <trkpt lat="45.10111" lon="5.97914">
        <ele>2249.8000488281</ele>
        <time>2024-10-15T09:31:24.000Z</time>
      </trkpt>
      <trkpt lat="45.10111" lon="5.97913">
        <ele>2250</ele>
        <time>2024-10-15T09:31:25.000Z</time>
      </trkpt>
      <trkpt lat="45.10111" lon="5.97913">
        <ele>2250.1999511719</ele>
        <time>2024-10-15T09:31:26.000Z</time>
      </trkpt>
      <trkpt lat="45.10111" lon="5.97913">
        <ele>2250.1999511719</ele>
        <time>2024-10-15T09:31:27.000Z</time>
      </trkpt>
      <trkpt lat="45.10111" lon="5.97913">
        <ele>2250.1999511719</ele>
        <time>2024-10-15T09:31:28.000Z</time>
      </trkpt>
      <trkpt lat="45.10111" lon="5.97913">
        <ele>2250.1999511719</ele>
        <time>2024-10-15T09:31:29.000Z</time>
      </trkpt>
      <trkpt lat="45.10111" lon="5.97913">
        <ele>2250.1999511719</ele>
        <time>2024-10-15T09:31:30.000Z</time>
      </trkpt>
      <trkpt lat="45.10111" lon="5.97913">
        <ele>2250.1999511719</ele>
        <time>2024-10-15T09:31:31.000Z</time>
      </trkpt>
      <trkpt lat="45.10111" lon="5.97912">
        <ele>2250.1999511719</ele>
        <time>2024-10-15T09:31:32.000Z</time>
      </trkpt>
      <trkpt lat="45.10111" lon="5.97912">
        <ele>2250.1999511719</ele>
        <time>2024-10-15T09:31:33.000Z</time>
      </trkpt>
      <trkpt lat="45.10111" lon="5.97912">
        <ele>2250.1999511719</ele>
        <time>2024-10-15T09:31:34.000Z</time>
      </trkpt>
      <trkpt lat="45.10111" lon="5.97911">
        <ele>2250.3999023438</ele>
        <time>2024-10-15T09:31:35.000Z</time>
      </trkpt>
      <trkpt lat="45.10111" lon="5.97911">
        <ele>2250.3999023438</ele>
        <time>2024-10-15T09:31:36.000Z</time>
      </trkpt>
      <trkpt lat="45.10111" lon="5.97911">
        <ele>2250.3999023438</ele>
        <time>2024-10-15T09:31:37.000Z</time>
      </trkpt>
      <trkpt lat="45.10111" lon="5.97911">
        <ele>2250.6000976562</ele>
        <time>2024-10-15T09:31:38.000Z</time>
      </trkpt>
      <trkpt lat="45.10111" lon="5.97911">
        <ele>2250.6000976562</ele>
        <time>2024-10-15T09:31:39.000Z</time>
      </trkpt>
      <trkpt lat="45.10112" lon="5.97911">
        <ele>2250.8000488281</ele>
        <time>2024-10-15T09:31:40.000Z</time>
      </trkpt>
      <trkpt lat="45.10112" lon="5.9791">
        <ele>2251</ele>
        <time>2024-10-15T09:31:41.000Z</time>
      </trkpt>
      <trkpt lat="45.10112" lon="5.9791">
        <ele>2251.1999511719</ele>
        <time>2024-10-15T09:31:42.000Z</time>
      </trkpt>
      <trkpt lat="45.10112" lon="5.9791">
        <ele>2251.3999023438</ele>
        <time>2024-10-15T09:31:43.000Z</time>
      </trkpt>
      <trkpt lat="45.10112" lon="5.9791">
        <ele>2251.6000976562</ele>
        <time>2024-10-15T09:31:44.000Z</time>
      </trkpt>
      <trkpt lat="45.10113" lon="5.9791">
        <ele>2251.8000488281</ele>
        <time>2024-10-15T09:31:45.000Z</time>
      </trkpt>
      <trkpt lat="45.10113" lon="5.9791">
        <ele>2251.8000488281</ele>
        <time>2024-10-15T09:31:46.000Z</time>
      </trkpt>
      <trkpt lat="45.10113" lon="5.97909">
        <ele>2252</ele>
        <time>2024-10-15T09:31:47.000Z</time>
      </trkpt>
      <trkpt lat="45.10113" lon="5.97909">
        <ele>2252.1999511719</ele>
        <time>2024-10-15T09:31:48.000Z</time>
      </trkpt>
      <trkpt lat="45.10113" lon="5.97909">
        <ele>2252.1999511719</ele>
        <time>2024-10-15T09:31:49.000Z</time>
      </trkpt>
      <trkpt lat="45.10113" lon="5.97908">
        <ele>2252.6000976562</ele>
        <time>2024-10-15T09:31:50.000Z</time>
      </trkpt>
      <trkpt lat="45.10113" lon="5.97908">
        <ele>2252.8000488281</ele>
        <time>2024-10-15T09:31:51.000Z</time>
      </trkpt>
      <trkpt lat="45.10113" lon="5.97907">
        <ele>2252.8000488281</ele>
        <time>2024-10-15T09:31:52.000Z</time>
      </trkpt>
      <trkpt lat="45.10113" lon="5.97906">
        <ele>2253.1999511719</ele>
        <time>2024-10-15T09:31:53.000Z</time>
      </trkpt>
      <trkpt lat="45.10113" lon="5.97906">
        <ele>2253.1999511719</ele>
        <time>2024-10-15T09:31:54.000Z</time>
      </trkpt>
      <trkpt lat="45.10113" lon="5.97905">
        <ele>2253.6000976562</ele>
        <time>2024-10-15T09:31:55.000Z</time>
      </trkpt>
      <trkpt lat="45.10113" lon="5.97904">
        <ele>2253.6000976562</ele>
        <time>2024-10-15T09:31:56.000Z</time>
      </trkpt>
      <trkpt lat="45.10114" lon="5.97904">
        <ele>2253.8000488281</ele>
        <time>2024-10-15T09:31:57.000Z</time>
      </trkpt>
      <trkpt lat="45.10114" lon="5.97903">
        <ele>2253.8000488281</ele>
        <time>2024-10-15T09:31:58.000Z</time>
      </trkpt>
      <trkpt lat="45.10114" lon="5.97902">
        <ele>2254</ele>
        <time>2024-10-15T09:31:59.000Z</time>
      </trkpt>
      <trkpt lat="45.10114" lon="5.97902">
        <ele>2254.1999511719</ele>
        <time>2024-10-15T09:32:00.000Z</time>
      </trkpt>
      <trkpt lat="45.10114" lon="5.97901">
        <ele>2254.6000976562</ele>
        <time>2024-10-15T09:32:01.000Z</time>
      </trkpt>
      <trkpt lat="45.10114" lon="5.97901">
        <ele>2254.6000976562</ele>
        <time>2024-10-15T09:32:02.000Z</time>
      </trkpt>
      <trkpt lat="45.10114" lon="5.979">
        <ele>2255</ele>
        <time>2024-10-15T09:32:03.000Z</time>
      </trkpt>
      <trkpt lat="45.10114" lon="5.97899">
        <ele>2255.1999511719</ele>
        <time>2024-10-15T09:32:04.000Z</time>
      </trkpt>
      <trkpt lat="45.10115" lon="5.97898">
        <ele>2255.8000488281</ele>
        <time>2024-10-15T09:32:05.000Z</time>
      </trkpt>
      <trkpt lat="45.10115" lon="5.97898">
        <ele>2256</ele>
        <time>2024-10-15T09:32:06.000Z</time>
      </trkpt>
      <trkpt lat="45.10115" lon="5.97897">
        <ele>2256.1999511719</ele>
        <time>2024-10-15T09:32:07.000Z</time>
      </trkpt>
      <trkpt lat="45.10115" lon="5.97896">
        <ele>2256.3999023438</ele>
        <time>2024-10-15T09:32:08.000Z</time>
      </trkpt>
      <trkpt lat="45.10115" lon="5.97896">
        <ele>2256.8000488281</ele>
        <time>2024-10-15T09:32:09.000Z</time>
      </trkpt>
      <trkpt lat="45.10115" lon="5.97896">
        <ele>2256.8000488281</ele>
        <time>2024-10-15T09:32:10.000Z</time>
      </trkpt>
      <trkpt lat="45.10115" lon="5.97895">
        <ele>2257.1999511719</ele>
        <time>2024-10-15T09:32:11.000Z</time>
      </trkpt>
      <trkpt lat="45.10115" lon="5.97895">
        <ele>2257.3999023438</ele>
        <time>2024-10-15T09:32:12.000Z</time>
      </trkpt>
      <trkpt lat="45.10115" lon="5.97895">
        <ele>2257.3999023438</ele>
        <time>2024-10-15T09:32:13.000Z</time>
      </trkpt>
      <trkpt lat="45.10115" lon="5.97894">
        <ele>2257.6000976562</ele>
        <time>2024-10-15T09:32:14.000Z</time>
      </trkpt>
      <trkpt lat="45.10115" lon="5.97894">
        <ele>2257.8000488281</ele>
        <time>2024-10-15T09:32:15.000Z</time>
      </trkpt>
      <trkpt lat="45.10115" lon="5.97894">
        <ele>2257.8000488281</ele>
        <time>2024-10-15T09:32:16.000Z</time>
      </trkpt>
      <trkpt lat="45.10115" lon="5.97893">
        <ele>2258</ele>
        <time>2024-10-15T09:32:17.000Z</time>
      </trkpt>
      <trkpt lat="45.10115" lon="5.97893">
        <ele>2258.3999023438</ele>
        <time>2024-10-15T09:32:18.000Z</time>
      </trkpt>
      <trkpt lat="45.10115" lon="5.97893">
        <ele>2258.3999023438</ele>
        <time>2024-10-15T09:32:19.000Z</time>
      </trkpt>
      <trkpt lat="45.10115" lon="5.97893">
        <ele>2258.3999023438</ele>
        <time>2024-10-15T09:32:20.000Z</time>
      </trkpt>
      <trkpt lat="45.10115" lon="5.97893">
        <ele>2258.3999023438</ele>
        <time>2024-10-15T09:32:21.000Z</time>
      </trkpt>
      <trkpt lat="45.10115" lon="5.97892">
        <ele>2258.3999023438</ele>
        <time>2024-10-15T09:32:22.000Z</time>
      </trkpt>
      <trkpt lat="45.10115" lon="5.97892">
        <ele>2258.3999023438</ele>
        <time>2024-10-15T09:32:23.000Z</time>
      </trkpt>
      <trkpt lat="45.10115" lon="5.97892">
        <ele>2258.3999023438</ele>
        <time>2024-10-15T09:32:24.000Z</time>
      </trkpt>
      <trkpt lat="45.10115" lon="5.97892">
        <ele>2258.3999023438</ele>
        <time>2024-10-15T09:32:25.000Z</time>
      </trkpt>
      <trkpt lat="45.10115" lon="5.97891">
        <ele>2258.3999023438</ele>
        <time>2024-10-15T09:32:26.000Z</time>
      </trkpt>
      <trkpt lat="45.10115" lon="5.97891">
        <ele>2258.3999023438</ele>
        <time>2024-10-15T09:32:27.000Z</time>
      </trkpt>
      <trkpt lat="45.10115" lon="5.97891">
        <ele>2258.3999023438</ele>
        <time>2024-10-15T09:32:28.000Z</time>
      </trkpt>
      <trkpt lat="45.10115" lon="5.97891">
        <ele>2258.3999023438</ele>
        <time>2024-10-15T09:32:29.000Z</time>
      </trkpt>
      <trkpt lat="45.10115" lon="5.97891">
        <ele>2258.3999023438</ele>
        <time>2024-10-15T09:32:30.000Z</time>
      </trkpt>
      <trkpt lat="45.10115" lon="5.97891">
        <ele>2258.3999023438</ele>
        <time>2024-10-15T09:32:31.000Z</time>
      </trkpt>
      <trkpt lat="45.10115" lon="5.9789">
        <ele>2258.3999023438</ele>
        <time>2024-10-15T09:32:32.000Z</time>
      </trkpt>
      <trkpt lat="45.10115" lon="5.9789">
        <ele>2258.3999023438</ele>
        <time>2024-10-15T09:32:33.000Z</time>
      </trkpt>
      <trkpt lat="45.10115" lon="5.9789">
        <ele>2258.3999023438</ele>
        <time>2024-10-15T09:32:34.000Z</time>
      </trkpt>
      <trkpt lat="45.10115" lon="5.9789">
        <ele>2258.3999023438</ele>
        <time>2024-10-15T09:32:35.000Z</time>
      </trkpt>
      <trkpt lat="45.10115" lon="5.9789">
        <ele>2258.3999023438</ele>
        <time>2024-10-15T09:32:36.000Z</time>
      </trkpt>
      <trkpt lat="45.10115" lon="5.9789">
        <ele>2258.6000976562</ele>
        <time>2024-10-15T09:32:37.000Z</time>
      </trkpt>
      <trkpt lat="45.10115" lon="5.9789">
        <ele>2258.8000488281</ele>
        <time>2024-10-15T09:32:38.000Z</time>
      </trkpt>
      <trkpt lat="45.10115" lon="5.9789">
        <ele>2258.8000488281</ele>
        <time>2024-10-15T09:32:39.000Z</time>
      </trkpt>
      <trkpt lat="45.10115" lon="5.9789">
        <ele>2258.8000488281</ele>
        <time>2024-10-15T09:32:40.000Z</time>
      </trkpt>
      <trkpt lat="45.10115" lon="5.9789">
        <ele>2259</ele>
        <time>2024-10-15T09:32:41.000Z</time>
      </trkpt>
      <trkpt lat="45.10115" lon="5.97889">
        <ele>2259.3999023438</ele>
        <time>2024-10-15T09:32:42.000Z</time>
      </trkpt>
      <trkpt lat="45.10115" lon="5.97889">
        <ele>2259.6000976562</ele>
        <time>2024-10-15T09:32:43.000Z</time>
      </trkpt>
      <trkpt lat="45.10115" lon="5.97889">
        <ele>2260</ele>
        <time>2024-10-15T09:32:44.000Z</time>
      </trkpt>
      <trkpt lat="45.10115" lon="5.97889">
        <ele>2260.1999511719</ele>
        <time>2024-10-15T09:32:45.000Z</time>
      </trkpt>
      <trkpt lat="45.10115" lon="5.97889">
        <ele>2260.3999023438</ele>
        <time>2024-10-15T09:32:46.000Z</time>
      </trkpt>
      <trkpt lat="45.10115" lon="5.97889">
        <ele>2260.8000488281</ele>
        <time>2024-10-15T09:32:47.000Z</time>
      </trkpt>
      <trkpt lat="45.10114" lon="5.97889">
        <ele>2261</ele>
        <time>2024-10-15T09:32:48.000Z</time>
      </trkpt>
      <trkpt lat="45.10114" lon="5.97889">
        <ele>2261.1999511719</ele>
        <time>2024-10-15T09:32:49.000Z</time>
      </trkpt>
      <trkpt lat="45.10114" lon="5.97889">
        <ele>2261.1999511719</ele>
        <time>2024-10-15T09:32:50.000Z</time>
      </trkpt>
      <trkpt lat="45.10114" lon="5.97889">
        <ele>2261.1999511719</ele>
        <time>2024-10-15T09:32:51.000Z</time>
      </trkpt>
      <trkpt lat="45.10114" lon="5.9789">
        <ele>2261.1999511719</ele>
        <time>2024-10-15T09:32:52.000Z</time>
      </trkpt>
      <trkpt lat="45.10114" lon="5.9789">
        <ele>2261.1999511719</ele>
        <time>2024-10-15T09:32:53.000Z</time>
      </trkpt>
      <trkpt lat="45.10113" lon="5.9789">
        <ele>2261.1999511719</ele>
        <time>2024-10-15T09:32:54.000Z</time>
      </trkpt>
      <trkpt lat="45.10113" lon="5.9789">
        <ele>2261.1999511719</ele>
        <time>2024-10-15T09:32:55.000Z</time>
      </trkpt>
      <trkpt lat="45.10113" lon="5.9789">
        <ele>2261.3999023438</ele>
        <time>2024-10-15T09:32:56.000Z</time>
      </trkpt>
      <trkpt lat="45.10112" lon="5.9789">
        <ele>2261.3999023438</ele>
        <time>2024-10-15T09:32:57.000Z</time>
      </trkpt>
      <trkpt lat="45.10112" lon="5.9789">
        <ele>2261.3999023438</ele>
        <time>2024-10-15T09:32:58.000Z</time>
      </trkpt>
      <trkpt lat="45.10112" lon="5.9789">
        <ele>2261.3999023438</ele>
        <time>2024-10-15T09:32:59.000Z</time>
      </trkpt>
      <trkpt lat="45.10111" lon="5.9789">
        <ele>2261.6000976562</ele>
        <time>2024-10-15T09:33:00.000Z</time>
      </trkpt>
      <trkpt lat="45.10111" lon="5.97889">
        <ele>2261.6000976562</ele>
        <time>2024-10-15T09:33:01.000Z</time>
      </trkpt>
      <trkpt lat="45.10111" lon="5.97889">
        <ele>2261.6000976562</ele>
        <time>2024-10-15T09:33:02.000Z</time>
      </trkpt>
      <trkpt lat="45.10111" lon="5.97889">
        <ele>2261.8000488281</ele>
        <time>2024-10-15T09:33:03.000Z</time>
      </trkpt>
      <trkpt lat="45.10111" lon="5.97889">
        <ele>2261.8000488281</ele>
        <time>2024-10-15T09:33:04.000Z</time>
      </trkpt>
      <trkpt lat="45.10111" lon="5.97889">
        <ele>2261.8000488281</ele>
        <time>2024-10-15T09:33:05.000Z</time>
      </trkpt>
      <trkpt lat="45.10111" lon="5.97889">
        <ele>2261.8000488281</ele>
        <time>2024-10-15T09:33:06.000Z</time>
      </trkpt>
      <trkpt lat="45.10111" lon="5.97889">
        <ele>2261.8000488281</ele>
        <time>2024-10-15T09:33:07.000Z</time>
      </trkpt>
      <trkpt lat="45.1011" lon="5.97889">
        <ele>2261.8000488281</ele>
        <time>2024-10-15T09:33:08.000Z</time>
      </trkpt>
      <trkpt lat="45.1011" lon="5.97889">
        <ele>2262</ele>
        <time>2024-10-15T09:33:09.000Z</time>
      </trkpt>
      <trkpt lat="45.1011" lon="5.97889">
        <ele>2262</ele>
        <time>2024-10-15T09:33:10.000Z</time>
      </trkpt>
      <trkpt lat="45.1011" lon="5.97889">
        <ele>2262.1999511719</ele>
        <time>2024-10-15T09:33:11.000Z</time>
      </trkpt>
      <trkpt lat="45.1011" lon="5.97889">
        <ele>2262.3999023438</ele>
        <time>2024-10-15T09:33:12.000Z</time>
      </trkpt>
      <trkpt lat="45.1011" lon="5.97889">
        <ele>2262.6000976562</ele>
        <time>2024-10-15T09:33:13.000Z</time>
      </trkpt>
      <trkpt lat="45.10109" lon="5.97889">
        <ele>2262.6000976562</ele>
        <time>2024-10-15T09:33:14.000Z</time>
      </trkpt>
      <trkpt lat="45.10109" lon="5.97889">
        <ele>2262.8000488281</ele>
        <time>2024-10-15T09:33:15.000Z</time>
      </trkpt>
      <trkpt lat="45.10109" lon="5.97889">
        <ele>2263</ele>
        <time>2024-10-15T09:33:16.000Z</time>
      </trkpt>
      <trkpt lat="45.10109" lon="5.97888">
        <ele>2263.1999511719</ele>
        <time>2024-10-15T09:33:17.000Z</time>
      </trkpt>
      <trkpt lat="45.10109" lon="5.97888">
        <ele>2263.3999023438</ele>
        <time>2024-10-15T09:33:18.000Z</time>
      </trkpt>
      <trkpt lat="45.10109" lon="5.97887">
        <ele>2263.6000976562</ele>
        <time>2024-10-15T09:33:19.000Z</time>
      </trkpt>
      <trkpt lat="45.10109" lon="5.97886">
        <ele>2264</ele>
        <time>2024-10-15T09:33:20.000Z</time>
      </trkpt>
      <trkpt lat="45.10109" lon="5.97886">
        <ele>2264.3999023438</ele>
        <time>2024-10-15T09:33:21.000Z</time>
      </trkpt>
      <trkpt lat="45.10109" lon="5.97885">
        <ele>2264.6000976562</ele>
        <time>2024-10-15T09:33:22.000Z</time>
      </trkpt>
      <trkpt lat="45.10109" lon="5.97885">
        <ele>2264.8000488281</ele>
        <time>2024-10-15T09:33:23.000Z</time>
      </trkpt>
      <trkpt lat="45.10108" lon="5.97885">
        <ele>2264.8000488281</ele>
        <time>2024-10-15T09:33:24.000Z</time>
      </trkpt>
      <trkpt lat="45.10108" lon="5.97884">
        <ele>2265</ele>
        <time>2024-10-15T09:33:25.000Z</time>
      </trkpt>
      <trkpt lat="45.10108" lon="5.97884">
        <ele>2265.3999023438</ele>
        <time>2024-10-15T09:33:26.000Z</time>
      </trkpt>
      <trkpt lat="45.10108" lon="5.97884">
        <ele>2265.3999023438</ele>
        <time>2024-10-15T09:33:27.000Z</time>
      </trkpt>
      <trkpt lat="45.10108" lon="5.97884">
        <ele>2265.3999023438</ele>
        <time>2024-10-15T09:33:28.000Z</time>
      </trkpt>
      <trkpt lat="45.10108" lon="5.97884">
        <ele>2265.6000976562</ele>
        <time>2024-10-15T09:33:29.000Z</time>
      </trkpt>
      <trkpt lat="45.10108" lon="5.97884">
        <ele>2265.6000976562</ele>
        <time>2024-10-15T09:33:30.000Z</time>
      </trkpt>
      <trkpt lat="45.10107" lon="5.97883">
        <ele>2265.6000976562</ele>
        <time>2024-10-15T09:33:31.000Z</time>
      </trkpt>
      <trkpt lat="45.10108" lon="5.97882">
        <ele>2266</ele>
        <time>2024-10-15T09:33:32.000Z</time>
      </trkpt>
      <trkpt lat="45.10108" lon="5.97881">
        <ele>2266.1999511719</ele>
        <time>2024-10-15T09:33:33.000Z</time>
      </trkpt>
      <trkpt lat="45.10107" lon="5.9788">
        <ele>2266.3999023438</ele>
        <time>2024-10-15T09:33:34.000Z</time>
      </trkpt>
      <trkpt lat="45.10107" lon="5.9788">
        <ele>2266.3999023438</ele>
        <time>2024-10-15T09:33:35.000Z</time>
      </trkpt>
      <trkpt lat="45.10107" lon="5.97879">
        <ele>2266.6000976562</ele>
        <time>2024-10-15T09:33:36.000Z</time>
      </trkpt>
      <trkpt lat="45.10107" lon="5.97879">
        <ele>2266.6000976562</ele>
        <time>2024-10-15T09:33:37.000Z</time>
      </trkpt>
      <trkpt lat="45.10107" lon="5.97879">
        <ele>2266.8000488281</ele>
        <time>2024-10-15T09:33:38.000Z</time>
      </trkpt>
      <trkpt lat="45.10107" lon="5.97879">
        <ele>2267</ele>
        <time>2024-10-15T09:33:39.000Z</time>
      </trkpt>
      <trkpt lat="45.10107" lon="5.97879">
        <ele>2267.3999023438</ele>
        <time>2024-10-15T09:33:40.000Z</time>
      </trkpt>
      <trkpt lat="45.10107" lon="5.97879">
        <ele>2267.6000976562</ele>
        <time>2024-10-15T09:33:41.000Z</time>
      </trkpt>
      <trkpt lat="45.10107" lon="5.97879">
        <ele>2267.8000488281</ele>
        <time>2024-10-15T09:33:42.000Z</time>
      </trkpt>
      <trkpt lat="45.10107" lon="5.97879">
        <ele>2268.1999511719</ele>
        <time>2024-10-15T09:33:43.000Z</time>
      </trkpt>
      <trkpt lat="45.10107" lon="5.97879">
        <ele>2268.8000488281</ele>
        <time>2024-10-15T09:33:44.000Z</time>
      </trkpt>
      <trkpt lat="45.10107" lon="5.97879">
        <ele>2269.1999511719</ele>
        <time>2024-10-15T09:33:45.000Z</time>
      </trkpt>
      <trkpt lat="45.10107" lon="5.97879">
        <ele>2269.8000488281</ele>
        <time>2024-10-15T09:33:46.000Z</time>
      </trkpt>
      <trkpt lat="45.10107" lon="5.97879">
        <ele>2270.1999511719</ele>
        <time>2024-10-15T09:33:47.000Z</time>
      </trkpt>
      <trkpt lat="45.10107" lon="5.97878">
        <ele>2270.1999511719</ele>
        <time>2024-10-15T09:33:48.000Z</time>
      </trkpt>
      <trkpt lat="45.10107" lon="5.97878">
        <ele>2270.3999023438</ele>
        <time>2024-10-15T09:33:49.000Z</time>
      </trkpt>
      <trkpt lat="45.10106" lon="5.97877">
        <ele>2270.8000488281</ele>
        <time>2024-10-15T09:33:50.000Z</time>
      </trkpt>
      <trkpt lat="45.10106" lon="5.97877">
        <ele>2271</ele>
        <time>2024-10-15T09:33:51.000Z</time>
      </trkpt>
      <trkpt lat="45.10106" lon="5.97877">
        <ele>2271</ele>
        <time>2024-10-15T09:33:52.000Z</time>
      </trkpt>
      <trkpt lat="45.10106" lon="5.97877">
        <ele>2271.1999511719</ele>
        <time>2024-10-15T09:33:53.000Z</time>
      </trkpt>
      <trkpt lat="45.10106" lon="5.97877">
        <ele>2271.1999511719</ele>
        <time>2024-10-15T09:33:54.000Z</time>
      </trkpt>
      <trkpt lat="45.10106" lon="5.97877">
        <ele>2271.1999511719</ele>
        <time>2024-10-15T09:33:55.000Z</time>
      </trkpt>
      <trkpt lat="45.10106" lon="5.97877">
        <ele>2271.6000976562</ele>
        <time>2024-10-15T09:33:56.000Z</time>
      </trkpt>
      <trkpt lat="45.10106" lon="5.97876">
        <ele>2272</ele>
        <time>2024-10-15T09:33:57.000Z</time>
      </trkpt>
      <trkpt lat="45.10106" lon="5.97876">
        <ele>2272.1999511719</ele>
        <time>2024-10-15T09:33:58.000Z</time>
      </trkpt>
      <trkpt lat="45.10106" lon="5.97876">
        <ele>2272.1999511719</ele>
        <time>2024-10-15T09:33:59.000Z</time>
      </trkpt>
      <trkpt lat="45.10106" lon="5.97876">
        <ele>2272.1999511719</ele>
        <time>2024-10-15T09:34:00.000Z</time>
      </trkpt>
      <trkpt lat="45.10106" lon="5.97876">
        <ele>2272.1999511719</ele>
        <time>2024-10-15T09:34:01.000Z</time>
      </trkpt>
      <trkpt lat="45.10106" lon="5.97876">
        <ele>2272.1999511719</ele>
        <time>2024-10-15T09:34:02.000Z</time>
      </trkpt>
      <trkpt lat="45.10106" lon="5.97876">
        <ele>2272.1999511719</ele>
        <time>2024-10-15T09:34:03.000Z</time>
      </trkpt>
      <trkpt lat="45.10106" lon="5.97876">
        <ele>2272.1999511719</ele>
        <time>2024-10-15T09:34:04.000Z</time>
      </trkpt>
      <trkpt lat="45.10106" lon="5.97876">
        <ele>2272.3999023438</ele>
        <time>2024-10-15T09:34:05.000Z</time>
      </trkpt>
      <trkpt lat="45.10106" lon="5.97876">
        <ele>2272.8000488281</ele>
        <time>2024-10-15T09:34:06.000Z</time>
      </trkpt>
      <trkpt lat="45.10106" lon="5.97876">
        <ele>2273</ele>
        <time>2024-10-15T09:34:07.000Z</time>
      </trkpt>
      <trkpt lat="45.10106" lon="5.97876">
        <ele>2273</ele>
        <time>2024-10-15T09:34:08.000Z</time>
      </trkpt>
      <trkpt lat="45.10106" lon="5.97876">
        <ele>2273.1999511719</ele>
        <time>2024-10-15T09:34:09.000Z</time>
      </trkpt>
      <trkpt lat="45.10106" lon="5.97876">
        <ele>2273.3999023438</ele>
        <time>2024-10-15T09:34:10.000Z</time>
      </trkpt>
      <trkpt lat="45.10106" lon="5.97876">
        <ele>2273.3999023438</ele>
        <time>2024-10-15T09:34:11.000Z</time>
      </trkpt>
      <trkpt lat="45.10106" lon="5.97876">
        <ele>2273.3999023438</ele>
        <time>2024-10-15T09:34:12.000Z</time>
      </trkpt>
      <trkpt lat="45.10106" lon="5.97876">
        <ele>2273.3999023438</ele>
        <time>2024-10-15T09:34:13.000Z</time>
      </trkpt>
      <trkpt lat="45.10106" lon="5.97876">
        <ele>2273.1999511719</ele>
        <time>2024-10-15T09:34:14.000Z</time>
      </trkpt>
      <trkpt lat="45.10106" lon="5.97876">
        <ele>2273.1999511719</ele>
        <time>2024-10-15T09:34:15.000Z</time>
      </trkpt>
      <trkpt lat="45.10106" lon="5.97876">
        <ele>2273.1999511719</ele>
        <time>2024-10-15T09:34:16.000Z</time>
      </trkpt>
      <trkpt lat="45.10106" lon="5.97876">
        <ele>2273.1999511719</ele>
        <time>2024-10-15T09:34:17.000Z</time>
      </trkpt>
      <trkpt lat="45.10106" lon="5.97876">
        <ele>2273.1999511719</ele>
        <time>2024-10-15T09:34:18.000Z</time>
      </trkpt>
      <trkpt lat="45.10105" lon="5.97876">
        <ele>2273.1999511719</ele>
        <time>2024-10-15T09:34:19.000Z</time>
      </trkpt>
      <trkpt lat="45.10105" lon="5.97876">
        <ele>2273</ele>
        <time>2024-10-15T09:34:20.000Z</time>
      </trkpt>
      <trkpt lat="45.10105" lon="5.97876">
        <ele>2272.8000488281</ele>
        <time>2024-10-15T09:34:21.000Z</time>
      </trkpt>
      <trkpt lat="45.10105" lon="5.97875">
        <ele>2272.8000488281</ele>
        <time>2024-10-15T09:34:22.000Z</time>
      </trkpt>
      <trkpt lat="45.10105" lon="5.97875">
        <ele>2272.6000976562</ele>
        <time>2024-10-15T09:34:23.000Z</time>
      </trkpt>
      <trkpt lat="45.10105" lon="5.97875">
        <ele>2272.6000976562</ele>
        <time>2024-10-15T09:34:24.000Z</time>
      </trkpt>
      <trkpt lat="45.10105" lon="5.97875">
        <ele>2272.6000976562</ele>
        <time>2024-10-15T09:34:25.000Z</time>
      </trkpt>
      <trkpt lat="45.10105" lon="5.97874">
        <ele>2272.6000976562</ele>
        <time>2024-10-15T09:34:26.000Z</time>
      </trkpt>
      <trkpt lat="45.10105" lon="5.97874">
        <ele>2272.3999023438</ele>
        <time>2024-10-15T09:34:27.000Z</time>
      </trkpt>
      <trkpt lat="45.10105" lon="5.97874">
        <ele>2272.3999023438</ele>
        <time>2024-10-15T09:34:28.000Z</time>
      </trkpt>
      <trkpt lat="45.10105" lon="5.97874">
        <ele>2272.3999023438</ele>
        <time>2024-10-15T09:34:29.000Z</time>
      </trkpt>
      <trkpt lat="45.10105" lon="5.97874">
        <ele>2272.3999023438</ele>
        <time>2024-10-15T09:34:30.000Z</time>
      </trkpt>
      <trkpt lat="45.10105" lon="5.97873">
        <ele>2272.1999511719</ele>
        <time>2024-10-15T09:34:31.000Z</time>
      </trkpt>
      <trkpt lat="45.10105" lon="5.97873">
        <ele>2271.8000488281</ele>
        <time>2024-10-15T09:34:32.000Z</time>
      </trkpt>
      <trkpt lat="45.10105" lon="5.97873">
        <ele>2271.6000976562</ele>
        <time>2024-10-15T09:34:33.000Z</time>
      </trkpt>
      <trkpt lat="45.10105" lon="5.97873">
        <ele>2271.3999023438</ele>
        <time>2024-10-15T09:34:34.000Z</time>
      </trkpt>
      <trkpt lat="45.10105" lon="5.97872">
        <ele>2271.1999511719</ele>
        <time>2024-10-15T09:34:35.000Z</time>
      </trkpt>
      <trkpt lat="45.10105" lon="5.97872">
        <ele>2271.1999511719</ele>
        <time>2024-10-15T09:34:36.000Z</time>
      </trkpt>
      <trkpt lat="45.10105" lon="5.97872">
        <ele>2271</ele>
        <time>2024-10-15T09:34:37.000Z</time>
      </trkpt>
      <trkpt lat="45.10105" lon="5.97872">
        <ele>2271.1999511719</ele>
        <time>2024-10-15T09:34:38.000Z</time>
      </trkpt>
      <trkpt lat="45.10105" lon="5.97872">
        <ele>2271.1999511719</ele>
        <time>2024-10-15T09:34:39.000Z</time>
      </trkpt>
      <trkpt lat="45.10106" lon="5.97872">
        <ele>2271.1999511719</ele>
        <time>2024-10-15T09:34:40.000Z</time>
      </trkpt>
      <trkpt lat="45.10106" lon="5.97872">
        <ele>2271.1999511719</ele>
        <time>2024-10-15T09:34:41.000Z</time>
      </trkpt>
      <trkpt lat="45.10107" lon="5.97871">
        <ele>2271.3999023438</ele>
        <time>2024-10-15T09:34:42.000Z</time>
      </trkpt>
      <trkpt lat="45.10107" lon="5.97871">
        <ele>2271.6000976562</ele>
        <time>2024-10-15T09:34:43.000Z</time>
      </trkpt>
      <trkpt lat="45.10107" lon="5.97871">
        <ele>2271.6000976562</ele>
        <time>2024-10-15T09:34:44.000Z</time>
      </trkpt>
      <trkpt lat="45.10107" lon="5.97871">
        <ele>2271.6000976562</ele>
        <time>2024-10-15T09:34:45.000Z</time>
      </trkpt>
      <trkpt lat="45.10107" lon="5.97871">
        <ele>2271.8000488281</ele>
        <time>2024-10-15T09:34:46.000Z</time>
      </trkpt>
      <trkpt lat="45.10107" lon="5.97871">
        <ele>2271.8000488281</ele>
        <time>2024-10-15T09:34:47.000Z</time>
      </trkpt>
      <trkpt lat="45.10107" lon="5.97871">
        <ele>2272</ele>
        <time>2024-10-15T09:34:48.000Z</time>
      </trkpt>
      <trkpt lat="45.10107" lon="5.97871">
        <ele>2272.1999511719</ele>
        <time>2024-10-15T09:34:49.000Z</time>
      </trkpt>
      <trkpt lat="45.10107" lon="5.97871">
        <ele>2272.3999023438</ele>
        <time>2024-10-15T09:34:50.000Z</time>
      </trkpt>
      <trkpt lat="45.10107" lon="5.97871">
        <ele>2272.6000976562</ele>
        <time>2024-10-15T09:34:51.000Z</time>
      </trkpt>
      <trkpt lat="45.10107" lon="5.9787">
        <ele>2272.8000488281</ele>
        <time>2024-10-15T09:34:52.000Z</time>
      </trkpt>
      <trkpt lat="45.10107" lon="5.9787">
        <ele>2273.1999511719</ele>
        <time>2024-10-15T09:34:53.000Z</time>
      </trkpt>
      <trkpt lat="45.10106" lon="5.97869">
        <ele>2273.3999023438</ele>
        <time>2024-10-15T09:34:54.000Z</time>
      </trkpt>
      <trkpt lat="45.10106" lon="5.97868">
        <ele>2273.3999023438</ele>
        <time>2024-10-15T09:34:55.000Z</time>
      </trkpt>
      <trkpt lat="45.10106" lon="5.97867">
        <ele>2273.6000976562</ele>
        <time>2024-10-15T09:34:56.000Z</time>
      </trkpt>
      <trkpt lat="45.10106" lon="5.97866">
        <ele>2273.6000976562</ele>
        <time>2024-10-15T09:34:57.000Z</time>
      </trkpt>
      <trkpt lat="45.10107" lon="5.97865">
        <ele>2273.6000976562</ele>
        <time>2024-10-15T09:34:58.000Z</time>
      </trkpt>
      <trkpt lat="45.10108" lon="5.97864">
        <ele>2273.6000976562</ele>
        <time>2024-10-15T09:34:59.000Z</time>
      </trkpt>
      <trkpt lat="45.10108" lon="5.97863">
        <ele>2274</ele>
        <time>2024-10-15T09:35:00.000Z</time>
      </trkpt>
      <trkpt lat="45.10108" lon="5.97862">
        <ele>2274</ele>
        <time>2024-10-15T09:35:01.000Z</time>
      </trkpt>
      <trkpt lat="45.10108" lon="5.97862">
        <ele>2274.1999511719</ele>
        <time>2024-10-15T09:35:02.000Z</time>
      </trkpt>
      <trkpt lat="45.10109" lon="5.97862">
        <ele>2274.1999511719</ele>
        <time>2024-10-15T09:35:03.000Z</time>
      </trkpt>
      <trkpt lat="45.10109" lon="5.97862">
        <ele>2274.1999511719</ele>
        <time>2024-10-15T09:35:04.000Z</time>
      </trkpt>
      <trkpt lat="45.10109" lon="5.97862">
        <ele>2274.3999023438</ele>
        <time>2024-10-15T09:35:05.000Z</time>
      </trkpt>
      <trkpt lat="45.10109" lon="5.97862">
        <ele>2274.6000976562</ele>
        <time>2024-10-15T09:35:06.000Z</time>
      </trkpt>
      <trkpt lat="45.10109" lon="5.97862">
        <ele>2274.8000488281</ele>
        <time>2024-10-15T09:35:07.000Z</time>
      </trkpt>
      <trkpt lat="45.10109" lon="5.97861">
        <ele>2275</ele>
        <time>2024-10-15T09:35:08.000Z</time>
      </trkpt>
      <trkpt lat="45.10109" lon="5.97861">
        <ele>2275</ele>
        <time>2024-10-15T09:35:09.000Z</time>
      </trkpt>
      <trkpt lat="45.10109" lon="5.9786">
        <ele>2275</ele>
        <time>2024-10-15T09:35:10.000Z</time>
      </trkpt>
      <trkpt lat="45.10109" lon="5.9786">
        <ele>2275.1999511719</ele>
        <time>2024-10-15T09:35:11.000Z</time>
      </trkpt>
      <trkpt lat="45.10109" lon="5.9786">
        <ele>2275.3999023438</ele>
        <time>2024-10-15T09:35:12.000Z</time>
      </trkpt>
      <trkpt lat="45.10109" lon="5.9786">
        <ele>2275.6000976562</ele>
        <time>2024-10-15T09:35:13.000Z</time>
      </trkpt>
      <trkpt lat="45.10109" lon="5.9786">
        <ele>2275.8000488281</ele>
        <time>2024-10-15T09:35:14.000Z</time>
      </trkpt>
      <trkpt lat="45.10109" lon="5.9786">
        <ele>2275.8000488281</ele>
        <time>2024-10-15T09:35:15.000Z</time>
      </trkpt>
      <trkpt lat="45.10109" lon="5.9786">
        <ele>2275.8000488281</ele>
        <time>2024-10-15T09:35:16.000Z</time>
      </trkpt>
      <trkpt lat="45.10109" lon="5.9786">
        <ele>2275.8000488281</ele>
        <time>2024-10-15T09:35:17.000Z</time>
      </trkpt>
      <trkpt lat="45.10109" lon="5.9786">
        <ele>2275.8000488281</ele>
        <time>2024-10-15T09:35:18.000Z</time>
      </trkpt>
      <trkpt lat="45.10109" lon="5.9786">
        <ele>2276</ele>
        <time>2024-10-15T09:35:19.000Z</time>
      </trkpt>
      <trkpt lat="45.10109" lon="5.9786">
        <ele>2276</ele>
        <time>2024-10-15T09:35:20.000Z</time>
      </trkpt>
      <trkpt lat="45.10108" lon="5.97858">
        <ele>2276</ele>
        <time>2024-10-15T09:35:21.000Z</time>
      </trkpt>
      <trkpt lat="45.10107" lon="5.97857">
        <ele>2276.1999511719</ele>
        <time>2024-10-15T09:35:22.000Z</time>
      </trkpt>
      <trkpt lat="45.10107" lon="5.97856">
        <ele>2276.1999511719</ele>
        <time>2024-10-15T09:35:23.000Z</time>
      </trkpt>
      <trkpt lat="45.10106" lon="5.97855">
        <ele>2276.1999511719</ele>
        <time>2024-10-15T09:35:24.000Z</time>
      </trkpt>
      <trkpt lat="45.10106" lon="5.97854">
        <ele>2276.3999023438</ele>
        <time>2024-10-15T09:35:25.000Z</time>
      </trkpt>
      <trkpt lat="45.10106" lon="5.97853">
        <ele>2276.6000976562</ele>
        <time>2024-10-15T09:35:26.000Z</time>
      </trkpt>
      <trkpt lat="45.10105" lon="5.97851">
        <ele>2276.8000488281</ele>
        <time>2024-10-15T09:35:27.000Z</time>
      </trkpt>
      <trkpt lat="45.10105" lon="5.97851">
        <ele>2277.1999511719</ele>
        <time>2024-10-15T09:35:28.000Z</time>
      </trkpt>
      <trkpt lat="45.10105" lon="5.97849">
        <ele>2277.6000976562</ele>
        <time>2024-10-15T09:35:29.000Z</time>
      </trkpt>
      <trkpt lat="45.10105" lon="5.9785">
        <ele>2277.8000488281</ele>
        <time>2024-10-15T09:35:30.000Z</time>
      </trkpt>
      <trkpt lat="45.10104" lon="5.9785">
        <ele>2278.1999511719</ele>
        <time>2024-10-15T09:35:31.000Z</time>
      </trkpt>
      <trkpt lat="45.10104" lon="5.9785">
        <ele>2278.3999023438</ele>
        <time>2024-10-15T09:35:32.000Z</time>
      </trkpt>
      <trkpt lat="45.10104" lon="5.9785">
        <ele>2278.6000976562</ele>
        <time>2024-10-15T09:35:33.000Z</time>
      </trkpt>
      <trkpt lat="45.10104" lon="5.9785">
        <ele>2279</ele>
        <time>2024-10-15T09:35:34.000Z</time>
      </trkpt>
      <trkpt lat="45.10104" lon="5.9785">
        <ele>2279.1999511719</ele>
        <time>2024-10-15T09:35:35.000Z</time>
      </trkpt>
      <trkpt lat="45.10104" lon="5.9785">
        <ele>2279.1999511719</ele>
        <time>2024-10-15T09:35:36.000Z</time>
      </trkpt>
      <trkpt lat="45.10104" lon="5.97849">
        <ele>2279.6000976562</ele>
        <time>2024-10-15T09:35:37.000Z</time>
      </trkpt>
      <trkpt lat="45.10104" lon="5.97849">
        <ele>2279.6000976562</ele>
        <time>2024-10-15T09:35:38.000Z</time>
      </trkpt>
      <trkpt lat="45.10105" lon="5.97849">
        <ele>2279.6000976562</ele>
        <time>2024-10-15T09:35:39.000Z</time>
      </trkpt>
      <trkpt lat="45.10105" lon="5.97849">
        <ele>2279.6000976562</ele>
        <time>2024-10-15T09:35:40.000Z</time>
      </trkpt>
      <trkpt lat="45.10105" lon="5.97848">
        <ele>2279.8000488281</ele>
        <time>2024-10-15T09:35:41.000Z</time>
      </trkpt>
      <trkpt lat="45.10105" lon="5.97848">
        <ele>2279.8000488281</ele>
        <time>2024-10-15T09:35:42.000Z</time>
      </trkpt>
      <trkpt lat="45.10105" lon="5.97848">
        <ele>2279.8000488281</ele>
        <time>2024-10-15T09:35:43.000Z</time>
      </trkpt>
      <trkpt lat="45.10105" lon="5.97848">
        <ele>2279.8000488281</ele>
        <time>2024-10-15T09:35:44.000Z</time>
      </trkpt>
      <trkpt lat="45.10105" lon="5.97848">
        <ele>2279.6000976562</ele>
        <time>2024-10-15T09:35:45.000Z</time>
      </trkpt>
      <trkpt lat="45.10105" lon="5.97848">
        <ele>2279.6000976562</ele>
        <time>2024-10-15T09:35:46.000Z</time>
      </trkpt>
      <trkpt lat="45.10105" lon="5.97848">
        <ele>2279.6000976562</ele>
        <time>2024-10-15T09:35:47.000Z</time>
      </trkpt>
      <trkpt lat="45.10105" lon="5.97848">
        <ele>2279.6000976562</ele>
        <time>2024-10-15T09:35:48.000Z</time>
      </trkpt>
      <trkpt lat="45.10105" lon="5.97848">
        <ele>2279.6000976562</ele>
        <time>2024-10-15T09:35:49.000Z</time>
      </trkpt>
      <trkpt lat="45.10105" lon="5.97848">
        <ele>2279.6000976562</ele>
        <time>2024-10-15T09:35:50.000Z</time>
      </trkpt>
      <trkpt lat="45.10105" lon="5.97848">
        <ele>2279.6000976562</ele>
        <time>2024-10-15T09:35:51.000Z</time>
      </trkpt>
      <trkpt lat="45.10105" lon="5.97848">
        <ele>2279.6000976562</ele>
        <time>2024-10-15T09:35:52.000Z</time>
      </trkpt>
      <trkpt lat="45.10105" lon="5.97848">
        <ele>2279.6000976562</ele>
        <time>2024-10-15T09:35:53.000Z</time>
      </trkpt>
      <trkpt lat="45.10105" lon="5.97848">
        <ele>2279.6000976562</ele>
        <time>2024-10-15T09:35:54.000Z</time>
      </trkpt>
      <trkpt lat="45.10105" lon="5.97848">
        <ele>2279.6000976562</ele>
        <time>2024-10-15T09:35:55.000Z</time>
      </trkpt>
      <trkpt lat="45.10105" lon="5.97848">
        <ele>2279.6000976562</ele>
        <time>2024-10-15T09:35:56.000Z</time>
      </trkpt>
      <trkpt lat="45.10105" lon="5.97848">
        <ele>2279.8000488281</ele>
        <time>2024-10-15T09:35:57.000Z</time>
      </trkpt>
      <trkpt lat="45.10105" lon="5.97848">
        <ele>2280</ele>
        <time>2024-10-15T09:35:58.000Z</time>
      </trkpt>
      <trkpt lat="45.10105" lon="5.97848">
        <ele>2280.1999511719</ele>
        <time>2024-10-15T09:35:59.000Z</time>
      </trkpt>
      <trkpt lat="45.10105" lon="5.97848">
        <ele>2280.1999511719</ele>
        <time>2024-10-15T09:36:00.000Z</time>
      </trkpt>
      <trkpt lat="45.10105" lon="5.97848">
        <ele>2280.3999023438</ele>
        <time>2024-10-15T09:36:01.000Z</time>
      </trkpt>
      <trkpt lat="45.10105" lon="5.97848">
        <ele>2280.6000976562</ele>
        <time>2024-10-15T09:36:02.000Z</time>
      </trkpt>
      <trkpt lat="45.10105" lon="5.97848">
        <ele>2280.8000488281</ele>
        <time>2024-10-15T09:36:03.000Z</time>
      </trkpt>
      <trkpt lat="45.10106" lon="5.97847">
        <ele>2280.8000488281</ele>
        <time>2024-10-15T09:36:04.000Z</time>
      </trkpt>
      <trkpt lat="45.10106" lon="5.97847">
        <ele>2281</ele>
        <time>2024-10-15T09:36:05.000Z</time>
      </trkpt>
      <trkpt lat="45.10106" lon="5.97847">
        <ele>2281.3999023438</ele>
        <time>2024-10-15T09:36:06.000Z</time>
      </trkpt>
      <trkpt lat="45.10106" lon="5.97847">
        <ele>2281.8000488281</ele>
        <time>2024-10-15T09:36:07.000Z</time>
      </trkpt>
      <trkpt lat="45.10106" lon="5.97847">
        <ele>2282</ele>
        <time>2024-10-15T09:36:08.000Z</time>
      </trkpt>
      <trkpt lat="45.10106" lon="5.97847">
        <ele>2282.3999023438</ele>
        <time>2024-10-15T09:36:09.000Z</time>
      </trkpt>
      <trkpt lat="45.10106" lon="5.97847">
        <ele>2282.3999023438</ele>
        <time>2024-10-15T09:36:10.000Z</time>
      </trkpt>
      <trkpt lat="45.10106" lon="5.97847">
        <ele>2282.6000976562</ele>
        <time>2024-10-15T09:36:11.000Z</time>
      </trkpt>
      <trkpt lat="45.10106" lon="5.97847">
        <ele>2282.6000976562</ele>
        <time>2024-10-15T09:36:12.000Z</time>
      </trkpt>
      <trkpt lat="45.10107" lon="5.97847">
        <ele>2282.6000976562</ele>
        <time>2024-10-15T09:36:13.000Z</time>
      </trkpt>
      <trkpt lat="45.10107" lon="5.97847">
        <ele>2282.6000976562</ele>
        <time>2024-10-15T09:36:14.000Z</time>
      </trkpt>
      <trkpt lat="45.10107" lon="5.97847">
        <ele>2282.3999023438</ele>
        <time>2024-10-15T09:36:15.000Z</time>
      </trkpt>
      <trkpt lat="45.10107" lon="5.97846">
        <ele>2282.3999023438</ele>
        <time>2024-10-15T09:36:16.000Z</time>
      </trkpt>
      <trkpt lat="45.10107" lon="5.97846">
        <ele>2282.1999511719</ele>
        <time>2024-10-15T09:36:17.000Z</time>
      </trkpt>
      <trkpt lat="45.10107" lon="5.97846">
        <ele>2282.1999511719</ele>
        <time>2024-10-15T09:36:18.000Z</time>
      </trkpt>
      <trkpt lat="45.10107" lon="5.97846">
        <ele>2282.1999511719</ele>
        <time>2024-10-15T09:36:19.000Z</time>
      </trkpt>
      <trkpt lat="45.10107" lon="5.97846">
        <ele>2282.1999511719</ele>
        <time>2024-10-15T09:36:20.000Z</time>
      </trkpt>
      <trkpt lat="45.10107" lon="5.97846">
        <ele>2282.1999511719</ele>
        <time>2024-10-15T09:36:21.000Z</time>
      </trkpt>
      <trkpt lat="45.10107" lon="5.97846">
        <ele>2282.1999511719</ele>
        <time>2024-10-15T09:36:22.000Z</time>
      </trkpt>
      <trkpt lat="45.10107" lon="5.97846">
        <ele>2282.3999023438</ele>
        <time>2024-10-15T09:36:23.000Z</time>
      </trkpt>
      <trkpt lat="45.10107" lon="5.97846">
        <ele>2282.6000976562</ele>
        <time>2024-10-15T09:36:24.000Z</time>
      </trkpt>
      <trkpt lat="45.10107" lon="5.97846">
        <ele>2283</ele>
        <time>2024-10-15T09:36:25.000Z</time>
      </trkpt>
      <trkpt lat="45.10107" lon="5.97846">
        <ele>2283.1999511719</ele>
        <time>2024-10-15T09:36:26.000Z</time>
      </trkpt>
      <trkpt lat="45.10107" lon="5.97846">
        <ele>2283.1999511719</ele>
        <time>2024-10-15T09:36:27.000Z</time>
      </trkpt>
      <trkpt lat="45.10107" lon="5.97846">
        <ele>2283.3999023438</ele>
        <time>2024-10-15T09:36:28.000Z</time>
      </trkpt>
      <trkpt lat="45.10107" lon="5.97846">
        <ele>2283.6000976562</ele>
        <time>2024-10-15T09:36:29.000Z</time>
      </trkpt>
      <trkpt lat="45.10107" lon="5.97846">
        <ele>2283.8000488281</ele>
        <time>2024-10-15T09:36:30.000Z</time>
      </trkpt>
      <trkpt lat="45.10107" lon="5.97846">
        <ele>2284.1999511719</ele>
        <time>2024-10-15T09:36:31.000Z</time>
      </trkpt>
      <trkpt lat="45.10107" lon="5.97846">
        <ele>2284.3999023438</ele>
        <time>2024-10-15T09:36:32.000Z</time>
      </trkpt>
      <trkpt lat="45.10107" lon="5.97846">
        <ele>2284.6000976562</ele>
        <time>2024-10-15T09:36:33.000Z</time>
      </trkpt>
      <trkpt lat="45.10107" lon="5.97845">
        <ele>2284.8000488281</ele>
        <time>2024-10-15T09:36:34.000Z</time>
      </trkpt>
      <trkpt lat="45.10107" lon="5.97845">
        <ele>2285</ele>
        <time>2024-10-15T09:36:35.000Z</time>
      </trkpt>
      <trkpt lat="45.10106" lon="5.97845">
        <ele>2285.1999511719</ele>
        <time>2024-10-15T09:36:36.000Z</time>
      </trkpt>
      <trkpt lat="45.10106" lon="5.97845">
        <ele>2285.6000976562</ele>
        <time>2024-10-15T09:36:37.000Z</time>
      </trkpt>
      <trkpt lat="45.10106" lon="5.97844">
        <ele>2285.6000976562</ele>
        <time>2024-10-15T09:36:38.000Z</time>
      </trkpt>
      <trkpt lat="45.10106" lon="5.97844">
        <ele>2285.8000488281</ele>
        <time>2024-10-15T09:36:39.000Z</time>
      </trkpt>
      <trkpt lat="45.10105" lon="5.97843">
        <ele>2286</ele>
        <time>2024-10-15T09:36:40.000Z</time>
      </trkpt>
      <trkpt lat="45.10105" lon="5.97843">
        <ele>2286.1999511719</ele>
        <time>2024-10-15T09:36:41.000Z</time>
      </trkpt>
      <trkpt lat="45.10104" lon="5.97843">
        <ele>2286.6000976562</ele>
        <time>2024-10-15T09:36:42.000Z</time>
      </trkpt>
      <trkpt lat="45.10103" lon="5.97843">
        <ele>2287</ele>
        <time>2024-10-15T09:36:43.000Z</time>
      </trkpt>
      <trkpt lat="45.10103" lon="5.97843">
        <ele>2287.1999511719</ele>
        <time>2024-10-15T09:36:44.000Z</time>
      </trkpt>
      <trkpt lat="45.10103" lon="5.97843">
        <ele>2287.3999023438</ele>
        <time>2024-10-15T09:36:45.000Z</time>
      </trkpt>
      <trkpt lat="45.10102" lon="5.97843">
        <ele>2287.3999023438</ele>
        <time>2024-10-15T09:36:46.000Z</time>
      </trkpt>
      <trkpt lat="45.10102" lon="5.97843">
        <ele>2287.3999023438</ele>
        <time>2024-10-15T09:36:47.000Z</time>
      </trkpt>
      <trkpt lat="45.10102" lon="5.97843">
        <ele>2287.3999023438</ele>
        <time>2024-10-15T09:36:48.000Z</time>
      </trkpt>
      <trkpt lat="45.10101" lon="5.97843">
        <ele>2287.6000976562</ele>
        <time>2024-10-15T09:36:49.000Z</time>
      </trkpt>
      <trkpt lat="45.10101" lon="5.97843">
        <ele>2287.6000976562</ele>
        <time>2024-10-15T09:36:50.000Z</time>
      </trkpt>
      <trkpt lat="45.10101" lon="5.97843">
        <ele>2287.6000976562</ele>
        <time>2024-10-15T09:36:51.000Z</time>
      </trkpt>
      <trkpt lat="45.10101" lon="5.97843">
        <ele>2287.8000488281</ele>
        <time>2024-10-15T09:36:52.000Z</time>
      </trkpt>
      <trkpt lat="45.10101" lon="5.97843">
        <ele>2287.8000488281</ele>
        <time>2024-10-15T09:36:53.000Z</time>
      </trkpt>
      <trkpt lat="45.101" lon="5.97843">
        <ele>2288</ele>
        <time>2024-10-15T09:36:54.000Z</time>
      </trkpt>
      <trkpt lat="45.101" lon="5.97843">
        <ele>2288</ele>
        <time>2024-10-15T09:36:55.000Z</time>
      </trkpt>
      <trkpt lat="45.101" lon="5.97843">
        <ele>2288.3999023438</ele>
        <time>2024-10-15T09:36:56.000Z</time>
      </trkpt>
      <trkpt lat="45.101" lon="5.97843">
        <ele>2288.6000976562</ele>
        <time>2024-10-15T09:36:57.000Z</time>
      </trkpt>
      <trkpt lat="45.101" lon="5.97843">
        <ele>2288.8000488281</ele>
        <time>2024-10-15T09:36:58.000Z</time>
      </trkpt>
      <trkpt lat="45.101" lon="5.97843">
        <ele>2288.8000488281</ele>
        <time>2024-10-15T09:36:59.000Z</time>
      </trkpt>
      <trkpt lat="45.101" lon="5.97843">
        <ele>2288.8000488281</ele>
        <time>2024-10-15T09:37:00.000Z</time>
      </trkpt>
      <trkpt lat="45.101" lon="5.97843">
        <ele>2289</ele>
        <time>2024-10-15T09:37:01.000Z</time>
      </trkpt>
      <trkpt lat="45.101" lon="5.97843">
        <ele>2289</ele>
        <time>2024-10-15T09:37:02.000Z</time>
      </trkpt>
      <trkpt lat="45.101" lon="5.97843">
        <ele>2289</ele>
        <time>2024-10-15T09:37:03.000Z</time>
      </trkpt>
      <trkpt lat="45.101" lon="5.97843">
        <ele>2289.1999511719</ele>
        <time>2024-10-15T09:37:04.000Z</time>
      </trkpt>
      <trkpt lat="45.101" lon="5.97843">
        <ele>2289.3999023438</ele>
        <time>2024-10-15T09:37:05.000Z</time>
      </trkpt>
      <trkpt lat="45.101" lon="5.97843">
        <ele>2289.3999023438</ele>
        <time>2024-10-15T09:37:06.000Z</time>
      </trkpt>
      <trkpt lat="45.101" lon="5.97843">
        <ele>2289.6000976562</ele>
        <time>2024-10-15T09:37:07.000Z</time>
      </trkpt>
      <trkpt lat="45.101" lon="5.97843">
        <ele>2289.8000488281</ele>
        <time>2024-10-15T09:37:08.000Z</time>
      </trkpt>
      <trkpt lat="45.10099" lon="5.97843">
        <ele>2290.1999511719</ele>
        <time>2024-10-15T09:37:09.000Z</time>
      </trkpt>
      <trkpt lat="45.10099" lon="5.97843">
        <ele>2290.3999023438</ele>
        <time>2024-10-15T09:37:10.000Z</time>
      </trkpt>
      <trkpt lat="45.10099" lon="5.97843">
        <ele>2290.6000976562</ele>
        <time>2024-10-15T09:37:11.000Z</time>
      </trkpt>
      <trkpt lat="45.10099" lon="5.97843">
        <ele>2291</ele>
        <time>2024-10-15T09:37:12.000Z</time>
      </trkpt>
      <trkpt lat="45.10099" lon="5.97843">
        <ele>2291.1999511719</ele>
        <time>2024-10-15T09:37:13.000Z</time>
      </trkpt>
      <trkpt lat="45.10099" lon="5.97843">
        <ele>2291.3999023438</ele>
        <time>2024-10-15T09:37:14.000Z</time>
      </trkpt>
      <trkpt lat="45.10099" lon="5.97843">
        <ele>2291.6000976562</ele>
        <time>2024-10-15T09:37:15.000Z</time>
      </trkpt>
      <trkpt lat="45.10099" lon="5.97843">
        <ele>2291.6000976562</ele>
        <time>2024-10-15T09:37:16.000Z</time>
      </trkpt>
      <trkpt lat="45.10099" lon="5.97843">
        <ele>2291.6000976562</ele>
        <time>2024-10-15T09:37:17.000Z</time>
      </trkpt>
      <trkpt lat="45.10099" lon="5.97843">
        <ele>2291.8000488281</ele>
        <time>2024-10-15T09:37:18.000Z</time>
      </trkpt>
      <trkpt lat="45.10099" lon="5.97843">
        <ele>2291.8000488281</ele>
        <time>2024-10-15T09:37:19.000Z</time>
      </trkpt>
      <trkpt lat="45.10099" lon="5.97843">
        <ele>2291.8000488281</ele>
        <time>2024-10-15T09:37:20.000Z</time>
      </trkpt>
      <trkpt lat="45.10099" lon="5.97843">
        <ele>2291.8000488281</ele>
        <time>2024-10-15T09:37:21.000Z</time>
      </trkpt>
      <trkpt lat="45.10099" lon="5.97843">
        <ele>2291.8000488281</ele>
        <time>2024-10-15T09:37:22.000Z</time>
      </trkpt>
      <trkpt lat="45.10099" lon="5.97843">
        <ele>2292</ele>
        <time>2024-10-15T09:37:23.000Z</time>
      </trkpt>
      <trkpt lat="45.10099" lon="5.97843">
        <ele>2292.1999511719</ele>
        <time>2024-10-15T09:37:24.000Z</time>
      </trkpt>
      <trkpt lat="45.10099" lon="5.97843">
        <ele>2292.3999023438</ele>
        <time>2024-10-15T09:37:25.000Z</time>
      </trkpt>
      <trkpt lat="45.10099" lon="5.97843">
        <ele>2292.6000976562</ele>
        <time>2024-10-15T09:37:26.000Z</time>
      </trkpt>
      <trkpt lat="45.10099" lon="5.97843">
        <ele>2292.6000976562</ele>
        <time>2024-10-15T09:37:27.000Z</time>
      </trkpt>
      <trkpt lat="45.10099" lon="5.97842">
        <ele>2292.6000976562</ele>
        <time>2024-10-15T09:37:28.000Z</time>
      </trkpt>
      <trkpt lat="45.10099" lon="5.97842">
        <ele>2292.6000976562</ele>
        <time>2024-10-15T09:37:29.000Z</time>
      </trkpt>
      <trkpt lat="45.10099" lon="5.97842">
        <ele>2292.6000976562</ele>
        <time>2024-10-15T09:37:30.000Z</time>
      </trkpt>
      <trkpt lat="45.10098" lon="5.97842">
        <ele>2292.6000976562</ele>
        <time>2024-10-15T09:37:31.000Z</time>
      </trkpt>
      <trkpt lat="45.10098" lon="5.97842">
        <ele>2292.8000488281</ele>
        <time>2024-10-15T09:37:32.000Z</time>
      </trkpt>
      <trkpt lat="45.10098" lon="5.97842">
        <ele>2292.8000488281</ele>
        <time>2024-10-15T09:37:33.000Z</time>
      </trkpt>
      <trkpt lat="45.10098" lon="5.97841">
        <ele>2292.8000488281</ele>
        <time>2024-10-15T09:37:34.000Z</time>
      </trkpt>
      <trkpt lat="45.10098" lon="5.97841">
        <ele>2293</ele>
        <time>2024-10-15T09:37:35.000Z</time>
      </trkpt>
      <trkpt lat="45.10098" lon="5.97841">
        <ele>2293</ele>
        <time>2024-10-15T09:37:36.000Z</time>
      </trkpt>
      <trkpt lat="45.10098" lon="5.97841">
        <ele>2293.1999511719</ele>
        <time>2024-10-15T09:37:37.000Z</time>
      </trkpt>
      <trkpt lat="45.10098" lon="5.97841">
        <ele>2293.1999511719</ele>
        <time>2024-10-15T09:37:38.000Z</time>
      </trkpt>
      <trkpt lat="45.10098" lon="5.97841">
        <ele>2293.3999023438</ele>
        <time>2024-10-15T09:37:39.000Z</time>
      </trkpt>
      <trkpt lat="45.10098" lon="5.97841">
        <ele>2293.3999023438</ele>
        <time>2024-10-15T09:37:40.000Z</time>
      </trkpt>
      <trkpt lat="45.10098" lon="5.97841">
        <ele>2293.6000976562</ele>
        <time>2024-10-15T09:37:41.000Z</time>
      </trkpt>
      <trkpt lat="45.10098" lon="5.97841">
        <ele>2293.6000976562</ele>
        <time>2024-10-15T09:37:42.000Z</time>
      </trkpt>
      <trkpt lat="45.10098" lon="5.97841">
        <ele>2293.6000976562</ele>
        <time>2024-10-15T09:37:43.000Z</time>
      </trkpt>
      <trkpt lat="45.10098" lon="5.97841">
        <ele>2293.8000488281</ele>
        <time>2024-10-15T09:37:44.000Z</time>
      </trkpt>
      <trkpt lat="45.10098" lon="5.9784">
        <ele>2293.8000488281</ele>
        <time>2024-10-15T09:37:45.000Z</time>
      </trkpt>
      <trkpt lat="45.10098" lon="5.9784">
        <ele>2293.8000488281</ele>
        <time>2024-10-15T09:37:46.000Z</time>
      </trkpt>
      <trkpt lat="45.10098" lon="5.9784">
        <ele>2293.8000488281</ele>
        <time>2024-10-15T09:37:47.000Z</time>
      </trkpt>
      <trkpt lat="45.10098" lon="5.97839">
        <ele>2294</ele>
        <time>2024-10-15T09:37:48.000Z</time>
      </trkpt>
      <trkpt lat="45.10098" lon="5.97839">
        <ele>2294.1999511719</ele>
        <time>2024-10-15T09:37:49.000Z</time>
      </trkpt>
      <trkpt lat="45.10098" lon="5.97839">
        <ele>2294.3999023438</ele>
        <time>2024-10-15T09:37:50.000Z</time>
      </trkpt>
      <trkpt lat="45.10098" lon="5.97839">
        <ele>2294.8000488281</ele>
        <time>2024-10-15T09:37:51.000Z</time>
      </trkpt>
      <trkpt lat="45.10098" lon="5.97838">
        <ele>2294.8000488281</ele>
        <time>2024-10-15T09:37:52.000Z</time>
      </trkpt>
      <trkpt lat="45.10099" lon="5.97838">
        <ele>2294.8000488281</ele>
        <time>2024-10-15T09:37:53.000Z</time>
      </trkpt>
      <trkpt lat="45.10099" lon="5.97838">
        <ele>2295</ele>
        <time>2024-10-15T09:37:54.000Z</time>
      </trkpt>
      <trkpt lat="45.10099" lon="5.97838">
        <ele>2295</ele>
        <time>2024-10-15T09:37:55.000Z</time>
      </trkpt>
      <trkpt lat="45.10099" lon="5.97837">
        <ele>2295</ele>
        <time>2024-10-15T09:37:56.000Z</time>
      </trkpt>
      <trkpt lat="45.10099" lon="5.97837">
        <ele>2295.1999511719</ele>
        <time>2024-10-15T09:37:57.000Z</time>
      </trkpt>
      <trkpt lat="45.10099" lon="5.97837">
        <ele>2295.6000976562</ele>
        <time>2024-10-15T09:37:58.000Z</time>
      </trkpt>
      <trkpt lat="45.10099" lon="5.97837">
        <ele>2296</ele>
        <time>2024-10-15T09:37:59.000Z</time>
      </trkpt>
      <trkpt lat="45.10099" lon="5.97837">
        <ele>2296.1999511719</ele>
        <time>2024-10-15T09:38:00.000Z</time>
      </trkpt>
      <trkpt lat="45.10099" lon="5.97836">
        <ele>2296.1999511719</ele>
        <time>2024-10-15T09:38:01.000Z</time>
      </trkpt>
      <trkpt lat="45.10099" lon="5.97836">
        <ele>2296.6000976562</ele>
        <time>2024-10-15T09:38:02.000Z</time>
      </trkpt>
      <trkpt lat="45.10099" lon="5.97836">
        <ele>2296.8000488281</ele>
        <time>2024-10-15T09:38:03.000Z</time>
      </trkpt>
      <trkpt lat="45.10099" lon="5.97836">
        <ele>2297</ele>
        <time>2024-10-15T09:38:04.000Z</time>
      </trkpt>
      <trkpt lat="45.10099" lon="5.97836">
        <ele>2297.6000976562</ele>
        <time>2024-10-15T09:38:05.000Z</time>
      </trkpt>
      <trkpt lat="45.10099" lon="5.97835">
        <ele>2297.8000488281</ele>
        <time>2024-10-15T09:38:06.000Z</time>
      </trkpt>
      <trkpt lat="45.10099" lon="5.97835">
        <ele>2298.1999511719</ele>
        <time>2024-10-15T09:38:07.000Z</time>
      </trkpt>
      <trkpt lat="45.10099" lon="5.97835">
        <ele>2298.3999023438</ele>
        <time>2024-10-15T09:38:08.000Z</time>
      </trkpt>
      <trkpt lat="45.10099" lon="5.97834">
        <ele>2298.6000976562</ele>
        <time>2024-10-15T09:38:09.000Z</time>
      </trkpt>
      <trkpt lat="45.10098" lon="5.97834">
        <ele>2298.8000488281</ele>
        <time>2024-10-15T09:38:10.000Z</time>
      </trkpt>
      <trkpt lat="45.10098" lon="5.97833">
        <ele>2298.8000488281</ele>
        <time>2024-10-15T09:38:11.000Z</time>
      </trkpt>
      <trkpt lat="45.10098" lon="5.97833">
        <ele>2298.8000488281</ele>
        <time>2024-10-15T09:38:12.000Z</time>
      </trkpt>
      <trkpt lat="45.10098" lon="5.97833">
        <ele>2298.8000488281</ele>
        <time>2024-10-15T09:38:13.000Z</time>
      </trkpt>
      <trkpt lat="45.10098" lon="5.97832">
        <ele>2298.8000488281</ele>
        <time>2024-10-15T09:38:14.000Z</time>
      </trkpt>
      <trkpt lat="45.10098" lon="5.97832">
        <ele>2298.8000488281</ele>
        <time>2024-10-15T09:38:15.000Z</time>
      </trkpt>
      <trkpt lat="45.10098" lon="5.97832">
        <ele>2299</ele>
        <time>2024-10-15T09:38:16.000Z</time>
      </trkpt>
      <trkpt lat="45.10098" lon="5.97832">
        <ele>2299</ele>
        <time>2024-10-15T09:38:17.000Z</time>
      </trkpt>
      <trkpt lat="45.10098" lon="5.97831">
        <ele>2299</ele>
        <time>2024-10-15T09:38:18.000Z</time>
      </trkpt>
      <trkpt lat="45.10098" lon="5.97831">
        <ele>2299.1999511719</ele>
        <time>2024-10-15T09:38:19.000Z</time>
      </trkpt>
      <trkpt lat="45.10097" lon="5.97831">
        <ele>2299.6000976562</ele>
        <time>2024-10-15T09:38:20.000Z</time>
      </trkpt>
      <trkpt lat="45.10097" lon="5.9783">
        <ele>2299.6000976562</ele>
        <time>2024-10-15T09:38:21.000Z</time>
      </trkpt>
      <trkpt lat="45.10097" lon="5.9783">
        <ele>2299.8000488281</ele>
        <time>2024-10-15T09:38:22.000Z</time>
      </trkpt>
      <trkpt lat="45.10097" lon="5.9783">
        <ele>2300</ele>
        <time>2024-10-15T09:38:23.000Z</time>
      </trkpt>
      <trkpt lat="45.10097" lon="5.9783">
        <ele>2300</ele>
        <time>2024-10-15T09:38:24.000Z</time>
      </trkpt>
      <trkpt lat="45.10097" lon="5.97829">
        <ele>2300.3999023438</ele>
        <time>2024-10-15T09:38:25.000Z</time>
      </trkpt>
      <trkpt lat="45.10097" lon="5.97829">
        <ele>2300.6000976562</ele>
        <time>2024-10-15T09:38:26.000Z</time>
      </trkpt>
      <trkpt lat="45.10097" lon="5.97829">
        <ele>2301</ele>
        <time>2024-10-15T09:38:27.000Z</time>
      </trkpt>
      <trkpt lat="45.10097" lon="5.97829">
        <ele>2301.3999023438</ele>
        <time>2024-10-15T09:38:28.000Z</time>
      </trkpt>
      <trkpt lat="45.10097" lon="5.97828">
        <ele>2301.6000976562</ele>
        <time>2024-10-15T09:38:29.000Z</time>
      </trkpt>
      <trkpt lat="45.10097" lon="5.97828">
        <ele>2302</ele>
        <time>2024-10-15T09:38:30.000Z</time>
      </trkpt>
      <trkpt lat="45.10097" lon="5.97828">
        <ele>2302.1999511719</ele>
        <time>2024-10-15T09:38:31.000Z</time>
      </trkpt>
      <trkpt lat="45.10097" lon="5.97828">
        <ele>2302.3999023438</ele>
        <time>2024-10-15T09:38:32.000Z</time>
      </trkpt>
      <trkpt lat="45.10096" lon="5.97828">
        <ele>2302.6000976562</ele>
        <time>2024-10-15T09:38:33.000Z</time>
      </trkpt>
      <trkpt lat="45.10096" lon="5.97827">
        <ele>2302.6000976562</ele>
        <time>2024-10-15T09:38:34.000Z</time>
      </trkpt>
      <trkpt lat="45.10096" lon="5.97827">
        <ele>2302.8000488281</ele>
        <time>2024-10-15T09:38:35.000Z</time>
      </trkpt>
      <trkpt lat="45.10096" lon="5.97827">
        <ele>2302.8000488281</ele>
        <time>2024-10-15T09:38:36.000Z</time>
      </trkpt>
      <trkpt lat="45.10096" lon="5.97827">
        <ele>2302.8000488281</ele>
        <time>2024-10-15T09:38:37.000Z</time>
      </trkpt>
      <trkpt lat="45.10095" lon="5.97826">
        <ele>2302.8000488281</ele>
        <time>2024-10-15T09:38:38.000Z</time>
      </trkpt>
      <trkpt lat="45.10095" lon="5.97826">
        <ele>2303</ele>
        <time>2024-10-15T09:38:39.000Z</time>
      </trkpt>
      <trkpt lat="45.10095" lon="5.97826">
        <ele>2303.3999023438</ele>
        <time>2024-10-15T09:38:40.000Z</time>
      </trkpt>
      <trkpt lat="45.10095" lon="5.97826">
        <ele>2303.3999023438</ele>
        <time>2024-10-15T09:38:41.000Z</time>
      </trkpt>
      <trkpt lat="45.10094" lon="5.97826">
        <ele>2303.3999023438</ele>
        <time>2024-10-15T09:38:42.000Z</time>
      </trkpt>
      <trkpt lat="45.10094" lon="5.97826">
        <ele>2303.3999023438</ele>
        <time>2024-10-15T09:38:43.000Z</time>
      </trkpt>
      <trkpt lat="45.10094" lon="5.97826">
        <ele>2303.3999023438</ele>
        <time>2024-10-15T09:38:44.000Z</time>
      </trkpt>
      <trkpt lat="45.10094" lon="5.97825">
        <ele>2303.3999023438</ele>
        <time>2024-10-15T09:38:45.000Z</time>
      </trkpt>
      <trkpt lat="45.10093" lon="5.97825">
        <ele>2303.1999511719</ele>
        <time>2024-10-15T09:38:46.000Z</time>
      </trkpt>
      <trkpt lat="45.10093" lon="5.97825">
        <ele>2303.3999023438</ele>
        <time>2024-10-15T09:38:47.000Z</time>
      </trkpt>
      <trkpt lat="45.10093" lon="5.97825">
        <ele>2303.3999023438</ele>
        <time>2024-10-15T09:38:48.000Z</time>
      </trkpt>
      <trkpt lat="45.10093" lon="5.97825">
        <ele>2303.3999023438</ele>
        <time>2024-10-15T09:38:49.000Z</time>
      </trkpt>
      <trkpt lat="45.10093" lon="5.97825">
        <ele>2303.3999023438</ele>
        <time>2024-10-15T09:38:50.000Z</time>
      </trkpt>
      <trkpt lat="45.10092" lon="5.97825">
        <ele>2303.6000976562</ele>
        <time>2024-10-15T09:38:51.000Z</time>
      </trkpt>
      <trkpt lat="45.10092" lon="5.97825">
        <ele>2304</ele>
        <time>2024-10-15T09:38:52.000Z</time>
      </trkpt>
      <trkpt lat="45.10092" lon="5.97825">
        <ele>2304.1999511719</ele>
        <time>2024-10-15T09:38:53.000Z</time>
      </trkpt>
      <trkpt lat="45.10092" lon="5.97825">
        <ele>2304.3999023438</ele>
        <time>2024-10-15T09:38:54.000Z</time>
      </trkpt>
      <trkpt lat="45.10092" lon="5.97824">
        <ele>2304.6000976562</ele>
        <time>2024-10-15T09:38:55.000Z</time>
      </trkpt>
      <trkpt lat="45.10092" lon="5.97824">
        <ele>2304.8000488281</ele>
        <time>2024-10-15T09:38:56.000Z</time>
      </trkpt>
      <trkpt lat="45.10092" lon="5.97824">
        <ele>2305.1999511719</ele>
        <time>2024-10-15T09:38:57.000Z</time>
      </trkpt>
      <trkpt lat="45.10092" lon="5.97824">
        <ele>2305.1999511719</ele>
        <time>2024-10-15T09:38:58.000Z</time>
      </trkpt>
      <trkpt lat="45.10092" lon="5.97824">
        <ele>2305.3999023438</ele>
        <time>2024-10-15T09:38:59.000Z</time>
      </trkpt>
      <trkpt lat="45.10092" lon="5.97824">
        <ele>2305.6000976562</ele>
        <time>2024-10-15T09:39:00.000Z</time>
      </trkpt>
      <trkpt lat="45.10091" lon="5.97824">
        <ele>2306</ele>
        <time>2024-10-15T09:39:01.000Z</time>
      </trkpt>
      <trkpt lat="45.10091" lon="5.97824">
        <ele>2306.3999023438</ele>
        <time>2024-10-15T09:39:02.000Z</time>
      </trkpt>
      <trkpt lat="45.10091" lon="5.97824">
        <ele>2306.6000976562</ele>
        <time>2024-10-15T09:39:03.000Z</time>
      </trkpt>
      <trkpt lat="45.10091" lon="5.97824">
        <ele>2306.8000488281</ele>
        <time>2024-10-15T09:39:04.000Z</time>
      </trkpt>
      <trkpt lat="45.10091" lon="5.97824">
        <ele>2307</ele>
        <time>2024-10-15T09:39:05.000Z</time>
      </trkpt>
      <trkpt lat="45.10091" lon="5.97824">
        <ele>2307.3999023438</ele>
        <time>2024-10-15T09:39:06.000Z</time>
      </trkpt>
      <trkpt lat="45.10091" lon="5.97824">
        <ele>2307.3999023438</ele>
        <time>2024-10-15T09:39:07.000Z</time>
      </trkpt>
      <trkpt lat="45.10091" lon="5.97824">
        <ele>2307.8000488281</ele>
        <time>2024-10-15T09:39:08.000Z</time>
      </trkpt>
      <trkpt lat="45.10091" lon="5.97824">
        <ele>2308.1999511719</ele>
        <time>2024-10-15T09:39:09.000Z</time>
      </trkpt>
      <trkpt lat="45.10091" lon="5.97824">
        <ele>2308.1999511719</ele>
        <time>2024-10-15T09:39:10.000Z</time>
      </trkpt>
      <trkpt lat="45.10091" lon="5.97824">
        <ele>2308.3999023438</ele>
        <time>2024-10-15T09:39:11.000Z</time>
      </trkpt>
      <trkpt lat="45.10091" lon="5.97824">
        <ele>2308.6000976562</ele>
        <time>2024-10-15T09:39:12.000Z</time>
      </trkpt>
      <trkpt lat="45.10091" lon="5.97824">
        <ele>2308.8000488281</ele>
        <time>2024-10-15T09:39:13.000Z</time>
      </trkpt>
      <trkpt lat="45.10091" lon="5.97824">
        <ele>2308.8000488281</ele>
        <time>2024-10-15T09:39:14.000Z</time>
      </trkpt>
      <trkpt lat="45.10091" lon="5.97824">
        <ele>2309</ele>
        <time>2024-10-15T09:39:15.000Z</time>
      </trkpt>
      <trkpt lat="45.10091" lon="5.97824">
        <ele>2309.6000976562</ele>
        <time>2024-10-15T09:39:16.000Z</time>
      </trkpt>
      <trkpt lat="45.10091" lon="5.97824">
        <ele>2309.8000488281</ele>
        <time>2024-10-15T09:39:17.000Z</time>
      </trkpt>
      <trkpt lat="45.10091" lon="5.97824">
        <ele>2310</ele>
        <time>2024-10-15T09:39:18.000Z</time>
      </trkpt>
      <trkpt lat="45.10091" lon="5.97824">
        <ele>2310.1999511719</ele>
        <time>2024-10-15T09:39:19.000Z</time>
      </trkpt>
      <trkpt lat="45.10091" lon="5.97824">
        <ele>2310.6000976562</ele>
        <time>2024-10-15T09:39:20.000Z</time>
      </trkpt>
      <trkpt lat="45.10091" lon="5.97824">
        <ele>2310.8000488281</ele>
        <time>2024-10-15T09:39:21.000Z</time>
      </trkpt>
      <trkpt lat="45.10091" lon="5.97824">
        <ele>2311</ele>
        <time>2024-10-15T09:39:22.000Z</time>
      </trkpt>
      <trkpt lat="45.10091" lon="5.97824">
        <ele>2311</ele>
        <time>2024-10-15T09:39:23.000Z</time>
      </trkpt>
      <trkpt lat="45.10091" lon="5.97824">
        <ele>2311.1999511719</ele>
        <time>2024-10-15T09:39:24.000Z</time>
      </trkpt>
      <trkpt lat="45.10091" lon="5.97824">
        <ele>2311.3999023438</ele>
        <time>2024-10-15T09:39:25.000Z</time>
      </trkpt>
      <trkpt lat="45.10091" lon="5.97824">
        <ele>2311.6000976562</ele>
        <time>2024-10-15T09:39:26.000Z</time>
      </trkpt>
      <trkpt lat="45.10091" lon="5.97824">
        <ele>2311.8000488281</ele>
        <time>2024-10-15T09:39:27.000Z</time>
      </trkpt>
      <trkpt lat="45.10091" lon="5.97824">
        <ele>2312.1999511719</ele>
        <time>2024-10-15T09:39:28.000Z</time>
      </trkpt>
      <trkpt lat="45.10091" lon="5.97824">
        <ele>2312.1999511719</ele>
        <time>2024-10-15T09:39:29.000Z</time>
      </trkpt>
      <trkpt lat="45.10091" lon="5.97824">
        <ele>2312.3999023438</ele>
        <time>2024-10-15T09:39:30.000Z</time>
      </trkpt>
      <trkpt lat="45.10091" lon="5.97824">
        <ele>2312.3999023438</ele>
        <time>2024-10-15T09:39:31.000Z</time>
      </trkpt>
      <trkpt lat="45.10091" lon="5.97824">
        <ele>2312.3999023438</ele>
        <time>2024-10-15T09:39:32.000Z</time>
      </trkpt>
      <trkpt lat="45.10091" lon="5.97824">
        <ele>2312.6000976562</ele>
        <time>2024-10-15T09:39:33.000Z</time>
      </trkpt>
      <trkpt lat="45.10091" lon="5.97824">
        <ele>2312.8000488281</ele>
        <time>2024-10-15T09:39:34.000Z</time>
      </trkpt>
      <trkpt lat="45.10091" lon="5.97824">
        <ele>2313</ele>
        <time>2024-10-15T09:39:35.000Z</time>
      </trkpt>
      <trkpt lat="45.10091" lon="5.97824">
        <ele>2313.6000976562</ele>
        <time>2024-10-15T09:39:36.000Z</time>
      </trkpt>
      <trkpt lat="45.10091" lon="5.97824">
        <ele>2313.8000488281</ele>
        <time>2024-10-15T09:39:37.000Z</time>
      </trkpt>
      <trkpt lat="45.10091" lon="5.97824">
        <ele>2314</ele>
        <time>2024-10-15T09:39:38.000Z</time>
      </trkpt>
      <trkpt lat="45.10091" lon="5.97824">
        <ele>2314.1999511719</ele>
        <time>2024-10-15T09:39:39.000Z</time>
      </trkpt>
      <trkpt lat="45.10091" lon="5.97823">
        <ele>2314.1999511719</ele>
        <time>2024-10-15T09:39:40.000Z</time>
      </trkpt>
      <trkpt lat="45.10091" lon="5.97823">
        <ele>2314.1999511719</ele>
        <time>2024-10-15T09:39:41.000Z</time>
      </trkpt>
      <trkpt lat="45.10091" lon="5.97823">
        <ele>2314.3999023438</ele>
        <time>2024-10-15T09:39:42.000Z</time>
      </trkpt>
      <trkpt lat="45.10091" lon="5.97823">
        <ele>2314.6000976562</ele>
        <time>2024-10-15T09:39:43.000Z</time>
      </trkpt>
      <trkpt lat="45.10091" lon="5.97823">
        <ele>2315</ele>
        <time>2024-10-15T09:39:44.000Z</time>
      </trkpt>
      <trkpt lat="45.10091" lon="5.97823">
        <ele>2315.1999511719</ele>
        <time>2024-10-15T09:39:45.000Z</time>
      </trkpt>
      <trkpt lat="45.10091" lon="5.97823">
        <ele>2315.6000976562</ele>
        <time>2024-10-15T09:39:46.000Z</time>
      </trkpt>
      <trkpt lat="45.10091" lon="5.97823">
        <ele>2316</ele>
        <time>2024-10-15T09:39:47.000Z</time>
      </trkpt>
      <trkpt lat="45.1009" lon="5.97823">
        <ele>2316</ele>
        <time>2024-10-15T09:39:48.000Z</time>
      </trkpt>
      <trkpt lat="45.1009" lon="5.97823">
        <ele>2316</ele>
        <time>2024-10-15T09:39:49.000Z</time>
      </trkpt>
      <trkpt lat="45.1009" lon="5.97823">
        <ele>2316</ele>
        <time>2024-10-15T09:39:50.000Z</time>
      </trkpt>
      <trkpt lat="45.1009" lon="5.97823">
        <ele>2316</ele>
        <time>2024-10-15T09:39:51.000Z</time>
      </trkpt>
      <trkpt lat="45.1009" lon="5.97823">
        <ele>2315.8000488281</ele>
        <time>2024-10-15T09:39:52.000Z</time>
      </trkpt>
      <trkpt lat="45.1009" lon="5.97823">
        <ele>2315.8000488281</ele>
        <time>2024-10-15T09:39:53.000Z</time>
      </trkpt>
      <trkpt lat="45.1009" lon="5.97823">
        <ele>2315.8000488281</ele>
        <time>2024-10-15T09:39:54.000Z</time>
      </trkpt>
      <trkpt lat="45.1009" lon="5.97823">
        <ele>2315.8000488281</ele>
        <time>2024-10-15T09:39:55.000Z</time>
      </trkpt>
      <trkpt lat="45.1009" lon="5.97823">
        <ele>2315.8000488281</ele>
        <time>2024-10-15T09:39:56.000Z</time>
      </trkpt>
      <trkpt lat="45.1009" lon="5.97823">
        <ele>2316</ele>
        <time>2024-10-15T09:39:57.000Z</time>
      </trkpt>
      <trkpt lat="45.1009" lon="5.97823">
        <ele>2316.3999023438</ele>
        <time>2024-10-15T09:39:58.000Z</time>
      </trkpt>
      <trkpt lat="45.1009" lon="5.97823">
        <ele>2317</ele>
        <time>2024-10-15T09:39:59.000Z</time>
      </trkpt>
      <trkpt lat="45.1009" lon="5.97823">
        <ele>2317.3999023438</ele>
        <time>2024-10-15T09:40:00.000Z</time>
      </trkpt>
      <trkpt lat="45.1009" lon="5.97823">
        <ele>2317.3999023438</ele>
        <time>2024-10-15T09:40:01.000Z</time>
      </trkpt>
      <trkpt lat="45.1009" lon="5.97823">
        <ele>2317.6000976562</ele>
        <time>2024-10-15T09:40:02.000Z</time>
      </trkpt>
      <trkpt lat="45.1009" lon="5.97823">
        <ele>2317.8000488281</ele>
        <time>2024-10-15T09:40:03.000Z</time>
      </trkpt>
      <trkpt lat="45.1009" lon="5.97823">
        <ele>2318</ele>
        <time>2024-10-15T09:40:04.000Z</time>
      </trkpt>
      <trkpt lat="45.1009" lon="5.97823">
        <ele>2318.1999511719</ele>
        <time>2024-10-15T09:40:05.000Z</time>
      </trkpt>
      <trkpt lat="45.1009" lon="5.97823">
        <ele>2318.3999023438</ele>
        <time>2024-10-15T09:40:06.000Z</time>
      </trkpt>
      <trkpt lat="45.1009" lon="5.97823">
        <ele>2318.3999023438</ele>
        <time>2024-10-15T09:40:07.000Z</time>
      </trkpt>
      <trkpt lat="45.1009" lon="5.97823">
        <ele>2318.3999023438</ele>
        <time>2024-10-15T09:40:08.000Z</time>
      </trkpt>
      <trkpt lat="45.1009" lon="5.97823">
        <ele>2318.3999023438</ele>
        <time>2024-10-15T09:40:09.000Z</time>
      </trkpt>
      <trkpt lat="45.1009" lon="5.97823">
        <ele>2318.3999023438</ele>
        <time>2024-10-15T09:40:10.000Z</time>
      </trkpt>
      <trkpt lat="45.1009" lon="5.97823">
        <ele>2318.3999023438</ele>
        <time>2024-10-15T09:40:11.000Z</time>
      </trkpt>
      <trkpt lat="45.1009" lon="5.97823">
        <ele>2318.3999023438</ele>
        <time>2024-10-15T09:40:12.000Z</time>
      </trkpt>
      <trkpt lat="45.1009" lon="5.97823">
        <ele>2318.3999023438</ele>
        <time>2024-10-15T09:40:13.000Z</time>
      </trkpt>
      <trkpt lat="45.1009" lon="5.97823">
        <ele>2318.3999023438</ele>
        <time>2024-10-15T09:40:14.000Z</time>
      </trkpt>
      <trkpt lat="45.1009" lon="5.97823">
        <ele>2318.3999023438</ele>
        <time>2024-10-15T09:40:15.000Z</time>
      </trkpt>
      <trkpt lat="45.1009" lon="5.97823">
        <ele>2318.6000976562</ele>
        <time>2024-10-15T09:40:16.000Z</time>
      </trkpt>
      <trkpt lat="45.1009" lon="5.97823">
        <ele>2319</ele>
        <time>2024-10-15T09:40:17.000Z</time>
      </trkpt>
      <trkpt lat="45.1009" lon="5.97823">
        <ele>2319.1999511719</ele>
        <time>2024-10-15T09:40:18.000Z</time>
      </trkpt>
      <trkpt lat="45.10089" lon="5.97822">
        <ele>2319.1999511719</ele>
        <time>2024-10-15T09:40:19.000Z</time>
      </trkpt>
      <trkpt lat="45.10089" lon="5.97822">
        <ele>2319.3999023438</ele>
        <time>2024-10-15T09:40:20.000Z</time>
      </trkpt>
      <trkpt lat="45.10089" lon="5.97822">
        <ele>2319.6000976562</ele>
        <time>2024-10-15T09:40:21.000Z</time>
      </trkpt>
      <trkpt lat="45.10089" lon="5.97822">
        <ele>2320</ele>
        <time>2024-10-15T09:40:22.000Z</time>
      </trkpt>
      <trkpt lat="45.10089" lon="5.97822">
        <ele>2320</ele>
        <time>2024-10-15T09:40:23.000Z</time>
      </trkpt>
      <trkpt lat="45.10089" lon="5.97822">
        <ele>2320.1999511719</ele>
        <time>2024-10-15T09:40:24.000Z</time>
      </trkpt>
      <trkpt lat="45.10089" lon="5.97822">
        <ele>2320.3999023438</ele>
        <time>2024-10-15T09:40:25.000Z</time>
      </trkpt>
      <trkpt lat="45.10089" lon="5.97822">
        <ele>2320.6000976562</ele>
        <time>2024-10-15T09:40:26.000Z</time>
      </trkpt>
      <trkpt lat="45.10089" lon="5.97822">
        <ele>2321</ele>
        <time>2024-10-15T09:40:27.000Z</time>
      </trkpt>
      <trkpt lat="45.10089" lon="5.97822">
        <ele>2321.3999023438</ele>
        <time>2024-10-15T09:40:28.000Z</time>
      </trkpt>
      <trkpt lat="45.10089" lon="5.97822">
        <ele>2321.8000488281</ele>
        <time>2024-10-15T09:40:29.000Z</time>
      </trkpt>
      <trkpt lat="45.10089" lon="5.97822">
        <ele>2322</ele>
        <time>2024-10-15T09:40:30.000Z</time>
      </trkpt>
      <trkpt lat="45.10089" lon="5.97822">
        <ele>2322.1999511719</ele>
        <time>2024-10-15T09:40:31.000Z</time>
      </trkpt>
      <trkpt lat="45.10089" lon="5.97822">
        <ele>2322.3999023438</ele>
        <time>2024-10-15T09:40:32.000Z</time>
      </trkpt>
      <trkpt lat="45.10089" lon="5.97822">
        <ele>2322.6000976562</ele>
        <time>2024-10-15T09:40:33.000Z</time>
      </trkpt>
      <trkpt lat="45.10089" lon="5.97822">
        <ele>2322.8000488281</ele>
        <time>2024-10-15T09:40:34.000Z</time>
      </trkpt>
      <trkpt lat="45.10089" lon="5.97822">
        <ele>2323</ele>
        <time>2024-10-15T09:40:35.000Z</time>
      </trkpt>
      <trkpt lat="45.10089" lon="5.97822">
        <ele>2323.3999023438</ele>
        <time>2024-10-15T09:40:36.000Z</time>
      </trkpt>
      <trkpt lat="45.10089" lon="5.97822">
        <ele>2323.3999023438</ele>
        <time>2024-10-15T09:40:37.000Z</time>
      </trkpt>
      <trkpt lat="45.10089" lon="5.97822">
        <ele>2323.8000488281</ele>
        <time>2024-10-15T09:40:38.000Z</time>
      </trkpt>
      <trkpt lat="45.10089" lon="5.97822">
        <ele>2323.8000488281</ele>
        <time>2024-10-15T09:40:39.000Z</time>
      </trkpt>
      <trkpt lat="45.10089" lon="5.97822">
        <ele>2324</ele>
        <time>2024-10-15T09:40:40.000Z</time>
      </trkpt>
      <trkpt lat="45.10089" lon="5.97822">
        <ele>2324.3999023438</ele>
        <time>2024-10-15T09:40:41.000Z</time>
      </trkpt>
      <trkpt lat="45.10089" lon="5.97822">
        <ele>2324.6000976562</ele>
        <time>2024-10-15T09:40:42.000Z</time>
      </trkpt>
      <trkpt lat="45.10089" lon="5.97822">
        <ele>2324.6000976562</ele>
        <time>2024-10-15T09:40:43.000Z</time>
      </trkpt>
      <trkpt lat="45.10089" lon="5.97822">
        <ele>2324.8000488281</ele>
        <time>2024-10-15T09:40:44.000Z</time>
      </trkpt>
      <trkpt lat="45.10089" lon="5.97822">
        <ele>2325.1999511719</ele>
        <time>2024-10-15T09:40:45.000Z</time>
      </trkpt>
      <trkpt lat="45.10089" lon="5.97822">
        <ele>2325.1999511719</ele>
        <time>2024-10-15T09:40:46.000Z</time>
      </trkpt>
      <trkpt lat="45.10088" lon="5.97821">
        <ele>2325.3999023438</ele>
        <time>2024-10-15T09:40:47.000Z</time>
      </trkpt>
      <trkpt lat="45.10088" lon="5.97821">
        <ele>2325.6000976562</ele>
        <time>2024-10-15T09:40:48.000Z</time>
      </trkpt>
      <trkpt lat="45.10088" lon="5.97821">
        <ele>2325.6000976562</ele>
        <time>2024-10-15T09:40:49.000Z</time>
      </trkpt>
      <trkpt lat="45.10088" lon="5.97821">
        <ele>2325.8000488281</ele>
        <time>2024-10-15T09:40:50.000Z</time>
      </trkpt>
      <trkpt lat="45.10088" lon="5.97821">
        <ele>2326.1999511719</ele>
        <time>2024-10-15T09:40:51.000Z</time>
      </trkpt>
      <trkpt lat="45.10088" lon="5.97821">
        <ele>2326.1999511719</ele>
        <time>2024-10-15T09:40:52.000Z</time>
      </trkpt>
      <trkpt lat="45.10088" lon="5.97821">
        <ele>2326.3999023438</ele>
        <time>2024-10-15T09:40:53.000Z</time>
      </trkpt>
      <trkpt lat="45.10088" lon="5.97821">
        <ele>2326.6000976562</ele>
        <time>2024-10-15T09:40:54.000Z</time>
      </trkpt>
      <trkpt lat="45.10088" lon="5.97821">
        <ele>2326.8000488281</ele>
        <time>2024-10-15T09:40:55.000Z</time>
      </trkpt>
      <trkpt lat="45.10088" lon="5.97821">
        <ele>2326.8000488281</ele>
        <time>2024-10-15T09:40:56.000Z</time>
      </trkpt>
      <trkpt lat="45.10088" lon="5.97821">
        <ele>2326.8000488281</ele>
        <time>2024-10-15T09:40:57.000Z</time>
      </trkpt>
      <trkpt lat="45.10088" lon="5.97821">
        <ele>2326.8000488281</ele>
        <time>2024-10-15T09:40:58.000Z</time>
      </trkpt>
      <trkpt lat="45.10088" lon="5.97821">
        <ele>2326.8000488281</ele>
        <time>2024-10-15T09:40:59.000Z</time>
      </trkpt>
      <trkpt lat="45.10088" lon="5.97821">
        <ele>2326.8000488281</ele>
        <time>2024-10-15T09:41:00.000Z</time>
      </trkpt>
      <trkpt lat="45.10088" lon="5.97821">
        <ele>2326.8000488281</ele>
        <time>2024-10-15T09:41:01.000Z</time>
      </trkpt>
      <trkpt lat="45.10088" lon="5.97821">
        <ele>2327</ele>
        <time>2024-10-15T09:41:02.000Z</time>
      </trkpt>
      <trkpt lat="45.10088" lon="5.97821">
        <ele>2327.1999511719</ele>
        <time>2024-10-15T09:41:03.000Z</time>
      </trkpt>
      <trkpt lat="45.10088" lon="5.97821">
        <ele>2327.3999023438</ele>
        <time>2024-10-15T09:41:04.000Z</time>
      </trkpt>
      <trkpt lat="45.10088" lon="5.97821">
        <ele>2327.6000976562</ele>
        <time>2024-10-15T09:41:05.000Z</time>
      </trkpt>
      <trkpt lat="45.10088" lon="5.9782">
        <ele>2328</ele>
        <time>2024-10-15T09:41:06.000Z</time>
      </trkpt>
      <trkpt lat="45.10088" lon="5.9782">
        <ele>2328.1999511719</ele>
        <time>2024-10-15T09:41:07.000Z</time>
      </trkpt>
      <trkpt lat="45.10088" lon="5.9782">
        <ele>2328.1999511719</ele>
        <time>2024-10-15T09:41:08.000Z</time>
      </trkpt>
      <trkpt lat="45.10088" lon="5.9782">
        <ele>2328.1999511719</ele>
        <time>2024-10-15T09:41:09.000Z</time>
      </trkpt>
      <trkpt lat="45.10088" lon="5.9782">
        <ele>2328.3999023438</ele>
        <time>2024-10-15T09:41:10.000Z</time>
      </trkpt>
      <trkpt lat="45.10088" lon="5.9782">
        <ele>2328.8000488281</ele>
        <time>2024-10-15T09:41:11.000Z</time>
      </trkpt>
      <trkpt lat="45.10088" lon="5.9782">
        <ele>2328.8000488281</ele>
        <time>2024-10-15T09:41:12.000Z</time>
      </trkpt>
      <trkpt lat="45.10088" lon="5.9782">
        <ele>2328.8000488281</ele>
        <time>2024-10-15T09:41:13.000Z</time>
      </trkpt>
      <trkpt lat="45.10088" lon="5.9782">
        <ele>2329.1999511719</ele>
        <time>2024-10-15T09:41:14.000Z</time>
      </trkpt>
      <trkpt lat="45.10087" lon="5.9782">
        <ele>2329.1999511719</ele>
        <time>2024-10-15T09:41:15.000Z</time>
      </trkpt>
      <trkpt lat="45.10087" lon="5.9782">
        <ele>2329.1999511719</ele>
        <time>2024-10-15T09:41:16.000Z</time>
      </trkpt>
      <trkpt lat="45.10087" lon="5.9782">
        <ele>2329.1999511719</ele>
        <time>2024-10-15T09:41:17.000Z</time>
      </trkpt>
      <trkpt lat="45.10087" lon="5.9782">
        <ele>2329.1999511719</ele>
        <time>2024-10-15T09:41:18.000Z</time>
      </trkpt>
      <trkpt lat="45.10087" lon="5.9782">
        <ele>2329.1999511719</ele>
        <time>2024-10-15T09:41:19.000Z</time>
      </trkpt>
      <trkpt lat="45.10087" lon="5.9782">
        <ele>2329.1999511719</ele>
        <time>2024-10-15T09:41:20.000Z</time>
      </trkpt>
      <trkpt lat="45.10087" lon="5.9782">
        <ele>2329</ele>
        <time>2024-10-15T09:41:21.000Z</time>
      </trkpt>
      <trkpt lat="45.10087" lon="5.9782">
        <ele>2329</ele>
        <time>2024-10-15T09:41:22.000Z</time>
      </trkpt>
      <trkpt lat="45.10087" lon="5.9782">
        <ele>2328.8000488281</ele>
        <time>2024-10-15T09:41:23.000Z</time>
      </trkpt>
      <trkpt lat="45.10087" lon="5.9782">
        <ele>2328.6000976562</ele>
        <time>2024-10-15T09:41:24.000Z</time>
      </trkpt>
      <trkpt lat="45.10087" lon="5.9782">
        <ele>2328.3999023438</ele>
        <time>2024-10-15T09:41:25.000Z</time>
      </trkpt>
      <trkpt lat="45.10087" lon="5.97819">
        <ele>2328.1999511719</ele>
        <time>2024-10-15T09:41:26.000Z</time>
      </trkpt>
      <trkpt lat="45.10087" lon="5.97819">
        <ele>2328</ele>
        <time>2024-10-15T09:41:27.000Z</time>
      </trkpt>
      <trkpt lat="45.10087" lon="5.97819">
        <ele>2328</ele>
        <time>2024-10-15T09:41:28.000Z</time>
      </trkpt>
      <trkpt lat="45.10087" lon="5.97819">
        <ele>2328</ele>
        <time>2024-10-15T09:41:29.000Z</time>
      </trkpt>
      <trkpt lat="45.10087" lon="5.97819">
        <ele>2327.8000488281</ele>
        <time>2024-10-15T09:41:30.000Z</time>
      </trkpt>
      <trkpt lat="45.10087" lon="5.97819">
        <ele>2328</ele>
        <time>2024-10-15T09:41:31.000Z</time>
      </trkpt>
      <trkpt lat="45.10087" lon="5.97819">
        <ele>2328.1999511719</ele>
        <time>2024-10-15T09:41:32.000Z</time>
      </trkpt>
      <trkpt lat="45.10087" lon="5.97819">
        <ele>2328.1999511719</ele>
        <time>2024-10-15T09:41:33.000Z</time>
      </trkpt>
      <trkpt lat="45.10087" lon="5.97819">
        <ele>2328.3999023438</ele>
        <time>2024-10-15T09:41:34.000Z</time>
      </trkpt>
      <trkpt lat="45.10087" lon="5.97819">
        <ele>2329</ele>
        <time>2024-10-15T09:41:35.000Z</time>
      </trkpt>
      <trkpt lat="45.10087" lon="5.97819">
        <ele>2329.3999023438</ele>
        <time>2024-10-15T09:41:36.000Z</time>
      </trkpt>
      <trkpt lat="45.10087" lon="5.97819">
        <ele>2329.3999023438</ele>
        <time>2024-10-15T09:41:37.000Z</time>
      </trkpt>
      <trkpt lat="45.10087" lon="5.97819">
        <ele>2329.1999511719</ele>
        <time>2024-10-15T09:41:38.000Z</time>
      </trkpt>
      <trkpt lat="45.10087" lon="5.97819">
        <ele>2329.1999511719</ele>
        <time>2024-10-15T09:41:39.000Z</time>
      </trkpt>
      <trkpt lat="45.10087" lon="5.97819">
        <ele>2329.1999511719</ele>
        <time>2024-10-15T09:41:40.000Z</time>
      </trkpt>
      <trkpt lat="45.10087" lon="5.97819">
        <ele>2328.6000976562</ele>
        <time>2024-10-15T09:41:41.000Z</time>
      </trkpt>
      <trkpt lat="45.10086" lon="5.97819">
        <ele>2328.6000976562</ele>
        <time>2024-10-15T09:41:42.000Z</time>
      </trkpt>
      <trkpt lat="45.10086" lon="5.97819">
        <ele>2328.3999023438</ele>
        <time>2024-10-15T09:41:43.000Z</time>
      </trkpt>
      <trkpt lat="45.10086" lon="5.97819">
        <ele>2328.3999023438</ele>
        <time>2024-10-15T09:41:44.000Z</time>
      </trkpt>
      <trkpt lat="45.10086" lon="5.97819">
        <ele>2328.3999023438</ele>
        <time>2024-10-15T09:41:45.000Z</time>
      </trkpt>
      <trkpt lat="45.10086" lon="5.97818">
        <ele>2328.6000976562</ele>
        <time>2024-10-15T09:41:46.000Z</time>
      </trkpt>
      <trkpt lat="45.10086" lon="5.97818">
        <ele>2328.8000488281</ele>
        <time>2024-10-15T09:41:47.000Z</time>
      </trkpt>
      <trkpt lat="45.10086" lon="5.97818">
        <ele>2329.8000488281</ele>
        <time>2024-10-15T09:41:48.000Z</time>
      </trkpt>
      <trkpt lat="45.10086" lon="5.97818">
        <ele>2330.8000488281</ele>
        <time>2024-10-15T09:41:49.000Z</time>
      </trkpt>
      <trkpt lat="45.10086" lon="5.97818">
        <ele>2331</ele>
        <time>2024-10-15T09:41:50.000Z</time>
      </trkpt>
      <trkpt lat="45.10086" lon="5.97818">
        <ele>2331</ele>
        <time>2024-10-15T09:41:51.000Z</time>
      </trkpt>
      <trkpt lat="45.10086" lon="5.97818">
        <ele>2331.1999511719</ele>
        <time>2024-10-15T09:41:52.000Z</time>
      </trkpt>
      <trkpt lat="45.10086" lon="5.97818">
        <ele>2331.3999023438</ele>
        <time>2024-10-15T09:41:53.000Z</time>
      </trkpt>
      <trkpt lat="45.10086" lon="5.97818">
        <ele>2331.3999023438</ele>
        <time>2024-10-15T09:41:54.000Z</time>
      </trkpt>
      <trkpt lat="45.10086" lon="5.97818">
        <ele>2331.3999023438</ele>
        <time>2024-10-15T09:41:55.000Z</time>
      </trkpt>
      <trkpt lat="45.10086" lon="5.97818">
        <ele>2331.8000488281</ele>
        <time>2024-10-15T09:41:56.000Z</time>
      </trkpt>
      <trkpt lat="45.10086" lon="5.97818">
        <ele>2332</ele>
        <time>2024-10-15T09:41:57.000Z</time>
      </trkpt>
      <trkpt lat="45.10086" lon="5.97818">
        <ele>2332</ele>
        <time>2024-10-15T09:41:58.000Z</time>
      </trkpt>
      <trkpt lat="45.10086" lon="5.97818">
        <ele>2332.1999511719</ele>
        <time>2024-10-15T09:41:59.000Z</time>
      </trkpt>
      <trkpt lat="45.10086" lon="5.97818">
        <ele>2332.1999511719</ele>
        <time>2024-10-15T09:42:00.000Z</time>
      </trkpt>
      <trkpt lat="45.10086" lon="5.97818">
        <ele>2332.3999023438</ele>
        <time>2024-10-15T09:42:01.000Z</time>
      </trkpt>
      <trkpt lat="45.10086" lon="5.97818">
        <ele>2332.6000976562</ele>
        <time>2024-10-15T09:42:02.000Z</time>
      </trkpt>
      <trkpt lat="45.10086" lon="5.97817">
        <ele>2332.8000488281</ele>
        <time>2024-10-15T09:42:03.000Z</time>
      </trkpt>
      <trkpt lat="45.10086" lon="5.97817">
        <ele>2333</ele>
        <time>2024-10-15T09:42:04.000Z</time>
      </trkpt>
      <trkpt lat="45.10086" lon="5.97817">
        <ele>2333.1999511719</ele>
        <time>2024-10-15T09:42:05.000Z</time>
      </trkpt>
      <trkpt lat="45.10086" lon="5.97817">
        <ele>2333.1999511719</ele>
        <time>2024-10-15T09:42:06.000Z</time>
      </trkpt>
      <trkpt lat="45.10086" lon="5.97817">
        <ele>2333.6000976562</ele>
        <time>2024-10-15T09:42:07.000Z</time>
      </trkpt>
      <trkpt lat="45.10086" lon="5.97817">
        <ele>2334</ele>
        <time>2024-10-15T09:42:08.000Z</time>
      </trkpt>
      <trkpt lat="45.10086" lon="5.97817">
        <ele>2334.3999023438</ele>
        <time>2024-10-15T09:42:09.000Z</time>
      </trkpt>
      <trkpt lat="45.10086" lon="5.97817">
        <ele>2334.6000976562</ele>
        <time>2024-10-15T09:42:10.000Z</time>
      </trkpt>
      <trkpt lat="45.10086" lon="5.97817">
        <ele>2335</ele>
        <time>2024-10-15T09:42:11.000Z</time>
      </trkpt>
      <trkpt lat="45.10086" lon="5.97817">
        <ele>2335.8000488281</ele>
        <time>2024-10-15T09:42:12.000Z</time>
      </trkpt>
      <trkpt lat="45.10086" lon="5.97817">
        <ele>2336</ele>
        <time>2024-10-15T09:42:13.000Z</time>
      </trkpt>
      <trkpt lat="45.10085" lon="5.97817">
        <ele>2336</ele>
        <time>2024-10-15T09:42:14.000Z</time>
      </trkpt>
      <trkpt lat="45.10085" lon="5.97817">
        <ele>2336</ele>
        <time>2024-10-15T09:42:15.000Z</time>
      </trkpt>
      <trkpt lat="45.10085" lon="5.97817">
        <ele>2336</ele>
        <time>2024-10-15T09:42:16.000Z</time>
      </trkpt>
      <trkpt lat="45.10085" lon="5.97817">
        <ele>2336</ele>
        <time>2024-10-15T09:42:17.000Z</time>
      </trkpt>
      <trkpt lat="45.10085" lon="5.97816">
        <ele>2336</ele>
        <time>2024-10-15T09:42:18.000Z</time>
      </trkpt>
      <trkpt lat="45.10085" lon="5.97816">
        <ele>2336.1999511719</ele>
        <time>2024-10-15T09:42:19.000Z</time>
      </trkpt>
      <trkpt lat="45.10085" lon="5.97816">
        <ele>2336.6000976562</ele>
        <time>2024-10-15T09:42:20.000Z</time>
      </trkpt>
      <trkpt lat="45.10085" lon="5.97816">
        <ele>2336.8000488281</ele>
        <time>2024-10-15T09:42:21.000Z</time>
      </trkpt>
      <trkpt lat="45.10085" lon="5.97816">
        <ele>2337</ele>
        <time>2024-10-15T09:42:22.000Z</time>
      </trkpt>
      <trkpt lat="45.10085" lon="5.97816">
        <ele>2337.1999511719</ele>
        <time>2024-10-15T09:42:23.000Z</time>
      </trkpt>
      <trkpt lat="45.10085" lon="5.97816">
        <ele>2337.6000976562</ele>
        <time>2024-10-15T09:42:24.000Z</time>
      </trkpt>
      <trkpt lat="45.10085" lon="5.97816">
        <ele>2337.8000488281</ele>
        <time>2024-10-15T09:42:25.000Z</time>
      </trkpt>
      <trkpt lat="45.10085" lon="5.97816">
        <ele>2338</ele>
        <time>2024-10-15T09:42:26.000Z</time>
      </trkpt>
      <trkpt lat="45.10085" lon="5.97816">
        <ele>2338.1999511719</ele>
        <time>2024-10-15T09:42:27.000Z</time>
      </trkpt>
      <trkpt lat="45.10085" lon="5.97816">
        <ele>2338.6000976562</ele>
        <time>2024-10-15T09:42:28.000Z</time>
      </trkpt>
      <trkpt lat="45.10085" lon="5.97816">
        <ele>2338.8000488281</ele>
        <time>2024-10-15T09:42:29.000Z</time>
      </trkpt>
      <trkpt lat="45.10085" lon="5.97816">
        <ele>2339</ele>
        <time>2024-10-15T09:42:30.000Z</time>
      </trkpt>
      <trkpt lat="45.10085" lon="5.97816">
        <ele>2339.3999023438</ele>
        <time>2024-10-15T09:42:31.000Z</time>
      </trkpt>
      <trkpt lat="45.10085" lon="5.97816">
        <ele>2339.6000976562</ele>
        <time>2024-10-15T09:42:32.000Z</time>
      </trkpt>
      <trkpt lat="45.10085" lon="5.97816">
        <ele>2339.6000976562</ele>
        <time>2024-10-15T09:42:33.000Z</time>
      </trkpt>
      <trkpt lat="45.10085" lon="5.97815">
        <ele>2339.8000488281</ele>
        <time>2024-10-15T09:42:34.000Z</time>
      </trkpt>
      <trkpt lat="45.10085" lon="5.97815">
        <ele>2340.1999511719</ele>
        <time>2024-10-15T09:42:35.000Z</time>
      </trkpt>
      <trkpt lat="45.10085" lon="5.97815">
        <ele>2340.3999023438</ele>
        <time>2024-10-15T09:42:36.000Z</time>
      </trkpt>
      <trkpt lat="45.10085" lon="5.97815">
        <ele>2340.6000976562</ele>
        <time>2024-10-15T09:42:37.000Z</time>
      </trkpt>
      <trkpt lat="45.10085" lon="5.97815">
        <ele>2340.6000976562</ele>
        <time>2024-10-15T09:42:38.000Z</time>
      </trkpt>
      <trkpt lat="45.10085" lon="5.97815">
        <ele>2340.6000976562</ele>
        <time>2024-10-15T09:42:39.000Z</time>
      </trkpt>
      <trkpt lat="45.10085" lon="5.97815">
        <ele>2340.8000488281</ele>
        <time>2024-10-15T09:42:40.000Z</time>
      </trkpt>
      <trkpt lat="45.10085" lon="5.97815">
        <ele>2341.3999023438</ele>
        <time>2024-10-15T09:42:41.000Z</time>
      </trkpt>
      <trkpt lat="45.10085" lon="5.97815">
        <ele>2341.6000976562</ele>
        <time>2024-10-15T09:42:42.000Z</time>
      </trkpt>
      <trkpt lat="45.10085" lon="5.97815">
        <ele>2341.8000488281</ele>
        <time>2024-10-15T09:42:43.000Z</time>
      </trkpt>
      <trkpt lat="45.10085" lon="5.97815">
        <ele>2341.8000488281</ele>
        <time>2024-10-15T09:42:44.000Z</time>
      </trkpt>
      <trkpt lat="45.10085" lon="5.97815">
        <ele>2341.8000488281</ele>
        <time>2024-10-15T09:42:45.000Z</time>
      </trkpt>
      <trkpt lat="45.10084" lon="5.97815">
        <ele>2341.8000488281</ele>
        <time>2024-10-15T09:42:46.000Z</time>
      </trkpt>
      <trkpt lat="45.10084" lon="5.97815">
        <ele>2342.1999511719</ele>
        <time>2024-10-15T09:42:47.000Z</time>
      </trkpt>
      <trkpt lat="45.10084" lon="5.97815">
        <ele>2342.1999511719</ele>
        <time>2024-10-15T09:42:48.000Z</time>
      </trkpt>
      <trkpt lat="45.10084" lon="5.97814">
        <ele>2342.1999511719</ele>
        <time>2024-10-15T09:42:49.000Z</time>
      </trkpt>
      <trkpt lat="45.10084" lon="5.97814">
        <ele>2342.1999511719</ele>
        <time>2024-10-15T09:42:50.000Z</time>
      </trkpt>
      <trkpt lat="45.10084" lon="5.97814">
        <ele>2342.1999511719</ele>
        <time>2024-10-15T09:42:51.000Z</time>
      </trkpt>
      <trkpt lat="45.10084" lon="5.97814">
        <ele>2342.3999023438</ele>
        <time>2024-10-15T09:42:52.000Z</time>
      </trkpt>
      <trkpt lat="45.10084" lon="5.97814">
        <ele>2342.3999023438</ele>
        <time>2024-10-15T09:42:53.000Z</time>
      </trkpt>
      <trkpt lat="45.10084" lon="5.97814">
        <ele>2342.6000976562</ele>
        <time>2024-10-15T09:42:54.000Z</time>
      </trkpt>
      <trkpt lat="45.10084" lon="5.97814">
        <ele>2342.8000488281</ele>
        <time>2024-10-15T09:42:55.000Z</time>
      </trkpt>
      <trkpt lat="45.10084" lon="5.97814">
        <ele>2343</ele>
        <time>2024-10-15T09:42:56.000Z</time>
      </trkpt>
      <trkpt lat="45.10084" lon="5.97814">
        <ele>2343.1999511719</ele>
        <time>2024-10-15T09:42:57.000Z</time>
      </trkpt>
      <trkpt lat="45.10084" lon="5.97814">
        <ele>2343.6000976562</ele>
        <time>2024-10-15T09:42:58.000Z</time>
      </trkpt>
      <trkpt lat="45.10084" lon="5.97814">
        <ele>2343.8000488281</ele>
        <time>2024-10-15T09:42:59.000Z</time>
      </trkpt>
      <trkpt lat="45.10084" lon="5.97814">
        <ele>2344.1999511719</ele>
        <time>2024-10-15T09:43:00.000Z</time>
      </trkpt>
      <trkpt lat="45.10084" lon="5.97814">
        <ele>2344.1999511719</ele>
        <time>2024-10-15T09:43:01.000Z</time>
      </trkpt>
      <trkpt lat="45.10084" lon="5.97814">
        <ele>2344.3999023438</ele>
        <time>2024-10-15T09:43:02.000Z</time>
      </trkpt>
      <trkpt lat="45.10084" lon="5.97813">
        <ele>2344.6000976562</ele>
        <time>2024-10-15T09:43:03.000Z</time>
      </trkpt>
      <trkpt lat="45.10084" lon="5.97813">
        <ele>2344.6000976562</ele>
        <time>2024-10-15T09:43:04.000Z</time>
      </trkpt>
      <trkpt lat="45.10084" lon="5.97813">
        <ele>2344.8000488281</ele>
        <time>2024-10-15T09:43:05.000Z</time>
      </trkpt>
      <trkpt lat="45.10084" lon="5.97813">
        <ele>2344.8000488281</ele>
        <time>2024-10-15T09:43:06.000Z</time>
      </trkpt>
      <trkpt lat="45.10084" lon="5.97813">
        <ele>2345</ele>
        <time>2024-10-15T09:43:07.000Z</time>
      </trkpt>
      <trkpt lat="45.10084" lon="5.97813">
        <ele>2345.1999511719</ele>
        <time>2024-10-15T09:43:08.000Z</time>
      </trkpt>
      <trkpt lat="45.10084" lon="5.97813">
        <ele>2345.3999023438</ele>
        <time>2024-10-15T09:43:09.000Z</time>
      </trkpt>
      <trkpt lat="45.10084" lon="5.97813">
        <ele>2345.6000976562</ele>
        <time>2024-10-15T09:43:10.000Z</time>
      </trkpt>
      <trkpt lat="45.10084" lon="5.97813">
        <ele>2345.6000976562</ele>
        <time>2024-10-15T09:43:11.000Z</time>
      </trkpt>
      <trkpt lat="45.10084" lon="5.97813">
        <ele>2345.8000488281</ele>
        <time>2024-10-15T09:43:12.000Z</time>
      </trkpt>
      <trkpt lat="45.10084" lon="5.97813">
        <ele>2346</ele>
        <time>2024-10-15T09:43:13.000Z</time>
      </trkpt>
      <trkpt lat="45.10084" lon="5.97813">
        <ele>2346.1999511719</ele>
        <time>2024-10-15T09:43:14.000Z</time>
      </trkpt>
      <trkpt lat="45.10084" lon="5.97812">
        <ele>2346.6000976562</ele>
        <time>2024-10-15T09:43:15.000Z</time>
      </trkpt>
      <trkpt lat="45.10084" lon="5.97812">
        <ele>2347</ele>
        <time>2024-10-15T09:43:16.000Z</time>
      </trkpt>
      <trkpt lat="45.10084" lon="5.97812">
        <ele>2347</ele>
        <time>2024-10-15T09:43:17.000Z</time>
      </trkpt>
      <trkpt lat="45.10084" lon="5.97812">
        <ele>2347</ele>
        <time>2024-10-15T09:43:18.000Z</time>
      </trkpt>
      <trkpt lat="45.10084" lon="5.97812">
        <ele>2347.3999023438</ele>
        <time>2024-10-15T09:43:19.000Z</time>
      </trkpt>
      <trkpt lat="45.10084" lon="5.97812">
        <ele>2347.6000976562</ele>
        <time>2024-10-15T09:43:20.000Z</time>
      </trkpt>
      <trkpt lat="45.10084" lon="5.97812">
        <ele>2347.8000488281</ele>
        <time>2024-10-15T09:43:21.000Z</time>
      </trkpt>
      <trkpt lat="45.10083" lon="5.97812">
        <ele>2348</ele>
        <time>2024-10-15T09:43:22.000Z</time>
      </trkpt>
      <trkpt lat="45.10083" lon="5.97812">
        <ele>2348.1999511719</ele>
        <time>2024-10-15T09:43:23.000Z</time>
      </trkpt>
      <trkpt lat="45.10083" lon="5.97812">
        <ele>2348.6000976562</ele>
        <time>2024-10-15T09:43:24.000Z</time>
      </trkpt>
      <trkpt lat="45.10083" lon="5.97812">
        <ele>2348.8000488281</ele>
        <time>2024-10-15T09:43:25.000Z</time>
      </trkpt>
      <trkpt lat="45.10083" lon="5.97812">
        <ele>2349</ele>
        <time>2024-10-15T09:43:26.000Z</time>
      </trkpt>
      <trkpt lat="45.10083" lon="5.97811">
        <ele>2349.1999511719</ele>
        <time>2024-10-15T09:43:27.000Z</time>
      </trkpt>
      <trkpt lat="45.10083" lon="5.97811">
        <ele>2349.3999023438</ele>
        <time>2024-10-15T09:43:28.000Z</time>
      </trkpt>
      <trkpt lat="45.10083" lon="5.97811">
        <ele>2349.6000976562</ele>
        <time>2024-10-15T09:43:29.000Z</time>
      </trkpt>
      <trkpt lat="45.10083" lon="5.97811">
        <ele>2350.1999511719</ele>
        <time>2024-10-15T09:43:30.000Z</time>
      </trkpt>
      <trkpt lat="45.10083" lon="5.97811">
        <ele>2350.1999511719</ele>
        <time>2024-10-15T09:43:31.000Z</time>
      </trkpt>
      <trkpt lat="45.10083" lon="5.97811">
        <ele>2350.3999023438</ele>
        <time>2024-10-15T09:43:32.000Z</time>
      </trkpt>
      <trkpt lat="45.10083" lon="5.97811">
        <ele>2350.8000488281</ele>
        <time>2024-10-15T09:43:33.000Z</time>
      </trkpt>
      <trkpt lat="45.10083" lon="5.97811">
        <ele>2351</ele>
        <time>2024-10-15T09:43:34.000Z</time>
      </trkpt>
      <trkpt lat="45.10083" lon="5.97811">
        <ele>2351.1999511719</ele>
        <time>2024-10-15T09:43:35.000Z</time>
      </trkpt>
      <trkpt lat="45.10083" lon="5.97811">
        <ele>2351.1999511719</ele>
        <time>2024-10-15T09:43:36.000Z</time>
      </trkpt>
      <trkpt lat="45.10083" lon="5.97811">
        <ele>2351.3999023438</ele>
        <time>2024-10-15T09:43:37.000Z</time>
      </trkpt>
      <trkpt lat="45.10083" lon="5.9781">
        <ele>2351.8000488281</ele>
        <time>2024-10-15T09:43:38.000Z</time>
      </trkpt>
      <trkpt lat="45.10083" lon="5.9781">
        <ele>2352</ele>
        <time>2024-10-15T09:43:39.000Z</time>
      </trkpt>
      <trkpt lat="45.10083" lon="5.9781">
        <ele>2352.3999023438</ele>
        <time>2024-10-15T09:43:40.000Z</time>
      </trkpt>
      <trkpt lat="45.10083" lon="5.9781">
        <ele>2352.3999023438</ele>
        <time>2024-10-15T09:43:41.000Z</time>
      </trkpt>
      <trkpt lat="45.10083" lon="5.9781">
        <ele>2352.6000976562</ele>
        <time>2024-10-15T09:43:42.000Z</time>
      </trkpt>
      <trkpt lat="45.10083" lon="5.9781">
        <ele>2352.8000488281</ele>
        <time>2024-10-15T09:43:43.000Z</time>
      </trkpt>
      <trkpt lat="45.10083" lon="5.9781">
        <ele>2352.8000488281</ele>
        <time>2024-10-15T09:43:44.000Z</time>
      </trkpt>
      <trkpt lat="45.10083" lon="5.9781">
        <ele>2353</ele>
        <time>2024-10-15T09:43:45.000Z</time>
      </trkpt>
      <trkpt lat="45.10083" lon="5.9781">
        <ele>2353</ele>
        <time>2024-10-15T09:43:46.000Z</time>
      </trkpt>
      <trkpt lat="45.10082" lon="5.9781">
        <ele>2353</ele>
        <time>2024-10-15T09:43:47.000Z</time>
      </trkpt>
      <trkpt lat="45.10082" lon="5.9781">
        <ele>2353.1999511719</ele>
        <time>2024-10-15T09:43:48.000Z</time>
      </trkpt>
      <trkpt lat="45.10082" lon="5.9781">
        <ele>2353.3999023438</ele>
        <time>2024-10-15T09:43:49.000Z</time>
      </trkpt>
      <trkpt lat="45.10082" lon="5.97809">
        <ele>2353.6000976562</ele>
        <time>2024-10-15T09:43:50.000Z</time>
      </trkpt>
      <trkpt lat="45.10082" lon="5.97809">
        <ele>2353.6000976562</ele>
        <time>2024-10-15T09:43:51.000Z</time>
      </trkpt>
      <trkpt lat="45.10082" lon="5.97809">
        <ele>2353.6000976562</ele>
        <time>2024-10-15T09:43:52.000Z</time>
      </trkpt>
      <trkpt lat="45.10082" lon="5.97809">
        <ele>2353.6000976562</ele>
        <time>2024-10-15T09:43:53.000Z</time>
      </trkpt>
      <trkpt lat="45.10082" lon="5.97809">
        <ele>2353.8000488281</ele>
        <time>2024-10-15T09:43:54.000Z</time>
      </trkpt>
      <trkpt lat="45.10082" lon="5.97809">
        <ele>2353.8000488281</ele>
        <time>2024-10-15T09:43:55.000Z</time>
      </trkpt>
      <trkpt lat="45.10082" lon="5.97809">
        <ele>2354</ele>
        <time>2024-10-15T09:43:56.000Z</time>
      </trkpt>
      <trkpt lat="45.10082" lon="5.97809">
        <ele>2354.1999511719</ele>
        <time>2024-10-15T09:43:57.000Z</time>
      </trkpt>
      <trkpt lat="45.10082" lon="5.97809">
        <ele>2354.3999023438</ele>
        <time>2024-10-15T09:43:58.000Z</time>
      </trkpt>
      <trkpt lat="45.10082" lon="5.97809">
        <ele>2354.3999023438</ele>
        <time>2024-10-15T09:43:59.000Z</time>
      </trkpt>
      <trkpt lat="45.10082" lon="5.97809">
        <ele>2354.6000976562</ele>
        <time>2024-10-15T09:44:00.000Z</time>
      </trkpt>
      <trkpt lat="45.10082" lon="5.97808">
        <ele>2354.6000976562</ele>
        <time>2024-10-15T09:44:01.000Z</time>
      </trkpt>
      <trkpt lat="45.10082" lon="5.97808">
        <ele>2354.6000976562</ele>
        <time>2024-10-15T09:44:02.000Z</time>
      </trkpt>
      <trkpt lat="45.10082" lon="5.97808">
        <ele>2354.8000488281</ele>
        <time>2024-10-15T09:44:03.000Z</time>
      </trkpt>
      <trkpt lat="45.10082" lon="5.97808">
        <ele>2354.8000488281</ele>
        <time>2024-10-15T09:44:04.000Z</time>
      </trkpt>
      <trkpt lat="45.10082" lon="5.97808">
        <ele>2354.8000488281</ele>
        <time>2024-10-15T09:44:05.000Z</time>
      </trkpt>
      <trkpt lat="45.10082" lon="5.97808">
        <ele>2354.8000488281</ele>
        <time>2024-10-15T09:44:06.000Z</time>
      </trkpt>
      <trkpt lat="45.10082" lon="5.97808">
        <ele>2354.8000488281</ele>
        <time>2024-10-15T09:44:07.000Z</time>
      </trkpt>
      <trkpt lat="45.10082" lon="5.97808">
        <ele>2354.8000488281</ele>
        <time>2024-10-15T09:44:08.000Z</time>
      </trkpt>
      <trkpt lat="45.10082" lon="5.97808">
        <ele>2354.8000488281</ele>
        <time>2024-10-15T09:44:09.000Z</time>
      </trkpt>
      <trkpt lat="45.10081" lon="5.97808">
        <ele>2355</ele>
        <time>2024-10-15T09:44:10.000Z</time>
      </trkpt>
      <trkpt lat="45.10081" lon="5.97808">
        <ele>2355</ele>
        <time>2024-10-15T09:44:11.000Z</time>
      </trkpt>
      <trkpt lat="45.10081" lon="5.97807">
        <ele>2355.1999511719</ele>
        <time>2024-10-15T09:44:12.000Z</time>
      </trkpt>
      <trkpt lat="45.10081" lon="5.97807">
        <ele>2355.3999023438</ele>
        <time>2024-10-15T09:44:13.000Z</time>
      </trkpt>
      <trkpt lat="45.10081" lon="5.97807">
        <ele>2355.3999023438</ele>
        <time>2024-10-15T09:44:14.000Z</time>
      </trkpt>
      <trkpt lat="45.10081" lon="5.97807">
        <ele>2355.6000976562</ele>
        <time>2024-10-15T09:44:15.000Z</time>
      </trkpt>
      <trkpt lat="45.10081" lon="5.97807">
        <ele>2355.6000976562</ele>
        <time>2024-10-15T09:44:16.000Z</time>
      </trkpt>
      <trkpt lat="45.10081" lon="5.97807">
        <ele>2355.8000488281</ele>
        <time>2024-10-15T09:44:17.000Z</time>
      </trkpt>
      <trkpt lat="45.10081" lon="5.97807">
        <ele>2356.1999511719</ele>
        <time>2024-10-15T09:44:18.000Z</time>
      </trkpt>
      <trkpt lat="45.10081" lon="5.97807">
        <ele>2356.1999511719</ele>
        <time>2024-10-15T09:44:19.000Z</time>
      </trkpt>
      <trkpt lat="45.10081" lon="5.97807">
        <ele>2356.1999511719</ele>
        <time>2024-10-15T09:44:20.000Z</time>
      </trkpt>
      <trkpt lat="45.10081" lon="5.97807">
        <ele>2356.3999023438</ele>
        <time>2024-10-15T09:44:21.000Z</time>
      </trkpt>
      <trkpt lat="45.10081" lon="5.97807">
        <ele>2356.6000976562</ele>
        <time>2024-10-15T09:44:22.000Z</time>
      </trkpt>
      <trkpt lat="45.10081" lon="5.97806">
        <ele>2356.6000976562</ele>
        <time>2024-10-15T09:44:23.000Z</time>
      </trkpt>
      <trkpt lat="45.10081" lon="5.97806">
        <ele>2356.8000488281</ele>
        <time>2024-10-15T09:44:24.000Z</time>
      </trkpt>
      <trkpt lat="45.10081" lon="5.97806">
        <ele>2356.8000488281</ele>
        <time>2024-10-15T09:44:25.000Z</time>
      </trkpt>
      <trkpt lat="45.10081" lon="5.97806">
        <ele>2357</ele>
        <time>2024-10-15T09:44:26.000Z</time>
      </trkpt>
      <trkpt lat="45.10081" lon="5.97806">
        <ele>2357.1999511719</ele>
        <time>2024-10-15T09:44:27.000Z</time>
      </trkpt>
      <trkpt lat="45.10081" lon="5.97806">
        <ele>2357.1999511719</ele>
        <time>2024-10-15T09:44:28.000Z</time>
      </trkpt>
      <trkpt lat="45.10081" lon="5.97806">
        <ele>2357.1999511719</ele>
        <time>2024-10-15T09:44:29.000Z</time>
      </trkpt>
      <trkpt lat="45.10081" lon="5.97806">
        <ele>2357.3999023438</ele>
        <time>2024-10-15T09:44:30.000Z</time>
      </trkpt>
      <trkpt lat="45.10081" lon="5.97806">
        <ele>2357.3999023438</ele>
        <time>2024-10-15T09:44:31.000Z</time>
      </trkpt>
      <trkpt lat="45.10081" lon="5.97806">
        <ele>2357.6000976562</ele>
        <time>2024-10-15T09:44:32.000Z</time>
      </trkpt>
      <trkpt lat="45.1008" lon="5.97806">
        <ele>2357.8000488281</ele>
        <time>2024-10-15T09:44:33.000Z</time>
      </trkpt>
      <trkpt lat="45.1008" lon="5.97805">
        <ele>2358</ele>
        <time>2024-10-15T09:44:34.000Z</time>
      </trkpt>
      <trkpt lat="45.1008" lon="5.97805">
        <ele>2358.1999511719</ele>
        <time>2024-10-15T09:44:35.000Z</time>
      </trkpt>
      <trkpt lat="45.1008" lon="5.97805">
        <ele>2358.1999511719</ele>
        <time>2024-10-15T09:44:36.000Z</time>
      </trkpt>
      <trkpt lat="45.1008" lon="5.97805">
        <ele>2358.3999023438</ele>
        <time>2024-10-15T09:44:37.000Z</time>
      </trkpt>
      <trkpt lat="45.1008" lon="5.97805">
        <ele>2358.3999023438</ele>
        <time>2024-10-15T09:44:38.000Z</time>
      </trkpt>
      <trkpt lat="45.1008" lon="5.97805">
        <ele>2358.6000976562</ele>
        <time>2024-10-15T09:44:39.000Z</time>
      </trkpt>
      <trkpt lat="45.1008" lon="5.97805">
        <ele>2358.8000488281</ele>
        <time>2024-10-15T09:44:40.000Z</time>
      </trkpt>
      <trkpt lat="45.1008" lon="5.97805">
        <ele>2358.8000488281</ele>
        <time>2024-10-15T09:44:41.000Z</time>
      </trkpt>
      <trkpt lat="45.1008" lon="5.97805">
        <ele>2358.8000488281</ele>
        <time>2024-10-15T09:44:42.000Z</time>
      </trkpt>
      <trkpt lat="45.1008" lon="5.97805">
        <ele>2359</ele>
        <time>2024-10-15T09:44:43.000Z</time>
      </trkpt>
      <trkpt lat="45.1008" lon="5.97804">
        <ele>2359.3999023438</ele>
        <time>2024-10-15T09:44:44.000Z</time>
      </trkpt>
      <trkpt lat="45.1008" lon="5.97804">
        <ele>2359.6000976562</ele>
        <time>2024-10-15T09:44:45.000Z</time>
      </trkpt>
      <trkpt lat="45.1008" lon="5.97804">
        <ele>2360</ele>
        <time>2024-10-15T09:44:46.000Z</time>
      </trkpt>
      <trkpt lat="45.1008" lon="5.97804">
        <ele>2360.1999511719</ele>
        <time>2024-10-15T09:44:47.000Z</time>
      </trkpt>
      <trkpt lat="45.1008" lon="5.97804">
        <ele>2360.6000976562</ele>
        <time>2024-10-15T09:44:48.000Z</time>
      </trkpt>
      <trkpt lat="45.1008" lon="5.97804">
        <ele>2360.6000976562</ele>
        <time>2024-10-15T09:44:49.000Z</time>
      </trkpt>
      <trkpt lat="45.1008" lon="5.97804">
        <ele>2360.8000488281</ele>
        <time>2024-10-15T09:44:50.000Z</time>
      </trkpt>
      <trkpt lat="45.1008" lon="5.97804">
        <ele>2361</ele>
        <time>2024-10-15T09:44:51.000Z</time>
      </trkpt>
      <trkpt lat="45.1008" lon="5.97804">
        <ele>2361.1999511719</ele>
        <time>2024-10-15T09:44:52.000Z</time>
      </trkpt>
      <trkpt lat="45.1008" lon="5.97803">
        <ele>2361.6000976562</ele>
        <time>2024-10-15T09:44:53.000Z</time>
      </trkpt>
      <trkpt lat="45.1008" lon="5.97803">
        <ele>2361.8000488281</ele>
        <time>2024-10-15T09:44:54.000Z</time>
      </trkpt>
      <trkpt lat="45.1008" lon="5.97803">
        <ele>2361.8000488281</ele>
        <time>2024-10-15T09:44:55.000Z</time>
      </trkpt>
      <trkpt lat="45.1008" lon="5.97803">
        <ele>2361.8000488281</ele>
        <time>2024-10-15T09:44:56.000Z</time>
      </trkpt>
      <trkpt lat="45.1008" lon="5.97803">
        <ele>2361.8000488281</ele>
        <time>2024-10-15T09:44:57.000Z</time>
      </trkpt>
      <trkpt lat="45.1008" lon="5.97803">
        <ele>2362</ele>
        <time>2024-10-15T09:44:58.000Z</time>
      </trkpt>
      <trkpt lat="45.1008" lon="5.97803">
        <ele>2362</ele>
        <time>2024-10-15T09:44:59.000Z</time>
      </trkpt>
      <trkpt lat="45.10079" lon="5.97803">
        <ele>2362.1999511719</ele>
        <time>2024-10-15T09:45:00.000Z</time>
      </trkpt>
      <trkpt lat="45.10079" lon="5.97803">
        <ele>2362.1999511719</ele>
        <time>2024-10-15T09:45:01.000Z</time>
      </trkpt>
      <trkpt lat="45.10079" lon="5.97803">
        <ele>2362.1999511719</ele>
        <time>2024-10-15T09:45:02.000Z</time>
      </trkpt>
      <trkpt lat="45.10079" lon="5.97802">
        <ele>2362.6000976562</ele>
        <time>2024-10-15T09:45:03.000Z</time>
      </trkpt>
      <trkpt lat="45.10079" lon="5.97802">
        <ele>2363</ele>
        <time>2024-10-15T09:45:04.000Z</time>
      </trkpt>
      <trkpt lat="45.10079" lon="5.97802">
        <ele>2363.1999511719</ele>
        <time>2024-10-15T09:45:05.000Z</time>
      </trkpt>
      <trkpt lat="45.10079" lon="5.97802">
        <ele>2363.1999511719</ele>
        <time>2024-10-15T09:45:06.000Z</time>
      </trkpt>
      <trkpt lat="45.10079" lon="5.97802">
        <ele>2363.6000976562</ele>
        <time>2024-10-15T09:45:07.000Z</time>
      </trkpt>
      <trkpt lat="45.10079" lon="5.97802">
        <ele>2363.8000488281</ele>
        <time>2024-10-15T09:45:08.000Z</time>
      </trkpt>
      <trkpt lat="45.10079" lon="5.97802">
        <ele>2363.8000488281</ele>
        <time>2024-10-15T09:45:09.000Z</time>
      </trkpt>
      <trkpt lat="45.10079" lon="5.97802">
        <ele>2363.8000488281</ele>
        <time>2024-10-15T09:45:10.000Z</time>
      </trkpt>
      <trkpt lat="45.10079" lon="5.97802">
        <ele>2363.8000488281</ele>
        <time>2024-10-15T09:45:11.000Z</time>
      </trkpt>
      <trkpt lat="45.10079" lon="5.97802">
        <ele>2364</ele>
        <time>2024-10-15T09:45:12.000Z</time>
      </trkpt>
      <trkpt lat="45.10079" lon="5.97801">
        <ele>2364</ele>
        <time>2024-10-15T09:45:13.000Z</time>
      </trkpt>
      <trkpt lat="45.10079" lon="5.97801">
        <ele>2364</ele>
        <time>2024-10-15T09:45:14.000Z</time>
      </trkpt>
      <trkpt lat="45.10079" lon="5.97801">
        <ele>2364</ele>
        <time>2024-10-15T09:45:15.000Z</time>
      </trkpt>
      <trkpt lat="45.10079" lon="5.97801">
        <ele>2364</ele>
        <time>2024-10-15T09:45:16.000Z</time>
      </trkpt>
      <trkpt lat="45.10079" lon="5.97801">
        <ele>2364</ele>
        <time>2024-10-15T09:45:17.000Z</time>
      </trkpt>
      <trkpt lat="45.10079" lon="5.97801">
        <ele>2364.1999511719</ele>
        <time>2024-10-15T09:45:18.000Z</time>
      </trkpt>
      <trkpt lat="45.10079" lon="5.97801">
        <ele>2364.1999511719</ele>
        <time>2024-10-15T09:45:19.000Z</time>
      </trkpt>
      <trkpt lat="45.10079" lon="5.97801">
        <ele>2364.6000976562</ele>
        <time>2024-10-15T09:45:20.000Z</time>
      </trkpt>
      <trkpt lat="45.10079" lon="5.97801">
        <ele>2364.8000488281</ele>
        <time>2024-10-15T09:45:21.000Z</time>
      </trkpt>
      <trkpt lat="45.10079" lon="5.97801">
        <ele>2364.8000488281</ele>
        <time>2024-10-15T09:45:22.000Z</time>
      </trkpt>
      <trkpt lat="45.10079" lon="5.978">
        <ele>2364.8000488281</ele>
        <time>2024-10-15T09:45:23.000Z</time>
      </trkpt>
      <trkpt lat="45.10079" lon="5.978">
        <ele>2365</ele>
        <time>2024-10-15T09:45:24.000Z</time>
      </trkpt>
      <trkpt lat="45.10078" lon="5.978">
        <ele>2365.3999023438</ele>
        <time>2024-10-15T09:45:25.000Z</time>
      </trkpt>
      <trkpt lat="45.10078" lon="5.978">
        <ele>2365.3999023438</ele>
        <time>2024-10-15T09:45:26.000Z</time>
      </trkpt>
      <trkpt lat="45.10078" lon="5.978">
        <ele>2365.6000976562</ele>
        <time>2024-10-15T09:45:27.000Z</time>
      </trkpt>
      <trkpt lat="45.10078" lon="5.978">
        <ele>2365.8000488281</ele>
        <time>2024-10-15T09:45:28.000Z</time>
      </trkpt>
      <trkpt lat="45.10078" lon="5.978">
        <ele>2366</ele>
        <time>2024-10-15T09:45:29.000Z</time>
      </trkpt>
      <trkpt lat="45.10078" lon="5.978">
        <ele>2366</ele>
        <time>2024-10-15T09:45:30.000Z</time>
      </trkpt>
      <trkpt lat="45.10078" lon="5.978">
        <ele>2366.1999511719</ele>
        <time>2024-10-15T09:45:31.000Z</time>
      </trkpt>
      <trkpt lat="45.10078" lon="5.97799">
        <ele>2366.8000488281</ele>
        <time>2024-10-15T09:45:32.000Z</time>
      </trkpt>
      <trkpt lat="45.10078" lon="5.97799">
        <ele>2367</ele>
        <time>2024-10-15T09:45:33.000Z</time>
      </trkpt>
      <trkpt lat="45.10078" lon="5.97799">
        <ele>2367.1999511719</ele>
        <time>2024-10-15T09:45:34.000Z</time>
      </trkpt>
      <trkpt lat="45.10078" lon="5.97799">
        <ele>2367.6000976562</ele>
        <time>2024-10-15T09:45:35.000Z</time>
      </trkpt>
      <trkpt lat="45.10074" lon="5.97789">
        <ele>2367.6000976562</ele>
        <time>2024-10-15T09:45:36.000Z</time>
      </trkpt>
      <trkpt lat="45.1007" lon="5.97778">
        <ele>2368</ele>
        <time>2024-10-15T09:45:37.000Z</time>
      </trkpt>
      <trkpt lat="45.10067" lon="5.97767">
        <ele>2368</ele>
        <time>2024-10-15T09:45:38.000Z</time>
      </trkpt>
      <trkpt lat="45.10063" lon="5.97756">
        <ele>2368.3999023438</ele>
        <time>2024-10-15T09:45:39.000Z</time>
      </trkpt>
      <trkpt lat="45.10059" lon="5.97745">
        <ele>2368.6000976562</ele>
        <time>2024-10-15T09:45:40.000Z</time>
      </trkpt>
      <trkpt lat="45.10055" lon="5.97734">
        <ele>2368.6000976562</ele>
        <time>2024-10-15T09:45:41.000Z</time>
      </trkpt>
      <trkpt lat="45.10051" lon="5.97723">
        <ele>2368.6000976562</ele>
        <time>2024-10-15T09:45:42.000Z</time>
      </trkpt>
      <trkpt lat="45.10047" lon="5.97712">
        <ele>2368.6000976562</ele>
        <time>2024-10-15T09:45:43.000Z</time>
      </trkpt>
      <trkpt lat="45.10044" lon="5.97702">
        <ele>2368.8000488281</ele>
        <time>2024-10-15T09:45:44.000Z</time>
      </trkpt>
      <trkpt lat="45.1004" lon="5.97691">
        <ele>2368.8000488281</ele>
        <time>2024-10-15T09:45:45.000Z</time>
      </trkpt>
      <trkpt lat="45.1004" lon="5.9769">
        <ele>2369</ele>
        <time>2024-10-15T09:45:46.000Z</time>
      </trkpt>
      <trkpt lat="45.1004" lon="5.9769">
        <ele>2369</ele>
        <time>2024-10-15T09:45:47.000Z</time>
      </trkpt>
      <trkpt lat="45.10039" lon="5.9769">
        <ele>2369</ele>
        <time>2024-10-15T09:45:48.000Z</time>
      </trkpt>
      <trkpt lat="45.10039" lon="5.97689">
        <ele>2369</ele>
        <time>2024-10-15T09:45:49.000Z</time>
      </trkpt>
      <trkpt lat="45.10039" lon="5.97689">
        <ele>2369.1999511719</ele>
        <time>2024-10-15T09:45:50.000Z</time>
      </trkpt>
      <trkpt lat="45.10039" lon="5.97689">
        <ele>2369.1999511719</ele>
        <time>2024-10-15T09:45:51.000Z</time>
      </trkpt>
      <trkpt lat="45.10039" lon="5.97688">
        <ele>2369.3999023438</ele>
        <time>2024-10-15T09:45:52.000Z</time>
      </trkpt>
      <trkpt lat="45.10039" lon="5.97688">
        <ele>2369.8000488281</ele>
        <time>2024-10-15T09:45:53.000Z</time>
      </trkpt>
      <trkpt lat="45.10039" lon="5.97688">
        <ele>2370.1999511719</ele>
        <time>2024-10-15T09:45:54.000Z</time>
      </trkpt>
      <trkpt lat="45.10039" lon="5.97688">
        <ele>2370.3999023438</ele>
        <time>2024-10-15T09:45:55.000Z</time>
      </trkpt>
      <trkpt lat="45.10039" lon="5.97688">
        <ele>2370.3999023438</ele>
        <time>2024-10-15T09:45:56.000Z</time>
      </trkpt>
      <trkpt lat="45.10039" lon="5.97688">
        <ele>2370.3999023438</ele>
        <time>2024-10-15T09:45:57.000Z</time>
      </trkpt>
      <trkpt lat="45.10039" lon="5.97688">
        <ele>2370.3999023438</ele>
        <time>2024-10-15T09:45:58.000Z</time>
      </trkpt>
      <trkpt lat="45.10039" lon="5.97688">
        <ele>2370.6000976562</ele>
        <time>2024-10-15T09:45:59.000Z</time>
      </trkpt>
      <trkpt lat="45.10039" lon="5.97688">
        <ele>2371</ele>
        <time>2024-10-15T09:46:00.000Z</time>
      </trkpt>
      <trkpt lat="45.10039" lon="5.97688">
        <ele>2371.3999023438</ele>
        <time>2024-10-15T09:46:01.000Z</time>
      </trkpt>
      <trkpt lat="45.10039" lon="5.97688">
        <ele>2371.3999023438</ele>
        <time>2024-10-15T09:46:02.000Z</time>
      </trkpt>
      <trkpt lat="45.10039" lon="5.97688">
        <ele>2371.3999023438</ele>
        <time>2024-10-15T09:46:03.000Z</time>
      </trkpt>
      <trkpt lat="45.10039" lon="5.97688">
        <ele>2371.6000976562</ele>
        <time>2024-10-15T09:46:04.000Z</time>
      </trkpt>
      <trkpt lat="45.10039" lon="5.97688">
        <ele>2372</ele>
        <time>2024-10-15T09:46:05.000Z</time>
      </trkpt>
      <trkpt lat="45.10039" lon="5.97688">
        <ele>2372.1999511719</ele>
        <time>2024-10-15T09:46:06.000Z</time>
      </trkpt>
      <trkpt lat="45.10039" lon="5.97688">
        <ele>2372.6000976562</ele>
        <time>2024-10-15T09:46:07.000Z</time>
      </trkpt>
      <trkpt lat="45.10039" lon="5.97688">
        <ele>2372.8000488281</ele>
        <time>2024-10-15T09:46:08.000Z</time>
      </trkpt>
      <trkpt lat="45.10039" lon="5.97688">
        <ele>2373</ele>
        <time>2024-10-15T09:46:09.000Z</time>
      </trkpt>
      <trkpt lat="45.10039" lon="5.97688">
        <ele>2373.8000488281</ele>
        <time>2024-10-15T09:46:10.000Z</time>
      </trkpt>
      <trkpt lat="45.10039" lon="5.97688">
        <ele>2374.1999511719</ele>
        <time>2024-10-15T09:46:11.000Z</time>
      </trkpt>
      <trkpt lat="45.10039" lon="5.97687">
        <ele>2374.3999023438</ele>
        <time>2024-10-15T09:46:12.000Z</time>
      </trkpt>
      <trkpt lat="45.10039" lon="5.97687">
        <ele>2374.6000976562</ele>
        <time>2024-10-15T09:46:13.000Z</time>
      </trkpt>
      <trkpt lat="45.10038" lon="5.97687">
        <ele>2375</ele>
        <time>2024-10-15T09:46:14.000Z</time>
      </trkpt>
      <trkpt lat="45.10038" lon="5.97686">
        <ele>2375.3999023438</ele>
        <time>2024-10-15T09:46:15.000Z</time>
      </trkpt>
      <trkpt lat="45.10038" lon="5.97685">
        <ele>2375.3999023438</ele>
        <time>2024-10-15T09:46:16.000Z</time>
      </trkpt>
      <trkpt lat="45.10037" lon="5.97685">
        <ele>2375.6000976562</ele>
        <time>2024-10-15T09:46:17.000Z</time>
      </trkpt>
      <trkpt lat="45.10037" lon="5.97684">
        <ele>2375.6000976562</ele>
        <time>2024-10-15T09:46:18.000Z</time>
      </trkpt>
      <trkpt lat="45.10037" lon="5.97684">
        <ele>2375.6000976562</ele>
        <time>2024-10-15T09:46:19.000Z</time>
      </trkpt>
      <trkpt lat="45.10036" lon="5.97683">
        <ele>2375.6000976562</ele>
        <time>2024-10-15T09:46:20.000Z</time>
      </trkpt>
      <trkpt lat="45.10036" lon="5.97683">
        <ele>2375.8000488281</ele>
        <time>2024-10-15T09:46:21.000Z</time>
      </trkpt>
      <trkpt lat="45.10036" lon="5.97682">
        <ele>2375.8000488281</ele>
        <time>2024-10-15T09:46:22.000Z</time>
      </trkpt>
      <trkpt lat="45.10036" lon="5.97681">
        <ele>2376.1999511719</ele>
        <time>2024-10-15T09:46:23.000Z</time>
      </trkpt>
      <trkpt lat="45.10036" lon="5.97681">
        <ele>2376.3999023438</ele>
        <time>2024-10-15T09:46:24.000Z</time>
      </trkpt>
      <trkpt lat="45.10036" lon="5.9768">
        <ele>2376.6000976562</ele>
        <time>2024-10-15T09:46:25.000Z</time>
      </trkpt>
      <trkpt lat="45.10036" lon="5.9768">
        <ele>2376.6000976562</ele>
        <time>2024-10-15T09:46:26.000Z</time>
      </trkpt>
      <trkpt lat="45.10036" lon="5.97679">
        <ele>2376.8000488281</ele>
        <time>2024-10-15T09:46:27.000Z</time>
      </trkpt>
      <trkpt lat="45.10036" lon="5.97679">
        <ele>2377.1999511719</ele>
        <time>2024-10-15T09:46:28.000Z</time>
      </trkpt>
      <trkpt lat="45.10036" lon="5.97679">
        <ele>2377.6000976562</ele>
        <time>2024-10-15T09:46:29.000Z</time>
      </trkpt>
      <trkpt lat="45.10036" lon="5.97678">
        <ele>2377.6000976562</ele>
        <time>2024-10-15T09:46:30.000Z</time>
      </trkpt>
      <trkpt lat="45.10036" lon="5.97678">
        <ele>2378</ele>
        <time>2024-10-15T09:46:31.000Z</time>
      </trkpt>
      <trkpt lat="45.10036" lon="5.97677">
        <ele>2378.3999023438</ele>
        <time>2024-10-15T09:46:32.000Z</time>
      </trkpt>
      <trkpt lat="45.10036" lon="5.97677">
        <ele>2378.3999023438</ele>
        <time>2024-10-15T09:46:33.000Z</time>
      </trkpt>
      <trkpt lat="45.10036" lon="5.97676">
        <ele>2378.8000488281</ele>
        <time>2024-10-15T09:46:34.000Z</time>
      </trkpt>
      <trkpt lat="45.10035" lon="5.97675">
        <ele>2378.8000488281</ele>
        <time>2024-10-15T09:46:35.000Z</time>
      </trkpt>
      <trkpt lat="45.10035" lon="5.97675">
        <ele>2379.3999023438</ele>
        <time>2024-10-15T09:46:36.000Z</time>
      </trkpt>
      <trkpt lat="45.10035" lon="5.97674">
        <ele>2379.6000976562</ele>
        <time>2024-10-15T09:46:37.000Z</time>
      </trkpt>
      <trkpt lat="45.10035" lon="5.97674">
        <ele>2379.8000488281</ele>
        <time>2024-10-15T09:46:38.000Z</time>
      </trkpt>
      <trkpt lat="45.10035" lon="5.97673">
        <ele>2379.8000488281</ele>
        <time>2024-10-15T09:46:39.000Z</time>
      </trkpt>
      <trkpt lat="45.10035" lon="5.97672">
        <ele>2379.8000488281</ele>
        <time>2024-10-15T09:46:40.000Z</time>
      </trkpt>
      <trkpt lat="45.10035" lon="5.97671">
        <ele>2380</ele>
        <time>2024-10-15T09:46:41.000Z</time>
      </trkpt>
      <trkpt lat="45.10035" lon="5.97671">
        <ele>2380.6000976562</ele>
        <time>2024-10-15T09:46:42.000Z</time>
      </trkpt>
      <trkpt lat="45.10035" lon="5.9767">
        <ele>2380.8000488281</ele>
        <time>2024-10-15T09:46:43.000Z</time>
      </trkpt>
      <trkpt lat="45.10035" lon="5.9767">
        <ele>2381.1999511719</ele>
        <time>2024-10-15T09:46:44.000Z</time>
      </trkpt>
      <trkpt lat="45.10035" lon="5.9767">
        <ele>2381.3999023438</ele>
        <time>2024-10-15T09:46:45.000Z</time>
      </trkpt>
      <trkpt lat="45.10035" lon="5.97669">
        <ele>2381.6000976562</ele>
        <time>2024-10-15T09:46:46.000Z</time>
      </trkpt>
      <trkpt lat="45.10035" lon="5.97669">
        <ele>2381.8000488281</ele>
        <time>2024-10-15T09:46:47.000Z</time>
      </trkpt>
      <trkpt lat="45.10035" lon="5.97669">
        <ele>2382</ele>
        <time>2024-10-15T09:46:48.000Z</time>
      </trkpt>
      <trkpt lat="45.10035" lon="5.97668">
        <ele>2382.3999023438</ele>
        <time>2024-10-15T09:46:49.000Z</time>
      </trkpt>
      <trkpt lat="45.10035" lon="5.97668">
        <ele>2382.8000488281</ele>
        <time>2024-10-15T09:46:50.000Z</time>
      </trkpt>
      <trkpt lat="45.10035" lon="5.97668">
        <ele>2383</ele>
        <time>2024-10-15T09:46:51.000Z</time>
      </trkpt>
      <trkpt lat="45.10034" lon="5.97667">
        <ele>2383.3999023438</ele>
        <time>2024-10-15T09:46:52.000Z</time>
      </trkpt>
      <trkpt lat="45.10034" lon="5.97667">
        <ele>2383.8000488281</ele>
        <time>2024-10-15T09:46:53.000Z</time>
      </trkpt>
      <trkpt lat="45.10034" lon="5.97666">
        <ele>2383.8000488281</ele>
        <time>2024-10-15T09:46:54.000Z</time>
      </trkpt>
      <trkpt lat="45.10034" lon="5.97666">
        <ele>2384</ele>
        <time>2024-10-15T09:46:55.000Z</time>
      </trkpt>
      <trkpt lat="45.10034" lon="5.97665">
        <ele>2384</ele>
        <time>2024-10-15T09:46:56.000Z</time>
      </trkpt>
      <trkpt lat="45.10034" lon="5.97664">
        <ele>2384.1999511719</ele>
        <time>2024-10-15T09:46:57.000Z</time>
      </trkpt>
      <trkpt lat="45.10033" lon="5.97664">
        <ele>2384.1999511719</ele>
        <time>2024-10-15T09:46:58.000Z</time>
      </trkpt>
      <trkpt lat="45.10033" lon="5.97663">
        <ele>2384.3999023438</ele>
        <time>2024-10-15T09:46:59.000Z</time>
      </trkpt>
      <trkpt lat="45.10033" lon="5.97663">
        <ele>2384.6000976562</ele>
        <time>2024-10-15T09:47:00.000Z</time>
      </trkpt>
      <trkpt lat="45.10033" lon="5.97663">
        <ele>2384.8000488281</ele>
        <time>2024-10-15T09:47:01.000Z</time>
      </trkpt>
      <trkpt lat="45.10033" lon="5.97663">
        <ele>2385</ele>
        <time>2024-10-15T09:47:02.000Z</time>
      </trkpt>
      <trkpt lat="45.10032" lon="5.97663">
        <ele>2385.1999511719</ele>
        <time>2024-10-15T09:47:03.000Z</time>
      </trkpt>
      <trkpt lat="45.10031" lon="5.97662">
        <ele>2385.3999023438</ele>
        <time>2024-10-15T09:47:04.000Z</time>
      </trkpt>
      <trkpt lat="45.10031" lon="5.97662">
        <ele>2385.6000976562</ele>
        <time>2024-10-15T09:47:05.000Z</time>
      </trkpt>
      <trkpt lat="45.1003" lon="5.97661">
        <ele>2385.8000488281</ele>
        <time>2024-10-15T09:47:06.000Z</time>
      </trkpt>
      <trkpt lat="45.1003" lon="5.9766">
        <ele>2386.1999511719</ele>
        <time>2024-10-15T09:47:07.000Z</time>
      </trkpt>
      <trkpt lat="45.1003" lon="5.9766">
        <ele>2386.6000976562</ele>
        <time>2024-10-15T09:47:08.000Z</time>
      </trkpt>
      <trkpt lat="45.1003" lon="5.9766">
        <ele>2386.8000488281</ele>
        <time>2024-10-15T09:47:09.000Z</time>
      </trkpt>
      <trkpt lat="45.1003" lon="5.97659">
        <ele>2387</ele>
        <time>2024-10-15T09:47:10.000Z</time>
      </trkpt>
      <trkpt lat="45.1003" lon="5.97659">
        <ele>2387.3999023438</ele>
        <time>2024-10-15T09:47:11.000Z</time>
      </trkpt>
      <trkpt lat="45.1003" lon="5.97658">
        <ele>2387.3999023438</ele>
        <time>2024-10-15T09:47:12.000Z</time>
      </trkpt>
      <trkpt lat="45.1003" lon="5.97658">
        <ele>2387.6000976562</ele>
        <time>2024-10-15T09:47:13.000Z</time>
      </trkpt>
      <trkpt lat="45.10029" lon="5.97657">
        <ele>2387.8000488281</ele>
        <time>2024-10-15T09:47:14.000Z</time>
      </trkpt>
      <trkpt lat="45.10029" lon="5.97657">
        <ele>2387.8000488281</ele>
        <time>2024-10-15T09:47:15.000Z</time>
      </trkpt>
      <trkpt lat="45.10029" lon="5.97656">
        <ele>2388.1999511719</ele>
        <time>2024-10-15T09:47:16.000Z</time>
      </trkpt>
      <trkpt lat="45.10029" lon="5.97655">
        <ele>2388.6000976562</ele>
        <time>2024-10-15T09:47:17.000Z</time>
      </trkpt>
      <trkpt lat="45.10029" lon="5.97655">
        <ele>2388.8000488281</ele>
        <time>2024-10-15T09:47:18.000Z</time>
      </trkpt>
      <trkpt lat="45.10029" lon="5.97654">
        <ele>2389</ele>
        <time>2024-10-15T09:47:19.000Z</time>
      </trkpt>
      <trkpt lat="45.10029" lon="5.97653">
        <ele>2389</ele>
        <time>2024-10-15T09:47:20.000Z</time>
      </trkpt>
      <trkpt lat="45.10029" lon="5.9765">
        <ele>2389</ele>
        <time>2024-10-15T09:47:21.000Z</time>
      </trkpt>
      <trkpt lat="45.10029" lon="5.97648">
        <ele>2389</ele>
        <time>2024-10-15T09:47:22.000Z</time>
      </trkpt>
      <trkpt lat="45.10029" lon="5.97647">
        <ele>2389</ele>
        <time>2024-10-15T09:47:23.000Z</time>
      </trkpt>
      <trkpt lat="45.10028" lon="5.97645">
        <ele>2389</ele>
        <time>2024-10-15T09:47:24.000Z</time>
      </trkpt>
      <trkpt lat="45.10028" lon="5.97643">
        <ele>2389</ele>
        <time>2024-10-15T09:47:25.000Z</time>
      </trkpt>
      <trkpt lat="45.10028" lon="5.97641">
        <ele>2389.3999023438</ele>
        <time>2024-10-15T09:47:26.000Z</time>
      </trkpt>
      <trkpt lat="45.10027" lon="5.97639">
        <ele>2389.6000976562</ele>
        <time>2024-10-15T09:47:27.000Z</time>
      </trkpt>
      <trkpt lat="45.10026" lon="5.97637">
        <ele>2389.6000976562</ele>
        <time>2024-10-15T09:47:28.000Z</time>
      </trkpt>
      <trkpt lat="45.10026" lon="5.97635">
        <ele>2389.6000976562</ele>
        <time>2024-10-15T09:47:29.000Z</time>
      </trkpt>
      <trkpt lat="45.10025" lon="5.97635">
        <ele>2389.3999023438</ele>
        <time>2024-10-15T09:47:30.000Z</time>
      </trkpt>
      <trkpt lat="45.10025" lon="5.97634">
        <ele>2389.1999511719</ele>
        <time>2024-10-15T09:47:31.000Z</time>
      </trkpt>
      <trkpt lat="45.10024" lon="5.97633">
        <ele>2389.1999511719</ele>
        <time>2024-10-15T09:47:32.000Z</time>
      </trkpt>
      <trkpt lat="45.10024" lon="5.97632">
        <ele>2389.1999511719</ele>
        <time>2024-10-15T09:47:33.000Z</time>
      </trkpt>
      <trkpt lat="45.10024" lon="5.97631">
        <ele>2389.1999511719</ele>
        <time>2024-10-15T09:47:34.000Z</time>
      </trkpt>
      <trkpt lat="45.10023" lon="5.9763">
        <ele>2389.1999511719</ele>
        <time>2024-10-15T09:47:35.000Z</time>
      </trkpt>
      <trkpt lat="45.10023" lon="5.9763">
        <ele>2389.3999023438</ele>
        <time>2024-10-15T09:47:36.000Z</time>
      </trkpt>
      <trkpt lat="45.10023" lon="5.9763">
        <ele>2389.3999023438</ele>
        <time>2024-10-15T09:47:37.000Z</time>
      </trkpt>
      <trkpt lat="45.10023" lon="5.97629">
        <ele>2389.3999023438</ele>
        <time>2024-10-15T09:47:38.000Z</time>
      </trkpt>
      <trkpt lat="45.10023" lon="5.97629">
        <ele>2389.3999023438</ele>
        <time>2024-10-15T09:47:39.000Z</time>
      </trkpt>
      <trkpt lat="45.10023" lon="5.97629">
        <ele>2389.3999023438</ele>
        <time>2024-10-15T09:47:40.000Z</time>
      </trkpt>
      <trkpt lat="45.10023" lon="5.97629">
        <ele>2389.3999023438</ele>
        <time>2024-10-15T09:47:41.000Z</time>
      </trkpt>
      <trkpt lat="45.10024" lon="5.97629">
        <ele>2389.3999023438</ele>
        <time>2024-10-15T09:47:42.000Z</time>
      </trkpt>
      <trkpt lat="45.10024" lon="5.97629">
        <ele>2389.3999023438</ele>
        <time>2024-10-15T09:47:43.000Z</time>
      </trkpt>
      <trkpt lat="45.10024" lon="5.97629">
        <ele>2389.6000976562</ele>
        <time>2024-10-15T09:47:44.000Z</time>
      </trkpt>
      <trkpt lat="45.10024" lon="5.97629">
        <ele>2389.6000976562</ele>
        <time>2024-10-15T09:47:45.000Z</time>
      </trkpt>
      <trkpt lat="45.10023" lon="5.97629">
        <ele>2389.8000488281</ele>
        <time>2024-10-15T09:47:46.000Z</time>
      </trkpt>
      <trkpt lat="45.10023" lon="5.97629">
        <ele>2390</ele>
        <time>2024-10-15T09:47:47.000Z</time>
      </trkpt>
      <trkpt lat="45.10023" lon="5.97629">
        <ele>2390</ele>
        <time>2024-10-15T09:47:48.000Z</time>
      </trkpt>
      <trkpt lat="45.10023" lon="5.97629">
        <ele>2390.1999511719</ele>
        <time>2024-10-15T09:47:49.000Z</time>
      </trkpt>
      <trkpt lat="45.10023" lon="5.97629">
        <ele>2390.3999023438</ele>
        <time>2024-10-15T09:47:50.000Z</time>
      </trkpt>
      <trkpt lat="45.10023" lon="5.97629">
        <ele>2390.8000488281</ele>
        <time>2024-10-15T09:47:51.000Z</time>
      </trkpt>
      <trkpt lat="45.10023" lon="5.97629">
        <ele>2390.8000488281</ele>
        <time>2024-10-15T09:47:52.000Z</time>
      </trkpt>
      <trkpt lat="45.10023" lon="5.97629">
        <ele>2391</ele>
        <time>2024-10-15T09:47:53.000Z</time>
      </trkpt>
      <trkpt lat="45.10023" lon="5.97629">
        <ele>2391.3999023438</ele>
        <time>2024-10-15T09:47:54.000Z</time>
      </trkpt>
      <trkpt lat="45.10023" lon="5.97629">
        <ele>2391.6000976562</ele>
        <time>2024-10-15T09:47:55.000Z</time>
      </trkpt>
      <trkpt lat="45.10023" lon="5.97629">
        <ele>2391.8000488281</ele>
        <time>2024-10-15T09:47:56.000Z</time>
      </trkpt>
      <trkpt lat="45.10023" lon="5.97629">
        <ele>2392</ele>
        <time>2024-10-15T09:47:57.000Z</time>
      </trkpt>
      <trkpt lat="45.10023" lon="5.97629">
        <ele>2392</ele>
        <time>2024-10-15T09:47:58.000Z</time>
      </trkpt>
      <trkpt lat="45.10023" lon="5.97629">
        <ele>2392.1999511719</ele>
        <time>2024-10-15T09:47:59.000Z</time>
      </trkpt>
      <trkpt lat="45.10023" lon="5.97629">
        <ele>2392.3999023438</ele>
        <time>2024-10-15T09:48:00.000Z</time>
      </trkpt>
      <trkpt lat="45.10023" lon="5.97629">
        <ele>2392.6000976562</ele>
        <time>2024-10-15T09:48:01.000Z</time>
      </trkpt>
      <trkpt lat="45.10023" lon="5.97629">
        <ele>2392.6000976562</ele>
        <time>2024-10-15T09:48:02.000Z</time>
      </trkpt>
      <trkpt lat="45.10023" lon="5.97629">
        <ele>2392.8000488281</ele>
        <time>2024-10-15T09:48:03.000Z</time>
      </trkpt>
      <trkpt lat="45.10023" lon="5.97629">
        <ele>2392.8000488281</ele>
        <time>2024-10-15T09:48:04.000Z</time>
      </trkpt>
      <trkpt lat="45.10023" lon="5.97629">
        <ele>2392.8000488281</ele>
        <time>2024-10-15T09:48:05.000Z</time>
      </trkpt>
      <trkpt lat="45.10023" lon="5.97629">
        <ele>2393</ele>
        <time>2024-10-15T09:48:06.000Z</time>
      </trkpt>
      <trkpt lat="45.10023" lon="5.97629">
        <ele>2393</ele>
        <time>2024-10-15T09:48:07.000Z</time>
      </trkpt>
      <trkpt lat="45.10023" lon="5.97629">
        <ele>2393.3999023438</ele>
        <time>2024-10-15T09:48:08.000Z</time>
      </trkpt>
      <trkpt lat="45.10022" lon="5.97627">
        <ele>2394.1999511719</ele>
        <time>2024-10-15T09:48:09.000Z</time>
      </trkpt>
      <trkpt lat="45.10021" lon="5.97626">
        <ele>2394.8000488281</ele>
        <time>2024-10-15T09:48:10.000Z</time>
      </trkpt>
      <trkpt lat="45.1002" lon="5.97625">
        <ele>2394.8000488281</ele>
        <time>2024-10-15T09:48:11.000Z</time>
      </trkpt>
      <trkpt lat="45.10019" lon="5.97624">
        <ele>2394.8000488281</ele>
        <time>2024-10-15T09:48:12.000Z</time>
      </trkpt>
      <trkpt lat="45.10018" lon="5.97622">
        <ele>2394.8000488281</ele>
        <time>2024-10-15T09:48:13.000Z</time>
      </trkpt>
      <trkpt lat="45.10017" lon="5.97621">
        <ele>2395</ele>
        <time>2024-10-15T09:48:14.000Z</time>
      </trkpt>
      <trkpt lat="45.10016" lon="5.9762">
        <ele>2395</ele>
        <time>2024-10-15T09:48:15.000Z</time>
      </trkpt>
      <trkpt lat="45.10015" lon="5.97619">
        <ele>2395</ele>
        <time>2024-10-15T09:48:16.000Z</time>
      </trkpt>
      <trkpt lat="45.10014" lon="5.97618">
        <ele>2395.1999511719</ele>
        <time>2024-10-15T09:48:17.000Z</time>
      </trkpt>
      <trkpt lat="45.10013" lon="5.97617">
        <ele>2395.8000488281</ele>
        <time>2024-10-15T09:48:18.000Z</time>
      </trkpt>
      <trkpt lat="45.10013" lon="5.97616">
        <ele>2396.1999511719</ele>
        <time>2024-10-15T09:48:19.000Z</time>
      </trkpt>
      <trkpt lat="45.10013" lon="5.97614">
        <ele>2396.3999023438</ele>
        <time>2024-10-15T09:48:20.000Z</time>
      </trkpt>
      <trkpt lat="45.10012" lon="5.97613">
        <ele>2396.3999023438</ele>
        <time>2024-10-15T09:48:21.000Z</time>
      </trkpt>
      <trkpt lat="45.10012" lon="5.97612">
        <ele>2396.3999023438</ele>
        <time>2024-10-15T09:48:22.000Z</time>
      </trkpt>
      <trkpt lat="45.10011" lon="5.97611">
        <ele>2396.6000976562</ele>
        <time>2024-10-15T09:48:23.000Z</time>
      </trkpt>
      <trkpt lat="45.10011" lon="5.97609">
        <ele>2396.6000976562</ele>
        <time>2024-10-15T09:48:24.000Z</time>
      </trkpt>
      <trkpt lat="45.1001" lon="5.97608">
        <ele>2396.6000976562</ele>
        <time>2024-10-15T09:48:25.000Z</time>
      </trkpt>
      <trkpt lat="45.1001" lon="5.97607">
        <ele>2397</ele>
        <time>2024-10-15T09:48:26.000Z</time>
      </trkpt>
      <trkpt lat="45.1001" lon="5.97606">
        <ele>2396.8000488281</ele>
        <time>2024-10-15T09:48:27.000Z</time>
      </trkpt>
      <trkpt lat="45.1001" lon="5.97605">
        <ele>2396.8000488281</ele>
        <time>2024-10-15T09:48:28.000Z</time>
      </trkpt>
      <trkpt lat="45.10009" lon="5.97604">
        <ele>2397</ele>
        <time>2024-10-15T09:48:29.000Z</time>
      </trkpt>
      <trkpt lat="45.10009" lon="5.97604">
        <ele>2397.1999511719</ele>
        <time>2024-10-15T09:48:30.000Z</time>
      </trkpt>
      <trkpt lat="45.10008" lon="5.97603">
        <ele>2397.1999511719</ele>
        <time>2024-10-15T09:48:31.000Z</time>
      </trkpt>
      <trkpt lat="45.10007" lon="5.97603">
        <ele>2397.1999511719</ele>
        <time>2024-10-15T09:48:32.000Z</time>
      </trkpt>
      <trkpt lat="45.10007" lon="5.97603">
        <ele>2397.1999511719</ele>
        <time>2024-10-15T09:48:33.000Z</time>
      </trkpt>
      <trkpt lat="45.10006" lon="5.97603">
        <ele>2397.1999511719</ele>
        <time>2024-10-15T09:48:34.000Z</time>
      </trkpt>
      <trkpt lat="45.10005" lon="5.97603">
        <ele>2397.6000976562</ele>
        <time>2024-10-15T09:48:35.000Z</time>
      </trkpt>
      <trkpt lat="45.10004" lon="5.97602">
        <ele>2398.6000976562</ele>
        <time>2024-10-15T09:48:36.000Z</time>
      </trkpt>
      <trkpt lat="45.10004" lon="5.97602">
        <ele>2399</ele>
        <time>2024-10-15T09:48:37.000Z</time>
      </trkpt>
      <trkpt lat="45.10003" lon="5.97601">
        <ele>2399</ele>
        <time>2024-10-15T09:48:38.000Z</time>
      </trkpt>
      <trkpt lat="45.10003" lon="5.976">
        <ele>2399</ele>
        <time>2024-10-15T09:48:39.000Z</time>
      </trkpt>
      <trkpt lat="45.10002" lon="5.97599">
        <ele>2398.8000488281</ele>
        <time>2024-10-15T09:48:40.000Z</time>
      </trkpt>
      <trkpt lat="45.10001" lon="5.97599">
        <ele>2398.1999511719</ele>
        <time>2024-10-15T09:48:41.000Z</time>
      </trkpt>
      <trkpt lat="45.1" lon="5.97598">
        <ele>2397.8000488281</ele>
        <time>2024-10-15T09:48:42.000Z</time>
      </trkpt>
      <trkpt lat="45.1" lon="5.97597">
        <ele>2397.1999511719</ele>
        <time>2024-10-15T09:48:43.000Z</time>
      </trkpt>
      <trkpt lat="45.09999" lon="5.97596">
        <ele>2396.6000976562</ele>
        <time>2024-10-15T09:48:44.000Z</time>
      </trkpt>
      <trkpt lat="45.09998" lon="5.97596">
        <ele>2396.3999023438</ele>
        <time>2024-10-15T09:48:45.000Z</time>
      </trkpt>
      <trkpt lat="45.09997" lon="5.97595">
        <ele>2396</ele>
        <time>2024-10-15T09:48:46.000Z</time>
      </trkpt>
      <trkpt lat="45.09996" lon="5.97594">
        <ele>2396</ele>
        <time>2024-10-15T09:48:47.000Z</time>
      </trkpt>
      <trkpt lat="45.09996" lon="5.97593">
        <ele>2395.8000488281</ele>
        <time>2024-10-15T09:48:48.000Z</time>
      </trkpt>
      <trkpt lat="45.09995" lon="5.97592">
        <ele>2395.8000488281</ele>
        <time>2024-10-15T09:48:49.000Z</time>
      </trkpt>
      <trkpt lat="45.09994" lon="5.97591">
        <ele>2396</ele>
        <time>2024-10-15T09:48:50.000Z</time>
      </trkpt>
      <trkpt lat="45.09993" lon="5.9759">
        <ele>2396</ele>
        <time>2024-10-15T09:48:51.000Z</time>
      </trkpt>
      <trkpt lat="45.09993" lon="5.9759">
        <ele>2396.1999511719</ele>
        <time>2024-10-15T09:48:52.000Z</time>
      </trkpt>
      <trkpt lat="45.09992" lon="5.9759">
        <ele>2396.3999023438</ele>
        <time>2024-10-15T09:48:53.000Z</time>
      </trkpt>
      <trkpt lat="45.09992" lon="5.9759">
        <ele>2396.3999023438</ele>
        <time>2024-10-15T09:48:54.000Z</time>
      </trkpt>
      <trkpt lat="45.09991" lon="5.97589">
        <ele>2396.6000976562</ele>
        <time>2024-10-15T09:48:55.000Z</time>
      </trkpt>
      <trkpt lat="45.0999" lon="5.97589">
        <ele>2396.6000976562</ele>
        <time>2024-10-15T09:48:56.000Z</time>
      </trkpt>
      <trkpt lat="45.09989" lon="5.97588">
        <ele>2396.6000976562</ele>
        <time>2024-10-15T09:48:57.000Z</time>
      </trkpt>
      <trkpt lat="45.09988" lon="5.97588">
        <ele>2396.6000976562</ele>
        <time>2024-10-15T09:48:58.000Z</time>
      </trkpt>
      <trkpt lat="45.09987" lon="5.97587">
        <ele>2396.6000976562</ele>
        <time>2024-10-15T09:48:59.000Z</time>
      </trkpt>
      <trkpt lat="45.09986" lon="5.97587">
        <ele>2396.8000488281</ele>
        <time>2024-10-15T09:49:00.000Z</time>
      </trkpt>
      <trkpt lat="45.09986" lon="5.97587">
        <ele>2396.8000488281</ele>
        <time>2024-10-15T09:49:01.000Z</time>
      </trkpt>
      <trkpt lat="45.09985" lon="5.97587">
        <ele>2396.8000488281</ele>
        <time>2024-10-15T09:49:02.000Z</time>
      </trkpt>
      <trkpt lat="45.09985" lon="5.97587">
        <ele>2396.8000488281</ele>
        <time>2024-10-15T09:49:03.000Z</time>
      </trkpt>
      <trkpt lat="45.09985" lon="5.97586">
        <ele>2396.8000488281</ele>
        <time>2024-10-15T09:49:04.000Z</time>
      </trkpt>
      <trkpt lat="45.09985" lon="5.97586">
        <ele>2397</ele>
        <time>2024-10-15T09:49:05.000Z</time>
      </trkpt>
      <trkpt lat="45.09985" lon="5.97586">
        <ele>2397</ele>
        <time>2024-10-15T09:49:06.000Z</time>
      </trkpt>
      <trkpt lat="45.09985" lon="5.97586">
        <ele>2397</ele>
        <time>2024-10-15T09:49:07.000Z</time>
      </trkpt>
      <trkpt lat="45.09985" lon="5.97586">
        <ele>2397</ele>
        <time>2024-10-15T09:49:08.000Z</time>
      </trkpt>
      <trkpt lat="45.09985" lon="5.97585">
        <ele>2397.1999511719</ele>
        <time>2024-10-15T09:49:09.000Z</time>
      </trkpt>
      <trkpt lat="45.09985" lon="5.97585">
        <ele>2397.1999511719</ele>
        <time>2024-10-15T09:49:10.000Z</time>
      </trkpt>
      <trkpt lat="45.09985" lon="5.97585">
        <ele>2397.1999511719</ele>
        <time>2024-10-15T09:49:11.000Z</time>
      </trkpt>
      <trkpt lat="45.09985" lon="5.97585">
        <ele>2397.1999511719</ele>
        <time>2024-10-15T09:49:12.000Z</time>
      </trkpt>
      <trkpt lat="45.09985" lon="5.97585">
        <ele>2397.1999511719</ele>
        <time>2024-10-15T09:49:13.000Z</time>
      </trkpt>
      <trkpt lat="45.09985" lon="5.97585">
        <ele>2397.3999023438</ele>
        <time>2024-10-15T09:49:14.000Z</time>
      </trkpt>
      <trkpt lat="45.09985" lon="5.97585">
        <ele>2397.3999023438</ele>
        <time>2024-10-15T09:49:15.000Z</time>
      </trkpt>
      <trkpt lat="45.09985" lon="5.97585">
        <ele>2397.3999023438</ele>
        <time>2024-10-15T09:49:16.000Z</time>
      </trkpt>
      <trkpt lat="45.09985" lon="5.97585">
        <ele>2397.6000976562</ele>
        <time>2024-10-15T09:49:17.000Z</time>
      </trkpt>
      <trkpt lat="45.09985" lon="5.97585">
        <ele>2397.3999023438</ele>
        <time>2024-10-15T09:49:18.000Z</time>
      </trkpt>
      <trkpt lat="45.09985" lon="5.97585">
        <ele>2397.1999511719</ele>
        <time>2024-10-15T09:49:19.000Z</time>
      </trkpt>
      <trkpt lat="45.09985" lon="5.97585">
        <ele>2397.1999511719</ele>
        <time>2024-10-15T09:49:20.000Z</time>
      </trkpt>
      <trkpt lat="45.09985" lon="5.97585">
        <ele>2397.1999511719</ele>
        <time>2024-10-15T09:49:21.000Z</time>
      </trkpt>
      <trkpt lat="45.09985" lon="5.97585">
        <ele>2397.1999511719</ele>
        <time>2024-10-15T09:49:22.000Z</time>
      </trkpt>
      <trkpt lat="45.09985" lon="5.97585">
        <ele>2397</ele>
        <time>2024-10-15T09:49:23.000Z</time>
      </trkpt>
      <trkpt lat="45.09985" lon="5.97585">
        <ele>2396.8000488281</ele>
        <time>2024-10-15T09:49:24.000Z</time>
      </trkpt>
      <trkpt lat="45.09985" lon="5.97586">
        <ele>2396.8000488281</ele>
        <time>2024-10-15T09:49:25.000Z</time>
      </trkpt>
      <trkpt lat="45.09985" lon="5.97586">
        <ele>2397</ele>
        <time>2024-10-15T09:49:26.000Z</time>
      </trkpt>
      <trkpt lat="45.09985" lon="5.97586">
        <ele>2397</ele>
        <time>2024-10-15T09:49:27.000Z</time>
      </trkpt>
      <trkpt lat="45.09985" lon="5.97586">
        <ele>2397</ele>
        <time>2024-10-15T09:49:28.000Z</time>
      </trkpt>
      <trkpt lat="45.09985" lon="5.97586">
        <ele>2397</ele>
        <time>2024-10-15T09:49:29.000Z</time>
      </trkpt>
      <trkpt lat="45.09985" lon="5.97586">
        <ele>2397</ele>
        <time>2024-10-15T09:49:30.000Z</time>
      </trkpt>
      <trkpt lat="45.09985" lon="5.97586">
        <ele>2397.1999511719</ele>
        <time>2024-10-15T09:49:31.000Z</time>
      </trkpt>
      <trkpt lat="45.09985" lon="5.97586">
        <ele>2397.1999511719</ele>
        <time>2024-10-15T09:49:32.000Z</time>
      </trkpt>
      <trkpt lat="45.09985" lon="5.97586">
        <ele>2397.1999511719</ele>
        <time>2024-10-15T09:49:33.000Z</time>
      </trkpt>
      <trkpt lat="45.09985" lon="5.97586">
        <ele>2397.3999023438</ele>
        <time>2024-10-15T09:49:34.000Z</time>
      </trkpt>
      <trkpt lat="45.09985" lon="5.97586">
        <ele>2397.3999023438</ele>
        <time>2024-10-15T09:49:35.000Z</time>
      </trkpt>
      <trkpt lat="45.09985" lon="5.97586">
        <ele>2397.3999023438</ele>
        <time>2024-10-15T09:49:36.000Z</time>
      </trkpt>
      <trkpt lat="45.09985" lon="5.97586">
        <ele>2397.3999023438</ele>
        <time>2024-10-15T09:49:37.000Z</time>
      </trkpt>
      <trkpt lat="45.09985" lon="5.97586">
        <ele>2397.3999023438</ele>
        <time>2024-10-15T09:49:38.000Z</time>
      </trkpt>
      <trkpt lat="45.09985" lon="5.97586">
        <ele>2397.6000976562</ele>
        <time>2024-10-15T09:49:39.000Z</time>
      </trkpt>
      <trkpt lat="45.09985" lon="5.97586">
        <ele>2397.6000976562</ele>
        <time>2024-10-15T09:49:40.000Z</time>
      </trkpt>
      <trkpt lat="45.09985" lon="5.97586">
        <ele>2397.6000976562</ele>
        <time>2024-10-15T09:49:41.000Z</time>
      </trkpt>
      <trkpt lat="45.09985" lon="5.97586">
        <ele>2397.6000976562</ele>
        <time>2024-10-15T09:49:42.000Z</time>
      </trkpt>
      <trkpt lat="45.09985" lon="5.97586">
        <ele>2397.6000976562</ele>
        <time>2024-10-15T09:49:43.000Z</time>
      </trkpt>
      <trkpt lat="45.09985" lon="5.97586">
        <ele>2397.8000488281</ele>
        <time>2024-10-15T09:49:44.000Z</time>
      </trkpt>
      <trkpt lat="45.09984" lon="5.97586">
        <ele>2397.8000488281</ele>
        <time>2024-10-15T09:49:45.000Z</time>
      </trkpt>
      <trkpt lat="45.09984" lon="5.97586">
        <ele>2397.8000488281</ele>
        <time>2024-10-15T09:49:46.000Z</time>
      </trkpt>
      <trkpt lat="45.09984" lon="5.97586">
        <ele>2398</ele>
        <time>2024-10-15T09:49:47.000Z</time>
      </trkpt>
      <trkpt lat="45.09984" lon="5.97586">
        <ele>2398</ele>
        <time>2024-10-15T09:49:48.000Z</time>
      </trkpt>
      <trkpt lat="45.09983" lon="5.97586">
        <ele>2398</ele>
        <time>2024-10-15T09:49:49.000Z</time>
      </trkpt>
      <trkpt lat="45.09983" lon="5.97586">
        <ele>2398</ele>
        <time>2024-10-15T09:49:50.000Z</time>
      </trkpt>
      <trkpt lat="45.09983" lon="5.97586">
        <ele>2398.1999511719</ele>
        <time>2024-10-15T09:49:51.000Z</time>
      </trkpt>
      <trkpt lat="45.09983" lon="5.97586">
        <ele>2398.1999511719</ele>
        <time>2024-10-15T09:49:52.000Z</time>
      </trkpt>
      <trkpt lat="45.09983" lon="5.97586">
        <ele>2398.1999511719</ele>
        <time>2024-10-15T09:49:53.000Z</time>
      </trkpt>
      <trkpt lat="45.09983" lon="5.97586">
        <ele>2398.1999511719</ele>
        <time>2024-10-15T09:49:54.000Z</time>
      </trkpt>
      <trkpt lat="45.09983" lon="5.97586">
        <ele>2398.1999511719</ele>
        <time>2024-10-15T09:49:55.000Z</time>
      </trkpt>
      <trkpt lat="45.09983" lon="5.97586">
        <ele>2398.1999511719</ele>
        <time>2024-10-15T09:49:56.000Z</time>
      </trkpt>
      <trkpt lat="45.09983" lon="5.97586">
        <ele>2398.1999511719</ele>
        <time>2024-10-15T09:49:57.000Z</time>
      </trkpt>
      <trkpt lat="45.09983" lon="5.97586">
        <ele>2398.1999511719</ele>
        <time>2024-10-15T09:49:58.000Z</time>
      </trkpt>
      <trkpt lat="45.09983" lon="5.97586">
        <ele>2398.1999511719</ele>
        <time>2024-10-15T09:49:59.000Z</time>
      </trkpt>
      <trkpt lat="45.09983" lon="5.97586">
        <ele>2398.3999023438</ele>
        <time>2024-10-15T09:50:00.000Z</time>
      </trkpt>
      <trkpt lat="45.09983" lon="5.97586">
        <ele>2398.3999023438</ele>
        <time>2024-10-15T09:50:01.000Z</time>
      </trkpt>
      <trkpt lat="45.09983" lon="5.97586">
        <ele>2398.3999023438</ele>
        <time>2024-10-15T09:50:02.000Z</time>
      </trkpt>
      <trkpt lat="45.09983" lon="5.97586">
        <ele>2398.6000976562</ele>
        <time>2024-10-15T09:50:03.000Z</time>
      </trkpt>
      <trkpt lat="45.09983" lon="5.97586">
        <ele>2398.6000976562</ele>
        <time>2024-10-15T09:50:04.000Z</time>
      </trkpt>
      <trkpt lat="45.09983" lon="5.97586">
        <ele>2398.8000488281</ele>
        <time>2024-10-15T09:50:05.000Z</time>
      </trkpt>
      <trkpt lat="45.09983" lon="5.97586">
        <ele>2398.8000488281</ele>
        <time>2024-10-15T09:50:06.000Z</time>
      </trkpt>
      <trkpt lat="45.09983" lon="5.97586">
        <ele>2399</ele>
        <time>2024-10-15T09:50:07.000Z</time>
      </trkpt>
      <trkpt lat="45.09983" lon="5.97586">
        <ele>2399</ele>
        <time>2024-10-15T09:50:08.000Z</time>
      </trkpt>
      <trkpt lat="45.09981" lon="5.97586">
        <ele>2399.3999023438</ele>
        <time>2024-10-15T09:50:09.000Z</time>
      </trkpt>
      <trkpt lat="45.0998" lon="5.97587">
        <ele>2399.6000976562</ele>
        <time>2024-10-15T09:50:10.000Z</time>
      </trkpt>
      <trkpt lat="45.09978" lon="5.97587">
        <ele>2399.8000488281</ele>
        <time>2024-10-15T09:50:11.000Z</time>
      </trkpt>
      <trkpt lat="45.09977" lon="5.97587">
        <ele>2400</ele>
        <time>2024-10-15T09:50:12.000Z</time>
      </trkpt>
      <trkpt lat="45.09976" lon="5.97586">
        <ele>2400.1999511719</ele>
        <time>2024-10-15T09:50:13.000Z</time>
      </trkpt>
      <trkpt lat="45.09976" lon="5.97586">
        <ele>2400.3999023438</ele>
        <time>2024-10-15T09:50:14.000Z</time>
      </trkpt>
      <trkpt lat="45.09975" lon="5.97586">
        <ele>2400.6000976562</ele>
        <time>2024-10-15T09:50:15.000Z</time>
      </trkpt>
      <trkpt lat="45.09975" lon="5.97586">
        <ele>2400.6000976562</ele>
        <time>2024-10-15T09:50:16.000Z</time>
      </trkpt>
      <trkpt lat="45.09974" lon="5.97586">
        <ele>2400.8000488281</ele>
        <time>2024-10-15T09:50:17.000Z</time>
      </trkpt>
      <trkpt lat="45.09974" lon="5.97586">
        <ele>2400.8000488281</ele>
        <time>2024-10-15T09:50:18.000Z</time>
      </trkpt>
      <trkpt lat="45.09974" lon="5.97587">
        <ele>2400.8000488281</ele>
        <time>2024-10-15T09:50:19.000Z</time>
      </trkpt>
      <trkpt lat="45.09974" lon="5.97587">
        <ele>2401</ele>
        <time>2024-10-15T09:50:20.000Z</time>
      </trkpt>
      <trkpt lat="45.09974" lon="5.97586">
        <ele>2401</ele>
        <time>2024-10-15T09:50:21.000Z</time>
      </trkpt>
      <trkpt lat="45.09974" lon="5.97586">
        <ele>2401.1999511719</ele>
        <time>2024-10-15T09:50:22.000Z</time>
      </trkpt>
      <trkpt lat="45.09974" lon="5.97586">
        <ele>2401.3999023438</ele>
        <time>2024-10-15T09:50:23.000Z</time>
      </trkpt>
      <trkpt lat="45.09974" lon="5.97586">
        <ele>2401.3999023438</ele>
        <time>2024-10-15T09:50:24.000Z</time>
      </trkpt>
      <trkpt lat="45.09974" lon="5.97586">
        <ele>2401.6000976562</ele>
        <time>2024-10-15T09:50:25.000Z</time>
      </trkpt>
      <trkpt lat="45.09974" lon="5.97586">
        <ele>2401.6000976562</ele>
        <time>2024-10-15T09:50:26.000Z</time>
      </trkpt>
      <trkpt lat="45.09974" lon="5.97586">
        <ele>2401.8000488281</ele>
        <time>2024-10-15T09:50:27.000Z</time>
      </trkpt>
      <trkpt lat="45.09974" lon="5.97586">
        <ele>2401.8000488281</ele>
        <time>2024-10-15T09:50:28.000Z</time>
      </trkpt>
      <trkpt lat="45.09974" lon="5.97586">
        <ele>2402</ele>
        <time>2024-10-15T09:50:29.000Z</time>
      </trkpt>
      <trkpt lat="45.09974" lon="5.97586">
        <ele>2402</ele>
        <time>2024-10-15T09:50:30.000Z</time>
      </trkpt>
      <trkpt lat="45.09974" lon="5.97586">
        <ele>2402</ele>
        <time>2024-10-15T09:50:31.000Z</time>
      </trkpt>
      <trkpt lat="45.09974" lon="5.97586">
        <ele>2402</ele>
        <time>2024-10-15T09:50:32.000Z</time>
      </trkpt>
      <trkpt lat="45.09974" lon="5.97586">
        <ele>2402</ele>
        <time>2024-10-15T09:50:33.000Z</time>
      </trkpt>
      <trkpt lat="45.09974" lon="5.97586">
        <ele>2402.1999511719</ele>
        <time>2024-10-15T09:50:34.000Z</time>
      </trkpt>
      <trkpt lat="45.09974" lon="5.97586">
        <ele>2402.1999511719</ele>
        <time>2024-10-15T09:50:35.000Z</time>
      </trkpt>
      <trkpt lat="45.09974" lon="5.97586">
        <ele>2402.1999511719</ele>
        <time>2024-10-15T09:50:36.000Z</time>
      </trkpt>
      <trkpt lat="45.09974" lon="5.97586">
        <ele>2402.1999511719</ele>
        <time>2024-10-15T09:50:37.000Z</time>
      </trkpt>
      <trkpt lat="45.09974" lon="5.97586">
        <ele>2402.1999511719</ele>
        <time>2024-10-15T09:50:38.000Z</time>
      </trkpt>
      <trkpt lat="45.09974" lon="5.97586">
        <ele>2402.1999511719</ele>
        <time>2024-10-15T09:50:39.000Z</time>
      </trkpt>
      <trkpt lat="45.09974" lon="5.97586">
        <ele>2402.1999511719</ele>
        <time>2024-10-15T09:50:40.000Z</time>
      </trkpt>
      <trkpt lat="45.09974" lon="5.97586">
        <ele>2402.1999511719</ele>
        <time>2024-10-15T09:50:41.000Z</time>
      </trkpt>
      <trkpt lat="45.09974" lon="5.97586">
        <ele>2402.3999023438</ele>
        <time>2024-10-15T09:50:42.000Z</time>
      </trkpt>
      <trkpt lat="45.09974" lon="5.97586">
        <ele>2402.6000976562</ele>
        <time>2024-10-15T09:50:43.000Z</time>
      </trkpt>
      <trkpt lat="45.09974" lon="5.97587">
        <ele>2402.6000976562</ele>
        <time>2024-10-15T09:50:44.000Z</time>
      </trkpt>
      <trkpt lat="45.09974" lon="5.97587">
        <ele>2402.6000976562</ele>
        <time>2024-10-15T09:50:45.000Z</time>
      </trkpt>
      <trkpt lat="45.09974" lon="5.97587">
        <ele>2402.8000488281</ele>
        <time>2024-10-15T09:50:46.000Z</time>
      </trkpt>
      <trkpt lat="45.09974" lon="5.97587">
        <ele>2402.8000488281</ele>
        <time>2024-10-15T09:50:47.000Z</time>
      </trkpt>
      <trkpt lat="45.09974" lon="5.97587">
        <ele>2403</ele>
        <time>2024-10-15T09:50:48.000Z</time>
      </trkpt>
      <trkpt lat="45.09974" lon="5.97587">
        <ele>2403</ele>
        <time>2024-10-15T09:50:49.000Z</time>
      </trkpt>
      <trkpt lat="45.09974" lon="5.97587">
        <ele>2403</ele>
        <time>2024-10-15T09:50:50.000Z</time>
      </trkpt>
      <trkpt lat="45.09974" lon="5.97587">
        <ele>2403</ele>
        <time>2024-10-15T09:50:51.000Z</time>
      </trkpt>
      <trkpt lat="45.09974" lon="5.97587">
        <ele>2403</ele>
        <time>2024-10-15T09:50:52.000Z</time>
      </trkpt>
      <trkpt lat="45.09974" lon="5.97587">
        <ele>2403</ele>
        <time>2024-10-15T09:50:53.000Z</time>
      </trkpt>
      <trkpt lat="45.09974" lon="5.97587">
        <ele>2403</ele>
        <time>2024-10-15T09:50:54.000Z</time>
      </trkpt>
      <trkpt lat="45.09974" lon="5.97587">
        <ele>2403</ele>
        <time>2024-10-15T09:50:55.000Z</time>
      </trkpt>
      <trkpt lat="45.09974" lon="5.97587">
        <ele>2403</ele>
        <time>2024-10-15T09:50:56.000Z</time>
      </trkpt>
      <trkpt lat="45.09973" lon="5.97587">
        <ele>2403</ele>
        <time>2024-10-15T09:50:57.000Z</time>
      </trkpt>
      <trkpt lat="45.09973" lon="5.97587">
        <ele>2403.1999511719</ele>
        <time>2024-10-15T09:50:58.000Z</time>
      </trkpt>
      <trkpt lat="45.09973" lon="5.97587">
        <ele>2403</ele>
        <time>2024-10-15T09:50:59.000Z</time>
      </trkpt>
      <trkpt lat="45.09972" lon="5.97587">
        <ele>2403.1999511719</ele>
        <time>2024-10-15T09:51:00.000Z</time>
      </trkpt>
      <trkpt lat="45.09971" lon="5.97587">
        <ele>2403.1999511719</ele>
        <time>2024-10-15T09:51:01.000Z</time>
      </trkpt>
      <trkpt lat="45.09971" lon="5.97587">
        <ele>2403.1999511719</ele>
        <time>2024-10-15T09:51:02.000Z</time>
      </trkpt>
      <trkpt lat="45.09971" lon="5.97587">
        <ele>2403.3999023438</ele>
        <time>2024-10-15T09:51:03.000Z</time>
      </trkpt>
      <trkpt lat="45.09971" lon="5.97588">
        <ele>2403.3999023438</ele>
        <time>2024-10-15T09:51:04.000Z</time>
      </trkpt>
      <trkpt lat="45.09971" lon="5.97588">
        <ele>2403.6000976562</ele>
        <time>2024-10-15T09:51:05.000Z</time>
      </trkpt>
      <trkpt lat="45.09971" lon="5.97588">
        <ele>2403.6000976562</ele>
        <time>2024-10-15T09:51:06.000Z</time>
      </trkpt>
      <trkpt lat="45.09971" lon="5.97588">
        <ele>2403.6000976562</ele>
        <time>2024-10-15T09:51:07.000Z</time>
      </trkpt>
      <trkpt lat="45.09971" lon="5.97588">
        <ele>2403.8000488281</ele>
        <time>2024-10-15T09:51:08.000Z</time>
      </trkpt>
      <trkpt lat="45.09971" lon="5.97588">
        <ele>2403.8000488281</ele>
        <time>2024-10-15T09:51:09.000Z</time>
      </trkpt>
      <trkpt lat="45.09971" lon="5.97588">
        <ele>2403.8000488281</ele>
        <time>2024-10-15T09:51:10.000Z</time>
      </trkpt>
      <trkpt lat="45.0997" lon="5.97588">
        <ele>2403.6000976562</ele>
        <time>2024-10-15T09:51:11.000Z</time>
      </trkpt>
      <trkpt lat="45.0997" lon="5.97588">
        <ele>2403.6000976562</ele>
        <time>2024-10-15T09:51:12.000Z</time>
      </trkpt>
      <trkpt lat="45.0997" lon="5.97588">
        <ele>2403.6000976562</ele>
        <time>2024-10-15T09:51:13.000Z</time>
      </trkpt>
      <trkpt lat="45.0997" lon="5.97588">
        <ele>2403.6000976562</ele>
        <time>2024-10-15T09:51:14.000Z</time>
      </trkpt>
      <trkpt lat="45.0997" lon="5.97588">
        <ele>2403.8000488281</ele>
        <time>2024-10-15T09:51:15.000Z</time>
      </trkpt>
      <trkpt lat="45.0997" lon="5.97588">
        <ele>2403.8000488281</ele>
        <time>2024-10-15T09:51:16.000Z</time>
      </trkpt>
      <trkpt lat="45.0997" lon="5.97588">
        <ele>2403.8000488281</ele>
        <time>2024-10-15T09:51:17.000Z</time>
      </trkpt>
      <trkpt lat="45.0997" lon="5.97588">
        <ele>2404</ele>
        <time>2024-10-15T09:51:18.000Z</time>
      </trkpt>
      <trkpt lat="45.0997" lon="5.97588">
        <ele>2404.1999511719</ele>
        <time>2024-10-15T09:51:19.000Z</time>
      </trkpt>
      <trkpt lat="45.0997" lon="5.97588">
        <ele>2404.1999511719</ele>
        <time>2024-10-15T09:51:20.000Z</time>
      </trkpt>
      <trkpt lat="45.0997" lon="5.97588">
        <ele>2404.3999023438</ele>
        <time>2024-10-15T09:51:21.000Z</time>
      </trkpt>
      <trkpt lat="45.0997" lon="5.97588">
        <ele>2404.3999023438</ele>
        <time>2024-10-15T09:51:22.000Z</time>
      </trkpt>
      <trkpt lat="45.0997" lon="5.97588">
        <ele>2404.6000976562</ele>
        <time>2024-10-15T09:51:23.000Z</time>
      </trkpt>
      <trkpt lat="45.0997" lon="5.97588">
        <ele>2404.6000976562</ele>
        <time>2024-10-15T09:51:24.000Z</time>
      </trkpt>
      <trkpt lat="45.0997" lon="5.97588">
        <ele>2404.6000976562</ele>
        <time>2024-10-15T09:51:25.000Z</time>
      </trkpt>
      <trkpt lat="45.0997" lon="5.97588">
        <ele>2404.8000488281</ele>
        <time>2024-10-15T09:51:26.000Z</time>
      </trkpt>
      <trkpt lat="45.0997" lon="5.97588">
        <ele>2405</ele>
        <time>2024-10-15T09:51:27.000Z</time>
      </trkpt>
      <trkpt lat="45.0997" lon="5.97588">
        <ele>2405.1999511719</ele>
        <time>2024-10-15T09:51:28.000Z</time>
      </trkpt>
      <trkpt lat="45.0997" lon="5.97588">
        <ele>2405.1999511719</ele>
        <time>2024-10-15T09:51:29.000Z</time>
      </trkpt>
      <trkpt lat="45.0997" lon="5.97588">
        <ele>2405.1999511719</ele>
        <time>2024-10-15T09:51:30.000Z</time>
      </trkpt>
      <trkpt lat="45.0997" lon="5.97588">
        <ele>2405.1999511719</ele>
        <time>2024-10-15T09:51:31.000Z</time>
      </trkpt>
      <trkpt lat="45.0997" lon="5.97588">
        <ele>2405.1999511719</ele>
        <time>2024-10-15T09:51:32.000Z</time>
      </trkpt>
      <trkpt lat="45.0997" lon="5.97588">
        <ele>2405.1999511719</ele>
        <time>2024-10-15T09:51:33.000Z</time>
      </trkpt>
      <trkpt lat="45.0997" lon="5.97588">
        <ele>2405.1999511719</ele>
        <time>2024-10-15T09:51:34.000Z</time>
      </trkpt>
      <trkpt lat="45.0997" lon="5.97588">
        <ele>2405.1999511719</ele>
        <time>2024-10-15T09:51:35.000Z</time>
      </trkpt>
      <trkpt lat="45.0997" lon="5.97588">
        <ele>2405.1999511719</ele>
        <time>2024-10-15T09:51:36.000Z</time>
      </trkpt>
      <trkpt lat="45.0997" lon="5.97588">
        <ele>2405</ele>
        <time>2024-10-15T09:51:37.000Z</time>
      </trkpt>
      <trkpt lat="45.0997" lon="5.97587">
        <ele>2405</ele>
        <time>2024-10-15T09:51:38.000Z</time>
      </trkpt>
      <trkpt lat="45.0997" lon="5.97587">
        <ele>2405</ele>
        <time>2024-10-15T09:51:39.000Z</time>
      </trkpt>
      <trkpt lat="45.0997" lon="5.97587">
        <ele>2405</ele>
        <time>2024-10-15T09:51:40.000Z</time>
      </trkpt>
      <trkpt lat="45.0997" lon="5.97587">
        <ele>2405.1999511719</ele>
        <time>2024-10-15T09:51:41.000Z</time>
      </trkpt>
      <trkpt lat="45.0997" lon="5.97587">
        <ele>2405.1999511719</ele>
        <time>2024-10-15T09:51:42.000Z</time>
      </trkpt>
      <trkpt lat="45.0997" lon="5.97587">
        <ele>2405.1999511719</ele>
        <time>2024-10-15T09:51:43.000Z</time>
      </trkpt>
      <trkpt lat="45.0997" lon="5.97587">
        <ele>2405.1999511719</ele>
        <time>2024-10-15T09:51:44.000Z</time>
      </trkpt>
      <trkpt lat="45.0997" lon="5.97587">
        <ele>2405.1999511719</ele>
        <time>2024-10-15T09:51:45.000Z</time>
      </trkpt>
      <trkpt lat="45.0997" lon="5.97587">
        <ele>2405.1999511719</ele>
        <time>2024-10-15T09:51:46.000Z</time>
      </trkpt>
      <trkpt lat="45.0997" lon="5.97588">
        <ele>2405.1999511719</ele>
        <time>2024-10-15T09:51:47.000Z</time>
      </trkpt>
      <trkpt lat="45.0997" lon="5.97588">
        <ele>2405.3999023438</ele>
        <time>2024-10-15T09:51:48.000Z</time>
      </trkpt>
      <trkpt lat="45.0997" lon="5.97588">
        <ele>2405.3999023438</ele>
        <time>2024-10-15T09:51:49.000Z</time>
      </trkpt>
      <trkpt lat="45.0997" lon="5.97588">
        <ele>2405.3999023438</ele>
        <time>2024-10-15T09:51:50.000Z</time>
      </trkpt>
      <trkpt lat="45.0997" lon="5.97588">
        <ele>2405.3999023438</ele>
        <time>2024-10-15T09:51:51.000Z</time>
      </trkpt>
      <trkpt lat="45.0997" lon="5.97588">
        <ele>2405.3999023438</ele>
        <time>2024-10-15T09:51:52.000Z</time>
      </trkpt>
      <trkpt lat="45.0997" lon="5.97588">
        <ele>2405.3999023438</ele>
        <time>2024-10-15T09:51:53.000Z</time>
      </trkpt>
      <trkpt lat="45.0997" lon="5.97588">
        <ele>2405.3999023438</ele>
        <time>2024-10-15T09:51:54.000Z</time>
      </trkpt>
      <trkpt lat="45.0997" lon="5.97588">
        <ele>2405.3999023438</ele>
        <time>2024-10-15T09:51:55.000Z</time>
      </trkpt>
      <trkpt lat="45.0997" lon="5.97588">
        <ele>2405.3999023438</ele>
        <time>2024-10-15T09:51:56.000Z</time>
      </trkpt>
      <trkpt lat="45.0997" lon="5.97588">
        <ele>2405.3999023438</ele>
        <time>2024-10-15T09:51:57.000Z</time>
      </trkpt>
      <trkpt lat="45.0997" lon="5.97588">
        <ele>2405.1999511719</ele>
        <time>2024-10-15T09:51:58.000Z</time>
      </trkpt>
      <trkpt lat="45.0997" lon="5.97588">
        <ele>2405.1999511719</ele>
        <time>2024-10-15T09:51:59.000Z</time>
      </trkpt>
      <trkpt lat="45.09971" lon="5.97588">
        <ele>2405.3999023438</ele>
        <time>2024-10-15T09:52:00.000Z</time>
      </trkpt>
      <trkpt lat="45.09971" lon="5.97588">
        <ele>2405.3999023438</ele>
        <time>2024-10-15T09:52:01.000Z</time>
      </trkpt>
      <trkpt lat="45.09972" lon="5.97589">
        <ele>2405.3999023438</ele>
        <time>2024-10-15T09:52:02.000Z</time>
      </trkpt>
      <trkpt lat="45.09972" lon="5.97589">
        <ele>2405.3999023438</ele>
        <time>2024-10-15T09:52:03.000Z</time>
      </trkpt>
      <trkpt lat="45.09972" lon="5.97589">
        <ele>2405.3999023438</ele>
        <time>2024-10-15T09:52:04.000Z</time>
      </trkpt>
      <trkpt lat="45.09972" lon="5.97589">
        <ele>2405.3999023438</ele>
        <time>2024-10-15T09:52:05.000Z</time>
      </trkpt>
      <trkpt lat="45.09973" lon="5.97589">
        <ele>2405.3999023438</ele>
        <time>2024-10-15T09:52:06.000Z</time>
      </trkpt>
      <trkpt lat="45.09973" lon="5.97589">
        <ele>2405.3999023438</ele>
        <time>2024-10-15T09:52:07.000Z</time>
      </trkpt>
      <trkpt lat="45.09973" lon="5.97589">
        <ele>2405.3999023438</ele>
        <time>2024-10-15T09:52:08.000Z</time>
      </trkpt>
      <trkpt lat="45.09973" lon="5.97589">
        <ele>2405.3999023438</ele>
        <time>2024-10-15T09:52:09.000Z</time>
      </trkpt>
      <trkpt lat="45.09973" lon="5.97589">
        <ele>2405.3999023438</ele>
        <time>2024-10-15T09:52:10.000Z</time>
      </trkpt>
      <trkpt lat="45.09973" lon="5.97589">
        <ele>2405.3999023438</ele>
        <time>2024-10-15T09:52:11.000Z</time>
      </trkpt>
      <trkpt lat="45.09973" lon="5.97589">
        <ele>2405.6000976562</ele>
        <time>2024-10-15T09:52:12.000Z</time>
      </trkpt>
      <trkpt lat="45.09973" lon="5.97589">
        <ele>2405.6000976562</ele>
        <time>2024-10-15T09:52:13.000Z</time>
      </trkpt>
      <trkpt lat="45.09973" lon="5.97589">
        <ele>2405.6000976562</ele>
        <time>2024-10-15T09:52:14.000Z</time>
      </trkpt>
      <trkpt lat="45.09973" lon="5.97589">
        <ele>2405.6000976562</ele>
        <time>2024-10-15T09:52:15.000Z</time>
      </trkpt>
      <trkpt lat="45.09973" lon="5.97589">
        <ele>2405.6000976562</ele>
        <time>2024-10-15T09:52:16.000Z</time>
      </trkpt>
      <trkpt lat="45.09973" lon="5.97589">
        <ele>2405.8000488281</ele>
        <time>2024-10-15T09:52:17.000Z</time>
      </trkpt>
      <trkpt lat="45.09973" lon="5.97589">
        <ele>2406</ele>
        <time>2024-10-15T09:52:18.000Z</time>
      </trkpt>
      <trkpt lat="45.09973" lon="5.97589">
        <ele>2406</ele>
        <time>2024-10-15T09:52:19.000Z</time>
      </trkpt>
      <trkpt lat="45.09973" lon="5.97589">
        <ele>2406.1999511719</ele>
        <time>2024-10-15T09:52:20.000Z</time>
      </trkpt>
      <trkpt lat="45.09973" lon="5.97589">
        <ele>2406.3999023438</ele>
        <time>2024-10-15T09:52:21.000Z</time>
      </trkpt>
      <trkpt lat="45.09973" lon="5.97589">
        <ele>2406.3999023438</ele>
        <time>2024-10-15T09:52:22.000Z</time>
      </trkpt>
      <trkpt lat="45.09973" lon="5.97589">
        <ele>2406.3999023438</ele>
        <time>2024-10-15T09:52:23.000Z</time>
      </trkpt>
      <trkpt lat="45.09973" lon="5.97589">
        <ele>2406.3999023438</ele>
        <time>2024-10-15T09:52:24.000Z</time>
      </trkpt>
      <trkpt lat="45.09973" lon="5.97589">
        <ele>2406.3999023438</ele>
        <time>2024-10-15T09:52:25.000Z</time>
      </trkpt>
      <trkpt lat="45.09973" lon="5.97589">
        <ele>2406.3999023438</ele>
        <time>2024-10-15T09:52:26.000Z</time>
      </trkpt>
      <trkpt lat="45.09973" lon="5.97589">
        <ele>2406.6000976562</ele>
        <time>2024-10-15T09:52:27.000Z</time>
      </trkpt>
      <trkpt lat="45.09973" lon="5.97589">
        <ele>2406.8000488281</ele>
        <time>2024-10-15T09:52:28.000Z</time>
      </trkpt>
      <trkpt lat="45.09973" lon="5.97589">
        <ele>2406.8000488281</ele>
        <time>2024-10-15T09:52:29.000Z</time>
      </trkpt>
      <trkpt lat="45.09972" lon="5.97589">
        <ele>2407</ele>
        <time>2024-10-15T09:52:30.000Z</time>
      </trkpt>
      <trkpt lat="45.09972" lon="5.97588">
        <ele>2407</ele>
        <time>2024-10-15T09:52:31.000Z</time>
      </trkpt>
      <trkpt lat="45.09971" lon="5.97588">
        <ele>2407</ele>
        <time>2024-10-15T09:52:32.000Z</time>
      </trkpt>
      <trkpt lat="45.09971" lon="5.97587">
        <ele>2407</ele>
        <time>2024-10-15T09:52:33.000Z</time>
      </trkpt>
      <trkpt lat="45.0997" lon="5.97586">
        <ele>2407</ele>
        <time>2024-10-15T09:52:34.000Z</time>
      </trkpt>
      <trkpt lat="45.0997" lon="5.97586">
        <ele>2407</ele>
        <time>2024-10-15T09:52:35.000Z</time>
      </trkpt>
      <trkpt lat="45.0997" lon="5.97586">
        <ele>2407</ele>
        <time>2024-10-15T09:52:36.000Z</time>
      </trkpt>
      <trkpt lat="45.0997" lon="5.97586">
        <ele>2407</ele>
        <time>2024-10-15T09:52:37.000Z</time>
      </trkpt>
      <trkpt lat="45.0997" lon="5.97586">
        <ele>2407</ele>
        <time>2024-10-15T09:52:38.000Z</time>
      </trkpt>
      <trkpt lat="45.09969" lon="5.97586">
        <ele>2407</ele>
        <time>2024-10-15T09:52:39.000Z</time>
      </trkpt>
      <trkpt lat="45.09969" lon="5.97586">
        <ele>2407</ele>
        <time>2024-10-15T09:52:40.000Z</time>
      </trkpt>
      <trkpt lat="45.09969" lon="5.97585">
        <ele>2407</ele>
        <time>2024-10-15T09:52:41.000Z</time>
      </trkpt>
      <trkpt lat="45.09969" lon="5.97585">
        <ele>2407</ele>
        <time>2024-10-15T09:52:42.000Z</time>
      </trkpt>
      <trkpt lat="45.09969" lon="5.97585">
        <ele>2407</ele>
        <time>2024-10-15T09:52:43.000Z</time>
      </trkpt>
      <trkpt lat="45.09969" lon="5.97585">
        <ele>2407</ele>
        <time>2024-10-15T09:52:44.000Z</time>
      </trkpt>
      <trkpt lat="45.09969" lon="5.97585">
        <ele>2407.1999511719</ele>
        <time>2024-10-15T09:52:45.000Z</time>
      </trkpt>
      <trkpt lat="45.09969" lon="5.97585">
        <ele>2407.1999511719</ele>
        <time>2024-10-15T09:52:46.000Z</time>
      </trkpt>
      <trkpt lat="45.09969" lon="5.97585">
        <ele>2407.1999511719</ele>
        <time>2024-10-15T09:52:47.000Z</time>
      </trkpt>
      <trkpt lat="45.09969" lon="5.97585">
        <ele>2407.1999511719</ele>
        <time>2024-10-15T09:52:48.000Z</time>
      </trkpt>
      <trkpt lat="45.09969" lon="5.97585">
        <ele>2407.3999023438</ele>
        <time>2024-10-15T09:52:49.000Z</time>
      </trkpt>
      <trkpt lat="45.09969" lon="5.97585">
        <ele>2407.3999023438</ele>
        <time>2024-10-15T09:52:50.000Z</time>
      </trkpt>
      <trkpt lat="45.09969" lon="5.97585">
        <ele>2407.3999023438</ele>
        <time>2024-10-15T09:52:51.000Z</time>
      </trkpt>
      <trkpt lat="45.09969" lon="5.97585">
        <ele>2407.3999023438</ele>
        <time>2024-10-15T09:52:52.000Z</time>
      </trkpt>
      <trkpt lat="45.09969" lon="5.97585">
        <ele>2407.3999023438</ele>
        <time>2024-10-15T09:52:53.000Z</time>
      </trkpt>
      <trkpt lat="45.09969" lon="5.97585">
        <ele>2407.3999023438</ele>
        <time>2024-10-15T09:52:54.000Z</time>
      </trkpt>
      <trkpt lat="45.09969" lon="5.97585">
        <ele>2407.3999023438</ele>
        <time>2024-10-15T09:52:55.000Z</time>
      </trkpt>
      <trkpt lat="45.09969" lon="5.97585">
        <ele>2407.6000976562</ele>
        <time>2024-10-15T09:52:56.000Z</time>
      </trkpt>
      <trkpt lat="45.09969" lon="5.97585">
        <ele>2407.6000976562</ele>
        <time>2024-10-15T09:52:57.000Z</time>
      </trkpt>
      <trkpt lat="45.09969" lon="5.97585">
        <ele>2407.6000976562</ele>
        <time>2024-10-15T09:52:58.000Z</time>
      </trkpt>
      <trkpt lat="45.09969" lon="5.97585">
        <ele>2407.6000976562</ele>
        <time>2024-10-15T09:52:59.000Z</time>
      </trkpt>
      <trkpt lat="45.09969" lon="5.97585">
        <ele>2407.8000488281</ele>
        <time>2024-10-15T09:53:00.000Z</time>
      </trkpt>
      <trkpt lat="45.09969" lon="5.97585">
        <ele>2407.8000488281</ele>
        <time>2024-10-15T09:53:01.000Z</time>
      </trkpt>
      <trkpt lat="45.09969" lon="5.97585">
        <ele>2407.8000488281</ele>
        <time>2024-10-15T09:53:02.000Z</time>
      </trkpt>
      <trkpt lat="45.09968" lon="5.97586">
        <ele>2407.8000488281</ele>
        <time>2024-10-15T09:53:03.000Z</time>
      </trkpt>
      <trkpt lat="45.09968" lon="5.97586">
        <ele>2407.8000488281</ele>
        <time>2024-10-15T09:53:04.000Z</time>
      </trkpt>
      <trkpt lat="45.09968" lon="5.97586">
        <ele>2407.8000488281</ele>
        <time>2024-10-15T09:53:05.000Z</time>
      </trkpt>
      <trkpt lat="45.09968" lon="5.97586">
        <ele>2407.8000488281</ele>
        <time>2024-10-15T09:53:06.000Z</time>
      </trkpt>
      <trkpt lat="45.09968" lon="5.97586">
        <ele>2407.8000488281</ele>
        <time>2024-10-15T09:53:07.000Z</time>
      </trkpt>
      <trkpt lat="45.09968" lon="5.97586">
        <ele>2407.8000488281</ele>
        <time>2024-10-15T09:53:08.000Z</time>
      </trkpt>
      <trkpt lat="45.09968" lon="5.97586">
        <ele>2407.8000488281</ele>
        <time>2024-10-15T09:53:09.000Z</time>
      </trkpt>
      <trkpt lat="45.09968" lon="5.97586">
        <ele>2407.8000488281</ele>
        <time>2024-10-15T09:53:10.000Z</time>
      </trkpt>
      <trkpt lat="45.09968" lon="5.97586">
        <ele>2407.8000488281</ele>
        <time>2024-10-15T09:53:11.000Z</time>
      </trkpt>
      <trkpt lat="45.09968" lon="5.97586">
        <ele>2407.8000488281</ele>
        <time>2024-10-15T09:53:12.000Z</time>
      </trkpt>
      <trkpt lat="45.09968" lon="5.97586">
        <ele>2407.8000488281</ele>
        <time>2024-10-15T09:53:13.000Z</time>
      </trkpt>
      <trkpt lat="45.09968" lon="5.97586">
        <ele>2407.8000488281</ele>
        <time>2024-10-15T09:53:14.000Z</time>
      </trkpt>
      <trkpt lat="45.09968" lon="5.97586">
        <ele>2407.8000488281</ele>
        <time>2024-10-15T09:53:15.000Z</time>
      </trkpt>
      <trkpt lat="45.09968" lon="5.97586">
        <ele>2407.8000488281</ele>
        <time>2024-10-15T09:53:16.000Z</time>
      </trkpt>
      <trkpt lat="45.09968" lon="5.97586">
        <ele>2408</ele>
        <time>2024-10-15T09:53:17.000Z</time>
      </trkpt>
      <trkpt lat="45.09968" lon="5.97586">
        <ele>2408</ele>
        <time>2024-10-15T09:53:18.000Z</time>
      </trkpt>
      <trkpt lat="45.09968" lon="5.97586">
        <ele>2408</ele>
        <time>2024-10-15T09:53:19.000Z</time>
      </trkpt>
      <trkpt lat="45.09967" lon="5.97586">
        <ele>2408.1999511719</ele>
        <time>2024-10-15T09:53:20.000Z</time>
      </trkpt>
      <trkpt lat="45.09966" lon="5.97585">
        <ele>2408.1999511719</ele>
        <time>2024-10-15T09:53:21.000Z</time>
      </trkpt>
      <trkpt lat="45.09965" lon="5.97584">
        <ele>2408.6000976562</ele>
        <time>2024-10-15T09:53:22.000Z</time>
      </trkpt>
      <trkpt lat="45.09964" lon="5.97582">
        <ele>2408.8000488281</ele>
        <time>2024-10-15T09:53:23.000Z</time>
      </trkpt>
      <trkpt lat="45.09963" lon="5.97581">
        <ele>2409</ele>
        <time>2024-10-15T09:53:24.000Z</time>
      </trkpt>
      <trkpt lat="45.09962" lon="5.9758">
        <ele>2409.1999511719</ele>
        <time>2024-10-15T09:53:25.000Z</time>
      </trkpt>
      <trkpt lat="45.0996" lon="5.97579">
        <ele>2409.1999511719</ele>
        <time>2024-10-15T09:53:26.000Z</time>
      </trkpt>
      <trkpt lat="45.09959" lon="5.97578">
        <ele>2409.3999023438</ele>
        <time>2024-10-15T09:53:27.000Z</time>
      </trkpt>
      <trkpt lat="45.09957" lon="5.97577">
        <ele>2409.3999023438</ele>
        <time>2024-10-15T09:53:28.000Z</time>
      </trkpt>
      <trkpt lat="45.09956" lon="5.97576">
        <ele>2409.3999023438</ele>
        <time>2024-10-15T09:53:29.000Z</time>
      </trkpt>
      <trkpt lat="45.09955" lon="5.97576">
        <ele>2409.6000976562</ele>
        <time>2024-10-15T09:53:30.000Z</time>
      </trkpt>
      <trkpt lat="45.09954" lon="5.97575">
        <ele>2409.8000488281</ele>
        <time>2024-10-15T09:53:31.000Z</time>
      </trkpt>
      <trkpt lat="45.09954" lon="5.97575">
        <ele>2409.8000488281</ele>
        <time>2024-10-15T09:53:32.000Z</time>
      </trkpt>
      <trkpt lat="45.09954" lon="5.97575">
        <ele>2409.8000488281</ele>
        <time>2024-10-15T09:53:33.000Z</time>
      </trkpt>
      <trkpt lat="45.09954" lon="5.97575">
        <ele>2410</ele>
        <time>2024-10-15T09:53:34.000Z</time>
      </trkpt>
      <trkpt lat="45.09954" lon="5.97575">
        <ele>2410</ele>
        <time>2024-10-15T09:53:35.000Z</time>
      </trkpt>
      <trkpt lat="45.09954" lon="5.97575">
        <ele>2410</ele>
        <time>2024-10-15T09:53:36.000Z</time>
      </trkpt>
      <trkpt lat="45.09953" lon="5.97575">
        <ele>2410</ele>
        <time>2024-10-15T09:53:37.000Z</time>
      </trkpt>
      <trkpt lat="45.09952" lon="5.97575">
        <ele>2410</ele>
        <time>2024-10-15T09:53:38.000Z</time>
      </trkpt>
      <trkpt lat="45.09952" lon="5.97575">
        <ele>2410</ele>
        <time>2024-10-15T09:53:39.000Z</time>
      </trkpt>
      <trkpt lat="45.09951" lon="5.97575">
        <ele>2410</ele>
        <time>2024-10-15T09:53:40.000Z</time>
      </trkpt>
      <trkpt lat="45.0995" lon="5.97575">
        <ele>2410.1999511719</ele>
        <time>2024-10-15T09:53:41.000Z</time>
      </trkpt>
      <trkpt lat="45.09949" lon="5.97576">
        <ele>2410.3999023438</ele>
        <time>2024-10-15T09:53:42.000Z</time>
      </trkpt>
      <trkpt lat="45.09948" lon="5.97577">
        <ele>2410.6000976562</ele>
        <time>2024-10-15T09:53:43.000Z</time>
      </trkpt>
      <trkpt lat="45.09947" lon="5.97576">
        <ele>2411</ele>
        <time>2024-10-15T09:53:44.000Z</time>
      </trkpt>
      <trkpt lat="45.09946" lon="5.97576">
        <ele>2411</ele>
        <time>2024-10-15T09:53:45.000Z</time>
      </trkpt>
      <trkpt lat="45.09945" lon="5.97576">
        <ele>2411.1999511719</ele>
        <time>2024-10-15T09:53:46.000Z</time>
      </trkpt>
      <trkpt lat="45.09944" lon="5.97576">
        <ele>2411.3999023438</ele>
        <time>2024-10-15T09:53:47.000Z</time>
      </trkpt>
      <trkpt lat="45.09943" lon="5.97577">
        <ele>2411.6000976562</ele>
        <time>2024-10-15T09:53:48.000Z</time>
      </trkpt>
      <trkpt lat="45.09942" lon="5.97577">
        <ele>2412</ele>
        <time>2024-10-15T09:53:49.000Z</time>
      </trkpt>
      <trkpt lat="45.09942" lon="5.97578">
        <ele>2412.1999511719</ele>
        <time>2024-10-15T09:53:50.000Z</time>
      </trkpt>
      <trkpt lat="45.09941" lon="5.97579">
        <ele>2412.3999023438</ele>
        <time>2024-10-15T09:53:51.000Z</time>
      </trkpt>
      <trkpt lat="45.0994" lon="5.9758">
        <ele>2412.6000976562</ele>
        <time>2024-10-15T09:53:52.000Z</time>
      </trkpt>
      <trkpt lat="45.09939" lon="5.97581">
        <ele>2412.6000976562</ele>
        <time>2024-10-15T09:53:53.000Z</time>
      </trkpt>
      <trkpt lat="45.09938" lon="5.97581">
        <ele>2412.8000488281</ele>
        <time>2024-10-15T09:53:54.000Z</time>
      </trkpt>
      <trkpt lat="45.09937" lon="5.97582">
        <ele>2413</ele>
        <time>2024-10-15T09:53:55.000Z</time>
      </trkpt>
      <trkpt lat="45.09936" lon="5.97582">
        <ele>2413.3999023438</ele>
        <time>2024-10-15T09:53:56.000Z</time>
      </trkpt>
      <trkpt lat="45.09935" lon="5.97582">
        <ele>2413.8000488281</ele>
        <time>2024-10-15T09:53:57.000Z</time>
      </trkpt>
      <trkpt lat="45.09934" lon="5.97582">
        <ele>2414.1999511719</ele>
        <time>2024-10-15T09:53:58.000Z</time>
      </trkpt>
      <trkpt lat="45.09934" lon="5.97582">
        <ele>2414.6000976562</ele>
        <time>2024-10-15T09:53:59.000Z</time>
      </trkpt>
      <trkpt lat="45.09933" lon="5.97582">
        <ele>2414.8000488281</ele>
        <time>2024-10-15T09:54:00.000Z</time>
      </trkpt>
      <trkpt lat="45.09932" lon="5.97581">
        <ele>2415</ele>
        <time>2024-10-15T09:54:01.000Z</time>
      </trkpt>
      <trkpt lat="45.09931" lon="5.97581">
        <ele>2415.3999023438</ele>
        <time>2024-10-15T09:54:02.000Z</time>
      </trkpt>
      <trkpt lat="45.0993" lon="5.97581">
        <ele>2415.6000976562</ele>
        <time>2024-10-15T09:54:03.000Z</time>
      </trkpt>
      <trkpt lat="45.09929" lon="5.97581">
        <ele>2415.6000976562</ele>
        <time>2024-10-15T09:54:04.000Z</time>
      </trkpt>
      <trkpt lat="45.09928" lon="5.97581">
        <ele>2415.6000976562</ele>
        <time>2024-10-15T09:54:05.000Z</time>
      </trkpt>
      <trkpt lat="45.09927" lon="5.97581">
        <ele>2415.6000976562</ele>
        <time>2024-10-15T09:54:06.000Z</time>
      </trkpt>
      <trkpt lat="45.09927" lon="5.97581">
        <ele>2415.6000976562</ele>
        <time>2024-10-15T09:54:07.000Z</time>
      </trkpt>
      <trkpt lat="45.09926" lon="5.97581">
        <ele>2415.1999511719</ele>
        <time>2024-10-15T09:54:08.000Z</time>
      </trkpt>
      <trkpt lat="45.09926" lon="5.97581">
        <ele>2415.1999511719</ele>
        <time>2024-10-15T09:54:09.000Z</time>
      </trkpt>
      <trkpt lat="45.09925" lon="5.97582">
        <ele>2415.1999511719</ele>
        <time>2024-10-15T09:54:10.000Z</time>
      </trkpt>
      <trkpt lat="45.09924" lon="5.97582">
        <ele>2415.1999511719</ele>
        <time>2024-10-15T09:54:11.000Z</time>
      </trkpt>
      <trkpt lat="45.09924" lon="5.97582">
        <ele>2415.3999023438</ele>
        <time>2024-10-15T09:54:12.000Z</time>
      </trkpt>
      <trkpt lat="45.09923" lon="5.97582">
        <ele>2415.3999023438</ele>
        <time>2024-10-15T09:54:13.000Z</time>
      </trkpt>
      <trkpt lat="45.09923" lon="5.97582">
        <ele>2415.3999023438</ele>
        <time>2024-10-15T09:54:14.000Z</time>
      </trkpt>
      <trkpt lat="45.09922" lon="5.97582">
        <ele>2415.6000976562</ele>
        <time>2024-10-15T09:54:15.000Z</time>
      </trkpt>
      <trkpt lat="45.09921" lon="5.97582">
        <ele>2415.8000488281</ele>
        <time>2024-10-15T09:54:16.000Z</time>
      </trkpt>
      <trkpt lat="45.09921" lon="5.97581">
        <ele>2415.8000488281</ele>
        <time>2024-10-15T09:54:17.000Z</time>
      </trkpt>
      <trkpt lat="45.0992" lon="5.97581">
        <ele>2416</ele>
        <time>2024-10-15T09:54:18.000Z</time>
      </trkpt>
      <trkpt lat="45.0992" lon="5.97581">
        <ele>2416.1999511719</ele>
        <time>2024-10-15T09:54:19.000Z</time>
      </trkpt>
      <trkpt lat="45.0992" lon="5.9758">
        <ele>2416.3999023438</ele>
        <time>2024-10-15T09:54:20.000Z</time>
      </trkpt>
      <trkpt lat="45.09919" lon="5.9758">
        <ele>2416.3999023438</ele>
        <time>2024-10-15T09:54:21.000Z</time>
      </trkpt>
      <trkpt lat="45.09919" lon="5.9758">
        <ele>2416.8000488281</ele>
        <time>2024-10-15T09:54:22.000Z</time>
      </trkpt>
      <trkpt lat="45.09919" lon="5.9758">
        <ele>2417</ele>
        <time>2024-10-15T09:54:23.000Z</time>
      </trkpt>
      <trkpt lat="45.09919" lon="5.9758">
        <ele>2417</ele>
        <time>2024-10-15T09:54:24.000Z</time>
      </trkpt>
      <trkpt lat="45.09918" lon="5.97579">
        <ele>2417.1999511719</ele>
        <time>2024-10-15T09:54:25.000Z</time>
      </trkpt>
      <trkpt lat="45.09918" lon="5.97579">
        <ele>2417.6000976562</ele>
        <time>2024-10-15T09:54:26.000Z</time>
      </trkpt>
      <trkpt lat="45.09917" lon="5.97578">
        <ele>2417.6000976562</ele>
        <time>2024-10-15T09:54:27.000Z</time>
      </trkpt>
      <trkpt lat="45.09917" lon="5.97577">
        <ele>2417.8000488281</ele>
        <time>2024-10-15T09:54:28.000Z</time>
      </trkpt>
      <trkpt lat="45.09917" lon="5.97577">
        <ele>2418</ele>
        <time>2024-10-15T09:54:29.000Z</time>
      </trkpt>
      <trkpt lat="45.09917" lon="5.97576">
        <ele>2418.1999511719</ele>
        <time>2024-10-15T09:54:30.000Z</time>
      </trkpt>
      <trkpt lat="45.09917" lon="5.97576">
        <ele>2418.3999023438</ele>
        <time>2024-10-15T09:54:31.000Z</time>
      </trkpt>
      <trkpt lat="45.09917" lon="5.97576">
        <ele>2418.8000488281</ele>
        <time>2024-10-15T09:54:32.000Z</time>
      </trkpt>
      <trkpt lat="45.09917" lon="5.97576">
        <ele>2419.1999511719</ele>
        <time>2024-10-15T09:54:33.000Z</time>
      </trkpt>
      <trkpt lat="45.09916" lon="5.97576">
        <ele>2419.3999023438</ele>
        <time>2024-10-15T09:54:34.000Z</time>
      </trkpt>
      <trkpt lat="45.09916" lon="5.97576">
        <ele>2419.8000488281</ele>
        <time>2024-10-15T09:54:35.000Z</time>
      </trkpt>
      <trkpt lat="45.09916" lon="5.97577">
        <ele>2420</ele>
        <time>2024-10-15T09:54:36.000Z</time>
      </trkpt>
      <trkpt lat="45.09915" lon="5.97577">
        <ele>2420.1999511719</ele>
        <time>2024-10-15T09:54:37.000Z</time>
      </trkpt>
      <trkpt lat="45.09915" lon="5.97577">
        <ele>2420.6000976562</ele>
        <time>2024-10-15T09:54:38.000Z</time>
      </trkpt>
      <trkpt lat="45.09914" lon="5.97577">
        <ele>2420.8000488281</ele>
        <time>2024-10-15T09:54:39.000Z</time>
      </trkpt>
      <trkpt lat="45.09914" lon="5.97577">
        <ele>2421</ele>
        <time>2024-10-15T09:54:40.000Z</time>
      </trkpt>
      <trkpt lat="45.09913" lon="5.97576">
        <ele>2421.1999511719</ele>
        <time>2024-10-15T09:54:41.000Z</time>
      </trkpt>
      <trkpt lat="45.09913" lon="5.97577">
        <ele>2421.3999023438</ele>
        <time>2024-10-15T09:54:42.000Z</time>
      </trkpt>
      <trkpt lat="45.09912" lon="5.97577">
        <ele>2421.6000976562</ele>
        <time>2024-10-15T09:54:43.000Z</time>
      </trkpt>
      <trkpt lat="45.09912" lon="5.97577">
        <ele>2421.8000488281</ele>
        <time>2024-10-15T09:54:44.000Z</time>
      </trkpt>
      <trkpt lat="45.09912" lon="5.97577">
        <ele>2422</ele>
        <time>2024-10-15T09:54:45.000Z</time>
      </trkpt>
      <trkpt lat="45.09911" lon="5.97577">
        <ele>2422.1999511719</ele>
        <time>2024-10-15T09:54:46.000Z</time>
      </trkpt>
      <trkpt lat="45.09911" lon="5.97578">
        <ele>2422.1999511719</ele>
        <time>2024-10-15T09:54:47.000Z</time>
      </trkpt>
      <trkpt lat="45.0991" lon="5.97578">
        <ele>2422.3999023438</ele>
        <time>2024-10-15T09:54:48.000Z</time>
      </trkpt>
      <trkpt lat="45.09909" lon="5.97578">
        <ele>2422.6000976562</ele>
        <time>2024-10-15T09:54:49.000Z</time>
      </trkpt>
      <trkpt lat="45.09909" lon="5.97577">
        <ele>2422.8000488281</ele>
        <time>2024-10-15T09:54:50.000Z</time>
      </trkpt>
      <trkpt lat="45.09908" lon="5.97577">
        <ele>2423</ele>
        <time>2024-10-15T09:54:51.000Z</time>
      </trkpt>
      <trkpt lat="45.09908" lon="5.97576">
        <ele>2423.3999023438</ele>
        <time>2024-10-15T09:54:52.000Z</time>
      </trkpt>
      <trkpt lat="45.09908" lon="5.97576">
        <ele>2423.3999023438</ele>
        <time>2024-10-15T09:54:53.000Z</time>
      </trkpt>
      <trkpt lat="45.09907" lon="5.97576">
        <ele>2423.6000976562</ele>
        <time>2024-10-15T09:54:54.000Z</time>
      </trkpt>
      <trkpt lat="45.09907" lon="5.97576">
        <ele>2423.8000488281</ele>
        <time>2024-10-15T09:54:55.000Z</time>
      </trkpt>
      <trkpt lat="45.09906" lon="5.97577">
        <ele>2424</ele>
        <time>2024-10-15T09:54:56.000Z</time>
      </trkpt>
      <trkpt lat="45.09906" lon="5.97577">
        <ele>2424.1999511719</ele>
        <time>2024-10-15T09:54:57.000Z</time>
      </trkpt>
      <trkpt lat="45.09906" lon="5.97578">
        <ele>2424.6000976562</ele>
        <time>2024-10-15T09:54:58.000Z</time>
      </trkpt>
      <trkpt lat="45.09905" lon="5.97578">
        <ele>2424.8000488281</ele>
        <time>2024-10-15T09:54:59.000Z</time>
      </trkpt>
      <trkpt lat="45.09905" lon="5.97578">
        <ele>2425.1999511719</ele>
        <time>2024-10-15T09:55:00.000Z</time>
      </trkpt>
      <trkpt lat="45.09905" lon="5.97579">
        <ele>2425.6000976562</ele>
        <time>2024-10-15T09:55:01.000Z</time>
      </trkpt>
      <trkpt lat="45.09904" lon="5.97579">
        <ele>2425.8000488281</ele>
        <time>2024-10-15T09:55:02.000Z</time>
      </trkpt>
      <trkpt lat="45.09904" lon="5.97579">
        <ele>2426.1999511719</ele>
        <time>2024-10-15T09:55:03.000Z</time>
      </trkpt>
      <trkpt lat="45.09904" lon="5.9758">
        <ele>2426.3999023438</ele>
        <time>2024-10-15T09:55:04.000Z</time>
      </trkpt>
      <trkpt lat="45.09903" lon="5.97581">
        <ele>2426.8000488281</ele>
        <time>2024-10-15T09:55:05.000Z</time>
      </trkpt>
      <trkpt lat="45.09903" lon="5.97581">
        <ele>2427.1999511719</ele>
        <time>2024-10-15T09:55:06.000Z</time>
      </trkpt>
      <trkpt lat="45.09902" lon="5.97581">
        <ele>2427.3999023438</ele>
        <time>2024-10-15T09:55:07.000Z</time>
      </trkpt>
      <trkpt lat="45.09902" lon="5.97581">
        <ele>2427.3999023438</ele>
        <time>2024-10-15T09:55:08.000Z</time>
      </trkpt>
      <trkpt lat="45.09902" lon="5.97581">
        <ele>2427.3999023438</ele>
        <time>2024-10-15T09:55:09.000Z</time>
      </trkpt>
      <trkpt lat="45.09902" lon="5.97581">
        <ele>2427.3999023438</ele>
        <time>2024-10-15T09:55:10.000Z</time>
      </trkpt>
      <trkpt lat="45.09901" lon="5.97581">
        <ele>2427.6000976562</ele>
        <time>2024-10-15T09:55:11.000Z</time>
      </trkpt>
      <trkpt lat="45.09901" lon="5.97582">
        <ele>2428</ele>
        <time>2024-10-15T09:55:12.000Z</time>
      </trkpt>
      <trkpt lat="45.099" lon="5.97582">
        <ele>2428.6000976562</ele>
        <time>2024-10-15T09:55:13.000Z</time>
      </trkpt>
      <trkpt lat="45.099" lon="5.97582">
        <ele>2428.8000488281</ele>
        <time>2024-10-15T09:55:14.000Z</time>
      </trkpt>
      <trkpt lat="45.099" lon="5.97582">
        <ele>2428.8000488281</ele>
        <time>2024-10-15T09:55:15.000Z</time>
      </trkpt>
      <trkpt lat="45.099" lon="5.97583">
        <ele>2429</ele>
        <time>2024-10-15T09:55:16.000Z</time>
      </trkpt>
      <trkpt lat="45.09899" lon="5.97583">
        <ele>2429.3999023438</ele>
        <time>2024-10-15T09:55:17.000Z</time>
      </trkpt>
      <trkpt lat="45.09899" lon="5.97583">
        <ele>2429.6000976562</ele>
        <time>2024-10-15T09:55:18.000Z</time>
      </trkpt>
      <trkpt lat="45.09898" lon="5.97584">
        <ele>2429.8000488281</ele>
        <time>2024-10-15T09:55:19.000Z</time>
      </trkpt>
      <trkpt lat="45.09898" lon="5.97584">
        <ele>2430</ele>
        <time>2024-10-15T09:55:20.000Z</time>
      </trkpt>
      <trkpt lat="45.09898" lon="5.97584">
        <ele>2430.1999511719</ele>
        <time>2024-10-15T09:55:21.000Z</time>
      </trkpt>
      <trkpt lat="45.09897" lon="5.97585">
        <ele>2430.3999023438</ele>
        <time>2024-10-15T09:55:22.000Z</time>
      </trkpt>
      <trkpt lat="45.09897" lon="5.97585">
        <ele>2430.6000976562</ele>
        <time>2024-10-15T09:55:23.000Z</time>
      </trkpt>
      <trkpt lat="45.09897" lon="5.97585">
        <ele>2430.8000488281</ele>
        <time>2024-10-15T09:55:24.000Z</time>
      </trkpt>
      <trkpt lat="45.09897" lon="5.97585">
        <ele>2430.8000488281</ele>
        <time>2024-10-15T09:55:25.000Z</time>
      </trkpt>
      <trkpt lat="45.09897" lon="5.97586">
        <ele>2431</ele>
        <time>2024-10-15T09:55:26.000Z</time>
      </trkpt>
      <trkpt lat="45.09897" lon="5.97586">
        <ele>2431.1999511719</ele>
        <time>2024-10-15T09:55:27.000Z</time>
      </trkpt>
      <trkpt lat="45.09897" lon="5.97586">
        <ele>2431.1999511719</ele>
        <time>2024-10-15T09:55:28.000Z</time>
      </trkpt>
      <trkpt lat="45.09897" lon="5.97586">
        <ele>2431.3999023438</ele>
        <time>2024-10-15T09:55:29.000Z</time>
      </trkpt>
      <trkpt lat="45.09896" lon="5.97586">
        <ele>2431.6000976562</ele>
        <time>2024-10-15T09:55:30.000Z</time>
      </trkpt>
      <trkpt lat="45.09896" lon="5.97586">
        <ele>2431.6000976562</ele>
        <time>2024-10-15T09:55:31.000Z</time>
      </trkpt>
      <trkpt lat="45.09896" lon="5.97585">
        <ele>2431.8000488281</ele>
        <time>2024-10-15T09:55:32.000Z</time>
      </trkpt>
      <trkpt lat="45.09896" lon="5.97585">
        <ele>2432</ele>
        <time>2024-10-15T09:55:33.000Z</time>
      </trkpt>
      <trkpt lat="45.09896" lon="5.97585">
        <ele>2432.3999023438</ele>
        <time>2024-10-15T09:55:34.000Z</time>
      </trkpt>
      <trkpt lat="45.09895" lon="5.97585">
        <ele>2432.6000976562</ele>
        <time>2024-10-15T09:55:35.000Z</time>
      </trkpt>
      <trkpt lat="45.09895" lon="5.97585">
        <ele>2432.8000488281</ele>
        <time>2024-10-15T09:55:36.000Z</time>
      </trkpt>
      <trkpt lat="45.09895" lon="5.97585">
        <ele>2432.8000488281</ele>
        <time>2024-10-15T09:55:37.000Z</time>
      </trkpt>
      <trkpt lat="45.09895" lon="5.97585">
        <ele>2433.1999511719</ele>
        <time>2024-10-15T09:55:38.000Z</time>
      </trkpt>
      <trkpt lat="45.09895" lon="5.97586">
        <ele>2433.3999023438</ele>
        <time>2024-10-15T09:55:39.000Z</time>
      </trkpt>
      <trkpt lat="45.09895" lon="5.97586">
        <ele>2433.6000976562</ele>
        <time>2024-10-15T09:55:40.000Z</time>
      </trkpt>
      <trkpt lat="45.09895" lon="5.97586">
        <ele>2433.8000488281</ele>
        <time>2024-10-15T09:55:41.000Z</time>
      </trkpt>
      <trkpt lat="45.09895" lon="5.97586">
        <ele>2434</ele>
        <time>2024-10-15T09:55:42.000Z</time>
      </trkpt>
      <trkpt lat="45.09895" lon="5.97586">
        <ele>2434.1999511719</ele>
        <time>2024-10-15T09:55:43.000Z</time>
      </trkpt>
      <trkpt lat="45.09894" lon="5.97586">
        <ele>2434.1999511719</ele>
        <time>2024-10-15T09:55:44.000Z</time>
      </trkpt>
      <trkpt lat="45.09894" lon="5.97586">
        <ele>2434.3999023438</ele>
        <time>2024-10-15T09:55:45.000Z</time>
      </trkpt>
      <trkpt lat="45.09894" lon="5.97585">
        <ele>2434.3999023438</ele>
        <time>2024-10-15T09:55:46.000Z</time>
      </trkpt>
      <trkpt lat="45.09894" lon="5.97585">
        <ele>2434.6000976562</ele>
        <time>2024-10-15T09:55:47.000Z</time>
      </trkpt>
      <trkpt lat="45.09894" lon="5.97585">
        <ele>2434.8000488281</ele>
        <time>2024-10-15T09:55:48.000Z</time>
      </trkpt>
      <trkpt lat="45.09894" lon="5.97585">
        <ele>2435</ele>
        <time>2024-10-15T09:55:49.000Z</time>
      </trkpt>
      <trkpt lat="45.09894" lon="5.97584">
        <ele>2435.1999511719</ele>
        <time>2024-10-15T09:55:50.000Z</time>
      </trkpt>
      <trkpt lat="45.09894" lon="5.97584">
        <ele>2435.6000976562</ele>
        <time>2024-10-15T09:55:51.000Z</time>
      </trkpt>
      <trkpt lat="45.09894" lon="5.97584">
        <ele>2435.8000488281</ele>
        <time>2024-10-15T09:55:52.000Z</time>
      </trkpt>
      <trkpt lat="45.09894" lon="5.97584">
        <ele>2436</ele>
        <time>2024-10-15T09:55:53.000Z</time>
      </trkpt>
      <trkpt lat="45.09894" lon="5.97584">
        <ele>2436</ele>
        <time>2024-10-15T09:55:54.000Z</time>
      </trkpt>
      <trkpt lat="45.09893" lon="5.97583">
        <ele>2436.1999511719</ele>
        <time>2024-10-15T09:55:55.000Z</time>
      </trkpt>
      <trkpt lat="45.09893" lon="5.97583">
        <ele>2436.3999023438</ele>
        <time>2024-10-15T09:55:56.000Z</time>
      </trkpt>
      <trkpt lat="45.09893" lon="5.97583">
        <ele>2436.6000976562</ele>
        <time>2024-10-15T09:55:57.000Z</time>
      </trkpt>
      <trkpt lat="45.09893" lon="5.97582">
        <ele>2437</ele>
        <time>2024-10-15T09:55:58.000Z</time>
      </trkpt>
      <trkpt lat="45.09892" lon="5.97582">
        <ele>2437.3999023438</ele>
        <time>2024-10-15T09:55:59.000Z</time>
      </trkpt>
      <trkpt lat="45.09892" lon="5.97582">
        <ele>2437.6000976562</ele>
        <time>2024-10-15T09:56:00.000Z</time>
      </trkpt>
      <trkpt lat="45.09892" lon="5.97581">
        <ele>2437.8000488281</ele>
        <time>2024-10-15T09:56:01.000Z</time>
      </trkpt>
      <trkpt lat="45.09892" lon="5.97581">
        <ele>2438</ele>
        <time>2024-10-15T09:56:02.000Z</time>
      </trkpt>
      <trkpt lat="45.09892" lon="5.97581">
        <ele>2438.3999023438</ele>
        <time>2024-10-15T09:56:03.000Z</time>
      </trkpt>
      <trkpt lat="45.09891" lon="5.97581">
        <ele>2438.8000488281</ele>
        <time>2024-10-15T09:56:04.000Z</time>
      </trkpt>
      <trkpt lat="45.09891" lon="5.97581">
        <ele>2439</ele>
        <time>2024-10-15T09:56:05.000Z</time>
      </trkpt>
      <trkpt lat="45.09891" lon="5.97581">
        <ele>2439</ele>
        <time>2024-10-15T09:56:06.000Z</time>
      </trkpt>
      <trkpt lat="45.09891" lon="5.97581">
        <ele>2439.1999511719</ele>
        <time>2024-10-15T09:56:07.000Z</time>
      </trkpt>
      <trkpt lat="45.09891" lon="5.97581">
        <ele>2439.1999511719</ele>
        <time>2024-10-15T09:56:08.000Z</time>
      </trkpt>
      <trkpt lat="45.09891" lon="5.97581">
        <ele>2439.3999023438</ele>
        <time>2024-10-15T09:56:09.000Z</time>
      </trkpt>
      <trkpt lat="45.09891" lon="5.97581">
        <ele>2439.3999023438</ele>
        <time>2024-10-15T09:56:10.000Z</time>
      </trkpt>
      <trkpt lat="45.09891" lon="5.97581">
        <ele>2439.6000976562</ele>
        <time>2024-10-15T09:56:11.000Z</time>
      </trkpt>
      <trkpt lat="45.09891" lon="5.97581">
        <ele>2439.8000488281</ele>
        <time>2024-10-15T09:56:12.000Z</time>
      </trkpt>
      <trkpt lat="45.09891" lon="5.97581">
        <ele>2439.8000488281</ele>
        <time>2024-10-15T09:56:13.000Z</time>
      </trkpt>
      <trkpt lat="45.09892" lon="5.97581">
        <ele>2440</ele>
        <time>2024-10-15T09:56:14.000Z</time>
      </trkpt>
      <trkpt lat="45.09892" lon="5.97581">
        <ele>2440.3999023438</ele>
        <time>2024-10-15T09:56:15.000Z</time>
      </trkpt>
      <trkpt lat="45.09892" lon="5.97581">
        <ele>2440.6000976562</ele>
        <time>2024-10-15T09:56:16.000Z</time>
      </trkpt>
      <trkpt lat="45.09892" lon="5.97581">
        <ele>2440.8000488281</ele>
        <time>2024-10-15T09:56:17.000Z</time>
      </trkpt>
      <trkpt lat="45.09892" lon="5.97581">
        <ele>2441.1999511719</ele>
        <time>2024-10-15T09:56:18.000Z</time>
      </trkpt>
      <trkpt lat="45.09892" lon="5.97581">
        <ele>2441.6000976562</ele>
        <time>2024-10-15T09:56:19.000Z</time>
      </trkpt>
      <trkpt lat="45.09892" lon="5.97581">
        <ele>2441.6000976562</ele>
        <time>2024-10-15T09:56:20.000Z</time>
      </trkpt>
      <trkpt lat="45.09892" lon="5.97581">
        <ele>2441.6000976562</ele>
        <time>2024-10-15T09:56:21.000Z</time>
      </trkpt>
      <trkpt lat="45.09892" lon="5.97581">
        <ele>2441.6000976562</ele>
        <time>2024-10-15T09:56:22.000Z</time>
      </trkpt>
      <trkpt lat="45.09892" lon="5.97581">
        <ele>2441.8000488281</ele>
        <time>2024-10-15T09:56:23.000Z</time>
      </trkpt>
      <trkpt lat="45.09892" lon="5.97581">
        <ele>2441.8000488281</ele>
        <time>2024-10-15T09:56:24.000Z</time>
      </trkpt>
      <trkpt lat="45.09892" lon="5.97581">
        <ele>2442.1999511719</ele>
        <time>2024-10-15T09:56:25.000Z</time>
      </trkpt>
      <trkpt lat="45.09892" lon="5.97581">
        <ele>2442.6000976562</ele>
        <time>2024-10-15T09:56:26.000Z</time>
      </trkpt>
      <trkpt lat="45.09892" lon="5.97581">
        <ele>2442.8000488281</ele>
        <time>2024-10-15T09:56:27.000Z</time>
      </trkpt>
      <trkpt lat="45.09891" lon="5.97581">
        <ele>2442.8000488281</ele>
        <time>2024-10-15T09:56:28.000Z</time>
      </trkpt>
      <trkpt lat="45.09891" lon="5.9758">
        <ele>2443</ele>
        <time>2024-10-15T09:56:29.000Z</time>
      </trkpt>
      <trkpt lat="45.09891" lon="5.9758">
        <ele>2443.1999511719</ele>
        <time>2024-10-15T09:56:30.000Z</time>
      </trkpt>
      <trkpt lat="45.09891" lon="5.9758">
        <ele>2443.3999023438</ele>
        <time>2024-10-15T09:56:31.000Z</time>
      </trkpt>
      <trkpt lat="45.09891" lon="5.97579">
        <ele>2443.8000488281</ele>
        <time>2024-10-15T09:56:32.000Z</time>
      </trkpt>
      <trkpt lat="45.0989" lon="5.97579">
        <ele>2444</ele>
        <time>2024-10-15T09:56:33.000Z</time>
      </trkpt>
      <trkpt lat="45.0989" lon="5.97579">
        <ele>2444.1999511719</ele>
        <time>2024-10-15T09:56:34.000Z</time>
      </trkpt>
      <trkpt lat="45.0989" lon="5.97579">
        <ele>2444.3999023438</ele>
        <time>2024-10-15T09:56:35.000Z</time>
      </trkpt>
      <trkpt lat="45.0989" lon="5.97579">
        <ele>2444.3999023438</ele>
        <time>2024-10-15T09:56:36.000Z</time>
      </trkpt>
      <trkpt lat="45.09889" lon="5.97578">
        <ele>2444.8000488281</ele>
        <time>2024-10-15T09:56:37.000Z</time>
      </trkpt>
      <trkpt lat="45.09889" lon="5.97578">
        <ele>2444.8000488281</ele>
        <time>2024-10-15T09:56:38.000Z</time>
      </trkpt>
      <trkpt lat="45.09889" lon="5.97578">
        <ele>2444.8000488281</ele>
        <time>2024-10-15T09:56:39.000Z</time>
      </trkpt>
      <trkpt lat="45.09889" lon="5.97578">
        <ele>2445</ele>
        <time>2024-10-15T09:56:40.000Z</time>
      </trkpt>
      <trkpt lat="45.09888" lon="5.97578">
        <ele>2445.1999511719</ele>
        <time>2024-10-15T09:56:41.000Z</time>
      </trkpt>
      <trkpt lat="45.09888" lon="5.97577">
        <ele>2445.3999023438</ele>
        <time>2024-10-15T09:56:42.000Z</time>
      </trkpt>
      <trkpt lat="45.09888" lon="5.97577">
        <ele>2445.8000488281</ele>
        <time>2024-10-15T09:56:43.000Z</time>
      </trkpt>
      <trkpt lat="45.09888" lon="5.97577">
        <ele>2446.1999511719</ele>
        <time>2024-10-15T09:56:44.000Z</time>
      </trkpt>
      <trkpt lat="45.09888" lon="5.97577">
        <ele>2446.1999511719</ele>
        <time>2024-10-15T09:56:45.000Z</time>
      </trkpt>
      <trkpt lat="45.09888" lon="5.97577">
        <ele>2446.3999023438</ele>
        <time>2024-10-15T09:56:46.000Z</time>
      </trkpt>
      <trkpt lat="45.09887" lon="5.97576">
        <ele>2446.6000976562</ele>
        <time>2024-10-15T09:56:47.000Z</time>
      </trkpt>
      <trkpt lat="45.09887" lon="5.97576">
        <ele>2446.6000976562</ele>
        <time>2024-10-15T09:56:48.000Z</time>
      </trkpt>
      <trkpt lat="45.09887" lon="5.97576">
        <ele>2446.6000976562</ele>
        <time>2024-10-15T09:56:49.000Z</time>
      </trkpt>
      <trkpt lat="45.09887" lon="5.97576">
        <ele>2446.8000488281</ele>
        <time>2024-10-15T09:56:50.000Z</time>
      </trkpt>
      <trkpt lat="45.09887" lon="5.97576">
        <ele>2447</ele>
        <time>2024-10-15T09:56:51.000Z</time>
      </trkpt>
      <trkpt lat="45.09887" lon="5.97575">
        <ele>2447</ele>
        <time>2024-10-15T09:56:52.000Z</time>
      </trkpt>
      <trkpt lat="45.09886" lon="5.97575">
        <ele>2447.6000976562</ele>
        <time>2024-10-15T09:56:53.000Z</time>
      </trkpt>
      <trkpt lat="45.09886" lon="5.97575">
        <ele>2447.6000976562</ele>
        <time>2024-10-15T09:56:54.000Z</time>
      </trkpt>
      <trkpt lat="45.09886" lon="5.97575">
        <ele>2447.8000488281</ele>
        <time>2024-10-15T09:56:55.000Z</time>
      </trkpt>
      <trkpt lat="45.09886" lon="5.97574">
        <ele>2447.8000488281</ele>
        <time>2024-10-15T09:56:56.000Z</time>
      </trkpt>
      <trkpt lat="45.09885" lon="5.97573">
        <ele>2448.1999511719</ele>
        <time>2024-10-15T09:56:57.000Z</time>
      </trkpt>
      <trkpt lat="45.09885" lon="5.97573">
        <ele>2448.6000976562</ele>
        <time>2024-10-15T09:56:58.000Z</time>
      </trkpt>
      <trkpt lat="45.09885" lon="5.97573">
        <ele>2448.8000488281</ele>
        <time>2024-10-15T09:56:59.000Z</time>
      </trkpt>
      <trkpt lat="45.09885" lon="5.97572">
        <ele>2448.8000488281</ele>
        <time>2024-10-15T09:57:00.000Z</time>
      </trkpt>
      <trkpt lat="45.09885" lon="5.97572">
        <ele>2449.1999511719</ele>
        <time>2024-10-15T09:57:01.000Z</time>
      </trkpt>
      <trkpt lat="45.09885" lon="5.97572">
        <ele>2449.1999511719</ele>
        <time>2024-10-15T09:57:02.000Z</time>
      </trkpt>
      <trkpt lat="45.09885" lon="5.97572">
        <ele>2449.6000976562</ele>
        <time>2024-10-15T09:57:03.000Z</time>
      </trkpt>
      <trkpt lat="45.09885" lon="5.97571">
        <ele>2450</ele>
        <time>2024-10-15T09:57:04.000Z</time>
      </trkpt>
      <trkpt lat="45.09885" lon="5.97571">
        <ele>2450.6000976562</ele>
        <time>2024-10-15T09:57:05.000Z</time>
      </trkpt>
      <trkpt lat="45.09885" lon="5.97571">
        <ele>2450.8000488281</ele>
        <time>2024-10-15T09:57:06.000Z</time>
      </trkpt>
      <trkpt lat="45.09885" lon="5.97571">
        <ele>2451.1999511719</ele>
        <time>2024-10-15T09:57:07.000Z</time>
      </trkpt>
      <trkpt lat="45.09885" lon="5.97571">
        <ele>2451.1999511719</ele>
        <time>2024-10-15T09:57:08.000Z</time>
      </trkpt>
      <trkpt lat="45.09884" lon="5.97571">
        <ele>2451.1999511719</ele>
        <time>2024-10-15T09:57:09.000Z</time>
      </trkpt>
      <trkpt lat="45.09884" lon="5.97571">
        <ele>2451.6000976562</ele>
        <time>2024-10-15T09:57:10.000Z</time>
      </trkpt>
      <trkpt lat="45.09884" lon="5.9757">
        <ele>2452.1999511719</ele>
        <time>2024-10-15T09:57:11.000Z</time>
      </trkpt>
      <trkpt lat="45.09884" lon="5.97569">
        <ele>2452.6000976562</ele>
        <time>2024-10-15T09:57:12.000Z</time>
      </trkpt>
      <trkpt lat="45.09884" lon="5.97569">
        <ele>2452.6000976562</ele>
        <time>2024-10-15T09:57:13.000Z</time>
      </trkpt>
      <trkpt lat="45.09884" lon="5.97568">
        <ele>2452.8000488281</ele>
        <time>2024-10-15T09:57:14.000Z</time>
      </trkpt>
      <trkpt lat="45.09884" lon="5.97568">
        <ele>2452.8000488281</ele>
        <time>2024-10-15T09:57:15.000Z</time>
      </trkpt>
      <trkpt lat="45.09884" lon="5.97568">
        <ele>2452.8000488281</ele>
        <time>2024-10-15T09:57:16.000Z</time>
      </trkpt>
      <trkpt lat="45.09884" lon="5.97567">
        <ele>2452.8000488281</ele>
        <time>2024-10-15T09:57:17.000Z</time>
      </trkpt>
      <trkpt lat="45.09884" lon="5.97567">
        <ele>2452.8000488281</ele>
        <time>2024-10-15T09:57:18.000Z</time>
      </trkpt>
      <trkpt lat="45.09884" lon="5.97567">
        <ele>2452.8000488281</ele>
        <time>2024-10-15T09:57:19.000Z</time>
      </trkpt>
      <trkpt lat="45.09884" lon="5.97566">
        <ele>2452.8000488281</ele>
        <time>2024-10-15T09:57:20.000Z</time>
      </trkpt>
      <trkpt lat="45.09884" lon="5.97566">
        <ele>2453.1999511719</ele>
        <time>2024-10-15T09:57:21.000Z</time>
      </trkpt>
      <trkpt lat="45.09884" lon="5.97565">
        <ele>2453.1999511719</ele>
        <time>2024-10-15T09:57:22.000Z</time>
      </trkpt>
      <trkpt lat="45.09884" lon="5.97565">
        <ele>2453.1999511719</ele>
        <time>2024-10-15T09:57:23.000Z</time>
      </trkpt>
      <trkpt lat="45.09884" lon="5.97564">
        <ele>2453.1999511719</ele>
        <time>2024-10-15T09:57:24.000Z</time>
      </trkpt>
      <trkpt lat="45.09884" lon="5.97563">
        <ele>2453.1999511719</ele>
        <time>2024-10-15T09:57:25.000Z</time>
      </trkpt>
      <trkpt lat="45.09884" lon="5.97563">
        <ele>2453.1999511719</ele>
        <time>2024-10-15T09:57:26.000Z</time>
      </trkpt>
      <trkpt lat="45.09884" lon="5.97562">
        <ele>2453.1999511719</ele>
        <time>2024-10-15T09:57:27.000Z</time>
      </trkpt>
      <trkpt lat="45.09884" lon="5.97562">
        <ele>2453.1999511719</ele>
        <time>2024-10-15T09:57:28.000Z</time>
      </trkpt>
      <trkpt lat="45.09884" lon="5.97561">
        <ele>2453.1999511719</ele>
        <time>2024-10-15T09:57:29.000Z</time>
      </trkpt>
      <trkpt lat="45.09884" lon="5.97561">
        <ele>2453.1999511719</ele>
        <time>2024-10-15T09:57:30.000Z</time>
      </trkpt>
      <trkpt lat="45.09884" lon="5.9756">
        <ele>2453.1999511719</ele>
        <time>2024-10-15T09:57:31.000Z</time>
      </trkpt>
      <trkpt lat="45.09884" lon="5.9756">
        <ele>2453.3999023438</ele>
        <time>2024-10-15T09:57:32.000Z</time>
      </trkpt>
      <trkpt lat="45.09884" lon="5.97559">
        <ele>2453.3999023438</ele>
        <time>2024-10-15T09:57:33.000Z</time>
      </trkpt>
      <trkpt lat="45.09884" lon="5.97559">
        <ele>2453.3999023438</ele>
        <time>2024-10-15T09:57:34.000Z</time>
      </trkpt>
      <trkpt lat="45.09884" lon="5.97558">
        <ele>2453.3999023438</ele>
        <time>2024-10-15T09:57:35.000Z</time>
      </trkpt>
      <trkpt lat="45.09884" lon="5.97558">
        <ele>2453.3999023438</ele>
        <time>2024-10-15T09:57:36.000Z</time>
      </trkpt>
      <trkpt lat="45.09884" lon="5.97558">
        <ele>2453.1999511719</ele>
        <time>2024-10-15T09:57:37.000Z</time>
      </trkpt>
      <trkpt lat="45.09884" lon="5.97558">
        <ele>2453.1999511719</ele>
        <time>2024-10-15T09:57:38.000Z</time>
      </trkpt>
      <trkpt lat="45.09884" lon="5.97558">
        <ele>2453.1999511719</ele>
        <time>2024-10-15T09:57:39.000Z</time>
      </trkpt>
      <trkpt lat="45.09884" lon="5.97557">
        <ele>2453.1999511719</ele>
        <time>2024-10-15T09:57:40.000Z</time>
      </trkpt>
      <trkpt lat="45.09884" lon="5.97557">
        <ele>2453.1999511719</ele>
        <time>2024-10-15T09:57:41.000Z</time>
      </trkpt>
      <trkpt lat="45.09884" lon="5.97557">
        <ele>2453.3999023438</ele>
        <time>2024-10-15T09:57:42.000Z</time>
      </trkpt>
      <trkpt lat="45.09884" lon="5.97557">
        <ele>2453.3999023438</ele>
        <time>2024-10-15T09:57:43.000Z</time>
      </trkpt>
      <trkpt lat="45.09884" lon="5.97557">
        <ele>2453.3999023438</ele>
        <time>2024-10-15T09:57:44.000Z</time>
      </trkpt>
      <trkpt lat="45.09884" lon="5.97557">
        <ele>2453.3999023438</ele>
        <time>2024-10-15T09:57:45.000Z</time>
      </trkpt>
      <trkpt lat="45.09884" lon="5.97557">
        <ele>2453.3999023438</ele>
        <time>2024-10-15T09:57:46.000Z</time>
      </trkpt>
      <trkpt lat="45.09884" lon="5.97557">
        <ele>2453.1999511719</ele>
        <time>2024-10-15T09:57:47.000Z</time>
      </trkpt>
      <trkpt lat="45.09884" lon="5.97557">
        <ele>2453</ele>
        <time>2024-10-15T09:57:48.000Z</time>
      </trkpt>
      <trkpt lat="45.09884" lon="5.97557">
        <ele>2453</ele>
        <time>2024-10-15T09:57:49.000Z</time>
      </trkpt>
      <trkpt lat="45.09884" lon="5.97557">
        <ele>2453</ele>
        <time>2024-10-15T09:57:50.000Z</time>
      </trkpt>
      <trkpt lat="45.09884" lon="5.97557">
        <ele>2453</ele>
        <time>2024-10-15T09:57:51.000Z</time>
      </trkpt>
      <trkpt lat="45.09884" lon="5.97558">
        <ele>2453</ele>
        <time>2024-10-15T09:57:52.000Z</time>
      </trkpt>
      <trkpt lat="45.09884" lon="5.97558">
        <ele>2453.1999511719</ele>
        <time>2024-10-15T09:57:53.000Z</time>
      </trkpt>
      <trkpt lat="45.09884" lon="5.97558">
        <ele>2453.3999023438</ele>
        <time>2024-10-15T09:57:54.000Z</time>
      </trkpt>
      <trkpt lat="45.09884" lon="5.97558">
        <ele>2453.6000976562</ele>
        <time>2024-10-15T09:57:55.000Z</time>
      </trkpt>
      <trkpt lat="45.09884" lon="5.97558">
        <ele>2453.6000976562</ele>
        <time>2024-10-15T09:57:56.000Z</time>
      </trkpt>
      <trkpt lat="45.09884" lon="5.97558">
        <ele>2453.6000976562</ele>
        <time>2024-10-15T09:57:57.000Z</time>
      </trkpt>
      <trkpt lat="45.09884" lon="5.97558">
        <ele>2453.6000976562</ele>
        <time>2024-10-15T09:57:58.000Z</time>
      </trkpt>
      <trkpt lat="45.09884" lon="5.97558">
        <ele>2452.8000488281</ele>
        <time>2024-10-15T09:57:59.000Z</time>
      </trkpt>
      <trkpt lat="45.09884" lon="5.97558">
        <ele>2452.8000488281</ele>
        <time>2024-10-15T09:58:00.000Z</time>
      </trkpt>
      <trkpt lat="45.09884" lon="5.97558">
        <ele>2452.1999511719</ele>
        <time>2024-10-15T09:58:01.000Z</time>
      </trkpt>
      <trkpt lat="45.09884" lon="5.97558">
        <ele>2452</ele>
        <time>2024-10-15T09:58:02.000Z</time>
      </trkpt>
      <trkpt lat="45.09884" lon="5.97558">
        <ele>2451.6000976562</ele>
        <time>2024-10-15T09:58:03.000Z</time>
      </trkpt>
      <trkpt lat="45.09884" lon="5.97558">
        <ele>2451.3999023438</ele>
        <time>2024-10-15T09:58:04.000Z</time>
      </trkpt>
      <trkpt lat="45.09884" lon="5.97557">
        <ele>2451.1999511719</ele>
        <time>2024-10-15T09:58:05.000Z</time>
      </trkpt>
      <trkpt lat="45.09883" lon="5.97557">
        <ele>2450.6000976562</ele>
        <time>2024-10-15T09:58:06.000Z</time>
      </trkpt>
      <trkpt lat="45.09882" lon="5.97556">
        <ele>2450.3999023438</ele>
        <time>2024-10-15T09:58:07.000Z</time>
      </trkpt>
      <trkpt lat="45.09881" lon="5.97555">
        <ele>2450.1999511719</ele>
        <time>2024-10-15T09:58:08.000Z</time>
      </trkpt>
      <trkpt lat="45.0988" lon="5.97555">
        <ele>2450.1999511719</ele>
        <time>2024-10-15T09:58:09.000Z</time>
      </trkpt>
      <trkpt lat="45.09879" lon="5.97554">
        <ele>2450.1999511719</ele>
        <time>2024-10-15T09:58:10.000Z</time>
      </trkpt>
      <trkpt lat="45.09878" lon="5.97553">
        <ele>2450.3999023438</ele>
        <time>2024-10-15T09:58:11.000Z</time>
      </trkpt>
      <trkpt lat="45.09877" lon="5.97552">
        <ele>2450.8000488281</ele>
        <time>2024-10-15T09:58:12.000Z</time>
      </trkpt>
      <trkpt lat="45.09876" lon="5.97551">
        <ele>2451.6000976562</ele>
        <time>2024-10-15T09:58:13.000Z</time>
      </trkpt>
      <trkpt lat="45.09876" lon="5.9755">
        <ele>2451.6000976562</ele>
        <time>2024-10-15T09:58:14.000Z</time>
      </trkpt>
      <trkpt lat="45.09875" lon="5.9755">
        <ele>2451.6000976562</ele>
        <time>2024-10-15T09:58:15.000Z</time>
      </trkpt>
      <trkpt lat="45.09875" lon="5.97549">
        <ele>2451.3999023438</ele>
        <time>2024-10-15T09:58:16.000Z</time>
      </trkpt>
      <trkpt lat="45.09875" lon="5.97549">
        <ele>2451.3999023438</ele>
        <time>2024-10-15T09:58:17.000Z</time>
      </trkpt>
      <trkpt lat="45.09874" lon="5.97548">
        <ele>2450.3999023438</ele>
        <time>2024-10-15T09:58:18.000Z</time>
      </trkpt>
      <trkpt lat="45.09874" lon="5.97548">
        <ele>2450.3999023438</ele>
        <time>2024-10-15T09:58:19.000Z</time>
      </trkpt>
      <trkpt lat="45.09874" lon="5.97548">
        <ele>2450.1999511719</ele>
        <time>2024-10-15T09:58:20.000Z</time>
      </trkpt>
      <trkpt lat="45.09874" lon="5.97548">
        <ele>2450</ele>
        <time>2024-10-15T09:58:21.000Z</time>
      </trkpt>
      <trkpt lat="45.09874" lon="5.97548">
        <ele>2450</ele>
        <time>2024-10-15T09:58:22.000Z</time>
      </trkpt>
      <trkpt lat="45.09873" lon="5.97548">
        <ele>2449.8000488281</ele>
        <time>2024-10-15T09:58:23.000Z</time>
      </trkpt>
      <trkpt lat="45.09873" lon="5.97549">
        <ele>2449.6000976562</ele>
        <time>2024-10-15T09:58:24.000Z</time>
      </trkpt>
      <trkpt lat="45.09873" lon="5.97549">
        <ele>2449.6000976562</ele>
        <time>2024-10-15T09:58:25.000Z</time>
      </trkpt>
      <trkpt lat="45.09873" lon="5.97548">
        <ele>2449.3999023438</ele>
        <time>2024-10-15T09:58:26.000Z</time>
      </trkpt>
      <trkpt lat="45.09872" lon="5.97548">
        <ele>2449.3999023438</ele>
        <time>2024-10-15T09:58:27.000Z</time>
      </trkpt>
      <trkpt lat="45.09872" lon="5.97548">
        <ele>2449.3999023438</ele>
        <time>2024-10-15T09:58:28.000Z</time>
      </trkpt>
      <trkpt lat="45.09872" lon="5.97547">
        <ele>2449.8000488281</ele>
        <time>2024-10-15T09:58:29.000Z</time>
      </trkpt>
      <trkpt lat="45.09872" lon="5.97547">
        <ele>2449.8000488281</ele>
        <time>2024-10-15T09:58:30.000Z</time>
      </trkpt>
      <trkpt lat="45.09872" lon="5.97547">
        <ele>2449.8000488281</ele>
        <time>2024-10-15T09:58:31.000Z</time>
      </trkpt>
      <trkpt lat="45.09872" lon="5.97547">
        <ele>2449.6000976562</ele>
        <time>2024-10-15T09:58:32.000Z</time>
      </trkpt>
      <trkpt lat="45.09872" lon="5.97546">
        <ele>2449.6000976562</ele>
        <time>2024-10-15T09:58:33.000Z</time>
      </trkpt>
      <trkpt lat="45.09871" lon="5.97546">
        <ele>2449</ele>
        <time>2024-10-15T09:58:34.000Z</time>
      </trkpt>
      <trkpt lat="45.09871" lon="5.97545">
        <ele>2448.8000488281</ele>
        <time>2024-10-15T09:58:35.000Z</time>
      </trkpt>
      <trkpt lat="45.0987" lon="5.97544">
        <ele>2448.6000976562</ele>
        <time>2024-10-15T09:58:36.000Z</time>
      </trkpt>
      <trkpt lat="45.0987" lon="5.97544">
        <ele>2448.6000976562</ele>
        <time>2024-10-15T09:58:37.000Z</time>
      </trkpt>
      <trkpt lat="45.09869" lon="5.97543">
        <ele>2448.3999023438</ele>
        <time>2024-10-15T09:58:38.000Z</time>
      </trkpt>
      <trkpt lat="45.09869" lon="5.97543">
        <ele>2448.1999511719</ele>
        <time>2024-10-15T09:58:39.000Z</time>
      </trkpt>
      <trkpt lat="45.09869" lon="5.97543">
        <ele>2448.1999511719</ele>
        <time>2024-10-15T09:58:40.000Z</time>
      </trkpt>
      <trkpt lat="45.09868" lon="5.97543">
        <ele>2448.1999511719</ele>
        <time>2024-10-15T09:58:41.000Z</time>
      </trkpt>
      <trkpt lat="45.09868" lon="5.97542">
        <ele>2448.1999511719</ele>
        <time>2024-10-15T09:58:42.000Z</time>
      </trkpt>
      <trkpt lat="45.09867" lon="5.97542">
        <ele>2448</ele>
        <time>2024-10-15T09:58:43.000Z</time>
      </trkpt>
      <trkpt lat="45.09867" lon="5.97542">
        <ele>2447.6000976562</ele>
        <time>2024-10-15T09:58:44.000Z</time>
      </trkpt>
      <trkpt lat="45.09866" lon="5.97541">
        <ele>2447</ele>
        <time>2024-10-15T09:58:45.000Z</time>
      </trkpt>
      <trkpt lat="45.09866" lon="5.97541">
        <ele>2446.6000976562</ele>
        <time>2024-10-15T09:58:46.000Z</time>
      </trkpt>
      <trkpt lat="45.09865" lon="5.9754">
        <ele>2446.1999511719</ele>
        <time>2024-10-15T09:58:47.000Z</time>
      </trkpt>
      <trkpt lat="45.09865" lon="5.9754">
        <ele>2445.8000488281</ele>
        <time>2024-10-15T09:58:48.000Z</time>
      </trkpt>
      <trkpt lat="45.09864" lon="5.9754">
        <ele>2445.8000488281</ele>
        <time>2024-10-15T09:58:49.000Z</time>
      </trkpt>
      <trkpt lat="45.09864" lon="5.9754">
        <ele>2445.3999023438</ele>
        <time>2024-10-15T09:58:50.000Z</time>
      </trkpt>
      <trkpt lat="45.09863" lon="5.9754">
        <ele>2445.1999511719</ele>
        <time>2024-10-15T09:58:51.000Z</time>
      </trkpt>
      <trkpt lat="45.09862" lon="5.9754">
        <ele>2444.6000976562</ele>
        <time>2024-10-15T09:58:52.000Z</time>
      </trkpt>
      <trkpt lat="45.09861" lon="5.97539">
        <ele>2444</ele>
        <time>2024-10-15T09:58:53.000Z</time>
      </trkpt>
      <trkpt lat="45.0986" lon="5.97538">
        <ele>2443.6000976562</ele>
        <time>2024-10-15T09:58:54.000Z</time>
      </trkpt>
      <trkpt lat="45.0986" lon="5.97538">
        <ele>2443.6000976562</ele>
        <time>2024-10-15T09:58:55.000Z</time>
      </trkpt>
      <trkpt lat="45.09859" lon="5.97538">
        <ele>2443.6000976562</ele>
        <time>2024-10-15T09:58:56.000Z</time>
      </trkpt>
      <trkpt lat="45.09859" lon="5.97538">
        <ele>2443.3999023438</ele>
        <time>2024-10-15T09:58:57.000Z</time>
      </trkpt>
      <trkpt lat="45.09859" lon="5.97537">
        <ele>2443.3999023438</ele>
        <time>2024-10-15T09:58:58.000Z</time>
      </trkpt>
      <trkpt lat="45.09858" lon="5.97536">
        <ele>2443.6000976562</ele>
        <time>2024-10-15T09:58:59.000Z</time>
      </trkpt>
      <trkpt lat="45.09857" lon="5.97535">
        <ele>2443.6000976562</ele>
        <time>2024-10-15T09:59:00.000Z</time>
      </trkpt>
      <trkpt lat="45.09856" lon="5.97534">
        <ele>2443.6000976562</ele>
        <time>2024-10-15T09:59:01.000Z</time>
      </trkpt>
      <trkpt lat="45.09856" lon="5.97532">
        <ele>2444</ele>
        <time>2024-10-15T09:59:02.000Z</time>
      </trkpt>
      <trkpt lat="45.09855" lon="5.97531">
        <ele>2444.3999023438</ele>
        <time>2024-10-15T09:59:03.000Z</time>
      </trkpt>
      <trkpt lat="45.09854" lon="5.9753">
        <ele>2444.6000976562</ele>
        <time>2024-10-15T09:59:04.000Z</time>
      </trkpt>
      <trkpt lat="45.09854" lon="5.97529">
        <ele>2444.6000976562</ele>
        <time>2024-10-15T09:59:05.000Z</time>
      </trkpt>
      <trkpt lat="45.09853" lon="5.97529">
        <ele>2444.6000976562</ele>
        <time>2024-10-15T09:59:06.000Z</time>
      </trkpt>
      <trkpt lat="45.09852" lon="5.97528">
        <ele>2444.6000976562</ele>
        <time>2024-10-15T09:59:07.000Z</time>
      </trkpt>
      <trkpt lat="45.09851" lon="5.97527">
        <ele>2444</ele>
        <time>2024-10-15T09:59:08.000Z</time>
      </trkpt>
      <trkpt lat="45.0985" lon="5.97527">
        <ele>2443.6000976562</ele>
        <time>2024-10-15T09:59:09.000Z</time>
      </trkpt>
      <trkpt lat="45.09849" lon="5.97526">
        <ele>2443.3999023438</ele>
        <time>2024-10-15T09:59:10.000Z</time>
      </trkpt>
      <trkpt lat="45.09848" lon="5.97525">
        <ele>2443.3999023438</ele>
        <time>2024-10-15T09:59:11.000Z</time>
      </trkpt>
      <trkpt lat="45.09848" lon="5.97524">
        <ele>2443.1999511719</ele>
        <time>2024-10-15T09:59:12.000Z</time>
      </trkpt>
      <trkpt lat="45.09847" lon="5.97523">
        <ele>2443</ele>
        <time>2024-10-15T09:59:13.000Z</time>
      </trkpt>
      <trkpt lat="45.09846" lon="5.97523">
        <ele>2442.8000488281</ele>
        <time>2024-10-15T09:59:14.000Z</time>
      </trkpt>
      <trkpt lat="45.09845" lon="5.97522">
        <ele>2442.3999023438</ele>
        <time>2024-10-15T09:59:15.000Z</time>
      </trkpt>
      <trkpt lat="45.09844" lon="5.97521">
        <ele>2442.3999023438</ele>
        <time>2024-10-15T09:59:16.000Z</time>
      </trkpt>
      <trkpt lat="45.09844" lon="5.97521">
        <ele>2442.3999023438</ele>
        <time>2024-10-15T09:59:17.000Z</time>
      </trkpt>
      <trkpt lat="45.09843" lon="5.9752">
        <ele>2442.3999023438</ele>
        <time>2024-10-15T09:59:18.000Z</time>
      </trkpt>
      <trkpt lat="45.09843" lon="5.97519">
        <ele>2442.3999023438</ele>
        <time>2024-10-15T09:59:19.000Z</time>
      </trkpt>
      <trkpt lat="45.09842" lon="5.97519">
        <ele>2442.3999023438</ele>
        <time>2024-10-15T09:59:20.000Z</time>
      </trkpt>
      <trkpt lat="45.09842" lon="5.97518">
        <ele>2442.3999023438</ele>
        <time>2024-10-15T09:59:21.000Z</time>
      </trkpt>
      <trkpt lat="45.09841" lon="5.97519">
        <ele>2442.3999023438</ele>
        <time>2024-10-15T09:59:22.000Z</time>
      </trkpt>
      <trkpt lat="45.0984" lon="5.97519">
        <ele>2442.1999511719</ele>
        <time>2024-10-15T09:59:23.000Z</time>
      </trkpt>
      <trkpt lat="45.09838" lon="5.97519">
        <ele>2442</ele>
        <time>2024-10-15T09:59:24.000Z</time>
      </trkpt>
      <trkpt lat="45.09838" lon="5.97519">
        <ele>2441.3999023438</ele>
        <time>2024-10-15T09:59:25.000Z</time>
      </trkpt>
      <trkpt lat="45.09837" lon="5.97518">
        <ele>2441.1999511719</ele>
        <time>2024-10-15T09:59:26.000Z</time>
      </trkpt>
      <trkpt lat="45.09836" lon="5.97518">
        <ele>2440.6000976562</ele>
        <time>2024-10-15T09:59:27.000Z</time>
      </trkpt>
      <trkpt lat="45.09835" lon="5.97518">
        <ele>2440</ele>
        <time>2024-10-15T09:59:28.000Z</time>
      </trkpt>
      <trkpt lat="45.09834" lon="5.97518">
        <ele>2439.3999023438</ele>
        <time>2024-10-15T09:59:29.000Z</time>
      </trkpt>
      <trkpt lat="45.09834" lon="5.97517">
        <ele>2439</ele>
        <time>2024-10-15T09:59:30.000Z</time>
      </trkpt>
      <trkpt lat="45.09833" lon="5.97517">
        <ele>2438.6000976562</ele>
        <time>2024-10-15T09:59:31.000Z</time>
      </trkpt>
      <trkpt lat="45.09832" lon="5.97517">
        <ele>2438.1999511719</ele>
        <time>2024-10-15T09:59:32.000Z</time>
      </trkpt>
      <trkpt lat="45.09832" lon="5.97517">
        <ele>2437.8000488281</ele>
        <time>2024-10-15T09:59:33.000Z</time>
      </trkpt>
      <trkpt lat="45.09831" lon="5.97516">
        <ele>2437.1999511719</ele>
        <time>2024-10-15T09:59:34.000Z</time>
      </trkpt>
      <trkpt lat="45.09831" lon="5.97516">
        <ele>2436.8000488281</ele>
        <time>2024-10-15T09:59:35.000Z</time>
      </trkpt>
      <trkpt lat="45.0983" lon="5.97515">
        <ele>2436.3999023438</ele>
        <time>2024-10-15T09:59:36.000Z</time>
      </trkpt>
      <trkpt lat="45.09829" lon="5.97515">
        <ele>2436</ele>
        <time>2024-10-15T09:59:37.000Z</time>
      </trkpt>
      <trkpt lat="45.09828" lon="5.97515">
        <ele>2435.8000488281</ele>
        <time>2024-10-15T09:59:38.000Z</time>
      </trkpt>
      <trkpt lat="45.09827" lon="5.97515">
        <ele>2435.6000976562</ele>
        <time>2024-10-15T09:59:39.000Z</time>
      </trkpt>
      <trkpt lat="45.09826" lon="5.97515">
        <ele>2435.1999511719</ele>
        <time>2024-10-15T09:59:40.000Z</time>
      </trkpt>
      <trkpt lat="45.09825" lon="5.97516">
        <ele>2434.8000488281</ele>
        <time>2024-10-15T09:59:41.000Z</time>
      </trkpt>
      <trkpt lat="45.09824" lon="5.97517">
        <ele>2434.6000976562</ele>
        <time>2024-10-15T09:59:42.000Z</time>
      </trkpt>
      <trkpt lat="45.09823" lon="5.97517">
        <ele>2434.6000976562</ele>
        <time>2024-10-15T09:59:43.000Z</time>
      </trkpt>
      <trkpt lat="45.09823" lon="5.97518">
        <ele>2434.6000976562</ele>
        <time>2024-10-15T09:59:44.000Z</time>
      </trkpt>
      <trkpt lat="45.09822" lon="5.97519">
        <ele>2434.6000976562</ele>
        <time>2024-10-15T09:59:45.000Z</time>
      </trkpt>
      <trkpt lat="45.09822" lon="5.97519">
        <ele>2434.6000976562</ele>
        <time>2024-10-15T09:59:46.000Z</time>
      </trkpt>
      <trkpt lat="45.09821" lon="5.9752">
        <ele>2434.8000488281</ele>
        <time>2024-10-15T09:59:47.000Z</time>
      </trkpt>
      <trkpt lat="45.0982" lon="5.97519">
        <ele>2435</ele>
        <time>2024-10-15T09:59:48.000Z</time>
      </trkpt>
      <trkpt lat="45.0982" lon="5.9752">
        <ele>2435.3999023438</ele>
        <time>2024-10-15T09:59:49.000Z</time>
      </trkpt>
      <trkpt lat="45.09819" lon="5.9752">
        <ele>2435.6000976562</ele>
        <time>2024-10-15T09:59:50.000Z</time>
      </trkpt>
      <trkpt lat="45.09819" lon="5.97521">
        <ele>2436</ele>
        <time>2024-10-15T09:59:51.000Z</time>
      </trkpt>
      <trkpt lat="45.09818" lon="5.97521">
        <ele>2436.3999023438</ele>
        <time>2024-10-15T09:59:52.000Z</time>
      </trkpt>
      <trkpt lat="45.09818" lon="5.9752">
        <ele>2436.3999023438</ele>
        <time>2024-10-15T09:59:53.000Z</time>
      </trkpt>
      <trkpt lat="45.09818" lon="5.9752">
        <ele>2436.6000976562</ele>
        <time>2024-10-15T09:59:54.000Z</time>
      </trkpt>
      <trkpt lat="45.09817" lon="5.97519">
        <ele>2436.8000488281</ele>
        <time>2024-10-15T09:59:55.000Z</time>
      </trkpt>
      <trkpt lat="45.09817" lon="5.97519">
        <ele>2437</ele>
        <time>2024-10-15T09:59:56.000Z</time>
      </trkpt>
      <trkpt lat="45.09817" lon="5.97519">
        <ele>2437.3999023438</ele>
        <time>2024-10-15T09:59:57.000Z</time>
      </trkpt>
      <trkpt lat="45.09816" lon="5.97519">
        <ele>2437.8000488281</ele>
        <time>2024-10-15T09:59:58.000Z</time>
      </trkpt>
      <trkpt lat="45.09816" lon="5.97518">
        <ele>2438</ele>
        <time>2024-10-15T09:59:59.000Z</time>
      </trkpt>
      <trkpt lat="45.09816" lon="5.97518">
        <ele>2438.1999511719</ele>
        <time>2024-10-15T10:00:00.000Z</time>
      </trkpt>
      <trkpt lat="45.09816" lon="5.97517">
        <ele>2438.6000976562</ele>
        <time>2024-10-15T10:00:01.000Z</time>
      </trkpt>
      <trkpt lat="45.09816" lon="5.97517">
        <ele>2438.8000488281</ele>
        <time>2024-10-15T10:00:02.000Z</time>
      </trkpt>
      <trkpt lat="45.09815" lon="5.97517">
        <ele>2439.1999511719</ele>
        <time>2024-10-15T10:00:03.000Z</time>
      </trkpt>
      <trkpt lat="45.09815" lon="5.97517">
        <ele>2439.3999023438</ele>
        <time>2024-10-15T10:00:04.000Z</time>
      </trkpt>
      <trkpt lat="45.09815" lon="5.97516">
        <ele>2439.8000488281</ele>
        <time>2024-10-15T10:00:05.000Z</time>
      </trkpt>
      <trkpt lat="45.09815" lon="5.97516">
        <ele>2440</ele>
        <time>2024-10-15T10:00:06.000Z</time>
      </trkpt>
      <trkpt lat="45.09815" lon="5.97516">
        <ele>2440.1999511719</ele>
        <time>2024-10-15T10:00:07.000Z</time>
      </trkpt>
      <trkpt lat="45.09815" lon="5.97515">
        <ele>2440.3999023438</ele>
        <time>2024-10-15T10:00:08.000Z</time>
      </trkpt>
      <trkpt lat="45.09815" lon="5.97515">
        <ele>2440.3999023438</ele>
        <time>2024-10-15T10:00:09.000Z</time>
      </trkpt>
      <trkpt lat="45.09815" lon="5.97515">
        <ele>2440.8000488281</ele>
        <time>2024-10-15T10:00:10.000Z</time>
      </trkpt>
      <trkpt lat="45.09815" lon="5.97514">
        <ele>2441</ele>
        <time>2024-10-15T10:00:11.000Z</time>
      </trkpt>
      <trkpt lat="45.09814" lon="5.97514">
        <ele>2441.1999511719</ele>
        <time>2024-10-15T10:00:12.000Z</time>
      </trkpt>
      <trkpt lat="45.09814" lon="5.97514">
        <ele>2441.3999023438</ele>
        <time>2024-10-15T10:00:13.000Z</time>
      </trkpt>
      <trkpt lat="45.09813" lon="5.97513">
        <ele>2441.8000488281</ele>
        <time>2024-10-15T10:00:14.000Z</time>
      </trkpt>
      <trkpt lat="45.09813" lon="5.97513">
        <ele>2442</ele>
        <time>2024-10-15T10:00:15.000Z</time>
      </trkpt>
      <trkpt lat="45.09813" lon="5.97512">
        <ele>2442.1999511719</ele>
        <time>2024-10-15T10:00:16.000Z</time>
      </trkpt>
      <trkpt lat="45.09813" lon="5.97512">
        <ele>2442.6000976562</ele>
        <time>2024-10-15T10:00:17.000Z</time>
      </trkpt>
      <trkpt lat="45.09812" lon="5.97512">
        <ele>2443</ele>
        <time>2024-10-15T10:00:18.000Z</time>
      </trkpt>
      <trkpt lat="45.09812" lon="5.97511">
        <ele>2443.3999023438</ele>
        <time>2024-10-15T10:00:19.000Z</time>
      </trkpt>
      <trkpt lat="45.09812" lon="5.97511">
        <ele>2443.3999023438</ele>
        <time>2024-10-15T10:00:20.000Z</time>
      </trkpt>
      <trkpt lat="45.09812" lon="5.9751">
        <ele>2443.8000488281</ele>
        <time>2024-10-15T10:00:21.000Z</time>
      </trkpt>
      <trkpt lat="45.09812" lon="5.97509">
        <ele>2444</ele>
        <time>2024-10-15T10:00:22.000Z</time>
      </trkpt>
      <trkpt lat="45.09811" lon="5.97508">
        <ele>2444.1999511719</ele>
        <time>2024-10-15T10:00:23.000Z</time>
      </trkpt>
      <trkpt lat="45.09811" lon="5.97508">
        <ele>2444.3999023438</ele>
        <time>2024-10-15T10:00:24.000Z</time>
      </trkpt>
      <trkpt lat="45.09811" lon="5.97507">
        <ele>2444.3999023438</ele>
        <time>2024-10-15T10:00:25.000Z</time>
      </trkpt>
      <trkpt lat="45.09811" lon="5.97507">
        <ele>2444.3999023438</ele>
        <time>2024-10-15T10:00:26.000Z</time>
      </trkpt>
      <trkpt lat="45.09811" lon="5.97506">
        <ele>2444.6000976562</ele>
        <time>2024-10-15T10:00:27.000Z</time>
      </trkpt>
      <trkpt lat="45.09811" lon="5.97505">
        <ele>2445</ele>
        <time>2024-10-15T10:00:28.000Z</time>
      </trkpt>
      <trkpt lat="45.09811" lon="5.97504">
        <ele>2445.3999023438</ele>
        <time>2024-10-15T10:00:29.000Z</time>
      </trkpt>
      <trkpt lat="45.09811" lon="5.97504">
        <ele>2445.3999023438</ele>
        <time>2024-10-15T10:00:30.000Z</time>
      </trkpt>
      <trkpt lat="45.09811" lon="5.97503">
        <ele>2445.3999023438</ele>
        <time>2024-10-15T10:00:31.000Z</time>
      </trkpt>
      <trkpt lat="45.09811" lon="5.97502">
        <ele>2445.6000976562</ele>
        <time>2024-10-15T10:00:32.000Z</time>
      </trkpt>
      <trkpt lat="45.09811" lon="5.97502">
        <ele>2445.8000488281</ele>
        <time>2024-10-15T10:00:33.000Z</time>
      </trkpt>
      <trkpt lat="45.09811" lon="5.975">
        <ele>2446.1999511719</ele>
        <time>2024-10-15T10:00:34.000Z</time>
      </trkpt>
      <trkpt lat="45.09811" lon="5.97499">
        <ele>2446.1999511719</ele>
        <time>2024-10-15T10:00:35.000Z</time>
      </trkpt>
      <trkpt lat="45.09811" lon="5.97499">
        <ele>2446.3999023438</ele>
        <time>2024-10-15T10:00:36.000Z</time>
      </trkpt>
      <trkpt lat="45.09811" lon="5.97498">
        <ele>2446.6000976562</ele>
        <time>2024-10-15T10:00:37.000Z</time>
      </trkpt>
      <trkpt lat="45.09811" lon="5.97497">
        <ele>2446.6000976562</ele>
        <time>2024-10-15T10:00:38.000Z</time>
      </trkpt>
      <trkpt lat="45.09811" lon="5.97496">
        <ele>2446.6000976562</ele>
        <time>2024-10-15T10:00:39.000Z</time>
      </trkpt>
      <trkpt lat="45.0981" lon="5.97495">
        <ele>2446.8000488281</ele>
        <time>2024-10-15T10:00:40.000Z</time>
      </trkpt>
      <trkpt lat="45.0981" lon="5.97495">
        <ele>2447</ele>
        <time>2024-10-15T10:00:41.000Z</time>
      </trkpt>
      <trkpt lat="45.0981" lon="5.97494">
        <ele>2447.1999511719</ele>
        <time>2024-10-15T10:00:42.000Z</time>
      </trkpt>
      <trkpt lat="45.09809" lon="5.97493">
        <ele>2447.1999511719</ele>
        <time>2024-10-15T10:00:43.000Z</time>
      </trkpt>
      <trkpt lat="45.09809" lon="5.97492">
        <ele>2447.3999023438</ele>
        <time>2024-10-15T10:00:44.000Z</time>
      </trkpt>
      <trkpt lat="45.09809" lon="5.97491">
        <ele>2447.3999023438</ele>
        <time>2024-10-15T10:00:45.000Z</time>
      </trkpt>
      <trkpt lat="45.09809" lon="5.9749">
        <ele>2447.8000488281</ele>
        <time>2024-10-15T10:00:46.000Z</time>
      </trkpt>
      <trkpt lat="45.09809" lon="5.97489">
        <ele>2448.1999511719</ele>
        <time>2024-10-15T10:00:47.000Z</time>
      </trkpt>
      <trkpt lat="45.09808" lon="5.97488">
        <ele>2448.3999023438</ele>
        <time>2024-10-15T10:00:48.000Z</time>
      </trkpt>
      <trkpt lat="45.09808" lon="5.97487">
        <ele>2448.3999023438</ele>
        <time>2024-10-15T10:00:49.000Z</time>
      </trkpt>
      <trkpt lat="45.09808" lon="5.97487">
        <ele>2448.6000976562</ele>
        <time>2024-10-15T10:00:50.000Z</time>
      </trkpt>
      <trkpt lat="45.09808" lon="5.97486">
        <ele>2448.8000488281</ele>
        <time>2024-10-15T10:00:51.000Z</time>
      </trkpt>
      <trkpt lat="45.09807" lon="5.97485">
        <ele>2448.8000488281</ele>
        <time>2024-10-15T10:00:52.000Z</time>
      </trkpt>
      <trkpt lat="45.09807" lon="5.97485">
        <ele>2449</ele>
        <time>2024-10-15T10:00:53.000Z</time>
      </trkpt>
      <trkpt lat="45.09807" lon="5.97485">
        <ele>2449</ele>
        <time>2024-10-15T10:00:54.000Z</time>
      </trkpt>
      <trkpt lat="45.09807" lon="5.97484">
        <ele>2449.3999023438</ele>
        <time>2024-10-15T10:00:55.000Z</time>
      </trkpt>
      <trkpt lat="45.09806" lon="5.97483">
        <ele>2449.3999023438</ele>
        <time>2024-10-15T10:00:56.000Z</time>
      </trkpt>
      <trkpt lat="45.09806" lon="5.97483">
        <ele>2449.6000976562</ele>
        <time>2024-10-15T10:00:57.000Z</time>
      </trkpt>
      <trkpt lat="45.09806" lon="5.97482">
        <ele>2449.6000976562</ele>
        <time>2024-10-15T10:00:58.000Z</time>
      </trkpt>
      <trkpt lat="45.09805" lon="5.97481">
        <ele>2449.8000488281</ele>
        <time>2024-10-15T10:00:59.000Z</time>
      </trkpt>
      <trkpt lat="45.09805" lon="5.9748">
        <ele>2449.8000488281</ele>
        <time>2024-10-15T10:01:00.000Z</time>
      </trkpt>
      <trkpt lat="45.09805" lon="5.97479">
        <ele>2449.8000488281</ele>
        <time>2024-10-15T10:01:01.000Z</time>
      </trkpt>
      <trkpt lat="45.09804" lon="5.97479">
        <ele>2450</ele>
        <time>2024-10-15T10:01:02.000Z</time>
      </trkpt>
      <trkpt lat="45.09804" lon="5.97478">
        <ele>2450</ele>
        <time>2024-10-15T10:01:03.000Z</time>
      </trkpt>
      <trkpt lat="45.09803" lon="5.97478">
        <ele>2450</ele>
        <time>2024-10-15T10:01:04.000Z</time>
      </trkpt>
      <trkpt lat="45.09802" lon="5.97478">
        <ele>2450</ele>
        <time>2024-10-15T10:01:05.000Z</time>
      </trkpt>
      <trkpt lat="45.09801" lon="5.97478">
        <ele>2450</ele>
        <time>2024-10-15T10:01:06.000Z</time>
      </trkpt>
      <trkpt lat="45.09801" lon="5.97477">
        <ele>2449.6000976562</ele>
        <time>2024-10-15T10:01:07.000Z</time>
      </trkpt>
      <trkpt lat="45.098" lon="5.97476">
        <ele>2449.3999023438</ele>
        <time>2024-10-15T10:01:08.000Z</time>
      </trkpt>
      <trkpt lat="45.09799" lon="5.97475">
        <ele>2449.1999511719</ele>
        <time>2024-10-15T10:01:09.000Z</time>
      </trkpt>
      <trkpt lat="45.09798" lon="5.97475">
        <ele>2449.1999511719</ele>
        <time>2024-10-15T10:01:10.000Z</time>
      </trkpt>
      <trkpt lat="45.09798" lon="5.97474">
        <ele>2449.1999511719</ele>
        <time>2024-10-15T10:01:11.000Z</time>
      </trkpt>
      <trkpt lat="45.09798" lon="5.97473">
        <ele>2449</ele>
        <time>2024-10-15T10:01:12.000Z</time>
      </trkpt>
      <trkpt lat="45.09797" lon="5.97472">
        <ele>2449</ele>
        <time>2024-10-15T10:01:13.000Z</time>
      </trkpt>
      <trkpt lat="45.09797" lon="5.9747">
        <ele>2449</ele>
        <time>2024-10-15T10:01:14.000Z</time>
      </trkpt>
      <trkpt lat="45.09797" lon="5.97469">
        <ele>2449</ele>
        <time>2024-10-15T10:01:15.000Z</time>
      </trkpt>
      <trkpt lat="45.09796" lon="5.97468">
        <ele>2449.1999511719</ele>
        <time>2024-10-15T10:01:16.000Z</time>
      </trkpt>
      <trkpt lat="45.09796" lon="5.97467">
        <ele>2449.3999023438</ele>
        <time>2024-10-15T10:01:17.000Z</time>
      </trkpt>
      <trkpt lat="45.09795" lon="5.97467">
        <ele>2449.6000976562</ele>
        <time>2024-10-15T10:01:18.000Z</time>
      </trkpt>
      <trkpt lat="45.09795" lon="5.97467">
        <ele>2449.8000488281</ele>
        <time>2024-10-15T10:01:19.000Z</time>
      </trkpt>
      <trkpt lat="45.09794" lon="5.97466">
        <ele>2450.1999511719</ele>
        <time>2024-10-15T10:01:20.000Z</time>
      </trkpt>
      <trkpt lat="45.09794" lon="5.97466">
        <ele>2450.3999023438</ele>
        <time>2024-10-15T10:01:21.000Z</time>
      </trkpt>
      <trkpt lat="45.09793" lon="5.97466">
        <ele>2450.6000976562</ele>
        <time>2024-10-15T10:01:22.000Z</time>
      </trkpt>
      <trkpt lat="45.09793" lon="5.97465">
        <ele>2450.8000488281</ele>
        <time>2024-10-15T10:01:23.000Z</time>
      </trkpt>
      <trkpt lat="45.09793" lon="5.97465">
        <ele>2450.8000488281</ele>
        <time>2024-10-15T10:01:24.000Z</time>
      </trkpt>
      <trkpt lat="45.09793" lon="5.97465">
        <ele>2450.8000488281</ele>
        <time>2024-10-15T10:01:25.000Z</time>
      </trkpt>
      <trkpt lat="45.09792" lon="5.97464">
        <ele>2451</ele>
        <time>2024-10-15T10:01:26.000Z</time>
      </trkpt>
      <trkpt lat="45.09792" lon="5.97464">
        <ele>2451.1999511719</ele>
        <time>2024-10-15T10:01:27.000Z</time>
      </trkpt>
      <trkpt lat="45.09792" lon="5.97463">
        <ele>2451.3999023438</ele>
        <time>2024-10-15T10:01:28.000Z</time>
      </trkpt>
      <trkpt lat="45.09792" lon="5.97462">
        <ele>2451.6000976562</ele>
        <time>2024-10-15T10:01:29.000Z</time>
      </trkpt>
      <trkpt lat="45.09792" lon="5.97462">
        <ele>2451.8000488281</ele>
        <time>2024-10-15T10:01:30.000Z</time>
      </trkpt>
      <trkpt lat="45.09792" lon="5.97461">
        <ele>2452.3999023438</ele>
        <time>2024-10-15T10:01:31.000Z</time>
      </trkpt>
      <trkpt lat="45.09792" lon="5.9746">
        <ele>2452.6000976562</ele>
        <time>2024-10-15T10:01:32.000Z</time>
      </trkpt>
      <trkpt lat="45.09793" lon="5.97459">
        <ele>2453</ele>
        <time>2024-10-15T10:01:33.000Z</time>
      </trkpt>
      <trkpt lat="45.09793" lon="5.97458">
        <ele>2453.3999023438</ele>
        <time>2024-10-15T10:01:34.000Z</time>
      </trkpt>
      <trkpt lat="45.09793" lon="5.97458">
        <ele>2453.6000976562</ele>
        <time>2024-10-15T10:01:35.000Z</time>
      </trkpt>
      <trkpt lat="45.09793" lon="5.97457">
        <ele>2453.8000488281</ele>
        <time>2024-10-15T10:01:36.000Z</time>
      </trkpt>
      <trkpt lat="45.09793" lon="5.97457">
        <ele>2453.8000488281</ele>
        <time>2024-10-15T10:01:37.000Z</time>
      </trkpt>
      <trkpt lat="45.09794" lon="5.97456">
        <ele>2454</ele>
        <time>2024-10-15T10:01:38.000Z</time>
      </trkpt>
      <trkpt lat="45.09794" lon="5.97455">
        <ele>2454.1999511719</ele>
        <time>2024-10-15T10:01:39.000Z</time>
      </trkpt>
      <trkpt lat="45.09794" lon="5.97454">
        <ele>2454.1999511719</ele>
        <time>2024-10-15T10:01:40.000Z</time>
      </trkpt>
      <trkpt lat="45.09794" lon="5.97453">
        <ele>2454.3999023438</ele>
        <time>2024-10-15T10:01:41.000Z</time>
      </trkpt>
      <trkpt lat="45.09794" lon="5.97452">
        <ele>2454.6000976562</ele>
        <time>2024-10-15T10:01:42.000Z</time>
      </trkpt>
      <trkpt lat="45.09794" lon="5.97451">
        <ele>2454.6000976562</ele>
        <time>2024-10-15T10:01:43.000Z</time>
      </trkpt>
      <trkpt lat="45.09794" lon="5.9745">
        <ele>2454.8000488281</ele>
        <time>2024-10-15T10:01:44.000Z</time>
      </trkpt>
      <trkpt lat="45.09794" lon="5.97449">
        <ele>2454.8000488281</ele>
        <time>2024-10-15T10:01:45.000Z</time>
      </trkpt>
      <trkpt lat="45.09794" lon="5.97449">
        <ele>2455</ele>
        <time>2024-10-15T10:01:46.000Z</time>
      </trkpt>
      <trkpt lat="45.09793" lon="5.97448">
        <ele>2455</ele>
        <time>2024-10-15T10:01:47.000Z</time>
      </trkpt>
      <trkpt lat="45.09793" lon="5.97447">
        <ele>2455.1999511719</ele>
        <time>2024-10-15T10:01:48.000Z</time>
      </trkpt>
      <trkpt lat="45.09793" lon="5.97446">
        <ele>2455.6000976562</ele>
        <time>2024-10-15T10:01:49.000Z</time>
      </trkpt>
      <trkpt lat="45.09793" lon="5.97445">
        <ele>2455.6000976562</ele>
        <time>2024-10-15T10:01:50.000Z</time>
      </trkpt>
      <trkpt lat="45.09794" lon="5.97444">
        <ele>2455.8000488281</ele>
        <time>2024-10-15T10:01:51.000Z</time>
      </trkpt>
      <trkpt lat="45.09794" lon="5.97443">
        <ele>2455.8000488281</ele>
        <time>2024-10-15T10:01:52.000Z</time>
      </trkpt>
      <trkpt lat="45.09794" lon="5.97442">
        <ele>2455.8000488281</ele>
        <time>2024-10-15T10:01:53.000Z</time>
      </trkpt>
      <trkpt lat="45.09795" lon="5.97441">
        <ele>2456</ele>
        <time>2024-10-15T10:01:54.000Z</time>
      </trkpt>
      <trkpt lat="45.09795" lon="5.97441">
        <ele>2456.1999511719</ele>
        <time>2024-10-15T10:01:55.000Z</time>
      </trkpt>
      <trkpt lat="45.09796" lon="5.9744">
        <ele>2456.3999023438</ele>
        <time>2024-10-15T10:01:56.000Z</time>
      </trkpt>
      <trkpt lat="45.09796" lon="5.97439">
        <ele>2456.6000976562</ele>
        <time>2024-10-15T10:01:57.000Z</time>
      </trkpt>
      <trkpt lat="45.09797" lon="5.97439">
        <ele>2456.6000976562</ele>
        <time>2024-10-15T10:01:58.000Z</time>
      </trkpt>
      <trkpt lat="45.09797" lon="5.97438">
        <ele>2456.6000976562</ele>
        <time>2024-10-15T10:01:59.000Z</time>
      </trkpt>
      <trkpt lat="45.09797" lon="5.97437">
        <ele>2456.8000488281</ele>
        <time>2024-10-15T10:02:00.000Z</time>
      </trkpt>
      <trkpt lat="45.09797" lon="5.97437">
        <ele>2456.8000488281</ele>
        <time>2024-10-15T10:02:01.000Z</time>
      </trkpt>
      <trkpt lat="45.09797" lon="5.97436">
        <ele>2456.8000488281</ele>
        <time>2024-10-15T10:02:02.000Z</time>
      </trkpt>
      <trkpt lat="45.09797" lon="5.97435">
        <ele>2456.8000488281</ele>
        <time>2024-10-15T10:02:03.000Z</time>
      </trkpt>
      <trkpt lat="45.09798" lon="5.97435">
        <ele>2456.8000488281</ele>
        <time>2024-10-15T10:02:04.000Z</time>
      </trkpt>
      <trkpt lat="45.09798" lon="5.97435">
        <ele>2456.8000488281</ele>
        <time>2024-10-15T10:02:05.000Z</time>
      </trkpt>
      <trkpt lat="45.09798" lon="5.97435">
        <ele>2457</ele>
        <time>2024-10-15T10:02:06.000Z</time>
      </trkpt>
      <trkpt lat="45.09798" lon="5.97435">
        <ele>2457</ele>
        <time>2024-10-15T10:02:07.000Z</time>
      </trkpt>
      <trkpt lat="45.09798" lon="5.97435">
        <ele>2456.8000488281</ele>
        <time>2024-10-15T10:02:08.000Z</time>
      </trkpt>
      <trkpt lat="45.09798" lon="5.97435">
        <ele>2456.8000488281</ele>
        <time>2024-10-15T10:02:09.000Z</time>
      </trkpt>
      <trkpt lat="45.09798" lon="5.97435">
        <ele>2456.8000488281</ele>
        <time>2024-10-15T10:02:10.000Z</time>
      </trkpt>
      <trkpt lat="45.09798" lon="5.97435">
        <ele>2456.8000488281</ele>
        <time>2024-10-15T10:02:11.000Z</time>
      </trkpt>
      <trkpt lat="45.09797" lon="5.97435">
        <ele>2456.8000488281</ele>
        <time>2024-10-15T10:02:12.000Z</time>
      </trkpt>
      <trkpt lat="45.09798" lon="5.97435">
        <ele>2456.8000488281</ele>
        <time>2024-10-15T10:02:13.000Z</time>
      </trkpt>
      <trkpt lat="45.09798" lon="5.97435">
        <ele>2456.8000488281</ele>
        <time>2024-10-15T10:02:14.000Z</time>
      </trkpt>
      <trkpt lat="45.09798" lon="5.97435">
        <ele>2456.8000488281</ele>
        <time>2024-10-15T10:02:15.000Z</time>
      </trkpt>
      <trkpt lat="45.09798" lon="5.97435">
        <ele>2456.8000488281</ele>
        <time>2024-10-15T10:02:16.000Z</time>
      </trkpt>
      <trkpt lat="45.09798" lon="5.97435">
        <ele>2456.8000488281</ele>
        <time>2024-10-15T10:02:17.000Z</time>
      </trkpt>
      <trkpt lat="45.09798" lon="5.97435">
        <ele>2456.8000488281</ele>
        <time>2024-10-15T10:02:18.000Z</time>
      </trkpt>
      <trkpt lat="45.09798" lon="5.97435">
        <ele>2456.8000488281</ele>
        <time>2024-10-15T10:02:19.000Z</time>
      </trkpt>
      <trkpt lat="45.09798" lon="5.97435">
        <ele>2456.8000488281</ele>
        <time>2024-10-15T10:02:20.000Z</time>
      </trkpt>
      <trkpt lat="45.09798" lon="5.97435">
        <ele>2457</ele>
        <time>2024-10-15T10:02:21.000Z</time>
      </trkpt>
      <trkpt lat="45.09798" lon="5.97435">
        <ele>2457</ele>
        <time>2024-10-15T10:02:22.000Z</time>
      </trkpt>
      <trkpt lat="45.09798" lon="5.97435">
        <ele>2457</ele>
        <time>2024-10-15T10:02:23.000Z</time>
      </trkpt>
      <trkpt lat="45.09798" lon="5.97435">
        <ele>2457</ele>
        <time>2024-10-15T10:02:24.000Z</time>
      </trkpt>
      <trkpt lat="45.09798" lon="5.97435">
        <ele>2457</ele>
        <time>2024-10-15T10:02:25.000Z</time>
      </trkpt>
      <trkpt lat="45.09798" lon="5.97435">
        <ele>2457</ele>
        <time>2024-10-15T10:02:26.000Z</time>
      </trkpt>
      <trkpt lat="45.09798" lon="5.97435">
        <ele>2457.1999511719</ele>
        <time>2024-10-15T10:02:27.000Z</time>
      </trkpt>
      <trkpt lat="45.09798" lon="5.97435">
        <ele>2457.3999023438</ele>
        <time>2024-10-15T10:02:28.000Z</time>
      </trkpt>
      <trkpt lat="45.09798" lon="5.97435">
        <ele>2457.3999023438</ele>
        <time>2024-10-15T10:02:29.000Z</time>
      </trkpt>
      <trkpt lat="45.09798" lon="5.97435">
        <ele>2457.6000976562</ele>
        <time>2024-10-15T10:02:30.000Z</time>
      </trkpt>
      <trkpt lat="45.09798" lon="5.97435">
        <ele>2457.6000976562</ele>
        <time>2024-10-15T10:02:31.000Z</time>
      </trkpt>
      <trkpt lat="45.09798" lon="5.97435">
        <ele>2457.8000488281</ele>
        <time>2024-10-15T10:02:32.000Z</time>
      </trkpt>
      <trkpt lat="45.09798" lon="5.97435">
        <ele>2457.8000488281</ele>
        <time>2024-10-15T10:02:33.000Z</time>
      </trkpt>
      <trkpt lat="45.09798" lon="5.97435">
        <ele>2457.8000488281</ele>
        <time>2024-10-15T10:02:34.000Z</time>
      </trkpt>
      <trkpt lat="45.09798" lon="5.97435">
        <ele>2457.8000488281</ele>
        <time>2024-10-15T10:02:35.000Z</time>
      </trkpt>
      <trkpt lat="45.09798" lon="5.97435">
        <ele>2458</ele>
        <time>2024-10-15T10:02:36.000Z</time>
      </trkpt>
      <trkpt lat="45.09798" lon="5.97435">
        <ele>2458</ele>
        <time>2024-10-15T10:02:37.000Z</time>
      </trkpt>
      <trkpt lat="45.09798" lon="5.97435">
        <ele>2457.8000488281</ele>
        <time>2024-10-15T10:02:38.000Z</time>
      </trkpt>
      <trkpt lat="45.09798" lon="5.97435">
        <ele>2457.6000976562</ele>
        <time>2024-10-15T10:02:39.000Z</time>
      </trkpt>
      <trkpt lat="45.09798" lon="5.97435">
        <ele>2457.6000976562</ele>
        <time>2024-10-15T10:02:40.000Z</time>
      </trkpt>
      <trkpt lat="45.09798" lon="5.97435">
        <ele>2457.6000976562</ele>
        <time>2024-10-15T10:02:41.000Z</time>
      </trkpt>
      <trkpt lat="45.09798" lon="5.97435">
        <ele>2457.6000976562</ele>
        <time>2024-10-15T10:02:42.000Z</time>
      </trkpt>
      <trkpt lat="45.09798" lon="5.97435">
        <ele>2457.6000976562</ele>
        <time>2024-10-15T10:02:43.000Z</time>
      </trkpt>
      <trkpt lat="45.09798" lon="5.97435">
        <ele>2457.6000976562</ele>
        <time>2024-10-15T10:02:44.000Z</time>
      </trkpt>
      <trkpt lat="45.09798" lon="5.97435">
        <ele>2457.6000976562</ele>
        <time>2024-10-15T10:02:45.000Z</time>
      </trkpt>
      <trkpt lat="45.09798" lon="5.97435">
        <ele>2457.8000488281</ele>
        <time>2024-10-15T10:02:46.000Z</time>
      </trkpt>
      <trkpt lat="45.09798" lon="5.97436">
        <ele>2457.8000488281</ele>
        <time>2024-10-15T10:02:47.000Z</time>
      </trkpt>
      <trkpt lat="45.09798" lon="5.97436">
        <ele>2457.8000488281</ele>
        <time>2024-10-15T10:02:48.000Z</time>
      </trkpt>
      <trkpt lat="45.09798" lon="5.97436">
        <ele>2458</ele>
        <time>2024-10-15T10:02:49.000Z</time>
      </trkpt>
      <trkpt lat="45.09798" lon="5.97436">
        <ele>2458</ele>
        <time>2024-10-15T10:02:50.000Z</time>
      </trkpt>
      <trkpt lat="45.09798" lon="5.97436">
        <ele>2458</ele>
        <time>2024-10-15T10:02:51.000Z</time>
      </trkpt>
      <trkpt lat="45.09798" lon="5.97436">
        <ele>2458.1999511719</ele>
        <time>2024-10-15T10:02:52.000Z</time>
      </trkpt>
      <trkpt lat="45.09798" lon="5.97436">
        <ele>2458.1999511719</ele>
        <time>2024-10-15T10:02:53.000Z</time>
      </trkpt>
      <trkpt lat="45.09798" lon="5.97436">
        <ele>2458.1999511719</ele>
        <time>2024-10-15T10:02:54.000Z</time>
      </trkpt>
      <trkpt lat="45.09798" lon="5.97436">
        <ele>2458.1999511719</ele>
        <time>2024-10-15T10:02:55.000Z</time>
      </trkpt>
      <trkpt lat="45.09798" lon="5.97436">
        <ele>2458.3999023438</ele>
        <time>2024-10-15T10:02:56.000Z</time>
      </trkpt>
      <trkpt lat="45.09798" lon="5.97436">
        <ele>2458.3999023438</ele>
        <time>2024-10-15T10:02:57.000Z</time>
      </trkpt>
      <trkpt lat="45.09798" lon="5.97436">
        <ele>2458.6000976562</ele>
        <time>2024-10-15T10:02:58.000Z</time>
      </trkpt>
      <trkpt lat="45.09798" lon="5.97436">
        <ele>2458.6000976562</ele>
        <time>2024-10-15T10:02:59.000Z</time>
      </trkpt>
      <trkpt lat="45.09798" lon="5.97436">
        <ele>2458.6000976562</ele>
        <time>2024-10-15T10:03:00.000Z</time>
      </trkpt>
      <trkpt lat="45.09798" lon="5.97436">
        <ele>2458.6000976562</ele>
        <time>2024-10-15T10:03:01.000Z</time>
      </trkpt>
      <trkpt lat="45.09798" lon="5.97435">
        <ele>2458.6000976562</ele>
        <time>2024-10-15T10:03:02.000Z</time>
      </trkpt>
      <trkpt lat="45.09798" lon="5.97435">
        <ele>2457.8000488281</ele>
        <time>2024-10-15T10:03:03.000Z</time>
      </trkpt>
      <trkpt lat="45.09798" lon="5.97435">
        <ele>2457.6000976562</ele>
        <time>2024-10-15T10:03:04.000Z</time>
      </trkpt>
      <trkpt lat="45.09798" lon="5.97435">
        <ele>2457.3999023438</ele>
        <time>2024-10-15T10:03:05.000Z</time>
      </trkpt>
      <trkpt lat="45.09798" lon="5.97435">
        <ele>2457.1999511719</ele>
        <time>2024-10-15T10:03:06.000Z</time>
      </trkpt>
      <trkpt lat="45.09798" lon="5.97435">
        <ele>2457</ele>
        <time>2024-10-15T10:03:07.000Z</time>
      </trkpt>
      <trkpt lat="45.09798" lon="5.97435">
        <ele>2457</ele>
        <time>2024-10-15T10:03:08.000Z</time>
      </trkpt>
      <trkpt lat="45.09798" lon="5.97435">
        <ele>2457.1999511719</ele>
        <time>2024-10-15T10:03:09.000Z</time>
      </trkpt>
      <trkpt lat="45.09798" lon="5.97435">
        <ele>2457.3999023438</ele>
        <time>2024-10-15T10:03:10.000Z</time>
      </trkpt>
      <trkpt lat="45.09798" lon="5.97435">
        <ele>2457.3999023438</ele>
        <time>2024-10-15T10:03:11.000Z</time>
      </trkpt>
      <trkpt lat="45.09798" lon="5.97435">
        <ele>2457.3999023438</ele>
        <time>2024-10-15T10:03:12.000Z</time>
      </trkpt>
      <trkpt lat="45.09798" lon="5.97435">
        <ele>2457.6000976562</ele>
        <time>2024-10-15T10:03:13.000Z</time>
      </trkpt>
      <trkpt lat="45.09798" lon="5.97435">
        <ele>2457.6000976562</ele>
        <time>2024-10-15T10:03:14.000Z</time>
      </trkpt>
      <trkpt lat="45.09798" lon="5.97435">
        <ele>2457.8000488281</ele>
        <time>2024-10-15T10:03:15.000Z</time>
      </trkpt>
      <trkpt lat="45.09798" lon="5.97435">
        <ele>2457.8000488281</ele>
        <time>2024-10-15T10:03:16.000Z</time>
      </trkpt>
      <trkpt lat="45.09798" lon="5.97435">
        <ele>2457.8000488281</ele>
        <time>2024-10-15T10:03:17.000Z</time>
      </trkpt>
      <trkpt lat="45.09798" lon="5.97435">
        <ele>2457.3999023438</ele>
        <time>2024-10-15T10:03:18.000Z</time>
      </trkpt>
      <trkpt lat="45.09798" lon="5.97435">
        <ele>2457.1999511719</ele>
        <time>2024-10-15T10:03:19.000Z</time>
      </trkpt>
      <trkpt lat="45.09798" lon="5.97435">
        <ele>2457.1999511719</ele>
        <time>2024-10-15T10:03:20.000Z</time>
      </trkpt>
      <trkpt lat="45.09798" lon="5.97435">
        <ele>2458</ele>
        <time>2024-10-15T10:03:21.000Z</time>
      </trkpt>
      <trkpt lat="45.09798" lon="5.97435">
        <ele>2458</ele>
        <time>2024-10-15T10:03:22.000Z</time>
      </trkpt>
      <trkpt lat="45.09798" lon="5.97435">
        <ele>2458</ele>
        <time>2024-10-15T10:03:23.000Z</time>
      </trkpt>
      <trkpt lat="45.09798" lon="5.97435">
        <ele>2458</ele>
        <time>2024-10-15T10:03:24.000Z</time>
      </trkpt>
      <trkpt lat="45.09798" lon="5.97434">
        <ele>2458.3999023438</ele>
        <time>2024-10-15T10:03:25.000Z</time>
      </trkpt>
      <trkpt lat="45.09798" lon="5.97434">
        <ele>2458.8000488281</ele>
        <time>2024-10-15T10:03:26.000Z</time>
      </trkpt>
      <trkpt lat="45.09798" lon="5.97434">
        <ele>2460</ele>
        <time>2024-10-15T10:03:27.000Z</time>
      </trkpt>
      <trkpt lat="45.09798" lon="5.97434">
        <ele>2460.1999511719</ele>
        <time>2024-10-15T10:03:28.000Z</time>
      </trkpt>
      <trkpt lat="45.09798" lon="5.97434">
        <ele>2460.3999023438</ele>
        <time>2024-10-15T10:03:29.000Z</time>
      </trkpt>
      <trkpt lat="45.09798" lon="5.97434">
        <ele>2460.3999023438</ele>
        <time>2024-10-15T10:03:30.000Z</time>
      </trkpt>
      <trkpt lat="45.09798" lon="5.97434">
        <ele>2460.6000976562</ele>
        <time>2024-10-15T10:03:31.000Z</time>
      </trkpt>
      <trkpt lat="45.09798" lon="5.97434">
        <ele>2460.3999023438</ele>
        <time>2024-10-15T10:03:32.000Z</time>
      </trkpt>
      <trkpt lat="45.09798" lon="5.97434">
        <ele>2460.6000976562</ele>
        <time>2024-10-15T10:03:33.000Z</time>
      </trkpt>
      <trkpt lat="45.09798" lon="5.97434">
        <ele>2460.1999511719</ele>
        <time>2024-10-15T10:03:34.000Z</time>
      </trkpt>
      <trkpt lat="45.09798" lon="5.97434">
        <ele>2459.8000488281</ele>
        <time>2024-10-15T10:03:35.000Z</time>
      </trkpt>
      <trkpt lat="45.09798" lon="5.97434">
        <ele>2459.8000488281</ele>
        <time>2024-10-15T10:03:36.000Z</time>
      </trkpt>
      <trkpt lat="45.09798" lon="5.97434">
        <ele>2459.6000976562</ele>
        <time>2024-10-15T10:03:37.000Z</time>
      </trkpt>
      <trkpt lat="45.09797" lon="5.97434">
        <ele>2459</ele>
        <time>2024-10-15T10:03:38.000Z</time>
      </trkpt>
      <trkpt lat="45.09797" lon="5.97434">
        <ele>2458.3999023438</ele>
        <time>2024-10-15T10:03:39.000Z</time>
      </trkpt>
      <trkpt lat="45.09796" lon="5.97434">
        <ele>2458.1999511719</ele>
        <time>2024-10-15T10:03:40.000Z</time>
      </trkpt>
      <trkpt lat="45.09796" lon="5.97433">
        <ele>2456.3999023438</ele>
        <time>2024-10-15T10:03:41.000Z</time>
      </trkpt>
      <trkpt lat="45.09796" lon="5.97432">
        <ele>2456</ele>
        <time>2024-10-15T10:03:42.000Z</time>
      </trkpt>
      <trkpt lat="45.09796" lon="5.97431">
        <ele>2456</ele>
        <time>2024-10-15T10:03:43.000Z</time>
      </trkpt>
      <trkpt lat="45.09795" lon="5.97431">
        <ele>2456</ele>
        <time>2024-10-15T10:03:44.000Z</time>
      </trkpt>
      <trkpt lat="45.09795" lon="5.9743">
        <ele>2456.3999023438</ele>
        <time>2024-10-15T10:03:45.000Z</time>
      </trkpt>
      <trkpt lat="45.09795" lon="5.97429">
        <ele>2457.1999511719</ele>
        <time>2024-10-15T10:03:46.000Z</time>
      </trkpt>
      <trkpt lat="45.09795" lon="5.97429">
        <ele>2457.1999511719</ele>
        <time>2024-10-15T10:03:47.000Z</time>
      </trkpt>
      <trkpt lat="45.09794" lon="5.97428">
        <ele>2457.6000976562</ele>
        <time>2024-10-15T10:03:48.000Z</time>
      </trkpt>
      <trkpt lat="45.09794" lon="5.97428">
        <ele>2457.8000488281</ele>
        <time>2024-10-15T10:03:49.000Z</time>
      </trkpt>
      <trkpt lat="45.09794" lon="5.97427">
        <ele>2458.1999511719</ele>
        <time>2024-10-15T10:03:50.000Z</time>
      </trkpt>
      <trkpt lat="45.09794" lon="5.97427">
        <ele>2458.1999511719</ele>
        <time>2024-10-15T10:03:51.000Z</time>
      </trkpt>
      <trkpt lat="45.09794" lon="5.97427">
        <ele>2459</ele>
        <time>2024-10-15T10:03:52.000Z</time>
      </trkpt>
      <trkpt lat="45.09794" lon="5.97427">
        <ele>2459.8000488281</ele>
        <time>2024-10-15T10:03:53.000Z</time>
      </trkpt>
      <trkpt lat="45.09794" lon="5.97427">
        <ele>2460.8000488281</ele>
        <time>2024-10-15T10:03:54.000Z</time>
      </trkpt>
      <trkpt lat="45.09794" lon="5.97427">
        <ele>2461.6000976562</ele>
        <time>2024-10-15T10:03:55.000Z</time>
      </trkpt>
      <trkpt lat="45.09794" lon="5.97427">
        <ele>2462.1999511719</ele>
        <time>2024-10-15T10:03:56.000Z</time>
      </trkpt>
      <trkpt lat="45.09793" lon="5.97427">
        <ele>2462.6000976562</ele>
        <time>2024-10-15T10:03:57.000Z</time>
      </trkpt>
      <trkpt lat="45.09793" lon="5.97427">
        <ele>2462.8000488281</ele>
        <time>2024-10-15T10:03:58.000Z</time>
      </trkpt>
      <trkpt lat="45.09793" lon="5.97427">
        <ele>2463</ele>
        <time>2024-10-15T10:03:59.000Z</time>
      </trkpt>
      <trkpt lat="45.09793" lon="5.97427">
        <ele>2463</ele>
        <time>2024-10-15T10:04:00.000Z</time>
      </trkpt>
      <trkpt lat="45.09793" lon="5.97427">
        <ele>2463</ele>
        <time>2024-10-15T10:04:01.000Z</time>
      </trkpt>
      <trkpt lat="45.09793" lon="5.97427">
        <ele>2463.1999511719</ele>
        <time>2024-10-15T10:04:02.000Z</time>
      </trkpt>
      <trkpt lat="45.09793" lon="5.97427">
        <ele>2463</ele>
        <time>2024-10-15T10:04:03.000Z</time>
      </trkpt>
      <trkpt lat="45.09793" lon="5.97427">
        <ele>2463</ele>
        <time>2024-10-15T10:04:04.000Z</time>
      </trkpt>
      <trkpt lat="45.09793" lon="5.97427">
        <ele>2463</ele>
        <time>2024-10-15T10:04:05.000Z</time>
      </trkpt>
      <trkpt lat="45.09793" lon="5.97427">
        <ele>2463</ele>
        <time>2024-10-15T10:04:06.000Z</time>
      </trkpt>
      <trkpt lat="45.09793" lon="5.97427">
        <ele>2463</ele>
        <time>2024-10-15T10:04:07.000Z</time>
      </trkpt>
      <trkpt lat="45.09793" lon="5.97427">
        <ele>2462.8000488281</ele>
        <time>2024-10-15T10:04:08.000Z</time>
      </trkpt>
      <trkpt lat="45.09793" lon="5.97427">
        <ele>2462.8000488281</ele>
        <time>2024-10-15T10:04:09.000Z</time>
      </trkpt>
      <trkpt lat="45.09793" lon="5.97427">
        <ele>2462.8000488281</ele>
        <time>2024-10-15T10:04:10.000Z</time>
      </trkpt>
      <trkpt lat="45.09793" lon="5.97427">
        <ele>2462.8000488281</ele>
        <time>2024-10-15T10:04:11.000Z</time>
      </trkpt>
      <trkpt lat="45.09793" lon="5.97428">
        <ele>2463</ele>
        <time>2024-10-15T10:04:12.000Z</time>
      </trkpt>
      <trkpt lat="45.09793" lon="5.97428">
        <ele>2463.1999511719</ele>
        <time>2024-10-15T10:04:13.000Z</time>
      </trkpt>
      <trkpt lat="45.09793" lon="5.97428">
        <ele>2463.3999023438</ele>
        <time>2024-10-15T10:04:14.000Z</time>
      </trkpt>
      <trkpt lat="45.09793" lon="5.97428">
        <ele>2463.3999023438</ele>
        <time>2024-10-15T10:04:15.000Z</time>
      </trkpt>
      <trkpt lat="45.09793" lon="5.97428">
        <ele>2463.3999023438</ele>
        <time>2024-10-15T10:04:16.000Z</time>
      </trkpt>
      <trkpt lat="45.09793" lon="5.97428">
        <ele>2463.3999023438</ele>
        <time>2024-10-15T10:04:17.000Z</time>
      </trkpt>
      <trkpt lat="45.09793" lon="5.97428">
        <ele>2463.6000976562</ele>
        <time>2024-10-15T10:04:18.000Z</time>
      </trkpt>
      <trkpt lat="45.09793" lon="5.97428">
        <ele>2463.6000976562</ele>
        <time>2024-10-15T10:04:19.000Z</time>
      </trkpt>
      <trkpt lat="45.09793" lon="5.97428">
        <ele>2463.8000488281</ele>
        <time>2024-10-15T10:04:20.000Z</time>
      </trkpt>
      <trkpt lat="45.09793" lon="5.97429">
        <ele>2463.8000488281</ele>
        <time>2024-10-15T10:04:21.000Z</time>
      </trkpt>
      <trkpt lat="45.09794" lon="5.97431">
        <ele>2463.8000488281</ele>
        <time>2024-10-15T10:04:22.000Z</time>
      </trkpt>
      <trkpt lat="45.09795" lon="5.97433">
        <ele>2463.8000488281</ele>
        <time>2024-10-15T10:04:23.000Z</time>
      </trkpt>
      <trkpt lat="45.09796" lon="5.97436">
        <ele>2463.8000488281</ele>
        <time>2024-10-15T10:04:24.000Z</time>
      </trkpt>
      <trkpt lat="45.09796" lon="5.97437">
        <ele>2463.6000976562</ele>
        <time>2024-10-15T10:04:25.000Z</time>
      </trkpt>
      <trkpt lat="45.09796" lon="5.97439">
        <ele>2463.3999023438</ele>
        <time>2024-10-15T10:04:26.000Z</time>
      </trkpt>
      <trkpt lat="45.09797" lon="5.97441">
        <ele>2463</ele>
        <time>2024-10-15T10:04:27.000Z</time>
      </trkpt>
      <trkpt lat="45.09797" lon="5.97443">
        <ele>2462.8000488281</ele>
        <time>2024-10-15T10:04:28.000Z</time>
      </trkpt>
      <trkpt lat="45.09798" lon="5.97445">
        <ele>2462.6000976562</ele>
        <time>2024-10-15T10:04:29.000Z</time>
      </trkpt>
      <trkpt lat="45.09798" lon="5.97447">
        <ele>2462.6000976562</ele>
        <time>2024-10-15T10:04:30.000Z</time>
      </trkpt>
      <trkpt lat="45.09797" lon="5.97449">
        <ele>2462.3999023438</ele>
        <time>2024-10-15T10:04:31.000Z</time>
      </trkpt>
      <trkpt lat="45.09797" lon="5.9745">
        <ele>2462.1999511719</ele>
        <time>2024-10-15T10:04:32.000Z</time>
      </trkpt>
      <trkpt lat="45.09797" lon="5.97451">
        <ele>2462.1999511719</ele>
        <time>2024-10-15T10:04:33.000Z</time>
      </trkpt>
      <trkpt lat="45.09797" lon="5.97452">
        <ele>2462</ele>
        <time>2024-10-15T10:04:34.000Z</time>
      </trkpt>
      <trkpt lat="45.09796" lon="5.97453">
        <ele>2461.8000488281</ele>
        <time>2024-10-15T10:04:35.000Z</time>
      </trkpt>
      <trkpt lat="45.09796" lon="5.97455">
        <ele>2461.6000976562</ele>
        <time>2024-10-15T10:04:36.000Z</time>
      </trkpt>
      <trkpt lat="45.09796" lon="5.97456">
        <ele>2461.1999511719</ele>
        <time>2024-10-15T10:04:37.000Z</time>
      </trkpt>
      <trkpt lat="45.09796" lon="5.97457">
        <ele>2461</ele>
        <time>2024-10-15T10:04:38.000Z</time>
      </trkpt>
      <trkpt lat="45.09796" lon="5.97457">
        <ele>2460.8000488281</ele>
        <time>2024-10-15T10:04:39.000Z</time>
      </trkpt>
      <trkpt lat="45.09796" lon="5.97457">
        <ele>2460.6000976562</ele>
        <time>2024-10-15T10:04:40.000Z</time>
      </trkpt>
      <trkpt lat="45.09796" lon="5.97458">
        <ele>2460.3999023438</ele>
        <time>2024-10-15T10:04:41.000Z</time>
      </trkpt>
      <trkpt lat="45.09796" lon="5.97458">
        <ele>2460.3999023438</ele>
        <time>2024-10-15T10:04:42.000Z</time>
      </trkpt>
      <trkpt lat="45.09796" lon="5.97458">
        <ele>2460.1999511719</ele>
        <time>2024-10-15T10:04:43.000Z</time>
      </trkpt>
      <trkpt lat="45.09796" lon="5.97458">
        <ele>2460.1999511719</ele>
        <time>2024-10-15T10:04:44.000Z</time>
      </trkpt>
      <trkpt lat="45.09796" lon="5.97458">
        <ele>2460</ele>
        <time>2024-10-15T10:04:45.000Z</time>
      </trkpt>
      <trkpt lat="45.09796" lon="5.97458">
        <ele>2459.8000488281</ele>
        <time>2024-10-15T10:04:46.000Z</time>
      </trkpt>
      <trkpt lat="45.09796" lon="5.97458">
        <ele>2459.6000976562</ele>
        <time>2024-10-15T10:04:47.000Z</time>
      </trkpt>
      <trkpt lat="45.09795" lon="5.97458">
        <ele>2459.6000976562</ele>
        <time>2024-10-15T10:04:48.000Z</time>
      </trkpt>
      <trkpt lat="45.09795" lon="5.97458">
        <ele>2459.6000976562</ele>
        <time>2024-10-15T10:04:49.000Z</time>
      </trkpt>
      <trkpt lat="45.09795" lon="5.97458">
        <ele>2459.6000976562</ele>
        <time>2024-10-15T10:04:50.000Z</time>
      </trkpt>
      <trkpt lat="45.09795" lon="5.97458">
        <ele>2459.6000976562</ele>
        <time>2024-10-15T10:04:51.000Z</time>
      </trkpt>
      <trkpt lat="45.09795" lon="5.97458">
        <ele>2459.8000488281</ele>
        <time>2024-10-15T10:04:52.000Z</time>
      </trkpt>
      <trkpt lat="45.09795" lon="5.97458">
        <ele>2460</ele>
        <time>2024-10-15T10:04:53.000Z</time>
      </trkpt>
      <trkpt lat="45.09795" lon="5.97458">
        <ele>2460.1999511719</ele>
        <time>2024-10-15T10:04:54.000Z</time>
      </trkpt>
      <trkpt lat="45.09795" lon="5.97458">
        <ele>2460.3999023438</ele>
        <time>2024-10-15T10:04:55.000Z</time>
      </trkpt>
      <trkpt lat="45.09795" lon="5.97458">
        <ele>2460.3999023438</ele>
        <time>2024-10-15T10:04:56.000Z</time>
      </trkpt>
      <trkpt lat="45.09795" lon="5.97458">
        <ele>2460.3999023438</ele>
        <time>2024-10-15T10:04:57.000Z</time>
      </trkpt>
      <trkpt lat="45.09795" lon="5.97458">
        <ele>2460.6000976562</ele>
        <time>2024-10-15T10:04:58.000Z</time>
      </trkpt>
      <trkpt lat="45.09795" lon="5.97458">
        <ele>2460.6000976562</ele>
        <time>2024-10-15T10:04:59.000Z</time>
      </trkpt>
      <trkpt lat="45.09795" lon="5.97458">
        <ele>2460.6000976562</ele>
        <time>2024-10-15T10:05:00.000Z</time>
      </trkpt>
      <trkpt lat="45.09795" lon="5.97458">
        <ele>2460.6000976562</ele>
        <time>2024-10-15T10:05:01.000Z</time>
      </trkpt>
      <trkpt lat="45.09795" lon="5.97458">
        <ele>2460.8000488281</ele>
        <time>2024-10-15T10:05:02.000Z</time>
      </trkpt>
      <trkpt lat="45.09795" lon="5.97458">
        <ele>2461</ele>
        <time>2024-10-15T10:05:03.000Z</time>
      </trkpt>
      <trkpt lat="45.09795" lon="5.97458">
        <ele>2461</ele>
        <time>2024-10-15T10:05:04.000Z</time>
      </trkpt>
      <trkpt lat="45.09795" lon="5.97458">
        <ele>2461</ele>
        <time>2024-10-15T10:05:05.000Z</time>
      </trkpt>
      <trkpt lat="45.09795" lon="5.97458">
        <ele>2461.1999511719</ele>
        <time>2024-10-15T10:05:06.000Z</time>
      </trkpt>
      <trkpt lat="45.09795" lon="5.97458">
        <ele>2461.1999511719</ele>
        <time>2024-10-15T10:05:07.000Z</time>
      </trkpt>
      <trkpt lat="45.09795" lon="5.97458">
        <ele>2461.1999511719</ele>
        <time>2024-10-15T10:05:08.000Z</time>
      </trkpt>
      <trkpt lat="45.09795" lon="5.97458">
        <ele>2461.1999511719</ele>
        <time>2024-10-15T10:05:09.000Z</time>
      </trkpt>
      <trkpt lat="45.09795" lon="5.97458">
        <ele>2461.1999511719</ele>
        <time>2024-10-15T10:05:10.000Z</time>
      </trkpt>
      <trkpt lat="45.09795" lon="5.97458">
        <ele>2461.1999511719</ele>
        <time>2024-10-15T10:05:11.000Z</time>
      </trkpt>
      <trkpt lat="45.09795" lon="5.97458">
        <ele>2461.1999511719</ele>
        <time>2024-10-15T10:05:12.000Z</time>
      </trkpt>
      <trkpt lat="45.09795" lon="5.97458">
        <ele>2461.1999511719</ele>
        <time>2024-10-15T10:05:13.000Z</time>
      </trkpt>
      <trkpt lat="45.09795" lon="5.97458">
        <ele>2461.1999511719</ele>
        <time>2024-10-15T10:05:14.000Z</time>
      </trkpt>
      <trkpt lat="45.09795" lon="5.97458">
        <ele>2461.1999511719</ele>
        <time>2024-10-15T10:05:15.000Z</time>
      </trkpt>
      <trkpt lat="45.09795" lon="5.97458">
        <ele>2461.1999511719</ele>
        <time>2024-10-15T10:05:16.000Z</time>
      </trkpt>
      <trkpt lat="45.09795" lon="5.97458">
        <ele>2461</ele>
        <time>2024-10-15T10:05:17.000Z</time>
      </trkpt>
      <trkpt lat="45.09795" lon="5.97458">
        <ele>2461</ele>
        <time>2024-10-15T10:05:18.000Z</time>
      </trkpt>
      <trkpt lat="45.09795" lon="5.97457">
        <ele>2461</ele>
        <time>2024-10-15T10:05:19.000Z</time>
      </trkpt>
      <trkpt lat="45.09795" lon="5.97457">
        <ele>2461</ele>
        <time>2024-10-15T10:05:20.000Z</time>
      </trkpt>
      <trkpt lat="45.09795" lon="5.97457">
        <ele>2461</ele>
        <time>2024-10-15T10:05:21.000Z</time>
      </trkpt>
      <trkpt lat="45.09795" lon="5.97457">
        <ele>2461</ele>
        <time>2024-10-15T10:05:22.000Z</time>
      </trkpt>
      <trkpt lat="45.09796" lon="5.97457">
        <ele>2461.1999511719</ele>
        <time>2024-10-15T10:05:23.000Z</time>
      </trkpt>
      <trkpt lat="45.09796" lon="5.97457">
        <ele>2461.1999511719</ele>
        <time>2024-10-15T10:05:24.000Z</time>
      </trkpt>
      <trkpt lat="45.09796" lon="5.97457">
        <ele>2461.3999023438</ele>
        <time>2024-10-15T10:05:25.000Z</time>
      </trkpt>
      <trkpt lat="45.09796" lon="5.97457">
        <ele>2461.6000976562</ele>
        <time>2024-10-15T10:05:26.000Z</time>
      </trkpt>
      <trkpt lat="45.09796" lon="5.97457">
        <ele>2461.6000976562</ele>
        <time>2024-10-15T10:05:27.000Z</time>
      </trkpt>
      <trkpt lat="45.09796" lon="5.97457">
        <ele>2461.6000976562</ele>
        <time>2024-10-15T10:05:28.000Z</time>
      </trkpt>
      <trkpt lat="45.09796" lon="5.97457">
        <ele>2461.6000976562</ele>
        <time>2024-10-15T10:05:29.000Z</time>
      </trkpt>
      <trkpt lat="45.09796" lon="5.97457">
        <ele>2461.6000976562</ele>
        <time>2024-10-15T10:05:30.000Z</time>
      </trkpt>
      <trkpt lat="45.09796" lon="5.97457">
        <ele>2461.3999023438</ele>
        <time>2024-10-15T10:05:31.000Z</time>
      </trkpt>
      <trkpt lat="45.09796" lon="5.97457">
        <ele>2461.1999511719</ele>
        <time>2024-10-15T10:05:32.000Z</time>
      </trkpt>
      <trkpt lat="45.09796" lon="5.97457">
        <ele>2461.3999023438</ele>
        <time>2024-10-15T10:05:33.000Z</time>
      </trkpt>
      <trkpt lat="45.09796" lon="5.97457">
        <ele>2461.3999023438</ele>
        <time>2024-10-15T10:05:34.000Z</time>
      </trkpt>
      <trkpt lat="45.09796" lon="5.97457">
        <ele>2461.3999023438</ele>
        <time>2024-10-15T10:05:35.000Z</time>
      </trkpt>
      <trkpt lat="45.09796" lon="5.97457">
        <ele>2461.3999023438</ele>
        <time>2024-10-15T10:05:36.000Z</time>
      </trkpt>
      <trkpt lat="45.09796" lon="5.97456">
        <ele>2461.3999023438</ele>
        <time>2024-10-15T10:05:37.000Z</time>
      </trkpt>
      <trkpt lat="45.09796" lon="5.97456">
        <ele>2461.3999023438</ele>
        <time>2024-10-15T10:05:38.000Z</time>
      </trkpt>
      <trkpt lat="45.09796" lon="5.97456">
        <ele>2461.3999023438</ele>
        <time>2024-10-15T10:05:39.000Z</time>
      </trkpt>
      <trkpt lat="45.09796" lon="5.97456">
        <ele>2461.3999023438</ele>
        <time>2024-10-15T10:05:40.000Z</time>
      </trkpt>
      <trkpt lat="45.09796" lon="5.97456">
        <ele>2461.1999511719</ele>
        <time>2024-10-15T10:05:41.000Z</time>
      </trkpt>
      <trkpt lat="45.09796" lon="5.97456">
        <ele>2461.1999511719</ele>
        <time>2024-10-15T10:05:42.000Z</time>
      </trkpt>
      <trkpt lat="45.09796" lon="5.97456">
        <ele>2461.1999511719</ele>
        <time>2024-10-15T10:05:43.000Z</time>
      </trkpt>
      <trkpt lat="45.09796" lon="5.97456">
        <ele>2461.1999511719</ele>
        <time>2024-10-15T10:05:44.000Z</time>
      </trkpt>
      <trkpt lat="45.09796" lon="5.97456">
        <ele>2461.1999511719</ele>
        <time>2024-10-15T10:05:45.000Z</time>
      </trkpt>
      <trkpt lat="45.09796" lon="5.97456">
        <ele>2461.1999511719</ele>
        <time>2024-10-15T10:05:46.000Z</time>
      </trkpt>
      <trkpt lat="45.09796" lon="5.97456">
        <ele>2461.3999023438</ele>
        <time>2024-10-15T10:05:47.000Z</time>
      </trkpt>
      <trkpt lat="45.09796" lon="5.97456">
        <ele>2461.3999023438</ele>
        <time>2024-10-15T10:05:48.000Z</time>
      </trkpt>
      <trkpt lat="45.09796" lon="5.97456">
        <ele>2461.6000976562</ele>
        <time>2024-10-15T10:05:49.000Z</time>
      </trkpt>
      <trkpt lat="45.09796" lon="5.97456">
        <ele>2461.6000976562</ele>
        <time>2024-10-15T10:05:50.000Z</time>
      </trkpt>
      <trkpt lat="45.09796" lon="5.97456">
        <ele>2461.8000488281</ele>
        <time>2024-10-15T10:05:51.000Z</time>
      </trkpt>
      <trkpt lat="45.09796" lon="5.97456">
        <ele>2461.8000488281</ele>
        <time>2024-10-15T10:05:52.000Z</time>
      </trkpt>
      <trkpt lat="45.09796" lon="5.97457">
        <ele>2461.8000488281</ele>
        <time>2024-10-15T10:05:53.000Z</time>
      </trkpt>
      <trkpt lat="45.09796" lon="5.97457">
        <ele>2461.8000488281</ele>
        <time>2024-10-15T10:05:54.000Z</time>
      </trkpt>
      <trkpt lat="45.09796" lon="5.97457">
        <ele>2461.8000488281</ele>
        <time>2024-10-15T10:05:55.000Z</time>
      </trkpt>
      <trkpt lat="45.09796" lon="5.97457">
        <ele>2461.8000488281</ele>
        <time>2024-10-15T10:05:56.000Z</time>
      </trkpt>
      <trkpt lat="45.09796" lon="5.97457">
        <ele>2461.8000488281</ele>
        <time>2024-10-15T10:05:57.000Z</time>
      </trkpt>
      <trkpt lat="45.09796" lon="5.97457">
        <ele>2461.6000976562</ele>
        <time>2024-10-15T10:05:58.000Z</time>
      </trkpt>
      <trkpt lat="45.09796" lon="5.97457">
        <ele>2461.6000976562</ele>
        <time>2024-10-15T10:05:59.000Z</time>
      </trkpt>
      <trkpt lat="45.09796" lon="5.97457">
        <ele>2461.6000976562</ele>
        <time>2024-10-15T10:06:00.000Z</time>
      </trkpt>
      <trkpt lat="45.09796" lon="5.97457">
        <ele>2461.6000976562</ele>
        <time>2024-10-15T10:06:01.000Z</time>
      </trkpt>
      <trkpt lat="45.09796" lon="5.97457">
        <ele>2461.6000976562</ele>
        <time>2024-10-15T10:06:02.000Z</time>
      </trkpt>
      <trkpt lat="45.09796" lon="5.97457">
        <ele>2461.6000976562</ele>
        <time>2024-10-15T10:06:03.000Z</time>
      </trkpt>
      <trkpt lat="45.09796" lon="5.97457">
        <ele>2461.6000976562</ele>
        <time>2024-10-15T10:06:04.000Z</time>
      </trkpt>
      <trkpt lat="45.09796" lon="5.97457">
        <ele>2461.6000976562</ele>
        <time>2024-10-15T10:06:05.000Z</time>
      </trkpt>
      <trkpt lat="45.09796" lon="5.97457">
        <ele>2461.6000976562</ele>
        <time>2024-10-15T10:06:06.000Z</time>
      </trkpt>
      <trkpt lat="45.09796" lon="5.97457">
        <ele>2461.6000976562</ele>
        <time>2024-10-15T10:06:07.000Z</time>
      </trkpt>
      <trkpt lat="45.09796" lon="5.97457">
        <ele>2461.3999023438</ele>
        <time>2024-10-15T10:06:08.000Z</time>
      </trkpt>
      <trkpt lat="45.09796" lon="5.97457">
        <ele>2461.3999023438</ele>
        <time>2024-10-15T10:06:09.000Z</time>
      </trkpt>
      <trkpt lat="45.09796" lon="5.97457">
        <ele>2461.1999511719</ele>
        <time>2024-10-15T10:06:10.000Z</time>
      </trkpt>
      <trkpt lat="45.09796" lon="5.97457">
        <ele>2461.3999023438</ele>
        <time>2024-10-15T10:06:11.000Z</time>
      </trkpt>
      <trkpt lat="45.09796" lon="5.97457">
        <ele>2461.3999023438</ele>
        <time>2024-10-15T10:06:12.000Z</time>
      </trkpt>
      <trkpt lat="45.09796" lon="5.97457">
        <ele>2461.3999023438</ele>
        <time>2024-10-15T10:06:13.000Z</time>
      </trkpt>
      <trkpt lat="45.09796" lon="5.97457">
        <ele>2461.6000976562</ele>
        <time>2024-10-15T10:06:14.000Z</time>
      </trkpt>
      <trkpt lat="45.09796" lon="5.97457">
        <ele>2461.6000976562</ele>
        <time>2024-10-15T10:06:15.000Z</time>
      </trkpt>
      <trkpt lat="45.09796" lon="5.97457">
        <ele>2461.6000976562</ele>
        <time>2024-10-15T10:06:16.000Z</time>
      </trkpt>
      <trkpt lat="45.09796" lon="5.97456">
        <ele>2461.8000488281</ele>
        <time>2024-10-15T10:06:17.000Z</time>
      </trkpt>
      <trkpt lat="45.09796" lon="5.97456">
        <ele>2461.8000488281</ele>
        <time>2024-10-15T10:06:18.000Z</time>
      </trkpt>
      <trkpt lat="45.09796" lon="5.97456">
        <ele>2461.8000488281</ele>
        <time>2024-10-15T10:06:19.000Z</time>
      </trkpt>
      <trkpt lat="45.09796" lon="5.97456">
        <ele>2461.8000488281</ele>
        <time>2024-10-15T10:06:20.000Z</time>
      </trkpt>
      <trkpt lat="45.09796" lon="5.97456">
        <ele>2461.8000488281</ele>
        <time>2024-10-15T10:06:21.000Z</time>
      </trkpt>
      <trkpt lat="45.09796" lon="5.97456">
        <ele>2461.8000488281</ele>
        <time>2024-10-15T10:06:22.000Z</time>
      </trkpt>
      <trkpt lat="45.09796" lon="5.97456">
        <ele>2461.8000488281</ele>
        <time>2024-10-15T10:06:23.000Z</time>
      </trkpt>
      <trkpt lat="45.09796" lon="5.97456">
        <ele>2461.8000488281</ele>
        <time>2024-10-15T10:06:24.000Z</time>
      </trkpt>
      <trkpt lat="45.09796" lon="5.97456">
        <ele>2461.8000488281</ele>
        <time>2024-10-15T10:06:25.000Z</time>
      </trkpt>
      <trkpt lat="45.09796" lon="5.97455">
        <ele>2461.8000488281</ele>
        <time>2024-10-15T10:06:26.000Z</time>
      </trkpt>
      <trkpt lat="45.09796" lon="5.97455">
        <ele>2462</ele>
        <time>2024-10-15T10:06:27.000Z</time>
      </trkpt>
      <trkpt lat="45.09796" lon="5.97455">
        <ele>2462</ele>
        <time>2024-10-15T10:06:28.000Z</time>
      </trkpt>
      <trkpt lat="45.09796" lon="5.97455">
        <ele>2462</ele>
        <time>2024-10-15T10:06:29.000Z</time>
      </trkpt>
      <trkpt lat="45.09796" lon="5.97455">
        <ele>2462.1999511719</ele>
        <time>2024-10-15T10:06:30.000Z</time>
      </trkpt>
      <trkpt lat="45.09796" lon="5.97455">
        <ele>2462.1999511719</ele>
        <time>2024-10-15T10:06:31.000Z</time>
      </trkpt>
      <trkpt lat="45.09796" lon="5.97455">
        <ele>2462.1999511719</ele>
        <time>2024-10-15T10:06:32.000Z</time>
      </trkpt>
      <trkpt lat="45.09796" lon="5.97455">
        <ele>2462.1999511719</ele>
        <time>2024-10-15T10:06:33.000Z</time>
      </trkpt>
      <trkpt lat="45.09796" lon="5.97455">
        <ele>2462.1999511719</ele>
        <time>2024-10-15T10:06:34.000Z</time>
      </trkpt>
      <trkpt lat="45.09796" lon="5.97455">
        <ele>2462.1999511719</ele>
        <time>2024-10-15T10:06:35.000Z</time>
      </trkpt>
      <trkpt lat="45.09796" lon="5.97455">
        <ele>2462.3999023438</ele>
        <time>2024-10-15T10:06:36.000Z</time>
      </trkpt>
      <trkpt lat="45.09796" lon="5.97455">
        <ele>2462.3999023438</ele>
        <time>2024-10-15T10:06:37.000Z</time>
      </trkpt>
      <trkpt lat="45.09796" lon="5.97455">
        <ele>2462.3999023438</ele>
        <time>2024-10-15T10:06:38.000Z</time>
      </trkpt>
      <trkpt lat="45.09796" lon="5.97455">
        <ele>2462.3999023438</ele>
        <time>2024-10-15T10:06:39.000Z</time>
      </trkpt>
      <trkpt lat="45.09796" lon="5.97455">
        <ele>2462.3999023438</ele>
        <time>2024-10-15T10:06:40.000Z</time>
      </trkpt>
      <trkpt lat="45.09796" lon="5.97455">
        <ele>2462.3999023438</ele>
        <time>2024-10-15T10:06:41.000Z</time>
      </trkpt>
      <trkpt lat="45.09796" lon="5.97455">
        <ele>2462.3999023438</ele>
        <time>2024-10-15T10:06:42.000Z</time>
      </trkpt>
      <trkpt lat="45.09796" lon="5.97455">
        <ele>2462.3999023438</ele>
        <time>2024-10-15T10:06:43.000Z</time>
      </trkpt>
      <trkpt lat="45.09796" lon="5.97455">
        <ele>2462.6000976562</ele>
        <time>2024-10-15T10:06:44.000Z</time>
      </trkpt>
      <trkpt lat="45.09796" lon="5.97455">
        <ele>2462.6000976562</ele>
        <time>2024-10-15T10:06:45.000Z</time>
      </trkpt>
      <trkpt lat="45.09796" lon="5.97455">
        <ele>2462.8000488281</ele>
        <time>2024-10-15T10:06:46.000Z</time>
      </trkpt>
      <trkpt lat="45.09796" lon="5.97455">
        <ele>2462.8000488281</ele>
        <time>2024-10-15T10:06:47.000Z</time>
      </trkpt>
      <trkpt lat="45.09796" lon="5.97455">
        <ele>2462.8000488281</ele>
        <time>2024-10-15T10:06:48.000Z</time>
      </trkpt>
      <trkpt lat="45.09796" lon="5.97455">
        <ele>2462.8000488281</ele>
        <time>2024-10-15T10:06:49.000Z</time>
      </trkpt>
      <trkpt lat="45.09796" lon="5.97455">
        <ele>2463</ele>
        <time>2024-10-15T10:06:50.000Z</time>
      </trkpt>
      <trkpt lat="45.09797" lon="5.97455">
        <ele>2463</ele>
        <time>2024-10-15T10:06:51.000Z</time>
      </trkpt>
      <trkpt lat="45.09797" lon="5.97454">
        <ele>2463</ele>
        <time>2024-10-15T10:06:52.000Z</time>
      </trkpt>
      <trkpt lat="45.09797" lon="5.97454">
        <ele>2463.1999511719</ele>
        <time>2024-10-15T10:06:53.000Z</time>
      </trkpt>
      <trkpt lat="45.09797" lon="5.97454">
        <ele>2463.1999511719</ele>
        <time>2024-10-15T10:06:54.000Z</time>
      </trkpt>
      <trkpt lat="45.09797" lon="5.97454">
        <ele>2463</ele>
        <time>2024-10-15T10:06:55.000Z</time>
      </trkpt>
      <trkpt lat="45.09797" lon="5.97454">
        <ele>2463</ele>
        <time>2024-10-15T10:06:56.000Z</time>
      </trkpt>
      <trkpt lat="45.09797" lon="5.97454">
        <ele>2462.8000488281</ele>
        <time>2024-10-15T10:06:57.000Z</time>
      </trkpt>
      <trkpt lat="45.09797" lon="5.97454">
        <ele>2462.8000488281</ele>
        <time>2024-10-15T10:06:58.000Z</time>
      </trkpt>
      <trkpt lat="45.09797" lon="5.97454">
        <ele>2463</ele>
        <time>2024-10-15T10:06:59.000Z</time>
      </trkpt>
      <trkpt lat="45.09797" lon="5.97454">
        <ele>2462.8000488281</ele>
        <time>2024-10-15T10:07:00.000Z</time>
      </trkpt>
      <trkpt lat="45.09797" lon="5.97454">
        <ele>2462.8000488281</ele>
        <time>2024-10-15T10:07:01.000Z</time>
      </trkpt>
      <trkpt lat="45.09797" lon="5.97454">
        <ele>2462.8000488281</ele>
        <time>2024-10-15T10:07:02.000Z</time>
      </trkpt>
      <trkpt lat="45.09797" lon="5.97454">
        <ele>2462.8000488281</ele>
        <time>2024-10-15T10:07:03.000Z</time>
      </trkpt>
      <trkpt lat="45.09797" lon="5.97454">
        <ele>2462.8000488281</ele>
        <time>2024-10-15T10:07:04.000Z</time>
      </trkpt>
      <trkpt lat="45.09797" lon="5.97454">
        <ele>2462.8000488281</ele>
        <time>2024-10-15T10:07:05.000Z</time>
      </trkpt>
      <trkpt lat="45.09797" lon="5.97454">
        <ele>2462.6000976562</ele>
        <time>2024-10-15T10:07:06.000Z</time>
      </trkpt>
      <trkpt lat="45.09797" lon="5.97454">
        <ele>2462.6000976562</ele>
        <time>2024-10-15T10:07:07.000Z</time>
      </trkpt>
      <trkpt lat="45.09797" lon="5.97454">
        <ele>2462.6000976562</ele>
        <time>2024-10-15T10:07:08.000Z</time>
      </trkpt>
      <trkpt lat="45.09797" lon="5.97454">
        <ele>2462.8000488281</ele>
        <time>2024-10-15T10:07:09.000Z</time>
      </trkpt>
      <trkpt lat="45.09797" lon="5.97454">
        <ele>2462.8000488281</ele>
        <time>2024-10-15T10:07:10.000Z</time>
      </trkpt>
      <trkpt lat="45.09797" lon="5.97454">
        <ele>2462.8000488281</ele>
        <time>2024-10-15T10:07:11.000Z</time>
      </trkpt>
      <trkpt lat="45.09797" lon="5.97454">
        <ele>2462.6000976562</ele>
        <time>2024-10-15T10:07:12.000Z</time>
      </trkpt>
      <trkpt lat="45.09797" lon="5.97454">
        <ele>2462.6000976562</ele>
        <time>2024-10-15T10:07:13.000Z</time>
      </trkpt>
      <trkpt lat="45.09797" lon="5.97454">
        <ele>2462.3999023438</ele>
        <time>2024-10-15T10:07:14.000Z</time>
      </trkpt>
      <trkpt lat="45.09797" lon="5.97454">
        <ele>2462.1999511719</ele>
        <time>2024-10-15T10:07:15.000Z</time>
      </trkpt>
      <trkpt lat="45.09797" lon="5.97454">
        <ele>2462.1999511719</ele>
        <time>2024-10-15T10:07:16.000Z</time>
      </trkpt>
      <trkpt lat="45.09797" lon="5.97454">
        <ele>2462.1999511719</ele>
        <time>2024-10-15T10:07:17.000Z</time>
      </trkpt>
      <trkpt lat="45.09797" lon="5.97454">
        <ele>2462.1999511719</ele>
        <time>2024-10-15T10:07:18.000Z</time>
      </trkpt>
      <trkpt lat="45.09797" lon="5.97454">
        <ele>2462.1999511719</ele>
        <time>2024-10-15T10:07:19.000Z</time>
      </trkpt>
      <trkpt lat="45.09797" lon="5.97454">
        <ele>2462.1999511719</ele>
        <time>2024-10-15T10:07:20.000Z</time>
      </trkpt>
      <trkpt lat="45.09797" lon="5.97455">
        <ele>2462</ele>
        <time>2024-10-15T10:07:21.000Z</time>
      </trkpt>
      <trkpt lat="45.09797" lon="5.97455">
        <ele>2462</ele>
        <time>2024-10-15T10:07:22.000Z</time>
      </trkpt>
      <trkpt lat="45.09797" lon="5.97455">
        <ele>2462</ele>
        <time>2024-10-15T10:07:23.000Z</time>
      </trkpt>
      <trkpt lat="45.09797" lon="5.97455">
        <ele>2462</ele>
        <time>2024-10-15T10:07:24.000Z</time>
      </trkpt>
      <trkpt lat="45.09797" lon="5.97455">
        <ele>2462</ele>
        <time>2024-10-15T10:07:25.000Z</time>
      </trkpt>
      <trkpt lat="45.09797" lon="5.97455">
        <ele>2462</ele>
        <time>2024-10-15T10:07:26.000Z</time>
      </trkpt>
      <trkpt lat="45.09797" lon="5.97455">
        <ele>2462</ele>
        <time>2024-10-15T10:07:27.000Z</time>
      </trkpt>
      <trkpt lat="45.09797" lon="5.97455">
        <ele>2462</ele>
        <time>2024-10-15T10:07:28.000Z</time>
      </trkpt>
      <trkpt lat="45.09797" lon="5.97455">
        <ele>2462</ele>
        <time>2024-10-15T10:07:29.000Z</time>
      </trkpt>
      <trkpt lat="45.09797" lon="5.97455">
        <ele>2462</ele>
        <time>2024-10-15T10:07:30.000Z</time>
      </trkpt>
      <trkpt lat="45.09797" lon="5.97455">
        <ele>2462</ele>
        <time>2024-10-15T10:07:31.000Z</time>
      </trkpt>
      <trkpt lat="45.09797" lon="5.97454">
        <ele>2462</ele>
        <time>2024-10-15T10:07:32.000Z</time>
      </trkpt>
      <trkpt lat="45.09797" lon="5.97454">
        <ele>2462</ele>
        <time>2024-10-15T10:07:33.000Z</time>
      </trkpt>
      <trkpt lat="45.09797" lon="5.97454">
        <ele>2462</ele>
        <time>2024-10-15T10:07:34.000Z</time>
      </trkpt>
      <trkpt lat="45.09797" lon="5.97454">
        <ele>2462</ele>
        <time>2024-10-15T10:07:35.000Z</time>
      </trkpt>
      <trkpt lat="45.09797" lon="5.97454">
        <ele>2462</ele>
        <time>2024-10-15T10:07:36.000Z</time>
      </trkpt>
      <trkpt lat="45.09797" lon="5.97454">
        <ele>2462</ele>
        <time>2024-10-15T10:07:37.000Z</time>
      </trkpt>
      <trkpt lat="45.09797" lon="5.97454">
        <ele>2462</ele>
        <time>2024-10-15T10:07:38.000Z</time>
      </trkpt>
      <trkpt lat="45.09797" lon="5.97454">
        <ele>2462</ele>
        <time>2024-10-15T10:07:39.000Z</time>
      </trkpt>
      <trkpt lat="45.09797" lon="5.97454">
        <ele>2462</ele>
        <time>2024-10-15T10:07:40.000Z</time>
      </trkpt>
      <trkpt lat="45.09798" lon="5.97454">
        <ele>2462</ele>
        <time>2024-10-15T10:07:41.000Z</time>
      </trkpt>
      <trkpt lat="45.09798" lon="5.97454">
        <ele>2462</ele>
        <time>2024-10-15T10:07:42.000Z</time>
      </trkpt>
      <trkpt lat="45.09798" lon="5.97454">
        <ele>2462</ele>
        <time>2024-10-15T10:07:43.000Z</time>
      </trkpt>
      <trkpt lat="45.09798" lon="5.97454">
        <ele>2462.1999511719</ele>
        <time>2024-10-15T10:07:44.000Z</time>
      </trkpt>
      <trkpt lat="45.09798" lon="5.97454">
        <ele>2462.1999511719</ele>
        <time>2024-10-15T10:07:45.000Z</time>
      </trkpt>
      <trkpt lat="45.09798" lon="5.97454">
        <ele>2462.1999511719</ele>
        <time>2024-10-15T10:07:46.000Z</time>
      </trkpt>
      <trkpt lat="45.09798" lon="5.97454">
        <ele>2462.1999511719</ele>
        <time>2024-10-15T10:07:47.000Z</time>
      </trkpt>
      <trkpt lat="45.09798" lon="5.97454">
        <ele>2462.1999511719</ele>
        <time>2024-10-15T10:07:48.000Z</time>
      </trkpt>
      <trkpt lat="45.09798" lon="5.97454">
        <ele>2462.1999511719</ele>
        <time>2024-10-15T10:07:49.000Z</time>
      </trkpt>
      <trkpt lat="45.09798" lon="5.97454">
        <ele>2462.1999511719</ele>
        <time>2024-10-15T10:07:50.000Z</time>
      </trkpt>
      <trkpt lat="45.09798" lon="5.97454">
        <ele>2462.1999511719</ele>
        <time>2024-10-15T10:07:51.000Z</time>
      </trkpt>
      <trkpt lat="45.09798" lon="5.97454">
        <ele>2462.1999511719</ele>
        <time>2024-10-15T10:07:52.000Z</time>
      </trkpt>
      <trkpt lat="45.09798" lon="5.97454">
        <ele>2462.1999511719</ele>
        <time>2024-10-15T10:07:53.000Z</time>
      </trkpt>
      <trkpt lat="45.09798" lon="5.97454">
        <ele>2462.1999511719</ele>
        <time>2024-10-15T10:07:54.000Z</time>
      </trkpt>
      <trkpt lat="45.09798" lon="5.97454">
        <ele>2462.1999511719</ele>
        <time>2024-10-15T10:07:55.000Z</time>
      </trkpt>
      <trkpt lat="45.09798" lon="5.97454">
        <ele>2462.1999511719</ele>
        <time>2024-10-15T10:07:56.000Z</time>
      </trkpt>
      <trkpt lat="45.09798" lon="5.97454">
        <ele>2462.1999511719</ele>
        <time>2024-10-15T10:07:57.000Z</time>
      </trkpt>
      <trkpt lat="45.09798" lon="5.97454">
        <ele>2462.1999511719</ele>
        <time>2024-10-15T10:07:58.000Z</time>
      </trkpt>
      <trkpt lat="45.09798" lon="5.97454">
        <ele>2462.3999023438</ele>
        <time>2024-10-15T10:07:59.000Z</time>
      </trkpt>
      <trkpt lat="45.09798" lon="5.97454">
        <ele>2462.3999023438</ele>
        <time>2024-10-15T10:08:00.000Z</time>
      </trkpt>
      <trkpt lat="45.09798" lon="5.97454">
        <ele>2462.3999023438</ele>
        <time>2024-10-15T10:08:01.000Z</time>
      </trkpt>
      <trkpt lat="45.09798" lon="5.97454">
        <ele>2462.3999023438</ele>
        <time>2024-10-15T10:08:02.000Z</time>
      </trkpt>
      <trkpt lat="45.09798" lon="5.97454">
        <ele>2462.6000976562</ele>
        <time>2024-10-15T10:08:03.000Z</time>
      </trkpt>
      <trkpt lat="45.09798" lon="5.97454">
        <ele>2462.6000976562</ele>
        <time>2024-10-15T10:08:04.000Z</time>
      </trkpt>
      <trkpt lat="45.09798" lon="5.97454">
        <ele>2462.6000976562</ele>
        <time>2024-10-15T10:08:05.000Z</time>
      </trkpt>
      <trkpt lat="45.09798" lon="5.97454">
        <ele>2462.6000976562</ele>
        <time>2024-10-15T10:08:06.000Z</time>
      </trkpt>
      <trkpt lat="45.09798" lon="5.97454">
        <ele>2462.8000488281</ele>
        <time>2024-10-15T10:08:07.000Z</time>
      </trkpt>
      <trkpt lat="45.09798" lon="5.97454">
        <ele>2462.8000488281</ele>
        <time>2024-10-15T10:08:08.000Z</time>
      </trkpt>
      <trkpt lat="45.09798" lon="5.97454">
        <ele>2463</ele>
        <time>2024-10-15T10:08:09.000Z</time>
      </trkpt>
      <trkpt lat="45.09798" lon="5.97454">
        <ele>2463</ele>
        <time>2024-10-15T10:08:10.000Z</time>
      </trkpt>
      <trkpt lat="45.09798" lon="5.97454">
        <ele>2463</ele>
        <time>2024-10-15T10:08:11.000Z</time>
      </trkpt>
      <trkpt lat="45.09798" lon="5.97454">
        <ele>2463</ele>
        <time>2024-10-15T10:08:12.000Z</time>
      </trkpt>
      <trkpt lat="45.09798" lon="5.97454">
        <ele>2463</ele>
        <time>2024-10-15T10:08:13.000Z</time>
      </trkpt>
      <trkpt lat="45.09798" lon="5.97454">
        <ele>2463.1999511719</ele>
        <time>2024-10-15T10:08:14.000Z</time>
      </trkpt>
      <trkpt lat="45.09798" lon="5.97454">
        <ele>2463.1999511719</ele>
        <time>2024-10-15T10:08:15.000Z</time>
      </trkpt>
      <trkpt lat="45.09798" lon="5.97454">
        <ele>2463.1999511719</ele>
        <time>2024-10-15T10:08:16.000Z</time>
      </trkpt>
      <trkpt lat="45.09798" lon="5.97454">
        <ele>2463.1999511719</ele>
        <time>2024-10-15T10:08:17.000Z</time>
      </trkpt>
      <trkpt lat="45.09798" lon="5.97454">
        <ele>2463.1999511719</ele>
        <time>2024-10-15T10:08:18.000Z</time>
      </trkpt>
      <trkpt lat="45.09798" lon="5.97454">
        <ele>2463.1999511719</ele>
        <time>2024-10-15T10:08:19.000Z</time>
      </trkpt>
      <trkpt lat="45.09798" lon="5.97454">
        <ele>2463.1999511719</ele>
        <time>2024-10-15T10:08:20.000Z</time>
      </trkpt>
      <trkpt lat="45.09798" lon="5.97454">
        <ele>2463.1999511719</ele>
        <time>2024-10-15T10:08:21.000Z</time>
      </trkpt>
      <trkpt lat="45.09798" lon="5.97454">
        <ele>2463.1999511719</ele>
        <time>2024-10-15T10:08:22.000Z</time>
      </trkpt>
      <trkpt lat="45.09798" lon="5.97454">
        <ele>2463.1999511719</ele>
        <time>2024-10-15T10:08:23.000Z</time>
      </trkpt>
      <trkpt lat="45.09798" lon="5.97454">
        <ele>2463.1999511719</ele>
        <time>2024-10-15T10:08:24.000Z</time>
      </trkpt>
      <trkpt lat="45.09798" lon="5.97454">
        <ele>2463.1999511719</ele>
        <time>2024-10-15T10:08:25.000Z</time>
      </trkpt>
      <trkpt lat="45.09798" lon="5.97454">
        <ele>2463.1999511719</ele>
        <time>2024-10-15T10:08:26.000Z</time>
      </trkpt>
      <trkpt lat="45.09798" lon="5.97454">
        <ele>2463.1999511719</ele>
        <time>2024-10-15T10:08:27.000Z</time>
      </trkpt>
      <trkpt lat="45.09798" lon="5.97454">
        <ele>2463.1999511719</ele>
        <time>2024-10-15T10:08:28.000Z</time>
      </trkpt>
      <trkpt lat="45.09798" lon="5.97454">
        <ele>2463</ele>
        <time>2024-10-15T10:08:29.000Z</time>
      </trkpt>
      <trkpt lat="45.09798" lon="5.97454">
        <ele>2463</ele>
        <time>2024-10-15T10:08:30.000Z</time>
      </trkpt>
      <trkpt lat="45.09798" lon="5.97454">
        <ele>2462.8000488281</ele>
        <time>2024-10-15T10:08:31.000Z</time>
      </trkpt>
      <trkpt lat="45.09798" lon="5.97454">
        <ele>2462.8000488281</ele>
        <time>2024-10-15T10:08:32.000Z</time>
      </trkpt>
      <trkpt lat="45.09798" lon="5.97454">
        <ele>2462.8000488281</ele>
        <time>2024-10-15T10:08:33.000Z</time>
      </trkpt>
      <trkpt lat="45.09798" lon="5.97454">
        <ele>2462.8000488281</ele>
        <time>2024-10-15T10:08:34.000Z</time>
      </trkpt>
      <trkpt lat="45.09798" lon="5.97454">
        <ele>2462.8000488281</ele>
        <time>2024-10-15T10:08:35.000Z</time>
      </trkpt>
      <trkpt lat="45.09798" lon="5.97454">
        <ele>2462.8000488281</ele>
        <time>2024-10-15T10:08:36.000Z</time>
      </trkpt>
      <trkpt lat="45.09798" lon="5.97454">
        <ele>2463</ele>
        <time>2024-10-15T10:08:37.000Z</time>
      </trkpt>
      <trkpt lat="45.09798" lon="5.97454">
        <ele>2463</ele>
        <time>2024-10-15T10:08:38.000Z</time>
      </trkpt>
      <trkpt lat="45.09798" lon="5.97454">
        <ele>2463</ele>
        <time>2024-10-15T10:08:39.000Z</time>
      </trkpt>
      <trkpt lat="45.09798" lon="5.97454">
        <ele>2463</ele>
        <time>2024-10-15T10:08:40.000Z</time>
      </trkpt>
      <trkpt lat="45.09798" lon="5.97454">
        <ele>2463</ele>
        <time>2024-10-15T10:08:41.000Z</time>
      </trkpt>
      <trkpt lat="45.09798" lon="5.97454">
        <ele>2463</ele>
        <time>2024-10-15T10:08:42.000Z</time>
      </trkpt>
      <trkpt lat="45.09798" lon="5.97454">
        <ele>2463</ele>
        <time>2024-10-15T10:08:43.000Z</time>
      </trkpt>
      <trkpt lat="45.09798" lon="5.97454">
        <ele>2463</ele>
        <time>2024-10-15T10:08:44.000Z</time>
      </trkpt>
      <trkpt lat="45.09798" lon="5.97454">
        <ele>2463</ele>
        <time>2024-10-15T10:08:45.000Z</time>
      </trkpt>
      <trkpt lat="45.09798" lon="5.97454">
        <ele>2463</ele>
        <time>2024-10-15T10:08:46.000Z</time>
      </trkpt>
      <trkpt lat="45.09798" lon="5.97454">
        <ele>2463</ele>
        <time>2024-10-15T10:08:47.000Z</time>
      </trkpt>
      <trkpt lat="45.09798" lon="5.97454">
        <ele>2463</ele>
        <time>2024-10-15T10:08:48.000Z</time>
      </trkpt>
      <trkpt lat="45.09798" lon="5.97454">
        <ele>2463</ele>
        <time>2024-10-15T10:08:49.000Z</time>
      </trkpt>
      <trkpt lat="45.09798" lon="5.97454">
        <ele>2463.1999511719</ele>
        <time>2024-10-15T10:08:50.000Z</time>
      </trkpt>
      <trkpt lat="45.09798" lon="5.97454">
        <ele>2463.1999511719</ele>
        <time>2024-10-15T10:08:51.000Z</time>
      </trkpt>
      <trkpt lat="45.09798" lon="5.97454">
        <ele>2463</ele>
        <time>2024-10-15T10:08:52.000Z</time>
      </trkpt>
      <trkpt lat="45.09798" lon="5.97454">
        <ele>2462.8000488281</ele>
        <time>2024-10-15T10:08:53.000Z</time>
      </trkpt>
      <trkpt lat="45.09798" lon="5.97454">
        <ele>2462.8000488281</ele>
        <time>2024-10-15T10:08:54.000Z</time>
      </trkpt>
      <trkpt lat="45.09798" lon="5.97454">
        <ele>2462.6000976562</ele>
        <time>2024-10-15T10:08:55.000Z</time>
      </trkpt>
      <trkpt lat="45.09798" lon="5.97454">
        <ele>2462.6000976562</ele>
        <time>2024-10-15T10:08:56.000Z</time>
      </trkpt>
      <trkpt lat="45.09798" lon="5.97454">
        <ele>2462.6000976562</ele>
        <time>2024-10-15T10:08:57.000Z</time>
      </trkpt>
      <trkpt lat="45.09798" lon="5.97454">
        <ele>2462.6000976562</ele>
        <time>2024-10-15T10:08:58.000Z</time>
      </trkpt>
      <trkpt lat="45.09798" lon="5.97454">
        <ele>2462.6000976562</ele>
        <time>2024-10-15T10:08:59.000Z</time>
      </trkpt>
      <trkpt lat="45.09798" lon="5.97454">
        <ele>2462.8000488281</ele>
        <time>2024-10-15T10:09:00.000Z</time>
      </trkpt>
      <trkpt lat="45.09798" lon="5.97454">
        <ele>2462.6000976562</ele>
        <time>2024-10-15T10:09:01.000Z</time>
      </trkpt>
      <trkpt lat="45.09798" lon="5.97454">
        <ele>2462.6000976562</ele>
        <time>2024-10-15T10:09:02.000Z</time>
      </trkpt>
      <trkpt lat="45.09798" lon="5.97454">
        <ele>2462.6000976562</ele>
        <time>2024-10-15T10:09:03.000Z</time>
      </trkpt>
      <trkpt lat="45.09798" lon="5.97454">
        <ele>2462.6000976562</ele>
        <time>2024-10-15T10:09:04.000Z</time>
      </trkpt>
      <trkpt lat="45.09798" lon="5.97454">
        <ele>2462.6000976562</ele>
        <time>2024-10-15T10:09:05.000Z</time>
      </trkpt>
      <trkpt lat="45.09798" lon="5.97454">
        <ele>2462.6000976562</ele>
        <time>2024-10-15T10:09:06.000Z</time>
      </trkpt>
      <trkpt lat="45.09798" lon="5.97454">
        <ele>2462.6000976562</ele>
        <time>2024-10-15T10:09:07.000Z</time>
      </trkpt>
      <trkpt lat="45.09798" lon="5.97454">
        <ele>2462.6000976562</ele>
        <time>2024-10-15T10:09:08.000Z</time>
      </trkpt>
      <trkpt lat="45.09798" lon="5.97454">
        <ele>2462.6000976562</ele>
        <time>2024-10-15T10:09:09.000Z</time>
      </trkpt>
      <trkpt lat="45.09798" lon="5.97454">
        <ele>2462.3999023438</ele>
        <time>2024-10-15T10:09:10.000Z</time>
      </trkpt>
      <trkpt lat="45.09798" lon="5.97454">
        <ele>2462.3999023438</ele>
        <time>2024-10-15T10:09:11.000Z</time>
      </trkpt>
      <trkpt lat="45.09798" lon="5.97454">
        <ele>2462.3999023438</ele>
        <time>2024-10-15T10:09:12.000Z</time>
      </trkpt>
      <trkpt lat="45.09798" lon="5.97454">
        <ele>2462.3999023438</ele>
        <time>2024-10-15T10:09:13.000Z</time>
      </trkpt>
      <trkpt lat="45.09798" lon="5.97454">
        <ele>2462.3999023438</ele>
        <time>2024-10-15T10:09:14.000Z</time>
      </trkpt>
      <trkpt lat="45.09798" lon="5.97454">
        <ele>2462.6000976562</ele>
        <time>2024-10-15T10:09:15.000Z</time>
      </trkpt>
      <trkpt lat="45.09798" lon="5.97454">
        <ele>2462.6000976562</ele>
        <time>2024-10-15T10:09:16.000Z</time>
      </trkpt>
      <trkpt lat="45.09798" lon="5.97454">
        <ele>2462.8000488281</ele>
        <time>2024-10-15T10:09:17.000Z</time>
      </trkpt>
      <trkpt lat="45.09798" lon="5.97454">
        <ele>2462.8000488281</ele>
        <time>2024-10-15T10:09:18.000Z</time>
      </trkpt>
      <trkpt lat="45.09798" lon="5.97454">
        <ele>2462.8000488281</ele>
        <time>2024-10-15T10:09:19.000Z</time>
      </trkpt>
      <trkpt lat="45.09798" lon="5.97454">
        <ele>2462.8000488281</ele>
        <time>2024-10-15T10:09:20.000Z</time>
      </trkpt>
      <trkpt lat="45.09798" lon="5.97454">
        <ele>2462.8000488281</ele>
        <time>2024-10-15T10:09:21.000Z</time>
      </trkpt>
      <trkpt lat="45.09798" lon="5.97454">
        <ele>2462.8000488281</ele>
        <time>2024-10-15T10:09:22.000Z</time>
      </trkpt>
      <trkpt lat="45.09798" lon="5.97454">
        <ele>2462.8000488281</ele>
        <time>2024-10-15T10:09:23.000Z</time>
      </trkpt>
      <trkpt lat="45.09798" lon="5.97454">
        <ele>2462.6000976562</ele>
        <time>2024-10-15T10:09:24.000Z</time>
      </trkpt>
      <trkpt lat="45.09798" lon="5.97454">
        <ele>2462.6000976562</ele>
        <time>2024-10-15T10:09:25.000Z</time>
      </trkpt>
      <trkpt lat="45.09798" lon="5.97454">
        <ele>2462.6000976562</ele>
        <time>2024-10-15T10:09:26.000Z</time>
      </trkpt>
      <trkpt lat="45.09798" lon="5.97454">
        <ele>2462.3999023438</ele>
        <time>2024-10-15T10:09:27.000Z</time>
      </trkpt>
      <trkpt lat="45.09798" lon="5.97454">
        <ele>2462.3999023438</ele>
        <time>2024-10-15T10:09:28.000Z</time>
      </trkpt>
      <trkpt lat="45.09798" lon="5.97454">
        <ele>2462.1999511719</ele>
        <time>2024-10-15T10:09:29.000Z</time>
      </trkpt>
      <trkpt lat="45.09798" lon="5.97454">
        <ele>2462</ele>
        <time>2024-10-15T10:09:30.000Z</time>
      </trkpt>
      <trkpt lat="45.09798" lon="5.97454">
        <ele>2461.8000488281</ele>
        <time>2024-10-15T10:09:31.000Z</time>
      </trkpt>
      <trkpt lat="45.09798" lon="5.97454">
        <ele>2461.8000488281</ele>
        <time>2024-10-15T10:09:32.000Z</time>
      </trkpt>
      <trkpt lat="45.09798" lon="5.97454">
        <ele>2461.8000488281</ele>
        <time>2024-10-15T10:09:33.000Z</time>
      </trkpt>
      <trkpt lat="45.09798" lon="5.97454">
        <ele>2461.8000488281</ele>
        <time>2024-10-15T10:09:34.000Z</time>
      </trkpt>
      <trkpt lat="45.09798" lon="5.97454">
        <ele>2461.8000488281</ele>
        <time>2024-10-15T10:09:35.000Z</time>
      </trkpt>
      <trkpt lat="45.09798" lon="5.97454">
        <ele>2461.8000488281</ele>
        <time>2024-10-15T10:09:36.000Z</time>
      </trkpt>
      <trkpt lat="45.09798" lon="5.97454">
        <ele>2462</ele>
        <time>2024-10-15T10:09:37.000Z</time>
      </trkpt>
      <trkpt lat="45.09797" lon="5.97454">
        <ele>2462</ele>
        <time>2024-10-15T10:09:38.000Z</time>
      </trkpt>
      <trkpt lat="45.09797" lon="5.97454">
        <ele>2462</ele>
        <time>2024-10-15T10:09:39.000Z</time>
      </trkpt>
      <trkpt lat="45.09797" lon="5.97454">
        <ele>2462</ele>
        <time>2024-10-15T10:09:40.000Z</time>
      </trkpt>
      <trkpt lat="45.09797" lon="5.97455">
        <ele>2462</ele>
        <time>2024-10-15T10:09:41.000Z</time>
      </trkpt>
      <trkpt lat="45.09797" lon="5.97455">
        <ele>2462</ele>
        <time>2024-10-15T10:09:42.000Z</time>
      </trkpt>
      <trkpt lat="45.09797" lon="5.97455">
        <ele>2462</ele>
        <time>2024-10-15T10:09:43.000Z</time>
      </trkpt>
      <trkpt lat="45.09797" lon="5.97455">
        <ele>2462</ele>
        <time>2024-10-15T10:09:44.000Z</time>
      </trkpt>
      <trkpt lat="45.09797" lon="5.97455">
        <ele>2462</ele>
        <time>2024-10-15T10:09:45.000Z</time>
      </trkpt>
      <trkpt lat="45.09797" lon="5.97455">
        <ele>2462</ele>
        <time>2024-10-15T10:09:46.000Z</time>
      </trkpt>
      <trkpt lat="45.09797" lon="5.97455">
        <ele>2462</ele>
        <time>2024-10-15T10:09:47.000Z</time>
      </trkpt>
      <trkpt lat="45.09797" lon="5.97455">
        <ele>2462</ele>
        <time>2024-10-15T10:09:48.000Z</time>
      </trkpt>
      <trkpt lat="45.09797" lon="5.97455">
        <ele>2462</ele>
        <time>2024-10-15T10:09:49.000Z</time>
      </trkpt>
      <trkpt lat="45.09797" lon="5.97455">
        <ele>2462</ele>
        <time>2024-10-15T10:09:50.000Z</time>
      </trkpt>
      <trkpt lat="45.09797" lon="5.97455">
        <ele>2462</ele>
        <time>2024-10-15T10:09:51.000Z</time>
      </trkpt>
      <trkpt lat="45.09797" lon="5.97455">
        <ele>2462</ele>
        <time>2024-10-15T10:09:52.000Z</time>
      </trkpt>
      <trkpt lat="45.09797" lon="5.97455">
        <ele>2462</ele>
        <time>2024-10-15T10:09:53.000Z</time>
      </trkpt>
      <trkpt lat="45.09797" lon="5.97455">
        <ele>2462</ele>
        <time>2024-10-15T10:09:54.000Z</time>
      </trkpt>
      <trkpt lat="45.09797" lon="5.97455">
        <ele>2462</ele>
        <time>2024-10-15T10:09:55.000Z</time>
      </trkpt>
      <trkpt lat="45.09797" lon="5.97455">
        <ele>2461.8000488281</ele>
        <time>2024-10-15T10:09:56.000Z</time>
      </trkpt>
      <trkpt lat="45.09797" lon="5.97455">
        <ele>2461.8000488281</ele>
        <time>2024-10-15T10:09:57.000Z</time>
      </trkpt>
      <trkpt lat="45.09797" lon="5.97455">
        <ele>2461.8000488281</ele>
        <time>2024-10-15T10:09:58.000Z</time>
      </trkpt>
      <trkpt lat="45.09797" lon="5.97455">
        <ele>2461.8000488281</ele>
        <time>2024-10-15T10:09:59.000Z</time>
      </trkpt>
      <trkpt lat="45.09797" lon="5.97455">
        <ele>2461.8000488281</ele>
        <time>2024-10-15T10:10:00.000Z</time>
      </trkpt>
      <trkpt lat="45.09797" lon="5.97455">
        <ele>2461.8000488281</ele>
        <time>2024-10-15T10:10:01.000Z</time>
      </trkpt>
      <trkpt lat="45.09797" lon="5.97455">
        <ele>2461.8000488281</ele>
        <time>2024-10-15T10:10:02.000Z</time>
      </trkpt>
      <trkpt lat="45.09797" lon="5.97455">
        <ele>2461.8000488281</ele>
        <time>2024-10-15T10:10:03.000Z</time>
      </trkpt>
      <trkpt lat="45.09797" lon="5.97455">
        <ele>2461.8000488281</ele>
        <time>2024-10-15T10:10:04.000Z</time>
      </trkpt>
      <trkpt lat="45.09797" lon="5.97455">
        <ele>2461.8000488281</ele>
        <time>2024-10-15T10:10:05.000Z</time>
      </trkpt>
      <trkpt lat="45.09797" lon="5.97455">
        <ele>2461.8000488281</ele>
        <time>2024-10-15T10:10:06.000Z</time>
      </trkpt>
      <trkpt lat="45.09797" lon="5.97455">
        <ele>2461.8000488281</ele>
        <time>2024-10-15T10:10:07.000Z</time>
      </trkpt>
      <trkpt lat="45.09797" lon="5.97455">
        <ele>2461.8000488281</ele>
        <time>2024-10-15T10:10:08.000Z</time>
      </trkpt>
      <trkpt lat="45.09797" lon="5.97455">
        <ele>2461.8000488281</ele>
        <time>2024-10-15T10:10:09.000Z</time>
      </trkpt>
      <trkpt lat="45.09797" lon="5.97455">
        <ele>2461.8000488281</ele>
        <time>2024-10-15T10:10:10.000Z</time>
      </trkpt>
      <trkpt lat="45.09797" lon="5.97455">
        <ele>2461.8000488281</ele>
        <time>2024-10-15T10:10:11.000Z</time>
      </trkpt>
      <trkpt lat="45.09797" lon="5.97455">
        <ele>2461.8000488281</ele>
        <time>2024-10-15T10:10:12.000Z</time>
      </trkpt>
      <trkpt lat="45.09797" lon="5.97455">
        <ele>2461.8000488281</ele>
        <time>2024-10-15T10:10:13.000Z</time>
      </trkpt>
      <trkpt lat="45.09797" lon="5.97455">
        <ele>2461.8000488281</ele>
        <time>2024-10-15T10:10:14.000Z</time>
      </trkpt>
      <trkpt lat="45.09797" lon="5.97455">
        <ele>2461.8000488281</ele>
        <time>2024-10-15T10:10:15.000Z</time>
      </trkpt>
      <trkpt lat="45.09797" lon="5.97455">
        <ele>2461.8000488281</ele>
        <time>2024-10-15T10:10:16.000Z</time>
      </trkpt>
      <trkpt lat="45.09797" lon="5.97455">
        <ele>2461.8000488281</ele>
        <time>2024-10-15T10:10:17.000Z</time>
      </trkpt>
      <trkpt lat="45.09797" lon="5.97455">
        <ele>2461.8000488281</ele>
        <time>2024-10-15T10:10:18.000Z</time>
      </trkpt>
      <trkpt lat="45.09797" lon="5.97455">
        <ele>2461.8000488281</ele>
        <time>2024-10-15T10:10:19.000Z</time>
      </trkpt>
      <trkpt lat="45.09797" lon="5.97455">
        <ele>2461.6000976562</ele>
        <time>2024-10-15T10:10:20.000Z</time>
      </trkpt>
      <trkpt lat="45.09797" lon="5.97455">
        <ele>2461.6000976562</ele>
        <time>2024-10-15T10:10:21.000Z</time>
      </trkpt>
      <trkpt lat="45.09797" lon="5.97455">
        <ele>2461.6000976562</ele>
        <time>2024-10-15T10:10:22.000Z</time>
      </trkpt>
      <trkpt lat="45.09797" lon="5.97455">
        <ele>2461.6000976562</ele>
        <time>2024-10-15T10:10:23.000Z</time>
      </trkpt>
      <trkpt lat="45.09797" lon="5.97455">
        <ele>2461.6000976562</ele>
        <time>2024-10-15T10:10:24.000Z</time>
      </trkpt>
      <trkpt lat="45.09797" lon="5.97455">
        <ele>2461.6000976562</ele>
        <time>2024-10-15T10:10:25.000Z</time>
      </trkpt>
      <trkpt lat="45.09797" lon="5.97455">
        <ele>2461.6000976562</ele>
        <time>2024-10-15T10:10:26.000Z</time>
      </trkpt>
      <trkpt lat="45.09797" lon="5.97455">
        <ele>2461.6000976562</ele>
        <time>2024-10-15T10:10:27.000Z</time>
      </trkpt>
      <trkpt lat="45.09797" lon="5.97455">
        <ele>2461.6000976562</ele>
        <time>2024-10-15T10:10:28.000Z</time>
      </trkpt>
      <trkpt lat="45.09797" lon="5.97455">
        <ele>2461.6000976562</ele>
        <time>2024-10-15T10:10:29.000Z</time>
      </trkpt>
      <trkpt lat="45.09797" lon="5.97455">
        <ele>2461.6000976562</ele>
        <time>2024-10-15T10:10:30.000Z</time>
      </trkpt>
      <trkpt lat="45.09797" lon="5.97455">
        <ele>2461.6000976562</ele>
        <time>2024-10-15T10:10:31.000Z</time>
      </trkpt>
      <trkpt lat="45.09797" lon="5.97455">
        <ele>2461.6000976562</ele>
        <time>2024-10-15T10:10:32.000Z</time>
      </trkpt>
      <trkpt lat="45.09797" lon="5.97455">
        <ele>2461.3999023438</ele>
        <time>2024-10-15T10:10:33.000Z</time>
      </trkpt>
      <trkpt lat="45.09797" lon="5.97455">
        <ele>2461.3999023438</ele>
        <time>2024-10-15T10:10:34.000Z</time>
      </trkpt>
      <trkpt lat="45.09797" lon="5.97455">
        <ele>2461.1999511719</ele>
        <time>2024-10-15T10:10:35.000Z</time>
      </trkpt>
      <trkpt lat="45.09797" lon="5.97455">
        <ele>2461.1999511719</ele>
        <time>2024-10-15T10:10:36.000Z</time>
      </trkpt>
      <trkpt lat="45.09797" lon="5.97455">
        <ele>2461.1999511719</ele>
        <time>2024-10-15T10:10:37.000Z</time>
      </trkpt>
      <trkpt lat="45.09797" lon="5.97455">
        <ele>2461.1999511719</ele>
        <time>2024-10-15T10:10:38.000Z</time>
      </trkpt>
      <trkpt lat="45.09797" lon="5.97455">
        <ele>2461</ele>
        <time>2024-10-15T10:10:39.000Z</time>
      </trkpt>
      <trkpt lat="45.09797" lon="5.97455">
        <ele>2461</ele>
        <time>2024-10-15T10:10:40.000Z</time>
      </trkpt>
      <trkpt lat="45.09797" lon="5.97455">
        <ele>2460.8000488281</ele>
        <time>2024-10-15T10:10:41.000Z</time>
      </trkpt>
      <trkpt lat="45.09797" lon="5.97455">
        <ele>2461</ele>
        <time>2024-10-15T10:10:42.000Z</time>
      </trkpt>
      <trkpt lat="45.09797" lon="5.97455">
        <ele>2461</ele>
        <time>2024-10-15T10:10:43.000Z</time>
      </trkpt>
      <trkpt lat="45.09797" lon="5.97455">
        <ele>2461</ele>
        <time>2024-10-15T10:10:44.000Z</time>
      </trkpt>
      <trkpt lat="45.09797" lon="5.97455">
        <ele>2461</ele>
        <time>2024-10-15T10:10:45.000Z</time>
      </trkpt>
      <trkpt lat="45.09797" lon="5.97455">
        <ele>2461</ele>
        <time>2024-10-15T10:10:46.000Z</time>
      </trkpt>
      <trkpt lat="45.09797" lon="5.97455">
        <ele>2461</ele>
        <time>2024-10-15T10:10:47.000Z</time>
      </trkpt>
      <trkpt lat="45.09797" lon="5.97455">
        <ele>2461.1999511719</ele>
        <time>2024-10-15T10:10:48.000Z</time>
      </trkpt>
      <trkpt lat="45.09797" lon="5.97455">
        <ele>2461.1999511719</ele>
        <time>2024-10-15T10:10:49.000Z</time>
      </trkpt>
      <trkpt lat="45.09797" lon="5.97455">
        <ele>2461.1999511719</ele>
        <time>2024-10-15T10:10:50.000Z</time>
      </trkpt>
      <trkpt lat="45.09797" lon="5.97455">
        <ele>2461.1999511719</ele>
        <time>2024-10-15T10:10:51.000Z</time>
      </trkpt>
      <trkpt lat="45.09797" lon="5.97455">
        <ele>2461.1999511719</ele>
        <time>2024-10-15T10:10:52.000Z</time>
      </trkpt>
      <trkpt lat="45.09797" lon="5.97455">
        <ele>2461.1999511719</ele>
        <time>2024-10-15T10:10:53.000Z</time>
      </trkpt>
      <trkpt lat="45.09797" lon="5.97455">
        <ele>2461.1999511719</ele>
        <time>2024-10-15T10:10:54.000Z</time>
      </trkpt>
      <trkpt lat="45.09797" lon="5.97455">
        <ele>2461.1999511719</ele>
        <time>2024-10-15T10:10:55.000Z</time>
      </trkpt>
      <trkpt lat="45.09797" lon="5.97455">
        <ele>2461.1999511719</ele>
        <time>2024-10-15T10:10:56.000Z</time>
      </trkpt>
      <trkpt lat="45.09797" lon="5.97455">
        <ele>2461.1999511719</ele>
        <time>2024-10-15T10:10:57.000Z</time>
      </trkpt>
      <trkpt lat="45.09797" lon="5.97455">
        <ele>2461.1999511719</ele>
        <time>2024-10-15T10:10:58.000Z</time>
      </trkpt>
      <trkpt lat="45.09797" lon="5.97455">
        <ele>2461.1999511719</ele>
        <time>2024-10-15T10:10:59.000Z</time>
      </trkpt>
      <trkpt lat="45.09797" lon="5.97455">
        <ele>2461.3999023438</ele>
        <time>2024-10-15T10:11:00.000Z</time>
      </trkpt>
      <trkpt lat="45.09797" lon="5.97455">
        <ele>2461.3999023438</ele>
        <time>2024-10-15T10:11:01.000Z</time>
      </trkpt>
      <trkpt lat="45.09797" lon="5.97455">
        <ele>2461.6000976562</ele>
        <time>2024-10-15T10:11:02.000Z</time>
      </trkpt>
      <trkpt lat="45.09797" lon="5.97455">
        <ele>2461.6000976562</ele>
        <time>2024-10-15T10:11:03.000Z</time>
      </trkpt>
      <trkpt lat="45.09797" lon="5.97455">
        <ele>2461.8000488281</ele>
        <time>2024-10-15T10:11:04.000Z</time>
      </trkpt>
      <trkpt lat="45.09797" lon="5.97455">
        <ele>2461.8000488281</ele>
        <time>2024-10-15T10:11:05.000Z</time>
      </trkpt>
      <trkpt lat="45.09797" lon="5.97455">
        <ele>2461.8000488281</ele>
        <time>2024-10-15T10:11:06.000Z</time>
      </trkpt>
      <trkpt lat="45.09797" lon="5.97455">
        <ele>2461.8000488281</ele>
        <time>2024-10-15T10:11:07.000Z</time>
      </trkpt>
      <trkpt lat="45.09797" lon="5.97455">
        <ele>2461.8000488281</ele>
        <time>2024-10-15T10:11:08.000Z</time>
      </trkpt>
      <trkpt lat="45.09797" lon="5.97455">
        <ele>2461.8000488281</ele>
        <time>2024-10-15T10:11:09.000Z</time>
      </trkpt>
      <trkpt lat="45.09797" lon="5.97455">
        <ele>2461.8000488281</ele>
        <time>2024-10-15T10:11:10.000Z</time>
      </trkpt>
      <trkpt lat="45.09797" lon="5.97455">
        <ele>2461.8000488281</ele>
        <time>2024-10-15T10:11:11.000Z</time>
      </trkpt>
      <trkpt lat="45.09797" lon="5.97455">
        <ele>2461.8000488281</ele>
        <time>2024-10-15T10:11:12.000Z</time>
      </trkpt>
      <trkpt lat="45.09797" lon="5.97455">
        <ele>2462</ele>
        <time>2024-10-15T10:11:13.000Z</time>
      </trkpt>
      <trkpt lat="45.09797" lon="5.97455">
        <ele>2462</ele>
        <time>2024-10-15T10:11:14.000Z</time>
      </trkpt>
      <trkpt lat="45.09797" lon="5.97455">
        <ele>2462</ele>
        <time>2024-10-15T10:11:15.000Z</time>
      </trkpt>
      <trkpt lat="45.09797" lon="5.97455">
        <ele>2462</ele>
        <time>2024-10-15T10:11:16.000Z</time>
      </trkpt>
      <trkpt lat="45.09797" lon="5.97455">
        <ele>2462</ele>
        <time>2024-10-15T10:11:17.000Z</time>
      </trkpt>
      <trkpt lat="45.09797" lon="5.97455">
        <ele>2462</ele>
        <time>2024-10-15T10:11:18.000Z</time>
      </trkpt>
      <trkpt lat="45.09797" lon="5.97455">
        <ele>2462</ele>
        <time>2024-10-15T10:11:19.000Z</time>
      </trkpt>
      <trkpt lat="45.09797" lon="5.97455">
        <ele>2462</ele>
        <time>2024-10-15T10:11:20.000Z</time>
      </trkpt>
      <trkpt lat="45.09797" lon="5.97455">
        <ele>2462</ele>
        <time>2024-10-15T10:11:21.000Z</time>
      </trkpt>
      <trkpt lat="45.09797" lon="5.97455">
        <ele>2462</ele>
        <time>2024-10-15T10:11:22.000Z</time>
      </trkpt>
      <trkpt lat="45.09797" lon="5.97455">
        <ele>2462</ele>
        <time>2024-10-15T10:11:23.000Z</time>
      </trkpt>
      <trkpt lat="45.09797" lon="5.97455">
        <ele>2462</ele>
        <time>2024-10-15T10:11:24.000Z</time>
      </trkpt>
      <trkpt lat="45.09797" lon="5.97455">
        <ele>2462</ele>
        <time>2024-10-15T10:11:25.000Z</time>
      </trkpt>
      <trkpt lat="45.09797" lon="5.97455">
        <ele>2462</ele>
        <time>2024-10-15T10:11:26.000Z</time>
      </trkpt>
      <trkpt lat="45.09797" lon="5.97455">
        <ele>2462</ele>
        <time>2024-10-15T10:11:27.000Z</time>
      </trkpt>
      <trkpt lat="45.09797" lon="5.97455">
        <ele>2462</ele>
        <time>2024-10-15T10:11:28.000Z</time>
      </trkpt>
      <trkpt lat="45.09797" lon="5.97455">
        <ele>2462</ele>
        <time>2024-10-15T10:11:29.000Z</time>
      </trkpt>
      <trkpt lat="45.09797" lon="5.97455">
        <ele>2462</ele>
        <time>2024-10-15T10:11:30.000Z</time>
      </trkpt>
      <trkpt lat="45.09797" lon="5.97455">
        <ele>2462.1999511719</ele>
        <time>2024-10-15T10:11:31.000Z</time>
      </trkpt>
      <trkpt lat="45.09797" lon="5.97455">
        <ele>2462.3999023438</ele>
        <time>2024-10-15T10:11:32.000Z</time>
      </trkpt>
      <trkpt lat="45.09797" lon="5.97455">
        <ele>2462.3999023438</ele>
        <time>2024-10-15T10:11:33.000Z</time>
      </trkpt>
      <trkpt lat="45.09797" lon="5.97455">
        <ele>2462.3999023438</ele>
        <time>2024-10-15T10:11:34.000Z</time>
      </trkpt>
      <trkpt lat="45.09797" lon="5.97455">
        <ele>2462.6000976562</ele>
        <time>2024-10-15T10:11:35.000Z</time>
      </trkpt>
      <trkpt lat="45.09797" lon="5.97455">
        <ele>2462.6000976562</ele>
        <time>2024-10-15T10:11:36.000Z</time>
      </trkpt>
      <trkpt lat="45.09797" lon="5.97455">
        <ele>2462.6000976562</ele>
        <time>2024-10-15T10:11:37.000Z</time>
      </trkpt>
      <trkpt lat="45.09797" lon="5.97455">
        <ele>2462.6000976562</ele>
        <time>2024-10-15T10:11:38.000Z</time>
      </trkpt>
      <trkpt lat="45.09797" lon="5.97455">
        <ele>2462.8000488281</ele>
        <time>2024-10-15T10:11:39.000Z</time>
      </trkpt>
      <trkpt lat="45.09797" lon="5.97455">
        <ele>2462.8000488281</ele>
        <time>2024-10-15T10:11:40.000Z</time>
      </trkpt>
      <trkpt lat="45.09797" lon="5.97455">
        <ele>2462.8000488281</ele>
        <time>2024-10-15T10:11:41.000Z</time>
      </trkpt>
      <trkpt lat="45.09797" lon="5.97455">
        <ele>2462.8000488281</ele>
        <time>2024-10-15T10:11:42.000Z</time>
      </trkpt>
      <trkpt lat="45.09797" lon="5.97455">
        <ele>2462.8000488281</ele>
        <time>2024-10-15T10:11:43.000Z</time>
      </trkpt>
      <trkpt lat="45.09797" lon="5.97455">
        <ele>2462.6000976562</ele>
        <time>2024-10-15T10:11:44.000Z</time>
      </trkpt>
      <trkpt lat="45.09797" lon="5.97455">
        <ele>2462.6000976562</ele>
        <time>2024-10-15T10:11:45.000Z</time>
      </trkpt>
      <trkpt lat="45.09797" lon="5.97455">
        <ele>2462.6000976562</ele>
        <time>2024-10-15T10:11:46.000Z</time>
      </trkpt>
      <trkpt lat="45.09797" lon="5.97455">
        <ele>2462.6000976562</ele>
        <time>2024-10-15T10:11:47.000Z</time>
      </trkpt>
      <trkpt lat="45.09797" lon="5.97455">
        <ele>2462.6000976562</ele>
        <time>2024-10-15T10:11:48.000Z</time>
      </trkpt>
      <trkpt lat="45.09797" lon="5.97455">
        <ele>2462.6000976562</ele>
        <time>2024-10-15T10:11:49.000Z</time>
      </trkpt>
      <trkpt lat="45.09797" lon="5.97455">
        <ele>2462.6000976562</ele>
        <time>2024-10-15T10:11:50.000Z</time>
      </trkpt>
      <trkpt lat="45.09797" lon="5.97455">
        <ele>2462.6000976562</ele>
        <time>2024-10-15T10:11:51.000Z</time>
      </trkpt>
      <trkpt lat="45.09797" lon="5.97455">
        <ele>2462.6000976562</ele>
        <time>2024-10-15T10:11:52.000Z</time>
      </trkpt>
      <trkpt lat="45.09797" lon="5.97455">
        <ele>2462.6000976562</ele>
        <time>2024-10-15T10:11:53.000Z</time>
      </trkpt>
      <trkpt lat="45.09797" lon="5.97455">
        <ele>2462.6000976562</ele>
        <time>2024-10-15T10:11:54.000Z</time>
      </trkpt>
      <trkpt lat="45.09797" lon="5.97455">
        <ele>2462.6000976562</ele>
        <time>2024-10-15T10:11:55.000Z</time>
      </trkpt>
      <trkpt lat="45.09797" lon="5.97455">
        <ele>2462.6000976562</ele>
        <time>2024-10-15T10:11:56.000Z</time>
      </trkpt>
      <trkpt lat="45.09797" lon="5.97455">
        <ele>2462.8000488281</ele>
        <time>2024-10-15T10:11:57.000Z</time>
      </trkpt>
      <trkpt lat="45.09797" lon="5.97455">
        <ele>2462.8000488281</ele>
        <time>2024-10-15T10:11:58.000Z</time>
      </trkpt>
      <trkpt lat="45.09797" lon="5.97455">
        <ele>2462.8000488281</ele>
        <time>2024-10-15T10:11:59.000Z</time>
      </trkpt>
      <trkpt lat="45.09797" lon="5.97455">
        <ele>2462.8000488281</ele>
        <time>2024-10-15T10:12:00.000Z</time>
      </trkpt>
      <trkpt lat="45.09797" lon="5.97455">
        <ele>2462.8000488281</ele>
        <time>2024-10-15T10:12:01.000Z</time>
      </trkpt>
      <trkpt lat="45.09797" lon="5.97455">
        <ele>2462.8000488281</ele>
        <time>2024-10-15T10:12:02.000Z</time>
      </trkpt>
      <trkpt lat="45.09797" lon="5.97455">
        <ele>2462.8000488281</ele>
        <time>2024-10-15T10:12:03.000Z</time>
      </trkpt>
      <trkpt lat="45.09797" lon="5.97455">
        <ele>2462.8000488281</ele>
        <time>2024-10-15T10:12:04.000Z</time>
      </trkpt>
      <trkpt lat="45.09797" lon="5.97455">
        <ele>2462.8000488281</ele>
        <time>2024-10-15T10:12:05.000Z</time>
      </trkpt>
      <trkpt lat="45.09797" lon="5.97455">
        <ele>2462.8000488281</ele>
        <time>2024-10-15T10:12:06.000Z</time>
      </trkpt>
      <trkpt lat="45.09797" lon="5.97455">
        <ele>2462.8000488281</ele>
        <time>2024-10-15T10:12:07.000Z</time>
      </trkpt>
      <trkpt lat="45.09797" lon="5.97455">
        <ele>2462.8000488281</ele>
        <time>2024-10-15T10:12:08.000Z</time>
      </trkpt>
      <trkpt lat="45.09797" lon="5.97455">
        <ele>2462.8000488281</ele>
        <time>2024-10-15T10:12:09.000Z</time>
      </trkpt>
      <trkpt lat="45.09797" lon="5.97455">
        <ele>2463</ele>
        <time>2024-10-15T10:12:10.000Z</time>
      </trkpt>
      <trkpt lat="45.09797" lon="5.97455">
        <ele>2463</ele>
        <time>2024-10-15T10:12:11.000Z</time>
      </trkpt>
      <trkpt lat="45.09797" lon="5.97455">
        <ele>2463</ele>
        <time>2024-10-15T10:12:12.000Z</time>
      </trkpt>
      <trkpt lat="45.09797" lon="5.97455">
        <ele>2463.1999511719</ele>
        <time>2024-10-15T10:12:13.000Z</time>
      </trkpt>
      <trkpt lat="45.09797" lon="5.97455">
        <ele>2463.1999511719</ele>
        <time>2024-10-15T10:12:14.000Z</time>
      </trkpt>
      <trkpt lat="45.09797" lon="5.97455">
        <ele>2463.1999511719</ele>
        <time>2024-10-15T10:12:15.000Z</time>
      </trkpt>
      <trkpt lat="45.09797" lon="5.97455">
        <ele>2463.1999511719</ele>
        <time>2024-10-15T10:12:16.000Z</time>
      </trkpt>
      <trkpt lat="45.09797" lon="5.97455">
        <ele>2463.1999511719</ele>
        <time>2024-10-15T10:12:17.000Z</time>
      </trkpt>
      <trkpt lat="45.09797" lon="5.97455">
        <ele>2463.1999511719</ele>
        <time>2024-10-15T10:12:18.000Z</time>
      </trkpt>
      <trkpt lat="45.09797" lon="5.97455">
        <ele>2463.1999511719</ele>
        <time>2024-10-15T10:12:19.000Z</time>
      </trkpt>
      <trkpt lat="45.09797" lon="5.97455">
        <ele>2463</ele>
        <time>2024-10-15T10:12:20.000Z</time>
      </trkpt>
      <trkpt lat="45.09797" lon="5.97455">
        <ele>2463</ele>
        <time>2024-10-15T10:12:21.000Z</time>
      </trkpt>
      <trkpt lat="45.09797" lon="5.97455">
        <ele>2463</ele>
        <time>2024-10-15T10:12:22.000Z</time>
      </trkpt>
      <trkpt lat="45.09797" lon="5.97455">
        <ele>2463</ele>
        <time>2024-10-15T10:12:23.000Z</time>
      </trkpt>
      <trkpt lat="45.09797" lon="5.97455">
        <ele>2462.8000488281</ele>
        <time>2024-10-15T10:12:24.000Z</time>
      </trkpt>
      <trkpt lat="45.09797" lon="5.97455">
        <ele>2462.8000488281</ele>
        <time>2024-10-15T10:12:25.000Z</time>
      </trkpt>
      <trkpt lat="45.09797" lon="5.97455">
        <ele>2462.8000488281</ele>
        <time>2024-10-15T10:12:26.000Z</time>
      </trkpt>
      <trkpt lat="45.09797" lon="5.97455">
        <ele>2462.8000488281</ele>
        <time>2024-10-15T10:12:27.000Z</time>
      </trkpt>
      <trkpt lat="45.09797" lon="5.97455">
        <ele>2462.8000488281</ele>
        <time>2024-10-15T10:12:28.000Z</time>
      </trkpt>
      <trkpt lat="45.09797" lon="5.97455">
        <ele>2462.8000488281</ele>
        <time>2024-10-15T10:12:29.000Z</time>
      </trkpt>
      <trkpt lat="45.09797" lon="5.97455">
        <ele>2462.8000488281</ele>
        <time>2024-10-15T10:12:30.000Z</time>
      </trkpt>
      <trkpt lat="45.09797" lon="5.97455">
        <ele>2462.8000488281</ele>
        <time>2024-10-15T10:12:31.000Z</time>
      </trkpt>
      <trkpt lat="45.09797" lon="5.97455">
        <ele>2462.8000488281</ele>
        <time>2024-10-15T10:12:32.000Z</time>
      </trkpt>
      <trkpt lat="45.09797" lon="5.97455">
        <ele>2462.8000488281</ele>
        <time>2024-10-15T10:12:33.000Z</time>
      </trkpt>
      <trkpt lat="45.09797" lon="5.97455">
        <ele>2462.8000488281</ele>
        <time>2024-10-15T10:12:34.000Z</time>
      </trkpt>
      <trkpt lat="45.09797" lon="5.97455">
        <ele>2462.8000488281</ele>
        <time>2024-10-15T10:12:35.000Z</time>
      </trkpt>
      <trkpt lat="45.09797" lon="5.97455">
        <ele>2462.8000488281</ele>
        <time>2024-10-15T10:12:36.000Z</time>
      </trkpt>
      <trkpt lat="45.09797" lon="5.97455">
        <ele>2462.6000976562</ele>
        <time>2024-10-15T10:12:37.000Z</time>
      </trkpt>
      <trkpt lat="45.09797" lon="5.97455">
        <ele>2462.6000976562</ele>
        <time>2024-10-15T10:12:38.000Z</time>
      </trkpt>
      <trkpt lat="45.09797" lon="5.97455">
        <ele>2462.6000976562</ele>
        <time>2024-10-15T10:12:39.000Z</time>
      </trkpt>
      <trkpt lat="45.09797" lon="5.97455">
        <ele>2462.6000976562</ele>
        <time>2024-10-15T10:12:40.000Z</time>
      </trkpt>
      <trkpt lat="45.09797" lon="5.97455">
        <ele>2462.6000976562</ele>
        <time>2024-10-15T10:12:41.000Z</time>
      </trkpt>
      <trkpt lat="45.09797" lon="5.97455">
        <ele>2462.6000976562</ele>
        <time>2024-10-15T10:12:42.000Z</time>
      </trkpt>
      <trkpt lat="45.09797" lon="5.97455">
        <ele>2462.6000976562</ele>
        <time>2024-10-15T10:12:43.000Z</time>
      </trkpt>
      <trkpt lat="45.09797" lon="5.97455">
        <ele>2462.6000976562</ele>
        <time>2024-10-15T10:12:44.000Z</time>
      </trkpt>
      <trkpt lat="45.09797" lon="5.97455">
        <ele>2462.6000976562</ele>
        <time>2024-10-15T10:12:45.000Z</time>
      </trkpt>
      <trkpt lat="45.09797" lon="5.97455">
        <ele>2462.6000976562</ele>
        <time>2024-10-15T10:12:46.000Z</time>
      </trkpt>
      <trkpt lat="45.09797" lon="5.97455">
        <ele>2462.6000976562</ele>
        <time>2024-10-15T10:12:47.000Z</time>
      </trkpt>
      <trkpt lat="45.09797" lon="5.97455">
        <ele>2462.6000976562</ele>
        <time>2024-10-15T10:12:48.000Z</time>
      </trkpt>
      <trkpt lat="45.09797" lon="5.97455">
        <ele>2462.6000976562</ele>
        <time>2024-10-15T10:12:49.000Z</time>
      </trkpt>
      <trkpt lat="45.09797" lon="5.97455">
        <ele>2462.6000976562</ele>
        <time>2024-10-15T10:12:50.000Z</time>
      </trkpt>
      <trkpt lat="45.09797" lon="5.97455">
        <ele>2462.8000488281</ele>
        <time>2024-10-15T10:12:51.000Z</time>
      </trkpt>
      <trkpt lat="45.09797" lon="5.97455">
        <ele>2462.6000976562</ele>
        <time>2024-10-15T10:12:52.000Z</time>
      </trkpt>
      <trkpt lat="45.09797" lon="5.97455">
        <ele>2462.6000976562</ele>
        <time>2024-10-15T10:12:53.000Z</time>
      </trkpt>
      <trkpt lat="45.09797" lon="5.97455">
        <ele>2462.6000976562</ele>
        <time>2024-10-15T10:12:54.000Z</time>
      </trkpt>
      <trkpt lat="45.09797" lon="5.97455">
        <ele>2462.8000488281</ele>
        <time>2024-10-15T10:12:55.000Z</time>
      </trkpt>
      <trkpt lat="45.09797" lon="5.97455">
        <ele>2462.8000488281</ele>
        <time>2024-10-15T10:12:56.000Z</time>
      </trkpt>
      <trkpt lat="45.09797" lon="5.97455">
        <ele>2462.8000488281</ele>
        <time>2024-10-15T10:12:57.000Z</time>
      </trkpt>
      <trkpt lat="45.09797" lon="5.97455">
        <ele>2463</ele>
        <time>2024-10-15T10:12:58.000Z</time>
      </trkpt>
      <trkpt lat="45.09797" lon="5.97455">
        <ele>2463</ele>
        <time>2024-10-15T10:12:59.000Z</time>
      </trkpt>
      <trkpt lat="45.09797" lon="5.97455">
        <ele>2463</ele>
        <time>2024-10-15T10:13:00.000Z</time>
      </trkpt>
      <trkpt lat="45.09797" lon="5.97455">
        <ele>2463</ele>
        <time>2024-10-15T10:13:01.000Z</time>
      </trkpt>
      <trkpt lat="45.09797" lon="5.97455">
        <ele>2462.8000488281</ele>
        <time>2024-10-15T10:13:02.000Z</time>
      </trkpt>
      <trkpt lat="45.09797" lon="5.97455">
        <ele>2462.8000488281</ele>
        <time>2024-10-15T10:13:03.000Z</time>
      </trkpt>
      <trkpt lat="45.09797" lon="5.97455">
        <ele>2462.8000488281</ele>
        <time>2024-10-15T10:13:04.000Z</time>
      </trkpt>
      <trkpt lat="45.09797" lon="5.97455">
        <ele>2462.8000488281</ele>
        <time>2024-10-15T10:13:05.000Z</time>
      </trkpt>
      <trkpt lat="45.09797" lon="5.97455">
        <ele>2462.8000488281</ele>
        <time>2024-10-15T10:13:06.000Z</time>
      </trkpt>
      <trkpt lat="45.09797" lon="5.97455">
        <ele>2462.8000488281</ele>
        <time>2024-10-15T10:13:07.000Z</time>
      </trkpt>
      <trkpt lat="45.09797" lon="5.97455">
        <ele>2462.8000488281</ele>
        <time>2024-10-15T10:13:08.000Z</time>
      </trkpt>
      <trkpt lat="45.09797" lon="5.97455">
        <ele>2462.8000488281</ele>
        <time>2024-10-15T10:13:09.000Z</time>
      </trkpt>
      <trkpt lat="45.09797" lon="5.97455">
        <ele>2462.8000488281</ele>
        <time>2024-10-15T10:13:10.000Z</time>
      </trkpt>
      <trkpt lat="45.09797" lon="5.97455">
        <ele>2462.8000488281</ele>
        <time>2024-10-15T10:13:11.000Z</time>
      </trkpt>
      <trkpt lat="45.09797" lon="5.97455">
        <ele>2462.8000488281</ele>
        <time>2024-10-15T10:13:12.000Z</time>
      </trkpt>
      <trkpt lat="45.09797" lon="5.97455">
        <ele>2462.8000488281</ele>
        <time>2024-10-15T10:13:13.000Z</time>
      </trkpt>
      <trkpt lat="45.09797" lon="5.97455">
        <ele>2462.8000488281</ele>
        <time>2024-10-15T10:13:14.000Z</time>
      </trkpt>
      <trkpt lat="45.09797" lon="5.97455">
        <ele>2463</ele>
        <time>2024-10-15T10:13:15.000Z</time>
      </trkpt>
      <trkpt lat="45.09797" lon="5.97455">
        <ele>2463</ele>
        <time>2024-10-15T10:13:16.000Z</time>
      </trkpt>
      <trkpt lat="45.09797" lon="5.97455">
        <ele>2463.1999511719</ele>
        <time>2024-10-15T10:13:17.000Z</time>
      </trkpt>
      <trkpt lat="45.09797" lon="5.97455">
        <ele>2463.1999511719</ele>
        <time>2024-10-15T10:13:18.000Z</time>
      </trkpt>
      <trkpt lat="45.09797" lon="5.97455">
        <ele>2463.1999511719</ele>
        <time>2024-10-15T10:13:19.000Z</time>
      </trkpt>
      <trkpt lat="45.09797" lon="5.97455">
        <ele>2463.1999511719</ele>
        <time>2024-10-15T10:13:20.000Z</time>
      </trkpt>
      <trkpt lat="45.09797" lon="5.97455">
        <ele>2463</ele>
        <time>2024-10-15T10:13:21.000Z</time>
      </trkpt>
      <trkpt lat="45.09797" lon="5.97455">
        <ele>2463</ele>
        <time>2024-10-15T10:13:22.000Z</time>
      </trkpt>
      <trkpt lat="45.09797" lon="5.97455">
        <ele>2463</ele>
        <time>2024-10-15T10:13:23.000Z</time>
      </trkpt>
      <trkpt lat="45.09797" lon="5.97455">
        <ele>2463</ele>
        <time>2024-10-15T10:13:24.000Z</time>
      </trkpt>
      <trkpt lat="45.09797" lon="5.97455">
        <ele>2463</ele>
        <time>2024-10-15T10:13:25.000Z</time>
      </trkpt>
      <trkpt lat="45.09797" lon="5.97455">
        <ele>2463</ele>
        <time>2024-10-15T10:13:26.000Z</time>
      </trkpt>
      <trkpt lat="45.09797" lon="5.97455">
        <ele>2463</ele>
        <time>2024-10-15T10:13:27.000Z</time>
      </trkpt>
      <trkpt lat="45.09797" lon="5.97455">
        <ele>2463</ele>
        <time>2024-10-15T10:13:28.000Z</time>
      </trkpt>
      <trkpt lat="45.09797" lon="5.97455">
        <ele>2463.1999511719</ele>
        <time>2024-10-15T10:13:29.000Z</time>
      </trkpt>
      <trkpt lat="45.09797" lon="5.97455">
        <ele>2463.1999511719</ele>
        <time>2024-10-15T10:13:30.000Z</time>
      </trkpt>
      <trkpt lat="45.09797" lon="5.97455">
        <ele>2463.1999511719</ele>
        <time>2024-10-15T10:13:31.000Z</time>
      </trkpt>
      <trkpt lat="45.09797" lon="5.97455">
        <ele>2463.3999023438</ele>
        <time>2024-10-15T10:13:32.000Z</time>
      </trkpt>
      <trkpt lat="45.09797" lon="5.97455">
        <ele>2463.3999023438</ele>
        <time>2024-10-15T10:13:33.000Z</time>
      </trkpt>
      <trkpt lat="45.09797" lon="5.97455">
        <ele>2463.6000976562</ele>
        <time>2024-10-15T10:13:34.000Z</time>
      </trkpt>
      <trkpt lat="45.09797" lon="5.97455">
        <ele>2463.6000976562</ele>
        <time>2024-10-15T10:13:35.000Z</time>
      </trkpt>
      <trkpt lat="45.09797" lon="5.97455">
        <ele>2463.6000976562</ele>
        <time>2024-10-15T10:13:36.000Z</time>
      </trkpt>
      <trkpt lat="45.09797" lon="5.97455">
        <ele>2463.8000488281</ele>
        <time>2024-10-15T10:13:37.000Z</time>
      </trkpt>
      <trkpt lat="45.09797" lon="5.97455">
        <ele>2463.8000488281</ele>
        <time>2024-10-15T10:13:38.000Z</time>
      </trkpt>
      <trkpt lat="45.09797" lon="5.97455">
        <ele>2463.8000488281</ele>
        <time>2024-10-15T10:13:39.000Z</time>
      </trkpt>
      <trkpt lat="45.09797" lon="5.97455">
        <ele>2463.8000488281</ele>
        <time>2024-10-15T10:13:40.000Z</time>
      </trkpt>
      <trkpt lat="45.09797" lon="5.97455">
        <ele>2463.8000488281</ele>
        <time>2024-10-15T10:13:41.000Z</time>
      </trkpt>
      <trkpt lat="45.09797" lon="5.97455">
        <ele>2463.8000488281</ele>
        <time>2024-10-15T10:13:42.000Z</time>
      </trkpt>
      <trkpt lat="45.09797" lon="5.97455">
        <ele>2463.8000488281</ele>
        <time>2024-10-15T10:13:43.000Z</time>
      </trkpt>
      <trkpt lat="45.09797" lon="5.97455">
        <ele>2464</ele>
        <time>2024-10-15T10:13:44.000Z</time>
      </trkpt>
      <trkpt lat="45.09797" lon="5.97455">
        <ele>2464</ele>
        <time>2024-10-15T10:13:45.000Z</time>
      </trkpt>
      <trkpt lat="45.09797" lon="5.97455">
        <ele>2464</ele>
        <time>2024-10-15T10:13:46.000Z</time>
      </trkpt>
      <trkpt lat="45.09797" lon="5.97455">
        <ele>2464</ele>
        <time>2024-10-15T10:13:47.000Z</time>
      </trkpt>
      <trkpt lat="45.09797" lon="5.97455">
        <ele>2464</ele>
        <time>2024-10-15T10:13:48.000Z</time>
      </trkpt>
      <trkpt lat="45.09797" lon="5.97455">
        <ele>2464</ele>
        <time>2024-10-15T10:13:49.000Z</time>
      </trkpt>
      <trkpt lat="45.09797" lon="5.97455">
        <ele>2464</ele>
        <time>2024-10-15T10:13:50.000Z</time>
      </trkpt>
      <trkpt lat="45.09797" lon="5.97455">
        <ele>2464</ele>
        <time>2024-10-15T10:13:51.000Z</time>
      </trkpt>
      <trkpt lat="45.09797" lon="5.97455">
        <ele>2464</ele>
        <time>2024-10-15T10:13:52.000Z</time>
      </trkpt>
      <trkpt lat="45.09797" lon="5.97455">
        <ele>2463.8000488281</ele>
        <time>2024-10-15T10:13:53.000Z</time>
      </trkpt>
      <trkpt lat="45.09797" lon="5.97455">
        <ele>2463.8000488281</ele>
        <time>2024-10-15T10:13:54.000Z</time>
      </trkpt>
      <trkpt lat="45.09797" lon="5.97455">
        <ele>2463.8000488281</ele>
        <time>2024-10-15T10:13:55.000Z</time>
      </trkpt>
      <trkpt lat="45.09797" lon="5.97455">
        <ele>2463.8000488281</ele>
        <time>2024-10-15T10:13:56.000Z</time>
      </trkpt>
      <trkpt lat="45.09797" lon="5.97455">
        <ele>2463.8000488281</ele>
        <time>2024-10-15T10:13:57.000Z</time>
      </trkpt>
      <trkpt lat="45.09797" lon="5.97455">
        <ele>2463.8000488281</ele>
        <time>2024-10-15T10:13:58.000Z</time>
      </trkpt>
      <trkpt lat="45.09797" lon="5.97455">
        <ele>2463.6000976562</ele>
        <time>2024-10-15T10:13:59.000Z</time>
      </trkpt>
      <trkpt lat="45.09797" lon="5.97455">
        <ele>2463.6000976562</ele>
        <time>2024-10-15T10:14:00.000Z</time>
      </trkpt>
      <trkpt lat="45.09797" lon="5.97455">
        <ele>2463.6000976562</ele>
        <time>2024-10-15T10:14:01.000Z</time>
      </trkpt>
      <trkpt lat="45.09797" lon="5.97455">
        <ele>2463.6000976562</ele>
        <time>2024-10-15T10:14:02.000Z</time>
      </trkpt>
      <trkpt lat="45.09797" lon="5.97455">
        <ele>2463.6000976562</ele>
        <time>2024-10-15T10:14:03.000Z</time>
      </trkpt>
      <trkpt lat="45.09797" lon="5.97455">
        <ele>2463.6000976562</ele>
        <time>2024-10-15T10:14:04.000Z</time>
      </trkpt>
      <trkpt lat="45.09797" lon="5.97455">
        <ele>2463.6000976562</ele>
        <time>2024-10-15T10:14:05.000Z</time>
      </trkpt>
      <trkpt lat="45.09797" lon="5.97455">
        <ele>2463.6000976562</ele>
        <time>2024-10-15T10:14:06.000Z</time>
      </trkpt>
      <trkpt lat="45.09797" lon="5.97455">
        <ele>2463.6000976562</ele>
        <time>2024-10-15T10:14:07.000Z</time>
      </trkpt>
      <trkpt lat="45.09797" lon="5.97455">
        <ele>2463.3999023438</ele>
        <time>2024-10-15T10:14:08.000Z</time>
      </trkpt>
      <trkpt lat="45.09797" lon="5.97455">
        <ele>2463.3999023438</ele>
        <time>2024-10-15T10:14:09.000Z</time>
      </trkpt>
      <trkpt lat="45.09797" lon="5.97455">
        <ele>2463.3999023438</ele>
        <time>2024-10-15T10:14:10.000Z</time>
      </trkpt>
      <trkpt lat="45.09797" lon="5.97455">
        <ele>2463.3999023438</ele>
        <time>2024-10-15T10:14:11.000Z</time>
      </trkpt>
      <trkpt lat="45.09797" lon="5.97455">
        <ele>2463.3999023438</ele>
        <time>2024-10-15T10:14:12.000Z</time>
      </trkpt>
      <trkpt lat="45.09797" lon="5.97455">
        <ele>2463.3999023438</ele>
        <time>2024-10-15T10:14:13.000Z</time>
      </trkpt>
      <trkpt lat="45.09797" lon="5.97455">
        <ele>2463.3999023438</ele>
        <time>2024-10-15T10:14:14.000Z</time>
      </trkpt>
      <trkpt lat="45.09797" lon="5.97455">
        <ele>2463.1999511719</ele>
        <time>2024-10-15T10:14:15.000Z</time>
      </trkpt>
      <trkpt lat="45.09797" lon="5.97455">
        <ele>2463.1999511719</ele>
        <time>2024-10-15T10:14:16.000Z</time>
      </trkpt>
      <trkpt lat="45.09797" lon="5.97455">
        <ele>2463.1999511719</ele>
        <time>2024-10-15T10:14:17.000Z</time>
      </trkpt>
      <trkpt lat="45.09797" lon="5.97455">
        <ele>2463.1999511719</ele>
        <time>2024-10-15T10:14:18.000Z</time>
      </trkpt>
      <trkpt lat="45.09797" lon="5.97455">
        <ele>2463.1999511719</ele>
        <time>2024-10-15T10:14:19.000Z</time>
      </trkpt>
      <trkpt lat="45.09797" lon="5.97455">
        <ele>2463.1999511719</ele>
        <time>2024-10-15T10:14:20.000Z</time>
      </trkpt>
      <trkpt lat="45.09797" lon="5.97455">
        <ele>2463.1999511719</ele>
        <time>2024-10-15T10:14:21.000Z</time>
      </trkpt>
      <trkpt lat="45.09797" lon="5.97455">
        <ele>2463.1999511719</ele>
        <time>2024-10-15T10:14:22.000Z</time>
      </trkpt>
      <trkpt lat="45.09797" lon="5.97455">
        <ele>2463.3999023438</ele>
        <time>2024-10-15T10:14:23.000Z</time>
      </trkpt>
      <trkpt lat="45.09797" lon="5.97455">
        <ele>2463.3999023438</ele>
        <time>2024-10-15T10:14:24.000Z</time>
      </trkpt>
      <trkpt lat="45.09797" lon="5.97455">
        <ele>2463.3999023438</ele>
        <time>2024-10-15T10:14:25.000Z</time>
      </trkpt>
      <trkpt lat="45.09797" lon="5.97455">
        <ele>2463.3999023438</ele>
        <time>2024-10-15T10:14:26.000Z</time>
      </trkpt>
      <trkpt lat="45.09797" lon="5.97455">
        <ele>2463.3999023438</ele>
        <time>2024-10-15T10:14:27.000Z</time>
      </trkpt>
      <trkpt lat="45.09797" lon="5.97455">
        <ele>2463.3999023438</ele>
        <time>2024-10-15T10:14:28.000Z</time>
      </trkpt>
      <trkpt lat="45.09797" lon="5.97455">
        <ele>2463.3999023438</ele>
        <time>2024-10-15T10:14:29.000Z</time>
      </trkpt>
      <trkpt lat="45.09797" lon="5.97455">
        <ele>2463.3999023438</ele>
        <time>2024-10-15T10:14:30.000Z</time>
      </trkpt>
      <trkpt lat="45.09797" lon="5.97455">
        <ele>2463.3999023438</ele>
        <time>2024-10-15T10:14:31.000Z</time>
      </trkpt>
      <trkpt lat="45.09797" lon="5.97455">
        <ele>2463.3999023438</ele>
        <time>2024-10-15T10:14:32.000Z</time>
      </trkpt>
      <trkpt lat="45.09797" lon="5.97455">
        <ele>2463.3999023438</ele>
        <time>2024-10-15T10:14:33.000Z</time>
      </trkpt>
      <trkpt lat="45.09797" lon="5.97455">
        <ele>2463.3999023438</ele>
        <time>2024-10-15T10:14:34.000Z</time>
      </trkpt>
      <trkpt lat="45.09797" lon="5.97455">
        <ele>2463.3999023438</ele>
        <time>2024-10-15T10:14:35.000Z</time>
      </trkpt>
      <trkpt lat="45.09797" lon="5.97455">
        <ele>2463.3999023438</ele>
        <time>2024-10-15T10:14:36.000Z</time>
      </trkpt>
      <trkpt lat="45.09797" lon="5.97455">
        <ele>2463.3999023438</ele>
        <time>2024-10-15T10:14:37.000Z</time>
      </trkpt>
      <trkpt lat="45.09797" lon="5.97455">
        <ele>2463.3999023438</ele>
        <time>2024-10-15T10:14:38.000Z</time>
      </trkpt>
      <trkpt lat="45.09797" lon="5.97455">
        <ele>2463.3999023438</ele>
        <time>2024-10-15T10:14:39.000Z</time>
      </trkpt>
      <trkpt lat="45.09797" lon="5.97455">
        <ele>2463.3999023438</ele>
        <time>2024-10-15T10:14:40.000Z</time>
      </trkpt>
      <trkpt lat="45.09797" lon="5.97455">
        <ele>2463.3999023438</ele>
        <time>2024-10-15T10:14:41.000Z</time>
      </trkpt>
      <trkpt lat="45.09797" lon="5.97455">
        <ele>2463.3999023438</ele>
        <time>2024-10-15T10:14:42.000Z</time>
      </trkpt>
      <trkpt lat="45.09797" lon="5.97455">
        <ele>2463.3999023438</ele>
        <time>2024-10-15T10:14:43.000Z</time>
      </trkpt>
      <trkpt lat="45.09797" lon="5.97455">
        <ele>2463.3999023438</ele>
        <time>2024-10-15T10:14:44.000Z</time>
      </trkpt>
      <trkpt lat="45.09797" lon="5.97455">
        <ele>2463.3999023438</ele>
        <time>2024-10-15T10:14:45.000Z</time>
      </trkpt>
      <trkpt lat="45.09797" lon="5.97455">
        <ele>2463.3999023438</ele>
        <time>2024-10-15T10:14:46.000Z</time>
      </trkpt>
      <trkpt lat="45.09797" lon="5.97455">
        <ele>2463.3999023438</ele>
        <time>2024-10-15T10:14:47.000Z</time>
      </trkpt>
      <trkpt lat="45.09797" lon="5.97455">
        <ele>2463.3999023438</ele>
        <time>2024-10-15T10:14:48.000Z</time>
      </trkpt>
      <trkpt lat="45.09797" lon="5.97455">
        <ele>2463.3999023438</ele>
        <time>2024-10-15T10:14:49.000Z</time>
      </trkpt>
      <trkpt lat="45.09797" lon="5.97455">
        <ele>2463.1999511719</ele>
        <time>2024-10-15T10:14:50.000Z</time>
      </trkpt>
      <trkpt lat="45.09797" lon="5.97455">
        <ele>2463.1999511719</ele>
        <time>2024-10-15T10:14:51.000Z</time>
      </trkpt>
      <trkpt lat="45.09797" lon="5.97455">
        <ele>2463.1999511719</ele>
        <time>2024-10-15T10:14:52.000Z</time>
      </trkpt>
      <trkpt lat="45.09797" lon="5.97455">
        <ele>2463.1999511719</ele>
        <time>2024-10-15T10:14:53.000Z</time>
      </trkpt>
      <trkpt lat="45.09797" lon="5.97455">
        <ele>2463.1999511719</ele>
        <time>2024-10-15T10:14:54.000Z</time>
      </trkpt>
      <trkpt lat="45.09797" lon="5.97455">
        <ele>2463</ele>
        <time>2024-10-15T10:14:55.000Z</time>
      </trkpt>
      <trkpt lat="45.09797" lon="5.97455">
        <ele>2463</ele>
        <time>2024-10-15T10:14:56.000Z</time>
      </trkpt>
      <trkpt lat="45.09797" lon="5.97455">
        <ele>2463</ele>
        <time>2024-10-15T10:14:57.000Z</time>
      </trkpt>
      <trkpt lat="45.09797" lon="5.97455">
        <ele>2463.1999511719</ele>
        <time>2024-10-15T10:14:58.000Z</time>
      </trkpt>
      <trkpt lat="45.09797" lon="5.97455">
        <ele>2463</ele>
        <time>2024-10-15T10:14:59.000Z</time>
      </trkpt>
      <trkpt lat="45.09797" lon="5.97455">
        <ele>2463</ele>
        <time>2024-10-15T10:15:00.000Z</time>
      </trkpt>
      <trkpt lat="45.09797" lon="5.97455">
        <ele>2463</ele>
        <time>2024-10-15T10:15:01.000Z</time>
      </trkpt>
      <trkpt lat="45.09797" lon="5.97455">
        <ele>2463.1999511719</ele>
        <time>2024-10-15T10:15:02.000Z</time>
      </trkpt>
      <trkpt lat="45.09797" lon="5.97455">
        <ele>2463.1999511719</ele>
        <time>2024-10-15T10:15:03.000Z</time>
      </trkpt>
      <trkpt lat="45.09797" lon="5.97455">
        <ele>2463.1999511719</ele>
        <time>2024-10-15T10:15:04.000Z</time>
      </trkpt>
      <trkpt lat="45.09797" lon="5.97455">
        <ele>2463.1999511719</ele>
        <time>2024-10-15T10:15:05.000Z</time>
      </trkpt>
      <trkpt lat="45.09797" lon="5.97455">
        <ele>2463</ele>
        <time>2024-10-15T10:15:06.000Z</time>
      </trkpt>
      <trkpt lat="45.09797" lon="5.97455">
        <ele>2463</ele>
        <time>2024-10-15T10:15:07.000Z</time>
      </trkpt>
      <trkpt lat="45.09797" lon="5.97455">
        <ele>2463</ele>
        <time>2024-10-15T10:15:08.000Z</time>
      </trkpt>
      <trkpt lat="45.09797" lon="5.97455">
        <ele>2463</ele>
        <time>2024-10-15T10:15:09.000Z</time>
      </trkpt>
      <trkpt lat="45.09797" lon="5.97455">
        <ele>2463</ele>
        <time>2024-10-15T10:15:10.000Z</time>
      </trkpt>
      <trkpt lat="45.09797" lon="5.97455">
        <ele>2463</ele>
        <time>2024-10-15T10:15:11.000Z</time>
      </trkpt>
      <trkpt lat="45.09797" lon="5.97455">
        <ele>2463</ele>
        <time>2024-10-15T10:15:12.000Z</time>
      </trkpt>
      <trkpt lat="45.09797" lon="5.97455">
        <ele>2463</ele>
        <time>2024-10-15T10:15:13.000Z</time>
      </trkpt>
      <trkpt lat="45.09797" lon="5.97455">
        <ele>2463</ele>
        <time>2024-10-15T10:15:14.000Z</time>
      </trkpt>
      <trkpt lat="45.09797" lon="5.97455">
        <ele>2463.1999511719</ele>
        <time>2024-10-15T10:15:15.000Z</time>
      </trkpt>
      <trkpt lat="45.09797" lon="5.97455">
        <ele>2463.1999511719</ele>
        <time>2024-10-15T10:15:16.000Z</time>
      </trkpt>
      <trkpt lat="45.09797" lon="5.97455">
        <ele>2463.1999511719</ele>
        <time>2024-10-15T10:15:17.000Z</time>
      </trkpt>
      <trkpt lat="45.09797" lon="5.97455">
        <ele>2463.1999511719</ele>
        <time>2024-10-15T10:15:18.000Z</time>
      </trkpt>
      <trkpt lat="45.09797" lon="5.97455">
        <ele>2463.1999511719</ele>
        <time>2024-10-15T10:15:19.000Z</time>
      </trkpt>
      <trkpt lat="45.09797" lon="5.97455">
        <ele>2463.1999511719</ele>
        <time>2024-10-15T10:15:20.000Z</time>
      </trkpt>
      <trkpt lat="45.09797" lon="5.97455">
        <ele>2463.1999511719</ele>
        <time>2024-10-15T10:15:21.000Z</time>
      </trkpt>
      <trkpt lat="45.09797" lon="5.97455">
        <ele>2463</ele>
        <time>2024-10-15T10:15:22.000Z</time>
      </trkpt>
      <trkpt lat="45.09797" lon="5.97455">
        <ele>2463</ele>
        <time>2024-10-15T10:15:23.000Z</time>
      </trkpt>
      <trkpt lat="45.09797" lon="5.97455">
        <ele>2463.1999511719</ele>
        <time>2024-10-15T10:15:24.000Z</time>
      </trkpt>
      <trkpt lat="45.09797" lon="5.97455">
        <ele>2463.1999511719</ele>
        <time>2024-10-15T10:15:25.000Z</time>
      </trkpt>
      <trkpt lat="45.09797" lon="5.97455">
        <ele>2463.1999511719</ele>
        <time>2024-10-15T10:15:26.000Z</time>
      </trkpt>
      <trkpt lat="45.09797" lon="5.97455">
        <ele>2463.1999511719</ele>
        <time>2024-10-15T10:15:27.000Z</time>
      </trkpt>
      <trkpt lat="45.09797" lon="5.97455">
        <ele>2463.1999511719</ele>
        <time>2024-10-15T10:15:28.000Z</time>
      </trkpt>
      <trkpt lat="45.09797" lon="5.97455">
        <ele>2463.1999511719</ele>
        <time>2024-10-15T10:15:29.000Z</time>
      </trkpt>
      <trkpt lat="45.09797" lon="5.97455">
        <ele>2463.1999511719</ele>
        <time>2024-10-15T10:15:30.000Z</time>
      </trkpt>
      <trkpt lat="45.09797" lon="5.97455">
        <ele>2463.1999511719</ele>
        <time>2024-10-15T10:15:31.000Z</time>
      </trkpt>
      <trkpt lat="45.09797" lon="5.97455">
        <ele>2463.1999511719</ele>
        <time>2024-10-15T10:15:32.000Z</time>
      </trkpt>
      <trkpt lat="45.09797" lon="5.97455">
        <ele>2463.1999511719</ele>
        <time>2024-10-15T10:15:33.000Z</time>
      </trkpt>
      <trkpt lat="45.09797" lon="5.97455">
        <ele>2463.1999511719</ele>
        <time>2024-10-15T10:15:34.000Z</time>
      </trkpt>
      <trkpt lat="45.09797" lon="5.97455">
        <ele>2463.1999511719</ele>
        <time>2024-10-15T10:15:35.000Z</time>
      </trkpt>
      <trkpt lat="45.09797" lon="5.97455">
        <ele>2463.3999023438</ele>
        <time>2024-10-15T10:15:36.000Z</time>
      </trkpt>
      <trkpt lat="45.09797" lon="5.97455">
        <ele>2463.3999023438</ele>
        <time>2024-10-15T10:15:37.000Z</time>
      </trkpt>
      <trkpt lat="45.09797" lon="5.97455">
        <ele>2463.3999023438</ele>
        <time>2024-10-15T10:15:38.000Z</time>
      </trkpt>
      <trkpt lat="45.09797" lon="5.97455">
        <ele>2463.1999511719</ele>
        <time>2024-10-15T10:15:39.000Z</time>
      </trkpt>
      <trkpt lat="45.09797" lon="5.97455">
        <ele>2463.1999511719</ele>
        <time>2024-10-15T10:15:40.000Z</time>
      </trkpt>
      <trkpt lat="45.09797" lon="5.97455">
        <ele>2463.1999511719</ele>
        <time>2024-10-15T10:15:41.000Z</time>
      </trkpt>
      <trkpt lat="45.09797" lon="5.97455">
        <ele>2463.3999023438</ele>
        <time>2024-10-15T10:15:42.000Z</time>
      </trkpt>
      <trkpt lat="45.09797" lon="5.97455">
        <ele>2463.3999023438</ele>
        <time>2024-10-15T10:15:43.000Z</time>
      </trkpt>
      <trkpt lat="45.09797" lon="5.97455">
        <ele>2463.3999023438</ele>
        <time>2024-10-15T10:15:44.000Z</time>
      </trkpt>
      <trkpt lat="45.09797" lon="5.97455">
        <ele>2463.3999023438</ele>
        <time>2024-10-15T10:15:45.000Z</time>
      </trkpt>
      <trkpt lat="45.09797" lon="5.97455">
        <ele>2463.3999023438</ele>
        <time>2024-10-15T10:15:46.000Z</time>
      </trkpt>
      <trkpt lat="45.09797" lon="5.97455">
        <ele>2463.3999023438</ele>
        <time>2024-10-15T10:15:47.000Z</time>
      </trkpt>
      <trkpt lat="45.09797" lon="5.97455">
        <ele>2463.3999023438</ele>
        <time>2024-10-15T10:15:48.000Z</time>
      </trkpt>
      <trkpt lat="45.09797" lon="5.97455">
        <ele>2463.3999023438</ele>
        <time>2024-10-15T10:15:49.000Z</time>
      </trkpt>
      <trkpt lat="45.09797" lon="5.97455">
        <ele>2463.3999023438</ele>
        <time>2024-10-15T10:15:50.000Z</time>
      </trkpt>
      <trkpt lat="45.09797" lon="5.97455">
        <ele>2463.3999023438</ele>
        <time>2024-10-15T10:15:51.000Z</time>
      </trkpt>
      <trkpt lat="45.09797" lon="5.97455">
        <ele>2463.1999511719</ele>
        <time>2024-10-15T10:15:52.000Z</time>
      </trkpt>
      <trkpt lat="45.09797" lon="5.97455">
        <ele>2463.1999511719</ele>
        <time>2024-10-15T10:15:53.000Z</time>
      </trkpt>
      <trkpt lat="45.09797" lon="5.97455">
        <ele>2463.1999511719</ele>
        <time>2024-10-15T10:15:54.000Z</time>
      </trkpt>
      <trkpt lat="45.09797" lon="5.97455">
        <ele>2463.1999511719</ele>
        <time>2024-10-15T10:15:55.000Z</time>
      </trkpt>
      <trkpt lat="45.09797" lon="5.97455">
        <ele>2463.1999511719</ele>
        <time>2024-10-15T10:15:56.000Z</time>
      </trkpt>
      <trkpt lat="45.09797" lon="5.97455">
        <ele>2463.1999511719</ele>
        <time>2024-10-15T10:15:57.000Z</time>
      </trkpt>
      <trkpt lat="45.09797" lon="5.97455">
        <ele>2463.1999511719</ele>
        <time>2024-10-15T10:15:58.000Z</time>
      </trkpt>
      <trkpt lat="45.09797" lon="5.97455">
        <ele>2463.1999511719</ele>
        <time>2024-10-15T10:15:59.000Z</time>
      </trkpt>
      <trkpt lat="45.09797" lon="5.97455">
        <ele>2463.1999511719</ele>
        <time>2024-10-15T10:16:00.000Z</time>
      </trkpt>
      <trkpt lat="45.09797" lon="5.97455">
        <ele>2463.3999023438</ele>
        <time>2024-10-15T10:16:01.000Z</time>
      </trkpt>
      <trkpt lat="45.09797" lon="5.97455">
        <ele>2463.3999023438</ele>
        <time>2024-10-15T10:16:02.000Z</time>
      </trkpt>
      <trkpt lat="45.09797" lon="5.97455">
        <ele>2463.3999023438</ele>
        <time>2024-10-15T10:16:03.000Z</time>
      </trkpt>
      <trkpt lat="45.09797" lon="5.97455">
        <ele>2463.3999023438</ele>
        <time>2024-10-15T10:16:04.000Z</time>
      </trkpt>
      <trkpt lat="45.09797" lon="5.97455">
        <ele>2463.3999023438</ele>
        <time>2024-10-15T10:16:05.000Z</time>
      </trkpt>
      <trkpt lat="45.09797" lon="5.97455">
        <ele>2463.3999023438</ele>
        <time>2024-10-15T10:16:06.000Z</time>
      </trkpt>
      <trkpt lat="45.09797" lon="5.97455">
        <ele>2463.6000976562</ele>
        <time>2024-10-15T10:16:07.000Z</time>
      </trkpt>
      <trkpt lat="45.09797" lon="5.97455">
        <ele>2463.6000976562</ele>
        <time>2024-10-15T10:16:08.000Z</time>
      </trkpt>
      <trkpt lat="45.09797" lon="5.97455">
        <ele>2463.6000976562</ele>
        <time>2024-10-15T10:16:09.000Z</time>
      </trkpt>
      <trkpt lat="45.09797" lon="5.97455">
        <ele>2463.6000976562</ele>
        <time>2024-10-15T10:16:10.000Z</time>
      </trkpt>
      <trkpt lat="45.09797" lon="5.97455">
        <ele>2463.8000488281</ele>
        <time>2024-10-15T10:16:11.000Z</time>
      </trkpt>
      <trkpt lat="45.09797" lon="5.97455">
        <ele>2463.8000488281</ele>
        <time>2024-10-15T10:16:12.000Z</time>
      </trkpt>
      <trkpt lat="45.09797" lon="5.97455">
        <ele>2463.8000488281</ele>
        <time>2024-10-15T10:16:13.000Z</time>
      </trkpt>
      <trkpt lat="45.09797" lon="5.97455">
        <ele>2463.8000488281</ele>
        <time>2024-10-15T10:16:14.000Z</time>
      </trkpt>
      <trkpt lat="45.09797" lon="5.97455">
        <ele>2463.8000488281</ele>
        <time>2024-10-15T10:16:15.000Z</time>
      </trkpt>
      <trkpt lat="45.09797" lon="5.97455">
        <ele>2464</ele>
        <time>2024-10-15T10:16:16.000Z</time>
      </trkpt>
      <trkpt lat="45.09797" lon="5.97455">
        <ele>2464</ele>
        <time>2024-10-15T10:16:17.000Z</time>
      </trkpt>
      <trkpt lat="45.09797" lon="5.97455">
        <ele>2464.1999511719</ele>
        <time>2024-10-15T10:16:18.000Z</time>
      </trkpt>
      <trkpt lat="45.09797" lon="5.97455">
        <ele>2464.1999511719</ele>
        <time>2024-10-15T10:16:19.000Z</time>
      </trkpt>
      <trkpt lat="45.09797" lon="5.97455">
        <ele>2464.1999511719</ele>
        <time>2024-10-15T10:16:20.000Z</time>
      </trkpt>
      <trkpt lat="45.09797" lon="5.97455">
        <ele>2464.3999023438</ele>
        <time>2024-10-15T10:16:21.000Z</time>
      </trkpt>
      <trkpt lat="45.09797" lon="5.97455">
        <ele>2464.3999023438</ele>
        <time>2024-10-15T10:16:22.000Z</time>
      </trkpt>
      <trkpt lat="45.09797" lon="5.97455">
        <ele>2464.3999023438</ele>
        <time>2024-10-15T10:16:23.000Z</time>
      </trkpt>
      <trkpt lat="45.09797" lon="5.97455">
        <ele>2464.3999023438</ele>
        <time>2024-10-15T10:16:24.000Z</time>
      </trkpt>
      <trkpt lat="45.09797" lon="5.97455">
        <ele>2464.6000976562</ele>
        <time>2024-10-15T10:16:25.000Z</time>
      </trkpt>
      <trkpt lat="45.09797" lon="5.97455">
        <ele>2464.6000976562</ele>
        <time>2024-10-15T10:16:26.000Z</time>
      </trkpt>
      <trkpt lat="45.09797" lon="5.97455">
        <ele>2464.6000976562</ele>
        <time>2024-10-15T10:16:27.000Z</time>
      </trkpt>
      <trkpt lat="45.09797" lon="5.97455">
        <ele>2464.6000976562</ele>
        <time>2024-10-15T10:16:28.000Z</time>
      </trkpt>
      <trkpt lat="45.09797" lon="5.97455">
        <ele>2464.6000976562</ele>
        <time>2024-10-15T10:16:29.000Z</time>
      </trkpt>
      <trkpt lat="45.09797" lon="5.97455">
        <ele>2464.6000976562</ele>
        <time>2024-10-15T10:16:30.000Z</time>
      </trkpt>
      <trkpt lat="45.09797" lon="5.97455">
        <ele>2464.6000976562</ele>
        <time>2024-10-15T10:16:31.000Z</time>
      </trkpt>
      <trkpt lat="45.09797" lon="5.97455">
        <ele>2464.6000976562</ele>
        <time>2024-10-15T10:16:32.000Z</time>
      </trkpt>
      <trkpt lat="45.09797" lon="5.97455">
        <ele>2464.6000976562</ele>
        <time>2024-10-15T10:16:33.000Z</time>
      </trkpt>
      <trkpt lat="45.09797" lon="5.97455">
        <ele>2464.6000976562</ele>
        <time>2024-10-15T10:16:34.000Z</time>
      </trkpt>
      <trkpt lat="45.09797" lon="5.97455">
        <ele>2464.6000976562</ele>
        <time>2024-10-15T10:16:35.000Z</time>
      </trkpt>
      <trkpt lat="45.09797" lon="5.97455">
        <ele>2464.6000976562</ele>
        <time>2024-10-15T10:16:36.000Z</time>
      </trkpt>
      <trkpt lat="45.09797" lon="5.97455">
        <ele>2464.6000976562</ele>
        <time>2024-10-15T10:16:37.000Z</time>
      </trkpt>
      <trkpt lat="45.09797" lon="5.97455">
        <ele>2464.6000976562</ele>
        <time>2024-10-15T10:16:38.000Z</time>
      </trkpt>
      <trkpt lat="45.09797" lon="5.97455">
        <ele>2464.6000976562</ele>
        <time>2024-10-15T10:16:39.000Z</time>
      </trkpt>
      <trkpt lat="45.09797" lon="5.97455">
        <ele>2464.6000976562</ele>
        <time>2024-10-15T10:16:40.000Z</time>
      </trkpt>
      <trkpt lat="45.09797" lon="5.97455">
        <ele>2464.6000976562</ele>
        <time>2024-10-15T10:16:41.000Z</time>
      </trkpt>
      <trkpt lat="45.09797" lon="5.97455">
        <ele>2464.6000976562</ele>
        <time>2024-10-15T10:16:42.000Z</time>
      </trkpt>
      <trkpt lat="45.09797" lon="5.97455">
        <ele>2464.6000976562</ele>
        <time>2024-10-15T10:16:43.000Z</time>
      </trkpt>
      <trkpt lat="45.09797" lon="5.97455">
        <ele>2464.8000488281</ele>
        <time>2024-10-15T10:16:44.000Z</time>
      </trkpt>
      <trkpt lat="45.09797" lon="5.97455">
        <ele>2464.8000488281</ele>
        <time>2024-10-15T10:16:45.000Z</time>
      </trkpt>
      <trkpt lat="45.09797" lon="5.97455">
        <ele>2464.8000488281</ele>
        <time>2024-10-15T10:16:46.000Z</time>
      </trkpt>
      <trkpt lat="45.09797" lon="5.97455">
        <ele>2464.8000488281</ele>
        <time>2024-10-15T10:16:47.000Z</time>
      </trkpt>
      <trkpt lat="45.09797" lon="5.97455">
        <ele>2464.8000488281</ele>
        <time>2024-10-15T10:16:48.000Z</time>
      </trkpt>
      <trkpt lat="45.09797" lon="5.97455">
        <ele>2465</ele>
        <time>2024-10-15T10:16:49.000Z</time>
      </trkpt>
      <trkpt lat="45.09797" lon="5.97455">
        <ele>2465</ele>
        <time>2024-10-15T10:16:50.000Z</time>
      </trkpt>
      <trkpt lat="45.09797" lon="5.97455">
        <ele>2465</ele>
        <time>2024-10-15T10:16:51.000Z</time>
      </trkpt>
      <trkpt lat="45.09797" lon="5.97455">
        <ele>2465</ele>
        <time>2024-10-15T10:16:52.000Z</time>
      </trkpt>
      <trkpt lat="45.09797" lon="5.97455">
        <ele>2465</ele>
        <time>2024-10-15T10:16:53.000Z</time>
      </trkpt>
      <trkpt lat="45.09797" lon="5.97455">
        <ele>2465</ele>
        <time>2024-10-15T10:16:54.000Z</time>
      </trkpt>
      <trkpt lat="45.09797" lon="5.97455">
        <ele>2465</ele>
        <time>2024-10-15T10:16:55.000Z</time>
      </trkpt>
      <trkpt lat="45.09797" lon="5.97455">
        <ele>2465.1999511719</ele>
        <time>2024-10-15T10:16:56.000Z</time>
      </trkpt>
      <trkpt lat="45.09797" lon="5.97455">
        <ele>2465.1999511719</ele>
        <time>2024-10-15T10:16:57.000Z</time>
      </trkpt>
      <trkpt lat="45.09797" lon="5.97455">
        <ele>2465.1999511719</ele>
        <time>2024-10-15T10:16:58.000Z</time>
      </trkpt>
      <trkpt lat="45.09797" lon="5.97455">
        <ele>2465.1999511719</ele>
        <time>2024-10-15T10:16:59.000Z</time>
      </trkpt>
      <trkpt lat="45.09797" lon="5.97455">
        <ele>2465.1999511719</ele>
        <time>2024-10-15T10:17:00.000Z</time>
      </trkpt>
      <trkpt lat="45.09797" lon="5.97455">
        <ele>2465.1999511719</ele>
        <time>2024-10-15T10:17:01.000Z</time>
      </trkpt>
      <trkpt lat="45.09797" lon="5.97455">
        <ele>2465</ele>
        <time>2024-10-15T10:17:02.000Z</time>
      </trkpt>
      <trkpt lat="45.09797" lon="5.97455">
        <ele>2465</ele>
        <time>2024-10-15T10:17:03.000Z</time>
      </trkpt>
      <trkpt lat="45.09797" lon="5.97455">
        <ele>2465</ele>
        <time>2024-10-15T10:17:04.000Z</time>
      </trkpt>
      <trkpt lat="45.09797" lon="5.97455">
        <ele>2465</ele>
        <time>2024-10-15T10:17:05.000Z</time>
      </trkpt>
      <trkpt lat="45.09797" lon="5.97455">
        <ele>2464.8000488281</ele>
        <time>2024-10-15T10:17:06.000Z</time>
      </trkpt>
      <trkpt lat="45.09797" lon="5.97455">
        <ele>2464.8000488281</ele>
        <time>2024-10-15T10:17:07.000Z</time>
      </trkpt>
      <trkpt lat="45.09797" lon="5.97455">
        <ele>2464.8000488281</ele>
        <time>2024-10-15T10:17:08.000Z</time>
      </trkpt>
      <trkpt lat="45.09797" lon="5.97455">
        <ele>2464.8000488281</ele>
        <time>2024-10-15T10:17:09.000Z</time>
      </trkpt>
      <trkpt lat="45.09797" lon="5.97455">
        <ele>2464.8000488281</ele>
        <time>2024-10-15T10:17:10.000Z</time>
      </trkpt>
      <trkpt lat="45.09797" lon="5.97455">
        <ele>2464.8000488281</ele>
        <time>2024-10-15T10:17:11.000Z</time>
      </trkpt>
      <trkpt lat="45.09797" lon="5.97455">
        <ele>2464.8000488281</ele>
        <time>2024-10-15T10:17:12.000Z</time>
      </trkpt>
      <trkpt lat="45.09797" lon="5.97455">
        <ele>2464.8000488281</ele>
        <time>2024-10-15T10:17:13.000Z</time>
      </trkpt>
      <trkpt lat="45.09797" lon="5.97455">
        <ele>2464.8000488281</ele>
        <time>2024-10-15T10:17:14.000Z</time>
      </trkpt>
      <trkpt lat="45.09797" lon="5.97455">
        <ele>2464.8000488281</ele>
        <time>2024-10-15T10:17:15.000Z</time>
      </trkpt>
      <trkpt lat="45.09797" lon="5.97455">
        <ele>2464.8000488281</ele>
        <time>2024-10-15T10:17:16.000Z</time>
      </trkpt>
      <trkpt lat="45.09797" lon="5.97455">
        <ele>2464.8000488281</ele>
        <time>2024-10-15T10:17:17.000Z</time>
      </trkpt>
      <trkpt lat="45.09797" lon="5.97455">
        <ele>2464.8000488281</ele>
        <time>2024-10-15T10:17:18.000Z</time>
      </trkpt>
      <trkpt lat="45.09797" lon="5.97455">
        <ele>2464.8000488281</ele>
        <time>2024-10-15T10:17:19.000Z</time>
      </trkpt>
      <trkpt lat="45.09797" lon="5.97455">
        <ele>2464.8000488281</ele>
        <time>2024-10-15T10:17:20.000Z</time>
      </trkpt>
      <trkpt lat="45.09797" lon="5.97455">
        <ele>2464.8000488281</ele>
        <time>2024-10-15T10:17:21.000Z</time>
      </trkpt>
      <trkpt lat="45.09797" lon="5.97455">
        <ele>2464.8000488281</ele>
        <time>2024-10-15T10:17:22.000Z</time>
      </trkpt>
      <trkpt lat="45.09797" lon="5.97455">
        <ele>2464.8000488281</ele>
        <time>2024-10-15T10:17:23.000Z</time>
      </trkpt>
      <trkpt lat="45.09797" lon="5.97455">
        <ele>2464.8000488281</ele>
        <time>2024-10-15T10:17:24.000Z</time>
      </trkpt>
      <trkpt lat="45.09797" lon="5.97455">
        <ele>2464.8000488281</ele>
        <time>2024-10-15T10:17:25.000Z</time>
      </trkpt>
      <trkpt lat="45.09797" lon="5.97455">
        <ele>2464.8000488281</ele>
        <time>2024-10-15T10:17:26.000Z</time>
      </trkpt>
      <trkpt lat="45.09797" lon="5.97455">
        <ele>2464.8000488281</ele>
        <time>2024-10-15T10:17:27.000Z</time>
      </trkpt>
      <trkpt lat="45.09797" lon="5.97455">
        <ele>2464.8000488281</ele>
        <time>2024-10-15T10:17:28.000Z</time>
      </trkpt>
      <trkpt lat="45.09797" lon="5.97455">
        <ele>2464.8000488281</ele>
        <time>2024-10-15T10:17:29.000Z</time>
      </trkpt>
      <trkpt lat="45.09797" lon="5.97455">
        <ele>2464.8000488281</ele>
        <time>2024-10-15T10:17:30.000Z</time>
      </trkpt>
      <trkpt lat="45.09797" lon="5.97455">
        <ele>2464.6000976562</ele>
        <time>2024-10-15T10:17:31.000Z</time>
      </trkpt>
      <trkpt lat="45.09797" lon="5.97455">
        <ele>2464.6000976562</ele>
        <time>2024-10-15T10:17:32.000Z</time>
      </trkpt>
      <trkpt lat="45.09797" lon="5.97455">
        <ele>2464.6000976562</ele>
        <time>2024-10-15T10:17:33.000Z</time>
      </trkpt>
      <trkpt lat="45.09797" lon="5.97455">
        <ele>2464.6000976562</ele>
        <time>2024-10-15T10:17:34.000Z</time>
      </trkpt>
      <trkpt lat="45.09797" lon="5.97455">
        <ele>2464.6000976562</ele>
        <time>2024-10-15T10:17:35.000Z</time>
      </trkpt>
      <trkpt lat="45.09797" lon="5.97455">
        <ele>2464.6000976562</ele>
        <time>2024-10-15T10:17:36.000Z</time>
      </trkpt>
      <trkpt lat="45.09797" lon="5.97455">
        <ele>2464.6000976562</ele>
        <time>2024-10-15T10:17:37.000Z</time>
      </trkpt>
      <trkpt lat="45.09797" lon="5.97455">
        <ele>2464.6000976562</ele>
        <time>2024-10-15T10:17:38.000Z</time>
      </trkpt>
      <trkpt lat="45.09797" lon="5.97455">
        <ele>2464.6000976562</ele>
        <time>2024-10-15T10:17:39.000Z</time>
      </trkpt>
      <trkpt lat="45.09797" lon="5.97455">
        <ele>2464.8000488281</ele>
        <time>2024-10-15T10:17:40.000Z</time>
      </trkpt>
      <trkpt lat="45.09797" lon="5.97455">
        <ele>2464.8000488281</ele>
        <time>2024-10-15T10:17:41.000Z</time>
      </trkpt>
      <trkpt lat="45.09797" lon="5.97455">
        <ele>2464.8000488281</ele>
        <time>2024-10-15T10:17:42.000Z</time>
      </trkpt>
      <trkpt lat="45.09797" lon="5.97455">
        <ele>2464.8000488281</ele>
        <time>2024-10-15T10:17:43.000Z</time>
      </trkpt>
      <trkpt lat="45.09797" lon="5.97455">
        <ele>2464.8000488281</ele>
        <time>2024-10-15T10:17:44.000Z</time>
      </trkpt>
      <trkpt lat="45.09797" lon="5.97455">
        <ele>2464.8000488281</ele>
        <time>2024-10-15T10:17:45.000Z</time>
      </trkpt>
      <trkpt lat="45.09797" lon="5.97455">
        <ele>2464.8000488281</ele>
        <time>2024-10-15T10:17:46.000Z</time>
      </trkpt>
      <trkpt lat="45.09797" lon="5.97455">
        <ele>2464.8000488281</ele>
        <time>2024-10-15T10:17:47.000Z</time>
      </trkpt>
      <trkpt lat="45.09797" lon="5.97455">
        <ele>2465</ele>
        <time>2024-10-15T10:17:48.000Z</time>
      </trkpt>
      <trkpt lat="45.09797" lon="5.97455">
        <ele>2465</ele>
        <time>2024-10-15T10:17:49.000Z</time>
      </trkpt>
      <trkpt lat="45.09797" lon="5.97455">
        <ele>2465</ele>
        <time>2024-10-15T10:17:50.000Z</time>
      </trkpt>
      <trkpt lat="45.09797" lon="5.97455">
        <ele>2465</ele>
        <time>2024-10-15T10:17:51.000Z</time>
      </trkpt>
      <trkpt lat="45.09797" lon="5.97455">
        <ele>2465</ele>
        <time>2024-10-15T10:17:52.000Z</time>
      </trkpt>
      <trkpt lat="45.09797" lon="5.97455">
        <ele>2465</ele>
        <time>2024-10-15T10:17:53.000Z</time>
      </trkpt>
      <trkpt lat="45.09797" lon="5.97455">
        <ele>2465</ele>
        <time>2024-10-15T10:17:54.000Z</time>
      </trkpt>
      <trkpt lat="45.09797" lon="5.97455">
        <ele>2465</ele>
        <time>2024-10-15T10:17:55.000Z</time>
      </trkpt>
      <trkpt lat="45.09797" lon="5.97455">
        <ele>2465</ele>
        <time>2024-10-15T10:17:56.000Z</time>
      </trkpt>
      <trkpt lat="45.09797" lon="5.97455">
        <ele>2465</ele>
        <time>2024-10-15T10:17:57.000Z</time>
      </trkpt>
      <trkpt lat="45.09797" lon="5.97455">
        <ele>2465</ele>
        <time>2024-10-15T10:17:58.000Z</time>
      </trkpt>
      <trkpt lat="45.09797" lon="5.97455">
        <ele>2465</ele>
        <time>2024-10-15T10:17:59.000Z</time>
      </trkpt>
      <trkpt lat="45.09797" lon="5.97455">
        <ele>2465</ele>
        <time>2024-10-15T10:18:00.000Z</time>
      </trkpt>
      <trkpt lat="45.09797" lon="5.97455">
        <ele>2465</ele>
        <time>2024-10-15T10:18:01.000Z</time>
      </trkpt>
      <trkpt lat="45.09797" lon="5.97455">
        <ele>2465</ele>
        <time>2024-10-15T10:18:02.000Z</time>
      </trkpt>
      <trkpt lat="45.09797" lon="5.97455">
        <ele>2465</ele>
        <time>2024-10-15T10:18:03.000Z</time>
      </trkpt>
      <trkpt lat="45.09797" lon="5.97455">
        <ele>2465</ele>
        <time>2024-10-15T10:18:04.000Z</time>
      </trkpt>
      <trkpt lat="45.09797" lon="5.97455">
        <ele>2465</ele>
        <time>2024-10-15T10:18:05.000Z</time>
      </trkpt>
      <trkpt lat="45.09797" lon="5.97455">
        <ele>2465</ele>
        <time>2024-10-15T10:18:06.000Z</time>
      </trkpt>
      <trkpt lat="45.09797" lon="5.97455">
        <ele>2465</ele>
        <time>2024-10-15T10:18:07.000Z</time>
      </trkpt>
      <trkpt lat="45.09797" lon="5.97455">
        <ele>2464.8000488281</ele>
        <time>2024-10-15T10:18:08.000Z</time>
      </trkpt>
      <trkpt lat="45.09797" lon="5.97455">
        <ele>2464.8000488281</ele>
        <time>2024-10-15T10:18:09.000Z</time>
      </trkpt>
      <trkpt lat="45.09797" lon="5.97455">
        <ele>2464.8000488281</ele>
        <time>2024-10-15T10:18:10.000Z</time>
      </trkpt>
      <trkpt lat="45.09797" lon="5.97455">
        <ele>2464.6000976562</ele>
        <time>2024-10-15T10:18:11.000Z</time>
      </trkpt>
      <trkpt lat="45.09797" lon="5.97455">
        <ele>2464.6000976562</ele>
        <time>2024-10-15T10:18:12.000Z</time>
      </trkpt>
      <trkpt lat="45.09797" lon="5.97455">
        <ele>2464.6000976562</ele>
        <time>2024-10-15T10:18:13.000Z</time>
      </trkpt>
      <trkpt lat="45.09797" lon="5.97455">
        <ele>2464.6000976562</ele>
        <time>2024-10-15T10:18:14.000Z</time>
      </trkpt>
      <trkpt lat="45.09797" lon="5.97455">
        <ele>2464.6000976562</ele>
        <time>2024-10-15T10:18:15.000Z</time>
      </trkpt>
      <trkpt lat="45.09797" lon="5.97455">
        <ele>2464.6000976562</ele>
        <time>2024-10-15T10:18:16.000Z</time>
      </trkpt>
      <trkpt lat="45.09797" lon="5.97455">
        <ele>2464.8000488281</ele>
        <time>2024-10-15T10:18:17.000Z</time>
      </trkpt>
      <trkpt lat="45.09797" lon="5.97455">
        <ele>2465</ele>
        <time>2024-10-15T10:18:18.000Z</time>
      </trkpt>
      <trkpt lat="45.09797" lon="5.97455">
        <ele>2465</ele>
        <time>2024-10-15T10:18:19.000Z</time>
      </trkpt>
      <trkpt lat="45.09797" lon="5.97455">
        <ele>2465</ele>
        <time>2024-10-15T10:18:20.000Z</time>
      </trkpt>
      <trkpt lat="45.09797" lon="5.97455">
        <ele>2465</ele>
        <time>2024-10-15T10:18:21.000Z</time>
      </trkpt>
      <trkpt lat="45.09797" lon="5.97455">
        <ele>2465.1999511719</ele>
        <time>2024-10-15T10:18:22.000Z</time>
      </trkpt>
      <trkpt lat="45.09797" lon="5.97455">
        <ele>2465.1999511719</ele>
        <time>2024-10-15T10:18:23.000Z</time>
      </trkpt>
      <trkpt lat="45.09797" lon="5.97455">
        <ele>2465.3999023438</ele>
        <time>2024-10-15T10:18:24.000Z</time>
      </trkpt>
      <trkpt lat="45.09797" lon="5.97455">
        <ele>2465.3999023438</ele>
        <time>2024-10-15T10:18:25.000Z</time>
      </trkpt>
      <trkpt lat="45.09797" lon="5.97455">
        <ele>2465.6000976562</ele>
        <time>2024-10-15T10:18:26.000Z</time>
      </trkpt>
      <trkpt lat="45.09797" lon="5.97455">
        <ele>2465.6000976562</ele>
        <time>2024-10-15T10:18:27.000Z</time>
      </trkpt>
      <trkpt lat="45.09797" lon="5.97455">
        <ele>2465.6000976562</ele>
        <time>2024-10-15T10:18:28.000Z</time>
      </trkpt>
      <trkpt lat="45.09797" lon="5.97455">
        <ele>2465.6000976562</ele>
        <time>2024-10-15T10:18:29.000Z</time>
      </trkpt>
      <trkpt lat="45.09797" lon="5.97455">
        <ele>2465.6000976562</ele>
        <time>2024-10-15T10:18:30.000Z</time>
      </trkpt>
      <trkpt lat="45.09797" lon="5.97455">
        <ele>2465.6000976562</ele>
        <time>2024-10-15T10:18:31.000Z</time>
      </trkpt>
      <trkpt lat="45.09797" lon="5.97455">
        <ele>2465.8000488281</ele>
        <time>2024-10-15T10:18:32.000Z</time>
      </trkpt>
      <trkpt lat="45.09797" lon="5.97455">
        <ele>2465.8000488281</ele>
        <time>2024-10-15T10:18:33.000Z</time>
      </trkpt>
      <trkpt lat="45.09797" lon="5.97455">
        <ele>2465.8000488281</ele>
        <time>2024-10-15T10:18:34.000Z</time>
      </trkpt>
      <trkpt lat="45.09797" lon="5.97455">
        <ele>2465.8000488281</ele>
        <time>2024-10-15T10:18:35.000Z</time>
      </trkpt>
      <trkpt lat="45.09797" lon="5.97455">
        <ele>2465.8000488281</ele>
        <time>2024-10-15T10:18:36.000Z</time>
      </trkpt>
      <trkpt lat="45.09797" lon="5.97455">
        <ele>2465.8000488281</ele>
        <time>2024-10-15T10:18:37.000Z</time>
      </trkpt>
      <trkpt lat="45.09797" lon="5.97455">
        <ele>2465.8000488281</ele>
        <time>2024-10-15T10:18:38.000Z</time>
      </trkpt>
      <trkpt lat="45.09797" lon="5.97455">
        <ele>2465.6000976562</ele>
        <time>2024-10-15T10:18:39.000Z</time>
      </trkpt>
      <trkpt lat="45.09797" lon="5.97455">
        <ele>2465.3999023438</ele>
        <time>2024-10-15T10:18:40.000Z</time>
      </trkpt>
      <trkpt lat="45.09797" lon="5.97455">
        <ele>2465.3999023438</ele>
        <time>2024-10-15T10:18:41.000Z</time>
      </trkpt>
      <trkpt lat="45.09797" lon="5.97455">
        <ele>2465.3999023438</ele>
        <time>2024-10-15T10:18:42.000Z</time>
      </trkpt>
      <trkpt lat="45.09797" lon="5.97455">
        <ele>2465.3999023438</ele>
        <time>2024-10-15T10:18:43.000Z</time>
      </trkpt>
      <trkpt lat="45.09797" lon="5.97455">
        <ele>2465.3999023438</ele>
        <time>2024-10-15T10:18:44.000Z</time>
      </trkpt>
      <trkpt lat="45.09797" lon="5.97455">
        <ele>2465.3999023438</ele>
        <time>2024-10-15T10:18:45.000Z</time>
      </trkpt>
      <trkpt lat="45.09797" lon="5.97455">
        <ele>2465.3999023438</ele>
        <time>2024-10-15T10:18:46.000Z</time>
      </trkpt>
      <trkpt lat="45.09797" lon="5.97455">
        <ele>2465.3999023438</ele>
        <time>2024-10-15T10:18:47.000Z</time>
      </trkpt>
      <trkpt lat="45.09797" lon="5.97455">
        <ele>2465.3999023438</ele>
        <time>2024-10-15T10:18:48.000Z</time>
      </trkpt>
      <trkpt lat="45.09797" lon="5.97455">
        <ele>2465.3999023438</ele>
        <time>2024-10-15T10:18:49.000Z</time>
      </trkpt>
      <trkpt lat="45.09797" lon="5.97455">
        <ele>2465.3999023438</ele>
        <time>2024-10-15T10:18:50.000Z</time>
      </trkpt>
      <trkpt lat="45.09797" lon="5.97455">
        <ele>2465.6000976562</ele>
        <time>2024-10-15T10:18:51.000Z</time>
      </trkpt>
      <trkpt lat="45.09797" lon="5.97455">
        <ele>2465.6000976562</ele>
        <time>2024-10-15T10:18:52.000Z</time>
      </trkpt>
      <trkpt lat="45.09797" lon="5.97455">
        <ele>2465.6000976562</ele>
        <time>2024-10-15T10:18:53.000Z</time>
      </trkpt>
      <trkpt lat="45.09797" lon="5.97455">
        <ele>2465.6000976562</ele>
        <time>2024-10-15T10:18:54.000Z</time>
      </trkpt>
      <trkpt lat="45.09797" lon="5.97455">
        <ele>2465.8000488281</ele>
        <time>2024-10-15T10:18:55.000Z</time>
      </trkpt>
      <trkpt lat="45.09797" lon="5.97455">
        <ele>2465.8000488281</ele>
        <time>2024-10-15T10:18:56.000Z</time>
      </trkpt>
      <trkpt lat="45.09797" lon="5.97455">
        <ele>2465.8000488281</ele>
        <time>2024-10-15T10:18:57.000Z</time>
      </trkpt>
      <trkpt lat="45.09797" lon="5.97455">
        <ele>2465.8000488281</ele>
        <time>2024-10-15T10:18:58.000Z</time>
      </trkpt>
      <trkpt lat="45.09797" lon="5.97455">
        <ele>2465.8000488281</ele>
        <time>2024-10-15T10:18:59.000Z</time>
      </trkpt>
      <trkpt lat="45.09797" lon="5.97455">
        <ele>2465.6000976562</ele>
        <time>2024-10-15T10:19:00.000Z</time>
      </trkpt>
      <trkpt lat="45.09797" lon="5.97455">
        <ele>2465.6000976562</ele>
        <time>2024-10-15T10:19:01.000Z</time>
      </trkpt>
      <trkpt lat="45.09797" lon="5.97455">
        <ele>2465.3999023438</ele>
        <time>2024-10-15T10:19:02.000Z</time>
      </trkpt>
      <trkpt lat="45.09797" lon="5.97455">
        <ele>2465.3999023438</ele>
        <time>2024-10-15T10:19:03.000Z</time>
      </trkpt>
      <trkpt lat="45.09797" lon="5.97455">
        <ele>2465.1999511719</ele>
        <time>2024-10-15T10:19:04.000Z</time>
      </trkpt>
      <trkpt lat="45.09797" lon="5.97455">
        <ele>2465.1999511719</ele>
        <time>2024-10-15T10:19:05.000Z</time>
      </trkpt>
      <trkpt lat="45.09797" lon="5.97455">
        <ele>2465</ele>
        <time>2024-10-15T10:19:06.000Z</time>
      </trkpt>
      <trkpt lat="45.09797" lon="5.97455">
        <ele>2465</ele>
        <time>2024-10-15T10:19:07.000Z</time>
      </trkpt>
      <trkpt lat="45.09797" lon="5.97455">
        <ele>2464.8000488281</ele>
        <time>2024-10-15T10:19:08.000Z</time>
      </trkpt>
      <trkpt lat="45.09797" lon="5.97455">
        <ele>2464.6000976562</ele>
        <time>2024-10-15T10:19:09.000Z</time>
      </trkpt>
      <trkpt lat="45.09797" lon="5.97455">
        <ele>2464.6000976562</ele>
        <time>2024-10-15T10:19:10.000Z</time>
      </trkpt>
      <trkpt lat="45.09797" lon="5.97455">
        <ele>2464.6000976562</ele>
        <time>2024-10-15T10:19:11.000Z</time>
      </trkpt>
      <trkpt lat="45.09797" lon="5.97455">
        <ele>2464.6000976562</ele>
        <time>2024-10-15T10:19:12.000Z</time>
      </trkpt>
      <trkpt lat="45.09797" lon="5.97455">
        <ele>2464.6000976562</ele>
        <time>2024-10-15T10:19:13.000Z</time>
      </trkpt>
      <trkpt lat="45.09797" lon="5.97455">
        <ele>2464.6000976562</ele>
        <time>2024-10-15T10:19:14.000Z</time>
      </trkpt>
      <trkpt lat="45.09797" lon="5.97455">
        <ele>2464.8000488281</ele>
        <time>2024-10-15T10:19:15.000Z</time>
      </trkpt>
      <trkpt lat="45.09797" lon="5.97455">
        <ele>2464.8000488281</ele>
        <time>2024-10-15T10:19:16.000Z</time>
      </trkpt>
      <trkpt lat="45.09797" lon="5.97455">
        <ele>2464.8000488281</ele>
        <time>2024-10-15T10:19:17.000Z</time>
      </trkpt>
      <trkpt lat="45.09797" lon="5.97455">
        <ele>2465</ele>
        <time>2024-10-15T10:19:18.000Z</time>
      </trkpt>
      <trkpt lat="45.09797" lon="5.97455">
        <ele>2465</ele>
        <time>2024-10-15T10:19:19.000Z</time>
      </trkpt>
      <trkpt lat="45.09797" lon="5.97455">
        <ele>2464.8000488281</ele>
        <time>2024-10-15T10:19:20.000Z</time>
      </trkpt>
      <trkpt lat="45.09797" lon="5.97455">
        <ele>2464.6000976562</ele>
        <time>2024-10-15T10:19:21.000Z</time>
      </trkpt>
      <trkpt lat="45.09797" lon="5.97455">
        <ele>2464.3999023438</ele>
        <time>2024-10-15T10:19:22.000Z</time>
      </trkpt>
      <trkpt lat="45.09797" lon="5.97455">
        <ele>2464.3999023438</ele>
        <time>2024-10-15T10:19:23.000Z</time>
      </trkpt>
      <trkpt lat="45.09797" lon="5.97455">
        <ele>2464.3999023438</ele>
        <time>2024-10-15T10:19:24.000Z</time>
      </trkpt>
      <trkpt lat="45.09797" lon="5.97455">
        <ele>2464.1999511719</ele>
        <time>2024-10-15T10:19:25.000Z</time>
      </trkpt>
      <trkpt lat="45.09797" lon="5.97455">
        <ele>2464.1999511719</ele>
        <time>2024-10-15T10:19:26.000Z</time>
      </trkpt>
      <trkpt lat="45.09797" lon="5.97455">
        <ele>2464.1999511719</ele>
        <time>2024-10-15T10:19:27.000Z</time>
      </trkpt>
      <trkpt lat="45.09797" lon="5.97455">
        <ele>2464.1999511719</ele>
        <time>2024-10-15T10:19:28.000Z</time>
      </trkpt>
      <trkpt lat="45.09797" lon="5.97455">
        <ele>2464.1999511719</ele>
        <time>2024-10-15T10:19:29.000Z</time>
      </trkpt>
      <trkpt lat="45.09797" lon="5.97455">
        <ele>2464.1999511719</ele>
        <time>2024-10-15T10:19:30.000Z</time>
      </trkpt>
      <trkpt lat="45.09797" lon="5.97455">
        <ele>2464.1999511719</ele>
        <time>2024-10-15T10:19:31.000Z</time>
      </trkpt>
      <trkpt lat="45.09797" lon="5.97455">
        <ele>2464.3999023438</ele>
        <time>2024-10-15T10:19:32.000Z</time>
      </trkpt>
      <trkpt lat="45.09797" lon="5.97455">
        <ele>2464.3999023438</ele>
        <time>2024-10-15T10:19:33.000Z</time>
      </trkpt>
      <trkpt lat="45.09797" lon="5.97455">
        <ele>2464.3999023438</ele>
        <time>2024-10-15T10:19:34.000Z</time>
      </trkpt>
      <trkpt lat="45.09797" lon="5.97455">
        <ele>2464.3999023438</ele>
        <time>2024-10-15T10:19:35.000Z</time>
      </trkpt>
      <trkpt lat="45.09797" lon="5.97455">
        <ele>2464.3999023438</ele>
        <time>2024-10-15T10:19:36.000Z</time>
      </trkpt>
      <trkpt lat="45.09797" lon="5.97455">
        <ele>2464.3999023438</ele>
        <time>2024-10-15T10:19:37.000Z</time>
      </trkpt>
      <trkpt lat="45.09797" lon="5.97455">
        <ele>2464.1999511719</ele>
        <time>2024-10-15T10:19:38.000Z</time>
      </trkpt>
      <trkpt lat="45.09797" lon="5.97455">
        <ele>2464.1999511719</ele>
        <time>2024-10-15T10:19:39.000Z</time>
      </trkpt>
      <trkpt lat="45.09797" lon="5.97455">
        <ele>2464.1999511719</ele>
        <time>2024-10-15T10:19:40.000Z</time>
      </trkpt>
      <trkpt lat="45.09797" lon="5.97455">
        <ele>2464.1999511719</ele>
        <time>2024-10-15T10:19:41.000Z</time>
      </trkpt>
      <trkpt lat="45.09797" lon="5.97455">
        <ele>2464.1999511719</ele>
        <time>2024-10-15T10:19:42.000Z</time>
      </trkpt>
      <trkpt lat="45.09797" lon="5.97455">
        <ele>2464.1999511719</ele>
        <time>2024-10-15T10:19:43.000Z</time>
      </trkpt>
      <trkpt lat="45.09797" lon="5.97455">
        <ele>2464.1999511719</ele>
        <time>2024-10-15T10:19:44.000Z</time>
      </trkpt>
      <trkpt lat="45.09797" lon="5.97455">
        <ele>2464.1999511719</ele>
        <time>2024-10-15T10:19:45.000Z</time>
      </trkpt>
      <trkpt lat="45.09797" lon="5.97455">
        <ele>2464.1999511719</ele>
        <time>2024-10-15T10:19:46.000Z</time>
      </trkpt>
      <trkpt lat="45.09797" lon="5.97455">
        <ele>2464.1999511719</ele>
        <time>2024-10-15T10:19:47.000Z</time>
      </trkpt>
      <trkpt lat="45.09797" lon="5.97455">
        <ele>2464.1999511719</ele>
        <time>2024-10-15T10:19:48.000Z</time>
      </trkpt>
      <trkpt lat="45.09797" lon="5.97455">
        <ele>2464.1999511719</ele>
        <time>2024-10-15T10:19:49.000Z</time>
      </trkpt>
      <trkpt lat="45.09797" lon="5.97455">
        <ele>2464</ele>
        <time>2024-10-15T10:19:50.000Z</time>
      </trkpt>
      <trkpt lat="45.09797" lon="5.97455">
        <ele>2464</ele>
        <time>2024-10-15T10:19:51.000Z</time>
      </trkpt>
      <trkpt lat="45.09797" lon="5.97455">
        <ele>2464</ele>
        <time>2024-10-15T10:19:52.000Z</time>
      </trkpt>
      <trkpt lat="45.09797" lon="5.97455">
        <ele>2464</ele>
        <time>2024-10-15T10:19:53.000Z</time>
      </trkpt>
      <trkpt lat="45.09797" lon="5.97455">
        <ele>2464</ele>
        <time>2024-10-15T10:19:54.000Z</time>
      </trkpt>
      <trkpt lat="45.09797" lon="5.97455">
        <ele>2464</ele>
        <time>2024-10-15T10:19:55.000Z</time>
      </trkpt>
      <trkpt lat="45.09797" lon="5.97455">
        <ele>2464</ele>
        <time>2024-10-15T10:19:56.000Z</time>
      </trkpt>
      <trkpt lat="45.09797" lon="5.97455">
        <ele>2464</ele>
        <time>2024-10-15T10:19:57.000Z</time>
      </trkpt>
      <trkpt lat="45.09797" lon="5.97455">
        <ele>2464</ele>
        <time>2024-10-15T10:19:58.000Z</time>
      </trkpt>
      <trkpt lat="45.09797" lon="5.97455">
        <ele>2464</ele>
        <time>2024-10-15T10:19:59.000Z</time>
      </trkpt>
      <trkpt lat="45.09797" lon="5.97455">
        <ele>2464</ele>
        <time>2024-10-15T10:20:00.000Z</time>
      </trkpt>
      <trkpt lat="45.09797" lon="5.97455">
        <ele>2464</ele>
        <time>2024-10-15T10:20:01.000Z</time>
      </trkpt>
      <trkpt lat="45.09797" lon="5.97455">
        <ele>2464</ele>
        <time>2024-10-15T10:20:02.000Z</time>
      </trkpt>
      <trkpt lat="45.09797" lon="5.97455">
        <ele>2464</ele>
        <time>2024-10-15T10:20:03.000Z</time>
      </trkpt>
      <trkpt lat="45.09797" lon="5.97455">
        <ele>2464</ele>
        <time>2024-10-15T10:20:04.000Z</time>
      </trkpt>
      <trkpt lat="45.09797" lon="5.97455">
        <ele>2464</ele>
        <time>2024-10-15T10:20:05.000Z</time>
      </trkpt>
      <trkpt lat="45.09797" lon="5.97455">
        <ele>2464</ele>
        <time>2024-10-15T10:20:06.000Z</time>
      </trkpt>
      <trkpt lat="45.09797" lon="5.97455">
        <ele>2464</ele>
        <time>2024-10-15T10:20:07.000Z</time>
      </trkpt>
      <trkpt lat="45.09797" lon="5.97455">
        <ele>2464</ele>
        <time>2024-10-15T10:20:08.000Z</time>
      </trkpt>
      <trkpt lat="45.09797" lon="5.97455">
        <ele>2463.8000488281</ele>
        <time>2024-10-15T10:20:09.000Z</time>
      </trkpt>
      <trkpt lat="45.09797" lon="5.97455">
        <ele>2463.8000488281</ele>
        <time>2024-10-15T10:20:10.000Z</time>
      </trkpt>
      <trkpt lat="45.09797" lon="5.97455">
        <ele>2463.8000488281</ele>
        <time>2024-10-15T10:20:11.000Z</time>
      </trkpt>
      <trkpt lat="45.09797" lon="5.97455">
        <ele>2463.8000488281</ele>
        <time>2024-10-15T10:20:12.000Z</time>
      </trkpt>
      <trkpt lat="45.09797" lon="5.97455">
        <ele>2463.8000488281</ele>
        <time>2024-10-15T10:20:13.000Z</time>
      </trkpt>
      <trkpt lat="45.09797" lon="5.97455">
        <ele>2463.8000488281</ele>
        <time>2024-10-15T10:20:14.000Z</time>
      </trkpt>
      <trkpt lat="45.09797" lon="5.97455">
        <ele>2463.8000488281</ele>
        <time>2024-10-15T10:20:15.000Z</time>
      </trkpt>
      <trkpt lat="45.09797" lon="5.97455">
        <ele>2464</ele>
        <time>2024-10-15T10:20:16.000Z</time>
      </trkpt>
      <trkpt lat="45.09797" lon="5.97455">
        <ele>2464.1999511719</ele>
        <time>2024-10-15T10:20:17.000Z</time>
      </trkpt>
      <trkpt lat="45.09797" lon="5.97455">
        <ele>2464.1999511719</ele>
        <time>2024-10-15T10:20:18.000Z</time>
      </trkpt>
      <trkpt lat="45.09797" lon="5.97455">
        <ele>2464.1999511719</ele>
        <time>2024-10-15T10:20:19.000Z</time>
      </trkpt>
      <trkpt lat="45.09797" lon="5.97455">
        <ele>2464.1999511719</ele>
        <time>2024-10-15T10:20:20.000Z</time>
      </trkpt>
      <trkpt lat="45.09797" lon="5.97455">
        <ele>2464.1999511719</ele>
        <time>2024-10-15T10:20:21.000Z</time>
      </trkpt>
      <trkpt lat="45.09797" lon="5.97455">
        <ele>2464.1999511719</ele>
        <time>2024-10-15T10:20:22.000Z</time>
      </trkpt>
      <trkpt lat="45.09797" lon="5.97455">
        <ele>2464</ele>
        <time>2024-10-15T10:20:23.000Z</time>
      </trkpt>
      <trkpt lat="45.09797" lon="5.97455">
        <ele>2464</ele>
        <time>2024-10-15T10:20:24.000Z</time>
      </trkpt>
      <trkpt lat="45.09797" lon="5.97455">
        <ele>2464</ele>
        <time>2024-10-15T10:20:25.000Z</time>
      </trkpt>
      <trkpt lat="45.09797" lon="5.97455">
        <ele>2464</ele>
        <time>2024-10-15T10:20:26.000Z</time>
      </trkpt>
      <trkpt lat="45.09797" lon="5.97455">
        <ele>2464</ele>
        <time>2024-10-15T10:20:27.000Z</time>
      </trkpt>
      <trkpt lat="45.09797" lon="5.97455">
        <ele>2464</ele>
        <time>2024-10-15T10:20:28.000Z</time>
      </trkpt>
      <trkpt lat="45.09797" lon="5.97455">
        <ele>2464</ele>
        <time>2024-10-15T10:20:29.000Z</time>
      </trkpt>
      <trkpt lat="45.09797" lon="5.97455">
        <ele>2464</ele>
        <time>2024-10-15T10:20:30.000Z</time>
      </trkpt>
      <trkpt lat="45.09797" lon="5.97455">
        <ele>2464</ele>
        <time>2024-10-15T10:20:31.000Z</time>
      </trkpt>
      <trkpt lat="45.09797" lon="5.97455">
        <ele>2464</ele>
        <time>2024-10-15T10:20:32.000Z</time>
      </trkpt>
      <trkpt lat="45.09797" lon="5.97455">
        <ele>2464</ele>
        <time>2024-10-15T10:20:33.000Z</time>
      </trkpt>
      <trkpt lat="45.09797" lon="5.97455">
        <ele>2464</ele>
        <time>2024-10-15T10:20:34.000Z</time>
      </trkpt>
      <trkpt lat="45.09797" lon="5.97455">
        <ele>2464.1999511719</ele>
        <time>2024-10-15T10:20:35.000Z</time>
      </trkpt>
      <trkpt lat="45.09797" lon="5.97455">
        <ele>2464.1999511719</ele>
        <time>2024-10-15T10:20:36.000Z</time>
      </trkpt>
      <trkpt lat="45.09797" lon="5.97455">
        <ele>2464.1999511719</ele>
        <time>2024-10-15T10:20:37.000Z</time>
      </trkpt>
      <trkpt lat="45.09797" lon="5.97455">
        <ele>2464.1999511719</ele>
        <time>2024-10-15T10:20:38.000Z</time>
      </trkpt>
      <trkpt lat="45.09797" lon="5.97455">
        <ele>2464.1999511719</ele>
        <time>2024-10-15T10:20:39.000Z</time>
      </trkpt>
      <trkpt lat="45.09797" lon="5.97455">
        <ele>2464.1999511719</ele>
        <time>2024-10-15T10:20:40.000Z</time>
      </trkpt>
      <trkpt lat="45.09797" lon="5.97455">
        <ele>2464.1999511719</ele>
        <time>2024-10-15T10:20:41.000Z</time>
      </trkpt>
      <trkpt lat="45.09797" lon="5.97455">
        <ele>2464</ele>
        <time>2024-10-15T10:20:42.000Z</time>
      </trkpt>
      <trkpt lat="45.09797" lon="5.97455">
        <ele>2464</ele>
        <time>2024-10-15T10:20:43.000Z</time>
      </trkpt>
      <trkpt lat="45.09797" lon="5.97455">
        <ele>2464</ele>
        <time>2024-10-15T10:20:44.000Z</time>
      </trkpt>
      <trkpt lat="45.09797" lon="5.97455">
        <ele>2464</ele>
        <time>2024-10-15T10:20:45.000Z</time>
      </trkpt>
      <trkpt lat="45.09797" lon="5.97455">
        <ele>2464</ele>
        <time>2024-10-15T10:20:46.000Z</time>
      </trkpt>
      <trkpt lat="45.09797" lon="5.97455">
        <ele>2464</ele>
        <time>2024-10-15T10:20:47.000Z</time>
      </trkpt>
      <trkpt lat="45.09797" lon="5.97455">
        <ele>2464</ele>
        <time>2024-10-15T10:20:48.000Z</time>
      </trkpt>
      <trkpt lat="45.09797" lon="5.97455">
        <ele>2463.8000488281</ele>
        <time>2024-10-15T10:20:49.000Z</time>
      </trkpt>
      <trkpt lat="45.09797" lon="5.97455">
        <ele>2463.8000488281</ele>
        <time>2024-10-15T10:20:50.000Z</time>
      </trkpt>
      <trkpt lat="45.09797" lon="5.97455">
        <ele>2463.8000488281</ele>
        <time>2024-10-15T10:20:51.000Z</time>
      </trkpt>
      <trkpt lat="45.09797" lon="5.97455">
        <ele>2463.8000488281</ele>
        <time>2024-10-15T10:20:52.000Z</time>
      </trkpt>
      <trkpt lat="45.09797" lon="5.97455">
        <ele>2463.8000488281</ele>
        <time>2024-10-15T10:20:53.000Z</time>
      </trkpt>
      <trkpt lat="45.09797" lon="5.97455">
        <ele>2463.8000488281</ele>
        <time>2024-10-15T10:20:54.000Z</time>
      </trkpt>
      <trkpt lat="45.09797" lon="5.97455">
        <ele>2463.6000976562</ele>
        <time>2024-10-15T10:20:55.000Z</time>
      </trkpt>
      <trkpt lat="45.09797" lon="5.97455">
        <ele>2463.6000976562</ele>
        <time>2024-10-15T10:20:56.000Z</time>
      </trkpt>
      <trkpt lat="45.09797" lon="5.97455">
        <ele>2463.6000976562</ele>
        <time>2024-10-15T10:20:57.000Z</time>
      </trkpt>
      <trkpt lat="45.09797" lon="5.97455">
        <ele>2463.6000976562</ele>
        <time>2024-10-15T10:20:58.000Z</time>
      </trkpt>
      <trkpt lat="45.09797" lon="5.97455">
        <ele>2463.6000976562</ele>
        <time>2024-10-15T10:20:59.000Z</time>
      </trkpt>
      <trkpt lat="45.09797" lon="5.97455">
        <ele>2463.6000976562</ele>
        <time>2024-10-15T10:21:00.000Z</time>
      </trkpt>
      <trkpt lat="45.09797" lon="5.97455">
        <ele>2463.6000976562</ele>
        <time>2024-10-15T10:21:01.000Z</time>
      </trkpt>
      <trkpt lat="45.09797" lon="5.97455">
        <ele>2463.6000976562</ele>
        <time>2024-10-15T10:21:02.000Z</time>
      </trkpt>
      <trkpt lat="45.09797" lon="5.97455">
        <ele>2463.6000976562</ele>
        <time>2024-10-15T10:21:03.000Z</time>
      </trkpt>
      <trkpt lat="45.09797" lon="5.97455">
        <ele>2463.6000976562</ele>
        <time>2024-10-15T10:21:04.000Z</time>
      </trkpt>
      <trkpt lat="45.09797" lon="5.97455">
        <ele>2463.6000976562</ele>
        <time>2024-10-15T10:21:05.000Z</time>
      </trkpt>
      <trkpt lat="45.09797" lon="5.97455">
        <ele>2463.6000976562</ele>
        <time>2024-10-15T10:21:06.000Z</time>
      </trkpt>
      <trkpt lat="45.09797" lon="5.97455">
        <ele>2463.6000976562</ele>
        <time>2024-10-15T10:21:07.000Z</time>
      </trkpt>
      <trkpt lat="45.09797" lon="5.97455">
        <ele>2463.6000976562</ele>
        <time>2024-10-15T10:21:08.000Z</time>
      </trkpt>
      <trkpt lat="45.09797" lon="5.97455">
        <ele>2463.6000976562</ele>
        <time>2024-10-15T10:21:09.000Z</time>
      </trkpt>
      <trkpt lat="45.09797" lon="5.97455">
        <ele>2463.6000976562</ele>
        <time>2024-10-15T10:21:10.000Z</time>
      </trkpt>
      <trkpt lat="45.09797" lon="5.97455">
        <ele>2463.6000976562</ele>
        <time>2024-10-15T10:21:11.000Z</time>
      </trkpt>
      <trkpt lat="45.09797" lon="5.97455">
        <ele>2463.6000976562</ele>
        <time>2024-10-15T10:21:12.000Z</time>
      </trkpt>
      <trkpt lat="45.09797" lon="5.97455">
        <ele>2463.6000976562</ele>
        <time>2024-10-15T10:21:13.000Z</time>
      </trkpt>
      <trkpt lat="45.09797" lon="5.97455">
        <ele>2463.6000976562</ele>
        <time>2024-10-15T10:21:14.000Z</time>
      </trkpt>
      <trkpt lat="45.09797" lon="5.97455">
        <ele>2463.6000976562</ele>
        <time>2024-10-15T10:21:15.000Z</time>
      </trkpt>
      <trkpt lat="45.09797" lon="5.97455">
        <ele>2463.6000976562</ele>
        <time>2024-10-15T10:21:16.000Z</time>
      </trkpt>
      <trkpt lat="45.09797" lon="5.97455">
        <ele>2463.6000976562</ele>
        <time>2024-10-15T10:21:17.000Z</time>
      </trkpt>
      <trkpt lat="45.09797" lon="5.97455">
        <ele>2463.8000488281</ele>
        <time>2024-10-15T10:21:18.000Z</time>
      </trkpt>
      <trkpt lat="45.09797" lon="5.97455">
        <ele>2463.8000488281</ele>
        <time>2024-10-15T10:21:19.000Z</time>
      </trkpt>
      <trkpt lat="45.09797" lon="5.97455">
        <ele>2463.8000488281</ele>
        <time>2024-10-15T10:21:20.000Z</time>
      </trkpt>
      <trkpt lat="45.09797" lon="5.97455">
        <ele>2463.8000488281</ele>
        <time>2024-10-15T10:21:21.000Z</time>
      </trkpt>
      <trkpt lat="45.09797" lon="5.97455">
        <ele>2463.8000488281</ele>
        <time>2024-10-15T10:21:22.000Z</time>
      </trkpt>
      <trkpt lat="45.09797" lon="5.97455">
        <ele>2464</ele>
        <time>2024-10-15T10:21:23.000Z</time>
      </trkpt>
      <trkpt lat="45.09797" lon="5.97455">
        <ele>2464.1999511719</ele>
        <time>2024-10-15T10:21:24.000Z</time>
      </trkpt>
      <trkpt lat="45.09797" lon="5.97455">
        <ele>2464.1999511719</ele>
        <time>2024-10-15T10:21:25.000Z</time>
      </trkpt>
      <trkpt lat="45.09797" lon="5.97455">
        <ele>2464.1999511719</ele>
        <time>2024-10-15T10:21:26.000Z</time>
      </trkpt>
      <trkpt lat="45.09797" lon="5.97455">
        <ele>2464.1999511719</ele>
        <time>2024-10-15T10:21:27.000Z</time>
      </trkpt>
      <trkpt lat="45.09797" lon="5.97455">
        <ele>2464.1999511719</ele>
        <time>2024-10-15T10:21:28.000Z</time>
      </trkpt>
      <trkpt lat="45.09797" lon="5.97455">
        <ele>2464.1999511719</ele>
        <time>2024-10-15T10:21:29.000Z</time>
      </trkpt>
      <trkpt lat="45.09797" lon="5.97455">
        <ele>2464.1999511719</ele>
        <time>2024-10-15T10:21:30.000Z</time>
      </trkpt>
      <trkpt lat="45.09797" lon="5.97455">
        <ele>2464.1999511719</ele>
        <time>2024-10-15T10:21:31.000Z</time>
      </trkpt>
      <trkpt lat="45.09797" lon="5.97455">
        <ele>2464.1999511719</ele>
        <time>2024-10-15T10:21:32.000Z</time>
      </trkpt>
      <trkpt lat="45.09797" lon="5.97455">
        <ele>2464.1999511719</ele>
        <time>2024-10-15T10:21:33.000Z</time>
      </trkpt>
      <trkpt lat="45.09797" lon="5.97455">
        <ele>2464.1999511719</ele>
        <time>2024-10-15T10:21:34.000Z</time>
      </trkpt>
      <trkpt lat="45.09797" lon="5.97455">
        <ele>2464.1999511719</ele>
        <time>2024-10-15T10:21:35.000Z</time>
      </trkpt>
      <trkpt lat="45.09797" lon="5.97455">
        <ele>2464.1999511719</ele>
        <time>2024-10-15T10:21:36.000Z</time>
      </trkpt>
      <trkpt lat="45.09797" lon="5.97455">
        <ele>2464.3999023438</ele>
        <time>2024-10-15T10:21:37.000Z</time>
      </trkpt>
      <trkpt lat="45.09797" lon="5.97455">
        <ele>2464.3999023438</ele>
        <time>2024-10-15T10:21:38.000Z</time>
      </trkpt>
      <trkpt lat="45.09797" lon="5.97455">
        <ele>2464.3999023438</ele>
        <time>2024-10-15T10:21:39.000Z</time>
      </trkpt>
      <trkpt lat="45.09797" lon="5.97455">
        <ele>2464.3999023438</ele>
        <time>2024-10-15T10:21:40.000Z</time>
      </trkpt>
      <trkpt lat="45.09797" lon="5.97455">
        <ele>2464.3999023438</ele>
        <time>2024-10-15T10:21:41.000Z</time>
      </trkpt>
      <trkpt lat="45.09797" lon="5.97455">
        <ele>2464.3999023438</ele>
        <time>2024-10-15T10:21:42.000Z</time>
      </trkpt>
      <trkpt lat="45.09797" lon="5.97455">
        <ele>2464.3999023438</ele>
        <time>2024-10-15T10:21:43.000Z</time>
      </trkpt>
      <trkpt lat="45.09797" lon="5.97455">
        <ele>2464.3999023438</ele>
        <time>2024-10-15T10:21:44.000Z</time>
      </trkpt>
      <trkpt lat="45.09797" lon="5.97455">
        <ele>2464.3999023438</ele>
        <time>2024-10-15T10:21:45.000Z</time>
      </trkpt>
      <trkpt lat="45.09797" lon="5.97455">
        <ele>2464.3999023438</ele>
        <time>2024-10-15T10:21:46.000Z</time>
      </trkpt>
      <trkpt lat="45.09797" lon="5.97455">
        <ele>2464.3999023438</ele>
        <time>2024-10-15T10:21:47.000Z</time>
      </trkpt>
      <trkpt lat="45.09797" lon="5.97455">
        <ele>2464.6000976562</ele>
        <time>2024-10-15T10:21:48.000Z</time>
      </trkpt>
      <trkpt lat="45.09797" lon="5.97455">
        <ele>2464.6000976562</ele>
        <time>2024-10-15T10:21:49.000Z</time>
      </trkpt>
      <trkpt lat="45.09797" lon="5.97455">
        <ele>2464.8000488281</ele>
        <time>2024-10-15T10:21:50.000Z</time>
      </trkpt>
      <trkpt lat="45.09797" lon="5.97455">
        <ele>2464.8000488281</ele>
        <time>2024-10-15T10:21:51.000Z</time>
      </trkpt>
      <trkpt lat="45.09797" lon="5.97455">
        <ele>2464.8000488281</ele>
        <time>2024-10-15T10:21:52.000Z</time>
      </trkpt>
      <trkpt lat="45.09797" lon="5.97455">
        <ele>2464.8000488281</ele>
        <time>2024-10-15T10:21:53.000Z</time>
      </trkpt>
      <trkpt lat="45.09797" lon="5.97455">
        <ele>2464.8000488281</ele>
        <time>2024-10-15T10:21:54.000Z</time>
      </trkpt>
      <trkpt lat="45.09797" lon="5.97455">
        <ele>2464.8000488281</ele>
        <time>2024-10-15T10:21:55.000Z</time>
      </trkpt>
      <trkpt lat="45.09797" lon="5.97455">
        <ele>2464.8000488281</ele>
        <time>2024-10-15T10:21:56.000Z</time>
      </trkpt>
      <trkpt lat="45.09797" lon="5.97455">
        <ele>2464.8000488281</ele>
        <time>2024-10-15T10:21:57.000Z</time>
      </trkpt>
      <trkpt lat="45.09797" lon="5.97455">
        <ele>2464.8000488281</ele>
        <time>2024-10-15T10:21:58.000Z</time>
      </trkpt>
      <trkpt lat="45.09797" lon="5.97455">
        <ele>2464.8000488281</ele>
        <time>2024-10-15T10:21:59.000Z</time>
      </trkpt>
      <trkpt lat="45.09797" lon="5.97455">
        <ele>2465</ele>
        <time>2024-10-15T10:22:00.000Z</time>
      </trkpt>
      <trkpt lat="45.09797" lon="5.97455">
        <ele>2465</ele>
        <time>2024-10-15T10:22:01.000Z</time>
      </trkpt>
      <trkpt lat="45.09797" lon="5.97455">
        <ele>2465</ele>
        <time>2024-10-15T10:22:02.000Z</time>
      </trkpt>
      <trkpt lat="45.09797" lon="5.97455">
        <ele>2465</ele>
        <time>2024-10-15T10:22:03.000Z</time>
      </trkpt>
      <trkpt lat="45.09797" lon="5.97455">
        <ele>2465</ele>
        <time>2024-10-15T10:22:04.000Z</time>
      </trkpt>
      <trkpt lat="45.09797" lon="5.97455">
        <ele>2465</ele>
        <time>2024-10-15T10:22:05.000Z</time>
      </trkpt>
      <trkpt lat="45.09797" lon="5.97455">
        <ele>2465</ele>
        <time>2024-10-15T10:22:06.000Z</time>
      </trkpt>
      <trkpt lat="45.09797" lon="5.97455">
        <ele>2465.1999511719</ele>
        <time>2024-10-15T10:22:07.000Z</time>
      </trkpt>
      <trkpt lat="45.09797" lon="5.97455">
        <ele>2465.1999511719</ele>
        <time>2024-10-15T10:22:08.000Z</time>
      </trkpt>
      <trkpt lat="45.09797" lon="5.97455">
        <ele>2465.1999511719</ele>
        <time>2024-10-15T10:22:09.000Z</time>
      </trkpt>
      <trkpt lat="45.09797" lon="5.97455">
        <ele>2465.1999511719</ele>
        <time>2024-10-15T10:22:10.000Z</time>
      </trkpt>
      <trkpt lat="45.09797" lon="5.97455">
        <ele>2465.3999023438</ele>
        <time>2024-10-15T10:22:11.000Z</time>
      </trkpt>
      <trkpt lat="45.09797" lon="5.97455">
        <ele>2465.3999023438</ele>
        <time>2024-10-15T10:22:12.000Z</time>
      </trkpt>
      <trkpt lat="45.09797" lon="5.97456">
        <ele>2465.3999023438</ele>
        <time>2024-10-15T10:22:13.000Z</time>
      </trkpt>
      <trkpt lat="45.09797" lon="5.97456">
        <ele>2465.3999023438</ele>
        <time>2024-10-15T10:22:14.000Z</time>
      </trkpt>
      <trkpt lat="45.09797" lon="5.97456">
        <ele>2465.3999023438</ele>
        <time>2024-10-15T10:22:15.000Z</time>
      </trkpt>
      <trkpt lat="45.09797" lon="5.97456">
        <ele>2465.1999511719</ele>
        <time>2024-10-15T10:22:16.000Z</time>
      </trkpt>
      <trkpt lat="45.09797" lon="5.97456">
        <ele>2465.1999511719</ele>
        <time>2024-10-15T10:22:17.000Z</time>
      </trkpt>
      <trkpt lat="45.09797" lon="5.97456">
        <ele>2465.1999511719</ele>
        <time>2024-10-15T10:22:18.000Z</time>
      </trkpt>
      <trkpt lat="45.09797" lon="5.97456">
        <ele>2465.3999023438</ele>
        <time>2024-10-15T10:22:19.000Z</time>
      </trkpt>
      <trkpt lat="45.09797" lon="5.97456">
        <ele>2465.3999023438</ele>
        <time>2024-10-15T10:22:20.000Z</time>
      </trkpt>
      <trkpt lat="45.09797" lon="5.97456">
        <ele>2465.3999023438</ele>
        <time>2024-10-15T10:22:21.000Z</time>
      </trkpt>
      <trkpt lat="45.09797" lon="5.97456">
        <ele>2465.3999023438</ele>
        <time>2024-10-15T10:22:22.000Z</time>
      </trkpt>
      <trkpt lat="45.09797" lon="5.97456">
        <ele>2465.3999023438</ele>
        <time>2024-10-15T10:22:23.000Z</time>
      </trkpt>
      <trkpt lat="45.09797" lon="5.97456">
        <ele>2465.6000976562</ele>
        <time>2024-10-15T10:22:24.000Z</time>
      </trkpt>
      <trkpt lat="45.09797" lon="5.97456">
        <ele>2465.6000976562</ele>
        <time>2024-10-15T10:22:25.000Z</time>
      </trkpt>
      <trkpt lat="45.09797" lon="5.97456">
        <ele>2465.6000976562</ele>
        <time>2024-10-15T10:22:26.000Z</time>
      </trkpt>
      <trkpt lat="45.09797" lon="5.97456">
        <ele>2465.6000976562</ele>
        <time>2024-10-15T10:22:27.000Z</time>
      </trkpt>
      <trkpt lat="45.09797" lon="5.97456">
        <ele>2465.6000976562</ele>
        <time>2024-10-15T10:22:28.000Z</time>
      </trkpt>
      <trkpt lat="45.09797" lon="5.97456">
        <ele>2465.6000976562</ele>
        <time>2024-10-15T10:22:29.000Z</time>
      </trkpt>
      <trkpt lat="45.09797" lon="5.97456">
        <ele>2465.8000488281</ele>
        <time>2024-10-15T10:22:30.000Z</time>
      </trkpt>
      <trkpt lat="45.09797" lon="5.97456">
        <ele>2465.8000488281</ele>
        <time>2024-10-15T10:22:31.000Z</time>
      </trkpt>
      <trkpt lat="45.09797" lon="5.97456">
        <ele>2465.8000488281</ele>
        <time>2024-10-15T10:22:32.000Z</time>
      </trkpt>
      <trkpt lat="45.09797" lon="5.97456">
        <ele>2465.8000488281</ele>
        <time>2024-10-15T10:22:33.000Z</time>
      </trkpt>
      <trkpt lat="45.09797" lon="5.97456">
        <ele>2465.8000488281</ele>
        <time>2024-10-15T10:22:34.000Z</time>
      </trkpt>
      <trkpt lat="45.09797" lon="5.97456">
        <ele>2465.8000488281</ele>
        <time>2024-10-15T10:22:35.000Z</time>
      </trkpt>
      <trkpt lat="45.09797" lon="5.97456">
        <ele>2465.8000488281</ele>
        <time>2024-10-15T10:22:36.000Z</time>
      </trkpt>
      <trkpt lat="45.09797" lon="5.97456">
        <ele>2465.8000488281</ele>
        <time>2024-10-15T10:22:37.000Z</time>
      </trkpt>
      <trkpt lat="45.09797" lon="5.97456">
        <ele>2465.8000488281</ele>
        <time>2024-10-15T10:22:38.000Z</time>
      </trkpt>
      <trkpt lat="45.09797" lon="5.97456">
        <ele>2465.8000488281</ele>
        <time>2024-10-15T10:22:39.000Z</time>
      </trkpt>
      <trkpt lat="45.09797" lon="5.97456">
        <ele>2465.8000488281</ele>
        <time>2024-10-15T10:22:40.000Z</time>
      </trkpt>
      <trkpt lat="45.09797" lon="5.97456">
        <ele>2466</ele>
        <time>2024-10-15T10:22:41.000Z</time>
      </trkpt>
      <trkpt lat="45.09797" lon="5.97456">
        <ele>2466</ele>
        <time>2024-10-15T10:22:42.000Z</time>
      </trkpt>
      <trkpt lat="45.09797" lon="5.97456">
        <ele>2466</ele>
        <time>2024-10-15T10:22:43.000Z</time>
      </trkpt>
      <trkpt lat="45.09797" lon="5.97456">
        <ele>2466</ele>
        <time>2024-10-15T10:22:44.000Z</time>
      </trkpt>
      <trkpt lat="45.09797" lon="5.97456">
        <ele>2466</ele>
        <time>2024-10-15T10:22:45.000Z</time>
      </trkpt>
      <trkpt lat="45.09797" lon="5.97456">
        <ele>2466</ele>
        <time>2024-10-15T10:22:46.000Z</time>
      </trkpt>
      <trkpt lat="45.09797" lon="5.97456">
        <ele>2466.1999511719</ele>
        <time>2024-10-15T10:22:47.000Z</time>
      </trkpt>
      <trkpt lat="45.09797" lon="5.97456">
        <ele>2466.1999511719</ele>
        <time>2024-10-15T10:22:48.000Z</time>
      </trkpt>
      <trkpt lat="45.09797" lon="5.97456">
        <ele>2466.1999511719</ele>
        <time>2024-10-15T10:22:49.000Z</time>
      </trkpt>
      <trkpt lat="45.09797" lon="5.97456">
        <ele>2466.1999511719</ele>
        <time>2024-10-15T10:22:50.000Z</time>
      </trkpt>
      <trkpt lat="45.09797" lon="5.97456">
        <ele>2466.1999511719</ele>
        <time>2024-10-15T10:22:51.000Z</time>
      </trkpt>
      <trkpt lat="45.09797" lon="5.97456">
        <ele>2466.1999511719</ele>
        <time>2024-10-15T10:22:52.000Z</time>
      </trkpt>
      <trkpt lat="45.09797" lon="5.97456">
        <ele>2466</ele>
        <time>2024-10-15T10:22:53.000Z</time>
      </trkpt>
      <trkpt lat="45.09797" lon="5.97456">
        <ele>2466.1999511719</ele>
        <time>2024-10-15T10:22:54.000Z</time>
      </trkpt>
      <trkpt lat="45.09797" lon="5.97456">
        <ele>2466.1999511719</ele>
        <time>2024-10-15T10:22:55.000Z</time>
      </trkpt>
      <trkpt lat="45.09797" lon="5.97456">
        <ele>2466.1999511719</ele>
        <time>2024-10-15T10:22:56.000Z</time>
      </trkpt>
      <trkpt lat="45.09797" lon="5.97456">
        <ele>2466.1999511719</ele>
        <time>2024-10-15T10:22:57.000Z</time>
      </trkpt>
      <trkpt lat="45.09797" lon="5.97456">
        <ele>2466.1999511719</ele>
        <time>2024-10-15T10:22:58.000Z</time>
      </trkpt>
      <trkpt lat="45.09797" lon="5.97456">
        <ele>2466.1999511719</ele>
        <time>2024-10-15T10:22:59.000Z</time>
      </trkpt>
      <trkpt lat="45.09797" lon="5.97456">
        <ele>2466.1999511719</ele>
        <time>2024-10-15T10:23:00.000Z</time>
      </trkpt>
      <trkpt lat="45.09797" lon="5.97456">
        <ele>2466.1999511719</ele>
        <time>2024-10-15T10:23:01.000Z</time>
      </trkpt>
      <trkpt lat="45.09797" lon="5.97456">
        <ele>2466.1999511719</ele>
        <time>2024-10-15T10:23:02.000Z</time>
      </trkpt>
      <trkpt lat="45.09797" lon="5.97456">
        <ele>2466.1999511719</ele>
        <time>2024-10-15T10:23:03.000Z</time>
      </trkpt>
      <trkpt lat="45.09797" lon="5.97456">
        <ele>2466.1999511719</ele>
        <time>2024-10-15T10:23:04.000Z</time>
      </trkpt>
      <trkpt lat="45.09797" lon="5.97456">
        <ele>2466.3999023438</ele>
        <time>2024-10-15T10:23:05.000Z</time>
      </trkpt>
      <trkpt lat="45.09797" lon="5.97456">
        <ele>2466.3999023438</ele>
        <time>2024-10-15T10:23:06.000Z</time>
      </trkpt>
      <trkpt lat="45.09797" lon="5.97456">
        <ele>2466.3999023438</ele>
        <time>2024-10-15T10:23:07.000Z</time>
      </trkpt>
      <trkpt lat="45.09797" lon="5.97456">
        <ele>2466.6000976562</ele>
        <time>2024-10-15T10:23:08.000Z</time>
      </trkpt>
      <trkpt lat="45.09797" lon="5.97456">
        <ele>2466.6000976562</ele>
        <time>2024-10-15T10:23:09.000Z</time>
      </trkpt>
      <trkpt lat="45.09797" lon="5.97456">
        <ele>2466.6000976562</ele>
        <time>2024-10-15T10:23:10.000Z</time>
      </trkpt>
      <trkpt lat="45.09797" lon="5.97456">
        <ele>2466.3999023438</ele>
        <time>2024-10-15T10:23:11.000Z</time>
      </trkpt>
      <trkpt lat="45.09797" lon="5.97456">
        <ele>2466.3999023438</ele>
        <time>2024-10-15T10:23:12.000Z</time>
      </trkpt>
      <trkpt lat="45.09797" lon="5.97456">
        <ele>2466.3999023438</ele>
        <time>2024-10-15T10:23:13.000Z</time>
      </trkpt>
      <trkpt lat="45.09797" lon="5.97456">
        <ele>2466.3999023438</ele>
        <time>2024-10-15T10:23:14.000Z</time>
      </trkpt>
      <trkpt lat="45.09797" lon="5.97456">
        <ele>2466.3999023438</ele>
        <time>2024-10-15T10:23:15.000Z</time>
      </trkpt>
      <trkpt lat="45.09797" lon="5.97456">
        <ele>2466.6000976562</ele>
        <time>2024-10-15T10:23:16.000Z</time>
      </trkpt>
      <trkpt lat="45.09797" lon="5.97456">
        <ele>2466.6000976562</ele>
        <time>2024-10-15T10:23:17.000Z</time>
      </trkpt>
      <trkpt lat="45.09797" lon="5.97456">
        <ele>2466.6000976562</ele>
        <time>2024-10-15T10:23:18.000Z</time>
      </trkpt>
      <trkpt lat="45.09797" lon="5.97456">
        <ele>2466.6000976562</ele>
        <time>2024-10-15T10:23:19.000Z</time>
      </trkpt>
      <trkpt lat="45.09797" lon="5.97456">
        <ele>2466.6000976562</ele>
        <time>2024-10-15T10:23:20.000Z</time>
      </trkpt>
      <trkpt lat="45.09797" lon="5.97456">
        <ele>2466.6000976562</ele>
        <time>2024-10-15T10:23:21.000Z</time>
      </trkpt>
      <trkpt lat="45.09797" lon="5.97456">
        <ele>2466.6000976562</ele>
        <time>2024-10-15T10:23:22.000Z</time>
      </trkpt>
      <trkpt lat="45.09797" lon="5.97456">
        <ele>2466.3999023438</ele>
        <time>2024-10-15T10:23:23.000Z</time>
      </trkpt>
      <trkpt lat="45.09797" lon="5.97456">
        <ele>2466.3999023438</ele>
        <time>2024-10-15T10:23:24.000Z</time>
      </trkpt>
      <trkpt lat="45.09797" lon="5.97456">
        <ele>2466.1999511719</ele>
        <time>2024-10-15T10:23:25.000Z</time>
      </trkpt>
      <trkpt lat="45.09797" lon="5.97456">
        <ele>2466.1999511719</ele>
        <time>2024-10-15T10:23:26.000Z</time>
      </trkpt>
      <trkpt lat="45.09797" lon="5.97456">
        <ele>2466.3999023438</ele>
        <time>2024-10-15T10:23:27.000Z</time>
      </trkpt>
      <trkpt lat="45.09797" lon="5.97456">
        <ele>2466.3999023438</ele>
        <time>2024-10-15T10:23:28.000Z</time>
      </trkpt>
      <trkpt lat="45.09797" lon="5.97456">
        <ele>2466.3999023438</ele>
        <time>2024-10-15T10:23:29.000Z</time>
      </trkpt>
      <trkpt lat="45.09797" lon="5.97456">
        <ele>2466.3999023438</ele>
        <time>2024-10-15T10:23:30.000Z</time>
      </trkpt>
      <trkpt lat="45.09797" lon="5.97456">
        <ele>2466.6000976562</ele>
        <time>2024-10-15T10:23:31.000Z</time>
      </trkpt>
      <trkpt lat="45.09797" lon="5.97456">
        <ele>2466.6000976562</ele>
        <time>2024-10-15T10:23:32.000Z</time>
      </trkpt>
      <trkpt lat="45.09797" lon="5.97456">
        <ele>2466.3999023438</ele>
        <time>2024-10-15T10:23:33.000Z</time>
      </trkpt>
      <trkpt lat="45.09797" lon="5.97456">
        <ele>2466.3999023438</ele>
        <time>2024-10-15T10:23:34.000Z</time>
      </trkpt>
      <trkpt lat="45.09797" lon="5.97456">
        <ele>2466.3999023438</ele>
        <time>2024-10-15T10:23:35.000Z</time>
      </trkpt>
      <trkpt lat="45.09797" lon="5.97456">
        <ele>2466.3999023438</ele>
        <time>2024-10-15T10:23:36.000Z</time>
      </trkpt>
      <trkpt lat="45.09797" lon="5.97456">
        <ele>2466.3999023438</ele>
        <time>2024-10-15T10:23:37.000Z</time>
      </trkpt>
      <trkpt lat="45.09797" lon="5.97456">
        <ele>2466.1999511719</ele>
        <time>2024-10-15T10:23:38.000Z</time>
      </trkpt>
      <trkpt lat="45.09797" lon="5.97456">
        <ele>2466.1999511719</ele>
        <time>2024-10-15T10:23:39.000Z</time>
      </trkpt>
      <trkpt lat="45.09797" lon="5.97456">
        <ele>2466.3999023438</ele>
        <time>2024-10-15T10:23:40.000Z</time>
      </trkpt>
      <trkpt lat="45.09797" lon="5.97456">
        <ele>2466.3999023438</ele>
        <time>2024-10-15T10:23:41.000Z</time>
      </trkpt>
      <trkpt lat="45.09797" lon="5.97456">
        <ele>2466.3999023438</ele>
        <time>2024-10-15T10:23:42.000Z</time>
      </trkpt>
      <trkpt lat="45.09797" lon="5.97456">
        <ele>2466.3999023438</ele>
        <time>2024-10-15T10:23:43.000Z</time>
      </trkpt>
      <trkpt lat="45.09797" lon="5.97456">
        <ele>2466.6000976562</ele>
        <time>2024-10-15T10:23:44.000Z</time>
      </trkpt>
      <trkpt lat="45.09797" lon="5.97456">
        <ele>2466.8000488281</ele>
        <time>2024-10-15T10:23:45.000Z</time>
      </trkpt>
      <trkpt lat="45.09797" lon="5.97456">
        <ele>2467</ele>
        <time>2024-10-15T10:23:46.000Z</time>
      </trkpt>
      <trkpt lat="45.09797" lon="5.97456">
        <ele>2467</ele>
        <time>2024-10-15T10:23:47.000Z</time>
      </trkpt>
      <trkpt lat="45.09797" lon="5.97456">
        <ele>2467</ele>
        <time>2024-10-15T10:23:48.000Z</time>
      </trkpt>
      <trkpt lat="45.09797" lon="5.97456">
        <ele>2467.1999511719</ele>
        <time>2024-10-15T10:23:49.000Z</time>
      </trkpt>
      <trkpt lat="45.09797" lon="5.97456">
        <ele>2467.1999511719</ele>
        <time>2024-10-15T10:23:50.000Z</time>
      </trkpt>
      <trkpt lat="45.09797" lon="5.97456">
        <ele>2467.1999511719</ele>
        <time>2024-10-15T10:23:51.000Z</time>
      </trkpt>
      <trkpt lat="45.09797" lon="5.97456">
        <ele>2467.1999511719</ele>
        <time>2024-10-15T10:23:52.000Z</time>
      </trkpt>
      <trkpt lat="45.09797" lon="5.97456">
        <ele>2467</ele>
        <time>2024-10-15T10:23:53.000Z</time>
      </trkpt>
      <trkpt lat="45.09797" lon="5.97456">
        <ele>2467</ele>
        <time>2024-10-15T10:23:54.000Z</time>
      </trkpt>
      <trkpt lat="45.09797" lon="5.97456">
        <ele>2467</ele>
        <time>2024-10-15T10:23:55.000Z</time>
      </trkpt>
      <trkpt lat="45.09797" lon="5.97456">
        <ele>2467</ele>
        <time>2024-10-15T10:23:56.000Z</time>
      </trkpt>
      <trkpt lat="45.09797" lon="5.97456">
        <ele>2467</ele>
        <time>2024-10-15T10:23:57.000Z</time>
      </trkpt>
      <trkpt lat="45.09797" lon="5.97456">
        <ele>2467</ele>
        <time>2024-10-15T10:23:58.000Z</time>
      </trkpt>
      <trkpt lat="45.09797" lon="5.97456">
        <ele>2467</ele>
        <time>2024-10-15T10:23:59.000Z</time>
      </trkpt>
      <trkpt lat="45.09797" lon="5.97456">
        <ele>2467</ele>
        <time>2024-10-15T10:24:00.000Z</time>
      </trkpt>
      <trkpt lat="45.09797" lon="5.97456">
        <ele>2467</ele>
        <time>2024-10-15T10:24:01.000Z</time>
      </trkpt>
      <trkpt lat="45.09797" lon="5.97456">
        <ele>2467</ele>
        <time>2024-10-15T10:24:02.000Z</time>
      </trkpt>
      <trkpt lat="45.09797" lon="5.97456">
        <ele>2467.3999023438</ele>
        <time>2024-10-15T10:24:03.000Z</time>
      </trkpt>
      <trkpt lat="45.09797" lon="5.97456">
        <ele>2467.6000976562</ele>
        <time>2024-10-15T10:24:04.000Z</time>
      </trkpt>
      <trkpt lat="45.09797" lon="5.97456">
        <ele>2467.6000976562</ele>
        <time>2024-10-15T10:24:05.000Z</time>
      </trkpt>
      <trkpt lat="45.09797" lon="5.97456">
        <ele>2467.6000976562</ele>
        <time>2024-10-15T10:24:06.000Z</time>
      </trkpt>
      <trkpt lat="45.09797" lon="5.97456">
        <ele>2467.6000976562</ele>
        <time>2024-10-15T10:24:07.000Z</time>
      </trkpt>
      <trkpt lat="45.09797" lon="5.97456">
        <ele>2467.6000976562</ele>
        <time>2024-10-15T10:24:08.000Z</time>
      </trkpt>
      <trkpt lat="45.09797" lon="5.97456">
        <ele>2467.6000976562</ele>
        <time>2024-10-15T10:24:09.000Z</time>
      </trkpt>
      <trkpt lat="45.09797" lon="5.97456">
        <ele>2467.6000976562</ele>
        <time>2024-10-15T10:24:10.000Z</time>
      </trkpt>
      <trkpt lat="45.09797" lon="5.97456">
        <ele>2467.6000976562</ele>
        <time>2024-10-15T10:24:11.000Z</time>
      </trkpt>
      <trkpt lat="45.09797" lon="5.97456">
        <ele>2467.6000976562</ele>
        <time>2024-10-15T10:24:12.000Z</time>
      </trkpt>
      <trkpt lat="45.09797" lon="5.97456">
        <ele>2467.6000976562</ele>
        <time>2024-10-15T10:24:13.000Z</time>
      </trkpt>
      <trkpt lat="45.09797" lon="5.97456">
        <ele>2467.3999023438</ele>
        <time>2024-10-15T10:24:14.000Z</time>
      </trkpt>
      <trkpt lat="45.09797" lon="5.97456">
        <ele>2467.1999511719</ele>
        <time>2024-10-15T10:24:15.000Z</time>
      </trkpt>
      <trkpt lat="45.09797" lon="5.97456">
        <ele>2467.1999511719</ele>
        <time>2024-10-15T10:24:16.000Z</time>
      </trkpt>
      <trkpt lat="45.09797" lon="5.97456">
        <ele>2467.1999511719</ele>
        <time>2024-10-15T10:24:17.000Z</time>
      </trkpt>
      <trkpt lat="45.09797" lon="5.97456">
        <ele>2467.1999511719</ele>
        <time>2024-10-15T10:24:18.000Z</time>
      </trkpt>
      <trkpt lat="45.09797" lon="5.97456">
        <ele>2467.1999511719</ele>
        <time>2024-10-15T10:24:19.000Z</time>
      </trkpt>
      <trkpt lat="45.09797" lon="5.97456">
        <ele>2467.1999511719</ele>
        <time>2024-10-15T10:24:20.000Z</time>
      </trkpt>
      <trkpt lat="45.09797" lon="5.97456">
        <ele>2467</ele>
        <time>2024-10-15T10:24:21.000Z</time>
      </trkpt>
      <trkpt lat="45.09797" lon="5.97456">
        <ele>2467.1999511719</ele>
        <time>2024-10-15T10:24:22.000Z</time>
      </trkpt>
      <trkpt lat="45.09797" lon="5.97456">
        <ele>2467.1999511719</ele>
        <time>2024-10-15T10:24:23.000Z</time>
      </trkpt>
      <trkpt lat="45.09797" lon="5.97456">
        <ele>2467</ele>
        <time>2024-10-15T10:24:24.000Z</time>
      </trkpt>
      <trkpt lat="45.09797" lon="5.97456">
        <ele>2467</ele>
        <time>2024-10-15T10:24:25.000Z</time>
      </trkpt>
      <trkpt lat="45.09797" lon="5.97456">
        <ele>2467</ele>
        <time>2024-10-15T10:24:26.000Z</time>
      </trkpt>
      <trkpt lat="45.09797" lon="5.97456">
        <ele>2467</ele>
        <time>2024-10-15T10:24:27.000Z</time>
      </trkpt>
      <trkpt lat="45.09797" lon="5.97456">
        <ele>2466.6000976562</ele>
        <time>2024-10-15T10:24:28.000Z</time>
      </trkpt>
      <trkpt lat="45.09797" lon="5.97456">
        <ele>2466.6000976562</ele>
        <time>2024-10-15T10:24:29.000Z</time>
      </trkpt>
      <trkpt lat="45.09797" lon="5.97456">
        <ele>2466.3999023438</ele>
        <time>2024-10-15T10:24:30.000Z</time>
      </trkpt>
      <trkpt lat="45.09797" lon="5.97456">
        <ele>2466.3999023438</ele>
        <time>2024-10-15T10:24:31.000Z</time>
      </trkpt>
      <trkpt lat="45.09797" lon="5.97456">
        <ele>2466.3999023438</ele>
        <time>2024-10-15T10:24:32.000Z</time>
      </trkpt>
      <trkpt lat="45.09797" lon="5.97456">
        <ele>2466.3999023438</ele>
        <time>2024-10-15T10:24:33.000Z</time>
      </trkpt>
      <trkpt lat="45.09797" lon="5.97456">
        <ele>2466.3999023438</ele>
        <time>2024-10-15T10:24:34.000Z</time>
      </trkpt>
      <trkpt lat="45.09797" lon="5.97456">
        <ele>2466.3999023438</ele>
        <time>2024-10-15T10:24:35.000Z</time>
      </trkpt>
      <trkpt lat="45.09797" lon="5.97456">
        <ele>2466.3999023438</ele>
        <time>2024-10-15T10:24:36.000Z</time>
      </trkpt>
      <trkpt lat="45.09797" lon="5.97456">
        <ele>2466.3999023438</ele>
        <time>2024-10-15T10:24:37.000Z</time>
      </trkpt>
      <trkpt lat="45.09797" lon="5.97456">
        <ele>2466.3999023438</ele>
        <time>2024-10-15T10:24:38.000Z</time>
      </trkpt>
      <trkpt lat="45.09797" lon="5.97456">
        <ele>2466.3999023438</ele>
        <time>2024-10-15T10:24:39.000Z</time>
      </trkpt>
      <trkpt lat="45.09797" lon="5.97456">
        <ele>2466.3999023438</ele>
        <time>2024-10-15T10:24:40.000Z</time>
      </trkpt>
      <trkpt lat="45.09797" lon="5.97456">
        <ele>2466.3999023438</ele>
        <time>2024-10-15T10:24:41.000Z</time>
      </trkpt>
      <trkpt lat="45.09797" lon="5.97456">
        <ele>2466.1999511719</ele>
        <time>2024-10-15T10:24:42.000Z</time>
      </trkpt>
      <trkpt lat="45.09797" lon="5.97456">
        <ele>2466.1999511719</ele>
        <time>2024-10-15T10:24:43.000Z</time>
      </trkpt>
      <trkpt lat="45.09797" lon="5.97456">
        <ele>2466.1999511719</ele>
        <time>2024-10-15T10:24:44.000Z</time>
      </trkpt>
      <trkpt lat="45.09797" lon="5.97456">
        <ele>2466.1999511719</ele>
        <time>2024-10-15T10:24:45.000Z</time>
      </trkpt>
      <trkpt lat="45.09797" lon="5.97456">
        <ele>2466.1999511719</ele>
        <time>2024-10-15T10:24:46.000Z</time>
      </trkpt>
      <trkpt lat="45.09797" lon="5.97456">
        <ele>2466.3999023438</ele>
        <time>2024-10-15T10:24:47.000Z</time>
      </trkpt>
      <trkpt lat="45.09797" lon="5.97456">
        <ele>2466.3999023438</ele>
        <time>2024-10-15T10:24:48.000Z</time>
      </trkpt>
      <trkpt lat="45.09797" lon="5.97456">
        <ele>2466.3999023438</ele>
        <time>2024-10-15T10:24:49.000Z</time>
      </trkpt>
      <trkpt lat="45.09797" lon="5.97456">
        <ele>2466.1999511719</ele>
        <time>2024-10-15T10:24:50.000Z</time>
      </trkpt>
      <trkpt lat="45.09797" lon="5.97456">
        <ele>2466.1999511719</ele>
        <time>2024-10-15T10:24:51.000Z</time>
      </trkpt>
      <trkpt lat="45.09797" lon="5.97456">
        <ele>2466</ele>
        <time>2024-10-15T10:24:52.000Z</time>
      </trkpt>
      <trkpt lat="45.09797" lon="5.97456">
        <ele>2466</ele>
        <time>2024-10-15T10:24:53.000Z</time>
      </trkpt>
      <trkpt lat="45.09797" lon="5.97456">
        <ele>2466</ele>
        <time>2024-10-15T10:24:54.000Z</time>
      </trkpt>
      <trkpt lat="45.09797" lon="5.97456">
        <ele>2466</ele>
        <time>2024-10-15T10:24:55.000Z</time>
      </trkpt>
      <trkpt lat="45.09797" lon="5.97456">
        <ele>2466.1999511719</ele>
        <time>2024-10-15T10:24:56.000Z</time>
      </trkpt>
      <trkpt lat="45.09797" lon="5.97456">
        <ele>2466.1999511719</ele>
        <time>2024-10-15T10:24:57.000Z</time>
      </trkpt>
      <trkpt lat="45.09797" lon="5.97456">
        <ele>2466.1999511719</ele>
        <time>2024-10-15T10:24:58.000Z</time>
      </trkpt>
      <trkpt lat="45.09797" lon="5.97456">
        <ele>2466.1999511719</ele>
        <time>2024-10-15T10:24:59.000Z</time>
      </trkpt>
      <trkpt lat="45.09797" lon="5.97456">
        <ele>2466.1999511719</ele>
        <time>2024-10-15T10:25:00.000Z</time>
      </trkpt>
      <trkpt lat="45.09797" lon="5.97456">
        <ele>2466.1999511719</ele>
        <time>2024-10-15T10:25:01.000Z</time>
      </trkpt>
      <trkpt lat="45.09797" lon="5.97456">
        <ele>2466.3999023438</ele>
        <time>2024-10-15T10:25:02.000Z</time>
      </trkpt>
      <trkpt lat="45.09797" lon="5.97456">
        <ele>2466.6000976562</ele>
        <time>2024-10-15T10:25:03.000Z</time>
      </trkpt>
      <trkpt lat="45.09797" lon="5.97456">
        <ele>2466.6000976562</ele>
        <time>2024-10-15T10:25:04.000Z</time>
      </trkpt>
      <trkpt lat="45.09797" lon="5.97456">
        <ele>2466.8000488281</ele>
        <time>2024-10-15T10:25:05.000Z</time>
      </trkpt>
      <trkpt lat="45.09797" lon="5.97456">
        <ele>2466.8000488281</ele>
        <time>2024-10-15T10:25:06.000Z</time>
      </trkpt>
      <trkpt lat="45.09797" lon="5.97456">
        <ele>2467.1999511719</ele>
        <time>2024-10-15T10:25:07.000Z</time>
      </trkpt>
      <trkpt lat="45.09797" lon="5.97456">
        <ele>2467.3999023438</ele>
        <time>2024-10-15T10:25:08.000Z</time>
      </trkpt>
      <trkpt lat="45.09797" lon="5.97456">
        <ele>2467.3999023438</ele>
        <time>2024-10-15T10:25:09.000Z</time>
      </trkpt>
      <trkpt lat="45.09797" lon="5.97456">
        <ele>2467.3999023438</ele>
        <time>2024-10-15T10:25:10.000Z</time>
      </trkpt>
      <trkpt lat="45.09797" lon="5.97456">
        <ele>2467.3999023438</ele>
        <time>2024-10-15T10:25:11.000Z</time>
      </trkpt>
      <trkpt lat="45.09797" lon="5.97456">
        <ele>2467.3999023438</ele>
        <time>2024-10-15T10:25:12.000Z</time>
      </trkpt>
      <trkpt lat="45.09797" lon="5.97456">
        <ele>2467.3999023438</ele>
        <time>2024-10-15T10:25:13.000Z</time>
      </trkpt>
      <trkpt lat="45.09797" lon="5.97456">
        <ele>2467.3999023438</ele>
        <time>2024-10-15T10:25:14.000Z</time>
      </trkpt>
      <trkpt lat="45.09797" lon="5.97456">
        <ele>2467.8000488281</ele>
        <time>2024-10-15T10:25:15.000Z</time>
      </trkpt>
      <trkpt lat="45.09797" lon="5.97456">
        <ele>2468</ele>
        <time>2024-10-15T10:25:16.000Z</time>
      </trkpt>
      <trkpt lat="45.09797" lon="5.97456">
        <ele>2468</ele>
        <time>2024-10-15T10:25:17.000Z</time>
      </trkpt>
      <trkpt lat="45.09797" lon="5.97456">
        <ele>2468</ele>
        <time>2024-10-15T10:25:18.000Z</time>
      </trkpt>
      <trkpt lat="45.09797" lon="5.97456">
        <ele>2468</ele>
        <time>2024-10-15T10:25:19.000Z</time>
      </trkpt>
      <trkpt lat="45.09797" lon="5.97456">
        <ele>2468</ele>
        <time>2024-10-15T10:25:20.000Z</time>
      </trkpt>
      <trkpt lat="45.09797" lon="5.97456">
        <ele>2467.8000488281</ele>
        <time>2024-10-15T10:25:21.000Z</time>
      </trkpt>
      <trkpt lat="45.09797" lon="5.97456">
        <ele>2467.8000488281</ele>
        <time>2024-10-15T10:25:22.000Z</time>
      </trkpt>
      <trkpt lat="45.09797" lon="5.97456">
        <ele>2467.6000976562</ele>
        <time>2024-10-15T10:25:23.000Z</time>
      </trkpt>
      <trkpt lat="45.09797" lon="5.97456">
        <ele>2467.6000976562</ele>
        <time>2024-10-15T10:25:24.000Z</time>
      </trkpt>
      <trkpt lat="45.09797" lon="5.97456">
        <ele>2467.6000976562</ele>
        <time>2024-10-15T10:25:25.000Z</time>
      </trkpt>
      <trkpt lat="45.09797" lon="5.97456">
        <ele>2467.6000976562</ele>
        <time>2024-10-15T10:25:26.000Z</time>
      </trkpt>
      <trkpt lat="45.09797" lon="5.97456">
        <ele>2467.6000976562</ele>
        <time>2024-10-15T10:25:27.000Z</time>
      </trkpt>
      <trkpt lat="45.09797" lon="5.97456">
        <ele>2467.6000976562</ele>
        <time>2024-10-15T10:25:28.000Z</time>
      </trkpt>
      <trkpt lat="45.09797" lon="5.97456">
        <ele>2467.6000976562</ele>
        <time>2024-10-15T10:25:29.000Z</time>
      </trkpt>
      <trkpt lat="45.09797" lon="5.97456">
        <ele>2467.8000488281</ele>
        <time>2024-10-15T10:25:30.000Z</time>
      </trkpt>
      <trkpt lat="45.09797" lon="5.97456">
        <ele>2467.8000488281</ele>
        <time>2024-10-15T10:25:31.000Z</time>
      </trkpt>
      <trkpt lat="45.09797" lon="5.97456">
        <ele>2467.8000488281</ele>
        <time>2024-10-15T10:25:32.000Z</time>
      </trkpt>
      <trkpt lat="45.09797" lon="5.97456">
        <ele>2467.8000488281</ele>
        <time>2024-10-15T10:25:33.000Z</time>
      </trkpt>
      <trkpt lat="45.09797" lon="5.97456">
        <ele>2467.8000488281</ele>
        <time>2024-10-15T10:25:34.000Z</time>
      </trkpt>
      <trkpt lat="45.09797" lon="5.97456">
        <ele>2467.6000976562</ele>
        <time>2024-10-15T10:25:35.000Z</time>
      </trkpt>
      <trkpt lat="45.09797" lon="5.97456">
        <ele>2467.6000976562</ele>
        <time>2024-10-15T10:25:36.000Z</time>
      </trkpt>
      <trkpt lat="45.09797" lon="5.97456">
        <ele>2467.6000976562</ele>
        <time>2024-10-15T10:25:37.000Z</time>
      </trkpt>
      <trkpt lat="45.09797" lon="5.97456">
        <ele>2467.3999023438</ele>
        <time>2024-10-15T10:25:38.000Z</time>
      </trkpt>
      <trkpt lat="45.09797" lon="5.97456">
        <ele>2467.3999023438</ele>
        <time>2024-10-15T10:25:39.000Z</time>
      </trkpt>
      <trkpt lat="45.09797" lon="5.97456">
        <ele>2467.3999023438</ele>
        <time>2024-10-15T10:25:40.000Z</time>
      </trkpt>
      <trkpt lat="45.09797" lon="5.97456">
        <ele>2467.3999023438</ele>
        <time>2024-10-15T10:25:41.000Z</time>
      </trkpt>
      <trkpt lat="45.09797" lon="5.97456">
        <ele>2467.1999511719</ele>
        <time>2024-10-15T10:25:42.000Z</time>
      </trkpt>
      <trkpt lat="45.09797" lon="5.97456">
        <ele>2467</ele>
        <time>2024-10-15T10:25:43.000Z</time>
      </trkpt>
      <trkpt lat="45.09797" lon="5.97456">
        <ele>2467</ele>
        <time>2024-10-15T10:25:44.000Z</time>
      </trkpt>
      <trkpt lat="45.09797" lon="5.97456">
        <ele>2467</ele>
        <time>2024-10-15T10:25:45.000Z</time>
      </trkpt>
      <trkpt lat="45.09797" lon="5.97456">
        <ele>2466.8000488281</ele>
        <time>2024-10-15T10:25:46.000Z</time>
      </trkpt>
      <trkpt lat="45.09797" lon="5.97456">
        <ele>2466.6000976562</ele>
        <time>2024-10-15T10:25:47.000Z</time>
      </trkpt>
      <trkpt lat="45.09797" lon="5.97456">
        <ele>2466.3999023438</ele>
        <time>2024-10-15T10:25:48.000Z</time>
      </trkpt>
      <trkpt lat="45.09797" lon="5.97456">
        <ele>2466.3999023438</ele>
        <time>2024-10-15T10:25:49.000Z</time>
      </trkpt>
      <trkpt lat="45.09797" lon="5.97456">
        <ele>2466.6000976562</ele>
        <time>2024-10-15T10:25:50.000Z</time>
      </trkpt>
      <trkpt lat="45.09797" lon="5.97456">
        <ele>2466.6000976562</ele>
        <time>2024-10-15T10:25:51.000Z</time>
      </trkpt>
      <trkpt lat="45.09797" lon="5.97456">
        <ele>2466.6000976562</ele>
        <time>2024-10-15T10:25:52.000Z</time>
      </trkpt>
      <trkpt lat="45.09797" lon="5.97456">
        <ele>2466.6000976562</ele>
        <time>2024-10-15T10:25:53.000Z</time>
      </trkpt>
      <trkpt lat="45.09797" lon="5.97456">
        <ele>2466.8000488281</ele>
        <time>2024-10-15T10:25:54.000Z</time>
      </trkpt>
      <trkpt lat="45.09797" lon="5.97456">
        <ele>2466.8000488281</ele>
        <time>2024-10-15T10:25:55.000Z</time>
      </trkpt>
      <trkpt lat="45.09797" lon="5.97456">
        <ele>2466.8000488281</ele>
        <time>2024-10-15T10:25:56.000Z</time>
      </trkpt>
      <trkpt lat="45.09797" lon="5.97456">
        <ele>2466.8000488281</ele>
        <time>2024-10-15T10:25:57.000Z</time>
      </trkpt>
      <trkpt lat="45.09797" lon="5.97456">
        <ele>2466.8000488281</ele>
        <time>2024-10-15T10:25:58.000Z</time>
      </trkpt>
      <trkpt lat="45.09797" lon="5.97456">
        <ele>2466.8000488281</ele>
        <time>2024-10-15T10:25:59.000Z</time>
      </trkpt>
      <trkpt lat="45.09797" lon="5.97456">
        <ele>2466.8000488281</ele>
        <time>2024-10-15T10:26:00.000Z</time>
      </trkpt>
      <trkpt lat="45.09797" lon="5.97456">
        <ele>2466.8000488281</ele>
        <time>2024-10-15T10:26:01.000Z</time>
      </trkpt>
      <trkpt lat="45.09797" lon="5.97456">
        <ele>2466.8000488281</ele>
        <time>2024-10-15T10:26:02.000Z</time>
      </trkpt>
      <trkpt lat="45.09797" lon="5.97456">
        <ele>2466.8000488281</ele>
        <time>2024-10-15T10:26:03.000Z</time>
      </trkpt>
      <trkpt lat="45.09797" lon="5.97456">
        <ele>2467</ele>
        <time>2024-10-15T10:26:04.000Z</time>
      </trkpt>
      <trkpt lat="45.09797" lon="5.97456">
        <ele>2467</ele>
        <time>2024-10-15T10:26:05.000Z</time>
      </trkpt>
      <trkpt lat="45.09797" lon="5.97456">
        <ele>2466.8000488281</ele>
        <time>2024-10-15T10:26:06.000Z</time>
      </trkpt>
      <trkpt lat="45.09797" lon="5.97456">
        <ele>2467</ele>
        <time>2024-10-15T10:26:07.000Z</time>
      </trkpt>
      <trkpt lat="45.09797" lon="5.97456">
        <ele>2467</ele>
        <time>2024-10-15T10:26:08.000Z</time>
      </trkpt>
      <trkpt lat="45.09797" lon="5.97456">
        <ele>2467</ele>
        <time>2024-10-15T10:26:09.000Z</time>
      </trkpt>
      <trkpt lat="45.09797" lon="5.97456">
        <ele>2467</ele>
        <time>2024-10-15T10:26:10.000Z</time>
      </trkpt>
      <trkpt lat="45.09797" lon="5.97456">
        <ele>2467.1999511719</ele>
        <time>2024-10-15T10:26:11.000Z</time>
      </trkpt>
      <trkpt lat="45.09797" lon="5.97456">
        <ele>2467.3999023438</ele>
        <time>2024-10-15T10:26:12.000Z</time>
      </trkpt>
      <trkpt lat="45.09797" lon="5.97456">
        <ele>2467.3999023438</ele>
        <time>2024-10-15T10:26:13.000Z</time>
      </trkpt>
      <trkpt lat="45.09797" lon="5.97456">
        <ele>2467.3999023438</ele>
        <time>2024-10-15T10:26:14.000Z</time>
      </trkpt>
      <trkpt lat="45.09797" lon="5.97456">
        <ele>2467.3999023438</ele>
        <time>2024-10-15T10:26:15.000Z</time>
      </trkpt>
      <trkpt lat="45.09797" lon="5.97456">
        <ele>2467.3999023438</ele>
        <time>2024-10-15T10:26:16.000Z</time>
      </trkpt>
      <trkpt lat="45.09797" lon="5.97456">
        <ele>2467.3999023438</ele>
        <time>2024-10-15T10:26:17.000Z</time>
      </trkpt>
      <trkpt lat="45.09797" lon="5.97456">
        <ele>2467.3999023438</ele>
        <time>2024-10-15T10:26:18.000Z</time>
      </trkpt>
      <trkpt lat="45.09797" lon="5.97456">
        <ele>2467.3999023438</ele>
        <time>2024-10-15T10:26:19.000Z</time>
      </trkpt>
      <trkpt lat="45.09797" lon="5.97456">
        <ele>2467.3999023438</ele>
        <time>2024-10-15T10:26:20.000Z</time>
      </trkpt>
      <trkpt lat="45.09797" lon="5.97456">
        <ele>2467.3999023438</ele>
        <time>2024-10-15T10:26:21.000Z</time>
      </trkpt>
      <trkpt lat="45.09797" lon="5.97456">
        <ele>2467.3999023438</ele>
        <time>2024-10-15T10:26:22.000Z</time>
      </trkpt>
      <trkpt lat="45.09797" lon="5.97456">
        <ele>2467.3999023438</ele>
        <time>2024-10-15T10:26:23.000Z</time>
      </trkpt>
      <trkpt lat="45.09797" lon="5.97456">
        <ele>2467.3999023438</ele>
        <time>2024-10-15T10:26:24.000Z</time>
      </trkpt>
      <trkpt lat="45.09797" lon="5.97456">
        <ele>2467.1999511719</ele>
        <time>2024-10-15T10:26:25.000Z</time>
      </trkpt>
      <trkpt lat="45.09797" lon="5.97456">
        <ele>2467.1999511719</ele>
        <time>2024-10-15T10:26:26.000Z</time>
      </trkpt>
      <trkpt lat="45.09797" lon="5.97456">
        <ele>2467</ele>
        <time>2024-10-15T10:26:27.000Z</time>
      </trkpt>
      <trkpt lat="45.09797" lon="5.97456">
        <ele>2467</ele>
        <time>2024-10-15T10:26:28.000Z</time>
      </trkpt>
      <trkpt lat="45.09797" lon="5.97456">
        <ele>2467</ele>
        <time>2024-10-15T10:26:29.000Z</time>
      </trkpt>
      <trkpt lat="45.09797" lon="5.97456">
        <ele>2467</ele>
        <time>2024-10-15T10:26:30.000Z</time>
      </trkpt>
      <trkpt lat="45.09797" lon="5.97456">
        <ele>2467</ele>
        <time>2024-10-15T10:26:31.000Z</time>
      </trkpt>
      <trkpt lat="45.09797" lon="5.97456">
        <ele>2467.1999511719</ele>
        <time>2024-10-15T10:26:32.000Z</time>
      </trkpt>
      <trkpt lat="45.09797" lon="5.97456">
        <ele>2467.1999511719</ele>
        <time>2024-10-15T10:26:33.000Z</time>
      </trkpt>
      <trkpt lat="45.09797" lon="5.97456">
        <ele>2467.1999511719</ele>
        <time>2024-10-15T10:26:34.000Z</time>
      </trkpt>
      <trkpt lat="45.09797" lon="5.97456">
        <ele>2467.1999511719</ele>
        <time>2024-10-15T10:26:35.000Z</time>
      </trkpt>
      <trkpt lat="45.09797" lon="5.97456">
        <ele>2467.1999511719</ele>
        <time>2024-10-15T10:26:36.000Z</time>
      </trkpt>
      <trkpt lat="45.09797" lon="5.97456">
        <ele>2467.1999511719</ele>
        <time>2024-10-15T10:26:37.000Z</time>
      </trkpt>
      <trkpt lat="45.09797" lon="5.97456">
        <ele>2467</ele>
        <time>2024-10-15T10:26:38.000Z</time>
      </trkpt>
      <trkpt lat="45.09797" lon="5.97456">
        <ele>2467</ele>
        <time>2024-10-15T10:26:39.000Z</time>
      </trkpt>
      <trkpt lat="45.09797" lon="5.97456">
        <ele>2467</ele>
        <time>2024-10-15T10:26:40.000Z</time>
      </trkpt>
      <trkpt lat="45.09797" lon="5.97456">
        <ele>2466.6000976562</ele>
        <time>2024-10-15T10:26:41.000Z</time>
      </trkpt>
      <trkpt lat="45.09797" lon="5.97456">
        <ele>2466.6000976562</ele>
        <time>2024-10-15T10:26:42.000Z</time>
      </trkpt>
      <trkpt lat="45.09797" lon="5.97456">
        <ele>2466.6000976562</ele>
        <time>2024-10-15T10:26:43.000Z</time>
      </trkpt>
      <trkpt lat="45.09797" lon="5.97456">
        <ele>2466.6000976562</ele>
        <time>2024-10-15T10:26:44.000Z</time>
      </trkpt>
      <trkpt lat="45.09797" lon="5.97456">
        <ele>2466.6000976562</ele>
        <time>2024-10-15T10:26:45.000Z</time>
      </trkpt>
      <trkpt lat="45.09797" lon="5.97456">
        <ele>2466.6000976562</ele>
        <time>2024-10-15T10:26:46.000Z</time>
      </trkpt>
      <trkpt lat="45.09797" lon="5.97456">
        <ele>2466.6000976562</ele>
        <time>2024-10-15T10:26:47.000Z</time>
      </trkpt>
      <trkpt lat="45.09797" lon="5.97456">
        <ele>2466.6000976562</ele>
        <time>2024-10-15T10:26:48.000Z</time>
      </trkpt>
      <trkpt lat="45.09797" lon="5.97456">
        <ele>2466.6000976562</ele>
        <time>2024-10-15T10:26:49.000Z</time>
      </trkpt>
      <trkpt lat="45.09797" lon="5.97456">
        <ele>2466.6000976562</ele>
        <time>2024-10-15T10:26:50.000Z</time>
      </trkpt>
      <trkpt lat="45.09797" lon="5.97456">
        <ele>2466.6000976562</ele>
        <time>2024-10-15T10:26:51.000Z</time>
      </trkpt>
      <trkpt lat="45.09797" lon="5.97456">
        <ele>2466.3999023438</ele>
        <time>2024-10-15T10:26:52.000Z</time>
      </trkpt>
      <trkpt lat="45.09797" lon="5.97456">
        <ele>2466.3999023438</ele>
        <time>2024-10-15T10:26:53.000Z</time>
      </trkpt>
      <trkpt lat="45.09797" lon="5.97456">
        <ele>2466.3999023438</ele>
        <time>2024-10-15T10:26:54.000Z</time>
      </trkpt>
      <trkpt lat="45.09797" lon="5.97456">
        <ele>2466.1999511719</ele>
        <time>2024-10-15T10:26:55.000Z</time>
      </trkpt>
      <trkpt lat="45.09797" lon="5.97456">
        <ele>2466.1999511719</ele>
        <time>2024-10-15T10:26:56.000Z</time>
      </trkpt>
      <trkpt lat="45.09797" lon="5.97456">
        <ele>2466.1999511719</ele>
        <time>2024-10-15T10:26:57.000Z</time>
      </trkpt>
      <trkpt lat="45.09797" lon="5.97456">
        <ele>2466.1999511719</ele>
        <time>2024-10-15T10:26:58.000Z</time>
      </trkpt>
      <trkpt lat="45.09797" lon="5.97456">
        <ele>2466.1999511719</ele>
        <time>2024-10-15T10:26:59.000Z</time>
      </trkpt>
      <trkpt lat="45.09797" lon="5.97456">
        <ele>2466.1999511719</ele>
        <time>2024-10-15T10:27:00.000Z</time>
      </trkpt>
      <trkpt lat="45.09797" lon="5.97456">
        <ele>2466</ele>
        <time>2024-10-15T10:27:01.000Z</time>
      </trkpt>
      <trkpt lat="45.09797" lon="5.97456">
        <ele>2466</ele>
        <time>2024-10-15T10:27:02.000Z</time>
      </trkpt>
      <trkpt lat="45.09797" lon="5.97456">
        <ele>2466</ele>
        <time>2024-10-15T10:27:03.000Z</time>
      </trkpt>
      <trkpt lat="45.09797" lon="5.97456">
        <ele>2466</ele>
        <time>2024-10-15T10:27:04.000Z</time>
      </trkpt>
      <trkpt lat="45.09797" lon="5.97456">
        <ele>2466</ele>
        <time>2024-10-15T10:27:05.000Z</time>
      </trkpt>
      <trkpt lat="45.09797" lon="5.97456">
        <ele>2466</ele>
        <time>2024-10-15T10:27:06.000Z</time>
      </trkpt>
      <trkpt lat="45.09797" lon="5.97456">
        <ele>2466</ele>
        <time>2024-10-15T10:27:07.000Z</time>
      </trkpt>
      <trkpt lat="45.09797" lon="5.97456">
        <ele>2466.1999511719</ele>
        <time>2024-10-15T10:27:08.000Z</time>
      </trkpt>
      <trkpt lat="45.09797" lon="5.97456">
        <ele>2466.1999511719</ele>
        <time>2024-10-15T10:27:09.000Z</time>
      </trkpt>
      <trkpt lat="45.09797" lon="5.97456">
        <ele>2466.1999511719</ele>
        <time>2024-10-15T10:27:10.000Z</time>
      </trkpt>
      <trkpt lat="45.09797" lon="5.97456">
        <ele>2466.1999511719</ele>
        <time>2024-10-15T10:27:11.000Z</time>
      </trkpt>
      <trkpt lat="45.09797" lon="5.97456">
        <ele>2466.1999511719</ele>
        <time>2024-10-15T10:27:12.000Z</time>
      </trkpt>
      <trkpt lat="45.09797" lon="5.97456">
        <ele>2466.1999511719</ele>
        <time>2024-10-15T10:27:13.000Z</time>
      </trkpt>
      <trkpt lat="45.09797" lon="5.97456">
        <ele>2466.1999511719</ele>
        <time>2024-10-15T10:27:14.000Z</time>
      </trkpt>
      <trkpt lat="45.09797" lon="5.97456">
        <ele>2466.1999511719</ele>
        <time>2024-10-15T10:27:15.000Z</time>
      </trkpt>
      <trkpt lat="45.09797" lon="5.97456">
        <ele>2466.1999511719</ele>
        <time>2024-10-15T10:27:16.000Z</time>
      </trkpt>
      <trkpt lat="45.09797" lon="5.97456">
        <ele>2466.1999511719</ele>
        <time>2024-10-15T10:27:17.000Z</time>
      </trkpt>
      <trkpt lat="45.09797" lon="5.97456">
        <ele>2466.1999511719</ele>
        <time>2024-10-15T10:27:18.000Z</time>
      </trkpt>
      <trkpt lat="45.09797" lon="5.97456">
        <ele>2466.1999511719</ele>
        <time>2024-10-15T10:27:19.000Z</time>
      </trkpt>
      <trkpt lat="45.09797" lon="5.97456">
        <ele>2466.1999511719</ele>
        <time>2024-10-15T10:27:20.000Z</time>
      </trkpt>
      <trkpt lat="45.09797" lon="5.97456">
        <ele>2466.1999511719</ele>
        <time>2024-10-15T10:27:21.000Z</time>
      </trkpt>
      <trkpt lat="45.09797" lon="5.97456">
        <ele>2466.1999511719</ele>
        <time>2024-10-15T10:27:22.000Z</time>
      </trkpt>
      <trkpt lat="45.09797" lon="5.97456">
        <ele>2466.1999511719</ele>
        <time>2024-10-15T10:27:23.000Z</time>
      </trkpt>
      <trkpt lat="45.09797" lon="5.97456">
        <ele>2466.1999511719</ele>
        <time>2024-10-15T10:27:24.000Z</time>
      </trkpt>
      <trkpt lat="45.09797" lon="5.97456">
        <ele>2466.1999511719</ele>
        <time>2024-10-15T10:27:25.000Z</time>
      </trkpt>
      <trkpt lat="45.09797" lon="5.97456">
        <ele>2466.1999511719</ele>
        <time>2024-10-15T10:27:26.000Z</time>
      </trkpt>
      <trkpt lat="45.09797" lon="5.97456">
        <ele>2466.1999511719</ele>
        <time>2024-10-15T10:27:27.000Z</time>
      </trkpt>
      <trkpt lat="45.09797" lon="5.97456">
        <ele>2466.1999511719</ele>
        <time>2024-10-15T10:27:28.000Z</time>
      </trkpt>
      <trkpt lat="45.09797" lon="5.97456">
        <ele>2466.3999023438</ele>
        <time>2024-10-15T10:27:29.000Z</time>
      </trkpt>
      <trkpt lat="45.09797" lon="5.97456">
        <ele>2466.3999023438</ele>
        <time>2024-10-15T10:27:30.000Z</time>
      </trkpt>
      <trkpt lat="45.09797" lon="5.97456">
        <ele>2466.3999023438</ele>
        <time>2024-10-15T10:27:31.000Z</time>
      </trkpt>
      <trkpt lat="45.09797" lon="5.97456">
        <ele>2466.3999023438</ele>
        <time>2024-10-15T10:27:32.000Z</time>
      </trkpt>
      <trkpt lat="45.09797" lon="5.97456">
        <ele>2466.3999023438</ele>
        <time>2024-10-15T10:27:33.000Z</time>
      </trkpt>
      <trkpt lat="45.09797" lon="5.97456">
        <ele>2466.3999023438</ele>
        <time>2024-10-15T10:27:34.000Z</time>
      </trkpt>
      <trkpt lat="45.09797" lon="5.97456">
        <ele>2466.3999023438</ele>
        <time>2024-10-15T10:27:35.000Z</time>
      </trkpt>
      <trkpt lat="45.09797" lon="5.97456">
        <ele>2466.3999023438</ele>
        <time>2024-10-15T10:27:36.000Z</time>
      </trkpt>
      <trkpt lat="45.09797" lon="5.97456">
        <ele>2466.1999511719</ele>
        <time>2024-10-15T10:27:37.000Z</time>
      </trkpt>
      <trkpt lat="45.09797" lon="5.97456">
        <ele>2466.1999511719</ele>
        <time>2024-10-15T10:27:38.000Z</time>
      </trkpt>
      <trkpt lat="45.09797" lon="5.97456">
        <ele>2466.1999511719</ele>
        <time>2024-10-15T10:27:39.000Z</time>
      </trkpt>
      <trkpt lat="45.09797" lon="5.97456">
        <ele>2466.1999511719</ele>
        <time>2024-10-15T10:27:40.000Z</time>
      </trkpt>
      <trkpt lat="45.09797" lon="5.97456">
        <ele>2466.1999511719</ele>
        <time>2024-10-15T10:27:41.000Z</time>
      </trkpt>
      <trkpt lat="45.09797" lon="5.97456">
        <ele>2466.1999511719</ele>
        <time>2024-10-15T10:27:42.000Z</time>
      </trkpt>
      <trkpt lat="45.09797" lon="5.97456">
        <ele>2466.3999023438</ele>
        <time>2024-10-15T10:27:43.000Z</time>
      </trkpt>
      <trkpt lat="45.09797" lon="5.97456">
        <ele>2466.3999023438</ele>
        <time>2024-10-15T10:27:44.000Z</time>
      </trkpt>
      <trkpt lat="45.09797" lon="5.97456">
        <ele>2466.3999023438</ele>
        <time>2024-10-15T10:27:45.000Z</time>
      </trkpt>
      <trkpt lat="45.09797" lon="5.97456">
        <ele>2466.3999023438</ele>
        <time>2024-10-15T10:27:46.000Z</time>
      </trkpt>
      <trkpt lat="45.09797" lon="5.97456">
        <ele>2466.1999511719</ele>
        <time>2024-10-15T10:27:47.000Z</time>
      </trkpt>
      <trkpt lat="45.09797" lon="5.97456">
        <ele>2466.1999511719</ele>
        <time>2024-10-15T10:27:48.000Z</time>
      </trkpt>
      <trkpt lat="45.09797" lon="5.97456">
        <ele>2466.1999511719</ele>
        <time>2024-10-15T10:27:49.000Z</time>
      </trkpt>
      <trkpt lat="45.09797" lon="5.97456">
        <ele>2466.1999511719</ele>
        <time>2024-10-15T10:27:50.000Z</time>
      </trkpt>
      <trkpt lat="45.09797" lon="5.97456">
        <ele>2466.1999511719</ele>
        <time>2024-10-15T10:27:51.000Z</time>
      </trkpt>
      <trkpt lat="45.09797" lon="5.97456">
        <ele>2466.1999511719</ele>
        <time>2024-10-15T10:27:52.000Z</time>
      </trkpt>
      <trkpt lat="45.09797" lon="5.97456">
        <ele>2466.6000976562</ele>
        <time>2024-10-15T10:27:53.000Z</time>
      </trkpt>
      <trkpt lat="45.09797" lon="5.97456">
        <ele>2466.6000976562</ele>
        <time>2024-10-15T10:27:54.000Z</time>
      </trkpt>
      <trkpt lat="45.09797" lon="5.97456">
        <ele>2466.8000488281</ele>
        <time>2024-10-15T10:27:55.000Z</time>
      </trkpt>
      <trkpt lat="45.09797" lon="5.97456">
        <ele>2466.8000488281</ele>
        <time>2024-10-15T10:27:56.000Z</time>
      </trkpt>
      <trkpt lat="45.09797" lon="5.97456">
        <ele>2466.8000488281</ele>
        <time>2024-10-15T10:27:57.000Z</time>
      </trkpt>
      <trkpt lat="45.09797" lon="5.97456">
        <ele>2466.6000976562</ele>
        <time>2024-10-15T10:27:58.000Z</time>
      </trkpt>
      <trkpt lat="45.09797" lon="5.97456">
        <ele>2466.6000976562</ele>
        <time>2024-10-15T10:27:59.000Z</time>
      </trkpt>
      <trkpt lat="45.09797" lon="5.97456">
        <ele>2466.3999023438</ele>
        <time>2024-10-15T10:28:00.000Z</time>
      </trkpt>
      <trkpt lat="45.09797" lon="5.97456">
        <ele>2466.3999023438</ele>
        <time>2024-10-15T10:28:01.000Z</time>
      </trkpt>
      <trkpt lat="45.09797" lon="5.97456">
        <ele>2466.3999023438</ele>
        <time>2024-10-15T10:28:02.000Z</time>
      </trkpt>
      <trkpt lat="45.09797" lon="5.97456">
        <ele>2466.3999023438</ele>
        <time>2024-10-15T10:28:03.000Z</time>
      </trkpt>
      <trkpt lat="45.09797" lon="5.97456">
        <ele>2466.3999023438</ele>
        <time>2024-10-15T10:28:04.000Z</time>
      </trkpt>
      <trkpt lat="45.09797" lon="5.97456">
        <ele>2466.6000976562</ele>
        <time>2024-10-15T10:28:05.000Z</time>
      </trkpt>
      <trkpt lat="45.09797" lon="5.97456">
        <ele>2466.8000488281</ele>
        <time>2024-10-15T10:28:06.000Z</time>
      </trkpt>
      <trkpt lat="45.09797" lon="5.97456">
        <ele>2466.8000488281</ele>
        <time>2024-10-15T10:28:07.000Z</time>
      </trkpt>
      <trkpt lat="45.09797" lon="5.97456">
        <ele>2466.8000488281</ele>
        <time>2024-10-15T10:28:08.000Z</time>
      </trkpt>
      <trkpt lat="45.09797" lon="5.97456">
        <ele>2466.8000488281</ele>
        <time>2024-10-15T10:28:09.000Z</time>
      </trkpt>
      <trkpt lat="45.09797" lon="5.97456">
        <ele>2466.8000488281</ele>
        <time>2024-10-15T10:28:10.000Z</time>
      </trkpt>
      <trkpt lat="45.09797" lon="5.97456">
        <ele>2466.8000488281</ele>
        <time>2024-10-15T10:28:11.000Z</time>
      </trkpt>
      <trkpt lat="45.09797" lon="5.97456">
        <ele>2466.8000488281</ele>
        <time>2024-10-15T10:28:12.000Z</time>
      </trkpt>
      <trkpt lat="45.09797" lon="5.97456">
        <ele>2466.6000976562</ele>
        <time>2024-10-15T10:28:13.000Z</time>
      </trkpt>
      <trkpt lat="45.09797" lon="5.97456">
        <ele>2466.8000488281</ele>
        <time>2024-10-15T10:28:14.000Z</time>
      </trkpt>
      <trkpt lat="45.09797" lon="5.97456">
        <ele>2466.8000488281</ele>
        <time>2024-10-15T10:28:15.000Z</time>
      </trkpt>
      <trkpt lat="45.09797" lon="5.97456">
        <ele>2466.8000488281</ele>
        <time>2024-10-15T10:28:16.000Z</time>
      </trkpt>
      <trkpt lat="45.09797" lon="5.97456">
        <ele>2467.1999511719</ele>
        <time>2024-10-15T10:28:17.000Z</time>
      </trkpt>
      <trkpt lat="45.09797" lon="5.97456">
        <ele>2467.1999511719</ele>
        <time>2024-10-15T10:28:18.000Z</time>
      </trkpt>
      <trkpt lat="45.09797" lon="5.97456">
        <ele>2467.1999511719</ele>
        <time>2024-10-15T10:28:19.000Z</time>
      </trkpt>
      <trkpt lat="45.09797" lon="5.97456">
        <ele>2467.3999023438</ele>
        <time>2024-10-15T10:28:20.000Z</time>
      </trkpt>
      <trkpt lat="45.09797" lon="5.97456">
        <ele>2467.3999023438</ele>
        <time>2024-10-15T10:28:21.000Z</time>
      </trkpt>
      <trkpt lat="45.09797" lon="5.97456">
        <ele>2467.6000976562</ele>
        <time>2024-10-15T10:28:22.000Z</time>
      </trkpt>
      <trkpt lat="45.09797" lon="5.97456">
        <ele>2467.6000976562</ele>
        <time>2024-10-15T10:28:23.000Z</time>
      </trkpt>
      <trkpt lat="45.09797" lon="5.97456">
        <ele>2467.6000976562</ele>
        <time>2024-10-15T10:28:24.000Z</time>
      </trkpt>
      <trkpt lat="45.09797" lon="5.97456">
        <ele>2467.6000976562</ele>
        <time>2024-10-15T10:28:25.000Z</time>
      </trkpt>
      <trkpt lat="45.09797" lon="5.97456">
        <ele>2467.8000488281</ele>
        <time>2024-10-15T10:28:26.000Z</time>
      </trkpt>
      <trkpt lat="45.09797" lon="5.97456">
        <ele>2468.1999511719</ele>
        <time>2024-10-15T10:28:27.000Z</time>
      </trkpt>
      <trkpt lat="45.09797" lon="5.97456">
        <ele>2468.6000976562</ele>
        <time>2024-10-15T10:28:28.000Z</time>
      </trkpt>
      <trkpt lat="45.09797" lon="5.97456">
        <ele>2468.6000976562</ele>
        <time>2024-10-15T10:28:29.000Z</time>
      </trkpt>
      <trkpt lat="45.09797" lon="5.97456">
        <ele>2468.8000488281</ele>
        <time>2024-10-15T10:28:30.000Z</time>
      </trkpt>
      <trkpt lat="45.09797" lon="5.97456">
        <ele>2468.8000488281</ele>
        <time>2024-10-15T10:28:31.000Z</time>
      </trkpt>
      <trkpt lat="45.09797" lon="5.97456">
        <ele>2468.8000488281</ele>
        <time>2024-10-15T10:28:32.000Z</time>
      </trkpt>
      <trkpt lat="45.09797" lon="5.97456">
        <ele>2468.8000488281</ele>
        <time>2024-10-15T10:28:33.000Z</time>
      </trkpt>
      <trkpt lat="45.09797" lon="5.97456">
        <ele>2468.8000488281</ele>
        <time>2024-10-15T10:28:34.000Z</time>
      </trkpt>
      <trkpt lat="45.09797" lon="5.97456">
        <ele>2468.8000488281</ele>
        <time>2024-10-15T10:28:35.000Z</time>
      </trkpt>
      <trkpt lat="45.09797" lon="5.97456">
        <ele>2469</ele>
        <time>2024-10-15T10:28:36.000Z</time>
      </trkpt>
      <trkpt lat="45.09797" lon="5.97456">
        <ele>2469</ele>
        <time>2024-10-15T10:28:37.000Z</time>
      </trkpt>
      <trkpt lat="45.09797" lon="5.97456">
        <ele>2469</ele>
        <time>2024-10-15T10:28:38.000Z</time>
      </trkpt>
      <trkpt lat="45.09797" lon="5.97456">
        <ele>2469</ele>
        <time>2024-10-15T10:28:39.000Z</time>
      </trkpt>
      <trkpt lat="45.09797" lon="5.97456">
        <ele>2469</ele>
        <time>2024-10-15T10:28:40.000Z</time>
      </trkpt>
      <trkpt lat="45.09797" lon="5.97456">
        <ele>2469</ele>
        <time>2024-10-15T10:28:41.000Z</time>
      </trkpt>
      <trkpt lat="45.09797" lon="5.97456">
        <ele>2469</ele>
        <time>2024-10-15T10:28:42.000Z</time>
      </trkpt>
      <trkpt lat="45.09797" lon="5.97456">
        <ele>2469</ele>
        <time>2024-10-15T10:28:43.000Z</time>
      </trkpt>
      <trkpt lat="45.09797" lon="5.97456">
        <ele>2469</ele>
        <time>2024-10-15T10:28:44.000Z</time>
      </trkpt>
      <trkpt lat="45.09797" lon="5.97456">
        <ele>2469</ele>
        <time>2024-10-15T10:28:45.000Z</time>
      </trkpt>
      <trkpt lat="45.09797" lon="5.97456">
        <ele>2469</ele>
        <time>2024-10-15T10:28:46.000Z</time>
      </trkpt>
      <trkpt lat="45.09797" lon="5.97456">
        <ele>2469</ele>
        <time>2024-10-15T10:28:47.000Z</time>
      </trkpt>
      <trkpt lat="45.09797" lon="5.97456">
        <ele>2469</ele>
        <time>2024-10-15T10:28:48.000Z</time>
      </trkpt>
      <trkpt lat="45.09797" lon="5.97456">
        <ele>2469</ele>
        <time>2024-10-15T10:28:49.000Z</time>
      </trkpt>
      <trkpt lat="45.09797" lon="5.97456">
        <ele>2469</ele>
        <time>2024-10-15T10:28:50.000Z</time>
      </trkpt>
      <trkpt lat="45.09797" lon="5.97456">
        <ele>2468.8000488281</ele>
        <time>2024-10-15T10:28:51.000Z</time>
      </trkpt>
      <trkpt lat="45.09797" lon="5.97456">
        <ele>2468.8000488281</ele>
        <time>2024-10-15T10:28:52.000Z</time>
      </trkpt>
      <trkpt lat="45.09797" lon="5.97456">
        <ele>2468.8000488281</ele>
        <time>2024-10-15T10:28:53.000Z</time>
      </trkpt>
      <trkpt lat="45.09797" lon="5.97456">
        <ele>2468.6000976562</ele>
        <time>2024-10-15T10:28:54.000Z</time>
      </trkpt>
      <trkpt lat="45.09797" lon="5.97456">
        <ele>2468.6000976562</ele>
        <time>2024-10-15T10:28:55.000Z</time>
      </trkpt>
      <trkpt lat="45.09797" lon="5.97456">
        <ele>2468.1999511719</ele>
        <time>2024-10-15T10:28:56.000Z</time>
      </trkpt>
      <trkpt lat="45.09797" lon="5.97456">
        <ele>2468</ele>
        <time>2024-10-15T10:28:57.000Z</time>
      </trkpt>
      <trkpt lat="45.09797" lon="5.97456">
        <ele>2468</ele>
        <time>2024-10-15T10:28:58.000Z</time>
      </trkpt>
      <trkpt lat="45.09797" lon="5.97456">
        <ele>2468</ele>
        <time>2024-10-15T10:28:59.000Z</time>
      </trkpt>
      <trkpt lat="45.09797" lon="5.97456">
        <ele>2468</ele>
        <time>2024-10-15T10:29:00.000Z</time>
      </trkpt>
      <trkpt lat="45.09797" lon="5.97456">
        <ele>2468.1999511719</ele>
        <time>2024-10-15T10:29:01.000Z</time>
      </trkpt>
      <trkpt lat="45.09797" lon="5.97456">
        <ele>2468.1999511719</ele>
        <time>2024-10-15T10:29:02.000Z</time>
      </trkpt>
      <trkpt lat="45.09797" lon="5.97456">
        <ele>2468.1999511719</ele>
        <time>2024-10-15T10:29:03.000Z</time>
      </trkpt>
      <trkpt lat="45.09797" lon="5.97456">
        <ele>2468.1999511719</ele>
        <time>2024-10-15T10:29:04.000Z</time>
      </trkpt>
      <trkpt lat="45.09797" lon="5.97456">
        <ele>2468.1999511719</ele>
        <time>2024-10-15T10:29:05.000Z</time>
      </trkpt>
      <trkpt lat="45.09797" lon="5.97456">
        <ele>2468</ele>
        <time>2024-10-15T10:29:06.000Z</time>
      </trkpt>
      <trkpt lat="45.09797" lon="5.97456">
        <ele>2468</ele>
        <time>2024-10-15T10:29:07.000Z</time>
      </trkpt>
      <trkpt lat="45.09797" lon="5.97456">
        <ele>2467.8000488281</ele>
        <time>2024-10-15T10:29:08.000Z</time>
      </trkpt>
      <trkpt lat="45.09797" lon="5.97456">
        <ele>2467.8000488281</ele>
        <time>2024-10-15T10:29:09.000Z</time>
      </trkpt>
      <trkpt lat="45.09797" lon="5.97456">
        <ele>2467.8000488281</ele>
        <time>2024-10-15T10:29:10.000Z</time>
      </trkpt>
      <trkpt lat="45.09797" lon="5.97456">
        <ele>2467.8000488281</ele>
        <time>2024-10-15T10:29:11.000Z</time>
      </trkpt>
      <trkpt lat="45.09797" lon="5.97456">
        <ele>2467.8000488281</ele>
        <time>2024-10-15T10:29:12.000Z</time>
      </trkpt>
      <trkpt lat="45.09797" lon="5.97456">
        <ele>2468</ele>
        <time>2024-10-15T10:29:13.000Z</time>
      </trkpt>
      <trkpt lat="45.09797" lon="5.97456">
        <ele>2468.1999511719</ele>
        <time>2024-10-15T10:29:14.000Z</time>
      </trkpt>
      <trkpt lat="45.09797" lon="5.97456">
        <ele>2468.6000976562</ele>
        <time>2024-10-15T10:29:15.000Z</time>
      </trkpt>
      <trkpt lat="45.09797" lon="5.97456">
        <ele>2468.6000976562</ele>
        <time>2024-10-15T10:29:16.000Z</time>
      </trkpt>
      <trkpt lat="45.09797" lon="5.97456">
        <ele>2468.6000976562</ele>
        <time>2024-10-15T10:29:17.000Z</time>
      </trkpt>
      <trkpt lat="45.09797" lon="5.97456">
        <ele>2468.6000976562</ele>
        <time>2024-10-15T10:29:18.000Z</time>
      </trkpt>
      <trkpt lat="45.09797" lon="5.97456">
        <ele>2468.6000976562</ele>
        <time>2024-10-15T10:29:19.000Z</time>
      </trkpt>
      <trkpt lat="45.09797" lon="5.97456">
        <ele>2468.3999023438</ele>
        <time>2024-10-15T10:29:20.000Z</time>
      </trkpt>
      <trkpt lat="45.09797" lon="5.97456">
        <ele>2468.1999511719</ele>
        <time>2024-10-15T10:29:21.000Z</time>
      </trkpt>
      <trkpt lat="45.09797" lon="5.97456">
        <ele>2468.1999511719</ele>
        <time>2024-10-15T10:29:22.000Z</time>
      </trkpt>
      <trkpt lat="45.09797" lon="5.97456">
        <ele>2468.1999511719</ele>
        <time>2024-10-15T10:29:23.000Z</time>
      </trkpt>
      <trkpt lat="45.09797" lon="5.97456">
        <ele>2468.1999511719</ele>
        <time>2024-10-15T10:29:24.000Z</time>
      </trkpt>
      <trkpt lat="45.09797" lon="5.97456">
        <ele>2468.1999511719</ele>
        <time>2024-10-15T10:29:25.000Z</time>
      </trkpt>
      <trkpt lat="45.09797" lon="5.97456">
        <ele>2468.1999511719</ele>
        <time>2024-10-15T10:29:26.000Z</time>
      </trkpt>
      <trkpt lat="45.09797" lon="5.97456">
        <ele>2468</ele>
        <time>2024-10-15T10:29:27.000Z</time>
      </trkpt>
      <trkpt lat="45.09797" lon="5.97456">
        <ele>2468</ele>
        <time>2024-10-15T10:29:28.000Z</time>
      </trkpt>
      <trkpt lat="45.09797" lon="5.97456">
        <ele>2468</ele>
        <time>2024-10-15T10:29:29.000Z</time>
      </trkpt>
      <trkpt lat="45.09797" lon="5.97456">
        <ele>2468</ele>
        <time>2024-10-15T10:29:30.000Z</time>
      </trkpt>
      <trkpt lat="45.09797" lon="5.97456">
        <ele>2468</ele>
        <time>2024-10-15T10:29:31.000Z</time>
      </trkpt>
      <trkpt lat="45.09797" lon="5.97456">
        <ele>2468</ele>
        <time>2024-10-15T10:29:32.000Z</time>
      </trkpt>
      <trkpt lat="45.09797" lon="5.97456">
        <ele>2468</ele>
        <time>2024-10-15T10:29:33.000Z</time>
      </trkpt>
      <trkpt lat="45.09797" lon="5.97456">
        <ele>2468</ele>
        <time>2024-10-15T10:29:34.000Z</time>
      </trkpt>
      <trkpt lat="45.09797" lon="5.97456">
        <ele>2468</ele>
        <time>2024-10-15T10:29:35.000Z</time>
      </trkpt>
      <trkpt lat="45.09797" lon="5.97456">
        <ele>2468.1999511719</ele>
        <time>2024-10-15T10:29:36.000Z</time>
      </trkpt>
      <trkpt lat="45.09797" lon="5.97456">
        <ele>2468.1999511719</ele>
        <time>2024-10-15T10:29:37.000Z</time>
      </trkpt>
      <trkpt lat="45.09797" lon="5.97456">
        <ele>2468.3999023438</ele>
        <time>2024-10-15T10:29:38.000Z</time>
      </trkpt>
      <trkpt lat="45.09797" lon="5.97456">
        <ele>2468.3999023438</ele>
        <time>2024-10-15T10:29:39.000Z</time>
      </trkpt>
      <trkpt lat="45.09797" lon="5.97456">
        <ele>2468.3999023438</ele>
        <time>2024-10-15T10:29:40.000Z</time>
      </trkpt>
      <trkpt lat="45.09797" lon="5.97456">
        <ele>2468.3999023438</ele>
        <time>2024-10-15T10:29:41.000Z</time>
      </trkpt>
      <trkpt lat="45.09797" lon="5.97456">
        <ele>2468.3999023438</ele>
        <time>2024-10-15T10:29:42.000Z</time>
      </trkpt>
      <trkpt lat="45.09797" lon="5.97456">
        <ele>2468.3999023438</ele>
        <time>2024-10-15T10:29:43.000Z</time>
      </trkpt>
      <trkpt lat="45.09797" lon="5.97456">
        <ele>2468.3999023438</ele>
        <time>2024-10-15T10:29:44.000Z</time>
      </trkpt>
      <trkpt lat="45.09797" lon="5.97456">
        <ele>2468.1999511719</ele>
        <time>2024-10-15T10:29:45.000Z</time>
      </trkpt>
      <trkpt lat="45.09797" lon="5.97456">
        <ele>2468.1999511719</ele>
        <time>2024-10-15T10:29:46.000Z</time>
      </trkpt>
      <trkpt lat="45.09797" lon="5.97456">
        <ele>2468.1999511719</ele>
        <time>2024-10-15T10:29:47.000Z</time>
      </trkpt>
      <trkpt lat="45.09797" lon="5.97456">
        <ele>2468.1999511719</ele>
        <time>2024-10-15T10:29:48.000Z</time>
      </trkpt>
      <trkpt lat="45.09797" lon="5.97456">
        <ele>2468.1999511719</ele>
        <time>2024-10-15T10:29:49.000Z</time>
      </trkpt>
      <trkpt lat="45.09797" lon="5.97456">
        <ele>2468.1999511719</ele>
        <time>2024-10-15T10:29:50.000Z</time>
      </trkpt>
      <trkpt lat="45.09797" lon="5.97456">
        <ele>2468.1999511719</ele>
        <time>2024-10-15T10:29:51.000Z</time>
      </trkpt>
      <trkpt lat="45.09797" lon="5.97456">
        <ele>2468.3999023438</ele>
        <time>2024-10-15T10:29:52.000Z</time>
      </trkpt>
      <trkpt lat="45.09797" lon="5.97456">
        <ele>2468.3999023438</ele>
        <time>2024-10-15T10:29:53.000Z</time>
      </trkpt>
      <trkpt lat="45.09797" lon="5.97456">
        <ele>2468.3999023438</ele>
        <time>2024-10-15T10:29:54.000Z</time>
      </trkpt>
      <trkpt lat="45.09797" lon="5.97456">
        <ele>2468.1999511719</ele>
        <time>2024-10-15T10:29:55.000Z</time>
      </trkpt>
      <trkpt lat="45.09797" lon="5.97456">
        <ele>2468.1999511719</ele>
        <time>2024-10-15T10:29:56.000Z</time>
      </trkpt>
      <trkpt lat="45.09797" lon="5.97456">
        <ele>2468.1999511719</ele>
        <time>2024-10-15T10:29:57.000Z</time>
      </trkpt>
      <trkpt lat="45.09797" lon="5.97456">
        <ele>2468.1999511719</ele>
        <time>2024-10-15T10:29:58.000Z</time>
      </trkpt>
      <trkpt lat="45.09797" lon="5.97456">
        <ele>2468.1999511719</ele>
        <time>2024-10-15T10:29:59.000Z</time>
      </trkpt>
      <trkpt lat="45.09797" lon="5.97456">
        <ele>2468.1999511719</ele>
        <time>2024-10-15T10:30:00.000Z</time>
      </trkpt>
      <trkpt lat="45.09797" lon="5.97456">
        <ele>2468.1999511719</ele>
        <time>2024-10-15T10:30:01.000Z</time>
      </trkpt>
      <trkpt lat="45.09797" lon="5.97456">
        <ele>2468.1999511719</ele>
        <time>2024-10-15T10:30:02.000Z</time>
      </trkpt>
      <trkpt lat="45.09797" lon="5.97456">
        <ele>2468.1999511719</ele>
        <time>2024-10-15T10:30:03.000Z</time>
      </trkpt>
      <trkpt lat="45.09797" lon="5.97456">
        <ele>2468.1999511719</ele>
        <time>2024-10-15T10:30:04.000Z</time>
      </trkpt>
      <trkpt lat="45.09797" lon="5.97456">
        <ele>2468.1999511719</ele>
        <time>2024-10-15T10:30:05.000Z</time>
      </trkpt>
      <trkpt lat="45.09797" lon="5.97456">
        <ele>2468.1999511719</ele>
        <time>2024-10-15T10:30:06.000Z</time>
      </trkpt>
      <trkpt lat="45.09797" lon="5.97456">
        <ele>2468.1999511719</ele>
        <time>2024-10-15T10:30:07.000Z</time>
      </trkpt>
      <trkpt lat="45.09797" lon="5.97456">
        <ele>2468.1999511719</ele>
        <time>2024-10-15T10:30:08.000Z</time>
      </trkpt>
      <trkpt lat="45.09797" lon="5.97456">
        <ele>2468.1999511719</ele>
        <time>2024-10-15T10:30:09.000Z</time>
      </trkpt>
      <trkpt lat="45.09797" lon="5.97456">
        <ele>2468.1999511719</ele>
        <time>2024-10-15T10:30:10.000Z</time>
      </trkpt>
      <trkpt lat="45.09797" lon="5.97456">
        <ele>2468.1999511719</ele>
        <time>2024-10-15T10:30:11.000Z</time>
      </trkpt>
      <trkpt lat="45.09797" lon="5.97456">
        <ele>2468.1999511719</ele>
        <time>2024-10-15T10:30:12.000Z</time>
      </trkpt>
      <trkpt lat="45.09797" lon="5.97456">
        <ele>2468.1999511719</ele>
        <time>2024-10-15T10:30:13.000Z</time>
      </trkpt>
      <trkpt lat="45.09797" lon="5.97456">
        <ele>2468.1999511719</ele>
        <time>2024-10-15T10:30:14.000Z</time>
      </trkpt>
      <trkpt lat="45.09797" lon="5.97456">
        <ele>2468.1999511719</ele>
        <time>2024-10-15T10:30:15.000Z</time>
      </trkpt>
      <trkpt lat="45.09797" lon="5.97456">
        <ele>2468.1999511719</ele>
        <time>2024-10-15T10:30:16.000Z</time>
      </trkpt>
      <trkpt lat="45.09797" lon="5.97456">
        <ele>2468.3999023438</ele>
        <time>2024-10-15T10:30:17.000Z</time>
      </trkpt>
      <trkpt lat="45.09797" lon="5.97456">
        <ele>2468.3999023438</ele>
        <time>2024-10-15T10:30:18.000Z</time>
      </trkpt>
      <trkpt lat="45.09797" lon="5.97456">
        <ele>2468.3999023438</ele>
        <time>2024-10-15T10:30:19.000Z</time>
      </trkpt>
      <trkpt lat="45.09797" lon="5.97456">
        <ele>2468.3999023438</ele>
        <time>2024-10-15T10:30:20.000Z</time>
      </trkpt>
      <trkpt lat="45.09797" lon="5.97456">
        <ele>2468.3999023438</ele>
        <time>2024-10-15T10:30:21.000Z</time>
      </trkpt>
      <trkpt lat="45.09797" lon="5.97456">
        <ele>2468.6000976562</ele>
        <time>2024-10-15T10:30:22.000Z</time>
      </trkpt>
      <trkpt lat="45.09797" lon="5.97456">
        <ele>2468.6000976562</ele>
        <time>2024-10-15T10:30:23.000Z</time>
      </trkpt>
      <trkpt lat="45.09797" lon="5.97456">
        <ele>2468.8000488281</ele>
        <time>2024-10-15T10:30:24.000Z</time>
      </trkpt>
      <trkpt lat="45.09797" lon="5.97456">
        <ele>2468.8000488281</ele>
        <time>2024-10-15T10:30:25.000Z</time>
      </trkpt>
      <trkpt lat="45.09797" lon="5.97456">
        <ele>2468.8000488281</ele>
        <time>2024-10-15T10:30:26.000Z</time>
      </trkpt>
      <trkpt lat="45.09797" lon="5.97456">
        <ele>2468.8000488281</ele>
        <time>2024-10-15T10:30:27.000Z</time>
      </trkpt>
      <trkpt lat="45.09797" lon="5.97456">
        <ele>2468.8000488281</ele>
        <time>2024-10-15T10:30:28.000Z</time>
      </trkpt>
      <trkpt lat="45.09797" lon="5.97456">
        <ele>2468.8000488281</ele>
        <time>2024-10-15T10:30:29.000Z</time>
      </trkpt>
      <trkpt lat="45.09797" lon="5.97456">
        <ele>2468.8000488281</ele>
        <time>2024-10-15T10:30:30.000Z</time>
      </trkpt>
      <trkpt lat="45.09797" lon="5.97456">
        <ele>2468.8000488281</ele>
        <time>2024-10-15T10:30:31.000Z</time>
      </trkpt>
      <trkpt lat="45.09797" lon="5.97456">
        <ele>2469</ele>
        <time>2024-10-15T10:30:32.000Z</time>
      </trkpt>
      <trkpt lat="45.09797" lon="5.97456">
        <ele>2469</ele>
        <time>2024-10-15T10:30:33.000Z</time>
      </trkpt>
      <trkpt lat="45.09797" lon="5.97456">
        <ele>2469</ele>
        <time>2024-10-15T10:30:34.000Z</time>
      </trkpt>
      <trkpt lat="45.09797" lon="5.97456">
        <ele>2469</ele>
        <time>2024-10-15T10:30:35.000Z</time>
      </trkpt>
      <trkpt lat="45.09797" lon="5.97456">
        <ele>2469</ele>
        <time>2024-10-15T10:30:36.000Z</time>
      </trkpt>
      <trkpt lat="45.09797" lon="5.97456">
        <ele>2469</ele>
        <time>2024-10-15T10:30:37.000Z</time>
      </trkpt>
      <trkpt lat="45.09797" lon="5.97456">
        <ele>2469.1999511719</ele>
        <time>2024-10-15T10:30:38.000Z</time>
      </trkpt>
      <trkpt lat="45.09797" lon="5.97456">
        <ele>2469.1999511719</ele>
        <time>2024-10-15T10:30:39.000Z</time>
      </trkpt>
      <trkpt lat="45.09797" lon="5.97456">
        <ele>2469.1999511719</ele>
        <time>2024-10-15T10:30:40.000Z</time>
      </trkpt>
      <trkpt lat="45.09797" lon="5.97456">
        <ele>2469.1999511719</ele>
        <time>2024-10-15T10:30:41.000Z</time>
      </trkpt>
      <trkpt lat="45.09797" lon="5.97456">
        <ele>2469.3999023438</ele>
        <time>2024-10-15T10:30:42.000Z</time>
      </trkpt>
      <trkpt lat="45.09797" lon="5.97456">
        <ele>2469.3999023438</ele>
        <time>2024-10-15T10:30:43.000Z</time>
      </trkpt>
      <trkpt lat="45.09797" lon="5.97456">
        <ele>2469.8000488281</ele>
        <time>2024-10-15T10:30:44.000Z</time>
      </trkpt>
      <trkpt lat="45.09797" lon="5.97456">
        <ele>2469.8000488281</ele>
        <time>2024-10-15T10:30:45.000Z</time>
      </trkpt>
      <trkpt lat="45.09797" lon="5.97456">
        <ele>2469.8000488281</ele>
        <time>2024-10-15T10:30:46.000Z</time>
      </trkpt>
      <trkpt lat="45.09797" lon="5.97456">
        <ele>2469.8000488281</ele>
        <time>2024-10-15T10:30:47.000Z</time>
      </trkpt>
      <trkpt lat="45.09797" lon="5.97456">
        <ele>2469.8000488281</ele>
        <time>2024-10-15T10:30:48.000Z</time>
      </trkpt>
      <trkpt lat="45.09797" lon="5.97456">
        <ele>2469.8000488281</ele>
        <time>2024-10-15T10:30:49.000Z</time>
      </trkpt>
      <trkpt lat="45.09797" lon="5.97456">
        <ele>2469.8000488281</ele>
        <time>2024-10-15T10:30:50.000Z</time>
      </trkpt>
      <trkpt lat="45.09797" lon="5.97456">
        <ele>2470</ele>
        <time>2024-10-15T10:30:51.000Z</time>
      </trkpt>
      <trkpt lat="45.09797" lon="5.97456">
        <ele>2470</ele>
        <time>2024-10-15T10:30:52.000Z</time>
      </trkpt>
      <trkpt lat="45.09797" lon="5.97456">
        <ele>2470</ele>
        <time>2024-10-15T10:30:53.000Z</time>
      </trkpt>
      <trkpt lat="45.09797" lon="5.97456">
        <ele>2470</ele>
        <time>2024-10-15T10:30:54.000Z</time>
      </trkpt>
      <trkpt lat="45.09797" lon="5.97456">
        <ele>2470</ele>
        <time>2024-10-15T10:30:55.000Z</time>
      </trkpt>
      <trkpt lat="45.09797" lon="5.97456">
        <ele>2470.1999511719</ele>
        <time>2024-10-15T10:30:56.000Z</time>
      </trkpt>
      <trkpt lat="45.09797" lon="5.97456">
        <ele>2470.1999511719</ele>
        <time>2024-10-15T10:30:57.000Z</time>
      </trkpt>
      <trkpt lat="45.09797" lon="5.97456">
        <ele>2470.3999023438</ele>
        <time>2024-10-15T10:30:58.000Z</time>
      </trkpt>
      <trkpt lat="45.09797" lon="5.97456">
        <ele>2470.3999023438</ele>
        <time>2024-10-15T10:30:59.000Z</time>
      </trkpt>
      <trkpt lat="45.09797" lon="5.97456">
        <ele>2470.3999023438</ele>
        <time>2024-10-15T10:31:00.000Z</time>
      </trkpt>
      <trkpt lat="45.09797" lon="5.97456">
        <ele>2470.6000976562</ele>
        <time>2024-10-15T10:31:01.000Z</time>
      </trkpt>
      <trkpt lat="45.09797" lon="5.97456">
        <ele>2470.8000488281</ele>
        <time>2024-10-15T10:31:02.000Z</time>
      </trkpt>
      <trkpt lat="45.09797" lon="5.97456">
        <ele>2470.8000488281</ele>
        <time>2024-10-15T10:31:03.000Z</time>
      </trkpt>
      <trkpt lat="45.09797" lon="5.97456">
        <ele>2470.8000488281</ele>
        <time>2024-10-15T10:31:04.000Z</time>
      </trkpt>
      <trkpt lat="45.09797" lon="5.97456">
        <ele>2470.8000488281</ele>
        <time>2024-10-15T10:31:05.000Z</time>
      </trkpt>
      <trkpt lat="45.09797" lon="5.97456">
        <ele>2470.8000488281</ele>
        <time>2024-10-15T10:31:06.000Z</time>
      </trkpt>
      <trkpt lat="45.09797" lon="5.97456">
        <ele>2471</ele>
        <time>2024-10-15T10:31:07.000Z</time>
      </trkpt>
      <trkpt lat="45.09797" lon="5.97456">
        <ele>2471</ele>
        <time>2024-10-15T10:31:08.000Z</time>
      </trkpt>
      <trkpt lat="45.09797" lon="5.97456">
        <ele>2471</ele>
        <time>2024-10-15T10:31:09.000Z</time>
      </trkpt>
      <trkpt lat="45.09797" lon="5.97456">
        <ele>2471</ele>
        <time>2024-10-15T10:31:10.000Z</time>
      </trkpt>
      <trkpt lat="45.09797" lon="5.97456">
        <ele>2471</ele>
        <time>2024-10-15T10:31:11.000Z</time>
      </trkpt>
      <trkpt lat="45.09797" lon="5.97456">
        <ele>2471</ele>
        <time>2024-10-15T10:31:12.000Z</time>
      </trkpt>
      <trkpt lat="45.09797" lon="5.97456">
        <ele>2471</ele>
        <time>2024-10-15T10:31:13.000Z</time>
      </trkpt>
      <trkpt lat="45.09797" lon="5.97456">
        <ele>2471</ele>
        <time>2024-10-15T10:31:14.000Z</time>
      </trkpt>
      <trkpt lat="45.09797" lon="5.97456">
        <ele>2471</ele>
        <time>2024-10-15T10:31:15.000Z</time>
      </trkpt>
      <trkpt lat="45.09797" lon="5.97456">
        <ele>2471</ele>
        <time>2024-10-15T10:31:16.000Z</time>
      </trkpt>
      <trkpt lat="45.09797" lon="5.97456">
        <ele>2471.1999511719</ele>
        <time>2024-10-15T10:31:17.000Z</time>
      </trkpt>
      <trkpt lat="45.09797" lon="5.97456">
        <ele>2471.1999511719</ele>
        <time>2024-10-15T10:31:18.000Z</time>
      </trkpt>
      <trkpt lat="45.09797" lon="5.97456">
        <ele>2471.1999511719</ele>
        <time>2024-10-15T10:31:19.000Z</time>
      </trkpt>
      <trkpt lat="45.09797" lon="5.97456">
        <ele>2471.3999023438</ele>
        <time>2024-10-15T10:31:20.000Z</time>
      </trkpt>
      <trkpt lat="45.09797" lon="5.97456">
        <ele>2471.3999023438</ele>
        <time>2024-10-15T10:31:21.000Z</time>
      </trkpt>
      <trkpt lat="45.09797" lon="5.97456">
        <ele>2471.3999023438</ele>
        <time>2024-10-15T10:31:22.000Z</time>
      </trkpt>
      <trkpt lat="45.09797" lon="5.97456">
        <ele>2471.3999023438</ele>
        <time>2024-10-15T10:31:23.000Z</time>
      </trkpt>
      <trkpt lat="45.09797" lon="5.97456">
        <ele>2471.3999023438</ele>
        <time>2024-10-15T10:31:24.000Z</time>
      </trkpt>
      <trkpt lat="45.09797" lon="5.97456">
        <ele>2471.6000976562</ele>
        <time>2024-10-15T10:31:25.000Z</time>
      </trkpt>
      <trkpt lat="45.09797" lon="5.97456">
        <ele>2471.6000976562</ele>
        <time>2024-10-15T10:31:26.000Z</time>
      </trkpt>
      <trkpt lat="45.09797" lon="5.97456">
        <ele>2471.6000976562</ele>
        <time>2024-10-15T10:31:27.000Z</time>
      </trkpt>
      <trkpt lat="45.09797" lon="5.97456">
        <ele>2471.6000976562</ele>
        <time>2024-10-15T10:31:28.000Z</time>
      </trkpt>
      <trkpt lat="45.09797" lon="5.97456">
        <ele>2471.6000976562</ele>
        <time>2024-10-15T10:31:29.000Z</time>
      </trkpt>
      <trkpt lat="45.09797" lon="5.97456">
        <ele>2471.6000976562</ele>
        <time>2024-10-15T10:31:30.000Z</time>
      </trkpt>
      <trkpt lat="45.09797" lon="5.97456">
        <ele>2471.6000976562</ele>
        <time>2024-10-15T10:31:31.000Z</time>
      </trkpt>
      <trkpt lat="45.09797" lon="5.97456">
        <ele>2471.3999023438</ele>
        <time>2024-10-15T10:31:32.000Z</time>
      </trkpt>
      <trkpt lat="45.09797" lon="5.97456">
        <ele>2471.3999023438</ele>
        <time>2024-10-15T10:31:33.000Z</time>
      </trkpt>
      <trkpt lat="45.09797" lon="5.97456">
        <ele>2471.3999023438</ele>
        <time>2024-10-15T10:31:34.000Z</time>
      </trkpt>
      <trkpt lat="45.09797" lon="5.97456">
        <ele>2471.1999511719</ele>
        <time>2024-10-15T10:31:35.000Z</time>
      </trkpt>
      <trkpt lat="45.09797" lon="5.97456">
        <ele>2471.1999511719</ele>
        <time>2024-10-15T10:31:36.000Z</time>
      </trkpt>
      <trkpt lat="45.09797" lon="5.97456">
        <ele>2471.1999511719</ele>
        <time>2024-10-15T10:31:37.000Z</time>
      </trkpt>
      <trkpt lat="45.09797" lon="5.97456">
        <ele>2471.1999511719</ele>
        <time>2024-10-15T10:31:38.000Z</time>
      </trkpt>
      <trkpt lat="45.09797" lon="5.97456">
        <ele>2471.3999023438</ele>
        <time>2024-10-15T10:31:39.000Z</time>
      </trkpt>
      <trkpt lat="45.09797" lon="5.97456">
        <ele>2471.1999511719</ele>
        <time>2024-10-15T10:31:40.000Z</time>
      </trkpt>
      <trkpt lat="45.09797" lon="5.97456">
        <ele>2471.1999511719</ele>
        <time>2024-10-15T10:31:41.000Z</time>
      </trkpt>
      <trkpt lat="45.09797" lon="5.97456">
        <ele>2471.1999511719</ele>
        <time>2024-10-15T10:31:42.000Z</time>
      </trkpt>
      <trkpt lat="45.09797" lon="5.97456">
        <ele>2471.1999511719</ele>
        <time>2024-10-15T10:31:43.000Z</time>
      </trkpt>
      <trkpt lat="45.09797" lon="5.97456">
        <ele>2471.1999511719</ele>
        <time>2024-10-15T10:31:44.000Z</time>
      </trkpt>
      <trkpt lat="45.09797" lon="5.97456">
        <ele>2471</ele>
        <time>2024-10-15T10:31:45.000Z</time>
      </trkpt>
      <trkpt lat="45.09797" lon="5.97456">
        <ele>2471</ele>
        <time>2024-10-15T10:31:46.000Z</time>
      </trkpt>
      <trkpt lat="45.09797" lon="5.97456">
        <ele>2471</ele>
        <time>2024-10-15T10:31:47.000Z</time>
      </trkpt>
      <trkpt lat="45.09797" lon="5.97456">
        <ele>2471</ele>
        <time>2024-10-15T10:31:48.000Z</time>
      </trkpt>
      <trkpt lat="45.09797" lon="5.97456">
        <ele>2471.1999511719</ele>
        <time>2024-10-15T10:31:49.000Z</time>
      </trkpt>
      <trkpt lat="45.09797" lon="5.97456">
        <ele>2471.3999023438</ele>
        <time>2024-10-15T10:31:50.000Z</time>
      </trkpt>
      <trkpt lat="45.09797" lon="5.97456">
        <ele>2471.3999023438</ele>
        <time>2024-10-15T10:31:51.000Z</time>
      </trkpt>
      <trkpt lat="45.09797" lon="5.97456">
        <ele>2471.3999023438</ele>
        <time>2024-10-15T10:31:52.000Z</time>
      </trkpt>
      <trkpt lat="45.09797" lon="5.97456">
        <ele>2471.3999023438</ele>
        <time>2024-10-15T10:31:53.000Z</time>
      </trkpt>
      <trkpt lat="45.09797" lon="5.97456">
        <ele>2471.3999023438</ele>
        <time>2024-10-15T10:31:54.000Z</time>
      </trkpt>
      <trkpt lat="45.09797" lon="5.97456">
        <ele>2471.1999511719</ele>
        <time>2024-10-15T10:31:55.000Z</time>
      </trkpt>
      <trkpt lat="45.09797" lon="5.97456">
        <ele>2471.1999511719</ele>
        <time>2024-10-15T10:31:56.000Z</time>
      </trkpt>
      <trkpt lat="45.09797" lon="5.97456">
        <ele>2471.1999511719</ele>
        <time>2024-10-15T10:31:57.000Z</time>
      </trkpt>
      <trkpt lat="45.09797" lon="5.97456">
        <ele>2471</ele>
        <time>2024-10-15T10:31:58.000Z</time>
      </trkpt>
      <trkpt lat="45.09797" lon="5.97456">
        <ele>2471</ele>
        <time>2024-10-15T10:31:59.000Z</time>
      </trkpt>
      <trkpt lat="45.09797" lon="5.97456">
        <ele>2471</ele>
        <time>2024-10-15T10:32:00.000Z</time>
      </trkpt>
      <trkpt lat="45.09797" lon="5.97456">
        <ele>2471</ele>
        <time>2024-10-15T10:32:01.000Z</time>
      </trkpt>
      <trkpt lat="45.09797" lon="5.97456">
        <ele>2471</ele>
        <time>2024-10-15T10:32:02.000Z</time>
      </trkpt>
      <trkpt lat="45.09797" lon="5.97456">
        <ele>2471.1999511719</ele>
        <time>2024-10-15T10:32:03.000Z</time>
      </trkpt>
      <trkpt lat="45.09797" lon="5.97456">
        <ele>2471.1999511719</ele>
        <time>2024-10-15T10:32:04.000Z</time>
      </trkpt>
      <trkpt lat="45.09797" lon="5.97456">
        <ele>2471.1999511719</ele>
        <time>2024-10-15T10:32:05.000Z</time>
      </trkpt>
      <trkpt lat="45.09797" lon="5.97456">
        <ele>2471.1999511719</ele>
        <time>2024-10-15T10:32:06.000Z</time>
      </trkpt>
      <trkpt lat="45.09797" lon="5.97456">
        <ele>2471.1999511719</ele>
        <time>2024-10-15T10:32:07.000Z</time>
      </trkpt>
      <trkpt lat="45.09797" lon="5.97456">
        <ele>2471.1999511719</ele>
        <time>2024-10-15T10:32:08.000Z</time>
      </trkpt>
      <trkpt lat="45.09797" lon="5.97456">
        <ele>2471.1999511719</ele>
        <time>2024-10-15T10:32:09.000Z</time>
      </trkpt>
      <trkpt lat="45.09797" lon="5.97456">
        <ele>2471.1999511719</ele>
        <time>2024-10-15T10:32:10.000Z</time>
      </trkpt>
      <trkpt lat="45.09797" lon="5.97456">
        <ele>2471.1999511719</ele>
        <time>2024-10-15T10:32:11.000Z</time>
      </trkpt>
      <trkpt lat="45.09797" lon="5.97456">
        <ele>2471.1999511719</ele>
        <time>2024-10-15T10:32:12.000Z</time>
      </trkpt>
      <trkpt lat="45.09797" lon="5.97456">
        <ele>2471</ele>
        <time>2024-10-15T10:32:13.000Z</time>
      </trkpt>
      <trkpt lat="45.09797" lon="5.97456">
        <ele>2471</ele>
        <time>2024-10-15T10:32:14.000Z</time>
      </trkpt>
      <trkpt lat="45.09797" lon="5.97456">
        <ele>2471</ele>
        <time>2024-10-15T10:32:15.000Z</time>
      </trkpt>
      <trkpt lat="45.09797" lon="5.97456">
        <ele>2471</ele>
        <time>2024-10-15T10:32:16.000Z</time>
      </trkpt>
      <trkpt lat="45.09797" lon="5.97456">
        <ele>2471</ele>
        <time>2024-10-15T10:32:17.000Z</time>
      </trkpt>
      <trkpt lat="45.09797" lon="5.97456">
        <ele>2471</ele>
        <time>2024-10-15T10:32:18.000Z</time>
      </trkpt>
      <trkpt lat="45.09797" lon="5.97456">
        <ele>2470.8000488281</ele>
        <time>2024-10-15T10:32:19.000Z</time>
      </trkpt>
      <trkpt lat="45.09797" lon="5.97456">
        <ele>2470.8000488281</ele>
        <time>2024-10-15T10:32:20.000Z</time>
      </trkpt>
      <trkpt lat="45.09797" lon="5.97456">
        <ele>2470.8000488281</ele>
        <time>2024-10-15T10:32:21.000Z</time>
      </trkpt>
      <trkpt lat="45.09797" lon="5.97456">
        <ele>2470.8000488281</ele>
        <time>2024-10-15T10:32:22.000Z</time>
      </trkpt>
      <trkpt lat="45.09797" lon="5.97456">
        <ele>2470.8000488281</ele>
        <time>2024-10-15T10:32:23.000Z</time>
      </trkpt>
      <trkpt lat="45.09797" lon="5.97456">
        <ele>2470.8000488281</ele>
        <time>2024-10-15T10:32:24.000Z</time>
      </trkpt>
      <trkpt lat="45.09797" lon="5.97456">
        <ele>2470.8000488281</ele>
        <time>2024-10-15T10:32:25.000Z</time>
      </trkpt>
      <trkpt lat="45.09797" lon="5.97456">
        <ele>2470.8000488281</ele>
        <time>2024-10-15T10:32:26.000Z</time>
      </trkpt>
      <trkpt lat="45.09797" lon="5.97456">
        <ele>2470.8000488281</ele>
        <time>2024-10-15T10:32:27.000Z</time>
      </trkpt>
      <trkpt lat="45.09797" lon="5.97456">
        <ele>2470.8000488281</ele>
        <time>2024-10-15T10:32:28.000Z</time>
      </trkpt>
      <trkpt lat="45.09797" lon="5.97456">
        <ele>2470.8000488281</ele>
        <time>2024-10-15T10:32:29.000Z</time>
      </trkpt>
      <trkpt lat="45.09797" lon="5.97456">
        <ele>2470.8000488281</ele>
        <time>2024-10-15T10:32:30.000Z</time>
      </trkpt>
      <trkpt lat="45.09797" lon="5.97456">
        <ele>2470.8000488281</ele>
        <time>2024-10-15T10:32:31.000Z</time>
      </trkpt>
      <trkpt lat="45.09797" lon="5.97456">
        <ele>2470.8000488281</ele>
        <time>2024-10-15T10:32:32.000Z</time>
      </trkpt>
      <trkpt lat="45.09797" lon="5.97456">
        <ele>2470.8000488281</ele>
        <time>2024-10-15T10:32:33.000Z</time>
      </trkpt>
      <trkpt lat="45.09797" lon="5.97456">
        <ele>2470.8000488281</ele>
        <time>2024-10-15T10:32:34.000Z</time>
      </trkpt>
      <trkpt lat="45.09797" lon="5.97456">
        <ele>2470.8000488281</ele>
        <time>2024-10-15T10:32:35.000Z</time>
      </trkpt>
      <trkpt lat="45.09797" lon="5.97456">
        <ele>2470.8000488281</ele>
        <time>2024-10-15T10:32:36.000Z</time>
      </trkpt>
      <trkpt lat="45.09797" lon="5.97456">
        <ele>2470.8000488281</ele>
        <time>2024-10-15T10:32:37.000Z</time>
      </trkpt>
      <trkpt lat="45.09797" lon="5.97456">
        <ele>2470.8000488281</ele>
        <time>2024-10-15T10:32:38.000Z</time>
      </trkpt>
      <trkpt lat="45.09797" lon="5.97456">
        <ele>2470.8000488281</ele>
        <time>2024-10-15T10:32:39.000Z</time>
      </trkpt>
      <trkpt lat="45.09797" lon="5.97456">
        <ele>2470.6000976562</ele>
        <time>2024-10-15T10:32:40.000Z</time>
      </trkpt>
      <trkpt lat="45.09797" lon="5.97456">
        <ele>2470.6000976562</ele>
        <time>2024-10-15T10:32:41.000Z</time>
      </trkpt>
      <trkpt lat="45.09797" lon="5.97456">
        <ele>2470.6000976562</ele>
        <time>2024-10-15T10:32:42.000Z</time>
      </trkpt>
      <trkpt lat="45.09797" lon="5.97456">
        <ele>2470.8000488281</ele>
        <time>2024-10-15T10:32:43.000Z</time>
      </trkpt>
      <trkpt lat="45.09797" lon="5.97456">
        <ele>2470.8000488281</ele>
        <time>2024-10-15T10:32:44.000Z</time>
      </trkpt>
      <trkpt lat="45.09797" lon="5.97456">
        <ele>2470.8000488281</ele>
        <time>2024-10-15T10:32:45.000Z</time>
      </trkpt>
      <trkpt lat="45.09797" lon="5.97456">
        <ele>2470.8000488281</ele>
        <time>2024-10-15T10:32:46.000Z</time>
      </trkpt>
      <trkpt lat="45.09797" lon="5.97456">
        <ele>2470.8000488281</ele>
        <time>2024-10-15T10:32:47.000Z</time>
      </trkpt>
      <trkpt lat="45.09797" lon="5.97456">
        <ele>2470.8000488281</ele>
        <time>2024-10-15T10:32:48.000Z</time>
      </trkpt>
      <trkpt lat="45.09797" lon="5.97456">
        <ele>2470.8000488281</ele>
        <time>2024-10-15T10:32:49.000Z</time>
      </trkpt>
      <trkpt lat="45.09797" lon="5.97456">
        <ele>2470.8000488281</ele>
        <time>2024-10-15T10:32:50.000Z</time>
      </trkpt>
      <trkpt lat="45.09797" lon="5.97456">
        <ele>2470.8000488281</ele>
        <time>2024-10-15T10:32:51.000Z</time>
      </trkpt>
      <trkpt lat="45.09797" lon="5.97456">
        <ele>2470.8000488281</ele>
        <time>2024-10-15T10:32:52.000Z</time>
      </trkpt>
      <trkpt lat="45.09797" lon="5.97456">
        <ele>2470.8000488281</ele>
        <time>2024-10-15T10:32:53.000Z</time>
      </trkpt>
      <trkpt lat="45.09797" lon="5.97456">
        <ele>2470.8000488281</ele>
        <time>2024-10-15T10:32:54.000Z</time>
      </trkpt>
      <trkpt lat="45.09797" lon="5.97456">
        <ele>2470.6000976562</ele>
        <time>2024-10-15T10:32:55.000Z</time>
      </trkpt>
      <trkpt lat="45.09797" lon="5.97456">
        <ele>2470.3999023438</ele>
        <time>2024-10-15T10:32:56.000Z</time>
      </trkpt>
      <trkpt lat="45.09797" lon="5.97456">
        <ele>2470.3999023438</ele>
        <time>2024-10-15T10:32:57.000Z</time>
      </trkpt>
      <trkpt lat="45.09797" lon="5.97456">
        <ele>2470.3999023438</ele>
        <time>2024-10-15T10:32:58.000Z</time>
      </trkpt>
      <trkpt lat="45.09797" lon="5.97456">
        <ele>2470.3999023438</ele>
        <time>2024-10-15T10:32:59.000Z</time>
      </trkpt>
      <trkpt lat="45.09797" lon="5.97456">
        <ele>2470.1999511719</ele>
        <time>2024-10-15T10:33:00.000Z</time>
      </trkpt>
      <trkpt lat="45.09797" lon="5.97456">
        <ele>2470.1999511719</ele>
        <time>2024-10-15T10:33:01.000Z</time>
      </trkpt>
      <trkpt lat="45.09797" lon="5.97456">
        <ele>2470.1999511719</ele>
        <time>2024-10-15T10:33:02.000Z</time>
      </trkpt>
      <trkpt lat="45.09797" lon="5.97456">
        <ele>2470.1999511719</ele>
        <time>2024-10-15T10:33:03.000Z</time>
      </trkpt>
      <trkpt lat="45.09797" lon="5.97456">
        <ele>2470.1999511719</ele>
        <time>2024-10-15T10:33:04.000Z</time>
      </trkpt>
      <trkpt lat="45.09797" lon="5.97456">
        <ele>2470</ele>
        <time>2024-10-15T10:33:05.000Z</time>
      </trkpt>
      <trkpt lat="45.09797" lon="5.97456">
        <ele>2470</ele>
        <time>2024-10-15T10:33:06.000Z</time>
      </trkpt>
      <trkpt lat="45.09797" lon="5.97456">
        <ele>2470</ele>
        <time>2024-10-15T10:33:07.000Z</time>
      </trkpt>
      <trkpt lat="45.09797" lon="5.97456">
        <ele>2470</ele>
        <time>2024-10-15T10:33:08.000Z</time>
      </trkpt>
      <trkpt lat="45.09797" lon="5.97456">
        <ele>2470</ele>
        <time>2024-10-15T10:33:09.000Z</time>
      </trkpt>
      <trkpt lat="45.09797" lon="5.97456">
        <ele>2470</ele>
        <time>2024-10-15T10:33:10.000Z</time>
      </trkpt>
      <trkpt lat="45.09797" lon="5.97456">
        <ele>2470</ele>
        <time>2024-10-15T10:33:11.000Z</time>
      </trkpt>
      <trkpt lat="45.09797" lon="5.97456">
        <ele>2469.8000488281</ele>
        <time>2024-10-15T10:33:12.000Z</time>
      </trkpt>
      <trkpt lat="45.09797" lon="5.97456">
        <ele>2469.8000488281</ele>
        <time>2024-10-15T10:33:13.000Z</time>
      </trkpt>
      <trkpt lat="45.09797" lon="5.97456">
        <ele>2469.8000488281</ele>
        <time>2024-10-15T10:33:14.000Z</time>
      </trkpt>
      <trkpt lat="45.09797" lon="5.97456">
        <ele>2469.6000976562</ele>
        <time>2024-10-15T10:33:15.000Z</time>
      </trkpt>
      <trkpt lat="45.09797" lon="5.97456">
        <ele>2469.6000976562</ele>
        <time>2024-10-15T10:33:16.000Z</time>
      </trkpt>
      <trkpt lat="45.09797" lon="5.97456">
        <ele>2469.6000976562</ele>
        <time>2024-10-15T10:33:17.000Z</time>
      </trkpt>
      <trkpt lat="45.09797" lon="5.97456">
        <ele>2469.6000976562</ele>
        <time>2024-10-15T10:33:18.000Z</time>
      </trkpt>
      <trkpt lat="45.09797" lon="5.97456">
        <ele>2469.6000976562</ele>
        <time>2024-10-15T10:33:19.000Z</time>
      </trkpt>
      <trkpt lat="45.09797" lon="5.97456">
        <ele>2469.6000976562</ele>
        <time>2024-10-15T10:33:20.000Z</time>
      </trkpt>
      <trkpt lat="45.09797" lon="5.97456">
        <ele>2469.6000976562</ele>
        <time>2024-10-15T10:33:21.000Z</time>
      </trkpt>
      <trkpt lat="45.09797" lon="5.97456">
        <ele>2469.8000488281</ele>
        <time>2024-10-15T10:33:22.000Z</time>
      </trkpt>
      <trkpt lat="45.09797" lon="5.97456">
        <ele>2469.8000488281</ele>
        <time>2024-10-15T10:33:23.000Z</time>
      </trkpt>
      <trkpt lat="45.09797" lon="5.97456">
        <ele>2469.8000488281</ele>
        <time>2024-10-15T10:33:24.000Z</time>
      </trkpt>
      <trkpt lat="45.09797" lon="5.97456">
        <ele>2469.8000488281</ele>
        <time>2024-10-15T10:33:25.000Z</time>
      </trkpt>
      <trkpt lat="45.09797" lon="5.97456">
        <ele>2469.8000488281</ele>
        <time>2024-10-15T10:33:26.000Z</time>
      </trkpt>
      <trkpt lat="45.09797" lon="5.97456">
        <ele>2469.8000488281</ele>
        <time>2024-10-15T10:33:27.000Z</time>
      </trkpt>
      <trkpt lat="45.09797" lon="5.97456">
        <ele>2469.8000488281</ele>
        <time>2024-10-15T10:33:28.000Z</time>
      </trkpt>
      <trkpt lat="45.09797" lon="5.97456">
        <ele>2469.6000976562</ele>
        <time>2024-10-15T10:33:29.000Z</time>
      </trkpt>
      <trkpt lat="45.09797" lon="5.97456">
        <ele>2469.6000976562</ele>
        <time>2024-10-15T10:33:30.000Z</time>
      </trkpt>
      <trkpt lat="45.09797" lon="5.97456">
        <ele>2469.6000976562</ele>
        <time>2024-10-15T10:33:31.000Z</time>
      </trkpt>
      <trkpt lat="45.09797" lon="5.97456">
        <ele>2469.6000976562</ele>
        <time>2024-10-15T10:33:32.000Z</time>
      </trkpt>
      <trkpt lat="45.09797" lon="5.97456">
        <ele>2469.6000976562</ele>
        <time>2024-10-15T10:33:33.000Z</time>
      </trkpt>
      <trkpt lat="45.09797" lon="5.97456">
        <ele>2469.6000976562</ele>
        <time>2024-10-15T10:33:34.000Z</time>
      </trkpt>
      <trkpt lat="45.09797" lon="5.97456">
        <ele>2469.6000976562</ele>
        <time>2024-10-15T10:33:35.000Z</time>
      </trkpt>
      <trkpt lat="45.09797" lon="5.97456">
        <ele>2469.6000976562</ele>
        <time>2024-10-15T10:33:36.000Z</time>
      </trkpt>
      <trkpt lat="45.09797" lon="5.97456">
        <ele>2469.8000488281</ele>
        <time>2024-10-15T10:33:37.000Z</time>
      </trkpt>
      <trkpt lat="45.09797" lon="5.97456">
        <ele>2470</ele>
        <time>2024-10-15T10:33:38.000Z</time>
      </trkpt>
      <trkpt lat="45.09797" lon="5.97456">
        <ele>2470</ele>
        <time>2024-10-15T10:33:39.000Z</time>
      </trkpt>
      <trkpt lat="45.09797" lon="5.97456">
        <ele>2470</ele>
        <time>2024-10-15T10:33:40.000Z</time>
      </trkpt>
      <trkpt lat="45.09797" lon="5.97456">
        <ele>2470</ele>
        <time>2024-10-15T10:33:41.000Z</time>
      </trkpt>
      <trkpt lat="45.09797" lon="5.97456">
        <ele>2470</ele>
        <time>2024-10-15T10:33:42.000Z</time>
      </trkpt>
      <trkpt lat="45.09797" lon="5.97456">
        <ele>2470</ele>
        <time>2024-10-15T10:33:43.000Z</time>
      </trkpt>
      <trkpt lat="45.09797" lon="5.97456">
        <ele>2470</ele>
        <time>2024-10-15T10:33:44.000Z</time>
      </trkpt>
      <trkpt lat="45.09797" lon="5.97456">
        <ele>2470</ele>
        <time>2024-10-15T10:33:45.000Z</time>
      </trkpt>
      <trkpt lat="45.09797" lon="5.97456">
        <ele>2470</ele>
        <time>2024-10-15T10:33:46.000Z</time>
      </trkpt>
      <trkpt lat="45.09797" lon="5.97456">
        <ele>2470</ele>
        <time>2024-10-15T10:33:47.000Z</time>
      </trkpt>
      <trkpt lat="45.09797" lon="5.97456">
        <ele>2470</ele>
        <time>2024-10-15T10:33:48.000Z</time>
      </trkpt>
      <trkpt lat="45.09797" lon="5.97456">
        <ele>2470</ele>
        <time>2024-10-15T10:33:49.000Z</time>
      </trkpt>
      <trkpt lat="45.09797" lon="5.97456">
        <ele>2470</ele>
        <time>2024-10-15T10:33:50.000Z</time>
      </trkpt>
      <trkpt lat="45.09797" lon="5.97456">
        <ele>2470</ele>
        <time>2024-10-15T10:33:51.000Z</time>
      </trkpt>
      <trkpt lat="45.09797" lon="5.97456">
        <ele>2470</ele>
        <time>2024-10-15T10:33:52.000Z</time>
      </trkpt>
      <trkpt lat="45.09797" lon="5.97456">
        <ele>2469.8000488281</ele>
        <time>2024-10-15T10:33:53.000Z</time>
      </trkpt>
      <trkpt lat="45.09797" lon="5.97456">
        <ele>2469.8000488281</ele>
        <time>2024-10-15T10:33:54.000Z</time>
      </trkpt>
      <trkpt lat="45.09797" lon="5.97456">
        <ele>2469.8000488281</ele>
        <time>2024-10-15T10:33:55.000Z</time>
      </trkpt>
      <trkpt lat="45.09797" lon="5.97456">
        <ele>2469.8000488281</ele>
        <time>2024-10-15T10:33:56.000Z</time>
      </trkpt>
      <trkpt lat="45.09797" lon="5.97456">
        <ele>2469.8000488281</ele>
        <time>2024-10-15T10:33:57.000Z</time>
      </trkpt>
      <trkpt lat="45.09797" lon="5.97456">
        <ele>2470</ele>
        <time>2024-10-15T10:33:58.000Z</time>
      </trkpt>
      <trkpt lat="45.09797" lon="5.97456">
        <ele>2470</ele>
        <time>2024-10-15T10:33:59.000Z</time>
      </trkpt>
      <trkpt lat="45.09797" lon="5.97456">
        <ele>2470.3999023438</ele>
        <time>2024-10-15T10:34:00.000Z</time>
      </trkpt>
      <trkpt lat="45.09797" lon="5.97456">
        <ele>2470.3999023438</ele>
        <time>2024-10-15T10:34:01.000Z</time>
      </trkpt>
      <trkpt lat="45.09797" lon="5.97456">
        <ele>2470.3999023438</ele>
        <time>2024-10-15T10:34:02.000Z</time>
      </trkpt>
      <trkpt lat="45.09797" lon="5.97456">
        <ele>2470.3999023438</ele>
        <time>2024-10-15T10:34:03.000Z</time>
      </trkpt>
      <trkpt lat="45.09797" lon="5.97456">
        <ele>2470.6000976562</ele>
        <time>2024-10-15T10:34:04.000Z</time>
      </trkpt>
      <trkpt lat="45.09797" lon="5.97456">
        <ele>2470.6000976562</ele>
        <time>2024-10-15T10:34:05.000Z</time>
      </trkpt>
      <trkpt lat="45.09797" lon="5.97456">
        <ele>2470.6000976562</ele>
        <time>2024-10-15T10:34:06.000Z</time>
      </trkpt>
      <trkpt lat="45.09797" lon="5.97456">
        <ele>2470.6000976562</ele>
        <time>2024-10-15T10:34:07.000Z</time>
      </trkpt>
      <trkpt lat="45.09797" lon="5.97456">
        <ele>2470.6000976562</ele>
        <time>2024-10-15T10:34:08.000Z</time>
      </trkpt>
      <trkpt lat="45.09797" lon="5.97456">
        <ele>2470.6000976562</ele>
        <time>2024-10-15T10:34:09.000Z</time>
      </trkpt>
      <trkpt lat="45.09797" lon="5.97456">
        <ele>2470.6000976562</ele>
        <time>2024-10-15T10:34:10.000Z</time>
      </trkpt>
      <trkpt lat="45.09797" lon="5.97456">
        <ele>2470.6000976562</ele>
        <time>2024-10-15T10:34:11.000Z</time>
      </trkpt>
      <trkpt lat="45.09797" lon="5.97456">
        <ele>2470.6000976562</ele>
        <time>2024-10-15T10:34:12.000Z</time>
      </trkpt>
      <trkpt lat="45.09797" lon="5.97456">
        <ele>2470.3999023438</ele>
        <time>2024-10-15T10:34:13.000Z</time>
      </trkpt>
      <trkpt lat="45.09797" lon="5.97456">
        <ele>2470.3999023438</ele>
        <time>2024-10-15T10:34:14.000Z</time>
      </trkpt>
      <trkpt lat="45.09797" lon="5.97456">
        <ele>2470.3999023438</ele>
        <time>2024-10-15T10:34:15.000Z</time>
      </trkpt>
      <trkpt lat="45.09797" lon="5.97456">
        <ele>2470.3999023438</ele>
        <time>2024-10-15T10:34:16.000Z</time>
      </trkpt>
      <trkpt lat="45.09797" lon="5.97456">
        <ele>2470.3999023438</ele>
        <time>2024-10-15T10:34:17.000Z</time>
      </trkpt>
      <trkpt lat="45.09797" lon="5.97456">
        <ele>2470.3999023438</ele>
        <time>2024-10-15T10:34:18.000Z</time>
      </trkpt>
      <trkpt lat="45.09797" lon="5.97456">
        <ele>2470.3999023438</ele>
        <time>2024-10-15T10:34:19.000Z</time>
      </trkpt>
      <trkpt lat="45.09797" lon="5.97456">
        <ele>2470.3999023438</ele>
        <time>2024-10-15T10:34:20.000Z</time>
      </trkpt>
      <trkpt lat="45.09797" lon="5.97456">
        <ele>2470.3999023438</ele>
        <time>2024-10-15T10:34:21.000Z</time>
      </trkpt>
      <trkpt lat="45.09797" lon="5.97456">
        <ele>2470.3999023438</ele>
        <time>2024-10-15T10:34:22.000Z</time>
      </trkpt>
      <trkpt lat="45.09797" lon="5.97456">
        <ele>2470.1999511719</ele>
        <time>2024-10-15T10:34:23.000Z</time>
      </trkpt>
      <trkpt lat="45.09797" lon="5.97456">
        <ele>2470.1999511719</ele>
        <time>2024-10-15T10:34:24.000Z</time>
      </trkpt>
      <trkpt lat="45.09797" lon="5.97456">
        <ele>2470.1999511719</ele>
        <time>2024-10-15T10:34:25.000Z</time>
      </trkpt>
      <trkpt lat="45.09797" lon="5.97456">
        <ele>2470.1999511719</ele>
        <time>2024-10-15T10:34:26.000Z</time>
      </trkpt>
      <trkpt lat="45.09797" lon="5.97456">
        <ele>2470.1999511719</ele>
        <time>2024-10-15T10:34:27.000Z</time>
      </trkpt>
      <trkpt lat="45.09797" lon="5.97456">
        <ele>2470.1999511719</ele>
        <time>2024-10-15T10:34:28.000Z</time>
      </trkpt>
      <trkpt lat="45.09797" lon="5.97456">
        <ele>2470.1999511719</ele>
        <time>2024-10-15T10:34:29.000Z</time>
      </trkpt>
      <trkpt lat="45.09797" lon="5.97456">
        <ele>2470.1999511719</ele>
        <time>2024-10-15T10:34:30.000Z</time>
      </trkpt>
      <trkpt lat="45.09797" lon="5.97456">
        <ele>2470.3999023438</ele>
        <time>2024-10-15T10:34:31.000Z</time>
      </trkpt>
      <trkpt lat="45.09797" lon="5.97456">
        <ele>2470.3999023438</ele>
        <time>2024-10-15T10:34:32.000Z</time>
      </trkpt>
      <trkpt lat="45.09797" lon="5.97456">
        <ele>2470.3999023438</ele>
        <time>2024-10-15T10:34:33.000Z</time>
      </trkpt>
      <trkpt lat="45.09797" lon="5.97456">
        <ele>2470.3999023438</ele>
        <time>2024-10-15T10:34:34.000Z</time>
      </trkpt>
      <trkpt lat="45.09797" lon="5.97456">
        <ele>2470.3999023438</ele>
        <time>2024-10-15T10:34:35.000Z</time>
      </trkpt>
      <trkpt lat="45.09797" lon="5.97456">
        <ele>2470.3999023438</ele>
        <time>2024-10-15T10:34:36.000Z</time>
      </trkpt>
      <trkpt lat="45.09797" lon="5.97456">
        <ele>2470.3999023438</ele>
        <time>2024-10-15T10:34:37.000Z</time>
      </trkpt>
      <trkpt lat="45.09797" lon="5.97456">
        <ele>2470.3999023438</ele>
        <time>2024-10-15T10:34:38.000Z</time>
      </trkpt>
      <trkpt lat="45.09797" lon="5.97456">
        <ele>2470.3999023438</ele>
        <time>2024-10-15T10:34:39.000Z</time>
      </trkpt>
      <trkpt lat="45.09797" lon="5.97456">
        <ele>2470.6000976562</ele>
        <time>2024-10-15T10:34:40.000Z</time>
      </trkpt>
      <trkpt lat="45.09797" lon="5.97456">
        <ele>2470.6000976562</ele>
        <time>2024-10-15T10:34:41.000Z</time>
      </trkpt>
      <trkpt lat="45.09797" lon="5.97456">
        <ele>2470.6000976562</ele>
        <time>2024-10-15T10:34:42.000Z</time>
      </trkpt>
      <trkpt lat="45.09797" lon="5.97456">
        <ele>2470.6000976562</ele>
        <time>2024-10-15T10:34:43.000Z</time>
      </trkpt>
      <trkpt lat="45.09797" lon="5.97456">
        <ele>2470.6000976562</ele>
        <time>2024-10-15T10:34:44.000Z</time>
      </trkpt>
      <trkpt lat="45.09797" lon="5.97456">
        <ele>2470.6000976562</ele>
        <time>2024-10-15T10:34:45.000Z</time>
      </trkpt>
      <trkpt lat="45.09797" lon="5.97456">
        <ele>2470.3999023438</ele>
        <time>2024-10-15T10:34:46.000Z</time>
      </trkpt>
      <trkpt lat="45.09797" lon="5.97456">
        <ele>2470.3999023438</ele>
        <time>2024-10-15T10:34:47.000Z</time>
      </trkpt>
      <trkpt lat="45.09797" lon="5.97456">
        <ele>2470.3999023438</ele>
        <time>2024-10-15T10:34:48.000Z</time>
      </trkpt>
      <trkpt lat="45.09797" lon="5.97456">
        <ele>2470.3999023438</ele>
        <time>2024-10-15T10:34:49.000Z</time>
      </trkpt>
      <trkpt lat="45.09797" lon="5.97456">
        <ele>2470.3999023438</ele>
        <time>2024-10-15T10:34:50.000Z</time>
      </trkpt>
      <trkpt lat="45.09797" lon="5.97456">
        <ele>2470.3999023438</ele>
        <time>2024-10-15T10:34:51.000Z</time>
      </trkpt>
      <trkpt lat="45.09797" lon="5.97456">
        <ele>2470.3999023438</ele>
        <time>2024-10-15T10:34:52.000Z</time>
      </trkpt>
      <trkpt lat="45.09797" lon="5.97456">
        <ele>2470.3999023438</ele>
        <time>2024-10-15T10:34:53.000Z</time>
      </trkpt>
      <trkpt lat="45.09797" lon="5.97456">
        <ele>2470.3999023438</ele>
        <time>2024-10-15T10:34:54.000Z</time>
      </trkpt>
      <trkpt lat="45.09797" lon="5.97456">
        <ele>2470.3999023438</ele>
        <time>2024-10-15T10:34:55.000Z</time>
      </trkpt>
      <trkpt lat="45.09797" lon="5.97456">
        <ele>2470.3999023438</ele>
        <time>2024-10-15T10:34:56.000Z</time>
      </trkpt>
      <trkpt lat="45.09797" lon="5.97456">
        <ele>2470.6000976562</ele>
        <time>2024-10-15T10:34:57.000Z</time>
      </trkpt>
      <trkpt lat="45.09797" lon="5.97456">
        <ele>2470.8000488281</ele>
        <time>2024-10-15T10:34:58.000Z</time>
      </trkpt>
      <trkpt lat="45.09797" lon="5.97456">
        <ele>2470.8000488281</ele>
        <time>2024-10-15T10:34:59.000Z</time>
      </trkpt>
      <trkpt lat="45.09797" lon="5.97456">
        <ele>2470.8000488281</ele>
        <time>2024-10-15T10:35:00.000Z</time>
      </trkpt>
      <trkpt lat="45.09797" lon="5.97456">
        <ele>2470.8000488281</ele>
        <time>2024-10-15T10:35:01.000Z</time>
      </trkpt>
      <trkpt lat="45.09797" lon="5.97456">
        <ele>2470.8000488281</ele>
        <time>2024-10-15T10:35:02.000Z</time>
      </trkpt>
      <trkpt lat="45.09797" lon="5.97456">
        <ele>2470.8000488281</ele>
        <time>2024-10-15T10:35:03.000Z</time>
      </trkpt>
      <trkpt lat="45.09797" lon="5.97456">
        <ele>2470.8000488281</ele>
        <time>2024-10-15T10:35:04.000Z</time>
      </trkpt>
      <trkpt lat="45.09797" lon="5.97456">
        <ele>2470.8000488281</ele>
        <time>2024-10-15T10:35:05.000Z</time>
      </trkpt>
      <trkpt lat="45.09797" lon="5.97456">
        <ele>2470.8000488281</ele>
        <time>2024-10-15T10:35:06.000Z</time>
      </trkpt>
      <trkpt lat="45.09797" lon="5.97456">
        <ele>2470.8000488281</ele>
        <time>2024-10-15T10:35:07.000Z</time>
      </trkpt>
      <trkpt lat="45.09797" lon="5.97456">
        <ele>2470.8000488281</ele>
        <time>2024-10-15T10:35:08.000Z</time>
      </trkpt>
      <trkpt lat="45.09797" lon="5.97456">
        <ele>2470.8000488281</ele>
        <time>2024-10-15T10:35:09.000Z</time>
      </trkpt>
      <trkpt lat="45.09797" lon="5.97456">
        <ele>2470.8000488281</ele>
        <time>2024-10-15T10:35:10.000Z</time>
      </trkpt>
      <trkpt lat="45.09797" lon="5.97456">
        <ele>2471</ele>
        <time>2024-10-15T10:35:11.000Z</time>
      </trkpt>
      <trkpt lat="45.09797" lon="5.97456">
        <ele>2470.8000488281</ele>
        <time>2024-10-15T10:35:12.000Z</time>
      </trkpt>
      <trkpt lat="45.09797" lon="5.97456">
        <ele>2470.8000488281</ele>
        <time>2024-10-15T10:35:13.000Z</time>
      </trkpt>
      <trkpt lat="45.09797" lon="5.97456">
        <ele>2470.8000488281</ele>
        <time>2024-10-15T10:35:14.000Z</time>
      </trkpt>
      <trkpt lat="45.09797" lon="5.97456">
        <ele>2470.8000488281</ele>
        <time>2024-10-15T10:35:15.000Z</time>
      </trkpt>
      <trkpt lat="45.09797" lon="5.97456">
        <ele>2470.6000976562</ele>
        <time>2024-10-15T10:35:16.000Z</time>
      </trkpt>
      <trkpt lat="45.09797" lon="5.97456">
        <ele>2470.3999023438</ele>
        <time>2024-10-15T10:35:17.000Z</time>
      </trkpt>
      <trkpt lat="45.09797" lon="5.97456">
        <ele>2470.3999023438</ele>
        <time>2024-10-15T10:35:18.000Z</time>
      </trkpt>
      <trkpt lat="45.09797" lon="5.97456">
        <ele>2470.3999023438</ele>
        <time>2024-10-15T10:35:19.000Z</time>
      </trkpt>
      <trkpt lat="45.09797" lon="5.97456">
        <ele>2470.3999023438</ele>
        <time>2024-10-15T10:35:20.000Z</time>
      </trkpt>
      <trkpt lat="45.09797" lon="5.97456">
        <ele>2470.6000976562</ele>
        <time>2024-10-15T10:35:21.000Z</time>
      </trkpt>
      <trkpt lat="45.09797" lon="5.97456">
        <ele>2470.6000976562</ele>
        <time>2024-10-15T10:35:22.000Z</time>
      </trkpt>
      <trkpt lat="45.09797" lon="5.97456">
        <ele>2470.6000976562</ele>
        <time>2024-10-15T10:35:23.000Z</time>
      </trkpt>
      <trkpt lat="45.09797" lon="5.97456">
        <ele>2470.6000976562</ele>
        <time>2024-10-15T10:35:24.000Z</time>
      </trkpt>
      <trkpt lat="45.09797" lon="5.97456">
        <ele>2470.6000976562</ele>
        <time>2024-10-15T10:35:25.000Z</time>
      </trkpt>
      <trkpt lat="45.09797" lon="5.97456">
        <ele>2470.6000976562</ele>
        <time>2024-10-15T10:35:26.000Z</time>
      </trkpt>
      <trkpt lat="45.09797" lon="5.97456">
        <ele>2470.6000976562</ele>
        <time>2024-10-15T10:35:27.000Z</time>
      </trkpt>
      <trkpt lat="45.09797" lon="5.97456">
        <ele>2470.6000976562</ele>
        <time>2024-10-15T10:35:28.000Z</time>
      </trkpt>
      <trkpt lat="45.09797" lon="5.97456">
        <ele>2470.6000976562</ele>
        <time>2024-10-15T10:35:29.000Z</time>
      </trkpt>
      <trkpt lat="45.09797" lon="5.97456">
        <ele>2470.6000976562</ele>
        <time>2024-10-15T10:35:30.000Z</time>
      </trkpt>
      <trkpt lat="45.09797" lon="5.97456">
        <ele>2470.6000976562</ele>
        <time>2024-10-15T10:35:31.000Z</time>
      </trkpt>
      <trkpt lat="45.09797" lon="5.97456">
        <ele>2470.8000488281</ele>
        <time>2024-10-15T10:35:32.000Z</time>
      </trkpt>
      <trkpt lat="45.09797" lon="5.97456">
        <ele>2470.8000488281</ele>
        <time>2024-10-15T10:35:33.000Z</time>
      </trkpt>
      <trkpt lat="45.09797" lon="5.97456">
        <ele>2470.8000488281</ele>
        <time>2024-10-15T10:35:34.000Z</time>
      </trkpt>
      <trkpt lat="45.09797" lon="5.97456">
        <ele>2470.8000488281</ele>
        <time>2024-10-15T10:35:35.000Z</time>
      </trkpt>
      <trkpt lat="45.09797" lon="5.97456">
        <ele>2470.8000488281</ele>
        <time>2024-10-15T10:35:36.000Z</time>
      </trkpt>
      <trkpt lat="45.09797" lon="5.97456">
        <ele>2470.8000488281</ele>
        <time>2024-10-15T10:35:37.000Z</time>
      </trkpt>
      <trkpt lat="45.09797" lon="5.97456">
        <ele>2470.6000976562</ele>
        <time>2024-10-15T10:35:38.000Z</time>
      </trkpt>
      <trkpt lat="45.09797" lon="5.97456">
        <ele>2470.6000976562</ele>
        <time>2024-10-15T10:35:39.000Z</time>
      </trkpt>
      <trkpt lat="45.09797" lon="5.97456">
        <ele>2470.6000976562</ele>
        <time>2024-10-15T10:35:40.000Z</time>
      </trkpt>
      <trkpt lat="45.09797" lon="5.97456">
        <ele>2470.6000976562</ele>
        <time>2024-10-15T10:35:41.000Z</time>
      </trkpt>
      <trkpt lat="45.09797" lon="5.97456">
        <ele>2470.6000976562</ele>
        <time>2024-10-15T10:35:42.000Z</time>
      </trkpt>
      <trkpt lat="45.09797" lon="5.97456">
        <ele>2470.8000488281</ele>
        <time>2024-10-15T10:35:43.000Z</time>
      </trkpt>
      <trkpt lat="45.09797" lon="5.97456">
        <ele>2470.8000488281</ele>
        <time>2024-10-15T10:35:44.000Z</time>
      </trkpt>
      <trkpt lat="45.09797" lon="5.97456">
        <ele>2470.8000488281</ele>
        <time>2024-10-15T10:35:45.000Z</time>
      </trkpt>
      <trkpt lat="45.09797" lon="5.97456">
        <ele>2470.8000488281</ele>
        <time>2024-10-15T10:35:46.000Z</time>
      </trkpt>
      <trkpt lat="45.09797" lon="5.97456">
        <ele>2470.6000976562</ele>
        <time>2024-10-15T10:35:47.000Z</time>
      </trkpt>
      <trkpt lat="45.09797" lon="5.97456">
        <ele>2470.6000976562</ele>
        <time>2024-10-15T10:35:48.000Z</time>
      </trkpt>
      <trkpt lat="45.09797" lon="5.97456">
        <ele>2470.6000976562</ele>
        <time>2024-10-15T10:35:49.000Z</time>
      </trkpt>
      <trkpt lat="45.09797" lon="5.97456">
        <ele>2470.6000976562</ele>
        <time>2024-10-15T10:35:50.000Z</time>
      </trkpt>
      <trkpt lat="45.09797" lon="5.97456">
        <ele>2470.3999023438</ele>
        <time>2024-10-15T10:35:51.000Z</time>
      </trkpt>
      <trkpt lat="45.09797" lon="5.97456">
        <ele>2470.1999511719</ele>
        <time>2024-10-15T10:35:52.000Z</time>
      </trkpt>
      <trkpt lat="45.09797" lon="5.97456">
        <ele>2470.1999511719</ele>
        <time>2024-10-15T10:35:53.000Z</time>
      </trkpt>
      <trkpt lat="45.09797" lon="5.97456">
        <ele>2470.1999511719</ele>
        <time>2024-10-15T10:35:54.000Z</time>
      </trkpt>
      <trkpt lat="45.09797" lon="5.97456">
        <ele>2470.1999511719</ele>
        <time>2024-10-15T10:35:55.000Z</time>
      </trkpt>
      <trkpt lat="45.09797" lon="5.97456">
        <ele>2470.1999511719</ele>
        <time>2024-10-15T10:35:56.000Z</time>
      </trkpt>
      <trkpt lat="45.09797" lon="5.97456">
        <ele>2470.1999511719</ele>
        <time>2024-10-15T10:35:57.000Z</time>
      </trkpt>
      <trkpt lat="45.09797" lon="5.97456">
        <ele>2470.3999023438</ele>
        <time>2024-10-15T10:35:58.000Z</time>
      </trkpt>
      <trkpt lat="45.09797" lon="5.97456">
        <ele>2470.3999023438</ele>
        <time>2024-10-15T10:35:59.000Z</time>
      </trkpt>
      <trkpt lat="45.09797" lon="5.97456">
        <ele>2470.6000976562</ele>
        <time>2024-10-15T10:36:00.000Z</time>
      </trkpt>
      <trkpt lat="45.09797" lon="5.97456">
        <ele>2470.6000976562</ele>
        <time>2024-10-15T10:36:01.000Z</time>
      </trkpt>
      <trkpt lat="45.09797" lon="5.97456">
        <ele>2470.6000976562</ele>
        <time>2024-10-15T10:36:02.000Z</time>
      </trkpt>
      <trkpt lat="45.09797" lon="5.97456">
        <ele>2470.6000976562</ele>
        <time>2024-10-15T10:36:03.000Z</time>
      </trkpt>
      <trkpt lat="45.09797" lon="5.97456">
        <ele>2470.8000488281</ele>
        <time>2024-10-15T10:36:04.000Z</time>
      </trkpt>
      <trkpt lat="45.09797" lon="5.97456">
        <ele>2470.8000488281</ele>
        <time>2024-10-15T10:36:05.000Z</time>
      </trkpt>
      <trkpt lat="45.09797" lon="5.97456">
        <ele>2470.8000488281</ele>
        <time>2024-10-15T10:36:06.000Z</time>
      </trkpt>
      <trkpt lat="45.09797" lon="5.97456">
        <ele>2470.8000488281</ele>
        <time>2024-10-15T10:36:07.000Z</time>
      </trkpt>
      <trkpt lat="45.09797" lon="5.97456">
        <ele>2470.8000488281</ele>
        <time>2024-10-15T10:36:08.000Z</time>
      </trkpt>
      <trkpt lat="45.09797" lon="5.97456">
        <ele>2470.8000488281</ele>
        <time>2024-10-15T10:36:09.000Z</time>
      </trkpt>
      <trkpt lat="45.09797" lon="5.97456">
        <ele>2470.8000488281</ele>
        <time>2024-10-15T10:36:10.000Z</time>
      </trkpt>
      <trkpt lat="45.09797" lon="5.97456">
        <ele>2470.8000488281</ele>
        <time>2024-10-15T10:36:11.000Z</time>
      </trkpt>
      <trkpt lat="45.09797" lon="5.97456">
        <ele>2470.8000488281</ele>
        <time>2024-10-15T10:36:12.000Z</time>
      </trkpt>
      <trkpt lat="45.09797" lon="5.97456">
        <ele>2470.8000488281</ele>
        <time>2024-10-15T10:36:13.000Z</time>
      </trkpt>
      <trkpt lat="45.09797" lon="5.97456">
        <ele>2470.6000976562</ele>
        <time>2024-10-15T10:36:14.000Z</time>
      </trkpt>
      <trkpt lat="45.09797" lon="5.97456">
        <ele>2470.6000976562</ele>
        <time>2024-10-15T10:36:15.000Z</time>
      </trkpt>
      <trkpt lat="45.09797" lon="5.97456">
        <ele>2470.6000976562</ele>
        <time>2024-10-15T10:36:16.000Z</time>
      </trkpt>
      <trkpt lat="45.09797" lon="5.97456">
        <ele>2470.3999023438</ele>
        <time>2024-10-15T10:36:17.000Z</time>
      </trkpt>
      <trkpt lat="45.09797" lon="5.97456">
        <ele>2470.3999023438</ele>
        <time>2024-10-15T10:36:18.000Z</time>
      </trkpt>
      <trkpt lat="45.09797" lon="5.97456">
        <ele>2470.3999023438</ele>
        <time>2024-10-15T10:36:19.000Z</time>
      </trkpt>
      <trkpt lat="45.09797" lon="5.97456">
        <ele>2470.3999023438</ele>
        <time>2024-10-15T10:36:20.000Z</time>
      </trkpt>
      <trkpt lat="45.09797" lon="5.97456">
        <ele>2470.3999023438</ele>
        <time>2024-10-15T10:36:21.000Z</time>
      </trkpt>
      <trkpt lat="45.09797" lon="5.97456">
        <ele>2470.3999023438</ele>
        <time>2024-10-15T10:36:22.000Z</time>
      </trkpt>
      <trkpt lat="45.09797" lon="5.97456">
        <ele>2470.6000976562</ele>
        <time>2024-10-15T10:36:23.000Z</time>
      </trkpt>
      <trkpt lat="45.09797" lon="5.97456">
        <ele>2470.6000976562</ele>
        <time>2024-10-15T10:36:24.000Z</time>
      </trkpt>
      <trkpt lat="45.09797" lon="5.97456">
        <ele>2470.6000976562</ele>
        <time>2024-10-15T10:36:25.000Z</time>
      </trkpt>
      <trkpt lat="45.09797" lon="5.97456">
        <ele>2470.6000976562</ele>
        <time>2024-10-15T10:36:26.000Z</time>
      </trkpt>
      <trkpt lat="45.09797" lon="5.97456">
        <ele>2470.6000976562</ele>
        <time>2024-10-15T10:36:27.000Z</time>
      </trkpt>
      <trkpt lat="45.09797" lon="5.97456">
        <ele>2470.6000976562</ele>
        <time>2024-10-15T10:36:28.000Z</time>
      </trkpt>
      <trkpt lat="45.09797" lon="5.97456">
        <ele>2470.6000976562</ele>
        <time>2024-10-15T10:36:29.000Z</time>
      </trkpt>
      <trkpt lat="45.09797" lon="5.97456">
        <ele>2470.6000976562</ele>
        <time>2024-10-15T10:36:30.000Z</time>
      </trkpt>
      <trkpt lat="45.09797" lon="5.97456">
        <ele>2470.6000976562</ele>
        <time>2024-10-15T10:36:31.000Z</time>
      </trkpt>
      <trkpt lat="45.09797" lon="5.97456">
        <ele>2470.6000976562</ele>
        <time>2024-10-15T10:36:32.000Z</time>
      </trkpt>
      <trkpt lat="45.09797" lon="5.97456">
        <ele>2470.6000976562</ele>
        <time>2024-10-15T10:36:33.000Z</time>
      </trkpt>
      <trkpt lat="45.09797" lon="5.97456">
        <ele>2470.3999023438</ele>
        <time>2024-10-15T10:36:34.000Z</time>
      </trkpt>
      <trkpt lat="45.09797" lon="5.97456">
        <ele>2470.3999023438</ele>
        <time>2024-10-15T10:36:35.000Z</time>
      </trkpt>
      <trkpt lat="45.09797" lon="5.97456">
        <ele>2470.3999023438</ele>
        <time>2024-10-15T10:36:36.000Z</time>
      </trkpt>
      <trkpt lat="45.09797" lon="5.97456">
        <ele>2470.3999023438</ele>
        <time>2024-10-15T10:36:37.000Z</time>
      </trkpt>
      <trkpt lat="45.09797" lon="5.97456">
        <ele>2470.1999511719</ele>
        <time>2024-10-15T10:36:38.000Z</time>
      </trkpt>
      <trkpt lat="45.09797" lon="5.97456">
        <ele>2470.1999511719</ele>
        <time>2024-10-15T10:36:39.000Z</time>
      </trkpt>
      <trkpt lat="45.09797" lon="5.97456">
        <ele>2470.1999511719</ele>
        <time>2024-10-15T10:36:40.000Z</time>
      </trkpt>
      <trkpt lat="45.09797" lon="5.97456">
        <ele>2470.1999511719</ele>
        <time>2024-10-15T10:36:41.000Z</time>
      </trkpt>
      <trkpt lat="45.09797" lon="5.97456">
        <ele>2470.1999511719</ele>
        <time>2024-10-15T10:36:42.000Z</time>
      </trkpt>
      <trkpt lat="45.09797" lon="5.97456">
        <ele>2470</ele>
        <time>2024-10-15T10:36:43.000Z</time>
      </trkpt>
      <trkpt lat="45.09797" lon="5.97456">
        <ele>2470</ele>
        <time>2024-10-15T10:36:44.000Z</time>
      </trkpt>
      <trkpt lat="45.09797" lon="5.97456">
        <ele>2470</ele>
        <time>2024-10-15T10:36:45.000Z</time>
      </trkpt>
      <trkpt lat="45.09797" lon="5.97456">
        <ele>2470</ele>
        <time>2024-10-15T10:36:46.000Z</time>
      </trkpt>
      <trkpt lat="45.09797" lon="5.97456">
        <ele>2469.8000488281</ele>
        <time>2024-10-15T10:36:47.000Z</time>
      </trkpt>
      <trkpt lat="45.09797" lon="5.97456">
        <ele>2469.8000488281</ele>
        <time>2024-10-15T10:36:48.000Z</time>
      </trkpt>
      <trkpt lat="45.09797" lon="5.97456">
        <ele>2469.8000488281</ele>
        <time>2024-10-15T10:36:49.000Z</time>
      </trkpt>
      <trkpt lat="45.09797" lon="5.97456">
        <ele>2469.8000488281</ele>
        <time>2024-10-15T10:36:50.000Z</time>
      </trkpt>
      <trkpt lat="45.09797" lon="5.97456">
        <ele>2469.8000488281</ele>
        <time>2024-10-15T10:36:51.000Z</time>
      </trkpt>
      <trkpt lat="45.09797" lon="5.97456">
        <ele>2470</ele>
        <time>2024-10-15T10:36:52.000Z</time>
      </trkpt>
      <trkpt lat="45.09797" lon="5.97456">
        <ele>2470</ele>
        <time>2024-10-15T10:36:53.000Z</time>
      </trkpt>
      <trkpt lat="45.09797" lon="5.97456">
        <ele>2470</ele>
        <time>2024-10-15T10:36:54.000Z</time>
      </trkpt>
      <trkpt lat="45.09797" lon="5.97456">
        <ele>2470</ele>
        <time>2024-10-15T10:36:55.000Z</time>
      </trkpt>
      <trkpt lat="45.09797" lon="5.97456">
        <ele>2469.8000488281</ele>
        <time>2024-10-15T10:36:56.000Z</time>
      </trkpt>
      <trkpt lat="45.09797" lon="5.97456">
        <ele>2469.8000488281</ele>
        <time>2024-10-15T10:36:57.000Z</time>
      </trkpt>
      <trkpt lat="45.09797" lon="5.97456">
        <ele>2469.8000488281</ele>
        <time>2024-10-15T10:36:58.000Z</time>
      </trkpt>
      <trkpt lat="45.09797" lon="5.97456">
        <ele>2469.6000976562</ele>
        <time>2024-10-15T10:36:59.000Z</time>
      </trkpt>
      <trkpt lat="45.09797" lon="5.97456">
        <ele>2469.6000976562</ele>
        <time>2024-10-15T10:37:00.000Z</time>
      </trkpt>
      <trkpt lat="45.09797" lon="5.97456">
        <ele>2469.6000976562</ele>
        <time>2024-10-15T10:37:01.000Z</time>
      </trkpt>
      <trkpt lat="45.09797" lon="5.97456">
        <ele>2469.6000976562</ele>
        <time>2024-10-15T10:37:02.000Z</time>
      </trkpt>
      <trkpt lat="45.09797" lon="5.97456">
        <ele>2469.6000976562</ele>
        <time>2024-10-15T10:37:03.000Z</time>
      </trkpt>
      <trkpt lat="45.09797" lon="5.97456">
        <ele>2469.6000976562</ele>
        <time>2024-10-15T10:37:04.000Z</time>
      </trkpt>
      <trkpt lat="45.09797" lon="5.97456">
        <ele>2469.3999023438</ele>
        <time>2024-10-15T10:37:05.000Z</time>
      </trkpt>
      <trkpt lat="45.09797" lon="5.97456">
        <ele>2469.3999023438</ele>
        <time>2024-10-15T10:37:06.000Z</time>
      </trkpt>
      <trkpt lat="45.09797" lon="5.97456">
        <ele>2469.3999023438</ele>
        <time>2024-10-15T10:37:07.000Z</time>
      </trkpt>
      <trkpt lat="45.09797" lon="5.97456">
        <ele>2469.3999023438</ele>
        <time>2024-10-15T10:37:08.000Z</time>
      </trkpt>
      <trkpt lat="45.09797" lon="5.97456">
        <ele>2469.3999023438</ele>
        <time>2024-10-15T10:37:09.000Z</time>
      </trkpt>
      <trkpt lat="45.09797" lon="5.97456">
        <ele>2469.3999023438</ele>
        <time>2024-10-15T10:37:10.000Z</time>
      </trkpt>
      <trkpt lat="45.09797" lon="5.97456">
        <ele>2469.3999023438</ele>
        <time>2024-10-15T10:37:11.000Z</time>
      </trkpt>
      <trkpt lat="45.09797" lon="5.97456">
        <ele>2469.3999023438</ele>
        <time>2024-10-15T10:37:12.000Z</time>
      </trkpt>
      <trkpt lat="45.09797" lon="5.97456">
        <ele>2469.3999023438</ele>
        <time>2024-10-15T10:37:13.000Z</time>
      </trkpt>
      <trkpt lat="45.09797" lon="5.97456">
        <ele>2469.3999023438</ele>
        <time>2024-10-15T10:37:14.000Z</time>
      </trkpt>
      <trkpt lat="45.09797" lon="5.97456">
        <ele>2469.3999023438</ele>
        <time>2024-10-15T10:37:15.000Z</time>
      </trkpt>
      <trkpt lat="45.09797" lon="5.97456">
        <ele>2469.3999023438</ele>
        <time>2024-10-15T10:37:16.000Z</time>
      </trkpt>
      <trkpt lat="45.09797" lon="5.97456">
        <ele>2469.6000976562</ele>
        <time>2024-10-15T10:37:17.000Z</time>
      </trkpt>
      <trkpt lat="45.09797" lon="5.97456">
        <ele>2469.6000976562</ele>
        <time>2024-10-15T10:37:18.000Z</time>
      </trkpt>
      <trkpt lat="45.09797" lon="5.97456">
        <ele>2469.6000976562</ele>
        <time>2024-10-15T10:37:19.000Z</time>
      </trkpt>
      <trkpt lat="45.09797" lon="5.97456">
        <ele>2469.6000976562</ele>
        <time>2024-10-15T10:37:20.000Z</time>
      </trkpt>
      <trkpt lat="45.09797" lon="5.97456">
        <ele>2469.3999023438</ele>
        <time>2024-10-15T10:37:21.000Z</time>
      </trkpt>
      <trkpt lat="45.09797" lon="5.97456">
        <ele>2469.3999023438</ele>
        <time>2024-10-15T10:37:22.000Z</time>
      </trkpt>
      <trkpt lat="45.09797" lon="5.97456">
        <ele>2469.3999023438</ele>
        <time>2024-10-15T10:37:23.000Z</time>
      </trkpt>
      <trkpt lat="45.09797" lon="5.97456">
        <ele>2469.3999023438</ele>
        <time>2024-10-15T10:37:24.000Z</time>
      </trkpt>
      <trkpt lat="45.09797" lon="5.97456">
        <ele>2469.3999023438</ele>
        <time>2024-10-15T10:37:25.000Z</time>
      </trkpt>
      <trkpt lat="45.09797" lon="5.97456">
        <ele>2469.3999023438</ele>
        <time>2024-10-15T10:37:26.000Z</time>
      </trkpt>
      <trkpt lat="45.09797" lon="5.97456">
        <ele>2469.3999023438</ele>
        <time>2024-10-15T10:37:27.000Z</time>
      </trkpt>
      <trkpt lat="45.09797" lon="5.97456">
        <ele>2469.3999023438</ele>
        <time>2024-10-15T10:37:28.000Z</time>
      </trkpt>
      <trkpt lat="45.09797" lon="5.97456">
        <ele>2469.6000976562</ele>
        <time>2024-10-15T10:37:29.000Z</time>
      </trkpt>
      <trkpt lat="45.09797" lon="5.97456">
        <ele>2469.6000976562</ele>
        <time>2024-10-15T10:37:30.000Z</time>
      </trkpt>
      <trkpt lat="45.09797" lon="5.97456">
        <ele>2469.6000976562</ele>
        <time>2024-10-15T10:37:31.000Z</time>
      </trkpt>
      <trkpt lat="45.09797" lon="5.97456">
        <ele>2469.6000976562</ele>
        <time>2024-10-15T10:37:32.000Z</time>
      </trkpt>
      <trkpt lat="45.09797" lon="5.97456">
        <ele>2469.6000976562</ele>
        <time>2024-10-15T10:37:33.000Z</time>
      </trkpt>
      <trkpt lat="45.09797" lon="5.97456">
        <ele>2469.3999023438</ele>
        <time>2024-10-15T10:37:34.000Z</time>
      </trkpt>
      <trkpt lat="45.09797" lon="5.97456">
        <ele>2469.3999023438</ele>
        <time>2024-10-15T10:37:35.000Z</time>
      </trkpt>
      <trkpt lat="45.09797" lon="5.97456">
        <ele>2469.3999023438</ele>
        <time>2024-10-15T10:37:36.000Z</time>
      </trkpt>
      <trkpt lat="45.09797" lon="5.97456">
        <ele>2469.3999023438</ele>
        <time>2024-10-15T10:37:37.000Z</time>
      </trkpt>
      <trkpt lat="45.09797" lon="5.97456">
        <ele>2469.3999023438</ele>
        <time>2024-10-15T10:37:38.000Z</time>
      </trkpt>
      <trkpt lat="45.09797" lon="5.97456">
        <ele>2469.6000976562</ele>
        <time>2024-10-15T10:37:39.000Z</time>
      </trkpt>
      <trkpt lat="45.09797" lon="5.97456">
        <ele>2469.6000976562</ele>
        <time>2024-10-15T10:37:40.000Z</time>
      </trkpt>
      <trkpt lat="45.09797" lon="5.97456">
        <ele>2469.6000976562</ele>
        <time>2024-10-15T10:37:41.000Z</time>
      </trkpt>
      <trkpt lat="45.09797" lon="5.97456">
        <ele>2469.6000976562</ele>
        <time>2024-10-15T10:37:42.000Z</time>
      </trkpt>
      <trkpt lat="45.09797" lon="5.97456">
        <ele>2469.6000976562</ele>
        <time>2024-10-15T10:37:43.000Z</time>
      </trkpt>
      <trkpt lat="45.09797" lon="5.97456">
        <ele>2469.6000976562</ele>
        <time>2024-10-15T10:37:44.000Z</time>
      </trkpt>
      <trkpt lat="45.09797" lon="5.97456">
        <ele>2469.6000976562</ele>
        <time>2024-10-15T10:37:45.000Z</time>
      </trkpt>
      <trkpt lat="45.09797" lon="5.97456">
        <ele>2469.6000976562</ele>
        <time>2024-10-15T10:37:46.000Z</time>
      </trkpt>
      <trkpt lat="45.09797" lon="5.97456">
        <ele>2469.6000976562</ele>
        <time>2024-10-15T10:37:47.000Z</time>
      </trkpt>
      <trkpt lat="45.09797" lon="5.97456">
        <ele>2469.6000976562</ele>
        <time>2024-10-15T10:37:48.000Z</time>
      </trkpt>
      <trkpt lat="45.09797" lon="5.97456">
        <ele>2469.6000976562</ele>
        <time>2024-10-15T10:37:49.000Z</time>
      </trkpt>
      <trkpt lat="45.09797" lon="5.97456">
        <ele>2469.6000976562</ele>
        <time>2024-10-15T10:37:50.000Z</time>
      </trkpt>
      <trkpt lat="45.09797" lon="5.97456">
        <ele>2469.6000976562</ele>
        <time>2024-10-15T10:37:51.000Z</time>
      </trkpt>
      <trkpt lat="45.09797" lon="5.97456">
        <ele>2469.6000976562</ele>
        <time>2024-10-15T10:37:52.000Z</time>
      </trkpt>
      <trkpt lat="45.09797" lon="5.97456">
        <ele>2469.6000976562</ele>
        <time>2024-10-15T10:37:53.000Z</time>
      </trkpt>
      <trkpt lat="45.09797" lon="5.97456">
        <ele>2469.6000976562</ele>
        <time>2024-10-15T10:37:54.000Z</time>
      </trkpt>
      <trkpt lat="45.09797" lon="5.97456">
        <ele>2469.6000976562</ele>
        <time>2024-10-15T10:37:55.000Z</time>
      </trkpt>
      <trkpt lat="45.09797" lon="5.97456">
        <ele>2469.6000976562</ele>
        <time>2024-10-15T10:37:56.000Z</time>
      </trkpt>
      <trkpt lat="45.09797" lon="5.97456">
        <ele>2469.6000976562</ele>
        <time>2024-10-15T10:37:57.000Z</time>
      </trkpt>
      <trkpt lat="45.09797" lon="5.97456">
        <ele>2469.8000488281</ele>
        <time>2024-10-15T10:37:58.000Z</time>
      </trkpt>
      <trkpt lat="45.09797" lon="5.97456">
        <ele>2469.8000488281</ele>
        <time>2024-10-15T10:37:59.000Z</time>
      </trkpt>
      <trkpt lat="45.09797" lon="5.97456">
        <ele>2469.8000488281</ele>
        <time>2024-10-15T10:38:00.000Z</time>
      </trkpt>
      <trkpt lat="45.09797" lon="5.97456">
        <ele>2469.8000488281</ele>
        <time>2024-10-15T10:38:01.000Z</time>
      </trkpt>
      <trkpt lat="45.09797" lon="5.97456">
        <ele>2469.6000976562</ele>
        <time>2024-10-15T10:38:02.000Z</time>
      </trkpt>
      <trkpt lat="45.09797" lon="5.97456">
        <ele>2469.6000976562</ele>
        <time>2024-10-15T10:38:03.000Z</time>
      </trkpt>
      <trkpt lat="45.09797" lon="5.97456">
        <ele>2469.6000976562</ele>
        <time>2024-10-15T10:38:04.000Z</time>
      </trkpt>
      <trkpt lat="45.09797" lon="5.97456">
        <ele>2469.6000976562</ele>
        <time>2024-10-15T10:38:05.000Z</time>
      </trkpt>
      <trkpt lat="45.09797" lon="5.97456">
        <ele>2469.6000976562</ele>
        <time>2024-10-15T10:38:06.000Z</time>
      </trkpt>
      <trkpt lat="45.09797" lon="5.97456">
        <ele>2469.6000976562</ele>
        <time>2024-10-15T10:38:07.000Z</time>
      </trkpt>
      <trkpt lat="45.09797" lon="5.97456">
        <ele>2469.6000976562</ele>
        <time>2024-10-15T10:38:08.000Z</time>
      </trkpt>
      <trkpt lat="45.09797" lon="5.97456">
        <ele>2469.6000976562</ele>
        <time>2024-10-15T10:38:09.000Z</time>
      </trkpt>
      <trkpt lat="45.09797" lon="5.97456">
        <ele>2469.6000976562</ele>
        <time>2024-10-15T10:38:10.000Z</time>
      </trkpt>
      <trkpt lat="45.09797" lon="5.97456">
        <ele>2469.6000976562</ele>
        <time>2024-10-15T10:38:11.000Z</time>
      </trkpt>
      <trkpt lat="45.09797" lon="5.97456">
        <ele>2469.6000976562</ele>
        <time>2024-10-15T10:38:12.000Z</time>
      </trkpt>
      <trkpt lat="45.09797" lon="5.97456">
        <ele>2469.6000976562</ele>
        <time>2024-10-15T10:38:13.000Z</time>
      </trkpt>
      <trkpt lat="45.09797" lon="5.97456">
        <ele>2469.6000976562</ele>
        <time>2024-10-15T10:38:14.000Z</time>
      </trkpt>
      <trkpt lat="45.09797" lon="5.97456">
        <ele>2469.6000976562</ele>
        <time>2024-10-15T10:38:15.000Z</time>
      </trkpt>
      <trkpt lat="45.09797" lon="5.97456">
        <ele>2469.6000976562</ele>
        <time>2024-10-15T10:38:16.000Z</time>
      </trkpt>
      <trkpt lat="45.09797" lon="5.97456">
        <ele>2469.6000976562</ele>
        <time>2024-10-15T10:38:17.000Z</time>
      </trkpt>
      <trkpt lat="45.09797" lon="5.97456">
        <ele>2469.8000488281</ele>
        <time>2024-10-15T10:38:18.000Z</time>
      </trkpt>
      <trkpt lat="45.09797" lon="5.97456">
        <ele>2469.8000488281</ele>
        <time>2024-10-15T10:38:19.000Z</time>
      </trkpt>
      <trkpt lat="45.09797" lon="5.97456">
        <ele>2469.6000976562</ele>
        <time>2024-10-15T10:38:20.000Z</time>
      </trkpt>
      <trkpt lat="45.09797" lon="5.97456">
        <ele>2469.6000976562</ele>
        <time>2024-10-15T10:38:21.000Z</time>
      </trkpt>
      <trkpt lat="45.09797" lon="5.97456">
        <ele>2469.6000976562</ele>
        <time>2024-10-15T10:38:22.000Z</time>
      </trkpt>
      <trkpt lat="45.09797" lon="5.97456">
        <ele>2469.6000976562</ele>
        <time>2024-10-15T10:38:23.000Z</time>
      </trkpt>
      <trkpt lat="45.09797" lon="5.97456">
        <ele>2469.6000976562</ele>
        <time>2024-10-15T10:38:24.000Z</time>
      </trkpt>
      <trkpt lat="45.09797" lon="5.97456">
        <ele>2469.6000976562</ele>
        <time>2024-10-15T10:38:25.000Z</time>
      </trkpt>
      <trkpt lat="45.09797" lon="5.97456">
        <ele>2469.6000976562</ele>
        <time>2024-10-15T10:38:26.000Z</time>
      </trkpt>
      <trkpt lat="45.09797" lon="5.97456">
        <ele>2469.6000976562</ele>
        <time>2024-10-15T10:38:27.000Z</time>
      </trkpt>
      <trkpt lat="45.09797" lon="5.97456">
        <ele>2469.6000976562</ele>
        <time>2024-10-15T10:38:28.000Z</time>
      </trkpt>
      <trkpt lat="45.09797" lon="5.97456">
        <ele>2469.6000976562</ele>
        <time>2024-10-15T10:38:29.000Z</time>
      </trkpt>
      <trkpt lat="45.09797" lon="5.97456">
        <ele>2469.6000976562</ele>
        <time>2024-10-15T10:38:30.000Z</time>
      </trkpt>
      <trkpt lat="45.09797" lon="5.97456">
        <ele>2469.8000488281</ele>
        <time>2024-10-15T10:38:31.000Z</time>
      </trkpt>
      <trkpt lat="45.09797" lon="5.97456">
        <ele>2469.8000488281</ele>
        <time>2024-10-15T10:38:32.000Z</time>
      </trkpt>
      <trkpt lat="45.09797" lon="5.97456">
        <ele>2469.8000488281</ele>
        <time>2024-10-15T10:38:33.000Z</time>
      </trkpt>
      <trkpt lat="45.09797" lon="5.97456">
        <ele>2469.6000976562</ele>
        <time>2024-10-15T10:38:34.000Z</time>
      </trkpt>
      <trkpt lat="45.09797" lon="5.97456">
        <ele>2469.6000976562</ele>
        <time>2024-10-15T10:38:35.000Z</time>
      </trkpt>
      <trkpt lat="45.09797" lon="5.97456">
        <ele>2469.6000976562</ele>
        <time>2024-10-15T10:38:36.000Z</time>
      </trkpt>
      <trkpt lat="45.09797" lon="5.97456">
        <ele>2469.6000976562</ele>
        <time>2024-10-15T10:38:37.000Z</time>
      </trkpt>
      <trkpt lat="45.09797" lon="5.97456">
        <ele>2469.6000976562</ele>
        <time>2024-10-15T10:38:38.000Z</time>
      </trkpt>
      <trkpt lat="45.09797" lon="5.97456">
        <ele>2469.6000976562</ele>
        <time>2024-10-15T10:38:39.000Z</time>
      </trkpt>
      <trkpt lat="45.09797" lon="5.97456">
        <ele>2469.6000976562</ele>
        <time>2024-10-15T10:38:40.000Z</time>
      </trkpt>
      <trkpt lat="45.09797" lon="5.97456">
        <ele>2469.6000976562</ele>
        <time>2024-10-15T10:38:41.000Z</time>
      </trkpt>
      <trkpt lat="45.09797" lon="5.97456">
        <ele>2469.6000976562</ele>
        <time>2024-10-15T10:38:42.000Z</time>
      </trkpt>
      <trkpt lat="45.09797" lon="5.97456">
        <ele>2469.6000976562</ele>
        <time>2024-10-15T10:38:43.000Z</time>
      </trkpt>
      <trkpt lat="45.09797" lon="5.97456">
        <ele>2469.6000976562</ele>
        <time>2024-10-15T10:38:44.000Z</time>
      </trkpt>
      <trkpt lat="45.09797" lon="5.97456">
        <ele>2469.3999023438</ele>
        <time>2024-10-15T10:38:45.000Z</time>
      </trkpt>
      <trkpt lat="45.09797" lon="5.97456">
        <ele>2469.6000976562</ele>
        <time>2024-10-15T10:38:46.000Z</time>
      </trkpt>
      <trkpt lat="45.09797" lon="5.97456">
        <ele>2469.6000976562</ele>
        <time>2024-10-15T10:38:47.000Z</time>
      </trkpt>
      <trkpt lat="45.09797" lon="5.97456">
        <ele>2469.3999023438</ele>
        <time>2024-10-15T10:38:48.000Z</time>
      </trkpt>
      <trkpt lat="45.09797" lon="5.97456">
        <ele>2469.3999023438</ele>
        <time>2024-10-15T10:38:49.000Z</time>
      </trkpt>
      <trkpt lat="45.09797" lon="5.97456">
        <ele>2469.6000976562</ele>
        <time>2024-10-15T10:38:50.000Z</time>
      </trkpt>
      <trkpt lat="45.09797" lon="5.97456">
        <ele>2469.6000976562</ele>
        <time>2024-10-15T10:38:51.000Z</time>
      </trkpt>
      <trkpt lat="45.09797" lon="5.97456">
        <ele>2469.6000976562</ele>
        <time>2024-10-15T10:38:52.000Z</time>
      </trkpt>
      <trkpt lat="45.09797" lon="5.97456">
        <ele>2469.6000976562</ele>
        <time>2024-10-15T10:38:53.000Z</time>
      </trkpt>
      <trkpt lat="45.09797" lon="5.97456">
        <ele>2469.6000976562</ele>
        <time>2024-10-15T10:38:54.000Z</time>
      </trkpt>
      <trkpt lat="45.09797" lon="5.97456">
        <ele>2469.6000976562</ele>
        <time>2024-10-15T10:38:55.000Z</time>
      </trkpt>
      <trkpt lat="45.09797" lon="5.97456">
        <ele>2469.6000976562</ele>
        <time>2024-10-15T10:38:56.000Z</time>
      </trkpt>
      <trkpt lat="45.09797" lon="5.97456">
        <ele>2469.6000976562</ele>
        <time>2024-10-15T10:38:57.000Z</time>
      </trkpt>
      <trkpt lat="45.09797" lon="5.97456">
        <ele>2469.6000976562</ele>
        <time>2024-10-15T10:38:58.000Z</time>
      </trkpt>
      <trkpt lat="45.09797" lon="5.97456">
        <ele>2469.6000976562</ele>
        <time>2024-10-15T10:38:59.000Z</time>
      </trkpt>
      <trkpt lat="45.09797" lon="5.97456">
        <ele>2469.6000976562</ele>
        <time>2024-10-15T10:39:00.000Z</time>
      </trkpt>
      <trkpt lat="45.09797" lon="5.97456">
        <ele>2469.6000976562</ele>
        <time>2024-10-15T10:39:01.000Z</time>
      </trkpt>
      <trkpt lat="45.09797" lon="5.97456">
        <ele>2469.6000976562</ele>
        <time>2024-10-15T10:39:02.000Z</time>
      </trkpt>
      <trkpt lat="45.09797" lon="5.97456">
        <ele>2469.6000976562</ele>
        <time>2024-10-15T10:39:03.000Z</time>
      </trkpt>
      <trkpt lat="45.09797" lon="5.97456">
        <ele>2469.6000976562</ele>
        <time>2024-10-15T10:39:04.000Z</time>
      </trkpt>
      <trkpt lat="45.09797" lon="5.97456">
        <ele>2469.6000976562</ele>
        <time>2024-10-15T10:39:05.000Z</time>
      </trkpt>
      <trkpt lat="45.09797" lon="5.97456">
        <ele>2469.6000976562</ele>
        <time>2024-10-15T10:39:06.000Z</time>
      </trkpt>
      <trkpt lat="45.09797" lon="5.97456">
        <ele>2469.6000976562</ele>
        <time>2024-10-15T10:39:07.000Z</time>
      </trkpt>
      <trkpt lat="45.09797" lon="5.97456">
        <ele>2469.6000976562</ele>
        <time>2024-10-15T10:39:08.000Z</time>
      </trkpt>
      <trkpt lat="45.09797" lon="5.97456">
        <ele>2469.8000488281</ele>
        <time>2024-10-15T10:39:09.000Z</time>
      </trkpt>
      <trkpt lat="45.09797" lon="5.97456">
        <ele>2469.8000488281</ele>
        <time>2024-10-15T10:39:10.000Z</time>
      </trkpt>
      <trkpt lat="45.09797" lon="5.97456">
        <ele>2469.8000488281</ele>
        <time>2024-10-15T10:39:11.000Z</time>
      </trkpt>
      <trkpt lat="45.09797" lon="5.97456">
        <ele>2470</ele>
        <time>2024-10-15T10:39:12.000Z</time>
      </trkpt>
      <trkpt lat="45.09797" lon="5.97456">
        <ele>2470</ele>
        <time>2024-10-15T10:39:13.000Z</time>
      </trkpt>
      <trkpt lat="45.09797" lon="5.97456">
        <ele>2470</ele>
        <time>2024-10-15T10:39:14.000Z</time>
      </trkpt>
      <trkpt lat="45.09797" lon="5.97456">
        <ele>2470</ele>
        <time>2024-10-15T10:39:15.000Z</time>
      </trkpt>
      <trkpt lat="45.09797" lon="5.97456">
        <ele>2470</ele>
        <time>2024-10-15T10:39:16.000Z</time>
      </trkpt>
      <trkpt lat="45.09797" lon="5.97456">
        <ele>2470</ele>
        <time>2024-10-15T10:39:17.000Z</time>
      </trkpt>
      <trkpt lat="45.09797" lon="5.97456">
        <ele>2469.8000488281</ele>
        <time>2024-10-15T10:39:18.000Z</time>
      </trkpt>
      <trkpt lat="45.09797" lon="5.97456">
        <ele>2469.6000976562</ele>
        <time>2024-10-15T10:39:19.000Z</time>
      </trkpt>
      <trkpt lat="45.09797" lon="5.97456">
        <ele>2469.6000976562</ele>
        <time>2024-10-15T10:39:20.000Z</time>
      </trkpt>
      <trkpt lat="45.09797" lon="5.97456">
        <ele>2469.6000976562</ele>
        <time>2024-10-15T10:39:21.000Z</time>
      </trkpt>
      <trkpt lat="45.09797" lon="5.97456">
        <ele>2469.6000976562</ele>
        <time>2024-10-15T10:39:22.000Z</time>
      </trkpt>
      <trkpt lat="45.09797" lon="5.97456">
        <ele>2469.6000976562</ele>
        <time>2024-10-15T10:39:23.000Z</time>
      </trkpt>
      <trkpt lat="45.09797" lon="5.97456">
        <ele>2469.6000976562</ele>
        <time>2024-10-15T10:39:24.000Z</time>
      </trkpt>
      <trkpt lat="45.09797" lon="5.97456">
        <ele>2469.6000976562</ele>
        <time>2024-10-15T10:39:25.000Z</time>
      </trkpt>
      <trkpt lat="45.09797" lon="5.97456">
        <ele>2469.6000976562</ele>
        <time>2024-10-15T10:39:26.000Z</time>
      </trkpt>
      <trkpt lat="45.09797" lon="5.97456">
        <ele>2469.6000976562</ele>
        <time>2024-10-15T10:39:27.000Z</time>
      </trkpt>
      <trkpt lat="45.09797" lon="5.97456">
        <ele>2469.6000976562</ele>
        <time>2024-10-15T10:39:28.000Z</time>
      </trkpt>
      <trkpt lat="45.09797" lon="5.97456">
        <ele>2469.6000976562</ele>
        <time>2024-10-15T10:39:29.000Z</time>
      </trkpt>
      <trkpt lat="45.09797" lon="5.97456">
        <ele>2469.6000976562</ele>
        <time>2024-10-15T10:39:30.000Z</time>
      </trkpt>
      <trkpt lat="45.09797" lon="5.97456">
        <ele>2469.6000976562</ele>
        <time>2024-10-15T10:39:31.000Z</time>
      </trkpt>
      <trkpt lat="45.09797" lon="5.97456">
        <ele>2469.6000976562</ele>
        <time>2024-10-15T10:39:32.000Z</time>
      </trkpt>
      <trkpt lat="45.09797" lon="5.97456">
        <ele>2469.6000976562</ele>
        <time>2024-10-15T10:39:33.000Z</time>
      </trkpt>
      <trkpt lat="45.09797" lon="5.97456">
        <ele>2469.6000976562</ele>
        <time>2024-10-15T10:39:34.000Z</time>
      </trkpt>
      <trkpt lat="45.09797" lon="5.97456">
        <ele>2469.6000976562</ele>
        <time>2024-10-15T10:39:35.000Z</time>
      </trkpt>
      <trkpt lat="45.09797" lon="5.97456">
        <ele>2469.6000976562</ele>
        <time>2024-10-15T10:39:36.000Z</time>
      </trkpt>
      <trkpt lat="45.09797" lon="5.97456">
        <ele>2469.6000976562</ele>
        <time>2024-10-15T10:39:37.000Z</time>
      </trkpt>
      <trkpt lat="45.09797" lon="5.97456">
        <ele>2469.6000976562</ele>
        <time>2024-10-15T10:39:38.000Z</time>
      </trkpt>
      <trkpt lat="45.09797" lon="5.97456">
        <ele>2469.6000976562</ele>
        <time>2024-10-15T10:39:39.000Z</time>
      </trkpt>
      <trkpt lat="45.09797" lon="5.97456">
        <ele>2469.6000976562</ele>
        <time>2024-10-15T10:39:40.000Z</time>
      </trkpt>
      <trkpt lat="45.09797" lon="5.97456">
        <ele>2469.8000488281</ele>
        <time>2024-10-15T10:39:41.000Z</time>
      </trkpt>
      <trkpt lat="45.09797" lon="5.97456">
        <ele>2469.8000488281</ele>
        <time>2024-10-15T10:39:42.000Z</time>
      </trkpt>
      <trkpt lat="45.09797" lon="5.97456">
        <ele>2469.8000488281</ele>
        <time>2024-10-15T10:39:43.000Z</time>
      </trkpt>
      <trkpt lat="45.09797" lon="5.97456">
        <ele>2469.8000488281</ele>
        <time>2024-10-15T10:39:44.000Z</time>
      </trkpt>
      <trkpt lat="45.09797" lon="5.97456">
        <ele>2470</ele>
        <time>2024-10-15T10:39:45.000Z</time>
      </trkpt>
      <trkpt lat="45.09797" lon="5.97456">
        <ele>2469.8000488281</ele>
        <time>2024-10-15T10:39:46.000Z</time>
      </trkpt>
      <trkpt lat="45.09797" lon="5.97456">
        <ele>2469.8000488281</ele>
        <time>2024-10-15T10:39:47.000Z</time>
      </trkpt>
      <trkpt lat="45.09797" lon="5.97456">
        <ele>2469.8000488281</ele>
        <time>2024-10-15T10:39:48.000Z</time>
      </trkpt>
      <trkpt lat="45.09797" lon="5.97456">
        <ele>2470</ele>
        <time>2024-10-15T10:39:49.000Z</time>
      </trkpt>
      <trkpt lat="45.09797" lon="5.97456">
        <ele>2470</ele>
        <time>2024-10-15T10:39:50.000Z</time>
      </trkpt>
      <trkpt lat="45.09797" lon="5.97456">
        <ele>2470</ele>
        <time>2024-10-15T10:39:51.000Z</time>
      </trkpt>
      <trkpt lat="45.09797" lon="5.97456">
        <ele>2470.1999511719</ele>
        <time>2024-10-15T10:39:52.000Z</time>
      </trkpt>
      <trkpt lat="45.09797" lon="5.97456">
        <ele>2470.1999511719</ele>
        <time>2024-10-15T10:39:53.000Z</time>
      </trkpt>
      <trkpt lat="45.09797" lon="5.97456">
        <ele>2470.1999511719</ele>
        <time>2024-10-15T10:39:54.000Z</time>
      </trkpt>
      <trkpt lat="45.09797" lon="5.97456">
        <ele>2470.3999023438</ele>
        <time>2024-10-15T10:39:55.000Z</time>
      </trkpt>
      <trkpt lat="45.09797" lon="5.97456">
        <ele>2470.3999023438</ele>
        <time>2024-10-15T10:39:56.000Z</time>
      </trkpt>
      <trkpt lat="45.09797" lon="5.97456">
        <ele>2470.3999023438</ele>
        <time>2024-10-15T10:39:57.000Z</time>
      </trkpt>
      <trkpt lat="45.09797" lon="5.97456">
        <ele>2470.3999023438</ele>
        <time>2024-10-15T10:39:58.000Z</time>
      </trkpt>
      <trkpt lat="45.09797" lon="5.97456">
        <ele>2470.3999023438</ele>
        <time>2024-10-15T10:39:59.000Z</time>
      </trkpt>
      <trkpt lat="45.09797" lon="5.97456">
        <ele>2470.6000976562</ele>
        <time>2024-10-15T10:40:00.000Z</time>
      </trkpt>
      <trkpt lat="45.09797" lon="5.97456">
        <ele>2471</ele>
        <time>2024-10-15T10:40:01.000Z</time>
      </trkpt>
      <trkpt lat="45.09797" lon="5.97456">
        <ele>2471.1999511719</ele>
        <time>2024-10-15T10:40:02.000Z</time>
      </trkpt>
      <trkpt lat="45.09797" lon="5.97456">
        <ele>2471.3999023438</ele>
        <time>2024-10-15T10:40:03.000Z</time>
      </trkpt>
      <trkpt lat="45.09797" lon="5.97456">
        <ele>2471.8000488281</ele>
        <time>2024-10-15T10:40:04.000Z</time>
      </trkpt>
      <trkpt lat="45.09797" lon="5.97456">
        <ele>2472</ele>
        <time>2024-10-15T10:40:05.000Z</time>
      </trkpt>
      <trkpt lat="45.09797" lon="5.97456">
        <ele>2472</ele>
        <time>2024-10-15T10:40:06.000Z</time>
      </trkpt>
      <trkpt lat="45.09797" lon="5.97456">
        <ele>2472.3999023438</ele>
        <time>2024-10-15T10:40:07.000Z</time>
      </trkpt>
      <trkpt lat="45.09797" lon="5.97456">
        <ele>2472.3999023438</ele>
        <time>2024-10-15T10:40:08.000Z</time>
      </trkpt>
      <trkpt lat="45.09797" lon="5.97456">
        <ele>2472.6000976562</ele>
        <time>2024-10-15T10:40:09.000Z</time>
      </trkpt>
      <trkpt lat="45.09797" lon="5.97456">
        <ele>2472.6000976562</ele>
        <time>2024-10-15T10:40:10.000Z</time>
      </trkpt>
      <trkpt lat="45.09797" lon="5.97456">
        <ele>2472.6000976562</ele>
        <time>2024-10-15T10:40:11.000Z</time>
      </trkpt>
      <trkpt lat="45.09797" lon="5.97456">
        <ele>2472.6000976562</ele>
        <time>2024-10-15T10:40:12.000Z</time>
      </trkpt>
      <trkpt lat="45.09797" lon="5.97456">
        <ele>2472.3999023438</ele>
        <time>2024-10-15T10:40:13.000Z</time>
      </trkpt>
      <trkpt lat="45.09797" lon="5.97456">
        <ele>2472.3999023438</ele>
        <time>2024-10-15T10:40:14.000Z</time>
      </trkpt>
      <trkpt lat="45.09797" lon="5.97456">
        <ele>2472.1999511719</ele>
        <time>2024-10-15T10:40:15.000Z</time>
      </trkpt>
      <trkpt lat="45.09797" lon="5.97456">
        <ele>2472.1999511719</ele>
        <time>2024-10-15T10:40:16.000Z</time>
      </trkpt>
      <trkpt lat="45.09797" lon="5.97456">
        <ele>2472.1999511719</ele>
        <time>2024-10-15T10:40:17.000Z</time>
      </trkpt>
      <trkpt lat="45.09797" lon="5.97456">
        <ele>2472.1999511719</ele>
        <time>2024-10-15T10:40:18.000Z</time>
      </trkpt>
      <trkpt lat="45.09797" lon="5.97456">
        <ele>2472.1999511719</ele>
        <time>2024-10-15T10:40:19.000Z</time>
      </trkpt>
      <trkpt lat="45.09797" lon="5.97456">
        <ele>2472.1999511719</ele>
        <time>2024-10-15T10:40:20.000Z</time>
      </trkpt>
      <trkpt lat="45.09797" lon="5.97456">
        <ele>2472.3999023438</ele>
        <time>2024-10-15T10:40:21.000Z</time>
      </trkpt>
      <trkpt lat="45.09797" lon="5.97456">
        <ele>2472.6000976562</ele>
        <time>2024-10-15T10:40:22.000Z</time>
      </trkpt>
      <trkpt lat="45.09797" lon="5.97456">
        <ele>2472.6000976562</ele>
        <time>2024-10-15T10:40:23.000Z</time>
      </trkpt>
      <trkpt lat="45.09797" lon="5.97456">
        <ele>2472.8000488281</ele>
        <time>2024-10-15T10:40:24.000Z</time>
      </trkpt>
      <trkpt lat="45.09797" lon="5.97456">
        <ele>2473</ele>
        <time>2024-10-15T10:40:25.000Z</time>
      </trkpt>
      <trkpt lat="45.09797" lon="5.97456">
        <ele>2473.1999511719</ele>
        <time>2024-10-15T10:40:26.000Z</time>
      </trkpt>
      <trkpt lat="45.09797" lon="5.97456">
        <ele>2473.1999511719</ele>
        <time>2024-10-15T10:40:27.000Z</time>
      </trkpt>
      <trkpt lat="45.09797" lon="5.97456">
        <ele>2473.1999511719</ele>
        <time>2024-10-15T10:40:28.000Z</time>
      </trkpt>
      <trkpt lat="45.09797" lon="5.97456">
        <ele>2473.1999511719</ele>
        <time>2024-10-15T10:40:29.000Z</time>
      </trkpt>
      <trkpt lat="45.09797" lon="5.97456">
        <ele>2473</ele>
        <time>2024-10-15T10:40:30.000Z</time>
      </trkpt>
      <trkpt lat="45.09797" lon="5.97456">
        <ele>2472.8000488281</ele>
        <time>2024-10-15T10:40:31.000Z</time>
      </trkpt>
      <trkpt lat="45.09797" lon="5.97456">
        <ele>2472.6000976562</ele>
        <time>2024-10-15T10:40:32.000Z</time>
      </trkpt>
      <trkpt lat="45.09797" lon="5.97456">
        <ele>2472.6000976562</ele>
        <time>2024-10-15T10:40:33.000Z</time>
      </trkpt>
      <trkpt lat="45.09796" lon="5.97456">
        <ele>2472.6000976562</ele>
        <time>2024-10-15T10:40:34.000Z</time>
      </trkpt>
      <trkpt lat="45.09795" lon="5.97454">
        <ele>2472.8000488281</ele>
        <time>2024-10-15T10:40:35.000Z</time>
      </trkpt>
      <trkpt lat="45.09794" lon="5.97452">
        <ele>2473</ele>
        <time>2024-10-15T10:40:36.000Z</time>
      </trkpt>
      <trkpt lat="45.09793" lon="5.97451">
        <ele>2473.1999511719</ele>
        <time>2024-10-15T10:40:37.000Z</time>
      </trkpt>
      <trkpt lat="45.09793" lon="5.97449">
        <ele>2473.3999023438</ele>
        <time>2024-10-15T10:40:38.000Z</time>
      </trkpt>
      <trkpt lat="45.09792" lon="5.97447">
        <ele>2473.8000488281</ele>
        <time>2024-10-15T10:40:39.000Z</time>
      </trkpt>
      <trkpt lat="45.09791" lon="5.97445">
        <ele>2473.8000488281</ele>
        <time>2024-10-15T10:40:40.000Z</time>
      </trkpt>
      <trkpt lat="45.09791" lon="5.97444">
        <ele>2474</ele>
        <time>2024-10-15T10:40:41.000Z</time>
      </trkpt>
      <trkpt lat="45.09791" lon="5.97443">
        <ele>2474</ele>
        <time>2024-10-15T10:40:42.000Z</time>
      </trkpt>
      <trkpt lat="45.0979" lon="5.97442">
        <ele>2474</ele>
        <time>2024-10-15T10:40:43.000Z</time>
      </trkpt>
      <trkpt lat="45.0979" lon="5.97442">
        <ele>2474.1999511719</ele>
        <time>2024-10-15T10:40:44.000Z</time>
      </trkpt>
      <trkpt lat="45.09791" lon="5.97442">
        <ele>2474.1999511719</ele>
        <time>2024-10-15T10:40:45.000Z</time>
      </trkpt>
      <trkpt lat="45.09791" lon="5.97442">
        <ele>2474.3999023438</ele>
        <time>2024-10-15T10:40:46.000Z</time>
      </trkpt>
      <trkpt lat="45.09791" lon="5.97442">
        <ele>2474.3999023438</ele>
        <time>2024-10-15T10:40:47.000Z</time>
      </trkpt>
      <trkpt lat="45.0979" lon="5.97443">
        <ele>2474.3999023438</ele>
        <time>2024-10-15T10:40:48.000Z</time>
      </trkpt>
      <trkpt lat="45.0979" lon="5.97443">
        <ele>2475</ele>
        <time>2024-10-15T10:40:49.000Z</time>
      </trkpt>
      <trkpt lat="45.0979" lon="5.97442">
        <ele>2475.3999023438</ele>
        <time>2024-10-15T10:40:50.000Z</time>
      </trkpt>
      <trkpt lat="45.0979" lon="5.97441">
        <ele>2475.3999023438</ele>
        <time>2024-10-15T10:40:51.000Z</time>
      </trkpt>
      <trkpt lat="45.09789" lon="5.9744">
        <ele>2475.3999023438</ele>
        <time>2024-10-15T10:40:52.000Z</time>
      </trkpt>
      <trkpt lat="45.09789" lon="5.97439">
        <ele>2475.3999023438</ele>
        <time>2024-10-15T10:40:53.000Z</time>
      </trkpt>
      <trkpt lat="45.09789" lon="5.97438">
        <ele>2475.3999023438</ele>
        <time>2024-10-15T10:40:54.000Z</time>
      </trkpt>
      <trkpt lat="45.0979" lon="5.97436">
        <ele>2475.3999023438</ele>
        <time>2024-10-15T10:40:55.000Z</time>
      </trkpt>
      <trkpt lat="45.0979" lon="5.97435">
        <ele>2475.3999023438</ele>
        <time>2024-10-15T10:40:56.000Z</time>
      </trkpt>
      <trkpt lat="45.09789" lon="5.97434">
        <ele>2475.3999023438</ele>
        <time>2024-10-15T10:40:57.000Z</time>
      </trkpt>
      <trkpt lat="45.0979" lon="5.97434">
        <ele>2475.3999023438</ele>
        <time>2024-10-15T10:40:58.000Z</time>
      </trkpt>
      <trkpt lat="45.0979" lon="5.97433">
        <ele>2475.3999023438</ele>
        <time>2024-10-15T10:40:59.000Z</time>
      </trkpt>
      <trkpt lat="45.09791" lon="5.97432">
        <ele>2475.1999511719</ele>
        <time>2024-10-15T10:41:00.000Z</time>
      </trkpt>
      <trkpt lat="45.09791" lon="5.97432">
        <ele>2475</ele>
        <time>2024-10-15T10:41:01.000Z</time>
      </trkpt>
      <trkpt lat="45.09791" lon="5.97431">
        <ele>2474.8000488281</ele>
        <time>2024-10-15T10:41:02.000Z</time>
      </trkpt>
      <trkpt lat="45.09791" lon="5.9743">
        <ele>2474.6000976562</ele>
        <time>2024-10-15T10:41:03.000Z</time>
      </trkpt>
      <trkpt lat="45.09791" lon="5.97429">
        <ele>2474.6000976562</ele>
        <time>2024-10-15T10:41:04.000Z</time>
      </trkpt>
      <trkpt lat="45.09791" lon="5.97428">
        <ele>2474.6000976562</ele>
        <time>2024-10-15T10:41:05.000Z</time>
      </trkpt>
      <trkpt lat="45.09791" lon="5.97427">
        <ele>2474.6000976562</ele>
        <time>2024-10-15T10:41:06.000Z</time>
      </trkpt>
      <trkpt lat="45.09791" lon="5.97427">
        <ele>2474.6000976562</ele>
        <time>2024-10-15T10:41:07.000Z</time>
      </trkpt>
      <trkpt lat="45.09791" lon="5.97426">
        <ele>2474.3999023438</ele>
        <time>2024-10-15T10:41:08.000Z</time>
      </trkpt>
      <trkpt lat="45.09791" lon="5.97425">
        <ele>2474</ele>
        <time>2024-10-15T10:41:09.000Z</time>
      </trkpt>
      <trkpt lat="45.09791" lon="5.97424">
        <ele>2473.6000976562</ele>
        <time>2024-10-15T10:41:10.000Z</time>
      </trkpt>
      <trkpt lat="45.09791" lon="5.97424">
        <ele>2473.1999511719</ele>
        <time>2024-10-15T10:41:11.000Z</time>
      </trkpt>
      <trkpt lat="45.09791" lon="5.97423">
        <ele>2473</ele>
        <time>2024-10-15T10:41:12.000Z</time>
      </trkpt>
      <trkpt lat="45.0979" lon="5.97422">
        <ele>2472.8000488281</ele>
        <time>2024-10-15T10:41:13.000Z</time>
      </trkpt>
      <trkpt lat="45.0979" lon="5.97422">
        <ele>2472.8000488281</ele>
        <time>2024-10-15T10:41:14.000Z</time>
      </trkpt>
      <trkpt lat="45.0979" lon="5.97421">
        <ele>2472.8000488281</ele>
        <time>2024-10-15T10:41:15.000Z</time>
      </trkpt>
      <trkpt lat="45.0979" lon="5.97421">
        <ele>2472.6000976562</ele>
        <time>2024-10-15T10:41:16.000Z</time>
      </trkpt>
      <trkpt lat="45.09789" lon="5.97421">
        <ele>2472.6000976562</ele>
        <time>2024-10-15T10:41:17.000Z</time>
      </trkpt>
      <trkpt lat="45.09789" lon="5.9742">
        <ele>2472.1999511719</ele>
        <time>2024-10-15T10:41:18.000Z</time>
      </trkpt>
      <trkpt lat="45.09789" lon="5.9742">
        <ele>2472</ele>
        <time>2024-10-15T10:41:19.000Z</time>
      </trkpt>
      <trkpt lat="45.09789" lon="5.9742">
        <ele>2472</ele>
        <time>2024-10-15T10:41:20.000Z</time>
      </trkpt>
      <trkpt lat="45.09789" lon="5.97419">
        <ele>2472</ele>
        <time>2024-10-15T10:41:21.000Z</time>
      </trkpt>
      <trkpt lat="45.09789" lon="5.97418">
        <ele>2471.8000488281</ele>
        <time>2024-10-15T10:41:22.000Z</time>
      </trkpt>
      <trkpt lat="45.09789" lon="5.97417">
        <ele>2471.8000488281</ele>
        <time>2024-10-15T10:41:23.000Z</time>
      </trkpt>
      <trkpt lat="45.09789" lon="5.97416">
        <ele>2471.8000488281</ele>
        <time>2024-10-15T10:41:24.000Z</time>
      </trkpt>
      <trkpt lat="45.0979" lon="5.97416">
        <ele>2472</ele>
        <time>2024-10-15T10:41:25.000Z</time>
      </trkpt>
      <trkpt lat="45.0979" lon="5.97415">
        <ele>2472.1999511719</ele>
        <time>2024-10-15T10:41:26.000Z</time>
      </trkpt>
      <trkpt lat="45.0979" lon="5.97415">
        <ele>2472.3999023438</ele>
        <time>2024-10-15T10:41:27.000Z</time>
      </trkpt>
      <trkpt lat="45.0979" lon="5.97415">
        <ele>2472.3999023438</ele>
        <time>2024-10-15T10:41:28.000Z</time>
      </trkpt>
      <trkpt lat="45.0979" lon="5.97415">
        <ele>2472.8000488281</ele>
        <time>2024-10-15T10:41:29.000Z</time>
      </trkpt>
      <trkpt lat="45.0979" lon="5.97415">
        <ele>2472.8000488281</ele>
        <time>2024-10-15T10:41:30.000Z</time>
      </trkpt>
      <trkpt lat="45.0979" lon="5.97414">
        <ele>2472.8000488281</ele>
        <time>2024-10-15T10:41:31.000Z</time>
      </trkpt>
      <trkpt lat="45.0979" lon="5.97414">
        <ele>2472.8000488281</ele>
        <time>2024-10-15T10:41:32.000Z</time>
      </trkpt>
      <trkpt lat="45.0979" lon="5.97414">
        <ele>2472.8000488281</ele>
        <time>2024-10-15T10:41:33.000Z</time>
      </trkpt>
      <trkpt lat="45.0979" lon="5.97414">
        <ele>2472.8000488281</ele>
        <time>2024-10-15T10:41:34.000Z</time>
      </trkpt>
      <trkpt lat="45.0979" lon="5.97414">
        <ele>2472.8000488281</ele>
        <time>2024-10-15T10:41:35.000Z</time>
      </trkpt>
      <trkpt lat="45.0979" lon="5.97414">
        <ele>2472.6000976562</ele>
        <time>2024-10-15T10:41:36.000Z</time>
      </trkpt>
      <trkpt lat="45.0979" lon="5.97414">
        <ele>2472.6000976562</ele>
        <time>2024-10-15T10:41:37.000Z</time>
      </trkpt>
      <trkpt lat="45.0979" lon="5.97414">
        <ele>2472.6000976562</ele>
        <time>2024-10-15T10:41:38.000Z</time>
      </trkpt>
      <trkpt lat="45.0979" lon="5.97414">
        <ele>2472.6000976562</ele>
        <time>2024-10-15T10:41:39.000Z</time>
      </trkpt>
      <trkpt lat="45.0979" lon="5.97414">
        <ele>2472.6000976562</ele>
        <time>2024-10-15T10:41:40.000Z</time>
      </trkpt>
      <trkpt lat="45.0979" lon="5.97414">
        <ele>2472.8000488281</ele>
        <time>2024-10-15T10:41:41.000Z</time>
      </trkpt>
      <trkpt lat="45.0979" lon="5.97414">
        <ele>2472.6000976562</ele>
        <time>2024-10-15T10:41:42.000Z</time>
      </trkpt>
      <trkpt lat="45.0979" lon="5.97414">
        <ele>2472.6000976562</ele>
        <time>2024-10-15T10:41:43.000Z</time>
      </trkpt>
      <trkpt lat="45.0979" lon="5.97414">
        <ele>2472.6000976562</ele>
        <time>2024-10-15T10:41:44.000Z</time>
      </trkpt>
      <trkpt lat="45.0979" lon="5.97414">
        <ele>2472</ele>
        <time>2024-10-15T10:41:45.000Z</time>
      </trkpt>
      <trkpt lat="45.0979" lon="5.97414">
        <ele>2472</ele>
        <time>2024-10-15T10:41:46.000Z</time>
      </trkpt>
      <trkpt lat="45.0979" lon="5.97414">
        <ele>2471.3999023438</ele>
        <time>2024-10-15T10:41:47.000Z</time>
      </trkpt>
      <trkpt lat="45.0979" lon="5.97414">
        <ele>2471.3999023438</ele>
        <time>2024-10-15T10:41:48.000Z</time>
      </trkpt>
      <trkpt lat="45.0979" lon="5.97414">
        <ele>2471.1999511719</ele>
        <time>2024-10-15T10:41:49.000Z</time>
      </trkpt>
      <trkpt lat="45.0979" lon="5.97414">
        <ele>2471.1999511719</ele>
        <time>2024-10-15T10:41:50.000Z</time>
      </trkpt>
      <trkpt lat="45.0979" lon="5.97414">
        <ele>2471.1999511719</ele>
        <time>2024-10-15T10:41:51.000Z</time>
      </trkpt>
      <trkpt lat="45.0979" lon="5.97414">
        <ele>2471</ele>
        <time>2024-10-15T10:41:52.000Z</time>
      </trkpt>
      <trkpt lat="45.0979" lon="5.97414">
        <ele>2470.8000488281</ele>
        <time>2024-10-15T10:41:53.000Z</time>
      </trkpt>
      <trkpt lat="45.0979" lon="5.97414">
        <ele>2470.8000488281</ele>
        <time>2024-10-15T10:41:54.000Z</time>
      </trkpt>
      <trkpt lat="45.0979" lon="5.97414">
        <ele>2470.6000976562</ele>
        <time>2024-10-15T10:41:55.000Z</time>
      </trkpt>
      <trkpt lat="45.09789" lon="5.97414">
        <ele>2469.8000488281</ele>
        <time>2024-10-15T10:41:56.000Z</time>
      </trkpt>
      <trkpt lat="45.09789" lon="5.97414">
        <ele>2469.3999023438</ele>
        <time>2024-10-15T10:41:57.000Z</time>
      </trkpt>
      <trkpt lat="45.09789" lon="5.97414">
        <ele>2469.1999511719</ele>
        <time>2024-10-15T10:41:58.000Z</time>
      </trkpt>
      <trkpt lat="45.09789" lon="5.97414">
        <ele>2468.8000488281</ele>
        <time>2024-10-15T10:41:59.000Z</time>
      </trkpt>
      <trkpt lat="45.09789" lon="5.97413">
        <ele>2468.6000976562</ele>
        <time>2024-10-15T10:42:00.000Z</time>
      </trkpt>
      <trkpt lat="45.09789" lon="5.97413">
        <ele>2468.1999511719</ele>
        <time>2024-10-15T10:42:01.000Z</time>
      </trkpt>
      <trkpt lat="45.09789" lon="5.97412">
        <ele>2468.1999511719</ele>
        <time>2024-10-15T10:42:02.000Z</time>
      </trkpt>
      <trkpt lat="45.09788" lon="5.97412">
        <ele>2467.6000976562</ele>
        <time>2024-10-15T10:42:03.000Z</time>
      </trkpt>
      <trkpt lat="45.09788" lon="5.97412">
        <ele>2467.1999511719</ele>
        <time>2024-10-15T10:42:04.000Z</time>
      </trkpt>
      <trkpt lat="45.09788" lon="5.97412">
        <ele>2467.1999511719</ele>
        <time>2024-10-15T10:42:05.000Z</time>
      </trkpt>
      <trkpt lat="45.09788" lon="5.97412">
        <ele>2467</ele>
        <time>2024-10-15T10:42:06.000Z</time>
      </trkpt>
      <trkpt lat="45.09787" lon="5.97412">
        <ele>2466.8000488281</ele>
        <time>2024-10-15T10:42:07.000Z</time>
      </trkpt>
      <trkpt lat="45.09787" lon="5.97411">
        <ele>2466.3999023438</ele>
        <time>2024-10-15T10:42:08.000Z</time>
      </trkpt>
      <trkpt lat="45.09786" lon="5.97411">
        <ele>2466.1999511719</ele>
        <time>2024-10-15T10:42:09.000Z</time>
      </trkpt>
      <trkpt lat="45.09786" lon="5.97411">
        <ele>2465.6000976562</ele>
        <time>2024-10-15T10:42:10.000Z</time>
      </trkpt>
      <trkpt lat="45.09785" lon="5.97411">
        <ele>2464.8000488281</ele>
        <time>2024-10-15T10:42:11.000Z</time>
      </trkpt>
      <trkpt lat="45.09785" lon="5.97411">
        <ele>2464.6000976562</ele>
        <time>2024-10-15T10:42:12.000Z</time>
      </trkpt>
      <trkpt lat="45.09784" lon="5.9741">
        <ele>2464.1999511719</ele>
        <time>2024-10-15T10:42:13.000Z</time>
      </trkpt>
      <trkpt lat="45.09784" lon="5.9741">
        <ele>2464</ele>
        <time>2024-10-15T10:42:14.000Z</time>
      </trkpt>
      <trkpt lat="45.09783" lon="5.9741">
        <ele>2463.6000976562</ele>
        <time>2024-10-15T10:42:15.000Z</time>
      </trkpt>
      <trkpt lat="45.09783" lon="5.9741">
        <ele>2463.3999023438</ele>
        <time>2024-10-15T10:42:16.000Z</time>
      </trkpt>
      <trkpt lat="45.09783" lon="5.97409">
        <ele>2463</ele>
        <time>2024-10-15T10:42:17.000Z</time>
      </trkpt>
      <trkpt lat="45.09783" lon="5.97409">
        <ele>2462.8000488281</ele>
        <time>2024-10-15T10:42:18.000Z</time>
      </trkpt>
      <trkpt lat="45.09783" lon="5.97408">
        <ele>2462.6000976562</ele>
        <time>2024-10-15T10:42:19.000Z</time>
      </trkpt>
      <trkpt lat="45.09783" lon="5.97407">
        <ele>2462.6000976562</ele>
        <time>2024-10-15T10:42:20.000Z</time>
      </trkpt>
      <trkpt lat="45.09783" lon="5.97407">
        <ele>2462.6000976562</ele>
        <time>2024-10-15T10:42:21.000Z</time>
      </trkpt>
      <trkpt lat="45.09782" lon="5.97406">
        <ele>2462.3999023438</ele>
        <time>2024-10-15T10:42:22.000Z</time>
      </trkpt>
      <trkpt lat="45.09782" lon="5.97403">
        <ele>2462.1999511719</ele>
        <time>2024-10-15T10:42:23.000Z</time>
      </trkpt>
      <trkpt lat="45.09781" lon="5.97401">
        <ele>2461.8000488281</ele>
        <time>2024-10-15T10:42:24.000Z</time>
      </trkpt>
      <trkpt lat="45.0978" lon="5.97399">
        <ele>2461</ele>
        <time>2024-10-15T10:42:25.000Z</time>
      </trkpt>
      <trkpt lat="45.0978" lon="5.97396">
        <ele>2461</ele>
        <time>2024-10-15T10:42:26.000Z</time>
      </trkpt>
      <trkpt lat="45.09779" lon="5.97394">
        <ele>2461</ele>
        <time>2024-10-15T10:42:27.000Z</time>
      </trkpt>
      <trkpt lat="45.09779" lon="5.97393">
        <ele>2461</ele>
        <time>2024-10-15T10:42:28.000Z</time>
      </trkpt>
      <trkpt lat="45.09779" lon="5.97391">
        <ele>2460.8000488281</ele>
        <time>2024-10-15T10:42:29.000Z</time>
      </trkpt>
      <trkpt lat="45.09778" lon="5.97389">
        <ele>2460.8000488281</ele>
        <time>2024-10-15T10:42:30.000Z</time>
      </trkpt>
      <trkpt lat="45.09778" lon="5.97387">
        <ele>2460.8000488281</ele>
        <time>2024-10-15T10:42:31.000Z</time>
      </trkpt>
      <trkpt lat="45.09778" lon="5.97387">
        <ele>2460.8000488281</ele>
        <time>2024-10-15T10:42:32.000Z</time>
      </trkpt>
      <trkpt lat="45.09778" lon="5.97387">
        <ele>2460.3999023438</ele>
        <time>2024-10-15T10:42:33.000Z</time>
      </trkpt>
      <trkpt lat="45.09778" lon="5.97386">
        <ele>2460.3999023438</ele>
        <time>2024-10-15T10:42:34.000Z</time>
      </trkpt>
      <trkpt lat="45.09778" lon="5.97385">
        <ele>2460.3999023438</ele>
        <time>2024-10-15T10:42:35.000Z</time>
      </trkpt>
      <trkpt lat="45.09778" lon="5.97384">
        <ele>2460.3999023438</ele>
        <time>2024-10-15T10:42:36.000Z</time>
      </trkpt>
      <trkpt lat="45.09778" lon="5.97383">
        <ele>2460.3999023438</ele>
        <time>2024-10-15T10:42:37.000Z</time>
      </trkpt>
      <trkpt lat="45.09778" lon="5.97383">
        <ele>2460.3999023438</ele>
        <time>2024-10-15T10:42:38.000Z</time>
      </trkpt>
      <trkpt lat="45.09778" lon="5.97383">
        <ele>2460.3999023438</ele>
        <time>2024-10-15T10:42:39.000Z</time>
      </trkpt>
      <trkpt lat="45.09778" lon="5.97382">
        <ele>2460.3999023438</ele>
        <time>2024-10-15T10:42:40.000Z</time>
      </trkpt>
      <trkpt lat="45.09778" lon="5.97382">
        <ele>2460.3999023438</ele>
        <time>2024-10-15T10:42:41.000Z</time>
      </trkpt>
      <trkpt lat="45.09778" lon="5.97382">
        <ele>2459.8000488281</ele>
        <time>2024-10-15T10:42:42.000Z</time>
      </trkpt>
      <trkpt lat="45.09778" lon="5.97382">
        <ele>2459.6000976562</ele>
        <time>2024-10-15T10:42:43.000Z</time>
      </trkpt>
      <trkpt lat="45.09778" lon="5.97382">
        <ele>2459.3999023438</ele>
        <time>2024-10-15T10:42:44.000Z</time>
      </trkpt>
      <trkpt lat="45.09777" lon="5.97382">
        <ele>2459.1999511719</ele>
        <time>2024-10-15T10:42:45.000Z</time>
      </trkpt>
      <trkpt lat="45.09777" lon="5.97381">
        <ele>2459.1999511719</ele>
        <time>2024-10-15T10:42:46.000Z</time>
      </trkpt>
      <trkpt lat="45.09777" lon="5.97381">
        <ele>2459</ele>
        <time>2024-10-15T10:42:47.000Z</time>
      </trkpt>
      <trkpt lat="45.09777" lon="5.97381">
        <ele>2458.8000488281</ele>
        <time>2024-10-15T10:42:48.000Z</time>
      </trkpt>
      <trkpt lat="45.09776" lon="5.9738">
        <ele>2458.6000976562</ele>
        <time>2024-10-15T10:42:49.000Z</time>
      </trkpt>
      <trkpt lat="45.09776" lon="5.9738">
        <ele>2458.3999023438</ele>
        <time>2024-10-15T10:42:50.000Z</time>
      </trkpt>
      <trkpt lat="45.09776" lon="5.97379">
        <ele>2458.1999511719</ele>
        <time>2024-10-15T10:42:51.000Z</time>
      </trkpt>
      <trkpt lat="45.09776" lon="5.97378">
        <ele>2458.1999511719</ele>
        <time>2024-10-15T10:42:52.000Z</time>
      </trkpt>
      <trkpt lat="45.09776" lon="5.97377">
        <ele>2458</ele>
        <time>2024-10-15T10:42:53.000Z</time>
      </trkpt>
      <trkpt lat="45.09776" lon="5.97375">
        <ele>2457.8000488281</ele>
        <time>2024-10-15T10:42:54.000Z</time>
      </trkpt>
      <trkpt lat="45.09776" lon="5.97374">
        <ele>2457.6000976562</ele>
        <time>2024-10-15T10:42:55.000Z</time>
      </trkpt>
      <trkpt lat="45.09776" lon="5.97373">
        <ele>2457.6000976562</ele>
        <time>2024-10-15T10:42:56.000Z</time>
      </trkpt>
      <trkpt lat="45.09775" lon="5.97372">
        <ele>2457.6000976562</ele>
        <time>2024-10-15T10:42:57.000Z</time>
      </trkpt>
      <trkpt lat="45.09776" lon="5.97372">
        <ele>2457.6000976562</ele>
        <time>2024-10-15T10:42:58.000Z</time>
      </trkpt>
      <trkpt lat="45.09776" lon="5.97372">
        <ele>2457.3999023438</ele>
        <time>2024-10-15T10:42:59.000Z</time>
      </trkpt>
      <trkpt lat="45.09775" lon="5.97372">
        <ele>2457.3999023438</ele>
        <time>2024-10-15T10:43:00.000Z</time>
      </trkpt>
      <trkpt lat="45.09775" lon="5.97372">
        <ele>2456.8000488281</ele>
        <time>2024-10-15T10:43:01.000Z</time>
      </trkpt>
      <trkpt lat="45.09775" lon="5.97373">
        <ele>2456.6000976562</ele>
        <time>2024-10-15T10:43:02.000Z</time>
      </trkpt>
      <trkpt lat="45.09775" lon="5.97372">
        <ele>2456.6000976562</ele>
        <time>2024-10-15T10:43:03.000Z</time>
      </trkpt>
      <trkpt lat="45.09775" lon="5.97371">
        <ele>2456.6000976562</ele>
        <time>2024-10-15T10:43:04.000Z</time>
      </trkpt>
      <trkpt lat="45.09775" lon="5.9737">
        <ele>2456.6000976562</ele>
        <time>2024-10-15T10:43:05.000Z</time>
      </trkpt>
      <trkpt lat="45.09775" lon="5.97369">
        <ele>2456.6000976562</ele>
        <time>2024-10-15T10:43:06.000Z</time>
      </trkpt>
      <trkpt lat="45.09775" lon="5.97368">
        <ele>2456.6000976562</ele>
        <time>2024-10-15T10:43:07.000Z</time>
      </trkpt>
      <trkpt lat="45.09775" lon="5.97367">
        <ele>2457</ele>
        <time>2024-10-15T10:43:08.000Z</time>
      </trkpt>
      <trkpt lat="45.09776" lon="5.97365">
        <ele>2457.3999023438</ele>
        <time>2024-10-15T10:43:09.000Z</time>
      </trkpt>
      <trkpt lat="45.09776" lon="5.97364">
        <ele>2457.3999023438</ele>
        <time>2024-10-15T10:43:10.000Z</time>
      </trkpt>
      <trkpt lat="45.09776" lon="5.97363">
        <ele>2457.3999023438</ele>
        <time>2024-10-15T10:43:11.000Z</time>
      </trkpt>
      <trkpt lat="45.09777" lon="5.97362">
        <ele>2457.3999023438</ele>
        <time>2024-10-15T10:43:12.000Z</time>
      </trkpt>
      <trkpt lat="45.09777" lon="5.97361">
        <ele>2457.1999511719</ele>
        <time>2024-10-15T10:43:13.000Z</time>
      </trkpt>
      <trkpt lat="45.09777" lon="5.97361">
        <ele>2457</ele>
        <time>2024-10-15T10:43:14.000Z</time>
      </trkpt>
      <trkpt lat="45.09777" lon="5.9736">
        <ele>2456.6000976562</ele>
        <time>2024-10-15T10:43:15.000Z</time>
      </trkpt>
      <trkpt lat="45.09777" lon="5.9736">
        <ele>2456.1999511719</ele>
        <time>2024-10-15T10:43:16.000Z</time>
      </trkpt>
      <trkpt lat="45.09777" lon="5.9736">
        <ele>2455.6000976562</ele>
        <time>2024-10-15T10:43:17.000Z</time>
      </trkpt>
      <trkpt lat="45.09777" lon="5.9736">
        <ele>2454.3999023438</ele>
        <time>2024-10-15T10:43:18.000Z</time>
      </trkpt>
      <trkpt lat="45.09776" lon="5.97359">
        <ele>2453.8000488281</ele>
        <time>2024-10-15T10:43:19.000Z</time>
      </trkpt>
      <trkpt lat="45.09775" lon="5.97359">
        <ele>2453.8000488281</ele>
        <time>2024-10-15T10:43:20.000Z</time>
      </trkpt>
      <trkpt lat="45.09775" lon="5.97358">
        <ele>2453.6000976562</ele>
        <time>2024-10-15T10:43:21.000Z</time>
      </trkpt>
      <trkpt lat="45.09775" lon="5.97357">
        <ele>2453.1999511719</ele>
        <time>2024-10-15T10:43:22.000Z</time>
      </trkpt>
      <trkpt lat="45.09775" lon="5.97356">
        <ele>2452.8000488281</ele>
        <time>2024-10-15T10:43:23.000Z</time>
      </trkpt>
      <trkpt lat="45.09775" lon="5.97355">
        <ele>2452.6000976562</ele>
        <time>2024-10-15T10:43:24.000Z</time>
      </trkpt>
      <trkpt lat="45.09775" lon="5.97355">
        <ele>2452.3999023438</ele>
        <time>2024-10-15T10:43:25.000Z</time>
      </trkpt>
      <trkpt lat="45.09774" lon="5.97354">
        <ele>2452.3999023438</ele>
        <time>2024-10-15T10:43:26.000Z</time>
      </trkpt>
      <trkpt lat="45.09774" lon="5.97353">
        <ele>2452.1999511719</ele>
        <time>2024-10-15T10:43:27.000Z</time>
      </trkpt>
      <trkpt lat="45.09774" lon="5.97352">
        <ele>2452</ele>
        <time>2024-10-15T10:43:28.000Z</time>
      </trkpt>
      <trkpt lat="45.09774" lon="5.97352">
        <ele>2452</ele>
        <time>2024-10-15T10:43:29.000Z</time>
      </trkpt>
      <trkpt lat="45.09773" lon="5.97351">
        <ele>2451.8000488281</ele>
        <time>2024-10-15T10:43:30.000Z</time>
      </trkpt>
      <trkpt lat="45.09773" lon="5.97351">
        <ele>2451.8000488281</ele>
        <time>2024-10-15T10:43:31.000Z</time>
      </trkpt>
      <trkpt lat="45.09773" lon="5.9735">
        <ele>2451.8000488281</ele>
        <time>2024-10-15T10:43:32.000Z</time>
      </trkpt>
      <trkpt lat="45.09773" lon="5.97349">
        <ele>2451.8000488281</ele>
        <time>2024-10-15T10:43:33.000Z</time>
      </trkpt>
      <trkpt lat="45.09773" lon="5.97348">
        <ele>2452</ele>
        <time>2024-10-15T10:43:34.000Z</time>
      </trkpt>
      <trkpt lat="45.09774" lon="5.97347">
        <ele>2452.1999511719</ele>
        <time>2024-10-15T10:43:35.000Z</time>
      </trkpt>
      <trkpt lat="45.09774" lon="5.97346">
        <ele>2452.3999023438</ele>
        <time>2024-10-15T10:43:36.000Z</time>
      </trkpt>
      <trkpt lat="45.09773" lon="5.97345">
        <ele>2452.6000976562</ele>
        <time>2024-10-15T10:43:37.000Z</time>
      </trkpt>
      <trkpt lat="45.09773" lon="5.97344">
        <ele>2453.1999511719</ele>
        <time>2024-10-15T10:43:38.000Z</time>
      </trkpt>
      <trkpt lat="45.09773" lon="5.97343">
        <ele>2454</ele>
        <time>2024-10-15T10:43:39.000Z</time>
      </trkpt>
      <trkpt lat="45.09773" lon="5.97342">
        <ele>2454.1999511719</ele>
        <time>2024-10-15T10:43:40.000Z</time>
      </trkpt>
      <trkpt lat="45.09773" lon="5.9734">
        <ele>2454.1999511719</ele>
        <time>2024-10-15T10:43:41.000Z</time>
      </trkpt>
      <trkpt lat="45.09772" lon="5.97339">
        <ele>2454.1999511719</ele>
        <time>2024-10-15T10:43:42.000Z</time>
      </trkpt>
      <trkpt lat="45.09772" lon="5.97338">
        <ele>2454.1999511719</ele>
        <time>2024-10-15T10:43:43.000Z</time>
      </trkpt>
      <trkpt lat="45.09773" lon="5.97337">
        <ele>2454</ele>
        <time>2024-10-15T10:43:44.000Z</time>
      </trkpt>
      <trkpt lat="45.09773" lon="5.97335">
        <ele>2453.6000976562</ele>
        <time>2024-10-15T10:43:45.000Z</time>
      </trkpt>
      <trkpt lat="45.09773" lon="5.97335">
        <ele>2453.3999023438</ele>
        <time>2024-10-15T10:43:46.000Z</time>
      </trkpt>
      <trkpt lat="45.09773" lon="5.97334">
        <ele>2453.1999511719</ele>
        <time>2024-10-15T10:43:47.000Z</time>
      </trkpt>
      <trkpt lat="45.09773" lon="5.97334">
        <ele>2453</ele>
        <time>2024-10-15T10:43:48.000Z</time>
      </trkpt>
      <trkpt lat="45.09772" lon="5.97334">
        <ele>2452.3999023438</ele>
        <time>2024-10-15T10:43:49.000Z</time>
      </trkpt>
      <trkpt lat="45.09772" lon="5.97334">
        <ele>2452.3999023438</ele>
        <time>2024-10-15T10:43:50.000Z</time>
      </trkpt>
      <trkpt lat="45.09772" lon="5.97333">
        <ele>2452.3999023438</ele>
        <time>2024-10-15T10:43:51.000Z</time>
      </trkpt>
      <trkpt lat="45.09771" lon="5.97333">
        <ele>2452.1999511719</ele>
        <time>2024-10-15T10:43:52.000Z</time>
      </trkpt>
      <trkpt lat="45.09771" lon="5.97332">
        <ele>2452.1999511719</ele>
        <time>2024-10-15T10:43:53.000Z</time>
      </trkpt>
      <trkpt lat="45.09771" lon="5.97332">
        <ele>2452.3999023438</ele>
        <time>2024-10-15T10:43:54.000Z</time>
      </trkpt>
      <trkpt lat="45.09771" lon="5.97331">
        <ele>2452.3999023438</ele>
        <time>2024-10-15T10:43:55.000Z</time>
      </trkpt>
      <trkpt lat="45.09771" lon="5.97331">
        <ele>2452.3999023438</ele>
        <time>2024-10-15T10:43:56.000Z</time>
      </trkpt>
      <trkpt lat="45.09771" lon="5.9733">
        <ele>2452.1999511719</ele>
        <time>2024-10-15T10:43:57.000Z</time>
      </trkpt>
      <trkpt lat="45.09771" lon="5.97329">
        <ele>2452.1999511719</ele>
        <time>2024-10-15T10:43:58.000Z</time>
      </trkpt>
      <trkpt lat="45.0977" lon="5.97328">
        <ele>2451.6000976562</ele>
        <time>2024-10-15T10:43:59.000Z</time>
      </trkpt>
      <trkpt lat="45.0977" lon="5.97328">
        <ele>2451.1999511719</ele>
        <time>2024-10-15T10:44:00.000Z</time>
      </trkpt>
      <trkpt lat="45.09769" lon="5.97328">
        <ele>2450.6000976562</ele>
        <time>2024-10-15T10:44:01.000Z</time>
      </trkpt>
      <trkpt lat="45.09769" lon="5.97327">
        <ele>2450.3999023438</ele>
        <time>2024-10-15T10:44:02.000Z</time>
      </trkpt>
      <trkpt lat="45.09769" lon="5.97326">
        <ele>2450.3999023438</ele>
        <time>2024-10-15T10:44:03.000Z</time>
      </trkpt>
      <trkpt lat="45.09769" lon="5.97324">
        <ele>2450.3999023438</ele>
        <time>2024-10-15T10:44:04.000Z</time>
      </trkpt>
      <trkpt lat="45.09769" lon="5.97323">
        <ele>2450.3999023438</ele>
        <time>2024-10-15T10:44:05.000Z</time>
      </trkpt>
      <trkpt lat="45.09769" lon="5.97322">
        <ele>2450.6000976562</ele>
        <time>2024-10-15T10:44:06.000Z</time>
      </trkpt>
      <trkpt lat="45.09769" lon="5.97322">
        <ele>2450.8000488281</ele>
        <time>2024-10-15T10:44:07.000Z</time>
      </trkpt>
      <trkpt lat="45.09769" lon="5.97322">
        <ele>2451.1999511719</ele>
        <time>2024-10-15T10:44:08.000Z</time>
      </trkpt>
      <trkpt lat="45.09769" lon="5.97321">
        <ele>2451.6000976562</ele>
        <time>2024-10-15T10:44:09.000Z</time>
      </trkpt>
      <trkpt lat="45.09769" lon="5.97321">
        <ele>2451.8000488281</ele>
        <time>2024-10-15T10:44:10.000Z</time>
      </trkpt>
      <trkpt lat="45.09768" lon="5.9732">
        <ele>2451.8000488281</ele>
        <time>2024-10-15T10:44:11.000Z</time>
      </trkpt>
      <trkpt lat="45.09768" lon="5.97319">
        <ele>2451.8000488281</ele>
        <time>2024-10-15T10:44:12.000Z</time>
      </trkpt>
      <trkpt lat="45.09767" lon="5.97319">
        <ele>2451.8000488281</ele>
        <time>2024-10-15T10:44:13.000Z</time>
      </trkpt>
      <trkpt lat="45.09766" lon="5.97318">
        <ele>2451.8000488281</ele>
        <time>2024-10-15T10:44:14.000Z</time>
      </trkpt>
      <trkpt lat="45.09766" lon="5.97317">
        <ele>2451.6000976562</ele>
        <time>2024-10-15T10:44:15.000Z</time>
      </trkpt>
      <trkpt lat="45.09765" lon="5.97315">
        <ele>2451.1999511719</ele>
        <time>2024-10-15T10:44:16.000Z</time>
      </trkpt>
      <trkpt lat="45.09765" lon="5.97314">
        <ele>2451</ele>
        <time>2024-10-15T10:44:17.000Z</time>
      </trkpt>
      <trkpt lat="45.09764" lon="5.97313">
        <ele>2451</ele>
        <time>2024-10-15T10:44:18.000Z</time>
      </trkpt>
      <trkpt lat="45.09764" lon="5.97311">
        <ele>2451</ele>
        <time>2024-10-15T10:44:19.000Z</time>
      </trkpt>
      <trkpt lat="45.09764" lon="5.9731">
        <ele>2451</ele>
        <time>2024-10-15T10:44:20.000Z</time>
      </trkpt>
      <trkpt lat="45.09763" lon="5.9731">
        <ele>2451</ele>
        <time>2024-10-15T10:44:21.000Z</time>
      </trkpt>
      <trkpt lat="45.09763" lon="5.97309">
        <ele>2451</ele>
        <time>2024-10-15T10:44:22.000Z</time>
      </trkpt>
      <trkpt lat="45.09762" lon="5.97309">
        <ele>2450.8000488281</ele>
        <time>2024-10-15T10:44:23.000Z</time>
      </trkpt>
      <trkpt lat="45.09762" lon="5.97308">
        <ele>2450.8000488281</ele>
        <time>2024-10-15T10:44:24.000Z</time>
      </trkpt>
      <trkpt lat="45.09761" lon="5.97308">
        <ele>2450.6000976562</ele>
        <time>2024-10-15T10:44:25.000Z</time>
      </trkpt>
      <trkpt lat="45.09761" lon="5.97307">
        <ele>2449.8000488281</ele>
        <time>2024-10-15T10:44:26.000Z</time>
      </trkpt>
      <trkpt lat="45.0976" lon="5.97305">
        <ele>2449.8000488281</ele>
        <time>2024-10-15T10:44:27.000Z</time>
      </trkpt>
      <trkpt lat="45.0976" lon="5.97304">
        <ele>2449.6000976562</ele>
        <time>2024-10-15T10:44:28.000Z</time>
      </trkpt>
      <trkpt lat="45.0976" lon="5.97304">
        <ele>2449.6000976562</ele>
        <time>2024-10-15T10:44:29.000Z</time>
      </trkpt>
      <trkpt lat="45.0976" lon="5.97304">
        <ele>2449.6000976562</ele>
        <time>2024-10-15T10:44:30.000Z</time>
      </trkpt>
      <trkpt lat="45.09761" lon="5.97303">
        <ele>2449.8000488281</ele>
        <time>2024-10-15T10:44:31.000Z</time>
      </trkpt>
      <trkpt lat="45.09761" lon="5.97303">
        <ele>2450</ele>
        <time>2024-10-15T10:44:32.000Z</time>
      </trkpt>
      <trkpt lat="45.09761" lon="5.97303">
        <ele>2450.1999511719</ele>
        <time>2024-10-15T10:44:33.000Z</time>
      </trkpt>
      <trkpt lat="45.09761" lon="5.97303">
        <ele>2450.1999511719</ele>
        <time>2024-10-15T10:44:34.000Z</time>
      </trkpt>
      <trkpt lat="45.09761" lon="5.97303">
        <ele>2450.1999511719</ele>
        <time>2024-10-15T10:44:35.000Z</time>
      </trkpt>
      <trkpt lat="45.09761" lon="5.97303">
        <ele>2450.1999511719</ele>
        <time>2024-10-15T10:44:36.000Z</time>
      </trkpt>
      <trkpt lat="45.09761" lon="5.97303">
        <ele>2450</ele>
        <time>2024-10-15T10:44:37.000Z</time>
      </trkpt>
      <trkpt lat="45.09761" lon="5.97303">
        <ele>2449.6000976562</ele>
        <time>2024-10-15T10:44:38.000Z</time>
      </trkpt>
      <trkpt lat="45.09761" lon="5.97303">
        <ele>2449.6000976562</ele>
        <time>2024-10-15T10:44:39.000Z</time>
      </trkpt>
      <trkpt lat="45.09761" lon="5.97303">
        <ele>2449.6000976562</ele>
        <time>2024-10-15T10:44:40.000Z</time>
      </trkpt>
      <trkpt lat="45.09761" lon="5.97303">
        <ele>2449.6000976562</ele>
        <time>2024-10-15T10:44:41.000Z</time>
      </trkpt>
      <trkpt lat="45.09761" lon="5.97303">
        <ele>2449.6000976562</ele>
        <time>2024-10-15T10:44:42.000Z</time>
      </trkpt>
      <trkpt lat="45.09761" lon="5.97303">
        <ele>2449.6000976562</ele>
        <time>2024-10-15T10:44:43.000Z</time>
      </trkpt>
      <trkpt lat="45.09761" lon="5.97303">
        <ele>2449.6000976562</ele>
        <time>2024-10-15T10:44:44.000Z</time>
      </trkpt>
      <trkpt lat="45.09761" lon="5.97303">
        <ele>2449.6000976562</ele>
        <time>2024-10-15T10:44:45.000Z</time>
      </trkpt>
      <trkpt lat="45.09761" lon="5.97303">
        <ele>2449.6000976562</ele>
        <time>2024-10-15T10:44:46.000Z</time>
      </trkpt>
      <trkpt lat="45.09761" lon="5.97303">
        <ele>2449.6000976562</ele>
        <time>2024-10-15T10:44:47.000Z</time>
      </trkpt>
      <trkpt lat="45.09761" lon="5.97303">
        <ele>2449.6000976562</ele>
        <time>2024-10-15T10:44:48.000Z</time>
      </trkpt>
      <trkpt lat="45.09761" lon="5.97303">
        <ele>2449.6000976562</ele>
        <time>2024-10-15T10:44:49.000Z</time>
      </trkpt>
      <trkpt lat="45.09761" lon="5.97303">
        <ele>2449.6000976562</ele>
        <time>2024-10-15T10:44:50.000Z</time>
      </trkpt>
      <trkpt lat="45.09761" lon="5.97303">
        <ele>2449.6000976562</ele>
        <time>2024-10-15T10:44:51.000Z</time>
      </trkpt>
      <trkpt lat="45.09761" lon="5.97303">
        <ele>2449.6000976562</ele>
        <time>2024-10-15T10:44:52.000Z</time>
      </trkpt>
      <trkpt lat="45.09761" lon="5.97303">
        <ele>2449.6000976562</ele>
        <time>2024-10-15T10:44:53.000Z</time>
      </trkpt>
      <trkpt lat="45.09761" lon="5.97303">
        <ele>2449.8000488281</ele>
        <time>2024-10-15T10:44:54.000Z</time>
      </trkpt>
      <trkpt lat="45.09761" lon="5.97303">
        <ele>2449.8000488281</ele>
        <time>2024-10-15T10:44:55.000Z</time>
      </trkpt>
      <trkpt lat="45.09761" lon="5.97303">
        <ele>2449.8000488281</ele>
        <time>2024-10-15T10:44:56.000Z</time>
      </trkpt>
      <trkpt lat="45.09761" lon="5.97303">
        <ele>2449.8000488281</ele>
        <time>2024-10-15T10:44:57.000Z</time>
      </trkpt>
      <trkpt lat="45.09761" lon="5.97303">
        <ele>2450</ele>
        <time>2024-10-15T10:44:58.000Z</time>
      </trkpt>
      <trkpt lat="45.09761" lon="5.97303">
        <ele>2449.8000488281</ele>
        <time>2024-10-15T10:44:59.000Z</time>
      </trkpt>
      <trkpt lat="45.09761" lon="5.97303">
        <ele>2449.8000488281</ele>
        <time>2024-10-15T10:45:00.000Z</time>
      </trkpt>
      <trkpt lat="45.09761" lon="5.97303">
        <ele>2449.8000488281</ele>
        <time>2024-10-15T10:45:01.000Z</time>
      </trkpt>
      <trkpt lat="45.0976" lon="5.97303">
        <ele>2449.8000488281</ele>
        <time>2024-10-15T10:45:02.000Z</time>
      </trkpt>
      <trkpt lat="45.09759" lon="5.97302">
        <ele>2449.8000488281</ele>
        <time>2024-10-15T10:45:03.000Z</time>
      </trkpt>
      <trkpt lat="45.09759" lon="5.97301">
        <ele>2449.8000488281</ele>
        <time>2024-10-15T10:45:04.000Z</time>
      </trkpt>
      <trkpt lat="45.09758" lon="5.97301">
        <ele>2449.8000488281</ele>
        <time>2024-10-15T10:45:05.000Z</time>
      </trkpt>
      <trkpt lat="45.09757" lon="5.973">
        <ele>2449.8000488281</ele>
        <time>2024-10-15T10:45:06.000Z</time>
      </trkpt>
      <trkpt lat="45.09757" lon="5.973">
        <ele>2449.8000488281</ele>
        <time>2024-10-15T10:45:07.000Z</time>
      </trkpt>
      <trkpt lat="45.09756" lon="5.97299">
        <ele>2449.8000488281</ele>
        <time>2024-10-15T10:45:08.000Z</time>
      </trkpt>
      <trkpt lat="45.09756" lon="5.97299">
        <ele>2449.8000488281</ele>
        <time>2024-10-15T10:45:09.000Z</time>
      </trkpt>
      <trkpt lat="45.09756" lon="5.97298">
        <ele>2450.1999511719</ele>
        <time>2024-10-15T10:45:10.000Z</time>
      </trkpt>
      <trkpt lat="45.09755" lon="5.97298">
        <ele>2450.1999511719</ele>
        <time>2024-10-15T10:45:11.000Z</time>
      </trkpt>
      <trkpt lat="45.09755" lon="5.97298">
        <ele>2450.1999511719</ele>
        <time>2024-10-15T10:45:12.000Z</time>
      </trkpt>
      <trkpt lat="45.09755" lon="5.97298">
        <ele>2450.1999511719</ele>
        <time>2024-10-15T10:45:13.000Z</time>
      </trkpt>
      <trkpt lat="45.09755" lon="5.97298">
        <ele>2450.1999511719</ele>
        <time>2024-10-15T10:45:14.000Z</time>
      </trkpt>
      <trkpt lat="45.09755" lon="5.97298">
        <ele>2450.1999511719</ele>
        <time>2024-10-15T10:45:15.000Z</time>
      </trkpt>
      <trkpt lat="45.09755" lon="5.97298">
        <ele>2450</ele>
        <time>2024-10-15T10:45:16.000Z</time>
      </trkpt>
      <trkpt lat="45.09755" lon="5.97298">
        <ele>2450</ele>
        <time>2024-10-15T10:45:17.000Z</time>
      </trkpt>
      <trkpt lat="45.09755" lon="5.97298">
        <ele>2450</ele>
        <time>2024-10-15T10:45:18.000Z</time>
      </trkpt>
      <trkpt lat="45.09755" lon="5.97298">
        <ele>2450</ele>
        <time>2024-10-15T10:45:19.000Z</time>
      </trkpt>
      <trkpt lat="45.09755" lon="5.97298">
        <ele>2450</ele>
        <time>2024-10-15T10:45:20.000Z</time>
      </trkpt>
      <trkpt lat="45.09755" lon="5.97298">
        <ele>2450</ele>
        <time>2024-10-15T10:45:21.000Z</time>
      </trkpt>
      <trkpt lat="45.09755" lon="5.97298">
        <ele>2450</ele>
        <time>2024-10-15T10:45:22.000Z</time>
      </trkpt>
      <trkpt lat="45.09755" lon="5.97298">
        <ele>2449.8000488281</ele>
        <time>2024-10-15T10:45:23.000Z</time>
      </trkpt>
      <trkpt lat="45.09755" lon="5.97298">
        <ele>2449.8000488281</ele>
        <time>2024-10-15T10:45:24.000Z</time>
      </trkpt>
      <trkpt lat="45.09755" lon="5.97298">
        <ele>2449.8000488281</ele>
        <time>2024-10-15T10:45:25.000Z</time>
      </trkpt>
      <trkpt lat="45.09755" lon="5.97298">
        <ele>2449.8000488281</ele>
        <time>2024-10-15T10:45:26.000Z</time>
      </trkpt>
      <trkpt lat="45.09755" lon="5.97298">
        <ele>2449.8000488281</ele>
        <time>2024-10-15T10:45:27.000Z</time>
      </trkpt>
      <trkpt lat="45.09755" lon="5.97298">
        <ele>2449.8000488281</ele>
        <time>2024-10-15T10:45:28.000Z</time>
      </trkpt>
      <trkpt lat="45.09755" lon="5.97298">
        <ele>2449.8000488281</ele>
        <time>2024-10-15T10:45:29.000Z</time>
      </trkpt>
      <trkpt lat="45.09755" lon="5.97298">
        <ele>2449.6000976562</ele>
        <time>2024-10-15T10:45:30.000Z</time>
      </trkpt>
      <trkpt lat="45.09755" lon="5.97298">
        <ele>2449.6000976562</ele>
        <time>2024-10-15T10:45:31.000Z</time>
      </trkpt>
      <trkpt lat="45.09755" lon="5.97298">
        <ele>2449.6000976562</ele>
        <time>2024-10-15T10:45:32.000Z</time>
      </trkpt>
      <trkpt lat="45.09755" lon="5.97298">
        <ele>2449.6000976562</ele>
        <time>2024-10-15T10:45:33.000Z</time>
      </trkpt>
      <trkpt lat="45.09755" lon="5.97298">
        <ele>2449.6000976562</ele>
        <time>2024-10-15T10:45:34.000Z</time>
      </trkpt>
      <trkpt lat="45.09755" lon="5.97298">
        <ele>2449.6000976562</ele>
        <time>2024-10-15T10:45:35.000Z</time>
      </trkpt>
      <trkpt lat="45.09755" lon="5.97298">
        <ele>2449.8000488281</ele>
        <time>2024-10-15T10:45:36.000Z</time>
      </trkpt>
      <trkpt lat="45.09755" lon="5.97298">
        <ele>2449.8000488281</ele>
        <time>2024-10-15T10:45:37.000Z</time>
      </trkpt>
      <trkpt lat="45.09755" lon="5.97298">
        <ele>2450</ele>
        <time>2024-10-15T10:45:38.000Z</time>
      </trkpt>
      <trkpt lat="45.09755" lon="5.97297">
        <ele>2450.3999023438</ele>
        <time>2024-10-15T10:45:39.000Z</time>
      </trkpt>
      <trkpt lat="45.09755" lon="5.97296">
        <ele>2450.6000976562</ele>
        <time>2024-10-15T10:45:40.000Z</time>
      </trkpt>
      <trkpt lat="45.09754" lon="5.97294">
        <ele>2450.8000488281</ele>
        <time>2024-10-15T10:45:41.000Z</time>
      </trkpt>
      <trkpt lat="45.09754" lon="5.97293">
        <ele>2450.8000488281</ele>
        <time>2024-10-15T10:45:42.000Z</time>
      </trkpt>
      <trkpt lat="45.09753" lon="5.97292">
        <ele>2451.1999511719</ele>
        <time>2024-10-15T10:45:43.000Z</time>
      </trkpt>
      <trkpt lat="45.09753" lon="5.97291">
        <ele>2451.1999511719</ele>
        <time>2024-10-15T10:45:44.000Z</time>
      </trkpt>
      <trkpt lat="45.09752" lon="5.9729">
        <ele>2451.6000976562</ele>
        <time>2024-10-15T10:45:45.000Z</time>
      </trkpt>
      <trkpt lat="45.09752" lon="5.97289">
        <ele>2451.6000976562</ele>
        <time>2024-10-15T10:45:46.000Z</time>
      </trkpt>
      <trkpt lat="45.09752" lon="5.97288">
        <ele>2451.6000976562</ele>
        <time>2024-10-15T10:45:47.000Z</time>
      </trkpt>
      <trkpt lat="45.09752" lon="5.97288">
        <ele>2451.8000488281</ele>
        <time>2024-10-15T10:45:48.000Z</time>
      </trkpt>
      <trkpt lat="45.09752" lon="5.97288">
        <ele>2451.8000488281</ele>
        <time>2024-10-15T10:45:49.000Z</time>
      </trkpt>
      <trkpt lat="45.09752" lon="5.97288">
        <ele>2451.8000488281</ele>
        <time>2024-10-15T10:45:50.000Z</time>
      </trkpt>
      <trkpt lat="45.09752" lon="5.97288">
        <ele>2451.6000976562</ele>
        <time>2024-10-15T10:45:51.000Z</time>
      </trkpt>
      <trkpt lat="45.09752" lon="5.97287">
        <ele>2451.3999023438</ele>
        <time>2024-10-15T10:45:52.000Z</time>
      </trkpt>
      <trkpt lat="45.09751" lon="5.97286">
        <ele>2451.3999023438</ele>
        <time>2024-10-15T10:45:53.000Z</time>
      </trkpt>
      <trkpt lat="45.09751" lon="5.97286">
        <ele>2451.3999023438</ele>
        <time>2024-10-15T10:45:54.000Z</time>
      </trkpt>
      <trkpt lat="45.0975" lon="5.97285">
        <ele>2451.3999023438</ele>
        <time>2024-10-15T10:45:55.000Z</time>
      </trkpt>
      <trkpt lat="45.0975" lon="5.97284">
        <ele>2451.6000976562</ele>
        <time>2024-10-15T10:45:56.000Z</time>
      </trkpt>
      <trkpt lat="45.09749" lon="5.97283">
        <ele>2451.6000976562</ele>
        <time>2024-10-15T10:45:57.000Z</time>
      </trkpt>
      <trkpt lat="45.09749" lon="5.97282">
        <ele>2451.8000488281</ele>
        <time>2024-10-15T10:45:58.000Z</time>
      </trkpt>
      <trkpt lat="45.09748" lon="5.9728">
        <ele>2451.8000488281</ele>
        <time>2024-10-15T10:45:59.000Z</time>
      </trkpt>
      <trkpt lat="45.09748" lon="5.97279">
        <ele>2451.8000488281</ele>
        <time>2024-10-15T10:46:00.000Z</time>
      </trkpt>
      <trkpt lat="45.09748" lon="5.97278">
        <ele>2451.8000488281</ele>
        <time>2024-10-15T10:46:01.000Z</time>
      </trkpt>
      <trkpt lat="45.09747" lon="5.97277">
        <ele>2451.8000488281</ele>
        <time>2024-10-15T10:46:02.000Z</time>
      </trkpt>
      <trkpt lat="45.09747" lon="5.97276">
        <ele>2451.8000488281</ele>
        <time>2024-10-15T10:46:03.000Z</time>
      </trkpt>
      <trkpt lat="45.09747" lon="5.97275">
        <ele>2451.6000976562</ele>
        <time>2024-10-15T10:46:04.000Z</time>
      </trkpt>
      <trkpt lat="45.09747" lon="5.97273">
        <ele>2451.3999023438</ele>
        <time>2024-10-15T10:46:05.000Z</time>
      </trkpt>
      <trkpt lat="45.09747" lon="5.97272">
        <ele>2450.8000488281</ele>
        <time>2024-10-15T10:46:06.000Z</time>
      </trkpt>
      <trkpt lat="45.09747" lon="5.97271">
        <ele>2450.8000488281</ele>
        <time>2024-10-15T10:46:07.000Z</time>
      </trkpt>
      <trkpt lat="45.09747" lon="5.9727">
        <ele>2450.8000488281</ele>
        <time>2024-10-15T10:46:08.000Z</time>
      </trkpt>
      <trkpt lat="45.09747" lon="5.97269">
        <ele>2450.6000976562</ele>
        <time>2024-10-15T10:46:09.000Z</time>
      </trkpt>
      <trkpt lat="45.09746" lon="5.97268">
        <ele>2450.6000976562</ele>
        <time>2024-10-15T10:46:10.000Z</time>
      </trkpt>
      <trkpt lat="45.09746" lon="5.97267">
        <ele>2450.6000976562</ele>
        <time>2024-10-15T10:46:11.000Z</time>
      </trkpt>
      <trkpt lat="45.09746" lon="5.97266">
        <ele>2450.6000976562</ele>
        <time>2024-10-15T10:46:12.000Z</time>
      </trkpt>
      <trkpt lat="45.09746" lon="5.97265">
        <ele>2450.6000976562</ele>
        <time>2024-10-15T10:46:13.000Z</time>
      </trkpt>
      <trkpt lat="45.09746" lon="5.97263">
        <ele>2450.6000976562</ele>
        <time>2024-10-15T10:46:14.000Z</time>
      </trkpt>
      <trkpt lat="45.09746" lon="5.97262">
        <ele>2450.6000976562</ele>
        <time>2024-10-15T10:46:15.000Z</time>
      </trkpt>
      <trkpt lat="45.09746" lon="5.97261">
        <ele>2450.6000976562</ele>
        <time>2024-10-15T10:46:16.000Z</time>
      </trkpt>
      <trkpt lat="45.09746" lon="5.9726">
        <ele>2450.6000976562</ele>
        <time>2024-10-15T10:46:17.000Z</time>
      </trkpt>
      <trkpt lat="45.09745" lon="5.97259">
        <ele>2450.6000976562</ele>
        <time>2024-10-15T10:46:18.000Z</time>
      </trkpt>
      <trkpt lat="45.09745" lon="5.97258">
        <ele>2450.8000488281</ele>
        <time>2024-10-15T10:46:19.000Z</time>
      </trkpt>
      <trkpt lat="45.09745" lon="5.97257">
        <ele>2450.8000488281</ele>
        <time>2024-10-15T10:46:20.000Z</time>
      </trkpt>
      <trkpt lat="45.09745" lon="5.97256">
        <ele>2450.8000488281</ele>
        <time>2024-10-15T10:46:21.000Z</time>
      </trkpt>
      <trkpt lat="45.09745" lon="5.97256">
        <ele>2451.1999511719</ele>
        <time>2024-10-15T10:46:22.000Z</time>
      </trkpt>
      <trkpt lat="45.09745" lon="5.97255">
        <ele>2451.6000976562</ele>
        <time>2024-10-15T10:46:23.000Z</time>
      </trkpt>
      <trkpt lat="45.09745" lon="5.97255">
        <ele>2452.3999023438</ele>
        <time>2024-10-15T10:46:24.000Z</time>
      </trkpt>
      <trkpt lat="45.09745" lon="5.97254">
        <ele>2452.8000488281</ele>
        <time>2024-10-15T10:46:25.000Z</time>
      </trkpt>
      <trkpt lat="45.09744" lon="5.97254">
        <ele>2452.8000488281</ele>
        <time>2024-10-15T10:46:26.000Z</time>
      </trkpt>
      <trkpt lat="45.09743" lon="5.97253">
        <ele>2452.8000488281</ele>
        <time>2024-10-15T10:46:27.000Z</time>
      </trkpt>
      <trkpt lat="45.09743" lon="5.97252">
        <ele>2453</ele>
        <time>2024-10-15T10:46:28.000Z</time>
      </trkpt>
      <trkpt lat="45.09743" lon="5.97251">
        <ele>2453</ele>
        <time>2024-10-15T10:46:29.000Z</time>
      </trkpt>
      <trkpt lat="45.09742" lon="5.97249">
        <ele>2453.1999511719</ele>
        <time>2024-10-15T10:46:30.000Z</time>
      </trkpt>
      <trkpt lat="45.09742" lon="5.97248">
        <ele>2453.1999511719</ele>
        <time>2024-10-15T10:46:31.000Z</time>
      </trkpt>
      <trkpt lat="45.09742" lon="5.97247">
        <ele>2453.1999511719</ele>
        <time>2024-10-15T10:46:32.000Z</time>
      </trkpt>
      <trkpt lat="45.09741" lon="5.97246">
        <ele>2453</ele>
        <time>2024-10-15T10:46:33.000Z</time>
      </trkpt>
      <trkpt lat="45.09741" lon="5.97245">
        <ele>2452.8000488281</ele>
        <time>2024-10-15T10:46:34.000Z</time>
      </trkpt>
      <trkpt lat="45.09741" lon="5.97244">
        <ele>2452.3999023438</ele>
        <time>2024-10-15T10:46:35.000Z</time>
      </trkpt>
      <trkpt lat="45.0974" lon="5.97243">
        <ele>2452.1999511719</ele>
        <time>2024-10-15T10:46:36.000Z</time>
      </trkpt>
      <trkpt lat="45.09739" lon="5.97242">
        <ele>2451.8000488281</ele>
        <time>2024-10-15T10:46:37.000Z</time>
      </trkpt>
      <trkpt lat="45.09739" lon="5.97242">
        <ele>2451.3999023438</ele>
        <time>2024-10-15T10:46:38.000Z</time>
      </trkpt>
      <trkpt lat="45.09738" lon="5.97241">
        <ele>2451.1999511719</ele>
        <time>2024-10-15T10:46:39.000Z</time>
      </trkpt>
      <trkpt lat="45.09737" lon="5.9724">
        <ele>2451</ele>
        <time>2024-10-15T10:46:40.000Z</time>
      </trkpt>
      <trkpt lat="45.09736" lon="5.9724">
        <ele>2450.8000488281</ele>
        <time>2024-10-15T10:46:41.000Z</time>
      </trkpt>
      <trkpt lat="45.09735" lon="5.97238">
        <ele>2450.8000488281</ele>
        <time>2024-10-15T10:46:42.000Z</time>
      </trkpt>
      <trkpt lat="45.09735" lon="5.97237">
        <ele>2450.6000976562</ele>
        <time>2024-10-15T10:46:43.000Z</time>
      </trkpt>
      <trkpt lat="45.09734" lon="5.97236">
        <ele>2450.6000976562</ele>
        <time>2024-10-15T10:46:44.000Z</time>
      </trkpt>
      <trkpt lat="45.09733" lon="5.97235">
        <ele>2450.6000976562</ele>
        <time>2024-10-15T10:46:45.000Z</time>
      </trkpt>
      <trkpt lat="45.09733" lon="5.97234">
        <ele>2450.6000976562</ele>
        <time>2024-10-15T10:46:46.000Z</time>
      </trkpt>
      <trkpt lat="45.09733" lon="5.97233">
        <ele>2450.8000488281</ele>
        <time>2024-10-15T10:46:47.000Z</time>
      </trkpt>
      <trkpt lat="45.09732" lon="5.97233">
        <ele>2450.8000488281</ele>
        <time>2024-10-15T10:46:48.000Z</time>
      </trkpt>
      <trkpt lat="45.09732" lon="5.97232">
        <ele>2450.8000488281</ele>
        <time>2024-10-15T10:46:49.000Z</time>
      </trkpt>
      <trkpt lat="45.09731" lon="5.97231">
        <ele>2451.1999511719</ele>
        <time>2024-10-15T10:46:50.000Z</time>
      </trkpt>
      <trkpt lat="45.09731" lon="5.9723">
        <ele>2451.3999023438</ele>
        <time>2024-10-15T10:46:51.000Z</time>
      </trkpt>
      <trkpt lat="45.09731" lon="5.97229">
        <ele>2451.3999023438</ele>
        <time>2024-10-15T10:46:52.000Z</time>
      </trkpt>
      <trkpt lat="45.0973" lon="5.97228">
        <ele>2451.6000976562</ele>
        <time>2024-10-15T10:46:53.000Z</time>
      </trkpt>
      <trkpt lat="45.0973" lon="5.97227">
        <ele>2451.8000488281</ele>
        <time>2024-10-15T10:46:54.000Z</time>
      </trkpt>
      <trkpt lat="45.09729" lon="5.97226">
        <ele>2452</ele>
        <time>2024-10-15T10:46:55.000Z</time>
      </trkpt>
      <trkpt lat="45.09728" lon="5.97225">
        <ele>2452</ele>
        <time>2024-10-15T10:46:56.000Z</time>
      </trkpt>
      <trkpt lat="45.09727" lon="5.97224">
        <ele>2451.8000488281</ele>
        <time>2024-10-15T10:46:57.000Z</time>
      </trkpt>
      <trkpt lat="45.09727" lon="5.97224">
        <ele>2451.8000488281</ele>
        <time>2024-10-15T10:46:58.000Z</time>
      </trkpt>
      <trkpt lat="45.09726" lon="5.97223">
        <ele>2451.8000488281</ele>
        <time>2024-10-15T10:46:59.000Z</time>
      </trkpt>
      <trkpt lat="45.09726" lon="5.97222">
        <ele>2451.8000488281</ele>
        <time>2024-10-15T10:47:00.000Z</time>
      </trkpt>
      <trkpt lat="45.09725" lon="5.97222">
        <ele>2451.8000488281</ele>
        <time>2024-10-15T10:47:01.000Z</time>
      </trkpt>
      <trkpt lat="45.09725" lon="5.97221">
        <ele>2451.8000488281</ele>
        <time>2024-10-15T10:47:02.000Z</time>
      </trkpt>
      <trkpt lat="45.09724" lon="5.97221">
        <ele>2451.8000488281</ele>
        <time>2024-10-15T10:47:03.000Z</time>
      </trkpt>
      <trkpt lat="45.09724" lon="5.9722">
        <ele>2452.3999023438</ele>
        <time>2024-10-15T10:47:04.000Z</time>
      </trkpt>
      <trkpt lat="45.09724" lon="5.97219">
        <ele>2452.6000976562</ele>
        <time>2024-10-15T10:47:05.000Z</time>
      </trkpt>
      <trkpt lat="45.09724" lon="5.97218">
        <ele>2453</ele>
        <time>2024-10-15T10:47:06.000Z</time>
      </trkpt>
      <trkpt lat="45.09723" lon="5.97218">
        <ele>2453.8000488281</ele>
        <time>2024-10-15T10:47:07.000Z</time>
      </trkpt>
      <trkpt lat="45.09723" lon="5.97216">
        <ele>2454.6000976562</ele>
        <time>2024-10-15T10:47:08.000Z</time>
      </trkpt>
      <trkpt lat="45.09723" lon="5.97215">
        <ele>2455.1999511719</ele>
        <time>2024-10-15T10:47:09.000Z</time>
      </trkpt>
      <trkpt lat="45.09722" lon="5.97214">
        <ele>2455.1999511719</ele>
        <time>2024-10-15T10:47:10.000Z</time>
      </trkpt>
      <trkpt lat="45.09722" lon="5.97213">
        <ele>2455.3999023438</ele>
        <time>2024-10-15T10:47:11.000Z</time>
      </trkpt>
      <trkpt lat="45.09721" lon="5.97213">
        <ele>2455.3999023438</ele>
        <time>2024-10-15T10:47:12.000Z</time>
      </trkpt>
      <trkpt lat="45.09721" lon="5.97212">
        <ele>2455.1999511719</ele>
        <time>2024-10-15T10:47:13.000Z</time>
      </trkpt>
      <trkpt lat="45.0972" lon="5.97212">
        <ele>2455.1999511719</ele>
        <time>2024-10-15T10:47:14.000Z</time>
      </trkpt>
      <trkpt lat="45.0972" lon="5.97211">
        <ele>2455.1999511719</ele>
        <time>2024-10-15T10:47:15.000Z</time>
      </trkpt>
      <trkpt lat="45.09719" lon="5.9721">
        <ele>2455.1999511719</ele>
        <time>2024-10-15T10:47:16.000Z</time>
      </trkpt>
      <trkpt lat="45.09719" lon="5.9721">
        <ele>2455.1999511719</ele>
        <time>2024-10-15T10:47:17.000Z</time>
      </trkpt>
      <trkpt lat="45.09719" lon="5.97209">
        <ele>2455.1999511719</ele>
        <time>2024-10-15T10:47:18.000Z</time>
      </trkpt>
      <trkpt lat="45.09718" lon="5.97208">
        <ele>2455.1999511719</ele>
        <time>2024-10-15T10:47:19.000Z</time>
      </trkpt>
      <trkpt lat="45.09717" lon="5.97207">
        <ele>2455.1999511719</ele>
        <time>2024-10-15T10:47:20.000Z</time>
      </trkpt>
      <trkpt lat="45.09717" lon="5.97207">
        <ele>2455.1999511719</ele>
        <time>2024-10-15T10:47:21.000Z</time>
      </trkpt>
      <trkpt lat="45.09716" lon="5.97206">
        <ele>2455.1999511719</ele>
        <time>2024-10-15T10:47:22.000Z</time>
      </trkpt>
      <trkpt lat="45.09715" lon="5.97206">
        <ele>2455.1999511719</ele>
        <time>2024-10-15T10:47:23.000Z</time>
      </trkpt>
      <trkpt lat="45.09715" lon="5.97205">
        <ele>2455.1999511719</ele>
        <time>2024-10-15T10:47:24.000Z</time>
      </trkpt>
      <trkpt lat="45.09714" lon="5.97204">
        <ele>2455.6000976562</ele>
        <time>2024-10-15T10:47:25.000Z</time>
      </trkpt>
      <trkpt lat="45.09714" lon="5.97204">
        <ele>2455.8000488281</ele>
        <time>2024-10-15T10:47:26.000Z</time>
      </trkpt>
      <trkpt lat="45.09713" lon="5.97204">
        <ele>2455.8000488281</ele>
        <time>2024-10-15T10:47:27.000Z</time>
      </trkpt>
      <trkpt lat="45.09712" lon="5.97204">
        <ele>2455.8000488281</ele>
        <time>2024-10-15T10:47:28.000Z</time>
      </trkpt>
      <trkpt lat="45.09711" lon="5.97203">
        <ele>2455.6000976562</ele>
        <time>2024-10-15T10:47:29.000Z</time>
      </trkpt>
      <trkpt lat="45.0971" lon="5.97203">
        <ele>2454.8000488281</ele>
        <time>2024-10-15T10:47:30.000Z</time>
      </trkpt>
      <trkpt lat="45.09709" lon="5.97202">
        <ele>2454.3999023438</ele>
        <time>2024-10-15T10:47:31.000Z</time>
      </trkpt>
      <trkpt lat="45.09709" lon="5.97201">
        <ele>2454.3999023438</ele>
        <time>2024-10-15T10:47:32.000Z</time>
      </trkpt>
      <trkpt lat="45.09708" lon="5.97201">
        <ele>2454.3999023438</ele>
        <time>2024-10-15T10:47:33.000Z</time>
      </trkpt>
      <trkpt lat="45.09708" lon="5.972">
        <ele>2454.3999023438</ele>
        <time>2024-10-15T10:47:34.000Z</time>
      </trkpt>
      <trkpt lat="45.09707" lon="5.97199">
        <ele>2454.6000976562</ele>
        <time>2024-10-15T10:47:35.000Z</time>
      </trkpt>
      <trkpt lat="45.09707" lon="5.97199">
        <ele>2454.8000488281</ele>
        <time>2024-10-15T10:47:36.000Z</time>
      </trkpt>
      <trkpt lat="45.09706" lon="5.97198">
        <ele>2455</ele>
        <time>2024-10-15T10:47:37.000Z</time>
      </trkpt>
      <trkpt lat="45.09705" lon="5.97198">
        <ele>2456.1999511719</ele>
        <time>2024-10-15T10:47:38.000Z</time>
      </trkpt>
      <trkpt lat="45.09705" lon="5.97197">
        <ele>2456.3999023438</ele>
        <time>2024-10-15T10:47:39.000Z</time>
      </trkpt>
      <trkpt lat="45.09705" lon="5.97197">
        <ele>2456.3999023438</ele>
        <time>2024-10-15T10:47:40.000Z</time>
      </trkpt>
      <trkpt lat="45.09705" lon="5.97197">
        <ele>2456.3999023438</ele>
        <time>2024-10-15T10:47:41.000Z</time>
      </trkpt>
      <trkpt lat="45.09705" lon="5.97197">
        <ele>2456.3999023438</ele>
        <time>2024-10-15T10:47:42.000Z</time>
      </trkpt>
      <trkpt lat="45.09704" lon="5.97197">
        <ele>2456.1999511719</ele>
        <time>2024-10-15T10:47:43.000Z</time>
      </trkpt>
      <trkpt lat="45.09704" lon="5.97197">
        <ele>2456.1999511719</ele>
        <time>2024-10-15T10:47:44.000Z</time>
      </trkpt>
      <trkpt lat="45.09703" lon="5.97196">
        <ele>2456</ele>
        <time>2024-10-15T10:47:45.000Z</time>
      </trkpt>
      <trkpt lat="45.09703" lon="5.97196">
        <ele>2456</ele>
        <time>2024-10-15T10:47:46.000Z</time>
      </trkpt>
      <trkpt lat="45.09703" lon="5.97196">
        <ele>2456</ele>
        <time>2024-10-15T10:47:47.000Z</time>
      </trkpt>
      <trkpt lat="45.09703" lon="5.97195">
        <ele>2456</ele>
        <time>2024-10-15T10:47:48.000Z</time>
      </trkpt>
      <trkpt lat="45.09703" lon="5.97195">
        <ele>2455.6000976562</ele>
        <time>2024-10-15T10:47:49.000Z</time>
      </trkpt>
      <trkpt lat="45.09703" lon="5.97195">
        <ele>2455.3999023438</ele>
        <time>2024-10-15T10:47:50.000Z</time>
      </trkpt>
      <trkpt lat="45.09702" lon="5.97195">
        <ele>2455.1999511719</ele>
        <time>2024-10-15T10:47:51.000Z</time>
      </trkpt>
      <trkpt lat="45.09702" lon="5.97195">
        <ele>2455</ele>
        <time>2024-10-15T10:47:52.000Z</time>
      </trkpt>
      <trkpt lat="45.09702" lon="5.97195">
        <ele>2454.8000488281</ele>
        <time>2024-10-15T10:47:53.000Z</time>
      </trkpt>
      <trkpt lat="45.09702" lon="5.97195">
        <ele>2454.6000976562</ele>
        <time>2024-10-15T10:47:54.000Z</time>
      </trkpt>
      <trkpt lat="45.09702" lon="5.97195">
        <ele>2454.6000976562</ele>
        <time>2024-10-15T10:47:55.000Z</time>
      </trkpt>
      <trkpt lat="45.09701" lon="5.97195">
        <ele>2454.3999023438</ele>
        <time>2024-10-15T10:47:56.000Z</time>
      </trkpt>
      <trkpt lat="45.09701" lon="5.97194">
        <ele>2454.1999511719</ele>
        <time>2024-10-15T10:47:57.000Z</time>
      </trkpt>
      <trkpt lat="45.09701" lon="5.97194">
        <ele>2454</ele>
        <time>2024-10-15T10:47:58.000Z</time>
      </trkpt>
      <trkpt lat="45.09701" lon="5.97194">
        <ele>2453.3999023438</ele>
        <time>2024-10-15T10:47:59.000Z</time>
      </trkpt>
      <trkpt lat="45.097" lon="5.97194">
        <ele>2453.1999511719</ele>
        <time>2024-10-15T10:48:00.000Z</time>
      </trkpt>
      <trkpt lat="45.09699" lon="5.97193">
        <ele>2453.1999511719</ele>
        <time>2024-10-15T10:48:01.000Z</time>
      </trkpt>
      <trkpt lat="45.09698" lon="5.97193">
        <ele>2453</ele>
        <time>2024-10-15T10:48:02.000Z</time>
      </trkpt>
      <trkpt lat="45.09697" lon="5.97193">
        <ele>2453</ele>
        <time>2024-10-15T10:48:03.000Z</time>
      </trkpt>
      <trkpt lat="45.09696" lon="5.97193">
        <ele>2452.8000488281</ele>
        <time>2024-10-15T10:48:04.000Z</time>
      </trkpt>
      <trkpt lat="45.09695" lon="5.97193">
        <ele>2452.6000976562</ele>
        <time>2024-10-15T10:48:05.000Z</time>
      </trkpt>
      <trkpt lat="45.09694" lon="5.97192">
        <ele>2452.6000976562</ele>
        <time>2024-10-15T10:48:06.000Z</time>
      </trkpt>
      <trkpt lat="45.09694" lon="5.97192">
        <ele>2452.6000976562</ele>
        <time>2024-10-15T10:48:07.000Z</time>
      </trkpt>
      <trkpt lat="45.09693" lon="5.97191">
        <ele>2452.3999023438</ele>
        <time>2024-10-15T10:48:08.000Z</time>
      </trkpt>
      <trkpt lat="45.09693" lon="5.97191">
        <ele>2452.3999023438</ele>
        <time>2024-10-15T10:48:09.000Z</time>
      </trkpt>
      <trkpt lat="45.09693" lon="5.97191">
        <ele>2452.1999511719</ele>
        <time>2024-10-15T10:48:10.000Z</time>
      </trkpt>
      <trkpt lat="45.09693" lon="5.9719">
        <ele>2452.1999511719</ele>
        <time>2024-10-15T10:48:11.000Z</time>
      </trkpt>
      <trkpt lat="45.09693" lon="5.9719">
        <ele>2452.1999511719</ele>
        <time>2024-10-15T10:48:12.000Z</time>
      </trkpt>
      <trkpt lat="45.09693" lon="5.97189">
        <ele>2451.8000488281</ele>
        <time>2024-10-15T10:48:13.000Z</time>
      </trkpt>
      <trkpt lat="45.09692" lon="5.97189">
        <ele>2451.6000976562</ele>
        <time>2024-10-15T10:48:14.000Z</time>
      </trkpt>
      <trkpt lat="45.09692" lon="5.97189">
        <ele>2451.6000976562</ele>
        <time>2024-10-15T10:48:15.000Z</time>
      </trkpt>
      <trkpt lat="45.09691" lon="5.97189">
        <ele>2451.1999511719</ele>
        <time>2024-10-15T10:48:16.000Z</time>
      </trkpt>
      <trkpt lat="45.0969" lon="5.97189">
        <ele>2450.8000488281</ele>
        <time>2024-10-15T10:48:17.000Z</time>
      </trkpt>
      <trkpt lat="45.09689" lon="5.97189">
        <ele>2450.3999023438</ele>
        <time>2024-10-15T10:48:18.000Z</time>
      </trkpt>
      <trkpt lat="45.09687" lon="5.9719">
        <ele>2450.3999023438</ele>
        <time>2024-10-15T10:48:19.000Z</time>
      </trkpt>
      <trkpt lat="45.09687" lon="5.9719">
        <ele>2450.3999023438</ele>
        <time>2024-10-15T10:48:20.000Z</time>
      </trkpt>
      <trkpt lat="45.09686" lon="5.9719">
        <ele>2450.3999023438</ele>
        <time>2024-10-15T10:48:21.000Z</time>
      </trkpt>
      <trkpt lat="45.09685" lon="5.9719">
        <ele>2450.3999023438</ele>
        <time>2024-10-15T10:48:22.000Z</time>
      </trkpt>
      <trkpt lat="45.09685" lon="5.9719">
        <ele>2450.8000488281</ele>
        <time>2024-10-15T10:48:23.000Z</time>
      </trkpt>
      <trkpt lat="45.09684" lon="5.9719">
        <ele>2451</ele>
        <time>2024-10-15T10:48:24.000Z</time>
      </trkpt>
      <trkpt lat="45.09683" lon="5.9719">
        <ele>2451.3999023438</ele>
        <time>2024-10-15T10:48:25.000Z</time>
      </trkpt>
      <trkpt lat="45.09682" lon="5.97189">
        <ele>2451.6000976562</ele>
        <time>2024-10-15T10:48:26.000Z</time>
      </trkpt>
      <trkpt lat="45.09681" lon="5.97189">
        <ele>2451.6000976562</ele>
        <time>2024-10-15T10:48:27.000Z</time>
      </trkpt>
      <trkpt lat="45.0968" lon="5.97189">
        <ele>2451.6000976562</ele>
        <time>2024-10-15T10:48:28.000Z</time>
      </trkpt>
      <trkpt lat="45.09679" lon="5.97189">
        <ele>2451.6000976562</ele>
        <time>2024-10-15T10:48:29.000Z</time>
      </trkpt>
      <trkpt lat="45.09678" lon="5.97188">
        <ele>2451.6000976562</ele>
        <time>2024-10-15T10:48:30.000Z</time>
      </trkpt>
      <trkpt lat="45.09678" lon="5.97187">
        <ele>2451.6000976562</ele>
        <time>2024-10-15T10:48:31.000Z</time>
      </trkpt>
      <trkpt lat="45.09677" lon="5.97187">
        <ele>2451.8000488281</ele>
        <time>2024-10-15T10:48:32.000Z</time>
      </trkpt>
      <trkpt lat="45.09676" lon="5.97187">
        <ele>2451.8000488281</ele>
        <time>2024-10-15T10:48:33.000Z</time>
      </trkpt>
      <trkpt lat="45.09675" lon="5.97186">
        <ele>2451.8000488281</ele>
        <time>2024-10-15T10:48:34.000Z</time>
      </trkpt>
      <trkpt lat="45.09674" lon="5.97186">
        <ele>2451.8000488281</ele>
        <time>2024-10-15T10:48:35.000Z</time>
      </trkpt>
      <trkpt lat="45.09673" lon="5.97187">
        <ele>2451.6000976562</ele>
        <time>2024-10-15T10:48:36.000Z</time>
      </trkpt>
      <trkpt lat="45.09673" lon="5.97187">
        <ele>2451.6000976562</ele>
        <time>2024-10-15T10:48:37.000Z</time>
      </trkpt>
      <trkpt lat="45.09672" lon="5.97187">
        <ele>2451.3999023438</ele>
        <time>2024-10-15T10:48:38.000Z</time>
      </trkpt>
      <trkpt lat="45.09671" lon="5.97188">
        <ele>2451</ele>
        <time>2024-10-15T10:48:39.000Z</time>
      </trkpt>
      <trkpt lat="45.0967" lon="5.97188">
        <ele>2450.8000488281</ele>
        <time>2024-10-15T10:48:40.000Z</time>
      </trkpt>
      <trkpt lat="45.09669" lon="5.97188">
        <ele>2450.6000976562</ele>
        <time>2024-10-15T10:48:41.000Z</time>
      </trkpt>
      <trkpt lat="45.09669" lon="5.97188">
        <ele>2450.3999023438</ele>
        <time>2024-10-15T10:48:42.000Z</time>
      </trkpt>
      <trkpt lat="45.09668" lon="5.97187">
        <ele>2450.1999511719</ele>
        <time>2024-10-15T10:48:43.000Z</time>
      </trkpt>
      <trkpt lat="45.09667" lon="5.97187">
        <ele>2450</ele>
        <time>2024-10-15T10:48:44.000Z</time>
      </trkpt>
      <trkpt lat="45.09667" lon="5.97187">
        <ele>2450</ele>
        <time>2024-10-15T10:48:45.000Z</time>
      </trkpt>
      <trkpt lat="45.09666" lon="5.97187">
        <ele>2450</ele>
        <time>2024-10-15T10:48:46.000Z</time>
      </trkpt>
      <trkpt lat="45.09665" lon="5.97186">
        <ele>2450</ele>
        <time>2024-10-15T10:48:47.000Z</time>
      </trkpt>
      <trkpt lat="45.09664" lon="5.97185">
        <ele>2450.6000976562</ele>
        <time>2024-10-15T10:48:48.000Z</time>
      </trkpt>
      <trkpt lat="45.09664" lon="5.97185">
        <ele>2451.1999511719</ele>
        <time>2024-10-15T10:48:49.000Z</time>
      </trkpt>
      <trkpt lat="45.09663" lon="5.97184">
        <ele>2451.3999023438</ele>
        <time>2024-10-15T10:48:50.000Z</time>
      </trkpt>
      <trkpt lat="45.09662" lon="5.97183">
        <ele>2451.8000488281</ele>
        <time>2024-10-15T10:48:51.000Z</time>
      </trkpt>
      <trkpt lat="45.09661" lon="5.97183">
        <ele>2452</ele>
        <time>2024-10-15T10:48:52.000Z</time>
      </trkpt>
      <trkpt lat="45.0966" lon="5.97182">
        <ele>2452.1999511719</ele>
        <time>2024-10-15T10:48:53.000Z</time>
      </trkpt>
      <trkpt lat="45.09659" lon="5.97182">
        <ele>2452.1999511719</ele>
        <time>2024-10-15T10:48:54.000Z</time>
      </trkpt>
      <trkpt lat="45.09658" lon="5.97181">
        <ele>2452.3999023438</ele>
        <time>2024-10-15T10:48:55.000Z</time>
      </trkpt>
      <trkpt lat="45.09657" lon="5.97181">
        <ele>2452.6000976562</ele>
        <time>2024-10-15T10:48:56.000Z</time>
      </trkpt>
      <trkpt lat="45.09657" lon="5.9718">
        <ele>2452.6000976562</ele>
        <time>2024-10-15T10:48:57.000Z</time>
      </trkpt>
      <trkpt lat="45.09656" lon="5.9718">
        <ele>2452.6000976562</ele>
        <time>2024-10-15T10:48:58.000Z</time>
      </trkpt>
      <trkpt lat="45.09655" lon="5.9718">
        <ele>2452.6000976562</ele>
        <time>2024-10-15T10:48:59.000Z</time>
      </trkpt>
      <trkpt lat="45.09654" lon="5.9718">
        <ele>2452.6000976562</ele>
        <time>2024-10-15T10:49:00.000Z</time>
      </trkpt>
      <trkpt lat="45.09653" lon="5.97179">
        <ele>2452.1999511719</ele>
        <time>2024-10-15T10:49:01.000Z</time>
      </trkpt>
      <trkpt lat="45.09653" lon="5.97179">
        <ele>2452</ele>
        <time>2024-10-15T10:49:02.000Z</time>
      </trkpt>
      <trkpt lat="45.09652" lon="5.9718">
        <ele>2452</ele>
        <time>2024-10-15T10:49:03.000Z</time>
      </trkpt>
      <trkpt lat="45.09651" lon="5.9718">
        <ele>2452</ele>
        <time>2024-10-15T10:49:04.000Z</time>
      </trkpt>
      <trkpt lat="45.0965" lon="5.97179">
        <ele>2452.1999511719</ele>
        <time>2024-10-15T10:49:05.000Z</time>
      </trkpt>
      <trkpt lat="45.09649" lon="5.97179">
        <ele>2452.6000976562</ele>
        <time>2024-10-15T10:49:06.000Z</time>
      </trkpt>
      <trkpt lat="45.09649" lon="5.97178">
        <ele>2453.6000976562</ele>
        <time>2024-10-15T10:49:07.000Z</time>
      </trkpt>
      <trkpt lat="45.09648" lon="5.97178">
        <ele>2454.3999023438</ele>
        <time>2024-10-15T10:49:08.000Z</time>
      </trkpt>
      <trkpt lat="45.09648" lon="5.97178">
        <ele>2454.3999023438</ele>
        <time>2024-10-15T10:49:09.000Z</time>
      </trkpt>
      <trkpt lat="45.09647" lon="5.97178">
        <ele>2454.3999023438</ele>
        <time>2024-10-15T10:49:10.000Z</time>
      </trkpt>
      <trkpt lat="45.09646" lon="5.97178">
        <ele>2454.3999023438</ele>
        <time>2024-10-15T10:49:11.000Z</time>
      </trkpt>
      <trkpt lat="45.09645" lon="5.97178">
        <ele>2454.3999023438</ele>
        <time>2024-10-15T10:49:12.000Z</time>
      </trkpt>
      <trkpt lat="45.09644" lon="5.97178">
        <ele>2454.3999023438</ele>
        <time>2024-10-15T10:49:13.000Z</time>
      </trkpt>
      <trkpt lat="45.09644" lon="5.97178">
        <ele>2454.1999511719</ele>
        <time>2024-10-15T10:49:14.000Z</time>
      </trkpt>
      <trkpt lat="45.09643" lon="5.97178">
        <ele>2454.1999511719</ele>
        <time>2024-10-15T10:49:15.000Z</time>
      </trkpt>
      <trkpt lat="45.09642" lon="5.97178">
        <ele>2454.8000488281</ele>
        <time>2024-10-15T10:49:16.000Z</time>
      </trkpt>
      <trkpt lat="45.09641" lon="5.97178">
        <ele>2454.8000488281</ele>
        <time>2024-10-15T10:49:17.000Z</time>
      </trkpt>
      <trkpt lat="45.0964" lon="5.97177">
        <ele>2455</ele>
        <time>2024-10-15T10:49:18.000Z</time>
      </trkpt>
      <trkpt lat="45.09639" lon="5.97177">
        <ele>2455.3999023438</ele>
        <time>2024-10-15T10:49:19.000Z</time>
      </trkpt>
      <trkpt lat="45.09638" lon="5.97177">
        <ele>2455.8000488281</ele>
        <time>2024-10-15T10:49:20.000Z</time>
      </trkpt>
      <trkpt lat="45.09637" lon="5.97177">
        <ele>2455.8000488281</ele>
        <time>2024-10-15T10:49:21.000Z</time>
      </trkpt>
      <trkpt lat="45.09637" lon="5.97177">
        <ele>2456</ele>
        <time>2024-10-15T10:49:22.000Z</time>
      </trkpt>
      <trkpt lat="45.09636" lon="5.97177">
        <ele>2456.6000976562</ele>
        <time>2024-10-15T10:49:23.000Z</time>
      </trkpt>
      <trkpt lat="45.09636" lon="5.97177">
        <ele>2456.8000488281</ele>
        <time>2024-10-15T10:49:24.000Z</time>
      </trkpt>
      <trkpt lat="45.09635" lon="5.97177">
        <ele>2456.8000488281</ele>
        <time>2024-10-15T10:49:25.000Z</time>
      </trkpt>
      <trkpt lat="45.09635" lon="5.97177">
        <ele>2456.8000488281</ele>
        <time>2024-10-15T10:49:26.000Z</time>
      </trkpt>
      <trkpt lat="45.09635" lon="5.97176">
        <ele>2456.6000976562</ele>
        <time>2024-10-15T10:49:27.000Z</time>
      </trkpt>
      <trkpt lat="45.09635" lon="5.97176">
        <ele>2456.6000976562</ele>
        <time>2024-10-15T10:49:28.000Z</time>
      </trkpt>
      <trkpt lat="45.09635" lon="5.97176">
        <ele>2456.6000976562</ele>
        <time>2024-10-15T10:49:29.000Z</time>
      </trkpt>
      <trkpt lat="45.09635" lon="5.97176">
        <ele>2456.6000976562</ele>
        <time>2024-10-15T10:49:30.000Z</time>
      </trkpt>
      <trkpt lat="45.09635" lon="5.97176">
        <ele>2456.6000976562</ele>
        <time>2024-10-15T10:49:31.000Z</time>
      </trkpt>
      <trkpt lat="45.09635" lon="5.97176">
        <ele>2456.6000976562</ele>
        <time>2024-10-15T10:49:32.000Z</time>
      </trkpt>
      <trkpt lat="45.09635" lon="5.97176">
        <ele>2456.8000488281</ele>
        <time>2024-10-15T10:49:33.000Z</time>
      </trkpt>
      <trkpt lat="45.09635" lon="5.97176">
        <ele>2456.8000488281</ele>
        <time>2024-10-15T10:49:34.000Z</time>
      </trkpt>
      <trkpt lat="45.09635" lon="5.97176">
        <ele>2456.8000488281</ele>
        <time>2024-10-15T10:49:35.000Z</time>
      </trkpt>
      <trkpt lat="45.09635" lon="5.97176">
        <ele>2456.8000488281</ele>
        <time>2024-10-15T10:49:36.000Z</time>
      </trkpt>
      <trkpt lat="45.09635" lon="5.97176">
        <ele>2456.6000976562</ele>
        <time>2024-10-15T10:49:37.000Z</time>
      </trkpt>
      <trkpt lat="45.09635" lon="5.97176">
        <ele>2456.6000976562</ele>
        <time>2024-10-15T10:49:38.000Z</time>
      </trkpt>
      <trkpt lat="45.09635" lon="5.97176">
        <ele>2456</ele>
        <time>2024-10-15T10:49:39.000Z</time>
      </trkpt>
      <trkpt lat="45.09635" lon="5.97176">
        <ele>2456</ele>
        <time>2024-10-15T10:49:40.000Z</time>
      </trkpt>
      <trkpt lat="45.09635" lon="5.97176">
        <ele>2456</ele>
        <time>2024-10-15T10:49:41.000Z</time>
      </trkpt>
      <trkpt lat="45.09635" lon="5.97176">
        <ele>2456</ele>
        <time>2024-10-15T10:49:42.000Z</time>
      </trkpt>
      <trkpt lat="45.09635" lon="5.97176">
        <ele>2456.1999511719</ele>
        <time>2024-10-15T10:49:43.000Z</time>
      </trkpt>
      <trkpt lat="45.09635" lon="5.97176">
        <ele>2457</ele>
        <time>2024-10-15T10:49:44.000Z</time>
      </trkpt>
      <trkpt lat="45.09635" lon="5.97176">
        <ele>2458</ele>
        <time>2024-10-15T10:49:45.000Z</time>
      </trkpt>
      <trkpt lat="45.09635" lon="5.97176">
        <ele>2458.1999511719</ele>
        <time>2024-10-15T10:49:46.000Z</time>
      </trkpt>
      <trkpt lat="45.09635" lon="5.97176">
        <ele>2458.3999023438</ele>
        <time>2024-10-15T10:49:47.000Z</time>
      </trkpt>
      <trkpt lat="45.09635" lon="5.97176">
        <ele>2458.3999023438</ele>
        <time>2024-10-15T10:49:48.000Z</time>
      </trkpt>
      <trkpt lat="45.09635" lon="5.97176">
        <ele>2458.3999023438</ele>
        <time>2024-10-15T10:49:49.000Z</time>
      </trkpt>
      <trkpt lat="45.09635" lon="5.97176">
        <ele>2458.1999511719</ele>
        <time>2024-10-15T10:49:50.000Z</time>
      </trkpt>
      <trkpt lat="45.09635" lon="5.97176">
        <ele>2458.3999023438</ele>
        <time>2024-10-15T10:49:51.000Z</time>
      </trkpt>
      <trkpt lat="45.09635" lon="5.97175">
        <ele>2458.1999511719</ele>
        <time>2024-10-15T10:49:52.000Z</time>
      </trkpt>
      <trkpt lat="45.09635" lon="5.97175">
        <ele>2458.1999511719</ele>
        <time>2024-10-15T10:49:53.000Z</time>
      </trkpt>
      <trkpt lat="45.09635" lon="5.97175">
        <ele>2458.1999511719</ele>
        <time>2024-10-15T10:49:54.000Z</time>
      </trkpt>
      <trkpt lat="45.09635" lon="5.97175">
        <ele>2458.1999511719</ele>
        <time>2024-10-15T10:49:55.000Z</time>
      </trkpt>
      <trkpt lat="45.09635" lon="5.97175">
        <ele>2458.1999511719</ele>
        <time>2024-10-15T10:49:56.000Z</time>
      </trkpt>
      <trkpt lat="45.09635" lon="5.97175">
        <ele>2458.1999511719</ele>
        <time>2024-10-15T10:49:57.000Z</time>
      </trkpt>
      <trkpt lat="45.09635" lon="5.97175">
        <ele>2458</ele>
        <time>2024-10-15T10:49:58.000Z</time>
      </trkpt>
      <trkpt lat="45.09635" lon="5.97175">
        <ele>2457.6000976562</ele>
        <time>2024-10-15T10:49:59.000Z</time>
      </trkpt>
      <trkpt lat="45.09635" lon="5.97175">
        <ele>2457</ele>
        <time>2024-10-15T10:50:00.000Z</time>
      </trkpt>
      <trkpt lat="45.09635" lon="5.97174">
        <ele>2457</ele>
        <time>2024-10-15T10:50:01.000Z</time>
      </trkpt>
      <trkpt lat="45.09634" lon="5.97174">
        <ele>2456.8000488281</ele>
        <time>2024-10-15T10:50:02.000Z</time>
      </trkpt>
      <trkpt lat="45.09634" lon="5.97173">
        <ele>2456.8000488281</ele>
        <time>2024-10-15T10:50:03.000Z</time>
      </trkpt>
      <trkpt lat="45.09633" lon="5.97173">
        <ele>2457</ele>
        <time>2024-10-15T10:50:04.000Z</time>
      </trkpt>
      <trkpt lat="45.09633" lon="5.97173">
        <ele>2457.1999511719</ele>
        <time>2024-10-15T10:50:05.000Z</time>
      </trkpt>
      <trkpt lat="45.09632" lon="5.97172">
        <ele>2458.1999511719</ele>
        <time>2024-10-15T10:50:06.000Z</time>
      </trkpt>
      <trkpt lat="45.09632" lon="5.97172">
        <ele>2458.6000976562</ele>
        <time>2024-10-15T10:50:07.000Z</time>
      </trkpt>
      <trkpt lat="45.09631" lon="5.97172">
        <ele>2459.1999511719</ele>
        <time>2024-10-15T10:50:08.000Z</time>
      </trkpt>
      <trkpt lat="45.0963" lon="5.97172">
        <ele>2459.6000976562</ele>
        <time>2024-10-15T10:50:09.000Z</time>
      </trkpt>
      <trkpt lat="45.0963" lon="5.97172">
        <ele>2460</ele>
        <time>2024-10-15T10:50:10.000Z</time>
      </trkpt>
      <trkpt lat="45.09629" lon="5.97173">
        <ele>2460.1999511719</ele>
        <time>2024-10-15T10:50:11.000Z</time>
      </trkpt>
      <trkpt lat="45.09628" lon="5.97173">
        <ele>2460.3999023438</ele>
        <time>2024-10-15T10:50:12.000Z</time>
      </trkpt>
      <trkpt lat="45.09627" lon="5.97173">
        <ele>2460.8000488281</ele>
        <time>2024-10-15T10:50:13.000Z</time>
      </trkpt>
      <trkpt lat="45.09627" lon="5.97173">
        <ele>2461</ele>
        <time>2024-10-15T10:50:14.000Z</time>
      </trkpt>
      <trkpt lat="45.09626" lon="5.97173">
        <ele>2461.1999511719</ele>
        <time>2024-10-15T10:50:15.000Z</time>
      </trkpt>
      <trkpt lat="45.09625" lon="5.97172">
        <ele>2461.3999023438</ele>
        <time>2024-10-15T10:50:16.000Z</time>
      </trkpt>
      <trkpt lat="45.09624" lon="5.97172">
        <ele>2461.3999023438</ele>
        <time>2024-10-15T10:50:17.000Z</time>
      </trkpt>
      <trkpt lat="45.09623" lon="5.97172">
        <ele>2461.3999023438</ele>
        <time>2024-10-15T10:50:18.000Z</time>
      </trkpt>
      <trkpt lat="45.09623" lon="5.97172">
        <ele>2461.3999023438</ele>
        <time>2024-10-15T10:50:19.000Z</time>
      </trkpt>
      <trkpt lat="45.09622" lon="5.97172">
        <ele>2461</ele>
        <time>2024-10-15T10:50:20.000Z</time>
      </trkpt>
      <trkpt lat="45.09621" lon="5.97172">
        <ele>2460.8000488281</ele>
        <time>2024-10-15T10:50:21.000Z</time>
      </trkpt>
      <trkpt lat="45.0962" lon="5.97172">
        <ele>2460.6000976562</ele>
        <time>2024-10-15T10:50:22.000Z</time>
      </trkpt>
      <trkpt lat="45.09619" lon="5.97172">
        <ele>2460.6000976562</ele>
        <time>2024-10-15T10:50:23.000Z</time>
      </trkpt>
      <trkpt lat="45.09617" lon="5.97172">
        <ele>2460.3999023438</ele>
        <time>2024-10-15T10:50:24.000Z</time>
      </trkpt>
      <trkpt lat="45.09617" lon="5.97172">
        <ele>2460.3999023438</ele>
        <time>2024-10-15T10:50:25.000Z</time>
      </trkpt>
      <trkpt lat="45.09616" lon="5.97172">
        <ele>2460.3999023438</ele>
        <time>2024-10-15T10:50:26.000Z</time>
      </trkpt>
      <trkpt lat="45.09615" lon="5.97172">
        <ele>2460.1999511719</ele>
        <time>2024-10-15T10:50:27.000Z</time>
      </trkpt>
      <trkpt lat="45.09614" lon="5.97172">
        <ele>2460</ele>
        <time>2024-10-15T10:50:28.000Z</time>
      </trkpt>
      <trkpt lat="45.09613" lon="5.97172">
        <ele>2460</ele>
        <time>2024-10-15T10:50:29.000Z</time>
      </trkpt>
      <trkpt lat="45.09613" lon="5.97172">
        <ele>2459.8000488281</ele>
        <time>2024-10-15T10:50:30.000Z</time>
      </trkpt>
      <trkpt lat="45.09612" lon="5.97173">
        <ele>2459.6000976562</ele>
        <time>2024-10-15T10:50:31.000Z</time>
      </trkpt>
      <trkpt lat="45.09611" lon="5.97173">
        <ele>2459.3999023438</ele>
        <time>2024-10-15T10:50:32.000Z</time>
      </trkpt>
      <trkpt lat="45.0961" lon="5.97173">
        <ele>2459.3999023438</ele>
        <time>2024-10-15T10:50:33.000Z</time>
      </trkpt>
      <trkpt lat="45.09609" lon="5.97173">
        <ele>2459.1999511719</ele>
        <time>2024-10-15T10:50:34.000Z</time>
      </trkpt>
      <trkpt lat="45.09609" lon="5.97173">
        <ele>2459.1999511719</ele>
        <time>2024-10-15T10:50:35.000Z</time>
      </trkpt>
      <trkpt lat="45.09608" lon="5.97173">
        <ele>2459.1999511719</ele>
        <time>2024-10-15T10:50:36.000Z</time>
      </trkpt>
      <trkpt lat="45.09608" lon="5.97172">
        <ele>2459</ele>
        <time>2024-10-15T10:50:37.000Z</time>
      </trkpt>
      <trkpt lat="45.09608" lon="5.97172">
        <ele>2458.8000488281</ele>
        <time>2024-10-15T10:50:38.000Z</time>
      </trkpt>
      <trkpt lat="45.09608" lon="5.97172">
        <ele>2458.6000976562</ele>
        <time>2024-10-15T10:50:39.000Z</time>
      </trkpt>
      <trkpt lat="45.09608" lon="5.97172">
        <ele>2458.1999511719</ele>
        <time>2024-10-15T10:50:40.000Z</time>
      </trkpt>
      <trkpt lat="45.09608" lon="5.97172">
        <ele>2457.6000976562</ele>
        <time>2024-10-15T10:50:41.000Z</time>
      </trkpt>
      <trkpt lat="45.09608" lon="5.97173">
        <ele>2457.6000976562</ele>
        <time>2024-10-15T10:50:42.000Z</time>
      </trkpt>
      <trkpt lat="45.09608" lon="5.97173">
        <ele>2457.6000976562</ele>
        <time>2024-10-15T10:50:43.000Z</time>
      </trkpt>
      <trkpt lat="45.09608" lon="5.97173">
        <ele>2457.6000976562</ele>
        <time>2024-10-15T10:50:44.000Z</time>
      </trkpt>
      <trkpt lat="45.09608" lon="5.97172">
        <ele>2457.3999023438</ele>
        <time>2024-10-15T10:50:45.000Z</time>
      </trkpt>
      <trkpt lat="45.09607" lon="5.97172">
        <ele>2457.3999023438</ele>
        <time>2024-10-15T10:50:46.000Z</time>
      </trkpt>
      <trkpt lat="45.09607" lon="5.97173">
        <ele>2457.3999023438</ele>
        <time>2024-10-15T10:50:47.000Z</time>
      </trkpt>
      <trkpt lat="45.09605" lon="5.97173">
        <ele>2457.6000976562</ele>
        <time>2024-10-15T10:50:48.000Z</time>
      </trkpt>
      <trkpt lat="45.09604" lon="5.97173">
        <ele>2457.8000488281</ele>
        <time>2024-10-15T10:50:49.000Z</time>
      </trkpt>
      <trkpt lat="45.09603" lon="5.97173">
        <ele>2457.6000976562</ele>
        <time>2024-10-15T10:50:50.000Z</time>
      </trkpt>
      <trkpt lat="45.09602" lon="5.97173">
        <ele>2457.8000488281</ele>
        <time>2024-10-15T10:50:51.000Z</time>
      </trkpt>
      <trkpt lat="45.09601" lon="5.97173">
        <ele>2457.8000488281</ele>
        <time>2024-10-15T10:50:52.000Z</time>
      </trkpt>
      <trkpt lat="45.096" lon="5.97172">
        <ele>2458</ele>
        <time>2024-10-15T10:50:53.000Z</time>
      </trkpt>
      <trkpt lat="45.09599" lon="5.97172">
        <ele>2458.1999511719</ele>
        <time>2024-10-15T10:50:54.000Z</time>
      </trkpt>
      <trkpt lat="45.09598" lon="5.97172">
        <ele>2458.1999511719</ele>
        <time>2024-10-15T10:50:55.000Z</time>
      </trkpt>
      <trkpt lat="45.09597" lon="5.97172">
        <ele>2458.1999511719</ele>
        <time>2024-10-15T10:50:56.000Z</time>
      </trkpt>
      <trkpt lat="45.09596" lon="5.97171">
        <ele>2458.1999511719</ele>
        <time>2024-10-15T10:50:57.000Z</time>
      </trkpt>
      <trkpt lat="45.09596" lon="5.97171">
        <ele>2458</ele>
        <time>2024-10-15T10:50:58.000Z</time>
      </trkpt>
      <trkpt lat="45.09595" lon="5.9717">
        <ele>2457.8000488281</ele>
        <time>2024-10-15T10:50:59.000Z</time>
      </trkpt>
      <trkpt lat="45.09594" lon="5.9717">
        <ele>2457.8000488281</ele>
        <time>2024-10-15T10:51:00.000Z</time>
      </trkpt>
      <trkpt lat="45.09593" lon="5.97169">
        <ele>2457.6000976562</ele>
        <time>2024-10-15T10:51:01.000Z</time>
      </trkpt>
      <trkpt lat="45.09592" lon="5.97169">
        <ele>2457.6000976562</ele>
        <time>2024-10-15T10:51:02.000Z</time>
      </trkpt>
      <trkpt lat="45.09591" lon="5.97169">
        <ele>2457.6000976562</ele>
        <time>2024-10-15T10:51:03.000Z</time>
      </trkpt>
      <trkpt lat="45.0959" lon="5.97169">
        <ele>2457.3999023438</ele>
        <time>2024-10-15T10:51:04.000Z</time>
      </trkpt>
      <trkpt lat="45.09589" lon="5.97168">
        <ele>2457.6000976562</ele>
        <time>2024-10-15T10:51:05.000Z</time>
      </trkpt>
      <trkpt lat="45.09589" lon="5.97168">
        <ele>2457.6000976562</ele>
        <time>2024-10-15T10:51:06.000Z</time>
      </trkpt>
      <trkpt lat="45.09589" lon="5.97168">
        <ele>2457.6000976562</ele>
        <time>2024-10-15T10:51:07.000Z</time>
      </trkpt>
      <trkpt lat="45.09589" lon="5.97168">
        <ele>2457.6000976562</ele>
        <time>2024-10-15T10:51:08.000Z</time>
      </trkpt>
      <trkpt lat="45.09589" lon="5.97168">
        <ele>2457.8000488281</ele>
        <time>2024-10-15T10:51:09.000Z</time>
      </trkpt>
      <trkpt lat="45.09589" lon="5.97168">
        <ele>2457.8000488281</ele>
        <time>2024-10-15T10:51:10.000Z</time>
      </trkpt>
      <trkpt lat="45.09589" lon="5.97168">
        <ele>2458</ele>
        <time>2024-10-15T10:51:11.000Z</time>
      </trkpt>
      <trkpt lat="45.09589" lon="5.97168">
        <ele>2458</ele>
        <time>2024-10-15T10:51:12.000Z</time>
      </trkpt>
      <trkpt lat="45.09589" lon="5.97168">
        <ele>2458</ele>
        <time>2024-10-15T10:51:13.000Z</time>
      </trkpt>
      <trkpt lat="45.09589" lon="5.97168">
        <ele>2457.8000488281</ele>
        <time>2024-10-15T10:51:14.000Z</time>
      </trkpt>
      <trkpt lat="45.09588" lon="5.97168">
        <ele>2457.8000488281</ele>
        <time>2024-10-15T10:51:15.000Z</time>
      </trkpt>
      <trkpt lat="45.09588" lon="5.97168">
        <ele>2457.8000488281</ele>
        <time>2024-10-15T10:51:16.000Z</time>
      </trkpt>
      <trkpt lat="45.09588" lon="5.97168">
        <ele>2457.6000976562</ele>
        <time>2024-10-15T10:51:17.000Z</time>
      </trkpt>
      <trkpt lat="45.09588" lon="5.97168">
        <ele>2457.3999023438</ele>
        <time>2024-10-15T10:51:18.000Z</time>
      </trkpt>
      <trkpt lat="45.09588" lon="5.97168">
        <ele>2457.3999023438</ele>
        <time>2024-10-15T10:51:19.000Z</time>
      </trkpt>
      <trkpt lat="45.09588" lon="5.97168">
        <ele>2457.3999023438</ele>
        <time>2024-10-15T10:51:20.000Z</time>
      </trkpt>
      <trkpt lat="45.09588" lon="5.97168">
        <ele>2457.3999023438</ele>
        <time>2024-10-15T10:51:21.000Z</time>
      </trkpt>
      <trkpt lat="45.09588" lon="5.97168">
        <ele>2457.3999023438</ele>
        <time>2024-10-15T10:51:22.000Z</time>
      </trkpt>
      <trkpt lat="45.09588" lon="5.97168">
        <ele>2457.3999023438</ele>
        <time>2024-10-15T10:51:23.000Z</time>
      </trkpt>
      <trkpt lat="45.09588" lon="5.97168">
        <ele>2457.3999023438</ele>
        <time>2024-10-15T10:51:24.000Z</time>
      </trkpt>
      <trkpt lat="45.09588" lon="5.97168">
        <ele>2457.3999023438</ele>
        <time>2024-10-15T10:51:25.000Z</time>
      </trkpt>
      <trkpt lat="45.09588" lon="5.97168">
        <ele>2457.3999023438</ele>
        <time>2024-10-15T10:51:26.000Z</time>
      </trkpt>
      <trkpt lat="45.09588" lon="5.97168">
        <ele>2457.3999023438</ele>
        <time>2024-10-15T10:51:27.000Z</time>
      </trkpt>
      <trkpt lat="45.09587" lon="5.97166">
        <ele>2457.3999023438</ele>
        <time>2024-10-15T10:51:28.000Z</time>
      </trkpt>
      <trkpt lat="45.09587" lon="5.97164">
        <ele>2457.1999511719</ele>
        <time>2024-10-15T10:51:29.000Z</time>
      </trkpt>
      <trkpt lat="45.09586" lon="5.97163">
        <ele>2456.6000976562</ele>
        <time>2024-10-15T10:51:30.000Z</time>
      </trkpt>
      <trkpt lat="45.09585" lon="5.97161">
        <ele>2456.3999023438</ele>
        <time>2024-10-15T10:51:31.000Z</time>
      </trkpt>
      <trkpt lat="45.09584" lon="5.9716">
        <ele>2456.1999511719</ele>
        <time>2024-10-15T10:51:32.000Z</time>
      </trkpt>
      <trkpt lat="45.09583" lon="5.97158">
        <ele>2456.1999511719</ele>
        <time>2024-10-15T10:51:33.000Z</time>
      </trkpt>
      <trkpt lat="45.09582" lon="5.97157">
        <ele>2455.8000488281</ele>
        <time>2024-10-15T10:51:34.000Z</time>
      </trkpt>
      <trkpt lat="45.09581" lon="5.97156">
        <ele>2455.6000976562</ele>
        <time>2024-10-15T10:51:35.000Z</time>
      </trkpt>
      <trkpt lat="45.09581" lon="5.97154">
        <ele>2455.3999023438</ele>
        <time>2024-10-15T10:51:36.000Z</time>
      </trkpt>
      <trkpt lat="45.09581" lon="5.97152">
        <ele>2455.1999511719</ele>
        <time>2024-10-15T10:51:37.000Z</time>
      </trkpt>
      <trkpt lat="45.09581" lon="5.97151">
        <ele>2455.1999511719</ele>
        <time>2024-10-15T10:51:38.000Z</time>
      </trkpt>
      <trkpt lat="45.09581" lon="5.9715">
        <ele>2455</ele>
        <time>2024-10-15T10:51:39.000Z</time>
      </trkpt>
      <trkpt lat="45.0958" lon="5.97148">
        <ele>2455</ele>
        <time>2024-10-15T10:51:40.000Z</time>
      </trkpt>
      <trkpt lat="45.0958" lon="5.97147">
        <ele>2455</ele>
        <time>2024-10-15T10:51:41.000Z</time>
      </trkpt>
      <trkpt lat="45.0958" lon="5.97144">
        <ele>2454.8000488281</ele>
        <time>2024-10-15T10:51:42.000Z</time>
      </trkpt>
      <trkpt lat="45.0958" lon="5.97143">
        <ele>2454.8000488281</ele>
        <time>2024-10-15T10:51:43.000Z</time>
      </trkpt>
      <trkpt lat="45.0958" lon="5.97142">
        <ele>2454.6000976562</ele>
        <time>2024-10-15T10:51:44.000Z</time>
      </trkpt>
      <trkpt lat="45.0958" lon="5.9714">
        <ele>2454.3999023438</ele>
        <time>2024-10-15T10:51:45.000Z</time>
      </trkpt>
      <trkpt lat="45.09579" lon="5.97139">
        <ele>2454.1999511719</ele>
        <time>2024-10-15T10:51:46.000Z</time>
      </trkpt>
      <trkpt lat="45.09578" lon="5.97137">
        <ele>2453.8000488281</ele>
        <time>2024-10-15T10:51:47.000Z</time>
      </trkpt>
      <trkpt lat="45.09577" lon="5.97137">
        <ele>2453.8000488281</ele>
        <time>2024-10-15T10:51:48.000Z</time>
      </trkpt>
      <trkpt lat="45.09577" lon="5.97136">
        <ele>2453.8000488281</ele>
        <time>2024-10-15T10:51:49.000Z</time>
      </trkpt>
      <trkpt lat="45.09577" lon="5.97136">
        <ele>2453.8000488281</ele>
        <time>2024-10-15T10:51:50.000Z</time>
      </trkpt>
      <trkpt lat="45.09576" lon="5.97136">
        <ele>2453.6000976562</ele>
        <time>2024-10-15T10:51:51.000Z</time>
      </trkpt>
      <trkpt lat="45.09575" lon="5.97136">
        <ele>2453.6000976562</ele>
        <time>2024-10-15T10:51:52.000Z</time>
      </trkpt>
      <trkpt lat="45.09574" lon="5.97136">
        <ele>2453.6000976562</ele>
        <time>2024-10-15T10:51:53.000Z</time>
      </trkpt>
      <trkpt lat="45.09574" lon="5.97136">
        <ele>2453.6000976562</ele>
        <time>2024-10-15T10:51:54.000Z</time>
      </trkpt>
      <trkpt lat="45.09573" lon="5.97135">
        <ele>2453.6000976562</ele>
        <time>2024-10-15T10:51:55.000Z</time>
      </trkpt>
      <trkpt lat="45.09573" lon="5.97135">
        <ele>2453.1999511719</ele>
        <time>2024-10-15T10:51:56.000Z</time>
      </trkpt>
      <trkpt lat="45.09573" lon="5.97135">
        <ele>2453.1999511719</ele>
        <time>2024-10-15T10:51:57.000Z</time>
      </trkpt>
      <trkpt lat="45.09573" lon="5.97133">
        <ele>2452.8000488281</ele>
        <time>2024-10-15T10:51:58.000Z</time>
      </trkpt>
      <trkpt lat="45.09572" lon="5.97133">
        <ele>2452.6000976562</ele>
        <time>2024-10-15T10:51:59.000Z</time>
      </trkpt>
      <trkpt lat="45.09572" lon="5.97132">
        <ele>2452.3999023438</ele>
        <time>2024-10-15T10:52:00.000Z</time>
      </trkpt>
      <trkpt lat="45.09572" lon="5.97132">
        <ele>2452.3999023438</ele>
        <time>2024-10-15T10:52:01.000Z</time>
      </trkpt>
      <trkpt lat="45.09572" lon="5.97132">
        <ele>2452.3999023438</ele>
        <time>2024-10-15T10:52:02.000Z</time>
      </trkpt>
      <trkpt lat="45.09572" lon="5.97132">
        <ele>2452.3999023438</ele>
        <time>2024-10-15T10:52:03.000Z</time>
      </trkpt>
      <trkpt lat="45.09572" lon="5.97132">
        <ele>2452.3999023438</ele>
        <time>2024-10-15T10:52:04.000Z</time>
      </trkpt>
      <trkpt lat="45.09572" lon="5.97132">
        <ele>2452.3999023438</ele>
        <time>2024-10-15T10:52:05.000Z</time>
      </trkpt>
      <trkpt lat="45.09572" lon="5.97132">
        <ele>2452.3999023438</ele>
        <time>2024-10-15T10:52:06.000Z</time>
      </trkpt>
      <trkpt lat="45.09572" lon="5.97133">
        <ele>2452.3999023438</ele>
        <time>2024-10-15T10:52:07.000Z</time>
      </trkpt>
      <trkpt lat="45.09572" lon="5.97133">
        <ele>2452.3999023438</ele>
        <time>2024-10-15T10:52:08.000Z</time>
      </trkpt>
      <trkpt lat="45.09572" lon="5.97133">
        <ele>2452.3999023438</ele>
        <time>2024-10-15T10:52:09.000Z</time>
      </trkpt>
      <trkpt lat="45.09572" lon="5.97133">
        <ele>2452.6000976562</ele>
        <time>2024-10-15T10:52:10.000Z</time>
      </trkpt>
      <trkpt lat="45.09572" lon="5.97133">
        <ele>2452.6000976562</ele>
        <time>2024-10-15T10:52:11.000Z</time>
      </trkpt>
      <trkpt lat="45.09572" lon="5.97133">
        <ele>2452.6000976562</ele>
        <time>2024-10-15T10:52:12.000Z</time>
      </trkpt>
      <trkpt lat="45.09572" lon="5.97133">
        <ele>2452.6000976562</ele>
        <time>2024-10-15T10:52:13.000Z</time>
      </trkpt>
      <trkpt lat="45.09572" lon="5.97133">
        <ele>2452.6000976562</ele>
        <time>2024-10-15T10:52:14.000Z</time>
      </trkpt>
      <trkpt lat="45.09572" lon="5.97133">
        <ele>2452.6000976562</ele>
        <time>2024-10-15T10:52:15.000Z</time>
      </trkpt>
      <trkpt lat="45.09572" lon="5.97133">
        <ele>2452.6000976562</ele>
        <time>2024-10-15T10:52:16.000Z</time>
      </trkpt>
      <trkpt lat="45.09572" lon="5.97132">
        <ele>2452.6000976562</ele>
        <time>2024-10-15T10:52:17.000Z</time>
      </trkpt>
      <trkpt lat="45.09572" lon="5.97132">
        <ele>2452.3999023438</ele>
        <time>2024-10-15T10:52:18.000Z</time>
      </trkpt>
      <trkpt lat="45.09572" lon="5.97132">
        <ele>2452.3999023438</ele>
        <time>2024-10-15T10:52:19.000Z</time>
      </trkpt>
      <trkpt lat="45.09572" lon="5.97132">
        <ele>2452.3999023438</ele>
        <time>2024-10-15T10:52:20.000Z</time>
      </trkpt>
      <trkpt lat="45.09572" lon="5.97132">
        <ele>2452.3999023438</ele>
        <time>2024-10-15T10:52:21.000Z</time>
      </trkpt>
      <trkpt lat="45.09572" lon="5.97132">
        <ele>2452.3999023438</ele>
        <time>2024-10-15T10:52:22.000Z</time>
      </trkpt>
      <trkpt lat="45.09572" lon="5.97132">
        <ele>2452.1999511719</ele>
        <time>2024-10-15T10:52:23.000Z</time>
      </trkpt>
      <trkpt lat="45.09572" lon="5.97132">
        <ele>2452.1999511719</ele>
        <time>2024-10-15T10:52:24.000Z</time>
      </trkpt>
      <trkpt lat="45.09572" lon="5.97132">
        <ele>2452.1999511719</ele>
        <time>2024-10-15T10:52:25.000Z</time>
      </trkpt>
      <trkpt lat="45.09572" lon="5.97132">
        <ele>2452.1999511719</ele>
        <time>2024-10-15T10:52:26.000Z</time>
      </trkpt>
      <trkpt lat="45.09572" lon="5.97132">
        <ele>2452.1999511719</ele>
        <time>2024-10-15T10:52:27.000Z</time>
      </trkpt>
      <trkpt lat="45.09572" lon="5.97132">
        <ele>2452.1999511719</ele>
        <time>2024-10-15T10:52:28.000Z</time>
      </trkpt>
      <trkpt lat="45.09572" lon="5.97132">
        <ele>2451.8000488281</ele>
        <time>2024-10-15T10:52:29.000Z</time>
      </trkpt>
      <trkpt lat="45.09572" lon="5.97132">
        <ele>2451.6000976562</ele>
        <time>2024-10-15T10:52:30.000Z</time>
      </trkpt>
      <trkpt lat="45.09572" lon="5.97132">
        <ele>2451.3999023438</ele>
        <time>2024-10-15T10:52:31.000Z</time>
      </trkpt>
      <trkpt lat="45.09572" lon="5.97132">
        <ele>2451</ele>
        <time>2024-10-15T10:52:32.000Z</time>
      </trkpt>
      <trkpt lat="45.09572" lon="5.97132">
        <ele>2450.6000976562</ele>
        <time>2024-10-15T10:52:33.000Z</time>
      </trkpt>
      <trkpt lat="45.09572" lon="5.97132">
        <ele>2450.3999023438</ele>
        <time>2024-10-15T10:52:34.000Z</time>
      </trkpt>
      <trkpt lat="45.09572" lon="5.97132">
        <ele>2450</ele>
        <time>2024-10-15T10:52:35.000Z</time>
      </trkpt>
      <trkpt lat="45.09572" lon="5.97132">
        <ele>2449.8000488281</ele>
        <time>2024-10-15T10:52:36.000Z</time>
      </trkpt>
      <trkpt lat="45.09572" lon="5.97132">
        <ele>2449.3999023438</ele>
        <time>2024-10-15T10:52:37.000Z</time>
      </trkpt>
      <trkpt lat="45.09572" lon="5.97132">
        <ele>2449</ele>
        <time>2024-10-15T10:52:38.000Z</time>
      </trkpt>
      <trkpt lat="45.09572" lon="5.97132">
        <ele>2448.6000976562</ele>
        <time>2024-10-15T10:52:39.000Z</time>
      </trkpt>
      <trkpt lat="45.09572" lon="5.97132">
        <ele>2448.1999511719</ele>
        <time>2024-10-15T10:52:40.000Z</time>
      </trkpt>
      <trkpt lat="45.09572" lon="5.97132">
        <ele>2448</ele>
        <time>2024-10-15T10:52:41.000Z</time>
      </trkpt>
      <trkpt lat="45.09572" lon="5.97132">
        <ele>2447.8000488281</ele>
        <time>2024-10-15T10:52:42.000Z</time>
      </trkpt>
      <trkpt lat="45.09571" lon="5.97132">
        <ele>2447.3999023438</ele>
        <time>2024-10-15T10:52:43.000Z</time>
      </trkpt>
      <trkpt lat="45.09571" lon="5.97133">
        <ele>2446.8000488281</ele>
        <time>2024-10-15T10:52:44.000Z</time>
      </trkpt>
      <trkpt lat="45.0957" lon="5.97133">
        <ele>2446.6000976562</ele>
        <time>2024-10-15T10:52:45.000Z</time>
      </trkpt>
      <trkpt lat="45.09569" lon="5.97133">
        <ele>2446.1999511719</ele>
        <time>2024-10-15T10:52:46.000Z</time>
      </trkpt>
      <trkpt lat="45.09567" lon="5.97134">
        <ele>2446</ele>
        <time>2024-10-15T10:52:47.000Z</time>
      </trkpt>
      <trkpt lat="45.09565" lon="5.97134">
        <ele>2445.3999023438</ele>
        <time>2024-10-15T10:52:48.000Z</time>
      </trkpt>
      <trkpt lat="45.09563" lon="5.97135">
        <ele>2445</ele>
        <time>2024-10-15T10:52:49.000Z</time>
      </trkpt>
      <trkpt lat="45.09561" lon="5.97135">
        <ele>2444.6000976562</ele>
        <time>2024-10-15T10:52:50.000Z</time>
      </trkpt>
      <trkpt lat="45.09559" lon="5.97135">
        <ele>2444.3999023438</ele>
        <time>2024-10-15T10:52:51.000Z</time>
      </trkpt>
      <trkpt lat="45.09558" lon="5.97135">
        <ele>2444</ele>
        <time>2024-10-15T10:52:52.000Z</time>
      </trkpt>
      <trkpt lat="45.09557" lon="5.97135">
        <ele>2443.6000976562</ele>
        <time>2024-10-15T10:52:53.000Z</time>
      </trkpt>
      <trkpt lat="45.09556" lon="5.97136">
        <ele>2443.6000976562</ele>
        <time>2024-10-15T10:52:54.000Z</time>
      </trkpt>
      <trkpt lat="45.09554" lon="5.97136">
        <ele>2443.3999023438</ele>
        <time>2024-10-15T10:52:55.000Z</time>
      </trkpt>
      <trkpt lat="45.09554" lon="5.97136">
        <ele>2443.1999511719</ele>
        <time>2024-10-15T10:52:56.000Z</time>
      </trkpt>
      <trkpt lat="45.09553" lon="5.97137">
        <ele>2443</ele>
        <time>2024-10-15T10:52:57.000Z</time>
      </trkpt>
      <trkpt lat="45.09552" lon="5.97137">
        <ele>2443</ele>
        <time>2024-10-15T10:52:58.000Z</time>
      </trkpt>
      <trkpt lat="45.09552" lon="5.97137">
        <ele>2442.8000488281</ele>
        <time>2024-10-15T10:52:59.000Z</time>
      </trkpt>
      <trkpt lat="45.09552" lon="5.97137">
        <ele>2442.3999023438</ele>
        <time>2024-10-15T10:53:00.000Z</time>
      </trkpt>
      <trkpt lat="45.09551" lon="5.97137">
        <ele>2442.1999511719</ele>
        <time>2024-10-15T10:53:01.000Z</time>
      </trkpt>
      <trkpt lat="45.0955" lon="5.97137">
        <ele>2442</ele>
        <time>2024-10-15T10:53:02.000Z</time>
      </trkpt>
      <trkpt lat="45.0955" lon="5.97137">
        <ele>2441.6000976562</ele>
        <time>2024-10-15T10:53:03.000Z</time>
      </trkpt>
      <trkpt lat="45.09549" lon="5.97137">
        <ele>2441.1999511719</ele>
        <time>2024-10-15T10:53:04.000Z</time>
      </trkpt>
      <trkpt lat="45.09548" lon="5.97137">
        <ele>2440.8000488281</ele>
        <time>2024-10-15T10:53:05.000Z</time>
      </trkpt>
      <trkpt lat="45.09547" lon="5.97137">
        <ele>2440.3999023438</ele>
        <time>2024-10-15T10:53:06.000Z</time>
      </trkpt>
      <trkpt lat="45.09547" lon="5.97136">
        <ele>2440</ele>
        <time>2024-10-15T10:53:07.000Z</time>
      </trkpt>
      <trkpt lat="45.09546" lon="5.97136">
        <ele>2439.6000976562</ele>
        <time>2024-10-15T10:53:08.000Z</time>
      </trkpt>
      <trkpt lat="45.09546" lon="5.97135">
        <ele>2439.1999511719</ele>
        <time>2024-10-15T10:53:09.000Z</time>
      </trkpt>
      <trkpt lat="45.09545" lon="5.97134">
        <ele>2439</ele>
        <time>2024-10-15T10:53:10.000Z</time>
      </trkpt>
      <trkpt lat="45.09545" lon="5.97133">
        <ele>2438.8000488281</ele>
        <time>2024-10-15T10:53:11.000Z</time>
      </trkpt>
      <trkpt lat="45.09544" lon="5.97133">
        <ele>2438.6000976562</ele>
        <time>2024-10-15T10:53:12.000Z</time>
      </trkpt>
      <trkpt lat="45.09543" lon="5.97132">
        <ele>2438.3999023438</ele>
        <time>2024-10-15T10:53:13.000Z</time>
      </trkpt>
      <trkpt lat="45.09543" lon="5.97131">
        <ele>2438.1999511719</ele>
        <time>2024-10-15T10:53:14.000Z</time>
      </trkpt>
      <trkpt lat="45.09543" lon="5.97131">
        <ele>2437.8000488281</ele>
        <time>2024-10-15T10:53:15.000Z</time>
      </trkpt>
      <trkpt lat="45.09542" lon="5.9713">
        <ele>2437.6000976562</ele>
        <time>2024-10-15T10:53:16.000Z</time>
      </trkpt>
      <trkpt lat="45.09542" lon="5.9713">
        <ele>2437.3999023438</ele>
        <time>2024-10-15T10:53:17.000Z</time>
      </trkpt>
      <trkpt lat="45.09542" lon="5.97129">
        <ele>2437.1999511719</ele>
        <time>2024-10-15T10:53:18.000Z</time>
      </trkpt>
      <trkpt lat="45.09541" lon="5.97129">
        <ele>2437</ele>
        <time>2024-10-15T10:53:19.000Z</time>
      </trkpt>
      <trkpt lat="45.09541" lon="5.97129">
        <ele>2436.8000488281</ele>
        <time>2024-10-15T10:53:20.000Z</time>
      </trkpt>
      <trkpt lat="45.0954" lon="5.97129">
        <ele>2436.6000976562</ele>
        <time>2024-10-15T10:53:21.000Z</time>
      </trkpt>
      <trkpt lat="45.0954" lon="5.97129">
        <ele>2436.3999023438</ele>
        <time>2024-10-15T10:53:22.000Z</time>
      </trkpt>
      <trkpt lat="45.09539" lon="5.97129">
        <ele>2436.1999511719</ele>
        <time>2024-10-15T10:53:23.000Z</time>
      </trkpt>
      <trkpt lat="45.09539" lon="5.97129">
        <ele>2435.8000488281</ele>
        <time>2024-10-15T10:53:24.000Z</time>
      </trkpt>
      <trkpt lat="45.09539" lon="5.97129">
        <ele>2435.6000976562</ele>
        <time>2024-10-15T10:53:25.000Z</time>
      </trkpt>
      <trkpt lat="45.09538" lon="5.9713">
        <ele>2435.3999023438</ele>
        <time>2024-10-15T10:53:26.000Z</time>
      </trkpt>
      <trkpt lat="45.09538" lon="5.9713">
        <ele>2435.3999023438</ele>
        <time>2024-10-15T10:53:27.000Z</time>
      </trkpt>
      <trkpt lat="45.09537" lon="5.9713">
        <ele>2435</ele>
        <time>2024-10-15T10:53:28.000Z</time>
      </trkpt>
      <trkpt lat="45.09537" lon="5.97131">
        <ele>2434.6000976562</ele>
        <time>2024-10-15T10:53:29.000Z</time>
      </trkpt>
      <trkpt lat="45.09536" lon="5.97131">
        <ele>2434.1999511719</ele>
        <time>2024-10-15T10:53:30.000Z</time>
      </trkpt>
      <trkpt lat="45.09536" lon="5.97131">
        <ele>2433.8000488281</ele>
        <time>2024-10-15T10:53:31.000Z</time>
      </trkpt>
      <trkpt lat="45.09535" lon="5.97131">
        <ele>2433.1999511719</ele>
        <time>2024-10-15T10:53:32.000Z</time>
      </trkpt>
      <trkpt lat="45.09534" lon="5.97131">
        <ele>2433</ele>
        <time>2024-10-15T10:53:33.000Z</time>
      </trkpt>
      <trkpt lat="45.09533" lon="5.97131">
        <ele>2432.8000488281</ele>
        <time>2024-10-15T10:53:34.000Z</time>
      </trkpt>
      <trkpt lat="45.09533" lon="5.97131">
        <ele>2432.6000976562</ele>
        <time>2024-10-15T10:53:35.000Z</time>
      </trkpt>
      <trkpt lat="45.09532" lon="5.97131">
        <ele>2432.3999023438</ele>
        <time>2024-10-15T10:53:36.000Z</time>
      </trkpt>
      <trkpt lat="45.09531" lon="5.9713">
        <ele>2432.1999511719</ele>
        <time>2024-10-15T10:53:37.000Z</time>
      </trkpt>
      <trkpt lat="45.09531" lon="5.9713">
        <ele>2431.8000488281</ele>
        <time>2024-10-15T10:53:38.000Z</time>
      </trkpt>
      <trkpt lat="45.09531" lon="5.97129">
        <ele>2431.6000976562</ele>
        <time>2024-10-15T10:53:39.000Z</time>
      </trkpt>
      <trkpt lat="45.0953" lon="5.97128">
        <ele>2431.3999023438</ele>
        <time>2024-10-15T10:53:40.000Z</time>
      </trkpt>
      <trkpt lat="45.0953" lon="5.97128">
        <ele>2431.3999023438</ele>
        <time>2024-10-15T10:53:41.000Z</time>
      </trkpt>
      <trkpt lat="45.0953" lon="5.97128">
        <ele>2431.3999023438</ele>
        <time>2024-10-15T10:53:42.000Z</time>
      </trkpt>
      <trkpt lat="45.0953" lon="5.97128">
        <ele>2431.3999023438</ele>
        <time>2024-10-15T10:53:43.000Z</time>
      </trkpt>
      <trkpt lat="45.0953" lon="5.97127">
        <ele>2431.3999023438</ele>
        <time>2024-10-15T10:53:44.000Z</time>
      </trkpt>
      <trkpt lat="45.0953" lon="5.97127">
        <ele>2431.3999023438</ele>
        <time>2024-10-15T10:53:45.000Z</time>
      </trkpt>
      <trkpt lat="45.0953" lon="5.97127">
        <ele>2431.3999023438</ele>
        <time>2024-10-15T10:53:46.000Z</time>
      </trkpt>
      <trkpt lat="45.0953" lon="5.97127">
        <ele>2431.3999023438</ele>
        <time>2024-10-15T10:53:47.000Z</time>
      </trkpt>
      <trkpt lat="45.0953" lon="5.97127">
        <ele>2431.3999023438</ele>
        <time>2024-10-15T10:53:48.000Z</time>
      </trkpt>
      <trkpt lat="45.0953" lon="5.97127">
        <ele>2431.3999023438</ele>
        <time>2024-10-15T10:53:49.000Z</time>
      </trkpt>
      <trkpt lat="45.0953" lon="5.97127">
        <ele>2431.1999511719</ele>
        <time>2024-10-15T10:53:50.000Z</time>
      </trkpt>
      <trkpt lat="45.0953" lon="5.97127">
        <ele>2431</ele>
        <time>2024-10-15T10:53:51.000Z</time>
      </trkpt>
      <trkpt lat="45.0953" lon="5.97127">
        <ele>2431</ele>
        <time>2024-10-15T10:53:52.000Z</time>
      </trkpt>
      <trkpt lat="45.0953" lon="5.97127">
        <ele>2430.8000488281</ele>
        <time>2024-10-15T10:53:53.000Z</time>
      </trkpt>
      <trkpt lat="45.0953" lon="5.97127">
        <ele>2430.8000488281</ele>
        <time>2024-10-15T10:53:54.000Z</time>
      </trkpt>
      <trkpt lat="45.0953" lon="5.97127">
        <ele>2430.6000976562</ele>
        <time>2024-10-15T10:53:55.000Z</time>
      </trkpt>
      <trkpt lat="45.0953" lon="5.97127">
        <ele>2430.6000976562</ele>
        <time>2024-10-15T10:53:56.000Z</time>
      </trkpt>
      <trkpt lat="45.0953" lon="5.97127">
        <ele>2430.6000976562</ele>
        <time>2024-10-15T10:53:57.000Z</time>
      </trkpt>
      <trkpt lat="45.0953" lon="5.97127">
        <ele>2430.6000976562</ele>
        <time>2024-10-15T10:53:58.000Z</time>
      </trkpt>
      <trkpt lat="45.0953" lon="5.97127">
        <ele>2430.6000976562</ele>
        <time>2024-10-15T10:53:59.000Z</time>
      </trkpt>
      <trkpt lat="45.0953" lon="5.97127">
        <ele>2430.6000976562</ele>
        <time>2024-10-15T10:54:00.000Z</time>
      </trkpt>
      <trkpt lat="45.0953" lon="5.97127">
        <ele>2430.6000976562</ele>
        <time>2024-10-15T10:54:01.000Z</time>
      </trkpt>
      <trkpt lat="45.0953" lon="5.97127">
        <ele>2430.6000976562</ele>
        <time>2024-10-15T10:54:02.000Z</time>
      </trkpt>
      <trkpt lat="45.0953" lon="5.97127">
        <ele>2430.6000976562</ele>
        <time>2024-10-15T10:54:03.000Z</time>
      </trkpt>
      <trkpt lat="45.0953" lon="5.97127">
        <ele>2430.6000976562</ele>
        <time>2024-10-15T10:54:04.000Z</time>
      </trkpt>
      <trkpt lat="45.0953" lon="5.97127">
        <ele>2430.8000488281</ele>
        <time>2024-10-15T10:54:05.000Z</time>
      </trkpt>
      <trkpt lat="45.0953" lon="5.97127">
        <ele>2431</ele>
        <time>2024-10-15T10:54:06.000Z</time>
      </trkpt>
      <trkpt lat="45.0953" lon="5.97127">
        <ele>2431</ele>
        <time>2024-10-15T10:54:07.000Z</time>
      </trkpt>
      <trkpt lat="45.09529" lon="5.97126">
        <ele>2431</ele>
        <time>2024-10-15T10:54:08.000Z</time>
      </trkpt>
      <trkpt lat="45.09529" lon="5.97126">
        <ele>2431</ele>
        <time>2024-10-15T10:54:09.000Z</time>
      </trkpt>
      <trkpt lat="45.09529" lon="5.97126">
        <ele>2431</ele>
        <time>2024-10-15T10:54:10.000Z</time>
      </trkpt>
      <trkpt lat="45.09529" lon="5.97126">
        <ele>2431</ele>
        <time>2024-10-15T10:54:11.000Z</time>
      </trkpt>
      <trkpt lat="45.09529" lon="5.97126">
        <ele>2431</ele>
        <time>2024-10-15T10:54:12.000Z</time>
      </trkpt>
      <trkpt lat="45.09529" lon="5.97126">
        <ele>2431</ele>
        <time>2024-10-15T10:54:13.000Z</time>
      </trkpt>
      <trkpt lat="45.09529" lon="5.97126">
        <ele>2430.8000488281</ele>
        <time>2024-10-15T10:54:14.000Z</time>
      </trkpt>
      <trkpt lat="45.09529" lon="5.97126">
        <ele>2430.8000488281</ele>
        <time>2024-10-15T10:54:15.000Z</time>
      </trkpt>
      <trkpt lat="45.09529" lon="5.97126">
        <ele>2430.8000488281</ele>
        <time>2024-10-15T10:54:16.000Z</time>
      </trkpt>
      <trkpt lat="45.09529" lon="5.97126">
        <ele>2430.8000488281</ele>
        <time>2024-10-15T10:54:17.000Z</time>
      </trkpt>
      <trkpt lat="45.09529" lon="5.97126">
        <ele>2430.8000488281</ele>
        <time>2024-10-15T10:54:18.000Z</time>
      </trkpt>
      <trkpt lat="45.09529" lon="5.97126">
        <ele>2430.8000488281</ele>
        <time>2024-10-15T10:54:19.000Z</time>
      </trkpt>
      <trkpt lat="45.09529" lon="5.97126">
        <ele>2430.8000488281</ele>
        <time>2024-10-15T10:54:20.000Z</time>
      </trkpt>
      <trkpt lat="45.09529" lon="5.97126">
        <ele>2430.8000488281</ele>
        <time>2024-10-15T10:54:21.000Z</time>
      </trkpt>
      <trkpt lat="45.09529" lon="5.97126">
        <ele>2430.6000976562</ele>
        <time>2024-10-15T10:54:22.000Z</time>
      </trkpt>
      <trkpt lat="45.09529" lon="5.97125">
        <ele>2430.6000976562</ele>
        <time>2024-10-15T10:54:23.000Z</time>
      </trkpt>
      <trkpt lat="45.09529" lon="5.97125">
        <ele>2430.3999023438</ele>
        <time>2024-10-15T10:54:24.000Z</time>
      </trkpt>
      <trkpt lat="45.09529" lon="5.97125">
        <ele>2430.3999023438</ele>
        <time>2024-10-15T10:54:25.000Z</time>
      </trkpt>
      <trkpt lat="45.09529" lon="5.97125">
        <ele>2430.1999511719</ele>
        <time>2024-10-15T10:54:26.000Z</time>
      </trkpt>
      <trkpt lat="45.09529" lon="5.97125">
        <ele>2430.1999511719</ele>
        <time>2024-10-15T10:54:27.000Z</time>
      </trkpt>
      <trkpt lat="45.09529" lon="5.97125">
        <ele>2430.1999511719</ele>
        <time>2024-10-15T10:54:28.000Z</time>
      </trkpt>
      <trkpt lat="45.09529" lon="5.97125">
        <ele>2430.1999511719</ele>
        <time>2024-10-15T10:54:29.000Z</time>
      </trkpt>
      <trkpt lat="45.09529" lon="5.97125">
        <ele>2430.1999511719</ele>
        <time>2024-10-15T10:54:30.000Z</time>
      </trkpt>
      <trkpt lat="45.09529" lon="5.97125">
        <ele>2430.1999511719</ele>
        <time>2024-10-15T10:54:31.000Z</time>
      </trkpt>
      <trkpt lat="45.09529" lon="5.97125">
        <ele>2430.1999511719</ele>
        <time>2024-10-15T10:54:32.000Z</time>
      </trkpt>
      <trkpt lat="45.09529" lon="5.97125">
        <ele>2430.1999511719</ele>
        <time>2024-10-15T10:54:33.000Z</time>
      </trkpt>
      <trkpt lat="45.09529" lon="5.97125">
        <ele>2430.1999511719</ele>
        <time>2024-10-15T10:54:34.000Z</time>
      </trkpt>
      <trkpt lat="45.09529" lon="5.97125">
        <ele>2430.1999511719</ele>
        <time>2024-10-15T10:54:35.000Z</time>
      </trkpt>
      <trkpt lat="45.09529" lon="5.97125">
        <ele>2430.1999511719</ele>
        <time>2024-10-15T10:54:36.000Z</time>
      </trkpt>
      <trkpt lat="45.09529" lon="5.97125">
        <ele>2430.3999023438</ele>
        <time>2024-10-15T10:54:37.000Z</time>
      </trkpt>
      <trkpt lat="45.09529" lon="5.97125">
        <ele>2430.3999023438</ele>
        <time>2024-10-15T10:54:38.000Z</time>
      </trkpt>
      <trkpt lat="45.09529" lon="5.97125">
        <ele>2430.6000976562</ele>
        <time>2024-10-15T10:54:39.000Z</time>
      </trkpt>
      <trkpt lat="45.09529" lon="5.97125">
        <ele>2430.8000488281</ele>
        <time>2024-10-15T10:54:40.000Z</time>
      </trkpt>
      <trkpt lat="45.09529" lon="5.97125">
        <ele>2430.8000488281</ele>
        <time>2024-10-15T10:54:41.000Z</time>
      </trkpt>
      <trkpt lat="45.09529" lon="5.97125">
        <ele>2430.8000488281</ele>
        <time>2024-10-15T10:54:42.000Z</time>
      </trkpt>
      <trkpt lat="45.09529" lon="5.97125">
        <ele>2430.8000488281</ele>
        <time>2024-10-15T10:54:43.000Z</time>
      </trkpt>
      <trkpt lat="45.09529" lon="5.97125">
        <ele>2431</ele>
        <time>2024-10-15T10:54:44.000Z</time>
      </trkpt>
      <trkpt lat="45.09529" lon="5.97125">
        <ele>2431</ele>
        <time>2024-10-15T10:54:45.000Z</time>
      </trkpt>
      <trkpt lat="45.09529" lon="5.97125">
        <ele>2431</ele>
        <time>2024-10-15T10:54:46.000Z</time>
      </trkpt>
      <trkpt lat="45.09529" lon="5.97125">
        <ele>2431</ele>
        <time>2024-10-15T10:54:47.000Z</time>
      </trkpt>
      <trkpt lat="45.09529" lon="5.97125">
        <ele>2431</ele>
        <time>2024-10-15T10:54:48.000Z</time>
      </trkpt>
      <trkpt lat="45.09529" lon="5.97125">
        <ele>2431</ele>
        <time>2024-10-15T10:54:49.000Z</time>
      </trkpt>
      <trkpt lat="45.09529" lon="5.97125">
        <ele>2431.1999511719</ele>
        <time>2024-10-15T10:54:50.000Z</time>
      </trkpt>
      <trkpt lat="45.09529" lon="5.97125">
        <ele>2431.1999511719</ele>
        <time>2024-10-15T10:54:51.000Z</time>
      </trkpt>
      <trkpt lat="45.09529" lon="5.97125">
        <ele>2431.3999023438</ele>
        <time>2024-10-15T10:54:52.000Z</time>
      </trkpt>
      <trkpt lat="45.09529" lon="5.97125">
        <ele>2431.3999023438</ele>
        <time>2024-10-15T10:54:53.000Z</time>
      </trkpt>
      <trkpt lat="45.09529" lon="5.97126">
        <ele>2431.3999023438</ele>
        <time>2024-10-15T10:54:54.000Z</time>
      </trkpt>
      <trkpt lat="45.09529" lon="5.97126">
        <ele>2431.1999511719</ele>
        <time>2024-10-15T10:54:55.000Z</time>
      </trkpt>
      <trkpt lat="45.09529" lon="5.97126">
        <ele>2431.1999511719</ele>
        <time>2024-10-15T10:54:56.000Z</time>
      </trkpt>
      <trkpt lat="45.09529" lon="5.97126">
        <ele>2431.1999511719</ele>
        <time>2024-10-15T10:54:57.000Z</time>
      </trkpt>
      <trkpt lat="45.09529" lon="5.97126">
        <ele>2431</ele>
        <time>2024-10-15T10:54:58.000Z</time>
      </trkpt>
      <trkpt lat="45.09529" lon="5.97126">
        <ele>2431</ele>
        <time>2024-10-15T10:54:59.000Z</time>
      </trkpt>
      <trkpt lat="45.09529" lon="5.97126">
        <ele>2431</ele>
        <time>2024-10-15T10:55:00.000Z</time>
      </trkpt>
      <trkpt lat="45.09529" lon="5.97126">
        <ele>2431.1999511719</ele>
        <time>2024-10-15T10:55:01.000Z</time>
      </trkpt>
      <trkpt lat="45.09529" lon="5.97126">
        <ele>2431.1999511719</ele>
        <time>2024-10-15T10:55:02.000Z</time>
      </trkpt>
      <trkpt lat="45.09529" lon="5.97126">
        <ele>2431.3999023438</ele>
        <time>2024-10-15T10:55:03.000Z</time>
      </trkpt>
      <trkpt lat="45.09529" lon="5.97126">
        <ele>2431.6000976562</ele>
        <time>2024-10-15T10:55:04.000Z</time>
      </trkpt>
      <trkpt lat="45.09529" lon="5.97126">
        <ele>2431.8000488281</ele>
        <time>2024-10-15T10:55:05.000Z</time>
      </trkpt>
      <trkpt lat="45.09529" lon="5.97126">
        <ele>2432</ele>
        <time>2024-10-15T10:55:06.000Z</time>
      </trkpt>
      <trkpt lat="45.09529" lon="5.97126">
        <ele>2432.1999511719</ele>
        <time>2024-10-15T10:55:07.000Z</time>
      </trkpt>
      <trkpt lat="45.09529" lon="5.97126">
        <ele>2432.6000976562</ele>
        <time>2024-10-15T10:55:08.000Z</time>
      </trkpt>
      <trkpt lat="45.09529" lon="5.97126">
        <ele>2432.8000488281</ele>
        <time>2024-10-15T10:55:09.000Z</time>
      </trkpt>
      <trkpt lat="45.09529" lon="5.97126">
        <ele>2433</ele>
        <time>2024-10-15T10:55:10.000Z</time>
      </trkpt>
      <trkpt lat="45.09529" lon="5.97126">
        <ele>2433.1999511719</ele>
        <time>2024-10-15T10:55:11.000Z</time>
      </trkpt>
      <trkpt lat="45.09529" lon="5.97126">
        <ele>2433.8000488281</ele>
        <time>2024-10-15T10:55:12.000Z</time>
      </trkpt>
      <trkpt lat="45.09529" lon="5.97126">
        <ele>2434.1999511719</ele>
        <time>2024-10-15T10:55:13.000Z</time>
      </trkpt>
      <trkpt lat="45.09529" lon="5.97126">
        <ele>2434.3999023438</ele>
        <time>2024-10-15T10:55:14.000Z</time>
      </trkpt>
      <trkpt lat="45.09529" lon="5.97126">
        <ele>2434.8000488281</ele>
        <time>2024-10-15T10:55:15.000Z</time>
      </trkpt>
      <trkpt lat="45.0953" lon="5.97126">
        <ele>2435</ele>
        <time>2024-10-15T10:55:16.000Z</time>
      </trkpt>
      <trkpt lat="45.09531" lon="5.97126">
        <ele>2435.1999511719</ele>
        <time>2024-10-15T10:55:17.000Z</time>
      </trkpt>
      <trkpt lat="45.09531" lon="5.97126">
        <ele>2435.3999023438</ele>
        <time>2024-10-15T10:55:18.000Z</time>
      </trkpt>
      <trkpt lat="45.09532" lon="5.97126">
        <ele>2435.3999023438</ele>
        <time>2024-10-15T10:55:19.000Z</time>
      </trkpt>
      <trkpt lat="45.09533" lon="5.97126">
        <ele>2435.3999023438</ele>
        <time>2024-10-15T10:55:20.000Z</time>
      </trkpt>
      <trkpt lat="45.09533" lon="5.97126">
        <ele>2435.3999023438</ele>
        <time>2024-10-15T10:55:21.000Z</time>
      </trkpt>
      <trkpt lat="45.09534" lon="5.97126">
        <ele>2435.1999511719</ele>
        <time>2024-10-15T10:55:22.000Z</time>
      </trkpt>
      <trkpt lat="45.09534" lon="5.97126">
        <ele>2435</ele>
        <time>2024-10-15T10:55:23.000Z</time>
      </trkpt>
      <trkpt lat="45.09534" lon="5.97126">
        <ele>2435</ele>
        <time>2024-10-15T10:55:24.000Z</time>
      </trkpt>
      <trkpt lat="45.09534" lon="5.97126">
        <ele>2435</ele>
        <time>2024-10-15T10:55:25.000Z</time>
      </trkpt>
      <trkpt lat="45.09534" lon="5.97125">
        <ele>2435</ele>
        <time>2024-10-15T10:55:26.000Z</time>
      </trkpt>
      <trkpt lat="45.09534" lon="5.97125">
        <ele>2435</ele>
        <time>2024-10-15T10:55:27.000Z</time>
      </trkpt>
      <trkpt lat="45.09534" lon="5.97125">
        <ele>2435</ele>
        <time>2024-10-15T10:55:28.000Z</time>
      </trkpt>
      <trkpt lat="45.09534" lon="5.97124">
        <ele>2435</ele>
        <time>2024-10-15T10:55:29.000Z</time>
      </trkpt>
      <trkpt lat="45.09535" lon="5.97124">
        <ele>2435.3999023438</ele>
        <time>2024-10-15T10:55:30.000Z</time>
      </trkpt>
      <trkpt lat="45.09535" lon="5.97124">
        <ele>2435.3999023438</ele>
        <time>2024-10-15T10:55:31.000Z</time>
      </trkpt>
      <trkpt lat="45.09535" lon="5.97124">
        <ele>2435.6000976562</ele>
        <time>2024-10-15T10:55:32.000Z</time>
      </trkpt>
      <trkpt lat="45.09535" lon="5.97124">
        <ele>2435.8000488281</ele>
        <time>2024-10-15T10:55:33.000Z</time>
      </trkpt>
      <trkpt lat="45.09535" lon="5.97124">
        <ele>2436</ele>
        <time>2024-10-15T10:55:34.000Z</time>
      </trkpt>
      <trkpt lat="45.09535" lon="5.97124">
        <ele>2436.1999511719</ele>
        <time>2024-10-15T10:55:35.000Z</time>
      </trkpt>
      <trkpt lat="45.09535" lon="5.97124">
        <ele>2436.1999511719</ele>
        <time>2024-10-15T10:55:36.000Z</time>
      </trkpt>
      <trkpt lat="45.09535" lon="5.97124">
        <ele>2436.1999511719</ele>
        <time>2024-10-15T10:55:37.000Z</time>
      </trkpt>
      <trkpt lat="45.09535" lon="5.97124">
        <ele>2436.1999511719</ele>
        <time>2024-10-15T10:55:38.000Z</time>
      </trkpt>
      <trkpt lat="45.09535" lon="5.97124">
        <ele>2436.1999511719</ele>
        <time>2024-10-15T10:55:39.000Z</time>
      </trkpt>
      <trkpt lat="45.09535" lon="5.97124">
        <ele>2436.1999511719</ele>
        <time>2024-10-15T10:55:40.000Z</time>
      </trkpt>
      <trkpt lat="45.09536" lon="5.97124">
        <ele>2436.1999511719</ele>
        <time>2024-10-15T10:55:41.000Z</time>
      </trkpt>
      <trkpt lat="45.09536" lon="5.97124">
        <ele>2436.1999511719</ele>
        <time>2024-10-15T10:55:42.000Z</time>
      </trkpt>
      <trkpt lat="45.09536" lon="5.97124">
        <ele>2436.3999023438</ele>
        <time>2024-10-15T10:55:43.000Z</time>
      </trkpt>
      <trkpt lat="45.09536" lon="5.97124">
        <ele>2436.3999023438</ele>
        <time>2024-10-15T10:55:44.000Z</time>
      </trkpt>
      <trkpt lat="45.09537" lon="5.97124">
        <ele>2436.1999511719</ele>
        <time>2024-10-15T10:55:45.000Z</time>
      </trkpt>
      <trkpt lat="45.09537" lon="5.97124">
        <ele>2436.1999511719</ele>
        <time>2024-10-15T10:55:46.000Z</time>
      </trkpt>
      <trkpt lat="45.09537" lon="5.97124">
        <ele>2436.1999511719</ele>
        <time>2024-10-15T10:55:47.000Z</time>
      </trkpt>
      <trkpt lat="45.09538" lon="5.97124">
        <ele>2436</ele>
        <time>2024-10-15T10:55:48.000Z</time>
      </trkpt>
      <trkpt lat="45.09538" lon="5.97124">
        <ele>2436</ele>
        <time>2024-10-15T10:55:49.000Z</time>
      </trkpt>
      <trkpt lat="45.09538" lon="5.97124">
        <ele>2436</ele>
        <time>2024-10-15T10:55:50.000Z</time>
      </trkpt>
      <trkpt lat="45.09538" lon="5.97124">
        <ele>2436</ele>
        <time>2024-10-15T10:55:51.000Z</time>
      </trkpt>
      <trkpt lat="45.09538" lon="5.97124">
        <ele>2436</ele>
        <time>2024-10-15T10:55:52.000Z</time>
      </trkpt>
      <trkpt lat="45.09538" lon="5.97124">
        <ele>2436</ele>
        <time>2024-10-15T10:55:53.000Z</time>
      </trkpt>
      <trkpt lat="45.09538" lon="5.97124">
        <ele>2435.8000488281</ele>
        <time>2024-10-15T10:55:54.000Z</time>
      </trkpt>
      <trkpt lat="45.09538" lon="5.97124">
        <ele>2435.8000488281</ele>
        <time>2024-10-15T10:55:55.000Z</time>
      </trkpt>
      <trkpt lat="45.09538" lon="5.97124">
        <ele>2435.8000488281</ele>
        <time>2024-10-15T10:55:56.000Z</time>
      </trkpt>
      <trkpt lat="45.09538" lon="5.97124">
        <ele>2435.8000488281</ele>
        <time>2024-10-15T10:55:57.000Z</time>
      </trkpt>
      <trkpt lat="45.09538" lon="5.97124">
        <ele>2436</ele>
        <time>2024-10-15T10:55:58.000Z</time>
      </trkpt>
      <trkpt lat="45.09538" lon="5.97124">
        <ele>2436</ele>
        <time>2024-10-15T10:55:59.000Z</time>
      </trkpt>
      <trkpt lat="45.09538" lon="5.97124">
        <ele>2436</ele>
        <time>2024-10-15T10:56:00.000Z</time>
      </trkpt>
      <trkpt lat="45.09538" lon="5.97124">
        <ele>2436</ele>
        <time>2024-10-15T10:56:01.000Z</time>
      </trkpt>
      <trkpt lat="45.09538" lon="5.97124">
        <ele>2436</ele>
        <time>2024-10-15T10:56:02.000Z</time>
      </trkpt>
      <trkpt lat="45.09538" lon="5.97124">
        <ele>2435.8000488281</ele>
        <time>2024-10-15T10:56:03.000Z</time>
      </trkpt>
      <trkpt lat="45.09538" lon="5.97124">
        <ele>2435.8000488281</ele>
        <time>2024-10-15T10:56:04.000Z</time>
      </trkpt>
      <trkpt lat="45.09538" lon="5.97124">
        <ele>2435.8000488281</ele>
        <time>2024-10-15T10:56:05.000Z</time>
      </trkpt>
      <trkpt lat="45.09538" lon="5.97124">
        <ele>2435.8000488281</ele>
        <time>2024-10-15T10:56:06.000Z</time>
      </trkpt>
      <trkpt lat="45.09538" lon="5.97124">
        <ele>2436</ele>
        <time>2024-10-15T10:56:07.000Z</time>
      </trkpt>
      <trkpt lat="45.09538" lon="5.97124">
        <ele>2436</ele>
        <time>2024-10-15T10:56:08.000Z</time>
      </trkpt>
      <trkpt lat="45.09538" lon="5.97124">
        <ele>2436</ele>
        <time>2024-10-15T10:56:09.000Z</time>
      </trkpt>
      <trkpt lat="45.09538" lon="5.97124">
        <ele>2436.1999511719</ele>
        <time>2024-10-15T10:56:10.000Z</time>
      </trkpt>
      <trkpt lat="45.09538" lon="5.97124">
        <ele>2436.3999023438</ele>
        <time>2024-10-15T10:56:11.000Z</time>
      </trkpt>
      <trkpt lat="45.09538" lon="5.97124">
        <ele>2436.3999023438</ele>
        <time>2024-10-15T10:56:12.000Z</time>
      </trkpt>
      <trkpt lat="45.09538" lon="5.97124">
        <ele>2436.6000976562</ele>
        <time>2024-10-15T10:56:13.000Z</time>
      </trkpt>
      <trkpt lat="45.09538" lon="5.97124">
        <ele>2436.6000976562</ele>
        <time>2024-10-15T10:56:14.000Z</time>
      </trkpt>
      <trkpt lat="45.09538" lon="5.97124">
        <ele>2436.8000488281</ele>
        <time>2024-10-15T10:56:15.000Z</time>
      </trkpt>
      <trkpt lat="45.09538" lon="5.97124">
        <ele>2436.8000488281</ele>
        <time>2024-10-15T10:56:16.000Z</time>
      </trkpt>
      <trkpt lat="45.09538" lon="5.97124">
        <ele>2436.8000488281</ele>
        <time>2024-10-15T10:56:17.000Z</time>
      </trkpt>
      <trkpt lat="45.09538" lon="5.97124">
        <ele>2436.8000488281</ele>
        <time>2024-10-15T10:56:18.000Z</time>
      </trkpt>
      <trkpt lat="45.09538" lon="5.97124">
        <ele>2436.8000488281</ele>
        <time>2024-10-15T10:56:19.000Z</time>
      </trkpt>
      <trkpt lat="45.09538" lon="5.97124">
        <ele>2436.8000488281</ele>
        <time>2024-10-15T10:56:20.000Z</time>
      </trkpt>
      <trkpt lat="45.09538" lon="5.97125">
        <ele>2436.8000488281</ele>
        <time>2024-10-15T10:56:21.000Z</time>
      </trkpt>
      <trkpt lat="45.09538" lon="5.97125">
        <ele>2436.8000488281</ele>
        <time>2024-10-15T10:56:22.000Z</time>
      </trkpt>
      <trkpt lat="45.09538" lon="5.97125">
        <ele>2436.8000488281</ele>
        <time>2024-10-15T10:56:23.000Z</time>
      </trkpt>
      <trkpt lat="45.09538" lon="5.97125">
        <ele>2436.8000488281</ele>
        <time>2024-10-15T10:56:24.000Z</time>
      </trkpt>
      <trkpt lat="45.09538" lon="5.97125">
        <ele>2436.6000976562</ele>
        <time>2024-10-15T10:56:25.000Z</time>
      </trkpt>
      <trkpt lat="45.09538" lon="5.97126">
        <ele>2436.6000976562</ele>
        <time>2024-10-15T10:56:26.000Z</time>
      </trkpt>
      <trkpt lat="45.09539" lon="5.97126">
        <ele>2436.3999023438</ele>
        <time>2024-10-15T10:56:27.000Z</time>
      </trkpt>
      <trkpt lat="45.09539" lon="5.97126">
        <ele>2436</ele>
        <time>2024-10-15T10:56:28.000Z</time>
      </trkpt>
      <trkpt lat="45.09539" lon="5.97126">
        <ele>2435.6000976562</ele>
        <time>2024-10-15T10:56:29.000Z</time>
      </trkpt>
      <trkpt lat="45.09539" lon="5.97126">
        <ele>2435.3999023438</ele>
        <time>2024-10-15T10:56:30.000Z</time>
      </trkpt>
      <trkpt lat="45.0954" lon="5.97126">
        <ele>2435.3999023438</ele>
        <time>2024-10-15T10:56:31.000Z</time>
      </trkpt>
      <trkpt lat="45.0954" lon="5.97126">
        <ele>2435.1999511719</ele>
        <time>2024-10-15T10:56:32.000Z</time>
      </trkpt>
      <trkpt lat="45.0954" lon="5.97126">
        <ele>2435.1999511719</ele>
        <time>2024-10-15T10:56:33.000Z</time>
      </trkpt>
      <trkpt lat="45.0954" lon="5.97126">
        <ele>2435.1999511719</ele>
        <time>2024-10-15T10:56:34.000Z</time>
      </trkpt>
      <trkpt lat="45.0954" lon="5.97126">
        <ele>2435.1999511719</ele>
        <time>2024-10-15T10:56:35.000Z</time>
      </trkpt>
      <trkpt lat="45.0954" lon="5.97126">
        <ele>2435</ele>
        <time>2024-10-15T10:56:36.000Z</time>
      </trkpt>
      <trkpt lat="45.0954" lon="5.97126">
        <ele>2434.8000488281</ele>
        <time>2024-10-15T10:56:37.000Z</time>
      </trkpt>
      <trkpt lat="45.0954" lon="5.97126">
        <ele>2434.6000976562</ele>
        <time>2024-10-15T10:56:38.000Z</time>
      </trkpt>
      <trkpt lat="45.0954" lon="5.97126">
        <ele>2434.6000976562</ele>
        <time>2024-10-15T10:56:39.000Z</time>
      </trkpt>
      <trkpt lat="45.0954" lon="5.97126">
        <ele>2434.6000976562</ele>
        <time>2024-10-15T10:56:40.000Z</time>
      </trkpt>
      <trkpt lat="45.09541" lon="5.97126">
        <ele>2434.3999023438</ele>
        <time>2024-10-15T10:56:41.000Z</time>
      </trkpt>
      <trkpt lat="45.09541" lon="5.97126">
        <ele>2434.3999023438</ele>
        <time>2024-10-15T10:56:42.000Z</time>
      </trkpt>
      <trkpt lat="45.09541" lon="5.97126">
        <ele>2434.1999511719</ele>
        <time>2024-10-15T10:56:43.000Z</time>
      </trkpt>
      <trkpt lat="45.09541" lon="5.97126">
        <ele>2433.8000488281</ele>
        <time>2024-10-15T10:56:44.000Z</time>
      </trkpt>
      <trkpt lat="45.09541" lon="5.97126">
        <ele>2433.8000488281</ele>
        <time>2024-10-15T10:56:45.000Z</time>
      </trkpt>
      <trkpt lat="45.09541" lon="5.97126">
        <ele>2433.8000488281</ele>
        <time>2024-10-15T10:56:46.000Z</time>
      </trkpt>
      <trkpt lat="45.09541" lon="5.97125">
        <ele>2433.6000976562</ele>
        <time>2024-10-15T10:56:47.000Z</time>
      </trkpt>
      <trkpt lat="45.09541" lon="5.97125">
        <ele>2433.3999023438</ele>
        <time>2024-10-15T10:56:48.000Z</time>
      </trkpt>
      <trkpt lat="45.09542" lon="5.97125">
        <ele>2433.1999511719</ele>
        <time>2024-10-15T10:56:49.000Z</time>
      </trkpt>
      <trkpt lat="45.09542" lon="5.97125">
        <ele>2433.1999511719</ele>
        <time>2024-10-15T10:56:50.000Z</time>
      </trkpt>
      <trkpt lat="45.09542" lon="5.97125">
        <ele>2433</ele>
        <time>2024-10-15T10:56:51.000Z</time>
      </trkpt>
      <trkpt lat="45.09542" lon="5.97125">
        <ele>2433</ele>
        <time>2024-10-15T10:56:52.000Z</time>
      </trkpt>
      <trkpt lat="45.09542" lon="5.97125">
        <ele>2432.8000488281</ele>
        <time>2024-10-15T10:56:53.000Z</time>
      </trkpt>
      <trkpt lat="45.09542" lon="5.97125">
        <ele>2432.6000976562</ele>
        <time>2024-10-15T10:56:54.000Z</time>
      </trkpt>
      <trkpt lat="45.09542" lon="5.97124">
        <ele>2432.3999023438</ele>
        <time>2024-10-15T10:56:55.000Z</time>
      </trkpt>
      <trkpt lat="45.09542" lon="5.97124">
        <ele>2432.3999023438</ele>
        <time>2024-10-15T10:56:56.000Z</time>
      </trkpt>
      <trkpt lat="45.09542" lon="5.97124">
        <ele>2432.1999511719</ele>
        <time>2024-10-15T10:56:57.000Z</time>
      </trkpt>
      <trkpt lat="45.09542" lon="5.97124">
        <ele>2432.1999511719</ele>
        <time>2024-10-15T10:56:58.000Z</time>
      </trkpt>
      <trkpt lat="45.09542" lon="5.97124">
        <ele>2432</ele>
        <time>2024-10-15T10:56:59.000Z</time>
      </trkpt>
      <trkpt lat="45.09542" lon="5.97124">
        <ele>2432</ele>
        <time>2024-10-15T10:57:00.000Z</time>
      </trkpt>
      <trkpt lat="45.09542" lon="5.97124">
        <ele>2432</ele>
        <time>2024-10-15T10:57:01.000Z</time>
      </trkpt>
      <trkpt lat="45.09542" lon="5.97124">
        <ele>2432</ele>
        <time>2024-10-15T10:57:02.000Z</time>
      </trkpt>
      <trkpt lat="45.09542" lon="5.97124">
        <ele>2431.8000488281</ele>
        <time>2024-10-15T10:57:03.000Z</time>
      </trkpt>
      <trkpt lat="45.09542" lon="5.97124">
        <ele>2431.8000488281</ele>
        <time>2024-10-15T10:57:04.000Z</time>
      </trkpt>
      <trkpt lat="45.09542" lon="5.97124">
        <ele>2431.8000488281</ele>
        <time>2024-10-15T10:57:05.000Z</time>
      </trkpt>
      <trkpt lat="45.09542" lon="5.97124">
        <ele>2431.6000976562</ele>
        <time>2024-10-15T10:57:06.000Z</time>
      </trkpt>
      <trkpt lat="45.09542" lon="5.97124">
        <ele>2431.6000976562</ele>
        <time>2024-10-15T10:57:07.000Z</time>
      </trkpt>
      <trkpt lat="45.09542" lon="5.97124">
        <ele>2431.6000976562</ele>
        <time>2024-10-15T10:57:08.000Z</time>
      </trkpt>
      <trkpt lat="45.09542" lon="5.97124">
        <ele>2431.6000976562</ele>
        <time>2024-10-15T10:57:09.000Z</time>
      </trkpt>
      <trkpt lat="45.09542" lon="5.97124">
        <ele>2431.6000976562</ele>
        <time>2024-10-15T10:57:10.000Z</time>
      </trkpt>
      <trkpt lat="45.09542" lon="5.97124">
        <ele>2431.6000976562</ele>
        <time>2024-10-15T10:57:11.000Z</time>
      </trkpt>
      <trkpt lat="45.09542" lon="5.97124">
        <ele>2431.6000976562</ele>
        <time>2024-10-15T10:57:12.000Z</time>
      </trkpt>
      <trkpt lat="45.09542" lon="5.97124">
        <ele>2431.6000976562</ele>
        <time>2024-10-15T10:57:13.000Z</time>
      </trkpt>
      <trkpt lat="45.09542" lon="5.97124">
        <ele>2431.6000976562</ele>
        <time>2024-10-15T10:57:14.000Z</time>
      </trkpt>
      <trkpt lat="45.09542" lon="5.97124">
        <ele>2431.6000976562</ele>
        <time>2024-10-15T10:57:15.000Z</time>
      </trkpt>
      <trkpt lat="45.09542" lon="5.97124">
        <ele>2431.6000976562</ele>
        <time>2024-10-15T10:57:16.000Z</time>
      </trkpt>
      <trkpt lat="45.09542" lon="5.97124">
        <ele>2431.6000976562</ele>
        <time>2024-10-15T10:57:17.000Z</time>
      </trkpt>
      <trkpt lat="45.09542" lon="5.97124">
        <ele>2431.3999023438</ele>
        <time>2024-10-15T10:57:18.000Z</time>
      </trkpt>
      <trkpt lat="45.09542" lon="5.97124">
        <ele>2431.3999023438</ele>
        <time>2024-10-15T10:57:19.000Z</time>
      </trkpt>
      <trkpt lat="45.09542" lon="5.97124">
        <ele>2431.1999511719</ele>
        <time>2024-10-15T10:57:20.000Z</time>
      </trkpt>
      <trkpt lat="45.09542" lon="5.97124">
        <ele>2431.1999511719</ele>
        <time>2024-10-15T10:57:21.000Z</time>
      </trkpt>
      <trkpt lat="45.09542" lon="5.97124">
        <ele>2431</ele>
        <time>2024-10-15T10:57:22.000Z</time>
      </trkpt>
      <trkpt lat="45.09542" lon="5.97124">
        <ele>2430.8000488281</ele>
        <time>2024-10-15T10:57:23.000Z</time>
      </trkpt>
      <trkpt lat="45.09542" lon="5.97124">
        <ele>2430.8000488281</ele>
        <time>2024-10-15T10:57:24.000Z</time>
      </trkpt>
      <trkpt lat="45.0954" lon="5.97124">
        <ele>2430.8000488281</ele>
        <time>2024-10-15T10:57:25.000Z</time>
      </trkpt>
      <trkpt lat="45.0954" lon="5.97124">
        <ele>2430.6000976562</ele>
        <time>2024-10-15T10:57:26.000Z</time>
      </trkpt>
      <trkpt lat="45.0954" lon="5.97124">
        <ele>2430.6000976562</ele>
        <time>2024-10-15T10:57:27.000Z</time>
      </trkpt>
      <trkpt lat="45.0954" lon="5.97124">
        <ele>2430.3999023438</ele>
        <time>2024-10-15T10:57:28.000Z</time>
      </trkpt>
      <trkpt lat="45.0954" lon="5.97124">
        <ele>2430.3999023438</ele>
        <time>2024-10-15T10:57:29.000Z</time>
      </trkpt>
      <trkpt lat="45.0954" lon="5.97123">
        <ele>2430</ele>
        <time>2024-10-15T10:57:30.000Z</time>
      </trkpt>
      <trkpt lat="45.0954" lon="5.97123">
        <ele>2429.3999023438</ele>
        <time>2024-10-15T10:57:31.000Z</time>
      </trkpt>
      <trkpt lat="45.0954" lon="5.97123">
        <ele>2429.1999511719</ele>
        <time>2024-10-15T10:57:32.000Z</time>
      </trkpt>
      <trkpt lat="45.0954" lon="5.97123">
        <ele>2429.1999511719</ele>
        <time>2024-10-15T10:57:33.000Z</time>
      </trkpt>
      <trkpt lat="45.0954" lon="5.97123">
        <ele>2429</ele>
        <time>2024-10-15T10:57:34.000Z</time>
      </trkpt>
      <trkpt lat="45.0954" lon="5.97123">
        <ele>2429</ele>
        <time>2024-10-15T10:57:35.000Z</time>
      </trkpt>
      <trkpt lat="45.0954" lon="5.97123">
        <ele>2429</ele>
        <time>2024-10-15T10:57:36.000Z</time>
      </trkpt>
      <trkpt lat="45.0954" lon="5.97123">
        <ele>2429</ele>
        <time>2024-10-15T10:57:37.000Z</time>
      </trkpt>
      <trkpt lat="45.0954" lon="5.97122">
        <ele>2429</ele>
        <time>2024-10-15T10:57:38.000Z</time>
      </trkpt>
      <trkpt lat="45.0954" lon="5.97122">
        <ele>2429</ele>
        <time>2024-10-15T10:57:39.000Z</time>
      </trkpt>
      <trkpt lat="45.0954" lon="5.97122">
        <ele>2429</ele>
        <time>2024-10-15T10:57:40.000Z</time>
      </trkpt>
      <trkpt lat="45.0954" lon="5.97122">
        <ele>2429</ele>
        <time>2024-10-15T10:57:41.000Z</time>
      </trkpt>
      <trkpt lat="45.0954" lon="5.97122">
        <ele>2429.1999511719</ele>
        <time>2024-10-15T10:57:42.000Z</time>
      </trkpt>
      <trkpt lat="45.09541" lon="5.97122">
        <ele>2429.1999511719</ele>
        <time>2024-10-15T10:57:43.000Z</time>
      </trkpt>
      <trkpt lat="45.09541" lon="5.97122">
        <ele>2429.1999511719</ele>
        <time>2024-10-15T10:57:44.000Z</time>
      </trkpt>
      <trkpt lat="45.09541" lon="5.97122">
        <ele>2429.1999511719</ele>
        <time>2024-10-15T10:57:45.000Z</time>
      </trkpt>
      <trkpt lat="45.09541" lon="5.97122">
        <ele>2429.3999023438</ele>
        <time>2024-10-15T10:57:46.000Z</time>
      </trkpt>
      <trkpt lat="45.09541" lon="5.97122">
        <ele>2429.3999023438</ele>
        <time>2024-10-15T10:57:47.000Z</time>
      </trkpt>
      <trkpt lat="45.09541" lon="5.97122">
        <ele>2429.3999023438</ele>
        <time>2024-10-15T10:57:48.000Z</time>
      </trkpt>
      <trkpt lat="45.09541" lon="5.97122">
        <ele>2429.3999023438</ele>
        <time>2024-10-15T10:57:49.000Z</time>
      </trkpt>
      <trkpt lat="45.09541" lon="5.97121">
        <ele>2429.6000976562</ele>
        <time>2024-10-15T10:57:50.000Z</time>
      </trkpt>
      <trkpt lat="45.09541" lon="5.97121">
        <ele>2429.6000976562</ele>
        <time>2024-10-15T10:57:51.000Z</time>
      </trkpt>
      <trkpt lat="45.09541" lon="5.97121">
        <ele>2429.8000488281</ele>
        <time>2024-10-15T10:57:52.000Z</time>
      </trkpt>
      <trkpt lat="45.09541" lon="5.97121">
        <ele>2429.8000488281</ele>
        <time>2024-10-15T10:57:53.000Z</time>
      </trkpt>
      <trkpt lat="45.09541" lon="5.97121">
        <ele>2429.8000488281</ele>
        <time>2024-10-15T10:57:54.000Z</time>
      </trkpt>
      <trkpt lat="45.09541" lon="5.9712">
        <ele>2429.8000488281</ele>
        <time>2024-10-15T10:57:55.000Z</time>
      </trkpt>
      <trkpt lat="45.09541" lon="5.9712">
        <ele>2429.8000488281</ele>
        <time>2024-10-15T10:57:56.000Z</time>
      </trkpt>
      <trkpt lat="45.09541" lon="5.9712">
        <ele>2429.3999023438</ele>
        <time>2024-10-15T10:57:57.000Z</time>
      </trkpt>
      <trkpt lat="45.09541" lon="5.9712">
        <ele>2429.1999511719</ele>
        <time>2024-10-15T10:57:58.000Z</time>
      </trkpt>
      <trkpt lat="45.09541" lon="5.9712">
        <ele>2429.1999511719</ele>
        <time>2024-10-15T10:57:59.000Z</time>
      </trkpt>
      <trkpt lat="45.09541" lon="5.9712">
        <ele>2429.1999511719</ele>
        <time>2024-10-15T10:58:00.000Z</time>
      </trkpt>
      <trkpt lat="45.09541" lon="5.9712">
        <ele>2429.1999511719</ele>
        <time>2024-10-15T10:58:01.000Z</time>
      </trkpt>
      <trkpt lat="45.09541" lon="5.9712">
        <ele>2429.1999511719</ele>
        <time>2024-10-15T10:58:02.000Z</time>
      </trkpt>
      <trkpt lat="45.09541" lon="5.97119">
        <ele>2429.1999511719</ele>
        <time>2024-10-15T10:58:03.000Z</time>
      </trkpt>
      <trkpt lat="45.09541" lon="5.97119">
        <ele>2429.1999511719</ele>
        <time>2024-10-15T10:58:04.000Z</time>
      </trkpt>
      <trkpt lat="45.09541" lon="5.97119">
        <ele>2429</ele>
        <time>2024-10-15T10:58:05.000Z</time>
      </trkpt>
      <trkpt lat="45.09541" lon="5.97119">
        <ele>2429</ele>
        <time>2024-10-15T10:58:06.000Z</time>
      </trkpt>
      <trkpt lat="45.09541" lon="5.97119">
        <ele>2428.8000488281</ele>
        <time>2024-10-15T10:58:07.000Z</time>
      </trkpt>
      <trkpt lat="45.09541" lon="5.97118">
        <ele>2428.6000976562</ele>
        <time>2024-10-15T10:58:08.000Z</time>
      </trkpt>
      <trkpt lat="45.09541" lon="5.97118">
        <ele>2428.3999023438</ele>
        <time>2024-10-15T10:58:09.000Z</time>
      </trkpt>
      <trkpt lat="45.09541" lon="5.97118">
        <ele>2428.3999023438</ele>
        <time>2024-10-15T10:58:10.000Z</time>
      </trkpt>
      <trkpt lat="45.09541" lon="5.97118">
        <ele>2428.1999511719</ele>
        <time>2024-10-15T10:58:11.000Z</time>
      </trkpt>
      <trkpt lat="45.09541" lon="5.97118">
        <ele>2428</ele>
        <time>2024-10-15T10:58:12.000Z</time>
      </trkpt>
      <trkpt lat="45.09541" lon="5.97118">
        <ele>2427.6000976562</ele>
        <time>2024-10-15T10:58:13.000Z</time>
      </trkpt>
      <trkpt lat="45.09541" lon="5.97118">
        <ele>2427.3999023438</ele>
        <time>2024-10-15T10:58:14.000Z</time>
      </trkpt>
      <trkpt lat="45.09541" lon="5.97118">
        <ele>2427.3999023438</ele>
        <time>2024-10-15T10:58:15.000Z</time>
      </trkpt>
      <trkpt lat="45.09541" lon="5.97117">
        <ele>2427.1999511719</ele>
        <time>2024-10-15T10:58:16.000Z</time>
      </trkpt>
      <trkpt lat="45.09541" lon="5.97117">
        <ele>2427</ele>
        <time>2024-10-15T10:58:17.000Z</time>
      </trkpt>
      <trkpt lat="45.09541" lon="5.97117">
        <ele>2426.6000976562</ele>
        <time>2024-10-15T10:58:18.000Z</time>
      </trkpt>
      <trkpt lat="45.09541" lon="5.97117">
        <ele>2426.3999023438</ele>
        <time>2024-10-15T10:58:19.000Z</time>
      </trkpt>
      <trkpt lat="45.09541" lon="5.97117">
        <ele>2426.3999023438</ele>
        <time>2024-10-15T10:58:20.000Z</time>
      </trkpt>
      <trkpt lat="45.09541" lon="5.97117">
        <ele>2426.3999023438</ele>
        <time>2024-10-15T10:58:21.000Z</time>
      </trkpt>
      <trkpt lat="45.09541" lon="5.97116">
        <ele>2426.3999023438</ele>
        <time>2024-10-15T10:58:22.000Z</time>
      </trkpt>
      <trkpt lat="45.09541" lon="5.97116">
        <ele>2426.1999511719</ele>
        <time>2024-10-15T10:58:23.000Z</time>
      </trkpt>
      <trkpt lat="45.09541" lon="5.97116">
        <ele>2426.1999511719</ele>
        <time>2024-10-15T10:58:24.000Z</time>
      </trkpt>
      <trkpt lat="45.0954" lon="5.97115">
        <ele>2426.1999511719</ele>
        <time>2024-10-15T10:58:25.000Z</time>
      </trkpt>
      <trkpt lat="45.0954" lon="5.97115">
        <ele>2426</ele>
        <time>2024-10-15T10:58:26.000Z</time>
      </trkpt>
      <trkpt lat="45.0954" lon="5.97115">
        <ele>2426</ele>
        <time>2024-10-15T10:58:27.000Z</time>
      </trkpt>
      <trkpt lat="45.09539" lon="5.97114">
        <ele>2425.8000488281</ele>
        <time>2024-10-15T10:58:28.000Z</time>
      </trkpt>
      <trkpt lat="45.09539" lon="5.97114">
        <ele>2425.6000976562</ele>
        <time>2024-10-15T10:58:29.000Z</time>
      </trkpt>
      <trkpt lat="45.09539" lon="5.97114">
        <ele>2425.6000976562</ele>
        <time>2024-10-15T10:58:30.000Z</time>
      </trkpt>
      <trkpt lat="45.09538" lon="5.97113">
        <ele>2425</ele>
        <time>2024-10-15T10:58:31.000Z</time>
      </trkpt>
      <trkpt lat="45.09538" lon="5.97113">
        <ele>2425</ele>
        <time>2024-10-15T10:58:32.000Z</time>
      </trkpt>
      <trkpt lat="45.09538" lon="5.97113">
        <ele>2424.8000488281</ele>
        <time>2024-10-15T10:58:33.000Z</time>
      </trkpt>
      <trkpt lat="45.09538" lon="5.97113">
        <ele>2424.6000976562</ele>
        <time>2024-10-15T10:58:34.000Z</time>
      </trkpt>
      <trkpt lat="45.09538" lon="5.97113">
        <ele>2424.6000976562</ele>
        <time>2024-10-15T10:58:35.000Z</time>
      </trkpt>
      <trkpt lat="45.09537" lon="5.97112">
        <ele>2424.6000976562</ele>
        <time>2024-10-15T10:58:36.000Z</time>
      </trkpt>
      <trkpt lat="45.09537" lon="5.97112">
        <ele>2424.3999023438</ele>
        <time>2024-10-15T10:58:37.000Z</time>
      </trkpt>
      <trkpt lat="45.09537" lon="5.97112">
        <ele>2424.3999023438</ele>
        <time>2024-10-15T10:58:38.000Z</time>
      </trkpt>
      <trkpt lat="45.09537" lon="5.97112">
        <ele>2424.1999511719</ele>
        <time>2024-10-15T10:58:39.000Z</time>
      </trkpt>
      <trkpt lat="45.09537" lon="5.97112">
        <ele>2424</ele>
        <time>2024-10-15T10:58:40.000Z</time>
      </trkpt>
      <trkpt lat="45.09537" lon="5.97112">
        <ele>2424</ele>
        <time>2024-10-15T10:58:41.000Z</time>
      </trkpt>
      <trkpt lat="45.09537" lon="5.97112">
        <ele>2424</ele>
        <time>2024-10-15T10:58:42.000Z</time>
      </trkpt>
      <trkpt lat="45.09536" lon="5.97111">
        <ele>2423.8000488281</ele>
        <time>2024-10-15T10:58:43.000Z</time>
      </trkpt>
      <trkpt lat="45.09535" lon="5.9711">
        <ele>2423.8000488281</ele>
        <time>2024-10-15T10:58:44.000Z</time>
      </trkpt>
      <trkpt lat="45.09535" lon="5.9711">
        <ele>2423.8000488281</ele>
        <time>2024-10-15T10:58:45.000Z</time>
      </trkpt>
      <trkpt lat="45.09534" lon="5.97109">
        <ele>2423.8000488281</ele>
        <time>2024-10-15T10:58:46.000Z</time>
      </trkpt>
      <trkpt lat="45.09534" lon="5.97109">
        <ele>2423.8000488281</ele>
        <time>2024-10-15T10:58:47.000Z</time>
      </trkpt>
      <trkpt lat="45.09534" lon="5.97108">
        <ele>2423.8000488281</ele>
        <time>2024-10-15T10:58:48.000Z</time>
      </trkpt>
      <trkpt lat="45.09533" lon="5.97108">
        <ele>2424</ele>
        <time>2024-10-15T10:58:49.000Z</time>
      </trkpt>
      <trkpt lat="45.09533" lon="5.97108">
        <ele>2424.1999511719</ele>
        <time>2024-10-15T10:58:50.000Z</time>
      </trkpt>
      <trkpt lat="45.09532" lon="5.97108">
        <ele>2424.1999511719</ele>
        <time>2024-10-15T10:58:51.000Z</time>
      </trkpt>
      <trkpt lat="45.09532" lon="5.97108">
        <ele>2424</ele>
        <time>2024-10-15T10:58:52.000Z</time>
      </trkpt>
      <trkpt lat="45.09532" lon="5.97108">
        <ele>2424</ele>
        <time>2024-10-15T10:58:53.000Z</time>
      </trkpt>
      <trkpt lat="45.09532" lon="5.97108">
        <ele>2424</ele>
        <time>2024-10-15T10:58:54.000Z</time>
      </trkpt>
      <trkpt lat="45.09532" lon="5.97108">
        <ele>2424</ele>
        <time>2024-10-15T10:58:55.000Z</time>
      </trkpt>
      <trkpt lat="45.09532" lon="5.97108">
        <ele>2423.8000488281</ele>
        <time>2024-10-15T10:58:56.000Z</time>
      </trkpt>
      <trkpt lat="45.09532" lon="5.97108">
        <ele>2423.8000488281</ele>
        <time>2024-10-15T10:58:57.000Z</time>
      </trkpt>
      <trkpt lat="45.09532" lon="5.97108">
        <ele>2423.6000976562</ele>
        <time>2024-10-15T10:58:58.000Z</time>
      </trkpt>
      <trkpt lat="45.09532" lon="5.97108">
        <ele>2423.6000976562</ele>
        <time>2024-10-15T10:58:59.000Z</time>
      </trkpt>
      <trkpt lat="45.09532" lon="5.97108">
        <ele>2423.6000976562</ele>
        <time>2024-10-15T10:59:00.000Z</time>
      </trkpt>
      <trkpt lat="45.09532" lon="5.97108">
        <ele>2423.6000976562</ele>
        <time>2024-10-15T10:59:01.000Z</time>
      </trkpt>
      <trkpt lat="45.09532" lon="5.97108">
        <ele>2423.3999023438</ele>
        <time>2024-10-15T10:59:02.000Z</time>
      </trkpt>
      <trkpt lat="45.09532" lon="5.97108">
        <ele>2423.3999023438</ele>
        <time>2024-10-15T10:59:03.000Z</time>
      </trkpt>
      <trkpt lat="45.09532" lon="5.97108">
        <ele>2423.3999023438</ele>
        <time>2024-10-15T10:59:04.000Z</time>
      </trkpt>
      <trkpt lat="45.09532" lon="5.97108">
        <ele>2423.6000976562</ele>
        <time>2024-10-15T10:59:05.000Z</time>
      </trkpt>
      <trkpt lat="45.09532" lon="5.97108">
        <ele>2423.6000976562</ele>
        <time>2024-10-15T10:59:06.000Z</time>
      </trkpt>
      <trkpt lat="45.09532" lon="5.97108">
        <ele>2423.6000976562</ele>
        <time>2024-10-15T10:59:07.000Z</time>
      </trkpt>
      <trkpt lat="45.09532" lon="5.97108">
        <ele>2423.6000976562</ele>
        <time>2024-10-15T10:59:08.000Z</time>
      </trkpt>
      <trkpt lat="45.09532" lon="5.97108">
        <ele>2423.6000976562</ele>
        <time>2024-10-15T10:59:09.000Z</time>
      </trkpt>
      <trkpt lat="45.09532" lon="5.97107">
        <ele>2423.3999023438</ele>
        <time>2024-10-15T10:59:10.000Z</time>
      </trkpt>
      <trkpt lat="45.09532" lon="5.97107">
        <ele>2423.3999023438</ele>
        <time>2024-10-15T10:59:11.000Z</time>
      </trkpt>
      <trkpt lat="45.09532" lon="5.97107">
        <ele>2423.1999511719</ele>
        <time>2024-10-15T10:59:12.000Z</time>
      </trkpt>
      <trkpt lat="45.09532" lon="5.97107">
        <ele>2423.1999511719</ele>
        <time>2024-10-15T10:59:13.000Z</time>
      </trkpt>
      <trkpt lat="45.09532" lon="5.97107">
        <ele>2423</ele>
        <time>2024-10-15T10:59:14.000Z</time>
      </trkpt>
      <trkpt lat="45.09532" lon="5.97107">
        <ele>2423</ele>
        <time>2024-10-15T10:59:15.000Z</time>
      </trkpt>
      <trkpt lat="45.09532" lon="5.97107">
        <ele>2422.6000976562</ele>
        <time>2024-10-15T10:59:16.000Z</time>
      </trkpt>
      <trkpt lat="45.09532" lon="5.97107">
        <ele>2422.3999023438</ele>
        <time>2024-10-15T10:59:17.000Z</time>
      </trkpt>
      <trkpt lat="45.09532" lon="5.97107">
        <ele>2422.1999511719</ele>
        <time>2024-10-15T10:59:18.000Z</time>
      </trkpt>
      <trkpt lat="45.09532" lon="5.97107">
        <ele>2422</ele>
        <time>2024-10-15T10:59:19.000Z</time>
      </trkpt>
      <trkpt lat="45.09532" lon="5.97107">
        <ele>2421.8000488281</ele>
        <time>2024-10-15T10:59:20.000Z</time>
      </trkpt>
      <trkpt lat="45.09532" lon="5.97107">
        <ele>2421.8000488281</ele>
        <time>2024-10-15T10:59:21.000Z</time>
      </trkpt>
      <trkpt lat="45.09532" lon="5.97107">
        <ele>2421.6000976562</ele>
        <time>2024-10-15T10:59:22.000Z</time>
      </trkpt>
      <trkpt lat="45.09532" lon="5.97107">
        <ele>2421.6000976562</ele>
        <time>2024-10-15T10:59:23.000Z</time>
      </trkpt>
      <trkpt lat="45.09532" lon="5.97107">
        <ele>2421.6000976562</ele>
        <time>2024-10-15T10:59:24.000Z</time>
      </trkpt>
      <trkpt lat="45.09533" lon="5.97107">
        <ele>2421.6000976562</ele>
        <time>2024-10-15T10:59:25.000Z</time>
      </trkpt>
      <trkpt lat="45.09533" lon="5.97107">
        <ele>2421.6000976562</ele>
        <time>2024-10-15T10:59:26.000Z</time>
      </trkpt>
      <trkpt lat="45.09533" lon="5.97106">
        <ele>2421.6000976562</ele>
        <time>2024-10-15T10:59:27.000Z</time>
      </trkpt>
      <trkpt lat="45.09533" lon="5.97106">
        <ele>2421.6000976562</ele>
        <time>2024-10-15T10:59:28.000Z</time>
      </trkpt>
      <trkpt lat="45.09533" lon="5.97105">
        <ele>2421.6000976562</ele>
        <time>2024-10-15T10:59:29.000Z</time>
      </trkpt>
      <trkpt lat="45.09533" lon="5.97105">
        <ele>2421.3999023438</ele>
        <time>2024-10-15T10:59:30.000Z</time>
      </trkpt>
      <trkpt lat="45.09533" lon="5.97105">
        <ele>2421.1999511719</ele>
        <time>2024-10-15T10:59:31.000Z</time>
      </trkpt>
      <trkpt lat="45.09533" lon="5.97105">
        <ele>2421.1999511719</ele>
        <time>2024-10-15T10:59:32.000Z</time>
      </trkpt>
      <trkpt lat="45.09533" lon="5.97105">
        <ele>2421</ele>
        <time>2024-10-15T10:59:33.000Z</time>
      </trkpt>
      <trkpt lat="45.09533" lon="5.97105">
        <ele>2421</ele>
        <time>2024-10-15T10:59:34.000Z</time>
      </trkpt>
      <trkpt lat="45.09533" lon="5.97105">
        <ele>2420.8000488281</ele>
        <time>2024-10-15T10:59:35.000Z</time>
      </trkpt>
      <trkpt lat="45.09533" lon="5.97105">
        <ele>2420.6000976562</ele>
        <time>2024-10-15T10:59:36.000Z</time>
      </trkpt>
      <trkpt lat="45.09533" lon="5.97105">
        <ele>2420.3999023438</ele>
        <time>2024-10-15T10:59:37.000Z</time>
      </trkpt>
      <trkpt lat="45.09533" lon="5.97105">
        <ele>2420.1999511719</ele>
        <time>2024-10-15T10:59:38.000Z</time>
      </trkpt>
      <trkpt lat="45.09533" lon="5.97105">
        <ele>2420</ele>
        <time>2024-10-15T10:59:39.000Z</time>
      </trkpt>
      <trkpt lat="45.09533" lon="5.97105">
        <ele>2420</ele>
        <time>2024-10-15T10:59:40.000Z</time>
      </trkpt>
      <trkpt lat="45.09533" lon="5.97105">
        <ele>2419.6000976562</ele>
        <time>2024-10-15T10:59:41.000Z</time>
      </trkpt>
      <trkpt lat="45.09533" lon="5.97104">
        <ele>2419.6000976562</ele>
        <time>2024-10-15T10:59:42.000Z</time>
      </trkpt>
      <trkpt lat="45.09533" lon="5.97104">
        <ele>2419.3999023438</ele>
        <time>2024-10-15T10:59:43.000Z</time>
      </trkpt>
      <trkpt lat="45.09533" lon="5.97103">
        <ele>2419.1999511719</ele>
        <time>2024-10-15T10:59:44.000Z</time>
      </trkpt>
      <trkpt lat="45.09533" lon="5.97103">
        <ele>2419</ele>
        <time>2024-10-15T10:59:45.000Z</time>
      </trkpt>
      <trkpt lat="45.09533" lon="5.97102">
        <ele>2418.8000488281</ele>
        <time>2024-10-15T10:59:46.000Z</time>
      </trkpt>
      <trkpt lat="45.09533" lon="5.97102">
        <ele>2418.1999511719</ele>
        <time>2024-10-15T10:59:47.000Z</time>
      </trkpt>
      <trkpt lat="45.09533" lon="5.97102">
        <ele>2418</ele>
        <time>2024-10-15T10:59:48.000Z</time>
      </trkpt>
      <trkpt lat="45.09532" lon="5.97101">
        <ele>2417.6000976562</ele>
        <time>2024-10-15T10:59:49.000Z</time>
      </trkpt>
      <trkpt lat="45.09531" lon="5.971">
        <ele>2417.3999023438</ele>
        <time>2024-10-15T10:59:50.000Z</time>
      </trkpt>
      <trkpt lat="45.09531" lon="5.97098">
        <ele>2417.1999511719</ele>
        <time>2024-10-15T10:59:51.000Z</time>
      </trkpt>
      <trkpt lat="45.0953" lon="5.97096">
        <ele>2417</ele>
        <time>2024-10-15T10:59:52.000Z</time>
      </trkpt>
      <trkpt lat="45.0953" lon="5.97094">
        <ele>2417</ele>
        <time>2024-10-15T10:59:53.000Z</time>
      </trkpt>
      <trkpt lat="45.09529" lon="5.97093">
        <ele>2416.6000976562</ele>
        <time>2024-10-15T10:59:54.000Z</time>
      </trkpt>
      <trkpt lat="45.09529" lon="5.97092">
        <ele>2416.6000976562</ele>
        <time>2024-10-15T10:59:55.000Z</time>
      </trkpt>
      <trkpt lat="45.09529" lon="5.97091">
        <ele>2416.6000976562</ele>
        <time>2024-10-15T10:59:56.000Z</time>
      </trkpt>
      <trkpt lat="45.09528" lon="5.9709">
        <ele>2416.3999023438</ele>
        <time>2024-10-15T10:59:57.000Z</time>
      </trkpt>
      <trkpt lat="45.09528" lon="5.9709">
        <ele>2416.1999511719</ele>
        <time>2024-10-15T10:59:58.000Z</time>
      </trkpt>
      <trkpt lat="45.09527" lon="5.97089">
        <ele>2416</ele>
        <time>2024-10-15T10:59:59.000Z</time>
      </trkpt>
      <trkpt lat="45.09527" lon="5.97089">
        <ele>2416</ele>
        <time>2024-10-15T11:00:00.000Z</time>
      </trkpt>
      <trkpt lat="45.09526" lon="5.97089">
        <ele>2415.8000488281</ele>
        <time>2024-10-15T11:00:01.000Z</time>
      </trkpt>
      <trkpt lat="45.09526" lon="5.97089">
        <ele>2415.6000976562</ele>
        <time>2024-10-15T11:00:02.000Z</time>
      </trkpt>
      <trkpt lat="45.09525" lon="5.97089">
        <ele>2415.3999023438</ele>
        <time>2024-10-15T11:00:03.000Z</time>
      </trkpt>
      <trkpt lat="45.09525" lon="5.97088">
        <ele>2415.1999511719</ele>
        <time>2024-10-15T11:00:04.000Z</time>
      </trkpt>
      <trkpt lat="45.09525" lon="5.97087">
        <ele>2415</ele>
        <time>2024-10-15T11:00:05.000Z</time>
      </trkpt>
      <trkpt lat="45.09525" lon="5.97086">
        <ele>2414.6000976562</ele>
        <time>2024-10-15T11:00:06.000Z</time>
      </trkpt>
      <trkpt lat="45.09525" lon="5.97086">
        <ele>2414.3999023438</ele>
        <time>2024-10-15T11:00:07.000Z</time>
      </trkpt>
      <trkpt lat="45.09524" lon="5.97086">
        <ele>2414</ele>
        <time>2024-10-15T11:00:08.000Z</time>
      </trkpt>
      <trkpt lat="45.09524" lon="5.97086">
        <ele>2413.8000488281</ele>
        <time>2024-10-15T11:00:09.000Z</time>
      </trkpt>
      <trkpt lat="45.09524" lon="5.97086">
        <ele>2413.6000976562</ele>
        <time>2024-10-15T11:00:10.000Z</time>
      </trkpt>
      <trkpt lat="45.09524" lon="5.97085">
        <ele>2413.3999023438</ele>
        <time>2024-10-15T11:00:11.000Z</time>
      </trkpt>
      <trkpt lat="45.09524" lon="5.97085">
        <ele>2413.3999023438</ele>
        <time>2024-10-15T11:00:12.000Z</time>
      </trkpt>
      <trkpt lat="45.09523" lon="5.97085">
        <ele>2413.1999511719</ele>
        <time>2024-10-15T11:00:13.000Z</time>
      </trkpt>
      <trkpt lat="45.09523" lon="5.97085">
        <ele>2413.1999511719</ele>
        <time>2024-10-15T11:00:14.000Z</time>
      </trkpt>
      <trkpt lat="45.09523" lon="5.97085">
        <ele>2413.1999511719</ele>
        <time>2024-10-15T11:00:15.000Z</time>
      </trkpt>
      <trkpt lat="45.09523" lon="5.97085">
        <ele>2413.1999511719</ele>
        <time>2024-10-15T11:00:16.000Z</time>
      </trkpt>
      <trkpt lat="45.09523" lon="5.97085">
        <ele>2413.1999511719</ele>
        <time>2024-10-15T11:00:17.000Z</time>
      </trkpt>
      <trkpt lat="45.09523" lon="5.97085">
        <ele>2413.1999511719</ele>
        <time>2024-10-15T11:00:18.000Z</time>
      </trkpt>
      <trkpt lat="45.09523" lon="5.97085">
        <ele>2413</ele>
        <time>2024-10-15T11:00:19.000Z</time>
      </trkpt>
      <trkpt lat="45.09523" lon="5.97085">
        <ele>2413</ele>
        <time>2024-10-15T11:00:20.000Z</time>
      </trkpt>
      <trkpt lat="45.09523" lon="5.97085">
        <ele>2413</ele>
        <time>2024-10-15T11:00:21.000Z</time>
      </trkpt>
      <trkpt lat="45.09523" lon="5.97085">
        <ele>2413</ele>
        <time>2024-10-15T11:00:22.000Z</time>
      </trkpt>
      <trkpt lat="45.09523" lon="5.97085">
        <ele>2412.8000488281</ele>
        <time>2024-10-15T11:00:23.000Z</time>
      </trkpt>
      <trkpt lat="45.09523" lon="5.97085">
        <ele>2412.8000488281</ele>
        <time>2024-10-15T11:00:24.000Z</time>
      </trkpt>
      <trkpt lat="45.09523" lon="5.97085">
        <ele>2412.6000976562</ele>
        <time>2024-10-15T11:00:25.000Z</time>
      </trkpt>
      <trkpt lat="45.09523" lon="5.97085">
        <ele>2412.3999023438</ele>
        <time>2024-10-15T11:00:26.000Z</time>
      </trkpt>
      <trkpt lat="45.09523" lon="5.97085">
        <ele>2412.1999511719</ele>
        <time>2024-10-15T11:00:27.000Z</time>
      </trkpt>
      <trkpt lat="45.09523" lon="5.97085">
        <ele>2412</ele>
        <time>2024-10-15T11:00:28.000Z</time>
      </trkpt>
      <trkpt lat="45.09523" lon="5.97085">
        <ele>2412</ele>
        <time>2024-10-15T11:00:29.000Z</time>
      </trkpt>
      <trkpt lat="45.09523" lon="5.97085">
        <ele>2411.8000488281</ele>
        <time>2024-10-15T11:00:30.000Z</time>
      </trkpt>
      <trkpt lat="45.09523" lon="5.97085">
        <ele>2411.6000976562</ele>
        <time>2024-10-15T11:00:31.000Z</time>
      </trkpt>
      <trkpt lat="45.09523" lon="5.97085">
        <ele>2411.6000976562</ele>
        <time>2024-10-15T11:00:32.000Z</time>
      </trkpt>
      <trkpt lat="45.09523" lon="5.97085">
        <ele>2411.6000976562</ele>
        <time>2024-10-15T11:00:33.000Z</time>
      </trkpt>
      <trkpt lat="45.09523" lon="5.97085">
        <ele>2411.6000976562</ele>
        <time>2024-10-15T11:00:34.000Z</time>
      </trkpt>
      <trkpt lat="45.09523" lon="5.97085">
        <ele>2411.6000976562</ele>
        <time>2024-10-15T11:00:35.000Z</time>
      </trkpt>
      <trkpt lat="45.09523" lon="5.97085">
        <ele>2411.3999023438</ele>
        <time>2024-10-15T11:00:36.000Z</time>
      </trkpt>
      <trkpt lat="45.09523" lon="5.97085">
        <ele>2411.1999511719</ele>
        <time>2024-10-15T11:00:37.000Z</time>
      </trkpt>
      <trkpt lat="45.09523" lon="5.97085">
        <ele>2411.1999511719</ele>
        <time>2024-10-15T11:00:38.000Z</time>
      </trkpt>
      <trkpt lat="45.09523" lon="5.97085">
        <ele>2410.8000488281</ele>
        <time>2024-10-15T11:00:39.000Z</time>
      </trkpt>
      <trkpt lat="45.09523" lon="5.97085">
        <ele>2410.8000488281</ele>
        <time>2024-10-15T11:00:40.000Z</time>
      </trkpt>
      <trkpt lat="45.09523" lon="5.97085">
        <ele>2410.6000976562</ele>
        <time>2024-10-15T11:00:41.000Z</time>
      </trkpt>
      <trkpt lat="45.09523" lon="5.97085">
        <ele>2410.3999023438</ele>
        <time>2024-10-15T11:00:42.000Z</time>
      </trkpt>
      <trkpt lat="45.09523" lon="5.97085">
        <ele>2410.3999023438</ele>
        <time>2024-10-15T11:00:43.000Z</time>
      </trkpt>
      <trkpt lat="45.09523" lon="5.97085">
        <ele>2410.3999023438</ele>
        <time>2024-10-15T11:00:44.000Z</time>
      </trkpt>
      <trkpt lat="45.09523" lon="5.97086">
        <ele>2410.1999511719</ele>
        <time>2024-10-15T11:00:45.000Z</time>
      </trkpt>
      <trkpt lat="45.09522" lon="5.97086">
        <ele>2410.1999511719</ele>
        <time>2024-10-15T11:00:46.000Z</time>
      </trkpt>
      <trkpt lat="45.09522" lon="5.97086">
        <ele>2410</ele>
        <time>2024-10-15T11:00:47.000Z</time>
      </trkpt>
      <trkpt lat="45.09522" lon="5.97086">
        <ele>2410</ele>
        <time>2024-10-15T11:00:48.000Z</time>
      </trkpt>
      <trkpt lat="45.09522" lon="5.97087">
        <ele>2410</ele>
        <time>2024-10-15T11:00:49.000Z</time>
      </trkpt>
      <trkpt lat="45.09522" lon="5.97087">
        <ele>2409.8000488281</ele>
        <time>2024-10-15T11:00:50.000Z</time>
      </trkpt>
      <trkpt lat="45.09522" lon="5.97087">
        <ele>2409.8000488281</ele>
        <time>2024-10-15T11:00:51.000Z</time>
      </trkpt>
      <trkpt lat="45.09522" lon="5.97087">
        <ele>2409.8000488281</ele>
        <time>2024-10-15T11:00:52.000Z</time>
      </trkpt>
      <trkpt lat="45.09521" lon="5.97088">
        <ele>2409.8000488281</ele>
        <time>2024-10-15T11:00:53.000Z</time>
      </trkpt>
      <trkpt lat="45.09521" lon="5.97088">
        <ele>2409.8000488281</ele>
        <time>2024-10-15T11:00:54.000Z</time>
      </trkpt>
      <trkpt lat="45.09521" lon="5.97088">
        <ele>2409.8000488281</ele>
        <time>2024-10-15T11:00:55.000Z</time>
      </trkpt>
      <trkpt lat="45.09521" lon="5.97088">
        <ele>2409.6000976562</ele>
        <time>2024-10-15T11:00:56.000Z</time>
      </trkpt>
      <trkpt lat="45.09521" lon="5.97088">
        <ele>2409.6000976562</ele>
        <time>2024-10-15T11:00:57.000Z</time>
      </trkpt>
      <trkpt lat="45.09521" lon="5.97088">
        <ele>2409.3999023438</ele>
        <time>2024-10-15T11:00:58.000Z</time>
      </trkpt>
      <trkpt lat="45.09521" lon="5.97088">
        <ele>2409.3999023438</ele>
        <time>2024-10-15T11:00:59.000Z</time>
      </trkpt>
      <trkpt lat="45.09521" lon="5.97088">
        <ele>2409</ele>
        <time>2024-10-15T11:01:00.000Z</time>
      </trkpt>
      <trkpt lat="45.09521" lon="5.97088">
        <ele>2408.8000488281</ele>
        <time>2024-10-15T11:01:01.000Z</time>
      </trkpt>
      <trkpt lat="45.09521" lon="5.97088">
        <ele>2408.6000976562</ele>
        <time>2024-10-15T11:01:02.000Z</time>
      </trkpt>
      <trkpt lat="45.09521" lon="5.97088">
        <ele>2408.6000976562</ele>
        <time>2024-10-15T11:01:03.000Z</time>
      </trkpt>
      <trkpt lat="45.09521" lon="5.97088">
        <ele>2408.1999511719</ele>
        <time>2024-10-15T11:01:04.000Z</time>
      </trkpt>
      <trkpt lat="45.09521" lon="5.97088">
        <ele>2408.1999511719</ele>
        <time>2024-10-15T11:01:05.000Z</time>
      </trkpt>
      <trkpt lat="45.09521" lon="5.97088">
        <ele>2408</ele>
        <time>2024-10-15T11:01:06.000Z</time>
      </trkpt>
      <trkpt lat="45.09521" lon="5.97088">
        <ele>2407.8000488281</ele>
        <time>2024-10-15T11:01:07.000Z</time>
      </trkpt>
      <trkpt lat="45.09521" lon="5.97088">
        <ele>2407.8000488281</ele>
        <time>2024-10-15T11:01:08.000Z</time>
      </trkpt>
      <trkpt lat="45.09521" lon="5.97088">
        <ele>2407.6000976562</ele>
        <time>2024-10-15T11:01:09.000Z</time>
      </trkpt>
      <trkpt lat="45.09521" lon="5.97088">
        <ele>2407.3999023438</ele>
        <time>2024-10-15T11:01:10.000Z</time>
      </trkpt>
      <trkpt lat="45.09521" lon="5.97088">
        <ele>2407</ele>
        <time>2024-10-15T11:01:11.000Z</time>
      </trkpt>
      <trkpt lat="45.09521" lon="5.97088">
        <ele>2406.8000488281</ele>
        <time>2024-10-15T11:01:12.000Z</time>
      </trkpt>
      <trkpt lat="45.0952" lon="5.97088">
        <ele>2406.6000976562</ele>
        <time>2024-10-15T11:01:13.000Z</time>
      </trkpt>
      <trkpt lat="45.0952" lon="5.97088">
        <ele>2406.6000976562</ele>
        <time>2024-10-15T11:01:14.000Z</time>
      </trkpt>
      <trkpt lat="45.0952" lon="5.97088">
        <ele>2406.6000976562</ele>
        <time>2024-10-15T11:01:15.000Z</time>
      </trkpt>
      <trkpt lat="45.0952" lon="5.97088">
        <ele>2406.6000976562</ele>
        <time>2024-10-15T11:01:16.000Z</time>
      </trkpt>
      <trkpt lat="45.0952" lon="5.97088">
        <ele>2407</ele>
        <time>2024-10-15T11:01:17.000Z</time>
      </trkpt>
      <trkpt lat="45.09519" lon="5.97088">
        <ele>2407</ele>
        <time>2024-10-15T11:01:18.000Z</time>
      </trkpt>
      <trkpt lat="45.09519" lon="5.97087">
        <ele>2407.1999511719</ele>
        <time>2024-10-15T11:01:19.000Z</time>
      </trkpt>
      <trkpt lat="45.09518" lon="5.97086">
        <ele>2407.3999023438</ele>
        <time>2024-10-15T11:01:20.000Z</time>
      </trkpt>
      <trkpt lat="45.09518" lon="5.97086">
        <ele>2407.6000976562</ele>
        <time>2024-10-15T11:01:21.000Z</time>
      </trkpt>
      <trkpt lat="45.09518" lon="5.97085">
        <ele>2407.6000976562</ele>
        <time>2024-10-15T11:01:22.000Z</time>
      </trkpt>
      <trkpt lat="45.09517" lon="5.97085">
        <ele>2407.8000488281</ele>
        <time>2024-10-15T11:01:23.000Z</time>
      </trkpt>
      <trkpt lat="45.09517" lon="5.97085">
        <ele>2407.8000488281</ele>
        <time>2024-10-15T11:01:24.000Z</time>
      </trkpt>
      <trkpt lat="45.09516" lon="5.97085">
        <ele>2407.8000488281</ele>
        <time>2024-10-15T11:01:25.000Z</time>
      </trkpt>
      <trkpt lat="45.09516" lon="5.97085">
        <ele>2408</ele>
        <time>2024-10-15T11:01:26.000Z</time>
      </trkpt>
      <trkpt lat="45.09516" lon="5.97085">
        <ele>2408</ele>
        <time>2024-10-15T11:01:27.000Z</time>
      </trkpt>
      <trkpt lat="45.09516" lon="5.97085">
        <ele>2407.8000488281</ele>
        <time>2024-10-15T11:01:28.000Z</time>
      </trkpt>
      <trkpt lat="45.09516" lon="5.97085">
        <ele>2407.8000488281</ele>
        <time>2024-10-15T11:01:29.000Z</time>
      </trkpt>
      <trkpt lat="45.09516" lon="5.97085">
        <ele>2407.8000488281</ele>
        <time>2024-10-15T11:01:30.000Z</time>
      </trkpt>
      <trkpt lat="45.09516" lon="5.97085">
        <ele>2407.6000976562</ele>
        <time>2024-10-15T11:01:31.000Z</time>
      </trkpt>
      <trkpt lat="45.09516" lon="5.97085">
        <ele>2407.1999511719</ele>
        <time>2024-10-15T11:01:32.000Z</time>
      </trkpt>
      <trkpt lat="45.09516" lon="5.97085">
        <ele>2407</ele>
        <time>2024-10-15T11:01:33.000Z</time>
      </trkpt>
      <trkpt lat="45.09516" lon="5.97085">
        <ele>2406.8000488281</ele>
        <time>2024-10-15T11:01:34.000Z</time>
      </trkpt>
      <trkpt lat="45.09516" lon="5.97085">
        <ele>2406.8000488281</ele>
        <time>2024-10-15T11:01:35.000Z</time>
      </trkpt>
      <trkpt lat="45.09516" lon="5.97085">
        <ele>2406.8000488281</ele>
        <time>2024-10-15T11:01:36.000Z</time>
      </trkpt>
      <trkpt lat="45.09516" lon="5.97085">
        <ele>2406.8000488281</ele>
        <time>2024-10-15T11:01:37.000Z</time>
      </trkpt>
      <trkpt lat="45.09516" lon="5.97085">
        <ele>2406.8000488281</ele>
        <time>2024-10-15T11:01:38.000Z</time>
      </trkpt>
      <trkpt lat="45.09516" lon="5.97085">
        <ele>2406.8000488281</ele>
        <time>2024-10-15T11:01:39.000Z</time>
      </trkpt>
      <trkpt lat="45.09516" lon="5.97084">
        <ele>2406.6000976562</ele>
        <time>2024-10-15T11:01:40.000Z</time>
      </trkpt>
      <trkpt lat="45.09516" lon="5.97084">
        <ele>2406.6000976562</ele>
        <time>2024-10-15T11:01:41.000Z</time>
      </trkpt>
      <trkpt lat="45.09516" lon="5.97084">
        <ele>2406.3999023438</ele>
        <time>2024-10-15T11:01:42.000Z</time>
      </trkpt>
      <trkpt lat="45.09516" lon="5.97084">
        <ele>2406.1999511719</ele>
        <time>2024-10-15T11:01:43.000Z</time>
      </trkpt>
      <trkpt lat="45.09516" lon="5.97084">
        <ele>2405.8000488281</ele>
        <time>2024-10-15T11:01:44.000Z</time>
      </trkpt>
      <trkpt lat="45.09516" lon="5.97083">
        <ele>2405.6000976562</ele>
        <time>2024-10-15T11:01:45.000Z</time>
      </trkpt>
      <trkpt lat="45.09516" lon="5.97083">
        <ele>2405.3999023438</ele>
        <time>2024-10-15T11:01:46.000Z</time>
      </trkpt>
      <trkpt lat="45.09516" lon="5.97083">
        <ele>2405.1999511719</ele>
        <time>2024-10-15T11:01:47.000Z</time>
      </trkpt>
      <trkpt lat="45.09516" lon="5.97083">
        <ele>2405</ele>
        <time>2024-10-15T11:01:48.000Z</time>
      </trkpt>
      <trkpt lat="45.09516" lon="5.97083">
        <ele>2404.8000488281</ele>
        <time>2024-10-15T11:01:49.000Z</time>
      </trkpt>
      <trkpt lat="45.09516" lon="5.97082">
        <ele>2404.6000976562</ele>
        <time>2024-10-15T11:01:50.000Z</time>
      </trkpt>
      <trkpt lat="45.09516" lon="5.97082">
        <ele>2404.3999023438</ele>
        <time>2024-10-15T11:01:51.000Z</time>
      </trkpt>
      <trkpt lat="45.09516" lon="5.97082">
        <ele>2404.1999511719</ele>
        <time>2024-10-15T11:01:52.000Z</time>
      </trkpt>
      <trkpt lat="45.09516" lon="5.97082">
        <ele>2404.1999511719</ele>
        <time>2024-10-15T11:01:53.000Z</time>
      </trkpt>
      <trkpt lat="45.09515" lon="5.97082">
        <ele>2404</ele>
        <time>2024-10-15T11:01:54.000Z</time>
      </trkpt>
      <trkpt lat="45.09515" lon="5.97082">
        <ele>2404</ele>
        <time>2024-10-15T11:01:55.000Z</time>
      </trkpt>
      <trkpt lat="45.09515" lon="5.97082">
        <ele>2404</ele>
        <time>2024-10-15T11:01:56.000Z</time>
      </trkpt>
      <trkpt lat="45.09514" lon="5.97082">
        <ele>2404</ele>
        <time>2024-10-15T11:01:57.000Z</time>
      </trkpt>
      <trkpt lat="45.09514" lon="5.97081">
        <ele>2404</ele>
        <time>2024-10-15T11:01:58.000Z</time>
      </trkpt>
      <trkpt lat="45.09514" lon="5.97081">
        <ele>2403.8000488281</ele>
        <time>2024-10-15T11:01:59.000Z</time>
      </trkpt>
      <trkpt lat="45.09513" lon="5.97081">
        <ele>2403.6000976562</ele>
        <time>2024-10-15T11:02:00.000Z</time>
      </trkpt>
      <trkpt lat="45.09513" lon="5.97081">
        <ele>2403.3999023438</ele>
        <time>2024-10-15T11:02:01.000Z</time>
      </trkpt>
      <trkpt lat="45.09513" lon="5.97081">
        <ele>2403.3999023438</ele>
        <time>2024-10-15T11:02:02.000Z</time>
      </trkpt>
      <trkpt lat="45.09512" lon="5.97081">
        <ele>2403.3999023438</ele>
        <time>2024-10-15T11:02:03.000Z</time>
      </trkpt>
      <trkpt lat="45.09512" lon="5.97081">
        <ele>2403.1999511719</ele>
        <time>2024-10-15T11:02:04.000Z</time>
      </trkpt>
      <trkpt lat="45.09512" lon="5.97081">
        <ele>2403.1999511719</ele>
        <time>2024-10-15T11:02:05.000Z</time>
      </trkpt>
      <trkpt lat="45.09512" lon="5.97081">
        <ele>2403.1999511719</ele>
        <time>2024-10-15T11:02:06.000Z</time>
      </trkpt>
      <trkpt lat="45.09512" lon="5.97081">
        <ele>2403.1999511719</ele>
        <time>2024-10-15T11:02:07.000Z</time>
      </trkpt>
      <trkpt lat="45.09512" lon="5.97081">
        <ele>2403.1999511719</ele>
        <time>2024-10-15T11:02:08.000Z</time>
      </trkpt>
      <trkpt lat="45.09512" lon="5.97081">
        <ele>2403.1999511719</ele>
        <time>2024-10-15T11:02:09.000Z</time>
      </trkpt>
      <trkpt lat="45.09512" lon="5.97081">
        <ele>2403.1999511719</ele>
        <time>2024-10-15T11:02:10.000Z</time>
      </trkpt>
      <trkpt lat="45.09512" lon="5.97081">
        <ele>2403.1999511719</ele>
        <time>2024-10-15T11:02:11.000Z</time>
      </trkpt>
      <trkpt lat="45.09512" lon="5.97081">
        <ele>2403.1999511719</ele>
        <time>2024-10-15T11:02:12.000Z</time>
      </trkpt>
      <trkpt lat="45.09511" lon="5.97081">
        <ele>2403.1999511719</ele>
        <time>2024-10-15T11:02:13.000Z</time>
      </trkpt>
      <trkpt lat="45.09511" lon="5.97081">
        <ele>2403</ele>
        <time>2024-10-15T11:02:14.000Z</time>
      </trkpt>
      <trkpt lat="45.09511" lon="5.97081">
        <ele>2403</ele>
        <time>2024-10-15T11:02:15.000Z</time>
      </trkpt>
      <trkpt lat="45.09511" lon="5.97081">
        <ele>2402.8000488281</ele>
        <time>2024-10-15T11:02:16.000Z</time>
      </trkpt>
      <trkpt lat="45.09511" lon="5.97081">
        <ele>2402.1999511719</ele>
        <time>2024-10-15T11:02:17.000Z</time>
      </trkpt>
      <trkpt lat="45.09511" lon="5.97081">
        <ele>2402.1999511719</ele>
        <time>2024-10-15T11:02:18.000Z</time>
      </trkpt>
      <trkpt lat="45.09511" lon="5.97081">
        <ele>2402.1999511719</ele>
        <time>2024-10-15T11:02:19.000Z</time>
      </trkpt>
      <trkpt lat="45.09511" lon="5.97081">
        <ele>2401.8000488281</ele>
        <time>2024-10-15T11:02:20.000Z</time>
      </trkpt>
      <trkpt lat="45.09511" lon="5.97081">
        <ele>2401.3999023438</ele>
        <time>2024-10-15T11:02:21.000Z</time>
      </trkpt>
      <trkpt lat="45.09511" lon="5.97081">
        <ele>2401</ele>
        <time>2024-10-15T11:02:22.000Z</time>
      </trkpt>
      <trkpt lat="45.09511" lon="5.97081">
        <ele>2401</ele>
        <time>2024-10-15T11:02:23.000Z</time>
      </trkpt>
      <trkpt lat="45.09511" lon="5.97081">
        <ele>2400.8000488281</ele>
        <time>2024-10-15T11:02:24.000Z</time>
      </trkpt>
      <trkpt lat="45.09511" lon="5.97081">
        <ele>2400.6000976562</ele>
        <time>2024-10-15T11:02:25.000Z</time>
      </trkpt>
      <trkpt lat="45.09511" lon="5.97081">
        <ele>2400.1999511719</ele>
        <time>2024-10-15T11:02:26.000Z</time>
      </trkpt>
      <trkpt lat="45.09511" lon="5.97082">
        <ele>2400</ele>
        <time>2024-10-15T11:02:27.000Z</time>
      </trkpt>
      <trkpt lat="45.09511" lon="5.97082">
        <ele>2399.6000976562</ele>
        <time>2024-10-15T11:02:28.000Z</time>
      </trkpt>
      <trkpt lat="45.09511" lon="5.97082">
        <ele>2399.1999511719</ele>
        <time>2024-10-15T11:02:29.000Z</time>
      </trkpt>
      <trkpt lat="45.0951" lon="5.97082">
        <ele>2398.8000488281</ele>
        <time>2024-10-15T11:02:30.000Z</time>
      </trkpt>
      <trkpt lat="45.0951" lon="5.97082">
        <ele>2398.3999023438</ele>
        <time>2024-10-15T11:02:31.000Z</time>
      </trkpt>
      <trkpt lat="45.0951" lon="5.97082">
        <ele>2398.1999511719</ele>
        <time>2024-10-15T11:02:32.000Z</time>
      </trkpt>
      <trkpt lat="45.09509" lon="5.97082">
        <ele>2398</ele>
        <time>2024-10-15T11:02:33.000Z</time>
      </trkpt>
      <trkpt lat="45.09509" lon="5.97082">
        <ele>2397.6000976562</ele>
        <time>2024-10-15T11:02:34.000Z</time>
      </trkpt>
      <trkpt lat="45.09509" lon="5.97082">
        <ele>2397.3999023438</ele>
        <time>2024-10-15T11:02:35.000Z</time>
      </trkpt>
      <trkpt lat="45.09509" lon="5.97082">
        <ele>2397.1999511719</ele>
        <time>2024-10-15T11:02:36.000Z</time>
      </trkpt>
      <trkpt lat="45.09508" lon="5.97082">
        <ele>2397</ele>
        <time>2024-10-15T11:02:37.000Z</time>
      </trkpt>
      <trkpt lat="45.09508" lon="5.97082">
        <ele>2396.8000488281</ele>
        <time>2024-10-15T11:02:38.000Z</time>
      </trkpt>
      <trkpt lat="45.09508" lon="5.97083">
        <ele>2397</ele>
        <time>2024-10-15T11:02:39.000Z</time>
      </trkpt>
      <trkpt lat="45.09508" lon="5.97083">
        <ele>2397</ele>
        <time>2024-10-15T11:02:40.000Z</time>
      </trkpt>
      <trkpt lat="45.09507" lon="5.97083">
        <ele>2397</ele>
        <time>2024-10-15T11:02:41.000Z</time>
      </trkpt>
      <trkpt lat="45.09507" lon="5.97083">
        <ele>2397.1999511719</ele>
        <time>2024-10-15T11:02:42.000Z</time>
      </trkpt>
      <trkpt lat="45.09507" lon="5.97084">
        <ele>2397.1999511719</ele>
        <time>2024-10-15T11:02:43.000Z</time>
      </trkpt>
      <trkpt lat="45.09506" lon="5.97084">
        <ele>2397.1999511719</ele>
        <time>2024-10-15T11:02:44.000Z</time>
      </trkpt>
      <trkpt lat="45.09506" lon="5.97084">
        <ele>2397.1999511719</ele>
        <time>2024-10-15T11:02:45.000Z</time>
      </trkpt>
      <trkpt lat="45.09506" lon="5.97085">
        <ele>2397.1999511719</ele>
        <time>2024-10-15T11:02:46.000Z</time>
      </trkpt>
      <trkpt lat="45.09506" lon="5.97085">
        <ele>2397.1999511719</ele>
        <time>2024-10-15T11:02:47.000Z</time>
      </trkpt>
      <trkpt lat="45.09506" lon="5.97086">
        <ele>2397.1999511719</ele>
        <time>2024-10-15T11:02:48.000Z</time>
      </trkpt>
      <trkpt lat="45.09505" lon="5.97087">
        <ele>2397.3999023438</ele>
        <time>2024-10-15T11:02:49.000Z</time>
      </trkpt>
      <trkpt lat="45.09505" lon="5.97088">
        <ele>2397.6000976562</ele>
        <time>2024-10-15T11:02:50.000Z</time>
      </trkpt>
      <trkpt lat="45.09505" lon="5.97089">
        <ele>2398</ele>
        <time>2024-10-15T11:02:51.000Z</time>
      </trkpt>
      <trkpt lat="45.09505" lon="5.9709">
        <ele>2398.3999023438</ele>
        <time>2024-10-15T11:02:52.000Z</time>
      </trkpt>
      <trkpt lat="45.09505" lon="5.97091">
        <ele>2398.6000976562</ele>
        <time>2024-10-15T11:02:53.000Z</time>
      </trkpt>
      <trkpt lat="45.09505" lon="5.97091">
        <ele>2398.8000488281</ele>
        <time>2024-10-15T11:02:54.000Z</time>
      </trkpt>
      <trkpt lat="45.09505" lon="5.97092">
        <ele>2399.1999511719</ele>
        <time>2024-10-15T11:02:55.000Z</time>
      </trkpt>
      <trkpt lat="45.09505" lon="5.97092">
        <ele>2399.3999023438</ele>
        <time>2024-10-15T11:02:56.000Z</time>
      </trkpt>
      <trkpt lat="45.09505" lon="5.97092">
        <ele>2399.6000976562</ele>
        <time>2024-10-15T11:02:57.000Z</time>
      </trkpt>
      <trkpt lat="45.09505" lon="5.97092">
        <ele>2399.8000488281</ele>
        <time>2024-10-15T11:02:58.000Z</time>
      </trkpt>
      <trkpt lat="45.09505" lon="5.97092">
        <ele>2399.8000488281</ele>
        <time>2024-10-15T11:02:59.000Z</time>
      </trkpt>
      <trkpt lat="45.09505" lon="5.97092">
        <ele>2399.8000488281</ele>
        <time>2024-10-15T11:03:00.000Z</time>
      </trkpt>
      <trkpt lat="45.09504" lon="5.97092">
        <ele>2399.8000488281</ele>
        <time>2024-10-15T11:03:01.000Z</time>
      </trkpt>
      <trkpt lat="45.09504" lon="5.97093">
        <ele>2399.8000488281</ele>
        <time>2024-10-15T11:03:02.000Z</time>
      </trkpt>
      <trkpt lat="45.09504" lon="5.97093">
        <ele>2399.8000488281</ele>
        <time>2024-10-15T11:03:03.000Z</time>
      </trkpt>
      <trkpt lat="45.09504" lon="5.97093">
        <ele>2399.6000976562</ele>
        <time>2024-10-15T11:03:04.000Z</time>
      </trkpt>
      <trkpt lat="45.09504" lon="5.97093">
        <ele>2399.6000976562</ele>
        <time>2024-10-15T11:03:05.000Z</time>
      </trkpt>
      <trkpt lat="45.09504" lon="5.97094">
        <ele>2399.6000976562</ele>
        <time>2024-10-15T11:03:06.000Z</time>
      </trkpt>
      <trkpt lat="45.09503" lon="5.97094">
        <ele>2399.6000976562</ele>
        <time>2024-10-15T11:03:07.000Z</time>
      </trkpt>
      <trkpt lat="45.09503" lon="5.97095">
        <ele>2399.3999023438</ele>
        <time>2024-10-15T11:03:08.000Z</time>
      </trkpt>
      <trkpt lat="45.09503" lon="5.97095">
        <ele>2399.3999023438</ele>
        <time>2024-10-15T11:03:09.000Z</time>
      </trkpt>
      <trkpt lat="45.09503" lon="5.97095">
        <ele>2399.3999023438</ele>
        <time>2024-10-15T11:03:10.000Z</time>
      </trkpt>
      <trkpt lat="45.09503" lon="5.97095">
        <ele>2399.3999023438</ele>
        <time>2024-10-15T11:03:11.000Z</time>
      </trkpt>
      <trkpt lat="45.09503" lon="5.97095">
        <ele>2399.3999023438</ele>
        <time>2024-10-15T11:03:12.000Z</time>
      </trkpt>
      <trkpt lat="45.09503" lon="5.97095">
        <ele>2399.3999023438</ele>
        <time>2024-10-15T11:03:13.000Z</time>
      </trkpt>
      <trkpt lat="45.09503" lon="5.97095">
        <ele>2399.3999023438</ele>
        <time>2024-10-15T11:03:14.000Z</time>
      </trkpt>
      <trkpt lat="45.09503" lon="5.97095">
        <ele>2399.3999023438</ele>
        <time>2024-10-15T11:03:15.000Z</time>
      </trkpt>
      <trkpt lat="45.09503" lon="5.97095">
        <ele>2399.1999511719</ele>
        <time>2024-10-15T11:03:16.000Z</time>
      </trkpt>
      <trkpt lat="45.09503" lon="5.97095">
        <ele>2399.1999511719</ele>
        <time>2024-10-15T11:03:17.000Z</time>
      </trkpt>
      <trkpt lat="45.09503" lon="5.97095">
        <ele>2399.1999511719</ele>
        <time>2024-10-15T11:03:18.000Z</time>
      </trkpt>
      <trkpt lat="45.09503" lon="5.97095">
        <ele>2399</ele>
        <time>2024-10-15T11:03:19.000Z</time>
      </trkpt>
      <trkpt lat="45.09503" lon="5.97095">
        <ele>2399</ele>
        <time>2024-10-15T11:03:20.000Z</time>
      </trkpt>
      <trkpt lat="45.09503" lon="5.97095">
        <ele>2399</ele>
        <time>2024-10-15T11:03:21.000Z</time>
      </trkpt>
      <trkpt lat="45.09503" lon="5.97095">
        <ele>2399</ele>
        <time>2024-10-15T11:03:22.000Z</time>
      </trkpt>
      <trkpt lat="45.09503" lon="5.97095">
        <ele>2399</ele>
        <time>2024-10-15T11:03:23.000Z</time>
      </trkpt>
      <trkpt lat="45.09503" lon="5.97095">
        <ele>2399</ele>
        <time>2024-10-15T11:03:24.000Z</time>
      </trkpt>
      <trkpt lat="45.09503" lon="5.97095">
        <ele>2399</ele>
        <time>2024-10-15T11:03:25.000Z</time>
      </trkpt>
      <trkpt lat="45.09503" lon="5.97095">
        <ele>2399</ele>
        <time>2024-10-15T11:03:26.000Z</time>
      </trkpt>
      <trkpt lat="45.09503" lon="5.97095">
        <ele>2399</ele>
        <time>2024-10-15T11:03:27.000Z</time>
      </trkpt>
      <trkpt lat="45.09503" lon="5.97095">
        <ele>2398.8000488281</ele>
        <time>2024-10-15T11:03:28.000Z</time>
      </trkpt>
      <trkpt lat="45.09503" lon="5.97095">
        <ele>2398.8000488281</ele>
        <time>2024-10-15T11:03:29.000Z</time>
      </trkpt>
      <trkpt lat="45.09503" lon="5.97095">
        <ele>2398.8000488281</ele>
        <time>2024-10-15T11:03:30.000Z</time>
      </trkpt>
      <trkpt lat="45.09503" lon="5.97095">
        <ele>2398.8000488281</ele>
        <time>2024-10-15T11:03:31.000Z</time>
      </trkpt>
      <trkpt lat="45.09503" lon="5.97095">
        <ele>2398.8000488281</ele>
        <time>2024-10-15T11:03:32.000Z</time>
      </trkpt>
      <trkpt lat="45.09503" lon="5.97095">
        <ele>2398.8000488281</ele>
        <time>2024-10-15T11:03:33.000Z</time>
      </trkpt>
      <trkpt lat="45.09503" lon="5.97095">
        <ele>2399</ele>
        <time>2024-10-15T11:03:34.000Z</time>
      </trkpt>
      <trkpt lat="45.09503" lon="5.97095">
        <ele>2399</ele>
        <time>2024-10-15T11:03:35.000Z</time>
      </trkpt>
      <trkpt lat="45.09503" lon="5.97095">
        <ele>2399</ele>
        <time>2024-10-15T11:03:36.000Z</time>
      </trkpt>
      <trkpt lat="45.09503" lon="5.97095">
        <ele>2399</ele>
        <time>2024-10-15T11:03:37.000Z</time>
      </trkpt>
      <trkpt lat="45.09503" lon="5.97095">
        <ele>2399</ele>
        <time>2024-10-15T11:03:38.000Z</time>
      </trkpt>
      <trkpt lat="45.09503" lon="5.97095">
        <ele>2399.1999511719</ele>
        <time>2024-10-15T11:03:39.000Z</time>
      </trkpt>
      <trkpt lat="45.09503" lon="5.97095">
        <ele>2399.1999511719</ele>
        <time>2024-10-15T11:03:40.000Z</time>
      </trkpt>
      <trkpt lat="45.09503" lon="5.97095">
        <ele>2399.1999511719</ele>
        <time>2024-10-15T11:03:41.000Z</time>
      </trkpt>
      <trkpt lat="45.09503" lon="5.97095">
        <ele>2399.1999511719</ele>
        <time>2024-10-15T11:03:42.000Z</time>
      </trkpt>
      <trkpt lat="45.09503" lon="5.97095">
        <ele>2399.3999023438</ele>
        <time>2024-10-15T11:03:43.000Z</time>
      </trkpt>
      <trkpt lat="45.09503" lon="5.97095">
        <ele>2399</ele>
        <time>2024-10-15T11:03:44.000Z</time>
      </trkpt>
      <trkpt lat="45.09503" lon="5.97095">
        <ele>2398.8000488281</ele>
        <time>2024-10-15T11:03:45.000Z</time>
      </trkpt>
      <trkpt lat="45.09503" lon="5.97095">
        <ele>2398.8000488281</ele>
        <time>2024-10-15T11:03:46.000Z</time>
      </trkpt>
      <trkpt lat="45.09503" lon="5.97095">
        <ele>2398.6000976562</ele>
        <time>2024-10-15T11:03:47.000Z</time>
      </trkpt>
      <trkpt lat="45.09503" lon="5.97095">
        <ele>2398.3999023438</ele>
        <time>2024-10-15T11:03:48.000Z</time>
      </trkpt>
      <trkpt lat="45.09503" lon="5.97095">
        <ele>2398</ele>
        <time>2024-10-15T11:03:49.000Z</time>
      </trkpt>
      <trkpt lat="45.09503" lon="5.97095">
        <ele>2398</ele>
        <time>2024-10-15T11:03:50.000Z</time>
      </trkpt>
      <trkpt lat="45.09503" lon="5.97095">
        <ele>2397.8000488281</ele>
        <time>2024-10-15T11:03:51.000Z</time>
      </trkpt>
      <trkpt lat="45.09504" lon="5.97095">
        <ele>2397.8000488281</ele>
        <time>2024-10-15T11:03:52.000Z</time>
      </trkpt>
      <trkpt lat="45.09504" lon="5.97096">
        <ele>2397.8000488281</ele>
        <time>2024-10-15T11:03:53.000Z</time>
      </trkpt>
      <trkpt lat="45.09505" lon="5.97097">
        <ele>2397.6000976562</ele>
        <time>2024-10-15T11:03:54.000Z</time>
      </trkpt>
      <trkpt lat="45.09506" lon="5.97097">
        <ele>2397.6000976562</ele>
        <time>2024-10-15T11:03:55.000Z</time>
      </trkpt>
      <trkpt lat="45.09507" lon="5.97098">
        <ele>2397.6000976562</ele>
        <time>2024-10-15T11:03:56.000Z</time>
      </trkpt>
      <trkpt lat="45.09508" lon="5.97098">
        <ele>2397.6000976562</ele>
        <time>2024-10-15T11:03:57.000Z</time>
      </trkpt>
      <trkpt lat="45.09508" lon="5.97099">
        <ele>2397.1999511719</ele>
        <time>2024-10-15T11:03:58.000Z</time>
      </trkpt>
      <trkpt lat="45.09509" lon="5.97099">
        <ele>2397.1999511719</ele>
        <time>2024-10-15T11:03:59.000Z</time>
      </trkpt>
      <trkpt lat="45.09509" lon="5.97099">
        <ele>2397.1999511719</ele>
        <time>2024-10-15T11:04:00.000Z</time>
      </trkpt>
      <trkpt lat="45.09509" lon="5.971">
        <ele>2397</ele>
        <time>2024-10-15T11:04:01.000Z</time>
      </trkpt>
      <trkpt lat="45.09509" lon="5.971">
        <ele>2396.6000976562</ele>
        <time>2024-10-15T11:04:02.000Z</time>
      </trkpt>
      <trkpt lat="45.0951" lon="5.97101">
        <ele>2396.3999023438</ele>
        <time>2024-10-15T11:04:03.000Z</time>
      </trkpt>
      <trkpt lat="45.0951" lon="5.97101">
        <ele>2396</ele>
        <time>2024-10-15T11:04:04.000Z</time>
      </trkpt>
      <trkpt lat="45.0951" lon="5.97101">
        <ele>2395.6000976562</ele>
        <time>2024-10-15T11:04:05.000Z</time>
      </trkpt>
      <trkpt lat="45.0951" lon="5.97101">
        <ele>2395.3999023438</ele>
        <time>2024-10-15T11:04:06.000Z</time>
      </trkpt>
      <trkpt lat="45.09511" lon="5.97101">
        <ele>2395.1999511719</ele>
        <time>2024-10-15T11:04:07.000Z</time>
      </trkpt>
      <trkpt lat="45.09511" lon="5.97102">
        <ele>2395</ele>
        <time>2024-10-15T11:04:08.000Z</time>
      </trkpt>
      <trkpt lat="45.09511" lon="5.97102">
        <ele>2394.8000488281</ele>
        <time>2024-10-15T11:04:09.000Z</time>
      </trkpt>
      <trkpt lat="45.09511" lon="5.97102">
        <ele>2394.8000488281</ele>
        <time>2024-10-15T11:04:10.000Z</time>
      </trkpt>
      <trkpt lat="45.09511" lon="5.97103">
        <ele>2394.6000976562</ele>
        <time>2024-10-15T11:04:11.000Z</time>
      </trkpt>
      <trkpt lat="45.09512" lon="5.97103">
        <ele>2394.3999023438</ele>
        <time>2024-10-15T11:04:12.000Z</time>
      </trkpt>
      <trkpt lat="45.09512" lon="5.97103">
        <ele>2394</ele>
        <time>2024-10-15T11:04:13.000Z</time>
      </trkpt>
      <trkpt lat="45.09512" lon="5.97103">
        <ele>2393.8000488281</ele>
        <time>2024-10-15T11:04:14.000Z</time>
      </trkpt>
      <trkpt lat="45.09512" lon="5.97103">
        <ele>2393.8000488281</ele>
        <time>2024-10-15T11:04:15.000Z</time>
      </trkpt>
      <trkpt lat="45.09512" lon="5.97103">
        <ele>2393.8000488281</ele>
        <time>2024-10-15T11:04:16.000Z</time>
      </trkpt>
      <trkpt lat="45.09512" lon="5.97103">
        <ele>2393.8000488281</ele>
        <time>2024-10-15T11:04:17.000Z</time>
      </trkpt>
      <trkpt lat="45.09512" lon="5.97103">
        <ele>2393.8000488281</ele>
        <time>2024-10-15T11:04:18.000Z</time>
      </trkpt>
      <trkpt lat="45.09512" lon="5.97103">
        <ele>2393.8000488281</ele>
        <time>2024-10-15T11:04:19.000Z</time>
      </trkpt>
      <trkpt lat="45.09512" lon="5.97103">
        <ele>2393.8000488281</ele>
        <time>2024-10-15T11:04:20.000Z</time>
      </trkpt>
      <trkpt lat="45.09512" lon="5.97103">
        <ele>2393.8000488281</ele>
        <time>2024-10-15T11:04:21.000Z</time>
      </trkpt>
      <trkpt lat="45.09512" lon="5.97103">
        <ele>2393.8000488281</ele>
        <time>2024-10-15T11:04:22.000Z</time>
      </trkpt>
      <trkpt lat="45.09512" lon="5.97103">
        <ele>2393.8000488281</ele>
        <time>2024-10-15T11:04:23.000Z</time>
      </trkpt>
      <trkpt lat="45.09512" lon="5.97103">
        <ele>2393.8000488281</ele>
        <time>2024-10-15T11:04:24.000Z</time>
      </trkpt>
      <trkpt lat="45.09512" lon="5.97103">
        <ele>2393.8000488281</ele>
        <time>2024-10-15T11:04:25.000Z</time>
      </trkpt>
      <trkpt lat="45.09512" lon="5.97103">
        <ele>2393.6000976562</ele>
        <time>2024-10-15T11:04:26.000Z</time>
      </trkpt>
      <trkpt lat="45.09512" lon="5.97103">
        <ele>2393.6000976562</ele>
        <time>2024-10-15T11:04:27.000Z</time>
      </trkpt>
      <trkpt lat="45.09512" lon="5.97103">
        <ele>2393.8000488281</ele>
        <time>2024-10-15T11:04:28.000Z</time>
      </trkpt>
      <trkpt lat="45.09512" lon="5.97103">
        <ele>2393.8000488281</ele>
        <time>2024-10-15T11:04:29.000Z</time>
      </trkpt>
      <trkpt lat="45.09511" lon="5.97103">
        <ele>2394</ele>
        <time>2024-10-15T11:04:30.000Z</time>
      </trkpt>
      <trkpt lat="45.09511" lon="5.97103">
        <ele>2394</ele>
        <time>2024-10-15T11:04:31.000Z</time>
      </trkpt>
      <trkpt lat="45.09511" lon="5.97103">
        <ele>2394</ele>
        <time>2024-10-15T11:04:32.000Z</time>
      </trkpt>
      <trkpt lat="45.09511" lon="5.97104">
        <ele>2394.1999511719</ele>
        <time>2024-10-15T11:04:33.000Z</time>
      </trkpt>
      <trkpt lat="45.09511" lon="5.97104">
        <ele>2394.1999511719</ele>
        <time>2024-10-15T11:04:34.000Z</time>
      </trkpt>
      <trkpt lat="45.09511" lon="5.97104">
        <ele>2394.1999511719</ele>
        <time>2024-10-15T11:04:35.000Z</time>
      </trkpt>
      <trkpt lat="45.09511" lon="5.97104">
        <ele>2394</ele>
        <time>2024-10-15T11:04:36.000Z</time>
      </trkpt>
      <trkpt lat="45.09511" lon="5.97104">
        <ele>2394</ele>
        <time>2024-10-15T11:04:37.000Z</time>
      </trkpt>
      <trkpt lat="45.09511" lon="5.97104">
        <ele>2393.8000488281</ele>
        <time>2024-10-15T11:04:38.000Z</time>
      </trkpt>
      <trkpt lat="45.0951" lon="5.97104">
        <ele>2393.8000488281</ele>
        <time>2024-10-15T11:04:39.000Z</time>
      </trkpt>
      <trkpt lat="45.0951" lon="5.97104">
        <ele>2393.6000976562</ele>
        <time>2024-10-15T11:04:40.000Z</time>
      </trkpt>
      <trkpt lat="45.0951" lon="5.97104">
        <ele>2393.3999023438</ele>
        <time>2024-10-15T11:04:41.000Z</time>
      </trkpt>
      <trkpt lat="45.0951" lon="5.97104">
        <ele>2393.3999023438</ele>
        <time>2024-10-15T11:04:42.000Z</time>
      </trkpt>
      <trkpt lat="45.0951" lon="5.97104">
        <ele>2393.1999511719</ele>
        <time>2024-10-15T11:04:43.000Z</time>
      </trkpt>
      <trkpt lat="45.0951" lon="5.97104">
        <ele>2392.8000488281</ele>
        <time>2024-10-15T11:04:44.000Z</time>
      </trkpt>
      <trkpt lat="45.0951" lon="5.97104">
        <ele>2392.6000976562</ele>
        <time>2024-10-15T11:04:45.000Z</time>
      </trkpt>
      <trkpt lat="45.0951" lon="5.97104">
        <ele>2392.3999023438</ele>
        <time>2024-10-15T11:04:46.000Z</time>
      </trkpt>
      <trkpt lat="45.0951" lon="5.97104">
        <ele>2392.3999023438</ele>
        <time>2024-10-15T11:04:47.000Z</time>
      </trkpt>
      <trkpt lat="45.09509" lon="5.97104">
        <ele>2392.1999511719</ele>
        <time>2024-10-15T11:04:48.000Z</time>
      </trkpt>
      <trkpt lat="45.09509" lon="5.97105">
        <ele>2391.8000488281</ele>
        <time>2024-10-15T11:04:49.000Z</time>
      </trkpt>
      <trkpt lat="45.09509" lon="5.97105">
        <ele>2391.6000976562</ele>
        <time>2024-10-15T11:04:50.000Z</time>
      </trkpt>
      <trkpt lat="45.09508" lon="5.97105">
        <ele>2391.3999023438</ele>
        <time>2024-10-15T11:04:51.000Z</time>
      </trkpt>
      <trkpt lat="45.09508" lon="5.97105">
        <ele>2391.1999511719</ele>
        <time>2024-10-15T11:04:52.000Z</time>
      </trkpt>
      <trkpt lat="45.09508" lon="5.97105">
        <ele>2391</ele>
        <time>2024-10-15T11:04:53.000Z</time>
      </trkpt>
      <trkpt lat="45.09508" lon="5.97105">
        <ele>2391</ele>
        <time>2024-10-15T11:04:54.000Z</time>
      </trkpt>
      <trkpt lat="45.09508" lon="5.97105">
        <ele>2391</ele>
        <time>2024-10-15T11:04:55.000Z</time>
      </trkpt>
      <trkpt lat="45.09508" lon="5.97105">
        <ele>2390.8000488281</ele>
        <time>2024-10-15T11:04:56.000Z</time>
      </trkpt>
      <trkpt lat="45.09508" lon="5.97105">
        <ele>2390.6000976562</ele>
        <time>2024-10-15T11:04:57.000Z</time>
      </trkpt>
      <trkpt lat="45.09508" lon="5.97105">
        <ele>2390.6000976562</ele>
        <time>2024-10-15T11:04:58.000Z</time>
      </trkpt>
      <trkpt lat="45.09508" lon="5.97106">
        <ele>2390.3999023438</ele>
        <time>2024-10-15T11:04:59.000Z</time>
      </trkpt>
      <trkpt lat="45.09508" lon="5.97106">
        <ele>2390.1999511719</ele>
        <time>2024-10-15T11:05:00.000Z</time>
      </trkpt>
      <trkpt lat="45.09508" lon="5.97106">
        <ele>2390.1999511719</ele>
        <time>2024-10-15T11:05:01.000Z</time>
      </trkpt>
      <trkpt lat="45.09508" lon="5.97106">
        <ele>2390.1999511719</ele>
        <time>2024-10-15T11:05:02.000Z</time>
      </trkpt>
      <trkpt lat="45.09508" lon="5.97106">
        <ele>2390.1999511719</ele>
        <time>2024-10-15T11:05:03.000Z</time>
      </trkpt>
      <trkpt lat="45.09508" lon="5.97106">
        <ele>2390</ele>
        <time>2024-10-15T11:05:04.000Z</time>
      </trkpt>
      <trkpt lat="45.09508" lon="5.97106">
        <ele>2390</ele>
        <time>2024-10-15T11:05:05.000Z</time>
      </trkpt>
      <trkpt lat="45.09508" lon="5.97107">
        <ele>2390</ele>
        <time>2024-10-15T11:05:06.000Z</time>
      </trkpt>
      <trkpt lat="45.09509" lon="5.97107">
        <ele>2390</ele>
        <time>2024-10-15T11:05:07.000Z</time>
      </trkpt>
      <trkpt lat="45.09509" lon="5.97107">
        <ele>2390</ele>
        <time>2024-10-15T11:05:08.000Z</time>
      </trkpt>
      <trkpt lat="45.09509" lon="5.97107">
        <ele>2390</ele>
        <time>2024-10-15T11:05:09.000Z</time>
      </trkpt>
      <trkpt lat="45.09509" lon="5.97107">
        <ele>2390.1999511719</ele>
        <time>2024-10-15T11:05:10.000Z</time>
      </trkpt>
      <trkpt lat="45.09509" lon="5.97107">
        <ele>2390.1999511719</ele>
        <time>2024-10-15T11:05:11.000Z</time>
      </trkpt>
      <trkpt lat="45.09509" lon="5.97107">
        <ele>2390.1999511719</ele>
        <time>2024-10-15T11:05:12.000Z</time>
      </trkpt>
      <trkpt lat="45.09509" lon="5.97107">
        <ele>2390.1999511719</ele>
        <time>2024-10-15T11:05:13.000Z</time>
      </trkpt>
      <trkpt lat="45.09509" lon="5.97107">
        <ele>2390.1999511719</ele>
        <time>2024-10-15T11:05:14.000Z</time>
      </trkpt>
      <trkpt lat="45.09509" lon="5.97107">
        <ele>2390</ele>
        <time>2024-10-15T11:05:15.000Z</time>
      </trkpt>
      <trkpt lat="45.09509" lon="5.97107">
        <ele>2390</ele>
        <time>2024-10-15T11:05:16.000Z</time>
      </trkpt>
      <trkpt lat="45.09509" lon="5.97107">
        <ele>2390</ele>
        <time>2024-10-15T11:05:17.000Z</time>
      </trkpt>
      <trkpt lat="45.09509" lon="5.97107">
        <ele>2390</ele>
        <time>2024-10-15T11:05:18.000Z</time>
      </trkpt>
      <trkpt lat="45.0951" lon="5.97107">
        <ele>2389.8000488281</ele>
        <time>2024-10-15T11:05:19.000Z</time>
      </trkpt>
      <trkpt lat="45.0951" lon="5.97108">
        <ele>2389.3999023438</ele>
        <time>2024-10-15T11:05:20.000Z</time>
      </trkpt>
      <trkpt lat="45.0951" lon="5.97108">
        <ele>2389.3999023438</ele>
        <time>2024-10-15T11:05:21.000Z</time>
      </trkpt>
      <trkpt lat="45.0951" lon="5.97108">
        <ele>2388.8000488281</ele>
        <time>2024-10-15T11:05:22.000Z</time>
      </trkpt>
      <trkpt lat="45.0951" lon="5.97108">
        <ele>2388.8000488281</ele>
        <time>2024-10-15T11:05:23.000Z</time>
      </trkpt>
      <trkpt lat="45.0951" lon="5.97108">
        <ele>2388.8000488281</ele>
        <time>2024-10-15T11:05:24.000Z</time>
      </trkpt>
      <trkpt lat="45.0951" lon="5.97108">
        <ele>2388.8000488281</ele>
        <time>2024-10-15T11:05:25.000Z</time>
      </trkpt>
      <trkpt lat="45.0951" lon="5.97108">
        <ele>2388.6000976562</ele>
        <time>2024-10-15T11:05:26.000Z</time>
      </trkpt>
      <trkpt lat="45.0951" lon="5.97109">
        <ele>2388.6000976562</ele>
        <time>2024-10-15T11:05:27.000Z</time>
      </trkpt>
      <trkpt lat="45.0951" lon="5.97109">
        <ele>2388.3999023438</ele>
        <time>2024-10-15T11:05:28.000Z</time>
      </trkpt>
      <trkpt lat="45.0951" lon="5.97109">
        <ele>2388.3999023438</ele>
        <time>2024-10-15T11:05:29.000Z</time>
      </trkpt>
      <trkpt lat="45.0951" lon="5.97109">
        <ele>2388.3999023438</ele>
        <time>2024-10-15T11:05:30.000Z</time>
      </trkpt>
      <trkpt lat="45.0951" lon="5.97109">
        <ele>2388.3999023438</ele>
        <time>2024-10-15T11:05:31.000Z</time>
      </trkpt>
      <trkpt lat="45.0951" lon="5.97109">
        <ele>2388.3999023438</ele>
        <time>2024-10-15T11:05:32.000Z</time>
      </trkpt>
      <trkpt lat="45.0951" lon="5.97109">
        <ele>2388.3999023438</ele>
        <time>2024-10-15T11:05:33.000Z</time>
      </trkpt>
      <trkpt lat="45.0951" lon="5.9711">
        <ele>2388.3999023438</ele>
        <time>2024-10-15T11:05:34.000Z</time>
      </trkpt>
      <trkpt lat="45.0951" lon="5.9711">
        <ele>2388.6000976562</ele>
        <time>2024-10-15T11:05:35.000Z</time>
      </trkpt>
      <trkpt lat="45.09509" lon="5.9711">
        <ele>2388.8000488281</ele>
        <time>2024-10-15T11:05:36.000Z</time>
      </trkpt>
      <trkpt lat="45.09509" lon="5.9711">
        <ele>2388.8000488281</ele>
        <time>2024-10-15T11:05:37.000Z</time>
      </trkpt>
      <trkpt lat="45.09509" lon="5.97111">
        <ele>2388.8000488281</ele>
        <time>2024-10-15T11:05:38.000Z</time>
      </trkpt>
      <trkpt lat="45.09509" lon="5.97111">
        <ele>2388.6000976562</ele>
        <time>2024-10-15T11:05:39.000Z</time>
      </trkpt>
      <trkpt lat="45.09508" lon="5.97111">
        <ele>2388.3999023438</ele>
        <time>2024-10-15T11:05:40.000Z</time>
      </trkpt>
      <trkpt lat="45.09508" lon="5.97111">
        <ele>2388.3999023438</ele>
        <time>2024-10-15T11:05:41.000Z</time>
      </trkpt>
      <trkpt lat="45.09508" lon="5.97111">
        <ele>2388.1999511719</ele>
        <time>2024-10-15T11:05:42.000Z</time>
      </trkpt>
      <trkpt lat="45.09508" lon="5.97111">
        <ele>2388.1999511719</ele>
        <time>2024-10-15T11:05:43.000Z</time>
      </trkpt>
      <trkpt lat="45.09508" lon="5.97111">
        <ele>2388.1999511719</ele>
        <time>2024-10-15T11:05:44.000Z</time>
      </trkpt>
      <trkpt lat="45.09508" lon="5.97111">
        <ele>2388.1999511719</ele>
        <time>2024-10-15T11:05:45.000Z</time>
      </trkpt>
      <trkpt lat="45.09508" lon="5.97111">
        <ele>2388</ele>
        <time>2024-10-15T11:05:46.000Z</time>
      </trkpt>
      <trkpt lat="45.09508" lon="5.97112">
        <ele>2388</ele>
        <time>2024-10-15T11:05:47.000Z</time>
      </trkpt>
      <trkpt lat="45.09508" lon="5.97112">
        <ele>2387.8000488281</ele>
        <time>2024-10-15T11:05:48.000Z</time>
      </trkpt>
      <trkpt lat="45.09508" lon="5.97112">
        <ele>2387.6000976562</ele>
        <time>2024-10-15T11:05:49.000Z</time>
      </trkpt>
      <trkpt lat="45.09508" lon="5.97112">
        <ele>2387.6000976562</ele>
        <time>2024-10-15T11:05:50.000Z</time>
      </trkpt>
      <trkpt lat="45.09508" lon="5.97112">
        <ele>2387.3999023438</ele>
        <time>2024-10-15T11:05:51.000Z</time>
      </trkpt>
      <trkpt lat="45.09508" lon="5.97112">
        <ele>2387.3999023438</ele>
        <time>2024-10-15T11:05:52.000Z</time>
      </trkpt>
      <trkpt lat="45.09508" lon="5.97112">
        <ele>2387.3999023438</ele>
        <time>2024-10-15T11:05:53.000Z</time>
      </trkpt>
      <trkpt lat="45.09508" lon="5.97112">
        <ele>2387.3999023438</ele>
        <time>2024-10-15T11:05:54.000Z</time>
      </trkpt>
      <trkpt lat="45.09508" lon="5.97112">
        <ele>2387.6000976562</ele>
        <time>2024-10-15T11:05:55.000Z</time>
      </trkpt>
      <trkpt lat="45.09508" lon="5.97112">
        <ele>2387.6000976562</ele>
        <time>2024-10-15T11:05:56.000Z</time>
      </trkpt>
      <trkpt lat="45.09509" lon="5.97112">
        <ele>2387.6000976562</ele>
        <time>2024-10-15T11:05:57.000Z</time>
      </trkpt>
      <trkpt lat="45.09509" lon="5.97113">
        <ele>2387.6000976562</ele>
        <time>2024-10-15T11:05:58.000Z</time>
      </trkpt>
      <trkpt lat="45.09509" lon="5.97113">
        <ele>2387.6000976562</ele>
        <time>2024-10-15T11:05:59.000Z</time>
      </trkpt>
      <trkpt lat="45.09509" lon="5.97113">
        <ele>2387.8000488281</ele>
        <time>2024-10-15T11:06:00.000Z</time>
      </trkpt>
      <trkpt lat="45.09509" lon="5.97113">
        <ele>2387.8000488281</ele>
        <time>2024-10-15T11:06:01.000Z</time>
      </trkpt>
      <trkpt lat="45.09509" lon="5.97113">
        <ele>2387.8000488281</ele>
        <time>2024-10-15T11:06:02.000Z</time>
      </trkpt>
      <trkpt lat="45.09509" lon="5.97114">
        <ele>2387.8000488281</ele>
        <time>2024-10-15T11:06:03.000Z</time>
      </trkpt>
      <trkpt lat="45.09509" lon="5.97114">
        <ele>2387.8000488281</ele>
        <time>2024-10-15T11:06:04.000Z</time>
      </trkpt>
      <trkpt lat="45.09509" lon="5.97114">
        <ele>2387.8000488281</ele>
        <time>2024-10-15T11:06:05.000Z</time>
      </trkpt>
      <trkpt lat="45.09509" lon="5.97115">
        <ele>2387.8000488281</ele>
        <time>2024-10-15T11:06:06.000Z</time>
      </trkpt>
      <trkpt lat="45.09509" lon="5.97115">
        <ele>2387.8000488281</ele>
        <time>2024-10-15T11:06:07.000Z</time>
      </trkpt>
      <trkpt lat="45.09509" lon="5.97115">
        <ele>2387.8000488281</ele>
        <time>2024-10-15T11:06:08.000Z</time>
      </trkpt>
      <trkpt lat="45.09509" lon="5.97115">
        <ele>2387.6000976562</ele>
        <time>2024-10-15T11:06:09.000Z</time>
      </trkpt>
      <trkpt lat="45.09509" lon="5.97115">
        <ele>2387.1999511719</ele>
        <time>2024-10-15T11:06:10.000Z</time>
      </trkpt>
      <trkpt lat="45.09509" lon="5.97115">
        <ele>2387</ele>
        <time>2024-10-15T11:06:11.000Z</time>
      </trkpt>
      <trkpt lat="45.09509" lon="5.97115">
        <ele>2387</ele>
        <time>2024-10-15T11:06:12.000Z</time>
      </trkpt>
      <trkpt lat="45.09509" lon="5.97115">
        <ele>2386.8000488281</ele>
        <time>2024-10-15T11:06:13.000Z</time>
      </trkpt>
      <trkpt lat="45.09509" lon="5.97115">
        <ele>2386.6000976562</ele>
        <time>2024-10-15T11:06:14.000Z</time>
      </trkpt>
      <trkpt lat="45.09509" lon="5.97115">
        <ele>2386.6000976562</ele>
        <time>2024-10-15T11:06:15.000Z</time>
      </trkpt>
      <trkpt lat="45.09509" lon="5.97115">
        <ele>2386.3999023438</ele>
        <time>2024-10-15T11:06:16.000Z</time>
      </trkpt>
      <trkpt lat="45.09509" lon="5.97115">
        <ele>2386.3999023438</ele>
        <time>2024-10-15T11:06:17.000Z</time>
      </trkpt>
      <trkpt lat="45.09508" lon="5.97116">
        <ele>2386.3999023438</ele>
        <time>2024-10-15T11:06:18.000Z</time>
      </trkpt>
      <trkpt lat="45.09508" lon="5.97116">
        <ele>2386.3999023438</ele>
        <time>2024-10-15T11:06:19.000Z</time>
      </trkpt>
      <trkpt lat="45.09508" lon="5.97116">
        <ele>2386.1999511719</ele>
        <time>2024-10-15T11:06:20.000Z</time>
      </trkpt>
      <trkpt lat="45.09508" lon="5.97116">
        <ele>2386</ele>
        <time>2024-10-15T11:06:21.000Z</time>
      </trkpt>
      <trkpt lat="45.09507" lon="5.97116">
        <ele>2385.8000488281</ele>
        <time>2024-10-15T11:06:22.000Z</time>
      </trkpt>
      <trkpt lat="45.09507" lon="5.97116">
        <ele>2385.8000488281</ele>
        <time>2024-10-15T11:06:23.000Z</time>
      </trkpt>
      <trkpt lat="45.09507" lon="5.97116">
        <ele>2385.8000488281</ele>
        <time>2024-10-15T11:06:24.000Z</time>
      </trkpt>
      <trkpt lat="45.09506" lon="5.97116">
        <ele>2385.8000488281</ele>
        <time>2024-10-15T11:06:25.000Z</time>
      </trkpt>
      <trkpt lat="45.09506" lon="5.97116">
        <ele>2385.8000488281</ele>
        <time>2024-10-15T11:06:26.000Z</time>
      </trkpt>
      <trkpt lat="45.09506" lon="5.97116">
        <ele>2385.6000976562</ele>
        <time>2024-10-15T11:06:27.000Z</time>
      </trkpt>
      <trkpt lat="45.09506" lon="5.97116">
        <ele>2385.6000976562</ele>
        <time>2024-10-15T11:06:28.000Z</time>
      </trkpt>
      <trkpt lat="45.09505" lon="5.97116">
        <ele>2385.6000976562</ele>
        <time>2024-10-15T11:06:29.000Z</time>
      </trkpt>
      <trkpt lat="45.09505" lon="5.97116">
        <ele>2385.6000976562</ele>
        <time>2024-10-15T11:06:30.000Z</time>
      </trkpt>
      <trkpt lat="45.09504" lon="5.97116">
        <ele>2385.3999023438</ele>
        <time>2024-10-15T11:06:31.000Z</time>
      </trkpt>
      <trkpt lat="45.09504" lon="5.97116">
        <ele>2385.6000976562</ele>
        <time>2024-10-15T11:06:32.000Z</time>
      </trkpt>
      <trkpt lat="45.09503" lon="5.97116">
        <ele>2385.6000976562</ele>
        <time>2024-10-15T11:06:33.000Z</time>
      </trkpt>
      <trkpt lat="45.09503" lon="5.97116">
        <ele>2385.6000976562</ele>
        <time>2024-10-15T11:06:34.000Z</time>
      </trkpt>
      <trkpt lat="45.09503" lon="5.97116">
        <ele>2385.6000976562</ele>
        <time>2024-10-15T11:06:35.000Z</time>
      </trkpt>
      <trkpt lat="45.09503" lon="5.97117">
        <ele>2385.3999023438</ele>
        <time>2024-10-15T11:06:36.000Z</time>
      </trkpt>
      <trkpt lat="45.09503" lon="5.97117">
        <ele>2385.3999023438</ele>
        <time>2024-10-15T11:06:37.000Z</time>
      </trkpt>
      <trkpt lat="45.09502" lon="5.97117">
        <ele>2385.3999023438</ele>
        <time>2024-10-15T11:06:38.000Z</time>
      </trkpt>
      <trkpt lat="45.09502" lon="5.97117">
        <ele>2385.1999511719</ele>
        <time>2024-10-15T11:06:39.000Z</time>
      </trkpt>
      <trkpt lat="45.09502" lon="5.97117">
        <ele>2385.1999511719</ele>
        <time>2024-10-15T11:06:40.000Z</time>
      </trkpt>
      <trkpt lat="45.09502" lon="5.97118">
        <ele>2385</ele>
        <time>2024-10-15T11:06:41.000Z</time>
      </trkpt>
      <trkpt lat="45.09502" lon="5.97118">
        <ele>2385</ele>
        <time>2024-10-15T11:06:42.000Z</time>
      </trkpt>
      <trkpt lat="45.09502" lon="5.97118">
        <ele>2385</ele>
        <time>2024-10-15T11:06:43.000Z</time>
      </trkpt>
      <trkpt lat="45.09502" lon="5.97118">
        <ele>2385</ele>
        <time>2024-10-15T11:06:44.000Z</time>
      </trkpt>
      <trkpt lat="45.09502" lon="5.97118">
        <ele>2385</ele>
        <time>2024-10-15T11:06:45.000Z</time>
      </trkpt>
      <trkpt lat="45.09502" lon="5.97118">
        <ele>2385.1999511719</ele>
        <time>2024-10-15T11:06:46.000Z</time>
      </trkpt>
      <trkpt lat="45.09502" lon="5.97118">
        <ele>2385.1999511719</ele>
        <time>2024-10-15T11:06:47.000Z</time>
      </trkpt>
      <trkpt lat="45.09502" lon="5.97118">
        <ele>2385.1999511719</ele>
        <time>2024-10-15T11:06:48.000Z</time>
      </trkpt>
      <trkpt lat="45.09502" lon="5.97118">
        <ele>2385.1999511719</ele>
        <time>2024-10-15T11:06:49.000Z</time>
      </trkpt>
      <trkpt lat="45.09502" lon="5.97118">
        <ele>2385.1999511719</ele>
        <time>2024-10-15T11:06:50.000Z</time>
      </trkpt>
      <trkpt lat="45.09502" lon="5.97118">
        <ele>2385.1999511719</ele>
        <time>2024-10-15T11:06:51.000Z</time>
      </trkpt>
      <trkpt lat="45.09502" lon="5.97118">
        <ele>2385.1999511719</ele>
        <time>2024-10-15T11:06:52.000Z</time>
      </trkpt>
      <trkpt lat="45.09502" lon="5.97118">
        <ele>2385.1999511719</ele>
        <time>2024-10-15T11:06:53.000Z</time>
      </trkpt>
      <trkpt lat="45.09502" lon="5.97118">
        <ele>2385.1999511719</ele>
        <time>2024-10-15T11:06:54.000Z</time>
      </trkpt>
      <trkpt lat="45.09502" lon="5.97118">
        <ele>2385.1999511719</ele>
        <time>2024-10-15T11:06:55.000Z</time>
      </trkpt>
      <trkpt lat="45.09502" lon="5.97117">
        <ele>2385.1999511719</ele>
        <time>2024-10-15T11:06:56.000Z</time>
      </trkpt>
      <trkpt lat="45.09502" lon="5.97117">
        <ele>2385.1999511719</ele>
        <time>2024-10-15T11:06:57.000Z</time>
      </trkpt>
      <trkpt lat="45.09502" lon="5.97117">
        <ele>2385.1999511719</ele>
        <time>2024-10-15T11:06:58.000Z</time>
      </trkpt>
      <trkpt lat="45.09501" lon="5.97118">
        <ele>2385.1999511719</ele>
        <time>2024-10-15T11:06:59.000Z</time>
      </trkpt>
      <trkpt lat="45.095" lon="5.97118">
        <ele>2385.1999511719</ele>
        <time>2024-10-15T11:07:00.000Z</time>
      </trkpt>
      <trkpt lat="45.095" lon="5.97119">
        <ele>2385.1999511719</ele>
        <time>2024-10-15T11:07:01.000Z</time>
      </trkpt>
      <trkpt lat="45.095" lon="5.97119">
        <ele>2385.1999511719</ele>
        <time>2024-10-15T11:07:02.000Z</time>
      </trkpt>
      <trkpt lat="45.095" lon="5.97119">
        <ele>2385.1999511719</ele>
        <time>2024-10-15T11:07:03.000Z</time>
      </trkpt>
      <trkpt lat="45.095" lon="5.97118">
        <ele>2385.3999023438</ele>
        <time>2024-10-15T11:07:04.000Z</time>
      </trkpt>
      <trkpt lat="45.095" lon="5.97118">
        <ele>2385.3999023438</ele>
        <time>2024-10-15T11:07:05.000Z</time>
      </trkpt>
      <trkpt lat="45.095" lon="5.97119">
        <ele>2385.3999023438</ele>
        <time>2024-10-15T11:07:06.000Z</time>
      </trkpt>
      <trkpt lat="45.09499" lon="5.9712">
        <ele>2385.3999023438</ele>
        <time>2024-10-15T11:07:07.000Z</time>
      </trkpt>
      <trkpt lat="45.09499" lon="5.9712">
        <ele>2385.3999023438</ele>
        <time>2024-10-15T11:07:08.000Z</time>
      </trkpt>
      <trkpt lat="45.09499" lon="5.9712">
        <ele>2385.3999023438</ele>
        <time>2024-10-15T11:07:09.000Z</time>
      </trkpt>
      <trkpt lat="45.095" lon="5.9712">
        <ele>2385.3999023438</ele>
        <time>2024-10-15T11:07:10.000Z</time>
      </trkpt>
      <trkpt lat="45.095" lon="5.9712">
        <ele>2385.1999511719</ele>
        <time>2024-10-15T11:07:11.000Z</time>
      </trkpt>
      <trkpt lat="45.09501" lon="5.97121">
        <ele>2385.1999511719</ele>
        <time>2024-10-15T11:07:12.000Z</time>
      </trkpt>
      <trkpt lat="45.09501" lon="5.97123">
        <ele>2385</ele>
        <time>2024-10-15T11:07:13.000Z</time>
      </trkpt>
      <trkpt lat="45.09501" lon="5.97123">
        <ele>2384.8000488281</ele>
        <time>2024-10-15T11:07:14.000Z</time>
      </trkpt>
      <trkpt lat="45.09501" lon="5.97123">
        <ele>2384.6000976562</ele>
        <time>2024-10-15T11:07:15.000Z</time>
      </trkpt>
      <trkpt lat="45.09501" lon="5.97123">
        <ele>2384.3999023438</ele>
        <time>2024-10-15T11:07:16.000Z</time>
      </trkpt>
      <trkpt lat="45.09501" lon="5.97125">
        <ele>2384.3999023438</ele>
        <time>2024-10-15T11:07:17.000Z</time>
      </trkpt>
      <trkpt lat="45.09501" lon="5.97125">
        <ele>2384.1999511719</ele>
        <time>2024-10-15T11:07:18.000Z</time>
      </trkpt>
      <trkpt lat="45.09501" lon="5.97125">
        <ele>2384.1999511719</ele>
        <time>2024-10-15T11:07:19.000Z</time>
      </trkpt>
      <trkpt lat="45.095" lon="5.97125">
        <ele>2384.1999511719</ele>
        <time>2024-10-15T11:07:20.000Z</time>
      </trkpt>
      <trkpt lat="45.095" lon="5.97125">
        <ele>2383.8000488281</ele>
        <time>2024-10-15T11:07:21.000Z</time>
      </trkpt>
      <trkpt lat="45.095" lon="5.97125">
        <ele>2383.1999511719</ele>
        <time>2024-10-15T11:07:22.000Z</time>
      </trkpt>
      <trkpt lat="45.095" lon="5.97126">
        <ele>2383.1999511719</ele>
        <time>2024-10-15T11:07:23.000Z</time>
      </trkpt>
      <trkpt lat="45.09499" lon="5.97126">
        <ele>2383.1999511719</ele>
        <time>2024-10-15T11:07:24.000Z</time>
      </trkpt>
      <trkpt lat="45.09499" lon="5.97126">
        <ele>2383</ele>
        <time>2024-10-15T11:07:25.000Z</time>
      </trkpt>
      <trkpt lat="45.09499" lon="5.97126">
        <ele>2383</ele>
        <time>2024-10-15T11:07:26.000Z</time>
      </trkpt>
      <trkpt lat="45.09499" lon="5.97126">
        <ele>2383.1999511719</ele>
        <time>2024-10-15T11:07:27.000Z</time>
      </trkpt>
      <trkpt lat="45.09499" lon="5.97126">
        <ele>2383.1999511719</ele>
        <time>2024-10-15T11:07:28.000Z</time>
      </trkpt>
      <trkpt lat="45.09499" lon="5.97126">
        <ele>2383.1999511719</ele>
        <time>2024-10-15T11:07:29.000Z</time>
      </trkpt>
      <trkpt lat="45.09499" lon="5.97126">
        <ele>2383.1999511719</ele>
        <time>2024-10-15T11:07:30.000Z</time>
      </trkpt>
      <trkpt lat="45.09499" lon="5.97126">
        <ele>2383.1999511719</ele>
        <time>2024-10-15T11:07:31.000Z</time>
      </trkpt>
      <trkpt lat="45.09498" lon="5.97126">
        <ele>2383.1999511719</ele>
        <time>2024-10-15T11:07:32.000Z</time>
      </trkpt>
      <trkpt lat="45.09498" lon="5.97126">
        <ele>2383.1999511719</ele>
        <time>2024-10-15T11:07:33.000Z</time>
      </trkpt>
      <trkpt lat="45.09498" lon="5.97126">
        <ele>2383</ele>
        <time>2024-10-15T11:07:34.000Z</time>
      </trkpt>
      <trkpt lat="45.09498" lon="5.97126">
        <ele>2382.8000488281</ele>
        <time>2024-10-15T11:07:35.000Z</time>
      </trkpt>
      <trkpt lat="45.09498" lon="5.97126">
        <ele>2382.6000976562</ele>
        <time>2024-10-15T11:07:36.000Z</time>
      </trkpt>
      <trkpt lat="45.09498" lon="5.97126">
        <ele>2382.1999511719</ele>
        <time>2024-10-15T11:07:37.000Z</time>
      </trkpt>
      <trkpt lat="45.09498" lon="5.97126">
        <ele>2382</ele>
        <time>2024-10-15T11:07:38.000Z</time>
      </trkpt>
      <trkpt lat="45.09498" lon="5.97126">
        <ele>2382</ele>
        <time>2024-10-15T11:07:39.000Z</time>
      </trkpt>
      <trkpt lat="45.09498" lon="5.97126">
        <ele>2382</ele>
        <time>2024-10-15T11:07:40.000Z</time>
      </trkpt>
      <trkpt lat="45.09498" lon="5.97126">
        <ele>2382</ele>
        <time>2024-10-15T11:07:41.000Z</time>
      </trkpt>
      <trkpt lat="45.09498" lon="5.97126">
        <ele>2381.8000488281</ele>
        <time>2024-10-15T11:07:42.000Z</time>
      </trkpt>
      <trkpt lat="45.09498" lon="5.97126">
        <ele>2381.6000976562</ele>
        <time>2024-10-15T11:07:43.000Z</time>
      </trkpt>
      <trkpt lat="45.09498" lon="5.97126">
        <ele>2381.6000976562</ele>
        <time>2024-10-15T11:07:44.000Z</time>
      </trkpt>
      <trkpt lat="45.09498" lon="5.97126">
        <ele>2381.6000976562</ele>
        <time>2024-10-15T11:07:45.000Z</time>
      </trkpt>
      <trkpt lat="45.09498" lon="5.97126">
        <ele>2381.6000976562</ele>
        <time>2024-10-15T11:07:46.000Z</time>
      </trkpt>
      <trkpt lat="45.09498" lon="5.97126">
        <ele>2381.6000976562</ele>
        <time>2024-10-15T11:07:47.000Z</time>
      </trkpt>
      <trkpt lat="45.09498" lon="5.97126">
        <ele>2381.6000976562</ele>
        <time>2024-10-15T11:07:48.000Z</time>
      </trkpt>
      <trkpt lat="45.09498" lon="5.97126">
        <ele>2381.6000976562</ele>
        <time>2024-10-15T11:07:49.000Z</time>
      </trkpt>
      <trkpt lat="45.09498" lon="5.97126">
        <ele>2381.6000976562</ele>
        <time>2024-10-15T11:07:50.000Z</time>
      </trkpt>
      <trkpt lat="45.09498" lon="5.97126">
        <ele>2381.6000976562</ele>
        <time>2024-10-15T11:07:51.000Z</time>
      </trkpt>
      <trkpt lat="45.09498" lon="5.97126">
        <ele>2381.8000488281</ele>
        <time>2024-10-15T11:07:52.000Z</time>
      </trkpt>
      <trkpt lat="45.09498" lon="5.97125">
        <ele>2381.8000488281</ele>
        <time>2024-10-15T11:07:53.000Z</time>
      </trkpt>
      <trkpt lat="45.09498" lon="5.97124">
        <ele>2381.8000488281</ele>
        <time>2024-10-15T11:07:54.000Z</time>
      </trkpt>
      <trkpt lat="45.09498" lon="5.97124">
        <ele>2382</ele>
        <time>2024-10-15T11:07:55.000Z</time>
      </trkpt>
      <trkpt lat="45.09498" lon="5.97124">
        <ele>2382</ele>
        <time>2024-10-15T11:07:56.000Z</time>
      </trkpt>
      <trkpt lat="45.09498" lon="5.97124">
        <ele>2381.8000488281</ele>
        <time>2024-10-15T11:07:57.000Z</time>
      </trkpt>
      <trkpt lat="45.09498" lon="5.97124">
        <ele>2381.8000488281</ele>
        <time>2024-10-15T11:07:58.000Z</time>
      </trkpt>
      <trkpt lat="45.09498" lon="5.97124">
        <ele>2381.8000488281</ele>
        <time>2024-10-15T11:07:59.000Z</time>
      </trkpt>
      <trkpt lat="45.09498" lon="5.97124">
        <ele>2381.8000488281</ele>
        <time>2024-10-15T11:08:00.000Z</time>
      </trkpt>
      <trkpt lat="45.09498" lon="5.97124">
        <ele>2381.8000488281</ele>
        <time>2024-10-15T11:08:01.000Z</time>
      </trkpt>
      <trkpt lat="45.09498" lon="5.97124">
        <ele>2381.8000488281</ele>
        <time>2024-10-15T11:08:02.000Z</time>
      </trkpt>
      <trkpt lat="45.09498" lon="5.97124">
        <ele>2381.8000488281</ele>
        <time>2024-10-15T11:08:03.000Z</time>
      </trkpt>
      <trkpt lat="45.09498" lon="5.97124">
        <ele>2381.8000488281</ele>
        <time>2024-10-15T11:08:04.000Z</time>
      </trkpt>
      <trkpt lat="45.09498" lon="5.97124">
        <ele>2381.8000488281</ele>
        <time>2024-10-15T11:08:05.000Z</time>
      </trkpt>
      <trkpt lat="45.09498" lon="5.97124">
        <ele>2381.8000488281</ele>
        <time>2024-10-15T11:08:06.000Z</time>
      </trkpt>
      <trkpt lat="45.09498" lon="5.97124">
        <ele>2381.6000976562</ele>
        <time>2024-10-15T11:08:07.000Z</time>
      </trkpt>
      <trkpt lat="45.09498" lon="5.97124">
        <ele>2381.3999023438</ele>
        <time>2024-10-15T11:08:08.000Z</time>
      </trkpt>
      <trkpt lat="45.09498" lon="5.97124">
        <ele>2381.1999511719</ele>
        <time>2024-10-15T11:08:09.000Z</time>
      </trkpt>
      <trkpt lat="45.09498" lon="5.97124">
        <ele>2381.1999511719</ele>
        <time>2024-10-15T11:08:10.000Z</time>
      </trkpt>
      <trkpt lat="45.09498" lon="5.97124">
        <ele>2381</ele>
        <time>2024-10-15T11:08:11.000Z</time>
      </trkpt>
      <trkpt lat="45.09498" lon="5.97124">
        <ele>2381</ele>
        <time>2024-10-15T11:08:12.000Z</time>
      </trkpt>
      <trkpt lat="45.09498" lon="5.97124">
        <ele>2380.8000488281</ele>
        <time>2024-10-15T11:08:13.000Z</time>
      </trkpt>
      <trkpt lat="45.09498" lon="5.97124">
        <ele>2380.8000488281</ele>
        <time>2024-10-15T11:08:14.000Z</time>
      </trkpt>
      <trkpt lat="45.09498" lon="5.97124">
        <ele>2380.8000488281</ele>
        <time>2024-10-15T11:08:15.000Z</time>
      </trkpt>
      <trkpt lat="45.09498" lon="5.97124">
        <ele>2380.8000488281</ele>
        <time>2024-10-15T11:08:16.000Z</time>
      </trkpt>
      <trkpt lat="45.09498" lon="5.97124">
        <ele>2380.6000976562</ele>
        <time>2024-10-15T11:08:17.000Z</time>
      </trkpt>
      <trkpt lat="45.09498" lon="5.97124">
        <ele>2380.3999023438</ele>
        <time>2024-10-15T11:08:18.000Z</time>
      </trkpt>
      <trkpt lat="45.09498" lon="5.97124">
        <ele>2380.1999511719</ele>
        <time>2024-10-15T11:08:19.000Z</time>
      </trkpt>
      <trkpt lat="45.09498" lon="5.97124">
        <ele>2380.1999511719</ele>
        <time>2024-10-15T11:08:20.000Z</time>
      </trkpt>
      <trkpt lat="45.09499" lon="5.97124">
        <ele>2380.1999511719</ele>
        <time>2024-10-15T11:08:21.000Z</time>
      </trkpt>
      <trkpt lat="45.09499" lon="5.97124">
        <ele>2380.1999511719</ele>
        <time>2024-10-15T11:08:22.000Z</time>
      </trkpt>
      <trkpt lat="45.09499" lon="5.97124">
        <ele>2380.1999511719</ele>
        <time>2024-10-15T11:08:23.000Z</time>
      </trkpt>
      <trkpt lat="45.09499" lon="5.97124">
        <ele>2380.1999511719</ele>
        <time>2024-10-15T11:08:24.000Z</time>
      </trkpt>
      <trkpt lat="45.09499" lon="5.97124">
        <ele>2380.1999511719</ele>
        <time>2024-10-15T11:08:25.000Z</time>
      </trkpt>
      <trkpt lat="45.09499" lon="5.97124">
        <ele>2380.3999023438</ele>
        <time>2024-10-15T11:08:26.000Z</time>
      </trkpt>
      <trkpt lat="45.09499" lon="5.97124">
        <ele>2380.3999023438</ele>
        <time>2024-10-15T11:08:27.000Z</time>
      </trkpt>
      <trkpt lat="45.09499" lon="5.97124">
        <ele>2380.3999023438</ele>
        <time>2024-10-15T11:08:28.000Z</time>
      </trkpt>
      <trkpt lat="45.09499" lon="5.97124">
        <ele>2380.3999023438</ele>
        <time>2024-10-15T11:08:29.000Z</time>
      </trkpt>
      <trkpt lat="45.09499" lon="5.97124">
        <ele>2380.3999023438</ele>
        <time>2024-10-15T11:08:30.000Z</time>
      </trkpt>
      <trkpt lat="45.09499" lon="5.97124">
        <ele>2380.3999023438</ele>
        <time>2024-10-15T11:08:31.000Z</time>
      </trkpt>
      <trkpt lat="45.09499" lon="5.97124">
        <ele>2380.1999511719</ele>
        <time>2024-10-15T11:08:32.000Z</time>
      </trkpt>
      <trkpt lat="45.09499" lon="5.97124">
        <ele>2380</ele>
        <time>2024-10-15T11:08:33.000Z</time>
      </trkpt>
      <trkpt lat="45.09499" lon="5.97125">
        <ele>2379.8000488281</ele>
        <time>2024-10-15T11:08:34.000Z</time>
      </trkpt>
      <trkpt lat="45.09499" lon="5.97125">
        <ele>2379.8000488281</ele>
        <time>2024-10-15T11:08:35.000Z</time>
      </trkpt>
      <trkpt lat="45.09499" lon="5.97125">
        <ele>2379.8000488281</ele>
        <time>2024-10-15T11:08:36.000Z</time>
      </trkpt>
      <trkpt lat="45.09499" lon="5.97125">
        <ele>2379.8000488281</ele>
        <time>2024-10-15T11:08:37.000Z</time>
      </trkpt>
      <trkpt lat="45.09499" lon="5.97125">
        <ele>2379.8000488281</ele>
        <time>2024-10-15T11:08:38.000Z</time>
      </trkpt>
      <trkpt lat="45.09499" lon="5.97125">
        <ele>2379.8000488281</ele>
        <time>2024-10-15T11:08:39.000Z</time>
      </trkpt>
      <trkpt lat="45.09499" lon="5.97125">
        <ele>2379.8000488281</ele>
        <time>2024-10-15T11:08:40.000Z</time>
      </trkpt>
      <trkpt lat="45.09499" lon="5.97125">
        <ele>2379.8000488281</ele>
        <time>2024-10-15T11:08:41.000Z</time>
      </trkpt>
      <trkpt lat="45.09499" lon="5.97125">
        <ele>2379.6000976562</ele>
        <time>2024-10-15T11:08:42.000Z</time>
      </trkpt>
      <trkpt lat="45.09499" lon="5.97126">
        <ele>2379.6000976562</ele>
        <time>2024-10-15T11:08:43.000Z</time>
      </trkpt>
      <trkpt lat="45.09499" lon="5.97126">
        <ele>2379.1999511719</ele>
        <time>2024-10-15T11:08:44.000Z</time>
      </trkpt>
      <trkpt lat="45.09499" lon="5.97126">
        <ele>2379.1999511719</ele>
        <time>2024-10-15T11:08:45.000Z</time>
      </trkpt>
      <trkpt lat="45.09499" lon="5.97126">
        <ele>2379.1999511719</ele>
        <time>2024-10-15T11:08:46.000Z</time>
      </trkpt>
      <trkpt lat="45.09499" lon="5.97126">
        <ele>2379.1999511719</ele>
        <time>2024-10-15T11:08:47.000Z</time>
      </trkpt>
      <trkpt lat="45.09499" lon="5.97126">
        <ele>2379</ele>
        <time>2024-10-15T11:08:48.000Z</time>
      </trkpt>
      <trkpt lat="45.09499" lon="5.97126">
        <ele>2379</ele>
        <time>2024-10-15T11:08:49.000Z</time>
      </trkpt>
      <trkpt lat="45.09499" lon="5.97126">
        <ele>2378.8000488281</ele>
        <time>2024-10-15T11:08:50.000Z</time>
      </trkpt>
      <trkpt lat="45.09498" lon="5.97126">
        <ele>2378.6000976562</ele>
        <time>2024-10-15T11:08:51.000Z</time>
      </trkpt>
      <trkpt lat="45.09498" lon="5.97126">
        <ele>2378.3999023438</ele>
        <time>2024-10-15T11:08:52.000Z</time>
      </trkpt>
      <trkpt lat="45.09498" lon="5.97126">
        <ele>2378.3999023438</ele>
        <time>2024-10-15T11:08:53.000Z</time>
      </trkpt>
      <trkpt lat="45.09498" lon="5.97126">
        <ele>2378.1999511719</ele>
        <time>2024-10-15T11:08:54.000Z</time>
      </trkpt>
      <trkpt lat="45.09497" lon="5.97127">
        <ele>2378.1999511719</ele>
        <time>2024-10-15T11:08:55.000Z</time>
      </trkpt>
      <trkpt lat="45.09497" lon="5.97127">
        <ele>2378</ele>
        <time>2024-10-15T11:08:56.000Z</time>
      </trkpt>
      <trkpt lat="45.09497" lon="5.97127">
        <ele>2377.8000488281</ele>
        <time>2024-10-15T11:08:57.000Z</time>
      </trkpt>
      <trkpt lat="45.09497" lon="5.97127">
        <ele>2377.6000976562</ele>
        <time>2024-10-15T11:08:58.000Z</time>
      </trkpt>
      <trkpt lat="45.09497" lon="5.97127">
        <ele>2377.3999023438</ele>
        <time>2024-10-15T11:08:59.000Z</time>
      </trkpt>
      <trkpt lat="45.09496" lon="5.97127">
        <ele>2377</ele>
        <time>2024-10-15T11:09:00.000Z</time>
      </trkpt>
      <trkpt lat="45.09496" lon="5.97127">
        <ele>2377</ele>
        <time>2024-10-15T11:09:01.000Z</time>
      </trkpt>
      <trkpt lat="45.09496" lon="5.97127">
        <ele>2376.8000488281</ele>
        <time>2024-10-15T11:09:02.000Z</time>
      </trkpt>
      <trkpt lat="45.09496" lon="5.97127">
        <ele>2376.8000488281</ele>
        <time>2024-10-15T11:09:03.000Z</time>
      </trkpt>
      <trkpt lat="45.09495" lon="5.97128">
        <ele>2376.8000488281</ele>
        <time>2024-10-15T11:09:04.000Z</time>
      </trkpt>
      <trkpt lat="45.09495" lon="5.97128">
        <ele>2376.6000976562</ele>
        <time>2024-10-15T11:09:05.000Z</time>
      </trkpt>
      <trkpt lat="45.09495" lon="5.97128">
        <ele>2376.1999511719</ele>
        <time>2024-10-15T11:09:06.000Z</time>
      </trkpt>
      <trkpt lat="45.09494" lon="5.97128">
        <ele>2376</ele>
        <time>2024-10-15T11:09:07.000Z</time>
      </trkpt>
      <trkpt lat="45.09494" lon="5.97128">
        <ele>2375.8000488281</ele>
        <time>2024-10-15T11:09:08.000Z</time>
      </trkpt>
      <trkpt lat="45.09494" lon="5.97128">
        <ele>2375.8000488281</ele>
        <time>2024-10-15T11:09:09.000Z</time>
      </trkpt>
      <trkpt lat="45.09493" lon="5.97128">
        <ele>2375.8000488281</ele>
        <time>2024-10-15T11:09:10.000Z</time>
      </trkpt>
      <trkpt lat="45.09493" lon="5.97128">
        <ele>2375.8000488281</ele>
        <time>2024-10-15T11:09:11.000Z</time>
      </trkpt>
      <trkpt lat="45.09493" lon="5.97128">
        <ele>2376</ele>
        <time>2024-10-15T11:09:12.000Z</time>
      </trkpt>
      <trkpt lat="45.09493" lon="5.97128">
        <ele>2376</ele>
        <time>2024-10-15T11:09:13.000Z</time>
      </trkpt>
      <trkpt lat="45.09493" lon="5.97128">
        <ele>2376</ele>
        <time>2024-10-15T11:09:14.000Z</time>
      </trkpt>
      <trkpt lat="45.09493" lon="5.97129">
        <ele>2376</ele>
        <time>2024-10-15T11:09:15.000Z</time>
      </trkpt>
      <trkpt lat="45.09493" lon="5.97129">
        <ele>2376</ele>
        <time>2024-10-15T11:09:16.000Z</time>
      </trkpt>
      <trkpt lat="45.09493" lon="5.97129">
        <ele>2376</ele>
        <time>2024-10-15T11:09:17.000Z</time>
      </trkpt>
      <trkpt lat="45.09492" lon="5.97129">
        <ele>2376</ele>
        <time>2024-10-15T11:09:18.000Z</time>
      </trkpt>
      <trkpt lat="45.09492" lon="5.97129">
        <ele>2375.8000488281</ele>
        <time>2024-10-15T11:09:19.000Z</time>
      </trkpt>
      <trkpt lat="45.09492" lon="5.97129">
        <ele>2375.8000488281</ele>
        <time>2024-10-15T11:09:20.000Z</time>
      </trkpt>
      <trkpt lat="45.09492" lon="5.97129">
        <ele>2375.8000488281</ele>
        <time>2024-10-15T11:09:21.000Z</time>
      </trkpt>
      <trkpt lat="45.09492" lon="5.97129">
        <ele>2375.8000488281</ele>
        <time>2024-10-15T11:09:22.000Z</time>
      </trkpt>
      <trkpt lat="45.09492" lon="5.97129">
        <ele>2375.8000488281</ele>
        <time>2024-10-15T11:09:23.000Z</time>
      </trkpt>
      <trkpt lat="45.09492" lon="5.97129">
        <ele>2375.8000488281</ele>
        <time>2024-10-15T11:09:24.000Z</time>
      </trkpt>
      <trkpt lat="45.09492" lon="5.97129">
        <ele>2375.6000976562</ele>
        <time>2024-10-15T11:09:25.000Z</time>
      </trkpt>
      <trkpt lat="45.09492" lon="5.97129">
        <ele>2375.3999023438</ele>
        <time>2024-10-15T11:09:26.000Z</time>
      </trkpt>
      <trkpt lat="45.09492" lon="5.97129">
        <ele>2375.3999023438</ele>
        <time>2024-10-15T11:09:27.000Z</time>
      </trkpt>
      <trkpt lat="45.09492" lon="5.97129">
        <ele>2375.3999023438</ele>
        <time>2024-10-15T11:09:28.000Z</time>
      </trkpt>
      <trkpt lat="45.09492" lon="5.9713">
        <ele>2375.3999023438</ele>
        <time>2024-10-15T11:09:29.000Z</time>
      </trkpt>
      <trkpt lat="45.09492" lon="5.9713">
        <ele>2375.3999023438</ele>
        <time>2024-10-15T11:09:30.000Z</time>
      </trkpt>
      <trkpt lat="45.09492" lon="5.9713">
        <ele>2375.3999023438</ele>
        <time>2024-10-15T11:09:31.000Z</time>
      </trkpt>
      <trkpt lat="45.09492" lon="5.9713">
        <ele>2375</ele>
        <time>2024-10-15T11:09:32.000Z</time>
      </trkpt>
      <trkpt lat="45.09492" lon="5.9713">
        <ele>2375</ele>
        <time>2024-10-15T11:09:33.000Z</time>
      </trkpt>
      <trkpt lat="45.09491" lon="5.9713">
        <ele>2374.8000488281</ele>
        <time>2024-10-15T11:09:34.000Z</time>
      </trkpt>
      <trkpt lat="45.09491" lon="5.9713">
        <ele>2374.8000488281</ele>
        <time>2024-10-15T11:09:35.000Z</time>
      </trkpt>
      <trkpt lat="45.09491" lon="5.9713">
        <ele>2374.8000488281</ele>
        <time>2024-10-15T11:09:36.000Z</time>
      </trkpt>
      <trkpt lat="45.09491" lon="5.9713">
        <ele>2374.8000488281</ele>
        <time>2024-10-15T11:09:37.000Z</time>
      </trkpt>
      <trkpt lat="45.09491" lon="5.9713">
        <ele>2375</ele>
        <time>2024-10-15T11:09:38.000Z</time>
      </trkpt>
      <trkpt lat="45.09491" lon="5.9713">
        <ele>2375</ele>
        <time>2024-10-15T11:09:39.000Z</time>
      </trkpt>
      <trkpt lat="45.09491" lon="5.9713">
        <ele>2375</ele>
        <time>2024-10-15T11:09:40.000Z</time>
      </trkpt>
      <trkpt lat="45.09491" lon="5.9713">
        <ele>2375</ele>
        <time>2024-10-15T11:09:41.000Z</time>
      </trkpt>
      <trkpt lat="45.09491" lon="5.9713">
        <ele>2374.6000976562</ele>
        <time>2024-10-15T11:09:42.000Z</time>
      </trkpt>
      <trkpt lat="45.09491" lon="5.9713">
        <ele>2374.3999023438</ele>
        <time>2024-10-15T11:09:43.000Z</time>
      </trkpt>
      <trkpt lat="45.0949" lon="5.9713">
        <ele>2374.3999023438</ele>
        <time>2024-10-15T11:09:44.000Z</time>
      </trkpt>
      <trkpt lat="45.0949" lon="5.97131">
        <ele>2374.3999023438</ele>
        <time>2024-10-15T11:09:45.000Z</time>
      </trkpt>
      <trkpt lat="45.0949" lon="5.97131">
        <ele>2374.3999023438</ele>
        <time>2024-10-15T11:09:46.000Z</time>
      </trkpt>
      <trkpt lat="45.0949" lon="5.97131">
        <ele>2374.3999023438</ele>
        <time>2024-10-15T11:09:47.000Z</time>
      </trkpt>
      <trkpt lat="45.0949" lon="5.97131">
        <ele>2374.3999023438</ele>
        <time>2024-10-15T11:09:48.000Z</time>
      </trkpt>
      <trkpt lat="45.0949" lon="5.97131">
        <ele>2374.3999023438</ele>
        <time>2024-10-15T11:09:49.000Z</time>
      </trkpt>
      <trkpt lat="45.0949" lon="5.97131">
        <ele>2374.3999023438</ele>
        <time>2024-10-15T11:09:50.000Z</time>
      </trkpt>
      <trkpt lat="45.09489" lon="5.97132">
        <ele>2374.3999023438</ele>
        <time>2024-10-15T11:09:51.000Z</time>
      </trkpt>
      <trkpt lat="45.09489" lon="5.97132">
        <ele>2374.3999023438</ele>
        <time>2024-10-15T11:09:52.000Z</time>
      </trkpt>
      <trkpt lat="45.09489" lon="5.97132">
        <ele>2374.3999023438</ele>
        <time>2024-10-15T11:09:53.000Z</time>
      </trkpt>
      <trkpt lat="45.09489" lon="5.97132">
        <ele>2374.3999023438</ele>
        <time>2024-10-15T11:09:54.000Z</time>
      </trkpt>
      <trkpt lat="45.09488" lon="5.97132">
        <ele>2374.3999023438</ele>
        <time>2024-10-15T11:09:55.000Z</time>
      </trkpt>
      <trkpt lat="45.09488" lon="5.97132">
        <ele>2374.3999023438</ele>
        <time>2024-10-15T11:09:56.000Z</time>
      </trkpt>
      <trkpt lat="45.09488" lon="5.97132">
        <ele>2374.3999023438</ele>
        <time>2024-10-15T11:09:57.000Z</time>
      </trkpt>
      <trkpt lat="45.09488" lon="5.97132">
        <ele>2374.3999023438</ele>
        <time>2024-10-15T11:09:58.000Z</time>
      </trkpt>
      <trkpt lat="45.09488" lon="5.97132">
        <ele>2374.3999023438</ele>
        <time>2024-10-15T11:09:59.000Z</time>
      </trkpt>
      <trkpt lat="45.09488" lon="5.97132">
        <ele>2374.3999023438</ele>
        <time>2024-10-15T11:10:00.000Z</time>
      </trkpt>
      <trkpt lat="45.09488" lon="5.97132">
        <ele>2374.3999023438</ele>
        <time>2024-10-15T11:10:01.000Z</time>
      </trkpt>
      <trkpt lat="45.09488" lon="5.97132">
        <ele>2374.3999023438</ele>
        <time>2024-10-15T11:10:02.000Z</time>
      </trkpt>
      <trkpt lat="45.09488" lon="5.97132">
        <ele>2374.6000976562</ele>
        <time>2024-10-15T11:10:03.000Z</time>
      </trkpt>
      <trkpt lat="45.09488" lon="5.97132">
        <ele>2374.8000488281</ele>
        <time>2024-10-15T11:10:04.000Z</time>
      </trkpt>
      <trkpt lat="45.09488" lon="5.97132">
        <ele>2374.8000488281</ele>
        <time>2024-10-15T11:10:05.000Z</time>
      </trkpt>
      <trkpt lat="45.09488" lon="5.97132">
        <ele>2375.1999511719</ele>
        <time>2024-10-15T11:10:06.000Z</time>
      </trkpt>
      <trkpt lat="45.09488" lon="5.97132">
        <ele>2375.3999023438</ele>
        <time>2024-10-15T11:10:07.000Z</time>
      </trkpt>
      <trkpt lat="45.09488" lon="5.97132">
        <ele>2375.6000976562</ele>
        <time>2024-10-15T11:10:08.000Z</time>
      </trkpt>
      <trkpt lat="45.09489" lon="5.97132">
        <ele>2375.6000976562</ele>
        <time>2024-10-15T11:10:09.000Z</time>
      </trkpt>
      <trkpt lat="45.09489" lon="5.97132">
        <ele>2375.6000976562</ele>
        <time>2024-10-15T11:10:10.000Z</time>
      </trkpt>
      <trkpt lat="45.09489" lon="5.97132">
        <ele>2375.6000976562</ele>
        <time>2024-10-15T11:10:11.000Z</time>
      </trkpt>
      <trkpt lat="45.09489" lon="5.97132">
        <ele>2375.6000976562</ele>
        <time>2024-10-15T11:10:12.000Z</time>
      </trkpt>
      <trkpt lat="45.09489" lon="5.97132">
        <ele>2375.6000976562</ele>
        <time>2024-10-15T11:10:13.000Z</time>
      </trkpt>
      <trkpt lat="45.09489" lon="5.97132">
        <ele>2375.6000976562</ele>
        <time>2024-10-15T11:10:14.000Z</time>
      </trkpt>
      <trkpt lat="45.09489" lon="5.97132">
        <ele>2375.6000976562</ele>
        <time>2024-10-15T11:10:15.000Z</time>
      </trkpt>
      <trkpt lat="45.09489" lon="5.97132">
        <ele>2375.3999023438</ele>
        <time>2024-10-15T11:10:16.000Z</time>
      </trkpt>
      <trkpt lat="45.09489" lon="5.97132">
        <ele>2375.3999023438</ele>
        <time>2024-10-15T11:10:17.000Z</time>
      </trkpt>
      <trkpt lat="45.09489" lon="5.97132">
        <ele>2375.3999023438</ele>
        <time>2024-10-15T11:10:18.000Z</time>
      </trkpt>
      <trkpt lat="45.09488" lon="5.97132">
        <ele>2375.6000976562</ele>
        <time>2024-10-15T11:10:19.000Z</time>
      </trkpt>
      <trkpt lat="45.09488" lon="5.97132">
        <ele>2375.6000976562</ele>
        <time>2024-10-15T11:10:20.000Z</time>
      </trkpt>
      <trkpt lat="45.09488" lon="5.97132">
        <ele>2375.6000976562</ele>
        <time>2024-10-15T11:10:21.000Z</time>
      </trkpt>
      <trkpt lat="45.09488" lon="5.97132">
        <ele>2375.6000976562</ele>
        <time>2024-10-15T11:10:22.000Z</time>
      </trkpt>
      <trkpt lat="45.09488" lon="5.97132">
        <ele>2375.6000976562</ele>
        <time>2024-10-15T11:10:23.000Z</time>
      </trkpt>
      <trkpt lat="45.09488" lon="5.97132">
        <ele>2375.6000976562</ele>
        <time>2024-10-15T11:10:24.000Z</time>
      </trkpt>
      <trkpt lat="45.09488" lon="5.97132">
        <ele>2375.6000976562</ele>
        <time>2024-10-15T11:10:25.000Z</time>
      </trkpt>
      <trkpt lat="45.09488" lon="5.97132">
        <ele>2375.6000976562</ele>
        <time>2024-10-15T11:10:26.000Z</time>
      </trkpt>
      <trkpt lat="45.09488" lon="5.97132">
        <ele>2375.3999023438</ele>
        <time>2024-10-15T11:10:27.000Z</time>
      </trkpt>
      <trkpt lat="45.09488" lon="5.97132">
        <ele>2375.3999023438</ele>
        <time>2024-10-15T11:10:28.000Z</time>
      </trkpt>
      <trkpt lat="45.09488" lon="5.97132">
        <ele>2375.3999023438</ele>
        <time>2024-10-15T11:10:29.000Z</time>
      </trkpt>
      <trkpt lat="45.09488" lon="5.97132">
        <ele>2375.3999023438</ele>
        <time>2024-10-15T11:10:30.000Z</time>
      </trkpt>
      <trkpt lat="45.09488" lon="5.97132">
        <ele>2375.8000488281</ele>
        <time>2024-10-15T11:10:31.000Z</time>
      </trkpt>
      <trkpt lat="45.09488" lon="5.97132">
        <ele>2376</ele>
        <time>2024-10-15T11:10:32.000Z</time>
      </trkpt>
      <trkpt lat="45.09488" lon="5.97132">
        <ele>2376</ele>
        <time>2024-10-15T11:10:33.000Z</time>
      </trkpt>
      <trkpt lat="45.09488" lon="5.97132">
        <ele>2376</ele>
        <time>2024-10-15T11:10:34.000Z</time>
      </trkpt>
      <trkpt lat="45.09488" lon="5.97132">
        <ele>2376</ele>
        <time>2024-10-15T11:10:35.000Z</time>
      </trkpt>
      <trkpt lat="45.09488" lon="5.97132">
        <ele>2375.8000488281</ele>
        <time>2024-10-15T11:10:36.000Z</time>
      </trkpt>
      <trkpt lat="45.09488" lon="5.97132">
        <ele>2375.6000976562</ele>
        <time>2024-10-15T11:10:37.000Z</time>
      </trkpt>
      <trkpt lat="45.09488" lon="5.97132">
        <ele>2375.6000976562</ele>
        <time>2024-10-15T11:10:38.000Z</time>
      </trkpt>
      <trkpt lat="45.09488" lon="5.97132">
        <ele>2375.6000976562</ele>
        <time>2024-10-15T11:10:39.000Z</time>
      </trkpt>
      <trkpt lat="45.09488" lon="5.97132">
        <ele>2375.3999023438</ele>
        <time>2024-10-15T11:10:40.000Z</time>
      </trkpt>
      <trkpt lat="45.09488" lon="5.97132">
        <ele>2375.6000976562</ele>
        <time>2024-10-15T11:10:41.000Z</time>
      </trkpt>
      <trkpt lat="45.09488" lon="5.97132">
        <ele>2375.6000976562</ele>
        <time>2024-10-15T11:10:42.000Z</time>
      </trkpt>
      <trkpt lat="45.09488" lon="5.97132">
        <ele>2375.6000976562</ele>
        <time>2024-10-15T11:10:43.000Z</time>
      </trkpt>
      <trkpt lat="45.09488" lon="5.97132">
        <ele>2375.6000976562</ele>
        <time>2024-10-15T11:10:44.000Z</time>
      </trkpt>
      <trkpt lat="45.09488" lon="5.97132">
        <ele>2375.3999023438</ele>
        <time>2024-10-15T11:10:45.000Z</time>
      </trkpt>
      <trkpt lat="45.09488" lon="5.97132">
        <ele>2375.3999023438</ele>
        <time>2024-10-15T11:10:46.000Z</time>
      </trkpt>
      <trkpt lat="45.09488" lon="5.97132">
        <ele>2375.1999511719</ele>
        <time>2024-10-15T11:10:47.000Z</time>
      </trkpt>
      <trkpt lat="45.09488" lon="5.97132">
        <ele>2375.1999511719</ele>
        <time>2024-10-15T11:10:48.000Z</time>
      </trkpt>
      <trkpt lat="45.09488" lon="5.97132">
        <ele>2375.1999511719</ele>
        <time>2024-10-15T11:10:49.000Z</time>
      </trkpt>
      <trkpt lat="45.09488" lon="5.97132">
        <ele>2375.1999511719</ele>
        <time>2024-10-15T11:10:50.000Z</time>
      </trkpt>
      <trkpt lat="45.09488" lon="5.97132">
        <ele>2375.1999511719</ele>
        <time>2024-10-15T11:10:51.000Z</time>
      </trkpt>
      <trkpt lat="45.09488" lon="5.97132">
        <ele>2375.1999511719</ele>
        <time>2024-10-15T11:10:52.000Z</time>
      </trkpt>
      <trkpt lat="45.09488" lon="5.97132">
        <ele>2375.1999511719</ele>
        <time>2024-10-15T11:10:53.000Z</time>
      </trkpt>
      <trkpt lat="45.09488" lon="5.97132">
        <ele>2375.1999511719</ele>
        <time>2024-10-15T11:10:54.000Z</time>
      </trkpt>
      <trkpt lat="45.09488" lon="5.97132">
        <ele>2375.1999511719</ele>
        <time>2024-10-15T11:10:55.000Z</time>
      </trkpt>
      <trkpt lat="45.09488" lon="5.97133">
        <ele>2375.1999511719</ele>
        <time>2024-10-15T11:10:56.000Z</time>
      </trkpt>
      <trkpt lat="45.09488" lon="5.97133">
        <ele>2375.3999023438</ele>
        <time>2024-10-15T11:10:57.000Z</time>
      </trkpt>
      <trkpt lat="45.09488" lon="5.97133">
        <ele>2375.3999023438</ele>
        <time>2024-10-15T11:10:58.000Z</time>
      </trkpt>
      <trkpt lat="45.09488" lon="5.97133">
        <ele>2375.3999023438</ele>
        <time>2024-10-15T11:10:59.000Z</time>
      </trkpt>
      <trkpt lat="45.09488" lon="5.97133">
        <ele>2375.3999023438</ele>
        <time>2024-10-15T11:11:00.000Z</time>
      </trkpt>
      <trkpt lat="45.09488" lon="5.97133">
        <ele>2375.6000976562</ele>
        <time>2024-10-15T11:11:01.000Z</time>
      </trkpt>
      <trkpt lat="45.09488" lon="5.97133">
        <ele>2375.6000976562</ele>
        <time>2024-10-15T11:11:02.000Z</time>
      </trkpt>
      <trkpt lat="45.09488" lon="5.97133">
        <ele>2375.6000976562</ele>
        <time>2024-10-15T11:11:03.000Z</time>
      </trkpt>
      <trkpt lat="45.09488" lon="5.97133">
        <ele>2375.6000976562</ele>
        <time>2024-10-15T11:11:04.000Z</time>
      </trkpt>
      <trkpt lat="45.09488" lon="5.97133">
        <ele>2375.6000976562</ele>
        <time>2024-10-15T11:11:05.000Z</time>
      </trkpt>
      <trkpt lat="45.09488" lon="5.97133">
        <ele>2375.8000488281</ele>
        <time>2024-10-15T11:11:06.000Z</time>
      </trkpt>
      <trkpt lat="45.09488" lon="5.97133">
        <ele>2375.8000488281</ele>
        <time>2024-10-15T11:11:07.000Z</time>
      </trkpt>
      <trkpt lat="45.09488" lon="5.97133">
        <ele>2376</ele>
        <time>2024-10-15T11:11:08.000Z</time>
      </trkpt>
      <trkpt lat="45.09488" lon="5.97133">
        <ele>2376</ele>
        <time>2024-10-15T11:11:09.000Z</time>
      </trkpt>
      <trkpt lat="45.09488" lon="5.97133">
        <ele>2376</ele>
        <time>2024-10-15T11:11:10.000Z</time>
      </trkpt>
      <trkpt lat="45.09488" lon="5.97133">
        <ele>2376</ele>
        <time>2024-10-15T11:11:11.000Z</time>
      </trkpt>
      <trkpt lat="45.09488" lon="5.97133">
        <ele>2375.8000488281</ele>
        <time>2024-10-15T11:11:12.000Z</time>
      </trkpt>
      <trkpt lat="45.09488" lon="5.97133">
        <ele>2375.8000488281</ele>
        <time>2024-10-15T11:11:13.000Z</time>
      </trkpt>
      <trkpt lat="45.09488" lon="5.97133">
        <ele>2375.8000488281</ele>
        <time>2024-10-15T11:11:14.000Z</time>
      </trkpt>
      <trkpt lat="45.09487" lon="5.97133">
        <ele>2375.6000976562</ele>
        <time>2024-10-15T11:11:15.000Z</time>
      </trkpt>
      <trkpt lat="45.09487" lon="5.97133">
        <ele>2375.3999023438</ele>
        <time>2024-10-15T11:11:16.000Z</time>
      </trkpt>
      <trkpt lat="45.09487" lon="5.97133">
        <ele>2375.1999511719</ele>
        <time>2024-10-15T11:11:17.000Z</time>
      </trkpt>
      <trkpt lat="45.09487" lon="5.97133">
        <ele>2375.1999511719</ele>
        <time>2024-10-15T11:11:18.000Z</time>
      </trkpt>
      <trkpt lat="45.09487" lon="5.97133">
        <ele>2375</ele>
        <time>2024-10-15T11:11:19.000Z</time>
      </trkpt>
      <trkpt lat="45.09487" lon="5.97133">
        <ele>2375</ele>
        <time>2024-10-15T11:11:20.000Z</time>
      </trkpt>
      <trkpt lat="45.09487" lon="5.97133">
        <ele>2375</ele>
        <time>2024-10-15T11:11:21.000Z</time>
      </trkpt>
      <trkpt lat="45.09487" lon="5.97134">
        <ele>2375</ele>
        <time>2024-10-15T11:11:22.000Z</time>
      </trkpt>
      <trkpt lat="45.09487" lon="5.97134">
        <ele>2374.8000488281</ele>
        <time>2024-10-15T11:11:23.000Z</time>
      </trkpt>
      <trkpt lat="45.09487" lon="5.97134">
        <ele>2374.8000488281</ele>
        <time>2024-10-15T11:11:24.000Z</time>
      </trkpt>
      <trkpt lat="45.09486" lon="5.97134">
        <ele>2374.8000488281</ele>
        <time>2024-10-15T11:11:25.000Z</time>
      </trkpt>
      <trkpt lat="45.09486" lon="5.97134">
        <ele>2374.8000488281</ele>
        <time>2024-10-15T11:11:26.000Z</time>
      </trkpt>
      <trkpt lat="45.09486" lon="5.97134">
        <ele>2374.6000976562</ele>
        <time>2024-10-15T11:11:27.000Z</time>
      </trkpt>
      <trkpt lat="45.09486" lon="5.97135">
        <ele>2374.3999023438</ele>
        <time>2024-10-15T11:11:28.000Z</time>
      </trkpt>
      <trkpt lat="45.09486" lon="5.97136">
        <ele>2374.3999023438</ele>
        <time>2024-10-15T11:11:29.000Z</time>
      </trkpt>
      <trkpt lat="45.09486" lon="5.97136">
        <ele>2374.3999023438</ele>
        <time>2024-10-15T11:11:30.000Z</time>
      </trkpt>
      <trkpt lat="45.09486" lon="5.97136">
        <ele>2374.3999023438</ele>
        <time>2024-10-15T11:11:31.000Z</time>
      </trkpt>
      <trkpt lat="45.09486" lon="5.97137">
        <ele>2374.1999511719</ele>
        <time>2024-10-15T11:11:32.000Z</time>
      </trkpt>
      <trkpt lat="45.09486" lon="5.97137">
        <ele>2374</ele>
        <time>2024-10-15T11:11:33.000Z</time>
      </trkpt>
      <trkpt lat="45.09486" lon="5.97137">
        <ele>2374</ele>
        <time>2024-10-15T11:11:34.000Z</time>
      </trkpt>
      <trkpt lat="45.09486" lon="5.97137">
        <ele>2373.8000488281</ele>
        <time>2024-10-15T11:11:35.000Z</time>
      </trkpt>
      <trkpt lat="45.09486" lon="5.97137">
        <ele>2373.8000488281</ele>
        <time>2024-10-15T11:11:36.000Z</time>
      </trkpt>
      <trkpt lat="45.09486" lon="5.97137">
        <ele>2373.8000488281</ele>
        <time>2024-10-15T11:11:37.000Z</time>
      </trkpt>
      <trkpt lat="45.09486" lon="5.97137">
        <ele>2373.8000488281</ele>
        <time>2024-10-15T11:11:38.000Z</time>
      </trkpt>
      <trkpt lat="45.09486" lon="5.97138">
        <ele>2373.8000488281</ele>
        <time>2024-10-15T11:11:39.000Z</time>
      </trkpt>
      <trkpt lat="45.09486" lon="5.97138">
        <ele>2373.8000488281</ele>
        <time>2024-10-15T11:11:40.000Z</time>
      </trkpt>
      <trkpt lat="45.09486" lon="5.97138">
        <ele>2373.8000488281</ele>
        <time>2024-10-15T11:11:41.000Z</time>
      </trkpt>
      <trkpt lat="45.09486" lon="5.97138">
        <ele>2373.6000976562</ele>
        <time>2024-10-15T11:11:42.000Z</time>
      </trkpt>
      <trkpt lat="45.09486" lon="5.97138">
        <ele>2373.6000976562</ele>
        <time>2024-10-15T11:11:43.000Z</time>
      </trkpt>
      <trkpt lat="45.09486" lon="5.97138">
        <ele>2373.3999023438</ele>
        <time>2024-10-15T11:11:44.000Z</time>
      </trkpt>
      <trkpt lat="45.09486" lon="5.97139">
        <ele>2372.6000976562</ele>
        <time>2024-10-15T11:11:45.000Z</time>
      </trkpt>
      <trkpt lat="45.09486" lon="5.97139">
        <ele>2372.3999023438</ele>
        <time>2024-10-15T11:11:46.000Z</time>
      </trkpt>
      <trkpt lat="45.09486" lon="5.97139">
        <ele>2372</ele>
        <time>2024-10-15T11:11:47.000Z</time>
      </trkpt>
      <trkpt lat="45.09486" lon="5.97139">
        <ele>2371.8000488281</ele>
        <time>2024-10-15T11:11:48.000Z</time>
      </trkpt>
      <trkpt lat="45.09486" lon="5.9714">
        <ele>2371.8000488281</ele>
        <time>2024-10-15T11:11:49.000Z</time>
      </trkpt>
      <trkpt lat="45.09486" lon="5.9714">
        <ele>2371.8000488281</ele>
        <time>2024-10-15T11:11:50.000Z</time>
      </trkpt>
      <trkpt lat="45.09486" lon="5.9714">
        <ele>2371.8000488281</ele>
        <time>2024-10-15T11:11:51.000Z</time>
      </trkpt>
      <trkpt lat="45.09486" lon="5.9714">
        <ele>2372</ele>
        <time>2024-10-15T11:11:52.000Z</time>
      </trkpt>
      <trkpt lat="45.09486" lon="5.9714">
        <ele>2372</ele>
        <time>2024-10-15T11:11:53.000Z</time>
      </trkpt>
      <trkpt lat="45.09486" lon="5.9714">
        <ele>2372</ele>
        <time>2024-10-15T11:11:54.000Z</time>
      </trkpt>
      <trkpt lat="45.09486" lon="5.9714">
        <ele>2372</ele>
        <time>2024-10-15T11:11:55.000Z</time>
      </trkpt>
      <trkpt lat="45.09486" lon="5.9714">
        <ele>2372</ele>
        <time>2024-10-15T11:11:56.000Z</time>
      </trkpt>
      <trkpt lat="45.09486" lon="5.9714">
        <ele>2371.6000976562</ele>
        <time>2024-10-15T11:11:57.000Z</time>
      </trkpt>
      <trkpt lat="45.09486" lon="5.97141">
        <ele>2371.3999023438</ele>
        <time>2024-10-15T11:11:58.000Z</time>
      </trkpt>
      <trkpt lat="45.09486" lon="5.97141">
        <ele>2371.1999511719</ele>
        <time>2024-10-15T11:11:59.000Z</time>
      </trkpt>
      <trkpt lat="45.09486" lon="5.97141">
        <ele>2370.8000488281</ele>
        <time>2024-10-15T11:12:00.000Z</time>
      </trkpt>
      <trkpt lat="45.09486" lon="5.97141">
        <ele>2370.1999511719</ele>
        <time>2024-10-15T11:12:01.000Z</time>
      </trkpt>
      <trkpt lat="45.09486" lon="5.97141">
        <ele>2370</ele>
        <time>2024-10-15T11:12:02.000Z</time>
      </trkpt>
      <trkpt lat="45.09486" lon="5.97141">
        <ele>2369.8000488281</ele>
        <time>2024-10-15T11:12:03.000Z</time>
      </trkpt>
      <trkpt lat="45.09486" lon="5.97141">
        <ele>2369.6000976562</ele>
        <time>2024-10-15T11:12:04.000Z</time>
      </trkpt>
      <trkpt lat="45.09486" lon="5.97142">
        <ele>2369.3999023438</ele>
        <time>2024-10-15T11:12:05.000Z</time>
      </trkpt>
      <trkpt lat="45.09486" lon="5.97142">
        <ele>2369</ele>
        <time>2024-10-15T11:12:06.000Z</time>
      </trkpt>
      <trkpt lat="45.09486" lon="5.97142">
        <ele>2368.6000976562</ele>
        <time>2024-10-15T11:12:07.000Z</time>
      </trkpt>
      <trkpt lat="45.09485" lon="5.97142">
        <ele>2368.3999023438</ele>
        <time>2024-10-15T11:12:08.000Z</time>
      </trkpt>
      <trkpt lat="45.09485" lon="5.97142">
        <ele>2368.1999511719</ele>
        <time>2024-10-15T11:12:09.000Z</time>
      </trkpt>
      <trkpt lat="45.09485" lon="5.97142">
        <ele>2368</ele>
        <time>2024-10-15T11:12:10.000Z</time>
      </trkpt>
      <trkpt lat="45.09485" lon="5.97142">
        <ele>2368.1999511719</ele>
        <time>2024-10-15T11:12:11.000Z</time>
      </trkpt>
      <trkpt lat="45.09485" lon="5.97142">
        <ele>2368.1999511719</ele>
        <time>2024-10-15T11:12:12.000Z</time>
      </trkpt>
      <trkpt lat="45.09484" lon="5.97142">
        <ele>2368.1999511719</ele>
        <time>2024-10-15T11:12:13.000Z</time>
      </trkpt>
      <trkpt lat="45.09484" lon="5.97142">
        <ele>2369.3999023438</ele>
        <time>2024-10-15T11:12:14.000Z</time>
      </trkpt>
      <trkpt lat="45.09484" lon="5.97142">
        <ele>2369.8000488281</ele>
        <time>2024-10-15T11:12:15.000Z</time>
      </trkpt>
      <trkpt lat="45.09484" lon="5.97142">
        <ele>2370</ele>
        <time>2024-10-15T11:12:16.000Z</time>
      </trkpt>
      <trkpt lat="45.09483" lon="5.97142">
        <ele>2370</ele>
        <time>2024-10-15T11:12:17.000Z</time>
      </trkpt>
      <trkpt lat="45.09483" lon="5.97142">
        <ele>2370</ele>
        <time>2024-10-15T11:12:18.000Z</time>
      </trkpt>
      <trkpt lat="45.09483" lon="5.97142">
        <ele>2369.8000488281</ele>
        <time>2024-10-15T11:12:19.000Z</time>
      </trkpt>
      <trkpt lat="45.09483" lon="5.97142">
        <ele>2369</ele>
        <time>2024-10-15T11:12:20.000Z</time>
      </trkpt>
      <trkpt lat="45.09482" lon="5.97142">
        <ele>2368.6000976562</ele>
        <time>2024-10-15T11:12:21.000Z</time>
      </trkpt>
      <trkpt lat="45.09482" lon="5.97142">
        <ele>2368.6000976562</ele>
        <time>2024-10-15T11:12:22.000Z</time>
      </trkpt>
      <trkpt lat="45.09482" lon="5.97142">
        <ele>2368.3999023438</ele>
        <time>2024-10-15T11:12:23.000Z</time>
      </trkpt>
      <trkpt lat="45.09482" lon="5.97142">
        <ele>2368.1999511719</ele>
        <time>2024-10-15T11:12:24.000Z</time>
      </trkpt>
      <trkpt lat="45.09481" lon="5.97142">
        <ele>2367.8000488281</ele>
        <time>2024-10-15T11:12:25.000Z</time>
      </trkpt>
      <trkpt lat="45.09481" lon="5.97142">
        <ele>2367.8000488281</ele>
        <time>2024-10-15T11:12:26.000Z</time>
      </trkpt>
      <trkpt lat="45.09481" lon="5.97142">
        <ele>2367</ele>
        <time>2024-10-15T11:12:27.000Z</time>
      </trkpt>
      <trkpt lat="45.0948" lon="5.97142">
        <ele>2366.6000976562</ele>
        <time>2024-10-15T11:12:28.000Z</time>
      </trkpt>
      <trkpt lat="45.0948" lon="5.97142">
        <ele>2366.3999023438</ele>
        <time>2024-10-15T11:12:29.000Z</time>
      </trkpt>
      <trkpt lat="45.0948" lon="5.97142">
        <ele>2366.3999023438</ele>
        <time>2024-10-15T11:12:30.000Z</time>
      </trkpt>
      <trkpt lat="45.0948" lon="5.97142">
        <ele>2366</ele>
        <time>2024-10-15T11:12:31.000Z</time>
      </trkpt>
      <trkpt lat="45.0948" lon="5.97142">
        <ele>2365.8000488281</ele>
        <time>2024-10-15T11:12:32.000Z</time>
      </trkpt>
      <trkpt lat="45.09479" lon="5.97142">
        <ele>2365.8000488281</ele>
        <time>2024-10-15T11:12:33.000Z</time>
      </trkpt>
      <trkpt lat="45.09479" lon="5.97142">
        <ele>2365.6000976562</ele>
        <time>2024-10-15T11:12:34.000Z</time>
      </trkpt>
      <trkpt lat="45.09479" lon="5.97142">
        <ele>2365.6000976562</ele>
        <time>2024-10-15T11:12:35.000Z</time>
      </trkpt>
      <trkpt lat="45.09479" lon="5.97142">
        <ele>2365</ele>
        <time>2024-10-15T11:12:36.000Z</time>
      </trkpt>
      <trkpt lat="45.09479" lon="5.97142">
        <ele>2364.6000976562</ele>
        <time>2024-10-15T11:12:37.000Z</time>
      </trkpt>
      <trkpt lat="45.09479" lon="5.97142">
        <ele>2364.3999023438</ele>
        <time>2024-10-15T11:12:38.000Z</time>
      </trkpt>
      <trkpt lat="45.09479" lon="5.97142">
        <ele>2364.3999023438</ele>
        <time>2024-10-15T11:12:39.000Z</time>
      </trkpt>
      <trkpt lat="45.09479" lon="5.97142">
        <ele>2364.1999511719</ele>
        <time>2024-10-15T11:12:40.000Z</time>
      </trkpt>
      <trkpt lat="45.09478" lon="5.97142">
        <ele>2364.1999511719</ele>
        <time>2024-10-15T11:12:41.000Z</time>
      </trkpt>
      <trkpt lat="45.09478" lon="5.97142">
        <ele>2364.1999511719</ele>
        <time>2024-10-15T11:12:42.000Z</time>
      </trkpt>
      <trkpt lat="45.09478" lon="5.97142">
        <ele>2364.3999023438</ele>
        <time>2024-10-15T11:12:43.000Z</time>
      </trkpt>
      <trkpt lat="45.09478" lon="5.97142">
        <ele>2364.6000976562</ele>
        <time>2024-10-15T11:12:44.000Z</time>
      </trkpt>
      <trkpt lat="45.09477" lon="5.97142">
        <ele>2364.8000488281</ele>
        <time>2024-10-15T11:12:45.000Z</time>
      </trkpt>
      <trkpt lat="45.09477" lon="5.97142">
        <ele>2365</ele>
        <time>2024-10-15T11:12:46.000Z</time>
      </trkpt>
      <trkpt lat="45.09477" lon="5.97142">
        <ele>2365</ele>
        <time>2024-10-15T11:12:47.000Z</time>
      </trkpt>
      <trkpt lat="45.09477" lon="5.97142">
        <ele>2365</ele>
        <time>2024-10-15T11:12:48.000Z</time>
      </trkpt>
      <trkpt lat="45.09476" lon="5.97142">
        <ele>2365</ele>
        <time>2024-10-15T11:12:49.000Z</time>
      </trkpt>
      <trkpt lat="45.09476" lon="5.97142">
        <ele>2365.1999511719</ele>
        <time>2024-10-15T11:12:50.000Z</time>
      </trkpt>
      <trkpt lat="45.09476" lon="5.97142">
        <ele>2365.1999511719</ele>
        <time>2024-10-15T11:12:51.000Z</time>
      </trkpt>
      <trkpt lat="45.09476" lon="5.97142">
        <ele>2365</ele>
        <time>2024-10-15T11:12:52.000Z</time>
      </trkpt>
      <trkpt lat="45.09476" lon="5.97142">
        <ele>2365</ele>
        <time>2024-10-15T11:12:53.000Z</time>
      </trkpt>
      <trkpt lat="45.09476" lon="5.97142">
        <ele>2365</ele>
        <time>2024-10-15T11:12:54.000Z</time>
      </trkpt>
      <trkpt lat="45.09475" lon="5.97142">
        <ele>2365</ele>
        <time>2024-10-15T11:12:55.000Z</time>
      </trkpt>
      <trkpt lat="45.09475" lon="5.97142">
        <ele>2365</ele>
        <time>2024-10-15T11:12:56.000Z</time>
      </trkpt>
      <trkpt lat="45.09475" lon="5.97142">
        <ele>2365.1999511719</ele>
        <time>2024-10-15T11:12:57.000Z</time>
      </trkpt>
      <trkpt lat="45.09475" lon="5.97142">
        <ele>2365.1999511719</ele>
        <time>2024-10-15T11:12:58.000Z</time>
      </trkpt>
      <trkpt lat="45.09475" lon="5.97142">
        <ele>2365</ele>
        <time>2024-10-15T11:12:59.000Z</time>
      </trkpt>
      <trkpt lat="45.09475" lon="5.97142">
        <ele>2365</ele>
        <time>2024-10-15T11:13:00.000Z</time>
      </trkpt>
      <trkpt lat="45.09475" lon="5.97142">
        <ele>2364.8000488281</ele>
        <time>2024-10-15T11:13:01.000Z</time>
      </trkpt>
      <trkpt lat="45.09475" lon="5.97142">
        <ele>2364.8000488281</ele>
        <time>2024-10-15T11:13:02.000Z</time>
      </trkpt>
      <trkpt lat="45.09475" lon="5.97142">
        <ele>2364.8000488281</ele>
        <time>2024-10-15T11:13:03.000Z</time>
      </trkpt>
      <trkpt lat="45.09475" lon="5.97142">
        <ele>2364.6000976562</ele>
        <time>2024-10-15T11:13:04.000Z</time>
      </trkpt>
      <trkpt lat="45.09475" lon="5.97142">
        <ele>2364.1999511719</ele>
        <time>2024-10-15T11:13:05.000Z</time>
      </trkpt>
      <trkpt lat="45.09474" lon="5.97142">
        <ele>2363.8000488281</ele>
        <time>2024-10-15T11:13:06.000Z</time>
      </trkpt>
      <trkpt lat="45.09474" lon="5.97141">
        <ele>2363.6000976562</ele>
        <time>2024-10-15T11:13:07.000Z</time>
      </trkpt>
      <trkpt lat="45.09474" lon="5.97141">
        <ele>2363.3999023438</ele>
        <time>2024-10-15T11:13:08.000Z</time>
      </trkpt>
      <trkpt lat="45.09474" lon="5.97141">
        <ele>2363.1999511719</ele>
        <time>2024-10-15T11:13:09.000Z</time>
      </trkpt>
      <trkpt lat="45.09474" lon="5.97141">
        <ele>2363.1999511719</ele>
        <time>2024-10-15T11:13:10.000Z</time>
      </trkpt>
      <trkpt lat="45.09474" lon="5.97141">
        <ele>2363</ele>
        <time>2024-10-15T11:13:11.000Z</time>
      </trkpt>
      <trkpt lat="45.09474" lon="5.97141">
        <ele>2362.6000976562</ele>
        <time>2024-10-15T11:13:12.000Z</time>
      </trkpt>
      <trkpt lat="45.09474" lon="5.97141">
        <ele>2362.3999023438</ele>
        <time>2024-10-15T11:13:13.000Z</time>
      </trkpt>
      <trkpt lat="45.09474" lon="5.97141">
        <ele>2362.1999511719</ele>
        <time>2024-10-15T11:13:14.000Z</time>
      </trkpt>
      <trkpt lat="45.09474" lon="5.97141">
        <ele>2362.1999511719</ele>
        <time>2024-10-15T11:13:15.000Z</time>
      </trkpt>
      <trkpt lat="45.09474" lon="5.97141">
        <ele>2362.1999511719</ele>
        <time>2024-10-15T11:13:16.000Z</time>
      </trkpt>
      <trkpt lat="45.09474" lon="5.97141">
        <ele>2362.1999511719</ele>
        <time>2024-10-15T11:13:17.000Z</time>
      </trkpt>
      <trkpt lat="45.09474" lon="5.97141">
        <ele>2362.1999511719</ele>
        <time>2024-10-15T11:13:18.000Z</time>
      </trkpt>
      <trkpt lat="45.09474" lon="5.97141">
        <ele>2362.1999511719</ele>
        <time>2024-10-15T11:13:19.000Z</time>
      </trkpt>
      <trkpt lat="45.09474" lon="5.97141">
        <ele>2362.1999511719</ele>
        <time>2024-10-15T11:13:20.000Z</time>
      </trkpt>
      <trkpt lat="45.09474" lon="5.97141">
        <ele>2362.1999511719</ele>
        <time>2024-10-15T11:13:21.000Z</time>
      </trkpt>
      <trkpt lat="45.09474" lon="5.97141">
        <ele>2362.1999511719</ele>
        <time>2024-10-15T11:13:22.000Z</time>
      </trkpt>
      <trkpt lat="45.09474" lon="5.97141">
        <ele>2362.1999511719</ele>
        <time>2024-10-15T11:13:23.000Z</time>
      </trkpt>
      <trkpt lat="45.09474" lon="5.97141">
        <ele>2362.1999511719</ele>
        <time>2024-10-15T11:13:24.000Z</time>
      </trkpt>
      <trkpt lat="45.09474" lon="5.97141">
        <ele>2362.1999511719</ele>
        <time>2024-10-15T11:13:25.000Z</time>
      </trkpt>
      <trkpt lat="45.09474" lon="5.97141">
        <ele>2362.1999511719</ele>
        <time>2024-10-15T11:13:26.000Z</time>
      </trkpt>
      <trkpt lat="45.09474" lon="5.97141">
        <ele>2362.1999511719</ele>
        <time>2024-10-15T11:13:27.000Z</time>
      </trkpt>
      <trkpt lat="45.09474" lon="5.97141">
        <ele>2362.1999511719</ele>
        <time>2024-10-15T11:13:28.000Z</time>
      </trkpt>
      <trkpt lat="45.09474" lon="5.97141">
        <ele>2362.1999511719</ele>
        <time>2024-10-15T11:13:29.000Z</time>
      </trkpt>
      <trkpt lat="45.09474" lon="5.97141">
        <ele>2362.1999511719</ele>
        <time>2024-10-15T11:13:30.000Z</time>
      </trkpt>
      <trkpt lat="45.09474" lon="5.97141">
        <ele>2362.1999511719</ele>
        <time>2024-10-15T11:13:31.000Z</time>
      </trkpt>
      <trkpt lat="45.09474" lon="5.97141">
        <ele>2362.1999511719</ele>
        <time>2024-10-15T11:13:32.000Z</time>
      </trkpt>
      <trkpt lat="45.09474" lon="5.97141">
        <ele>2362.1999511719</ele>
        <time>2024-10-15T11:13:33.000Z</time>
      </trkpt>
      <trkpt lat="45.09474" lon="5.97141">
        <ele>2362.1999511719</ele>
        <time>2024-10-15T11:13:34.000Z</time>
      </trkpt>
      <trkpt lat="45.09474" lon="5.97141">
        <ele>2362.3999023438</ele>
        <time>2024-10-15T11:13:35.000Z</time>
      </trkpt>
      <trkpt lat="45.09474" lon="5.97141">
        <ele>2362.3999023438</ele>
        <time>2024-10-15T11:13:36.000Z</time>
      </trkpt>
      <trkpt lat="45.09474" lon="5.97141">
        <ele>2362.3999023438</ele>
        <time>2024-10-15T11:13:37.000Z</time>
      </trkpt>
      <trkpt lat="45.09474" lon="5.97141">
        <ele>2362.1999511719</ele>
        <time>2024-10-15T11:13:38.000Z</time>
      </trkpt>
      <trkpt lat="45.09474" lon="5.97141">
        <ele>2362.1999511719</ele>
        <time>2024-10-15T11:13:39.000Z</time>
      </trkpt>
      <trkpt lat="45.09474" lon="5.97141">
        <ele>2362.1999511719</ele>
        <time>2024-10-15T11:13:40.000Z</time>
      </trkpt>
      <trkpt lat="45.09474" lon="5.97141">
        <ele>2362.1999511719</ele>
        <time>2024-10-15T11:13:41.000Z</time>
      </trkpt>
      <trkpt lat="45.09474" lon="5.97141">
        <ele>2362.1999511719</ele>
        <time>2024-10-15T11:13:42.000Z</time>
      </trkpt>
      <trkpt lat="45.09474" lon="5.97141">
        <ele>2362.1999511719</ele>
        <time>2024-10-15T11:13:43.000Z</time>
      </trkpt>
      <trkpt lat="45.09474" lon="5.97141">
        <ele>2362.1999511719</ele>
        <time>2024-10-15T11:13:44.000Z</time>
      </trkpt>
      <trkpt lat="45.09474" lon="5.97141">
        <ele>2362.1999511719</ele>
        <time>2024-10-15T11:13:45.000Z</time>
      </trkpt>
      <trkpt lat="45.09474" lon="5.97141">
        <ele>2362.1999511719</ele>
        <time>2024-10-15T11:13:46.000Z</time>
      </trkpt>
      <trkpt lat="45.09474" lon="5.97141">
        <ele>2362.1999511719</ele>
        <time>2024-10-15T11:13:47.000Z</time>
      </trkpt>
      <trkpt lat="45.09474" lon="5.97141">
        <ele>2362.1999511719</ele>
        <time>2024-10-15T11:13:48.000Z</time>
      </trkpt>
      <trkpt lat="45.09474" lon="5.97141">
        <ele>2362.1999511719</ele>
        <time>2024-10-15T11:13:49.000Z</time>
      </trkpt>
      <trkpt lat="45.09474" lon="5.97141">
        <ele>2362.1999511719</ele>
        <time>2024-10-15T11:13:50.000Z</time>
      </trkpt>
      <trkpt lat="45.09474" lon="5.97141">
        <ele>2362.1999511719</ele>
        <time>2024-10-15T11:13:51.000Z</time>
      </trkpt>
      <trkpt lat="45.09474" lon="5.97141">
        <ele>2362.1999511719</ele>
        <time>2024-10-15T11:13:52.000Z</time>
      </trkpt>
      <trkpt lat="45.09474" lon="5.97141">
        <ele>2362.3999023438</ele>
        <time>2024-10-15T11:13:53.000Z</time>
      </trkpt>
      <trkpt lat="45.09474" lon="5.97141">
        <ele>2362.6000976562</ele>
        <time>2024-10-15T11:13:54.000Z</time>
      </trkpt>
      <trkpt lat="45.09474" lon="5.97141">
        <ele>2362.8000488281</ele>
        <time>2024-10-15T11:13:55.000Z</time>
      </trkpt>
      <trkpt lat="45.09474" lon="5.97141">
        <ele>2362.8000488281</ele>
        <time>2024-10-15T11:13:56.000Z</time>
      </trkpt>
      <trkpt lat="45.09474" lon="5.97141">
        <ele>2362.8000488281</ele>
        <time>2024-10-15T11:13:57.000Z</time>
      </trkpt>
      <trkpt lat="45.09474" lon="5.97141">
        <ele>2362.8000488281</ele>
        <time>2024-10-15T11:13:58.000Z</time>
      </trkpt>
      <trkpt lat="45.09474" lon="5.97141">
        <ele>2362.8000488281</ele>
        <time>2024-10-15T11:13:59.000Z</time>
      </trkpt>
      <trkpt lat="45.09474" lon="5.97141">
        <ele>2362.8000488281</ele>
        <time>2024-10-15T11:14:00.000Z</time>
      </trkpt>
      <trkpt lat="45.09474" lon="5.97141">
        <ele>2362.8000488281</ele>
        <time>2024-10-15T11:14:01.000Z</time>
      </trkpt>
      <trkpt lat="45.09474" lon="5.97141">
        <ele>2362.6000976562</ele>
        <time>2024-10-15T11:14:02.000Z</time>
      </trkpt>
      <trkpt lat="45.09474" lon="5.97141">
        <ele>2362.6000976562</ele>
        <time>2024-10-15T11:14:03.000Z</time>
      </trkpt>
      <trkpt lat="45.09474" lon="5.97141">
        <ele>2362.6000976562</ele>
        <time>2024-10-15T11:14:04.000Z</time>
      </trkpt>
      <trkpt lat="45.09474" lon="5.97141">
        <ele>2362.6000976562</ele>
        <time>2024-10-15T11:14:05.000Z</time>
      </trkpt>
      <trkpt lat="45.09474" lon="5.97141">
        <ele>2362.6000976562</ele>
        <time>2024-10-15T11:14:06.000Z</time>
      </trkpt>
      <trkpt lat="45.09474" lon="5.97141">
        <ele>2362.8000488281</ele>
        <time>2024-10-15T11:14:07.000Z</time>
      </trkpt>
      <trkpt lat="45.09473" lon="5.97141">
        <ele>2362.8000488281</ele>
        <time>2024-10-15T11:14:08.000Z</time>
      </trkpt>
      <trkpt lat="45.09473" lon="5.97141">
        <ele>2362.8000488281</ele>
        <time>2024-10-15T11:14:09.000Z</time>
      </trkpt>
      <trkpt lat="45.09473" lon="5.97141">
        <ele>2362.8000488281</ele>
        <time>2024-10-15T11:14:10.000Z</time>
      </trkpt>
      <trkpt lat="45.09473" lon="5.97141">
        <ele>2362.8000488281</ele>
        <time>2024-10-15T11:14:11.000Z</time>
      </trkpt>
      <trkpt lat="45.09473" lon="5.97141">
        <ele>2362.8000488281</ele>
        <time>2024-10-15T11:14:12.000Z</time>
      </trkpt>
      <trkpt lat="45.09473" lon="5.97141">
        <ele>2362.8000488281</ele>
        <time>2024-10-15T11:14:13.000Z</time>
      </trkpt>
      <trkpt lat="45.09473" lon="5.97141">
        <ele>2362.8000488281</ele>
        <time>2024-10-15T11:14:14.000Z</time>
      </trkpt>
      <trkpt lat="45.09473" lon="5.97141">
        <ele>2362.8000488281</ele>
        <time>2024-10-15T11:14:15.000Z</time>
      </trkpt>
      <trkpt lat="45.09473" lon="5.97141">
        <ele>2362.8000488281</ele>
        <time>2024-10-15T11:14:16.000Z</time>
      </trkpt>
      <trkpt lat="45.09473" lon="5.97141">
        <ele>2362.8000488281</ele>
        <time>2024-10-15T11:14:17.000Z</time>
      </trkpt>
      <trkpt lat="45.09473" lon="5.97141">
        <ele>2362.6000976562</ele>
        <time>2024-10-15T11:14:18.000Z</time>
      </trkpt>
      <trkpt lat="45.09473" lon="5.97141">
        <ele>2362.6000976562</ele>
        <time>2024-10-15T11:14:19.000Z</time>
      </trkpt>
      <trkpt lat="45.09473" lon="5.97141">
        <ele>2362.6000976562</ele>
        <time>2024-10-15T11:14:20.000Z</time>
      </trkpt>
      <trkpt lat="45.09473" lon="5.97141">
        <ele>2362.6000976562</ele>
        <time>2024-10-15T11:14:21.000Z</time>
      </trkpt>
      <trkpt lat="45.09473" lon="5.97141">
        <ele>2362.6000976562</ele>
        <time>2024-10-15T11:14:22.000Z</time>
      </trkpt>
      <trkpt lat="45.09473" lon="5.97141">
        <ele>2362.6000976562</ele>
        <time>2024-10-15T11:14:23.000Z</time>
      </trkpt>
      <trkpt lat="45.09473" lon="5.97141">
        <ele>2362.8000488281</ele>
        <time>2024-10-15T11:14:24.000Z</time>
      </trkpt>
      <trkpt lat="45.09473" lon="5.97141">
        <ele>2362.8000488281</ele>
        <time>2024-10-15T11:14:25.000Z</time>
      </trkpt>
      <trkpt lat="45.09473" lon="5.97141">
        <ele>2362.8000488281</ele>
        <time>2024-10-15T11:14:26.000Z</time>
      </trkpt>
      <trkpt lat="45.09473" lon="5.97141">
        <ele>2362.6000976562</ele>
        <time>2024-10-15T11:14:27.000Z</time>
      </trkpt>
      <trkpt lat="45.09473" lon="5.97141">
        <ele>2362.6000976562</ele>
        <time>2024-10-15T11:14:28.000Z</time>
      </trkpt>
      <trkpt lat="45.09473" lon="5.97141">
        <ele>2362.6000976562</ele>
        <time>2024-10-15T11:14:29.000Z</time>
      </trkpt>
      <trkpt lat="45.09473" lon="5.97141">
        <ele>2362.3999023438</ele>
        <time>2024-10-15T11:14:30.000Z</time>
      </trkpt>
      <trkpt lat="45.09473" lon="5.97141">
        <ele>2362.1999511719</ele>
        <time>2024-10-15T11:14:31.000Z</time>
      </trkpt>
      <trkpt lat="45.09473" lon="5.97141">
        <ele>2362.1999511719</ele>
        <time>2024-10-15T11:14:32.000Z</time>
      </trkpt>
      <trkpt lat="45.09473" lon="5.97141">
        <ele>2362</ele>
        <time>2024-10-15T11:14:33.000Z</time>
      </trkpt>
      <trkpt lat="45.09473" lon="5.97141">
        <ele>2362</ele>
        <time>2024-10-15T11:14:34.000Z</time>
      </trkpt>
      <trkpt lat="45.09473" lon="5.97141">
        <ele>2362.1999511719</ele>
        <time>2024-10-15T11:14:35.000Z</time>
      </trkpt>
      <trkpt lat="45.09473" lon="5.97141">
        <ele>2362.1999511719</ele>
        <time>2024-10-15T11:14:36.000Z</time>
      </trkpt>
      <trkpt lat="45.09473" lon="5.97141">
        <ele>2362.1999511719</ele>
        <time>2024-10-15T11:14:37.000Z</time>
      </trkpt>
      <trkpt lat="45.09473" lon="5.97141">
        <ele>2362.1999511719</ele>
        <time>2024-10-15T11:14:38.000Z</time>
      </trkpt>
      <trkpt lat="45.09473" lon="5.97141">
        <ele>2362.3999023438</ele>
        <time>2024-10-15T11:14:39.000Z</time>
      </trkpt>
      <trkpt lat="45.09473" lon="5.97141">
        <ele>2362.3999023438</ele>
        <time>2024-10-15T11:14:40.000Z</time>
      </trkpt>
      <trkpt lat="45.09473" lon="5.97141">
        <ele>2362.3999023438</ele>
        <time>2024-10-15T11:14:41.000Z</time>
      </trkpt>
      <trkpt lat="45.09473" lon="5.97141">
        <ele>2362.6000976562</ele>
        <time>2024-10-15T11:14:42.000Z</time>
      </trkpt>
      <trkpt lat="45.09473" lon="5.97141">
        <ele>2362.6000976562</ele>
        <time>2024-10-15T11:14:43.000Z</time>
      </trkpt>
      <trkpt lat="45.09473" lon="5.97141">
        <ele>2362.6000976562</ele>
        <time>2024-10-15T11:14:44.000Z</time>
      </trkpt>
      <trkpt lat="45.09473" lon="5.97141">
        <ele>2362.6000976562</ele>
        <time>2024-10-15T11:14:45.000Z</time>
      </trkpt>
      <trkpt lat="45.09473" lon="5.97141">
        <ele>2362.6000976562</ele>
        <time>2024-10-15T11:14:46.000Z</time>
      </trkpt>
      <trkpt lat="45.09473" lon="5.97141">
        <ele>2362.8000488281</ele>
        <time>2024-10-15T11:14:47.000Z</time>
      </trkpt>
      <trkpt lat="45.09473" lon="5.97141">
        <ele>2362.8000488281</ele>
        <time>2024-10-15T11:14:48.000Z</time>
      </trkpt>
      <trkpt lat="45.09473" lon="5.97141">
        <ele>2362.8000488281</ele>
        <time>2024-10-15T11:14:49.000Z</time>
      </trkpt>
      <trkpt lat="45.09473" lon="5.97141">
        <ele>2362.8000488281</ele>
        <time>2024-10-15T11:14:50.000Z</time>
      </trkpt>
      <trkpt lat="45.09473" lon="5.97141">
        <ele>2362.8000488281</ele>
        <time>2024-10-15T11:14:51.000Z</time>
      </trkpt>
      <trkpt lat="45.09473" lon="5.97141">
        <ele>2362.8000488281</ele>
        <time>2024-10-15T11:14:52.000Z</time>
      </trkpt>
      <trkpt lat="45.09473" lon="5.97141">
        <ele>2362.8000488281</ele>
        <time>2024-10-15T11:14:53.000Z</time>
      </trkpt>
      <trkpt lat="45.09473" lon="5.97141">
        <ele>2362.8000488281</ele>
        <time>2024-10-15T11:14:54.000Z</time>
      </trkpt>
      <trkpt lat="45.09473" lon="5.97141">
        <ele>2362.8000488281</ele>
        <time>2024-10-15T11:14:55.000Z</time>
      </trkpt>
      <trkpt lat="45.09473" lon="5.97141">
        <ele>2362.8000488281</ele>
        <time>2024-10-15T11:14:56.000Z</time>
      </trkpt>
      <trkpt lat="45.09473" lon="5.97141">
        <ele>2362.8000488281</ele>
        <time>2024-10-15T11:14:57.000Z</time>
      </trkpt>
      <trkpt lat="45.09473" lon="5.97141">
        <ele>2362.8000488281</ele>
        <time>2024-10-15T11:14:58.000Z</time>
      </trkpt>
      <trkpt lat="45.09473" lon="5.97141">
        <ele>2362.8000488281</ele>
        <time>2024-10-15T11:14:59.000Z</time>
      </trkpt>
      <trkpt lat="45.09473" lon="5.97141">
        <ele>2362.8000488281</ele>
        <time>2024-10-15T11:15:00.000Z</time>
      </trkpt>
      <trkpt lat="45.09473" lon="5.97141">
        <ele>2362.8000488281</ele>
        <time>2024-10-15T11:15:01.000Z</time>
      </trkpt>
      <trkpt lat="45.09473" lon="5.97141">
        <ele>2362.8000488281</ele>
        <time>2024-10-15T11:15:02.000Z</time>
      </trkpt>
      <trkpt lat="45.09473" lon="5.97141">
        <ele>2363</ele>
        <time>2024-10-15T11:15:03.000Z</time>
      </trkpt>
      <trkpt lat="45.09473" lon="5.97141">
        <ele>2363</ele>
        <time>2024-10-15T11:15:04.000Z</time>
      </trkpt>
      <trkpt lat="45.09473" lon="5.97141">
        <ele>2363</ele>
        <time>2024-10-15T11:15:05.000Z</time>
      </trkpt>
      <trkpt lat="45.09473" lon="5.97141">
        <ele>2363</ele>
        <time>2024-10-15T11:15:06.000Z</time>
      </trkpt>
      <trkpt lat="45.09473" lon="5.97141">
        <ele>2363</ele>
        <time>2024-10-15T11:15:07.000Z</time>
      </trkpt>
      <trkpt lat="45.09473" lon="5.97141">
        <ele>2363.1999511719</ele>
        <time>2024-10-15T11:15:08.000Z</time>
      </trkpt>
      <trkpt lat="45.09473" lon="5.97141">
        <ele>2363.1999511719</ele>
        <time>2024-10-15T11:15:09.000Z</time>
      </trkpt>
      <trkpt lat="45.09473" lon="5.97141">
        <ele>2363.3999023438</ele>
        <time>2024-10-15T11:15:10.000Z</time>
      </trkpt>
      <trkpt lat="45.09473" lon="5.97141">
        <ele>2363.3999023438</ele>
        <time>2024-10-15T11:15:11.000Z</time>
      </trkpt>
      <trkpt lat="45.09473" lon="5.97141">
        <ele>2363.6000976562</ele>
        <time>2024-10-15T11:15:12.000Z</time>
      </trkpt>
      <trkpt lat="45.09473" lon="5.97141">
        <ele>2363.6000976562</ele>
        <time>2024-10-15T11:15:13.000Z</time>
      </trkpt>
      <trkpt lat="45.09473" lon="5.97141">
        <ele>2363.6000976562</ele>
        <time>2024-10-15T11:15:14.000Z</time>
      </trkpt>
      <trkpt lat="45.09473" lon="5.97141">
        <ele>2363.3999023438</ele>
        <time>2024-10-15T11:15:15.000Z</time>
      </trkpt>
      <trkpt lat="45.09473" lon="5.97141">
        <ele>2363.3999023438</ele>
        <time>2024-10-15T11:15:16.000Z</time>
      </trkpt>
      <trkpt lat="45.09473" lon="5.97141">
        <ele>2363.3999023438</ele>
        <time>2024-10-15T11:15:17.000Z</time>
      </trkpt>
      <trkpt lat="45.09473" lon="5.97141">
        <ele>2363.3999023438</ele>
        <time>2024-10-15T11:15:18.000Z</time>
      </trkpt>
      <trkpt lat="45.09473" lon="5.97141">
        <ele>2363.3999023438</ele>
        <time>2024-10-15T11:15:19.000Z</time>
      </trkpt>
      <trkpt lat="45.09473" lon="5.97141">
        <ele>2363.3999023438</ele>
        <time>2024-10-15T11:15:20.000Z</time>
      </trkpt>
      <trkpt lat="45.09473" lon="5.97141">
        <ele>2363.3999023438</ele>
        <time>2024-10-15T11:15:21.000Z</time>
      </trkpt>
      <trkpt lat="45.09473" lon="5.97141">
        <ele>2363.3999023438</ele>
        <time>2024-10-15T11:15:22.000Z</time>
      </trkpt>
      <trkpt lat="45.09473" lon="5.97141">
        <ele>2363.1999511719</ele>
        <time>2024-10-15T11:15:23.000Z</time>
      </trkpt>
      <trkpt lat="45.09473" lon="5.97141">
        <ele>2363.1999511719</ele>
        <time>2024-10-15T11:15:24.000Z</time>
      </trkpt>
      <trkpt lat="45.09473" lon="5.97141">
        <ele>2363</ele>
        <time>2024-10-15T11:15:25.000Z</time>
      </trkpt>
      <trkpt lat="45.09473" lon="5.97141">
        <ele>2363</ele>
        <time>2024-10-15T11:15:26.000Z</time>
      </trkpt>
      <trkpt lat="45.09473" lon="5.97141">
        <ele>2363</ele>
        <time>2024-10-15T11:15:27.000Z</time>
      </trkpt>
      <trkpt lat="45.09473" lon="5.97141">
        <ele>2362.8000488281</ele>
        <time>2024-10-15T11:15:28.000Z</time>
      </trkpt>
      <trkpt lat="45.09473" lon="5.97141">
        <ele>2362.6000976562</ele>
        <time>2024-10-15T11:15:29.000Z</time>
      </trkpt>
      <trkpt lat="45.09473" lon="5.97141">
        <ele>2362.6000976562</ele>
        <time>2024-10-15T11:15:30.000Z</time>
      </trkpt>
      <trkpt lat="45.09473" lon="5.97141">
        <ele>2362.3999023438</ele>
        <time>2024-10-15T11:15:31.000Z</time>
      </trkpt>
      <trkpt lat="45.09473" lon="5.97141">
        <ele>2362</ele>
        <time>2024-10-15T11:15:32.000Z</time>
      </trkpt>
      <trkpt lat="45.09473" lon="5.97141">
        <ele>2361.8000488281</ele>
        <time>2024-10-15T11:15:33.000Z</time>
      </trkpt>
      <trkpt lat="45.09473" lon="5.97141">
        <ele>2361.6000976562</ele>
        <time>2024-10-15T11:15:34.000Z</time>
      </trkpt>
      <trkpt lat="45.09473" lon="5.97141">
        <ele>2361.6000976562</ele>
        <time>2024-10-15T11:15:35.000Z</time>
      </trkpt>
      <trkpt lat="45.09473" lon="5.97141">
        <ele>2361.6000976562</ele>
        <time>2024-10-15T11:15:36.000Z</time>
      </trkpt>
      <trkpt lat="45.09473" lon="5.97141">
        <ele>2361.6000976562</ele>
        <time>2024-10-15T11:15:37.000Z</time>
      </trkpt>
      <trkpt lat="45.09473" lon="5.97141">
        <ele>2361.6000976562</ele>
        <time>2024-10-15T11:15:38.000Z</time>
      </trkpt>
      <trkpt lat="45.09473" lon="5.97141">
        <ele>2361.6000976562</ele>
        <time>2024-10-15T11:15:39.000Z</time>
      </trkpt>
      <trkpt lat="45.09473" lon="5.97141">
        <ele>2361.1999511719</ele>
        <time>2024-10-15T11:15:40.000Z</time>
      </trkpt>
      <trkpt lat="45.09473" lon="5.97141">
        <ele>2361.1999511719</ele>
        <time>2024-10-15T11:15:41.000Z</time>
      </trkpt>
      <trkpt lat="45.09473" lon="5.97141">
        <ele>2361</ele>
        <time>2024-10-15T11:15:42.000Z</time>
      </trkpt>
      <trkpt lat="45.09473" lon="5.97141">
        <ele>2360.8000488281</ele>
        <time>2024-10-15T11:15:43.000Z</time>
      </trkpt>
      <trkpt lat="45.09473" lon="5.97141">
        <ele>2360.8000488281</ele>
        <time>2024-10-15T11:15:44.000Z</time>
      </trkpt>
      <trkpt lat="45.09473" lon="5.97141">
        <ele>2360.6000976562</ele>
        <time>2024-10-15T11:15:45.000Z</time>
      </trkpt>
      <trkpt lat="45.09473" lon="5.97141">
        <ele>2360.3999023438</ele>
        <time>2024-10-15T11:15:46.000Z</time>
      </trkpt>
      <trkpt lat="45.09473" lon="5.97141">
        <ele>2360.3999023438</ele>
        <time>2024-10-15T11:15:47.000Z</time>
      </trkpt>
      <trkpt lat="45.09473" lon="5.97141">
        <ele>2360.3999023438</ele>
        <time>2024-10-15T11:15:48.000Z</time>
      </trkpt>
      <trkpt lat="45.09473" lon="5.97141">
        <ele>2360.3999023438</ele>
        <time>2024-10-15T11:15:49.000Z</time>
      </trkpt>
      <trkpt lat="45.09473" lon="5.97141">
        <ele>2360.1999511719</ele>
        <time>2024-10-15T11:15:50.000Z</time>
      </trkpt>
      <trkpt lat="45.09473" lon="5.97141">
        <ele>2360</ele>
        <time>2024-10-15T11:15:51.000Z</time>
      </trkpt>
      <trkpt lat="45.09473" lon="5.97141">
        <ele>2359.8000488281</ele>
        <time>2024-10-15T11:15:52.000Z</time>
      </trkpt>
      <trkpt lat="45.09473" lon="5.97141">
        <ele>2359.3999023438</ele>
        <time>2024-10-15T11:15:53.000Z</time>
      </trkpt>
      <trkpt lat="45.09473" lon="5.97141">
        <ele>2359.1999511719</ele>
        <time>2024-10-15T11:15:54.000Z</time>
      </trkpt>
      <trkpt lat="45.09473" lon="5.97141">
        <ele>2359.1999511719</ele>
        <time>2024-10-15T11:15:55.000Z</time>
      </trkpt>
      <trkpt lat="45.09473" lon="5.97141">
        <ele>2359.1999511719</ele>
        <time>2024-10-15T11:15:56.000Z</time>
      </trkpt>
      <trkpt lat="45.09472" lon="5.97141">
        <ele>2359.1999511719</ele>
        <time>2024-10-15T11:15:57.000Z</time>
      </trkpt>
      <trkpt lat="45.09472" lon="5.97141">
        <ele>2359.1999511719</ele>
        <time>2024-10-15T11:15:58.000Z</time>
      </trkpt>
      <trkpt lat="45.09472" lon="5.97141">
        <ele>2359.3999023438</ele>
        <time>2024-10-15T11:15:59.000Z</time>
      </trkpt>
      <trkpt lat="45.09472" lon="5.97141">
        <ele>2359.3999023438</ele>
        <time>2024-10-15T11:16:00.000Z</time>
      </trkpt>
      <trkpt lat="45.09472" lon="5.97141">
        <ele>2359.6000976562</ele>
        <time>2024-10-15T11:16:01.000Z</time>
      </trkpt>
      <trkpt lat="45.09472" lon="5.97141">
        <ele>2359.6000976562</ele>
        <time>2024-10-15T11:16:02.000Z</time>
      </trkpt>
      <trkpt lat="45.09472" lon="5.97141">
        <ele>2359.6000976562</ele>
        <time>2024-10-15T11:16:03.000Z</time>
      </trkpt>
      <trkpt lat="45.09472" lon="5.97141">
        <ele>2359.8000488281</ele>
        <time>2024-10-15T11:16:04.000Z</time>
      </trkpt>
      <trkpt lat="45.09472" lon="5.97141">
        <ele>2359.8000488281</ele>
        <time>2024-10-15T11:16:05.000Z</time>
      </trkpt>
      <trkpt lat="45.09472" lon="5.97141">
        <ele>2359.8000488281</ele>
        <time>2024-10-15T11:16:06.000Z</time>
      </trkpt>
      <trkpt lat="45.09472" lon="5.97142">
        <ele>2359.8000488281</ele>
        <time>2024-10-15T11:16:07.000Z</time>
      </trkpt>
      <trkpt lat="45.09472" lon="5.97142">
        <ele>2359.8000488281</ele>
        <time>2024-10-15T11:16:08.000Z</time>
      </trkpt>
      <trkpt lat="45.09472" lon="5.97142">
        <ele>2359.8000488281</ele>
        <time>2024-10-15T11:16:09.000Z</time>
      </trkpt>
      <trkpt lat="45.09472" lon="5.97141">
        <ele>2359.8000488281</ele>
        <time>2024-10-15T11:16:10.000Z</time>
      </trkpt>
      <trkpt lat="45.09472" lon="5.97141">
        <ele>2359.8000488281</ele>
        <time>2024-10-15T11:16:11.000Z</time>
      </trkpt>
      <trkpt lat="45.09472" lon="5.97141">
        <ele>2360</ele>
        <time>2024-10-15T11:16:12.000Z</time>
      </trkpt>
      <trkpt lat="45.09472" lon="5.97142">
        <ele>2360</ele>
        <time>2024-10-15T11:16:13.000Z</time>
      </trkpt>
      <trkpt lat="45.09472" lon="5.97142">
        <ele>2360</ele>
        <time>2024-10-15T11:16:14.000Z</time>
      </trkpt>
      <trkpt lat="45.09472" lon="5.97142">
        <ele>2360</ele>
        <time>2024-10-15T11:16:15.000Z</time>
      </trkpt>
      <trkpt lat="45.09472" lon="5.97142">
        <ele>2360</ele>
        <time>2024-10-15T11:16:16.000Z</time>
      </trkpt>
      <trkpt lat="45.09472" lon="5.97142">
        <ele>2360</ele>
        <time>2024-10-15T11:16:17.000Z</time>
      </trkpt>
      <trkpt lat="45.09472" lon="5.97142">
        <ele>2360</ele>
        <time>2024-10-15T11:16:18.000Z</time>
      </trkpt>
      <trkpt lat="45.09472" lon="5.97142">
        <ele>2360</ele>
        <time>2024-10-15T11:16:19.000Z</time>
      </trkpt>
      <trkpt lat="45.09472" lon="5.97142">
        <ele>2360.1999511719</ele>
        <time>2024-10-15T11:16:20.000Z</time>
      </trkpt>
      <trkpt lat="45.09472" lon="5.97142">
        <ele>2360.1999511719</ele>
        <time>2024-10-15T11:16:21.000Z</time>
      </trkpt>
      <trkpt lat="45.09472" lon="5.97142">
        <ele>2360.1999511719</ele>
        <time>2024-10-15T11:16:22.000Z</time>
      </trkpt>
      <trkpt lat="45.09472" lon="5.97142">
        <ele>2360.1999511719</ele>
        <time>2024-10-15T11:16:23.000Z</time>
      </trkpt>
      <trkpt lat="45.09472" lon="5.97142">
        <ele>2360.3999023438</ele>
        <time>2024-10-15T11:16:24.000Z</time>
      </trkpt>
      <trkpt lat="45.09472" lon="5.97142">
        <ele>2360.3999023438</ele>
        <time>2024-10-15T11:16:25.000Z</time>
      </trkpt>
      <trkpt lat="45.09472" lon="5.97142">
        <ele>2360.3999023438</ele>
        <time>2024-10-15T11:16:26.000Z</time>
      </trkpt>
      <trkpt lat="45.09472" lon="5.97142">
        <ele>2360.3999023438</ele>
        <time>2024-10-15T11:16:27.000Z</time>
      </trkpt>
      <trkpt lat="45.09472" lon="5.97142">
        <ele>2360.3999023438</ele>
        <time>2024-10-15T11:16:28.000Z</time>
      </trkpt>
      <trkpt lat="45.09472" lon="5.97142">
        <ele>2360.3999023438</ele>
        <time>2024-10-15T11:16:29.000Z</time>
      </trkpt>
      <trkpt lat="45.09472" lon="5.97142">
        <ele>2360.6000976562</ele>
        <time>2024-10-15T11:16:30.000Z</time>
      </trkpt>
      <trkpt lat="45.09472" lon="5.97142">
        <ele>2360.6000976562</ele>
        <time>2024-10-15T11:16:31.000Z</time>
      </trkpt>
      <trkpt lat="45.09472" lon="5.97142">
        <ele>2360.6000976562</ele>
        <time>2024-10-15T11:16:32.000Z</time>
      </trkpt>
      <trkpt lat="45.09472" lon="5.97142">
        <ele>2360.6000976562</ele>
        <time>2024-10-15T11:16:33.000Z</time>
      </trkpt>
      <trkpt lat="45.09472" lon="5.97142">
        <ele>2360.6000976562</ele>
        <time>2024-10-15T11:16:34.000Z</time>
      </trkpt>
      <trkpt lat="45.09472" lon="5.97142">
        <ele>2360.6000976562</ele>
        <time>2024-10-15T11:16:35.000Z</time>
      </trkpt>
      <trkpt lat="45.09472" lon="5.97142">
        <ele>2360.6000976562</ele>
        <time>2024-10-15T11:16:36.000Z</time>
      </trkpt>
      <trkpt lat="45.09472" lon="5.97142">
        <ele>2360.6000976562</ele>
        <time>2024-10-15T11:16:37.000Z</time>
      </trkpt>
      <trkpt lat="45.09472" lon="5.97142">
        <ele>2360.8000488281</ele>
        <time>2024-10-15T11:16:38.000Z</time>
      </trkpt>
      <trkpt lat="45.09472" lon="5.97142">
        <ele>2360.6000976562</ele>
        <time>2024-10-15T11:16:39.000Z</time>
      </trkpt>
      <trkpt lat="45.09472" lon="5.97142">
        <ele>2360.6000976562</ele>
        <time>2024-10-15T11:16:40.000Z</time>
      </trkpt>
      <trkpt lat="45.09472" lon="5.97142">
        <ele>2360.6000976562</ele>
        <time>2024-10-15T11:16:41.000Z</time>
      </trkpt>
      <trkpt lat="45.09472" lon="5.97142">
        <ele>2360.3999023438</ele>
        <time>2024-10-15T11:16:42.000Z</time>
      </trkpt>
      <trkpt lat="45.09472" lon="5.97142">
        <ele>2360.3999023438</ele>
        <time>2024-10-15T11:16:43.000Z</time>
      </trkpt>
      <trkpt lat="45.09472" lon="5.97142">
        <ele>2360.1999511719</ele>
        <time>2024-10-15T11:16:44.000Z</time>
      </trkpt>
      <trkpt lat="45.09472" lon="5.97142">
        <ele>2360.1999511719</ele>
        <time>2024-10-15T11:16:45.000Z</time>
      </trkpt>
      <trkpt lat="45.09472" lon="5.97142">
        <ele>2360.1999511719</ele>
        <time>2024-10-15T11:16:46.000Z</time>
      </trkpt>
      <trkpt lat="45.09472" lon="5.97142">
        <ele>2360.1999511719</ele>
        <time>2024-10-15T11:16:47.000Z</time>
      </trkpt>
      <trkpt lat="45.09472" lon="5.97142">
        <ele>2360</ele>
        <time>2024-10-15T11:16:48.000Z</time>
      </trkpt>
      <trkpt lat="45.09472" lon="5.97142">
        <ele>2360</ele>
        <time>2024-10-15T11:16:49.000Z</time>
      </trkpt>
      <trkpt lat="45.09472" lon="5.97142">
        <ele>2360</ele>
        <time>2024-10-15T11:16:50.000Z</time>
      </trkpt>
      <trkpt lat="45.09472" lon="5.97142">
        <ele>2360</ele>
        <time>2024-10-15T11:16:51.000Z</time>
      </trkpt>
      <trkpt lat="45.09472" lon="5.97142">
        <ele>2359.8000488281</ele>
        <time>2024-10-15T11:16:52.000Z</time>
      </trkpt>
      <trkpt lat="45.09472" lon="5.97142">
        <ele>2359.8000488281</ele>
        <time>2024-10-15T11:16:53.000Z</time>
      </trkpt>
      <trkpt lat="45.09472" lon="5.97142">
        <ele>2360</ele>
        <time>2024-10-15T11:16:54.000Z</time>
      </trkpt>
      <trkpt lat="45.09472" lon="5.97142">
        <ele>2360</ele>
        <time>2024-10-15T11:16:55.000Z</time>
      </trkpt>
      <trkpt lat="45.09472" lon="5.97142">
        <ele>2360</ele>
        <time>2024-10-15T11:16:56.000Z</time>
      </trkpt>
      <trkpt lat="45.09472" lon="5.97142">
        <ele>2360.1999511719</ele>
        <time>2024-10-15T11:16:57.000Z</time>
      </trkpt>
      <trkpt lat="45.09472" lon="5.97142">
        <ele>2360.1999511719</ele>
        <time>2024-10-15T11:16:58.000Z</time>
      </trkpt>
      <trkpt lat="45.09472" lon="5.97142">
        <ele>2360.3999023438</ele>
        <time>2024-10-15T11:16:59.000Z</time>
      </trkpt>
      <trkpt lat="45.09472" lon="5.97142">
        <ele>2360.3999023438</ele>
        <time>2024-10-15T11:17:00.000Z</time>
      </trkpt>
      <trkpt lat="45.09472" lon="5.97142">
        <ele>2360.3999023438</ele>
        <time>2024-10-15T11:17:01.000Z</time>
      </trkpt>
      <trkpt lat="45.09472" lon="5.97142">
        <ele>2360.3999023438</ele>
        <time>2024-10-15T11:17:02.000Z</time>
      </trkpt>
      <trkpt lat="45.09472" lon="5.97142">
        <ele>2360.3999023438</ele>
        <time>2024-10-15T11:17:03.000Z</time>
      </trkpt>
      <trkpt lat="45.09472" lon="5.97142">
        <ele>2360.3999023438</ele>
        <time>2024-10-15T11:17:04.000Z</time>
      </trkpt>
      <trkpt lat="45.09472" lon="5.97142">
        <ele>2360.3999023438</ele>
        <time>2024-10-15T11:17:05.000Z</time>
      </trkpt>
      <trkpt lat="45.09472" lon="5.97142">
        <ele>2360</ele>
        <time>2024-10-15T11:17:06.000Z</time>
      </trkpt>
      <trkpt lat="45.09472" lon="5.97142">
        <ele>2359.8000488281</ele>
        <time>2024-10-15T11:17:07.000Z</time>
      </trkpt>
      <trkpt lat="45.09472" lon="5.97142">
        <ele>2359.6000976562</ele>
        <time>2024-10-15T11:17:08.000Z</time>
      </trkpt>
      <trkpt lat="45.09472" lon="5.97142">
        <ele>2359.3999023438</ele>
        <time>2024-10-15T11:17:09.000Z</time>
      </trkpt>
      <trkpt lat="45.09471" lon="5.97142">
        <ele>2359.3999023438</ele>
        <time>2024-10-15T11:17:10.000Z</time>
      </trkpt>
      <trkpt lat="45.09471" lon="5.97142">
        <ele>2359.1999511719</ele>
        <time>2024-10-15T11:17:11.000Z</time>
      </trkpt>
      <trkpt lat="45.09471" lon="5.97142">
        <ele>2359.1999511719</ele>
        <time>2024-10-15T11:17:12.000Z</time>
      </trkpt>
      <trkpt lat="45.09471" lon="5.97142">
        <ele>2359</ele>
        <time>2024-10-15T11:17:13.000Z</time>
      </trkpt>
      <trkpt lat="45.09471" lon="5.97142">
        <ele>2358.8000488281</ele>
        <time>2024-10-15T11:17:14.000Z</time>
      </trkpt>
      <trkpt lat="45.09471" lon="5.97142">
        <ele>2358.8000488281</ele>
        <time>2024-10-15T11:17:15.000Z</time>
      </trkpt>
      <trkpt lat="45.09471" lon="5.97142">
        <ele>2358.8000488281</ele>
        <time>2024-10-15T11:17:16.000Z</time>
      </trkpt>
      <trkpt lat="45.09471" lon="5.97142">
        <ele>2358.8000488281</ele>
        <time>2024-10-15T11:17:17.000Z</time>
      </trkpt>
      <trkpt lat="45.09471" lon="5.97142">
        <ele>2358.8000488281</ele>
        <time>2024-10-15T11:17:18.000Z</time>
      </trkpt>
      <trkpt lat="45.09471" lon="5.97142">
        <ele>2358.8000488281</ele>
        <time>2024-10-15T11:17:19.000Z</time>
      </trkpt>
      <trkpt lat="45.09471" lon="5.97142">
        <ele>2358.6000976562</ele>
        <time>2024-10-15T11:17:20.000Z</time>
      </trkpt>
      <trkpt lat="45.09471" lon="5.97142">
        <ele>2358.3999023438</ele>
        <time>2024-10-15T11:17:21.000Z</time>
      </trkpt>
      <trkpt lat="45.09471" lon="5.97142">
        <ele>2358</ele>
        <time>2024-10-15T11:17:22.000Z</time>
      </trkpt>
      <trkpt lat="45.09471" lon="5.97142">
        <ele>2358</ele>
        <time>2024-10-15T11:17:23.000Z</time>
      </trkpt>
      <trkpt lat="45.09471" lon="5.97142">
        <ele>2357.8000488281</ele>
        <time>2024-10-15T11:17:24.000Z</time>
      </trkpt>
      <trkpt lat="45.09471" lon="5.97142">
        <ele>2357.3999023438</ele>
        <time>2024-10-15T11:17:25.000Z</time>
      </trkpt>
      <trkpt lat="45.09471" lon="5.97142">
        <ele>2357</ele>
        <time>2024-10-15T11:17:26.000Z</time>
      </trkpt>
      <trkpt lat="45.09471" lon="5.97142">
        <ele>2356.8000488281</ele>
        <time>2024-10-15T11:17:27.000Z</time>
      </trkpt>
      <trkpt lat="45.09471" lon="5.97142">
        <ele>2356.8000488281</ele>
        <time>2024-10-15T11:17:28.000Z</time>
      </trkpt>
      <trkpt lat="45.09471" lon="5.97142">
        <ele>2356.6000976562</ele>
        <time>2024-10-15T11:17:29.000Z</time>
      </trkpt>
      <trkpt lat="45.09471" lon="5.97142">
        <ele>2356.6000976562</ele>
        <time>2024-10-15T11:17:30.000Z</time>
      </trkpt>
      <trkpt lat="45.09471" lon="5.97142">
        <ele>2356.6000976562</ele>
        <time>2024-10-15T11:17:31.000Z</time>
      </trkpt>
      <trkpt lat="45.09471" lon="5.97142">
        <ele>2356.6000976562</ele>
        <time>2024-10-15T11:17:32.000Z</time>
      </trkpt>
      <trkpt lat="45.09471" lon="5.97142">
        <ele>2356.6000976562</ele>
        <time>2024-10-15T11:17:33.000Z</time>
      </trkpt>
      <trkpt lat="45.09471" lon="5.97142">
        <ele>2356.6000976562</ele>
        <time>2024-10-15T11:17:34.000Z</time>
      </trkpt>
      <trkpt lat="45.09471" lon="5.97142">
        <ele>2356.6000976562</ele>
        <time>2024-10-15T11:17:35.000Z</time>
      </trkpt>
      <trkpt lat="45.09471" lon="5.97142">
        <ele>2356.6000976562</ele>
        <time>2024-10-15T11:17:36.000Z</time>
      </trkpt>
      <trkpt lat="45.09471" lon="5.97142">
        <ele>2356.6000976562</ele>
        <time>2024-10-15T11:17:37.000Z</time>
      </trkpt>
      <trkpt lat="45.09471" lon="5.97142">
        <ele>2356.6000976562</ele>
        <time>2024-10-15T11:17:38.000Z</time>
      </trkpt>
      <trkpt lat="45.09471" lon="5.97142">
        <ele>2356.6000976562</ele>
        <time>2024-10-15T11:17:39.000Z</time>
      </trkpt>
      <trkpt lat="45.09471" lon="5.97142">
        <ele>2356.6000976562</ele>
        <time>2024-10-15T11:17:40.000Z</time>
      </trkpt>
      <trkpt lat="45.09471" lon="5.97142">
        <ele>2356.6000976562</ele>
        <time>2024-10-15T11:17:41.000Z</time>
      </trkpt>
      <trkpt lat="45.09471" lon="5.97142">
        <ele>2356.6000976562</ele>
        <time>2024-10-15T11:17:42.000Z</time>
      </trkpt>
      <trkpt lat="45.09471" lon="5.97142">
        <ele>2356.6000976562</ele>
        <time>2024-10-15T11:17:43.000Z</time>
      </trkpt>
      <trkpt lat="45.09471" lon="5.97142">
        <ele>2356.6000976562</ele>
        <time>2024-10-15T11:17:44.000Z</time>
      </trkpt>
      <trkpt lat="45.09471" lon="5.97142">
        <ele>2356.6000976562</ele>
        <time>2024-10-15T11:17:45.000Z</time>
      </trkpt>
      <trkpt lat="45.09471" lon="5.97142">
        <ele>2356.6000976562</ele>
        <time>2024-10-15T11:17:46.000Z</time>
      </trkpt>
      <trkpt lat="45.09471" lon="5.97142">
        <ele>2356.6000976562</ele>
        <time>2024-10-15T11:17:47.000Z</time>
      </trkpt>
      <trkpt lat="45.09471" lon="5.97142">
        <ele>2356.6000976562</ele>
        <time>2024-10-15T11:17:48.000Z</time>
      </trkpt>
      <trkpt lat="45.09471" lon="5.97142">
        <ele>2356.6000976562</ele>
        <time>2024-10-15T11:17:49.000Z</time>
      </trkpt>
      <trkpt lat="45.09471" lon="5.97142">
        <ele>2356.6000976562</ele>
        <time>2024-10-15T11:17:50.000Z</time>
      </trkpt>
      <trkpt lat="45.09471" lon="5.97142">
        <ele>2356.6000976562</ele>
        <time>2024-10-15T11:17:51.000Z</time>
      </trkpt>
      <trkpt lat="45.09471" lon="5.97142">
        <ele>2356.1999511719</ele>
        <time>2024-10-15T11:17:52.000Z</time>
      </trkpt>
      <trkpt lat="45.09471" lon="5.97142">
        <ele>2356.1999511719</ele>
        <time>2024-10-15T11:17:53.000Z</time>
      </trkpt>
      <trkpt lat="45.09471" lon="5.97142">
        <ele>2356</ele>
        <time>2024-10-15T11:17:54.000Z</time>
      </trkpt>
      <trkpt lat="45.09471" lon="5.97142">
        <ele>2356</ele>
        <time>2024-10-15T11:17:55.000Z</time>
      </trkpt>
      <trkpt lat="45.09471" lon="5.97142">
        <ele>2355.8000488281</ele>
        <time>2024-10-15T11:17:56.000Z</time>
      </trkpt>
      <trkpt lat="45.09471" lon="5.97142">
        <ele>2355.6000976562</ele>
        <time>2024-10-15T11:17:57.000Z</time>
      </trkpt>
      <trkpt lat="45.09471" lon="5.97142">
        <ele>2355.1999511719</ele>
        <time>2024-10-15T11:17:58.000Z</time>
      </trkpt>
      <trkpt lat="45.09471" lon="5.97142">
        <ele>2355</ele>
        <time>2024-10-15T11:17:59.000Z</time>
      </trkpt>
      <trkpt lat="45.09471" lon="5.97142">
        <ele>2354.8000488281</ele>
        <time>2024-10-15T11:18:00.000Z</time>
      </trkpt>
      <trkpt lat="45.09471" lon="5.97142">
        <ele>2354.8000488281</ele>
        <time>2024-10-15T11:18:01.000Z</time>
      </trkpt>
      <trkpt lat="45.09471" lon="5.97142">
        <ele>2354.8000488281</ele>
        <time>2024-10-15T11:18:02.000Z</time>
      </trkpt>
      <trkpt lat="45.09471" lon="5.97142">
        <ele>2354.8000488281</ele>
        <time>2024-10-15T11:18:03.000Z</time>
      </trkpt>
      <trkpt lat="45.09471" lon="5.97142">
        <ele>2354.6000976562</ele>
        <time>2024-10-15T11:18:04.000Z</time>
      </trkpt>
      <trkpt lat="45.0947" lon="5.97142">
        <ele>2354.6000976562</ele>
        <time>2024-10-15T11:18:05.000Z</time>
      </trkpt>
      <trkpt lat="45.0947" lon="5.97142">
        <ele>2354.3999023438</ele>
        <time>2024-10-15T11:18:06.000Z</time>
      </trkpt>
      <trkpt lat="45.0947" lon="5.97142">
        <ele>2354.3999023438</ele>
        <time>2024-10-15T11:18:07.000Z</time>
      </trkpt>
      <trkpt lat="45.0947" lon="5.97142">
        <ele>2354.3999023438</ele>
        <time>2024-10-15T11:18:08.000Z</time>
      </trkpt>
      <trkpt lat="45.0947" lon="5.97142">
        <ele>2354.1999511719</ele>
        <time>2024-10-15T11:18:09.000Z</time>
      </trkpt>
      <trkpt lat="45.0947" lon="5.97142">
        <ele>2353.8000488281</ele>
        <time>2024-10-15T11:18:10.000Z</time>
      </trkpt>
      <trkpt lat="45.0947" lon="5.97142">
        <ele>2353.6000976562</ele>
        <time>2024-10-15T11:18:11.000Z</time>
      </trkpt>
      <trkpt lat="45.0947" lon="5.97142">
        <ele>2353.1999511719</ele>
        <time>2024-10-15T11:18:12.000Z</time>
      </trkpt>
      <trkpt lat="45.0947" lon="5.97142">
        <ele>2353</ele>
        <time>2024-10-15T11:18:13.000Z</time>
      </trkpt>
      <trkpt lat="45.0947" lon="5.97142">
        <ele>2352.6000976562</ele>
        <time>2024-10-15T11:18:14.000Z</time>
      </trkpt>
      <trkpt lat="45.0947" lon="5.97142">
        <ele>2352</ele>
        <time>2024-10-15T11:18:15.000Z</time>
      </trkpt>
      <trkpt lat="45.0947" lon="5.97142">
        <ele>2352</ele>
        <time>2024-10-15T11:18:16.000Z</time>
      </trkpt>
      <trkpt lat="45.0947" lon="5.97142">
        <ele>2351.6000976562</ele>
        <time>2024-10-15T11:18:17.000Z</time>
      </trkpt>
      <trkpt lat="45.0947" lon="5.97142">
        <ele>2351.6000976562</ele>
        <time>2024-10-15T11:18:18.000Z</time>
      </trkpt>
      <trkpt lat="45.0947" lon="5.97142">
        <ele>2351.3999023438</ele>
        <time>2024-10-15T11:18:19.000Z</time>
      </trkpt>
      <trkpt lat="45.0947" lon="5.97142">
        <ele>2351</ele>
        <time>2024-10-15T11:18:20.000Z</time>
      </trkpt>
      <trkpt lat="45.0947" lon="5.97142">
        <ele>2351</ele>
        <time>2024-10-15T11:18:21.000Z</time>
      </trkpt>
      <trkpt lat="45.0947" lon="5.97142">
        <ele>2350.8000488281</ele>
        <time>2024-10-15T11:18:22.000Z</time>
      </trkpt>
      <trkpt lat="45.0947" lon="5.97142">
        <ele>2350.6000976562</ele>
        <time>2024-10-15T11:18:23.000Z</time>
      </trkpt>
      <trkpt lat="45.0947" lon="5.97142">
        <ele>2350.6000976562</ele>
        <time>2024-10-15T11:18:24.000Z</time>
      </trkpt>
      <trkpt lat="45.0947" lon="5.97142">
        <ele>2350.3999023438</ele>
        <time>2024-10-15T11:18:25.000Z</time>
      </trkpt>
      <trkpt lat="45.0947" lon="5.97142">
        <ele>2350.1999511719</ele>
        <time>2024-10-15T11:18:26.000Z</time>
      </trkpt>
      <trkpt lat="45.0947" lon="5.97142">
        <ele>2350.1999511719</ele>
        <time>2024-10-15T11:18:27.000Z</time>
      </trkpt>
      <trkpt lat="45.0947" lon="5.97142">
        <ele>2350</ele>
        <time>2024-10-15T11:18:28.000Z</time>
      </trkpt>
      <trkpt lat="45.0947" lon="5.97142">
        <ele>2350</ele>
        <time>2024-10-15T11:18:29.000Z</time>
      </trkpt>
      <trkpt lat="45.0947" lon="5.97142">
        <ele>2349.6000976562</ele>
        <time>2024-10-15T11:18:30.000Z</time>
      </trkpt>
      <trkpt lat="45.0947" lon="5.97142">
        <ele>2349.1999511719</ele>
        <time>2024-10-15T11:18:31.000Z</time>
      </trkpt>
      <trkpt lat="45.0947" lon="5.97142">
        <ele>2349</ele>
        <time>2024-10-15T11:18:32.000Z</time>
      </trkpt>
      <trkpt lat="45.0947" lon="5.97142">
        <ele>2348.8000488281</ele>
        <time>2024-10-15T11:18:33.000Z</time>
      </trkpt>
      <trkpt lat="45.0947" lon="5.97142">
        <ele>2348.8000488281</ele>
        <time>2024-10-15T11:18:34.000Z</time>
      </trkpt>
      <trkpt lat="45.0947" lon="5.97142">
        <ele>2348.3999023438</ele>
        <time>2024-10-15T11:18:35.000Z</time>
      </trkpt>
      <trkpt lat="45.0947" lon="5.97142">
        <ele>2348.3999023438</ele>
        <time>2024-10-15T11:18:36.000Z</time>
      </trkpt>
      <trkpt lat="45.0947" lon="5.97142">
        <ele>2348.1999511719</ele>
        <time>2024-10-15T11:18:37.000Z</time>
      </trkpt>
      <trkpt lat="45.0947" lon="5.97142">
        <ele>2347.6000976562</ele>
        <time>2024-10-15T11:18:38.000Z</time>
      </trkpt>
      <trkpt lat="45.0947" lon="5.97142">
        <ele>2347.6000976562</ele>
        <time>2024-10-15T11:18:39.000Z</time>
      </trkpt>
      <trkpt lat="45.0947" lon="5.97142">
        <ele>2347.6000976562</ele>
        <time>2024-10-15T11:18:40.000Z</time>
      </trkpt>
      <trkpt lat="45.0947" lon="5.97142">
        <ele>2347.6000976562</ele>
        <time>2024-10-15T11:18:41.000Z</time>
      </trkpt>
      <trkpt lat="45.09469" lon="5.97142">
        <ele>2347.6000976562</ele>
        <time>2024-10-15T11:18:42.000Z</time>
      </trkpt>
      <trkpt lat="45.09469" lon="5.97142">
        <ele>2347.3999023438</ele>
        <time>2024-10-15T11:18:43.000Z</time>
      </trkpt>
      <trkpt lat="45.09469" lon="5.97142">
        <ele>2347</ele>
        <time>2024-10-15T11:18:44.000Z</time>
      </trkpt>
      <trkpt lat="45.09469" lon="5.97142">
        <ele>2347</ele>
        <time>2024-10-15T11:18:45.000Z</time>
      </trkpt>
      <trkpt lat="45.09469" lon="5.97142">
        <ele>2347</ele>
        <time>2024-10-15T11:18:46.000Z</time>
      </trkpt>
      <trkpt lat="45.09469" lon="5.97142">
        <ele>2346.6000976562</ele>
        <time>2024-10-15T11:18:47.000Z</time>
      </trkpt>
      <trkpt lat="45.09469" lon="5.97142">
        <ele>2346</ele>
        <time>2024-10-15T11:18:48.000Z</time>
      </trkpt>
      <trkpt lat="45.09469" lon="5.97142">
        <ele>2345.3999023438</ele>
        <time>2024-10-15T11:18:49.000Z</time>
      </trkpt>
      <trkpt lat="45.09469" lon="5.97142">
        <ele>2345.1999511719</ele>
        <time>2024-10-15T11:18:50.000Z</time>
      </trkpt>
      <trkpt lat="45.09469" lon="5.97142">
        <ele>2345</ele>
        <time>2024-10-15T11:18:51.000Z</time>
      </trkpt>
      <trkpt lat="45.09469" lon="5.97142">
        <ele>2345</ele>
        <time>2024-10-15T11:18:52.000Z</time>
      </trkpt>
      <trkpt lat="45.09469" lon="5.97142">
        <ele>2344.8000488281</ele>
        <time>2024-10-15T11:18:53.000Z</time>
      </trkpt>
      <trkpt lat="45.09469" lon="5.97142">
        <ele>2344.8000488281</ele>
        <time>2024-10-15T11:18:54.000Z</time>
      </trkpt>
      <trkpt lat="45.09469" lon="5.97142">
        <ele>2345</ele>
        <time>2024-10-15T11:18:55.000Z</time>
      </trkpt>
      <trkpt lat="45.09469" lon="5.97142">
        <ele>2345</ele>
        <time>2024-10-15T11:18:56.000Z</time>
      </trkpt>
      <trkpt lat="45.09469" lon="5.97143">
        <ele>2345</ele>
        <time>2024-10-15T11:18:57.000Z</time>
      </trkpt>
      <trkpt lat="45.09469" lon="5.97143">
        <ele>2345</ele>
        <time>2024-10-15T11:18:58.000Z</time>
      </trkpt>
      <trkpt lat="45.09469" lon="5.97143">
        <ele>2345</ele>
        <time>2024-10-15T11:18:59.000Z</time>
      </trkpt>
      <trkpt lat="45.09469" lon="5.97143">
        <ele>2345</ele>
        <time>2024-10-15T11:19:00.000Z</time>
      </trkpt>
      <trkpt lat="45.09469" lon="5.97143">
        <ele>2345</ele>
        <time>2024-10-15T11:19:01.000Z</time>
      </trkpt>
      <trkpt lat="45.09469" lon="5.97143">
        <ele>2345.1999511719</ele>
        <time>2024-10-15T11:19:02.000Z</time>
      </trkpt>
      <trkpt lat="45.09469" lon="5.97143">
        <ele>2345.1999511719</ele>
        <time>2024-10-15T11:19:03.000Z</time>
      </trkpt>
      <trkpt lat="45.09468" lon="5.97143">
        <ele>2345.1999511719</ele>
        <time>2024-10-15T11:19:04.000Z</time>
      </trkpt>
      <trkpt lat="45.09468" lon="5.97143">
        <ele>2345.3999023438</ele>
        <time>2024-10-15T11:19:05.000Z</time>
      </trkpt>
      <trkpt lat="45.09468" lon="5.97143">
        <ele>2345.3999023438</ele>
        <time>2024-10-15T11:19:06.000Z</time>
      </trkpt>
      <trkpt lat="45.09468" lon="5.97143">
        <ele>2345.3999023438</ele>
        <time>2024-10-15T11:19:07.000Z</time>
      </trkpt>
      <trkpt lat="45.09468" lon="5.97143">
        <ele>2345.3999023438</ele>
        <time>2024-10-15T11:19:08.000Z</time>
      </trkpt>
      <trkpt lat="45.09468" lon="5.97143">
        <ele>2345.3999023438</ele>
        <time>2024-10-15T11:19:09.000Z</time>
      </trkpt>
      <trkpt lat="45.09468" lon="5.97143">
        <ele>2345.3999023438</ele>
        <time>2024-10-15T11:19:10.000Z</time>
      </trkpt>
      <trkpt lat="45.09468" lon="5.97143">
        <ele>2345.3999023438</ele>
        <time>2024-10-15T11:19:11.000Z</time>
      </trkpt>
      <trkpt lat="45.09468" lon="5.97143">
        <ele>2345.3999023438</ele>
        <time>2024-10-15T11:19:12.000Z</time>
      </trkpt>
      <trkpt lat="45.09468" lon="5.97143">
        <ele>2345.6000976562</ele>
        <time>2024-10-15T11:19:13.000Z</time>
      </trkpt>
      <trkpt lat="45.09468" lon="5.97143">
        <ele>2345.6000976562</ele>
        <time>2024-10-15T11:19:14.000Z</time>
      </trkpt>
      <trkpt lat="45.09468" lon="5.97143">
        <ele>2345.6000976562</ele>
        <time>2024-10-15T11:19:15.000Z</time>
      </trkpt>
      <trkpt lat="45.09468" lon="5.97143">
        <ele>2345.3999023438</ele>
        <time>2024-10-15T11:19:16.000Z</time>
      </trkpt>
      <trkpt lat="45.09468" lon="5.97143">
        <ele>2345.1999511719</ele>
        <time>2024-10-15T11:19:17.000Z</time>
      </trkpt>
      <trkpt lat="45.09468" lon="5.97143">
        <ele>2345</ele>
        <time>2024-10-15T11:19:18.000Z</time>
      </trkpt>
      <trkpt lat="45.09468" lon="5.97143">
        <ele>2344.6000976562</ele>
        <time>2024-10-15T11:19:19.000Z</time>
      </trkpt>
      <trkpt lat="45.09468" lon="5.97143">
        <ele>2344.3999023438</ele>
        <time>2024-10-15T11:19:20.000Z</time>
      </trkpt>
      <trkpt lat="45.09468" lon="5.97143">
        <ele>2344.1999511719</ele>
        <time>2024-10-15T11:19:21.000Z</time>
      </trkpt>
      <trkpt lat="45.09468" lon="5.97143">
        <ele>2344</ele>
        <time>2024-10-15T11:19:22.000Z</time>
      </trkpt>
      <trkpt lat="45.09468" lon="5.97143">
        <ele>2343.6000976562</ele>
        <time>2024-10-15T11:19:23.000Z</time>
      </trkpt>
      <trkpt lat="45.09468" lon="5.97143">
        <ele>2343.6000976562</ele>
        <time>2024-10-15T11:19:24.000Z</time>
      </trkpt>
      <trkpt lat="45.09468" lon="5.97143">
        <ele>2343.3999023438</ele>
        <time>2024-10-15T11:19:25.000Z</time>
      </trkpt>
      <trkpt lat="45.09468" lon="5.97143">
        <ele>2343.3999023438</ele>
        <time>2024-10-15T11:19:26.000Z</time>
      </trkpt>
      <trkpt lat="45.09468" lon="5.97143">
        <ele>2343.3999023438</ele>
        <time>2024-10-15T11:19:27.000Z</time>
      </trkpt>
      <trkpt lat="45.09467" lon="5.97143">
        <ele>2343.1999511719</ele>
        <time>2024-10-15T11:19:28.000Z</time>
      </trkpt>
      <trkpt lat="45.09467" lon="5.97143">
        <ele>2343</ele>
        <time>2024-10-15T11:19:29.000Z</time>
      </trkpt>
      <trkpt lat="45.09467" lon="5.97143">
        <ele>2342.6000976562</ele>
        <time>2024-10-15T11:19:30.000Z</time>
      </trkpt>
      <trkpt lat="45.09467" lon="5.97143">
        <ele>2342.1999511719</ele>
        <time>2024-10-15T11:19:31.000Z</time>
      </trkpt>
      <trkpt lat="45.09467" lon="5.97143">
        <ele>2342</ele>
        <time>2024-10-15T11:19:32.000Z</time>
      </trkpt>
      <trkpt lat="45.09467" lon="5.97143">
        <ele>2341.8000488281</ele>
        <time>2024-10-15T11:19:33.000Z</time>
      </trkpt>
      <trkpt lat="45.09462" lon="5.97145">
        <ele>2341.6000976562</ele>
        <time>2024-10-15T11:19:34.000Z</time>
      </trkpt>
      <trkpt lat="45.09457" lon="5.97148">
        <ele>2341.3999023438</ele>
        <time>2024-10-15T11:19:35.000Z</time>
      </trkpt>
      <trkpt lat="45.09452" lon="5.9715">
        <ele>2341.3999023438</ele>
        <time>2024-10-15T11:19:36.000Z</time>
      </trkpt>
      <trkpt lat="45.09446" lon="5.97152">
        <ele>2341.3999023438</ele>
        <time>2024-10-15T11:19:37.000Z</time>
      </trkpt>
      <trkpt lat="45.0944" lon="5.97155">
        <ele>2341.3999023438</ele>
        <time>2024-10-15T11:19:38.000Z</time>
      </trkpt>
      <trkpt lat="45.09434" lon="5.97157">
        <ele>2341.1999511719</ele>
        <time>2024-10-15T11:19:39.000Z</time>
      </trkpt>
      <trkpt lat="45.09428" lon="5.9716">
        <ele>2341.1999511719</ele>
        <time>2024-10-15T11:19:40.000Z</time>
      </trkpt>
      <trkpt lat="45.09423" lon="5.97162">
        <ele>2341</ele>
        <time>2024-10-15T11:19:41.000Z</time>
      </trkpt>
      <trkpt lat="45.09418" lon="5.97164">
        <ele>2340.8000488281</ele>
        <time>2024-10-15T11:19:42.000Z</time>
      </trkpt>
      <trkpt lat="45.09413" lon="5.97166">
        <ele>2340.8000488281</ele>
        <time>2024-10-15T11:19:43.000Z</time>
      </trkpt>
      <trkpt lat="45.09412" lon="5.97166">
        <ele>2340.6000976562</ele>
        <time>2024-10-15T11:19:44.000Z</time>
      </trkpt>
      <trkpt lat="45.09412" lon="5.97166">
        <ele>2340.1999511719</ele>
        <time>2024-10-15T11:19:45.000Z</time>
      </trkpt>
      <trkpt lat="45.09411" lon="5.97166">
        <ele>2340</ele>
        <time>2024-10-15T11:19:46.000Z</time>
      </trkpt>
      <trkpt lat="45.0941" lon="5.97166">
        <ele>2340</ele>
        <time>2024-10-15T11:19:47.000Z</time>
      </trkpt>
      <trkpt lat="45.0941" lon="5.97166">
        <ele>2340</ele>
        <time>2024-10-15T11:19:48.000Z</time>
      </trkpt>
      <trkpt lat="45.0941" lon="5.97166">
        <ele>2340</ele>
        <time>2024-10-15T11:19:49.000Z</time>
      </trkpt>
      <trkpt lat="45.0941" lon="5.97165">
        <ele>2340</ele>
        <time>2024-10-15T11:19:50.000Z</time>
      </trkpt>
      <trkpt lat="45.09409" lon="5.97165">
        <ele>2340</ele>
        <time>2024-10-15T11:19:51.000Z</time>
      </trkpt>
      <trkpt lat="45.09409" lon="5.97166">
        <ele>2340.1999511719</ele>
        <time>2024-10-15T11:19:52.000Z</time>
      </trkpt>
      <trkpt lat="45.09408" lon="5.97166">
        <ele>2340</ele>
        <time>2024-10-15T11:19:53.000Z</time>
      </trkpt>
      <trkpt lat="45.09407" lon="5.97167">
        <ele>2340</ele>
        <time>2024-10-15T11:19:54.000Z</time>
      </trkpt>
      <trkpt lat="45.09407" lon="5.97166">
        <ele>2340</ele>
        <time>2024-10-15T11:19:55.000Z</time>
      </trkpt>
      <trkpt lat="45.09406" lon="5.97166">
        <ele>2340</ele>
        <time>2024-10-15T11:19:56.000Z</time>
      </trkpt>
      <trkpt lat="45.09405" lon="5.97166">
        <ele>2339.8000488281</ele>
        <time>2024-10-15T11:19:57.000Z</time>
      </trkpt>
      <trkpt lat="45.09405" lon="5.97166">
        <ele>2339.6000976562</ele>
        <time>2024-10-15T11:19:58.000Z</time>
      </trkpt>
      <trkpt lat="45.09404" lon="5.97166">
        <ele>2339.3999023438</ele>
        <time>2024-10-15T11:19:59.000Z</time>
      </trkpt>
      <trkpt lat="45.09404" lon="5.97166">
        <ele>2339.3999023438</ele>
        <time>2024-10-15T11:20:00.000Z</time>
      </trkpt>
      <trkpt lat="45.09404" lon="5.97166">
        <ele>2339.3999023438</ele>
        <time>2024-10-15T11:20:01.000Z</time>
      </trkpt>
      <trkpt lat="45.09404" lon="5.97166">
        <ele>2339.3999023438</ele>
        <time>2024-10-15T11:20:02.000Z</time>
      </trkpt>
      <trkpt lat="45.09404" lon="5.97166">
        <ele>2339.3999023438</ele>
        <time>2024-10-15T11:20:03.000Z</time>
      </trkpt>
      <trkpt lat="45.09404" lon="5.97166">
        <ele>2339.3999023438</ele>
        <time>2024-10-15T11:20:04.000Z</time>
      </trkpt>
      <trkpt lat="45.09404" lon="5.97166">
        <ele>2339.3999023438</ele>
        <time>2024-10-15T11:20:05.000Z</time>
      </trkpt>
      <trkpt lat="45.09404" lon="5.97166">
        <ele>2339.3999023438</ele>
        <time>2024-10-15T11:20:06.000Z</time>
      </trkpt>
      <trkpt lat="45.09404" lon="5.97166">
        <ele>2339.3999023438</ele>
        <time>2024-10-15T11:20:07.000Z</time>
      </trkpt>
      <trkpt lat="45.09404" lon="5.97165">
        <ele>2339.1999511719</ele>
        <time>2024-10-15T11:20:08.000Z</time>
      </trkpt>
      <trkpt lat="45.09404" lon="5.97165">
        <ele>2339</ele>
        <time>2024-10-15T11:20:09.000Z</time>
      </trkpt>
      <trkpt lat="45.09404" lon="5.97165">
        <ele>2339</ele>
        <time>2024-10-15T11:20:10.000Z</time>
      </trkpt>
      <trkpt lat="45.09404" lon="5.97165">
        <ele>2339</ele>
        <time>2024-10-15T11:20:11.000Z</time>
      </trkpt>
      <trkpt lat="45.09404" lon="5.97165">
        <ele>2339</ele>
        <time>2024-10-15T11:20:12.000Z</time>
      </trkpt>
      <trkpt lat="45.09404" lon="5.97165">
        <ele>2339</ele>
        <time>2024-10-15T11:20:13.000Z</time>
      </trkpt>
      <trkpt lat="45.09404" lon="5.97165">
        <ele>2338.8000488281</ele>
        <time>2024-10-15T11:20:14.000Z</time>
      </trkpt>
      <trkpt lat="45.09404" lon="5.97165">
        <ele>2338.8000488281</ele>
        <time>2024-10-15T11:20:15.000Z</time>
      </trkpt>
      <trkpt lat="45.09404" lon="5.97165">
        <ele>2338.8000488281</ele>
        <time>2024-10-15T11:20:16.000Z</time>
      </trkpt>
      <trkpt lat="45.09404" lon="5.97165">
        <ele>2338.8000488281</ele>
        <time>2024-10-15T11:20:17.000Z</time>
      </trkpt>
      <trkpt lat="45.09404" lon="5.97165">
        <ele>2338.8000488281</ele>
        <time>2024-10-15T11:20:18.000Z</time>
      </trkpt>
      <trkpt lat="45.09404" lon="5.97165">
        <ele>2338.8000488281</ele>
        <time>2024-10-15T11:20:19.000Z</time>
      </trkpt>
      <trkpt lat="45.09404" lon="5.97165">
        <ele>2338.6000976562</ele>
        <time>2024-10-15T11:20:20.000Z</time>
      </trkpt>
      <trkpt lat="45.09404" lon="5.97165">
        <ele>2338.3999023438</ele>
        <time>2024-10-15T11:20:21.000Z</time>
      </trkpt>
      <trkpt lat="45.09404" lon="5.97165">
        <ele>2338.3999023438</ele>
        <time>2024-10-15T11:20:22.000Z</time>
      </trkpt>
      <trkpt lat="45.09404" lon="5.97165">
        <ele>2338.3999023438</ele>
        <time>2024-10-15T11:20:23.000Z</time>
      </trkpt>
      <trkpt lat="45.09404" lon="5.97165">
        <ele>2338.1999511719</ele>
        <time>2024-10-15T11:20:24.000Z</time>
      </trkpt>
      <trkpt lat="45.09404" lon="5.97165">
        <ele>2338.1999511719</ele>
        <time>2024-10-15T11:20:25.000Z</time>
      </trkpt>
      <trkpt lat="45.09404" lon="5.97165">
        <ele>2338</ele>
        <time>2024-10-15T11:20:26.000Z</time>
      </trkpt>
      <trkpt lat="45.09404" lon="5.97165">
        <ele>2338</ele>
        <time>2024-10-15T11:20:27.000Z</time>
      </trkpt>
      <trkpt lat="45.09404" lon="5.97165">
        <ele>2338</ele>
        <time>2024-10-15T11:20:28.000Z</time>
      </trkpt>
      <trkpt lat="45.09404" lon="5.97165">
        <ele>2337.8000488281</ele>
        <time>2024-10-15T11:20:29.000Z</time>
      </trkpt>
      <trkpt lat="45.09404" lon="5.97165">
        <ele>2337.8000488281</ele>
        <time>2024-10-15T11:20:30.000Z</time>
      </trkpt>
      <trkpt lat="45.09404" lon="5.97165">
        <ele>2337.8000488281</ele>
        <time>2024-10-15T11:20:31.000Z</time>
      </trkpt>
      <trkpt lat="45.09404" lon="5.97165">
        <ele>2337.8000488281</ele>
        <time>2024-10-15T11:20:32.000Z</time>
      </trkpt>
      <trkpt lat="45.09403" lon="5.97165">
        <ele>2337.8000488281</ele>
        <time>2024-10-15T11:20:33.000Z</time>
      </trkpt>
      <trkpt lat="45.09403" lon="5.97165">
        <ele>2337.8000488281</ele>
        <time>2024-10-15T11:20:34.000Z</time>
      </trkpt>
      <trkpt lat="45.09403" lon="5.97164">
        <ele>2338</ele>
        <time>2024-10-15T11:20:35.000Z</time>
      </trkpt>
      <trkpt lat="45.09403" lon="5.97164">
        <ele>2338</ele>
        <time>2024-10-15T11:20:36.000Z</time>
      </trkpt>
      <trkpt lat="45.09403" lon="5.97164">
        <ele>2338</ele>
        <time>2024-10-15T11:20:37.000Z</time>
      </trkpt>
      <trkpt lat="45.09403" lon="5.97164">
        <ele>2338</ele>
        <time>2024-10-15T11:20:38.000Z</time>
      </trkpt>
      <trkpt lat="45.09402" lon="5.97164">
        <ele>2338</ele>
        <time>2024-10-15T11:20:39.000Z</time>
      </trkpt>
      <trkpt lat="45.09402" lon="5.97164">
        <ele>2338</ele>
        <time>2024-10-15T11:20:40.000Z</time>
      </trkpt>
      <trkpt lat="45.09402" lon="5.97164">
        <ele>2338</ele>
        <time>2024-10-15T11:20:41.000Z</time>
      </trkpt>
      <trkpt lat="45.09402" lon="5.97164">
        <ele>2338</ele>
        <time>2024-10-15T11:20:42.000Z</time>
      </trkpt>
      <trkpt lat="45.09401" lon="5.97164">
        <ele>2338</ele>
        <time>2024-10-15T11:20:43.000Z</time>
      </trkpt>
      <trkpt lat="45.09401" lon="5.97164">
        <ele>2338</ele>
        <time>2024-10-15T11:20:44.000Z</time>
      </trkpt>
      <trkpt lat="45.09401" lon="5.97164">
        <ele>2338</ele>
        <time>2024-10-15T11:20:45.000Z</time>
      </trkpt>
      <trkpt lat="45.09401" lon="5.97163">
        <ele>2338</ele>
        <time>2024-10-15T11:20:46.000Z</time>
      </trkpt>
      <trkpt lat="45.09401" lon="5.97163">
        <ele>2338</ele>
        <time>2024-10-15T11:20:47.000Z</time>
      </trkpt>
      <trkpt lat="45.09401" lon="5.97163">
        <ele>2338</ele>
        <time>2024-10-15T11:20:48.000Z</time>
      </trkpt>
      <trkpt lat="45.09401" lon="5.97163">
        <ele>2338</ele>
        <time>2024-10-15T11:20:49.000Z</time>
      </trkpt>
      <trkpt lat="45.09401" lon="5.97163">
        <ele>2338</ele>
        <time>2024-10-15T11:20:50.000Z</time>
      </trkpt>
      <trkpt lat="45.09401" lon="5.97163">
        <ele>2338</ele>
        <time>2024-10-15T11:20:51.000Z</time>
      </trkpt>
      <trkpt lat="45.09401" lon="5.97163">
        <ele>2337.8000488281</ele>
        <time>2024-10-15T11:20:52.000Z</time>
      </trkpt>
      <trkpt lat="45.09401" lon="5.97163">
        <ele>2337.8000488281</ele>
        <time>2024-10-15T11:20:53.000Z</time>
      </trkpt>
      <trkpt lat="45.09401" lon="5.97162">
        <ele>2337.8000488281</ele>
        <time>2024-10-15T11:20:54.000Z</time>
      </trkpt>
      <trkpt lat="45.09401" lon="5.97162">
        <ele>2337.8000488281</ele>
        <time>2024-10-15T11:20:55.000Z</time>
      </trkpt>
      <trkpt lat="45.09401" lon="5.97162">
        <ele>2337.8000488281</ele>
        <time>2024-10-15T11:20:56.000Z</time>
      </trkpt>
      <trkpt lat="45.09401" lon="5.97162">
        <ele>2337.8000488281</ele>
        <time>2024-10-15T11:20:57.000Z</time>
      </trkpt>
      <trkpt lat="45.09401" lon="5.97162">
        <ele>2337.8000488281</ele>
        <time>2024-10-15T11:20:58.000Z</time>
      </trkpt>
      <trkpt lat="45.09401" lon="5.97162">
        <ele>2337.8000488281</ele>
        <time>2024-10-15T11:20:59.000Z</time>
      </trkpt>
      <trkpt lat="45.09401" lon="5.97162">
        <ele>2337.8000488281</ele>
        <time>2024-10-15T11:21:00.000Z</time>
      </trkpt>
      <trkpt lat="45.09401" lon="5.97162">
        <ele>2338</ele>
        <time>2024-10-15T11:21:01.000Z</time>
      </trkpt>
      <trkpt lat="45.09401" lon="5.97162">
        <ele>2338</ele>
        <time>2024-10-15T11:21:02.000Z</time>
      </trkpt>
      <trkpt lat="45.09401" lon="5.97161">
        <ele>2338</ele>
        <time>2024-10-15T11:21:03.000Z</time>
      </trkpt>
      <trkpt lat="45.09401" lon="5.97161">
        <ele>2338</ele>
        <time>2024-10-15T11:21:04.000Z</time>
      </trkpt>
      <trkpt lat="45.09401" lon="5.9716">
        <ele>2338</ele>
        <time>2024-10-15T11:21:05.000Z</time>
      </trkpt>
      <trkpt lat="45.09401" lon="5.9716">
        <ele>2338.1999511719</ele>
        <time>2024-10-15T11:21:06.000Z</time>
      </trkpt>
      <trkpt lat="45.09401" lon="5.9716">
        <ele>2338.1999511719</ele>
        <time>2024-10-15T11:21:07.000Z</time>
      </trkpt>
      <trkpt lat="45.09401" lon="5.9716">
        <ele>2338.1999511719</ele>
        <time>2024-10-15T11:21:08.000Z</time>
      </trkpt>
      <trkpt lat="45.09401" lon="5.9716">
        <ele>2338.1999511719</ele>
        <time>2024-10-15T11:21:09.000Z</time>
      </trkpt>
      <trkpt lat="45.09401" lon="5.9716">
        <ele>2338.1999511719</ele>
        <time>2024-10-15T11:21:10.000Z</time>
      </trkpt>
      <trkpt lat="45.09401" lon="5.97159">
        <ele>2338.1999511719</ele>
        <time>2024-10-15T11:21:11.000Z</time>
      </trkpt>
      <trkpt lat="45.09401" lon="5.97159">
        <ele>2338.1999511719</ele>
        <time>2024-10-15T11:21:12.000Z</time>
      </trkpt>
      <trkpt lat="45.09401" lon="5.97159">
        <ele>2338</ele>
        <time>2024-10-15T11:21:13.000Z</time>
      </trkpt>
      <trkpt lat="45.09401" lon="5.97159">
        <ele>2338</ele>
        <time>2024-10-15T11:21:14.000Z</time>
      </trkpt>
      <trkpt lat="45.09401" lon="5.97159">
        <ele>2338</ele>
        <time>2024-10-15T11:21:15.000Z</time>
      </trkpt>
      <trkpt lat="45.09401" lon="5.97159">
        <ele>2338</ele>
        <time>2024-10-15T11:21:16.000Z</time>
      </trkpt>
      <trkpt lat="45.09401" lon="5.97159">
        <ele>2337.8000488281</ele>
        <time>2024-10-15T11:21:17.000Z</time>
      </trkpt>
      <trkpt lat="45.09401" lon="5.97159">
        <ele>2337.8000488281</ele>
        <time>2024-10-15T11:21:18.000Z</time>
      </trkpt>
      <trkpt lat="45.09401" lon="5.97158">
        <ele>2338</ele>
        <time>2024-10-15T11:21:19.000Z</time>
      </trkpt>
      <trkpt lat="45.09401" lon="5.97158">
        <ele>2338</ele>
        <time>2024-10-15T11:21:20.000Z</time>
      </trkpt>
      <trkpt lat="45.09401" lon="5.97158">
        <ele>2338</ele>
        <time>2024-10-15T11:21:21.000Z</time>
      </trkpt>
      <trkpt lat="45.09401" lon="5.97158">
        <ele>2338</ele>
        <time>2024-10-15T11:21:22.000Z</time>
      </trkpt>
      <trkpt lat="45.09401" lon="5.97158">
        <ele>2338.1999511719</ele>
        <time>2024-10-15T11:21:23.000Z</time>
      </trkpt>
      <trkpt lat="45.09401" lon="5.97158">
        <ele>2338.1999511719</ele>
        <time>2024-10-15T11:21:24.000Z</time>
      </trkpt>
      <trkpt lat="45.09401" lon="5.97157">
        <ele>2338.1999511719</ele>
        <time>2024-10-15T11:21:25.000Z</time>
      </trkpt>
      <trkpt lat="45.09401" lon="5.97157">
        <ele>2338.1999511719</ele>
        <time>2024-10-15T11:21:26.000Z</time>
      </trkpt>
      <trkpt lat="45.09401" lon="5.97157">
        <ele>2338.1999511719</ele>
        <time>2024-10-15T11:21:27.000Z</time>
      </trkpt>
      <trkpt lat="45.09401" lon="5.97157">
        <ele>2338.1999511719</ele>
        <time>2024-10-15T11:21:28.000Z</time>
      </trkpt>
      <trkpt lat="45.09401" lon="5.97157">
        <ele>2338</ele>
        <time>2024-10-15T11:21:29.000Z</time>
      </trkpt>
      <trkpt lat="45.09401" lon="5.97157">
        <ele>2338</ele>
        <time>2024-10-15T11:21:30.000Z</time>
      </trkpt>
      <trkpt lat="45.09401" lon="5.97157">
        <ele>2338</ele>
        <time>2024-10-15T11:21:31.000Z</time>
      </trkpt>
      <trkpt lat="45.09401" lon="5.97157">
        <ele>2338</ele>
        <time>2024-10-15T11:21:32.000Z</time>
      </trkpt>
      <trkpt lat="45.09401" lon="5.97157">
        <ele>2338</ele>
        <time>2024-10-15T11:21:33.000Z</time>
      </trkpt>
      <trkpt lat="45.09401" lon="5.97157">
        <ele>2337.8000488281</ele>
        <time>2024-10-15T11:21:34.000Z</time>
      </trkpt>
      <trkpt lat="45.09401" lon="5.97156">
        <ele>2337.8000488281</ele>
        <time>2024-10-15T11:21:35.000Z</time>
      </trkpt>
      <trkpt lat="45.09402" lon="5.97156">
        <ele>2337.8000488281</ele>
        <time>2024-10-15T11:21:36.000Z</time>
      </trkpt>
      <trkpt lat="45.09402" lon="5.97156">
        <ele>2337.6000976562</ele>
        <time>2024-10-15T11:21:37.000Z</time>
      </trkpt>
      <trkpt lat="45.09402" lon="5.97156">
        <ele>2337.3999023438</ele>
        <time>2024-10-15T11:21:38.000Z</time>
      </trkpt>
      <trkpt lat="45.09402" lon="5.97156">
        <ele>2337.3999023438</ele>
        <time>2024-10-15T11:21:39.000Z</time>
      </trkpt>
      <trkpt lat="45.09402" lon="5.97156">
        <ele>2337.6000976562</ele>
        <time>2024-10-15T11:21:40.000Z</time>
      </trkpt>
      <trkpt lat="45.09402" lon="5.97156">
        <ele>2337.6000976562</ele>
        <time>2024-10-15T11:21:41.000Z</time>
      </trkpt>
      <trkpt lat="45.09402" lon="5.97156">
        <ele>2337.6000976562</ele>
        <time>2024-10-15T11:21:42.000Z</time>
      </trkpt>
      <trkpt lat="45.09402" lon="5.97156">
        <ele>2337.6000976562</ele>
        <time>2024-10-15T11:21:43.000Z</time>
      </trkpt>
      <trkpt lat="45.09402" lon="5.97155">
        <ele>2337.8000488281</ele>
        <time>2024-10-15T11:21:44.000Z</time>
      </trkpt>
      <trkpt lat="45.09402" lon="5.97155">
        <ele>2337.8000488281</ele>
        <time>2024-10-15T11:21:45.000Z</time>
      </trkpt>
      <trkpt lat="45.09402" lon="5.97155">
        <ele>2338</ele>
        <time>2024-10-15T11:21:46.000Z</time>
      </trkpt>
      <trkpt lat="45.09402" lon="5.97155">
        <ele>2338</ele>
        <time>2024-10-15T11:21:47.000Z</time>
      </trkpt>
      <trkpt lat="45.09402" lon="5.97155">
        <ele>2338</ele>
        <time>2024-10-15T11:21:48.000Z</time>
      </trkpt>
      <trkpt lat="45.09402" lon="5.97155">
        <ele>2338.1999511719</ele>
        <time>2024-10-15T11:21:49.000Z</time>
      </trkpt>
      <trkpt lat="45.09402" lon="5.97155">
        <ele>2338.3999023438</ele>
        <time>2024-10-15T11:21:50.000Z</time>
      </trkpt>
      <trkpt lat="45.09402" lon="5.97155">
        <ele>2338.3999023438</ele>
        <time>2024-10-15T11:21:51.000Z</time>
      </trkpt>
      <trkpt lat="45.09402" lon="5.97155">
        <ele>2338.3999023438</ele>
        <time>2024-10-15T11:21:52.000Z</time>
      </trkpt>
      <trkpt lat="45.09402" lon="5.97155">
        <ele>2338.3999023438</ele>
        <time>2024-10-15T11:21:53.000Z</time>
      </trkpt>
      <trkpt lat="45.09402" lon="5.97155">
        <ele>2338.3999023438</ele>
        <time>2024-10-15T11:21:54.000Z</time>
      </trkpt>
      <trkpt lat="45.09402" lon="5.97155">
        <ele>2338.3999023438</ele>
        <time>2024-10-15T11:21:55.000Z</time>
      </trkpt>
      <trkpt lat="45.09402" lon="5.97155">
        <ele>2338.3999023438</ele>
        <time>2024-10-15T11:21:56.000Z</time>
      </trkpt>
      <trkpt lat="45.09403" lon="5.97155">
        <ele>2338.1999511719</ele>
        <time>2024-10-15T11:21:57.000Z</time>
      </trkpt>
      <trkpt lat="45.09403" lon="5.97155">
        <ele>2338.1999511719</ele>
        <time>2024-10-15T11:21:58.000Z</time>
      </trkpt>
      <trkpt lat="45.09403" lon="5.97155">
        <ele>2338.1999511719</ele>
        <time>2024-10-15T11:21:59.000Z</time>
      </trkpt>
      <trkpt lat="45.09403" lon="5.97155">
        <ele>2338.1999511719</ele>
        <time>2024-10-15T11:22:00.000Z</time>
      </trkpt>
      <trkpt lat="45.09403" lon="5.97155">
        <ele>2338.1999511719</ele>
        <time>2024-10-15T11:22:01.000Z</time>
      </trkpt>
      <trkpt lat="45.09403" lon="5.97155">
        <ele>2338.1999511719</ele>
        <time>2024-10-15T11:22:02.000Z</time>
      </trkpt>
      <trkpt lat="45.09403" lon="5.97155">
        <ele>2338.1999511719</ele>
        <time>2024-10-15T11:22:03.000Z</time>
      </trkpt>
      <trkpt lat="45.09403" lon="5.97155">
        <ele>2338.1999511719</ele>
        <time>2024-10-15T11:22:04.000Z</time>
      </trkpt>
      <trkpt lat="45.09403" lon="5.97155">
        <ele>2338</ele>
        <time>2024-10-15T11:22:05.000Z</time>
      </trkpt>
      <trkpt lat="45.09403" lon="5.97155">
        <ele>2338.1999511719</ele>
        <time>2024-10-15T11:22:06.000Z</time>
      </trkpt>
      <trkpt lat="45.09403" lon="5.97155">
        <ele>2338.3999023438</ele>
        <time>2024-10-15T11:22:07.000Z</time>
      </trkpt>
      <trkpt lat="45.09403" lon="5.97155">
        <ele>2338.1999511719</ele>
        <time>2024-10-15T11:22:08.000Z</time>
      </trkpt>
      <trkpt lat="45.09403" lon="5.97155">
        <ele>2338.1999511719</ele>
        <time>2024-10-15T11:22:09.000Z</time>
      </trkpt>
      <trkpt lat="45.09403" lon="5.97155">
        <ele>2338.1999511719</ele>
        <time>2024-10-15T11:22:10.000Z</time>
      </trkpt>
      <trkpt lat="45.09403" lon="5.97155">
        <ele>2338</ele>
        <time>2024-10-15T11:22:11.000Z</time>
      </trkpt>
      <trkpt lat="45.09403" lon="5.97155">
        <ele>2338</ele>
        <time>2024-10-15T11:22:12.000Z</time>
      </trkpt>
      <trkpt lat="45.09403" lon="5.97155">
        <ele>2337.8000488281</ele>
        <time>2024-10-15T11:22:13.000Z</time>
      </trkpt>
      <trkpt lat="45.09403" lon="5.97155">
        <ele>2337.8000488281</ele>
        <time>2024-10-15T11:22:14.000Z</time>
      </trkpt>
      <trkpt lat="45.09403" lon="5.97155">
        <ele>2337.6000976562</ele>
        <time>2024-10-15T11:22:15.000Z</time>
      </trkpt>
      <trkpt lat="45.09403" lon="5.97155">
        <ele>2337.6000976562</ele>
        <time>2024-10-15T11:22:16.000Z</time>
      </trkpt>
      <trkpt lat="45.09403" lon="5.97155">
        <ele>2337.6000976562</ele>
        <time>2024-10-15T11:22:17.000Z</time>
      </trkpt>
      <trkpt lat="45.09403" lon="5.97155">
        <ele>2337.3999023438</ele>
        <time>2024-10-15T11:22:18.000Z</time>
      </trkpt>
      <trkpt lat="45.09403" lon="5.97155">
        <ele>2337.3999023438</ele>
        <time>2024-10-15T11:22:19.000Z</time>
      </trkpt>
      <trkpt lat="45.09403" lon="5.97155">
        <ele>2337.3999023438</ele>
        <time>2024-10-15T11:22:20.000Z</time>
      </trkpt>
      <trkpt lat="45.09403" lon="5.97155">
        <ele>2337.1999511719</ele>
        <time>2024-10-15T11:22:21.000Z</time>
      </trkpt>
      <trkpt lat="45.09403" lon="5.97155">
        <ele>2337.1999511719</ele>
        <time>2024-10-15T11:22:22.000Z</time>
      </trkpt>
      <trkpt lat="45.09403" lon="5.97155">
        <ele>2337.3999023438</ele>
        <time>2024-10-15T11:22:23.000Z</time>
      </trkpt>
      <trkpt lat="45.09403" lon="5.97155">
        <ele>2337.3999023438</ele>
        <time>2024-10-15T11:22:24.000Z</time>
      </trkpt>
      <trkpt lat="45.09403" lon="5.97155">
        <ele>2337.6000976562</ele>
        <time>2024-10-15T11:22:25.000Z</time>
      </trkpt>
      <trkpt lat="45.09403" lon="5.97155">
        <ele>2337.8000488281</ele>
        <time>2024-10-15T11:22:26.000Z</time>
      </trkpt>
      <trkpt lat="45.09403" lon="5.97155">
        <ele>2338</ele>
        <time>2024-10-15T11:22:27.000Z</time>
      </trkpt>
      <trkpt lat="45.09403" lon="5.97155">
        <ele>2338.3999023438</ele>
        <time>2024-10-15T11:22:28.000Z</time>
      </trkpt>
      <trkpt lat="45.09403" lon="5.97155">
        <ele>2338.8000488281</ele>
        <time>2024-10-15T11:22:29.000Z</time>
      </trkpt>
      <trkpt lat="45.09403" lon="5.97155">
        <ele>2338.8000488281</ele>
        <time>2024-10-15T11:22:30.000Z</time>
      </trkpt>
      <trkpt lat="45.09403" lon="5.97155">
        <ele>2339</ele>
        <time>2024-10-15T11:22:31.000Z</time>
      </trkpt>
      <trkpt lat="45.09403" lon="5.97155">
        <ele>2339.3999023438</ele>
        <time>2024-10-15T11:22:32.000Z</time>
      </trkpt>
      <trkpt lat="45.09403" lon="5.97155">
        <ele>2339.6000976562</ele>
        <time>2024-10-15T11:22:33.000Z</time>
      </trkpt>
      <trkpt lat="45.09403" lon="5.97155">
        <ele>2339.8000488281</ele>
        <time>2024-10-15T11:22:34.000Z</time>
      </trkpt>
      <trkpt lat="45.09403" lon="5.97155">
        <ele>2339.8000488281</ele>
        <time>2024-10-15T11:22:35.000Z</time>
      </trkpt>
      <trkpt lat="45.09402" lon="5.97154">
        <ele>2340</ele>
        <time>2024-10-15T11:22:36.000Z</time>
      </trkpt>
      <trkpt lat="45.09401" lon="5.97154">
        <ele>2340.1999511719</ele>
        <time>2024-10-15T11:22:37.000Z</time>
      </trkpt>
      <trkpt lat="45.094" lon="5.97153">
        <ele>2340.6000976562</ele>
        <time>2024-10-15T11:22:38.000Z</time>
      </trkpt>
      <trkpt lat="45.094" lon="5.97152">
        <ele>2341</ele>
        <time>2024-10-15T11:22:39.000Z</time>
      </trkpt>
      <trkpt lat="45.09398" lon="5.97151">
        <ele>2341.1999511719</ele>
        <time>2024-10-15T11:22:40.000Z</time>
      </trkpt>
      <trkpt lat="45.09397" lon="5.9715">
        <ele>2341.6000976562</ele>
        <time>2024-10-15T11:22:41.000Z</time>
      </trkpt>
      <trkpt lat="45.09396" lon="5.97149">
        <ele>2341.6000976562</ele>
        <time>2024-10-15T11:22:42.000Z</time>
      </trkpt>
      <trkpt lat="45.09395" lon="5.97149">
        <ele>2342</ele>
        <time>2024-10-15T11:22:43.000Z</time>
      </trkpt>
      <trkpt lat="45.09394" lon="5.97149">
        <ele>2342.1999511719</ele>
        <time>2024-10-15T11:22:44.000Z</time>
      </trkpt>
      <trkpt lat="45.09393" lon="5.97148">
        <ele>2342.6000976562</ele>
        <time>2024-10-15T11:22:45.000Z</time>
      </trkpt>
      <trkpt lat="45.09392" lon="5.97148">
        <ele>2342.6000976562</ele>
        <time>2024-10-15T11:22:46.000Z</time>
      </trkpt>
      <trkpt lat="45.09392" lon="5.97148">
        <ele>2342.8000488281</ele>
        <time>2024-10-15T11:22:47.000Z</time>
      </trkpt>
      <trkpt lat="45.09391" lon="5.97148">
        <ele>2343</ele>
        <time>2024-10-15T11:22:48.000Z</time>
      </trkpt>
      <trkpt lat="45.09391" lon="5.97148">
        <ele>2343.3999023438</ele>
        <time>2024-10-15T11:22:49.000Z</time>
      </trkpt>
      <trkpt lat="45.09391" lon="5.97147">
        <ele>2343.6000976562</ele>
        <time>2024-10-15T11:22:50.000Z</time>
      </trkpt>
      <trkpt lat="45.0939" lon="5.97147">
        <ele>2344</ele>
        <time>2024-10-15T11:22:51.000Z</time>
      </trkpt>
      <trkpt lat="45.0939" lon="5.97147">
        <ele>2344.1999511719</ele>
        <time>2024-10-15T11:22:52.000Z</time>
      </trkpt>
      <trkpt lat="45.09389" lon="5.97147">
        <ele>2344.3999023438</ele>
        <time>2024-10-15T11:22:53.000Z</time>
      </trkpt>
      <trkpt lat="45.09389" lon="5.97146">
        <ele>2344.8000488281</ele>
        <time>2024-10-15T11:22:54.000Z</time>
      </trkpt>
      <trkpt lat="45.09388" lon="5.97146">
        <ele>2345</ele>
        <time>2024-10-15T11:22:55.000Z</time>
      </trkpt>
      <trkpt lat="45.09388" lon="5.97146">
        <ele>2345.1999511719</ele>
        <time>2024-10-15T11:22:56.000Z</time>
      </trkpt>
      <trkpt lat="45.09388" lon="5.97146">
        <ele>2345.3999023438</ele>
        <time>2024-10-15T11:22:57.000Z</time>
      </trkpt>
      <trkpt lat="45.09387" lon="5.97145">
        <ele>2345.6000976562</ele>
        <time>2024-10-15T11:22:58.000Z</time>
      </trkpt>
      <trkpt lat="45.09386" lon="5.97145">
        <ele>2345.8000488281</ele>
        <time>2024-10-15T11:22:59.000Z</time>
      </trkpt>
      <trkpt lat="45.09386" lon="5.97145">
        <ele>2346.1999511719</ele>
        <time>2024-10-15T11:23:00.000Z</time>
      </trkpt>
      <trkpt lat="45.09385" lon="5.97144">
        <ele>2346.3999023438</ele>
        <time>2024-10-15T11:23:01.000Z</time>
      </trkpt>
      <trkpt lat="45.09385" lon="5.97144">
        <ele>2346.3999023438</ele>
        <time>2024-10-15T11:23:02.000Z</time>
      </trkpt>
      <trkpt lat="45.09384" lon="5.97143">
        <ele>2346.6000976562</ele>
        <time>2024-10-15T11:23:03.000Z</time>
      </trkpt>
      <trkpt lat="45.09384" lon="5.97143">
        <ele>2346.8000488281</ele>
        <time>2024-10-15T11:23:04.000Z</time>
      </trkpt>
      <trkpt lat="45.09383" lon="5.97143">
        <ele>2347</ele>
        <time>2024-10-15T11:23:05.000Z</time>
      </trkpt>
      <trkpt lat="45.09383" lon="5.97142">
        <ele>2347.1999511719</ele>
        <time>2024-10-15T11:23:06.000Z</time>
      </trkpt>
      <trkpt lat="45.09383" lon="5.97142">
        <ele>2347.3999023438</ele>
        <time>2024-10-15T11:23:07.000Z</time>
      </trkpt>
      <trkpt lat="45.09382" lon="5.97142">
        <ele>2347.8000488281</ele>
        <time>2024-10-15T11:23:08.000Z</time>
      </trkpt>
      <trkpt lat="45.09382" lon="5.97142">
        <ele>2348</ele>
        <time>2024-10-15T11:23:09.000Z</time>
      </trkpt>
      <trkpt lat="45.09382" lon="5.97142">
        <ele>2348.1999511719</ele>
        <time>2024-10-15T11:23:10.000Z</time>
      </trkpt>
      <trkpt lat="45.09381" lon="5.97142">
        <ele>2348.3999023438</ele>
        <time>2024-10-15T11:23:11.000Z</time>
      </trkpt>
      <trkpt lat="45.09381" lon="5.97142">
        <ele>2348.6000976562</ele>
        <time>2024-10-15T11:23:12.000Z</time>
      </trkpt>
      <trkpt lat="45.0938" lon="5.97142">
        <ele>2348.8000488281</ele>
        <time>2024-10-15T11:23:13.000Z</time>
      </trkpt>
      <trkpt lat="45.0938" lon="5.97142">
        <ele>2348.8000488281</ele>
        <time>2024-10-15T11:23:14.000Z</time>
      </trkpt>
      <trkpt lat="45.0938" lon="5.97142">
        <ele>2349</ele>
        <time>2024-10-15T11:23:15.000Z</time>
      </trkpt>
      <trkpt lat="45.0938" lon="5.97142">
        <ele>2349.3999023438</ele>
        <time>2024-10-15T11:23:16.000Z</time>
      </trkpt>
      <trkpt lat="45.0938" lon="5.97142">
        <ele>2349.3999023438</ele>
        <time>2024-10-15T11:23:17.000Z</time>
      </trkpt>
      <trkpt lat="45.0938" lon="5.97142">
        <ele>2349.3999023438</ele>
        <time>2024-10-15T11:23:18.000Z</time>
      </trkpt>
      <trkpt lat="45.0938" lon="5.97142">
        <ele>2349.3999023438</ele>
        <time>2024-10-15T11:23:19.000Z</time>
      </trkpt>
      <trkpt lat="45.0938" lon="5.97142">
        <ele>2349.3999023438</ele>
        <time>2024-10-15T11:23:20.000Z</time>
      </trkpt>
      <trkpt lat="45.0938" lon="5.97142">
        <ele>2349.3999023438</ele>
        <time>2024-10-15T11:23:21.000Z</time>
      </trkpt>
      <trkpt lat="45.0938" lon="5.97142">
        <ele>2349.3999023438</ele>
        <time>2024-10-15T11:23:22.000Z</time>
      </trkpt>
      <trkpt lat="45.0938" lon="5.97142">
        <ele>2349.1999511719</ele>
        <time>2024-10-15T11:23:23.000Z</time>
      </trkpt>
      <trkpt lat="45.0938" lon="5.97142">
        <ele>2349.1999511719</ele>
        <time>2024-10-15T11:23:24.000Z</time>
      </trkpt>
      <trkpt lat="45.0938" lon="5.97142">
        <ele>2349.1999511719</ele>
        <time>2024-10-15T11:23:25.000Z</time>
      </trkpt>
      <trkpt lat="45.0938" lon="5.97142">
        <ele>2349</ele>
        <time>2024-10-15T11:23:26.000Z</time>
      </trkpt>
      <trkpt lat="45.0938" lon="5.97142">
        <ele>2349</ele>
        <time>2024-10-15T11:23:27.000Z</time>
      </trkpt>
      <trkpt lat="45.0938" lon="5.97142">
        <ele>2348.8000488281</ele>
        <time>2024-10-15T11:23:28.000Z</time>
      </trkpt>
      <trkpt lat="45.0938" lon="5.97142">
        <ele>2348.8000488281</ele>
        <time>2024-10-15T11:23:29.000Z</time>
      </trkpt>
      <trkpt lat="45.0938" lon="5.97142">
        <ele>2348.8000488281</ele>
        <time>2024-10-15T11:23:30.000Z</time>
      </trkpt>
      <trkpt lat="45.0938" lon="5.97142">
        <ele>2348.6000976562</ele>
        <time>2024-10-15T11:23:31.000Z</time>
      </trkpt>
      <trkpt lat="45.0938" lon="5.97142">
        <ele>2348.6000976562</ele>
        <time>2024-10-15T11:23:32.000Z</time>
      </trkpt>
      <trkpt lat="45.0938" lon="5.97142">
        <ele>2348.6000976562</ele>
        <time>2024-10-15T11:23:33.000Z</time>
      </trkpt>
      <trkpt lat="45.0938" lon="5.97142">
        <ele>2348.6000976562</ele>
        <time>2024-10-15T11:23:34.000Z</time>
      </trkpt>
      <trkpt lat="45.0938" lon="5.97142">
        <ele>2348.3999023438</ele>
        <time>2024-10-15T11:23:35.000Z</time>
      </trkpt>
      <trkpt lat="45.0938" lon="5.97142">
        <ele>2348.3999023438</ele>
        <time>2024-10-15T11:23:36.000Z</time>
      </trkpt>
      <trkpt lat="45.0938" lon="5.97142">
        <ele>2348.1999511719</ele>
        <time>2024-10-15T11:23:37.000Z</time>
      </trkpt>
      <trkpt lat="45.0938" lon="5.97142">
        <ele>2348.1999511719</ele>
        <time>2024-10-15T11:23:38.000Z</time>
      </trkpt>
      <trkpt lat="45.0938" lon="5.97142">
        <ele>2348.1999511719</ele>
        <time>2024-10-15T11:23:39.000Z</time>
      </trkpt>
      <trkpt lat="45.0938" lon="5.97142">
        <ele>2348.1999511719</ele>
        <time>2024-10-15T11:23:40.000Z</time>
      </trkpt>
      <trkpt lat="45.0938" lon="5.97142">
        <ele>2348.1999511719</ele>
        <time>2024-10-15T11:23:41.000Z</time>
      </trkpt>
      <trkpt lat="45.0938" lon="5.97142">
        <ele>2348.3999023438</ele>
        <time>2024-10-15T11:23:42.000Z</time>
      </trkpt>
      <trkpt lat="45.0938" lon="5.97142">
        <ele>2348.6000976562</ele>
        <time>2024-10-15T11:23:43.000Z</time>
      </trkpt>
      <trkpt lat="45.0938" lon="5.97142">
        <ele>2348.8000488281</ele>
        <time>2024-10-15T11:23:44.000Z</time>
      </trkpt>
      <trkpt lat="45.0938" lon="5.97142">
        <ele>2349</ele>
        <time>2024-10-15T11:23:45.000Z</time>
      </trkpt>
      <trkpt lat="45.09378" lon="5.97141">
        <ele>2349.1999511719</ele>
        <time>2024-10-15T11:23:46.000Z</time>
      </trkpt>
      <trkpt lat="45.09377" lon="5.97141">
        <ele>2349.1999511719</ele>
        <time>2024-10-15T11:23:47.000Z</time>
      </trkpt>
      <trkpt lat="45.09376" lon="5.97141">
        <ele>2349.8000488281</ele>
        <time>2024-10-15T11:23:48.000Z</time>
      </trkpt>
      <trkpt lat="45.09375" lon="5.97141">
        <ele>2350</ele>
        <time>2024-10-15T11:23:49.000Z</time>
      </trkpt>
      <trkpt lat="45.09374" lon="5.97141">
        <ele>2350.1999511719</ele>
        <time>2024-10-15T11:23:50.000Z</time>
      </trkpt>
      <trkpt lat="45.09373" lon="5.97141">
        <ele>2350.6000976562</ele>
        <time>2024-10-15T11:23:51.000Z</time>
      </trkpt>
      <trkpt lat="45.09372" lon="5.9714">
        <ele>2350.6000976562</ele>
        <time>2024-10-15T11:23:52.000Z</time>
      </trkpt>
      <trkpt lat="45.09371" lon="5.9714">
        <ele>2351</ele>
        <time>2024-10-15T11:23:53.000Z</time>
      </trkpt>
      <trkpt lat="45.0937" lon="5.97139">
        <ele>2351.3999023438</ele>
        <time>2024-10-15T11:23:54.000Z</time>
      </trkpt>
      <trkpt lat="45.0937" lon="5.9714">
        <ele>2351.8000488281</ele>
        <time>2024-10-15T11:23:55.000Z</time>
      </trkpt>
      <trkpt lat="45.0937" lon="5.9714">
        <ele>2352</ele>
        <time>2024-10-15T11:23:56.000Z</time>
      </trkpt>
      <trkpt lat="45.09369" lon="5.9714">
        <ele>2352.3999023438</ele>
        <time>2024-10-15T11:23:57.000Z</time>
      </trkpt>
      <trkpt lat="45.09369" lon="5.9714">
        <ele>2352.6000976562</ele>
        <time>2024-10-15T11:23:58.000Z</time>
      </trkpt>
      <trkpt lat="45.09368" lon="5.97141">
        <ele>2353</ele>
        <time>2024-10-15T11:23:59.000Z</time>
      </trkpt>
      <trkpt lat="45.09367" lon="5.97141">
        <ele>2353</ele>
        <time>2024-10-15T11:24:00.000Z</time>
      </trkpt>
      <trkpt lat="45.09367" lon="5.97142">
        <ele>2353.3999023438</ele>
        <time>2024-10-15T11:24:01.000Z</time>
      </trkpt>
      <trkpt lat="45.09366" lon="5.97142">
        <ele>2353.6000976562</ele>
        <time>2024-10-15T11:24:02.000Z</time>
      </trkpt>
      <trkpt lat="45.09365" lon="5.97142">
        <ele>2353.8000488281</ele>
        <time>2024-10-15T11:24:03.000Z</time>
      </trkpt>
      <trkpt lat="45.09365" lon="5.97142">
        <ele>2354.3999023438</ele>
        <time>2024-10-15T11:24:04.000Z</time>
      </trkpt>
      <trkpt lat="45.09364" lon="5.97142">
        <ele>2354.6000976562</ele>
        <time>2024-10-15T11:24:05.000Z</time>
      </trkpt>
      <trkpt lat="45.09364" lon="5.97142">
        <ele>2355.1999511719</ele>
        <time>2024-10-15T11:24:06.000Z</time>
      </trkpt>
      <trkpt lat="45.09363" lon="5.97142">
        <ele>2355.3999023438</ele>
        <time>2024-10-15T11:24:07.000Z</time>
      </trkpt>
      <trkpt lat="45.09363" lon="5.97142">
        <ele>2355.8000488281</ele>
        <time>2024-10-15T11:24:08.000Z</time>
      </trkpt>
      <trkpt lat="45.09363" lon="5.97142">
        <ele>2356</ele>
        <time>2024-10-15T11:24:09.000Z</time>
      </trkpt>
      <trkpt lat="45.09362" lon="5.97142">
        <ele>2356</ele>
        <time>2024-10-15T11:24:10.000Z</time>
      </trkpt>
      <trkpt lat="45.09362" lon="5.97142">
        <ele>2356.1999511719</ele>
        <time>2024-10-15T11:24:11.000Z</time>
      </trkpt>
      <trkpt lat="45.09362" lon="5.97142">
        <ele>2356.1999511719</ele>
        <time>2024-10-15T11:24:12.000Z</time>
      </trkpt>
      <trkpt lat="45.09362" lon="5.97143">
        <ele>2356.8000488281</ele>
        <time>2024-10-15T11:24:13.000Z</time>
      </trkpt>
      <trkpt lat="45.09361" lon="5.97143">
        <ele>2357.1999511719</ele>
        <time>2024-10-15T11:24:14.000Z</time>
      </trkpt>
      <trkpt lat="45.09361" lon="5.97143">
        <ele>2357.1999511719</ele>
        <time>2024-10-15T11:24:15.000Z</time>
      </trkpt>
      <trkpt lat="45.09361" lon="5.97143">
        <ele>2357.1999511719</ele>
        <time>2024-10-15T11:24:16.000Z</time>
      </trkpt>
      <trkpt lat="45.09361" lon="5.97143">
        <ele>2357.3999023438</ele>
        <time>2024-10-15T11:24:17.000Z</time>
      </trkpt>
      <trkpt lat="45.09361" lon="5.97143">
        <ele>2357.3999023438</ele>
        <time>2024-10-15T11:24:18.000Z</time>
      </trkpt>
      <trkpt lat="45.09361" lon="5.97143">
        <ele>2357.3999023438</ele>
        <time>2024-10-15T11:24:19.000Z</time>
      </trkpt>
      <trkpt lat="45.09361" lon="5.97143">
        <ele>2357.3999023438</ele>
        <time>2024-10-15T11:24:20.000Z</time>
      </trkpt>
      <trkpt lat="45.09361" lon="5.97143">
        <ele>2357.3999023438</ele>
        <time>2024-10-15T11:24:21.000Z</time>
      </trkpt>
      <trkpt lat="45.09361" lon="5.97143">
        <ele>2357.1999511719</ele>
        <time>2024-10-15T11:24:22.000Z</time>
      </trkpt>
      <trkpt lat="45.09361" lon="5.97143">
        <ele>2357.1999511719</ele>
        <time>2024-10-15T11:24:23.000Z</time>
      </trkpt>
      <trkpt lat="45.09361" lon="5.97143">
        <ele>2357.1999511719</ele>
        <time>2024-10-15T11:24:24.000Z</time>
      </trkpt>
      <trkpt lat="45.09361" lon="5.97143">
        <ele>2357.1999511719</ele>
        <time>2024-10-15T11:24:25.000Z</time>
      </trkpt>
      <trkpt lat="45.09361" lon="5.97143">
        <ele>2357.1999511719</ele>
        <time>2024-10-15T11:24:26.000Z</time>
      </trkpt>
      <trkpt lat="45.09361" lon="5.97143">
        <ele>2357</ele>
        <time>2024-10-15T11:24:27.000Z</time>
      </trkpt>
      <trkpt lat="45.09361" lon="5.97143">
        <ele>2357</ele>
        <time>2024-10-15T11:24:28.000Z</time>
      </trkpt>
      <trkpt lat="45.09361" lon="5.97143">
        <ele>2357</ele>
        <time>2024-10-15T11:24:29.000Z</time>
      </trkpt>
      <trkpt lat="45.09361" lon="5.97143">
        <ele>2357</ele>
        <time>2024-10-15T11:24:30.000Z</time>
      </trkpt>
      <trkpt lat="45.09361" lon="5.97143">
        <ele>2357.1999511719</ele>
        <time>2024-10-15T11:24:31.000Z</time>
      </trkpt>
      <trkpt lat="45.09361" lon="5.97143">
        <ele>2357.3999023438</ele>
        <time>2024-10-15T11:24:32.000Z</time>
      </trkpt>
      <trkpt lat="45.09361" lon="5.97143">
        <ele>2357.6000976562</ele>
        <time>2024-10-15T11:24:33.000Z</time>
      </trkpt>
      <trkpt lat="45.09361" lon="5.97143">
        <ele>2357.8000488281</ele>
        <time>2024-10-15T11:24:34.000Z</time>
      </trkpt>
      <trkpt lat="45.09361" lon="5.97143">
        <ele>2358</ele>
        <time>2024-10-15T11:24:35.000Z</time>
      </trkpt>
      <trkpt lat="45.09361" lon="5.97143">
        <ele>2358.1999511719</ele>
        <time>2024-10-15T11:24:36.000Z</time>
      </trkpt>
      <trkpt lat="45.09361" lon="5.97143">
        <ele>2358.3999023438</ele>
        <time>2024-10-15T11:24:37.000Z</time>
      </trkpt>
      <trkpt lat="45.09361" lon="5.97143">
        <ele>2358.6000976562</ele>
        <time>2024-10-15T11:24:38.000Z</time>
      </trkpt>
      <trkpt lat="45.09361" lon="5.97143">
        <ele>2358.8000488281</ele>
        <time>2024-10-15T11:24:39.000Z</time>
      </trkpt>
      <trkpt lat="45.09361" lon="5.97143">
        <ele>2358.8000488281</ele>
        <time>2024-10-15T11:24:40.000Z</time>
      </trkpt>
      <trkpt lat="45.09361" lon="5.97143">
        <ele>2358.8000488281</ele>
        <time>2024-10-15T11:24:41.000Z</time>
      </trkpt>
      <trkpt lat="45.09361" lon="5.97143">
        <ele>2359</ele>
        <time>2024-10-15T11:24:42.000Z</time>
      </trkpt>
      <trkpt lat="45.0936" lon="5.97142">
        <ele>2359.3999023438</ele>
        <time>2024-10-15T11:24:43.000Z</time>
      </trkpt>
      <trkpt lat="45.09359" lon="5.97142">
        <ele>2359.8000488281</ele>
        <time>2024-10-15T11:24:44.000Z</time>
      </trkpt>
      <trkpt lat="45.09357" lon="5.97141">
        <ele>2360</ele>
        <time>2024-10-15T11:24:45.000Z</time>
      </trkpt>
      <trkpt lat="45.09357" lon="5.97141">
        <ele>2360.1999511719</ele>
        <time>2024-10-15T11:24:46.000Z</time>
      </trkpt>
      <trkpt lat="45.09355" lon="5.9714">
        <ele>2360.3999023438</ele>
        <time>2024-10-15T11:24:47.000Z</time>
      </trkpt>
      <trkpt lat="45.09354" lon="5.97139">
        <ele>2360.8000488281</ele>
        <time>2024-10-15T11:24:48.000Z</time>
      </trkpt>
      <trkpt lat="45.09353" lon="5.97139">
        <ele>2361</ele>
        <time>2024-10-15T11:24:49.000Z</time>
      </trkpt>
      <trkpt lat="45.09352" lon="5.97139">
        <ele>2361.1999511719</ele>
        <time>2024-10-15T11:24:50.000Z</time>
      </trkpt>
      <trkpt lat="45.09351" lon="5.97139">
        <ele>2361.6000976562</ele>
        <time>2024-10-15T11:24:51.000Z</time>
      </trkpt>
      <trkpt lat="45.09351" lon="5.97138">
        <ele>2361.8000488281</ele>
        <time>2024-10-15T11:24:52.000Z</time>
      </trkpt>
      <trkpt lat="45.0935" lon="5.97138">
        <ele>2362</ele>
        <time>2024-10-15T11:24:53.000Z</time>
      </trkpt>
      <trkpt lat="45.0935" lon="5.97138">
        <ele>2362.1999511719</ele>
        <time>2024-10-15T11:24:54.000Z</time>
      </trkpt>
      <trkpt lat="45.09349" lon="5.97138">
        <ele>2362.3999023438</ele>
        <time>2024-10-15T11:24:55.000Z</time>
      </trkpt>
      <trkpt lat="45.09349" lon="5.97138">
        <ele>2362.3999023438</ele>
        <time>2024-10-15T11:24:56.000Z</time>
      </trkpt>
      <trkpt lat="45.09349" lon="5.97137">
        <ele>2362.6000976562</ele>
        <time>2024-10-15T11:24:57.000Z</time>
      </trkpt>
      <trkpt lat="45.09348" lon="5.97137">
        <ele>2362.8000488281</ele>
        <time>2024-10-15T11:24:58.000Z</time>
      </trkpt>
      <trkpt lat="45.09348" lon="5.97136">
        <ele>2363</ele>
        <time>2024-10-15T11:24:59.000Z</time>
      </trkpt>
      <trkpt lat="45.09348" lon="5.97136">
        <ele>2363.6000976562</ele>
        <time>2024-10-15T11:25:00.000Z</time>
      </trkpt>
      <trkpt lat="45.09347" lon="5.97135">
        <ele>2364</ele>
        <time>2024-10-15T11:25:01.000Z</time>
      </trkpt>
      <trkpt lat="45.09347" lon="5.97135">
        <ele>2364.1999511719</ele>
        <time>2024-10-15T11:25:02.000Z</time>
      </trkpt>
      <trkpt lat="45.09346" lon="5.97135">
        <ele>2364.3999023438</ele>
        <time>2024-10-15T11:25:03.000Z</time>
      </trkpt>
      <trkpt lat="45.09346" lon="5.97134">
        <ele>2364.3999023438</ele>
        <time>2024-10-15T11:25:04.000Z</time>
      </trkpt>
      <trkpt lat="45.09345" lon="5.97134">
        <ele>2364.8000488281</ele>
        <time>2024-10-15T11:25:05.000Z</time>
      </trkpt>
      <trkpt lat="45.09345" lon="5.97134">
        <ele>2365</ele>
        <time>2024-10-15T11:25:06.000Z</time>
      </trkpt>
      <trkpt lat="45.09345" lon="5.97133">
        <ele>2365</ele>
        <time>2024-10-15T11:25:07.000Z</time>
      </trkpt>
      <trkpt lat="45.09345" lon="5.97133">
        <ele>2365.3999023438</ele>
        <time>2024-10-15T11:25:08.000Z</time>
      </trkpt>
      <trkpt lat="45.09345" lon="5.97132">
        <ele>2365.6000976562</ele>
        <time>2024-10-15T11:25:09.000Z</time>
      </trkpt>
      <trkpt lat="45.09344" lon="5.97132">
        <ele>2365.8000488281</ele>
        <time>2024-10-15T11:25:10.000Z</time>
      </trkpt>
      <trkpt lat="45.09344" lon="5.97132">
        <ele>2366.1999511719</ele>
        <time>2024-10-15T11:25:11.000Z</time>
      </trkpt>
      <trkpt lat="45.09344" lon="5.97132">
        <ele>2366.3999023438</ele>
        <time>2024-10-15T11:25:12.000Z</time>
      </trkpt>
      <trkpt lat="45.09343" lon="5.97132">
        <ele>2366.3999023438</ele>
        <time>2024-10-15T11:25:13.000Z</time>
      </trkpt>
      <trkpt lat="45.09343" lon="5.97131">
        <ele>2366.6000976562</ele>
        <time>2024-10-15T11:25:14.000Z</time>
      </trkpt>
      <trkpt lat="45.09342" lon="5.97131">
        <ele>2366.8000488281</ele>
        <time>2024-10-15T11:25:15.000Z</time>
      </trkpt>
      <trkpt lat="45.09342" lon="5.97132">
        <ele>2366.8000488281</ele>
        <time>2024-10-15T11:25:16.000Z</time>
      </trkpt>
      <trkpt lat="45.09342" lon="5.97132">
        <ele>2367</ele>
        <time>2024-10-15T11:25:17.000Z</time>
      </trkpt>
      <trkpt lat="45.09341" lon="5.97132">
        <ele>2367.1999511719</ele>
        <time>2024-10-15T11:25:18.000Z</time>
      </trkpt>
      <trkpt lat="45.0934" lon="5.97132">
        <ele>2367.1999511719</ele>
        <time>2024-10-15T11:25:19.000Z</time>
      </trkpt>
      <trkpt lat="45.0934" lon="5.97132">
        <ele>2367.3999023438</ele>
        <time>2024-10-15T11:25:20.000Z</time>
      </trkpt>
      <trkpt lat="45.09339" lon="5.97132">
        <ele>2367.8000488281</ele>
        <time>2024-10-15T11:25:21.000Z</time>
      </trkpt>
      <trkpt lat="45.09339" lon="5.97132">
        <ele>2367.8000488281</ele>
        <time>2024-10-15T11:25:22.000Z</time>
      </trkpt>
      <trkpt lat="45.09338" lon="5.97132">
        <ele>2368</ele>
        <time>2024-10-15T11:25:23.000Z</time>
      </trkpt>
      <trkpt lat="45.09338" lon="5.97132">
        <ele>2368.3999023438</ele>
        <time>2024-10-15T11:25:24.000Z</time>
      </trkpt>
      <trkpt lat="45.09338" lon="5.97132">
        <ele>2368.6000976562</ele>
        <time>2024-10-15T11:25:25.000Z</time>
      </trkpt>
      <trkpt lat="45.09338" lon="5.97133">
        <ele>2368.8000488281</ele>
        <time>2024-10-15T11:25:26.000Z</time>
      </trkpt>
      <trkpt lat="45.09337" lon="5.97133">
        <ele>2368.8000488281</ele>
        <time>2024-10-15T11:25:27.000Z</time>
      </trkpt>
      <trkpt lat="45.09337" lon="5.97133">
        <ele>2369.1999511719</ele>
        <time>2024-10-15T11:25:28.000Z</time>
      </trkpt>
      <trkpt lat="45.09336" lon="5.97132">
        <ele>2369.3999023438</ele>
        <time>2024-10-15T11:25:29.000Z</time>
      </trkpt>
      <trkpt lat="45.09336" lon="5.97132">
        <ele>2369.6000976562</ele>
        <time>2024-10-15T11:25:30.000Z</time>
      </trkpt>
      <trkpt lat="45.09335" lon="5.97132">
        <ele>2369.8000488281</ele>
        <time>2024-10-15T11:25:31.000Z</time>
      </trkpt>
      <trkpt lat="45.09335" lon="5.97132">
        <ele>2370</ele>
        <time>2024-10-15T11:25:32.000Z</time>
      </trkpt>
      <trkpt lat="45.09335" lon="5.97132">
        <ele>2370</ele>
        <time>2024-10-15T11:25:33.000Z</time>
      </trkpt>
      <trkpt lat="45.09335" lon="5.97131">
        <ele>2370</ele>
        <time>2024-10-15T11:25:34.000Z</time>
      </trkpt>
      <trkpt lat="45.09335" lon="5.97132">
        <ele>2370.1999511719</ele>
        <time>2024-10-15T11:25:35.000Z</time>
      </trkpt>
      <trkpt lat="45.09335" lon="5.97132">
        <ele>2370.6000976562</ele>
        <time>2024-10-15T11:25:36.000Z</time>
      </trkpt>
      <trkpt lat="45.09334" lon="5.97132">
        <ele>2370.8000488281</ele>
        <time>2024-10-15T11:25:37.000Z</time>
      </trkpt>
      <trkpt lat="45.09334" lon="5.97132">
        <ele>2371</ele>
        <time>2024-10-15T11:25:38.000Z</time>
      </trkpt>
      <trkpt lat="45.09334" lon="5.97133">
        <ele>2371</ele>
        <time>2024-10-15T11:25:39.000Z</time>
      </trkpt>
      <trkpt lat="45.09333" lon="5.97133">
        <ele>2371.3999023438</ele>
        <time>2024-10-15T11:25:40.000Z</time>
      </trkpt>
      <trkpt lat="45.09332" lon="5.97133">
        <ele>2371.3999023438</ele>
        <time>2024-10-15T11:25:41.000Z</time>
      </trkpt>
      <trkpt lat="45.09331" lon="5.97133">
        <ele>2371.8000488281</ele>
        <time>2024-10-15T11:25:42.000Z</time>
      </trkpt>
      <trkpt lat="45.09331" lon="5.97132">
        <ele>2371.8000488281</ele>
        <time>2024-10-15T11:25:43.000Z</time>
      </trkpt>
      <trkpt lat="45.0933" lon="5.97133">
        <ele>2372</ele>
        <time>2024-10-15T11:25:44.000Z</time>
      </trkpt>
      <trkpt lat="45.0933" lon="5.97132">
        <ele>2372.1999511719</ele>
        <time>2024-10-15T11:25:45.000Z</time>
      </trkpt>
      <trkpt lat="45.09329" lon="5.97132">
        <ele>2372.3999023438</ele>
        <time>2024-10-15T11:25:46.000Z</time>
      </trkpt>
      <trkpt lat="45.09329" lon="5.97133">
        <ele>2372.8000488281</ele>
        <time>2024-10-15T11:25:47.000Z</time>
      </trkpt>
      <trkpt lat="45.09329" lon="5.97133">
        <ele>2372.8000488281</ele>
        <time>2024-10-15T11:25:48.000Z</time>
      </trkpt>
      <trkpt lat="45.09328" lon="5.97133">
        <ele>2372.8000488281</ele>
        <time>2024-10-15T11:25:49.000Z</time>
      </trkpt>
      <trkpt lat="45.09328" lon="5.97134">
        <ele>2372.8000488281</ele>
        <time>2024-10-15T11:25:50.000Z</time>
      </trkpt>
      <trkpt lat="45.09328" lon="5.97134">
        <ele>2373</ele>
        <time>2024-10-15T11:25:51.000Z</time>
      </trkpt>
      <trkpt lat="45.09328" lon="5.97134">
        <ele>2373</ele>
        <time>2024-10-15T11:25:52.000Z</time>
      </trkpt>
      <trkpt lat="45.09327" lon="5.97134">
        <ele>2373</ele>
        <time>2024-10-15T11:25:53.000Z</time>
      </trkpt>
      <trkpt lat="45.09327" lon="5.97133">
        <ele>2373</ele>
        <time>2024-10-15T11:25:54.000Z</time>
      </trkpt>
      <trkpt lat="45.09326" lon="5.97133">
        <ele>2373.1999511719</ele>
        <time>2024-10-15T11:25:55.000Z</time>
      </trkpt>
      <trkpt lat="45.09326" lon="5.97133">
        <ele>2373.3999023438</ele>
        <time>2024-10-15T11:25:56.000Z</time>
      </trkpt>
      <trkpt lat="45.09326" lon="5.97133">
        <ele>2373.3999023438</ele>
        <time>2024-10-15T11:25:57.000Z</time>
      </trkpt>
      <trkpt lat="45.09326" lon="5.97133">
        <ele>2373.6000976562</ele>
        <time>2024-10-15T11:25:58.000Z</time>
      </trkpt>
      <trkpt lat="45.09326" lon="5.97132">
        <ele>2373.6000976562</ele>
        <time>2024-10-15T11:25:59.000Z</time>
      </trkpt>
      <trkpt lat="45.09326" lon="5.97132">
        <ele>2373.8000488281</ele>
        <time>2024-10-15T11:26:00.000Z</time>
      </trkpt>
      <trkpt lat="45.09325" lon="5.97131">
        <ele>2373.8000488281</ele>
        <time>2024-10-15T11:26:01.000Z</time>
      </trkpt>
      <trkpt lat="45.09324" lon="5.97131">
        <ele>2373.8000488281</ele>
        <time>2024-10-15T11:26:02.000Z</time>
      </trkpt>
      <trkpt lat="45.09324" lon="5.97131">
        <ele>2373.8000488281</ele>
        <time>2024-10-15T11:26:03.000Z</time>
      </trkpt>
      <trkpt lat="45.09323" lon="5.9713">
        <ele>2374.1999511719</ele>
        <time>2024-10-15T11:26:04.000Z</time>
      </trkpt>
      <trkpt lat="45.09323" lon="5.9713">
        <ele>2374.3999023438</ele>
        <time>2024-10-15T11:26:05.000Z</time>
      </trkpt>
      <trkpt lat="45.09322" lon="5.9713">
        <ele>2374.6000976562</ele>
        <time>2024-10-15T11:26:06.000Z</time>
      </trkpt>
      <trkpt lat="45.09322" lon="5.9713">
        <ele>2375</ele>
        <time>2024-10-15T11:26:07.000Z</time>
      </trkpt>
      <trkpt lat="45.09322" lon="5.97129">
        <ele>2375.3999023438</ele>
        <time>2024-10-15T11:26:08.000Z</time>
      </trkpt>
      <trkpt lat="45.09322" lon="5.97129">
        <ele>2375.8000488281</ele>
        <time>2024-10-15T11:26:09.000Z</time>
      </trkpt>
      <trkpt lat="45.09321" lon="5.97128">
        <ele>2376.1999511719</ele>
        <time>2024-10-15T11:26:10.000Z</time>
      </trkpt>
      <trkpt lat="45.09321" lon="5.97128">
        <ele>2376.6000976562</ele>
        <time>2024-10-15T11:26:11.000Z</time>
      </trkpt>
      <trkpt lat="45.09321" lon="5.97127">
        <ele>2376.8000488281</ele>
        <time>2024-10-15T11:26:12.000Z</time>
      </trkpt>
      <trkpt lat="45.09321" lon="5.97127">
        <ele>2377.1999511719</ele>
        <time>2024-10-15T11:26:13.000Z</time>
      </trkpt>
      <trkpt lat="45.0932" lon="5.97126">
        <ele>2377.3999023438</ele>
        <time>2024-10-15T11:26:14.000Z</time>
      </trkpt>
      <trkpt lat="45.0932" lon="5.97126">
        <ele>2377.8000488281</ele>
        <time>2024-10-15T11:26:15.000Z</time>
      </trkpt>
      <trkpt lat="45.0932" lon="5.97126">
        <ele>2378</ele>
        <time>2024-10-15T11:26:16.000Z</time>
      </trkpt>
      <trkpt lat="45.09319" lon="5.97125">
        <ele>2378.1999511719</ele>
        <time>2024-10-15T11:26:17.000Z</time>
      </trkpt>
      <trkpt lat="45.09319" lon="5.97125">
        <ele>2378.3999023438</ele>
        <time>2024-10-15T11:26:18.000Z</time>
      </trkpt>
      <trkpt lat="45.09319" lon="5.97125">
        <ele>2378.6000976562</ele>
        <time>2024-10-15T11:26:19.000Z</time>
      </trkpt>
      <trkpt lat="45.09319" lon="5.97125">
        <ele>2378.8000488281</ele>
        <time>2024-10-15T11:26:20.000Z</time>
      </trkpt>
      <trkpt lat="45.09319" lon="5.97124">
        <ele>2379</ele>
        <time>2024-10-15T11:26:21.000Z</time>
      </trkpt>
      <trkpt lat="45.09319" lon="5.97124">
        <ele>2379</ele>
        <time>2024-10-15T11:26:22.000Z</time>
      </trkpt>
      <trkpt lat="45.09319" lon="5.97124">
        <ele>2379</ele>
        <time>2024-10-15T11:26:23.000Z</time>
      </trkpt>
      <trkpt lat="45.09319" lon="5.97124">
        <ele>2379</ele>
        <time>2024-10-15T11:26:24.000Z</time>
      </trkpt>
      <trkpt lat="45.09319" lon="5.97123">
        <ele>2379</ele>
        <time>2024-10-15T11:26:25.000Z</time>
      </trkpt>
      <trkpt lat="45.09318" lon="5.97123">
        <ele>2379</ele>
        <time>2024-10-15T11:26:26.000Z</time>
      </trkpt>
      <trkpt lat="45.09319" lon="5.97122">
        <ele>2379</ele>
        <time>2024-10-15T11:26:27.000Z</time>
      </trkpt>
      <trkpt lat="45.09318" lon="5.97122">
        <ele>2379</ele>
        <time>2024-10-15T11:26:28.000Z</time>
      </trkpt>
      <trkpt lat="45.09318" lon="5.97121">
        <ele>2379</ele>
        <time>2024-10-15T11:26:29.000Z</time>
      </trkpt>
      <trkpt lat="45.09318" lon="5.97121">
        <ele>2379</ele>
        <time>2024-10-15T11:26:30.000Z</time>
      </trkpt>
      <trkpt lat="45.09318" lon="5.97121">
        <ele>2379.1999511719</ele>
        <time>2024-10-15T11:26:31.000Z</time>
      </trkpt>
      <trkpt lat="45.09318" lon="5.97121">
        <ele>2379.6000976562</ele>
        <time>2024-10-15T11:26:32.000Z</time>
      </trkpt>
      <trkpt lat="45.09318" lon="5.97121">
        <ele>2379.6000976562</ele>
        <time>2024-10-15T11:26:33.000Z</time>
      </trkpt>
      <trkpt lat="45.09318" lon="5.97121">
        <ele>2379.6000976562</ele>
        <time>2024-10-15T11:26:34.000Z</time>
      </trkpt>
      <trkpt lat="45.09318" lon="5.97121">
        <ele>2379.8000488281</ele>
        <time>2024-10-15T11:26:35.000Z</time>
      </trkpt>
      <trkpt lat="45.09318" lon="5.97121">
        <ele>2380</ele>
        <time>2024-10-15T11:26:36.000Z</time>
      </trkpt>
      <trkpt lat="45.09318" lon="5.97121">
        <ele>2380.1999511719</ele>
        <time>2024-10-15T11:26:37.000Z</time>
      </trkpt>
      <trkpt lat="45.09318" lon="5.97121">
        <ele>2380.3999023438</ele>
        <time>2024-10-15T11:26:38.000Z</time>
      </trkpt>
      <trkpt lat="45.09318" lon="5.97121">
        <ele>2380.6000976562</ele>
        <time>2024-10-15T11:26:39.000Z</time>
      </trkpt>
      <trkpt lat="45.09318" lon="5.97121">
        <ele>2380.8000488281</ele>
        <time>2024-10-15T11:26:40.000Z</time>
      </trkpt>
      <trkpt lat="45.09318" lon="5.97121">
        <ele>2381</ele>
        <time>2024-10-15T11:26:41.000Z</time>
      </trkpt>
      <trkpt lat="45.09318" lon="5.97121">
        <ele>2381.1999511719</ele>
        <time>2024-10-15T11:26:42.000Z</time>
      </trkpt>
      <trkpt lat="45.09318" lon="5.97121">
        <ele>2381.1999511719</ele>
        <time>2024-10-15T11:26:43.000Z</time>
      </trkpt>
      <trkpt lat="45.09318" lon="5.97121">
        <ele>2381.3999023438</ele>
        <time>2024-10-15T11:26:44.000Z</time>
      </trkpt>
      <trkpt lat="45.09318" lon="5.97121">
        <ele>2381.6000976562</ele>
        <time>2024-10-15T11:26:45.000Z</time>
      </trkpt>
      <trkpt lat="45.09318" lon="5.97121">
        <ele>2381.8000488281</ele>
        <time>2024-10-15T11:26:46.000Z</time>
      </trkpt>
      <trkpt lat="45.09317" lon="5.97121">
        <ele>2382</ele>
        <time>2024-10-15T11:26:47.000Z</time>
      </trkpt>
      <trkpt lat="45.09317" lon="5.97121">
        <ele>2382.1999511719</ele>
        <time>2024-10-15T11:26:48.000Z</time>
      </trkpt>
      <trkpt lat="45.09316" lon="5.97121">
        <ele>2382.3999023438</ele>
        <time>2024-10-15T11:26:49.000Z</time>
      </trkpt>
      <trkpt lat="45.09316" lon="5.97121">
        <ele>2382.6000976562</ele>
        <time>2024-10-15T11:26:50.000Z</time>
      </trkpt>
      <trkpt lat="45.09316" lon="5.9712">
        <ele>2383</ele>
        <time>2024-10-15T11:26:51.000Z</time>
      </trkpt>
      <trkpt lat="45.09315" lon="5.9712">
        <ele>2383.1999511719</ele>
        <time>2024-10-15T11:26:52.000Z</time>
      </trkpt>
      <trkpt lat="45.09315" lon="5.97119">
        <ele>2383.3999023438</ele>
        <time>2024-10-15T11:26:53.000Z</time>
      </trkpt>
      <trkpt lat="45.09314" lon="5.97119">
        <ele>2383.3999023438</ele>
        <time>2024-10-15T11:26:54.000Z</time>
      </trkpt>
      <trkpt lat="45.09314" lon="5.97119">
        <ele>2383.8000488281</ele>
        <time>2024-10-15T11:26:55.000Z</time>
      </trkpt>
      <trkpt lat="45.09314" lon="5.97118">
        <ele>2384.1999511719</ele>
        <time>2024-10-15T11:26:56.000Z</time>
      </trkpt>
      <trkpt lat="45.09314" lon="5.97118">
        <ele>2384.1999511719</ele>
        <time>2024-10-15T11:26:57.000Z</time>
      </trkpt>
      <trkpt lat="45.09313" lon="5.97117">
        <ele>2384.1999511719</ele>
        <time>2024-10-15T11:26:58.000Z</time>
      </trkpt>
      <trkpt lat="45.09312" lon="5.97117">
        <ele>2384.3999023438</ele>
        <time>2024-10-15T11:26:59.000Z</time>
      </trkpt>
      <trkpt lat="45.09312" lon="5.97117">
        <ele>2384.6000976562</ele>
        <time>2024-10-15T11:27:00.000Z</time>
      </trkpt>
      <trkpt lat="45.09312" lon="5.97117">
        <ele>2384.6000976562</ele>
        <time>2024-10-15T11:27:01.000Z</time>
      </trkpt>
      <trkpt lat="45.09311" lon="5.97117">
        <ele>2384.8000488281</ele>
        <time>2024-10-15T11:27:02.000Z</time>
      </trkpt>
      <trkpt lat="45.09311" lon="5.97116">
        <ele>2385</ele>
        <time>2024-10-15T11:27:03.000Z</time>
      </trkpt>
      <trkpt lat="45.0931" lon="5.97116">
        <ele>2385.1999511719</ele>
        <time>2024-10-15T11:27:04.000Z</time>
      </trkpt>
      <trkpt lat="45.0931" lon="5.97116">
        <ele>2385.3999023438</ele>
        <time>2024-10-15T11:27:05.000Z</time>
      </trkpt>
      <trkpt lat="45.0931" lon="5.97116">
        <ele>2385.6000976562</ele>
        <time>2024-10-15T11:27:06.000Z</time>
      </trkpt>
      <trkpt lat="45.09309" lon="5.97115">
        <ele>2385.6000976562</ele>
        <time>2024-10-15T11:27:07.000Z</time>
      </trkpt>
      <trkpt lat="45.09309" lon="5.97115">
        <ele>2386.1999511719</ele>
        <time>2024-10-15T11:27:08.000Z</time>
      </trkpt>
      <trkpt lat="45.09309" lon="5.97115">
        <ele>2386.3999023438</ele>
        <time>2024-10-15T11:27:09.000Z</time>
      </trkpt>
      <trkpt lat="45.09309" lon="5.97115">
        <ele>2386.3999023438</ele>
        <time>2024-10-15T11:27:10.000Z</time>
      </trkpt>
      <trkpt lat="45.09309" lon="5.97115">
        <ele>2386.6000976562</ele>
        <time>2024-10-15T11:27:11.000Z</time>
      </trkpt>
      <trkpt lat="45.09309" lon="5.97115">
        <ele>2387</ele>
        <time>2024-10-15T11:27:12.000Z</time>
      </trkpt>
      <trkpt lat="45.09309" lon="5.97115">
        <ele>2387</ele>
        <time>2024-10-15T11:27:13.000Z</time>
      </trkpt>
      <trkpt lat="45.09309" lon="5.97115">
        <ele>2387</ele>
        <time>2024-10-15T11:27:14.000Z</time>
      </trkpt>
      <trkpt lat="45.09308" lon="5.97115">
        <ele>2387.1999511719</ele>
        <time>2024-10-15T11:27:15.000Z</time>
      </trkpt>
      <trkpt lat="45.09308" lon="5.97115">
        <ele>2387.1999511719</ele>
        <time>2024-10-15T11:27:16.000Z</time>
      </trkpt>
      <trkpt lat="45.09308" lon="5.97115">
        <ele>2387.1999511719</ele>
        <time>2024-10-15T11:27:17.000Z</time>
      </trkpt>
      <trkpt lat="45.09308" lon="5.97115">
        <ele>2387.3999023438</ele>
        <time>2024-10-15T11:27:18.000Z</time>
      </trkpt>
      <trkpt lat="45.09307" lon="5.97115">
        <ele>2387.8000488281</ele>
        <time>2024-10-15T11:27:19.000Z</time>
      </trkpt>
      <trkpt lat="45.09307" lon="5.97115">
        <ele>2387.8000488281</ele>
        <time>2024-10-15T11:27:20.000Z</time>
      </trkpt>
      <trkpt lat="45.09307" lon="5.97115">
        <ele>2387.8000488281</ele>
        <time>2024-10-15T11:27:21.000Z</time>
      </trkpt>
      <trkpt lat="45.09306" lon="5.97115">
        <ele>2387.8000488281</ele>
        <time>2024-10-15T11:27:22.000Z</time>
      </trkpt>
      <trkpt lat="45.09305" lon="5.97115">
        <ele>2387.8000488281</ele>
        <time>2024-10-15T11:27:23.000Z</time>
      </trkpt>
      <trkpt lat="45.09305" lon="5.97115">
        <ele>2387.8000488281</ele>
        <time>2024-10-15T11:27:24.000Z</time>
      </trkpt>
      <trkpt lat="45.09305" lon="5.97115">
        <ele>2387.8000488281</ele>
        <time>2024-10-15T11:27:25.000Z</time>
      </trkpt>
      <trkpt lat="45.09304" lon="5.97115">
        <ele>2387.8000488281</ele>
        <time>2024-10-15T11:27:26.000Z</time>
      </trkpt>
      <trkpt lat="45.09304" lon="5.97115">
        <ele>2387.8000488281</ele>
        <time>2024-10-15T11:27:27.000Z</time>
      </trkpt>
      <trkpt lat="45.09303" lon="5.97115">
        <ele>2387.8000488281</ele>
        <time>2024-10-15T11:27:28.000Z</time>
      </trkpt>
      <trkpt lat="45.09302" lon="5.97115">
        <ele>2387.8000488281</ele>
        <time>2024-10-15T11:27:29.000Z</time>
      </trkpt>
      <trkpt lat="45.09302" lon="5.97115">
        <ele>2387.8000488281</ele>
        <time>2024-10-15T11:27:30.000Z</time>
      </trkpt>
      <trkpt lat="45.09301" lon="5.97116">
        <ele>2387.8000488281</ele>
        <time>2024-10-15T11:27:31.000Z</time>
      </trkpt>
      <trkpt lat="45.09301" lon="5.97116">
        <ele>2387.8000488281</ele>
        <time>2024-10-15T11:27:32.000Z</time>
      </trkpt>
      <trkpt lat="45.09301" lon="5.97116">
        <ele>2388</ele>
        <time>2024-10-15T11:27:33.000Z</time>
      </trkpt>
      <trkpt lat="45.093" lon="5.97116">
        <ele>2388</ele>
        <time>2024-10-15T11:27:34.000Z</time>
      </trkpt>
      <trkpt lat="45.093" lon="5.97116">
        <ele>2388</ele>
        <time>2024-10-15T11:27:35.000Z</time>
      </trkpt>
      <trkpt lat="45.093" lon="5.97116">
        <ele>2388</ele>
        <time>2024-10-15T11:27:36.000Z</time>
      </trkpt>
      <trkpt lat="45.093" lon="5.97116">
        <ele>2388</ele>
        <time>2024-10-15T11:27:37.000Z</time>
      </trkpt>
      <trkpt lat="45.093" lon="5.97116">
        <ele>2387.8000488281</ele>
        <time>2024-10-15T11:27:38.000Z</time>
      </trkpt>
      <trkpt lat="45.093" lon="5.97116">
        <ele>2387.8000488281</ele>
        <time>2024-10-15T11:27:39.000Z</time>
      </trkpt>
      <trkpt lat="45.093" lon="5.97116">
        <ele>2387.8000488281</ele>
        <time>2024-10-15T11:27:40.000Z</time>
      </trkpt>
      <trkpt lat="45.093" lon="5.97116">
        <ele>2387.6000976562</ele>
        <time>2024-10-15T11:27:41.000Z</time>
      </trkpt>
      <trkpt lat="45.093" lon="5.97116">
        <ele>2387.6000976562</ele>
        <time>2024-10-15T11:27:42.000Z</time>
      </trkpt>
      <trkpt lat="45.093" lon="5.97117">
        <ele>2387.3999023438</ele>
        <time>2024-10-15T11:27:43.000Z</time>
      </trkpt>
      <trkpt lat="45.093" lon="5.97117">
        <ele>2387.1999511719</ele>
        <time>2024-10-15T11:27:44.000Z</time>
      </trkpt>
      <trkpt lat="45.093" lon="5.97117">
        <ele>2387.1999511719</ele>
        <time>2024-10-15T11:27:45.000Z</time>
      </trkpt>
      <trkpt lat="45.093" lon="5.97117">
        <ele>2387.1999511719</ele>
        <time>2024-10-15T11:27:46.000Z</time>
      </trkpt>
      <trkpt lat="45.093" lon="5.97117">
        <ele>2387.1999511719</ele>
        <time>2024-10-15T11:27:47.000Z</time>
      </trkpt>
      <trkpt lat="45.093" lon="5.97117">
        <ele>2387.1999511719</ele>
        <time>2024-10-15T11:27:48.000Z</time>
      </trkpt>
      <trkpt lat="45.093" lon="5.97117">
        <ele>2387.1999511719</ele>
        <time>2024-10-15T11:27:49.000Z</time>
      </trkpt>
      <trkpt lat="45.093" lon="5.97117">
        <ele>2387.1999511719</ele>
        <time>2024-10-15T11:27:50.000Z</time>
      </trkpt>
      <trkpt lat="45.093" lon="5.97117">
        <ele>2387.1999511719</ele>
        <time>2024-10-15T11:27:51.000Z</time>
      </trkpt>
      <trkpt lat="45.093" lon="5.97117">
        <ele>2387.1999511719</ele>
        <time>2024-10-15T11:27:52.000Z</time>
      </trkpt>
      <trkpt lat="45.093" lon="5.97117">
        <ele>2387.1999511719</ele>
        <time>2024-10-15T11:27:53.000Z</time>
      </trkpt>
      <trkpt lat="45.093" lon="5.97117">
        <ele>2387.1999511719</ele>
        <time>2024-10-15T11:27:54.000Z</time>
      </trkpt>
      <trkpt lat="45.093" lon="5.97117">
        <ele>2387.1999511719</ele>
        <time>2024-10-15T11:27:55.000Z</time>
      </trkpt>
      <trkpt lat="45.093" lon="5.97117">
        <ele>2387.1999511719</ele>
        <time>2024-10-15T11:27:56.000Z</time>
      </trkpt>
      <trkpt lat="45.093" lon="5.97117">
        <ele>2387.1999511719</ele>
        <time>2024-10-15T11:27:57.000Z</time>
      </trkpt>
      <trkpt lat="45.093" lon="5.97117">
        <ele>2387.1999511719</ele>
        <time>2024-10-15T11:27:58.000Z</time>
      </trkpt>
      <trkpt lat="45.09299" lon="5.97117">
        <ele>2387.6000976562</ele>
        <time>2024-10-15T11:27:59.000Z</time>
      </trkpt>
      <trkpt lat="45.09298" lon="5.97118">
        <ele>2387.8000488281</ele>
        <time>2024-10-15T11:28:00.000Z</time>
      </trkpt>
      <trkpt lat="45.09297" lon="5.97118">
        <ele>2388</ele>
        <time>2024-10-15T11:28:01.000Z</time>
      </trkpt>
      <trkpt lat="45.09296" lon="5.97119">
        <ele>2388.1999511719</ele>
        <time>2024-10-15T11:28:02.000Z</time>
      </trkpt>
      <trkpt lat="45.09294" lon="5.97119">
        <ele>2388.3999023438</ele>
        <time>2024-10-15T11:28:03.000Z</time>
      </trkpt>
      <trkpt lat="45.09293" lon="5.9712">
        <ele>2388.8000488281</ele>
        <time>2024-10-15T11:28:04.000Z</time>
      </trkpt>
      <trkpt lat="45.09293" lon="5.9712">
        <ele>2389.1999511719</ele>
        <time>2024-10-15T11:28:05.000Z</time>
      </trkpt>
      <trkpt lat="45.09292" lon="5.97121">
        <ele>2389.1999511719</ele>
        <time>2024-10-15T11:28:06.000Z</time>
      </trkpt>
      <trkpt lat="45.09291" lon="5.97121">
        <ele>2389.3999023438</ele>
        <time>2024-10-15T11:28:07.000Z</time>
      </trkpt>
      <trkpt lat="45.0929" lon="5.97121">
        <ele>2389.6000976562</ele>
        <time>2024-10-15T11:28:08.000Z</time>
      </trkpt>
      <trkpt lat="45.0929" lon="5.97122">
        <ele>2390</ele>
        <time>2024-10-15T11:28:09.000Z</time>
      </trkpt>
      <trkpt lat="45.09289" lon="5.97122">
        <ele>2390.1999511719</ele>
        <time>2024-10-15T11:28:10.000Z</time>
      </trkpt>
      <trkpt lat="45.09289" lon="5.97122">
        <ele>2390.3999023438</ele>
        <time>2024-10-15T11:28:11.000Z</time>
      </trkpt>
      <trkpt lat="45.09289" lon="5.97122">
        <ele>2390.6000976562</ele>
        <time>2024-10-15T11:28:12.000Z</time>
      </trkpt>
      <trkpt lat="45.09289" lon="5.97123">
        <ele>2390.8000488281</ele>
        <time>2024-10-15T11:28:13.000Z</time>
      </trkpt>
      <trkpt lat="45.09288" lon="5.97123">
        <ele>2390.8000488281</ele>
        <time>2024-10-15T11:28:14.000Z</time>
      </trkpt>
      <trkpt lat="45.09288" lon="5.97123">
        <ele>2391</ele>
        <time>2024-10-15T11:28:15.000Z</time>
      </trkpt>
      <trkpt lat="45.09288" lon="5.97124">
        <ele>2391.3999023438</ele>
        <time>2024-10-15T11:28:16.000Z</time>
      </trkpt>
      <trkpt lat="45.09287" lon="5.97123">
        <ele>2391.3999023438</ele>
        <time>2024-10-15T11:28:17.000Z</time>
      </trkpt>
      <trkpt lat="45.09286" lon="5.97124">
        <ele>2391.8000488281</ele>
        <time>2024-10-15T11:28:18.000Z</time>
      </trkpt>
      <trkpt lat="45.09285" lon="5.97124">
        <ele>2392.1999511719</ele>
        <time>2024-10-15T11:28:19.000Z</time>
      </trkpt>
      <trkpt lat="45.09285" lon="5.97124">
        <ele>2392.3999023438</ele>
        <time>2024-10-15T11:28:20.000Z</time>
      </trkpt>
      <trkpt lat="45.09285" lon="5.97124">
        <ele>2392.6000976562</ele>
        <time>2024-10-15T11:28:21.000Z</time>
      </trkpt>
      <trkpt lat="45.09284" lon="5.97124">
        <ele>2392.8000488281</ele>
        <time>2024-10-15T11:28:22.000Z</time>
      </trkpt>
      <trkpt lat="45.09284" lon="5.97124">
        <ele>2393</ele>
        <time>2024-10-15T11:28:23.000Z</time>
      </trkpt>
      <trkpt lat="45.09284" lon="5.97125">
        <ele>2393.1999511719</ele>
        <time>2024-10-15T11:28:24.000Z</time>
      </trkpt>
      <trkpt lat="45.09283" lon="5.97125">
        <ele>2393.3999023438</ele>
        <time>2024-10-15T11:28:25.000Z</time>
      </trkpt>
      <trkpt lat="45.09283" lon="5.97126">
        <ele>2393.3999023438</ele>
        <time>2024-10-15T11:28:26.000Z</time>
      </trkpt>
      <trkpt lat="45.09282" lon="5.97126">
        <ele>2393.8000488281</ele>
        <time>2024-10-15T11:28:27.000Z</time>
      </trkpt>
      <trkpt lat="45.09282" lon="5.97126">
        <ele>2394</ele>
        <time>2024-10-15T11:28:28.000Z</time>
      </trkpt>
      <trkpt lat="45.09282" lon="5.97127">
        <ele>2394.1999511719</ele>
        <time>2024-10-15T11:28:29.000Z</time>
      </trkpt>
      <trkpt lat="45.09281" lon="5.97127">
        <ele>2394.3999023438</ele>
        <time>2024-10-15T11:28:30.000Z</time>
      </trkpt>
      <trkpt lat="45.09281" lon="5.97127">
        <ele>2394.3999023438</ele>
        <time>2024-10-15T11:28:31.000Z</time>
      </trkpt>
      <trkpt lat="45.0928" lon="5.97127">
        <ele>2394.8000488281</ele>
        <time>2024-10-15T11:28:32.000Z</time>
      </trkpt>
      <trkpt lat="45.0928" lon="5.97127">
        <ele>2395</ele>
        <time>2024-10-15T11:28:33.000Z</time>
      </trkpt>
      <trkpt lat="45.0928" lon="5.97128">
        <ele>2395.1999511719</ele>
        <time>2024-10-15T11:28:34.000Z</time>
      </trkpt>
      <trkpt lat="45.09279" lon="5.97128">
        <ele>2395.3999023438</ele>
        <time>2024-10-15T11:28:35.000Z</time>
      </trkpt>
      <trkpt lat="45.09279" lon="5.97129">
        <ele>2395.6000976562</ele>
        <time>2024-10-15T11:28:36.000Z</time>
      </trkpt>
      <trkpt lat="45.09279" lon="5.97129">
        <ele>2396</ele>
        <time>2024-10-15T11:28:37.000Z</time>
      </trkpt>
      <trkpt lat="45.09278" lon="5.97129">
        <ele>2396.1999511719</ele>
        <time>2024-10-15T11:28:38.000Z</time>
      </trkpt>
      <trkpt lat="45.09277" lon="5.9713">
        <ele>2396.3999023438</ele>
        <time>2024-10-15T11:28:39.000Z</time>
      </trkpt>
      <trkpt lat="45.09277" lon="5.9713">
        <ele>2396.8000488281</ele>
        <time>2024-10-15T11:28:40.000Z</time>
      </trkpt>
      <trkpt lat="45.09277" lon="5.9713">
        <ele>2396.8000488281</ele>
        <time>2024-10-15T11:28:41.000Z</time>
      </trkpt>
      <trkpt lat="45.09277" lon="5.9713">
        <ele>2397.1999511719</ele>
        <time>2024-10-15T11:28:42.000Z</time>
      </trkpt>
      <trkpt lat="45.09277" lon="5.9713">
        <ele>2397.3999023438</ele>
        <time>2024-10-15T11:28:43.000Z</time>
      </trkpt>
      <trkpt lat="45.09276" lon="5.9713">
        <ele>2397.6000976562</ele>
        <time>2024-10-15T11:28:44.000Z</time>
      </trkpt>
      <trkpt lat="45.09276" lon="5.9713">
        <ele>2397.8000488281</ele>
        <time>2024-10-15T11:28:45.000Z</time>
      </trkpt>
      <trkpt lat="45.09276" lon="5.9713">
        <ele>2398</ele>
        <time>2024-10-15T11:28:46.000Z</time>
      </trkpt>
      <trkpt lat="45.09275" lon="5.9713">
        <ele>2398.1999511719</ele>
        <time>2024-10-15T11:28:47.000Z</time>
      </trkpt>
      <trkpt lat="45.09275" lon="5.9713">
        <ele>2398.3999023438</ele>
        <time>2024-10-15T11:28:48.000Z</time>
      </trkpt>
      <trkpt lat="45.09275" lon="5.9713">
        <ele>2398.6000976562</ele>
        <time>2024-10-15T11:28:49.000Z</time>
      </trkpt>
      <trkpt lat="45.09275" lon="5.97131">
        <ele>2398.8000488281</ele>
        <time>2024-10-15T11:28:50.000Z</time>
      </trkpt>
      <trkpt lat="45.09275" lon="5.97132">
        <ele>2399</ele>
        <time>2024-10-15T11:28:51.000Z</time>
      </trkpt>
      <trkpt lat="45.09275" lon="5.97132">
        <ele>2399</ele>
        <time>2024-10-15T11:28:52.000Z</time>
      </trkpt>
      <trkpt lat="45.09275" lon="5.97133">
        <ele>2399.1999511719</ele>
        <time>2024-10-15T11:28:53.000Z</time>
      </trkpt>
      <trkpt lat="45.09275" lon="5.97133">
        <ele>2399.3999023438</ele>
        <time>2024-10-15T11:28:54.000Z</time>
      </trkpt>
      <trkpt lat="45.09274" lon="5.97133">
        <ele>2399.6000976562</ele>
        <time>2024-10-15T11:28:55.000Z</time>
      </trkpt>
      <trkpt lat="45.09274" lon="5.97133">
        <ele>2400</ele>
        <time>2024-10-15T11:28:56.000Z</time>
      </trkpt>
      <trkpt lat="45.09273" lon="5.97133">
        <ele>2400.3999023438</ele>
        <time>2024-10-15T11:28:57.000Z</time>
      </trkpt>
      <trkpt lat="45.09273" lon="5.97133">
        <ele>2400.6000976562</ele>
        <time>2024-10-15T11:28:58.000Z</time>
      </trkpt>
      <trkpt lat="45.09273" lon="5.97133">
        <ele>2400.8000488281</ele>
        <time>2024-10-15T11:28:59.000Z</time>
      </trkpt>
      <trkpt lat="45.09273" lon="5.97133">
        <ele>2401.1999511719</ele>
        <time>2024-10-15T11:29:00.000Z</time>
      </trkpt>
      <trkpt lat="45.09273" lon="5.97134">
        <ele>2401.3999023438</ele>
        <time>2024-10-15T11:29:01.000Z</time>
      </trkpt>
      <trkpt lat="45.09273" lon="5.97135">
        <ele>2401.6000976562</ele>
        <time>2024-10-15T11:29:02.000Z</time>
      </trkpt>
      <trkpt lat="45.09273" lon="5.97135">
        <ele>2401.6000976562</ele>
        <time>2024-10-15T11:29:03.000Z</time>
      </trkpt>
      <trkpt lat="45.09273" lon="5.97135">
        <ele>2401.6000976562</ele>
        <time>2024-10-15T11:29:04.000Z</time>
      </trkpt>
      <trkpt lat="45.09272" lon="5.97136">
        <ele>2401.8000488281</ele>
        <time>2024-10-15T11:29:05.000Z</time>
      </trkpt>
      <trkpt lat="45.09272" lon="5.97136">
        <ele>2402</ele>
        <time>2024-10-15T11:29:06.000Z</time>
      </trkpt>
      <trkpt lat="45.09272" lon="5.97137">
        <ele>2402</ele>
        <time>2024-10-15T11:29:07.000Z</time>
      </trkpt>
      <trkpt lat="45.09271" lon="5.97137">
        <ele>2402</ele>
        <time>2024-10-15T11:29:08.000Z</time>
      </trkpt>
      <trkpt lat="45.09271" lon="5.97137">
        <ele>2402.1999511719</ele>
        <time>2024-10-15T11:29:09.000Z</time>
      </trkpt>
      <trkpt lat="45.09271" lon="5.97138">
        <ele>2402.6000976562</ele>
        <time>2024-10-15T11:29:10.000Z</time>
      </trkpt>
      <trkpt lat="45.09271" lon="5.97138">
        <ele>2402.8000488281</ele>
        <time>2024-10-15T11:29:11.000Z</time>
      </trkpt>
      <trkpt lat="45.09271" lon="5.97139">
        <ele>2403</ele>
        <time>2024-10-15T11:29:12.000Z</time>
      </trkpt>
      <trkpt lat="45.09271" lon="5.97139">
        <ele>2403.1999511719</ele>
        <time>2024-10-15T11:29:13.000Z</time>
      </trkpt>
      <trkpt lat="45.09271" lon="5.97141">
        <ele>2403.3999023438</ele>
        <time>2024-10-15T11:29:14.000Z</time>
      </trkpt>
      <trkpt lat="45.0927" lon="5.97142">
        <ele>2403.6000976562</ele>
        <time>2024-10-15T11:29:15.000Z</time>
      </trkpt>
      <trkpt lat="45.0927" lon="5.97142">
        <ele>2403.6000976562</ele>
        <time>2024-10-15T11:29:16.000Z</time>
      </trkpt>
      <trkpt lat="45.0927" lon="5.97142">
        <ele>2403.6000976562</ele>
        <time>2024-10-15T11:29:17.000Z</time>
      </trkpt>
      <trkpt lat="45.0927" lon="5.97143">
        <ele>2403.6000976562</ele>
        <time>2024-10-15T11:29:18.000Z</time>
      </trkpt>
      <trkpt lat="45.0927" lon="5.97143">
        <ele>2403.8000488281</ele>
        <time>2024-10-15T11:29:19.000Z</time>
      </trkpt>
      <trkpt lat="45.0927" lon="5.97143">
        <ele>2404</ele>
        <time>2024-10-15T11:29:20.000Z</time>
      </trkpt>
      <trkpt lat="45.0927" lon="5.97144">
        <ele>2404.1999511719</ele>
        <time>2024-10-15T11:29:21.000Z</time>
      </trkpt>
      <trkpt lat="45.0927" lon="5.97144">
        <ele>2404.3999023438</ele>
        <time>2024-10-15T11:29:22.000Z</time>
      </trkpt>
      <trkpt lat="45.0927" lon="5.97145">
        <ele>2404.6000976562</ele>
        <time>2024-10-15T11:29:23.000Z</time>
      </trkpt>
      <trkpt lat="45.0927" lon="5.97145">
        <ele>2404.8000488281</ele>
        <time>2024-10-15T11:29:24.000Z</time>
      </trkpt>
      <trkpt lat="45.09269" lon="5.97145">
        <ele>2405.1999511719</ele>
        <time>2024-10-15T11:29:25.000Z</time>
      </trkpt>
      <trkpt lat="45.09269" lon="5.97145">
        <ele>2405.3999023438</ele>
        <time>2024-10-15T11:29:26.000Z</time>
      </trkpt>
      <trkpt lat="45.09269" lon="5.97145">
        <ele>2405.6000976562</ele>
        <time>2024-10-15T11:29:27.000Z</time>
      </trkpt>
      <trkpt lat="45.09268" lon="5.97144">
        <ele>2405.8000488281</ele>
        <time>2024-10-15T11:29:28.000Z</time>
      </trkpt>
      <trkpt lat="45.09268" lon="5.97144">
        <ele>2406</ele>
        <time>2024-10-15T11:29:29.000Z</time>
      </trkpt>
      <trkpt lat="45.09268" lon="5.97144">
        <ele>2406.3999023438</ele>
        <time>2024-10-15T11:29:30.000Z</time>
      </trkpt>
      <trkpt lat="45.09267" lon="5.97144">
        <ele>2406.6000976562</ele>
        <time>2024-10-15T11:29:31.000Z</time>
      </trkpt>
      <trkpt lat="45.09267" lon="5.97144">
        <ele>2406.8000488281</ele>
        <time>2024-10-15T11:29:32.000Z</time>
      </trkpt>
      <trkpt lat="45.09267" lon="5.97144">
        <ele>2407</ele>
        <time>2024-10-15T11:29:33.000Z</time>
      </trkpt>
      <trkpt lat="45.09267" lon="5.97144">
        <ele>2407.1999511719</ele>
        <time>2024-10-15T11:29:34.000Z</time>
      </trkpt>
      <trkpt lat="45.09267" lon="5.97144">
        <ele>2407.1999511719</ele>
        <time>2024-10-15T11:29:35.000Z</time>
      </trkpt>
      <trkpt lat="45.09267" lon="5.97144">
        <ele>2407.3999023438</ele>
        <time>2024-10-15T11:29:36.000Z</time>
      </trkpt>
      <trkpt lat="45.09267" lon="5.97144">
        <ele>2407.3999023438</ele>
        <time>2024-10-15T11:29:37.000Z</time>
      </trkpt>
      <trkpt lat="45.09267" lon="5.97144">
        <ele>2407.3999023438</ele>
        <time>2024-10-15T11:29:38.000Z</time>
      </trkpt>
      <trkpt lat="45.09267" lon="5.97144">
        <ele>2407.6000976562</ele>
        <time>2024-10-15T11:29:39.000Z</time>
      </trkpt>
      <trkpt lat="45.09267" lon="5.97144">
        <ele>2407.6000976562</ele>
        <time>2024-10-15T11:29:40.000Z</time>
      </trkpt>
      <trkpt lat="45.09267" lon="5.97144">
        <ele>2408</ele>
        <time>2024-10-15T11:29:41.000Z</time>
      </trkpt>
      <trkpt lat="45.09267" lon="5.97144">
        <ele>2408.3999023438</ele>
        <time>2024-10-15T11:29:42.000Z</time>
      </trkpt>
      <trkpt lat="45.09267" lon="5.97144">
        <ele>2408.3999023438</ele>
        <time>2024-10-15T11:29:43.000Z</time>
      </trkpt>
      <trkpt lat="45.09267" lon="5.97144">
        <ele>2408.6000976562</ele>
        <time>2024-10-15T11:29:44.000Z</time>
      </trkpt>
      <trkpt lat="45.09267" lon="5.97144">
        <ele>2409.1999511719</ele>
        <time>2024-10-15T11:29:45.000Z</time>
      </trkpt>
      <trkpt lat="45.09267" lon="5.97144">
        <ele>2409.6000976562</ele>
        <time>2024-10-15T11:29:46.000Z</time>
      </trkpt>
      <trkpt lat="45.09267" lon="5.97144">
        <ele>2409.8000488281</ele>
        <time>2024-10-15T11:29:47.000Z</time>
      </trkpt>
      <trkpt lat="45.09267" lon="5.97144">
        <ele>2409.8000488281</ele>
        <time>2024-10-15T11:29:48.000Z</time>
      </trkpt>
      <trkpt lat="45.09267" lon="5.97143">
        <ele>2409.6000976562</ele>
        <time>2024-10-15T11:29:49.000Z</time>
      </trkpt>
      <trkpt lat="45.09267" lon="5.97143">
        <ele>2409.6000976562</ele>
        <time>2024-10-15T11:29:50.000Z</time>
      </trkpt>
      <trkpt lat="45.09266" lon="5.97143">
        <ele>2408.8000488281</ele>
        <time>2024-10-15T11:29:51.000Z</time>
      </trkpt>
      <trkpt lat="45.09266" lon="5.97143">
        <ele>2408.1999511719</ele>
        <time>2024-10-15T11:29:52.000Z</time>
      </trkpt>
      <trkpt lat="45.09266" lon="5.97143">
        <ele>2407.6000976562</ele>
        <time>2024-10-15T11:29:53.000Z</time>
      </trkpt>
      <trkpt lat="45.09265" lon="5.97143">
        <ele>2407.3999023438</ele>
        <time>2024-10-15T11:29:54.000Z</time>
      </trkpt>
      <trkpt lat="45.09265" lon="5.97143">
        <ele>2407.1999511719</ele>
        <time>2024-10-15T11:29:55.000Z</time>
      </trkpt>
      <trkpt lat="45.09265" lon="5.97143">
        <ele>2407.1999511719</ele>
        <time>2024-10-15T11:29:56.000Z</time>
      </trkpt>
      <trkpt lat="45.09264" lon="5.97143">
        <ele>2407</ele>
        <time>2024-10-15T11:29:57.000Z</time>
      </trkpt>
      <trkpt lat="45.09264" lon="5.97143">
        <ele>2407</ele>
        <time>2024-10-15T11:29:58.000Z</time>
      </trkpt>
      <trkpt lat="45.09264" lon="5.97142">
        <ele>2407</ele>
        <time>2024-10-15T11:29:59.000Z</time>
      </trkpt>
      <trkpt lat="45.09264" lon="5.97142">
        <ele>2407</ele>
        <time>2024-10-15T11:30:00.000Z</time>
      </trkpt>
      <trkpt lat="45.09264" lon="5.97142">
        <ele>2407.3999023438</ele>
        <time>2024-10-15T11:30:01.000Z</time>
      </trkpt>
      <trkpt lat="45.09264" lon="5.97142">
        <ele>2407.8000488281</ele>
        <time>2024-10-15T11:30:02.000Z</time>
      </trkpt>
      <trkpt lat="45.09264" lon="5.97142">
        <ele>2407.8000488281</ele>
        <time>2024-10-15T11:30:03.000Z</time>
      </trkpt>
      <trkpt lat="45.09264" lon="5.97142">
        <ele>2407.8000488281</ele>
        <time>2024-10-15T11:30:04.000Z</time>
      </trkpt>
      <trkpt lat="45.09264" lon="5.97142">
        <ele>2408</ele>
        <time>2024-10-15T11:30:05.000Z</time>
      </trkpt>
      <trkpt lat="45.09264" lon="5.97142">
        <ele>2408</ele>
        <time>2024-10-15T11:30:06.000Z</time>
      </trkpt>
      <trkpt lat="45.09264" lon="5.97142">
        <ele>2408.1999511719</ele>
        <time>2024-10-15T11:30:07.000Z</time>
      </trkpt>
      <trkpt lat="45.09264" lon="5.97142">
        <ele>2408.3999023438</ele>
        <time>2024-10-15T11:30:08.000Z</time>
      </trkpt>
      <trkpt lat="45.09264" lon="5.97142">
        <ele>2408.3999023438</ele>
        <time>2024-10-15T11:30:09.000Z</time>
      </trkpt>
      <trkpt lat="45.09264" lon="5.97142">
        <ele>2408.3999023438</ele>
        <time>2024-10-15T11:30:10.000Z</time>
      </trkpt>
      <trkpt lat="45.09264" lon="5.97142">
        <ele>2408.6000976562</ele>
        <time>2024-10-15T11:30:11.000Z</time>
      </trkpt>
      <trkpt lat="45.09264" lon="5.97142">
        <ele>2408.6000976562</ele>
        <time>2024-10-15T11:30:12.000Z</time>
      </trkpt>
      <trkpt lat="45.09264" lon="5.97142">
        <ele>2408.6000976562</ele>
        <time>2024-10-15T11:30:13.000Z</time>
      </trkpt>
      <trkpt lat="45.09265" lon="5.97142">
        <ele>2408.6000976562</ele>
        <time>2024-10-15T11:30:14.000Z</time>
      </trkpt>
      <trkpt lat="45.09265" lon="5.97142">
        <ele>2408.6000976562</ele>
        <time>2024-10-15T11:30:15.000Z</time>
      </trkpt>
      <trkpt lat="45.09265" lon="5.97142">
        <ele>2408.6000976562</ele>
        <time>2024-10-15T11:30:16.000Z</time>
      </trkpt>
      <trkpt lat="45.09265" lon="5.97142">
        <ele>2408.6000976562</ele>
        <time>2024-10-15T11:30:17.000Z</time>
      </trkpt>
      <trkpt lat="45.09265" lon="5.97142">
        <ele>2408.3999023438</ele>
        <time>2024-10-15T11:30:18.000Z</time>
      </trkpt>
      <trkpt lat="45.09265" lon="5.97142">
        <ele>2408.3999023438</ele>
        <time>2024-10-15T11:30:19.000Z</time>
      </trkpt>
      <trkpt lat="45.09265" lon="5.97142">
        <ele>2408.3999023438</ele>
        <time>2024-10-15T11:30:20.000Z</time>
      </trkpt>
      <trkpt lat="45.09265" lon="5.97142">
        <ele>2408.6000976562</ele>
        <time>2024-10-15T11:30:21.000Z</time>
      </trkpt>
      <trkpt lat="45.09265" lon="5.97142">
        <ele>2409</ele>
        <time>2024-10-15T11:30:22.000Z</time>
      </trkpt>
      <trkpt lat="45.09265" lon="5.97142">
        <ele>2409.3999023438</ele>
        <time>2024-10-15T11:30:23.000Z</time>
      </trkpt>
      <trkpt lat="45.09265" lon="5.97142">
        <ele>2410.1999511719</ele>
        <time>2024-10-15T11:30:24.000Z</time>
      </trkpt>
      <trkpt lat="45.09265" lon="5.97142">
        <ele>2410.6000976562</ele>
        <time>2024-10-15T11:30:25.000Z</time>
      </trkpt>
      <trkpt lat="45.09265" lon="5.97142">
        <ele>2411.1999511719</ele>
        <time>2024-10-15T11:30:26.000Z</time>
      </trkpt>
      <trkpt lat="45.09265" lon="5.97142">
        <ele>2411.3999023438</ele>
        <time>2024-10-15T11:30:27.000Z</time>
      </trkpt>
      <trkpt lat="45.09265" lon="5.97142">
        <ele>2411.3999023438</ele>
        <time>2024-10-15T11:30:28.000Z</time>
      </trkpt>
      <trkpt lat="45.09265" lon="5.97142">
        <ele>2411.3999023438</ele>
        <time>2024-10-15T11:30:29.000Z</time>
      </trkpt>
      <trkpt lat="45.09265" lon="5.97142">
        <ele>2411.3999023438</ele>
        <time>2024-10-15T11:30:30.000Z</time>
      </trkpt>
      <trkpt lat="45.09265" lon="5.97142">
        <ele>2411.1999511719</ele>
        <time>2024-10-15T11:30:31.000Z</time>
      </trkpt>
      <trkpt lat="45.09265" lon="5.97142">
        <ele>2410.8000488281</ele>
        <time>2024-10-15T11:30:32.000Z</time>
      </trkpt>
      <trkpt lat="45.09265" lon="5.97142">
        <ele>2410.8000488281</ele>
        <time>2024-10-15T11:30:33.000Z</time>
      </trkpt>
      <trkpt lat="45.09265" lon="5.97142">
        <ele>2410.8000488281</ele>
        <time>2024-10-15T11:30:34.000Z</time>
      </trkpt>
      <trkpt lat="45.09265" lon="5.97142">
        <ele>2410.8000488281</ele>
        <time>2024-10-15T11:30:35.000Z</time>
      </trkpt>
      <trkpt lat="45.09265" lon="5.97142">
        <ele>2410.8000488281</ele>
        <time>2024-10-15T11:30:36.000Z</time>
      </trkpt>
      <trkpt lat="45.09265" lon="5.97142">
        <ele>2411.1999511719</ele>
        <time>2024-10-15T11:30:37.000Z</time>
      </trkpt>
      <trkpt lat="45.09265" lon="5.97142">
        <ele>2411.1999511719</ele>
        <time>2024-10-15T11:30:38.000Z</time>
      </trkpt>
      <trkpt lat="45.09265" lon="5.97142">
        <ele>2411.3999023438</ele>
        <time>2024-10-15T11:30:39.000Z</time>
      </trkpt>
      <trkpt lat="45.09265" lon="5.97142">
        <ele>2411.3999023438</ele>
        <time>2024-10-15T11:30:40.000Z</time>
      </trkpt>
      <trkpt lat="45.09265" lon="5.97142">
        <ele>2411.6000976562</ele>
        <time>2024-10-15T11:30:41.000Z</time>
      </trkpt>
      <trkpt lat="45.09265" lon="5.97142">
        <ele>2411.8000488281</ele>
        <time>2024-10-15T11:30:42.000Z</time>
      </trkpt>
      <trkpt lat="45.09265" lon="5.97142">
        <ele>2412.8000488281</ele>
        <time>2024-10-15T11:30:43.000Z</time>
      </trkpt>
      <trkpt lat="45.09265" lon="5.97142">
        <ele>2412.8000488281</ele>
        <time>2024-10-15T11:30:44.000Z</time>
      </trkpt>
      <trkpt lat="45.09265" lon="5.97142">
        <ele>2412.8000488281</ele>
        <time>2024-10-15T11:30:45.000Z</time>
      </trkpt>
      <trkpt lat="45.09265" lon="5.97142">
        <ele>2412.8000488281</ele>
        <time>2024-10-15T11:30:46.000Z</time>
      </trkpt>
      <trkpt lat="45.09265" lon="5.97142">
        <ele>2412.1999511719</ele>
        <time>2024-10-15T11:30:47.000Z</time>
      </trkpt>
      <trkpt lat="45.09265" lon="5.97142">
        <ele>2411</ele>
        <time>2024-10-15T11:30:48.000Z</time>
      </trkpt>
      <trkpt lat="45.09265" lon="5.97142">
        <ele>2410.3999023438</ele>
        <time>2024-10-15T11:30:49.000Z</time>
      </trkpt>
      <trkpt lat="45.09265" lon="5.97142">
        <ele>2410.3999023438</ele>
        <time>2024-10-15T11:30:50.000Z</time>
      </trkpt>
      <trkpt lat="45.09265" lon="5.97142">
        <ele>2410.3999023438</ele>
        <time>2024-10-15T11:30:51.000Z</time>
      </trkpt>
      <trkpt lat="45.09264" lon="5.97142">
        <ele>2410.3999023438</ele>
        <time>2024-10-15T11:30:52.000Z</time>
      </trkpt>
      <trkpt lat="45.09264" lon="5.97142">
        <ele>2410.8000488281</ele>
        <time>2024-10-15T11:30:53.000Z</time>
      </trkpt>
      <trkpt lat="45.09264" lon="5.97142">
        <ele>2411</ele>
        <time>2024-10-15T11:30:54.000Z</time>
      </trkpt>
      <trkpt lat="45.09264" lon="5.97142">
        <ele>2411.1999511719</ele>
        <time>2024-10-15T11:30:55.000Z</time>
      </trkpt>
      <trkpt lat="45.09264" lon="5.97142">
        <ele>2411.1999511719</ele>
        <time>2024-10-15T11:30:56.000Z</time>
      </trkpt>
      <trkpt lat="45.09264" lon="5.97142">
        <ele>2411.1999511719</ele>
        <time>2024-10-15T11:30:57.000Z</time>
      </trkpt>
      <trkpt lat="45.09264" lon="5.97142">
        <ele>2411.1999511719</ele>
        <time>2024-10-15T11:30:58.000Z</time>
      </trkpt>
      <trkpt lat="45.09264" lon="5.97142">
        <ele>2411.3999023438</ele>
        <time>2024-10-15T11:30:59.000Z</time>
      </trkpt>
      <trkpt lat="45.09264" lon="5.97142">
        <ele>2411.3999023438</ele>
        <time>2024-10-15T11:31:00.000Z</time>
      </trkpt>
      <trkpt lat="45.09264" lon="5.97142">
        <ele>2411.3999023438</ele>
        <time>2024-10-15T11:31:01.000Z</time>
      </trkpt>
      <trkpt lat="45.09264" lon="5.97142">
        <ele>2411.6000976562</ele>
        <time>2024-10-15T11:31:02.000Z</time>
      </trkpt>
      <trkpt lat="45.09264" lon="5.97142">
        <ele>2411.6000976562</ele>
        <time>2024-10-15T11:31:03.000Z</time>
      </trkpt>
      <trkpt lat="45.09264" lon="5.97141">
        <ele>2411.6000976562</ele>
        <time>2024-10-15T11:31:04.000Z</time>
      </trkpt>
      <trkpt lat="45.09264" lon="5.97141">
        <ele>2411</ele>
        <time>2024-10-15T11:31:05.000Z</time>
      </trkpt>
      <trkpt lat="45.09264" lon="5.97141">
        <ele>2410.3999023438</ele>
        <time>2024-10-15T11:31:06.000Z</time>
      </trkpt>
      <trkpt lat="45.09264" lon="5.9714">
        <ele>2410.3999023438</ele>
        <time>2024-10-15T11:31:07.000Z</time>
      </trkpt>
      <trkpt lat="45.09264" lon="5.9714">
        <ele>2410.1999511719</ele>
        <time>2024-10-15T11:31:08.000Z</time>
      </trkpt>
      <trkpt lat="45.09264" lon="5.9714">
        <ele>2410</ele>
        <time>2024-10-15T11:31:09.000Z</time>
      </trkpt>
      <trkpt lat="45.09264" lon="5.9714">
        <ele>2409.6000976562</ele>
        <time>2024-10-15T11:31:10.000Z</time>
      </trkpt>
      <trkpt lat="45.09264" lon="5.9714">
        <ele>2409.1999511719</ele>
        <time>2024-10-15T11:31:11.000Z</time>
      </trkpt>
      <trkpt lat="45.09264" lon="5.9714">
        <ele>2409.1999511719</ele>
        <time>2024-10-15T11:31:12.000Z</time>
      </trkpt>
      <trkpt lat="45.09264" lon="5.9714">
        <ele>2409.1999511719</ele>
        <time>2024-10-15T11:31:13.000Z</time>
      </trkpt>
      <trkpt lat="45.09264" lon="5.9714">
        <ele>2409.1999511719</ele>
        <time>2024-10-15T11:31:14.000Z</time>
      </trkpt>
      <trkpt lat="45.09264" lon="5.9714">
        <ele>2409.8000488281</ele>
        <time>2024-10-15T11:31:15.000Z</time>
      </trkpt>
      <trkpt lat="45.09264" lon="5.9714">
        <ele>2410.1999511719</ele>
        <time>2024-10-15T11:31:16.000Z</time>
      </trkpt>
      <trkpt lat="45.09264" lon="5.97139">
        <ele>2410.6000976562</ele>
        <time>2024-10-15T11:31:17.000Z</time>
      </trkpt>
      <trkpt lat="45.09264" lon="5.97139">
        <ele>2410.8000488281</ele>
        <time>2024-10-15T11:31:18.000Z</time>
      </trkpt>
      <trkpt lat="45.09264" lon="5.97139">
        <ele>2410.8000488281</ele>
        <time>2024-10-15T11:31:19.000Z</time>
      </trkpt>
      <trkpt lat="45.09264" lon="5.97139">
        <ele>2410.8000488281</ele>
        <time>2024-10-15T11:31:20.000Z</time>
      </trkpt>
      <trkpt lat="45.09264" lon="5.97139">
        <ele>2410.8000488281</ele>
        <time>2024-10-15T11:31:21.000Z</time>
      </trkpt>
      <trkpt lat="45.09264" lon="5.97139">
        <ele>2410.6000976562</ele>
        <time>2024-10-15T11:31:22.000Z</time>
      </trkpt>
      <trkpt lat="45.09264" lon="5.97139">
        <ele>2410.3999023438</ele>
        <time>2024-10-15T11:31:23.000Z</time>
      </trkpt>
      <trkpt lat="45.09264" lon="5.97139">
        <ele>2410.3999023438</ele>
        <time>2024-10-15T11:31:24.000Z</time>
      </trkpt>
      <trkpt lat="45.09264" lon="5.97139">
        <ele>2410.3999023438</ele>
        <time>2024-10-15T11:31:25.000Z</time>
      </trkpt>
      <trkpt lat="45.09264" lon="5.97139">
        <ele>2410.6000976562</ele>
        <time>2024-10-15T11:31:26.000Z</time>
      </trkpt>
      <trkpt lat="45.09264" lon="5.97139">
        <ele>2410.6000976562</ele>
        <time>2024-10-15T11:31:27.000Z</time>
      </trkpt>
      <trkpt lat="45.09264" lon="5.97139">
        <ele>2410.6000976562</ele>
        <time>2024-10-15T11:31:28.000Z</time>
      </trkpt>
      <trkpt lat="45.09264" lon="5.97139">
        <ele>2410.6000976562</ele>
        <time>2024-10-15T11:31:29.000Z</time>
      </trkpt>
      <trkpt lat="45.09264" lon="5.97139">
        <ele>2410.3999023438</ele>
        <time>2024-10-15T11:31:30.000Z</time>
      </trkpt>
      <trkpt lat="45.09264" lon="5.97139">
        <ele>2410.3999023438</ele>
        <time>2024-10-15T11:31:31.000Z</time>
      </trkpt>
      <trkpt lat="45.09264" lon="5.97139">
        <ele>2410.1999511719</ele>
        <time>2024-10-15T11:31:32.000Z</time>
      </trkpt>
      <trkpt lat="45.09264" lon="5.97139">
        <ele>2410.1999511719</ele>
        <time>2024-10-15T11:31:33.000Z</time>
      </trkpt>
      <trkpt lat="45.09264" lon="5.97139">
        <ele>2410.3999023438</ele>
        <time>2024-10-15T11:31:34.000Z</time>
      </trkpt>
      <trkpt lat="45.09264" lon="5.97139">
        <ele>2410.3999023438</ele>
        <time>2024-10-15T11:31:35.000Z</time>
      </trkpt>
      <trkpt lat="45.09264" lon="5.97139">
        <ele>2410.3999023438</ele>
        <time>2024-10-15T11:31:36.000Z</time>
      </trkpt>
      <trkpt lat="45.09264" lon="5.97139">
        <ele>2410.3999023438</ele>
        <time>2024-10-15T11:31:37.000Z</time>
      </trkpt>
      <trkpt lat="45.09264" lon="5.97139">
        <ele>2410.6000976562</ele>
        <time>2024-10-15T11:31:38.000Z</time>
      </trkpt>
      <trkpt lat="45.09264" lon="5.97139">
        <ele>2410.8000488281</ele>
        <time>2024-10-15T11:31:39.000Z</time>
      </trkpt>
      <trkpt lat="45.09264" lon="5.97139">
        <ele>2411</ele>
        <time>2024-10-15T11:31:40.000Z</time>
      </trkpt>
      <trkpt lat="45.09264" lon="5.97139">
        <ele>2411</ele>
        <time>2024-10-15T11:31:41.000Z</time>
      </trkpt>
      <trkpt lat="45.09264" lon="5.97139">
        <ele>2411</ele>
        <time>2024-10-15T11:31:42.000Z</time>
      </trkpt>
      <trkpt lat="45.09264" lon="5.97139">
        <ele>2411</ele>
        <time>2024-10-15T11:31:43.000Z</time>
      </trkpt>
      <trkpt lat="45.09264" lon="5.97139">
        <ele>2411</ele>
        <time>2024-10-15T11:31:44.000Z</time>
      </trkpt>
      <trkpt lat="45.09264" lon="5.97139">
        <ele>2411</ele>
        <time>2024-10-15T11:31:45.000Z</time>
      </trkpt>
      <trkpt lat="45.09264" lon="5.97139">
        <ele>2411</ele>
        <time>2024-10-15T11:31:46.000Z</time>
      </trkpt>
      <trkpt lat="45.09264" lon="5.97139">
        <ele>2411</ele>
        <time>2024-10-15T11:31:47.000Z</time>
      </trkpt>
      <trkpt lat="45.09264" lon="5.97139">
        <ele>2410.8000488281</ele>
        <time>2024-10-15T11:31:48.000Z</time>
      </trkpt>
      <trkpt lat="45.09264" lon="5.97139">
        <ele>2410.8000488281</ele>
        <time>2024-10-15T11:31:49.000Z</time>
      </trkpt>
      <trkpt lat="45.09264" lon="5.97139">
        <ele>2410.8000488281</ele>
        <time>2024-10-15T11:31:50.000Z</time>
      </trkpt>
      <trkpt lat="45.09264" lon="5.97139">
        <ele>2410.8000488281</ele>
        <time>2024-10-15T11:31:51.000Z</time>
      </trkpt>
      <trkpt lat="45.09264" lon="5.97139">
        <ele>2410.8000488281</ele>
        <time>2024-10-15T11:31:52.000Z</time>
      </trkpt>
      <trkpt lat="45.09264" lon="5.97139">
        <ele>2410.8000488281</ele>
        <time>2024-10-15T11:31:53.000Z</time>
      </trkpt>
      <trkpt lat="45.09264" lon="5.97139">
        <ele>2410.8000488281</ele>
        <time>2024-10-15T11:31:54.000Z</time>
      </trkpt>
      <trkpt lat="45.09264" lon="5.97139">
        <ele>2411</ele>
        <time>2024-10-15T11:31:55.000Z</time>
      </trkpt>
      <trkpt lat="45.09264" lon="5.97139">
        <ele>2411</ele>
        <time>2024-10-15T11:31:56.000Z</time>
      </trkpt>
      <trkpt lat="45.09264" lon="5.97139">
        <ele>2411</ele>
        <time>2024-10-15T11:31:57.000Z</time>
      </trkpt>
      <trkpt lat="45.09264" lon="5.97139">
        <ele>2411</ele>
        <time>2024-10-15T11:31:58.000Z</time>
      </trkpt>
      <trkpt lat="45.09264" lon="5.97139">
        <ele>2411</ele>
        <time>2024-10-15T11:31:59.000Z</time>
      </trkpt>
      <trkpt lat="45.09264" lon="5.97139">
        <ele>2411</ele>
        <time>2024-10-15T11:32:00.000Z</time>
      </trkpt>
      <trkpt lat="45.09264" lon="5.97139">
        <ele>2411</ele>
        <time>2024-10-15T11:32:01.000Z</time>
      </trkpt>
      <trkpt lat="45.09264" lon="5.97139">
        <ele>2410.8000488281</ele>
        <time>2024-10-15T11:32:02.000Z</time>
      </trkpt>
      <trkpt lat="45.09264" lon="5.97139">
        <ele>2410.6000976562</ele>
        <time>2024-10-15T11:32:03.000Z</time>
      </trkpt>
      <trkpt lat="45.09264" lon="5.97139">
        <ele>2410.6000976562</ele>
        <time>2024-10-15T11:32:04.000Z</time>
      </trkpt>
      <trkpt lat="45.09264" lon="5.97139">
        <ele>2410.6000976562</ele>
        <time>2024-10-15T11:32:05.000Z</time>
      </trkpt>
      <trkpt lat="45.09264" lon="5.97139">
        <ele>2410.6000976562</ele>
        <time>2024-10-15T11:32:06.000Z</time>
      </trkpt>
      <trkpt lat="45.09264" lon="5.97139">
        <ele>2410.6000976562</ele>
        <time>2024-10-15T11:32:07.000Z</time>
      </trkpt>
      <trkpt lat="45.09264" lon="5.97139">
        <ele>2410.8000488281</ele>
        <time>2024-10-15T11:32:08.000Z</time>
      </trkpt>
      <trkpt lat="45.09264" lon="5.97139">
        <ele>2410.8000488281</ele>
        <time>2024-10-15T11:32:09.000Z</time>
      </trkpt>
      <trkpt lat="45.09264" lon="5.97139">
        <ele>2410.8000488281</ele>
        <time>2024-10-15T11:32:10.000Z</time>
      </trkpt>
      <trkpt lat="45.09264" lon="5.97139">
        <ele>2410.8000488281</ele>
        <time>2024-10-15T11:32:11.000Z</time>
      </trkpt>
      <trkpt lat="45.09264" lon="5.97139">
        <ele>2410.8000488281</ele>
        <time>2024-10-15T11:32:12.000Z</time>
      </trkpt>
      <trkpt lat="45.09264" lon="5.97139">
        <ele>2411</ele>
        <time>2024-10-15T11:32:13.000Z</time>
      </trkpt>
      <trkpt lat="45.09264" lon="5.97139">
        <ele>2410.8000488281</ele>
        <time>2024-10-15T11:32:14.000Z</time>
      </trkpt>
      <trkpt lat="45.09264" lon="5.97139">
        <ele>2410.8000488281</ele>
        <time>2024-10-15T11:32:15.000Z</time>
      </trkpt>
      <trkpt lat="45.09264" lon="5.97139">
        <ele>2410.8000488281</ele>
        <time>2024-10-15T11:32:16.000Z</time>
      </trkpt>
      <trkpt lat="45.09264" lon="5.97139">
        <ele>2410.8000488281</ele>
        <time>2024-10-15T11:32:17.000Z</time>
      </trkpt>
      <trkpt lat="45.09264" lon="5.97139">
        <ele>2410.8000488281</ele>
        <time>2024-10-15T11:32:18.000Z</time>
      </trkpt>
      <trkpt lat="45.09264" lon="5.97139">
        <ele>2410.8000488281</ele>
        <time>2024-10-15T11:32:19.000Z</time>
      </trkpt>
      <trkpt lat="45.09264" lon="5.97139">
        <ele>2410.8000488281</ele>
        <time>2024-10-15T11:32:20.000Z</time>
      </trkpt>
      <trkpt lat="45.09264" lon="5.97139">
        <ele>2410.8000488281</ele>
        <time>2024-10-15T11:32:21.000Z</time>
      </trkpt>
      <trkpt lat="45.09264" lon="5.97139">
        <ele>2410.8000488281</ele>
        <time>2024-10-15T11:32:22.000Z</time>
      </trkpt>
      <trkpt lat="45.09264" lon="5.97139">
        <ele>2410.8000488281</ele>
        <time>2024-10-15T11:32:23.000Z</time>
      </trkpt>
      <trkpt lat="45.09264" lon="5.97139">
        <ele>2410.8000488281</ele>
        <time>2024-10-15T11:32:24.000Z</time>
      </trkpt>
      <trkpt lat="45.09264" lon="5.97139">
        <ele>2410.8000488281</ele>
        <time>2024-10-15T11:32:25.000Z</time>
      </trkpt>
      <trkpt lat="45.09264" lon="5.97139">
        <ele>2411</ele>
        <time>2024-10-15T11:32:26.000Z</time>
      </trkpt>
      <trkpt lat="45.09264" lon="5.97139">
        <ele>2411.1999511719</ele>
        <time>2024-10-15T11:32:27.000Z</time>
      </trkpt>
      <trkpt lat="45.09264" lon="5.97139">
        <ele>2411.1999511719</ele>
        <time>2024-10-15T11:32:28.000Z</time>
      </trkpt>
      <trkpt lat="45.09264" lon="5.9714">
        <ele>2411.1999511719</ele>
        <time>2024-10-15T11:32:29.000Z</time>
      </trkpt>
      <trkpt lat="45.09264" lon="5.9714">
        <ele>2411.3999023438</ele>
        <time>2024-10-15T11:32:30.000Z</time>
      </trkpt>
      <trkpt lat="45.09264" lon="5.9714">
        <ele>2411.3999023438</ele>
        <time>2024-10-15T11:32:31.000Z</time>
      </trkpt>
      <trkpt lat="45.09264" lon="5.9714">
        <ele>2411.6000976562</ele>
        <time>2024-10-15T11:32:32.000Z</time>
      </trkpt>
      <trkpt lat="45.09264" lon="5.9714">
        <ele>2411.8000488281</ele>
        <time>2024-10-15T11:32:33.000Z</time>
      </trkpt>
      <trkpt lat="45.09264" lon="5.9714">
        <ele>2411.8000488281</ele>
        <time>2024-10-15T11:32:34.000Z</time>
      </trkpt>
      <trkpt lat="45.09264" lon="5.9714">
        <ele>2412</ele>
        <time>2024-10-15T11:32:35.000Z</time>
      </trkpt>
      <trkpt lat="45.09264" lon="5.9714">
        <ele>2412</ele>
        <time>2024-10-15T11:32:36.000Z</time>
      </trkpt>
      <trkpt lat="45.09264" lon="5.9714">
        <ele>2411.8000488281</ele>
        <time>2024-10-15T11:32:37.000Z</time>
      </trkpt>
      <trkpt lat="45.09264" lon="5.9714">
        <ele>2411.8000488281</ele>
        <time>2024-10-15T11:32:38.000Z</time>
      </trkpt>
      <trkpt lat="45.09265" lon="5.9714">
        <ele>2411.8000488281</ele>
        <time>2024-10-15T11:32:39.000Z</time>
      </trkpt>
      <trkpt lat="45.09265" lon="5.9714">
        <ele>2411.1999511719</ele>
        <time>2024-10-15T11:32:40.000Z</time>
      </trkpt>
      <trkpt lat="45.09265" lon="5.9714">
        <ele>2411</ele>
        <time>2024-10-15T11:32:41.000Z</time>
      </trkpt>
      <trkpt lat="45.09265" lon="5.9714">
        <ele>2410.1999511719</ele>
        <time>2024-10-15T11:32:42.000Z</time>
      </trkpt>
      <trkpt lat="45.09265" lon="5.9714">
        <ele>2410</ele>
        <time>2024-10-15T11:32:43.000Z</time>
      </trkpt>
      <trkpt lat="45.09265" lon="5.9714">
        <ele>2410</ele>
        <time>2024-10-15T11:32:44.000Z</time>
      </trkpt>
      <trkpt lat="45.09265" lon="5.9714">
        <ele>2409.8000488281</ele>
        <time>2024-10-15T11:32:45.000Z</time>
      </trkpt>
      <trkpt lat="45.09265" lon="5.9714">
        <ele>2409.3999023438</ele>
        <time>2024-10-15T11:32:46.000Z</time>
      </trkpt>
      <trkpt lat="45.09265" lon="5.9714">
        <ele>2409.3999023438</ele>
        <time>2024-10-15T11:32:47.000Z</time>
      </trkpt>
      <trkpt lat="45.09265" lon="5.9714">
        <ele>2409.3999023438</ele>
        <time>2024-10-15T11:32:48.000Z</time>
      </trkpt>
      <trkpt lat="45.09265" lon="5.9714">
        <ele>2409</ele>
        <time>2024-10-15T11:32:49.000Z</time>
      </trkpt>
      <trkpt lat="45.09265" lon="5.9714">
        <ele>2408.8000488281</ele>
        <time>2024-10-15T11:32:50.000Z</time>
      </trkpt>
      <trkpt lat="45.09265" lon="5.9714">
        <ele>2408.8000488281</ele>
        <time>2024-10-15T11:32:51.000Z</time>
      </trkpt>
      <trkpt lat="45.09265" lon="5.9714">
        <ele>2408.8000488281</ele>
        <time>2024-10-15T11:32:52.000Z</time>
      </trkpt>
      <trkpt lat="45.09265" lon="5.9714">
        <ele>2410.1999511719</ele>
        <time>2024-10-15T11:32:53.000Z</time>
      </trkpt>
      <trkpt lat="45.09265" lon="5.9714">
        <ele>2410.8000488281</ele>
        <time>2024-10-15T11:32:54.000Z</time>
      </trkpt>
      <trkpt lat="45.09265" lon="5.9714">
        <ele>2410.8000488281</ele>
        <time>2024-10-15T11:32:55.000Z</time>
      </trkpt>
      <trkpt lat="45.09265" lon="5.9714">
        <ele>2410.8000488281</ele>
        <time>2024-10-15T11:32:56.000Z</time>
      </trkpt>
      <trkpt lat="45.09265" lon="5.9714">
        <ele>2410.6000976562</ele>
        <time>2024-10-15T11:32:57.000Z</time>
      </trkpt>
      <trkpt lat="45.09265" lon="5.9714">
        <ele>2410.6000976562</ele>
        <time>2024-10-15T11:32:58.000Z</time>
      </trkpt>
      <trkpt lat="45.09265" lon="5.97139">
        <ele>2410.1999511719</ele>
        <time>2024-10-15T11:32:59.000Z</time>
      </trkpt>
      <trkpt lat="45.09266" lon="5.97138">
        <ele>2409.6000976562</ele>
        <time>2024-10-15T11:33:00.000Z</time>
      </trkpt>
      <trkpt lat="45.09266" lon="5.97137">
        <ele>2409.6000976562</ele>
        <time>2024-10-15T11:33:01.000Z</time>
      </trkpt>
      <trkpt lat="45.09266" lon="5.97137">
        <ele>2409.6000976562</ele>
        <time>2024-10-15T11:33:02.000Z</time>
      </trkpt>
      <trkpt lat="45.09266" lon="5.97136">
        <ele>2409.6000976562</ele>
        <time>2024-10-15T11:33:03.000Z</time>
      </trkpt>
      <trkpt lat="45.09266" lon="5.97135">
        <ele>2410.1999511719</ele>
        <time>2024-10-15T11:33:04.000Z</time>
      </trkpt>
      <trkpt lat="45.09266" lon="5.97135">
        <ele>2411.1999511719</ele>
        <time>2024-10-15T11:33:05.000Z</time>
      </trkpt>
      <trkpt lat="45.09266" lon="5.97134">
        <ele>2411.6000976562</ele>
        <time>2024-10-15T11:33:06.000Z</time>
      </trkpt>
      <trkpt lat="45.09267" lon="5.97134">
        <ele>2411.6000976562</ele>
        <time>2024-10-15T11:33:07.000Z</time>
      </trkpt>
      <trkpt lat="45.09267" lon="5.97133">
        <ele>2411.6000976562</ele>
        <time>2024-10-15T11:33:08.000Z</time>
      </trkpt>
      <trkpt lat="45.09267" lon="5.97133">
        <ele>2411.8000488281</ele>
        <time>2024-10-15T11:33:09.000Z</time>
      </trkpt>
      <trkpt lat="45.09267" lon="5.97133">
        <ele>2412.1999511719</ele>
        <time>2024-10-15T11:33:10.000Z</time>
      </trkpt>
      <trkpt lat="45.09267" lon="5.97133">
        <ele>2412.3999023438</ele>
        <time>2024-10-15T11:33:11.000Z</time>
      </trkpt>
      <trkpt lat="45.09267" lon="5.97133">
        <ele>2412.3999023438</ele>
        <time>2024-10-15T11:33:12.000Z</time>
      </trkpt>
      <trkpt lat="45.09267" lon="5.97133">
        <ele>2412.3999023438</ele>
        <time>2024-10-15T11:33:13.000Z</time>
      </trkpt>
      <trkpt lat="45.09267" lon="5.97133">
        <ele>2412.3999023438</ele>
        <time>2024-10-15T11:33:14.000Z</time>
      </trkpt>
      <trkpt lat="45.09267" lon="5.97133">
        <ele>2412.3999023438</ele>
        <time>2024-10-15T11:33:15.000Z</time>
      </trkpt>
      <trkpt lat="45.09267" lon="5.97133">
        <ele>2412.1999511719</ele>
        <time>2024-10-15T11:33:16.000Z</time>
      </trkpt>
      <trkpt lat="45.09267" lon="5.97133">
        <ele>2412.1999511719</ele>
        <time>2024-10-15T11:33:17.000Z</time>
      </trkpt>
      <trkpt lat="45.09267" lon="5.97133">
        <ele>2412.1999511719</ele>
        <time>2024-10-15T11:33:18.000Z</time>
      </trkpt>
      <trkpt lat="45.09267" lon="5.97133">
        <ele>2412.1999511719</ele>
        <time>2024-10-15T11:33:19.000Z</time>
      </trkpt>
      <trkpt lat="45.09267" lon="5.97133">
        <ele>2412.1999511719</ele>
        <time>2024-10-15T11:33:20.000Z</time>
      </trkpt>
      <trkpt lat="45.09267" lon="5.97133">
        <ele>2412.3999023438</ele>
        <time>2024-10-15T11:33:21.000Z</time>
      </trkpt>
      <trkpt lat="45.09267" lon="5.97133">
        <ele>2412.1999511719</ele>
        <time>2024-10-15T11:33:22.000Z</time>
      </trkpt>
      <trkpt lat="45.09267" lon="5.97133">
        <ele>2412.1999511719</ele>
        <time>2024-10-15T11:33:23.000Z</time>
      </trkpt>
      <trkpt lat="45.09267" lon="5.97133">
        <ele>2412.1999511719</ele>
        <time>2024-10-15T11:33:24.000Z</time>
      </trkpt>
      <trkpt lat="45.09267" lon="5.97133">
        <ele>2412.1999511719</ele>
        <time>2024-10-15T11:33:25.000Z</time>
      </trkpt>
      <trkpt lat="45.09267" lon="5.97133">
        <ele>2412.1999511719</ele>
        <time>2024-10-15T11:33:26.000Z</time>
      </trkpt>
      <trkpt lat="45.09267" lon="5.97133">
        <ele>2412.1999511719</ele>
        <time>2024-10-15T11:33:27.000Z</time>
      </trkpt>
      <trkpt lat="45.09267" lon="5.97133">
        <ele>2412</ele>
        <time>2024-10-15T11:33:28.000Z</time>
      </trkpt>
      <trkpt lat="45.09267" lon="5.97133">
        <ele>2412</ele>
        <time>2024-10-15T11:33:29.000Z</time>
      </trkpt>
      <trkpt lat="45.09267" lon="5.97133">
        <ele>2411.8000488281</ele>
        <time>2024-10-15T11:33:30.000Z</time>
      </trkpt>
      <trkpt lat="45.09267" lon="5.97133">
        <ele>2411.8000488281</ele>
        <time>2024-10-15T11:33:31.000Z</time>
      </trkpt>
      <trkpt lat="45.09267" lon="5.97133">
        <ele>2411.8000488281</ele>
        <time>2024-10-15T11:33:32.000Z</time>
      </trkpt>
      <trkpt lat="45.09267" lon="5.97133">
        <ele>2411.8000488281</ele>
        <time>2024-10-15T11:33:33.000Z</time>
      </trkpt>
      <trkpt lat="45.09267" lon="5.97133">
        <ele>2411.8000488281</ele>
        <time>2024-10-15T11:33:34.000Z</time>
      </trkpt>
      <trkpt lat="45.09267" lon="5.97133">
        <ele>2411.8000488281</ele>
        <time>2024-10-15T11:33:35.000Z</time>
      </trkpt>
      <trkpt lat="45.09267" lon="5.97133">
        <ele>2411.6000976562</ele>
        <time>2024-10-15T11:33:36.000Z</time>
      </trkpt>
      <trkpt lat="45.09267" lon="5.97133">
        <ele>2411.1999511719</ele>
        <time>2024-10-15T11:33:37.000Z</time>
      </trkpt>
      <trkpt lat="45.09267" lon="5.97133">
        <ele>2411.1999511719</ele>
        <time>2024-10-15T11:33:38.000Z</time>
      </trkpt>
      <trkpt lat="45.09267" lon="5.97133">
        <ele>2411</ele>
        <time>2024-10-15T11:33:39.000Z</time>
      </trkpt>
      <trkpt lat="45.09267" lon="5.97133">
        <ele>2411</ele>
        <time>2024-10-15T11:33:40.000Z</time>
      </trkpt>
      <trkpt lat="45.09267" lon="5.97133">
        <ele>2411</ele>
        <time>2024-10-15T11:33:41.000Z</time>
      </trkpt>
      <trkpt lat="45.09267" lon="5.97133">
        <ele>2411</ele>
        <time>2024-10-15T11:33:42.000Z</time>
      </trkpt>
      <trkpt lat="45.09267" lon="5.97133">
        <ele>2411</ele>
        <time>2024-10-15T11:33:43.000Z</time>
      </trkpt>
      <trkpt lat="45.09267" lon="5.97133">
        <ele>2411</ele>
        <time>2024-10-15T11:33:44.000Z</time>
      </trkpt>
      <trkpt lat="45.09267" lon="5.97133">
        <ele>2411.1999511719</ele>
        <time>2024-10-15T11:33:45.000Z</time>
      </trkpt>
      <trkpt lat="45.09267" lon="5.97133">
        <ele>2411.3999023438</ele>
        <time>2024-10-15T11:33:46.000Z</time>
      </trkpt>
      <trkpt lat="45.09267" lon="5.97133">
        <ele>2411.6000976562</ele>
        <time>2024-10-15T11:33:47.000Z</time>
      </trkpt>
      <trkpt lat="45.09267" lon="5.97133">
        <ele>2411.6000976562</ele>
        <time>2024-10-15T11:33:48.000Z</time>
      </trkpt>
      <trkpt lat="45.09267" lon="5.97133">
        <ele>2411.8000488281</ele>
        <time>2024-10-15T11:33:49.000Z</time>
      </trkpt>
      <trkpt lat="45.09267" lon="5.97133">
        <ele>2412</ele>
        <time>2024-10-15T11:33:50.000Z</time>
      </trkpt>
      <trkpt lat="45.09267" lon="5.97133">
        <ele>2412.1999511719</ele>
        <time>2024-10-15T11:33:51.000Z</time>
      </trkpt>
      <trkpt lat="45.09267" lon="5.97133">
        <ele>2412.3999023438</ele>
        <time>2024-10-15T11:33:52.000Z</time>
      </trkpt>
      <trkpt lat="45.09267" lon="5.97133">
        <ele>2412.3999023438</ele>
        <time>2024-10-15T11:33:53.000Z</time>
      </trkpt>
      <trkpt lat="45.09267" lon="5.97133">
        <ele>2412.3999023438</ele>
        <time>2024-10-15T11:33:54.000Z</time>
      </trkpt>
      <trkpt lat="45.09268" lon="5.97133">
        <ele>2412.3999023438</ele>
        <time>2024-10-15T11:33:55.000Z</time>
      </trkpt>
      <trkpt lat="45.09268" lon="5.97133">
        <ele>2412.3999023438</ele>
        <time>2024-10-15T11:33:56.000Z</time>
      </trkpt>
      <trkpt lat="45.09268" lon="5.97133">
        <ele>2412.3999023438</ele>
        <time>2024-10-15T11:33:57.000Z</time>
      </trkpt>
      <trkpt lat="45.09268" lon="5.97133">
        <ele>2412.3999023438</ele>
        <time>2024-10-15T11:33:58.000Z</time>
      </trkpt>
      <trkpt lat="45.09268" lon="5.97133">
        <ele>2412.3999023438</ele>
        <time>2024-10-15T11:33:59.000Z</time>
      </trkpt>
      <trkpt lat="45.09268" lon="5.97133">
        <ele>2412.1999511719</ele>
        <time>2024-10-15T11:34:00.000Z</time>
      </trkpt>
      <trkpt lat="45.09268" lon="5.97133">
        <ele>2411.6000976562</ele>
        <time>2024-10-15T11:34:01.000Z</time>
      </trkpt>
      <trkpt lat="45.09268" lon="5.97132">
        <ele>2411</ele>
        <time>2024-10-15T11:34:02.000Z</time>
      </trkpt>
      <trkpt lat="45.09268" lon="5.9713">
        <ele>2410.6000976562</ele>
        <time>2024-10-15T11:34:03.000Z</time>
      </trkpt>
      <trkpt lat="45.09268" lon="5.97128">
        <ele>2410.1999511719</ele>
        <time>2024-10-15T11:34:04.000Z</time>
      </trkpt>
      <trkpt lat="45.09268" lon="5.97126">
        <ele>2410</ele>
        <time>2024-10-15T11:34:05.000Z</time>
      </trkpt>
      <trkpt lat="45.09267" lon="5.97124">
        <ele>2409.8000488281</ele>
        <time>2024-10-15T11:34:06.000Z</time>
      </trkpt>
      <trkpt lat="45.09267" lon="5.97121">
        <ele>2409.6000976562</ele>
        <time>2024-10-15T11:34:07.000Z</time>
      </trkpt>
      <trkpt lat="45.09267" lon="5.97119">
        <ele>2409.3999023438</ele>
        <time>2024-10-15T11:34:08.000Z</time>
      </trkpt>
      <trkpt lat="45.09267" lon="5.97117">
        <ele>2409.1999511719</ele>
        <time>2024-10-15T11:34:09.000Z</time>
      </trkpt>
      <trkpt lat="45.09267" lon="5.97115">
        <ele>2409.1999511719</ele>
        <time>2024-10-15T11:34:10.000Z</time>
      </trkpt>
      <trkpt lat="45.09267" lon="5.97113">
        <ele>2409.1999511719</ele>
        <time>2024-10-15T11:34:11.000Z</time>
      </trkpt>
      <trkpt lat="45.09267" lon="5.97111">
        <ele>2409.3999023438</ele>
        <time>2024-10-15T11:34:12.000Z</time>
      </trkpt>
      <trkpt lat="45.09267" lon="5.9711">
        <ele>2409.3999023438</ele>
        <time>2024-10-15T11:34:13.000Z</time>
      </trkpt>
      <trkpt lat="45.09267" lon="5.97109">
        <ele>2409.6000976562</ele>
        <time>2024-10-15T11:34:14.000Z</time>
      </trkpt>
      <trkpt lat="45.09267" lon="5.97107">
        <ele>2409.6000976562</ele>
        <time>2024-10-15T11:34:15.000Z</time>
      </trkpt>
      <trkpt lat="45.09266" lon="5.97106">
        <ele>2409.6000976562</ele>
        <time>2024-10-15T11:34:16.000Z</time>
      </trkpt>
      <trkpt lat="45.09266" lon="5.97104">
        <ele>2409.6000976562</ele>
        <time>2024-10-15T11:34:17.000Z</time>
      </trkpt>
      <trkpt lat="45.09265" lon="5.97103">
        <ele>2409.3999023438</ele>
        <time>2024-10-15T11:34:18.000Z</time>
      </trkpt>
      <trkpt lat="45.09265" lon="5.97101">
        <ele>2408.3999023438</ele>
        <time>2024-10-15T11:34:19.000Z</time>
      </trkpt>
      <trkpt lat="45.09265" lon="5.971">
        <ele>2408.1999511719</ele>
        <time>2024-10-15T11:34:20.000Z</time>
      </trkpt>
      <trkpt lat="45.09265" lon="5.97098">
        <ele>2408.1999511719</ele>
        <time>2024-10-15T11:34:21.000Z</time>
      </trkpt>
      <trkpt lat="45.09265" lon="5.97097">
        <ele>2408</ele>
        <time>2024-10-15T11:34:22.000Z</time>
      </trkpt>
      <trkpt lat="45.09265" lon="5.97096">
        <ele>2407.8000488281</ele>
        <time>2024-10-15T11:34:23.000Z</time>
      </trkpt>
      <trkpt lat="45.09264" lon="5.97095">
        <ele>2407.8000488281</ele>
        <time>2024-10-15T11:34:24.000Z</time>
      </trkpt>
      <trkpt lat="45.09264" lon="5.97094">
        <ele>2407.8000488281</ele>
        <time>2024-10-15T11:34:25.000Z</time>
      </trkpt>
      <trkpt lat="45.09263" lon="5.97093">
        <ele>2408</ele>
        <time>2024-10-15T11:34:26.000Z</time>
      </trkpt>
      <trkpt lat="45.09263" lon="5.97091">
        <ele>2408.1999511719</ele>
        <time>2024-10-15T11:34:27.000Z</time>
      </trkpt>
      <trkpt lat="45.09263" lon="5.9709">
        <ele>2408</ele>
        <time>2024-10-15T11:34:28.000Z</time>
      </trkpt>
      <trkpt lat="45.09262" lon="5.97089">
        <ele>2408</ele>
        <time>2024-10-15T11:34:29.000Z</time>
      </trkpt>
      <trkpt lat="45.09262" lon="5.97087">
        <ele>2408</ele>
        <time>2024-10-15T11:34:30.000Z</time>
      </trkpt>
      <trkpt lat="45.09262" lon="5.97086">
        <ele>2408</ele>
        <time>2024-10-15T11:34:31.000Z</time>
      </trkpt>
      <trkpt lat="45.09262" lon="5.97085">
        <ele>2407.8000488281</ele>
        <time>2024-10-15T11:34:32.000Z</time>
      </trkpt>
      <trkpt lat="45.09262" lon="5.97083">
        <ele>2407.6000976562</ele>
        <time>2024-10-15T11:34:33.000Z</time>
      </trkpt>
      <trkpt lat="45.09262" lon="5.97082">
        <ele>2407.6000976562</ele>
        <time>2024-10-15T11:34:34.000Z</time>
      </trkpt>
      <trkpt lat="45.09262" lon="5.97081">
        <ele>2407.3999023438</ele>
        <time>2024-10-15T11:34:35.000Z</time>
      </trkpt>
      <trkpt lat="45.09262" lon="5.9708">
        <ele>2407.1999511719</ele>
        <time>2024-10-15T11:34:36.000Z</time>
      </trkpt>
      <trkpt lat="45.09262" lon="5.97079">
        <ele>2407</ele>
        <time>2024-10-15T11:34:37.000Z</time>
      </trkpt>
      <trkpt lat="45.09261" lon="5.97078">
        <ele>2406.8000488281</ele>
        <time>2024-10-15T11:34:38.000Z</time>
      </trkpt>
      <trkpt lat="45.09261" lon="5.97077">
        <ele>2406.1999511719</ele>
        <time>2024-10-15T11:34:39.000Z</time>
      </trkpt>
      <trkpt lat="45.09261" lon="5.97076">
        <ele>2405.8000488281</ele>
        <time>2024-10-15T11:34:40.000Z</time>
      </trkpt>
      <trkpt lat="45.09261" lon="5.97075">
        <ele>2405.8000488281</ele>
        <time>2024-10-15T11:34:41.000Z</time>
      </trkpt>
      <trkpt lat="45.09261" lon="5.97073">
        <ele>2405.8000488281</ele>
        <time>2024-10-15T11:34:42.000Z</time>
      </trkpt>
      <trkpt lat="45.09261" lon="5.97072">
        <ele>2405.8000488281</ele>
        <time>2024-10-15T11:34:43.000Z</time>
      </trkpt>
      <trkpt lat="45.09261" lon="5.97071">
        <ele>2405.6000976562</ele>
        <time>2024-10-15T11:34:44.000Z</time>
      </trkpt>
      <trkpt lat="45.0926" lon="5.9707">
        <ele>2405.3999023438</ele>
        <time>2024-10-15T11:34:45.000Z</time>
      </trkpt>
      <trkpt lat="45.0926" lon="5.97069">
        <ele>2405.3999023438</ele>
        <time>2024-10-15T11:34:46.000Z</time>
      </trkpt>
      <trkpt lat="45.0926" lon="5.97068">
        <ele>2405.3999023438</ele>
        <time>2024-10-15T11:34:47.000Z</time>
      </trkpt>
      <trkpt lat="45.09259" lon="5.97066">
        <ele>2405.3999023438</ele>
        <time>2024-10-15T11:34:48.000Z</time>
      </trkpt>
      <trkpt lat="45.09259" lon="5.97065">
        <ele>2405.3999023438</ele>
        <time>2024-10-15T11:34:49.000Z</time>
      </trkpt>
      <trkpt lat="45.09259" lon="5.97064">
        <ele>2405.1999511719</ele>
        <time>2024-10-15T11:34:50.000Z</time>
      </trkpt>
      <trkpt lat="45.09259" lon="5.97063">
        <ele>2405.1999511719</ele>
        <time>2024-10-15T11:34:51.000Z</time>
      </trkpt>
      <trkpt lat="45.09258" lon="5.97062">
        <ele>2405.1999511719</ele>
        <time>2024-10-15T11:34:52.000Z</time>
      </trkpt>
      <trkpt lat="45.09258" lon="5.97061">
        <ele>2405</ele>
        <time>2024-10-15T11:34:53.000Z</time>
      </trkpt>
      <trkpt lat="45.09258" lon="5.9706">
        <ele>2405</ele>
        <time>2024-10-15T11:34:54.000Z</time>
      </trkpt>
      <trkpt lat="45.09258" lon="5.97059">
        <ele>2405</ele>
        <time>2024-10-15T11:34:55.000Z</time>
      </trkpt>
      <trkpt lat="45.09257" lon="5.97059">
        <ele>2405.1999511719</ele>
        <time>2024-10-15T11:34:56.000Z</time>
      </trkpt>
      <trkpt lat="45.09257" lon="5.97058">
        <ele>2404.8000488281</ele>
        <time>2024-10-15T11:34:57.000Z</time>
      </trkpt>
      <trkpt lat="45.09257" lon="5.97057">
        <ele>2404.8000488281</ele>
        <time>2024-10-15T11:34:58.000Z</time>
      </trkpt>
      <trkpt lat="45.09256" lon="5.97055">
        <ele>2404.8000488281</ele>
        <time>2024-10-15T11:34:59.000Z</time>
      </trkpt>
      <trkpt lat="45.09256" lon="5.97054">
        <ele>2405</ele>
        <time>2024-10-15T11:35:00.000Z</time>
      </trkpt>
      <trkpt lat="45.09256" lon="5.97053">
        <ele>2405.3999023438</ele>
        <time>2024-10-15T11:35:01.000Z</time>
      </trkpt>
      <trkpt lat="45.09255" lon="5.97052">
        <ele>2405.3999023438</ele>
        <time>2024-10-15T11:35:02.000Z</time>
      </trkpt>
      <trkpt lat="45.09255" lon="5.97051">
        <ele>2405.8000488281</ele>
        <time>2024-10-15T11:35:03.000Z</time>
      </trkpt>
      <trkpt lat="45.09255" lon="5.9705">
        <ele>2406.3999023438</ele>
        <time>2024-10-15T11:35:04.000Z</time>
      </trkpt>
      <trkpt lat="45.09255" lon="5.97049">
        <ele>2406.1999511719</ele>
        <time>2024-10-15T11:35:05.000Z</time>
      </trkpt>
      <trkpt lat="45.09254" lon="5.97048">
        <ele>2406.1999511719</ele>
        <time>2024-10-15T11:35:06.000Z</time>
      </trkpt>
      <trkpt lat="45.09254" lon="5.97047">
        <ele>2406.1999511719</ele>
        <time>2024-10-15T11:35:07.000Z</time>
      </trkpt>
      <trkpt lat="45.09254" lon="5.97046">
        <ele>2404.6000976562</ele>
        <time>2024-10-15T11:35:08.000Z</time>
      </trkpt>
      <trkpt lat="45.09253" lon="5.97046">
        <ele>2403.3999023438</ele>
        <time>2024-10-15T11:35:09.000Z</time>
      </trkpt>
      <trkpt lat="45.09253" lon="5.97045">
        <ele>2402.6000976562</ele>
        <time>2024-10-15T11:35:10.000Z</time>
      </trkpt>
      <trkpt lat="45.09253" lon="5.97044">
        <ele>2402.3999023438</ele>
        <time>2024-10-15T11:35:11.000Z</time>
      </trkpt>
      <trkpt lat="45.09252" lon="5.97043">
        <ele>2402.3999023438</ele>
        <time>2024-10-15T11:35:12.000Z</time>
      </trkpt>
      <trkpt lat="45.09252" lon="5.97042">
        <ele>2402.1999511719</ele>
        <time>2024-10-15T11:35:13.000Z</time>
      </trkpt>
      <trkpt lat="45.09252" lon="5.97041">
        <ele>2402.1999511719</ele>
        <time>2024-10-15T11:35:14.000Z</time>
      </trkpt>
      <trkpt lat="45.09251" lon="5.9704">
        <ele>2402.3999023438</ele>
        <time>2024-10-15T11:35:15.000Z</time>
      </trkpt>
      <trkpt lat="45.09251" lon="5.97039">
        <ele>2403</ele>
        <time>2024-10-15T11:35:16.000Z</time>
      </trkpt>
      <trkpt lat="45.09251" lon="5.97038">
        <ele>2403</ele>
        <time>2024-10-15T11:35:17.000Z</time>
      </trkpt>
      <trkpt lat="45.0925" lon="5.97037">
        <ele>2402.8000488281</ele>
        <time>2024-10-15T11:35:18.000Z</time>
      </trkpt>
      <trkpt lat="45.0925" lon="5.97037">
        <ele>2402.6000976562</ele>
        <time>2024-10-15T11:35:19.000Z</time>
      </trkpt>
      <trkpt lat="45.09249" lon="5.97036">
        <ele>2402.6000976562</ele>
        <time>2024-10-15T11:35:20.000Z</time>
      </trkpt>
      <trkpt lat="45.09249" lon="5.97035">
        <ele>2402.3999023438</ele>
        <time>2024-10-15T11:35:21.000Z</time>
      </trkpt>
      <trkpt lat="45.09249" lon="5.97035">
        <ele>2401.6000976562</ele>
        <time>2024-10-15T11:35:22.000Z</time>
      </trkpt>
      <trkpt lat="45.09248" lon="5.97034">
        <ele>2401.3999023438</ele>
        <time>2024-10-15T11:35:23.000Z</time>
      </trkpt>
      <trkpt lat="45.09248" lon="5.97033">
        <ele>2401.3999023438</ele>
        <time>2024-10-15T11:35:24.000Z</time>
      </trkpt>
      <trkpt lat="45.09248" lon="5.97032">
        <ele>2401.3999023438</ele>
        <time>2024-10-15T11:35:25.000Z</time>
      </trkpt>
      <trkpt lat="45.09247" lon="5.97032">
        <ele>2401.3999023438</ele>
        <time>2024-10-15T11:35:26.000Z</time>
      </trkpt>
      <trkpt lat="45.09247" lon="5.97032">
        <ele>2402</ele>
        <time>2024-10-15T11:35:27.000Z</time>
      </trkpt>
      <trkpt lat="45.09247" lon="5.97031">
        <ele>2403.3999023438</ele>
        <time>2024-10-15T11:35:28.000Z</time>
      </trkpt>
      <trkpt lat="45.09246" lon="5.97031">
        <ele>2403.3999023438</ele>
        <time>2024-10-15T11:35:29.000Z</time>
      </trkpt>
      <trkpt lat="45.09246" lon="5.9703">
        <ele>2403.3999023438</ele>
        <time>2024-10-15T11:35:30.000Z</time>
      </trkpt>
      <trkpt lat="45.09245" lon="5.97029">
        <ele>2403.6000976562</ele>
        <time>2024-10-15T11:35:31.000Z</time>
      </trkpt>
      <trkpt lat="45.09245" lon="5.97028">
        <ele>2403.6000976562</ele>
        <time>2024-10-15T11:35:32.000Z</time>
      </trkpt>
      <trkpt lat="45.09245" lon="5.97027">
        <ele>2403.1999511719</ele>
        <time>2024-10-15T11:35:33.000Z</time>
      </trkpt>
      <trkpt lat="45.09244" lon="5.97026">
        <ele>2403</ele>
        <time>2024-10-15T11:35:34.000Z</time>
      </trkpt>
      <trkpt lat="45.09244" lon="5.97025">
        <ele>2402.1999511719</ele>
        <time>2024-10-15T11:35:35.000Z</time>
      </trkpt>
      <trkpt lat="45.09243" lon="5.97024">
        <ele>2402</ele>
        <time>2024-10-15T11:35:36.000Z</time>
      </trkpt>
      <trkpt lat="45.09243" lon="5.97024">
        <ele>2401.8000488281</ele>
        <time>2024-10-15T11:35:37.000Z</time>
      </trkpt>
      <trkpt lat="45.09242" lon="5.97023">
        <ele>2401.8000488281</ele>
        <time>2024-10-15T11:35:38.000Z</time>
      </trkpt>
      <trkpt lat="45.09242" lon="5.97023">
        <ele>2401.3999023438</ele>
        <time>2024-10-15T11:35:39.000Z</time>
      </trkpt>
      <trkpt lat="45.09241" lon="5.97022">
        <ele>2401.1999511719</ele>
        <time>2024-10-15T11:35:40.000Z</time>
      </trkpt>
      <trkpt lat="45.09241" lon="5.97022">
        <ele>2401.3999023438</ele>
        <time>2024-10-15T11:35:41.000Z</time>
      </trkpt>
      <trkpt lat="45.0924" lon="5.97021">
        <ele>2401.6000976562</ele>
        <time>2024-10-15T11:35:42.000Z</time>
      </trkpt>
      <trkpt lat="45.0924" lon="5.97021">
        <ele>2402</ele>
        <time>2024-10-15T11:35:43.000Z</time>
      </trkpt>
      <trkpt lat="45.0924" lon="5.97021">
        <ele>2401.6000976562</ele>
        <time>2024-10-15T11:35:44.000Z</time>
      </trkpt>
      <trkpt lat="45.0924" lon="5.9702">
        <ele>2401.3999023438</ele>
        <time>2024-10-15T11:35:45.000Z</time>
      </trkpt>
      <trkpt lat="45.09239" lon="5.97019">
        <ele>2400.6000976562</ele>
        <time>2024-10-15T11:35:46.000Z</time>
      </trkpt>
      <trkpt lat="45.09239" lon="5.97019">
        <ele>2401.1999511719</ele>
        <time>2024-10-15T11:35:47.000Z</time>
      </trkpt>
      <trkpt lat="45.0924" lon="5.97019">
        <ele>2401.1999511719</ele>
        <time>2024-10-15T11:35:48.000Z</time>
      </trkpt>
      <trkpt lat="45.0924" lon="5.97019">
        <ele>2401.3999023438</ele>
        <time>2024-10-15T11:35:49.000Z</time>
      </trkpt>
      <trkpt lat="45.0924" lon="5.97019">
        <ele>2401.3999023438</ele>
        <time>2024-10-15T11:35:50.000Z</time>
      </trkpt>
      <trkpt lat="45.0924" lon="5.97019">
        <ele>2402</ele>
        <time>2024-10-15T11:35:51.000Z</time>
      </trkpt>
      <trkpt lat="45.0924" lon="5.97019">
        <ele>2402</ele>
        <time>2024-10-15T11:35:52.000Z</time>
      </trkpt>
      <trkpt lat="45.0924" lon="5.97019">
        <ele>2402</ele>
        <time>2024-10-15T11:35:53.000Z</time>
      </trkpt>
      <trkpt lat="45.0924" lon="5.97019">
        <ele>2402</ele>
        <time>2024-10-15T11:35:54.000Z</time>
      </trkpt>
      <trkpt lat="45.0924" lon="5.97019">
        <ele>2401.3999023438</ele>
        <time>2024-10-15T11:35:55.000Z</time>
      </trkpt>
      <trkpt lat="45.0924" lon="5.97019">
        <ele>2401.1999511719</ele>
        <time>2024-10-15T11:35:56.000Z</time>
      </trkpt>
      <trkpt lat="45.0924" lon="5.97019">
        <ele>2400.8000488281</ele>
        <time>2024-10-15T11:35:57.000Z</time>
      </trkpt>
      <trkpt lat="45.0924" lon="5.97019">
        <ele>2400.3999023438</ele>
        <time>2024-10-15T11:35:58.000Z</time>
      </trkpt>
      <trkpt lat="45.0924" lon="5.97019">
        <ele>2400</ele>
        <time>2024-10-15T11:35:59.000Z</time>
      </trkpt>
      <trkpt lat="45.0924" lon="5.97019">
        <ele>2400</ele>
        <time>2024-10-15T11:36:00.000Z</time>
      </trkpt>
      <trkpt lat="45.0924" lon="5.97019">
        <ele>2400.1999511719</ele>
        <time>2024-10-15T11:36:01.000Z</time>
      </trkpt>
      <trkpt lat="45.0924" lon="5.97019">
        <ele>2400.3999023438</ele>
        <time>2024-10-15T11:36:02.000Z</time>
      </trkpt>
      <trkpt lat="45.0924" lon="5.97019">
        <ele>2400.6000976562</ele>
        <time>2024-10-15T11:36:03.000Z</time>
      </trkpt>
      <trkpt lat="45.0924" lon="5.97019">
        <ele>2400.6000976562</ele>
        <time>2024-10-15T11:36:04.000Z</time>
      </trkpt>
      <trkpt lat="45.0924" lon="5.97019">
        <ele>2400.6000976562</ele>
        <time>2024-10-15T11:36:05.000Z</time>
      </trkpt>
      <trkpt lat="45.0924" lon="5.97019">
        <ele>2400.6000976562</ele>
        <time>2024-10-15T11:36:06.000Z</time>
      </trkpt>
      <trkpt lat="45.0924" lon="5.97019">
        <ele>2400.6000976562</ele>
        <time>2024-10-15T11:36:07.000Z</time>
      </trkpt>
      <trkpt lat="45.0924" lon="5.97019">
        <ele>2400.6000976562</ele>
        <time>2024-10-15T11:36:08.000Z</time>
      </trkpt>
      <trkpt lat="45.0924" lon="5.97019">
        <ele>2400.6000976562</ele>
        <time>2024-10-15T11:36:09.000Z</time>
      </trkpt>
      <trkpt lat="45.0924" lon="5.97019">
        <ele>2400.6000976562</ele>
        <time>2024-10-15T11:36:10.000Z</time>
      </trkpt>
      <trkpt lat="45.09239" lon="5.97019">
        <ele>2400.3999023438</ele>
        <time>2024-10-15T11:36:11.000Z</time>
      </trkpt>
      <trkpt lat="45.09239" lon="5.97019">
        <ele>2400.3999023438</ele>
        <time>2024-10-15T11:36:12.000Z</time>
      </trkpt>
      <trkpt lat="45.09239" lon="5.97019">
        <ele>2400.3999023438</ele>
        <time>2024-10-15T11:36:13.000Z</time>
      </trkpt>
      <trkpt lat="45.09239" lon="5.97019">
        <ele>2400.3999023438</ele>
        <time>2024-10-15T11:36:14.000Z</time>
      </trkpt>
      <trkpt lat="45.09239" lon="5.97019">
        <ele>2400.3999023438</ele>
        <time>2024-10-15T11:36:15.000Z</time>
      </trkpt>
      <trkpt lat="45.09239" lon="5.97019">
        <ele>2400.6000976562</ele>
        <time>2024-10-15T11:36:16.000Z</time>
      </trkpt>
      <trkpt lat="45.09239" lon="5.97019">
        <ele>2400.8000488281</ele>
        <time>2024-10-15T11:36:17.000Z</time>
      </trkpt>
      <trkpt lat="45.09239" lon="5.97019">
        <ele>2400.8000488281</ele>
        <time>2024-10-15T11:36:18.000Z</time>
      </trkpt>
      <trkpt lat="45.09239" lon="5.97019">
        <ele>2400.8000488281</ele>
        <time>2024-10-15T11:36:19.000Z</time>
      </trkpt>
      <trkpt lat="45.09239" lon="5.97019">
        <ele>2400.8000488281</ele>
        <time>2024-10-15T11:36:20.000Z</time>
      </trkpt>
      <trkpt lat="45.09239" lon="5.97019">
        <ele>2400.8000488281</ele>
        <time>2024-10-15T11:36:21.000Z</time>
      </trkpt>
      <trkpt lat="45.09239" lon="5.97019">
        <ele>2400.8000488281</ele>
        <time>2024-10-15T11:36:22.000Z</time>
      </trkpt>
      <trkpt lat="45.09239" lon="5.97019">
        <ele>2400.8000488281</ele>
        <time>2024-10-15T11:36:23.000Z</time>
      </trkpt>
      <trkpt lat="45.09239" lon="5.97019">
        <ele>2400.8000488281</ele>
        <time>2024-10-15T11:36:24.000Z</time>
      </trkpt>
      <trkpt lat="45.09239" lon="5.97019">
        <ele>2400.8000488281</ele>
        <time>2024-10-15T11:36:25.000Z</time>
      </trkpt>
      <trkpt lat="45.09239" lon="5.97019">
        <ele>2400.8000488281</ele>
        <time>2024-10-15T11:36:26.000Z</time>
      </trkpt>
      <trkpt lat="45.09239" lon="5.97019">
        <ele>2400.6000976562</ele>
        <time>2024-10-15T11:36:27.000Z</time>
      </trkpt>
      <trkpt lat="45.09239" lon="5.97019">
        <ele>2400.3999023438</ele>
        <time>2024-10-15T11:36:28.000Z</time>
      </trkpt>
      <trkpt lat="45.09239" lon="5.97019">
        <ele>2400.3999023438</ele>
        <time>2024-10-15T11:36:29.000Z</time>
      </trkpt>
      <trkpt lat="45.09239" lon="5.97019">
        <ele>2400.3999023438</ele>
        <time>2024-10-15T11:36:30.000Z</time>
      </trkpt>
      <trkpt lat="45.09239" lon="5.97019">
        <ele>2400.3999023438</ele>
        <time>2024-10-15T11:36:31.000Z</time>
      </trkpt>
      <trkpt lat="45.09239" lon="5.97019">
        <ele>2400.3999023438</ele>
        <time>2024-10-15T11:36:32.000Z</time>
      </trkpt>
      <trkpt lat="45.09239" lon="5.97019">
        <ele>2400.3999023438</ele>
        <time>2024-10-15T11:36:33.000Z</time>
      </trkpt>
      <trkpt lat="45.09239" lon="5.97019">
        <ele>2400.3999023438</ele>
        <time>2024-10-15T11:36:34.000Z</time>
      </trkpt>
      <trkpt lat="45.09239" lon="5.97019">
        <ele>2400.3999023438</ele>
        <time>2024-10-15T11:36:35.000Z</time>
      </trkpt>
      <trkpt lat="45.09239" lon="5.97019">
        <ele>2400.3999023438</ele>
        <time>2024-10-15T11:36:36.000Z</time>
      </trkpt>
      <trkpt lat="45.09239" lon="5.97019">
        <ele>2400.3999023438</ele>
        <time>2024-10-15T11:36:37.000Z</time>
      </trkpt>
      <trkpt lat="45.09239" lon="5.97019">
        <ele>2400.3999023438</ele>
        <time>2024-10-15T11:36:38.000Z</time>
      </trkpt>
      <trkpt lat="45.09239" lon="5.97019">
        <ele>2400.3999023438</ele>
        <time>2024-10-15T11:36:39.000Z</time>
      </trkpt>
      <trkpt lat="45.09239" lon="5.97019">
        <ele>2400.3999023438</ele>
        <time>2024-10-15T11:36:40.000Z</time>
      </trkpt>
      <trkpt lat="45.09239" lon="5.97019">
        <ele>2400</ele>
        <time>2024-10-15T11:36:41.000Z</time>
      </trkpt>
      <trkpt lat="45.09239" lon="5.97019">
        <ele>2400</ele>
        <time>2024-10-15T11:36:42.000Z</time>
      </trkpt>
      <trkpt lat="45.09239" lon="5.97019">
        <ele>2400</ele>
        <time>2024-10-15T11:36:43.000Z</time>
      </trkpt>
      <trkpt lat="45.09239" lon="5.97018">
        <ele>2400</ele>
        <time>2024-10-15T11:36:44.000Z</time>
      </trkpt>
      <trkpt lat="45.09239" lon="5.97018">
        <ele>2399.8000488281</ele>
        <time>2024-10-15T11:36:45.000Z</time>
      </trkpt>
      <trkpt lat="45.09239" lon="5.97018">
        <ele>2399.6000976562</ele>
        <time>2024-10-15T11:36:46.000Z</time>
      </trkpt>
      <trkpt lat="45.09239" lon="5.97018">
        <ele>2399.6000976562</ele>
        <time>2024-10-15T11:36:47.000Z</time>
      </trkpt>
      <trkpt lat="45.09239" lon="5.97018">
        <ele>2399.6000976562</ele>
        <time>2024-10-15T11:36:48.000Z</time>
      </trkpt>
      <trkpt lat="45.09239" lon="5.97018">
        <ele>2399.6000976562</ele>
        <time>2024-10-15T11:36:49.000Z</time>
      </trkpt>
      <trkpt lat="45.09239" lon="5.97018">
        <ele>2400</ele>
        <time>2024-10-15T11:36:50.000Z</time>
      </trkpt>
      <trkpt lat="45.09239" lon="5.97018">
        <ele>2400</ele>
        <time>2024-10-15T11:36:51.000Z</time>
      </trkpt>
      <trkpt lat="45.09239" lon="5.97018">
        <ele>2400.3999023438</ele>
        <time>2024-10-15T11:36:52.000Z</time>
      </trkpt>
      <trkpt lat="45.09239" lon="5.97018">
        <ele>2400.6000976562</ele>
        <time>2024-10-15T11:36:53.000Z</time>
      </trkpt>
      <trkpt lat="45.09239" lon="5.97018">
        <ele>2400.6000976562</ele>
        <time>2024-10-15T11:36:54.000Z</time>
      </trkpt>
      <trkpt lat="45.09239" lon="5.97018">
        <ele>2400.6000976562</ele>
        <time>2024-10-15T11:36:55.000Z</time>
      </trkpt>
      <trkpt lat="45.09239" lon="5.97018">
        <ele>2400.3999023438</ele>
        <time>2024-10-15T11:36:56.000Z</time>
      </trkpt>
      <trkpt lat="45.09239" lon="5.97018">
        <ele>2399.8000488281</ele>
        <time>2024-10-15T11:36:57.000Z</time>
      </trkpt>
      <trkpt lat="45.09239" lon="5.97018">
        <ele>2399.6000976562</ele>
        <time>2024-10-15T11:36:58.000Z</time>
      </trkpt>
      <trkpt lat="45.09239" lon="5.97018">
        <ele>2399.3999023438</ele>
        <time>2024-10-15T11:36:59.000Z</time>
      </trkpt>
      <trkpt lat="45.09239" lon="5.97018">
        <ele>2399.3999023438</ele>
        <time>2024-10-15T11:37:00.000Z</time>
      </trkpt>
      <trkpt lat="45.09239" lon="5.97019">
        <ele>2399.3999023438</ele>
        <time>2024-10-15T11:37:01.000Z</time>
      </trkpt>
      <trkpt lat="45.09239" lon="5.97019">
        <ele>2399.1999511719</ele>
        <time>2024-10-15T11:37:02.000Z</time>
      </trkpt>
      <trkpt lat="45.09239" lon="5.97019">
        <ele>2399</ele>
        <time>2024-10-15T11:37:03.000Z</time>
      </trkpt>
      <trkpt lat="45.09239" lon="5.97019">
        <ele>2398.6000976562</ele>
        <time>2024-10-15T11:37:04.000Z</time>
      </trkpt>
      <trkpt lat="45.09239" lon="5.97019">
        <ele>2398.3999023438</ele>
        <time>2024-10-15T11:37:05.000Z</time>
      </trkpt>
      <trkpt lat="45.09239" lon="5.97019">
        <ele>2398.3999023438</ele>
        <time>2024-10-15T11:37:06.000Z</time>
      </trkpt>
      <trkpt lat="45.09239" lon="5.97019">
        <ele>2398.3999023438</ele>
        <time>2024-10-15T11:37:07.000Z</time>
      </trkpt>
      <trkpt lat="45.09239" lon="5.97019">
        <ele>2398.3999023438</ele>
        <time>2024-10-15T11:37:08.000Z</time>
      </trkpt>
      <trkpt lat="45.09239" lon="5.97019">
        <ele>2399.1999511719</ele>
        <time>2024-10-15T11:37:09.000Z</time>
      </trkpt>
      <trkpt lat="45.09239" lon="5.97019">
        <ele>2399.6000976562</ele>
        <time>2024-10-15T11:37:10.000Z</time>
      </trkpt>
      <trkpt lat="45.09239" lon="5.97019">
        <ele>2399.6000976562</ele>
        <time>2024-10-15T11:37:11.000Z</time>
      </trkpt>
      <trkpt lat="45.09239" lon="5.97019">
        <ele>2399.6000976562</ele>
        <time>2024-10-15T11:37:12.000Z</time>
      </trkpt>
      <trkpt lat="45.09239" lon="5.97019">
        <ele>2399.6000976562</ele>
        <time>2024-10-15T11:37:13.000Z</time>
      </trkpt>
      <trkpt lat="45.09239" lon="5.97019">
        <ele>2399.6000976562</ele>
        <time>2024-10-15T11:37:14.000Z</time>
      </trkpt>
      <trkpt lat="45.09239" lon="5.97019">
        <ele>2399.3999023438</ele>
        <time>2024-10-15T11:37:15.000Z</time>
      </trkpt>
      <trkpt lat="45.09239" lon="5.97019">
        <ele>2399.3999023438</ele>
        <time>2024-10-15T11:37:16.000Z</time>
      </trkpt>
      <trkpt lat="45.09239" lon="5.97019">
        <ele>2399.3999023438</ele>
        <time>2024-10-15T11:37:17.000Z</time>
      </trkpt>
      <trkpt lat="45.09239" lon="5.9702">
        <ele>2399.1999511719</ele>
        <time>2024-10-15T11:37:18.000Z</time>
      </trkpt>
      <trkpt lat="45.09239" lon="5.9702">
        <ele>2399</ele>
        <time>2024-10-15T11:37:19.000Z</time>
      </trkpt>
      <trkpt lat="45.09239" lon="5.9702">
        <ele>2398.8000488281</ele>
        <time>2024-10-15T11:37:20.000Z</time>
      </trkpt>
      <trkpt lat="45.09239" lon="5.9702">
        <ele>2398.8000488281</ele>
        <time>2024-10-15T11:37:21.000Z</time>
      </trkpt>
      <trkpt lat="45.09239" lon="5.9702">
        <ele>2398.1999511719</ele>
        <time>2024-10-15T11:37:22.000Z</time>
      </trkpt>
      <trkpt lat="45.09239" lon="5.9702">
        <ele>2398</ele>
        <time>2024-10-15T11:37:23.000Z</time>
      </trkpt>
      <trkpt lat="45.09239" lon="5.9702">
        <ele>2397.6000976562</ele>
        <time>2024-10-15T11:37:24.000Z</time>
      </trkpt>
      <trkpt lat="45.09239" lon="5.9702">
        <ele>2397.3999023438</ele>
        <time>2024-10-15T11:37:25.000Z</time>
      </trkpt>
      <trkpt lat="45.09239" lon="5.9702">
        <ele>2396.8000488281</ele>
        <time>2024-10-15T11:37:26.000Z</time>
      </trkpt>
      <trkpt lat="45.09239" lon="5.97019">
        <ele>2396.8000488281</ele>
        <time>2024-10-15T11:37:27.000Z</time>
      </trkpt>
      <trkpt lat="45.09239" lon="5.97019">
        <ele>2396.6000976562</ele>
        <time>2024-10-15T11:37:28.000Z</time>
      </trkpt>
      <trkpt lat="45.09239" lon="5.97019">
        <ele>2396.6000976562</ele>
        <time>2024-10-15T11:37:29.000Z</time>
      </trkpt>
      <trkpt lat="45.09239" lon="5.97019">
        <ele>2396.6000976562</ele>
        <time>2024-10-15T11:37:30.000Z</time>
      </trkpt>
      <trkpt lat="45.09239" lon="5.97019">
        <ele>2396.6000976562</ele>
        <time>2024-10-15T11:37:31.000Z</time>
      </trkpt>
      <trkpt lat="45.09239" lon="5.97019">
        <ele>2396.3999023438</ele>
        <time>2024-10-15T11:37:32.000Z</time>
      </trkpt>
      <trkpt lat="45.09239" lon="5.97019">
        <ele>2396.3999023438</ele>
        <time>2024-10-15T11:37:33.000Z</time>
      </trkpt>
      <trkpt lat="45.09239" lon="5.97019">
        <ele>2396.3999023438</ele>
        <time>2024-10-15T11:37:34.000Z</time>
      </trkpt>
      <trkpt lat="45.09239" lon="5.97019">
        <ele>2396.3999023438</ele>
        <time>2024-10-15T11:37:35.000Z</time>
      </trkpt>
      <trkpt lat="45.09239" lon="5.97019">
        <ele>2395.6000976562</ele>
        <time>2024-10-15T11:37:36.000Z</time>
      </trkpt>
      <trkpt lat="45.09239" lon="5.97019">
        <ele>2395.3999023438</ele>
        <time>2024-10-15T11:37:37.000Z</time>
      </trkpt>
      <trkpt lat="45.09239" lon="5.97019">
        <ele>2395.1999511719</ele>
        <time>2024-10-15T11:37:38.000Z</time>
      </trkpt>
      <trkpt lat="45.0924" lon="5.97019">
        <ele>2394.8000488281</ele>
        <time>2024-10-15T11:37:39.000Z</time>
      </trkpt>
      <trkpt lat="45.0924" lon="5.97019">
        <ele>2394.6000976562</ele>
        <time>2024-10-15T11:37:40.000Z</time>
      </trkpt>
      <trkpt lat="45.0924" lon="5.97019">
        <ele>2394.1999511719</ele>
        <time>2024-10-15T11:37:41.000Z</time>
      </trkpt>
      <trkpt lat="45.0924" lon="5.97019">
        <ele>2394</ele>
        <time>2024-10-15T11:37:42.000Z</time>
      </trkpt>
      <trkpt lat="45.0924" lon="5.97019">
        <ele>2393.6000976562</ele>
        <time>2024-10-15T11:37:43.000Z</time>
      </trkpt>
      <trkpt lat="45.0924" lon="5.97019">
        <ele>2393.6000976562</ele>
        <time>2024-10-15T11:37:44.000Z</time>
      </trkpt>
      <trkpt lat="45.0924" lon="5.97019">
        <ele>2393.6000976562</ele>
        <time>2024-10-15T11:37:45.000Z</time>
      </trkpt>
      <trkpt lat="45.0924" lon="5.97019">
        <ele>2394</ele>
        <time>2024-10-15T11:37:46.000Z</time>
      </trkpt>
      <trkpt lat="45.0924" lon="5.97019">
        <ele>2395.3999023438</ele>
        <time>2024-10-15T11:37:47.000Z</time>
      </trkpt>
      <trkpt lat="45.0924" lon="5.97019">
        <ele>2395.8000488281</ele>
        <time>2024-10-15T11:37:48.000Z</time>
      </trkpt>
      <trkpt lat="45.0924" lon="5.97019">
        <ele>2396</ele>
        <time>2024-10-15T11:37:49.000Z</time>
      </trkpt>
      <trkpt lat="45.0924" lon="5.97019">
        <ele>2397.3999023438</ele>
        <time>2024-10-15T11:37:50.000Z</time>
      </trkpt>
      <trkpt lat="45.0924" lon="5.97019">
        <ele>2398.6000976562</ele>
        <time>2024-10-15T11:37:51.000Z</time>
      </trkpt>
      <trkpt lat="45.0924" lon="5.97019">
        <ele>2399.6000976562</ele>
        <time>2024-10-15T11:37:52.000Z</time>
      </trkpt>
      <trkpt lat="45.0924" lon="5.97019">
        <ele>2400.1999511719</ele>
        <time>2024-10-15T11:37:53.000Z</time>
      </trkpt>
      <trkpt lat="45.0924" lon="5.97019">
        <ele>2400.6000976562</ele>
        <time>2024-10-15T11:37:54.000Z</time>
      </trkpt>
      <trkpt lat="45.0924" lon="5.97019">
        <ele>2401</ele>
        <time>2024-10-15T11:37:55.000Z</time>
      </trkpt>
      <trkpt lat="45.0924" lon="5.97019">
        <ele>2401</ele>
        <time>2024-10-15T11:37:56.000Z</time>
      </trkpt>
      <trkpt lat="45.0924" lon="5.97019">
        <ele>2400.8000488281</ele>
        <time>2024-10-15T11:37:57.000Z</time>
      </trkpt>
      <trkpt lat="45.09241" lon="5.97019">
        <ele>2400.8000488281</ele>
        <time>2024-10-15T11:37:58.000Z</time>
      </trkpt>
      <trkpt lat="45.09241" lon="5.97019">
        <ele>2400.8000488281</ele>
        <time>2024-10-15T11:37:59.000Z</time>
      </trkpt>
      <trkpt lat="45.09241" lon="5.97019">
        <ele>2400.8000488281</ele>
        <time>2024-10-15T11:38:00.000Z</time>
      </trkpt>
      <trkpt lat="45.09241" lon="5.97019">
        <ele>2400.6000976562</ele>
        <time>2024-10-15T11:38:01.000Z</time>
      </trkpt>
      <trkpt lat="45.09241" lon="5.97019">
        <ele>2400.3999023438</ele>
        <time>2024-10-15T11:38:02.000Z</time>
      </trkpt>
      <trkpt lat="45.09241" lon="5.97019">
        <ele>2400.3999023438</ele>
        <time>2024-10-15T11:38:03.000Z</time>
      </trkpt>
      <trkpt lat="45.09241" lon="5.97019">
        <ele>2400.3999023438</ele>
        <time>2024-10-15T11:38:04.000Z</time>
      </trkpt>
      <trkpt lat="45.09241" lon="5.97019">
        <ele>2400.3999023438</ele>
        <time>2024-10-15T11:38:05.000Z</time>
      </trkpt>
      <trkpt lat="45.09241" lon="5.97019">
        <ele>2400.6000976562</ele>
        <time>2024-10-15T11:38:06.000Z</time>
      </trkpt>
      <trkpt lat="45.09241" lon="5.97019">
        <ele>2400.8000488281</ele>
        <time>2024-10-15T11:38:07.000Z</time>
      </trkpt>
      <trkpt lat="45.09242" lon="5.97019">
        <ele>2400.8000488281</ele>
        <time>2024-10-15T11:38:08.000Z</time>
      </trkpt>
      <trkpt lat="45.09242" lon="5.97019">
        <ele>2401</ele>
        <time>2024-10-15T11:38:09.000Z</time>
      </trkpt>
      <trkpt lat="45.09242" lon="5.97019">
        <ele>2401</ele>
        <time>2024-10-15T11:38:10.000Z</time>
      </trkpt>
      <trkpt lat="45.09242" lon="5.97019">
        <ele>2401</ele>
        <time>2024-10-15T11:38:11.000Z</time>
      </trkpt>
      <trkpt lat="45.09242" lon="5.97019">
        <ele>2400.8000488281</ele>
        <time>2024-10-15T11:38:12.000Z</time>
      </trkpt>
      <trkpt lat="45.09242" lon="5.97019">
        <ele>2400.6000976562</ele>
        <time>2024-10-15T11:38:13.000Z</time>
      </trkpt>
      <trkpt lat="45.09242" lon="5.97019">
        <ele>2400.1999511719</ele>
        <time>2024-10-15T11:38:14.000Z</time>
      </trkpt>
      <trkpt lat="45.09242" lon="5.97019">
        <ele>2399.3999023438</ele>
        <time>2024-10-15T11:38:15.000Z</time>
      </trkpt>
      <trkpt lat="45.09242" lon="5.97019">
        <ele>2399.3999023438</ele>
        <time>2024-10-15T11:38:16.000Z</time>
      </trkpt>
      <trkpt lat="45.09242" lon="5.97019">
        <ele>2399.1999511719</ele>
        <time>2024-10-15T11:38:17.000Z</time>
      </trkpt>
      <trkpt lat="45.09242" lon="5.97019">
        <ele>2398.8000488281</ele>
        <time>2024-10-15T11:38:18.000Z</time>
      </trkpt>
      <trkpt lat="45.09242" lon="5.97019">
        <ele>2398.6000976562</ele>
        <time>2024-10-15T11:38:19.000Z</time>
      </trkpt>
      <trkpt lat="45.09242" lon="5.97019">
        <ele>2398.3999023438</ele>
        <time>2024-10-15T11:38:20.000Z</time>
      </trkpt>
      <trkpt lat="45.09242" lon="5.97019">
        <ele>2398.3999023438</ele>
        <time>2024-10-15T11:38:21.000Z</time>
      </trkpt>
      <trkpt lat="45.09242" lon="5.97019">
        <ele>2398.1999511719</ele>
        <time>2024-10-15T11:38:22.000Z</time>
      </trkpt>
      <trkpt lat="45.09242" lon="5.97019">
        <ele>2398.1999511719</ele>
        <time>2024-10-15T11:38:23.000Z</time>
      </trkpt>
      <trkpt lat="45.09242" lon="5.97019">
        <ele>2398.1999511719</ele>
        <time>2024-10-15T11:38:24.000Z</time>
      </trkpt>
      <trkpt lat="45.09242" lon="5.97019">
        <ele>2398.1999511719</ele>
        <time>2024-10-15T11:38:25.000Z</time>
      </trkpt>
      <trkpt lat="45.09242" lon="5.97019">
        <ele>2398.1999511719</ele>
        <time>2024-10-15T11:38:26.000Z</time>
      </trkpt>
      <trkpt lat="45.09242" lon="5.97019">
        <ele>2398.1999511719</ele>
        <time>2024-10-15T11:38:27.000Z</time>
      </trkpt>
      <trkpt lat="45.09242" lon="5.97019">
        <ele>2398</ele>
        <time>2024-10-15T11:38:28.000Z</time>
      </trkpt>
      <trkpt lat="45.09242" lon="5.97019">
        <ele>2397.8000488281</ele>
        <time>2024-10-15T11:38:29.000Z</time>
      </trkpt>
      <trkpt lat="45.09242" lon="5.97019">
        <ele>2397.3999023438</ele>
        <time>2024-10-15T11:38:30.000Z</time>
      </trkpt>
      <trkpt lat="45.09242" lon="5.97019">
        <ele>2397.1999511719</ele>
        <time>2024-10-15T11:38:31.000Z</time>
      </trkpt>
      <trkpt lat="45.09242" lon="5.97019">
        <ele>2397.1999511719</ele>
        <time>2024-10-15T11:38:32.000Z</time>
      </trkpt>
      <trkpt lat="45.09242" lon="5.97019">
        <ele>2397.1999511719</ele>
        <time>2024-10-15T11:38:33.000Z</time>
      </trkpt>
      <trkpt lat="45.09241" lon="5.97019">
        <ele>2397.6000976562</ele>
        <time>2024-10-15T11:38:34.000Z</time>
      </trkpt>
      <trkpt lat="45.09241" lon="5.97019">
        <ele>2397.8000488281</ele>
        <time>2024-10-15T11:38:35.000Z</time>
      </trkpt>
      <trkpt lat="45.09241" lon="5.97019">
        <ele>2397.8000488281</ele>
        <time>2024-10-15T11:38:36.000Z</time>
      </trkpt>
      <trkpt lat="45.09241" lon="5.97019">
        <ele>2397.8000488281</ele>
        <time>2024-10-15T11:38:37.000Z</time>
      </trkpt>
      <trkpt lat="45.09241" lon="5.97019">
        <ele>2397.8000488281</ele>
        <time>2024-10-15T11:38:38.000Z</time>
      </trkpt>
      <trkpt lat="45.09241" lon="5.97019">
        <ele>2397.8000488281</ele>
        <time>2024-10-15T11:38:39.000Z</time>
      </trkpt>
      <trkpt lat="45.09241" lon="5.97019">
        <ele>2397.6000976562</ele>
        <time>2024-10-15T11:38:40.000Z</time>
      </trkpt>
      <trkpt lat="45.09241" lon="5.97019">
        <ele>2397.6000976562</ele>
        <time>2024-10-15T11:38:41.000Z</time>
      </trkpt>
      <trkpt lat="45.0924" lon="5.97019">
        <ele>2397.6000976562</ele>
        <time>2024-10-15T11:38:42.000Z</time>
      </trkpt>
      <trkpt lat="45.0924" lon="5.97019">
        <ele>2397.6000976562</ele>
        <time>2024-10-15T11:38:43.000Z</time>
      </trkpt>
      <trkpt lat="45.0924" lon="5.97019">
        <ele>2397.3999023438</ele>
        <time>2024-10-15T11:38:44.000Z</time>
      </trkpt>
      <trkpt lat="45.0924" lon="5.97019">
        <ele>2397.1999511719</ele>
        <time>2024-10-15T11:38:45.000Z</time>
      </trkpt>
      <trkpt lat="45.0924" lon="5.97019">
        <ele>2397.1999511719</ele>
        <time>2024-10-15T11:38:46.000Z</time>
      </trkpt>
      <trkpt lat="45.0924" lon="5.97019">
        <ele>2397.1999511719</ele>
        <time>2024-10-15T11:38:47.000Z</time>
      </trkpt>
      <trkpt lat="45.0924" lon="5.97018">
        <ele>2397</ele>
        <time>2024-10-15T11:38:48.000Z</time>
      </trkpt>
      <trkpt lat="45.0924" lon="5.97018">
        <ele>2397</ele>
        <time>2024-10-15T11:38:49.000Z</time>
      </trkpt>
      <trkpt lat="45.09239" lon="5.97018">
        <ele>2396.8000488281</ele>
        <time>2024-10-15T11:38:50.000Z</time>
      </trkpt>
      <trkpt lat="45.09239" lon="5.97018">
        <ele>2396.8000488281</ele>
        <time>2024-10-15T11:38:51.000Z</time>
      </trkpt>
      <trkpt lat="45.09239" lon="5.97018">
        <ele>2396.8000488281</ele>
        <time>2024-10-15T11:38:52.000Z</time>
      </trkpt>
      <trkpt lat="45.09239" lon="5.97018">
        <ele>2396.6000976562</ele>
        <time>2024-10-15T11:38:53.000Z</time>
      </trkpt>
      <trkpt lat="45.09239" lon="5.97018">
        <ele>2396.6000976562</ele>
        <time>2024-10-15T11:38:54.000Z</time>
      </trkpt>
      <trkpt lat="45.09239" lon="5.97018">
        <ele>2396.6000976562</ele>
        <time>2024-10-15T11:38:55.000Z</time>
      </trkpt>
      <trkpt lat="45.09239" lon="5.97018">
        <ele>2396.6000976562</ele>
        <time>2024-10-15T11:38:56.000Z</time>
      </trkpt>
      <trkpt lat="45.09239" lon="5.97017">
        <ele>2396.3999023438</ele>
        <time>2024-10-15T11:38:57.000Z</time>
      </trkpt>
      <trkpt lat="45.09239" lon="5.97017">
        <ele>2396.3999023438</ele>
        <time>2024-10-15T11:38:58.000Z</time>
      </trkpt>
      <trkpt lat="45.09239" lon="5.97017">
        <ele>2396.1999511719</ele>
        <time>2024-10-15T11:38:59.000Z</time>
      </trkpt>
      <trkpt lat="45.09238" lon="5.97017">
        <ele>2395.6000976562</ele>
        <time>2024-10-15T11:39:00.000Z</time>
      </trkpt>
      <trkpt lat="45.09238" lon="5.97017">
        <ele>2395.3999023438</ele>
        <time>2024-10-15T11:39:01.000Z</time>
      </trkpt>
      <trkpt lat="45.09238" lon="5.97017">
        <ele>2395.1999511719</ele>
        <time>2024-10-15T11:39:02.000Z</time>
      </trkpt>
      <trkpt lat="45.09238" lon="5.97016">
        <ele>2395.1999511719</ele>
        <time>2024-10-15T11:39:03.000Z</time>
      </trkpt>
      <trkpt lat="45.09238" lon="5.97016">
        <ele>2395</ele>
        <time>2024-10-15T11:39:04.000Z</time>
      </trkpt>
      <trkpt lat="45.09237" lon="5.97016">
        <ele>2395</ele>
        <time>2024-10-15T11:39:05.000Z</time>
      </trkpt>
      <trkpt lat="45.09237" lon="5.97016">
        <ele>2394.6000976562</ele>
        <time>2024-10-15T11:39:06.000Z</time>
      </trkpt>
      <trkpt lat="45.09237" lon="5.97016">
        <ele>2393.8000488281</ele>
        <time>2024-10-15T11:39:07.000Z</time>
      </trkpt>
      <trkpt lat="45.09237" lon="5.97015">
        <ele>2393.3999023438</ele>
        <time>2024-10-15T11:39:08.000Z</time>
      </trkpt>
      <trkpt lat="45.09237" lon="5.97015">
        <ele>2393.3999023438</ele>
        <time>2024-10-15T11:39:09.000Z</time>
      </trkpt>
      <trkpt lat="45.09237" lon="5.97015">
        <ele>2393.3999023438</ele>
        <time>2024-10-15T11:39:10.000Z</time>
      </trkpt>
      <trkpt lat="45.09236" lon="5.97015">
        <ele>2393.3999023438</ele>
        <time>2024-10-15T11:39:11.000Z</time>
      </trkpt>
      <trkpt lat="45.09235" lon="5.97014">
        <ele>2393.3999023438</ele>
        <time>2024-10-15T11:39:12.000Z</time>
      </trkpt>
      <trkpt lat="45.09233" lon="5.97011">
        <ele>2393.6000976562</ele>
        <time>2024-10-15T11:39:13.000Z</time>
      </trkpt>
      <trkpt lat="45.0923" lon="5.97009">
        <ele>2393.6000976562</ele>
        <time>2024-10-15T11:39:14.000Z</time>
      </trkpt>
      <trkpt lat="45.09228" lon="5.97007">
        <ele>2393.3999023438</ele>
        <time>2024-10-15T11:39:15.000Z</time>
      </trkpt>
      <trkpt lat="45.09226" lon="5.97005">
        <ele>2393.1999511719</ele>
        <time>2024-10-15T11:39:16.000Z</time>
      </trkpt>
      <trkpt lat="45.09223" lon="5.97003">
        <ele>2393.1999511719</ele>
        <time>2024-10-15T11:39:17.000Z</time>
      </trkpt>
      <trkpt lat="45.09221" lon="5.97001">
        <ele>2393.1999511719</ele>
        <time>2024-10-15T11:39:18.000Z</time>
      </trkpt>
      <trkpt lat="45.09219" lon="5.97">
        <ele>2393</ele>
        <time>2024-10-15T11:39:19.000Z</time>
      </trkpt>
      <trkpt lat="45.09217" lon="5.96998">
        <ele>2392.8000488281</ele>
        <time>2024-10-15T11:39:20.000Z</time>
      </trkpt>
      <trkpt lat="45.09215" lon="5.96996">
        <ele>2392.8000488281</ele>
        <time>2024-10-15T11:39:21.000Z</time>
      </trkpt>
      <trkpt lat="45.09214" lon="5.96995">
        <ele>2392.6000976562</ele>
        <time>2024-10-15T11:39:22.000Z</time>
      </trkpt>
      <trkpt lat="45.09213" lon="5.96995">
        <ele>2392.1999511719</ele>
        <time>2024-10-15T11:39:23.000Z</time>
      </trkpt>
      <trkpt lat="45.09213" lon="5.96994">
        <ele>2391.6000976562</ele>
        <time>2024-10-15T11:39:24.000Z</time>
      </trkpt>
      <trkpt lat="45.09212" lon="5.96994">
        <ele>2391.3999023438</ele>
        <time>2024-10-15T11:39:25.000Z</time>
      </trkpt>
      <trkpt lat="45.09212" lon="5.96993">
        <ele>2391.1999511719</ele>
        <time>2024-10-15T11:39:26.000Z</time>
      </trkpt>
      <trkpt lat="45.09211" lon="5.96993">
        <ele>2391.1999511719</ele>
        <time>2024-10-15T11:39:27.000Z</time>
      </trkpt>
      <trkpt lat="45.09211" lon="5.96992">
        <ele>2391</ele>
        <time>2024-10-15T11:39:28.000Z</time>
      </trkpt>
      <trkpt lat="45.0921" lon="5.96992">
        <ele>2390.8000488281</ele>
        <time>2024-10-15T11:39:29.000Z</time>
      </trkpt>
      <trkpt lat="45.09209" lon="5.96991">
        <ele>2390.3999023438</ele>
        <time>2024-10-15T11:39:30.000Z</time>
      </trkpt>
      <trkpt lat="45.09209" lon="5.96991">
        <ele>2390</ele>
        <time>2024-10-15T11:39:31.000Z</time>
      </trkpt>
      <trkpt lat="45.09209" lon="5.9699">
        <ele>2390</ele>
        <time>2024-10-15T11:39:32.000Z</time>
      </trkpt>
      <trkpt lat="45.09209" lon="5.9699">
        <ele>2390</ele>
        <time>2024-10-15T11:39:33.000Z</time>
      </trkpt>
      <trkpt lat="45.09209" lon="5.9699">
        <ele>2389.8000488281</ele>
        <time>2024-10-15T11:39:34.000Z</time>
      </trkpt>
      <trkpt lat="45.09209" lon="5.9699">
        <ele>2389.8000488281</ele>
        <time>2024-10-15T11:39:35.000Z</time>
      </trkpt>
      <trkpt lat="45.09209" lon="5.96991">
        <ele>2389.8000488281</ele>
        <time>2024-10-15T11:39:36.000Z</time>
      </trkpt>
      <trkpt lat="45.09209" lon="5.96991">
        <ele>2389.8000488281</ele>
        <time>2024-10-15T11:39:37.000Z</time>
      </trkpt>
      <trkpt lat="45.09209" lon="5.96991">
        <ele>2389.8000488281</ele>
        <time>2024-10-15T11:39:38.000Z</time>
      </trkpt>
      <trkpt lat="45.09209" lon="5.96991">
        <ele>2389.6000976562</ele>
        <time>2024-10-15T11:39:39.000Z</time>
      </trkpt>
      <trkpt lat="45.09209" lon="5.96991">
        <ele>2389.3999023438</ele>
        <time>2024-10-15T11:39:40.000Z</time>
      </trkpt>
      <trkpt lat="45.09208" lon="5.9699">
        <ele>2389.3999023438</ele>
        <time>2024-10-15T11:39:41.000Z</time>
      </trkpt>
      <trkpt lat="45.09208" lon="5.9699">
        <ele>2389.1999511719</ele>
        <time>2024-10-15T11:39:42.000Z</time>
      </trkpt>
      <trkpt lat="45.09208" lon="5.9699">
        <ele>2389.1999511719</ele>
        <time>2024-10-15T11:39:43.000Z</time>
      </trkpt>
      <trkpt lat="45.09207" lon="5.9699">
        <ele>2389.1999511719</ele>
        <time>2024-10-15T11:39:44.000Z</time>
      </trkpt>
      <trkpt lat="45.09207" lon="5.96989">
        <ele>2389.1999511719</ele>
        <time>2024-10-15T11:39:45.000Z</time>
      </trkpt>
      <trkpt lat="45.09207" lon="5.96989">
        <ele>2389</ele>
        <time>2024-10-15T11:39:46.000Z</time>
      </trkpt>
      <trkpt lat="45.09207" lon="5.96989">
        <ele>2388.8000488281</ele>
        <time>2024-10-15T11:39:47.000Z</time>
      </trkpt>
      <trkpt lat="45.09207" lon="5.96989">
        <ele>2388.6000976562</ele>
        <time>2024-10-15T11:39:48.000Z</time>
      </trkpt>
      <trkpt lat="45.09207" lon="5.96989">
        <ele>2388.3999023438</ele>
        <time>2024-10-15T11:39:49.000Z</time>
      </trkpt>
      <trkpt lat="45.09207" lon="5.96988">
        <ele>2388.3999023438</ele>
        <time>2024-10-15T11:39:50.000Z</time>
      </trkpt>
      <trkpt lat="45.09207" lon="5.96988">
        <ele>2388.3999023438</ele>
        <time>2024-10-15T11:39:51.000Z</time>
      </trkpt>
      <trkpt lat="45.09207" lon="5.96988">
        <ele>2388.3999023438</ele>
        <time>2024-10-15T11:39:52.000Z</time>
      </trkpt>
      <trkpt lat="45.09207" lon="5.96988">
        <ele>2388.3999023438</ele>
        <time>2024-10-15T11:39:53.000Z</time>
      </trkpt>
      <trkpt lat="45.09207" lon="5.96988">
        <ele>2388.3999023438</ele>
        <time>2024-10-15T11:39:54.000Z</time>
      </trkpt>
      <trkpt lat="45.09207" lon="5.96988">
        <ele>2388.1999511719</ele>
        <time>2024-10-15T11:39:55.000Z</time>
      </trkpt>
      <trkpt lat="45.09207" lon="5.96988">
        <ele>2387.6000976562</ele>
        <time>2024-10-15T11:39:56.000Z</time>
      </trkpt>
      <trkpt lat="45.09207" lon="5.96988">
        <ele>2387.6000976562</ele>
        <time>2024-10-15T11:39:57.000Z</time>
      </trkpt>
      <trkpt lat="45.09207" lon="5.96988">
        <ele>2387.1999511719</ele>
        <time>2024-10-15T11:39:58.000Z</time>
      </trkpt>
      <trkpt lat="45.09207" lon="5.96988">
        <ele>2387</ele>
        <time>2024-10-15T11:39:59.000Z</time>
      </trkpt>
      <trkpt lat="45.09207" lon="5.96988">
        <ele>2387</ele>
        <time>2024-10-15T11:40:00.000Z</time>
      </trkpt>
      <trkpt lat="45.09207" lon="5.96988">
        <ele>2386.8000488281</ele>
        <time>2024-10-15T11:40:01.000Z</time>
      </trkpt>
      <trkpt lat="45.09207" lon="5.96988">
        <ele>2386.8000488281</ele>
        <time>2024-10-15T11:40:02.000Z</time>
      </trkpt>
      <trkpt lat="45.09207" lon="5.96988">
        <ele>2386.6000976562</ele>
        <time>2024-10-15T11:40:03.000Z</time>
      </trkpt>
      <trkpt lat="45.09207" lon="5.96988">
        <ele>2386.3999023438</ele>
        <time>2024-10-15T11:40:04.000Z</time>
      </trkpt>
      <trkpt lat="45.09207" lon="5.96988">
        <ele>2386.1999511719</ele>
        <time>2024-10-15T11:40:05.000Z</time>
      </trkpt>
      <trkpt lat="45.09207" lon="5.96988">
        <ele>2385.8000488281</ele>
        <time>2024-10-15T11:40:06.000Z</time>
      </trkpt>
      <trkpt lat="45.09207" lon="5.96988">
        <ele>2385.8000488281</ele>
        <time>2024-10-15T11:40:07.000Z</time>
      </trkpt>
      <trkpt lat="45.09207" lon="5.96988">
        <ele>2385.8000488281</ele>
        <time>2024-10-15T11:40:08.000Z</time>
      </trkpt>
      <trkpt lat="45.09205" lon="5.96987">
        <ele>2386</ele>
        <time>2024-10-15T11:40:09.000Z</time>
      </trkpt>
      <trkpt lat="45.09204" lon="5.96986">
        <ele>2386</ele>
        <time>2024-10-15T11:40:10.000Z</time>
      </trkpt>
      <trkpt lat="45.09202" lon="5.96985">
        <ele>2386.1999511719</ele>
        <time>2024-10-15T11:40:11.000Z</time>
      </trkpt>
      <trkpt lat="45.09201" lon="5.96984">
        <ele>2386.6000976562</ele>
        <time>2024-10-15T11:40:12.000Z</time>
      </trkpt>
      <trkpt lat="45.092" lon="5.96984">
        <ele>2387.6000976562</ele>
        <time>2024-10-15T11:40:13.000Z</time>
      </trkpt>
      <trkpt lat="45.09199" lon="5.96983">
        <ele>2388</ele>
        <time>2024-10-15T11:40:14.000Z</time>
      </trkpt>
      <trkpt lat="45.09197" lon="5.96983">
        <ele>2388</ele>
        <time>2024-10-15T11:40:15.000Z</time>
      </trkpt>
      <trkpt lat="45.09196" lon="5.96982">
        <ele>2388.6000976562</ele>
        <time>2024-10-15T11:40:16.000Z</time>
      </trkpt>
      <trkpt lat="45.09195" lon="5.96981">
        <ele>2388.6000976562</ele>
        <time>2024-10-15T11:40:17.000Z</time>
      </trkpt>
      <trkpt lat="45.09194" lon="5.96981">
        <ele>2388.6000976562</ele>
        <time>2024-10-15T11:40:18.000Z</time>
      </trkpt>
      <trkpt lat="45.09194" lon="5.9698">
        <ele>2388.6000976562</ele>
        <time>2024-10-15T11:40:19.000Z</time>
      </trkpt>
      <trkpt lat="45.09193" lon="5.9698">
        <ele>2388</ele>
        <time>2024-10-15T11:40:20.000Z</time>
      </trkpt>
      <trkpt lat="45.09192" lon="5.9698">
        <ele>2387.8000488281</ele>
        <time>2024-10-15T11:40:21.000Z</time>
      </trkpt>
      <trkpt lat="45.09192" lon="5.96979">
        <ele>2387.6000976562</ele>
        <time>2024-10-15T11:40:22.000Z</time>
      </trkpt>
      <trkpt lat="45.09191" lon="5.96978">
        <ele>2387.1999511719</ele>
        <time>2024-10-15T11:40:23.000Z</time>
      </trkpt>
      <trkpt lat="45.0919" lon="5.96978">
        <ele>2386.6000976562</ele>
        <time>2024-10-15T11:40:24.000Z</time>
      </trkpt>
      <trkpt lat="45.09189" lon="5.96977">
        <ele>2385.1999511719</ele>
        <time>2024-10-15T11:40:25.000Z</time>
      </trkpt>
      <trkpt lat="45.09188" lon="5.96976">
        <ele>2384.3999023438</ele>
        <time>2024-10-15T11:40:26.000Z</time>
      </trkpt>
      <trkpt lat="45.09188" lon="5.96975">
        <ele>2383.3999023438</ele>
        <time>2024-10-15T11:40:27.000Z</time>
      </trkpt>
      <trkpt lat="45.09187" lon="5.96974">
        <ele>2383.1999511719</ele>
        <time>2024-10-15T11:40:28.000Z</time>
      </trkpt>
      <trkpt lat="45.09186" lon="5.96973">
        <ele>2383</ele>
        <time>2024-10-15T11:40:29.000Z</time>
      </trkpt>
      <trkpt lat="45.09185" lon="5.96973">
        <ele>2382.8000488281</ele>
        <time>2024-10-15T11:40:30.000Z</time>
      </trkpt>
      <trkpt lat="45.09184" lon="5.96973">
        <ele>2382.6000976562</ele>
        <time>2024-10-15T11:40:31.000Z</time>
      </trkpt>
      <trkpt lat="45.09183" lon="5.96973">
        <ele>2382.3999023438</ele>
        <time>2024-10-15T11:40:32.000Z</time>
      </trkpt>
      <trkpt lat="45.09183" lon="5.96972">
        <ele>2382.3999023438</ele>
        <time>2024-10-15T11:40:33.000Z</time>
      </trkpt>
      <trkpt lat="45.09182" lon="5.96972">
        <ele>2381.8000488281</ele>
        <time>2024-10-15T11:40:34.000Z</time>
      </trkpt>
      <trkpt lat="45.09181" lon="5.96972">
        <ele>2381</ele>
        <time>2024-10-15T11:40:35.000Z</time>
      </trkpt>
      <trkpt lat="45.0918" lon="5.96972">
        <ele>2380.6000976562</ele>
        <time>2024-10-15T11:40:36.000Z</time>
      </trkpt>
      <trkpt lat="45.09179" lon="5.96972">
        <ele>2380</ele>
        <time>2024-10-15T11:40:37.000Z</time>
      </trkpt>
      <trkpt lat="45.09178" lon="5.96972">
        <ele>2379.6000976562</ele>
        <time>2024-10-15T11:40:38.000Z</time>
      </trkpt>
      <trkpt lat="45.09177" lon="5.96972">
        <ele>2379.3999023438</ele>
        <time>2024-10-15T11:40:39.000Z</time>
      </trkpt>
      <trkpt lat="45.09177" lon="5.96971">
        <ele>2379</ele>
        <time>2024-10-15T11:40:40.000Z</time>
      </trkpt>
      <trkpt lat="45.09176" lon="5.96971">
        <ele>2378.8000488281</ele>
        <time>2024-10-15T11:40:41.000Z</time>
      </trkpt>
      <trkpt lat="45.09175" lon="5.96971">
        <ele>2378.3999023438</ele>
        <time>2024-10-15T11:40:42.000Z</time>
      </trkpt>
      <trkpt lat="45.09175" lon="5.9697">
        <ele>2378.3999023438</ele>
        <time>2024-10-15T11:40:43.000Z</time>
      </trkpt>
      <trkpt lat="45.09174" lon="5.9697">
        <ele>2378.3999023438</ele>
        <time>2024-10-15T11:40:44.000Z</time>
      </trkpt>
      <trkpt lat="45.09174" lon="5.96969">
        <ele>2378.3999023438</ele>
        <time>2024-10-15T11:40:45.000Z</time>
      </trkpt>
      <trkpt lat="45.09173" lon="5.96968">
        <ele>2378.1999511719</ele>
        <time>2024-10-15T11:40:46.000Z</time>
      </trkpt>
      <trkpt lat="45.09173" lon="5.96968">
        <ele>2378.1999511719</ele>
        <time>2024-10-15T11:40:47.000Z</time>
      </trkpt>
      <trkpt lat="45.09172" lon="5.96968">
        <ele>2378.1999511719</ele>
        <time>2024-10-15T11:40:48.000Z</time>
      </trkpt>
      <trkpt lat="45.09172" lon="5.96968">
        <ele>2377.8000488281</ele>
        <time>2024-10-15T11:40:49.000Z</time>
      </trkpt>
      <trkpt lat="45.09171" lon="5.96968">
        <ele>2376.3999023438</ele>
        <time>2024-10-15T11:40:50.000Z</time>
      </trkpt>
      <trkpt lat="45.0917" lon="5.96967">
        <ele>2376.3999023438</ele>
        <time>2024-10-15T11:40:51.000Z</time>
      </trkpt>
      <trkpt lat="45.0917" lon="5.96966">
        <ele>2376.1999511719</ele>
        <time>2024-10-15T11:40:52.000Z</time>
      </trkpt>
      <trkpt lat="45.09169" lon="5.96966">
        <ele>2376</ele>
        <time>2024-10-15T11:40:53.000Z</time>
      </trkpt>
      <trkpt lat="45.09169" lon="5.96966">
        <ele>2375.8000488281</ele>
        <time>2024-10-15T11:40:54.000Z</time>
      </trkpt>
      <trkpt lat="45.09169" lon="5.96966">
        <ele>2375.3999023438</ele>
        <time>2024-10-15T11:40:55.000Z</time>
      </trkpt>
      <trkpt lat="45.09168" lon="5.96965">
        <ele>2375.3999023438</ele>
        <time>2024-10-15T11:40:56.000Z</time>
      </trkpt>
      <trkpt lat="45.09167" lon="5.96965">
        <ele>2375.3999023438</ele>
        <time>2024-10-15T11:40:57.000Z</time>
      </trkpt>
      <trkpt lat="45.09167" lon="5.96964">
        <ele>2375.3999023438</ele>
        <time>2024-10-15T11:40:58.000Z</time>
      </trkpt>
      <trkpt lat="45.09166" lon="5.96963">
        <ele>2375.3999023438</ele>
        <time>2024-10-15T11:40:59.000Z</time>
      </trkpt>
      <trkpt lat="45.09165" lon="5.96963">
        <ele>2376</ele>
        <time>2024-10-15T11:41:00.000Z</time>
      </trkpt>
      <trkpt lat="45.09165" lon="5.96962">
        <ele>2376.6000976562</ele>
        <time>2024-10-15T11:41:01.000Z</time>
      </trkpt>
      <trkpt lat="45.09165" lon="5.96962">
        <ele>2377.1999511719</ele>
        <time>2024-10-15T11:41:02.000Z</time>
      </trkpt>
      <trkpt lat="45.09165" lon="5.96962">
        <ele>2377.1999511719</ele>
        <time>2024-10-15T11:41:03.000Z</time>
      </trkpt>
      <trkpt lat="45.09165" lon="5.96962">
        <ele>2377.1999511719</ele>
        <time>2024-10-15T11:41:04.000Z</time>
      </trkpt>
      <trkpt lat="45.09165" lon="5.96962">
        <ele>2377.1999511719</ele>
        <time>2024-10-15T11:41:05.000Z</time>
      </trkpt>
      <trkpt lat="45.09165" lon="5.96962">
        <ele>2376.8000488281</ele>
        <time>2024-10-15T11:41:06.000Z</time>
      </trkpt>
      <trkpt lat="45.09165" lon="5.96962">
        <ele>2376.3999023438</ele>
        <time>2024-10-15T11:41:07.000Z</time>
      </trkpt>
      <trkpt lat="45.09165" lon="5.96962">
        <ele>2376.1999511719</ele>
        <time>2024-10-15T11:41:08.000Z</time>
      </trkpt>
      <trkpt lat="45.09165" lon="5.96962">
        <ele>2376.1999511719</ele>
        <time>2024-10-15T11:41:09.000Z</time>
      </trkpt>
      <trkpt lat="45.09165" lon="5.96962">
        <ele>2376.1999511719</ele>
        <time>2024-10-15T11:41:10.000Z</time>
      </trkpt>
      <trkpt lat="45.09165" lon="5.96962">
        <ele>2376.1999511719</ele>
        <time>2024-10-15T11:41:11.000Z</time>
      </trkpt>
      <trkpt lat="45.09165" lon="5.96962">
        <ele>2376.3999023438</ele>
        <time>2024-10-15T11:41:12.000Z</time>
      </trkpt>
      <trkpt lat="45.09165" lon="5.96962">
        <ele>2376.3999023438</ele>
        <time>2024-10-15T11:41:13.000Z</time>
      </trkpt>
      <trkpt lat="45.09165" lon="5.96962">
        <ele>2376.3999023438</ele>
        <time>2024-10-15T11:41:14.000Z</time>
      </trkpt>
      <trkpt lat="45.09165" lon="5.96962">
        <ele>2376.3999023438</ele>
        <time>2024-10-15T11:41:15.000Z</time>
      </trkpt>
      <trkpt lat="45.09165" lon="5.96962">
        <ele>2376.3999023438</ele>
        <time>2024-10-15T11:41:16.000Z</time>
      </trkpt>
      <trkpt lat="45.09165" lon="5.96962">
        <ele>2376.3999023438</ele>
        <time>2024-10-15T11:41:17.000Z</time>
      </trkpt>
      <trkpt lat="45.09165" lon="5.96962">
        <ele>2376.1999511719</ele>
        <time>2024-10-15T11:41:18.000Z</time>
      </trkpt>
      <trkpt lat="45.09165" lon="5.96962">
        <ele>2376</ele>
        <time>2024-10-15T11:41:19.000Z</time>
      </trkpt>
      <trkpt lat="45.09165" lon="5.96962">
        <ele>2375.1999511719</ele>
        <time>2024-10-15T11:41:20.000Z</time>
      </trkpt>
      <trkpt lat="45.09165" lon="5.96962">
        <ele>2375.1999511719</ele>
        <time>2024-10-15T11:41:21.000Z</time>
      </trkpt>
      <trkpt lat="45.09165" lon="5.96962">
        <ele>2375</ele>
        <time>2024-10-15T11:41:22.000Z</time>
      </trkpt>
      <trkpt lat="45.09165" lon="5.96962">
        <ele>2374.8000488281</ele>
        <time>2024-10-15T11:41:23.000Z</time>
      </trkpt>
      <trkpt lat="45.09165" lon="5.96962">
        <ele>2374.1999511719</ele>
        <time>2024-10-15T11:41:24.000Z</time>
      </trkpt>
      <trkpt lat="45.09164" lon="5.96962">
        <ele>2373.3999023438</ele>
        <time>2024-10-15T11:41:25.000Z</time>
      </trkpt>
      <trkpt lat="45.09164" lon="5.96961">
        <ele>2373.1999511719</ele>
        <time>2024-10-15T11:41:26.000Z</time>
      </trkpt>
      <trkpt lat="45.09163" lon="5.9696">
        <ele>2373</ele>
        <time>2024-10-15T11:41:27.000Z</time>
      </trkpt>
      <trkpt lat="45.09162" lon="5.96958">
        <ele>2373</ele>
        <time>2024-10-15T11:41:28.000Z</time>
      </trkpt>
      <trkpt lat="45.09162" lon="5.96957">
        <ele>2373</ele>
        <time>2024-10-15T11:41:29.000Z</time>
      </trkpt>
      <trkpt lat="45.09161" lon="5.96955">
        <ele>2373</ele>
        <time>2024-10-15T11:41:30.000Z</time>
      </trkpt>
      <trkpt lat="45.0916" lon="5.96954">
        <ele>2373</ele>
        <time>2024-10-15T11:41:31.000Z</time>
      </trkpt>
      <trkpt lat="45.09159" lon="5.96953">
        <ele>2372.8000488281</ele>
        <time>2024-10-15T11:41:32.000Z</time>
      </trkpt>
      <trkpt lat="45.09158" lon="5.96952">
        <ele>2372</ele>
        <time>2024-10-15T11:41:33.000Z</time>
      </trkpt>
      <trkpt lat="45.09157" lon="5.96951">
        <ele>2371</ele>
        <time>2024-10-15T11:41:34.000Z</time>
      </trkpt>
      <trkpt lat="45.09157" lon="5.9695">
        <ele>2370.3999023438</ele>
        <time>2024-10-15T11:41:35.000Z</time>
      </trkpt>
      <trkpt lat="45.09156" lon="5.96949">
        <ele>2370</ele>
        <time>2024-10-15T11:41:36.000Z</time>
      </trkpt>
      <trkpt lat="45.09155" lon="5.96948">
        <ele>2369.3999023438</ele>
        <time>2024-10-15T11:41:37.000Z</time>
      </trkpt>
      <trkpt lat="45.09154" lon="5.96947">
        <ele>2368.8000488281</ele>
        <time>2024-10-15T11:41:38.000Z</time>
      </trkpt>
      <trkpt lat="45.09154" lon="5.96946">
        <ele>2368.3999023438</ele>
        <time>2024-10-15T11:41:39.000Z</time>
      </trkpt>
      <trkpt lat="45.09153" lon="5.96945">
        <ele>2368</ele>
        <time>2024-10-15T11:41:40.000Z</time>
      </trkpt>
      <trkpt lat="45.09152" lon="5.96944">
        <ele>2367.6000976562</ele>
        <time>2024-10-15T11:41:41.000Z</time>
      </trkpt>
      <trkpt lat="45.09152" lon="5.96943">
        <ele>2367.6000976562</ele>
        <time>2024-10-15T11:41:42.000Z</time>
      </trkpt>
      <trkpt lat="45.09151" lon="5.96942">
        <ele>2367.6000976562</ele>
        <time>2024-10-15T11:41:43.000Z</time>
      </trkpt>
      <trkpt lat="45.09151" lon="5.96941">
        <ele>2368</ele>
        <time>2024-10-15T11:41:44.000Z</time>
      </trkpt>
      <trkpt lat="45.0915" lon="5.96941">
        <ele>2368.6000976562</ele>
        <time>2024-10-15T11:41:45.000Z</time>
      </trkpt>
      <trkpt lat="45.0915" lon="5.9694">
        <ele>2368.8000488281</ele>
        <time>2024-10-15T11:41:46.000Z</time>
      </trkpt>
      <trkpt lat="45.0915" lon="5.96939">
        <ele>2368.8000488281</ele>
        <time>2024-10-15T11:41:47.000Z</time>
      </trkpt>
      <trkpt lat="45.09149" lon="5.96939">
        <ele>2368.6000976562</ele>
        <time>2024-10-15T11:41:48.000Z</time>
      </trkpt>
      <trkpt lat="45.09149" lon="5.96938">
        <ele>2368.6000976562</ele>
        <time>2024-10-15T11:41:49.000Z</time>
      </trkpt>
      <trkpt lat="45.09148" lon="5.96938">
        <ele>2368.3999023438</ele>
        <time>2024-10-15T11:41:50.000Z</time>
      </trkpt>
      <trkpt lat="45.09148" lon="5.96938">
        <ele>2368.3999023438</ele>
        <time>2024-10-15T11:41:51.000Z</time>
      </trkpt>
      <trkpt lat="45.09147" lon="5.96938">
        <ele>2368.1999511719</ele>
        <time>2024-10-15T11:41:52.000Z</time>
      </trkpt>
      <trkpt lat="45.09147" lon="5.96938">
        <ele>2368</ele>
        <time>2024-10-15T11:41:53.000Z</time>
      </trkpt>
      <trkpt lat="45.09146" lon="5.96938">
        <ele>2367.3999023438</ele>
        <time>2024-10-15T11:41:54.000Z</time>
      </trkpt>
      <trkpt lat="45.09146" lon="5.96938">
        <ele>2367.1999511719</ele>
        <time>2024-10-15T11:41:55.000Z</time>
      </trkpt>
      <trkpt lat="45.09146" lon="5.96937">
        <ele>2367</ele>
        <time>2024-10-15T11:41:56.000Z</time>
      </trkpt>
      <trkpt lat="45.09145" lon="5.96937">
        <ele>2366.6000976562</ele>
        <time>2024-10-15T11:41:57.000Z</time>
      </trkpt>
      <trkpt lat="45.09144" lon="5.96936">
        <ele>2366.1999511719</ele>
        <time>2024-10-15T11:41:58.000Z</time>
      </trkpt>
      <trkpt lat="45.09144" lon="5.96936">
        <ele>2366.1999511719</ele>
        <time>2024-10-15T11:41:59.000Z</time>
      </trkpt>
      <trkpt lat="45.09143" lon="5.96935">
        <ele>2365.8000488281</ele>
        <time>2024-10-15T11:42:00.000Z</time>
      </trkpt>
      <trkpt lat="45.09143" lon="5.96934">
        <ele>2365.8000488281</ele>
        <time>2024-10-15T11:42:01.000Z</time>
      </trkpt>
      <trkpt lat="45.09143" lon="5.96933">
        <ele>2365.8000488281</ele>
        <time>2024-10-15T11:42:02.000Z</time>
      </trkpt>
      <trkpt lat="45.09142" lon="5.96932">
        <ele>2365.8000488281</ele>
        <time>2024-10-15T11:42:03.000Z</time>
      </trkpt>
      <trkpt lat="45.09141" lon="5.96931">
        <ele>2365.8000488281</ele>
        <time>2024-10-15T11:42:04.000Z</time>
      </trkpt>
      <trkpt lat="45.09141" lon="5.96931">
        <ele>2365.8000488281</ele>
        <time>2024-10-15T11:42:05.000Z</time>
      </trkpt>
      <trkpt lat="45.0914" lon="5.96931">
        <ele>2365.8000488281</ele>
        <time>2024-10-15T11:42:06.000Z</time>
      </trkpt>
      <trkpt lat="45.0914" lon="5.9693">
        <ele>2365.8000488281</ele>
        <time>2024-10-15T11:42:07.000Z</time>
      </trkpt>
      <trkpt lat="45.09139" lon="5.9693">
        <ele>2365.6000976562</ele>
        <time>2024-10-15T11:42:08.000Z</time>
      </trkpt>
      <trkpt lat="45.09139" lon="5.96929">
        <ele>2365</ele>
        <time>2024-10-15T11:42:09.000Z</time>
      </trkpt>
      <trkpt lat="45.09139" lon="5.96928">
        <ele>2364.6000976562</ele>
        <time>2024-10-15T11:42:10.000Z</time>
      </trkpt>
      <trkpt lat="45.09138" lon="5.96928">
        <ele>2364.3999023438</ele>
        <time>2024-10-15T11:42:11.000Z</time>
      </trkpt>
      <trkpt lat="45.09138" lon="5.96928">
        <ele>2363.6000976562</ele>
        <time>2024-10-15T11:42:12.000Z</time>
      </trkpt>
      <trkpt lat="45.09138" lon="5.96928">
        <ele>2363.1999511719</ele>
        <time>2024-10-15T11:42:13.000Z</time>
      </trkpt>
      <trkpt lat="45.09137" lon="5.96927">
        <ele>2362.6000976562</ele>
        <time>2024-10-15T11:42:14.000Z</time>
      </trkpt>
      <trkpt lat="45.09136" lon="5.96927">
        <ele>2362.6000976562</ele>
        <time>2024-10-15T11:42:15.000Z</time>
      </trkpt>
      <trkpt lat="45.09136" lon="5.96926">
        <ele>2362.3999023438</ele>
        <time>2024-10-15T11:42:16.000Z</time>
      </trkpt>
      <trkpt lat="45.09135" lon="5.96926">
        <ele>2362.3999023438</ele>
        <time>2024-10-15T11:42:17.000Z</time>
      </trkpt>
      <trkpt lat="45.09135" lon="5.96925">
        <ele>2362.3999023438</ele>
        <time>2024-10-15T11:42:18.000Z</time>
      </trkpt>
      <trkpt lat="45.09134" lon="5.96924">
        <ele>2362.3999023438</ele>
        <time>2024-10-15T11:42:19.000Z</time>
      </trkpt>
      <trkpt lat="45.09134" lon="5.96924">
        <ele>2362.3999023438</ele>
        <time>2024-10-15T11:42:20.000Z</time>
      </trkpt>
      <trkpt lat="45.09134" lon="5.96923">
        <ele>2362.3999023438</ele>
        <time>2024-10-15T11:42:21.000Z</time>
      </trkpt>
      <trkpt lat="45.09133" lon="5.96922">
        <ele>2362.3999023438</ele>
        <time>2024-10-15T11:42:22.000Z</time>
      </trkpt>
      <trkpt lat="45.09133" lon="5.96921">
        <ele>2362.3999023438</ele>
        <time>2024-10-15T11:42:23.000Z</time>
      </trkpt>
      <trkpt lat="45.09133" lon="5.9692">
        <ele>2362.1999511719</ele>
        <time>2024-10-15T11:42:24.000Z</time>
      </trkpt>
      <trkpt lat="45.09133" lon="5.96919">
        <ele>2361.6000976562</ele>
        <time>2024-10-15T11:42:25.000Z</time>
      </trkpt>
      <trkpt lat="45.09132" lon="5.96918">
        <ele>2361.6000976562</ele>
        <time>2024-10-15T11:42:26.000Z</time>
      </trkpt>
      <trkpt lat="45.09132" lon="5.96917">
        <ele>2361.6000976562</ele>
        <time>2024-10-15T11:42:27.000Z</time>
      </trkpt>
      <trkpt lat="45.09131" lon="5.96916">
        <ele>2361.6000976562</ele>
        <time>2024-10-15T11:42:28.000Z</time>
      </trkpt>
      <trkpt lat="45.09131" lon="5.96916">
        <ele>2361.8000488281</ele>
        <time>2024-10-15T11:42:29.000Z</time>
      </trkpt>
      <trkpt lat="45.09131" lon="5.96916">
        <ele>2361.8000488281</ele>
        <time>2024-10-15T11:42:30.000Z</time>
      </trkpt>
      <trkpt lat="45.0913" lon="5.96915">
        <ele>2361.8000488281</ele>
        <time>2024-10-15T11:42:31.000Z</time>
      </trkpt>
      <trkpt lat="45.0913" lon="5.96915">
        <ele>2361.8000488281</ele>
        <time>2024-10-15T11:42:32.000Z</time>
      </trkpt>
      <trkpt lat="45.09129" lon="5.96914">
        <ele>2361.8000488281</ele>
        <time>2024-10-15T11:42:33.000Z</time>
      </trkpt>
      <trkpt lat="45.09129" lon="5.96913">
        <ele>2361.6000976562</ele>
        <time>2024-10-15T11:42:34.000Z</time>
      </trkpt>
      <trkpt lat="45.09128" lon="5.96913">
        <ele>2361.1999511719</ele>
        <time>2024-10-15T11:42:35.000Z</time>
      </trkpt>
      <trkpt lat="45.09128" lon="5.96912">
        <ele>2360.6000976562</ele>
        <time>2024-10-15T11:42:36.000Z</time>
      </trkpt>
      <trkpt lat="45.09128" lon="5.96912">
        <ele>2360.6000976562</ele>
        <time>2024-10-15T11:42:37.000Z</time>
      </trkpt>
      <trkpt lat="45.09127" lon="5.96912">
        <ele>2360.1999511719</ele>
        <time>2024-10-15T11:42:38.000Z</time>
      </trkpt>
      <trkpt lat="45.09127" lon="5.96912">
        <ele>2360.1999511719</ele>
        <time>2024-10-15T11:42:39.000Z</time>
      </trkpt>
      <trkpt lat="45.09127" lon="5.96912">
        <ele>2360</ele>
        <time>2024-10-15T11:42:40.000Z</time>
      </trkpt>
      <trkpt lat="45.09126" lon="5.96912">
        <ele>2359.8000488281</ele>
        <time>2024-10-15T11:42:41.000Z</time>
      </trkpt>
      <trkpt lat="45.09126" lon="5.96911">
        <ele>2359.6000976562</ele>
        <time>2024-10-15T11:42:42.000Z</time>
      </trkpt>
      <trkpt lat="45.09126" lon="5.96911">
        <ele>2359.6000976562</ele>
        <time>2024-10-15T11:42:43.000Z</time>
      </trkpt>
      <trkpt lat="45.09126" lon="5.96911">
        <ele>2359.3999023438</ele>
        <time>2024-10-15T11:42:44.000Z</time>
      </trkpt>
      <trkpt lat="45.09125" lon="5.96911">
        <ele>2359.1999511719</ele>
        <time>2024-10-15T11:42:45.000Z</time>
      </trkpt>
      <trkpt lat="45.09125" lon="5.96911">
        <ele>2358.8000488281</ele>
        <time>2024-10-15T11:42:46.000Z</time>
      </trkpt>
      <trkpt lat="45.09125" lon="5.96911">
        <ele>2358.6000976562</ele>
        <time>2024-10-15T11:42:47.000Z</time>
      </trkpt>
      <trkpt lat="45.09125" lon="5.96911">
        <ele>2358.6000976562</ele>
        <time>2024-10-15T11:42:48.000Z</time>
      </trkpt>
      <trkpt lat="45.09124" lon="5.96911">
        <ele>2358.3999023438</ele>
        <time>2024-10-15T11:42:49.000Z</time>
      </trkpt>
      <trkpt lat="45.09124" lon="5.96911">
        <ele>2358.1999511719</ele>
        <time>2024-10-15T11:42:50.000Z</time>
      </trkpt>
      <trkpt lat="45.09124" lon="5.9691">
        <ele>2358</ele>
        <time>2024-10-15T11:42:51.000Z</time>
      </trkpt>
      <trkpt lat="45.09123" lon="5.9691">
        <ele>2358</ele>
        <time>2024-10-15T11:42:52.000Z</time>
      </trkpt>
      <trkpt lat="45.09123" lon="5.9691">
        <ele>2357.8000488281</ele>
        <time>2024-10-15T11:42:53.000Z</time>
      </trkpt>
      <trkpt lat="45.09123" lon="5.96909">
        <ele>2357.6000976562</ele>
        <time>2024-10-15T11:42:54.000Z</time>
      </trkpt>
      <trkpt lat="45.09122" lon="5.96909">
        <ele>2357.6000976562</ele>
        <time>2024-10-15T11:42:55.000Z</time>
      </trkpt>
      <trkpt lat="45.09122" lon="5.96909">
        <ele>2357.6000976562</ele>
        <time>2024-10-15T11:42:56.000Z</time>
      </trkpt>
      <trkpt lat="45.09121" lon="5.96909">
        <ele>2357.3999023438</ele>
        <time>2024-10-15T11:42:57.000Z</time>
      </trkpt>
      <trkpt lat="45.09121" lon="5.96909">
        <ele>2357.3999023438</ele>
        <time>2024-10-15T11:42:58.000Z</time>
      </trkpt>
      <trkpt lat="45.09121" lon="5.96909">
        <ele>2357.1999511719</ele>
        <time>2024-10-15T11:42:59.000Z</time>
      </trkpt>
      <trkpt lat="45.0912" lon="5.96909">
        <ele>2357.1999511719</ele>
        <time>2024-10-15T11:43:00.000Z</time>
      </trkpt>
      <trkpt lat="45.0912" lon="5.96908">
        <ele>2357</ele>
        <time>2024-10-15T11:43:01.000Z</time>
      </trkpt>
      <trkpt lat="45.09119" lon="5.96907">
        <ele>2356.8000488281</ele>
        <time>2024-10-15T11:43:02.000Z</time>
      </trkpt>
      <trkpt lat="45.09119" lon="5.96906">
        <ele>2356.8000488281</ele>
        <time>2024-10-15T11:43:03.000Z</time>
      </trkpt>
      <trkpt lat="45.09119" lon="5.96906">
        <ele>2356.3999023438</ele>
        <time>2024-10-15T11:43:04.000Z</time>
      </trkpt>
      <trkpt lat="45.09119" lon="5.96905">
        <ele>2356.1999511719</ele>
        <time>2024-10-15T11:43:05.000Z</time>
      </trkpt>
      <trkpt lat="45.09119" lon="5.96904">
        <ele>2356.1999511719</ele>
        <time>2024-10-15T11:43:06.000Z</time>
      </trkpt>
      <trkpt lat="45.09119" lon="5.96904">
        <ele>2355.8000488281</ele>
        <time>2024-10-15T11:43:07.000Z</time>
      </trkpt>
      <trkpt lat="45.09119" lon="5.96903">
        <ele>2355.6000976562</ele>
        <time>2024-10-15T11:43:08.000Z</time>
      </trkpt>
      <trkpt lat="45.09119" lon="5.96902">
        <ele>2355.3999023438</ele>
        <time>2024-10-15T11:43:09.000Z</time>
      </trkpt>
      <trkpt lat="45.09118" lon="5.96901">
        <ele>2355.1999511719</ele>
        <time>2024-10-15T11:43:10.000Z</time>
      </trkpt>
      <trkpt lat="45.09118" lon="5.96901">
        <ele>2355</ele>
        <time>2024-10-15T11:43:11.000Z</time>
      </trkpt>
      <trkpt lat="45.09118" lon="5.96901">
        <ele>2354.3999023438</ele>
        <time>2024-10-15T11:43:12.000Z</time>
      </trkpt>
      <trkpt lat="45.09117" lon="5.969">
        <ele>2354.3999023438</ele>
        <time>2024-10-15T11:43:13.000Z</time>
      </trkpt>
      <trkpt lat="45.09117" lon="5.969">
        <ele>2354.1999511719</ele>
        <time>2024-10-15T11:43:14.000Z</time>
      </trkpt>
      <trkpt lat="45.09117" lon="5.96899">
        <ele>2353.8000488281</ele>
        <time>2024-10-15T11:43:15.000Z</time>
      </trkpt>
      <trkpt lat="45.09117" lon="5.96899">
        <ele>2353.1999511719</ele>
        <time>2024-10-15T11:43:16.000Z</time>
      </trkpt>
      <trkpt lat="45.09116" lon="5.96899">
        <ele>2353.1999511719</ele>
        <time>2024-10-15T11:43:17.000Z</time>
      </trkpt>
      <trkpt lat="45.09116" lon="5.96898">
        <ele>2353</ele>
        <time>2024-10-15T11:43:18.000Z</time>
      </trkpt>
      <trkpt lat="45.09116" lon="5.96898">
        <ele>2353</ele>
        <time>2024-10-15T11:43:19.000Z</time>
      </trkpt>
      <trkpt lat="45.09116" lon="5.96898">
        <ele>2352.8000488281</ele>
        <time>2024-10-15T11:43:20.000Z</time>
      </trkpt>
      <trkpt lat="45.09115" lon="5.96897">
        <ele>2352.3999023438</ele>
        <time>2024-10-15T11:43:21.000Z</time>
      </trkpt>
      <trkpt lat="45.09115" lon="5.96896">
        <ele>2352</ele>
        <time>2024-10-15T11:43:22.000Z</time>
      </trkpt>
      <trkpt lat="45.09114" lon="5.96896">
        <ele>2352</ele>
        <time>2024-10-15T11:43:23.000Z</time>
      </trkpt>
      <trkpt lat="45.09114" lon="5.96895">
        <ele>2351.8000488281</ele>
        <time>2024-10-15T11:43:24.000Z</time>
      </trkpt>
      <trkpt lat="45.09114" lon="5.96895">
        <ele>2351.8000488281</ele>
        <time>2024-10-15T11:43:25.000Z</time>
      </trkpt>
      <trkpt lat="45.09113" lon="5.96895">
        <ele>2351.3999023438</ele>
        <time>2024-10-15T11:43:26.000Z</time>
      </trkpt>
      <trkpt lat="45.09112" lon="5.96894">
        <ele>2351.1999511719</ele>
        <time>2024-10-15T11:43:27.000Z</time>
      </trkpt>
      <trkpt lat="45.09112" lon="5.96894">
        <ele>2351.1999511719</ele>
        <time>2024-10-15T11:43:28.000Z</time>
      </trkpt>
      <trkpt lat="45.09111" lon="5.96893">
        <ele>2350.8000488281</ele>
        <time>2024-10-15T11:43:29.000Z</time>
      </trkpt>
      <trkpt lat="45.09111" lon="5.96893">
        <ele>2350.3999023438</ele>
        <time>2024-10-15T11:43:30.000Z</time>
      </trkpt>
      <trkpt lat="45.0911" lon="5.96892">
        <ele>2350</ele>
        <time>2024-10-15T11:43:31.000Z</time>
      </trkpt>
      <trkpt lat="45.0911" lon="5.96891">
        <ele>2349.8000488281</ele>
        <time>2024-10-15T11:43:32.000Z</time>
      </trkpt>
      <trkpt lat="45.09109" lon="5.9689">
        <ele>2349.8000488281</ele>
        <time>2024-10-15T11:43:33.000Z</time>
      </trkpt>
      <trkpt lat="45.09109" lon="5.9689">
        <ele>2349.8000488281</ele>
        <time>2024-10-15T11:43:34.000Z</time>
      </trkpt>
      <trkpt lat="45.09109" lon="5.96889">
        <ele>2349.6000976562</ele>
        <time>2024-10-15T11:43:35.000Z</time>
      </trkpt>
      <trkpt lat="45.09108" lon="5.96889">
        <ele>2349.8000488281</ele>
        <time>2024-10-15T11:43:36.000Z</time>
      </trkpt>
      <trkpt lat="45.09108" lon="5.96889">
        <ele>2349.6000976562</ele>
        <time>2024-10-15T11:43:37.000Z</time>
      </trkpt>
      <trkpt lat="45.09108" lon="5.96889">
        <ele>2349.6000976562</ele>
        <time>2024-10-15T11:43:38.000Z</time>
      </trkpt>
      <trkpt lat="45.09108" lon="5.96889">
        <ele>2349.3999023438</ele>
        <time>2024-10-15T11:43:39.000Z</time>
      </trkpt>
      <trkpt lat="45.09107" lon="5.9689">
        <ele>2349.1999511719</ele>
        <time>2024-10-15T11:43:40.000Z</time>
      </trkpt>
      <trkpt lat="45.09107" lon="5.96891">
        <ele>2349.1999511719</ele>
        <time>2024-10-15T11:43:41.000Z</time>
      </trkpt>
      <trkpt lat="45.09106" lon="5.96891">
        <ele>2348.3999023438</ele>
        <time>2024-10-15T11:43:42.000Z</time>
      </trkpt>
      <trkpt lat="45.09105" lon="5.96891">
        <ele>2346.1999511719</ele>
        <time>2024-10-15T11:43:43.000Z</time>
      </trkpt>
      <trkpt lat="45.09104" lon="5.96891">
        <ele>2345.6000976562</ele>
        <time>2024-10-15T11:43:44.000Z</time>
      </trkpt>
      <trkpt lat="45.09104" lon="5.96891">
        <ele>2345.6000976562</ele>
        <time>2024-10-15T11:43:45.000Z</time>
      </trkpt>
      <trkpt lat="45.09103" lon="5.9689">
        <ele>2345.6000976562</ele>
        <time>2024-10-15T11:43:46.000Z</time>
      </trkpt>
      <trkpt lat="45.09103" lon="5.96889">
        <ele>2345.6000976562</ele>
        <time>2024-10-15T11:43:47.000Z</time>
      </trkpt>
      <trkpt lat="45.09102" lon="5.96889">
        <ele>2347</ele>
        <time>2024-10-15T11:43:48.000Z</time>
      </trkpt>
      <trkpt lat="45.09102" lon="5.96889">
        <ele>2347.1999511719</ele>
        <time>2024-10-15T11:43:49.000Z</time>
      </trkpt>
      <trkpt lat="45.09101" lon="5.96889">
        <ele>2347.1999511719</ele>
        <time>2024-10-15T11:43:50.000Z</time>
      </trkpt>
      <trkpt lat="45.09101" lon="5.96888">
        <ele>2347.1999511719</ele>
        <time>2024-10-15T11:43:51.000Z</time>
      </trkpt>
      <trkpt lat="45.091" lon="5.96888">
        <ele>2347</ele>
        <time>2024-10-15T11:43:52.000Z</time>
      </trkpt>
      <trkpt lat="45.09099" lon="5.96888">
        <ele>2346.6000976562</ele>
        <time>2024-10-15T11:43:53.000Z</time>
      </trkpt>
      <trkpt lat="45.09098" lon="5.96888">
        <ele>2346.3999023438</ele>
        <time>2024-10-15T11:43:54.000Z</time>
      </trkpt>
      <trkpt lat="45.09097" lon="5.96887">
        <ele>2346.1999511719</ele>
        <time>2024-10-15T11:43:55.000Z</time>
      </trkpt>
      <trkpt lat="45.09097" lon="5.96887">
        <ele>2345.3999023438</ele>
        <time>2024-10-15T11:43:56.000Z</time>
      </trkpt>
      <trkpt lat="45.09096" lon="5.96886">
        <ele>2344.6000976562</ele>
        <time>2024-10-15T11:43:57.000Z</time>
      </trkpt>
      <trkpt lat="45.09095" lon="5.96885">
        <ele>2344.6000976562</ele>
        <time>2024-10-15T11:43:58.000Z</time>
      </trkpt>
      <trkpt lat="45.09094" lon="5.96885">
        <ele>2344.3999023438</ele>
        <time>2024-10-15T11:43:59.000Z</time>
      </trkpt>
      <trkpt lat="45.09094" lon="5.96884">
        <ele>2344.1999511719</ele>
        <time>2024-10-15T11:44:00.000Z</time>
      </trkpt>
      <trkpt lat="45.09093" lon="5.96883">
        <ele>2344</ele>
        <time>2024-10-15T11:44:01.000Z</time>
      </trkpt>
      <trkpt lat="45.09092" lon="5.96882">
        <ele>2343.6000976562</ele>
        <time>2024-10-15T11:44:02.000Z</time>
      </trkpt>
      <trkpt lat="45.09091" lon="5.96882">
        <ele>2343</ele>
        <time>2024-10-15T11:44:03.000Z</time>
      </trkpt>
      <trkpt lat="45.09091" lon="5.96881">
        <ele>2342.6000976562</ele>
        <time>2024-10-15T11:44:04.000Z</time>
      </trkpt>
      <trkpt lat="45.0909" lon="5.9688">
        <ele>2342</ele>
        <time>2024-10-15T11:44:05.000Z</time>
      </trkpt>
      <trkpt lat="45.0909" lon="5.96879">
        <ele>2341.1999511719</ele>
        <time>2024-10-15T11:44:06.000Z</time>
      </trkpt>
      <trkpt lat="45.09089" lon="5.96877">
        <ele>2341</ele>
        <time>2024-10-15T11:44:07.000Z</time>
      </trkpt>
      <trkpt lat="45.09089" lon="5.96876">
        <ele>2341</ele>
        <time>2024-10-15T11:44:08.000Z</time>
      </trkpt>
      <trkpt lat="45.09088" lon="5.96876">
        <ele>2341</ele>
        <time>2024-10-15T11:44:09.000Z</time>
      </trkpt>
      <trkpt lat="45.09087" lon="5.96875">
        <ele>2340.3999023438</ele>
        <time>2024-10-15T11:44:10.000Z</time>
      </trkpt>
      <trkpt lat="45.09086" lon="5.96875">
        <ele>2340.3999023438</ele>
        <time>2024-10-15T11:44:11.000Z</time>
      </trkpt>
      <trkpt lat="45.09085" lon="5.96874">
        <ele>2339.8000488281</ele>
        <time>2024-10-15T11:44:12.000Z</time>
      </trkpt>
      <trkpt lat="45.09085" lon="5.96873">
        <ele>2339.3999023438</ele>
        <time>2024-10-15T11:44:13.000Z</time>
      </trkpt>
      <trkpt lat="45.09084" lon="5.96872">
        <ele>2339</ele>
        <time>2024-10-15T11:44:14.000Z</time>
      </trkpt>
      <trkpt lat="45.09083" lon="5.96872">
        <ele>2338.6000976562</ele>
        <time>2024-10-15T11:44:15.000Z</time>
      </trkpt>
      <trkpt lat="45.09083" lon="5.96871">
        <ele>2338.6000976562</ele>
        <time>2024-10-15T11:44:16.000Z</time>
      </trkpt>
      <trkpt lat="45.09082" lon="5.96871">
        <ele>2338.3999023438</ele>
        <time>2024-10-15T11:44:17.000Z</time>
      </trkpt>
      <trkpt lat="45.09082" lon="5.9687">
        <ele>2338.3999023438</ele>
        <time>2024-10-15T11:44:18.000Z</time>
      </trkpt>
      <trkpt lat="45.09081" lon="5.96869">
        <ele>2338.3999023438</ele>
        <time>2024-10-15T11:44:19.000Z</time>
      </trkpt>
      <trkpt lat="45.0908" lon="5.96868">
        <ele>2338.1999511719</ele>
        <time>2024-10-15T11:44:20.000Z</time>
      </trkpt>
      <trkpt lat="45.0908" lon="5.96867">
        <ele>2338</ele>
        <time>2024-10-15T11:44:21.000Z</time>
      </trkpt>
      <trkpt lat="45.09079" lon="5.96865">
        <ele>2337.8000488281</ele>
        <time>2024-10-15T11:44:22.000Z</time>
      </trkpt>
      <trkpt lat="45.09079" lon="5.96864">
        <ele>2337.8000488281</ele>
        <time>2024-10-15T11:44:23.000Z</time>
      </trkpt>
      <trkpt lat="45.09078" lon="5.96863">
        <ele>2337.8000488281</ele>
        <time>2024-10-15T11:44:24.000Z</time>
      </trkpt>
      <trkpt lat="45.09077" lon="5.96862">
        <ele>2337.6000976562</ele>
        <time>2024-10-15T11:44:25.000Z</time>
      </trkpt>
      <trkpt lat="45.09077" lon="5.96861">
        <ele>2337.6000976562</ele>
        <time>2024-10-15T11:44:26.000Z</time>
      </trkpt>
      <trkpt lat="45.09076" lon="5.96861">
        <ele>2337.6000976562</ele>
        <time>2024-10-15T11:44:27.000Z</time>
      </trkpt>
      <trkpt lat="45.09076" lon="5.9686">
        <ele>2337.3999023438</ele>
        <time>2024-10-15T11:44:28.000Z</time>
      </trkpt>
      <trkpt lat="45.09075" lon="5.96859">
        <ele>2337.1999511719</ele>
        <time>2024-10-15T11:44:29.000Z</time>
      </trkpt>
      <trkpt lat="45.09075" lon="5.96858">
        <ele>2337</ele>
        <time>2024-10-15T11:44:30.000Z</time>
      </trkpt>
      <trkpt lat="45.09074" lon="5.96858">
        <ele>2337</ele>
        <time>2024-10-15T11:44:31.000Z</time>
      </trkpt>
      <trkpt lat="45.09073" lon="5.96858">
        <ele>2336.6000976562</ele>
        <time>2024-10-15T11:44:32.000Z</time>
      </trkpt>
      <trkpt lat="45.09073" lon="5.96857">
        <ele>2336.3999023438</ele>
        <time>2024-10-15T11:44:33.000Z</time>
      </trkpt>
      <trkpt lat="45.09072" lon="5.96857">
        <ele>2336</ele>
        <time>2024-10-15T11:44:34.000Z</time>
      </trkpt>
      <trkpt lat="45.09071" lon="5.96856">
        <ele>2335.8000488281</ele>
        <time>2024-10-15T11:44:35.000Z</time>
      </trkpt>
      <trkpt lat="45.09071" lon="5.96856">
        <ele>2335.8000488281</ele>
        <time>2024-10-15T11:44:36.000Z</time>
      </trkpt>
      <trkpt lat="45.0907" lon="5.96855">
        <ele>2335.6000976562</ele>
        <time>2024-10-15T11:44:37.000Z</time>
      </trkpt>
      <trkpt lat="45.09069" lon="5.96855">
        <ele>2335.6000976562</ele>
        <time>2024-10-15T11:44:38.000Z</time>
      </trkpt>
      <trkpt lat="45.09068" lon="5.96854">
        <ele>2335.3999023438</ele>
        <time>2024-10-15T11:44:39.000Z</time>
      </trkpt>
      <trkpt lat="45.09068" lon="5.96853">
        <ele>2335.3999023438</ele>
        <time>2024-10-15T11:44:40.000Z</time>
      </trkpt>
      <trkpt lat="45.09067" lon="5.96852">
        <ele>2335.1999511719</ele>
        <time>2024-10-15T11:44:41.000Z</time>
      </trkpt>
      <trkpt lat="45.09067" lon="5.96852">
        <ele>2335</ele>
        <time>2024-10-15T11:44:42.000Z</time>
      </trkpt>
      <trkpt lat="45.09066" lon="5.96852">
        <ele>2334.8000488281</ele>
        <time>2024-10-15T11:44:43.000Z</time>
      </trkpt>
      <trkpt lat="45.09065" lon="5.96852">
        <ele>2334.6000976562</ele>
        <time>2024-10-15T11:44:44.000Z</time>
      </trkpt>
      <trkpt lat="45.09064" lon="5.96852">
        <ele>2334</ele>
        <time>2024-10-15T11:44:45.000Z</time>
      </trkpt>
      <trkpt lat="45.09064" lon="5.96852">
        <ele>2333.6000976562</ele>
        <time>2024-10-15T11:44:46.000Z</time>
      </trkpt>
      <trkpt lat="45.09063" lon="5.96852">
        <ele>2333</ele>
        <time>2024-10-15T11:44:47.000Z</time>
      </trkpt>
      <trkpt lat="45.09062" lon="5.96851">
        <ele>2332.8000488281</ele>
        <time>2024-10-15T11:44:48.000Z</time>
      </trkpt>
      <trkpt lat="45.09061" lon="5.96851">
        <ele>2332.6000976562</ele>
        <time>2024-10-15T11:44:49.000Z</time>
      </trkpt>
      <trkpt lat="45.0906" lon="5.96851">
        <ele>2332.3999023438</ele>
        <time>2024-10-15T11:44:50.000Z</time>
      </trkpt>
      <trkpt lat="45.09059" lon="5.96851">
        <ele>2332.1999511719</ele>
        <time>2024-10-15T11:44:51.000Z</time>
      </trkpt>
      <trkpt lat="45.09059" lon="5.9685">
        <ele>2332</ele>
        <time>2024-10-15T11:44:52.000Z</time>
      </trkpt>
      <trkpt lat="45.09058" lon="5.96849">
        <ele>2331.1999511719</ele>
        <time>2024-10-15T11:44:53.000Z</time>
      </trkpt>
      <trkpt lat="45.09057" lon="5.96848">
        <ele>2331.1999511719</ele>
        <time>2024-10-15T11:44:54.000Z</time>
      </trkpt>
      <trkpt lat="45.09057" lon="5.96846">
        <ele>2331.1999511719</ele>
        <time>2024-10-15T11:44:55.000Z</time>
      </trkpt>
      <trkpt lat="45.09056" lon="5.96845">
        <ele>2331</ele>
        <time>2024-10-15T11:44:56.000Z</time>
      </trkpt>
      <trkpt lat="45.09056" lon="5.96844">
        <ele>2330.8000488281</ele>
        <time>2024-10-15T11:44:57.000Z</time>
      </trkpt>
      <trkpt lat="45.09056" lon="5.96843">
        <ele>2330.8000488281</ele>
        <time>2024-10-15T11:44:58.000Z</time>
      </trkpt>
      <trkpt lat="45.09055" lon="5.96842">
        <ele>2330.1999511719</ele>
        <time>2024-10-15T11:44:59.000Z</time>
      </trkpt>
      <trkpt lat="45.09054" lon="5.96841">
        <ele>2329.8000488281</ele>
        <time>2024-10-15T11:45:00.000Z</time>
      </trkpt>
      <trkpt lat="45.09053" lon="5.9684">
        <ele>2329.3999023438</ele>
        <time>2024-10-15T11:45:01.000Z</time>
      </trkpt>
      <trkpt lat="45.09052" lon="5.96839">
        <ele>2329</ele>
        <time>2024-10-15T11:45:02.000Z</time>
      </trkpt>
      <trkpt lat="45.09051" lon="5.96838">
        <ele>2329</ele>
        <time>2024-10-15T11:45:03.000Z</time>
      </trkpt>
      <trkpt lat="45.0905" lon="5.96837">
        <ele>2328.8000488281</ele>
        <time>2024-10-15T11:45:04.000Z</time>
      </trkpt>
      <trkpt lat="45.09049" lon="5.96837">
        <ele>2328.8000488281</ele>
        <time>2024-10-15T11:45:05.000Z</time>
      </trkpt>
      <trkpt lat="45.09049" lon="5.96837">
        <ele>2328.8000488281</ele>
        <time>2024-10-15T11:45:06.000Z</time>
      </trkpt>
      <trkpt lat="45.09048" lon="5.96836">
        <ele>2328.6000976562</ele>
        <time>2024-10-15T11:45:07.000Z</time>
      </trkpt>
      <trkpt lat="45.09047" lon="5.96835">
        <ele>2328</ele>
        <time>2024-10-15T11:45:08.000Z</time>
      </trkpt>
      <trkpt lat="45.09046" lon="5.96835">
        <ele>2327.3999023438</ele>
        <time>2024-10-15T11:45:09.000Z</time>
      </trkpt>
      <trkpt lat="45.09046" lon="5.96834">
        <ele>2327.1999511719</ele>
        <time>2024-10-15T11:45:10.000Z</time>
      </trkpt>
      <trkpt lat="45.09045" lon="5.96834">
        <ele>2326.8000488281</ele>
        <time>2024-10-15T11:45:11.000Z</time>
      </trkpt>
      <trkpt lat="45.09045" lon="5.96833">
        <ele>2326.8000488281</ele>
        <time>2024-10-15T11:45:12.000Z</time>
      </trkpt>
      <trkpt lat="45.09044" lon="5.96832">
        <ele>2326.1999511719</ele>
        <time>2024-10-15T11:45:13.000Z</time>
      </trkpt>
      <trkpt lat="45.09043" lon="5.96832">
        <ele>2326</ele>
        <time>2024-10-15T11:45:14.000Z</time>
      </trkpt>
      <trkpt lat="45.09043" lon="5.96832">
        <ele>2325.1999511719</ele>
        <time>2024-10-15T11:45:15.000Z</time>
      </trkpt>
      <trkpt lat="45.09042" lon="5.96832">
        <ele>2324.6000976562</ele>
        <time>2024-10-15T11:45:16.000Z</time>
      </trkpt>
      <trkpt lat="45.09041" lon="5.96832">
        <ele>2324</ele>
        <time>2024-10-15T11:45:17.000Z</time>
      </trkpt>
      <trkpt lat="45.09041" lon="5.96832">
        <ele>2323.1999511719</ele>
        <time>2024-10-15T11:45:18.000Z</time>
      </trkpt>
      <trkpt lat="45.0904" lon="5.96832">
        <ele>2323</ele>
        <time>2024-10-15T11:45:19.000Z</time>
      </trkpt>
      <trkpt lat="45.09039" lon="5.96832">
        <ele>2322.8000488281</ele>
        <time>2024-10-15T11:45:20.000Z</time>
      </trkpt>
      <trkpt lat="45.09038" lon="5.96832">
        <ele>2322.8000488281</ele>
        <time>2024-10-15T11:45:21.000Z</time>
      </trkpt>
      <trkpt lat="45.09037" lon="5.96832">
        <ele>2322.3999023438</ele>
        <time>2024-10-15T11:45:22.000Z</time>
      </trkpt>
      <trkpt lat="45.09037" lon="5.96832">
        <ele>2322</ele>
        <time>2024-10-15T11:45:23.000Z</time>
      </trkpt>
      <trkpt lat="45.09036" lon="5.96832">
        <ele>2321.6000976562</ele>
        <time>2024-10-15T11:45:24.000Z</time>
      </trkpt>
      <trkpt lat="45.09035" lon="5.96832">
        <ele>2321.3999023438</ele>
        <time>2024-10-15T11:45:25.000Z</time>
      </trkpt>
      <trkpt lat="45.09035" lon="5.96832">
        <ele>2321.1999511719</ele>
        <time>2024-10-15T11:45:26.000Z</time>
      </trkpt>
      <trkpt lat="45.09034" lon="5.96832">
        <ele>2320.8000488281</ele>
        <time>2024-10-15T11:45:27.000Z</time>
      </trkpt>
      <trkpt lat="45.09033" lon="5.96833">
        <ele>2320.6000976562</ele>
        <time>2024-10-15T11:45:28.000Z</time>
      </trkpt>
      <trkpt lat="45.09032" lon="5.96833">
        <ele>2320.6000976562</ele>
        <time>2024-10-15T11:45:29.000Z</time>
      </trkpt>
      <trkpt lat="45.09032" lon="5.96834">
        <ele>2320.3999023438</ele>
        <time>2024-10-15T11:45:30.000Z</time>
      </trkpt>
      <trkpt lat="45.09031" lon="5.96834">
        <ele>2320.1999511719</ele>
        <time>2024-10-15T11:45:31.000Z</time>
      </trkpt>
      <trkpt lat="45.0903" lon="5.96834">
        <ele>2319.6000976562</ele>
        <time>2024-10-15T11:45:32.000Z</time>
      </trkpt>
      <trkpt lat="45.09029" lon="5.96834">
        <ele>2319.3999023438</ele>
        <time>2024-10-15T11:45:33.000Z</time>
      </trkpt>
      <trkpt lat="45.09028" lon="5.96835">
        <ele>2319.1999511719</ele>
        <time>2024-10-15T11:45:34.000Z</time>
      </trkpt>
      <trkpt lat="45.09027" lon="5.96836">
        <ele>2319</ele>
        <time>2024-10-15T11:45:35.000Z</time>
      </trkpt>
      <trkpt lat="45.09026" lon="5.96837">
        <ele>2318.6000976562</ele>
        <time>2024-10-15T11:45:36.000Z</time>
      </trkpt>
      <trkpt lat="45.09026" lon="5.96838">
        <ele>2318</ele>
        <time>2024-10-15T11:45:37.000Z</time>
      </trkpt>
      <trkpt lat="45.09025" lon="5.96838">
        <ele>2317.1999511719</ele>
        <time>2024-10-15T11:45:38.000Z</time>
      </trkpt>
      <trkpt lat="45.09024" lon="5.96838">
        <ele>2317.1999511719</ele>
        <time>2024-10-15T11:45:39.000Z</time>
      </trkpt>
      <trkpt lat="45.09023" lon="5.96838">
        <ele>2317.1999511719</ele>
        <time>2024-10-15T11:45:40.000Z</time>
      </trkpt>
      <trkpt lat="45.09022" lon="5.96839">
        <ele>2317.1999511719</ele>
        <time>2024-10-15T11:45:41.000Z</time>
      </trkpt>
      <trkpt lat="45.09021" lon="5.96839">
        <ele>2317.6000976562</ele>
        <time>2024-10-15T11:45:42.000Z</time>
      </trkpt>
      <trkpt lat="45.0902" lon="5.96839">
        <ele>2317.6000976562</ele>
        <time>2024-10-15T11:45:43.000Z</time>
      </trkpt>
      <trkpt lat="45.09019" lon="5.96839">
        <ele>2317.6000976562</ele>
        <time>2024-10-15T11:45:44.000Z</time>
      </trkpt>
      <trkpt lat="45.09019" lon="5.9684">
        <ele>2317.6000976562</ele>
        <time>2024-10-15T11:45:45.000Z</time>
      </trkpt>
      <trkpt lat="45.09018" lon="5.9684">
        <ele>2317.6000976562</ele>
        <time>2024-10-15T11:45:46.000Z</time>
      </trkpt>
      <trkpt lat="45.09017" lon="5.9684">
        <ele>2317.6000976562</ele>
        <time>2024-10-15T11:45:47.000Z</time>
      </trkpt>
      <trkpt lat="45.09017" lon="5.9684">
        <ele>2317</ele>
        <time>2024-10-15T11:45:48.000Z</time>
      </trkpt>
      <trkpt lat="45.09016" lon="5.9684">
        <ele>2316.6000976562</ele>
        <time>2024-10-15T11:45:49.000Z</time>
      </trkpt>
      <trkpt lat="45.09015" lon="5.9684">
        <ele>2316.3999023438</ele>
        <time>2024-10-15T11:45:50.000Z</time>
      </trkpt>
      <trkpt lat="45.09014" lon="5.9684">
        <ele>2316</ele>
        <time>2024-10-15T11:45:51.000Z</time>
      </trkpt>
      <trkpt lat="45.09013" lon="5.9684">
        <ele>2315.8000488281</ele>
        <time>2024-10-15T11:45:52.000Z</time>
      </trkpt>
      <trkpt lat="45.09013" lon="5.9684">
        <ele>2315.1999511719</ele>
        <time>2024-10-15T11:45:53.000Z</time>
      </trkpt>
      <trkpt lat="45.09012" lon="5.9684">
        <ele>2314.8000488281</ele>
        <time>2024-10-15T11:45:54.000Z</time>
      </trkpt>
      <trkpt lat="45.09011" lon="5.9684">
        <ele>2314.3999023438</ele>
        <time>2024-10-15T11:45:55.000Z</time>
      </trkpt>
      <trkpt lat="45.0901" lon="5.96839">
        <ele>2314</ele>
        <time>2024-10-15T11:45:56.000Z</time>
      </trkpt>
      <trkpt lat="45.09009" lon="5.9684">
        <ele>2313.8000488281</ele>
        <time>2024-10-15T11:45:57.000Z</time>
      </trkpt>
      <trkpt lat="45.09007" lon="5.9684">
        <ele>2313.6000976562</ele>
        <time>2024-10-15T11:45:58.000Z</time>
      </trkpt>
      <trkpt lat="45.09007" lon="5.9684">
        <ele>2313.6000976562</ele>
        <time>2024-10-15T11:45:59.000Z</time>
      </trkpt>
      <trkpt lat="45.09006" lon="5.96841">
        <ele>2313.1999511719</ele>
        <time>2024-10-15T11:46:00.000Z</time>
      </trkpt>
      <trkpt lat="45.09005" lon="5.96841">
        <ele>2313</ele>
        <time>2024-10-15T11:46:01.000Z</time>
      </trkpt>
      <trkpt lat="45.09004" lon="5.96841">
        <ele>2312.8000488281</ele>
        <time>2024-10-15T11:46:02.000Z</time>
      </trkpt>
      <trkpt lat="45.09003" lon="5.96841">
        <ele>2312.8000488281</ele>
        <time>2024-10-15T11:46:03.000Z</time>
      </trkpt>
      <trkpt lat="45.09003" lon="5.96841">
        <ele>2312.8000488281</ele>
        <time>2024-10-15T11:46:04.000Z</time>
      </trkpt>
      <trkpt lat="45.09002" lon="5.9684">
        <ele>2312.8000488281</ele>
        <time>2024-10-15T11:46:05.000Z</time>
      </trkpt>
      <trkpt lat="45.09001" lon="5.96839">
        <ele>2312.8000488281</ele>
        <time>2024-10-15T11:46:06.000Z</time>
      </trkpt>
      <trkpt lat="45.09001" lon="5.96839">
        <ele>2312.8000488281</ele>
        <time>2024-10-15T11:46:07.000Z</time>
      </trkpt>
      <trkpt lat="45.09" lon="5.96839">
        <ele>2312.6000976562</ele>
        <time>2024-10-15T11:46:08.000Z</time>
      </trkpt>
      <trkpt lat="45.09" lon="5.9684">
        <ele>2312.1999511719</ele>
        <time>2024-10-15T11:46:09.000Z</time>
      </trkpt>
      <trkpt lat="45.09" lon="5.96841">
        <ele>2312</ele>
        <time>2024-10-15T11:46:10.000Z</time>
      </trkpt>
      <trkpt lat="45.08999" lon="5.96842">
        <ele>2311.8000488281</ele>
        <time>2024-10-15T11:46:11.000Z</time>
      </trkpt>
      <trkpt lat="45.08998" lon="5.96842">
        <ele>2311.3999023438</ele>
        <time>2024-10-15T11:46:12.000Z</time>
      </trkpt>
      <trkpt lat="45.08998" lon="5.96842">
        <ele>2310.6000976562</ele>
        <time>2024-10-15T11:46:13.000Z</time>
      </trkpt>
      <trkpt lat="45.08997" lon="5.96842">
        <ele>2310.6000976562</ele>
        <time>2024-10-15T11:46:14.000Z</time>
      </trkpt>
      <trkpt lat="45.08997" lon="5.96843">
        <ele>2310.6000976562</ele>
        <time>2024-10-15T11:46:15.000Z</time>
      </trkpt>
      <trkpt lat="45.08997" lon="5.96843">
        <ele>2310.3999023438</ele>
        <time>2024-10-15T11:46:16.000Z</time>
      </trkpt>
      <trkpt lat="45.08996" lon="5.96843">
        <ele>2309.8000488281</ele>
        <time>2024-10-15T11:46:17.000Z</time>
      </trkpt>
      <trkpt lat="45.08996" lon="5.96843">
        <ele>2309.3999023438</ele>
        <time>2024-10-15T11:46:18.000Z</time>
      </trkpt>
      <trkpt lat="45.08996" lon="5.96843">
        <ele>2309.1999511719</ele>
        <time>2024-10-15T11:46:19.000Z</time>
      </trkpt>
      <trkpt lat="45.08995" lon="5.96843">
        <ele>2309.1999511719</ele>
        <time>2024-10-15T11:46:20.000Z</time>
      </trkpt>
      <trkpt lat="45.08995" lon="5.96843">
        <ele>2308.8000488281</ele>
        <time>2024-10-15T11:46:21.000Z</time>
      </trkpt>
      <trkpt lat="45.08994" lon="5.96844">
        <ele>2308.3999023438</ele>
        <time>2024-10-15T11:46:22.000Z</time>
      </trkpt>
      <trkpt lat="45.08993" lon="5.96844">
        <ele>2308.3999023438</ele>
        <time>2024-10-15T11:46:23.000Z</time>
      </trkpt>
      <trkpt lat="45.08992" lon="5.96844">
        <ele>2307.8000488281</ele>
        <time>2024-10-15T11:46:24.000Z</time>
      </trkpt>
      <trkpt lat="45.08991" lon="5.96844">
        <ele>2307.1999511719</ele>
        <time>2024-10-15T11:46:25.000Z</time>
      </trkpt>
      <trkpt lat="45.08991" lon="5.96844">
        <ele>2306.6000976562</ele>
        <time>2024-10-15T11:46:26.000Z</time>
      </trkpt>
      <trkpt lat="45.0899" lon="5.96844">
        <ele>2306.3999023438</ele>
        <time>2024-10-15T11:46:27.000Z</time>
      </trkpt>
      <trkpt lat="45.0899" lon="5.96843">
        <ele>2306</ele>
        <time>2024-10-15T11:46:28.000Z</time>
      </trkpt>
      <trkpt lat="45.0899" lon="5.96843">
        <ele>2306</ele>
        <time>2024-10-15T11:46:29.000Z</time>
      </trkpt>
      <trkpt lat="45.08989" lon="5.96843">
        <ele>2306</ele>
        <time>2024-10-15T11:46:30.000Z</time>
      </trkpt>
      <trkpt lat="45.08988" lon="5.96843">
        <ele>2305.8000488281</ele>
        <time>2024-10-15T11:46:31.000Z</time>
      </trkpt>
      <trkpt lat="45.08987" lon="5.96843">
        <ele>2305.6000976562</ele>
        <time>2024-10-15T11:46:32.000Z</time>
      </trkpt>
      <trkpt lat="45.08987" lon="5.96843">
        <ele>2305.3999023438</ele>
        <time>2024-10-15T11:46:33.000Z</time>
      </trkpt>
      <trkpt lat="45.08986" lon="5.96843">
        <ele>2305.1999511719</ele>
        <time>2024-10-15T11:46:34.000Z</time>
      </trkpt>
      <trkpt lat="45.08985" lon="5.96843">
        <ele>2305</ele>
        <time>2024-10-15T11:46:35.000Z</time>
      </trkpt>
      <trkpt lat="45.08984" lon="5.96843">
        <ele>2304.8000488281</ele>
        <time>2024-10-15T11:46:36.000Z</time>
      </trkpt>
      <trkpt lat="45.08984" lon="5.96843">
        <ele>2304.6000976562</ele>
        <time>2024-10-15T11:46:37.000Z</time>
      </trkpt>
      <trkpt lat="45.08983" lon="5.96843">
        <ele>2304</ele>
        <time>2024-10-15T11:46:38.000Z</time>
      </trkpt>
      <trkpt lat="45.08982" lon="5.96843">
        <ele>2303.8000488281</ele>
        <time>2024-10-15T11:46:39.000Z</time>
      </trkpt>
      <trkpt lat="45.08981" lon="5.96843">
        <ele>2303.6000976562</ele>
        <time>2024-10-15T11:46:40.000Z</time>
      </trkpt>
      <trkpt lat="45.08981" lon="5.96842">
        <ele>2303.3999023438</ele>
        <time>2024-10-15T11:46:41.000Z</time>
      </trkpt>
      <trkpt lat="45.0898" lon="5.96842">
        <ele>2303.1999511719</ele>
        <time>2024-10-15T11:46:42.000Z</time>
      </trkpt>
      <trkpt lat="45.08979" lon="5.96842">
        <ele>2302.8000488281</ele>
        <time>2024-10-15T11:46:43.000Z</time>
      </trkpt>
      <trkpt lat="45.08978" lon="5.96842">
        <ele>2302.6000976562</ele>
        <time>2024-10-15T11:46:44.000Z</time>
      </trkpt>
      <trkpt lat="45.08977" lon="5.96843">
        <ele>2302.3999023438</ele>
        <time>2024-10-15T11:46:45.000Z</time>
      </trkpt>
      <trkpt lat="45.08976" lon="5.96843">
        <ele>2302.3999023438</ele>
        <time>2024-10-15T11:46:46.000Z</time>
      </trkpt>
      <trkpt lat="45.08975" lon="5.96843">
        <ele>2302.3999023438</ele>
        <time>2024-10-15T11:46:47.000Z</time>
      </trkpt>
      <trkpt lat="45.08974" lon="5.96843">
        <ele>2302</ele>
        <time>2024-10-15T11:46:48.000Z</time>
      </trkpt>
      <trkpt lat="45.08974" lon="5.96843">
        <ele>2301.8000488281</ele>
        <time>2024-10-15T11:46:49.000Z</time>
      </trkpt>
      <trkpt lat="45.08973" lon="5.96844">
        <ele>2301.3999023438</ele>
        <time>2024-10-15T11:46:50.000Z</time>
      </trkpt>
      <trkpt lat="45.08972" lon="5.96844">
        <ele>2301</ele>
        <time>2024-10-15T11:46:51.000Z</time>
      </trkpt>
      <trkpt lat="45.08971" lon="5.96844">
        <ele>2301</ele>
        <time>2024-10-15T11:46:52.000Z</time>
      </trkpt>
      <trkpt lat="45.08971" lon="5.96844">
        <ele>2300.8000488281</ele>
        <time>2024-10-15T11:46:53.000Z</time>
      </trkpt>
      <trkpt lat="45.0897" lon="5.96845">
        <ele>2300.6000976562</ele>
        <time>2024-10-15T11:46:54.000Z</time>
      </trkpt>
      <trkpt lat="45.08969" lon="5.96845">
        <ele>2300.6000976562</ele>
        <time>2024-10-15T11:46:55.000Z</time>
      </trkpt>
      <trkpt lat="45.08968" lon="5.96846">
        <ele>2300.6000976562</ele>
        <time>2024-10-15T11:46:56.000Z</time>
      </trkpt>
      <trkpt lat="45.08968" lon="5.96846">
        <ele>2300.6000976562</ele>
        <time>2024-10-15T11:46:57.000Z</time>
      </trkpt>
      <trkpt lat="45.08967" lon="5.96846">
        <ele>2300.6000976562</ele>
        <time>2024-10-15T11:46:58.000Z</time>
      </trkpt>
      <trkpt lat="45.08966" lon="5.96847">
        <ele>2300.6000976562</ele>
        <time>2024-10-15T11:46:59.000Z</time>
      </trkpt>
      <trkpt lat="45.08965" lon="5.96847">
        <ele>2300.3999023438</ele>
        <time>2024-10-15T11:47:00.000Z</time>
      </trkpt>
      <trkpt lat="45.08965" lon="5.96847">
        <ele>2300.3999023438</ele>
        <time>2024-10-15T11:47:01.000Z</time>
      </trkpt>
      <trkpt lat="45.08964" lon="5.96847">
        <ele>2300.3999023438</ele>
        <time>2024-10-15T11:47:02.000Z</time>
      </trkpt>
      <trkpt lat="45.08963" lon="5.96847">
        <ele>2299.8000488281</ele>
        <time>2024-10-15T11:47:03.000Z</time>
      </trkpt>
      <trkpt lat="45.08962" lon="5.96847">
        <ele>2299.3999023438</ele>
        <time>2024-10-15T11:47:04.000Z</time>
      </trkpt>
      <trkpt lat="45.08961" lon="5.96848">
        <ele>2299.3999023438</ele>
        <time>2024-10-15T11:47:05.000Z</time>
      </trkpt>
      <trkpt lat="45.0896" lon="5.96848">
        <ele>2299.3999023438</ele>
        <time>2024-10-15T11:47:06.000Z</time>
      </trkpt>
      <trkpt lat="45.08959" lon="5.96848">
        <ele>2299.3999023438</ele>
        <time>2024-10-15T11:47:07.000Z</time>
      </trkpt>
      <trkpt lat="45.08959" lon="5.96849">
        <ele>2299.3999023438</ele>
        <time>2024-10-15T11:47:08.000Z</time>
      </trkpt>
      <trkpt lat="45.08959" lon="5.96849">
        <ele>2299.1999511719</ele>
        <time>2024-10-15T11:47:09.000Z</time>
      </trkpt>
      <trkpt lat="45.08958" lon="5.96849">
        <ele>2298.8000488281</ele>
        <time>2024-10-15T11:47:10.000Z</time>
      </trkpt>
      <trkpt lat="45.08958" lon="5.9685">
        <ele>2298</ele>
        <time>2024-10-15T11:47:11.000Z</time>
      </trkpt>
      <trkpt lat="45.08957" lon="5.9685">
        <ele>2297.8000488281</ele>
        <time>2024-10-15T11:47:12.000Z</time>
      </trkpt>
      <trkpt lat="45.08956" lon="5.96851">
        <ele>2297.6000976562</ele>
        <time>2024-10-15T11:47:13.000Z</time>
      </trkpt>
      <trkpt lat="45.08955" lon="5.96852">
        <ele>2297.6000976562</ele>
        <time>2024-10-15T11:47:14.000Z</time>
      </trkpt>
      <trkpt lat="45.08954" lon="5.96853">
        <ele>2297.3999023438</ele>
        <time>2024-10-15T11:47:15.000Z</time>
      </trkpt>
      <trkpt lat="45.08953" lon="5.96853">
        <ele>2297</ele>
        <time>2024-10-15T11:47:16.000Z</time>
      </trkpt>
      <trkpt lat="45.08952" lon="5.96854">
        <ele>2296.8000488281</ele>
        <time>2024-10-15T11:47:17.000Z</time>
      </trkpt>
      <trkpt lat="45.08951" lon="5.96854">
        <ele>2296.1999511719</ele>
        <time>2024-10-15T11:47:18.000Z</time>
      </trkpt>
      <trkpt lat="45.0895" lon="5.96854">
        <ele>2296.1999511719</ele>
        <time>2024-10-15T11:47:19.000Z</time>
      </trkpt>
      <trkpt lat="45.08949" lon="5.96854">
        <ele>2296</ele>
        <time>2024-10-15T11:47:20.000Z</time>
      </trkpt>
      <trkpt lat="45.08948" lon="5.96854">
        <ele>2296</ele>
        <time>2024-10-15T11:47:21.000Z</time>
      </trkpt>
      <trkpt lat="45.08947" lon="5.96854">
        <ele>2295.8000488281</ele>
        <time>2024-10-15T11:47:22.000Z</time>
      </trkpt>
      <trkpt lat="45.08946" lon="5.96855">
        <ele>2295.8000488281</ele>
        <time>2024-10-15T11:47:23.000Z</time>
      </trkpt>
      <trkpt lat="45.08945" lon="5.96855">
        <ele>2295.8000488281</ele>
        <time>2024-10-15T11:47:24.000Z</time>
      </trkpt>
      <trkpt lat="45.08944" lon="5.96855">
        <ele>2295.3999023438</ele>
        <time>2024-10-15T11:47:25.000Z</time>
      </trkpt>
      <trkpt lat="45.08943" lon="5.96856">
        <ele>2295.1999511719</ele>
        <time>2024-10-15T11:47:26.000Z</time>
      </trkpt>
      <trkpt lat="45.08943" lon="5.96856">
        <ele>2295.3999023438</ele>
        <time>2024-10-15T11:47:27.000Z</time>
      </trkpt>
      <trkpt lat="45.08943" lon="5.96857">
        <ele>2295.3999023438</ele>
        <time>2024-10-15T11:47:28.000Z</time>
      </trkpt>
      <trkpt lat="45.08942" lon="5.96857">
        <ele>2295.1999511719</ele>
        <time>2024-10-15T11:47:29.000Z</time>
      </trkpt>
      <trkpt lat="45.08942" lon="5.96857">
        <ele>2295.1999511719</ele>
        <time>2024-10-15T11:47:30.000Z</time>
      </trkpt>
      <trkpt lat="45.08942" lon="5.96857">
        <ele>2295.1999511719</ele>
        <time>2024-10-15T11:47:31.000Z</time>
      </trkpt>
      <trkpt lat="45.08941" lon="5.96857">
        <ele>2295.1999511719</ele>
        <time>2024-10-15T11:47:32.000Z</time>
      </trkpt>
      <trkpt lat="45.0894" lon="5.96857">
        <ele>2294.8000488281</ele>
        <time>2024-10-15T11:47:33.000Z</time>
      </trkpt>
      <trkpt lat="45.0894" lon="5.96857">
        <ele>2294.6000976562</ele>
        <time>2024-10-15T11:47:34.000Z</time>
      </trkpt>
      <trkpt lat="45.08939" lon="5.96857">
        <ele>2294.1999511719</ele>
        <time>2024-10-15T11:47:35.000Z</time>
      </trkpt>
      <trkpt lat="45.08938" lon="5.96857">
        <ele>2294</ele>
        <time>2024-10-15T11:47:36.000Z</time>
      </trkpt>
      <trkpt lat="45.08938" lon="5.96857">
        <ele>2293.6000976562</ele>
        <time>2024-10-15T11:47:37.000Z</time>
      </trkpt>
      <trkpt lat="45.08937" lon="5.96858">
        <ele>2293.1999511719</ele>
        <time>2024-10-15T11:47:38.000Z</time>
      </trkpt>
      <trkpt lat="45.08937" lon="5.96858">
        <ele>2293.1999511719</ele>
        <time>2024-10-15T11:47:39.000Z</time>
      </trkpt>
      <trkpt lat="45.08937" lon="5.96859">
        <ele>2293.1999511719</ele>
        <time>2024-10-15T11:47:40.000Z</time>
      </trkpt>
      <trkpt lat="45.08937" lon="5.9686">
        <ele>2293.1999511719</ele>
        <time>2024-10-15T11:47:41.000Z</time>
      </trkpt>
      <trkpt lat="45.08936" lon="5.96861">
        <ele>2293</ele>
        <time>2024-10-15T11:47:42.000Z</time>
      </trkpt>
      <trkpt lat="45.08936" lon="5.96862">
        <ele>2293</ele>
        <time>2024-10-15T11:47:43.000Z</time>
      </trkpt>
      <trkpt lat="45.08936" lon="5.96862">
        <ele>2292.1999511719</ele>
        <time>2024-10-15T11:47:44.000Z</time>
      </trkpt>
      <trkpt lat="45.08935" lon="5.96863">
        <ele>2291.3999023438</ele>
        <time>2024-10-15T11:47:45.000Z</time>
      </trkpt>
      <trkpt lat="45.08935" lon="5.96863">
        <ele>2291.1999511719</ele>
        <time>2024-10-15T11:47:46.000Z</time>
      </trkpt>
      <trkpt lat="45.08935" lon="5.96864">
        <ele>2290.8000488281</ele>
        <time>2024-10-15T11:47:47.000Z</time>
      </trkpt>
      <trkpt lat="45.08934" lon="5.96864">
        <ele>2290.1999511719</ele>
        <time>2024-10-15T11:47:48.000Z</time>
      </trkpt>
      <trkpt lat="45.08934" lon="5.96864">
        <ele>2290.1999511719</ele>
        <time>2024-10-15T11:47:49.000Z</time>
      </trkpt>
      <trkpt lat="45.08933" lon="5.96864">
        <ele>2290</ele>
        <time>2024-10-15T11:47:50.000Z</time>
      </trkpt>
      <trkpt lat="45.08933" lon="5.96865">
        <ele>2289.6000976562</ele>
        <time>2024-10-15T11:47:51.000Z</time>
      </trkpt>
      <trkpt lat="45.08933" lon="5.96865">
        <ele>2289.3999023438</ele>
        <time>2024-10-15T11:47:52.000Z</time>
      </trkpt>
      <trkpt lat="45.08932" lon="5.96866">
        <ele>2288.8000488281</ele>
        <time>2024-10-15T11:47:53.000Z</time>
      </trkpt>
      <trkpt lat="45.08932" lon="5.96867">
        <ele>2288.8000488281</ele>
        <time>2024-10-15T11:47:54.000Z</time>
      </trkpt>
      <trkpt lat="45.08931" lon="5.96868">
        <ele>2288.6000976562</ele>
        <time>2024-10-15T11:47:55.000Z</time>
      </trkpt>
      <trkpt lat="45.08931" lon="5.96868">
        <ele>2288.3999023438</ele>
        <time>2024-10-15T11:47:56.000Z</time>
      </trkpt>
      <trkpt lat="45.0893" lon="5.96869">
        <ele>2288.1999511719</ele>
        <time>2024-10-15T11:47:57.000Z</time>
      </trkpt>
      <trkpt lat="45.0893" lon="5.96869">
        <ele>2288.1999511719</ele>
        <time>2024-10-15T11:47:58.000Z</time>
      </trkpt>
      <trkpt lat="45.08929" lon="5.9687">
        <ele>2288</ele>
        <time>2024-10-15T11:47:59.000Z</time>
      </trkpt>
      <trkpt lat="45.08929" lon="5.96871">
        <ele>2287.6000976562</ele>
        <time>2024-10-15T11:48:00.000Z</time>
      </trkpt>
      <trkpt lat="45.08929" lon="5.96871">
        <ele>2287.3999023438</ele>
        <time>2024-10-15T11:48:01.000Z</time>
      </trkpt>
      <trkpt lat="45.08928" lon="5.96871">
        <ele>2287.3999023438</ele>
        <time>2024-10-15T11:48:02.000Z</time>
      </trkpt>
      <trkpt lat="45.08928" lon="5.96872">
        <ele>2287.1999511719</ele>
        <time>2024-10-15T11:48:03.000Z</time>
      </trkpt>
      <trkpt lat="45.08928" lon="5.96872">
        <ele>2287.1999511719</ele>
        <time>2024-10-15T11:48:04.000Z</time>
      </trkpt>
      <trkpt lat="45.08928" lon="5.96872">
        <ele>2287.1999511719</ele>
        <time>2024-10-15T11:48:05.000Z</time>
      </trkpt>
      <trkpt lat="45.08927" lon="5.96873">
        <ele>2287.1999511719</ele>
        <time>2024-10-15T11:48:06.000Z</time>
      </trkpt>
      <trkpt lat="45.08927" lon="5.96873">
        <ele>2287.1999511719</ele>
        <time>2024-10-15T11:48:07.000Z</time>
      </trkpt>
      <trkpt lat="45.08927" lon="5.96874">
        <ele>2287.1999511719</ele>
        <time>2024-10-15T11:48:08.000Z</time>
      </trkpt>
      <trkpt lat="45.08926" lon="5.96874">
        <ele>2287.1999511719</ele>
        <time>2024-10-15T11:48:09.000Z</time>
      </trkpt>
      <trkpt lat="45.08926" lon="5.96875">
        <ele>2287.1999511719</ele>
        <time>2024-10-15T11:48:10.000Z</time>
      </trkpt>
      <trkpt lat="45.08926" lon="5.96875">
        <ele>2286.6000976562</ele>
        <time>2024-10-15T11:48:11.000Z</time>
      </trkpt>
      <trkpt lat="45.08925" lon="5.96876">
        <ele>2286.1999511719</ele>
        <time>2024-10-15T11:48:12.000Z</time>
      </trkpt>
      <trkpt lat="45.08925" lon="5.96877">
        <ele>2286.1999511719</ele>
        <time>2024-10-15T11:48:13.000Z</time>
      </trkpt>
      <trkpt lat="45.08924" lon="5.96877">
        <ele>2286.1999511719</ele>
        <time>2024-10-15T11:48:14.000Z</time>
      </trkpt>
      <trkpt lat="45.08924" lon="5.96878">
        <ele>2286.1999511719</ele>
        <time>2024-10-15T11:48:15.000Z</time>
      </trkpt>
      <trkpt lat="45.08923" lon="5.96879">
        <ele>2286.1999511719</ele>
        <time>2024-10-15T11:48:16.000Z</time>
      </trkpt>
      <trkpt lat="45.08922" lon="5.9688">
        <ele>2286.1999511719</ele>
        <time>2024-10-15T11:48:17.000Z</time>
      </trkpt>
      <trkpt lat="45.08922" lon="5.96881">
        <ele>2286.1999511719</ele>
        <time>2024-10-15T11:48:18.000Z</time>
      </trkpt>
      <trkpt lat="45.08921" lon="5.96882">
        <ele>2286.1999511719</ele>
        <time>2024-10-15T11:48:19.000Z</time>
      </trkpt>
      <trkpt lat="45.08921" lon="5.96882">
        <ele>2286.1999511719</ele>
        <time>2024-10-15T11:48:20.000Z</time>
      </trkpt>
      <trkpt lat="45.0892" lon="5.96883">
        <ele>2285.8000488281</ele>
        <time>2024-10-15T11:48:21.000Z</time>
      </trkpt>
      <trkpt lat="45.0892" lon="5.96884">
        <ele>2285.6000976562</ele>
        <time>2024-10-15T11:48:22.000Z</time>
      </trkpt>
      <trkpt lat="45.08919" lon="5.96885">
        <ele>2285.6000976562</ele>
        <time>2024-10-15T11:48:23.000Z</time>
      </trkpt>
      <trkpt lat="45.08919" lon="5.96885">
        <ele>2285.1999511719</ele>
        <time>2024-10-15T11:48:24.000Z</time>
      </trkpt>
      <trkpt lat="45.08919" lon="5.96886">
        <ele>2284.6000976562</ele>
        <time>2024-10-15T11:48:25.000Z</time>
      </trkpt>
      <trkpt lat="45.08918" lon="5.96887">
        <ele>2284</ele>
        <time>2024-10-15T11:48:26.000Z</time>
      </trkpt>
      <trkpt lat="45.08918" lon="5.96888">
        <ele>2283.3999023438</ele>
        <time>2024-10-15T11:48:27.000Z</time>
      </trkpt>
      <trkpt lat="45.08917" lon="5.96888">
        <ele>2283</ele>
        <time>2024-10-15T11:48:28.000Z</time>
      </trkpt>
      <trkpt lat="45.08917" lon="5.96889">
        <ele>2282.8000488281</ele>
        <time>2024-10-15T11:48:29.000Z</time>
      </trkpt>
      <trkpt lat="45.08917" lon="5.96889">
        <ele>2282.8000488281</ele>
        <time>2024-10-15T11:48:30.000Z</time>
      </trkpt>
      <trkpt lat="45.08917" lon="5.96889">
        <ele>2282.8000488281</ele>
        <time>2024-10-15T11:48:31.000Z</time>
      </trkpt>
      <trkpt lat="45.08916" lon="5.96889">
        <ele>2282.8000488281</ele>
        <time>2024-10-15T11:48:32.000Z</time>
      </trkpt>
      <trkpt lat="45.08916" lon="5.9689">
        <ele>2282.8000488281</ele>
        <time>2024-10-15T11:48:33.000Z</time>
      </trkpt>
      <trkpt lat="45.08915" lon="5.9689">
        <ele>2282.8000488281</ele>
        <time>2024-10-15T11:48:34.000Z</time>
      </trkpt>
      <trkpt lat="45.08915" lon="5.96891">
        <ele>2282.8000488281</ele>
        <time>2024-10-15T11:48:35.000Z</time>
      </trkpt>
      <trkpt lat="45.08915" lon="5.96892">
        <ele>2282.6000976562</ele>
        <time>2024-10-15T11:48:36.000Z</time>
      </trkpt>
      <trkpt lat="45.08914" lon="5.96893">
        <ele>2282.3999023438</ele>
        <time>2024-10-15T11:48:37.000Z</time>
      </trkpt>
      <trkpt lat="45.08914" lon="5.96893">
        <ele>2282.1999511719</ele>
        <time>2024-10-15T11:48:38.000Z</time>
      </trkpt>
      <trkpt lat="45.08914" lon="5.96894">
        <ele>2282</ele>
        <time>2024-10-15T11:48:39.000Z</time>
      </trkpt>
      <trkpt lat="45.08913" lon="5.96894">
        <ele>2281.8000488281</ele>
        <time>2024-10-15T11:48:40.000Z</time>
      </trkpt>
      <trkpt lat="45.08912" lon="5.96894">
        <ele>2281.6000976562</ele>
        <time>2024-10-15T11:48:41.000Z</time>
      </trkpt>
      <trkpt lat="45.08912" lon="5.96894">
        <ele>2281.3999023438</ele>
        <time>2024-10-15T11:48:42.000Z</time>
      </trkpt>
      <trkpt lat="45.08911" lon="5.96894">
        <ele>2281.1999511719</ele>
        <time>2024-10-15T11:48:43.000Z</time>
      </trkpt>
      <trkpt lat="45.08909" lon="5.96895">
        <ele>2281</ele>
        <time>2024-10-15T11:48:44.000Z</time>
      </trkpt>
      <trkpt lat="45.08908" lon="5.96896">
        <ele>2280.8000488281</ele>
        <time>2024-10-15T11:48:45.000Z</time>
      </trkpt>
      <trkpt lat="45.08907" lon="5.96896">
        <ele>2280.8000488281</ele>
        <time>2024-10-15T11:48:46.000Z</time>
      </trkpt>
      <trkpt lat="45.08907" lon="5.96896">
        <ele>2280.8000488281</ele>
        <time>2024-10-15T11:48:47.000Z</time>
      </trkpt>
      <trkpt lat="45.08906" lon="5.96897">
        <ele>2280.8000488281</ele>
        <time>2024-10-15T11:48:48.000Z</time>
      </trkpt>
      <trkpt lat="45.08905" lon="5.96897">
        <ele>2281</ele>
        <time>2024-10-15T11:48:49.000Z</time>
      </trkpt>
      <trkpt lat="45.08904" lon="5.96897">
        <ele>2281</ele>
        <time>2024-10-15T11:48:50.000Z</time>
      </trkpt>
      <trkpt lat="45.08904" lon="5.96898">
        <ele>2281</ele>
        <time>2024-10-15T11:48:51.000Z</time>
      </trkpt>
      <trkpt lat="45.08903" lon="5.96898">
        <ele>2281.1999511719</ele>
        <time>2024-10-15T11:48:52.000Z</time>
      </trkpt>
      <trkpt lat="45.08903" lon="5.96899">
        <ele>2281.1999511719</ele>
        <time>2024-10-15T11:48:53.000Z</time>
      </trkpt>
      <trkpt lat="45.08903" lon="5.96899">
        <ele>2281</ele>
        <time>2024-10-15T11:48:54.000Z</time>
      </trkpt>
      <trkpt lat="45.08902" lon="5.969">
        <ele>2281</ele>
        <time>2024-10-15T11:48:55.000Z</time>
      </trkpt>
      <trkpt lat="45.08902" lon="5.969">
        <ele>2280.6000976562</ele>
        <time>2024-10-15T11:48:56.000Z</time>
      </trkpt>
      <trkpt lat="45.08901" lon="5.96901">
        <ele>2280.6000976562</ele>
        <time>2024-10-15T11:48:57.000Z</time>
      </trkpt>
      <trkpt lat="45.089" lon="5.96901">
        <ele>2280.3999023438</ele>
        <time>2024-10-15T11:48:58.000Z</time>
      </trkpt>
      <trkpt lat="45.089" lon="5.96901">
        <ele>2279.6000976562</ele>
        <time>2024-10-15T11:48:59.000Z</time>
      </trkpt>
      <trkpt lat="45.08899" lon="5.96902">
        <ele>2279.6000976562</ele>
        <time>2024-10-15T11:49:00.000Z</time>
      </trkpt>
      <trkpt lat="45.08899" lon="5.96903">
        <ele>2279.3999023438</ele>
        <time>2024-10-15T11:49:01.000Z</time>
      </trkpt>
      <trkpt lat="45.08898" lon="5.96904">
        <ele>2279.3999023438</ele>
        <time>2024-10-15T11:49:02.000Z</time>
      </trkpt>
      <trkpt lat="45.08898" lon="5.96904">
        <ele>2279.3999023438</ele>
        <time>2024-10-15T11:49:03.000Z</time>
      </trkpt>
      <trkpt lat="45.08898" lon="5.96904">
        <ele>2279</ele>
        <time>2024-10-15T11:49:04.000Z</time>
      </trkpt>
      <trkpt lat="45.08898" lon="5.96904">
        <ele>2278.8000488281</ele>
        <time>2024-10-15T11:49:05.000Z</time>
      </trkpt>
      <trkpt lat="45.08898" lon="5.96904">
        <ele>2278.8000488281</ele>
        <time>2024-10-15T11:49:06.000Z</time>
      </trkpt>
      <trkpt lat="45.08898" lon="5.96904">
        <ele>2278.8000488281</ele>
        <time>2024-10-15T11:49:07.000Z</time>
      </trkpt>
      <trkpt lat="45.08898" lon="5.96904">
        <ele>2278.8000488281</ele>
        <time>2024-10-15T11:49:08.000Z</time>
      </trkpt>
      <trkpt lat="45.08898" lon="5.96904">
        <ele>2278.6000976562</ele>
        <time>2024-10-15T11:49:09.000Z</time>
      </trkpt>
      <trkpt lat="45.08898" lon="5.96904">
        <ele>2278.6000976562</ele>
        <time>2024-10-15T11:49:10.000Z</time>
      </trkpt>
      <trkpt lat="45.08898" lon="5.96904">
        <ele>2278.6000976562</ele>
        <time>2024-10-15T11:49:11.000Z</time>
      </trkpt>
      <trkpt lat="45.08898" lon="5.96904">
        <ele>2278.6000976562</ele>
        <time>2024-10-15T11:49:12.000Z</time>
      </trkpt>
      <trkpt lat="45.08898" lon="5.96904">
        <ele>2278.6000976562</ele>
        <time>2024-10-15T11:49:13.000Z</time>
      </trkpt>
      <trkpt lat="45.08898" lon="5.96904">
        <ele>2278.6000976562</ele>
        <time>2024-10-15T11:49:14.000Z</time>
      </trkpt>
      <trkpt lat="45.08898" lon="5.96904">
        <ele>2278.6000976562</ele>
        <time>2024-10-15T11:49:15.000Z</time>
      </trkpt>
      <trkpt lat="45.08898" lon="5.96904">
        <ele>2278.6000976562</ele>
        <time>2024-10-15T11:49:16.000Z</time>
      </trkpt>
      <trkpt lat="45.08898" lon="5.96904">
        <ele>2278.8000488281</ele>
        <time>2024-10-15T11:49:17.000Z</time>
      </trkpt>
      <trkpt lat="45.08898" lon="5.96904">
        <ele>2278.8000488281</ele>
        <time>2024-10-15T11:49:18.000Z</time>
      </trkpt>
      <trkpt lat="45.08898" lon="5.96904">
        <ele>2278.8000488281</ele>
        <time>2024-10-15T11:49:19.000Z</time>
      </trkpt>
      <trkpt lat="45.08898" lon="5.96904">
        <ele>2278.8000488281</ele>
        <time>2024-10-15T11:49:20.000Z</time>
      </trkpt>
      <trkpt lat="45.08898" lon="5.96904">
        <ele>2278.8000488281</ele>
        <time>2024-10-15T11:49:21.000Z</time>
      </trkpt>
      <trkpt lat="45.08898" lon="5.96904">
        <ele>2278.6000976562</ele>
        <time>2024-10-15T11:49:22.000Z</time>
      </trkpt>
      <trkpt lat="45.08898" lon="5.96904">
        <ele>2278.3999023438</ele>
        <time>2024-10-15T11:49:23.000Z</time>
      </trkpt>
      <trkpt lat="45.08898" lon="5.96904">
        <ele>2278.1999511719</ele>
        <time>2024-10-15T11:49:24.000Z</time>
      </trkpt>
      <trkpt lat="45.08898" lon="5.96904">
        <ele>2278.1999511719</ele>
        <time>2024-10-15T11:49:25.000Z</time>
      </trkpt>
      <trkpt lat="45.08898" lon="5.96904">
        <ele>2278.1999511719</ele>
        <time>2024-10-15T11:49:26.000Z</time>
      </trkpt>
      <trkpt lat="45.08898" lon="5.96904">
        <ele>2278.1999511719</ele>
        <time>2024-10-15T11:49:27.000Z</time>
      </trkpt>
      <trkpt lat="45.08898" lon="5.96904">
        <ele>2278.1999511719</ele>
        <time>2024-10-15T11:49:28.000Z</time>
      </trkpt>
      <trkpt lat="45.08898" lon="5.96904">
        <ele>2278.1999511719</ele>
        <time>2024-10-15T11:49:29.000Z</time>
      </trkpt>
      <trkpt lat="45.08898" lon="5.96904">
        <ele>2278.3999023438</ele>
        <time>2024-10-15T11:49:30.000Z</time>
      </trkpt>
      <trkpt lat="45.08898" lon="5.96904">
        <ele>2278.3999023438</ele>
        <time>2024-10-15T11:49:31.000Z</time>
      </trkpt>
      <trkpt lat="45.08898" lon="5.96904">
        <ele>2278.3999023438</ele>
        <time>2024-10-15T11:49:32.000Z</time>
      </trkpt>
      <trkpt lat="45.08898" lon="5.96904">
        <ele>2278.1999511719</ele>
        <time>2024-10-15T11:49:33.000Z</time>
      </trkpt>
      <trkpt lat="45.08898" lon="5.96904">
        <ele>2278.1999511719</ele>
        <time>2024-10-15T11:49:34.000Z</time>
      </trkpt>
      <trkpt lat="45.08898" lon="5.96904">
        <ele>2278.3999023438</ele>
        <time>2024-10-15T11:49:35.000Z</time>
      </trkpt>
      <trkpt lat="45.08898" lon="5.96904">
        <ele>2278.3999023438</ele>
        <time>2024-10-15T11:49:36.000Z</time>
      </trkpt>
      <trkpt lat="45.08898" lon="5.96904">
        <ele>2278.3999023438</ele>
        <time>2024-10-15T11:49:37.000Z</time>
      </trkpt>
      <trkpt lat="45.08898" lon="5.96904">
        <ele>2278.3999023438</ele>
        <time>2024-10-15T11:49:38.000Z</time>
      </trkpt>
      <trkpt lat="45.08898" lon="5.96904">
        <ele>2279</ele>
        <time>2024-10-15T11:49:39.000Z</time>
      </trkpt>
      <trkpt lat="45.08898" lon="5.96904">
        <ele>2279.1999511719</ele>
        <time>2024-10-15T11:49:40.000Z</time>
      </trkpt>
      <trkpt lat="45.08898" lon="5.96904">
        <ele>2279.8000488281</ele>
        <time>2024-10-15T11:49:41.000Z</time>
      </trkpt>
      <trkpt lat="45.08898" lon="5.96904">
        <ele>2280</ele>
        <time>2024-10-15T11:49:42.000Z</time>
      </trkpt>
      <trkpt lat="45.08898" lon="5.96904">
        <ele>2280</ele>
        <time>2024-10-15T11:49:43.000Z</time>
      </trkpt>
      <trkpt lat="45.08898" lon="5.96904">
        <ele>2280</ele>
        <time>2024-10-15T11:49:44.000Z</time>
      </trkpt>
      <trkpt lat="45.08898" lon="5.96904">
        <ele>2280</ele>
        <time>2024-10-15T11:49:45.000Z</time>
      </trkpt>
      <trkpt lat="45.08898" lon="5.96904">
        <ele>2279.8000488281</ele>
        <time>2024-10-15T11:49:46.000Z</time>
      </trkpt>
      <trkpt lat="45.08897" lon="5.96904">
        <ele>2279.8000488281</ele>
        <time>2024-10-15T11:49:47.000Z</time>
      </trkpt>
      <trkpt lat="45.08897" lon="5.96904">
        <ele>2279.8000488281</ele>
        <time>2024-10-15T11:49:48.000Z</time>
      </trkpt>
      <trkpt lat="45.08897" lon="5.96904">
        <ele>2279.8000488281</ele>
        <time>2024-10-15T11:49:49.000Z</time>
      </trkpt>
      <trkpt lat="45.08897" lon="5.96904">
        <ele>2279.8000488281</ele>
        <time>2024-10-15T11:49:50.000Z</time>
      </trkpt>
      <trkpt lat="45.08897" lon="5.96904">
        <ele>2279.6000976562</ele>
        <time>2024-10-15T11:49:51.000Z</time>
      </trkpt>
      <trkpt lat="45.08897" lon="5.96904">
        <ele>2279.6000976562</ele>
        <time>2024-10-15T11:49:52.000Z</time>
      </trkpt>
      <trkpt lat="45.08897" lon="5.96904">
        <ele>2279.6000976562</ele>
        <time>2024-10-15T11:49:53.000Z</time>
      </trkpt>
      <trkpt lat="45.08897" lon="5.96904">
        <ele>2279.1999511719</ele>
        <time>2024-10-15T11:49:54.000Z</time>
      </trkpt>
      <trkpt lat="45.08897" lon="5.96904">
        <ele>2278.8000488281</ele>
        <time>2024-10-15T11:49:55.000Z</time>
      </trkpt>
      <trkpt lat="45.08897" lon="5.96904">
        <ele>2278.8000488281</ele>
        <time>2024-10-15T11:49:56.000Z</time>
      </trkpt>
      <trkpt lat="45.08897" lon="5.96904">
        <ele>2278.8000488281</ele>
        <time>2024-10-15T11:49:57.000Z</time>
      </trkpt>
      <trkpt lat="45.08897" lon="5.96904">
        <ele>2278.8000488281</ele>
        <time>2024-10-15T11:49:58.000Z</time>
      </trkpt>
      <trkpt lat="45.08897" lon="5.96904">
        <ele>2278.8000488281</ele>
        <time>2024-10-15T11:49:59.000Z</time>
      </trkpt>
      <trkpt lat="45.08897" lon="5.96904">
        <ele>2279.1999511719</ele>
        <time>2024-10-15T11:50:00.000Z</time>
      </trkpt>
      <trkpt lat="45.08897" lon="5.96904">
        <ele>2279.6000976562</ele>
        <time>2024-10-15T11:50:01.000Z</time>
      </trkpt>
      <trkpt lat="45.08897" lon="5.96904">
        <ele>2279.8000488281</ele>
        <time>2024-10-15T11:50:02.000Z</time>
      </trkpt>
      <trkpt lat="45.08897" lon="5.96904">
        <ele>2279.8000488281</ele>
        <time>2024-10-15T11:50:03.000Z</time>
      </trkpt>
      <trkpt lat="45.08897" lon="5.96904">
        <ele>2280</ele>
        <time>2024-10-15T11:50:04.000Z</time>
      </trkpt>
      <trkpt lat="45.08897" lon="5.96904">
        <ele>2279.8000488281</ele>
        <time>2024-10-15T11:50:05.000Z</time>
      </trkpt>
      <trkpt lat="45.08897" lon="5.96904">
        <ele>2279.8000488281</ele>
        <time>2024-10-15T11:50:06.000Z</time>
      </trkpt>
      <trkpt lat="45.08897" lon="5.96904">
        <ele>2279.8000488281</ele>
        <time>2024-10-15T11:50:07.000Z</time>
      </trkpt>
      <trkpt lat="45.08897" lon="5.96904">
        <ele>2279.8000488281</ele>
        <time>2024-10-15T11:50:08.000Z</time>
      </trkpt>
      <trkpt lat="45.08897" lon="5.96904">
        <ele>2279.6000976562</ele>
        <time>2024-10-15T11:50:09.000Z</time>
      </trkpt>
      <trkpt lat="45.08897" lon="5.96904">
        <ele>2279.1999511719</ele>
        <time>2024-10-15T11:50:10.000Z</time>
      </trkpt>
      <trkpt lat="45.08897" lon="5.96904">
        <ele>2279</ele>
        <time>2024-10-15T11:50:11.000Z</time>
      </trkpt>
      <trkpt lat="45.08897" lon="5.96905">
        <ele>2279</ele>
        <time>2024-10-15T11:50:12.000Z</time>
      </trkpt>
      <trkpt lat="45.08897" lon="5.96907">
        <ele>2278.8000488281</ele>
        <time>2024-10-15T11:50:13.000Z</time>
      </trkpt>
      <trkpt lat="45.08897" lon="5.96908">
        <ele>2278.8000488281</ele>
        <time>2024-10-15T11:50:14.000Z</time>
      </trkpt>
      <trkpt lat="45.08897" lon="5.9691">
        <ele>2278.8000488281</ele>
        <time>2024-10-15T11:50:15.000Z</time>
      </trkpt>
      <trkpt lat="45.08896" lon="5.96912">
        <ele>2278.8000488281</ele>
        <time>2024-10-15T11:50:16.000Z</time>
      </trkpt>
      <trkpt lat="45.08896" lon="5.96914">
        <ele>2278.8000488281</ele>
        <time>2024-10-15T11:50:17.000Z</time>
      </trkpt>
      <trkpt lat="45.08895" lon="5.96915">
        <ele>2278.8000488281</ele>
        <time>2024-10-15T11:50:18.000Z</time>
      </trkpt>
      <trkpt lat="45.08895" lon="5.96916">
        <ele>2278.6000976562</ele>
        <time>2024-10-15T11:50:19.000Z</time>
      </trkpt>
      <trkpt lat="45.08895" lon="5.96917">
        <ele>2278.6000976562</ele>
        <time>2024-10-15T11:50:20.000Z</time>
      </trkpt>
      <trkpt lat="45.08894" lon="5.96919">
        <ele>2278.6000976562</ele>
        <time>2024-10-15T11:50:21.000Z</time>
      </trkpt>
      <trkpt lat="45.08893" lon="5.9692">
        <ele>2278.6000976562</ele>
        <time>2024-10-15T11:50:22.000Z</time>
      </trkpt>
      <trkpt lat="45.08893" lon="5.96921">
        <ele>2278.3999023438</ele>
        <time>2024-10-15T11:50:23.000Z</time>
      </trkpt>
      <trkpt lat="45.08893" lon="5.96921">
        <ele>2278</ele>
        <time>2024-10-15T11:50:24.000Z</time>
      </trkpt>
      <trkpt lat="45.08893" lon="5.96922">
        <ele>2277.8000488281</ele>
        <time>2024-10-15T11:50:25.000Z</time>
      </trkpt>
      <trkpt lat="45.08892" lon="5.96923">
        <ele>2277.6000976562</ele>
        <time>2024-10-15T11:50:26.000Z</time>
      </trkpt>
      <trkpt lat="45.08892" lon="5.96924">
        <ele>2277.3999023438</ele>
        <time>2024-10-15T11:50:27.000Z</time>
      </trkpt>
      <trkpt lat="45.08892" lon="5.96924">
        <ele>2277</ele>
        <time>2024-10-15T11:50:28.000Z</time>
      </trkpt>
      <trkpt lat="45.08892" lon="5.96925">
        <ele>2276.8000488281</ele>
        <time>2024-10-15T11:50:29.000Z</time>
      </trkpt>
      <trkpt lat="45.08892" lon="5.96925">
        <ele>2276.6000976562</ele>
        <time>2024-10-15T11:50:30.000Z</time>
      </trkpt>
      <trkpt lat="45.08892" lon="5.96926">
        <ele>2276.1999511719</ele>
        <time>2024-10-15T11:50:31.000Z</time>
      </trkpt>
      <trkpt lat="45.08891" lon="5.96927">
        <ele>2276</ele>
        <time>2024-10-15T11:50:32.000Z</time>
      </trkpt>
      <trkpt lat="45.08891" lon="5.96927">
        <ele>2275.6000976562</ele>
        <time>2024-10-15T11:50:33.000Z</time>
      </trkpt>
      <trkpt lat="45.0889" lon="5.96928">
        <ele>2275.1999511719</ele>
        <time>2024-10-15T11:50:34.000Z</time>
      </trkpt>
      <trkpt lat="45.0889" lon="5.96928">
        <ele>2275</ele>
        <time>2024-10-15T11:50:35.000Z</time>
      </trkpt>
      <trkpt lat="45.08889" lon="5.96929">
        <ele>2275</ele>
        <time>2024-10-15T11:50:36.000Z</time>
      </trkpt>
      <trkpt lat="45.08888" lon="5.9693">
        <ele>2275</ele>
        <time>2024-10-15T11:50:37.000Z</time>
      </trkpt>
      <trkpt lat="45.08887" lon="5.96931">
        <ele>2275</ele>
        <time>2024-10-15T11:50:38.000Z</time>
      </trkpt>
      <trkpt lat="45.08887" lon="5.96931">
        <ele>2275</ele>
        <time>2024-10-15T11:50:39.000Z</time>
      </trkpt>
      <trkpt lat="45.08886" lon="5.96932">
        <ele>2275.3999023438</ele>
        <time>2024-10-15T11:50:40.000Z</time>
      </trkpt>
      <trkpt lat="45.08886" lon="5.96933">
        <ele>2275.3999023438</ele>
        <time>2024-10-15T11:50:41.000Z</time>
      </trkpt>
      <trkpt lat="45.08885" lon="5.96934">
        <ele>2275.8000488281</ele>
        <time>2024-10-15T11:50:42.000Z</time>
      </trkpt>
      <trkpt lat="45.08885" lon="5.96934">
        <ele>2275.8000488281</ele>
        <time>2024-10-15T11:50:43.000Z</time>
      </trkpt>
      <trkpt lat="45.08885" lon="5.96935">
        <ele>2275.8000488281</ele>
        <time>2024-10-15T11:50:44.000Z</time>
      </trkpt>
      <trkpt lat="45.08885" lon="5.96936">
        <ele>2275.8000488281</ele>
        <time>2024-10-15T11:50:45.000Z</time>
      </trkpt>
      <trkpt lat="45.08885" lon="5.96937">
        <ele>2275.6000976562</ele>
        <time>2024-10-15T11:50:46.000Z</time>
      </trkpt>
      <trkpt lat="45.08885" lon="5.96938">
        <ele>2275.3999023438</ele>
        <time>2024-10-15T11:50:47.000Z</time>
      </trkpt>
      <trkpt lat="45.08884" lon="5.96939">
        <ele>2275.3999023438</ele>
        <time>2024-10-15T11:50:48.000Z</time>
      </trkpt>
      <trkpt lat="45.08884" lon="5.9694">
        <ele>2275.1999511719</ele>
        <time>2024-10-15T11:50:49.000Z</time>
      </trkpt>
      <trkpt lat="45.08883" lon="5.96941">
        <ele>2275</ele>
        <time>2024-10-15T11:50:50.000Z</time>
      </trkpt>
      <trkpt lat="45.08882" lon="5.96943">
        <ele>2274.8000488281</ele>
        <time>2024-10-15T11:50:51.000Z</time>
      </trkpt>
      <trkpt lat="45.08882" lon="5.96944">
        <ele>2275</ele>
        <time>2024-10-15T11:50:52.000Z</time>
      </trkpt>
      <trkpt lat="45.08881" lon="5.96945">
        <ele>2275.1999511719</ele>
        <time>2024-10-15T11:50:53.000Z</time>
      </trkpt>
      <trkpt lat="45.08881" lon="5.96946">
        <ele>2275.3999023438</ele>
        <time>2024-10-15T11:50:54.000Z</time>
      </trkpt>
      <trkpt lat="45.0888" lon="5.96947">
        <ele>2275.3999023438</ele>
        <time>2024-10-15T11:50:55.000Z</time>
      </trkpt>
      <trkpt lat="45.08879" lon="5.96948">
        <ele>2275.6000976562</ele>
        <time>2024-10-15T11:50:56.000Z</time>
      </trkpt>
      <trkpt lat="45.08878" lon="5.96949">
        <ele>2275.6000976562</ele>
        <time>2024-10-15T11:50:57.000Z</time>
      </trkpt>
      <trkpt lat="45.08878" lon="5.96951">
        <ele>2275.6000976562</ele>
        <time>2024-10-15T11:50:58.000Z</time>
      </trkpt>
      <trkpt lat="45.08877" lon="5.96951">
        <ele>2275.6000976562</ele>
        <time>2024-10-15T11:50:59.000Z</time>
      </trkpt>
      <trkpt lat="45.08877" lon="5.96952">
        <ele>2275.3999023438</ele>
        <time>2024-10-15T11:51:00.000Z</time>
      </trkpt>
      <trkpt lat="45.08876" lon="5.96953">
        <ele>2274.1999511719</ele>
        <time>2024-10-15T11:51:01.000Z</time>
      </trkpt>
      <trkpt lat="45.08875" lon="5.96953">
        <ele>2273.3999023438</ele>
        <time>2024-10-15T11:51:02.000Z</time>
      </trkpt>
      <trkpt lat="45.08874" lon="5.96954">
        <ele>2273.1999511719</ele>
        <time>2024-10-15T11:51:03.000Z</time>
      </trkpt>
      <trkpt lat="45.08873" lon="5.96956">
        <ele>2273</ele>
        <time>2024-10-15T11:51:04.000Z</time>
      </trkpt>
      <trkpt lat="45.08872" lon="5.96957">
        <ele>2272.8000488281</ele>
        <time>2024-10-15T11:51:05.000Z</time>
      </trkpt>
      <trkpt lat="45.08872" lon="5.96958">
        <ele>2272.3999023438</ele>
        <time>2024-10-15T11:51:06.000Z</time>
      </trkpt>
      <trkpt lat="45.08871" lon="5.96959">
        <ele>2272</ele>
        <time>2024-10-15T11:51:07.000Z</time>
      </trkpt>
      <trkpt lat="45.0887" lon="5.9696">
        <ele>2271.8000488281</ele>
        <time>2024-10-15T11:51:08.000Z</time>
      </trkpt>
      <trkpt lat="45.0887" lon="5.96961">
        <ele>2271.6000976562</ele>
        <time>2024-10-15T11:51:09.000Z</time>
      </trkpt>
      <trkpt lat="45.08869" lon="5.96962">
        <ele>2271.3999023438</ele>
        <time>2024-10-15T11:51:10.000Z</time>
      </trkpt>
      <trkpt lat="45.08869" lon="5.96963">
        <ele>2271.1999511719</ele>
        <time>2024-10-15T11:51:11.000Z</time>
      </trkpt>
      <trkpt lat="45.08868" lon="5.96964">
        <ele>2270.8000488281</ele>
        <time>2024-10-15T11:51:12.000Z</time>
      </trkpt>
      <trkpt lat="45.08866" lon="5.96965">
        <ele>2270.6000976562</ele>
        <time>2024-10-15T11:51:13.000Z</time>
      </trkpt>
      <trkpt lat="45.08865" lon="5.96965">
        <ele>2269.8000488281</ele>
        <time>2024-10-15T11:51:14.000Z</time>
      </trkpt>
      <trkpt lat="45.08865" lon="5.96966">
        <ele>2268.8000488281</ele>
        <time>2024-10-15T11:51:15.000Z</time>
      </trkpt>
      <trkpt lat="45.08864" lon="5.96967">
        <ele>2268.6000976562</ele>
        <time>2024-10-15T11:51:16.000Z</time>
      </trkpt>
      <trkpt lat="45.08864" lon="5.96968">
        <ele>2268.3999023438</ele>
        <time>2024-10-15T11:51:17.000Z</time>
      </trkpt>
      <trkpt lat="45.08863" lon="5.96969">
        <ele>2268.3999023438</ele>
        <time>2024-10-15T11:51:18.000Z</time>
      </trkpt>
      <trkpt lat="45.08863" lon="5.9697">
        <ele>2268.1999511719</ele>
        <time>2024-10-15T11:51:19.000Z</time>
      </trkpt>
      <trkpt lat="45.08862" lon="5.9697">
        <ele>2268</ele>
        <time>2024-10-15T11:51:20.000Z</time>
      </trkpt>
      <trkpt lat="45.08862" lon="5.96971">
        <ele>2267.8000488281</ele>
        <time>2024-10-15T11:51:21.000Z</time>
      </trkpt>
      <trkpt lat="45.08861" lon="5.96972">
        <ele>2267.6000976562</ele>
        <time>2024-10-15T11:51:22.000Z</time>
      </trkpt>
      <trkpt lat="45.0886" lon="5.96972">
        <ele>2267.6000976562</ele>
        <time>2024-10-15T11:51:23.000Z</time>
      </trkpt>
      <trkpt lat="45.0886" lon="5.96973">
        <ele>2267.1999511719</ele>
        <time>2024-10-15T11:51:24.000Z</time>
      </trkpt>
      <trkpt lat="45.08859" lon="5.96974">
        <ele>2267</ele>
        <time>2024-10-15T11:51:25.000Z</time>
      </trkpt>
      <trkpt lat="45.08858" lon="5.96975">
        <ele>2266</ele>
        <time>2024-10-15T11:51:26.000Z</time>
      </trkpt>
      <trkpt lat="45.08857" lon="5.96976">
        <ele>2265</ele>
        <time>2024-10-15T11:51:27.000Z</time>
      </trkpt>
      <trkpt lat="45.08856" lon="5.96977">
        <ele>2264.8000488281</ele>
        <time>2024-10-15T11:51:28.000Z</time>
      </trkpt>
      <trkpt lat="45.08856" lon="5.96978">
        <ele>2264.6000976562</ele>
        <time>2024-10-15T11:51:29.000Z</time>
      </trkpt>
      <trkpt lat="45.08855" lon="5.96979">
        <ele>2264.6000976562</ele>
        <time>2024-10-15T11:51:30.000Z</time>
      </trkpt>
      <trkpt lat="45.08855" lon="5.9698">
        <ele>2264.6000976562</ele>
        <time>2024-10-15T11:51:31.000Z</time>
      </trkpt>
      <trkpt lat="45.08854" lon="5.96981">
        <ele>2264.8000488281</ele>
        <time>2024-10-15T11:51:32.000Z</time>
      </trkpt>
      <trkpt lat="45.08854" lon="5.96982">
        <ele>2264.8000488281</ele>
        <time>2024-10-15T11:51:33.000Z</time>
      </trkpt>
      <trkpt lat="45.08853" lon="5.96983">
        <ele>2264.6000976562</ele>
        <time>2024-10-15T11:51:34.000Z</time>
      </trkpt>
      <trkpt lat="45.08853" lon="5.96984">
        <ele>2264.6000976562</ele>
        <time>2024-10-15T11:51:35.000Z</time>
      </trkpt>
      <trkpt lat="45.08852" lon="5.96985">
        <ele>2264.3999023438</ele>
        <time>2024-10-15T11:51:36.000Z</time>
      </trkpt>
      <trkpt lat="45.08852" lon="5.96986">
        <ele>2264</ele>
        <time>2024-10-15T11:51:37.000Z</time>
      </trkpt>
      <trkpt lat="45.08851" lon="5.96987">
        <ele>2262.6000976562</ele>
        <time>2024-10-15T11:51:38.000Z</time>
      </trkpt>
      <trkpt lat="45.0885" lon="5.96988">
        <ele>2261.3999023438</ele>
        <time>2024-10-15T11:51:39.000Z</time>
      </trkpt>
      <trkpt lat="45.0885" lon="5.96989">
        <ele>2260.1999511719</ele>
        <time>2024-10-15T11:51:40.000Z</time>
      </trkpt>
      <trkpt lat="45.08849" lon="5.9699">
        <ele>2260</ele>
        <time>2024-10-15T11:51:41.000Z</time>
      </trkpt>
      <trkpt lat="45.08848" lon="5.9699">
        <ele>2260</ele>
        <time>2024-10-15T11:51:42.000Z</time>
      </trkpt>
      <trkpt lat="45.08847" lon="5.96991">
        <ele>2260</ele>
        <time>2024-10-15T11:51:43.000Z</time>
      </trkpt>
      <trkpt lat="45.08847" lon="5.96991">
        <ele>2259.8000488281</ele>
        <time>2024-10-15T11:51:44.000Z</time>
      </trkpt>
      <trkpt lat="45.08847" lon="5.96991">
        <ele>2259.8000488281</ele>
        <time>2024-10-15T11:51:45.000Z</time>
      </trkpt>
      <trkpt lat="45.08847" lon="5.96992">
        <ele>2259.8000488281</ele>
        <time>2024-10-15T11:51:46.000Z</time>
      </trkpt>
      <trkpt lat="45.08846" lon="5.96992">
        <ele>2259.6000976562</ele>
        <time>2024-10-15T11:51:47.000Z</time>
      </trkpt>
      <trkpt lat="45.08846" lon="5.96993">
        <ele>2259.3999023438</ele>
        <time>2024-10-15T11:51:48.000Z</time>
      </trkpt>
      <trkpt lat="45.08846" lon="5.96993">
        <ele>2258.3999023438</ele>
        <time>2024-10-15T11:51:49.000Z</time>
      </trkpt>
      <trkpt lat="45.08846" lon="5.96993">
        <ele>2258</ele>
        <time>2024-10-15T11:51:50.000Z</time>
      </trkpt>
      <trkpt lat="45.08846" lon="5.96994">
        <ele>2258</ele>
        <time>2024-10-15T11:51:51.000Z</time>
      </trkpt>
      <trkpt lat="45.08845" lon="5.96994">
        <ele>2258</ele>
        <time>2024-10-15T11:51:52.000Z</time>
      </trkpt>
      <trkpt lat="45.08845" lon="5.96995">
        <ele>2257.1999511719</ele>
        <time>2024-10-15T11:51:53.000Z</time>
      </trkpt>
      <trkpt lat="45.08845" lon="5.96996">
        <ele>2257</ele>
        <time>2024-10-15T11:51:54.000Z</time>
      </trkpt>
      <trkpt lat="45.08844" lon="5.96997">
        <ele>2256.8000488281</ele>
        <time>2024-10-15T11:51:55.000Z</time>
      </trkpt>
      <trkpt lat="45.08843" lon="5.96997">
        <ele>2256.3999023438</ele>
        <time>2024-10-15T11:51:56.000Z</time>
      </trkpt>
      <trkpt lat="45.08843" lon="5.96998">
        <ele>2255.8000488281</ele>
        <time>2024-10-15T11:51:57.000Z</time>
      </trkpt>
      <trkpt lat="45.08842" lon="5.96998">
        <ele>2255.6000976562</ele>
        <time>2024-10-15T11:51:58.000Z</time>
      </trkpt>
      <trkpt lat="45.08841" lon="5.96999">
        <ele>2255.1999511719</ele>
        <time>2024-10-15T11:51:59.000Z</time>
      </trkpt>
      <trkpt lat="45.0884" lon="5.97">
        <ele>2254.8000488281</ele>
        <time>2024-10-15T11:52:00.000Z</time>
      </trkpt>
      <trkpt lat="45.0884" lon="5.97">
        <ele>2254.8000488281</ele>
        <time>2024-10-15T11:52:01.000Z</time>
      </trkpt>
      <trkpt lat="45.08839" lon="5.97001">
        <ele>2254.8000488281</ele>
        <time>2024-10-15T11:52:02.000Z</time>
      </trkpt>
      <trkpt lat="45.08838" lon="5.97002">
        <ele>2255.3999023438</ele>
        <time>2024-10-15T11:52:03.000Z</time>
      </trkpt>
      <trkpt lat="45.08837" lon="5.97002">
        <ele>2256.8000488281</ele>
        <time>2024-10-15T11:52:04.000Z</time>
      </trkpt>
      <trkpt lat="45.08837" lon="5.97003">
        <ele>2257.1999511719</ele>
        <time>2024-10-15T11:52:05.000Z</time>
      </trkpt>
      <trkpt lat="45.08836" lon="5.97003">
        <ele>2257.3999023438</ele>
        <time>2024-10-15T11:52:06.000Z</time>
      </trkpt>
      <trkpt lat="45.08835" lon="5.97004">
        <ele>2257.6000976562</ele>
        <time>2024-10-15T11:52:07.000Z</time>
      </trkpt>
      <trkpt lat="45.08835" lon="5.97005">
        <ele>2257.6000976562</ele>
        <time>2024-10-15T11:52:08.000Z</time>
      </trkpt>
      <trkpt lat="45.08835" lon="5.97006">
        <ele>2257.3999023438</ele>
        <time>2024-10-15T11:52:09.000Z</time>
      </trkpt>
      <trkpt lat="45.08834" lon="5.97006">
        <ele>2257</ele>
        <time>2024-10-15T11:52:10.000Z</time>
      </trkpt>
      <trkpt lat="45.08834" lon="5.97007">
        <ele>2256</ele>
        <time>2024-10-15T11:52:11.000Z</time>
      </trkpt>
      <trkpt lat="45.08834" lon="5.97007">
        <ele>2255.1999511719</ele>
        <time>2024-10-15T11:52:12.000Z</time>
      </trkpt>
      <trkpt lat="45.08833" lon="5.97008">
        <ele>2255</ele>
        <time>2024-10-15T11:52:13.000Z</time>
      </trkpt>
      <trkpt lat="45.08832" lon="5.97009">
        <ele>2254</ele>
        <time>2024-10-15T11:52:14.000Z</time>
      </trkpt>
      <trkpt lat="45.08832" lon="5.9701">
        <ele>2253.3999023438</ele>
        <time>2024-10-15T11:52:15.000Z</time>
      </trkpt>
      <trkpt lat="45.08831" lon="5.9701">
        <ele>2253</ele>
        <time>2024-10-15T11:52:16.000Z</time>
      </trkpt>
      <trkpt lat="45.0883" lon="5.97011">
        <ele>2252.3999023438</ele>
        <time>2024-10-15T11:52:17.000Z</time>
      </trkpt>
      <trkpt lat="45.08829" lon="5.97012">
        <ele>2251.8000488281</ele>
        <time>2024-10-15T11:52:18.000Z</time>
      </trkpt>
      <trkpt lat="45.08828" lon="5.97012">
        <ele>2249</ele>
        <time>2024-10-15T11:52:19.000Z</time>
      </trkpt>
      <trkpt lat="45.08828" lon="5.97013">
        <ele>2248.3999023438</ele>
        <time>2024-10-15T11:52:20.000Z</time>
      </trkpt>
      <trkpt lat="45.08827" lon="5.97014">
        <ele>2248.3999023438</ele>
        <time>2024-10-15T11:52:21.000Z</time>
      </trkpt>
      <trkpt lat="45.08826" lon="5.97014">
        <ele>2248.1999511719</ele>
        <time>2024-10-15T11:52:22.000Z</time>
      </trkpt>
      <trkpt lat="45.08826" lon="5.97015">
        <ele>2248.3999023438</ele>
        <time>2024-10-15T11:52:23.000Z</time>
      </trkpt>
      <trkpt lat="45.08825" lon="5.97015">
        <ele>2248.8000488281</ele>
        <time>2024-10-15T11:52:24.000Z</time>
      </trkpt>
      <trkpt lat="45.08825" lon="5.97016">
        <ele>2249</ele>
        <time>2024-10-15T11:52:25.000Z</time>
      </trkpt>
      <trkpt lat="45.08824" lon="5.97016">
        <ele>2249.6000976562</ele>
        <time>2024-10-15T11:52:26.000Z</time>
      </trkpt>
      <trkpt lat="45.08824" lon="5.97017">
        <ele>2249.6000976562</ele>
        <time>2024-10-15T11:52:27.000Z</time>
      </trkpt>
      <trkpt lat="45.08823" lon="5.97018">
        <ele>2249.6000976562</ele>
        <time>2024-10-15T11:52:28.000Z</time>
      </trkpt>
      <trkpt lat="45.08823" lon="5.97018">
        <ele>2249.3999023438</ele>
        <time>2024-10-15T11:52:29.000Z</time>
      </trkpt>
      <trkpt lat="45.08822" lon="5.97019">
        <ele>2249.3999023438</ele>
        <time>2024-10-15T11:52:30.000Z</time>
      </trkpt>
      <trkpt lat="45.08821" lon="5.9702">
        <ele>2248.8000488281</ele>
        <time>2024-10-15T11:52:31.000Z</time>
      </trkpt>
      <trkpt lat="45.0882" lon="5.97021">
        <ele>2248.3999023438</ele>
        <time>2024-10-15T11:52:32.000Z</time>
      </trkpt>
      <trkpt lat="45.0882" lon="5.97021">
        <ele>2247.8000488281</ele>
        <time>2024-10-15T11:52:33.000Z</time>
      </trkpt>
      <trkpt lat="45.08819" lon="5.97022">
        <ele>2247.6000976562</ele>
        <time>2024-10-15T11:52:34.000Z</time>
      </trkpt>
      <trkpt lat="45.08819" lon="5.97023">
        <ele>2247.3999023438</ele>
        <time>2024-10-15T11:52:35.000Z</time>
      </trkpt>
      <trkpt lat="45.08819" lon="5.97023">
        <ele>2247.1999511719</ele>
        <time>2024-10-15T11:52:36.000Z</time>
      </trkpt>
      <trkpt lat="45.08818" lon="5.97024">
        <ele>2247</ele>
        <time>2024-10-15T11:52:37.000Z</time>
      </trkpt>
      <trkpt lat="45.08818" lon="5.97026">
        <ele>2246.1999511719</ele>
        <time>2024-10-15T11:52:38.000Z</time>
      </trkpt>
      <trkpt lat="45.08816" lon="5.97027">
        <ele>2245.8000488281</ele>
        <time>2024-10-15T11:52:39.000Z</time>
      </trkpt>
      <trkpt lat="45.08816" lon="5.97028">
        <ele>2245.6000976562</ele>
        <time>2024-10-15T11:52:40.000Z</time>
      </trkpt>
      <trkpt lat="45.08816" lon="5.97027">
        <ele>2245.3999023438</ele>
        <time>2024-10-15T11:52:41.000Z</time>
      </trkpt>
      <trkpt lat="45.08815" lon="5.97028">
        <ele>2245.1999511719</ele>
        <time>2024-10-15T11:52:42.000Z</time>
      </trkpt>
      <trkpt lat="45.08815" lon="5.97029">
        <ele>2245</ele>
        <time>2024-10-15T11:52:43.000Z</time>
      </trkpt>
      <trkpt lat="45.08814" lon="5.97029">
        <ele>2244.8000488281</ele>
        <time>2024-10-15T11:52:44.000Z</time>
      </trkpt>
      <trkpt lat="45.08813" lon="5.9703">
        <ele>2244.8000488281</ele>
        <time>2024-10-15T11:52:45.000Z</time>
      </trkpt>
      <trkpt lat="45.08813" lon="5.97031">
        <ele>2244.8000488281</ele>
        <time>2024-10-15T11:52:46.000Z</time>
      </trkpt>
      <trkpt lat="45.08812" lon="5.97031">
        <ele>2244.8000488281</ele>
        <time>2024-10-15T11:52:47.000Z</time>
      </trkpt>
      <trkpt lat="45.08812" lon="5.97032">
        <ele>2244.6000976562</ele>
        <time>2024-10-15T11:52:48.000Z</time>
      </trkpt>
      <trkpt lat="45.08812" lon="5.97033">
        <ele>2244.8000488281</ele>
        <time>2024-10-15T11:52:49.000Z</time>
      </trkpt>
      <trkpt lat="45.08811" lon="5.97033">
        <ele>2245.1999511719</ele>
        <time>2024-10-15T11:52:50.000Z</time>
      </trkpt>
      <trkpt lat="45.08811" lon="5.97034">
        <ele>2245.1999511719</ele>
        <time>2024-10-15T11:52:51.000Z</time>
      </trkpt>
      <trkpt lat="45.0881" lon="5.97035">
        <ele>2244.8000488281</ele>
        <time>2024-10-15T11:52:52.000Z</time>
      </trkpt>
      <trkpt lat="45.0881" lon="5.97036">
        <ele>2244</ele>
        <time>2024-10-15T11:52:53.000Z</time>
      </trkpt>
      <trkpt lat="45.08809" lon="5.97036">
        <ele>2243.3999023438</ele>
        <time>2024-10-15T11:52:54.000Z</time>
      </trkpt>
      <trkpt lat="45.08809" lon="5.97037">
        <ele>2242.8000488281</ele>
        <time>2024-10-15T11:52:55.000Z</time>
      </trkpt>
      <trkpt lat="45.08808" lon="5.97037">
        <ele>2242.6000976562</ele>
        <time>2024-10-15T11:52:56.000Z</time>
      </trkpt>
      <trkpt lat="45.08808" lon="5.97038">
        <ele>2242.3999023438</ele>
        <time>2024-10-15T11:52:57.000Z</time>
      </trkpt>
      <trkpt lat="45.08808" lon="5.97038">
        <ele>2242</ele>
        <time>2024-10-15T11:52:58.000Z</time>
      </trkpt>
      <trkpt lat="45.08808" lon="5.97039">
        <ele>2241.6000976562</ele>
        <time>2024-10-15T11:52:59.000Z</time>
      </trkpt>
      <trkpt lat="45.08807" lon="5.9704">
        <ele>2241.3999023438</ele>
        <time>2024-10-15T11:53:00.000Z</time>
      </trkpt>
      <trkpt lat="45.08807" lon="5.9704">
        <ele>2240.8000488281</ele>
        <time>2024-10-15T11:53:01.000Z</time>
      </trkpt>
      <trkpt lat="45.08806" lon="5.97041">
        <ele>2240.6000976562</ele>
        <time>2024-10-15T11:53:02.000Z</time>
      </trkpt>
      <trkpt lat="45.08806" lon="5.97042">
        <ele>2240.3999023438</ele>
        <time>2024-10-15T11:53:03.000Z</time>
      </trkpt>
      <trkpt lat="45.08805" lon="5.97043">
        <ele>2240.1999511719</ele>
        <time>2024-10-15T11:53:04.000Z</time>
      </trkpt>
      <trkpt lat="45.08805" lon="5.97043">
        <ele>2240</ele>
        <time>2024-10-15T11:53:05.000Z</time>
      </trkpt>
      <trkpt lat="45.08805" lon="5.97044">
        <ele>2239.6000976562</ele>
        <time>2024-10-15T11:53:06.000Z</time>
      </trkpt>
      <trkpt lat="45.08804" lon="5.97045">
        <ele>2238.6000976562</ele>
        <time>2024-10-15T11:53:07.000Z</time>
      </trkpt>
      <trkpt lat="45.08804" lon="5.97045">
        <ele>2237.6000976562</ele>
        <time>2024-10-15T11:53:08.000Z</time>
      </trkpt>
      <trkpt lat="45.08804" lon="5.97046">
        <ele>2237.3999023438</ele>
        <time>2024-10-15T11:53:09.000Z</time>
      </trkpt>
      <trkpt lat="45.08803" lon="5.97047">
        <ele>2237.1999511719</ele>
        <time>2024-10-15T11:53:10.000Z</time>
      </trkpt>
      <trkpt lat="45.08803" lon="5.97047">
        <ele>2237.1999511719</ele>
        <time>2024-10-15T11:53:11.000Z</time>
      </trkpt>
      <trkpt lat="45.08803" lon="5.97048">
        <ele>2237</ele>
        <time>2024-10-15T11:53:12.000Z</time>
      </trkpt>
      <trkpt lat="45.08802" lon="5.97049">
        <ele>2236.8000488281</ele>
        <time>2024-10-15T11:53:13.000Z</time>
      </trkpt>
      <trkpt lat="45.08801" lon="5.9705">
        <ele>2236.3999023438</ele>
        <time>2024-10-15T11:53:14.000Z</time>
      </trkpt>
      <trkpt lat="45.08801" lon="5.97051">
        <ele>2235.3999023438</ele>
        <time>2024-10-15T11:53:15.000Z</time>
      </trkpt>
      <trkpt lat="45.088" lon="5.97051">
        <ele>2235.1999511719</ele>
        <time>2024-10-15T11:53:16.000Z</time>
      </trkpt>
      <trkpt lat="45.08799" lon="5.97052">
        <ele>2235</ele>
        <time>2024-10-15T11:53:17.000Z</time>
      </trkpt>
      <trkpt lat="45.08799" lon="5.97053">
        <ele>2235</ele>
        <time>2024-10-15T11:53:18.000Z</time>
      </trkpt>
      <trkpt lat="45.08798" lon="5.97053">
        <ele>2234.8000488281</ele>
        <time>2024-10-15T11:53:19.000Z</time>
      </trkpt>
      <trkpt lat="45.08797" lon="5.97053">
        <ele>2234.1999511719</ele>
        <time>2024-10-15T11:53:20.000Z</time>
      </trkpt>
      <trkpt lat="45.08796" lon="5.97054">
        <ele>2233.3999023438</ele>
        <time>2024-10-15T11:53:21.000Z</time>
      </trkpt>
      <trkpt lat="45.08795" lon="5.97055">
        <ele>2232.8000488281</ele>
        <time>2024-10-15T11:53:22.000Z</time>
      </trkpt>
      <trkpt lat="45.08794" lon="5.97055">
        <ele>2232.1999511719</ele>
        <time>2024-10-15T11:53:23.000Z</time>
      </trkpt>
      <trkpt lat="45.08794" lon="5.97056">
        <ele>2232.1999511719</ele>
        <time>2024-10-15T11:53:24.000Z</time>
      </trkpt>
      <trkpt lat="45.08793" lon="5.97057">
        <ele>2231.8000488281</ele>
        <time>2024-10-15T11:53:25.000Z</time>
      </trkpt>
      <trkpt lat="45.08792" lon="5.97058">
        <ele>2231.6000976562</ele>
        <time>2024-10-15T11:53:26.000Z</time>
      </trkpt>
      <trkpt lat="45.08791" lon="5.97058">
        <ele>2231</ele>
        <time>2024-10-15T11:53:27.000Z</time>
      </trkpt>
      <trkpt lat="45.08791" lon="5.97059">
        <ele>2230.3999023438</ele>
        <time>2024-10-15T11:53:28.000Z</time>
      </trkpt>
      <trkpt lat="45.08791" lon="5.9706">
        <ele>2230.1999511719</ele>
        <time>2024-10-15T11:53:29.000Z</time>
      </trkpt>
      <trkpt lat="45.08792" lon="5.9706">
        <ele>2230</ele>
        <time>2024-10-15T11:53:30.000Z</time>
      </trkpt>
      <trkpt lat="45.08792" lon="5.97061">
        <ele>2229.8000488281</ele>
        <time>2024-10-15T11:53:31.000Z</time>
      </trkpt>
      <trkpt lat="45.08792" lon="5.97062">
        <ele>2229.6000976562</ele>
        <time>2024-10-15T11:53:32.000Z</time>
      </trkpt>
      <trkpt lat="45.08791" lon="5.97063">
        <ele>2229.6000976562</ele>
        <time>2024-10-15T11:53:33.000Z</time>
      </trkpt>
      <trkpt lat="45.08791" lon="5.97064">
        <ele>2229.1999511719</ele>
        <time>2024-10-15T11:53:34.000Z</time>
      </trkpt>
      <trkpt lat="45.0879" lon="5.97065">
        <ele>2228.1999511719</ele>
        <time>2024-10-15T11:53:35.000Z</time>
      </trkpt>
      <trkpt lat="45.0879" lon="5.97066">
        <ele>2227.1999511719</ele>
        <time>2024-10-15T11:53:36.000Z</time>
      </trkpt>
      <trkpt lat="45.0879" lon="5.97066">
        <ele>2226.1999511719</ele>
        <time>2024-10-15T11:53:37.000Z</time>
      </trkpt>
      <trkpt lat="45.08789" lon="5.97067">
        <ele>2226</ele>
        <time>2024-10-15T11:53:38.000Z</time>
      </trkpt>
      <trkpt lat="45.08788" lon="5.97067">
        <ele>2226</ele>
        <time>2024-10-15T11:53:39.000Z</time>
      </trkpt>
      <trkpt lat="45.08787" lon="5.97067">
        <ele>2225.8000488281</ele>
        <time>2024-10-15T11:53:40.000Z</time>
      </trkpt>
      <trkpt lat="45.08786" lon="5.97067">
        <ele>2225.8000488281</ele>
        <time>2024-10-15T11:53:41.000Z</time>
      </trkpt>
      <trkpt lat="45.08786" lon="5.97068">
        <ele>2225.3999023438</ele>
        <time>2024-10-15T11:53:42.000Z</time>
      </trkpt>
      <trkpt lat="45.08786" lon="5.97069">
        <ele>2225.1999511719</ele>
        <time>2024-10-15T11:53:43.000Z</time>
      </trkpt>
      <trkpt lat="45.08785" lon="5.9707">
        <ele>2224.8000488281</ele>
        <time>2024-10-15T11:53:44.000Z</time>
      </trkpt>
      <trkpt lat="45.08784" lon="5.9707">
        <ele>2224.3999023438</ele>
        <time>2024-10-15T11:53:45.000Z</time>
      </trkpt>
      <trkpt lat="45.08783" lon="5.97071">
        <ele>2224.1999511719</ele>
        <time>2024-10-15T11:53:46.000Z</time>
      </trkpt>
      <trkpt lat="45.08783" lon="5.97072">
        <ele>2223</ele>
        <time>2024-10-15T11:53:47.000Z</time>
      </trkpt>
      <trkpt lat="45.08782" lon="5.97072">
        <ele>2222.8000488281</ele>
        <time>2024-10-15T11:53:48.000Z</time>
      </trkpt>
      <trkpt lat="45.08782" lon="5.97073">
        <ele>2222.6000976562</ele>
        <time>2024-10-15T11:53:49.000Z</time>
      </trkpt>
      <trkpt lat="45.08781" lon="5.97074">
        <ele>2222.3999023438</ele>
        <time>2024-10-15T11:53:50.000Z</time>
      </trkpt>
      <trkpt lat="45.08781" lon="5.97075">
        <ele>2222.1999511719</ele>
        <time>2024-10-15T11:53:51.000Z</time>
      </trkpt>
      <trkpt lat="45.08781" lon="5.97076">
        <ele>2220.8000488281</ele>
        <time>2024-10-15T11:53:52.000Z</time>
      </trkpt>
      <trkpt lat="45.0878" lon="5.97077">
        <ele>2220.6000976562</ele>
        <time>2024-10-15T11:53:53.000Z</time>
      </trkpt>
      <trkpt lat="45.0878" lon="5.97078">
        <ele>2220.6000976562</ele>
        <time>2024-10-15T11:53:54.000Z</time>
      </trkpt>
      <trkpt lat="45.08779" lon="5.97078">
        <ele>2220.6000976562</ele>
        <time>2024-10-15T11:53:55.000Z</time>
      </trkpt>
      <trkpt lat="45.08779" lon="5.97078">
        <ele>2220.3999023438</ele>
        <time>2024-10-15T11:53:56.000Z</time>
      </trkpt>
      <trkpt lat="45.08778" lon="5.97078">
        <ele>2220.3999023438</ele>
        <time>2024-10-15T11:53:57.000Z</time>
      </trkpt>
      <trkpt lat="45.08778" lon="5.97078">
        <ele>2220.3999023438</ele>
        <time>2024-10-15T11:53:58.000Z</time>
      </trkpt>
      <trkpt lat="45.08778" lon="5.97079">
        <ele>2220.1999511719</ele>
        <time>2024-10-15T11:53:59.000Z</time>
      </trkpt>
      <trkpt lat="45.08777" lon="5.9708">
        <ele>2220.3999023438</ele>
        <time>2024-10-15T11:54:00.000Z</time>
      </trkpt>
      <trkpt lat="45.08776" lon="5.97081">
        <ele>2220.1999511719</ele>
        <time>2024-10-15T11:54:01.000Z</time>
      </trkpt>
      <trkpt lat="45.08775" lon="5.97082">
        <ele>2220.1999511719</ele>
        <time>2024-10-15T11:54:02.000Z</time>
      </trkpt>
      <trkpt lat="45.08774" lon="5.97082">
        <ele>2220.1999511719</ele>
        <time>2024-10-15T11:54:03.000Z</time>
      </trkpt>
      <trkpt lat="45.08773" lon="5.97083">
        <ele>2220</ele>
        <time>2024-10-15T11:54:04.000Z</time>
      </trkpt>
      <trkpt lat="45.08772" lon="5.97083">
        <ele>2220</ele>
        <time>2024-10-15T11:54:05.000Z</time>
      </trkpt>
      <trkpt lat="45.08772" lon="5.97084">
        <ele>2220</ele>
        <time>2024-10-15T11:54:06.000Z</time>
      </trkpt>
      <trkpt lat="45.08772" lon="5.97085">
        <ele>2220</ele>
        <time>2024-10-15T11:54:07.000Z</time>
      </trkpt>
      <trkpt lat="45.08771" lon="5.97086">
        <ele>2219.6000976562</ele>
        <time>2024-10-15T11:54:08.000Z</time>
      </trkpt>
      <trkpt lat="45.0877" lon="5.97086">
        <ele>2219.6000976562</ele>
        <time>2024-10-15T11:54:09.000Z</time>
      </trkpt>
      <trkpt lat="45.08769" lon="5.97086">
        <ele>2219.3999023438</ele>
        <time>2024-10-15T11:54:10.000Z</time>
      </trkpt>
      <trkpt lat="45.08769" lon="5.97087">
        <ele>2219.3999023438</ele>
        <time>2024-10-15T11:54:11.000Z</time>
      </trkpt>
      <trkpt lat="45.08768" lon="5.97088">
        <ele>2219</ele>
        <time>2024-10-15T11:54:12.000Z</time>
      </trkpt>
      <trkpt lat="45.08767" lon="5.97089">
        <ele>2218.8000488281</ele>
        <time>2024-10-15T11:54:13.000Z</time>
      </trkpt>
      <trkpt lat="45.08767" lon="5.9709">
        <ele>2218.6000976562</ele>
        <time>2024-10-15T11:54:14.000Z</time>
      </trkpt>
      <trkpt lat="45.08766" lon="5.9709">
        <ele>2218.1999511719</ele>
        <time>2024-10-15T11:54:15.000Z</time>
      </trkpt>
      <trkpt lat="45.08765" lon="5.97091">
        <ele>2217.8000488281</ele>
        <time>2024-10-15T11:54:16.000Z</time>
      </trkpt>
      <trkpt lat="45.08764" lon="5.97091">
        <ele>2217.8000488281</ele>
        <time>2024-10-15T11:54:17.000Z</time>
      </trkpt>
      <trkpt lat="45.08764" lon="5.97092">
        <ele>2217.3999023438</ele>
        <time>2024-10-15T11:54:18.000Z</time>
      </trkpt>
      <trkpt lat="45.08763" lon="5.97092">
        <ele>2217.1999511719</ele>
        <time>2024-10-15T11:54:19.000Z</time>
      </trkpt>
      <trkpt lat="45.08762" lon="5.97093">
        <ele>2217.1999511719</ele>
        <time>2024-10-15T11:54:20.000Z</time>
      </trkpt>
      <trkpt lat="45.08762" lon="5.97094">
        <ele>2217.3999023438</ele>
        <time>2024-10-15T11:54:21.000Z</time>
      </trkpt>
      <trkpt lat="45.08761" lon="5.97095">
        <ele>2217.1999511719</ele>
        <time>2024-10-15T11:54:22.000Z</time>
      </trkpt>
      <trkpt lat="45.0876" lon="5.97096">
        <ele>2217.1999511719</ele>
        <time>2024-10-15T11:54:23.000Z</time>
      </trkpt>
      <trkpt lat="45.0876" lon="5.97097">
        <ele>2217.1999511719</ele>
        <time>2024-10-15T11:54:24.000Z</time>
      </trkpt>
      <trkpt lat="45.08759" lon="5.97098">
        <ele>2217.1999511719</ele>
        <time>2024-10-15T11:54:25.000Z</time>
      </trkpt>
      <trkpt lat="45.08758" lon="5.97099">
        <ele>2217.3999023438</ele>
        <time>2024-10-15T11:54:26.000Z</time>
      </trkpt>
      <trkpt lat="45.08757" lon="5.97099">
        <ele>2217.3999023438</ele>
        <time>2024-10-15T11:54:27.000Z</time>
      </trkpt>
      <trkpt lat="45.08757" lon="5.971">
        <ele>2217.3999023438</ele>
        <time>2024-10-15T11:54:28.000Z</time>
      </trkpt>
      <trkpt lat="45.08756" lon="5.971">
        <ele>2217.3999023438</ele>
        <time>2024-10-15T11:54:29.000Z</time>
      </trkpt>
      <trkpt lat="45.08756" lon="5.97101">
        <ele>2217.6000976562</ele>
        <time>2024-10-15T11:54:30.000Z</time>
      </trkpt>
      <trkpt lat="45.08756" lon="5.97101">
        <ele>2217.6000976562</ele>
        <time>2024-10-15T11:54:31.000Z</time>
      </trkpt>
      <trkpt lat="45.08756" lon="5.97102">
        <ele>2217.6000976562</ele>
        <time>2024-10-15T11:54:32.000Z</time>
      </trkpt>
      <trkpt lat="45.08755" lon="5.97103">
        <ele>2217.3999023438</ele>
        <time>2024-10-15T11:54:33.000Z</time>
      </trkpt>
      <trkpt lat="45.08754" lon="5.97104">
        <ele>2217.1999511719</ele>
        <time>2024-10-15T11:54:34.000Z</time>
      </trkpt>
      <trkpt lat="45.08753" lon="5.97105">
        <ele>2217</ele>
        <time>2024-10-15T11:54:35.000Z</time>
      </trkpt>
      <trkpt lat="45.08753" lon="5.97106">
        <ele>2216.3999023438</ele>
        <time>2024-10-15T11:54:36.000Z</time>
      </trkpt>
      <trkpt lat="45.08752" lon="5.97107">
        <ele>2216.1999511719</ele>
        <time>2024-10-15T11:54:37.000Z</time>
      </trkpt>
      <trkpt lat="45.08751" lon="5.97107">
        <ele>2216.1999511719</ele>
        <time>2024-10-15T11:54:38.000Z</time>
      </trkpt>
      <trkpt lat="45.0875" lon="5.97108">
        <ele>2216</ele>
        <time>2024-10-15T11:54:39.000Z</time>
      </trkpt>
      <trkpt lat="45.0875" lon="5.97109">
        <ele>2216</ele>
        <time>2024-10-15T11:54:40.000Z</time>
      </trkpt>
      <trkpt lat="45.08749" lon="5.9711">
        <ele>2216.1999511719</ele>
        <time>2024-10-15T11:54:41.000Z</time>
      </trkpt>
      <trkpt lat="45.08749" lon="5.97111">
        <ele>2216.3999023438</ele>
        <time>2024-10-15T11:54:42.000Z</time>
      </trkpt>
      <trkpt lat="45.08748" lon="5.97112">
        <ele>2216.3999023438</ele>
        <time>2024-10-15T11:54:43.000Z</time>
      </trkpt>
      <trkpt lat="45.08747" lon="5.97113">
        <ele>2216.3999023438</ele>
        <time>2024-10-15T11:54:44.000Z</time>
      </trkpt>
      <trkpt lat="45.08747" lon="5.97114">
        <ele>2216.1999511719</ele>
        <time>2024-10-15T11:54:45.000Z</time>
      </trkpt>
      <trkpt lat="45.08746" lon="5.97114">
        <ele>2215.8000488281</ele>
        <time>2024-10-15T11:54:46.000Z</time>
      </trkpt>
      <trkpt lat="45.08746" lon="5.97114">
        <ele>2215.3999023438</ele>
        <time>2024-10-15T11:54:47.000Z</time>
      </trkpt>
      <trkpt lat="45.08746" lon="5.97115">
        <ele>2215.1999511719</ele>
        <time>2024-10-15T11:54:48.000Z</time>
      </trkpt>
      <trkpt lat="45.08745" lon="5.97115">
        <ele>2215</ele>
        <time>2024-10-15T11:54:49.000Z</time>
      </trkpt>
      <trkpt lat="45.08744" lon="5.97116">
        <ele>2214.8000488281</ele>
        <time>2024-10-15T11:54:50.000Z</time>
      </trkpt>
      <trkpt lat="45.08744" lon="5.97116">
        <ele>2213.8000488281</ele>
        <time>2024-10-15T11:54:51.000Z</time>
      </trkpt>
      <trkpt lat="45.08744" lon="5.97116">
        <ele>2213.8000488281</ele>
        <time>2024-10-15T11:54:52.000Z</time>
      </trkpt>
      <trkpt lat="45.08744" lon="5.97116">
        <ele>2213.8000488281</ele>
        <time>2024-10-15T11:54:53.000Z</time>
      </trkpt>
      <trkpt lat="45.08744" lon="5.97116">
        <ele>2213.8000488281</ele>
        <time>2024-10-15T11:54:54.000Z</time>
      </trkpt>
      <trkpt lat="45.08744" lon="5.97116">
        <ele>2213.6000976562</ele>
        <time>2024-10-15T11:54:55.000Z</time>
      </trkpt>
      <trkpt lat="45.08744" lon="5.97117">
        <ele>2213.6000976562</ele>
        <time>2024-10-15T11:54:56.000Z</time>
      </trkpt>
      <trkpt lat="45.08744" lon="5.97116">
        <ele>2213.6000976562</ele>
        <time>2024-10-15T11:54:57.000Z</time>
      </trkpt>
      <trkpt lat="45.08743" lon="5.97116">
        <ele>2213.3999023438</ele>
        <time>2024-10-15T11:54:58.000Z</time>
      </trkpt>
      <trkpt lat="45.08743" lon="5.97116">
        <ele>2213.1999511719</ele>
        <time>2024-10-15T11:54:59.000Z</time>
      </trkpt>
      <trkpt lat="45.08742" lon="5.97116">
        <ele>2213</ele>
        <time>2024-10-15T11:55:00.000Z</time>
      </trkpt>
      <trkpt lat="45.0874" lon="5.97116">
        <ele>2213</ele>
        <time>2024-10-15T11:55:01.000Z</time>
      </trkpt>
      <trkpt lat="45.08739" lon="5.97116">
        <ele>2213</ele>
        <time>2024-10-15T11:55:02.000Z</time>
      </trkpt>
      <trkpt lat="45.08738" lon="5.97115">
        <ele>2213</ele>
        <time>2024-10-15T11:55:03.000Z</time>
      </trkpt>
      <trkpt lat="45.08737" lon="5.97114">
        <ele>2213</ele>
        <time>2024-10-15T11:55:04.000Z</time>
      </trkpt>
      <trkpt lat="45.08736" lon="5.97114">
        <ele>2213.6000976562</ele>
        <time>2024-10-15T11:55:05.000Z</time>
      </trkpt>
      <trkpt lat="45.08735" lon="5.97114">
        <ele>2214</ele>
        <time>2024-10-15T11:55:06.000Z</time>
      </trkpt>
      <trkpt lat="45.08735" lon="5.97113">
        <ele>2214.1999511719</ele>
        <time>2024-10-15T11:55:07.000Z</time>
      </trkpt>
      <trkpt lat="45.08734" lon="5.97113">
        <ele>2214.3999023438</ele>
        <time>2024-10-15T11:55:08.000Z</time>
      </trkpt>
      <trkpt lat="45.08733" lon="5.97113">
        <ele>2214.6000976562</ele>
        <time>2024-10-15T11:55:09.000Z</time>
      </trkpt>
      <trkpt lat="45.08732" lon="5.97112">
        <ele>2214.8000488281</ele>
        <time>2024-10-15T11:55:10.000Z</time>
      </trkpt>
      <trkpt lat="45.08732" lon="5.97112">
        <ele>2214.8000488281</ele>
        <time>2024-10-15T11:55:11.000Z</time>
      </trkpt>
      <trkpt lat="45.08732" lon="5.97111">
        <ele>2214.8000488281</ele>
        <time>2024-10-15T11:55:12.000Z</time>
      </trkpt>
      <trkpt lat="45.08731" lon="5.97111">
        <ele>2214.8000488281</ele>
        <time>2024-10-15T11:55:13.000Z</time>
      </trkpt>
      <trkpt lat="45.0873" lon="5.9711">
        <ele>2215.1999511719</ele>
        <time>2024-10-15T11:55:14.000Z</time>
      </trkpt>
      <trkpt lat="45.0873" lon="5.97109">
        <ele>2215.8000488281</ele>
        <time>2024-10-15T11:55:15.000Z</time>
      </trkpt>
      <trkpt lat="45.08729" lon="5.97109">
        <ele>2215.8000488281</ele>
        <time>2024-10-15T11:55:16.000Z</time>
      </trkpt>
      <trkpt lat="45.08728" lon="5.97109">
        <ele>2215.8000488281</ele>
        <time>2024-10-15T11:55:17.000Z</time>
      </trkpt>
      <trkpt lat="45.08728" lon="5.97108">
        <ele>2215.8000488281</ele>
        <time>2024-10-15T11:55:18.000Z</time>
      </trkpt>
      <trkpt lat="45.08727" lon="5.97108">
        <ele>2215.6000976562</ele>
        <time>2024-10-15T11:55:19.000Z</time>
      </trkpt>
      <trkpt lat="45.08726" lon="5.97108">
        <ele>2215.6000976562</ele>
        <time>2024-10-15T11:55:20.000Z</time>
      </trkpt>
      <trkpt lat="45.08725" lon="5.97109">
        <ele>2215.6000976562</ele>
        <time>2024-10-15T11:55:21.000Z</time>
      </trkpt>
      <trkpt lat="45.08724" lon="5.97109">
        <ele>2215.6000976562</ele>
        <time>2024-10-15T11:55:22.000Z</time>
      </trkpt>
      <trkpt lat="45.08723" lon="5.97109">
        <ele>2215.6000976562</ele>
        <time>2024-10-15T11:55:23.000Z</time>
      </trkpt>
      <trkpt lat="45.08722" lon="5.97109">
        <ele>2215.6000976562</ele>
        <time>2024-10-15T11:55:24.000Z</time>
      </trkpt>
      <trkpt lat="45.08721" lon="5.9711">
        <ele>2215.6000976562</ele>
        <time>2024-10-15T11:55:25.000Z</time>
      </trkpt>
      <trkpt lat="45.0872" lon="5.97109">
        <ele>2215.8000488281</ele>
        <time>2024-10-15T11:55:26.000Z</time>
      </trkpt>
      <trkpt lat="45.08719" lon="5.9711">
        <ele>2215.8000488281</ele>
        <time>2024-10-15T11:55:27.000Z</time>
      </trkpt>
      <trkpt lat="45.08719" lon="5.9711">
        <ele>2215.8000488281</ele>
        <time>2024-10-15T11:55:28.000Z</time>
      </trkpt>
      <trkpt lat="45.08718" lon="5.97111">
        <ele>2215.8000488281</ele>
        <time>2024-10-15T11:55:29.000Z</time>
      </trkpt>
      <trkpt lat="45.08717" lon="5.97111">
        <ele>2215.8000488281</ele>
        <time>2024-10-15T11:55:30.000Z</time>
      </trkpt>
      <trkpt lat="45.08716" lon="5.97112">
        <ele>2215.8000488281</ele>
        <time>2024-10-15T11:55:31.000Z</time>
      </trkpt>
      <trkpt lat="45.08716" lon="5.97112">
        <ele>2215.8000488281</ele>
        <time>2024-10-15T11:55:32.000Z</time>
      </trkpt>
      <trkpt lat="45.08715" lon="5.97113">
        <ele>2215.6000976562</ele>
        <time>2024-10-15T11:55:33.000Z</time>
      </trkpt>
      <trkpt lat="45.08714" lon="5.97113">
        <ele>2215.6000976562</ele>
        <time>2024-10-15T11:55:34.000Z</time>
      </trkpt>
      <trkpt lat="45.08713" lon="5.97113">
        <ele>2215.3999023438</ele>
        <time>2024-10-15T11:55:35.000Z</time>
      </trkpt>
      <trkpt lat="45.08712" lon="5.97113">
        <ele>2215.1999511719</ele>
        <time>2024-10-15T11:55:36.000Z</time>
      </trkpt>
      <trkpt lat="45.08712" lon="5.97113">
        <ele>2215.1999511719</ele>
        <time>2024-10-15T11:55:37.000Z</time>
      </trkpt>
      <trkpt lat="45.0871" lon="5.97113">
        <ele>2215</ele>
        <time>2024-10-15T11:55:38.000Z</time>
      </trkpt>
      <trkpt lat="45.0871" lon="5.97113">
        <ele>2215</ele>
        <time>2024-10-15T11:55:39.000Z</time>
      </trkpt>
      <trkpt lat="45.08709" lon="5.97114">
        <ele>2215.1999511719</ele>
        <time>2024-10-15T11:55:40.000Z</time>
      </trkpt>
      <trkpt lat="45.08708" lon="5.97114">
        <ele>2215.1999511719</ele>
        <time>2024-10-15T11:55:41.000Z</time>
      </trkpt>
      <trkpt lat="45.08707" lon="5.97114">
        <ele>2215.6000976562</ele>
        <time>2024-10-15T11:55:42.000Z</time>
      </trkpt>
      <trkpt lat="45.08707" lon="5.97115">
        <ele>2215.8000488281</ele>
        <time>2024-10-15T11:55:43.000Z</time>
      </trkpt>
      <trkpt lat="45.08705" lon="5.97115">
        <ele>2216.1999511719</ele>
        <time>2024-10-15T11:55:44.000Z</time>
      </trkpt>
      <trkpt lat="45.08705" lon="5.97115">
        <ele>2216.3999023438</ele>
        <time>2024-10-15T11:55:45.000Z</time>
      </trkpt>
      <trkpt lat="45.08704" lon="5.97116">
        <ele>2217</ele>
        <time>2024-10-15T11:55:46.000Z</time>
      </trkpt>
      <trkpt lat="45.08703" lon="5.97116">
        <ele>2217.6000976562</ele>
        <time>2024-10-15T11:55:47.000Z</time>
      </trkpt>
      <trkpt lat="45.08703" lon="5.97116">
        <ele>2217.6000976562</ele>
        <time>2024-10-15T11:55:48.000Z</time>
      </trkpt>
      <trkpt lat="45.08702" lon="5.97117">
        <ele>2217.6000976562</ele>
        <time>2024-10-15T11:55:49.000Z</time>
      </trkpt>
      <trkpt lat="45.08702" lon="5.97117">
        <ele>2217.6000976562</ele>
        <time>2024-10-15T11:55:50.000Z</time>
      </trkpt>
      <trkpt lat="45.08701" lon="5.97117">
        <ele>2216.6000976562</ele>
        <time>2024-10-15T11:55:51.000Z</time>
      </trkpt>
      <trkpt lat="45.08701" lon="5.97117">
        <ele>2216.1999511719</ele>
        <time>2024-10-15T11:55:52.000Z</time>
      </trkpt>
      <trkpt lat="45.08701" lon="5.97117">
        <ele>2216</ele>
        <time>2024-10-15T11:55:53.000Z</time>
      </trkpt>
      <trkpt lat="45.08701" lon="5.97117">
        <ele>2215.8000488281</ele>
        <time>2024-10-15T11:55:54.000Z</time>
      </trkpt>
      <trkpt lat="45.08701" lon="5.97118">
        <ele>2215.6000976562</ele>
        <time>2024-10-15T11:55:55.000Z</time>
      </trkpt>
      <trkpt lat="45.08701" lon="5.97118">
        <ele>2215.3999023438</ele>
        <time>2024-10-15T11:55:56.000Z</time>
      </trkpt>
      <trkpt lat="45.08701" lon="5.97118">
        <ele>2215.1999511719</ele>
        <time>2024-10-15T11:55:57.000Z</time>
      </trkpt>
      <trkpt lat="45.08701" lon="5.97118">
        <ele>2215.1999511719</ele>
        <time>2024-10-15T11:55:58.000Z</time>
      </trkpt>
      <trkpt lat="45.08701" lon="5.97118">
        <ele>2214</ele>
        <time>2024-10-15T11:55:59.000Z</time>
      </trkpt>
      <trkpt lat="45.08701" lon="5.97118">
        <ele>2213.8000488281</ele>
        <time>2024-10-15T11:56:00.000Z</time>
      </trkpt>
      <trkpt lat="45.08701" lon="5.97118">
        <ele>2213.8000488281</ele>
        <time>2024-10-15T11:56:01.000Z</time>
      </trkpt>
      <trkpt lat="45.08701" lon="5.97118">
        <ele>2213.6000976562</ele>
        <time>2024-10-15T11:56:02.000Z</time>
      </trkpt>
      <trkpt lat="45.08701" lon="5.97118">
        <ele>2213.6000976562</ele>
        <time>2024-10-15T11:56:03.000Z</time>
      </trkpt>
      <trkpt lat="45.08701" lon="5.97118">
        <ele>2213.1999511719</ele>
        <time>2024-10-15T11:56:04.000Z</time>
      </trkpt>
      <trkpt lat="45.08701" lon="5.97118">
        <ele>2213.1999511719</ele>
        <time>2024-10-15T11:56:05.000Z</time>
      </trkpt>
      <trkpt lat="45.08701" lon="5.97118">
        <ele>2213</ele>
        <time>2024-10-15T11:56:06.000Z</time>
      </trkpt>
      <trkpt lat="45.08701" lon="5.97118">
        <ele>2213</ele>
        <time>2024-10-15T11:56:07.000Z</time>
      </trkpt>
      <trkpt lat="45.08701" lon="5.97118">
        <ele>2213</ele>
        <time>2024-10-15T11:56:08.000Z</time>
      </trkpt>
      <trkpt lat="45.08701" lon="5.97118">
        <ele>2213</ele>
        <time>2024-10-15T11:56:09.000Z</time>
      </trkpt>
      <trkpt lat="45.08701" lon="5.97118">
        <ele>2213</ele>
        <time>2024-10-15T11:56:10.000Z</time>
      </trkpt>
      <trkpt lat="45.08701" lon="5.97118">
        <ele>2213</ele>
        <time>2024-10-15T11:56:11.000Z</time>
      </trkpt>
      <trkpt lat="45.08701" lon="5.97118">
        <ele>2213</ele>
        <time>2024-10-15T11:56:12.000Z</time>
      </trkpt>
      <trkpt lat="45.08701" lon="5.97118">
        <ele>2213</ele>
        <time>2024-10-15T11:56:13.000Z</time>
      </trkpt>
      <trkpt lat="45.08701" lon="5.97118">
        <ele>2212.8000488281</ele>
        <time>2024-10-15T11:56:14.000Z</time>
      </trkpt>
      <trkpt lat="45.08701" lon="5.97118">
        <ele>2212.6000976562</ele>
        <time>2024-10-15T11:56:15.000Z</time>
      </trkpt>
      <trkpt lat="45.08701" lon="5.97118">
        <ele>2212.3999023438</ele>
        <time>2024-10-15T11:56:16.000Z</time>
      </trkpt>
      <trkpt lat="45.08701" lon="5.97118">
        <ele>2212.1999511719</ele>
        <time>2024-10-15T11:56:17.000Z</time>
      </trkpt>
      <trkpt lat="45.08701" lon="5.97118">
        <ele>2212</ele>
        <time>2024-10-15T11:56:18.000Z</time>
      </trkpt>
      <trkpt lat="45.08701" lon="5.97118">
        <ele>2211.3999023438</ele>
        <time>2024-10-15T11:56:19.000Z</time>
      </trkpt>
      <trkpt lat="45.08701" lon="5.97118">
        <ele>2211.1999511719</ele>
        <time>2024-10-15T11:56:20.000Z</time>
      </trkpt>
      <trkpt lat="45.08701" lon="5.97118">
        <ele>2211</ele>
        <time>2024-10-15T11:56:21.000Z</time>
      </trkpt>
      <trkpt lat="45.08701" lon="5.97118">
        <ele>2211</ele>
        <time>2024-10-15T11:56:22.000Z</time>
      </trkpt>
      <trkpt lat="45.08701" lon="5.97118">
        <ele>2211</ele>
        <time>2024-10-15T11:56:23.000Z</time>
      </trkpt>
      <trkpt lat="45.08701" lon="5.97118">
        <ele>2211.6000976562</ele>
        <time>2024-10-15T11:56:24.000Z</time>
      </trkpt>
      <trkpt lat="45.08701" lon="5.97118">
        <ele>2211.8000488281</ele>
        <time>2024-10-15T11:56:25.000Z</time>
      </trkpt>
      <trkpt lat="45.08701" lon="5.97118">
        <ele>2211.8000488281</ele>
        <time>2024-10-15T11:56:26.000Z</time>
      </trkpt>
      <trkpt lat="45.08701" lon="5.97118">
        <ele>2212</ele>
        <time>2024-10-15T11:56:27.000Z</time>
      </trkpt>
      <trkpt lat="45.08701" lon="5.97118">
        <ele>2212</ele>
        <time>2024-10-15T11:56:28.000Z</time>
      </trkpt>
      <trkpt lat="45.08701" lon="5.97118">
        <ele>2212</ele>
        <time>2024-10-15T11:56:29.000Z</time>
      </trkpt>
      <trkpt lat="45.087" lon="5.97118">
        <ele>2212.3999023438</ele>
        <time>2024-10-15T11:56:30.000Z</time>
      </trkpt>
      <trkpt lat="45.087" lon="5.97118">
        <ele>2212.3999023438</ele>
        <time>2024-10-15T11:56:31.000Z</time>
      </trkpt>
      <trkpt lat="45.087" lon="5.97118">
        <ele>2212.3999023438</ele>
        <time>2024-10-15T11:56:32.000Z</time>
      </trkpt>
      <trkpt lat="45.087" lon="5.97118">
        <ele>2212.3999023438</ele>
        <time>2024-10-15T11:56:33.000Z</time>
      </trkpt>
      <trkpt lat="45.087" lon="5.97118">
        <ele>2212.1999511719</ele>
        <time>2024-10-15T11:56:34.000Z</time>
      </trkpt>
      <trkpt lat="45.087" lon="5.97118">
        <ele>2211.8000488281</ele>
        <time>2024-10-15T11:56:35.000Z</time>
      </trkpt>
      <trkpt lat="45.087" lon="5.97118">
        <ele>2211.8000488281</ele>
        <time>2024-10-15T11:56:36.000Z</time>
      </trkpt>
      <trkpt lat="45.087" lon="5.97118">
        <ele>2211.6000976562</ele>
        <time>2024-10-15T11:56:37.000Z</time>
      </trkpt>
      <trkpt lat="45.087" lon="5.97118">
        <ele>2211</ele>
        <time>2024-10-15T11:56:38.000Z</time>
      </trkpt>
      <trkpt lat="45.087" lon="5.97118">
        <ele>2210.8000488281</ele>
        <time>2024-10-15T11:56:39.000Z</time>
      </trkpt>
      <trkpt lat="45.087" lon="5.97118">
        <ele>2210.8000488281</ele>
        <time>2024-10-15T11:56:40.000Z</time>
      </trkpt>
      <trkpt lat="45.087" lon="5.97118">
        <ele>2210.8000488281</ele>
        <time>2024-10-15T11:56:41.000Z</time>
      </trkpt>
      <trkpt lat="45.087" lon="5.97119">
        <ele>2210.6000976562</ele>
        <time>2024-10-15T11:56:42.000Z</time>
      </trkpt>
      <trkpt lat="45.087" lon="5.97119">
        <ele>2210.6000976562</ele>
        <time>2024-10-15T11:56:43.000Z</time>
      </trkpt>
      <trkpt lat="45.087" lon="5.97119">
        <ele>2210.6000976562</ele>
        <time>2024-10-15T11:56:44.000Z</time>
      </trkpt>
      <trkpt lat="45.087" lon="5.97119">
        <ele>2210.6000976562</ele>
        <time>2024-10-15T11:56:45.000Z</time>
      </trkpt>
      <trkpt lat="45.087" lon="5.97119">
        <ele>2210</ele>
        <time>2024-10-15T11:56:46.000Z</time>
      </trkpt>
      <trkpt lat="45.087" lon="5.97119">
        <ele>2209.8000488281</ele>
        <time>2024-10-15T11:56:47.000Z</time>
      </trkpt>
      <trkpt lat="45.087" lon="5.97119">
        <ele>2209.8000488281</ele>
        <time>2024-10-15T11:56:48.000Z</time>
      </trkpt>
      <trkpt lat="45.087" lon="5.97119">
        <ele>2209.6000976562</ele>
        <time>2024-10-15T11:56:49.000Z</time>
      </trkpt>
      <trkpt lat="45.087" lon="5.97119">
        <ele>2209.6000976562</ele>
        <time>2024-10-15T11:56:50.000Z</time>
      </trkpt>
      <trkpt lat="45.087" lon="5.97119">
        <ele>2209.6000976562</ele>
        <time>2024-10-15T11:56:51.000Z</time>
      </trkpt>
      <trkpt lat="45.087" lon="5.97119">
        <ele>2209</ele>
        <time>2024-10-15T11:56:52.000Z</time>
      </trkpt>
      <trkpt lat="45.087" lon="5.97119">
        <ele>2208.3999023438</ele>
        <time>2024-10-15T11:56:53.000Z</time>
      </trkpt>
      <trkpt lat="45.087" lon="5.97119">
        <ele>2208</ele>
        <time>2024-10-15T11:56:54.000Z</time>
      </trkpt>
      <trkpt lat="45.087" lon="5.97119">
        <ele>2207.8000488281</ele>
        <time>2024-10-15T11:56:55.000Z</time>
      </trkpt>
      <trkpt lat="45.08699" lon="5.97119">
        <ele>2207.6000976562</ele>
        <time>2024-10-15T11:56:56.000Z</time>
      </trkpt>
      <trkpt lat="45.08699" lon="5.97119">
        <ele>2207.1999511719</ele>
        <time>2024-10-15T11:56:57.000Z</time>
      </trkpt>
      <trkpt lat="45.08698" lon="5.97119">
        <ele>2206.3999023438</ele>
        <time>2024-10-15T11:56:58.000Z</time>
      </trkpt>
      <trkpt lat="45.08697" lon="5.97119">
        <ele>2206.3999023438</ele>
        <time>2024-10-15T11:56:59.000Z</time>
      </trkpt>
      <trkpt lat="45.08697" lon="5.9712">
        <ele>2206</ele>
        <time>2024-10-15T11:57:00.000Z</time>
      </trkpt>
      <trkpt lat="45.08697" lon="5.9712">
        <ele>2206</ele>
        <time>2024-10-15T11:57:01.000Z</time>
      </trkpt>
      <trkpt lat="45.08696" lon="5.9712">
        <ele>2206</ele>
        <time>2024-10-15T11:57:02.000Z</time>
      </trkpt>
      <trkpt lat="45.08696" lon="5.9712">
        <ele>2205.8000488281</ele>
        <time>2024-10-15T11:57:03.000Z</time>
      </trkpt>
      <trkpt lat="45.08696" lon="5.9712">
        <ele>2205.8000488281</ele>
        <time>2024-10-15T11:57:04.000Z</time>
      </trkpt>
      <trkpt lat="45.08695" lon="5.9712">
        <ele>2205.8000488281</ele>
        <time>2024-10-15T11:57:05.000Z</time>
      </trkpt>
      <trkpt lat="45.08695" lon="5.9712">
        <ele>2205.1999511719</ele>
        <time>2024-10-15T11:57:06.000Z</time>
      </trkpt>
      <trkpt lat="45.08695" lon="5.9712">
        <ele>2204.1999511719</ele>
        <time>2024-10-15T11:57:07.000Z</time>
      </trkpt>
      <trkpt lat="45.08695" lon="5.9712">
        <ele>2204.1999511719</ele>
        <time>2024-10-15T11:57:08.000Z</time>
      </trkpt>
      <trkpt lat="45.08694" lon="5.9712">
        <ele>2203.6000976562</ele>
        <time>2024-10-15T11:57:09.000Z</time>
      </trkpt>
      <trkpt lat="45.08694" lon="5.9712">
        <ele>2202.3999023438</ele>
        <time>2024-10-15T11:57:10.000Z</time>
      </trkpt>
      <trkpt lat="45.08694" lon="5.9712">
        <ele>2202.1999511719</ele>
        <time>2024-10-15T11:57:11.000Z</time>
      </trkpt>
      <trkpt lat="45.08693" lon="5.9712">
        <ele>2202</ele>
        <time>2024-10-15T11:57:12.000Z</time>
      </trkpt>
      <trkpt lat="45.08693" lon="5.97121">
        <ele>2201.6000976562</ele>
        <time>2024-10-15T11:57:13.000Z</time>
      </trkpt>
      <trkpt lat="45.08692" lon="5.97121">
        <ele>2201.6000976562</ele>
        <time>2024-10-15T11:57:14.000Z</time>
      </trkpt>
      <trkpt lat="45.08692" lon="5.97121">
        <ele>2202</ele>
        <time>2024-10-15T11:57:15.000Z</time>
      </trkpt>
      <trkpt lat="45.08691" lon="5.97121">
        <ele>2202</ele>
        <time>2024-10-15T11:57:16.000Z</time>
      </trkpt>
      <trkpt lat="45.08691" lon="5.97121">
        <ele>2202</ele>
        <time>2024-10-15T11:57:17.000Z</time>
      </trkpt>
      <trkpt lat="45.0869" lon="5.97121">
        <ele>2201.8000488281</ele>
        <time>2024-10-15T11:57:18.000Z</time>
      </trkpt>
      <trkpt lat="45.08689" lon="5.97121">
        <ele>2201.8000488281</ele>
        <time>2024-10-15T11:57:19.000Z</time>
      </trkpt>
      <trkpt lat="45.08689" lon="5.97121">
        <ele>2201.6000976562</ele>
        <time>2024-10-15T11:57:20.000Z</time>
      </trkpt>
      <trkpt lat="45.08688" lon="5.97121">
        <ele>2201</ele>
        <time>2024-10-15T11:57:21.000Z</time>
      </trkpt>
      <trkpt lat="45.08688" lon="5.97122">
        <ele>2200.6000976562</ele>
        <time>2024-10-15T11:57:22.000Z</time>
      </trkpt>
      <trkpt lat="45.08688" lon="5.97122">
        <ele>2200.3999023438</ele>
        <time>2024-10-15T11:57:23.000Z</time>
      </trkpt>
      <trkpt lat="45.08688" lon="5.97122">
        <ele>2199.3999023438</ele>
        <time>2024-10-15T11:57:24.000Z</time>
      </trkpt>
      <trkpt lat="45.08687" lon="5.97122">
        <ele>2199.1999511719</ele>
        <time>2024-10-15T11:57:25.000Z</time>
      </trkpt>
      <trkpt lat="45.08687" lon="5.97122">
        <ele>2199</ele>
        <time>2024-10-15T11:57:26.000Z</time>
      </trkpt>
      <trkpt lat="45.08686" lon="5.97122">
        <ele>2198.8000488281</ele>
        <time>2024-10-15T11:57:27.000Z</time>
      </trkpt>
      <trkpt lat="45.08686" lon="5.97123">
        <ele>2198.8000488281</ele>
        <time>2024-10-15T11:57:28.000Z</time>
      </trkpt>
      <trkpt lat="45.08685" lon="5.97123">
        <ele>2198.3999023438</ele>
        <time>2024-10-15T11:57:29.000Z</time>
      </trkpt>
      <trkpt lat="45.08685" lon="5.97123">
        <ele>2198.1999511719</ele>
        <time>2024-10-15T11:57:30.000Z</time>
      </trkpt>
      <trkpt lat="45.08684" lon="5.97124">
        <ele>2197.3999023438</ele>
        <time>2024-10-15T11:57:31.000Z</time>
      </trkpt>
      <trkpt lat="45.08684" lon="5.97124">
        <ele>2197</ele>
        <time>2024-10-15T11:57:32.000Z</time>
      </trkpt>
      <trkpt lat="45.08683" lon="5.97124">
        <ele>2196.8000488281</ele>
        <time>2024-10-15T11:57:33.000Z</time>
      </trkpt>
      <trkpt lat="45.08683" lon="5.97125">
        <ele>2195.8000488281</ele>
        <time>2024-10-15T11:57:34.000Z</time>
      </trkpt>
      <trkpt lat="45.08682" lon="5.97125">
        <ele>2195.6000976562</ele>
        <time>2024-10-15T11:57:35.000Z</time>
      </trkpt>
      <trkpt lat="45.08681" lon="5.97125">
        <ele>2195.6000976562</ele>
        <time>2024-10-15T11:57:36.000Z</time>
      </trkpt>
      <trkpt lat="45.0868" lon="5.97126">
        <ele>2195</ele>
        <time>2024-10-15T11:57:37.000Z</time>
      </trkpt>
      <trkpt lat="45.08678" lon="5.97127">
        <ele>2194.8000488281</ele>
        <time>2024-10-15T11:57:38.000Z</time>
      </trkpt>
      <trkpt lat="45.08676" lon="5.97127">
        <ele>2194.6000976562</ele>
        <time>2024-10-15T11:57:39.000Z</time>
      </trkpt>
      <trkpt lat="45.08675" lon="5.97128">
        <ele>2194.1999511719</ele>
        <time>2024-10-15T11:57:40.000Z</time>
      </trkpt>
      <trkpt lat="45.08673" lon="5.97128">
        <ele>2193.8000488281</ele>
        <time>2024-10-15T11:57:41.000Z</time>
      </trkpt>
      <trkpt lat="45.08671" lon="5.97128">
        <ele>2193.3999023438</ele>
        <time>2024-10-15T11:57:42.000Z</time>
      </trkpt>
      <trkpt lat="45.08669" lon="5.97129">
        <ele>2193.1999511719</ele>
        <time>2024-10-15T11:57:43.000Z</time>
      </trkpt>
      <trkpt lat="45.08667" lon="5.97129">
        <ele>2192.8000488281</ele>
        <time>2024-10-15T11:57:44.000Z</time>
      </trkpt>
      <trkpt lat="45.08665" lon="5.97129">
        <ele>2192.6000976562</ele>
        <time>2024-10-15T11:57:45.000Z</time>
      </trkpt>
      <trkpt lat="45.08664" lon="5.97129">
        <ele>2192.1999511719</ele>
        <time>2024-10-15T11:57:46.000Z</time>
      </trkpt>
      <trkpt lat="45.08663" lon="5.97129">
        <ele>2192</ele>
        <time>2024-10-15T11:57:47.000Z</time>
      </trkpt>
      <trkpt lat="45.08663" lon="5.97128">
        <ele>2191.6000976562</ele>
        <time>2024-10-15T11:57:48.000Z</time>
      </trkpt>
      <trkpt lat="45.08662" lon="5.97128">
        <ele>2191.6000976562</ele>
        <time>2024-10-15T11:57:49.000Z</time>
      </trkpt>
      <trkpt lat="45.08661" lon="5.97128">
        <ele>2191.1999511719</ele>
        <time>2024-10-15T11:57:50.000Z</time>
      </trkpt>
      <trkpt lat="45.0866" lon="5.97128">
        <ele>2191</ele>
        <time>2024-10-15T11:57:51.000Z</time>
      </trkpt>
      <trkpt lat="45.08659" lon="5.97128">
        <ele>2191</ele>
        <time>2024-10-15T11:57:52.000Z</time>
      </trkpt>
      <trkpt lat="45.08658" lon="5.97127">
        <ele>2191</ele>
        <time>2024-10-15T11:57:53.000Z</time>
      </trkpt>
      <trkpt lat="45.08658" lon="5.97127">
        <ele>2191</ele>
        <time>2024-10-15T11:57:54.000Z</time>
      </trkpt>
      <trkpt lat="45.08657" lon="5.97127">
        <ele>2190.8000488281</ele>
        <time>2024-10-15T11:57:55.000Z</time>
      </trkpt>
      <trkpt lat="45.08656" lon="5.97126">
        <ele>2190.8000488281</ele>
        <time>2024-10-15T11:57:56.000Z</time>
      </trkpt>
      <trkpt lat="45.08656" lon="5.97126">
        <ele>2190.6000976562</ele>
        <time>2024-10-15T11:57:57.000Z</time>
      </trkpt>
      <trkpt lat="45.08655" lon="5.97126">
        <ele>2190.6000976562</ele>
        <time>2024-10-15T11:57:58.000Z</time>
      </trkpt>
      <trkpt lat="45.08655" lon="5.97126">
        <ele>2190.6000976562</ele>
        <time>2024-10-15T11:57:59.000Z</time>
      </trkpt>
      <trkpt lat="45.08654" lon="5.97126">
        <ele>2190.8000488281</ele>
        <time>2024-10-15T11:58:00.000Z</time>
      </trkpt>
      <trkpt lat="45.08654" lon="5.97126">
        <ele>2190.6000976562</ele>
        <time>2024-10-15T11:58:01.000Z</time>
      </trkpt>
      <trkpt lat="45.08653" lon="5.97125">
        <ele>2190.6000976562</ele>
        <time>2024-10-15T11:58:02.000Z</time>
      </trkpt>
      <trkpt lat="45.08653" lon="5.97125">
        <ele>2190.6000976562</ele>
        <time>2024-10-15T11:58:03.000Z</time>
      </trkpt>
      <trkpt lat="45.08652" lon="5.97125">
        <ele>2190.6000976562</ele>
        <time>2024-10-15T11:58:04.000Z</time>
      </trkpt>
      <trkpt lat="45.08652" lon="5.97125">
        <ele>2190.6000976562</ele>
        <time>2024-10-15T11:58:05.000Z</time>
      </trkpt>
      <trkpt lat="45.08651" lon="5.97124">
        <ele>2190.3999023438</ele>
        <time>2024-10-15T11:58:06.000Z</time>
      </trkpt>
      <trkpt lat="45.08651" lon="5.97125">
        <ele>2189.8000488281</ele>
        <time>2024-10-15T11:58:07.000Z</time>
      </trkpt>
      <trkpt lat="45.0865" lon="5.97125">
        <ele>2189.8000488281</ele>
        <time>2024-10-15T11:58:08.000Z</time>
      </trkpt>
      <trkpt lat="45.08649" lon="5.97125">
        <ele>2189.6000976562</ele>
        <time>2024-10-15T11:58:09.000Z</time>
      </trkpt>
      <trkpt lat="45.08649" lon="5.97125">
        <ele>2188.8000488281</ele>
        <time>2024-10-15T11:58:10.000Z</time>
      </trkpt>
      <trkpt lat="45.08648" lon="5.97124">
        <ele>2188.1999511719</ele>
        <time>2024-10-15T11:58:11.000Z</time>
      </trkpt>
      <trkpt lat="45.08648" lon="5.97123">
        <ele>2187.6000976562</ele>
        <time>2024-10-15T11:58:12.000Z</time>
      </trkpt>
      <trkpt lat="45.08647" lon="5.97122">
        <ele>2187.3999023438</ele>
        <time>2024-10-15T11:58:13.000Z</time>
      </trkpt>
      <trkpt lat="45.08647" lon="5.97122">
        <ele>2187</ele>
        <time>2024-10-15T11:58:14.000Z</time>
      </trkpt>
      <trkpt lat="45.08647" lon="5.97121">
        <ele>2186.8000488281</ele>
        <time>2024-10-15T11:58:15.000Z</time>
      </trkpt>
      <trkpt lat="45.08646" lon="5.97121">
        <ele>2186.8000488281</ele>
        <time>2024-10-15T11:58:16.000Z</time>
      </trkpt>
      <trkpt lat="45.08646" lon="5.9712">
        <ele>2186.8000488281</ele>
        <time>2024-10-15T11:58:17.000Z</time>
      </trkpt>
      <trkpt lat="45.08646" lon="5.9712">
        <ele>2186.6000976562</ele>
        <time>2024-10-15T11:58:18.000Z</time>
      </trkpt>
      <trkpt lat="45.08646" lon="5.9712">
        <ele>2186.6000976562</ele>
        <time>2024-10-15T11:58:19.000Z</time>
      </trkpt>
      <trkpt lat="45.08646" lon="5.9712">
        <ele>2186.3999023438</ele>
        <time>2024-10-15T11:58:20.000Z</time>
      </trkpt>
      <trkpt lat="45.08646" lon="5.9712">
        <ele>2186.1999511719</ele>
        <time>2024-10-15T11:58:21.000Z</time>
      </trkpt>
      <trkpt lat="45.08646" lon="5.9712">
        <ele>2186</ele>
        <time>2024-10-15T11:58:22.000Z</time>
      </trkpt>
      <trkpt lat="45.08646" lon="5.9712">
        <ele>2185.8000488281</ele>
        <time>2024-10-15T11:58:23.000Z</time>
      </trkpt>
      <trkpt lat="45.08646" lon="5.9712">
        <ele>2185.8000488281</ele>
        <time>2024-10-15T11:58:24.000Z</time>
      </trkpt>
      <trkpt lat="45.08646" lon="5.9712">
        <ele>2185.8000488281</ele>
        <time>2024-10-15T11:58:25.000Z</time>
      </trkpt>
      <trkpt lat="45.08646" lon="5.9712">
        <ele>2185.6000976562</ele>
        <time>2024-10-15T11:58:26.000Z</time>
      </trkpt>
      <trkpt lat="45.08646" lon="5.9712">
        <ele>2185.6000976562</ele>
        <time>2024-10-15T11:58:27.000Z</time>
      </trkpt>
      <trkpt lat="45.08646" lon="5.9712">
        <ele>2185.3999023438</ele>
        <time>2024-10-15T11:58:28.000Z</time>
      </trkpt>
      <trkpt lat="45.08646" lon="5.9712">
        <ele>2185.3999023438</ele>
        <time>2024-10-15T11:58:29.000Z</time>
      </trkpt>
      <trkpt lat="45.08646" lon="5.9712">
        <ele>2185.1999511719</ele>
        <time>2024-10-15T11:58:30.000Z</time>
      </trkpt>
      <trkpt lat="45.08646" lon="5.9712">
        <ele>2185.1999511719</ele>
        <time>2024-10-15T11:58:31.000Z</time>
      </trkpt>
      <trkpt lat="45.08646" lon="5.9712">
        <ele>2185.1999511719</ele>
        <time>2024-10-15T11:58:32.000Z</time>
      </trkpt>
      <trkpt lat="45.08646" lon="5.9712">
        <ele>2185.1999511719</ele>
        <time>2024-10-15T11:58:33.000Z</time>
      </trkpt>
      <trkpt lat="45.08646" lon="5.9712">
        <ele>2185.1999511719</ele>
        <time>2024-10-15T11:58:34.000Z</time>
      </trkpt>
      <trkpt lat="45.08646" lon="5.9712">
        <ele>2185</ele>
        <time>2024-10-15T11:58:35.000Z</time>
      </trkpt>
      <trkpt lat="45.08646" lon="5.9712">
        <ele>2185</ele>
        <time>2024-10-15T11:58:36.000Z</time>
      </trkpt>
      <trkpt lat="45.08646" lon="5.9712">
        <ele>2185</ele>
        <time>2024-10-15T11:58:37.000Z</time>
      </trkpt>
      <trkpt lat="45.08646" lon="5.9712">
        <ele>2185</ele>
        <time>2024-10-15T11:58:38.000Z</time>
      </trkpt>
      <trkpt lat="45.08646" lon="5.9712">
        <ele>2185</ele>
        <time>2024-10-15T11:58:39.000Z</time>
      </trkpt>
      <trkpt lat="45.08646" lon="5.9712">
        <ele>2185</ele>
        <time>2024-10-15T11:58:40.000Z</time>
      </trkpt>
      <trkpt lat="45.08646" lon="5.9712">
        <ele>2184.8000488281</ele>
        <time>2024-10-15T11:58:41.000Z</time>
      </trkpt>
      <trkpt lat="45.08646" lon="5.9712">
        <ele>2184.8000488281</ele>
        <time>2024-10-15T11:58:42.000Z</time>
      </trkpt>
      <trkpt lat="45.08646" lon="5.9712">
        <ele>2184.8000488281</ele>
        <time>2024-10-15T11:58:43.000Z</time>
      </trkpt>
      <trkpt lat="45.08646" lon="5.9712">
        <ele>2184.8000488281</ele>
        <time>2024-10-15T11:58:44.000Z</time>
      </trkpt>
      <trkpt lat="45.08646" lon="5.9712">
        <ele>2184.6000976562</ele>
        <time>2024-10-15T11:58:45.000Z</time>
      </trkpt>
      <trkpt lat="45.08646" lon="5.9712">
        <ele>2184.6000976562</ele>
        <time>2024-10-15T11:58:46.000Z</time>
      </trkpt>
      <trkpt lat="45.08646" lon="5.97119">
        <ele>2184.6000976562</ele>
        <time>2024-10-15T11:58:47.000Z</time>
      </trkpt>
      <trkpt lat="45.08646" lon="5.97119">
        <ele>2184.6000976562</ele>
        <time>2024-10-15T11:58:48.000Z</time>
      </trkpt>
      <trkpt lat="45.08646" lon="5.97119">
        <ele>2184.6000976562</ele>
        <time>2024-10-15T11:58:49.000Z</time>
      </trkpt>
      <trkpt lat="45.08646" lon="5.97119">
        <ele>2184.3999023438</ele>
        <time>2024-10-15T11:58:50.000Z</time>
      </trkpt>
      <trkpt lat="45.08646" lon="5.97119">
        <ele>2184.3999023438</ele>
        <time>2024-10-15T11:58:51.000Z</time>
      </trkpt>
      <trkpt lat="45.08646" lon="5.97119">
        <ele>2184.3999023438</ele>
        <time>2024-10-15T11:58:52.000Z</time>
      </trkpt>
      <trkpt lat="45.08646" lon="5.97119">
        <ele>2184.1999511719</ele>
        <time>2024-10-15T11:58:53.000Z</time>
      </trkpt>
      <trkpt lat="45.08646" lon="5.97118">
        <ele>2184.1999511719</ele>
        <time>2024-10-15T11:58:54.000Z</time>
      </trkpt>
      <trkpt lat="45.08646" lon="5.97118">
        <ele>2184.1999511719</ele>
        <time>2024-10-15T11:58:55.000Z</time>
      </trkpt>
      <trkpt lat="45.08646" lon="5.97118">
        <ele>2184.1999511719</ele>
        <time>2024-10-15T11:58:56.000Z</time>
      </trkpt>
      <trkpt lat="45.08646" lon="5.97118">
        <ele>2184.1999511719</ele>
        <time>2024-10-15T11:58:57.000Z</time>
      </trkpt>
      <trkpt lat="45.08646" lon="5.97118">
        <ele>2184.1999511719</ele>
        <time>2024-10-15T11:58:58.000Z</time>
      </trkpt>
      <trkpt lat="45.08646" lon="5.97118">
        <ele>2184.1999511719</ele>
        <time>2024-10-15T11:58:59.000Z</time>
      </trkpt>
      <trkpt lat="45.08646" lon="5.97118">
        <ele>2184.1999511719</ele>
        <time>2024-10-15T11:59:00.000Z</time>
      </trkpt>
      <trkpt lat="45.08646" lon="5.97118">
        <ele>2184.1999511719</ele>
        <time>2024-10-15T11:59:01.000Z</time>
      </trkpt>
      <trkpt lat="45.08646" lon="5.97118">
        <ele>2184.1999511719</ele>
        <time>2024-10-15T11:59:02.000Z</time>
      </trkpt>
      <trkpt lat="45.08646" lon="5.97118">
        <ele>2184.1999511719</ele>
        <time>2024-10-15T11:59:03.000Z</time>
      </trkpt>
      <trkpt lat="45.08646" lon="5.97118">
        <ele>2184.1999511719</ele>
        <time>2024-10-15T11:59:04.000Z</time>
      </trkpt>
      <trkpt lat="45.08646" lon="5.97118">
        <ele>2184.1999511719</ele>
        <time>2024-10-15T11:59:05.000Z</time>
      </trkpt>
      <trkpt lat="45.08646" lon="5.97118">
        <ele>2184.1999511719</ele>
        <time>2024-10-15T11:59:06.000Z</time>
      </trkpt>
      <trkpt lat="45.08646" lon="5.97118">
        <ele>2184.1999511719</ele>
        <time>2024-10-15T11:59:07.000Z</time>
      </trkpt>
      <trkpt lat="45.08646" lon="5.97118">
        <ele>2184.1999511719</ele>
        <time>2024-10-15T11:59:08.000Z</time>
      </trkpt>
      <trkpt lat="45.08646" lon="5.97118">
        <ele>2184.1999511719</ele>
        <time>2024-10-15T11:59:09.000Z</time>
      </trkpt>
      <trkpt lat="45.08646" lon="5.97118">
        <ele>2184.1999511719</ele>
        <time>2024-10-15T11:59:10.000Z</time>
      </trkpt>
      <trkpt lat="45.08646" lon="5.97118">
        <ele>2184.3999023438</ele>
        <time>2024-10-15T11:59:11.000Z</time>
      </trkpt>
      <trkpt lat="45.08646" lon="5.97118">
        <ele>2184.3999023438</ele>
        <time>2024-10-15T11:59:12.000Z</time>
      </trkpt>
      <trkpt lat="45.08646" lon="5.97118">
        <ele>2184.3999023438</ele>
        <time>2024-10-15T11:59:13.000Z</time>
      </trkpt>
      <trkpt lat="45.08646" lon="5.97118">
        <ele>2184.3999023438</ele>
        <time>2024-10-15T11:59:14.000Z</time>
      </trkpt>
      <trkpt lat="45.08646" lon="5.97118">
        <ele>2184.1999511719</ele>
        <time>2024-10-15T11:59:15.000Z</time>
      </trkpt>
      <trkpt lat="45.08646" lon="5.97118">
        <ele>2184</ele>
        <time>2024-10-15T11:59:16.000Z</time>
      </trkpt>
      <trkpt lat="45.08646" lon="5.97118">
        <ele>2184</ele>
        <time>2024-10-15T11:59:17.000Z</time>
      </trkpt>
      <trkpt lat="45.08646" lon="5.97118">
        <ele>2183.8000488281</ele>
        <time>2024-10-15T11:59:18.000Z</time>
      </trkpt>
      <trkpt lat="45.08646" lon="5.97117">
        <ele>2183.8000488281</ele>
        <time>2024-10-15T11:59:19.000Z</time>
      </trkpt>
      <trkpt lat="45.08646" lon="5.97117">
        <ele>2183.8000488281</ele>
        <time>2024-10-15T11:59:20.000Z</time>
      </trkpt>
      <trkpt lat="45.08646" lon="5.97116">
        <ele>2183.8000488281</ele>
        <time>2024-10-15T11:59:21.000Z</time>
      </trkpt>
      <trkpt lat="45.08646" lon="5.97116">
        <ele>2183.8000488281</ele>
        <time>2024-10-15T11:59:22.000Z</time>
      </trkpt>
      <trkpt lat="45.08646" lon="5.97116">
        <ele>2183.8000488281</ele>
        <time>2024-10-15T11:59:23.000Z</time>
      </trkpt>
      <trkpt lat="45.08646" lon="5.97116">
        <ele>2183.8000488281</ele>
        <time>2024-10-15T11:59:24.000Z</time>
      </trkpt>
      <trkpt lat="45.08646" lon="5.97116">
        <ele>2183.8000488281</ele>
        <time>2024-10-15T11:59:25.000Z</time>
      </trkpt>
      <trkpt lat="45.08646" lon="5.97115">
        <ele>2183.3999023438</ele>
        <time>2024-10-15T11:59:26.000Z</time>
      </trkpt>
      <trkpt lat="45.08646" lon="5.97115">
        <ele>2183</ele>
        <time>2024-10-15T11:59:27.000Z</time>
      </trkpt>
      <trkpt lat="45.08646" lon="5.97115">
        <ele>2182.8000488281</ele>
        <time>2024-10-15T11:59:28.000Z</time>
      </trkpt>
      <trkpt lat="45.08646" lon="5.97115">
        <ele>2182.6000976562</ele>
        <time>2024-10-15T11:59:29.000Z</time>
      </trkpt>
      <trkpt lat="45.08646" lon="5.97115">
        <ele>2182.3999023438</ele>
        <time>2024-10-15T11:59:30.000Z</time>
      </trkpt>
      <trkpt lat="45.08646" lon="5.97115">
        <ele>2182</ele>
        <time>2024-10-15T11:59:31.000Z</time>
      </trkpt>
      <trkpt lat="45.08646" lon="5.97115">
        <ele>2181.3999023438</ele>
        <time>2024-10-15T11:59:32.000Z</time>
      </trkpt>
      <trkpt lat="45.08646" lon="5.97115">
        <ele>2181.1999511719</ele>
        <time>2024-10-15T11:59:33.000Z</time>
      </trkpt>
      <trkpt lat="45.08646" lon="5.97115">
        <ele>2180.8000488281</ele>
        <time>2024-10-15T11:59:34.000Z</time>
      </trkpt>
      <trkpt lat="45.08646" lon="5.97114">
        <ele>2180.6000976562</ele>
        <time>2024-10-15T11:59:35.000Z</time>
      </trkpt>
      <trkpt lat="45.08645" lon="5.97114">
        <ele>2180</ele>
        <time>2024-10-15T11:59:36.000Z</time>
      </trkpt>
      <trkpt lat="45.08645" lon="5.97114">
        <ele>2179.8000488281</ele>
        <time>2024-10-15T11:59:37.000Z</time>
      </trkpt>
      <trkpt lat="45.08645" lon="5.97114">
        <ele>2179.3999023438</ele>
        <time>2024-10-15T11:59:38.000Z</time>
      </trkpt>
      <trkpt lat="45.08645" lon="5.97114">
        <ele>2178.6000976562</ele>
        <time>2024-10-15T11:59:39.000Z</time>
      </trkpt>
      <trkpt lat="45.08644" lon="5.97114">
        <ele>2178.1999511719</ele>
        <time>2024-10-15T11:59:40.000Z</time>
      </trkpt>
      <trkpt lat="45.08644" lon="5.97113">
        <ele>2177.8000488281</ele>
        <time>2024-10-15T11:59:41.000Z</time>
      </trkpt>
      <trkpt lat="45.08644" lon="5.97113">
        <ele>2177.3999023438</ele>
        <time>2024-10-15T11:59:42.000Z</time>
      </trkpt>
      <trkpt lat="45.08643" lon="5.97113">
        <ele>2177.3999023438</ele>
        <time>2024-10-15T11:59:43.000Z</time>
      </trkpt>
      <trkpt lat="45.08643" lon="5.97113">
        <ele>2176.8000488281</ele>
        <time>2024-10-15T11:59:44.000Z</time>
      </trkpt>
      <trkpt lat="45.08643" lon="5.97113">
        <ele>2176.6000976562</ele>
        <time>2024-10-15T11:59:45.000Z</time>
      </trkpt>
      <trkpt lat="45.08642" lon="5.97113">
        <ele>2176.1999511719</ele>
        <time>2024-10-15T11:59:46.000Z</time>
      </trkpt>
      <trkpt lat="45.08642" lon="5.97113">
        <ele>2176</ele>
        <time>2024-10-15T11:59:47.000Z</time>
      </trkpt>
      <trkpt lat="45.08641" lon="5.97113">
        <ele>2175.8000488281</ele>
        <time>2024-10-15T11:59:48.000Z</time>
      </trkpt>
      <trkpt lat="45.08641" lon="5.97113">
        <ele>2175.3999023438</ele>
        <time>2024-10-15T11:59:49.000Z</time>
      </trkpt>
      <trkpt lat="45.0864" lon="5.97112">
        <ele>2175</ele>
        <time>2024-10-15T11:59:50.000Z</time>
      </trkpt>
      <trkpt lat="45.0864" lon="5.97112">
        <ele>2174.3999023438</ele>
        <time>2024-10-15T11:59:51.000Z</time>
      </trkpt>
      <trkpt lat="45.08639" lon="5.97111">
        <ele>2174.3999023438</ele>
        <time>2024-10-15T11:59:52.000Z</time>
      </trkpt>
      <trkpt lat="45.08639" lon="5.9711">
        <ele>2174.3999023438</ele>
        <time>2024-10-15T11:59:53.000Z</time>
      </trkpt>
      <trkpt lat="45.08638" lon="5.9711">
        <ele>2174.3999023438</ele>
        <time>2024-10-15T11:59:54.000Z</time>
      </trkpt>
      <trkpt lat="45.08638" lon="5.9711">
        <ele>2175</ele>
        <time>2024-10-15T11:59:55.000Z</time>
      </trkpt>
      <trkpt lat="45.08638" lon="5.9711">
        <ele>2175.1999511719</ele>
        <time>2024-10-15T11:59:56.000Z</time>
      </trkpt>
      <trkpt lat="45.08637" lon="5.9711">
        <ele>2175.3999023438</ele>
        <time>2024-10-15T11:59:57.000Z</time>
      </trkpt>
      <trkpt lat="45.08637" lon="5.9711">
        <ele>2175.3999023438</ele>
        <time>2024-10-15T11:59:58.000Z</time>
      </trkpt>
      <trkpt lat="45.08637" lon="5.9711">
        <ele>2175.3999023438</ele>
        <time>2024-10-15T11:59:59.000Z</time>
      </trkpt>
      <trkpt lat="45.08636" lon="5.9711">
        <ele>2175.3999023438</ele>
        <time>2024-10-15T12:00:00.000Z</time>
      </trkpt>
      <trkpt lat="45.08636" lon="5.9711">
        <ele>2175.3999023438</ele>
        <time>2024-10-15T12:00:01.000Z</time>
      </trkpt>
      <trkpt lat="45.08636" lon="5.9711">
        <ele>2175</ele>
        <time>2024-10-15T12:00:02.000Z</time>
      </trkpt>
      <trkpt lat="45.08636" lon="5.9711">
        <ele>2174.1999511719</ele>
        <time>2024-10-15T12:00:03.000Z</time>
      </trkpt>
      <trkpt lat="45.08636" lon="5.9711">
        <ele>2174</ele>
        <time>2024-10-15T12:00:04.000Z</time>
      </trkpt>
      <trkpt lat="45.08636" lon="5.9711">
        <ele>2173.6000976562</ele>
        <time>2024-10-15T12:00:05.000Z</time>
      </trkpt>
      <trkpt lat="45.08636" lon="5.9711">
        <ele>2173.3999023438</ele>
        <time>2024-10-15T12:00:06.000Z</time>
      </trkpt>
      <trkpt lat="45.08636" lon="5.9711">
        <ele>2173.1999511719</ele>
        <time>2024-10-15T12:00:07.000Z</time>
      </trkpt>
      <trkpt lat="45.08635" lon="5.9711">
        <ele>2173</ele>
        <time>2024-10-15T12:00:08.000Z</time>
      </trkpt>
      <trkpt lat="45.08635" lon="5.9711">
        <ele>2173</ele>
        <time>2024-10-15T12:00:09.000Z</time>
      </trkpt>
      <trkpt lat="45.08635" lon="5.9711">
        <ele>2173</ele>
        <time>2024-10-15T12:00:10.000Z</time>
      </trkpt>
      <trkpt lat="45.08635" lon="5.9711">
        <ele>2173</ele>
        <time>2024-10-15T12:00:11.000Z</time>
      </trkpt>
      <trkpt lat="45.08635" lon="5.9711">
        <ele>2173</ele>
        <time>2024-10-15T12:00:12.000Z</time>
      </trkpt>
      <trkpt lat="45.08635" lon="5.9711">
        <ele>2173.3999023438</ele>
        <time>2024-10-15T12:00:13.000Z</time>
      </trkpt>
      <trkpt lat="45.08635" lon="5.9711">
        <ele>2173.3999023438</ele>
        <time>2024-10-15T12:00:14.000Z</time>
      </trkpt>
      <trkpt lat="45.08635" lon="5.9711">
        <ele>2173.6000976562</ele>
        <time>2024-10-15T12:00:15.000Z</time>
      </trkpt>
      <trkpt lat="45.08635" lon="5.9711">
        <ele>2173.6000976562</ele>
        <time>2024-10-15T12:00:16.000Z</time>
      </trkpt>
      <trkpt lat="45.08635" lon="5.97109">
        <ele>2174</ele>
        <time>2024-10-15T12:00:17.000Z</time>
      </trkpt>
      <trkpt lat="45.08635" lon="5.97109">
        <ele>2174</ele>
        <time>2024-10-15T12:00:18.000Z</time>
      </trkpt>
      <trkpt lat="45.08634" lon="5.97109">
        <ele>2174</ele>
        <time>2024-10-15T12:00:19.000Z</time>
      </trkpt>
      <trkpt lat="45.08634" lon="5.97109">
        <ele>2174</ele>
        <time>2024-10-15T12:00:20.000Z</time>
      </trkpt>
      <trkpt lat="45.08634" lon="5.97109">
        <ele>2174</ele>
        <time>2024-10-15T12:00:21.000Z</time>
      </trkpt>
      <trkpt lat="45.08634" lon="5.97109">
        <ele>2173.8000488281</ele>
        <time>2024-10-15T12:00:22.000Z</time>
      </trkpt>
      <trkpt lat="45.08634" lon="5.97109">
        <ele>2172.6000976562</ele>
        <time>2024-10-15T12:00:23.000Z</time>
      </trkpt>
      <trkpt lat="45.08634" lon="5.97109">
        <ele>2171.8000488281</ele>
        <time>2024-10-15T12:00:24.000Z</time>
      </trkpt>
      <trkpt lat="45.08634" lon="5.97109">
        <ele>2171.3999023438</ele>
        <time>2024-10-15T12:00:25.000Z</time>
      </trkpt>
      <trkpt lat="45.08634" lon="5.97109">
        <ele>2171.1999511719</ele>
        <time>2024-10-15T12:00:26.000Z</time>
      </trkpt>
      <trkpt lat="45.08634" lon="5.97109">
        <ele>2171.1999511719</ele>
        <time>2024-10-15T12:00:27.000Z</time>
      </trkpt>
      <trkpt lat="45.08634" lon="5.97109">
        <ele>2171.1999511719</ele>
        <time>2024-10-15T12:00:28.000Z</time>
      </trkpt>
      <trkpt lat="45.08634" lon="5.97109">
        <ele>2171.1999511719</ele>
        <time>2024-10-15T12:00:29.000Z</time>
      </trkpt>
      <trkpt lat="45.08634" lon="5.97109">
        <ele>2171.1999511719</ele>
        <time>2024-10-15T12:00:30.000Z</time>
      </trkpt>
      <trkpt lat="45.08634" lon="5.97109">
        <ele>2171.1999511719</ele>
        <time>2024-10-15T12:00:31.000Z</time>
      </trkpt>
      <trkpt lat="45.08634" lon="5.97109">
        <ele>2171.1999511719</ele>
        <time>2024-10-15T12:00:32.000Z</time>
      </trkpt>
      <trkpt lat="45.08634" lon="5.97109">
        <ele>2171.1999511719</ele>
        <time>2024-10-15T12:00:33.000Z</time>
      </trkpt>
      <trkpt lat="45.08634" lon="5.97109">
        <ele>2171.1999511719</ele>
        <time>2024-10-15T12:00:34.000Z</time>
      </trkpt>
      <trkpt lat="45.08634" lon="5.97109">
        <ele>2171.1999511719</ele>
        <time>2024-10-15T12:00:35.000Z</time>
      </trkpt>
      <trkpt lat="45.08634" lon="5.97109">
        <ele>2171.1999511719</ele>
        <time>2024-10-15T12:00:36.000Z</time>
      </trkpt>
      <trkpt lat="45.08634" lon="5.97109">
        <ele>2171</ele>
        <time>2024-10-15T12:00:37.000Z</time>
      </trkpt>
      <trkpt lat="45.08634" lon="5.97109">
        <ele>2171</ele>
        <time>2024-10-15T12:00:38.000Z</time>
      </trkpt>
      <trkpt lat="45.08634" lon="5.97109">
        <ele>2170.8000488281</ele>
        <time>2024-10-15T12:00:39.000Z</time>
      </trkpt>
      <trkpt lat="45.08634" lon="5.97109">
        <ele>2170.3999023438</ele>
        <time>2024-10-15T12:00:40.000Z</time>
      </trkpt>
      <trkpt lat="45.08634" lon="5.97109">
        <ele>2170</ele>
        <time>2024-10-15T12:00:41.000Z</time>
      </trkpt>
      <trkpt lat="45.08634" lon="5.97109">
        <ele>2169.8000488281</ele>
        <time>2024-10-15T12:00:42.000Z</time>
      </trkpt>
      <trkpt lat="45.08634" lon="5.97109">
        <ele>2169.6000976562</ele>
        <time>2024-10-15T12:00:43.000Z</time>
      </trkpt>
      <trkpt lat="45.08634" lon="5.97109">
        <ele>2169.3999023438</ele>
        <time>2024-10-15T12:00:44.000Z</time>
      </trkpt>
      <trkpt lat="45.08634" lon="5.97109">
        <ele>2169.3999023438</ele>
        <time>2024-10-15T12:00:45.000Z</time>
      </trkpt>
      <trkpt lat="45.08634" lon="5.97109">
        <ele>2169.3999023438</ele>
        <time>2024-10-15T12:00:46.000Z</time>
      </trkpt>
      <trkpt lat="45.08634" lon="5.97109">
        <ele>2169.1999511719</ele>
        <time>2024-10-15T12:00:47.000Z</time>
      </trkpt>
      <trkpt lat="45.08634" lon="5.97109">
        <ele>2169.1999511719</ele>
        <time>2024-10-15T12:00:48.000Z</time>
      </trkpt>
      <trkpt lat="45.08633" lon="5.97109">
        <ele>2169.1999511719</ele>
        <time>2024-10-15T12:00:49.000Z</time>
      </trkpt>
      <trkpt lat="45.08633" lon="5.97109">
        <ele>2169</ele>
        <time>2024-10-15T12:00:50.000Z</time>
      </trkpt>
      <trkpt lat="45.08633" lon="5.97109">
        <ele>2168.6000976562</ele>
        <time>2024-10-15T12:00:51.000Z</time>
      </trkpt>
      <trkpt lat="45.08633" lon="5.97109">
        <ele>2168.3999023438</ele>
        <time>2024-10-15T12:00:52.000Z</time>
      </trkpt>
      <trkpt lat="45.08633" lon="5.97108">
        <ele>2168.1999511719</ele>
        <time>2024-10-15T12:00:53.000Z</time>
      </trkpt>
      <trkpt lat="45.08633" lon="5.97108">
        <ele>2167.8000488281</ele>
        <time>2024-10-15T12:00:54.000Z</time>
      </trkpt>
      <trkpt lat="45.08632" lon="5.97108">
        <ele>2167.6000976562</ele>
        <time>2024-10-15T12:00:55.000Z</time>
      </trkpt>
      <trkpt lat="45.08632" lon="5.97108">
        <ele>2167.3999023438</ele>
        <time>2024-10-15T12:00:56.000Z</time>
      </trkpt>
      <trkpt lat="45.08632" lon="5.97108">
        <ele>2167.1999511719</ele>
        <time>2024-10-15T12:00:57.000Z</time>
      </trkpt>
      <trkpt lat="45.08632" lon="5.97108">
        <ele>2167.1999511719</ele>
        <time>2024-10-15T12:00:58.000Z</time>
      </trkpt>
      <trkpt lat="45.08632" lon="5.97107">
        <ele>2166.8000488281</ele>
        <time>2024-10-15T12:00:59.000Z</time>
      </trkpt>
      <trkpt lat="45.08632" lon="5.97107">
        <ele>2166.3999023438</ele>
        <time>2024-10-15T12:01:00.000Z</time>
      </trkpt>
      <trkpt lat="45.08631" lon="5.97107">
        <ele>2166.1999511719</ele>
        <time>2024-10-15T12:01:01.000Z</time>
      </trkpt>
      <trkpt lat="45.08631" lon="5.97107">
        <ele>2166</ele>
        <time>2024-10-15T12:01:02.000Z</time>
      </trkpt>
      <trkpt lat="45.08631" lon="5.97107">
        <ele>2165.8000488281</ele>
        <time>2024-10-15T12:01:03.000Z</time>
      </trkpt>
      <trkpt lat="45.08631" lon="5.97106">
        <ele>2165.3999023438</ele>
        <time>2024-10-15T12:01:04.000Z</time>
      </trkpt>
      <trkpt lat="45.08631" lon="5.97106">
        <ele>2165.1999511719</ele>
        <time>2024-10-15T12:01:05.000Z</time>
      </trkpt>
      <trkpt lat="45.0863" lon="5.97106">
        <ele>2165</ele>
        <time>2024-10-15T12:01:06.000Z</time>
      </trkpt>
      <trkpt lat="45.0863" lon="5.97106">
        <ele>2164.8000488281</ele>
        <time>2024-10-15T12:01:07.000Z</time>
      </trkpt>
      <trkpt lat="45.0863" lon="5.97106">
        <ele>2164.6000976562</ele>
        <time>2024-10-15T12:01:08.000Z</time>
      </trkpt>
      <trkpt lat="45.08629" lon="5.97106">
        <ele>2164.6000976562</ele>
        <time>2024-10-15T12:01:09.000Z</time>
      </trkpt>
      <trkpt lat="45.08629" lon="5.97106">
        <ele>2164.3999023438</ele>
        <time>2024-10-15T12:01:10.000Z</time>
      </trkpt>
      <trkpt lat="45.08629" lon="5.97106">
        <ele>2164.3999023438</ele>
        <time>2024-10-15T12:01:11.000Z</time>
      </trkpt>
      <trkpt lat="45.08628" lon="5.97106">
        <ele>2164.1999511719</ele>
        <time>2024-10-15T12:01:12.000Z</time>
      </trkpt>
      <trkpt lat="45.08628" lon="5.97106">
        <ele>2163.6000976562</ele>
        <time>2024-10-15T12:01:13.000Z</time>
      </trkpt>
      <trkpt lat="45.08628" lon="5.97105">
        <ele>2163.3999023438</ele>
        <time>2024-10-15T12:01:14.000Z</time>
      </trkpt>
      <trkpt lat="45.08627" lon="5.97105">
        <ele>2163.3999023438</ele>
        <time>2024-10-15T12:01:15.000Z</time>
      </trkpt>
      <trkpt lat="45.08627" lon="5.97105">
        <ele>2163.1999511719</ele>
        <time>2024-10-15T12:01:16.000Z</time>
      </trkpt>
      <trkpt lat="45.08627" lon="5.97105">
        <ele>2163</ele>
        <time>2024-10-15T12:01:17.000Z</time>
      </trkpt>
      <trkpt lat="45.08627" lon="5.97104">
        <ele>2163</ele>
        <time>2024-10-15T12:01:18.000Z</time>
      </trkpt>
      <trkpt lat="45.08627" lon="5.97104">
        <ele>2163</ele>
        <time>2024-10-15T12:01:19.000Z</time>
      </trkpt>
      <trkpt lat="45.08626" lon="5.97104">
        <ele>2163</ele>
        <time>2024-10-15T12:01:20.000Z</time>
      </trkpt>
      <trkpt lat="45.08626" lon="5.97103">
        <ele>2163</ele>
        <time>2024-10-15T12:01:21.000Z</time>
      </trkpt>
      <trkpt lat="45.08626" lon="5.97103">
        <ele>2163</ele>
        <time>2024-10-15T12:01:22.000Z</time>
      </trkpt>
      <trkpt lat="45.08626" lon="5.97103">
        <ele>2163</ele>
        <time>2024-10-15T12:01:23.000Z</time>
      </trkpt>
      <trkpt lat="45.08626" lon="5.97102">
        <ele>2163</ele>
        <time>2024-10-15T12:01:24.000Z</time>
      </trkpt>
      <trkpt lat="45.08625" lon="5.97102">
        <ele>2163</ele>
        <time>2024-10-15T12:01:25.000Z</time>
      </trkpt>
      <trkpt lat="45.08625" lon="5.97102">
        <ele>2162.3999023438</ele>
        <time>2024-10-15T12:01:26.000Z</time>
      </trkpt>
      <trkpt lat="45.08625" lon="5.97102">
        <ele>2162</ele>
        <time>2024-10-15T12:01:27.000Z</time>
      </trkpt>
      <trkpt lat="45.08625" lon="5.97101">
        <ele>2161.1999511719</ele>
        <time>2024-10-15T12:01:28.000Z</time>
      </trkpt>
      <trkpt lat="45.08625" lon="5.97101">
        <ele>2161</ele>
        <time>2024-10-15T12:01:29.000Z</time>
      </trkpt>
      <trkpt lat="45.08624" lon="5.97101">
        <ele>2161</ele>
        <time>2024-10-15T12:01:30.000Z</time>
      </trkpt>
      <trkpt lat="45.08624" lon="5.97101">
        <ele>2161</ele>
        <time>2024-10-15T12:01:31.000Z</time>
      </trkpt>
      <trkpt lat="45.08624" lon="5.97101">
        <ele>2161</ele>
        <time>2024-10-15T12:01:32.000Z</time>
      </trkpt>
      <trkpt lat="45.08624" lon="5.97101">
        <ele>2161</ele>
        <time>2024-10-15T12:01:33.000Z</time>
      </trkpt>
      <trkpt lat="45.08624" lon="5.971">
        <ele>2161</ele>
        <time>2024-10-15T12:01:34.000Z</time>
      </trkpt>
      <trkpt lat="45.08624" lon="5.971">
        <ele>2161</ele>
        <time>2024-10-15T12:01:35.000Z</time>
      </trkpt>
      <trkpt lat="45.08624" lon="5.971">
        <ele>2160.8000488281</ele>
        <time>2024-10-15T12:01:36.000Z</time>
      </trkpt>
      <trkpt lat="45.08624" lon="5.971">
        <ele>2160.8000488281</ele>
        <time>2024-10-15T12:01:37.000Z</time>
      </trkpt>
      <trkpt lat="45.08624" lon="5.971">
        <ele>2159.8000488281</ele>
        <time>2024-10-15T12:01:38.000Z</time>
      </trkpt>
      <trkpt lat="45.08623" lon="5.971">
        <ele>2159.3999023438</ele>
        <time>2024-10-15T12:01:39.000Z</time>
      </trkpt>
      <trkpt lat="45.08623" lon="5.971">
        <ele>2158.8000488281</ele>
        <time>2024-10-15T12:01:40.000Z</time>
      </trkpt>
      <trkpt lat="45.08623" lon="5.971">
        <ele>2158.3999023438</ele>
        <time>2024-10-15T12:01:41.000Z</time>
      </trkpt>
      <trkpt lat="45.08623" lon="5.971">
        <ele>2158</ele>
        <time>2024-10-15T12:01:42.000Z</time>
      </trkpt>
      <trkpt lat="45.08623" lon="5.971">
        <ele>2157.8000488281</ele>
        <time>2024-10-15T12:01:43.000Z</time>
      </trkpt>
      <trkpt lat="45.08623" lon="5.971">
        <ele>2157.1999511719</ele>
        <time>2024-10-15T12:01:44.000Z</time>
      </trkpt>
      <trkpt lat="45.08623" lon="5.971">
        <ele>2157</ele>
        <time>2024-10-15T12:01:45.000Z</time>
      </trkpt>
      <trkpt lat="45.08623" lon="5.971">
        <ele>2157</ele>
        <time>2024-10-15T12:01:46.000Z</time>
      </trkpt>
      <trkpt lat="45.08623" lon="5.971">
        <ele>2156.8000488281</ele>
        <time>2024-10-15T12:01:47.000Z</time>
      </trkpt>
      <trkpt lat="45.08623" lon="5.971">
        <ele>2156.8000488281</ele>
        <time>2024-10-15T12:01:48.000Z</time>
      </trkpt>
      <trkpt lat="45.08623" lon="5.971">
        <ele>2156.8000488281</ele>
        <time>2024-10-15T12:01:49.000Z</time>
      </trkpt>
      <trkpt lat="45.08623" lon="5.971">
        <ele>2156.8000488281</ele>
        <time>2024-10-15T12:01:50.000Z</time>
      </trkpt>
      <trkpt lat="45.08623" lon="5.971">
        <ele>2156.8000488281</ele>
        <time>2024-10-15T12:01:51.000Z</time>
      </trkpt>
      <trkpt lat="45.08623" lon="5.971">
        <ele>2157</ele>
        <time>2024-10-15T12:01:52.000Z</time>
      </trkpt>
      <trkpt lat="45.08623" lon="5.971">
        <ele>2157.1999511719</ele>
        <time>2024-10-15T12:01:53.000Z</time>
      </trkpt>
      <trkpt lat="45.08623" lon="5.971">
        <ele>2157.6000976562</ele>
        <time>2024-10-15T12:01:54.000Z</time>
      </trkpt>
      <trkpt lat="45.08623" lon="5.971">
        <ele>2157.8000488281</ele>
        <time>2024-10-15T12:01:55.000Z</time>
      </trkpt>
      <trkpt lat="45.08623" lon="5.971">
        <ele>2157.8000488281</ele>
        <time>2024-10-15T12:01:56.000Z</time>
      </trkpt>
      <trkpt lat="45.08623" lon="5.971">
        <ele>2157.8000488281</ele>
        <time>2024-10-15T12:01:57.000Z</time>
      </trkpt>
      <trkpt lat="45.08623" lon="5.971">
        <ele>2157.8000488281</ele>
        <time>2024-10-15T12:01:58.000Z</time>
      </trkpt>
      <trkpt lat="45.08623" lon="5.971">
        <ele>2157.8000488281</ele>
        <time>2024-10-15T12:01:59.000Z</time>
      </trkpt>
      <trkpt lat="45.08623" lon="5.971">
        <ele>2157.8000488281</ele>
        <time>2024-10-15T12:02:00.000Z</time>
      </trkpt>
      <trkpt lat="45.08623" lon="5.971">
        <ele>2157.3999023438</ele>
        <time>2024-10-15T12:02:01.000Z</time>
      </trkpt>
      <trkpt lat="45.08623" lon="5.971">
        <ele>2157.1999511719</ele>
        <time>2024-10-15T12:02:02.000Z</time>
      </trkpt>
      <trkpt lat="45.08623" lon="5.971">
        <ele>2157</ele>
        <time>2024-10-15T12:02:03.000Z</time>
      </trkpt>
      <trkpt lat="45.08623" lon="5.971">
        <ele>2157</ele>
        <time>2024-10-15T12:02:04.000Z</time>
      </trkpt>
      <trkpt lat="45.08623" lon="5.971">
        <ele>2156.8000488281</ele>
        <time>2024-10-15T12:02:05.000Z</time>
      </trkpt>
      <trkpt lat="45.08623" lon="5.971">
        <ele>2156.8000488281</ele>
        <time>2024-10-15T12:02:06.000Z</time>
      </trkpt>
      <trkpt lat="45.08623" lon="5.971">
        <ele>2156.6000976562</ele>
        <time>2024-10-15T12:02:07.000Z</time>
      </trkpt>
      <trkpt lat="45.08623" lon="5.971">
        <ele>2156.3999023438</ele>
        <time>2024-10-15T12:02:08.000Z</time>
      </trkpt>
      <trkpt lat="45.08623" lon="5.971">
        <ele>2156.1999511719</ele>
        <time>2024-10-15T12:02:09.000Z</time>
      </trkpt>
      <trkpt lat="45.08623" lon="5.971">
        <ele>2156</ele>
        <time>2024-10-15T12:02:10.000Z</time>
      </trkpt>
      <trkpt lat="45.08623" lon="5.971">
        <ele>2155.1999511719</ele>
        <time>2024-10-15T12:02:11.000Z</time>
      </trkpt>
      <trkpt lat="45.08623" lon="5.971">
        <ele>2155</ele>
        <time>2024-10-15T12:02:12.000Z</time>
      </trkpt>
      <trkpt lat="45.08623" lon="5.971">
        <ele>2155</ele>
        <time>2024-10-15T12:02:13.000Z</time>
      </trkpt>
      <trkpt lat="45.08623" lon="5.971">
        <ele>2154.8000488281</ele>
        <time>2024-10-15T12:02:14.000Z</time>
      </trkpt>
      <trkpt lat="45.08623" lon="5.971">
        <ele>2154.1999511719</ele>
        <time>2024-10-15T12:02:15.000Z</time>
      </trkpt>
      <trkpt lat="45.08623" lon="5.971">
        <ele>2154</ele>
        <time>2024-10-15T12:02:16.000Z</time>
      </trkpt>
      <trkpt lat="45.08623" lon="5.971">
        <ele>2153.6000976562</ele>
        <time>2024-10-15T12:02:17.000Z</time>
      </trkpt>
      <trkpt lat="45.08623" lon="5.971">
        <ele>2153.1999511719</ele>
        <time>2024-10-15T12:02:18.000Z</time>
      </trkpt>
      <trkpt lat="45.08623" lon="5.971">
        <ele>2153.1999511719</ele>
        <time>2024-10-15T12:02:19.000Z</time>
      </trkpt>
      <trkpt lat="45.08623" lon="5.971">
        <ele>2153</ele>
        <time>2024-10-15T12:02:20.000Z</time>
      </trkpt>
      <trkpt lat="45.08623" lon="5.971">
        <ele>2152.8000488281</ele>
        <time>2024-10-15T12:02:21.000Z</time>
      </trkpt>
      <trkpt lat="45.08623" lon="5.971">
        <ele>2152.8000488281</ele>
        <time>2024-10-15T12:02:22.000Z</time>
      </trkpt>
      <trkpt lat="45.08623" lon="5.971">
        <ele>2152.6000976562</ele>
        <time>2024-10-15T12:02:23.000Z</time>
      </trkpt>
      <trkpt lat="45.08623" lon="5.971">
        <ele>2152.6000976562</ele>
        <time>2024-10-15T12:02:24.000Z</time>
      </trkpt>
      <trkpt lat="45.08623" lon="5.971">
        <ele>2152.6000976562</ele>
        <time>2024-10-15T12:02:25.000Z</time>
      </trkpt>
      <trkpt lat="45.08623" lon="5.971">
        <ele>2152.6000976562</ele>
        <time>2024-10-15T12:02:26.000Z</time>
      </trkpt>
      <trkpt lat="45.08623" lon="5.971">
        <ele>2152.8000488281</ele>
        <time>2024-10-15T12:02:27.000Z</time>
      </trkpt>
      <trkpt lat="45.08623" lon="5.971">
        <ele>2152.8000488281</ele>
        <time>2024-10-15T12:02:28.000Z</time>
      </trkpt>
      <trkpt lat="45.08623" lon="5.971">
        <ele>2152.6000976562</ele>
        <time>2024-10-15T12:02:29.000Z</time>
      </trkpt>
      <trkpt lat="45.08623" lon="5.971">
        <ele>2152.6000976562</ele>
        <time>2024-10-15T12:02:30.000Z</time>
      </trkpt>
      <trkpt lat="45.08623" lon="5.971">
        <ele>2152.3999023438</ele>
        <time>2024-10-15T12:02:31.000Z</time>
      </trkpt>
      <trkpt lat="45.08623" lon="5.971">
        <ele>2152.3999023438</ele>
        <time>2024-10-15T12:02:32.000Z</time>
      </trkpt>
      <trkpt lat="45.08623" lon="5.971">
        <ele>2152.3999023438</ele>
        <time>2024-10-15T12:02:33.000Z</time>
      </trkpt>
      <trkpt lat="45.08623" lon="5.971">
        <ele>2152.1999511719</ele>
        <time>2024-10-15T12:02:34.000Z</time>
      </trkpt>
      <trkpt lat="45.08623" lon="5.971">
        <ele>2152.1999511719</ele>
        <time>2024-10-15T12:02:35.000Z</time>
      </trkpt>
      <trkpt lat="45.08623" lon="5.971">
        <ele>2152.1999511719</ele>
        <time>2024-10-15T12:02:36.000Z</time>
      </trkpt>
      <trkpt lat="45.08623" lon="5.971">
        <ele>2152</ele>
        <time>2024-10-15T12:02:37.000Z</time>
      </trkpt>
      <trkpt lat="45.08623" lon="5.971">
        <ele>2152</ele>
        <time>2024-10-15T12:02:38.000Z</time>
      </trkpt>
      <trkpt lat="45.08623" lon="5.971">
        <ele>2152</ele>
        <time>2024-10-15T12:02:39.000Z</time>
      </trkpt>
      <trkpt lat="45.08622" lon="5.971">
        <ele>2152</ele>
        <time>2024-10-15T12:02:40.000Z</time>
      </trkpt>
      <trkpt lat="45.08622" lon="5.971">
        <ele>2152</ele>
        <time>2024-10-15T12:02:41.000Z</time>
      </trkpt>
      <trkpt lat="45.08622" lon="5.971">
        <ele>2152</ele>
        <time>2024-10-15T12:02:42.000Z</time>
      </trkpt>
      <trkpt lat="45.08622" lon="5.971">
        <ele>2151.8000488281</ele>
        <time>2024-10-15T12:02:43.000Z</time>
      </trkpt>
      <trkpt lat="45.08622" lon="5.971">
        <ele>2151.6000976562</ele>
        <time>2024-10-15T12:02:44.000Z</time>
      </trkpt>
      <trkpt lat="45.08622" lon="5.971">
        <ele>2151.3999023438</ele>
        <time>2024-10-15T12:02:45.000Z</time>
      </trkpt>
      <trkpt lat="45.08622" lon="5.971">
        <ele>2151.3999023438</ele>
        <time>2024-10-15T12:02:46.000Z</time>
      </trkpt>
      <trkpt lat="45.08622" lon="5.971">
        <ele>2151.1999511719</ele>
        <time>2024-10-15T12:02:47.000Z</time>
      </trkpt>
      <trkpt lat="45.08622" lon="5.971">
        <ele>2151.1999511719</ele>
        <time>2024-10-15T12:02:48.000Z</time>
      </trkpt>
      <trkpt lat="45.08622" lon="5.971">
        <ele>2151</ele>
        <time>2024-10-15T12:02:49.000Z</time>
      </trkpt>
      <trkpt lat="45.08622" lon="5.971">
        <ele>2150.8000488281</ele>
        <time>2024-10-15T12:02:50.000Z</time>
      </trkpt>
      <trkpt lat="45.08622" lon="5.971">
        <ele>2150.8000488281</ele>
        <time>2024-10-15T12:02:51.000Z</time>
      </trkpt>
      <trkpt lat="45.08622" lon="5.971">
        <ele>2150.8000488281</ele>
        <time>2024-10-15T12:02:52.000Z</time>
      </trkpt>
      <trkpt lat="45.08622" lon="5.971">
        <ele>2151</ele>
        <time>2024-10-15T12:02:53.000Z</time>
      </trkpt>
      <trkpt lat="45.08622" lon="5.971">
        <ele>2151</ele>
        <time>2024-10-15T12:02:54.000Z</time>
      </trkpt>
      <trkpt lat="45.08622" lon="5.971">
        <ele>2151</ele>
        <time>2024-10-15T12:02:55.000Z</time>
      </trkpt>
      <trkpt lat="45.08622" lon="5.971">
        <ele>2151</ele>
        <time>2024-10-15T12:02:56.000Z</time>
      </trkpt>
      <trkpt lat="45.08622" lon="5.971">
        <ele>2151</ele>
        <time>2024-10-15T12:02:57.000Z</time>
      </trkpt>
      <trkpt lat="45.08622" lon="5.971">
        <ele>2150.6000976562</ele>
        <time>2024-10-15T12:02:58.000Z</time>
      </trkpt>
      <trkpt lat="45.08622" lon="5.971">
        <ele>2150.6000976562</ele>
        <time>2024-10-15T12:02:59.000Z</time>
      </trkpt>
      <trkpt lat="45.08622" lon="5.97101">
        <ele>2150.6000976562</ele>
        <time>2024-10-15T12:03:00.000Z</time>
      </trkpt>
      <trkpt lat="45.08622" lon="5.97101">
        <ele>2150.3999023438</ele>
        <time>2024-10-15T12:03:01.000Z</time>
      </trkpt>
      <trkpt lat="45.08622" lon="5.97101">
        <ele>2150.3999023438</ele>
        <time>2024-10-15T12:03:02.000Z</time>
      </trkpt>
      <trkpt lat="45.08622" lon="5.97101">
        <ele>2150.1999511719</ele>
        <time>2024-10-15T12:03:03.000Z</time>
      </trkpt>
      <trkpt lat="45.08622" lon="5.97101">
        <ele>2150.1999511719</ele>
        <time>2024-10-15T12:03:04.000Z</time>
      </trkpt>
      <trkpt lat="45.08622" lon="5.97101">
        <ele>2150</ele>
        <time>2024-10-15T12:03:05.000Z</time>
      </trkpt>
      <trkpt lat="45.08622" lon="5.97101">
        <ele>2150</ele>
        <time>2024-10-15T12:03:06.000Z</time>
      </trkpt>
      <trkpt lat="45.08622" lon="5.97101">
        <ele>2150</ele>
        <time>2024-10-15T12:03:07.000Z</time>
      </trkpt>
      <trkpt lat="45.08622" lon="5.97101">
        <ele>2150</ele>
        <time>2024-10-15T12:03:08.000Z</time>
      </trkpt>
      <trkpt lat="45.08622" lon="5.97101">
        <ele>2149.8000488281</ele>
        <time>2024-10-15T12:03:09.000Z</time>
      </trkpt>
      <trkpt lat="45.08622" lon="5.97101">
        <ele>2150</ele>
        <time>2024-10-15T12:03:10.000Z</time>
      </trkpt>
      <trkpt lat="45.08622" lon="5.97101">
        <ele>2150</ele>
        <time>2024-10-15T12:03:11.000Z</time>
      </trkpt>
      <trkpt lat="45.08622" lon="5.97101">
        <ele>2150</ele>
        <time>2024-10-15T12:03:12.000Z</time>
      </trkpt>
      <trkpt lat="45.08622" lon="5.97101">
        <ele>2150</ele>
        <time>2024-10-15T12:03:13.000Z</time>
      </trkpt>
      <trkpt lat="45.08622" lon="5.97101">
        <ele>2150</ele>
        <time>2024-10-15T12:03:14.000Z</time>
      </trkpt>
      <trkpt lat="45.08622" lon="5.97101">
        <ele>2150</ele>
        <time>2024-10-15T12:03:15.000Z</time>
      </trkpt>
      <trkpt lat="45.08622" lon="5.97101">
        <ele>2150.1999511719</ele>
        <time>2024-10-15T12:03:16.000Z</time>
      </trkpt>
      <trkpt lat="45.08622" lon="5.97101">
        <ele>2150</ele>
        <time>2024-10-15T12:03:17.000Z</time>
      </trkpt>
      <trkpt lat="45.08622" lon="5.97101">
        <ele>2150</ele>
        <time>2024-10-15T12:03:18.000Z</time>
      </trkpt>
      <trkpt lat="45.08622" lon="5.97101">
        <ele>2149.8000488281</ele>
        <time>2024-10-15T12:03:19.000Z</time>
      </trkpt>
      <trkpt lat="45.08622" lon="5.97101">
        <ele>2149.6000976562</ele>
        <time>2024-10-15T12:03:20.000Z</time>
      </trkpt>
      <trkpt lat="45.08622" lon="5.97101">
        <ele>2149.3999023438</ele>
        <time>2024-10-15T12:03:21.000Z</time>
      </trkpt>
      <trkpt lat="45.08622" lon="5.97101">
        <ele>2149.3999023438</ele>
        <time>2024-10-15T12:03:22.000Z</time>
      </trkpt>
      <trkpt lat="45.08622" lon="5.97101">
        <ele>2149.1999511719</ele>
        <time>2024-10-15T12:03:23.000Z</time>
      </trkpt>
      <trkpt lat="45.08622" lon="5.97101">
        <ele>2149.1999511719</ele>
        <time>2024-10-15T12:03:24.000Z</time>
      </trkpt>
      <trkpt lat="45.08622" lon="5.97101">
        <ele>2149.1999511719</ele>
        <time>2024-10-15T12:03:25.000Z</time>
      </trkpt>
      <trkpt lat="45.08622" lon="5.97101">
        <ele>2149.1999511719</ele>
        <time>2024-10-15T12:03:26.000Z</time>
      </trkpt>
      <trkpt lat="45.08622" lon="5.97101">
        <ele>2149.3999023438</ele>
        <time>2024-10-15T12:03:27.000Z</time>
      </trkpt>
      <trkpt lat="45.08622" lon="5.97101">
        <ele>2149.3999023438</ele>
        <time>2024-10-15T12:03:28.000Z</time>
      </trkpt>
      <trkpt lat="45.08622" lon="5.97101">
        <ele>2149.3999023438</ele>
        <time>2024-10-15T12:03:29.000Z</time>
      </trkpt>
      <trkpt lat="45.08622" lon="5.97101">
        <ele>2149.3999023438</ele>
        <time>2024-10-15T12:03:30.000Z</time>
      </trkpt>
      <trkpt lat="45.08622" lon="5.97101">
        <ele>2149.3999023438</ele>
        <time>2024-10-15T12:03:31.000Z</time>
      </trkpt>
      <trkpt lat="45.08622" lon="5.97101">
        <ele>2149.3999023438</ele>
        <time>2024-10-15T12:03:32.000Z</time>
      </trkpt>
      <trkpt lat="45.08622" lon="5.97101">
        <ele>2149.3999023438</ele>
        <time>2024-10-15T12:03:33.000Z</time>
      </trkpt>
      <trkpt lat="45.08622" lon="5.97101">
        <ele>2149.3999023438</ele>
        <time>2024-10-15T12:03:34.000Z</time>
      </trkpt>
      <trkpt lat="45.08622" lon="5.97101">
        <ele>2149.3999023438</ele>
        <time>2024-10-15T12:03:35.000Z</time>
      </trkpt>
      <trkpt lat="45.08622" lon="5.97101">
        <ele>2149.3999023438</ele>
        <time>2024-10-15T12:03:36.000Z</time>
      </trkpt>
      <trkpt lat="45.08621" lon="5.97101">
        <ele>2149.1999511719</ele>
        <time>2024-10-15T12:03:37.000Z</time>
      </trkpt>
      <trkpt lat="45.08621" lon="5.97101">
        <ele>2149.1999511719</ele>
        <time>2024-10-15T12:03:38.000Z</time>
      </trkpt>
      <trkpt lat="45.08621" lon="5.97101">
        <ele>2149</ele>
        <time>2024-10-15T12:03:39.000Z</time>
      </trkpt>
      <trkpt lat="45.08621" lon="5.97101">
        <ele>2148.8000488281</ele>
        <time>2024-10-15T12:03:40.000Z</time>
      </trkpt>
      <trkpt lat="45.08621" lon="5.97101">
        <ele>2148.6000976562</ele>
        <time>2024-10-15T12:03:41.000Z</time>
      </trkpt>
      <trkpt lat="45.08621" lon="5.97101">
        <ele>2148.6000976562</ele>
        <time>2024-10-15T12:03:42.000Z</time>
      </trkpt>
      <trkpt lat="45.08621" lon="5.97101">
        <ele>2148.6000976562</ele>
        <time>2024-10-15T12:03:43.000Z</time>
      </trkpt>
      <trkpt lat="45.08621" lon="5.97101">
        <ele>2148.3999023438</ele>
        <time>2024-10-15T12:03:44.000Z</time>
      </trkpt>
      <trkpt lat="45.08621" lon="5.97101">
        <ele>2148.3999023438</ele>
        <time>2024-10-15T12:03:45.000Z</time>
      </trkpt>
      <trkpt lat="45.08621" lon="5.97101">
        <ele>2148</ele>
        <time>2024-10-15T12:03:46.000Z</time>
      </trkpt>
      <trkpt lat="45.08621" lon="5.97101">
        <ele>2147.6000976562</ele>
        <time>2024-10-15T12:03:47.000Z</time>
      </trkpt>
      <trkpt lat="45.08621" lon="5.97101">
        <ele>2147.3999023438</ele>
        <time>2024-10-15T12:03:48.000Z</time>
      </trkpt>
      <trkpt lat="45.08621" lon="5.97102">
        <ele>2147.1999511719</ele>
        <time>2024-10-15T12:03:49.000Z</time>
      </trkpt>
      <trkpt lat="45.08621" lon="5.97102">
        <ele>2146.8000488281</ele>
        <time>2024-10-15T12:03:50.000Z</time>
      </trkpt>
      <trkpt lat="45.08621" lon="5.97102">
        <ele>2146.1999511719</ele>
        <time>2024-10-15T12:03:51.000Z</time>
      </trkpt>
      <trkpt lat="45.08621" lon="5.97102">
        <ele>2145.6000976562</ele>
        <time>2024-10-15T12:03:52.000Z</time>
      </trkpt>
      <trkpt lat="45.08621" lon="5.97102">
        <ele>2145.1999511719</ele>
        <time>2024-10-15T12:03:53.000Z</time>
      </trkpt>
      <trkpt lat="45.08621" lon="5.97102">
        <ele>2144.8000488281</ele>
        <time>2024-10-15T12:03:54.000Z</time>
      </trkpt>
      <trkpt lat="45.08621" lon="5.97102">
        <ele>2144.1999511719</ele>
        <time>2024-10-15T12:03:55.000Z</time>
      </trkpt>
      <trkpt lat="45.08621" lon="5.97102">
        <ele>2143.6000976562</ele>
        <time>2024-10-15T12:03:56.000Z</time>
      </trkpt>
      <trkpt lat="45.08621" lon="5.97102">
        <ele>2143.3999023438</ele>
        <time>2024-10-15T12:03:57.000Z</time>
      </trkpt>
      <trkpt lat="45.08621" lon="5.97102">
        <ele>2142.8000488281</ele>
        <time>2024-10-15T12:03:58.000Z</time>
      </trkpt>
      <trkpt lat="45.08621" lon="5.97102">
        <ele>2142.1999511719</ele>
        <time>2024-10-15T12:03:59.000Z</time>
      </trkpt>
      <trkpt lat="45.08621" lon="5.97102">
        <ele>2141.8000488281</ele>
        <time>2024-10-15T12:04:00.000Z</time>
      </trkpt>
      <trkpt lat="45.08621" lon="5.97102">
        <ele>2141.1999511719</ele>
        <time>2024-10-15T12:04:01.000Z</time>
      </trkpt>
      <trkpt lat="45.08621" lon="5.97102">
        <ele>2141.1999511719</ele>
        <time>2024-10-15T12:04:02.000Z</time>
      </trkpt>
      <trkpt lat="45.08621" lon="5.97102">
        <ele>2141.1999511719</ele>
        <time>2024-10-15T12:04:03.000Z</time>
      </trkpt>
      <trkpt lat="45.08621" lon="5.97102">
        <ele>2141.1999511719</ele>
        <time>2024-10-15T12:04:04.000Z</time>
      </trkpt>
      <trkpt lat="45.08621" lon="5.97102">
        <ele>2141</ele>
        <time>2024-10-15T12:04:05.000Z</time>
      </trkpt>
      <trkpt lat="45.08621" lon="5.97102">
        <ele>2140.8000488281</ele>
        <time>2024-10-15T12:04:06.000Z</time>
      </trkpt>
      <trkpt lat="45.08621" lon="5.97102">
        <ele>2140.8000488281</ele>
        <time>2024-10-15T12:04:07.000Z</time>
      </trkpt>
      <trkpt lat="45.08621" lon="5.97102">
        <ele>2140.8000488281</ele>
        <time>2024-10-15T12:04:08.000Z</time>
      </trkpt>
      <trkpt lat="45.08621" lon="5.97102">
        <ele>2140.8000488281</ele>
        <time>2024-10-15T12:04:09.000Z</time>
      </trkpt>
      <trkpt lat="45.08621" lon="5.97102">
        <ele>2141</ele>
        <time>2024-10-15T12:04:10.000Z</time>
      </trkpt>
      <trkpt lat="45.08621" lon="5.97102">
        <ele>2141.1999511719</ele>
        <time>2024-10-15T12:04:11.000Z</time>
      </trkpt>
      <trkpt lat="45.08621" lon="5.97102">
        <ele>2141.1999511719</ele>
        <time>2024-10-15T12:04:12.000Z</time>
      </trkpt>
      <trkpt lat="45.08621" lon="5.97102">
        <ele>2141.1999511719</ele>
        <time>2024-10-15T12:04:13.000Z</time>
      </trkpt>
      <trkpt lat="45.08621" lon="5.97102">
        <ele>2141.3999023438</ele>
        <time>2024-10-15T12:04:14.000Z</time>
      </trkpt>
      <trkpt lat="45.08621" lon="5.97102">
        <ele>2141.3999023438</ele>
        <time>2024-10-15T12:04:15.000Z</time>
      </trkpt>
      <trkpt lat="45.08621" lon="5.97102">
        <ele>2141.3999023438</ele>
        <time>2024-10-15T12:04:16.000Z</time>
      </trkpt>
      <trkpt lat="45.08621" lon="5.97102">
        <ele>2141.3999023438</ele>
        <time>2024-10-15T12:04:17.000Z</time>
      </trkpt>
      <trkpt lat="45.08621" lon="5.97102">
        <ele>2141.3999023438</ele>
        <time>2024-10-15T12:04:18.000Z</time>
      </trkpt>
      <trkpt lat="45.08621" lon="5.97102">
        <ele>2141.6000976562</ele>
        <time>2024-10-15T12:04:19.000Z</time>
      </trkpt>
      <trkpt lat="45.08621" lon="5.97102">
        <ele>2141.6000976562</ele>
        <time>2024-10-15T12:04:20.000Z</time>
      </trkpt>
      <trkpt lat="45.08621" lon="5.97102">
        <ele>2141.3999023438</ele>
        <time>2024-10-15T12:04:21.000Z</time>
      </trkpt>
      <trkpt lat="45.0862" lon="5.97102">
        <ele>2141.3999023438</ele>
        <time>2024-10-15T12:04:22.000Z</time>
      </trkpt>
      <trkpt lat="45.0862" lon="5.97102">
        <ele>2141.1999511719</ele>
        <time>2024-10-15T12:04:23.000Z</time>
      </trkpt>
      <trkpt lat="45.0862" lon="5.97102">
        <ele>2141.1999511719</ele>
        <time>2024-10-15T12:04:24.000Z</time>
      </trkpt>
      <trkpt lat="45.0862" lon="5.97102">
        <ele>2141.1999511719</ele>
        <time>2024-10-15T12:04:25.000Z</time>
      </trkpt>
      <trkpt lat="45.0862" lon="5.97102">
        <ele>2141.1999511719</ele>
        <time>2024-10-15T12:04:26.000Z</time>
      </trkpt>
      <trkpt lat="45.0862" lon="5.97102">
        <ele>2141.1999511719</ele>
        <time>2024-10-15T12:04:27.000Z</time>
      </trkpt>
      <trkpt lat="45.0862" lon="5.97102">
        <ele>2141.1999511719</ele>
        <time>2024-10-15T12:04:28.000Z</time>
      </trkpt>
      <trkpt lat="45.0862" lon="5.97102">
        <ele>2141.1999511719</ele>
        <time>2024-10-15T12:04:29.000Z</time>
      </trkpt>
      <trkpt lat="45.0862" lon="5.97102">
        <ele>2141.3999023438</ele>
        <time>2024-10-15T12:04:30.000Z</time>
      </trkpt>
      <trkpt lat="45.0862" lon="5.97102">
        <ele>2141.3999023438</ele>
        <time>2024-10-15T12:04:31.000Z</time>
      </trkpt>
      <trkpt lat="45.0862" lon="5.97102">
        <ele>2141.3999023438</ele>
        <time>2024-10-15T12:04:32.000Z</time>
      </trkpt>
      <trkpt lat="45.0862" lon="5.97102">
        <ele>2141.6000976562</ele>
        <time>2024-10-15T12:04:33.000Z</time>
      </trkpt>
      <trkpt lat="45.0862" lon="5.97102">
        <ele>2141.8000488281</ele>
        <time>2024-10-15T12:04:34.000Z</time>
      </trkpt>
      <trkpt lat="45.0862" lon="5.97102">
        <ele>2142</ele>
        <time>2024-10-15T12:04:35.000Z</time>
      </trkpt>
      <trkpt lat="45.0862" lon="5.97102">
        <ele>2142.1999511719</ele>
        <time>2024-10-15T12:04:36.000Z</time>
      </trkpt>
      <trkpt lat="45.0862" lon="5.97102">
        <ele>2142.3999023438</ele>
        <time>2024-10-15T12:04:37.000Z</time>
      </trkpt>
      <trkpt lat="45.0862" lon="5.97102">
        <ele>2142.3999023438</ele>
        <time>2024-10-15T12:04:38.000Z</time>
      </trkpt>
      <trkpt lat="45.0862" lon="5.97102">
        <ele>2142.6000976562</ele>
        <time>2024-10-15T12:04:39.000Z</time>
      </trkpt>
      <trkpt lat="45.0862" lon="5.97102">
        <ele>2142.6000976562</ele>
        <time>2024-10-15T12:04:40.000Z</time>
      </trkpt>
      <trkpt lat="45.0862" lon="5.97102">
        <ele>2142.6000976562</ele>
        <time>2024-10-15T12:04:41.000Z</time>
      </trkpt>
      <trkpt lat="45.0862" lon="5.97102">
        <ele>2142.6000976562</ele>
        <time>2024-10-15T12:04:42.000Z</time>
      </trkpt>
      <trkpt lat="45.0862" lon="5.97102">
        <ele>2142.6000976562</ele>
        <time>2024-10-15T12:04:43.000Z</time>
      </trkpt>
      <trkpt lat="45.0862" lon="5.97102">
        <ele>2142.6000976562</ele>
        <time>2024-10-15T12:04:44.000Z</time>
      </trkpt>
      <trkpt lat="45.0862" lon="5.97102">
        <ele>2142.6000976562</ele>
        <time>2024-10-15T12:04:45.000Z</time>
      </trkpt>
      <trkpt lat="45.0862" lon="5.97102">
        <ele>2142.6000976562</ele>
        <time>2024-10-15T12:04:46.000Z</time>
      </trkpt>
      <trkpt lat="45.0862" lon="5.97102">
        <ele>2142.6000976562</ele>
        <time>2024-10-15T12:04:47.000Z</time>
      </trkpt>
      <trkpt lat="45.0862" lon="5.97102">
        <ele>2142.6000976562</ele>
        <time>2024-10-15T12:04:48.000Z</time>
      </trkpt>
      <trkpt lat="45.0862" lon="5.97102">
        <ele>2142.8000488281</ele>
        <time>2024-10-15T12:04:49.000Z</time>
      </trkpt>
      <trkpt lat="45.0862" lon="5.97102">
        <ele>2142.8000488281</ele>
        <time>2024-10-15T12:04:50.000Z</time>
      </trkpt>
      <trkpt lat="45.0862" lon="5.97102">
        <ele>2142.8000488281</ele>
        <time>2024-10-15T12:04:51.000Z</time>
      </trkpt>
      <trkpt lat="45.0862" lon="5.97102">
        <ele>2142.8000488281</ele>
        <time>2024-10-15T12:04:52.000Z</time>
      </trkpt>
      <trkpt lat="45.0862" lon="5.97102">
        <ele>2143.1999511719</ele>
        <time>2024-10-15T12:04:53.000Z</time>
      </trkpt>
      <trkpt lat="45.0862" lon="5.97102">
        <ele>2143.3999023438</ele>
        <time>2024-10-15T12:04:54.000Z</time>
      </trkpt>
      <trkpt lat="45.0862" lon="5.97102">
        <ele>2143.3999023438</ele>
        <time>2024-10-15T12:04:55.000Z</time>
      </trkpt>
      <trkpt lat="45.0862" lon="5.97102">
        <ele>2143.6000976562</ele>
        <time>2024-10-15T12:04:56.000Z</time>
      </trkpt>
      <trkpt lat="45.0862" lon="5.97102">
        <ele>2143.6000976562</ele>
        <time>2024-10-15T12:04:57.000Z</time>
      </trkpt>
      <trkpt lat="45.0862" lon="5.97102">
        <ele>2143.6000976562</ele>
        <time>2024-10-15T12:04:58.000Z</time>
      </trkpt>
      <trkpt lat="45.0862" lon="5.97102">
        <ele>2143.6000976562</ele>
        <time>2024-10-15T12:04:59.000Z</time>
      </trkpt>
      <trkpt lat="45.0862" lon="5.97102">
        <ele>2143.6000976562</ele>
        <time>2024-10-15T12:05:00.000Z</time>
      </trkpt>
      <trkpt lat="45.0862" lon="5.97102">
        <ele>2143.6000976562</ele>
        <time>2024-10-15T12:05:01.000Z</time>
      </trkpt>
      <trkpt lat="45.0862" lon="5.97102">
        <ele>2143.6000976562</ele>
        <time>2024-10-15T12:05:02.000Z</time>
      </trkpt>
      <trkpt lat="45.0862" lon="5.97102">
        <ele>2143.8000488281</ele>
        <time>2024-10-15T12:05:03.000Z</time>
      </trkpt>
      <trkpt lat="45.0862" lon="5.97102">
        <ele>2143.8000488281</ele>
        <time>2024-10-15T12:05:04.000Z</time>
      </trkpt>
      <trkpt lat="45.0862" lon="5.97102">
        <ele>2144</ele>
        <time>2024-10-15T12:05:05.000Z</time>
      </trkpt>
      <trkpt lat="45.0862" lon="5.97102">
        <ele>2144</ele>
        <time>2024-10-15T12:05:06.000Z</time>
      </trkpt>
      <trkpt lat="45.0862" lon="5.97102">
        <ele>2144.1999511719</ele>
        <time>2024-10-15T12:05:07.000Z</time>
      </trkpt>
      <trkpt lat="45.0862" lon="5.97102">
        <ele>2144.1999511719</ele>
        <time>2024-10-15T12:05:08.000Z</time>
      </trkpt>
      <trkpt lat="45.0862" lon="5.97102">
        <ele>2144.1999511719</ele>
        <time>2024-10-15T12:05:09.000Z</time>
      </trkpt>
      <trkpt lat="45.0862" lon="5.97102">
        <ele>2144.3999023438</ele>
        <time>2024-10-15T12:05:10.000Z</time>
      </trkpt>
      <trkpt lat="45.0862" lon="5.97102">
        <ele>2144.3999023438</ele>
        <time>2024-10-15T12:05:11.000Z</time>
      </trkpt>
      <trkpt lat="45.0862" lon="5.97102">
        <ele>2144.6000976562</ele>
        <time>2024-10-15T12:05:12.000Z</time>
      </trkpt>
      <trkpt lat="45.0862" lon="5.97102">
        <ele>2144.8000488281</ele>
        <time>2024-10-15T12:05:13.000Z</time>
      </trkpt>
      <trkpt lat="45.0862" lon="5.97103">
        <ele>2144.8000488281</ele>
        <time>2024-10-15T12:05:14.000Z</time>
      </trkpt>
      <trkpt lat="45.08619" lon="5.97103">
        <ele>2145</ele>
        <time>2024-10-15T12:05:15.000Z</time>
      </trkpt>
      <trkpt lat="45.08619" lon="5.97103">
        <ele>2145</ele>
        <time>2024-10-15T12:05:16.000Z</time>
      </trkpt>
      <trkpt lat="45.08619" lon="5.97103">
        <ele>2145</ele>
        <time>2024-10-15T12:05:17.000Z</time>
      </trkpt>
      <trkpt lat="45.08619" lon="5.97103">
        <ele>2145.1999511719</ele>
        <time>2024-10-15T12:05:18.000Z</time>
      </trkpt>
      <trkpt lat="45.08619" lon="5.97103">
        <ele>2145.1999511719</ele>
        <time>2024-10-15T12:05:19.000Z</time>
      </trkpt>
      <trkpt lat="45.08619" lon="5.97103">
        <ele>2145.3999023438</ele>
        <time>2024-10-15T12:05:20.000Z</time>
      </trkpt>
      <trkpt lat="45.08619" lon="5.97103">
        <ele>2145.3999023438</ele>
        <time>2024-10-15T12:05:21.000Z</time>
      </trkpt>
      <trkpt lat="45.08619" lon="5.97103">
        <ele>2145.6000976562</ele>
        <time>2024-10-15T12:05:22.000Z</time>
      </trkpt>
      <trkpt lat="45.08619" lon="5.97103">
        <ele>2145.6000976562</ele>
        <time>2024-10-15T12:05:23.000Z</time>
      </trkpt>
      <trkpt lat="45.08619" lon="5.97103">
        <ele>2145.8000488281</ele>
        <time>2024-10-15T12:05:24.000Z</time>
      </trkpt>
      <trkpt lat="45.08619" lon="5.97103">
        <ele>2145.8000488281</ele>
        <time>2024-10-15T12:05:25.000Z</time>
      </trkpt>
      <trkpt lat="45.08619" lon="5.97103">
        <ele>2146</ele>
        <time>2024-10-15T12:05:26.000Z</time>
      </trkpt>
      <trkpt lat="45.08619" lon="5.97103">
        <ele>2145.8000488281</ele>
        <time>2024-10-15T12:05:27.000Z</time>
      </trkpt>
      <trkpt lat="45.08619" lon="5.97103">
        <ele>2145.8000488281</ele>
        <time>2024-10-15T12:05:28.000Z</time>
      </trkpt>
      <trkpt lat="45.08619" lon="5.97103">
        <ele>2145.6000976562</ele>
        <time>2024-10-15T12:05:29.000Z</time>
      </trkpt>
      <trkpt lat="45.08619" lon="5.97103">
        <ele>2145.1999511719</ele>
        <time>2024-10-15T12:05:30.000Z</time>
      </trkpt>
      <trkpt lat="45.08619" lon="5.97103">
        <ele>2145.1999511719</ele>
        <time>2024-10-15T12:05:31.000Z</time>
      </trkpt>
      <trkpt lat="45.08619" lon="5.97103">
        <ele>2145.1999511719</ele>
        <time>2024-10-15T12:05:32.000Z</time>
      </trkpt>
      <trkpt lat="45.08619" lon="5.97103">
        <ele>2145.1999511719</ele>
        <time>2024-10-15T12:05:33.000Z</time>
      </trkpt>
      <trkpt lat="45.08619" lon="5.97103">
        <ele>2145.1999511719</ele>
        <time>2024-10-15T12:05:34.000Z</time>
      </trkpt>
      <trkpt lat="45.08619" lon="5.97103">
        <ele>2145.1999511719</ele>
        <time>2024-10-15T12:05:35.000Z</time>
      </trkpt>
      <trkpt lat="45.08619" lon="5.97103">
        <ele>2145.1999511719</ele>
        <time>2024-10-15T12:05:36.000Z</time>
      </trkpt>
      <trkpt lat="45.08619" lon="5.97103">
        <ele>2145.1999511719</ele>
        <time>2024-10-15T12:05:37.000Z</time>
      </trkpt>
      <trkpt lat="45.08619" lon="5.97103">
        <ele>2145</ele>
        <time>2024-10-15T12:05:38.000Z</time>
      </trkpt>
      <trkpt lat="45.08619" lon="5.97103">
        <ele>2145</ele>
        <time>2024-10-15T12:05:39.000Z</time>
      </trkpt>
      <trkpt lat="45.08619" lon="5.97103">
        <ele>2144.3999023438</ele>
        <time>2024-10-15T12:05:40.000Z</time>
      </trkpt>
      <trkpt lat="45.08619" lon="5.97103">
        <ele>2144.1999511719</ele>
        <time>2024-10-15T12:05:41.000Z</time>
      </trkpt>
      <trkpt lat="45.08619" lon="5.97103">
        <ele>2144.1999511719</ele>
        <time>2024-10-15T12:05:42.000Z</time>
      </trkpt>
      <trkpt lat="45.08619" lon="5.97103">
        <ele>2144.1999511719</ele>
        <time>2024-10-15T12:05:43.000Z</time>
      </trkpt>
      <trkpt lat="45.08619" lon="5.97103">
        <ele>2144.1999511719</ele>
        <time>2024-10-15T12:05:44.000Z</time>
      </trkpt>
      <trkpt lat="45.08619" lon="5.97103">
        <ele>2144.3999023438</ele>
        <time>2024-10-15T12:05:45.000Z</time>
      </trkpt>
      <trkpt lat="45.08619" lon="5.97103">
        <ele>2144.1999511719</ele>
        <time>2024-10-15T12:05:46.000Z</time>
      </trkpt>
      <trkpt lat="45.08619" lon="5.97103">
        <ele>2144</ele>
        <time>2024-10-15T12:05:47.000Z</time>
      </trkpt>
      <trkpt lat="45.08619" lon="5.97103">
        <ele>2144</ele>
        <time>2024-10-15T12:05:48.000Z</time>
      </trkpt>
      <trkpt lat="45.08619" lon="5.97103">
        <ele>2143.8000488281</ele>
        <time>2024-10-15T12:05:49.000Z</time>
      </trkpt>
      <trkpt lat="45.08619" lon="5.97103">
        <ele>2143.1999511719</ele>
        <time>2024-10-15T12:05:50.000Z</time>
      </trkpt>
      <trkpt lat="45.08619" lon="5.97103">
        <ele>2143</ele>
        <time>2024-10-15T12:05:51.000Z</time>
      </trkpt>
      <trkpt lat="45.08618" lon="5.97103">
        <ele>2142.8000488281</ele>
        <time>2024-10-15T12:05:52.000Z</time>
      </trkpt>
      <trkpt lat="45.08618" lon="5.97103">
        <ele>2142.8000488281</ele>
        <time>2024-10-15T12:05:53.000Z</time>
      </trkpt>
      <trkpt lat="45.08618" lon="5.97103">
        <ele>2142.8000488281</ele>
        <time>2024-10-15T12:05:54.000Z</time>
      </trkpt>
      <trkpt lat="45.08618" lon="5.97103">
        <ele>2142.8000488281</ele>
        <time>2024-10-15T12:05:55.000Z</time>
      </trkpt>
      <trkpt lat="45.08618" lon="5.97103">
        <ele>2142.6000976562</ele>
        <time>2024-10-15T12:05:56.000Z</time>
      </trkpt>
      <trkpt lat="45.08618" lon="5.97103">
        <ele>2142.3999023438</ele>
        <time>2024-10-15T12:05:57.000Z</time>
      </trkpt>
      <trkpt lat="45.08618" lon="5.97103">
        <ele>2142</ele>
        <time>2024-10-15T12:05:58.000Z</time>
      </trkpt>
      <trkpt lat="45.08618" lon="5.97103">
        <ele>2141.8000488281</ele>
        <time>2024-10-15T12:05:59.000Z</time>
      </trkpt>
      <trkpt lat="45.08618" lon="5.97103">
        <ele>2141.6000976562</ele>
        <time>2024-10-15T12:06:00.000Z</time>
      </trkpt>
      <trkpt lat="45.08618" lon="5.97103">
        <ele>2141.3999023438</ele>
        <time>2024-10-15T12:06:01.000Z</time>
      </trkpt>
      <trkpt lat="45.08618" lon="5.97103">
        <ele>2141.3999023438</ele>
        <time>2024-10-15T12:06:02.000Z</time>
      </trkpt>
      <trkpt lat="45.08618" lon="5.97103">
        <ele>2141</ele>
        <time>2024-10-15T12:06:03.000Z</time>
      </trkpt>
      <trkpt lat="45.08618" lon="5.97103">
        <ele>2141</ele>
        <time>2024-10-15T12:06:04.000Z</time>
      </trkpt>
      <trkpt lat="45.08618" lon="5.97103">
        <ele>2140.3999023438</ele>
        <time>2024-10-15T12:06:05.000Z</time>
      </trkpt>
      <trkpt lat="45.08618" lon="5.97103">
        <ele>2139.8000488281</ele>
        <time>2024-10-15T12:06:06.000Z</time>
      </trkpt>
      <trkpt lat="45.08618" lon="5.97103">
        <ele>2139.6000976562</ele>
        <time>2024-10-15T12:06:07.000Z</time>
      </trkpt>
      <trkpt lat="45.08618" lon="5.97103">
        <ele>2139.6000976562</ele>
        <time>2024-10-15T12:06:08.000Z</time>
      </trkpt>
      <trkpt lat="45.08618" lon="5.97103">
        <ele>2139.1999511719</ele>
        <time>2024-10-15T12:06:09.000Z</time>
      </trkpt>
      <trkpt lat="45.08618" lon="5.97103">
        <ele>2139.1999511719</ele>
        <time>2024-10-15T12:06:10.000Z</time>
      </trkpt>
      <trkpt lat="45.08618" lon="5.97103">
        <ele>2139.3999023438</ele>
        <time>2024-10-15T12:06:11.000Z</time>
      </trkpt>
      <trkpt lat="45.08618" lon="5.97103">
        <ele>2139.3999023438</ele>
        <time>2024-10-15T12:06:12.000Z</time>
      </trkpt>
      <trkpt lat="45.08618" lon="5.97103">
        <ele>2139.3999023438</ele>
        <time>2024-10-15T12:06:13.000Z</time>
      </trkpt>
      <trkpt lat="45.08618" lon="5.97103">
        <ele>2139.3999023438</ele>
        <time>2024-10-15T12:06:14.000Z</time>
      </trkpt>
      <trkpt lat="45.08618" lon="5.97103">
        <ele>2139.6000976562</ele>
        <time>2024-10-15T12:06:15.000Z</time>
      </trkpt>
      <trkpt lat="45.08618" lon="5.97103">
        <ele>2139.6000976562</ele>
        <time>2024-10-15T12:06:16.000Z</time>
      </trkpt>
      <trkpt lat="45.08618" lon="5.97103">
        <ele>2139.3999023438</ele>
        <time>2024-10-15T12:06:17.000Z</time>
      </trkpt>
      <trkpt lat="45.08618" lon="5.97103">
        <ele>2139.1999511719</ele>
        <time>2024-10-15T12:06:18.000Z</time>
      </trkpt>
      <trkpt lat="45.08618" lon="5.97103">
        <ele>2138.8000488281</ele>
        <time>2024-10-15T12:06:19.000Z</time>
      </trkpt>
      <trkpt lat="45.08618" lon="5.97103">
        <ele>2138.6000976562</ele>
        <time>2024-10-15T12:06:20.000Z</time>
      </trkpt>
      <trkpt lat="45.08615" lon="5.97102">
        <ele>2138.1999511719</ele>
        <time>2024-10-15T12:06:21.000Z</time>
      </trkpt>
      <trkpt lat="45.08611" lon="5.97099">
        <ele>2138.1999511719</ele>
        <time>2024-10-15T12:06:22.000Z</time>
      </trkpt>
      <trkpt lat="45.08608" lon="5.97097">
        <ele>2138</ele>
        <time>2024-10-15T12:06:23.000Z</time>
      </trkpt>
      <trkpt lat="45.08605" lon="5.97095">
        <ele>2138</ele>
        <time>2024-10-15T12:06:24.000Z</time>
      </trkpt>
      <trkpt lat="45.08602" lon="5.97094">
        <ele>2138</ele>
        <time>2024-10-15T12:06:25.000Z</time>
      </trkpt>
      <trkpt lat="45.08599" lon="5.97092">
        <ele>2138</ele>
        <time>2024-10-15T12:06:26.000Z</time>
      </trkpt>
      <trkpt lat="45.08596" lon="5.9709">
        <ele>2138</ele>
        <time>2024-10-15T12:06:27.000Z</time>
      </trkpt>
      <trkpt lat="45.08592" lon="5.97088">
        <ele>2137.6000976562</ele>
        <time>2024-10-15T12:06:28.000Z</time>
      </trkpt>
      <trkpt lat="45.08589" lon="5.97086">
        <ele>2137.1999511719</ele>
        <time>2024-10-15T12:06:29.000Z</time>
      </trkpt>
      <trkpt lat="45.08586" lon="5.97084">
        <ele>2137.1999511719</ele>
        <time>2024-10-15T12:06:30.000Z</time>
      </trkpt>
      <trkpt lat="45.08586" lon="5.97083">
        <ele>2137.1999511719</ele>
        <time>2024-10-15T12:06:31.000Z</time>
      </trkpt>
      <trkpt lat="45.08586" lon="5.97083">
        <ele>2137</ele>
        <time>2024-10-15T12:06:32.000Z</time>
      </trkpt>
      <trkpt lat="45.08586" lon="5.97083">
        <ele>2136.8000488281</ele>
        <time>2024-10-15T12:06:33.000Z</time>
      </trkpt>
      <trkpt lat="45.08585" lon="5.97082">
        <ele>2136.3999023438</ele>
        <time>2024-10-15T12:06:34.000Z</time>
      </trkpt>
      <trkpt lat="45.08585" lon="5.97082">
        <ele>2136.3999023438</ele>
        <time>2024-10-15T12:06:35.000Z</time>
      </trkpt>
      <trkpt lat="45.08585" lon="5.97082">
        <ele>2135.8000488281</ele>
        <time>2024-10-15T12:06:36.000Z</time>
      </trkpt>
      <trkpt lat="45.08584" lon="5.97082">
        <ele>2135.8000488281</ele>
        <time>2024-10-15T12:06:37.000Z</time>
      </trkpt>
      <trkpt lat="45.08584" lon="5.97082">
        <ele>2135.6000976562</ele>
        <time>2024-10-15T12:06:38.000Z</time>
      </trkpt>
      <trkpt lat="45.08584" lon="5.97082">
        <ele>2135.1999511719</ele>
        <time>2024-10-15T12:06:39.000Z</time>
      </trkpt>
      <trkpt lat="45.08584" lon="5.97082">
        <ele>2135</ele>
        <time>2024-10-15T12:06:40.000Z</time>
      </trkpt>
      <trkpt lat="45.08584" lon="5.97082">
        <ele>2134.8000488281</ele>
        <time>2024-10-15T12:06:41.000Z</time>
      </trkpt>
      <trkpt lat="45.08584" lon="5.97082">
        <ele>2134.8000488281</ele>
        <time>2024-10-15T12:06:42.000Z</time>
      </trkpt>
      <trkpt lat="45.08584" lon="5.97082">
        <ele>2134.6000976562</ele>
        <time>2024-10-15T12:06:43.000Z</time>
      </trkpt>
      <trkpt lat="45.08584" lon="5.97082">
        <ele>2134.3999023438</ele>
        <time>2024-10-15T12:06:44.000Z</time>
      </trkpt>
      <trkpt lat="45.08584" lon="5.97082">
        <ele>2134.1999511719</ele>
        <time>2024-10-15T12:06:45.000Z</time>
      </trkpt>
      <trkpt lat="45.08584" lon="5.97082">
        <ele>2134.1999511719</ele>
        <time>2024-10-15T12:06:46.000Z</time>
      </trkpt>
      <trkpt lat="45.08584" lon="5.97082">
        <ele>2134</ele>
        <time>2024-10-15T12:06:47.000Z</time>
      </trkpt>
      <trkpt lat="45.08584" lon="5.97082">
        <ele>2134</ele>
        <time>2024-10-15T12:06:48.000Z</time>
      </trkpt>
      <trkpt lat="45.08584" lon="5.97082">
        <ele>2134</ele>
        <time>2024-10-15T12:06:49.000Z</time>
      </trkpt>
      <trkpt lat="45.08584" lon="5.97082">
        <ele>2134</ele>
        <time>2024-10-15T12:06:50.000Z</time>
      </trkpt>
      <trkpt lat="45.08584" lon="5.97082">
        <ele>2134</ele>
        <time>2024-10-15T12:06:51.000Z</time>
      </trkpt>
      <trkpt lat="45.08584" lon="5.97082">
        <ele>2133.8000488281</ele>
        <time>2024-10-15T12:06:52.000Z</time>
      </trkpt>
      <trkpt lat="45.08584" lon="5.97082">
        <ele>2133.8000488281</ele>
        <time>2024-10-15T12:06:53.000Z</time>
      </trkpt>
      <trkpt lat="45.08584" lon="5.97082">
        <ele>2133.6000976562</ele>
        <time>2024-10-15T12:06:54.000Z</time>
      </trkpt>
      <trkpt lat="45.08584" lon="5.97082">
        <ele>2133.3999023438</ele>
        <time>2024-10-15T12:06:55.000Z</time>
      </trkpt>
      <trkpt lat="45.08584" lon="5.97082">
        <ele>2133.3999023438</ele>
        <time>2024-10-15T12:06:56.000Z</time>
      </trkpt>
      <trkpt lat="45.08584" lon="5.97082">
        <ele>2133.3999023438</ele>
        <time>2024-10-15T12:06:57.000Z</time>
      </trkpt>
      <trkpt lat="45.08584" lon="5.97082">
        <ele>2133.3999023438</ele>
        <time>2024-10-15T12:06:58.000Z</time>
      </trkpt>
      <trkpt lat="45.08584" lon="5.97082">
        <ele>2133.3999023438</ele>
        <time>2024-10-15T12:06:59.000Z</time>
      </trkpt>
      <trkpt lat="45.08584" lon="5.97082">
        <ele>2133.3999023438</ele>
        <time>2024-10-15T12:07:00.000Z</time>
      </trkpt>
      <trkpt lat="45.08584" lon="5.97082">
        <ele>2133.1999511719</ele>
        <time>2024-10-15T12:07:01.000Z</time>
      </trkpt>
      <trkpt lat="45.08584" lon="5.97082">
        <ele>2132.8000488281</ele>
        <time>2024-10-15T12:07:02.000Z</time>
      </trkpt>
      <trkpt lat="45.08584" lon="5.97082">
        <ele>2132.6000976562</ele>
        <time>2024-10-15T12:07:03.000Z</time>
      </trkpt>
      <trkpt lat="45.08584" lon="5.97082">
        <ele>2132.1999511719</ele>
        <time>2024-10-15T12:07:04.000Z</time>
      </trkpt>
      <trkpt lat="45.08584" lon="5.97082">
        <ele>2131.6000976562</ele>
        <time>2024-10-15T12:07:05.000Z</time>
      </trkpt>
      <trkpt lat="45.08584" lon="5.97082">
        <ele>2131.3999023438</ele>
        <time>2024-10-15T12:07:06.000Z</time>
      </trkpt>
      <trkpt lat="45.08584" lon="5.97082">
        <ele>2131.1999511719</ele>
        <time>2024-10-15T12:07:07.000Z</time>
      </trkpt>
      <trkpt lat="45.08584" lon="5.97082">
        <ele>2131</ele>
        <time>2024-10-15T12:07:08.000Z</time>
      </trkpt>
      <trkpt lat="45.08584" lon="5.97082">
        <ele>2130.6000976562</ele>
        <time>2024-10-15T12:07:09.000Z</time>
      </trkpt>
      <trkpt lat="45.08583" lon="5.97081">
        <ele>2130.1999511719</ele>
        <time>2024-10-15T12:07:10.000Z</time>
      </trkpt>
      <trkpt lat="45.08582" lon="5.97079">
        <ele>2130</ele>
        <time>2024-10-15T12:07:11.000Z</time>
      </trkpt>
      <trkpt lat="45.08581" lon="5.97077">
        <ele>2129.3999023438</ele>
        <time>2024-10-15T12:07:12.000Z</time>
      </trkpt>
      <trkpt lat="45.0858" lon="5.97075">
        <ele>2129.1999511719</ele>
        <time>2024-10-15T12:07:13.000Z</time>
      </trkpt>
      <trkpt lat="45.08579" lon="5.97074">
        <ele>2129.1999511719</ele>
        <time>2024-10-15T12:07:14.000Z</time>
      </trkpt>
      <trkpt lat="45.08578" lon="5.97072">
        <ele>2129</ele>
        <time>2024-10-15T12:07:15.000Z</time>
      </trkpt>
      <trkpt lat="45.08578" lon="5.97071">
        <ele>2129</ele>
        <time>2024-10-15T12:07:16.000Z</time>
      </trkpt>
      <trkpt lat="45.08576" lon="5.97069">
        <ele>2128.8000488281</ele>
        <time>2024-10-15T12:07:17.000Z</time>
      </trkpt>
      <trkpt lat="45.08575" lon="5.97068">
        <ele>2128.3999023438</ele>
        <time>2024-10-15T12:07:18.000Z</time>
      </trkpt>
      <trkpt lat="45.08574" lon="5.97066">
        <ele>2128</ele>
        <time>2024-10-15T12:07:19.000Z</time>
      </trkpt>
      <trkpt lat="45.08574" lon="5.97065">
        <ele>2127.6000976562</ele>
        <time>2024-10-15T12:07:20.000Z</time>
      </trkpt>
      <trkpt lat="45.08573" lon="5.97064">
        <ele>2127.6000976562</ele>
        <time>2024-10-15T12:07:21.000Z</time>
      </trkpt>
      <trkpt lat="45.08573" lon="5.97063">
        <ele>2127.1999511719</ele>
        <time>2024-10-15T12:07:22.000Z</time>
      </trkpt>
      <trkpt lat="45.08573" lon="5.97062">
        <ele>2127.1999511719</ele>
        <time>2024-10-15T12:07:23.000Z</time>
      </trkpt>
      <trkpt lat="45.08572" lon="5.97061">
        <ele>2126.8000488281</ele>
        <time>2024-10-15T12:07:24.000Z</time>
      </trkpt>
      <trkpt lat="45.08572" lon="5.97061">
        <ele>2126.6000976562</ele>
        <time>2024-10-15T12:07:25.000Z</time>
      </trkpt>
      <trkpt lat="45.08571" lon="5.9706">
        <ele>2126.3999023438</ele>
        <time>2024-10-15T12:07:26.000Z</time>
      </trkpt>
      <trkpt lat="45.08571" lon="5.9706">
        <ele>2126.1999511719</ele>
        <time>2024-10-15T12:07:27.000Z</time>
      </trkpt>
      <trkpt lat="45.0857" lon="5.97059">
        <ele>2126</ele>
        <time>2024-10-15T12:07:28.000Z</time>
      </trkpt>
      <trkpt lat="45.0857" lon="5.97059">
        <ele>2125.8000488281</ele>
        <time>2024-10-15T12:07:29.000Z</time>
      </trkpt>
      <trkpt lat="45.08569" lon="5.97058">
        <ele>2125.6000976562</ele>
        <time>2024-10-15T12:07:30.000Z</time>
      </trkpt>
      <trkpt lat="45.08568" lon="5.97058">
        <ele>2125.6000976562</ele>
        <time>2024-10-15T12:07:31.000Z</time>
      </trkpt>
      <trkpt lat="45.08568" lon="5.97057">
        <ele>2125.3999023438</ele>
        <time>2024-10-15T12:07:32.000Z</time>
      </trkpt>
      <trkpt lat="45.08567" lon="5.97056">
        <ele>2125.1999511719</ele>
        <time>2024-10-15T12:07:33.000Z</time>
      </trkpt>
      <trkpt lat="45.08567" lon="5.97055">
        <ele>2125</ele>
        <time>2024-10-15T12:07:34.000Z</time>
      </trkpt>
      <trkpt lat="45.08566" lon="5.97055">
        <ele>2124.6000976562</ele>
        <time>2024-10-15T12:07:35.000Z</time>
      </trkpt>
      <trkpt lat="45.08565" lon="5.97054">
        <ele>2124.3999023438</ele>
        <time>2024-10-15T12:07:36.000Z</time>
      </trkpt>
      <trkpt lat="45.08565" lon="5.97054">
        <ele>2124.3999023438</ele>
        <time>2024-10-15T12:07:37.000Z</time>
      </trkpt>
      <trkpt lat="45.08564" lon="5.97054">
        <ele>2124.1999511719</ele>
        <time>2024-10-15T12:07:38.000Z</time>
      </trkpt>
      <trkpt lat="45.08563" lon="5.97054">
        <ele>2124</ele>
        <time>2024-10-15T12:07:39.000Z</time>
      </trkpt>
      <trkpt lat="45.08563" lon="5.97053">
        <ele>2123.6000976562</ele>
        <time>2024-10-15T12:07:40.000Z</time>
      </trkpt>
      <trkpt lat="45.08562" lon="5.97052">
        <ele>2123.3999023438</ele>
        <time>2024-10-15T12:07:41.000Z</time>
      </trkpt>
      <trkpt lat="45.08561" lon="5.97051">
        <ele>2123</ele>
        <time>2024-10-15T12:07:42.000Z</time>
      </trkpt>
      <trkpt lat="45.08561" lon="5.97049">
        <ele>2122.3999023438</ele>
        <time>2024-10-15T12:07:43.000Z</time>
      </trkpt>
      <trkpt lat="45.0856" lon="5.97048">
        <ele>2122.1999511719</ele>
        <time>2024-10-15T12:07:44.000Z</time>
      </trkpt>
      <trkpt lat="45.0856" lon="5.97047">
        <ele>2122.1999511719</ele>
        <time>2024-10-15T12:07:45.000Z</time>
      </trkpt>
      <trkpt lat="45.08559" lon="5.97047">
        <ele>2122</ele>
        <time>2024-10-15T12:07:46.000Z</time>
      </trkpt>
      <trkpt lat="45.08558" lon="5.97047">
        <ele>2121.8000488281</ele>
        <time>2024-10-15T12:07:47.000Z</time>
      </trkpt>
      <trkpt lat="45.08558" lon="5.97046">
        <ele>2121.8000488281</ele>
        <time>2024-10-15T12:07:48.000Z</time>
      </trkpt>
      <trkpt lat="45.08557" lon="5.97046">
        <ele>2121.3999023438</ele>
        <time>2024-10-15T12:07:49.000Z</time>
      </trkpt>
      <trkpt lat="45.08556" lon="5.97046">
        <ele>2120.8000488281</ele>
        <time>2024-10-15T12:07:50.000Z</time>
      </trkpt>
      <trkpt lat="45.08556" lon="5.97045">
        <ele>2120.6000976562</ele>
        <time>2024-10-15T12:07:51.000Z</time>
      </trkpt>
      <trkpt lat="45.08555" lon="5.97044">
        <ele>2120.6000976562</ele>
        <time>2024-10-15T12:07:52.000Z</time>
      </trkpt>
      <trkpt lat="45.08554" lon="5.97043">
        <ele>2120.3999023438</ele>
        <time>2024-10-15T12:07:53.000Z</time>
      </trkpt>
      <trkpt lat="45.08553" lon="5.97043">
        <ele>2119.8000488281</ele>
        <time>2024-10-15T12:07:54.000Z</time>
      </trkpt>
      <trkpt lat="45.08552" lon="5.97042">
        <ele>2119.8000488281</ele>
        <time>2024-10-15T12:07:55.000Z</time>
      </trkpt>
      <trkpt lat="45.08551" lon="5.97041">
        <ele>2119.8000488281</ele>
        <time>2024-10-15T12:07:56.000Z</time>
      </trkpt>
      <trkpt lat="45.0855" lon="5.9704">
        <ele>2119.6000976562</ele>
        <time>2024-10-15T12:07:57.000Z</time>
      </trkpt>
      <trkpt lat="45.0855" lon="5.97039">
        <ele>2119.1999511719</ele>
        <time>2024-10-15T12:07:58.000Z</time>
      </trkpt>
      <trkpt lat="45.08549" lon="5.97039">
        <ele>2118.8000488281</ele>
        <time>2024-10-15T12:07:59.000Z</time>
      </trkpt>
      <trkpt lat="45.08548" lon="5.97038">
        <ele>2118.8000488281</ele>
        <time>2024-10-15T12:08:00.000Z</time>
      </trkpt>
      <trkpt lat="45.08547" lon="5.97038">
        <ele>2118.3999023438</ele>
        <time>2024-10-15T12:08:01.000Z</time>
      </trkpt>
      <trkpt lat="45.08546" lon="5.97037">
        <ele>2118.1999511719</ele>
        <time>2024-10-15T12:08:02.000Z</time>
      </trkpt>
      <trkpt lat="45.08546" lon="5.97036">
        <ele>2118</ele>
        <time>2024-10-15T12:08:03.000Z</time>
      </trkpt>
      <trkpt lat="45.08545" lon="5.97035">
        <ele>2118</ele>
        <time>2024-10-15T12:08:04.000Z</time>
      </trkpt>
      <trkpt lat="45.08544" lon="5.97034">
        <ele>2118</ele>
        <time>2024-10-15T12:08:05.000Z</time>
      </trkpt>
      <trkpt lat="45.08544" lon="5.97034">
        <ele>2117.8000488281</ele>
        <time>2024-10-15T12:08:06.000Z</time>
      </trkpt>
      <trkpt lat="45.08543" lon="5.97034">
        <ele>2117.6000976562</ele>
        <time>2024-10-15T12:08:07.000Z</time>
      </trkpt>
      <trkpt lat="45.08542" lon="5.97033">
        <ele>2117.1999511719</ele>
        <time>2024-10-15T12:08:08.000Z</time>
      </trkpt>
      <trkpt lat="45.08541" lon="5.97032">
        <ele>2116.8000488281</ele>
        <time>2024-10-15T12:08:09.000Z</time>
      </trkpt>
      <trkpt lat="45.0854" lon="5.97032">
        <ele>2116.6000976562</ele>
        <time>2024-10-15T12:08:10.000Z</time>
      </trkpt>
      <trkpt lat="45.0854" lon="5.97032">
        <ele>2116.3999023438</ele>
        <time>2024-10-15T12:08:11.000Z</time>
      </trkpt>
      <trkpt lat="45.08539" lon="5.97031">
        <ele>2116</ele>
        <time>2024-10-15T12:08:12.000Z</time>
      </trkpt>
      <trkpt lat="45.08538" lon="5.97031">
        <ele>2115.6000976562</ele>
        <time>2024-10-15T12:08:13.000Z</time>
      </trkpt>
      <trkpt lat="45.08537" lon="5.97031">
        <ele>2115.6000976562</ele>
        <time>2024-10-15T12:08:14.000Z</time>
      </trkpt>
      <trkpt lat="45.08536" lon="5.97031">
        <ele>2115.6000976562</ele>
        <time>2024-10-15T12:08:15.000Z</time>
      </trkpt>
      <trkpt lat="45.08535" lon="5.9703">
        <ele>2115.3999023438</ele>
        <time>2024-10-15T12:08:16.000Z</time>
      </trkpt>
      <trkpt lat="45.08534" lon="5.97029">
        <ele>2115.3999023438</ele>
        <time>2024-10-15T12:08:17.000Z</time>
      </trkpt>
      <trkpt lat="45.08533" lon="5.97027">
        <ele>2115.3999023438</ele>
        <time>2024-10-15T12:08:18.000Z</time>
      </trkpt>
      <trkpt lat="45.08533" lon="5.97027">
        <ele>2115.1999511719</ele>
        <time>2024-10-15T12:08:19.000Z</time>
      </trkpt>
      <trkpt lat="45.08532" lon="5.97026">
        <ele>2115.1999511719</ele>
        <time>2024-10-15T12:08:20.000Z</time>
      </trkpt>
      <trkpt lat="45.08531" lon="5.97025">
        <ele>2115.1999511719</ele>
        <time>2024-10-15T12:08:21.000Z</time>
      </trkpt>
      <trkpt lat="45.08531" lon="5.97024">
        <ele>2114.8000488281</ele>
        <time>2024-10-15T12:08:22.000Z</time>
      </trkpt>
      <trkpt lat="45.0853" lon="5.97024">
        <ele>2114.3999023438</ele>
        <time>2024-10-15T12:08:23.000Z</time>
      </trkpt>
      <trkpt lat="45.08529" lon="5.97023">
        <ele>2114</ele>
        <time>2024-10-15T12:08:24.000Z</time>
      </trkpt>
      <trkpt lat="45.08528" lon="5.97023">
        <ele>2113.8000488281</ele>
        <time>2024-10-15T12:08:25.000Z</time>
      </trkpt>
      <trkpt lat="45.08527" lon="5.97022">
        <ele>2113.3999023438</ele>
        <time>2024-10-15T12:08:26.000Z</time>
      </trkpt>
      <trkpt lat="45.08526" lon="5.97021">
        <ele>2113.1999511719</ele>
        <time>2024-10-15T12:08:27.000Z</time>
      </trkpt>
      <trkpt lat="45.08525" lon="5.9702">
        <ele>2112.8000488281</ele>
        <time>2024-10-15T12:08:28.000Z</time>
      </trkpt>
      <trkpt lat="45.08524" lon="5.97019">
        <ele>2112.3999023438</ele>
        <time>2024-10-15T12:08:29.000Z</time>
      </trkpt>
      <trkpt lat="45.08523" lon="5.97018">
        <ele>2111.8000488281</ele>
        <time>2024-10-15T12:08:30.000Z</time>
      </trkpt>
      <trkpt lat="45.08522" lon="5.97018">
        <ele>2111.6000976562</ele>
        <time>2024-10-15T12:08:31.000Z</time>
      </trkpt>
      <trkpt lat="45.08521" lon="5.97017">
        <ele>2111.1999511719</ele>
        <time>2024-10-15T12:08:32.000Z</time>
      </trkpt>
      <trkpt lat="45.0852" lon="5.97017">
        <ele>2111</ele>
        <time>2024-10-15T12:08:33.000Z</time>
      </trkpt>
      <trkpt lat="45.08519" lon="5.97016">
        <ele>2110.6000976562</ele>
        <time>2024-10-15T12:08:34.000Z</time>
      </trkpt>
      <trkpt lat="45.08518" lon="5.97015">
        <ele>2110.3999023438</ele>
        <time>2024-10-15T12:08:35.000Z</time>
      </trkpt>
      <trkpt lat="45.08517" lon="5.97014">
        <ele>2110</ele>
        <time>2024-10-15T12:08:36.000Z</time>
      </trkpt>
      <trkpt lat="45.08516" lon="5.97014">
        <ele>2109.8000488281</ele>
        <time>2024-10-15T12:08:37.000Z</time>
      </trkpt>
      <trkpt lat="45.08515" lon="5.97013">
        <ele>2109.6000976562</ele>
        <time>2024-10-15T12:08:38.000Z</time>
      </trkpt>
      <trkpt lat="45.08514" lon="5.97013">
        <ele>2109.6000976562</ele>
        <time>2024-10-15T12:08:39.000Z</time>
      </trkpt>
      <trkpt lat="45.08513" lon="5.97013">
        <ele>2109.3999023438</ele>
        <time>2024-10-15T12:08:40.000Z</time>
      </trkpt>
      <trkpt lat="45.08512" lon="5.97013">
        <ele>2109.1999511719</ele>
        <time>2024-10-15T12:08:41.000Z</time>
      </trkpt>
      <trkpt lat="45.08511" lon="5.97013">
        <ele>2109.1999511719</ele>
        <time>2024-10-15T12:08:42.000Z</time>
      </trkpt>
      <trkpt lat="45.0851" lon="5.97014">
        <ele>2109</ele>
        <time>2024-10-15T12:08:43.000Z</time>
      </trkpt>
      <trkpt lat="45.08509" lon="5.97014">
        <ele>2108.8000488281</ele>
        <time>2024-10-15T12:08:44.000Z</time>
      </trkpt>
      <trkpt lat="45.08509" lon="5.97015">
        <ele>2108.3999023438</ele>
        <time>2024-10-15T12:08:45.000Z</time>
      </trkpt>
      <trkpt lat="45.08508" lon="5.97015">
        <ele>2108</ele>
        <time>2024-10-15T12:08:46.000Z</time>
      </trkpt>
      <trkpt lat="45.08507" lon="5.97015">
        <ele>2107.6000976562</ele>
        <time>2024-10-15T12:08:47.000Z</time>
      </trkpt>
      <trkpt lat="45.08506" lon="5.97016">
        <ele>2107.1999511719</ele>
        <time>2024-10-15T12:08:48.000Z</time>
      </trkpt>
      <trkpt lat="45.08506" lon="5.97016">
        <ele>2107</ele>
        <time>2024-10-15T12:08:49.000Z</time>
      </trkpt>
      <trkpt lat="45.08505" lon="5.97016">
        <ele>2106.6000976562</ele>
        <time>2024-10-15T12:08:50.000Z</time>
      </trkpt>
      <trkpt lat="45.08504" lon="5.97016">
        <ele>2106.3999023438</ele>
        <time>2024-10-15T12:08:51.000Z</time>
      </trkpt>
      <trkpt lat="45.08503" lon="5.97017">
        <ele>2106.3999023438</ele>
        <time>2024-10-15T12:08:52.000Z</time>
      </trkpt>
      <trkpt lat="45.08502" lon="5.97016">
        <ele>2106</ele>
        <time>2024-10-15T12:08:53.000Z</time>
      </trkpt>
      <trkpt lat="45.08501" lon="5.97016">
        <ele>2105.8000488281</ele>
        <time>2024-10-15T12:08:54.000Z</time>
      </trkpt>
      <trkpt lat="45.08501" lon="5.97016">
        <ele>2105.3999023438</ele>
        <time>2024-10-15T12:08:55.000Z</time>
      </trkpt>
      <trkpt lat="45.085" lon="5.97016">
        <ele>2105.1999511719</ele>
        <time>2024-10-15T12:08:56.000Z</time>
      </trkpt>
      <trkpt lat="45.08499" lon="5.97016">
        <ele>2104.8000488281</ele>
        <time>2024-10-15T12:08:57.000Z</time>
      </trkpt>
      <trkpt lat="45.08499" lon="5.97016">
        <ele>2104.6000976562</ele>
        <time>2024-10-15T12:08:58.000Z</time>
      </trkpt>
      <trkpt lat="45.08498" lon="5.97017">
        <ele>2104.1999511719</ele>
        <time>2024-10-15T12:08:59.000Z</time>
      </trkpt>
      <trkpt lat="45.08497" lon="5.97018">
        <ele>2103.8000488281</ele>
        <time>2024-10-15T12:09:00.000Z</time>
      </trkpt>
      <trkpt lat="45.08497" lon="5.97018">
        <ele>2103.3999023438</ele>
        <time>2024-10-15T12:09:01.000Z</time>
      </trkpt>
      <trkpt lat="45.08497" lon="5.97019">
        <ele>2103</ele>
        <time>2024-10-15T12:09:02.000Z</time>
      </trkpt>
      <trkpt lat="45.08497" lon="5.9702">
        <ele>2102.6000976562</ele>
        <time>2024-10-15T12:09:03.000Z</time>
      </trkpt>
      <trkpt lat="45.08497" lon="5.97021">
        <ele>2102.3999023438</ele>
        <time>2024-10-15T12:09:04.000Z</time>
      </trkpt>
      <trkpt lat="45.08497" lon="5.97022">
        <ele>2102</ele>
        <time>2024-10-15T12:09:05.000Z</time>
      </trkpt>
      <trkpt lat="45.08496" lon="5.97023">
        <ele>2101.8000488281</ele>
        <time>2024-10-15T12:09:06.000Z</time>
      </trkpt>
      <trkpt lat="45.08495" lon="5.97023">
        <ele>2101.3999023438</ele>
        <time>2024-10-15T12:09:07.000Z</time>
      </trkpt>
      <trkpt lat="45.08494" lon="5.97023">
        <ele>2101.1999511719</ele>
        <time>2024-10-15T12:09:08.000Z</time>
      </trkpt>
      <trkpt lat="45.08494" lon="5.97022">
        <ele>2101</ele>
        <time>2024-10-15T12:09:09.000Z</time>
      </trkpt>
      <trkpt lat="45.08493" lon="5.97021">
        <ele>2100.8000488281</ele>
        <time>2024-10-15T12:09:10.000Z</time>
      </trkpt>
      <trkpt lat="45.08492" lon="5.9702">
        <ele>2100.3999023438</ele>
        <time>2024-10-15T12:09:11.000Z</time>
      </trkpt>
      <trkpt lat="45.08492" lon="5.97019">
        <ele>2100.1999511719</ele>
        <time>2024-10-15T12:09:12.000Z</time>
      </trkpt>
      <trkpt lat="45.08492" lon="5.97018">
        <ele>2100</ele>
        <time>2024-10-15T12:09:13.000Z</time>
      </trkpt>
      <trkpt lat="45.08491" lon="5.97018">
        <ele>2099.3999023438</ele>
        <time>2024-10-15T12:09:14.000Z</time>
      </trkpt>
      <trkpt lat="45.08491" lon="5.97017">
        <ele>2099.1999511719</ele>
        <time>2024-10-15T12:09:15.000Z</time>
      </trkpt>
      <trkpt lat="45.0849" lon="5.97016">
        <ele>2099</ele>
        <time>2024-10-15T12:09:16.000Z</time>
      </trkpt>
      <trkpt lat="45.0849" lon="5.97015">
        <ele>2098.3999023438</ele>
        <time>2024-10-15T12:09:17.000Z</time>
      </trkpt>
      <trkpt lat="45.0849" lon="5.97014">
        <ele>2098</ele>
        <time>2024-10-15T12:09:18.000Z</time>
      </trkpt>
      <trkpt lat="45.0849" lon="5.97013">
        <ele>2097.6000976562</ele>
        <time>2024-10-15T12:09:19.000Z</time>
      </trkpt>
      <trkpt lat="45.08489" lon="5.97013">
        <ele>2097.1999511719</ele>
        <time>2024-10-15T12:09:20.000Z</time>
      </trkpt>
      <trkpt lat="45.08489" lon="5.97013">
        <ele>2096.8000488281</ele>
        <time>2024-10-15T12:09:21.000Z</time>
      </trkpt>
      <trkpt lat="45.08488" lon="5.97013">
        <ele>2096.6000976562</ele>
        <time>2024-10-15T12:09:22.000Z</time>
      </trkpt>
      <trkpt lat="45.08487" lon="5.97014">
        <ele>2096.1999511719</ele>
        <time>2024-10-15T12:09:23.000Z</time>
      </trkpt>
      <trkpt lat="45.08486" lon="5.97014">
        <ele>2095.8000488281</ele>
        <time>2024-10-15T12:09:24.000Z</time>
      </trkpt>
      <trkpt lat="45.08485" lon="5.97013">
        <ele>2095.3999023438</ele>
        <time>2024-10-15T12:09:25.000Z</time>
      </trkpt>
      <trkpt lat="45.08485" lon="5.97013">
        <ele>2095</ele>
        <time>2024-10-15T12:09:26.000Z</time>
      </trkpt>
      <trkpt lat="45.08485" lon="5.97013">
        <ele>2094.6000976562</ele>
        <time>2024-10-15T12:09:27.000Z</time>
      </trkpt>
      <trkpt lat="45.08484" lon="5.97013">
        <ele>2094.1999511719</ele>
        <time>2024-10-15T12:09:28.000Z</time>
      </trkpt>
      <trkpt lat="45.08484" lon="5.97013">
        <ele>2093.8000488281</ele>
        <time>2024-10-15T12:09:29.000Z</time>
      </trkpt>
      <trkpt lat="45.08483" lon="5.97013">
        <ele>2093.8000488281</ele>
        <time>2024-10-15T12:09:30.000Z</time>
      </trkpt>
      <trkpt lat="45.08482" lon="5.97013">
        <ele>2093.3999023438</ele>
        <time>2024-10-15T12:09:31.000Z</time>
      </trkpt>
      <trkpt lat="45.08481" lon="5.97012">
        <ele>2093</ele>
        <time>2024-10-15T12:09:32.000Z</time>
      </trkpt>
      <trkpt lat="45.08481" lon="5.97011">
        <ele>2092.6000976562</ele>
        <time>2024-10-15T12:09:33.000Z</time>
      </trkpt>
      <trkpt lat="45.0848" lon="5.9701">
        <ele>2092.3999023438</ele>
        <time>2024-10-15T12:09:34.000Z</time>
      </trkpt>
      <trkpt lat="45.08479" lon="5.9701">
        <ele>2092.1999511719</ele>
        <time>2024-10-15T12:09:35.000Z</time>
      </trkpt>
      <trkpt lat="45.08479" lon="5.97009">
        <ele>2092</ele>
        <time>2024-10-15T12:09:36.000Z</time>
      </trkpt>
      <trkpt lat="45.08478" lon="5.97008">
        <ele>2091.6000976562</ele>
        <time>2024-10-15T12:09:37.000Z</time>
      </trkpt>
      <trkpt lat="45.08477" lon="5.97008">
        <ele>2091.1999511719</ele>
        <time>2024-10-15T12:09:38.000Z</time>
      </trkpt>
      <trkpt lat="45.08477" lon="5.97008">
        <ele>2090.8000488281</ele>
        <time>2024-10-15T12:09:39.000Z</time>
      </trkpt>
      <trkpt lat="45.08476" lon="5.97008">
        <ele>2090.1999511719</ele>
        <time>2024-10-15T12:09:40.000Z</time>
      </trkpt>
      <trkpt lat="45.08475" lon="5.97009">
        <ele>2090</ele>
        <time>2024-10-15T12:09:41.000Z</time>
      </trkpt>
      <trkpt lat="45.08474" lon="5.97008">
        <ele>2089.6000976562</ele>
        <time>2024-10-15T12:09:42.000Z</time>
      </trkpt>
      <trkpt lat="45.08473" lon="5.97008">
        <ele>2089.3999023438</ele>
        <time>2024-10-15T12:09:43.000Z</time>
      </trkpt>
      <trkpt lat="45.08472" lon="5.97008">
        <ele>2089</ele>
        <time>2024-10-15T12:09:44.000Z</time>
      </trkpt>
      <trkpt lat="45.08471" lon="5.97007">
        <ele>2088.6000976562</ele>
        <time>2024-10-15T12:09:45.000Z</time>
      </trkpt>
      <trkpt lat="45.08471" lon="5.97007">
        <ele>2088.3999023438</ele>
        <time>2024-10-15T12:09:46.000Z</time>
      </trkpt>
      <trkpt lat="45.0847" lon="5.97006">
        <ele>2088</ele>
        <time>2024-10-15T12:09:47.000Z</time>
      </trkpt>
      <trkpt lat="45.08469" lon="5.97006">
        <ele>2087.6000976562</ele>
        <time>2024-10-15T12:09:48.000Z</time>
      </trkpt>
      <trkpt lat="45.08468" lon="5.97005">
        <ele>2087.1999511719</ele>
        <time>2024-10-15T12:09:49.000Z</time>
      </trkpt>
      <trkpt lat="45.08468" lon="5.97005">
        <ele>2086.8000488281</ele>
        <time>2024-10-15T12:09:50.000Z</time>
      </trkpt>
      <trkpt lat="45.08467" lon="5.97005">
        <ele>2086.6000976562</ele>
        <time>2024-10-15T12:09:51.000Z</time>
      </trkpt>
      <trkpt lat="45.08466" lon="5.97005">
        <ele>2086.1999511719</ele>
        <time>2024-10-15T12:09:52.000Z</time>
      </trkpt>
      <trkpt lat="45.08465" lon="5.97005">
        <ele>2086</ele>
        <time>2024-10-15T12:09:53.000Z</time>
      </trkpt>
      <trkpt lat="45.08464" lon="5.97005">
        <ele>2085.8000488281</ele>
        <time>2024-10-15T12:09:54.000Z</time>
      </trkpt>
      <trkpt lat="45.08463" lon="5.97005">
        <ele>2085.3999023438</ele>
        <time>2024-10-15T12:09:55.000Z</time>
      </trkpt>
      <trkpt lat="45.08462" lon="5.97005">
        <ele>2085.1999511719</ele>
        <time>2024-10-15T12:09:56.000Z</time>
      </trkpt>
      <trkpt lat="45.08461" lon="5.97005">
        <ele>2085</ele>
        <time>2024-10-15T12:09:57.000Z</time>
      </trkpt>
      <trkpt lat="45.0846" lon="5.97005">
        <ele>2084.8000488281</ele>
        <time>2024-10-15T12:09:58.000Z</time>
      </trkpt>
      <trkpt lat="45.08459" lon="5.97005">
        <ele>2084.6000976562</ele>
        <time>2024-10-15T12:09:59.000Z</time>
      </trkpt>
      <trkpt lat="45.08458" lon="5.97006">
        <ele>2084.3999023438</ele>
        <time>2024-10-15T12:10:00.000Z</time>
      </trkpt>
      <trkpt lat="45.08457" lon="5.97006">
        <ele>2084.1999511719</ele>
        <time>2024-10-15T12:10:01.000Z</time>
      </trkpt>
      <trkpt lat="45.08456" lon="5.97006">
        <ele>2084</ele>
        <time>2024-10-15T12:10:02.000Z</time>
      </trkpt>
      <trkpt lat="45.08456" lon="5.97007">
        <ele>2083.8000488281</ele>
        <time>2024-10-15T12:10:03.000Z</time>
      </trkpt>
      <trkpt lat="45.08455" lon="5.97008">
        <ele>2083.3999023438</ele>
        <time>2024-10-15T12:10:04.000Z</time>
      </trkpt>
      <trkpt lat="45.08454" lon="5.97008">
        <ele>2083</ele>
        <time>2024-10-15T12:10:05.000Z</time>
      </trkpt>
      <trkpt lat="45.08453" lon="5.97009">
        <ele>2082.6000976562</ele>
        <time>2024-10-15T12:10:06.000Z</time>
      </trkpt>
      <trkpt lat="45.08452" lon="5.97009">
        <ele>2082.1999511719</ele>
        <time>2024-10-15T12:10:07.000Z</time>
      </trkpt>
      <trkpt lat="45.08451" lon="5.9701">
        <ele>2082</ele>
        <time>2024-10-15T12:10:08.000Z</time>
      </trkpt>
      <trkpt lat="45.08451" lon="5.9701">
        <ele>2081.6000976562</ele>
        <time>2024-10-15T12:10:09.000Z</time>
      </trkpt>
      <trkpt lat="45.0845" lon="5.97011">
        <ele>2081.1999511719</ele>
        <time>2024-10-15T12:10:10.000Z</time>
      </trkpt>
      <trkpt lat="45.08449" lon="5.97011">
        <ele>2080.8000488281</ele>
        <time>2024-10-15T12:10:11.000Z</time>
      </trkpt>
      <trkpt lat="45.08448" lon="5.97011">
        <ele>2080.3999023438</ele>
        <time>2024-10-15T12:10:12.000Z</time>
      </trkpt>
      <trkpt lat="45.08447" lon="5.97012">
        <ele>2080</ele>
        <time>2024-10-15T12:10:13.000Z</time>
      </trkpt>
      <trkpt lat="45.08447" lon="5.97012">
        <ele>2079.8000488281</ele>
        <time>2024-10-15T12:10:14.000Z</time>
      </trkpt>
      <trkpt lat="45.08446" lon="5.97012">
        <ele>2079.6000976562</ele>
        <time>2024-10-15T12:10:15.000Z</time>
      </trkpt>
      <trkpt lat="45.08445" lon="5.97012">
        <ele>2079.3999023438</ele>
        <time>2024-10-15T12:10:16.000Z</time>
      </trkpt>
      <trkpt lat="45.08445" lon="5.97013">
        <ele>2079</ele>
        <time>2024-10-15T12:10:17.000Z</time>
      </trkpt>
      <trkpt lat="45.08444" lon="5.97014">
        <ele>2078.8000488281</ele>
        <time>2024-10-15T12:10:18.000Z</time>
      </trkpt>
      <trkpt lat="45.08444" lon="5.97015">
        <ele>2078.3999023438</ele>
        <time>2024-10-15T12:10:19.000Z</time>
      </trkpt>
      <trkpt lat="45.08443" lon="5.97016">
        <ele>2078.1999511719</ele>
        <time>2024-10-15T12:10:20.000Z</time>
      </trkpt>
      <trkpt lat="45.08443" lon="5.97016">
        <ele>2078</ele>
        <time>2024-10-15T12:10:21.000Z</time>
      </trkpt>
      <trkpt lat="45.08442" lon="5.97017">
        <ele>2077.8000488281</ele>
        <time>2024-10-15T12:10:22.000Z</time>
      </trkpt>
      <trkpt lat="45.08441" lon="5.97018">
        <ele>2077.3999023438</ele>
        <time>2024-10-15T12:10:23.000Z</time>
      </trkpt>
      <trkpt lat="45.0844" lon="5.97018">
        <ele>2077.1999511719</ele>
        <time>2024-10-15T12:10:24.000Z</time>
      </trkpt>
      <trkpt lat="45.0844" lon="5.97019">
        <ele>2076.8000488281</ele>
        <time>2024-10-15T12:10:25.000Z</time>
      </trkpt>
      <trkpt lat="45.08439" lon="5.9702">
        <ele>2076.3999023438</ele>
        <time>2024-10-15T12:10:26.000Z</time>
      </trkpt>
      <trkpt lat="45.08439" lon="5.97021">
        <ele>2076</ele>
        <time>2024-10-15T12:10:27.000Z</time>
      </trkpt>
      <trkpt lat="45.08438" lon="5.97021">
        <ele>2075.6000976562</ele>
        <time>2024-10-15T12:10:28.000Z</time>
      </trkpt>
      <trkpt lat="45.08437" lon="5.97022">
        <ele>2075</ele>
        <time>2024-10-15T12:10:29.000Z</time>
      </trkpt>
      <trkpt lat="45.08437" lon="5.97022">
        <ele>2074.8000488281</ele>
        <time>2024-10-15T12:10:30.000Z</time>
      </trkpt>
      <trkpt lat="45.08436" lon="5.97022">
        <ele>2074.6000976562</ele>
        <time>2024-10-15T12:10:31.000Z</time>
      </trkpt>
      <trkpt lat="45.08435" lon="5.97022">
        <ele>2074.1999511719</ele>
        <time>2024-10-15T12:10:32.000Z</time>
      </trkpt>
      <trkpt lat="45.08434" lon="5.97023">
        <ele>2074</ele>
        <time>2024-10-15T12:10:33.000Z</time>
      </trkpt>
      <trkpt lat="45.08434" lon="5.97023">
        <ele>2073.6000976562</ele>
        <time>2024-10-15T12:10:34.000Z</time>
      </trkpt>
      <trkpt lat="45.08433" lon="5.97024">
        <ele>2073.3999023438</ele>
        <time>2024-10-15T12:10:35.000Z</time>
      </trkpt>
      <trkpt lat="45.08432" lon="5.97024">
        <ele>2073.1999511719</ele>
        <time>2024-10-15T12:10:36.000Z</time>
      </trkpt>
      <trkpt lat="45.08432" lon="5.97024">
        <ele>2072.8000488281</ele>
        <time>2024-10-15T12:10:37.000Z</time>
      </trkpt>
      <trkpt lat="45.08432" lon="5.97025">
        <ele>2072.6000976562</ele>
        <time>2024-10-15T12:10:38.000Z</time>
      </trkpt>
      <trkpt lat="45.08431" lon="5.97026">
        <ele>2072.1999511719</ele>
        <time>2024-10-15T12:10:39.000Z</time>
      </trkpt>
      <trkpt lat="45.08431" lon="5.97027">
        <ele>2072</ele>
        <time>2024-10-15T12:10:40.000Z</time>
      </trkpt>
      <trkpt lat="45.0843" lon="5.97027">
        <ele>2071.8000488281</ele>
        <time>2024-10-15T12:10:41.000Z</time>
      </trkpt>
      <trkpt lat="45.0843" lon="5.97028">
        <ele>2071.6000976562</ele>
        <time>2024-10-15T12:10:42.000Z</time>
      </trkpt>
      <trkpt lat="45.08429" lon="5.97029">
        <ele>2071.1999511719</ele>
        <time>2024-10-15T12:10:43.000Z</time>
      </trkpt>
      <trkpt lat="45.08429" lon="5.9703">
        <ele>2070.6000976562</ele>
        <time>2024-10-15T12:10:44.000Z</time>
      </trkpt>
      <trkpt lat="45.08428" lon="5.97031">
        <ele>2070.1999511719</ele>
        <time>2024-10-15T12:10:45.000Z</time>
      </trkpt>
      <trkpt lat="45.08427" lon="5.97032">
        <ele>2070</ele>
        <time>2024-10-15T12:10:46.000Z</time>
      </trkpt>
      <trkpt lat="45.08427" lon="5.97033">
        <ele>2069.6000976562</ele>
        <time>2024-10-15T12:10:47.000Z</time>
      </trkpt>
      <trkpt lat="45.08427" lon="5.97033">
        <ele>2069.6000976562</ele>
        <time>2024-10-15T12:10:48.000Z</time>
      </trkpt>
      <trkpt lat="45.08426" lon="5.97035">
        <ele>2069.1999511719</ele>
        <time>2024-10-15T12:10:49.000Z</time>
      </trkpt>
      <trkpt lat="45.08425" lon="5.97035">
        <ele>2068.8000488281</ele>
        <time>2024-10-15T12:10:50.000Z</time>
      </trkpt>
      <trkpt lat="45.08425" lon="5.97036">
        <ele>2068.3999023438</ele>
        <time>2024-10-15T12:10:51.000Z</time>
      </trkpt>
      <trkpt lat="45.08424" lon="5.97036">
        <ele>2068.3999023438</ele>
        <time>2024-10-15T12:10:52.000Z</time>
      </trkpt>
      <trkpt lat="45.08423" lon="5.97035">
        <ele>2068.1999511719</ele>
        <time>2024-10-15T12:10:53.000Z</time>
      </trkpt>
      <trkpt lat="45.08422" lon="5.97035">
        <ele>2068</ele>
        <time>2024-10-15T12:10:54.000Z</time>
      </trkpt>
      <trkpt lat="45.08421" lon="5.97036">
        <ele>2067.8000488281</ele>
        <time>2024-10-15T12:10:55.000Z</time>
      </trkpt>
      <trkpt lat="45.0842" lon="5.97036">
        <ele>2067.6000976562</ele>
        <time>2024-10-15T12:10:56.000Z</time>
      </trkpt>
      <trkpt lat="45.08419" lon="5.97037">
        <ele>2067.3999023438</ele>
        <time>2024-10-15T12:10:57.000Z</time>
      </trkpt>
      <trkpt lat="45.08418" lon="5.97039">
        <ele>2067.1999511719</ele>
        <time>2024-10-15T12:10:58.000Z</time>
      </trkpt>
      <trkpt lat="45.08417" lon="5.9704">
        <ele>2067</ele>
        <time>2024-10-15T12:10:59.000Z</time>
      </trkpt>
      <trkpt lat="45.08417" lon="5.97041">
        <ele>2066.8000488281</ele>
        <time>2024-10-15T12:11:00.000Z</time>
      </trkpt>
      <trkpt lat="45.08416" lon="5.97042">
        <ele>2066.8000488281</ele>
        <time>2024-10-15T12:11:01.000Z</time>
      </trkpt>
      <trkpt lat="45.08416" lon="5.97043">
        <ele>2066.8000488281</ele>
        <time>2024-10-15T12:11:02.000Z</time>
      </trkpt>
      <trkpt lat="45.08415" lon="5.97044">
        <ele>2066.8000488281</ele>
        <time>2024-10-15T12:11:03.000Z</time>
      </trkpt>
      <trkpt lat="45.08414" lon="5.97045">
        <ele>2066.8000488281</ele>
        <time>2024-10-15T12:11:04.000Z</time>
      </trkpt>
      <trkpt lat="45.08414" lon="5.97046">
        <ele>2066.8000488281</ele>
        <time>2024-10-15T12:11:05.000Z</time>
      </trkpt>
      <trkpt lat="45.08414" lon="5.97047">
        <ele>2066.6000976562</ele>
        <time>2024-10-15T12:11:06.000Z</time>
      </trkpt>
      <trkpt lat="45.08414" lon="5.97048">
        <ele>2066.6000976562</ele>
        <time>2024-10-15T12:11:07.000Z</time>
      </trkpt>
      <trkpt lat="45.08414" lon="5.97049">
        <ele>2066.3999023438</ele>
        <time>2024-10-15T12:11:08.000Z</time>
      </trkpt>
      <trkpt lat="45.08413" lon="5.9705">
        <ele>2066.1999511719</ele>
        <time>2024-10-15T12:11:09.000Z</time>
      </trkpt>
      <trkpt lat="45.08413" lon="5.9705">
        <ele>2066</ele>
        <time>2024-10-15T12:11:10.000Z</time>
      </trkpt>
      <trkpt lat="45.08413" lon="5.97051">
        <ele>2065.8000488281</ele>
        <time>2024-10-15T12:11:11.000Z</time>
      </trkpt>
      <trkpt lat="45.08414" lon="5.97052">
        <ele>2065.8000488281</ele>
        <time>2024-10-15T12:11:12.000Z</time>
      </trkpt>
      <trkpt lat="45.08414" lon="5.97053">
        <ele>2065.6000976562</ele>
        <time>2024-10-15T12:11:13.000Z</time>
      </trkpt>
      <trkpt lat="45.08414" lon="5.97054">
        <ele>2065.3999023438</ele>
        <time>2024-10-15T12:11:14.000Z</time>
      </trkpt>
      <trkpt lat="45.08414" lon="5.97054">
        <ele>2065.1999511719</ele>
        <time>2024-10-15T12:11:15.000Z</time>
      </trkpt>
      <trkpt lat="45.08414" lon="5.97056">
        <ele>2065</ele>
        <time>2024-10-15T12:11:16.000Z</time>
      </trkpt>
      <trkpt lat="45.08413" lon="5.97057">
        <ele>2064.8000488281</ele>
        <time>2024-10-15T12:11:17.000Z</time>
      </trkpt>
      <trkpt lat="45.08413" lon="5.97058">
        <ele>2064.8000488281</ele>
        <time>2024-10-15T12:11:18.000Z</time>
      </trkpt>
      <trkpt lat="45.08413" lon="5.9706">
        <ele>2064.8000488281</ele>
        <time>2024-10-15T12:11:19.000Z</time>
      </trkpt>
      <trkpt lat="45.08413" lon="5.97061">
        <ele>2064.6000976562</ele>
        <time>2024-10-15T12:11:20.000Z</time>
      </trkpt>
      <trkpt lat="45.08413" lon="5.97062">
        <ele>2064.3999023438</ele>
        <time>2024-10-15T12:11:21.000Z</time>
      </trkpt>
      <trkpt lat="45.08413" lon="5.97064">
        <ele>2064.1999511719</ele>
        <time>2024-10-15T12:11:22.000Z</time>
      </trkpt>
      <trkpt lat="45.08412" lon="5.97065">
        <ele>2064</ele>
        <time>2024-10-15T12:11:23.000Z</time>
      </trkpt>
      <trkpt lat="45.08412" lon="5.97066">
        <ele>2064</ele>
        <time>2024-10-15T12:11:24.000Z</time>
      </trkpt>
      <trkpt lat="45.08412" lon="5.97067">
        <ele>2063.8000488281</ele>
        <time>2024-10-15T12:11:25.000Z</time>
      </trkpt>
      <trkpt lat="45.08412" lon="5.97069">
        <ele>2063.6000976562</ele>
        <time>2024-10-15T12:11:26.000Z</time>
      </trkpt>
      <trkpt lat="45.08412" lon="5.9707">
        <ele>2063.3999023438</ele>
        <time>2024-10-15T12:11:27.000Z</time>
      </trkpt>
      <trkpt lat="45.08411" lon="5.97072">
        <ele>2063</ele>
        <time>2024-10-15T12:11:28.000Z</time>
      </trkpt>
      <trkpt lat="45.08411" lon="5.97073">
        <ele>2062.8000488281</ele>
        <time>2024-10-15T12:11:29.000Z</time>
      </trkpt>
      <trkpt lat="45.08411" lon="5.97074">
        <ele>2062.6000976562</ele>
        <time>2024-10-15T12:11:30.000Z</time>
      </trkpt>
      <trkpt lat="45.0841" lon="5.97075">
        <ele>2062.3999023438</ele>
        <time>2024-10-15T12:11:31.000Z</time>
      </trkpt>
      <trkpt lat="45.0841" lon="5.97075">
        <ele>2062.1999511719</ele>
        <time>2024-10-15T12:11:32.000Z</time>
      </trkpt>
      <trkpt lat="45.0841" lon="5.97076">
        <ele>2062</ele>
        <time>2024-10-15T12:11:33.000Z</time>
      </trkpt>
      <trkpt lat="45.0841" lon="5.97077">
        <ele>2061.8000488281</ele>
        <time>2024-10-15T12:11:34.000Z</time>
      </trkpt>
      <trkpt lat="45.08411" lon="5.97078">
        <ele>2061.6000976562</ele>
        <time>2024-10-15T12:11:35.000Z</time>
      </trkpt>
      <trkpt lat="45.08412" lon="5.97079">
        <ele>2061.3999023438</ele>
        <time>2024-10-15T12:11:36.000Z</time>
      </trkpt>
      <trkpt lat="45.08412" lon="5.9708">
        <ele>2061.1999511719</ele>
        <time>2024-10-15T12:11:37.000Z</time>
      </trkpt>
      <trkpt lat="45.08413" lon="5.97081">
        <ele>2060.8000488281</ele>
        <time>2024-10-15T12:11:38.000Z</time>
      </trkpt>
      <trkpt lat="45.08413" lon="5.97081">
        <ele>2060.3999023438</ele>
        <time>2024-10-15T12:11:39.000Z</time>
      </trkpt>
      <trkpt lat="45.08413" lon="5.97082">
        <ele>2060.1999511719</ele>
        <time>2024-10-15T12:11:40.000Z</time>
      </trkpt>
      <trkpt lat="45.08413" lon="5.97082">
        <ele>2060.1999511719</ele>
        <time>2024-10-15T12:11:41.000Z</time>
      </trkpt>
      <trkpt lat="45.08413" lon="5.97082">
        <ele>2060.1999511719</ele>
        <time>2024-10-15T12:11:42.000Z</time>
      </trkpt>
      <trkpt lat="45.08413" lon="5.97082">
        <ele>2060</ele>
        <time>2024-10-15T12:11:43.000Z</time>
      </trkpt>
      <trkpt lat="45.08413" lon="5.97082">
        <ele>2059.8000488281</ele>
        <time>2024-10-15T12:11:44.000Z</time>
      </trkpt>
      <trkpt lat="45.08413" lon="5.97082">
        <ele>2059.6000976562</ele>
        <time>2024-10-15T12:11:45.000Z</time>
      </trkpt>
      <trkpt lat="45.08413" lon="5.97082">
        <ele>2059.6000976562</ele>
        <time>2024-10-15T12:11:46.000Z</time>
      </trkpt>
      <trkpt lat="45.08413" lon="5.97082">
        <ele>2059.6000976562</ele>
        <time>2024-10-15T12:11:47.000Z</time>
      </trkpt>
      <trkpt lat="45.08413" lon="5.97082">
        <ele>2059.3999023438</ele>
        <time>2024-10-15T12:11:48.000Z</time>
      </trkpt>
      <trkpt lat="45.08413" lon="5.97082">
        <ele>2059</ele>
        <time>2024-10-15T12:11:49.000Z</time>
      </trkpt>
      <trkpt lat="45.08412" lon="5.97082">
        <ele>2059</ele>
        <time>2024-10-15T12:11:50.000Z</time>
      </trkpt>
      <trkpt lat="45.08412" lon="5.97082">
        <ele>2059</ele>
        <time>2024-10-15T12:11:51.000Z</time>
      </trkpt>
      <trkpt lat="45.08412" lon="5.97082">
        <ele>2058.8000488281</ele>
        <time>2024-10-15T12:11:52.000Z</time>
      </trkpt>
      <trkpt lat="45.08412" lon="5.97082">
        <ele>2058.6000976562</ele>
        <time>2024-10-15T12:11:53.000Z</time>
      </trkpt>
      <trkpt lat="45.08412" lon="5.97082">
        <ele>2058.6000976562</ele>
        <time>2024-10-15T12:11:54.000Z</time>
      </trkpt>
      <trkpt lat="45.08412" lon="5.97082">
        <ele>2058.6000976562</ele>
        <time>2024-10-15T12:11:55.000Z</time>
      </trkpt>
      <trkpt lat="45.08412" lon="5.97082">
        <ele>2058.6000976562</ele>
        <time>2024-10-15T12:11:56.000Z</time>
      </trkpt>
      <trkpt lat="45.08412" lon="5.97082">
        <ele>2058.3999023438</ele>
        <time>2024-10-15T12:11:57.000Z</time>
      </trkpt>
      <trkpt lat="45.08412" lon="5.97082">
        <ele>2058.6000976562</ele>
        <time>2024-10-15T12:11:58.000Z</time>
      </trkpt>
      <trkpt lat="45.08412" lon="5.97082">
        <ele>2058.6000976562</ele>
        <time>2024-10-15T12:11:59.000Z</time>
      </trkpt>
      <trkpt lat="45.08412" lon="5.97082">
        <ele>2058.6000976562</ele>
        <time>2024-10-15T12:12:00.000Z</time>
      </trkpt>
      <trkpt lat="45.08412" lon="5.97082">
        <ele>2058.8000488281</ele>
        <time>2024-10-15T12:12:01.000Z</time>
      </trkpt>
      <trkpt lat="45.08412" lon="5.97082">
        <ele>2058.8000488281</ele>
        <time>2024-10-15T12:12:02.000Z</time>
      </trkpt>
      <trkpt lat="45.08412" lon="5.97082">
        <ele>2058.8000488281</ele>
        <time>2024-10-15T12:12:03.000Z</time>
      </trkpt>
      <trkpt lat="45.08412" lon="5.97082">
        <ele>2058.8000488281</ele>
        <time>2024-10-15T12:12:04.000Z</time>
      </trkpt>
      <trkpt lat="45.08412" lon="5.97082">
        <ele>2058.8000488281</ele>
        <time>2024-10-15T12:12:05.000Z</time>
      </trkpt>
      <trkpt lat="45.08412" lon="5.97082">
        <ele>2058.8000488281</ele>
        <time>2024-10-15T12:12:06.000Z</time>
      </trkpt>
      <trkpt lat="45.08412" lon="5.97082">
        <ele>2058.8000488281</ele>
        <time>2024-10-15T12:12:07.000Z</time>
      </trkpt>
      <trkpt lat="45.08412" lon="5.97082">
        <ele>2059.1999511719</ele>
        <time>2024-10-15T12:12:08.000Z</time>
      </trkpt>
      <trkpt lat="45.08412" lon="5.97082">
        <ele>2059.3999023438</ele>
        <time>2024-10-15T12:12:09.000Z</time>
      </trkpt>
      <trkpt lat="45.08413" lon="5.97082">
        <ele>2059.3999023438</ele>
        <time>2024-10-15T12:12:10.000Z</time>
      </trkpt>
      <trkpt lat="45.08413" lon="5.97082">
        <ele>2059.3999023438</ele>
        <time>2024-10-15T12:12:11.000Z</time>
      </trkpt>
      <trkpt lat="45.08413" lon="5.97082">
        <ele>2059.3999023438</ele>
        <time>2024-10-15T12:12:12.000Z</time>
      </trkpt>
      <trkpt lat="45.08413" lon="5.97082">
        <ele>2059.3999023438</ele>
        <time>2024-10-15T12:12:13.000Z</time>
      </trkpt>
      <trkpt lat="45.08413" lon="5.97082">
        <ele>2059.3999023438</ele>
        <time>2024-10-15T12:12:14.000Z</time>
      </trkpt>
      <trkpt lat="45.08413" lon="5.97082">
        <ele>2059.1999511719</ele>
        <time>2024-10-15T12:12:15.000Z</time>
      </trkpt>
      <trkpt lat="45.08413" lon="5.97082">
        <ele>2059</ele>
        <time>2024-10-15T12:12:16.000Z</time>
      </trkpt>
      <trkpt lat="45.08413" lon="5.97082">
        <ele>2058.8000488281</ele>
        <time>2024-10-15T12:12:17.000Z</time>
      </trkpt>
      <trkpt lat="45.08413" lon="5.97082">
        <ele>2058.6000976562</ele>
        <time>2024-10-15T12:12:18.000Z</time>
      </trkpt>
      <trkpt lat="45.08413" lon="5.97082">
        <ele>2058.6000976562</ele>
        <time>2024-10-15T12:12:19.000Z</time>
      </trkpt>
      <trkpt lat="45.08413" lon="5.97082">
        <ele>2058.6000976562</ele>
        <time>2024-10-15T12:12:20.000Z</time>
      </trkpt>
      <trkpt lat="45.08413" lon="5.97082">
        <ele>2058.6000976562</ele>
        <time>2024-10-15T12:12:21.000Z</time>
      </trkpt>
      <trkpt lat="45.08413" lon="5.97082">
        <ele>2058.6000976562</ele>
        <time>2024-10-15T12:12:22.000Z</time>
      </trkpt>
      <trkpt lat="45.08413" lon="5.97082">
        <ele>2058.6000976562</ele>
        <time>2024-10-15T12:12:23.000Z</time>
      </trkpt>
      <trkpt lat="45.08413" lon="5.97082">
        <ele>2058.3999023438</ele>
        <time>2024-10-15T12:12:24.000Z</time>
      </trkpt>
      <trkpt lat="45.08413" lon="5.97082">
        <ele>2058</ele>
        <time>2024-10-15T12:12:25.000Z</time>
      </trkpt>
      <trkpt lat="45.08413" lon="5.97082">
        <ele>2058</ele>
        <time>2024-10-15T12:12:26.000Z</time>
      </trkpt>
      <trkpt lat="45.08413" lon="5.97082">
        <ele>2058</ele>
        <time>2024-10-15T12:12:27.000Z</time>
      </trkpt>
      <trkpt lat="45.08413" lon="5.97082">
        <ele>2058</ele>
        <time>2024-10-15T12:12:28.000Z</time>
      </trkpt>
      <trkpt lat="45.08413" lon="5.97082">
        <ele>2058</ele>
        <time>2024-10-15T12:12:29.000Z</time>
      </trkpt>
      <trkpt lat="45.08413" lon="5.97083">
        <ele>2058.1999511719</ele>
        <time>2024-10-15T12:12:30.000Z</time>
      </trkpt>
      <trkpt lat="45.08413" lon="5.97083">
        <ele>2058.3999023438</ele>
        <time>2024-10-15T12:12:31.000Z</time>
      </trkpt>
      <trkpt lat="45.08413" lon="5.97083">
        <ele>2058.3999023438</ele>
        <time>2024-10-15T12:12:32.000Z</time>
      </trkpt>
      <trkpt lat="45.08413" lon="5.97083">
        <ele>2058.3999023438</ele>
        <time>2024-10-15T12:12:33.000Z</time>
      </trkpt>
      <trkpt lat="45.08413" lon="5.97083">
        <ele>2058.3999023438</ele>
        <time>2024-10-15T12:12:34.000Z</time>
      </trkpt>
      <trkpt lat="45.08413" lon="5.97083">
        <ele>2058.1999511719</ele>
        <time>2024-10-15T12:12:35.000Z</time>
      </trkpt>
      <trkpt lat="45.08413" lon="5.97083">
        <ele>2058.1999511719</ele>
        <time>2024-10-15T12:12:36.000Z</time>
      </trkpt>
      <trkpt lat="45.08413" lon="5.97083">
        <ele>2058.1999511719</ele>
        <time>2024-10-15T12:12:37.000Z</time>
      </trkpt>
      <trkpt lat="45.08413" lon="5.97083">
        <ele>2058.1999511719</ele>
        <time>2024-10-15T12:12:38.000Z</time>
      </trkpt>
      <trkpt lat="45.08413" lon="5.97083">
        <ele>2058.1999511719</ele>
        <time>2024-10-15T12:12:39.000Z</time>
      </trkpt>
      <trkpt lat="45.08413" lon="5.97083">
        <ele>2058.1999511719</ele>
        <time>2024-10-15T12:12:40.000Z</time>
      </trkpt>
      <trkpt lat="45.08413" lon="5.97083">
        <ele>2058.1999511719</ele>
        <time>2024-10-15T12:12:41.000Z</time>
      </trkpt>
      <trkpt lat="45.08413" lon="5.97083">
        <ele>2058.3999023438</ele>
        <time>2024-10-15T12:12:42.000Z</time>
      </trkpt>
      <trkpt lat="45.08413" lon="5.97083">
        <ele>2058.3999023438</ele>
        <time>2024-10-15T12:12:43.000Z</time>
      </trkpt>
      <trkpt lat="45.08413" lon="5.97083">
        <ele>2058.3999023438</ele>
        <time>2024-10-15T12:12:44.000Z</time>
      </trkpt>
      <trkpt lat="45.08413" lon="5.97083">
        <ele>2058.3999023438</ele>
        <time>2024-10-15T12:12:45.000Z</time>
      </trkpt>
      <trkpt lat="45.08413" lon="5.97083">
        <ele>2058.6000976562</ele>
        <time>2024-10-15T12:12:46.000Z</time>
      </trkpt>
      <trkpt lat="45.08413" lon="5.97083">
        <ele>2058.6000976562</ele>
        <time>2024-10-15T12:12:47.000Z</time>
      </trkpt>
      <trkpt lat="45.08413" lon="5.97083">
        <ele>2058.6000976562</ele>
        <time>2024-10-15T12:12:48.000Z</time>
      </trkpt>
      <trkpt lat="45.08413" lon="5.97083">
        <ele>2058.6000976562</ele>
        <time>2024-10-15T12:12:49.000Z</time>
      </trkpt>
      <trkpt lat="45.08413" lon="5.97083">
        <ele>2058.6000976562</ele>
        <time>2024-10-15T12:12:50.000Z</time>
      </trkpt>
      <trkpt lat="45.08413" lon="5.97083">
        <ele>2058.6000976562</ele>
        <time>2024-10-15T12:12:51.000Z</time>
      </trkpt>
      <trkpt lat="45.08413" lon="5.97083">
        <ele>2058.6000976562</ele>
        <time>2024-10-15T12:12:52.000Z</time>
      </trkpt>
      <trkpt lat="45.08413" lon="5.97083">
        <ele>2058.6000976562</ele>
        <time>2024-10-15T12:12:53.000Z</time>
      </trkpt>
      <trkpt lat="45.08413" lon="5.97083">
        <ele>2058.6000976562</ele>
        <time>2024-10-15T12:12:54.000Z</time>
      </trkpt>
      <trkpt lat="45.08413" lon="5.97083">
        <ele>2058.6000976562</ele>
        <time>2024-10-15T12:12:55.000Z</time>
      </trkpt>
      <trkpt lat="45.08413" lon="5.97083">
        <ele>2058.6000976562</ele>
        <time>2024-10-15T12:12:56.000Z</time>
      </trkpt>
      <trkpt lat="45.08413" lon="5.97083">
        <ele>2058.3999023438</ele>
        <time>2024-10-15T12:12:57.000Z</time>
      </trkpt>
      <trkpt lat="45.08413" lon="5.97083">
        <ele>2058.3999023438</ele>
        <time>2024-10-15T12:12:58.000Z</time>
      </trkpt>
      <trkpt lat="45.08413" lon="5.97083">
        <ele>2058.3999023438</ele>
        <time>2024-10-15T12:12:59.000Z</time>
      </trkpt>
      <trkpt lat="45.08413" lon="5.97083">
        <ele>2058.3999023438</ele>
        <time>2024-10-15T12:13:00.000Z</time>
      </trkpt>
      <trkpt lat="45.08413" lon="5.97083">
        <ele>2058.3999023438</ele>
        <time>2024-10-15T12:13:01.000Z</time>
      </trkpt>
      <trkpt lat="45.08413" lon="5.97083">
        <ele>2058.3999023438</ele>
        <time>2024-10-15T12:13:02.000Z</time>
      </trkpt>
      <trkpt lat="45.08413" lon="5.97083">
        <ele>2058.3999023438</ele>
        <time>2024-10-15T12:13:03.000Z</time>
      </trkpt>
      <trkpt lat="45.08413" lon="5.97083">
        <ele>2058.1999511719</ele>
        <time>2024-10-15T12:13:04.000Z</time>
      </trkpt>
      <trkpt lat="45.08413" lon="5.97083">
        <ele>2058.1999511719</ele>
        <time>2024-10-15T12:13:05.000Z</time>
      </trkpt>
      <trkpt lat="45.08413" lon="5.97083">
        <ele>2058.1999511719</ele>
        <time>2024-10-15T12:13:06.000Z</time>
      </trkpt>
      <trkpt lat="45.08413" lon="5.97083">
        <ele>2058.1999511719</ele>
        <time>2024-10-15T12:13:07.000Z</time>
      </trkpt>
      <trkpt lat="45.08413" lon="5.97083">
        <ele>2058.1999511719</ele>
        <time>2024-10-15T12:13:08.000Z</time>
      </trkpt>
      <trkpt lat="45.08413" lon="5.97083">
        <ele>2058.1999511719</ele>
        <time>2024-10-15T12:13:09.000Z</time>
      </trkpt>
      <trkpt lat="45.08413" lon="5.97083">
        <ele>2058.3999023438</ele>
        <time>2024-10-15T12:13:10.000Z</time>
      </trkpt>
      <trkpt lat="45.08413" lon="5.97083">
        <ele>2058.3999023438</ele>
        <time>2024-10-15T12:13:11.000Z</time>
      </trkpt>
      <trkpt lat="45.08413" lon="5.97083">
        <ele>2058.3999023438</ele>
        <time>2024-10-15T12:13:12.000Z</time>
      </trkpt>
      <trkpt lat="45.08413" lon="5.97083">
        <ele>2058.3999023438</ele>
        <time>2024-10-15T12:13:13.000Z</time>
      </trkpt>
      <trkpt lat="45.08413" lon="5.97083">
        <ele>2058.3999023438</ele>
        <time>2024-10-15T12:13:14.000Z</time>
      </trkpt>
      <trkpt lat="45.08413" lon="5.97083">
        <ele>2058.3999023438</ele>
        <time>2024-10-15T12:13:15.000Z</time>
      </trkpt>
      <trkpt lat="45.08413" lon="5.97083">
        <ele>2058.6000976562</ele>
        <time>2024-10-15T12:13:16.000Z</time>
      </trkpt>
      <trkpt lat="45.08413" lon="5.97083">
        <ele>2058.3999023438</ele>
        <time>2024-10-15T12:13:17.000Z</time>
      </trkpt>
      <trkpt lat="45.08413" lon="5.97083">
        <ele>2058.3999023438</ele>
        <time>2024-10-15T12:13:18.000Z</time>
      </trkpt>
      <trkpt lat="45.08413" lon="5.97083">
        <ele>2058.3999023438</ele>
        <time>2024-10-15T12:13:19.000Z</time>
      </trkpt>
      <trkpt lat="45.08413" lon="5.97083">
        <ele>2058.3999023438</ele>
        <time>2024-10-15T12:13:20.000Z</time>
      </trkpt>
      <trkpt lat="45.08413" lon="5.97083">
        <ele>2058.3999023438</ele>
        <time>2024-10-15T12:13:21.000Z</time>
      </trkpt>
      <trkpt lat="45.08413" lon="5.97083">
        <ele>2058.3999023438</ele>
        <time>2024-10-15T12:13:22.000Z</time>
      </trkpt>
      <trkpt lat="45.08413" lon="5.97083">
        <ele>2058.3999023438</ele>
        <time>2024-10-15T12:13:23.000Z</time>
      </trkpt>
      <trkpt lat="45.08413" lon="5.97084">
        <ele>2058.3999023438</ele>
        <time>2024-10-15T12:13:24.000Z</time>
      </trkpt>
      <trkpt lat="45.08413" lon="5.97084">
        <ele>2058.1999511719</ele>
        <time>2024-10-15T12:13:25.000Z</time>
      </trkpt>
      <trkpt lat="45.08413" lon="5.97084">
        <ele>2058.1999511719</ele>
        <time>2024-10-15T12:13:26.000Z</time>
      </trkpt>
      <trkpt lat="45.08413" lon="5.97084">
        <ele>2058.1999511719</ele>
        <time>2024-10-15T12:13:27.000Z</time>
      </trkpt>
      <trkpt lat="45.08413" lon="5.97084">
        <ele>2058.1999511719</ele>
        <time>2024-10-15T12:13:28.000Z</time>
      </trkpt>
      <trkpt lat="45.08413" lon="5.97084">
        <ele>2058.1999511719</ele>
        <time>2024-10-15T12:13:29.000Z</time>
      </trkpt>
      <trkpt lat="45.08413" lon="5.97084">
        <ele>2058</ele>
        <time>2024-10-15T12:13:30.000Z</time>
      </trkpt>
      <trkpt lat="45.08413" lon="5.97084">
        <ele>2058</ele>
        <time>2024-10-15T12:13:31.000Z</time>
      </trkpt>
      <trkpt lat="45.08413" lon="5.97084">
        <ele>2058</ele>
        <time>2024-10-15T12:13:32.000Z</time>
      </trkpt>
      <trkpt lat="45.08413" lon="5.97084">
        <ele>2058</ele>
        <time>2024-10-15T12:13:33.000Z</time>
      </trkpt>
      <trkpt lat="45.08413" lon="5.97084">
        <ele>2058.1999511719</ele>
        <time>2024-10-15T12:13:34.000Z</time>
      </trkpt>
      <trkpt lat="45.08413" lon="5.97084">
        <ele>2058.1999511719</ele>
        <time>2024-10-15T12:13:35.000Z</time>
      </trkpt>
      <trkpt lat="45.08413" lon="5.97084">
        <ele>2058.1999511719</ele>
        <time>2024-10-15T12:13:36.000Z</time>
      </trkpt>
      <trkpt lat="45.08413" lon="5.97084">
        <ele>2058.1999511719</ele>
        <time>2024-10-15T12:13:37.000Z</time>
      </trkpt>
      <trkpt lat="45.08413" lon="5.97084">
        <ele>2058.1999511719</ele>
        <time>2024-10-15T12:13:38.000Z</time>
      </trkpt>
      <trkpt lat="45.08413" lon="5.97084">
        <ele>2058.1999511719</ele>
        <time>2024-10-15T12:13:39.000Z</time>
      </trkpt>
      <trkpt lat="45.08413" lon="5.97084">
        <ele>2058.1999511719</ele>
        <time>2024-10-15T12:13:40.000Z</time>
      </trkpt>
      <trkpt lat="45.08413" lon="5.97084">
        <ele>2058.1999511719</ele>
        <time>2024-10-15T12:13:41.000Z</time>
      </trkpt>
      <trkpt lat="45.08413" lon="5.97084">
        <ele>2058.1999511719</ele>
        <time>2024-10-15T12:13:42.000Z</time>
      </trkpt>
      <trkpt lat="45.08413" lon="5.97084">
        <ele>2058.1999511719</ele>
        <time>2024-10-15T12:13:43.000Z</time>
      </trkpt>
      <trkpt lat="45.08413" lon="5.97084">
        <ele>2058.1999511719</ele>
        <time>2024-10-15T12:13:44.000Z</time>
      </trkpt>
      <trkpt lat="45.08413" lon="5.97084">
        <ele>2058.1999511719</ele>
        <time>2024-10-15T12:13:45.000Z</time>
      </trkpt>
      <trkpt lat="45.08413" lon="5.97085">
        <ele>2058</ele>
        <time>2024-10-15T12:13:46.000Z</time>
      </trkpt>
      <trkpt lat="45.08413" lon="5.97085">
        <ele>2057.8000488281</ele>
        <time>2024-10-15T12:13:47.000Z</time>
      </trkpt>
      <trkpt lat="45.08413" lon="5.97085">
        <ele>2057.6000976562</ele>
        <time>2024-10-15T12:13:48.000Z</time>
      </trkpt>
      <trkpt lat="45.08413" lon="5.97085">
        <ele>2057.3999023438</ele>
        <time>2024-10-15T12:13:49.000Z</time>
      </trkpt>
      <trkpt lat="45.08413" lon="5.97085">
        <ele>2057.1999511719</ele>
        <time>2024-10-15T12:13:50.000Z</time>
      </trkpt>
      <trkpt lat="45.08413" lon="5.97085">
        <ele>2057</ele>
        <time>2024-10-15T12:13:51.000Z</time>
      </trkpt>
      <trkpt lat="45.08414" lon="5.97087">
        <ele>2057</ele>
        <time>2024-10-15T12:13:52.000Z</time>
      </trkpt>
      <trkpt lat="45.08414" lon="5.97088">
        <ele>2056.6000976562</ele>
        <time>2024-10-15T12:13:53.000Z</time>
      </trkpt>
      <trkpt lat="45.08415" lon="5.9709">
        <ele>2056.3999023438</ele>
        <time>2024-10-15T12:13:54.000Z</time>
      </trkpt>
      <trkpt lat="45.08415" lon="5.97092">
        <ele>2056.3999023438</ele>
        <time>2024-10-15T12:13:55.000Z</time>
      </trkpt>
      <trkpt lat="45.08415" lon="5.97093">
        <ele>2056.1999511719</ele>
        <time>2024-10-15T12:13:56.000Z</time>
      </trkpt>
      <trkpt lat="45.08415" lon="5.97095">
        <ele>2056</ele>
        <time>2024-10-15T12:13:57.000Z</time>
      </trkpt>
      <trkpt lat="45.08416" lon="5.97097">
        <ele>2056</ele>
        <time>2024-10-15T12:13:58.000Z</time>
      </trkpt>
      <trkpt lat="45.08417" lon="5.97099">
        <ele>2055.6000976562</ele>
        <time>2024-10-15T12:13:59.000Z</time>
      </trkpt>
      <trkpt lat="45.08417" lon="5.971">
        <ele>2055.3999023438</ele>
        <time>2024-10-15T12:14:00.000Z</time>
      </trkpt>
      <trkpt lat="45.08418" lon="5.97101">
        <ele>2055</ele>
        <time>2024-10-15T12:14:01.000Z</time>
      </trkpt>
      <trkpt lat="45.08418" lon="5.97102">
        <ele>2054.8000488281</ele>
        <time>2024-10-15T12:14:02.000Z</time>
      </trkpt>
      <trkpt lat="45.08418" lon="5.97104">
        <ele>2054.6000976562</ele>
        <time>2024-10-15T12:14:03.000Z</time>
      </trkpt>
      <trkpt lat="45.08418" lon="5.97105">
        <ele>2054.6000976562</ele>
        <time>2024-10-15T12:14:04.000Z</time>
      </trkpt>
      <trkpt lat="45.08418" lon="5.97106">
        <ele>2054.3999023438</ele>
        <time>2024-10-15T12:14:05.000Z</time>
      </trkpt>
      <trkpt lat="45.08418" lon="5.97108">
        <ele>2054.1999511719</ele>
        <time>2024-10-15T12:14:06.000Z</time>
      </trkpt>
      <trkpt lat="45.08418" lon="5.97109">
        <ele>2054</ele>
        <time>2024-10-15T12:14:07.000Z</time>
      </trkpt>
      <trkpt lat="45.08418" lon="5.9711">
        <ele>2053.8000488281</ele>
        <time>2024-10-15T12:14:08.000Z</time>
      </trkpt>
      <trkpt lat="45.08418" lon="5.97111">
        <ele>2053.6000976562</ele>
        <time>2024-10-15T12:14:09.000Z</time>
      </trkpt>
      <trkpt lat="45.08417" lon="5.97112">
        <ele>2053.3999023438</ele>
        <time>2024-10-15T12:14:10.000Z</time>
      </trkpt>
      <trkpt lat="45.08417" lon="5.97113">
        <ele>2052.8000488281</ele>
        <time>2024-10-15T12:14:11.000Z</time>
      </trkpt>
      <trkpt lat="45.08417" lon="5.97114">
        <ele>2052.6000976562</ele>
        <time>2024-10-15T12:14:12.000Z</time>
      </trkpt>
      <trkpt lat="45.08417" lon="5.97115">
        <ele>2052.6000976562</ele>
        <time>2024-10-15T12:14:13.000Z</time>
      </trkpt>
      <trkpt lat="45.08416" lon="5.97116">
        <ele>2052.3999023438</ele>
        <time>2024-10-15T12:14:14.000Z</time>
      </trkpt>
      <trkpt lat="45.08416" lon="5.97118">
        <ele>2052.1999511719</ele>
        <time>2024-10-15T12:14:15.000Z</time>
      </trkpt>
      <trkpt lat="45.08416" lon="5.97119">
        <ele>2051.8000488281</ele>
        <time>2024-10-15T12:14:16.000Z</time>
      </trkpt>
      <trkpt lat="45.08416" lon="5.97119">
        <ele>2051.3999023438</ele>
        <time>2024-10-15T12:14:17.000Z</time>
      </trkpt>
      <trkpt lat="45.08416" lon="5.97121">
        <ele>2051.1999511719</ele>
        <time>2024-10-15T12:14:18.000Z</time>
      </trkpt>
      <trkpt lat="45.08416" lon="5.97122">
        <ele>2050.8000488281</ele>
        <time>2024-10-15T12:14:19.000Z</time>
      </trkpt>
      <trkpt lat="45.08416" lon="5.97123">
        <ele>2050.6000976562</ele>
        <time>2024-10-15T12:14:20.000Z</time>
      </trkpt>
      <trkpt lat="45.08416" lon="5.97124">
        <ele>2050.1999511719</ele>
        <time>2024-10-15T12:14:21.000Z</time>
      </trkpt>
      <trkpt lat="45.08417" lon="5.97125">
        <ele>2050</ele>
        <time>2024-10-15T12:14:22.000Z</time>
      </trkpt>
      <trkpt lat="45.08417" lon="5.97126">
        <ele>2049.8000488281</ele>
        <time>2024-10-15T12:14:23.000Z</time>
      </trkpt>
      <trkpt lat="45.08417" lon="5.97127">
        <ele>2049.3999023438</ele>
        <time>2024-10-15T12:14:24.000Z</time>
      </trkpt>
      <trkpt lat="45.08417" lon="5.97128">
        <ele>2049</ele>
        <time>2024-10-15T12:14:25.000Z</time>
      </trkpt>
      <trkpt lat="45.08417" lon="5.97129">
        <ele>2048.8000488281</ele>
        <time>2024-10-15T12:14:26.000Z</time>
      </trkpt>
      <trkpt lat="45.08418" lon="5.9713">
        <ele>2048.6000976562</ele>
        <time>2024-10-15T12:14:27.000Z</time>
      </trkpt>
      <trkpt lat="45.08418" lon="5.97131">
        <ele>2048.3999023438</ele>
        <time>2024-10-15T12:14:28.000Z</time>
      </trkpt>
      <trkpt lat="45.08418" lon="5.97133">
        <ele>2048.1999511719</ele>
        <time>2024-10-15T12:14:29.000Z</time>
      </trkpt>
      <trkpt lat="45.08418" lon="5.97134">
        <ele>2048</ele>
        <time>2024-10-15T12:14:30.000Z</time>
      </trkpt>
      <trkpt lat="45.08418" lon="5.97135">
        <ele>2048</ele>
        <time>2024-10-15T12:14:31.000Z</time>
      </trkpt>
      <trkpt lat="45.08418" lon="5.97136">
        <ele>2047.8000488281</ele>
        <time>2024-10-15T12:14:32.000Z</time>
      </trkpt>
      <trkpt lat="45.08418" lon="5.97138">
        <ele>2047.8000488281</ele>
        <time>2024-10-15T12:14:33.000Z</time>
      </trkpt>
      <trkpt lat="45.08418" lon="5.97139">
        <ele>2047.5999755859</ele>
        <time>2024-10-15T12:14:34.000Z</time>
      </trkpt>
      <trkpt lat="45.08418" lon="5.9714">
        <ele>2047.4000244141</ele>
        <time>2024-10-15T12:14:35.000Z</time>
      </trkpt>
      <trkpt lat="45.08418" lon="5.97142">
        <ele>2046.8000488281</ele>
        <time>2024-10-15T12:14:36.000Z</time>
      </trkpt>
      <trkpt lat="45.08418" lon="5.97143">
        <ele>2046.8000488281</ele>
        <time>2024-10-15T12:14:37.000Z</time>
      </trkpt>
      <trkpt lat="45.08417" lon="5.97144">
        <ele>2046</ele>
        <time>2024-10-15T12:14:38.000Z</time>
      </trkpt>
      <trkpt lat="45.08417" lon="5.97145">
        <ele>2045.5999755859</ele>
        <time>2024-10-15T12:14:39.000Z</time>
      </trkpt>
      <trkpt lat="45.08417" lon="5.97145">
        <ele>2045.4000244141</ele>
        <time>2024-10-15T12:14:40.000Z</time>
      </trkpt>
      <trkpt lat="45.08417" lon="5.97146">
        <ele>2045</ele>
        <time>2024-10-15T12:14:41.000Z</time>
      </trkpt>
      <trkpt lat="45.08418" lon="5.97146">
        <ele>2045</ele>
        <time>2024-10-15T12:14:42.000Z</time>
      </trkpt>
      <trkpt lat="45.08419" lon="5.97147">
        <ele>2044.5999755859</ele>
        <time>2024-10-15T12:14:43.000Z</time>
      </trkpt>
      <trkpt lat="45.08419" lon="5.97147">
        <ele>2044.1999511719</ele>
        <time>2024-10-15T12:14:44.000Z</time>
      </trkpt>
      <trkpt lat="45.0842" lon="5.97148">
        <ele>2043.8000488281</ele>
        <time>2024-10-15T12:14:45.000Z</time>
      </trkpt>
      <trkpt lat="45.0842" lon="5.97149">
        <ele>2043.5999755859</ele>
        <time>2024-10-15T12:14:46.000Z</time>
      </trkpt>
      <trkpt lat="45.0842" lon="5.9715">
        <ele>2043.1999511719</ele>
        <time>2024-10-15T12:14:47.000Z</time>
      </trkpt>
      <trkpt lat="45.0842" lon="5.97151">
        <ele>2042.8000488281</ele>
        <time>2024-10-15T12:14:48.000Z</time>
      </trkpt>
      <trkpt lat="45.0842" lon="5.97153">
        <ele>2042.8000488281</ele>
        <time>2024-10-15T12:14:49.000Z</time>
      </trkpt>
      <trkpt lat="45.0842" lon="5.97153">
        <ele>2042.4000244141</ele>
        <time>2024-10-15T12:14:50.000Z</time>
      </trkpt>
      <trkpt lat="45.0842" lon="5.97154">
        <ele>2042</ele>
        <time>2024-10-15T12:14:51.000Z</time>
      </trkpt>
      <trkpt lat="45.0842" lon="5.97155">
        <ele>2041.4000244141</ele>
        <time>2024-10-15T12:14:52.000Z</time>
      </trkpt>
      <trkpt lat="45.08421" lon="5.97156">
        <ele>2041</ele>
        <time>2024-10-15T12:14:53.000Z</time>
      </trkpt>
      <trkpt lat="45.08421" lon="5.97156">
        <ele>2040.8000488281</ele>
        <time>2024-10-15T12:14:54.000Z</time>
      </trkpt>
      <trkpt lat="45.08421" lon="5.97157">
        <ele>2040.4000244141</ele>
        <time>2024-10-15T12:14:55.000Z</time>
      </trkpt>
      <trkpt lat="45.08422" lon="5.97156">
        <ele>2040.1999511719</ele>
        <time>2024-10-15T12:14:56.000Z</time>
      </trkpt>
      <trkpt lat="45.08423" lon="5.97156">
        <ele>2040</ele>
        <time>2024-10-15T12:14:57.000Z</time>
      </trkpt>
      <trkpt lat="45.08423" lon="5.97155">
        <ele>2039.4000244141</ele>
        <time>2024-10-15T12:14:58.000Z</time>
      </trkpt>
      <trkpt lat="45.08424" lon="5.97155">
        <ele>2039</ele>
        <time>2024-10-15T12:14:59.000Z</time>
      </trkpt>
      <trkpt lat="45.08424" lon="5.97156">
        <ele>2038.8000488281</ele>
        <time>2024-10-15T12:15:00.000Z</time>
      </trkpt>
      <trkpt lat="45.08426" lon="5.97156">
        <ele>2038.5999755859</ele>
        <time>2024-10-15T12:15:01.000Z</time>
      </trkpt>
      <trkpt lat="45.08426" lon="5.97157">
        <ele>2038.1999511719</ele>
        <time>2024-10-15T12:15:02.000Z</time>
      </trkpt>
      <trkpt lat="45.08426" lon="5.97158">
        <ele>2037.5999755859</ele>
        <time>2024-10-15T12:15:03.000Z</time>
      </trkpt>
      <trkpt lat="45.08426" lon="5.97159">
        <ele>2037.4000244141</ele>
        <time>2024-10-15T12:15:04.000Z</time>
      </trkpt>
      <trkpt lat="45.08426" lon="5.9716">
        <ele>2037</ele>
        <time>2024-10-15T12:15:05.000Z</time>
      </trkpt>
      <trkpt lat="45.08425" lon="5.97161">
        <ele>2036.8000488281</ele>
        <time>2024-10-15T12:15:06.000Z</time>
      </trkpt>
      <trkpt lat="45.08425" lon="5.97162">
        <ele>2036.5999755859</ele>
        <time>2024-10-15T12:15:07.000Z</time>
      </trkpt>
      <trkpt lat="45.08425" lon="5.97162">
        <ele>2036.5999755859</ele>
        <time>2024-10-15T12:15:08.000Z</time>
      </trkpt>
      <trkpt lat="45.08425" lon="5.97164">
        <ele>2036.1999511719</ele>
        <time>2024-10-15T12:15:09.000Z</time>
      </trkpt>
      <trkpt lat="45.08425" lon="5.97164">
        <ele>2036</ele>
        <time>2024-10-15T12:15:10.000Z</time>
      </trkpt>
      <trkpt lat="45.08424" lon="5.97166">
        <ele>2035.5999755859</ele>
        <time>2024-10-15T12:15:11.000Z</time>
      </trkpt>
      <trkpt lat="45.08424" lon="5.97167">
        <ele>2035.4000244141</ele>
        <time>2024-10-15T12:15:12.000Z</time>
      </trkpt>
      <trkpt lat="45.08424" lon="5.97168">
        <ele>2035.1999511719</ele>
        <time>2024-10-15T12:15:13.000Z</time>
      </trkpt>
      <trkpt lat="45.08423" lon="5.97169">
        <ele>2035</ele>
        <time>2024-10-15T12:15:14.000Z</time>
      </trkpt>
      <trkpt lat="45.08423" lon="5.9717">
        <ele>2034.8000488281</ele>
        <time>2024-10-15T12:15:15.000Z</time>
      </trkpt>
      <trkpt lat="45.08423" lon="5.97172">
        <ele>2034.5999755859</ele>
        <time>2024-10-15T12:15:16.000Z</time>
      </trkpt>
      <trkpt lat="45.08423" lon="5.97172">
        <ele>2034.1999511719</ele>
        <time>2024-10-15T12:15:17.000Z</time>
      </trkpt>
      <trkpt lat="45.08424" lon="5.97173">
        <ele>2034</ele>
        <time>2024-10-15T12:15:18.000Z</time>
      </trkpt>
      <trkpt lat="45.08424" lon="5.97174">
        <ele>2034</ele>
        <time>2024-10-15T12:15:19.000Z</time>
      </trkpt>
      <trkpt lat="45.08424" lon="5.97175">
        <ele>2033.8000488281</ele>
        <time>2024-10-15T12:15:20.000Z</time>
      </trkpt>
      <trkpt lat="45.08424" lon="5.97176">
        <ele>2033.5999755859</ele>
        <time>2024-10-15T12:15:21.000Z</time>
      </trkpt>
      <trkpt lat="45.08424" lon="5.97177">
        <ele>2033.1999511719</ele>
        <time>2024-10-15T12:15:22.000Z</time>
      </trkpt>
      <trkpt lat="45.08424" lon="5.97179">
        <ele>2032.8000488281</ele>
        <time>2024-10-15T12:15:23.000Z</time>
      </trkpt>
      <trkpt lat="45.08424" lon="5.9718">
        <ele>2032.5999755859</ele>
        <time>2024-10-15T12:15:24.000Z</time>
      </trkpt>
      <trkpt lat="45.08424" lon="5.97181">
        <ele>2032.4000244141</ele>
        <time>2024-10-15T12:15:25.000Z</time>
      </trkpt>
      <trkpt lat="45.08424" lon="5.97182">
        <ele>2032.1999511719</ele>
        <time>2024-10-15T12:15:26.000Z</time>
      </trkpt>
      <trkpt lat="45.08424" lon="5.97183">
        <ele>2031.8000488281</ele>
        <time>2024-10-15T12:15:27.000Z</time>
      </trkpt>
      <trkpt lat="45.08424" lon="5.97184">
        <ele>2031.4000244141</ele>
        <time>2024-10-15T12:15:28.000Z</time>
      </trkpt>
      <trkpt lat="45.08423" lon="5.97185">
        <ele>2031.4000244141</ele>
        <time>2024-10-15T12:15:29.000Z</time>
      </trkpt>
      <trkpt lat="45.08424" lon="5.97186">
        <ele>2031.1999511719</ele>
        <time>2024-10-15T12:15:30.000Z</time>
      </trkpt>
      <trkpt lat="45.08424" lon="5.97186">
        <ele>2030.8000488281</ele>
        <time>2024-10-15T12:15:31.000Z</time>
      </trkpt>
      <trkpt lat="45.08425" lon="5.97187">
        <ele>2030.5999755859</ele>
        <time>2024-10-15T12:15:32.000Z</time>
      </trkpt>
      <trkpt lat="45.08426" lon="5.97187">
        <ele>2030.1999511719</ele>
        <time>2024-10-15T12:15:33.000Z</time>
      </trkpt>
      <trkpt lat="45.08427" lon="5.97188">
        <ele>2030</ele>
        <time>2024-10-15T12:15:34.000Z</time>
      </trkpt>
      <trkpt lat="45.08428" lon="5.97189">
        <ele>2029.5999755859</ele>
        <time>2024-10-15T12:15:35.000Z</time>
      </trkpt>
      <trkpt lat="45.08429" lon="5.9719">
        <ele>2029.4000244141</ele>
        <time>2024-10-15T12:15:36.000Z</time>
      </trkpt>
      <trkpt lat="45.08429" lon="5.97191">
        <ele>2029</ele>
        <time>2024-10-15T12:15:37.000Z</time>
      </trkpt>
      <trkpt lat="45.08429" lon="5.97192">
        <ele>2028.8000488281</ele>
        <time>2024-10-15T12:15:38.000Z</time>
      </trkpt>
      <trkpt lat="45.08429" lon="5.97192">
        <ele>2028.4000244141</ele>
        <time>2024-10-15T12:15:39.000Z</time>
      </trkpt>
      <trkpt lat="45.08429" lon="5.97193">
        <ele>2028</ele>
        <time>2024-10-15T12:15:40.000Z</time>
      </trkpt>
      <trkpt lat="45.08428" lon="5.97194">
        <ele>2027.5999755859</ele>
        <time>2024-10-15T12:15:41.000Z</time>
      </trkpt>
      <trkpt lat="45.08429" lon="5.97195">
        <ele>2027.4000244141</ele>
        <time>2024-10-15T12:15:42.000Z</time>
      </trkpt>
      <trkpt lat="45.0843" lon="5.97197">
        <ele>2027.4000244141</ele>
        <time>2024-10-15T12:15:43.000Z</time>
      </trkpt>
      <trkpt lat="45.0843" lon="5.97198">
        <ele>2027</ele>
        <time>2024-10-15T12:15:44.000Z</time>
      </trkpt>
      <trkpt lat="45.08431" lon="5.97199">
        <ele>2026.5999755859</ele>
        <time>2024-10-15T12:15:45.000Z</time>
      </trkpt>
      <trkpt lat="45.08431" lon="5.972">
        <ele>2026.4000244141</ele>
        <time>2024-10-15T12:15:46.000Z</time>
      </trkpt>
      <trkpt lat="45.0843" lon="5.97201">
        <ele>2026</ele>
        <time>2024-10-15T12:15:47.000Z</time>
      </trkpt>
      <trkpt lat="45.0843" lon="5.97202">
        <ele>2025.8000488281</ele>
        <time>2024-10-15T12:15:48.000Z</time>
      </trkpt>
      <trkpt lat="45.0843" lon="5.97204">
        <ele>2025.4000244141</ele>
        <time>2024-10-15T12:15:49.000Z</time>
      </trkpt>
      <trkpt lat="45.08431" lon="5.97204">
        <ele>2025.4000244141</ele>
        <time>2024-10-15T12:15:50.000Z</time>
      </trkpt>
      <trkpt lat="45.08431" lon="5.97205">
        <ele>2025</ele>
        <time>2024-10-15T12:15:51.000Z</time>
      </trkpt>
      <trkpt lat="45.08431" lon="5.97206">
        <ele>2024.4000244141</ele>
        <time>2024-10-15T12:15:52.000Z</time>
      </trkpt>
      <trkpt lat="45.08431" lon="5.97207">
        <ele>2023.8000488281</ele>
        <time>2024-10-15T12:15:53.000Z</time>
      </trkpt>
      <trkpt lat="45.08431" lon="5.97208">
        <ele>2023.4000244141</ele>
        <time>2024-10-15T12:15:54.000Z</time>
      </trkpt>
      <trkpt lat="45.08431" lon="5.97209">
        <ele>2023.1999511719</ele>
        <time>2024-10-15T12:15:55.000Z</time>
      </trkpt>
      <trkpt lat="45.08431" lon="5.9721">
        <ele>2023</ele>
        <time>2024-10-15T12:15:56.000Z</time>
      </trkpt>
      <trkpt lat="45.08431" lon="5.9721">
        <ele>2022.5999755859</ele>
        <time>2024-10-15T12:15:57.000Z</time>
      </trkpt>
      <trkpt lat="45.08431" lon="5.97212">
        <ele>2022.4000244141</ele>
        <time>2024-10-15T12:15:58.000Z</time>
      </trkpt>
      <trkpt lat="45.08432" lon="5.97213">
        <ele>2022</ele>
        <time>2024-10-15T12:15:59.000Z</time>
      </trkpt>
      <trkpt lat="45.08432" lon="5.97214">
        <ele>2021.8000488281</ele>
        <time>2024-10-15T12:16:00.000Z</time>
      </trkpt>
      <trkpt lat="45.08432" lon="5.97215">
        <ele>2021.4000244141</ele>
        <time>2024-10-15T12:16:01.000Z</time>
      </trkpt>
      <trkpt lat="45.08431" lon="5.97215">
        <ele>2021</ele>
        <time>2024-10-15T12:16:02.000Z</time>
      </trkpt>
      <trkpt lat="45.08431" lon="5.97217">
        <ele>2020.8000488281</ele>
        <time>2024-10-15T12:16:03.000Z</time>
      </trkpt>
      <trkpt lat="45.0843" lon="5.97217">
        <ele>2020.5999755859</ele>
        <time>2024-10-15T12:16:04.000Z</time>
      </trkpt>
      <trkpt lat="45.0843" lon="5.97218">
        <ele>2020.4000244141</ele>
        <time>2024-10-15T12:16:05.000Z</time>
      </trkpt>
      <trkpt lat="45.0843" lon="5.97218">
        <ele>2020</ele>
        <time>2024-10-15T12:16:06.000Z</time>
      </trkpt>
      <trkpt lat="45.0843" lon="5.97219">
        <ele>2019.8000488281</ele>
        <time>2024-10-15T12:16:07.000Z</time>
      </trkpt>
      <trkpt lat="45.0843" lon="5.9722">
        <ele>2019.4000244141</ele>
        <time>2024-10-15T12:16:08.000Z</time>
      </trkpt>
      <trkpt lat="45.08429" lon="5.97221">
        <ele>2019.1999511719</ele>
        <time>2024-10-15T12:16:09.000Z</time>
      </trkpt>
      <trkpt lat="45.08428" lon="5.97221">
        <ele>2019</ele>
        <time>2024-10-15T12:16:10.000Z</time>
      </trkpt>
      <trkpt lat="45.08427" lon="5.97222">
        <ele>2018.8000488281</ele>
        <time>2024-10-15T12:16:11.000Z</time>
      </trkpt>
      <trkpt lat="45.08427" lon="5.97223">
        <ele>2018.4000244141</ele>
        <time>2024-10-15T12:16:12.000Z</time>
      </trkpt>
      <trkpt lat="45.08426" lon="5.97224">
        <ele>2018.4000244141</ele>
        <time>2024-10-15T12:16:13.000Z</time>
      </trkpt>
      <trkpt lat="45.08425" lon="5.97225">
        <ele>2018.1999511719</ele>
        <time>2024-10-15T12:16:14.000Z</time>
      </trkpt>
      <trkpt lat="45.08425" lon="5.97226">
        <ele>2017.8000488281</ele>
        <time>2024-10-15T12:16:15.000Z</time>
      </trkpt>
      <trkpt lat="45.08424" lon="5.97227">
        <ele>2017.5999755859</ele>
        <time>2024-10-15T12:16:16.000Z</time>
      </trkpt>
      <trkpt lat="45.08423" lon="5.97228">
        <ele>2017.4000244141</ele>
        <time>2024-10-15T12:16:17.000Z</time>
      </trkpt>
      <trkpt lat="45.08423" lon="5.97228">
        <ele>2017.4000244141</ele>
        <time>2024-10-15T12:16:18.000Z</time>
      </trkpt>
      <trkpt lat="45.08422" lon="5.97229">
        <ele>2017.1999511719</ele>
        <time>2024-10-15T12:16:19.000Z</time>
      </trkpt>
      <trkpt lat="45.08422" lon="5.9723">
        <ele>2017</ele>
        <time>2024-10-15T12:16:20.000Z</time>
      </trkpt>
      <trkpt lat="45.08421" lon="5.97231">
        <ele>2016.8000488281</ele>
        <time>2024-10-15T12:16:21.000Z</time>
      </trkpt>
      <trkpt lat="45.0842" lon="5.97231">
        <ele>2016.1999511719</ele>
        <time>2024-10-15T12:16:22.000Z</time>
      </trkpt>
      <trkpt lat="45.0842" lon="5.97231">
        <ele>2016</ele>
        <time>2024-10-15T12:16:23.000Z</time>
      </trkpt>
      <trkpt lat="45.08419" lon="5.97232">
        <ele>2016</ele>
        <time>2024-10-15T12:16:24.000Z</time>
      </trkpt>
      <trkpt lat="45.08418" lon="5.97232">
        <ele>2016</ele>
        <time>2024-10-15T12:16:25.000Z</time>
      </trkpt>
      <trkpt lat="45.08417" lon="5.97232">
        <ele>2015.8000488281</ele>
        <time>2024-10-15T12:16:26.000Z</time>
      </trkpt>
      <trkpt lat="45.08416" lon="5.97232">
        <ele>2015.5999755859</ele>
        <time>2024-10-15T12:16:27.000Z</time>
      </trkpt>
      <trkpt lat="45.08416" lon="5.97233">
        <ele>2014.8000488281</ele>
        <time>2024-10-15T12:16:28.000Z</time>
      </trkpt>
      <trkpt lat="45.08415" lon="5.97232">
        <ele>2014.4000244141</ele>
        <time>2024-10-15T12:16:29.000Z</time>
      </trkpt>
      <trkpt lat="45.08414" lon="5.97233">
        <ele>2013.8000488281</ele>
        <time>2024-10-15T12:16:30.000Z</time>
      </trkpt>
      <trkpt lat="45.08414" lon="5.97234">
        <ele>2013.5999755859</ele>
        <time>2024-10-15T12:16:31.000Z</time>
      </trkpt>
      <trkpt lat="45.08413" lon="5.97235">
        <ele>2013.4000244141</ele>
        <time>2024-10-15T12:16:32.000Z</time>
      </trkpt>
      <trkpt lat="45.08412" lon="5.97236">
        <ele>2013</ele>
        <time>2024-10-15T12:16:33.000Z</time>
      </trkpt>
      <trkpt lat="45.08412" lon="5.97237">
        <ele>2012.5999755859</ele>
        <time>2024-10-15T12:16:34.000Z</time>
      </trkpt>
      <trkpt lat="45.08411" lon="5.97238">
        <ele>2012</ele>
        <time>2024-10-15T12:16:35.000Z</time>
      </trkpt>
      <trkpt lat="45.0841" lon="5.97239">
        <ele>2011.5999755859</ele>
        <time>2024-10-15T12:16:36.000Z</time>
      </trkpt>
      <trkpt lat="45.0841" lon="5.97239">
        <ele>2011.4000244141</ele>
        <time>2024-10-15T12:16:37.000Z</time>
      </trkpt>
      <trkpt lat="45.08409" lon="5.9724">
        <ele>2011.1999511719</ele>
        <time>2024-10-15T12:16:38.000Z</time>
      </trkpt>
      <trkpt lat="45.08409" lon="5.97241">
        <ele>2010.8000488281</ele>
        <time>2024-10-15T12:16:39.000Z</time>
      </trkpt>
      <trkpt lat="45.08409" lon="5.97241">
        <ele>2010.1999511719</ele>
        <time>2024-10-15T12:16:40.000Z</time>
      </trkpt>
      <trkpt lat="45.08409" lon="5.97242">
        <ele>2009.4000244141</ele>
        <time>2024-10-15T12:16:41.000Z</time>
      </trkpt>
      <trkpt lat="45.08409" lon="5.97243">
        <ele>2008.8000488281</ele>
        <time>2024-10-15T12:16:42.000Z</time>
      </trkpt>
      <trkpt lat="45.0841" lon="5.97244">
        <ele>2008.4000244141</ele>
        <time>2024-10-15T12:16:43.000Z</time>
      </trkpt>
      <trkpt lat="45.0841" lon="5.97245">
        <ele>2008</ele>
        <time>2024-10-15T12:16:44.000Z</time>
      </trkpt>
      <trkpt lat="45.0841" lon="5.97246">
        <ele>2007.5999755859</ele>
        <time>2024-10-15T12:16:45.000Z</time>
      </trkpt>
      <trkpt lat="45.08411" lon="5.97247">
        <ele>2007.1999511719</ele>
        <time>2024-10-15T12:16:46.000Z</time>
      </trkpt>
      <trkpt lat="45.08411" lon="5.97248">
        <ele>2006.4000244141</ele>
        <time>2024-10-15T12:16:47.000Z</time>
      </trkpt>
      <trkpt lat="45.08412" lon="5.97248">
        <ele>2006</ele>
        <time>2024-10-15T12:16:48.000Z</time>
      </trkpt>
      <trkpt lat="45.08412" lon="5.97249">
        <ele>2006</ele>
        <time>2024-10-15T12:16:49.000Z</time>
      </trkpt>
      <trkpt lat="45.08412" lon="5.97249">
        <ele>2005.8000488281</ele>
        <time>2024-10-15T12:16:50.000Z</time>
      </trkpt>
      <trkpt lat="45.08412" lon="5.9725">
        <ele>2005.4000244141</ele>
        <time>2024-10-15T12:16:51.000Z</time>
      </trkpt>
      <trkpt lat="45.08412" lon="5.97251">
        <ele>2005.1999511719</ele>
        <time>2024-10-15T12:16:52.000Z</time>
      </trkpt>
      <trkpt lat="45.08412" lon="5.97252">
        <ele>2005</ele>
        <time>2024-10-15T12:16:53.000Z</time>
      </trkpt>
      <trkpt lat="45.08411" lon="5.97253">
        <ele>2004.5999755859</ele>
        <time>2024-10-15T12:16:54.000Z</time>
      </trkpt>
      <trkpt lat="45.08411" lon="5.97254">
        <ele>2004.1999511719</ele>
        <time>2024-10-15T12:16:55.000Z</time>
      </trkpt>
      <trkpt lat="45.08411" lon="5.97255">
        <ele>2004</ele>
        <time>2024-10-15T12:16:56.000Z</time>
      </trkpt>
      <trkpt lat="45.0841" lon="5.97255">
        <ele>2003.5999755859</ele>
        <time>2024-10-15T12:16:57.000Z</time>
      </trkpt>
      <trkpt lat="45.0841" lon="5.97256">
        <ele>2003.1999511719</ele>
        <time>2024-10-15T12:16:58.000Z</time>
      </trkpt>
      <trkpt lat="45.08409" lon="5.97256">
        <ele>2003</ele>
        <time>2024-10-15T12:16:59.000Z</time>
      </trkpt>
      <trkpt lat="45.08409" lon="5.97257">
        <ele>2002.8000488281</ele>
        <time>2024-10-15T12:17:00.000Z</time>
      </trkpt>
      <trkpt lat="45.08409" lon="5.97258">
        <ele>2002.5999755859</ele>
        <time>2024-10-15T12:17:01.000Z</time>
      </trkpt>
      <trkpt lat="45.08408" lon="5.97259">
        <ele>2002.4000244141</ele>
        <time>2024-10-15T12:17:02.000Z</time>
      </trkpt>
      <trkpt lat="45.08408" lon="5.97259">
        <ele>2002.1999511719</ele>
        <time>2024-10-15T12:17:03.000Z</time>
      </trkpt>
      <trkpt lat="45.08407" lon="5.9726">
        <ele>2001.8000488281</ele>
        <time>2024-10-15T12:17:04.000Z</time>
      </trkpt>
      <trkpt lat="45.08406" lon="5.9726">
        <ele>2001.1999511719</ele>
        <time>2024-10-15T12:17:05.000Z</time>
      </trkpt>
      <trkpt lat="45.08406" lon="5.97261">
        <ele>2001</ele>
        <time>2024-10-15T12:17:06.000Z</time>
      </trkpt>
      <trkpt lat="45.08405" lon="5.97262">
        <ele>2000.8000488281</ele>
        <time>2024-10-15T12:17:07.000Z</time>
      </trkpt>
      <trkpt lat="45.08405" lon="5.97263">
        <ele>2000.4000244141</ele>
        <time>2024-10-15T12:17:08.000Z</time>
      </trkpt>
      <trkpt lat="45.08405" lon="5.97264">
        <ele>2000.1999511719</ele>
        <time>2024-10-15T12:17:09.000Z</time>
      </trkpt>
      <trkpt lat="45.08404" lon="5.97265">
        <ele>2000</ele>
        <time>2024-10-15T12:17:10.000Z</time>
      </trkpt>
      <trkpt lat="45.08404" lon="5.97266">
        <ele>1999.8000488281</ele>
        <time>2024-10-15T12:17:11.000Z</time>
      </trkpt>
      <trkpt lat="45.08404" lon="5.97267">
        <ele>1999.5999755859</ele>
        <time>2024-10-15T12:17:12.000Z</time>
      </trkpt>
      <trkpt lat="45.08403" lon="5.97268">
        <ele>1999.1999511719</ele>
        <time>2024-10-15T12:17:13.000Z</time>
      </trkpt>
      <trkpt lat="45.08403" lon="5.97269">
        <ele>1999</ele>
        <time>2024-10-15T12:17:14.000Z</time>
      </trkpt>
      <trkpt lat="45.08403" lon="5.97269">
        <ele>1999</ele>
        <time>2024-10-15T12:17:15.000Z</time>
      </trkpt>
      <trkpt lat="45.08403" lon="5.9727">
        <ele>1999</ele>
        <time>2024-10-15T12:17:16.000Z</time>
      </trkpt>
      <trkpt lat="45.08403" lon="5.97271">
        <ele>1998.8000488281</ele>
        <time>2024-10-15T12:17:17.000Z</time>
      </trkpt>
      <trkpt lat="45.08402" lon="5.97272">
        <ele>1998.8000488281</ele>
        <time>2024-10-15T12:17:18.000Z</time>
      </trkpt>
      <trkpt lat="45.08402" lon="5.97273">
        <ele>1998.5999755859</ele>
        <time>2024-10-15T12:17:19.000Z</time>
      </trkpt>
      <trkpt lat="45.08401" lon="5.97274">
        <ele>1998.1999511719</ele>
        <time>2024-10-15T12:17:20.000Z</time>
      </trkpt>
      <trkpt lat="45.08401" lon="5.97275">
        <ele>1998</ele>
        <time>2024-10-15T12:17:21.000Z</time>
      </trkpt>
      <trkpt lat="45.084" lon="5.97276">
        <ele>1997.8000488281</ele>
        <time>2024-10-15T12:17:22.000Z</time>
      </trkpt>
      <trkpt lat="45.084" lon="5.97277">
        <ele>1997.4000244141</ele>
        <time>2024-10-15T12:17:23.000Z</time>
      </trkpt>
      <trkpt lat="45.08399" lon="5.97278">
        <ele>1997</ele>
        <time>2024-10-15T12:17:24.000Z</time>
      </trkpt>
      <trkpt lat="45.08398" lon="5.97278">
        <ele>1996.5999755859</ele>
        <time>2024-10-15T12:17:25.000Z</time>
      </trkpt>
      <trkpt lat="45.08398" lon="5.97279">
        <ele>1996.4000244141</ele>
        <time>2024-10-15T12:17:26.000Z</time>
      </trkpt>
      <trkpt lat="45.08397" lon="5.97279">
        <ele>1996.1999511719</ele>
        <time>2024-10-15T12:17:27.000Z</time>
      </trkpt>
      <trkpt lat="45.08396" lon="5.9728">
        <ele>1995.8000488281</ele>
        <time>2024-10-15T12:17:28.000Z</time>
      </trkpt>
      <trkpt lat="45.08396" lon="5.9728">
        <ele>1995.4000244141</ele>
        <time>2024-10-15T12:17:29.000Z</time>
      </trkpt>
      <trkpt lat="45.08395" lon="5.97281">
        <ele>1995</ele>
        <time>2024-10-15T12:17:30.000Z</time>
      </trkpt>
      <trkpt lat="45.08395" lon="5.97282">
        <ele>1994.8000488281</ele>
        <time>2024-10-15T12:17:31.000Z</time>
      </trkpt>
      <trkpt lat="45.08394" lon="5.97283">
        <ele>1994.5999755859</ele>
        <time>2024-10-15T12:17:32.000Z</time>
      </trkpt>
      <trkpt lat="45.08394" lon="5.97284">
        <ele>1994.4000244141</ele>
        <time>2024-10-15T12:17:33.000Z</time>
      </trkpt>
      <trkpt lat="45.08394" lon="5.97285">
        <ele>1994.1999511719</ele>
        <time>2024-10-15T12:17:34.000Z</time>
      </trkpt>
      <trkpt lat="45.08393" lon="5.97286">
        <ele>1993.8000488281</ele>
        <time>2024-10-15T12:17:35.000Z</time>
      </trkpt>
      <trkpt lat="45.08393" lon="5.97286">
        <ele>1993.5999755859</ele>
        <time>2024-10-15T12:17:36.000Z</time>
      </trkpt>
      <trkpt lat="45.08393" lon="5.97287">
        <ele>1993.4000244141</ele>
        <time>2024-10-15T12:17:37.000Z</time>
      </trkpt>
      <trkpt lat="45.08393" lon="5.97288">
        <ele>1993</ele>
        <time>2024-10-15T12:17:38.000Z</time>
      </trkpt>
      <trkpt lat="45.08393" lon="5.97289">
        <ele>1992.4000244141</ele>
        <time>2024-10-15T12:17:39.000Z</time>
      </trkpt>
      <trkpt lat="45.08394" lon="5.9729">
        <ele>1992</ele>
        <time>2024-10-15T12:17:40.000Z</time>
      </trkpt>
      <trkpt lat="45.08394" lon="5.97291">
        <ele>1991.5999755859</ele>
        <time>2024-10-15T12:17:41.000Z</time>
      </trkpt>
      <trkpt lat="45.08395" lon="5.97292">
        <ele>1991.1999511719</ele>
        <time>2024-10-15T12:17:42.000Z</time>
      </trkpt>
      <trkpt lat="45.08395" lon="5.97293">
        <ele>1990.8000488281</ele>
        <time>2024-10-15T12:17:43.000Z</time>
      </trkpt>
      <trkpt lat="45.08396" lon="5.97293">
        <ele>1990.5999755859</ele>
        <time>2024-10-15T12:17:44.000Z</time>
      </trkpt>
      <trkpt lat="45.08397" lon="5.97294">
        <ele>1990</ele>
        <time>2024-10-15T12:17:45.000Z</time>
      </trkpt>
      <trkpt lat="45.08397" lon="5.97295">
        <ele>1989.5999755859</ele>
        <time>2024-10-15T12:17:46.000Z</time>
      </trkpt>
      <trkpt lat="45.08397" lon="5.97296">
        <ele>1989.4000244141</ele>
        <time>2024-10-15T12:17:47.000Z</time>
      </trkpt>
      <trkpt lat="45.08397" lon="5.97297">
        <ele>1988.8000488281</ele>
        <time>2024-10-15T12:17:48.000Z</time>
      </trkpt>
      <trkpt lat="45.08396" lon="5.97298">
        <ele>1988.5999755859</ele>
        <time>2024-10-15T12:17:49.000Z</time>
      </trkpt>
      <trkpt lat="45.08395" lon="5.97299">
        <ele>1988.5999755859</ele>
        <time>2024-10-15T12:17:50.000Z</time>
      </trkpt>
      <trkpt lat="45.08394" lon="5.97299">
        <ele>1988.4000244141</ele>
        <time>2024-10-15T12:17:51.000Z</time>
      </trkpt>
      <trkpt lat="45.08393" lon="5.973">
        <ele>1988.1999511719</ele>
        <time>2024-10-15T12:17:52.000Z</time>
      </trkpt>
      <trkpt lat="45.08393" lon="5.97301">
        <ele>1988</ele>
        <time>2024-10-15T12:17:53.000Z</time>
      </trkpt>
      <trkpt lat="45.08393" lon="5.97301">
        <ele>1987.8000488281</ele>
        <time>2024-10-15T12:17:54.000Z</time>
      </trkpt>
      <trkpt lat="45.08392" lon="5.97302">
        <ele>1987.5999755859</ele>
        <time>2024-10-15T12:17:55.000Z</time>
      </trkpt>
      <trkpt lat="45.08391" lon="5.97302">
        <ele>1987.1999511719</ele>
        <time>2024-10-15T12:17:56.000Z</time>
      </trkpt>
      <trkpt lat="45.0839" lon="5.97302">
        <ele>1987</ele>
        <time>2024-10-15T12:17:57.000Z</time>
      </trkpt>
      <trkpt lat="45.08389" lon="5.97303">
        <ele>1986.5999755859</ele>
        <time>2024-10-15T12:17:58.000Z</time>
      </trkpt>
      <trkpt lat="45.08389" lon="5.97303">
        <ele>1986.1999511719</ele>
        <time>2024-10-15T12:17:59.000Z</time>
      </trkpt>
      <trkpt lat="45.08388" lon="5.97302">
        <ele>1986</ele>
        <time>2024-10-15T12:18:00.000Z</time>
      </trkpt>
      <trkpt lat="45.08387" lon="5.97302">
        <ele>1985.8000488281</ele>
        <time>2024-10-15T12:18:01.000Z</time>
      </trkpt>
      <trkpt lat="45.08386" lon="5.97302">
        <ele>1985.1999511719</ele>
        <time>2024-10-15T12:18:02.000Z</time>
      </trkpt>
      <trkpt lat="45.08386" lon="5.97302">
        <ele>1985</ele>
        <time>2024-10-15T12:18:03.000Z</time>
      </trkpt>
      <trkpt lat="45.08385" lon="5.97302">
        <ele>1984.5999755859</ele>
        <time>2024-10-15T12:18:04.000Z</time>
      </trkpt>
      <trkpt lat="45.08384" lon="5.97302">
        <ele>1984.1999511719</ele>
        <time>2024-10-15T12:18:05.000Z</time>
      </trkpt>
      <trkpt lat="45.08384" lon="5.97303">
        <ele>1984</ele>
        <time>2024-10-15T12:18:06.000Z</time>
      </trkpt>
      <trkpt lat="45.08383" lon="5.97303">
        <ele>1983.5999755859</ele>
        <time>2024-10-15T12:18:07.000Z</time>
      </trkpt>
      <trkpt lat="45.08382" lon="5.97303">
        <ele>1983</ele>
        <time>2024-10-15T12:18:08.000Z</time>
      </trkpt>
      <trkpt lat="45.08381" lon="5.97304">
        <ele>1982.5999755859</ele>
        <time>2024-10-15T12:18:09.000Z</time>
      </trkpt>
      <trkpt lat="45.08381" lon="5.97304">
        <ele>1982.1999511719</ele>
        <time>2024-10-15T12:18:10.000Z</time>
      </trkpt>
      <trkpt lat="45.0838" lon="5.97304">
        <ele>1981.8000488281</ele>
        <time>2024-10-15T12:18:11.000Z</time>
      </trkpt>
      <trkpt lat="45.0838" lon="5.97305">
        <ele>1981.5999755859</ele>
        <time>2024-10-15T12:18:12.000Z</time>
      </trkpt>
      <trkpt lat="45.0838" lon="5.97305">
        <ele>1981.1999511719</ele>
        <time>2024-10-15T12:18:13.000Z</time>
      </trkpt>
      <trkpt lat="45.0838" lon="5.97306">
        <ele>1980.8000488281</ele>
        <time>2024-10-15T12:18:14.000Z</time>
      </trkpt>
      <trkpt lat="45.08379" lon="5.97307">
        <ele>1980.4000244141</ele>
        <time>2024-10-15T12:18:15.000Z</time>
      </trkpt>
      <trkpt lat="45.08379" lon="5.97307">
        <ele>1980.1999511719</ele>
        <time>2024-10-15T12:18:16.000Z</time>
      </trkpt>
      <trkpt lat="45.08378" lon="5.97308">
        <ele>1979.8000488281</ele>
        <time>2024-10-15T12:18:17.000Z</time>
      </trkpt>
      <trkpt lat="45.08378" lon="5.97309">
        <ele>1979.5999755859</ele>
        <time>2024-10-15T12:18:18.000Z</time>
      </trkpt>
      <trkpt lat="45.08377" lon="5.9731">
        <ele>1979.1999511719</ele>
        <time>2024-10-15T12:18:19.000Z</time>
      </trkpt>
      <trkpt lat="45.08377" lon="5.9731">
        <ele>1978.8000488281</ele>
        <time>2024-10-15T12:18:20.000Z</time>
      </trkpt>
      <trkpt lat="45.08377" lon="5.97311">
        <ele>1978.4000244141</ele>
        <time>2024-10-15T12:18:21.000Z</time>
      </trkpt>
      <trkpt lat="45.08377" lon="5.97312">
        <ele>1978.1999511719</ele>
        <time>2024-10-15T12:18:22.000Z</time>
      </trkpt>
      <trkpt lat="45.08376" lon="5.97312">
        <ele>1977.8000488281</ele>
        <time>2024-10-15T12:18:23.000Z</time>
      </trkpt>
      <trkpt lat="45.08376" lon="5.97313">
        <ele>1977.4000244141</ele>
        <time>2024-10-15T12:18:24.000Z</time>
      </trkpt>
      <trkpt lat="45.08377" lon="5.97314">
        <ele>1977</ele>
        <time>2024-10-15T12:18:25.000Z</time>
      </trkpt>
      <trkpt lat="45.08377" lon="5.97314">
        <ele>1976.4000244141</ele>
        <time>2024-10-15T12:18:26.000Z</time>
      </trkpt>
      <trkpt lat="45.08378" lon="5.97315">
        <ele>1976</ele>
        <time>2024-10-15T12:18:27.000Z</time>
      </trkpt>
      <trkpt lat="45.08378" lon="5.97316">
        <ele>1975.8000488281</ele>
        <time>2024-10-15T12:18:28.000Z</time>
      </trkpt>
      <trkpt lat="45.08378" lon="5.97317">
        <ele>1975.5999755859</ele>
        <time>2024-10-15T12:18:29.000Z</time>
      </trkpt>
      <trkpt lat="45.08378" lon="5.97318">
        <ele>1975.1999511719</ele>
        <time>2024-10-15T12:18:30.000Z</time>
      </trkpt>
      <trkpt lat="45.08377" lon="5.97319">
        <ele>1974.8000488281</ele>
        <time>2024-10-15T12:18:31.000Z</time>
      </trkpt>
      <trkpt lat="45.08377" lon="5.97319">
        <ele>1974.4000244141</ele>
        <time>2024-10-15T12:18:32.000Z</time>
      </trkpt>
      <trkpt lat="45.08376" lon="5.9732">
        <ele>1973.8000488281</ele>
        <time>2024-10-15T12:18:33.000Z</time>
      </trkpt>
      <trkpt lat="45.08375" lon="5.97321">
        <ele>1973.5999755859</ele>
        <time>2024-10-15T12:18:34.000Z</time>
      </trkpt>
      <trkpt lat="45.08375" lon="5.97322">
        <ele>1973.1999511719</ele>
        <time>2024-10-15T12:18:35.000Z</time>
      </trkpt>
      <trkpt lat="45.08374" lon="5.97322">
        <ele>1973</ele>
        <time>2024-10-15T12:18:36.000Z</time>
      </trkpt>
      <trkpt lat="45.08373" lon="5.97323">
        <ele>1972.8000488281</ele>
        <time>2024-10-15T12:18:37.000Z</time>
      </trkpt>
      <trkpt lat="45.08373" lon="5.97323">
        <ele>1972.5999755859</ele>
        <time>2024-10-15T12:18:38.000Z</time>
      </trkpt>
      <trkpt lat="45.08373" lon="5.97324">
        <ele>1972.4000244141</ele>
        <time>2024-10-15T12:18:39.000Z</time>
      </trkpt>
      <trkpt lat="45.08372" lon="5.97324">
        <ele>1972.1999511719</ele>
        <time>2024-10-15T12:18:40.000Z</time>
      </trkpt>
      <trkpt lat="45.08372" lon="5.97324">
        <ele>1972</ele>
        <time>2024-10-15T12:18:41.000Z</time>
      </trkpt>
      <trkpt lat="45.08371" lon="5.97324">
        <ele>1971.8000488281</ele>
        <time>2024-10-15T12:18:42.000Z</time>
      </trkpt>
      <trkpt lat="45.08371" lon="5.97325">
        <ele>1971.5999755859</ele>
        <time>2024-10-15T12:18:43.000Z</time>
      </trkpt>
      <trkpt lat="45.0837" lon="5.97325">
        <ele>1971.4000244141</ele>
        <time>2024-10-15T12:18:44.000Z</time>
      </trkpt>
      <trkpt lat="45.08369" lon="5.97325">
        <ele>1971</ele>
        <time>2024-10-15T12:18:45.000Z</time>
      </trkpt>
      <trkpt lat="45.08368" lon="5.97325">
        <ele>1970.5999755859</ele>
        <time>2024-10-15T12:18:46.000Z</time>
      </trkpt>
      <trkpt lat="45.08367" lon="5.97326">
        <ele>1970.4000244141</ele>
        <time>2024-10-15T12:18:47.000Z</time>
      </trkpt>
      <trkpt lat="45.08366" lon="5.97326">
        <ele>1970.1999511719</ele>
        <time>2024-10-15T12:18:48.000Z</time>
      </trkpt>
      <trkpt lat="45.08365" lon="5.97326">
        <ele>1969.8000488281</ele>
        <time>2024-10-15T12:18:49.000Z</time>
      </trkpt>
      <trkpt lat="45.08364" lon="5.97325">
        <ele>1969.5999755859</ele>
        <time>2024-10-15T12:18:50.000Z</time>
      </trkpt>
      <trkpt lat="45.08363" lon="5.97325">
        <ele>1969.4000244141</ele>
        <time>2024-10-15T12:18:51.000Z</time>
      </trkpt>
      <trkpt lat="45.08363" lon="5.97325">
        <ele>1969.4000244141</ele>
        <time>2024-10-15T12:18:52.000Z</time>
      </trkpt>
      <trkpt lat="45.08362" lon="5.97325">
        <ele>1969.1999511719</ele>
        <time>2024-10-15T12:18:53.000Z</time>
      </trkpt>
      <trkpt lat="45.08361" lon="5.97325">
        <ele>1969</ele>
        <time>2024-10-15T12:18:54.000Z</time>
      </trkpt>
      <trkpt lat="45.08361" lon="5.97326">
        <ele>1969</ele>
        <time>2024-10-15T12:18:55.000Z</time>
      </trkpt>
      <trkpt lat="45.0836" lon="5.97327">
        <ele>1968.8000488281</ele>
        <time>2024-10-15T12:18:56.000Z</time>
      </trkpt>
      <trkpt lat="45.0836" lon="5.97328">
        <ele>1968.5999755859</ele>
        <time>2024-10-15T12:18:57.000Z</time>
      </trkpt>
      <trkpt lat="45.08359" lon="5.97328">
        <ele>1968.1999511719</ele>
        <time>2024-10-15T12:18:58.000Z</time>
      </trkpt>
      <trkpt lat="45.08358" lon="5.97329">
        <ele>1967.8000488281</ele>
        <time>2024-10-15T12:18:59.000Z</time>
      </trkpt>
      <trkpt lat="45.08357" lon="5.9733">
        <ele>1967.4000244141</ele>
        <time>2024-10-15T12:19:00.000Z</time>
      </trkpt>
      <trkpt lat="45.08357" lon="5.97331">
        <ele>1967</ele>
        <time>2024-10-15T12:19:01.000Z</time>
      </trkpt>
      <trkpt lat="45.08356" lon="5.97332">
        <ele>1966.5999755859</ele>
        <time>2024-10-15T12:19:02.000Z</time>
      </trkpt>
      <trkpt lat="45.08356" lon="5.97332">
        <ele>1966.1999511719</ele>
        <time>2024-10-15T12:19:03.000Z</time>
      </trkpt>
      <trkpt lat="45.08355" lon="5.97333">
        <ele>1966</ele>
        <time>2024-10-15T12:19:04.000Z</time>
      </trkpt>
      <trkpt lat="45.08355" lon="5.97334">
        <ele>1965.4000244141</ele>
        <time>2024-10-15T12:19:05.000Z</time>
      </trkpt>
      <trkpt lat="45.08354" lon="5.97334">
        <ele>1965.1999511719</ele>
        <time>2024-10-15T12:19:06.000Z</time>
      </trkpt>
      <trkpt lat="45.08354" lon="5.97335">
        <ele>1964.8000488281</ele>
        <time>2024-10-15T12:19:07.000Z</time>
      </trkpt>
      <trkpt lat="45.08353" lon="5.97336">
        <ele>1964.5999755859</ele>
        <time>2024-10-15T12:19:08.000Z</time>
      </trkpt>
      <trkpt lat="45.08353" lon="5.97337">
        <ele>1964.1999511719</ele>
        <time>2024-10-15T12:19:09.000Z</time>
      </trkpt>
      <trkpt lat="45.08352" lon="5.97337">
        <ele>1964</ele>
        <time>2024-10-15T12:19:10.000Z</time>
      </trkpt>
      <trkpt lat="45.08352" lon="5.97338">
        <ele>1963.5999755859</ele>
        <time>2024-10-15T12:19:11.000Z</time>
      </trkpt>
      <trkpt lat="45.08351" lon="5.97339">
        <ele>1963.4000244141</ele>
        <time>2024-10-15T12:19:12.000Z</time>
      </trkpt>
      <trkpt lat="45.0835" lon="5.97339">
        <ele>1963</ele>
        <time>2024-10-15T12:19:13.000Z</time>
      </trkpt>
      <trkpt lat="45.0835" lon="5.9734">
        <ele>1962.8000488281</ele>
        <time>2024-10-15T12:19:14.000Z</time>
      </trkpt>
      <trkpt lat="45.08349" lon="5.97341">
        <ele>1962.4000244141</ele>
        <time>2024-10-15T12:19:15.000Z</time>
      </trkpt>
      <trkpt lat="45.08349" lon="5.97342">
        <ele>1962</ele>
        <time>2024-10-15T12:19:16.000Z</time>
      </trkpt>
      <trkpt lat="45.08349" lon="5.97342">
        <ele>1961.8000488281</ele>
        <time>2024-10-15T12:19:17.000Z</time>
      </trkpt>
      <trkpt lat="45.08348" lon="5.97343">
        <ele>1961.4000244141</ele>
        <time>2024-10-15T12:19:18.000Z</time>
      </trkpt>
      <trkpt lat="45.08347" lon="5.97343">
        <ele>1961</ele>
        <time>2024-10-15T12:19:19.000Z</time>
      </trkpt>
      <trkpt lat="45.08346" lon="5.97344">
        <ele>1960.5999755859</ele>
        <time>2024-10-15T12:19:20.000Z</time>
      </trkpt>
      <trkpt lat="45.08346" lon="5.97344">
        <ele>1960.1999511719</ele>
        <time>2024-10-15T12:19:21.000Z</time>
      </trkpt>
      <trkpt lat="45.08346" lon="5.97344">
        <ele>1960</ele>
        <time>2024-10-15T12:19:22.000Z</time>
      </trkpt>
      <trkpt lat="45.08345" lon="5.97345">
        <ele>1960</ele>
        <time>2024-10-15T12:19:23.000Z</time>
      </trkpt>
      <trkpt lat="45.08345" lon="5.97345">
        <ele>1959.8000488281</ele>
        <time>2024-10-15T12:19:24.000Z</time>
      </trkpt>
      <trkpt lat="45.08346" lon="5.97345">
        <ele>1959.5999755859</ele>
        <time>2024-10-15T12:19:25.000Z</time>
      </trkpt>
      <trkpt lat="45.08346" lon="5.97346">
        <ele>1959.1999511719</ele>
        <time>2024-10-15T12:19:26.000Z</time>
      </trkpt>
      <trkpt lat="45.08346" lon="5.97346">
        <ele>1959</ele>
        <time>2024-10-15T12:19:27.000Z</time>
      </trkpt>
      <trkpt lat="45.08346" lon="5.97347">
        <ele>1958.8000488281</ele>
        <time>2024-10-15T12:19:28.000Z</time>
      </trkpt>
      <trkpt lat="45.08345" lon="5.97348">
        <ele>1958.8000488281</ele>
        <time>2024-10-15T12:19:29.000Z</time>
      </trkpt>
      <trkpt lat="45.08344" lon="5.97349">
        <ele>1958.4000244141</ele>
        <time>2024-10-15T12:19:30.000Z</time>
      </trkpt>
      <trkpt lat="45.08344" lon="5.97349">
        <ele>1957.8000488281</ele>
        <time>2024-10-15T12:19:31.000Z</time>
      </trkpt>
      <trkpt lat="45.08343" lon="5.9735">
        <ele>1957.4000244141</ele>
        <time>2024-10-15T12:19:32.000Z</time>
      </trkpt>
      <trkpt lat="45.08342" lon="5.9735">
        <ele>1957.1999511719</ele>
        <time>2024-10-15T12:19:33.000Z</time>
      </trkpt>
      <trkpt lat="45.08342" lon="5.9735">
        <ele>1956.8000488281</ele>
        <time>2024-10-15T12:19:34.000Z</time>
      </trkpt>
      <trkpt lat="45.08341" lon="5.97351">
        <ele>1956.4000244141</ele>
        <time>2024-10-15T12:19:35.000Z</time>
      </trkpt>
      <trkpt lat="45.08341" lon="5.97351">
        <ele>1956.1999511719</ele>
        <time>2024-10-15T12:19:36.000Z</time>
      </trkpt>
      <trkpt lat="45.0834" lon="5.97352">
        <ele>1955.8000488281</ele>
        <time>2024-10-15T12:19:37.000Z</time>
      </trkpt>
      <trkpt lat="45.0834" lon="5.97353">
        <ele>1955.5999755859</ele>
        <time>2024-10-15T12:19:38.000Z</time>
      </trkpt>
      <trkpt lat="45.0834" lon="5.97354">
        <ele>1955.1999511719</ele>
        <time>2024-10-15T12:19:39.000Z</time>
      </trkpt>
      <trkpt lat="45.08341" lon="5.97355">
        <ele>1954.8000488281</ele>
        <time>2024-10-15T12:19:40.000Z</time>
      </trkpt>
      <trkpt lat="45.0834" lon="5.97356">
        <ele>1954.5999755859</ele>
        <time>2024-10-15T12:19:41.000Z</time>
      </trkpt>
      <trkpt lat="45.0834" lon="5.97357">
        <ele>1954.1999511719</ele>
        <time>2024-10-15T12:19:42.000Z</time>
      </trkpt>
      <trkpt lat="45.0834" lon="5.97357">
        <ele>1954</ele>
        <time>2024-10-15T12:19:43.000Z</time>
      </trkpt>
      <trkpt lat="45.08339" lon="5.97358">
        <ele>1953.5999755859</ele>
        <time>2024-10-15T12:19:44.000Z</time>
      </trkpt>
      <trkpt lat="45.08339" lon="5.97358">
        <ele>1953.1999511719</ele>
        <time>2024-10-15T12:19:45.000Z</time>
      </trkpt>
      <trkpt lat="45.08338" lon="5.97359">
        <ele>1953</ele>
        <time>2024-10-15T12:19:46.000Z</time>
      </trkpt>
      <trkpt lat="45.08338" lon="5.9736">
        <ele>1952.5999755859</ele>
        <time>2024-10-15T12:19:47.000Z</time>
      </trkpt>
      <trkpt lat="45.08337" lon="5.9736">
        <ele>1952.4000244141</ele>
        <time>2024-10-15T12:19:48.000Z</time>
      </trkpt>
      <trkpt lat="45.08337" lon="5.97361">
        <ele>1952.1999511719</ele>
        <time>2024-10-15T12:19:49.000Z</time>
      </trkpt>
      <trkpt lat="45.08336" lon="5.97361">
        <ele>1951.5999755859</ele>
        <time>2024-10-15T12:19:50.000Z</time>
      </trkpt>
      <trkpt lat="45.08336" lon="5.97362">
        <ele>1951.1999511719</ele>
        <time>2024-10-15T12:19:51.000Z</time>
      </trkpt>
      <trkpt lat="45.08335" lon="5.97363">
        <ele>1951</ele>
        <time>2024-10-15T12:19:52.000Z</time>
      </trkpt>
      <trkpt lat="45.08335" lon="5.97364">
        <ele>1950.8000488281</ele>
        <time>2024-10-15T12:19:53.000Z</time>
      </trkpt>
      <trkpt lat="45.08334" lon="5.97364">
        <ele>1950.4000244141</ele>
        <time>2024-10-15T12:19:54.000Z</time>
      </trkpt>
      <trkpt lat="45.08334" lon="5.97365">
        <ele>1950.1999511719</ele>
        <time>2024-10-15T12:19:55.000Z</time>
      </trkpt>
      <trkpt lat="45.08334" lon="5.97365">
        <ele>1949.8000488281</ele>
        <time>2024-10-15T12:19:56.000Z</time>
      </trkpt>
      <trkpt lat="45.08333" lon="5.97365">
        <ele>1949.5999755859</ele>
        <time>2024-10-15T12:19:57.000Z</time>
      </trkpt>
      <trkpt lat="45.08333" lon="5.97366">
        <ele>1949</ele>
        <time>2024-10-15T12:19:58.000Z</time>
      </trkpt>
      <trkpt lat="45.08332" lon="5.97367">
        <ele>1948.8000488281</ele>
        <time>2024-10-15T12:19:59.000Z</time>
      </trkpt>
      <trkpt lat="45.08332" lon="5.97367">
        <ele>1948.5999755859</ele>
        <time>2024-10-15T12:20:00.000Z</time>
      </trkpt>
      <trkpt lat="45.08331" lon="5.97367">
        <ele>1948.1999511719</ele>
        <time>2024-10-15T12:20:01.000Z</time>
      </trkpt>
      <trkpt lat="45.08331" lon="5.97368">
        <ele>1947.8000488281</ele>
        <time>2024-10-15T12:20:02.000Z</time>
      </trkpt>
      <trkpt lat="45.0833" lon="5.97368">
        <ele>1947.8000488281</ele>
        <time>2024-10-15T12:20:03.000Z</time>
      </trkpt>
      <trkpt lat="45.08329" lon="5.97369">
        <ele>1947.4000244141</ele>
        <time>2024-10-15T12:20:04.000Z</time>
      </trkpt>
      <trkpt lat="45.08329" lon="5.97369">
        <ele>1947.1999511719</ele>
        <time>2024-10-15T12:20:05.000Z</time>
      </trkpt>
      <trkpt lat="45.08329" lon="5.9737">
        <ele>1946.8000488281</ele>
        <time>2024-10-15T12:20:06.000Z</time>
      </trkpt>
      <trkpt lat="45.08328" lon="5.9737">
        <ele>1946.5999755859</ele>
        <time>2024-10-15T12:20:07.000Z</time>
      </trkpt>
      <trkpt lat="45.08328" lon="5.97371">
        <ele>1946.1999511719</ele>
        <time>2024-10-15T12:20:08.000Z</time>
      </trkpt>
      <trkpt lat="45.08327" lon="5.97372">
        <ele>1945.8000488281</ele>
        <time>2024-10-15T12:20:09.000Z</time>
      </trkpt>
      <trkpt lat="45.08327" lon="5.97372">
        <ele>1945.5999755859</ele>
        <time>2024-10-15T12:20:10.000Z</time>
      </trkpt>
      <trkpt lat="45.08326" lon="5.97373">
        <ele>1945.4000244141</ele>
        <time>2024-10-15T12:20:11.000Z</time>
      </trkpt>
      <trkpt lat="45.08325" lon="5.97374">
        <ele>1945.1999511719</ele>
        <time>2024-10-15T12:20:12.000Z</time>
      </trkpt>
      <trkpt lat="45.08325" lon="5.97374">
        <ele>1944.8000488281</ele>
        <time>2024-10-15T12:20:13.000Z</time>
      </trkpt>
      <trkpt lat="45.08324" lon="5.97374">
        <ele>1944.4000244141</ele>
        <time>2024-10-15T12:20:14.000Z</time>
      </trkpt>
      <trkpt lat="45.08324" lon="5.97375">
        <ele>1944</ele>
        <time>2024-10-15T12:20:15.000Z</time>
      </trkpt>
      <trkpt lat="45.08323" lon="5.97375">
        <ele>1943.5999755859</ele>
        <time>2024-10-15T12:20:16.000Z</time>
      </trkpt>
      <trkpt lat="45.08323" lon="5.97376">
        <ele>1943.4000244141</ele>
        <time>2024-10-15T12:20:17.000Z</time>
      </trkpt>
      <trkpt lat="45.08322" lon="5.97378">
        <ele>1943</ele>
        <time>2024-10-15T12:20:18.000Z</time>
      </trkpt>
      <trkpt lat="45.08321" lon="5.97379">
        <ele>1942.5999755859</ele>
        <time>2024-10-15T12:20:19.000Z</time>
      </trkpt>
      <trkpt lat="45.08321" lon="5.9738">
        <ele>1942.4000244141</ele>
        <time>2024-10-15T12:20:20.000Z</time>
      </trkpt>
      <trkpt lat="45.0832" lon="5.9738">
        <ele>1942</ele>
        <time>2024-10-15T12:20:21.000Z</time>
      </trkpt>
      <trkpt lat="45.0832" lon="5.97381">
        <ele>1941.5999755859</ele>
        <time>2024-10-15T12:20:22.000Z</time>
      </trkpt>
      <trkpt lat="45.08319" lon="5.97381">
        <ele>1941.1999511719</ele>
        <time>2024-10-15T12:20:23.000Z</time>
      </trkpt>
      <trkpt lat="45.08318" lon="5.97381">
        <ele>1940.8000488281</ele>
        <time>2024-10-15T12:20:24.000Z</time>
      </trkpt>
      <trkpt lat="45.08318" lon="5.97382">
        <ele>1940.5999755859</ele>
        <time>2024-10-15T12:20:25.000Z</time>
      </trkpt>
      <trkpt lat="45.08317" lon="5.97382">
        <ele>1940.1999511719</ele>
        <time>2024-10-15T12:20:26.000Z</time>
      </trkpt>
      <trkpt lat="45.08317" lon="5.97383">
        <ele>1939.5999755859</ele>
        <time>2024-10-15T12:20:27.000Z</time>
      </trkpt>
      <trkpt lat="45.08316" lon="5.97384">
        <ele>1939.4000244141</ele>
        <time>2024-10-15T12:20:28.000Z</time>
      </trkpt>
      <trkpt lat="45.08315" lon="5.97384">
        <ele>1939</ele>
        <time>2024-10-15T12:20:29.000Z</time>
      </trkpt>
      <trkpt lat="45.08315" lon="5.97385">
        <ele>1938.8000488281</ele>
        <time>2024-10-15T12:20:30.000Z</time>
      </trkpt>
      <trkpt lat="45.08314" lon="5.97385">
        <ele>1938.4000244141</ele>
        <time>2024-10-15T12:20:31.000Z</time>
      </trkpt>
      <trkpt lat="45.08314" lon="5.97386">
        <ele>1938.1999511719</ele>
        <time>2024-10-15T12:20:32.000Z</time>
      </trkpt>
      <trkpt lat="45.08313" lon="5.97386">
        <ele>1937.8000488281</ele>
        <time>2024-10-15T12:20:33.000Z</time>
      </trkpt>
      <trkpt lat="45.08312" lon="5.97387">
        <ele>1937.5999755859</ele>
        <time>2024-10-15T12:20:34.000Z</time>
      </trkpt>
      <trkpt lat="45.08312" lon="5.97387">
        <ele>1937.1999511719</ele>
        <time>2024-10-15T12:20:35.000Z</time>
      </trkpt>
      <trkpt lat="45.08311" lon="5.97388">
        <ele>1936.8000488281</ele>
        <time>2024-10-15T12:20:36.000Z</time>
      </trkpt>
      <trkpt lat="45.08311" lon="5.97389">
        <ele>1936.1999511719</ele>
        <time>2024-10-15T12:20:37.000Z</time>
      </trkpt>
      <trkpt lat="45.0831" lon="5.9739">
        <ele>1935.8000488281</ele>
        <time>2024-10-15T12:20:38.000Z</time>
      </trkpt>
      <trkpt lat="45.0831" lon="5.97391">
        <ele>1935.5999755859</ele>
        <time>2024-10-15T12:20:39.000Z</time>
      </trkpt>
      <trkpt lat="45.08309" lon="5.97391">
        <ele>1935.1999511719</ele>
        <time>2024-10-15T12:20:40.000Z</time>
      </trkpt>
      <trkpt lat="45.08309" lon="5.97391">
        <ele>1934.8000488281</ele>
        <time>2024-10-15T12:20:41.000Z</time>
      </trkpt>
      <trkpt lat="45.08309" lon="5.97392">
        <ele>1934.5999755859</ele>
        <time>2024-10-15T12:20:42.000Z</time>
      </trkpt>
      <trkpt lat="45.08308" lon="5.97393">
        <ele>1934.4000244141</ele>
        <time>2024-10-15T12:20:43.000Z</time>
      </trkpt>
      <trkpt lat="45.08307" lon="5.97393">
        <ele>1934.1999511719</ele>
        <time>2024-10-15T12:20:44.000Z</time>
      </trkpt>
      <trkpt lat="45.08306" lon="5.97394">
        <ele>1933.8000488281</ele>
        <time>2024-10-15T12:20:45.000Z</time>
      </trkpt>
      <trkpt lat="45.08305" lon="5.97394">
        <ele>1933.5999755859</ele>
        <time>2024-10-15T12:20:46.000Z</time>
      </trkpt>
      <trkpt lat="45.08305" lon="5.97394">
        <ele>1933.1999511719</ele>
        <time>2024-10-15T12:20:47.000Z</time>
      </trkpt>
      <trkpt lat="45.08304" lon="5.97395">
        <ele>1933</ele>
        <time>2024-10-15T12:20:48.000Z</time>
      </trkpt>
      <trkpt lat="45.08303" lon="5.97396">
        <ele>1932.5999755859</ele>
        <time>2024-10-15T12:20:49.000Z</time>
      </trkpt>
      <trkpt lat="45.08303" lon="5.97396">
        <ele>1932.1999511719</ele>
        <time>2024-10-15T12:20:50.000Z</time>
      </trkpt>
      <trkpt lat="45.08302" lon="5.97396">
        <ele>1932</ele>
        <time>2024-10-15T12:20:51.000Z</time>
      </trkpt>
      <trkpt lat="45.08301" lon="5.97397">
        <ele>1932</ele>
        <time>2024-10-15T12:20:52.000Z</time>
      </trkpt>
      <trkpt lat="45.083" lon="5.97397">
        <ele>1931.8000488281</ele>
        <time>2024-10-15T12:20:53.000Z</time>
      </trkpt>
      <trkpt lat="45.083" lon="5.97397">
        <ele>1931.5999755859</ele>
        <time>2024-10-15T12:20:54.000Z</time>
      </trkpt>
      <trkpt lat="45.08299" lon="5.97398">
        <ele>1931.4000244141</ele>
        <time>2024-10-15T12:20:55.000Z</time>
      </trkpt>
      <trkpt lat="45.08298" lon="5.97398">
        <ele>1931</ele>
        <time>2024-10-15T12:20:56.000Z</time>
      </trkpt>
      <trkpt lat="45.08297" lon="5.97399">
        <ele>1930.5999755859</ele>
        <time>2024-10-15T12:20:57.000Z</time>
      </trkpt>
      <trkpt lat="45.08297" lon="5.97399">
        <ele>1930.1999511719</ele>
        <time>2024-10-15T12:20:58.000Z</time>
      </trkpt>
      <trkpt lat="45.08296" lon="5.974">
        <ele>1930</ele>
        <time>2024-10-15T12:20:59.000Z</time>
      </trkpt>
      <trkpt lat="45.08295" lon="5.974">
        <ele>1929.5999755859</ele>
        <time>2024-10-15T12:21:00.000Z</time>
      </trkpt>
      <trkpt lat="45.08294" lon="5.97401">
        <ele>1929</ele>
        <time>2024-10-15T12:21:01.000Z</time>
      </trkpt>
      <trkpt lat="45.08294" lon="5.97402">
        <ele>1928.5999755859</ele>
        <time>2024-10-15T12:21:02.000Z</time>
      </trkpt>
      <trkpt lat="45.08293" lon="5.97402">
        <ele>1928</ele>
        <time>2024-10-15T12:21:03.000Z</time>
      </trkpt>
      <trkpt lat="45.08293" lon="5.97403">
        <ele>1927.5999755859</ele>
        <time>2024-10-15T12:21:04.000Z</time>
      </trkpt>
      <trkpt lat="45.08292" lon="5.97404">
        <ele>1927.1999511719</ele>
        <time>2024-10-15T12:21:05.000Z</time>
      </trkpt>
      <trkpt lat="45.08292" lon="5.97404">
        <ele>1926.8000488281</ele>
        <time>2024-10-15T12:21:06.000Z</time>
      </trkpt>
      <trkpt lat="45.08291" lon="5.97405">
        <ele>1926.4000244141</ele>
        <time>2024-10-15T12:21:07.000Z</time>
      </trkpt>
      <trkpt lat="45.0829" lon="5.97405">
        <ele>1926</ele>
        <time>2024-10-15T12:21:08.000Z</time>
      </trkpt>
      <trkpt lat="45.0829" lon="5.97406">
        <ele>1925.5999755859</ele>
        <time>2024-10-15T12:21:09.000Z</time>
      </trkpt>
      <trkpt lat="45.08289" lon="5.97406">
        <ele>1925.1999511719</ele>
        <time>2024-10-15T12:21:10.000Z</time>
      </trkpt>
      <trkpt lat="45.08289" lon="5.97407">
        <ele>1924.8000488281</ele>
        <time>2024-10-15T12:21:11.000Z</time>
      </trkpt>
      <trkpt lat="45.08288" lon="5.97407">
        <ele>1924.4000244141</ele>
        <time>2024-10-15T12:21:12.000Z</time>
      </trkpt>
      <trkpt lat="45.08288" lon="5.97408">
        <ele>1924.1999511719</ele>
        <time>2024-10-15T12:21:13.000Z</time>
      </trkpt>
      <trkpt lat="45.08287" lon="5.97408">
        <ele>1923.5999755859</ele>
        <time>2024-10-15T12:21:14.000Z</time>
      </trkpt>
      <trkpt lat="45.08287" lon="5.97409">
        <ele>1923.1999511719</ele>
        <time>2024-10-15T12:21:15.000Z</time>
      </trkpt>
      <trkpt lat="45.08286" lon="5.9741">
        <ele>1922.8000488281</ele>
        <time>2024-10-15T12:21:16.000Z</time>
      </trkpt>
      <trkpt lat="45.08285" lon="5.97411">
        <ele>1922.8000488281</ele>
        <time>2024-10-15T12:21:17.000Z</time>
      </trkpt>
      <trkpt lat="45.08284" lon="5.97411">
        <ele>1922.5999755859</ele>
        <time>2024-10-15T12:21:18.000Z</time>
      </trkpt>
      <trkpt lat="45.08284" lon="5.97412">
        <ele>1922.1999511719</ele>
        <time>2024-10-15T12:21:19.000Z</time>
      </trkpt>
      <trkpt lat="45.08283" lon="5.97412">
        <ele>1921.8000488281</ele>
        <time>2024-10-15T12:21:20.000Z</time>
      </trkpt>
      <trkpt lat="45.08283" lon="5.97412">
        <ele>1921.4000244141</ele>
        <time>2024-10-15T12:21:21.000Z</time>
      </trkpt>
      <trkpt lat="45.08283" lon="5.97413">
        <ele>1921.1999511719</ele>
        <time>2024-10-15T12:21:22.000Z</time>
      </trkpt>
      <trkpt lat="45.08283" lon="5.97413">
        <ele>1920.8000488281</ele>
        <time>2024-10-15T12:21:23.000Z</time>
      </trkpt>
      <trkpt lat="45.08283" lon="5.97413">
        <ele>1920.5999755859</ele>
        <time>2024-10-15T12:21:24.000Z</time>
      </trkpt>
      <trkpt lat="45.08283" lon="5.97413">
        <ele>1920.5999755859</ele>
        <time>2024-10-15T12:21:25.000Z</time>
      </trkpt>
      <trkpt lat="45.08283" lon="5.97413">
        <ele>1920.5999755859</ele>
        <time>2024-10-15T12:21:26.000Z</time>
      </trkpt>
      <trkpt lat="45.08283" lon="5.97413">
        <ele>1920.5999755859</ele>
        <time>2024-10-15T12:21:27.000Z</time>
      </trkpt>
      <trkpt lat="45.08283" lon="5.97413">
        <ele>1920.4000244141</ele>
        <time>2024-10-15T12:21:28.000Z</time>
      </trkpt>
      <trkpt lat="45.08283" lon="5.97413">
        <ele>1920.4000244141</ele>
        <time>2024-10-15T12:21:29.000Z</time>
      </trkpt>
      <trkpt lat="45.08283" lon="5.97413">
        <ele>1920.4000244141</ele>
        <time>2024-10-15T12:21:30.000Z</time>
      </trkpt>
      <trkpt lat="45.08283" lon="5.97413">
        <ele>1920.4000244141</ele>
        <time>2024-10-15T12:21:31.000Z</time>
      </trkpt>
      <trkpt lat="45.08283" lon="5.97413">
        <ele>1920.4000244141</ele>
        <time>2024-10-15T12:21:32.000Z</time>
      </trkpt>
      <trkpt lat="45.08283" lon="5.97413">
        <ele>1920.4000244141</ele>
        <time>2024-10-15T12:21:33.000Z</time>
      </trkpt>
      <trkpt lat="45.08283" lon="5.97413">
        <ele>1920.4000244141</ele>
        <time>2024-10-15T12:21:34.000Z</time>
      </trkpt>
      <trkpt lat="45.08283" lon="5.97413">
        <ele>1920.4000244141</ele>
        <time>2024-10-15T12:21:35.000Z</time>
      </trkpt>
      <trkpt lat="45.08283" lon="5.97413">
        <ele>1920.4000244141</ele>
        <time>2024-10-15T12:21:36.000Z</time>
      </trkpt>
      <trkpt lat="45.08283" lon="5.97413">
        <ele>1920.4000244141</ele>
        <time>2024-10-15T12:21:37.000Z</time>
      </trkpt>
      <trkpt lat="45.08283" lon="5.97413">
        <ele>1920.4000244141</ele>
        <time>2024-10-15T12:21:38.000Z</time>
      </trkpt>
      <trkpt lat="45.08283" lon="5.97413">
        <ele>1920.4000244141</ele>
        <time>2024-10-15T12:21:39.000Z</time>
      </trkpt>
      <trkpt lat="45.08283" lon="5.97413">
        <ele>1920.4000244141</ele>
        <time>2024-10-15T12:21:40.000Z</time>
      </trkpt>
      <trkpt lat="45.08283" lon="5.97413">
        <ele>1920.1999511719</ele>
        <time>2024-10-15T12:21:41.000Z</time>
      </trkpt>
      <trkpt lat="45.08283" lon="5.97413">
        <ele>1920</ele>
        <time>2024-10-15T12:21:42.000Z</time>
      </trkpt>
      <trkpt lat="45.08283" lon="5.97413">
        <ele>1920</ele>
        <time>2024-10-15T12:21:43.000Z</time>
      </trkpt>
      <trkpt lat="45.08283" lon="5.97413">
        <ele>1920</ele>
        <time>2024-10-15T12:21:44.000Z</time>
      </trkpt>
      <trkpt lat="45.08283" lon="5.97413">
        <ele>1920</ele>
        <time>2024-10-15T12:21:45.000Z</time>
      </trkpt>
      <trkpt lat="45.08283" lon="5.97413">
        <ele>1920</ele>
        <time>2024-10-15T12:21:46.000Z</time>
      </trkpt>
      <trkpt lat="45.08283" lon="5.97413">
        <ele>1919.5999755859</ele>
        <time>2024-10-15T12:21:47.000Z</time>
      </trkpt>
      <trkpt lat="45.08283" lon="5.97413">
        <ele>1919.1999511719</ele>
        <time>2024-10-15T12:21:48.000Z</time>
      </trkpt>
      <trkpt lat="45.08283" lon="5.97413">
        <ele>1919</ele>
        <time>2024-10-15T12:21:49.000Z</time>
      </trkpt>
      <trkpt lat="45.08282" lon="5.97414">
        <ele>1918.8000488281</ele>
        <time>2024-10-15T12:21:50.000Z</time>
      </trkpt>
      <trkpt lat="45.08282" lon="5.97416">
        <ele>1918.1999511719</ele>
        <time>2024-10-15T12:21:51.000Z</time>
      </trkpt>
      <trkpt lat="45.08282" lon="5.97418">
        <ele>1917.8000488281</ele>
        <time>2024-10-15T12:21:52.000Z</time>
      </trkpt>
      <trkpt lat="45.08281" lon="5.97419">
        <ele>1917.8000488281</ele>
        <time>2024-10-15T12:21:53.000Z</time>
      </trkpt>
      <trkpt lat="45.0828" lon="5.9742">
        <ele>1917.5999755859</ele>
        <time>2024-10-15T12:21:54.000Z</time>
      </trkpt>
      <trkpt lat="45.08279" lon="5.97422">
        <ele>1917.1999511719</ele>
        <time>2024-10-15T12:21:55.000Z</time>
      </trkpt>
      <trkpt lat="45.08279" lon="5.97423">
        <ele>1916.5999755859</ele>
        <time>2024-10-15T12:21:56.000Z</time>
      </trkpt>
      <trkpt lat="45.08278" lon="5.97425">
        <ele>1916.1999511719</ele>
        <time>2024-10-15T12:21:57.000Z</time>
      </trkpt>
      <trkpt lat="45.08277" lon="5.97426">
        <ele>1916.1999511719</ele>
        <time>2024-10-15T12:21:58.000Z</time>
      </trkpt>
      <trkpt lat="45.08276" lon="5.97426">
        <ele>1915.5999755859</ele>
        <time>2024-10-15T12:21:59.000Z</time>
      </trkpt>
      <trkpt lat="45.08275" lon="5.97427">
        <ele>1915.4000244141</ele>
        <time>2024-10-15T12:22:00.000Z</time>
      </trkpt>
      <trkpt lat="45.08275" lon="5.97427">
        <ele>1914.8000488281</ele>
        <time>2024-10-15T12:22:01.000Z</time>
      </trkpt>
      <trkpt lat="45.08274" lon="5.97428">
        <ele>1914.5999755859</ele>
        <time>2024-10-15T12:22:02.000Z</time>
      </trkpt>
      <trkpt lat="45.08274" lon="5.97429">
        <ele>1914</ele>
        <time>2024-10-15T12:22:03.000Z</time>
      </trkpt>
      <trkpt lat="45.08273" lon="5.97429">
        <ele>1913.8000488281</ele>
        <time>2024-10-15T12:22:04.000Z</time>
      </trkpt>
      <trkpt lat="45.08272" lon="5.9743">
        <ele>1913.8000488281</ele>
        <time>2024-10-15T12:22:05.000Z</time>
      </trkpt>
      <trkpt lat="45.08271" lon="5.9743">
        <ele>1913.5999755859</ele>
        <time>2024-10-15T12:22:06.000Z</time>
      </trkpt>
      <trkpt lat="45.08271" lon="5.9743">
        <ele>1913.5999755859</ele>
        <time>2024-10-15T12:22:07.000Z</time>
      </trkpt>
      <trkpt lat="45.08271" lon="5.97431">
        <ele>1913.1999511719</ele>
        <time>2024-10-15T12:22:08.000Z</time>
      </trkpt>
      <trkpt lat="45.08272" lon="5.97432">
        <ele>1913.1999511719</ele>
        <time>2024-10-15T12:22:09.000Z</time>
      </trkpt>
      <trkpt lat="45.08272" lon="5.97433">
        <ele>1913.1999511719</ele>
        <time>2024-10-15T12:22:10.000Z</time>
      </trkpt>
      <trkpt lat="45.08271" lon="5.97434">
        <ele>1912.8000488281</ele>
        <time>2024-10-15T12:22:11.000Z</time>
      </trkpt>
      <trkpt lat="45.08271" lon="5.97435">
        <ele>1912.4000244141</ele>
        <time>2024-10-15T12:22:12.000Z</time>
      </trkpt>
      <trkpt lat="45.0827" lon="5.97436">
        <ele>1911.4000244141</ele>
        <time>2024-10-15T12:22:13.000Z</time>
      </trkpt>
      <trkpt lat="45.08269" lon="5.97436">
        <ele>1910.8000488281</ele>
        <time>2024-10-15T12:22:14.000Z</time>
      </trkpt>
      <trkpt lat="45.08267" lon="5.97437">
        <ele>1910.5999755859</ele>
        <time>2024-10-15T12:22:15.000Z</time>
      </trkpt>
      <trkpt lat="45.08267" lon="5.97437">
        <ele>1910</ele>
        <time>2024-10-15T12:22:16.000Z</time>
      </trkpt>
      <trkpt lat="45.08266" lon="5.97438">
        <ele>1909.5999755859</ele>
        <time>2024-10-15T12:22:17.000Z</time>
      </trkpt>
      <trkpt lat="45.08266" lon="5.97439">
        <ele>1909.1999511719</ele>
        <time>2024-10-15T12:22:18.000Z</time>
      </trkpt>
      <trkpt lat="45.08265" lon="5.9744">
        <ele>1909</ele>
        <time>2024-10-15T12:22:19.000Z</time>
      </trkpt>
      <trkpt lat="45.08265" lon="5.9744">
        <ele>1908.4000244141</ele>
        <time>2024-10-15T12:22:20.000Z</time>
      </trkpt>
      <trkpt lat="45.08264" lon="5.97441">
        <ele>1908.1999511719</ele>
        <time>2024-10-15T12:22:21.000Z</time>
      </trkpt>
      <trkpt lat="45.08263" lon="5.97442">
        <ele>1907.8000488281</ele>
        <time>2024-10-15T12:22:22.000Z</time>
      </trkpt>
      <trkpt lat="45.08262" lon="5.97442">
        <ele>1907.5999755859</ele>
        <time>2024-10-15T12:22:23.000Z</time>
      </trkpt>
      <trkpt lat="45.08261" lon="5.97443">
        <ele>1907.4000244141</ele>
        <time>2024-10-15T12:22:24.000Z</time>
      </trkpt>
      <trkpt lat="45.08261" lon="5.97443">
        <ele>1907.1999511719</ele>
        <time>2024-10-15T12:22:25.000Z</time>
      </trkpt>
      <trkpt lat="45.0826" lon="5.97444">
        <ele>1907</ele>
        <time>2024-10-15T12:22:26.000Z</time>
      </trkpt>
      <trkpt lat="45.08259" lon="5.97445">
        <ele>1906.5999755859</ele>
        <time>2024-10-15T12:22:27.000Z</time>
      </trkpt>
      <trkpt lat="45.08258" lon="5.97445">
        <ele>1906.4000244141</ele>
        <time>2024-10-15T12:22:28.000Z</time>
      </trkpt>
      <trkpt lat="45.08257" lon="5.97445">
        <ele>1906</ele>
        <time>2024-10-15T12:22:29.000Z</time>
      </trkpt>
      <trkpt lat="45.08257" lon="5.97446">
        <ele>1905.8000488281</ele>
        <time>2024-10-15T12:22:30.000Z</time>
      </trkpt>
      <trkpt lat="45.08256" lon="5.97447">
        <ele>1905.5999755859</ele>
        <time>2024-10-15T12:22:31.000Z</time>
      </trkpt>
      <trkpt lat="45.08255" lon="5.97447">
        <ele>1905</ele>
        <time>2024-10-15T12:22:32.000Z</time>
      </trkpt>
      <trkpt lat="45.08255" lon="5.97448">
        <ele>1904.8000488281</ele>
        <time>2024-10-15T12:22:33.000Z</time>
      </trkpt>
      <trkpt lat="45.08255" lon="5.97449">
        <ele>1904.5999755859</ele>
        <time>2024-10-15T12:22:34.000Z</time>
      </trkpt>
      <trkpt lat="45.08255" lon="5.97449">
        <ele>1903.8000488281</ele>
        <time>2024-10-15T12:22:35.000Z</time>
      </trkpt>
      <trkpt lat="45.08254" lon="5.9745">
        <ele>1903</ele>
        <time>2024-10-15T12:22:36.000Z</time>
      </trkpt>
      <trkpt lat="45.08254" lon="5.97451">
        <ele>1902.8000488281</ele>
        <time>2024-10-15T12:22:37.000Z</time>
      </trkpt>
      <trkpt lat="45.08253" lon="5.97452">
        <ele>1902.5999755859</ele>
        <time>2024-10-15T12:22:38.000Z</time>
      </trkpt>
      <trkpt lat="45.08253" lon="5.97453">
        <ele>1902.1999511719</ele>
        <time>2024-10-15T12:22:39.000Z</time>
      </trkpt>
      <trkpt lat="45.08252" lon="5.97453">
        <ele>1901.8000488281</ele>
        <time>2024-10-15T12:22:40.000Z</time>
      </trkpt>
      <trkpt lat="45.08252" lon="5.97454">
        <ele>1901.8000488281</ele>
        <time>2024-10-15T12:22:41.000Z</time>
      </trkpt>
      <trkpt lat="45.08251" lon="5.97454">
        <ele>1901.5999755859</ele>
        <time>2024-10-15T12:22:42.000Z</time>
      </trkpt>
      <trkpt lat="45.0825" lon="5.97455">
        <ele>1901.1999511719</ele>
        <time>2024-10-15T12:22:43.000Z</time>
      </trkpt>
      <trkpt lat="45.0825" lon="5.97455">
        <ele>1901</ele>
        <time>2024-10-15T12:22:44.000Z</time>
      </trkpt>
      <trkpt lat="45.08249" lon="5.97456">
        <ele>1900.8000488281</ele>
        <time>2024-10-15T12:22:45.000Z</time>
      </trkpt>
      <trkpt lat="45.08248" lon="5.97457">
        <ele>1900.5999755859</ele>
        <time>2024-10-15T12:22:46.000Z</time>
      </trkpt>
      <trkpt lat="45.08247" lon="5.97457">
        <ele>1900.4000244141</ele>
        <time>2024-10-15T12:22:47.000Z</time>
      </trkpt>
      <trkpt lat="45.08246" lon="5.97458">
        <ele>1900.4000244141</ele>
        <time>2024-10-15T12:22:48.000Z</time>
      </trkpt>
      <trkpt lat="45.08246" lon="5.97458">
        <ele>1900</ele>
        <time>2024-10-15T12:22:49.000Z</time>
      </trkpt>
      <trkpt lat="45.08245" lon="5.97459">
        <ele>1899.1999511719</ele>
        <time>2024-10-15T12:22:50.000Z</time>
      </trkpt>
      <trkpt lat="45.08244" lon="5.9746">
        <ele>1899</ele>
        <time>2024-10-15T12:22:51.000Z</time>
      </trkpt>
      <trkpt lat="45.08243" lon="5.97461">
        <ele>1898.5999755859</ele>
        <time>2024-10-15T12:22:52.000Z</time>
      </trkpt>
      <trkpt lat="45.08243" lon="5.97462">
        <ele>1898.4000244141</ele>
        <time>2024-10-15T12:22:53.000Z</time>
      </trkpt>
      <trkpt lat="45.08242" lon="5.97463">
        <ele>1898.1999511719</ele>
        <time>2024-10-15T12:22:54.000Z</time>
      </trkpt>
      <trkpt lat="45.08242" lon="5.97463">
        <ele>1898.1999511719</ele>
        <time>2024-10-15T12:22:55.000Z</time>
      </trkpt>
      <trkpt lat="45.08241" lon="5.97464">
        <ele>1898</ele>
        <time>2024-10-15T12:22:56.000Z</time>
      </trkpt>
      <trkpt lat="45.0824" lon="5.97465">
        <ele>1897.8000488281</ele>
        <time>2024-10-15T12:22:57.000Z</time>
      </trkpt>
      <trkpt lat="45.0824" lon="5.97466">
        <ele>1897.5999755859</ele>
        <time>2024-10-15T12:22:58.000Z</time>
      </trkpt>
      <trkpt lat="45.0824" lon="5.97467">
        <ele>1897.5999755859</ele>
        <time>2024-10-15T12:22:59.000Z</time>
      </trkpt>
      <trkpt lat="45.08239" lon="5.97468">
        <ele>1897.5999755859</ele>
        <time>2024-10-15T12:23:00.000Z</time>
      </trkpt>
      <trkpt lat="45.08239" lon="5.97469">
        <ele>1897.5999755859</ele>
        <time>2024-10-15T12:23:01.000Z</time>
      </trkpt>
      <trkpt lat="45.08239" lon="5.9747">
        <ele>1897.4000244141</ele>
        <time>2024-10-15T12:23:02.000Z</time>
      </trkpt>
      <trkpt lat="45.08238" lon="5.97471">
        <ele>1897.1999511719</ele>
        <time>2024-10-15T12:23:03.000Z</time>
      </trkpt>
      <trkpt lat="45.08238" lon="5.97473">
        <ele>1896.8000488281</ele>
        <time>2024-10-15T12:23:04.000Z</time>
      </trkpt>
      <trkpt lat="45.08237" lon="5.97474">
        <ele>1896.5999755859</ele>
        <time>2024-10-15T12:23:05.000Z</time>
      </trkpt>
      <trkpt lat="45.08236" lon="5.97475">
        <ele>1896</ele>
        <time>2024-10-15T12:23:06.000Z</time>
      </trkpt>
      <trkpt lat="45.08236" lon="5.97476">
        <ele>1895.5999755859</ele>
        <time>2024-10-15T12:23:07.000Z</time>
      </trkpt>
      <trkpt lat="45.08234" lon="5.97477">
        <ele>1894.8000488281</ele>
        <time>2024-10-15T12:23:08.000Z</time>
      </trkpt>
      <trkpt lat="45.08233" lon="5.97478">
        <ele>1894.4000244141</ele>
        <time>2024-10-15T12:23:09.000Z</time>
      </trkpt>
      <trkpt lat="45.08233" lon="5.97478">
        <ele>1894.4000244141</ele>
        <time>2024-10-15T12:23:10.000Z</time>
      </trkpt>
      <trkpt lat="45.08232" lon="5.97479">
        <ele>1894.1999511719</ele>
        <time>2024-10-15T12:23:11.000Z</time>
      </trkpt>
      <trkpt lat="45.08231" lon="5.97479">
        <ele>1893.8000488281</ele>
        <time>2024-10-15T12:23:12.000Z</time>
      </trkpt>
      <trkpt lat="45.0823" lon="5.9748">
        <ele>1893.8000488281</ele>
        <time>2024-10-15T12:23:13.000Z</time>
      </trkpt>
      <trkpt lat="45.08229" lon="5.9748">
        <ele>1893.5999755859</ele>
        <time>2024-10-15T12:23:14.000Z</time>
      </trkpt>
      <trkpt lat="45.08228" lon="5.97481">
        <ele>1893.4000244141</ele>
        <time>2024-10-15T12:23:15.000Z</time>
      </trkpt>
      <trkpt lat="45.08227" lon="5.97482">
        <ele>1893.4000244141</ele>
        <time>2024-10-15T12:23:16.000Z</time>
      </trkpt>
      <trkpt lat="45.08226" lon="5.97482">
        <ele>1893.1999511719</ele>
        <time>2024-10-15T12:23:17.000Z</time>
      </trkpt>
      <trkpt lat="45.08225" lon="5.97483">
        <ele>1893</ele>
        <time>2024-10-15T12:23:18.000Z</time>
      </trkpt>
      <trkpt lat="45.08224" lon="5.97483">
        <ele>1892.5999755859</ele>
        <time>2024-10-15T12:23:19.000Z</time>
      </trkpt>
      <trkpt lat="45.08223" lon="5.97484">
        <ele>1892.4000244141</ele>
        <time>2024-10-15T12:23:20.000Z</time>
      </trkpt>
      <trkpt lat="45.08222" lon="5.97485">
        <ele>1892.1999511719</ele>
        <time>2024-10-15T12:23:21.000Z</time>
      </trkpt>
      <trkpt lat="45.08221" lon="5.97486">
        <ele>1892</ele>
        <time>2024-10-15T12:23:22.000Z</time>
      </trkpt>
      <trkpt lat="45.08221" lon="5.97486">
        <ele>1891.8000488281</ele>
        <time>2024-10-15T12:23:23.000Z</time>
      </trkpt>
      <trkpt lat="45.0822" lon="5.97486">
        <ele>1891.5999755859</ele>
        <time>2024-10-15T12:23:24.000Z</time>
      </trkpt>
      <trkpt lat="45.08219" lon="5.97487">
        <ele>1891.1999511719</ele>
        <time>2024-10-15T12:23:25.000Z</time>
      </trkpt>
      <trkpt lat="45.08218" lon="5.97487">
        <ele>1891</ele>
        <time>2024-10-15T12:23:26.000Z</time>
      </trkpt>
      <trkpt lat="45.08217" lon="5.97487">
        <ele>1890.5999755859</ele>
        <time>2024-10-15T12:23:27.000Z</time>
      </trkpt>
      <trkpt lat="45.08217" lon="5.97487">
        <ele>1890.4000244141</ele>
        <time>2024-10-15T12:23:28.000Z</time>
      </trkpt>
      <trkpt lat="45.08215" lon="5.97488">
        <ele>1890.1999511719</ele>
        <time>2024-10-15T12:23:29.000Z</time>
      </trkpt>
      <trkpt lat="45.08214" lon="5.97489">
        <ele>1890.1999511719</ele>
        <time>2024-10-15T12:23:30.000Z</time>
      </trkpt>
      <trkpt lat="45.08214" lon="5.97489">
        <ele>1890.1999511719</ele>
        <time>2024-10-15T12:23:31.000Z</time>
      </trkpt>
      <trkpt lat="45.08213" lon="5.9749">
        <ele>1890.1999511719</ele>
        <time>2024-10-15T12:23:32.000Z</time>
      </trkpt>
      <trkpt lat="45.08212" lon="5.97491">
        <ele>1890.4000244141</ele>
        <time>2024-10-15T12:23:33.000Z</time>
      </trkpt>
      <trkpt lat="45.08211" lon="5.97492">
        <ele>1890.8000488281</ele>
        <time>2024-10-15T12:23:34.000Z</time>
      </trkpt>
      <trkpt lat="45.08211" lon="5.97492">
        <ele>1891</ele>
        <time>2024-10-15T12:23:35.000Z</time>
      </trkpt>
      <trkpt lat="45.0821" lon="5.97493">
        <ele>1891.1999511719</ele>
        <time>2024-10-15T12:23:36.000Z</time>
      </trkpt>
      <trkpt lat="45.08209" lon="5.97493">
        <ele>1891.1999511719</ele>
        <time>2024-10-15T12:23:37.000Z</time>
      </trkpt>
      <trkpt lat="45.08208" lon="5.97494">
        <ele>1891.1999511719</ele>
        <time>2024-10-15T12:23:38.000Z</time>
      </trkpt>
      <trkpt lat="45.08207" lon="5.97494">
        <ele>1891.1999511719</ele>
        <time>2024-10-15T12:23:39.000Z</time>
      </trkpt>
      <trkpt lat="45.08207" lon="5.97495">
        <ele>1890.8000488281</ele>
        <time>2024-10-15T12:23:40.000Z</time>
      </trkpt>
      <trkpt lat="45.08206" lon="5.97495">
        <ele>1890.1999511719</ele>
        <time>2024-10-15T12:23:41.000Z</time>
      </trkpt>
      <trkpt lat="45.08206" lon="5.97495">
        <ele>1889.5999755859</ele>
        <time>2024-10-15T12:23:42.000Z</time>
      </trkpt>
      <trkpt lat="45.08205" lon="5.97496">
        <ele>1888.8000488281</ele>
        <time>2024-10-15T12:23:43.000Z</time>
      </trkpt>
      <trkpt lat="45.08204" lon="5.97497">
        <ele>1888.4000244141</ele>
        <time>2024-10-15T12:23:44.000Z</time>
      </trkpt>
      <trkpt lat="45.08203" lon="5.97497">
        <ele>1887.8000488281</ele>
        <time>2024-10-15T12:23:45.000Z</time>
      </trkpt>
      <trkpt lat="45.08202" lon="5.97497">
        <ele>1887.4000244141</ele>
        <time>2024-10-15T12:23:46.000Z</time>
      </trkpt>
      <trkpt lat="45.08202" lon="5.97497">
        <ele>1887.1999511719</ele>
        <time>2024-10-15T12:23:47.000Z</time>
      </trkpt>
      <trkpt lat="45.08201" lon="5.97497">
        <ele>1887</ele>
        <time>2024-10-15T12:23:48.000Z</time>
      </trkpt>
      <trkpt lat="45.082" lon="5.97497">
        <ele>1886.4000244141</ele>
        <time>2024-10-15T12:23:49.000Z</time>
      </trkpt>
      <trkpt lat="45.082" lon="5.97498">
        <ele>1886.1999511719</ele>
        <time>2024-10-15T12:23:50.000Z</time>
      </trkpt>
      <trkpt lat="45.08199" lon="5.97498">
        <ele>1886</ele>
        <time>2024-10-15T12:23:51.000Z</time>
      </trkpt>
      <trkpt lat="45.08198" lon="5.97498">
        <ele>1886</ele>
        <time>2024-10-15T12:23:52.000Z</time>
      </trkpt>
      <trkpt lat="45.08197" lon="5.97498">
        <ele>1886</ele>
        <time>2024-10-15T12:23:53.000Z</time>
      </trkpt>
      <trkpt lat="45.08197" lon="5.97498">
        <ele>1886</ele>
        <time>2024-10-15T12:23:54.000Z</time>
      </trkpt>
      <trkpt lat="45.08197" lon="5.97498">
        <ele>1886.1999511719</ele>
        <time>2024-10-15T12:23:55.000Z</time>
      </trkpt>
      <trkpt lat="45.08196" lon="5.97498">
        <ele>1886.1999511719</ele>
        <time>2024-10-15T12:23:56.000Z</time>
      </trkpt>
      <trkpt lat="45.08196" lon="5.97498">
        <ele>1886.1999511719</ele>
        <time>2024-10-15T12:23:57.000Z</time>
      </trkpt>
      <trkpt lat="45.08195" lon="5.97498">
        <ele>1886</ele>
        <time>2024-10-15T12:23:58.000Z</time>
      </trkpt>
      <trkpt lat="45.08194" lon="5.97498">
        <ele>1885.8000488281</ele>
        <time>2024-10-15T12:23:59.000Z</time>
      </trkpt>
      <trkpt lat="45.08194" lon="5.97498">
        <ele>1885.1999511719</ele>
        <time>2024-10-15T12:24:00.000Z</time>
      </trkpt>
      <trkpt lat="45.08193" lon="5.97498">
        <ele>1884.8000488281</ele>
        <time>2024-10-15T12:24:01.000Z</time>
      </trkpt>
      <trkpt lat="45.08192" lon="5.97498">
        <ele>1884.5999755859</ele>
        <time>2024-10-15T12:24:02.000Z</time>
      </trkpt>
      <trkpt lat="45.08191" lon="5.97498">
        <ele>1884.4000244141</ele>
        <time>2024-10-15T12:24:03.000Z</time>
      </trkpt>
      <trkpt lat="45.08191" lon="5.97498">
        <ele>1884.1999511719</ele>
        <time>2024-10-15T12:24:04.000Z</time>
      </trkpt>
      <trkpt lat="45.0819" lon="5.97498">
        <ele>1884</ele>
        <time>2024-10-15T12:24:05.000Z</time>
      </trkpt>
      <trkpt lat="45.08189" lon="5.97498">
        <ele>1883.5999755859</ele>
        <time>2024-10-15T12:24:06.000Z</time>
      </trkpt>
      <trkpt lat="45.08189" lon="5.97498">
        <ele>1882.8000488281</ele>
        <time>2024-10-15T12:24:07.000Z</time>
      </trkpt>
      <trkpt lat="45.08188" lon="5.97499">
        <ele>1882.5999755859</ele>
        <time>2024-10-15T12:24:08.000Z</time>
      </trkpt>
      <trkpt lat="45.08187" lon="5.97499">
        <ele>1882.5999755859</ele>
        <time>2024-10-15T12:24:09.000Z</time>
      </trkpt>
      <trkpt lat="45.08187" lon="5.975">
        <ele>1882</ele>
        <time>2024-10-15T12:24:10.000Z</time>
      </trkpt>
      <trkpt lat="45.08187" lon="5.975">
        <ele>1881.5999755859</ele>
        <time>2024-10-15T12:24:11.000Z</time>
      </trkpt>
      <trkpt lat="45.08187" lon="5.97501">
        <ele>1881.1999511719</ele>
        <time>2024-10-15T12:24:12.000Z</time>
      </trkpt>
      <trkpt lat="45.08187" lon="5.97502">
        <ele>1880.8000488281</ele>
        <time>2024-10-15T12:24:13.000Z</time>
      </trkpt>
      <trkpt lat="45.08188" lon="5.97503">
        <ele>1880.8000488281</ele>
        <time>2024-10-15T12:24:14.000Z</time>
      </trkpt>
      <trkpt lat="45.08188" lon="5.97504">
        <ele>1880.8000488281</ele>
        <time>2024-10-15T12:24:15.000Z</time>
      </trkpt>
      <trkpt lat="45.08188" lon="5.97505">
        <ele>1880.5999755859</ele>
        <time>2024-10-15T12:24:16.000Z</time>
      </trkpt>
      <trkpt lat="45.08188" lon="5.97506">
        <ele>1880.1999511719</ele>
        <time>2024-10-15T12:24:17.000Z</time>
      </trkpt>
      <trkpt lat="45.08188" lon="5.97507">
        <ele>1879.8000488281</ele>
        <time>2024-10-15T12:24:18.000Z</time>
      </trkpt>
      <trkpt lat="45.08188" lon="5.97507">
        <ele>1879.4000244141</ele>
        <time>2024-10-15T12:24:19.000Z</time>
      </trkpt>
      <trkpt lat="45.08188" lon="5.97508">
        <ele>1879.1999511719</ele>
        <time>2024-10-15T12:24:20.000Z</time>
      </trkpt>
      <trkpt lat="45.08188" lon="5.97508">
        <ele>1878.8000488281</ele>
        <time>2024-10-15T12:24:21.000Z</time>
      </trkpt>
      <trkpt lat="45.08188" lon="5.97508">
        <ele>1878.8000488281</ele>
        <time>2024-10-15T12:24:22.000Z</time>
      </trkpt>
      <trkpt lat="45.08188" lon="5.97507">
        <ele>1878.5999755859</ele>
        <time>2024-10-15T12:24:23.000Z</time>
      </trkpt>
      <trkpt lat="45.08187" lon="5.97505">
        <ele>1878.5999755859</ele>
        <time>2024-10-15T12:24:24.000Z</time>
      </trkpt>
      <trkpt lat="45.08187" lon="5.97504">
        <ele>1878</ele>
        <time>2024-10-15T12:24:25.000Z</time>
      </trkpt>
      <trkpt lat="45.08187" lon="5.97503">
        <ele>1878</ele>
        <time>2024-10-15T12:24:26.000Z</time>
      </trkpt>
      <trkpt lat="45.08187" lon="5.97501">
        <ele>1878</ele>
        <time>2024-10-15T12:24:27.000Z</time>
      </trkpt>
      <trkpt lat="45.08187" lon="5.975">
        <ele>1878</ele>
        <time>2024-10-15T12:24:28.000Z</time>
      </trkpt>
      <trkpt lat="45.08186" lon="5.97499">
        <ele>1878.1999511719</ele>
        <time>2024-10-15T12:24:29.000Z</time>
      </trkpt>
      <trkpt lat="45.08186" lon="5.97498">
        <ele>1878.4000244141</ele>
        <time>2024-10-15T12:24:30.000Z</time>
      </trkpt>
      <trkpt lat="45.08185" lon="5.97496">
        <ele>1878.5999755859</ele>
        <time>2024-10-15T12:24:31.000Z</time>
      </trkpt>
      <trkpt lat="45.08185" lon="5.97496">
        <ele>1878.5999755859</ele>
        <time>2024-10-15T12:24:32.000Z</time>
      </trkpt>
      <trkpt lat="45.08184" lon="5.97495">
        <ele>1878.4000244141</ele>
        <time>2024-10-15T12:24:33.000Z</time>
      </trkpt>
      <trkpt lat="45.08183" lon="5.97494">
        <ele>1878.4000244141</ele>
        <time>2024-10-15T12:24:34.000Z</time>
      </trkpt>
      <trkpt lat="45.08182" lon="5.97493">
        <ele>1878.4000244141</ele>
        <time>2024-10-15T12:24:35.000Z</time>
      </trkpt>
      <trkpt lat="45.08181" lon="5.97492">
        <ele>1878</ele>
        <time>2024-10-15T12:24:36.000Z</time>
      </trkpt>
      <trkpt lat="45.08181" lon="5.97492">
        <ele>1877.8000488281</ele>
        <time>2024-10-15T12:24:37.000Z</time>
      </trkpt>
      <trkpt lat="45.0818" lon="5.97492">
        <ele>1877.5999755859</ele>
        <time>2024-10-15T12:24:38.000Z</time>
      </trkpt>
      <trkpt lat="45.0818" lon="5.97492">
        <ele>1877.4000244141</ele>
        <time>2024-10-15T12:24:39.000Z</time>
      </trkpt>
      <trkpt lat="45.08179" lon="5.97492">
        <ele>1877.1999511719</ele>
        <time>2024-10-15T12:24:40.000Z</time>
      </trkpt>
      <trkpt lat="45.08178" lon="5.97492">
        <ele>1877</ele>
        <time>2024-10-15T12:24:41.000Z</time>
      </trkpt>
      <trkpt lat="45.08177" lon="5.97492">
        <ele>1876.8000488281</ele>
        <time>2024-10-15T12:24:42.000Z</time>
      </trkpt>
      <trkpt lat="45.08176" lon="5.97492">
        <ele>1875.5999755859</ele>
        <time>2024-10-15T12:24:43.000Z</time>
      </trkpt>
      <trkpt lat="45.08175" lon="5.97493">
        <ele>1875.4000244141</ele>
        <time>2024-10-15T12:24:44.000Z</time>
      </trkpt>
      <trkpt lat="45.08174" lon="5.97493">
        <ele>1875</ele>
        <time>2024-10-15T12:24:45.000Z</time>
      </trkpt>
      <trkpt lat="45.08173" lon="5.97493">
        <ele>1875</ele>
        <time>2024-10-15T12:24:46.000Z</time>
      </trkpt>
      <trkpt lat="45.08172" lon="5.97493">
        <ele>1875</ele>
        <time>2024-10-15T12:24:47.000Z</time>
      </trkpt>
      <trkpt lat="45.08172" lon="5.97493">
        <ele>1874.5999755859</ele>
        <time>2024-10-15T12:24:48.000Z</time>
      </trkpt>
      <trkpt lat="45.08171" lon="5.97492">
        <ele>1873.1999511719</ele>
        <time>2024-10-15T12:24:49.000Z</time>
      </trkpt>
      <trkpt lat="45.0817" lon="5.97492">
        <ele>1872.1999511719</ele>
        <time>2024-10-15T12:24:50.000Z</time>
      </trkpt>
      <trkpt lat="45.08169" lon="5.97492">
        <ele>1871.8000488281</ele>
        <time>2024-10-15T12:24:51.000Z</time>
      </trkpt>
      <trkpt lat="45.08168" lon="5.97491">
        <ele>1871.8000488281</ele>
        <time>2024-10-15T12:24:52.000Z</time>
      </trkpt>
      <trkpt lat="45.08167" lon="5.97491">
        <ele>1871.5999755859</ele>
        <time>2024-10-15T12:24:53.000Z</time>
      </trkpt>
      <trkpt lat="45.08166" lon="5.9749">
        <ele>1871.5999755859</ele>
        <time>2024-10-15T12:24:54.000Z</time>
      </trkpt>
      <trkpt lat="45.08165" lon="5.97489">
        <ele>1871.5999755859</ele>
        <time>2024-10-15T12:24:55.000Z</time>
      </trkpt>
      <trkpt lat="45.08164" lon="5.97488">
        <ele>1871.1999511719</ele>
        <time>2024-10-15T12:24:56.000Z</time>
      </trkpt>
      <trkpt lat="45.08163" lon="5.97487">
        <ele>1870.4000244141</ele>
        <time>2024-10-15T12:24:57.000Z</time>
      </trkpt>
      <trkpt lat="45.08163" lon="5.97486">
        <ele>1869.8000488281</ele>
        <time>2024-10-15T12:24:58.000Z</time>
      </trkpt>
      <trkpt lat="45.08162" lon="5.97486">
        <ele>1869.8000488281</ele>
        <time>2024-10-15T12:24:59.000Z</time>
      </trkpt>
      <trkpt lat="45.08161" lon="5.97485">
        <ele>1869.8000488281</ele>
        <time>2024-10-15T12:25:00.000Z</time>
      </trkpt>
      <trkpt lat="45.0816" lon="5.97484">
        <ele>1869.8000488281</ele>
        <time>2024-10-15T12:25:01.000Z</time>
      </trkpt>
      <trkpt lat="45.08159" lon="5.97483">
        <ele>1869.5999755859</ele>
        <time>2024-10-15T12:25:02.000Z</time>
      </trkpt>
      <trkpt lat="45.08158" lon="5.97482">
        <ele>1869.5999755859</ele>
        <time>2024-10-15T12:25:03.000Z</time>
      </trkpt>
      <trkpt lat="45.08158" lon="5.97481">
        <ele>1869.4000244141</ele>
        <time>2024-10-15T12:25:04.000Z</time>
      </trkpt>
      <trkpt lat="45.08157" lon="5.97479">
        <ele>1869.1999511719</ele>
        <time>2024-10-15T12:25:05.000Z</time>
      </trkpt>
      <trkpt lat="45.08156" lon="5.97477">
        <ele>1869</ele>
        <time>2024-10-15T12:25:06.000Z</time>
      </trkpt>
      <trkpt lat="45.08156" lon="5.97476">
        <ele>1868.8000488281</ele>
        <time>2024-10-15T12:25:07.000Z</time>
      </trkpt>
      <trkpt lat="45.08156" lon="5.97475">
        <ele>1868.5999755859</ele>
        <time>2024-10-15T12:25:08.000Z</time>
      </trkpt>
      <trkpt lat="45.08155" lon="5.97475">
        <ele>1868.5999755859</ele>
        <time>2024-10-15T12:25:09.000Z</time>
      </trkpt>
      <trkpt lat="45.08154" lon="5.97474">
        <ele>1868.4000244141</ele>
        <time>2024-10-15T12:25:10.000Z</time>
      </trkpt>
      <trkpt lat="45.08153" lon="5.97473">
        <ele>1868.4000244141</ele>
        <time>2024-10-15T12:25:11.000Z</time>
      </trkpt>
      <trkpt lat="45.08152" lon="5.97472">
        <ele>1868.4000244141</ele>
        <time>2024-10-15T12:25:12.000Z</time>
      </trkpt>
      <trkpt lat="45.08152" lon="5.97471">
        <ele>1868</ele>
        <time>2024-10-15T12:25:13.000Z</time>
      </trkpt>
      <trkpt lat="45.08152" lon="5.97469">
        <ele>1867.8000488281</ele>
        <time>2024-10-15T12:25:14.000Z</time>
      </trkpt>
      <trkpt lat="45.08151" lon="5.97467">
        <ele>1867.4000244141</ele>
        <time>2024-10-15T12:25:15.000Z</time>
      </trkpt>
      <trkpt lat="45.08151" lon="5.97465">
        <ele>1867.1999511719</ele>
        <time>2024-10-15T12:25:16.000Z</time>
      </trkpt>
      <trkpt lat="45.08151" lon="5.97464">
        <ele>1867</ele>
        <time>2024-10-15T12:25:17.000Z</time>
      </trkpt>
      <trkpt lat="45.08151" lon="5.97462">
        <ele>1866.8000488281</ele>
        <time>2024-10-15T12:25:18.000Z</time>
      </trkpt>
      <trkpt lat="45.0815" lon="5.97461">
        <ele>1866.5999755859</ele>
        <time>2024-10-15T12:25:19.000Z</time>
      </trkpt>
      <trkpt lat="45.0815" lon="5.97461">
        <ele>1866.5999755859</ele>
        <time>2024-10-15T12:25:20.000Z</time>
      </trkpt>
      <trkpt lat="45.08149" lon="5.9746">
        <ele>1866.1999511719</ele>
        <time>2024-10-15T12:25:21.000Z</time>
      </trkpt>
      <trkpt lat="45.08148" lon="5.9746">
        <ele>1866</ele>
        <time>2024-10-15T12:25:22.000Z</time>
      </trkpt>
      <trkpt lat="45.08148" lon="5.97459">
        <ele>1865.5999755859</ele>
        <time>2024-10-15T12:25:23.000Z</time>
      </trkpt>
      <trkpt lat="45.08147" lon="5.97458">
        <ele>1865.1999511719</ele>
        <time>2024-10-15T12:25:24.000Z</time>
      </trkpt>
      <trkpt lat="45.08146" lon="5.97458">
        <ele>1864.8000488281</ele>
        <time>2024-10-15T12:25:25.000Z</time>
      </trkpt>
      <trkpt lat="45.08145" lon="5.97457">
        <ele>1864.1999511719</ele>
        <time>2024-10-15T12:25:26.000Z</time>
      </trkpt>
      <trkpt lat="45.08144" lon="5.97457">
        <ele>1864.1999511719</ele>
        <time>2024-10-15T12:25:27.000Z</time>
      </trkpt>
      <trkpt lat="45.08143" lon="5.97456">
        <ele>1864</ele>
        <time>2024-10-15T12:25:28.000Z</time>
      </trkpt>
      <trkpt lat="45.08142" lon="5.97455">
        <ele>1863.5999755859</ele>
        <time>2024-10-15T12:25:29.000Z</time>
      </trkpt>
      <trkpt lat="45.08142" lon="5.97453">
        <ele>1863</ele>
        <time>2024-10-15T12:25:30.000Z</time>
      </trkpt>
      <trkpt lat="45.08141" lon="5.97452">
        <ele>1862.5999755859</ele>
        <time>2024-10-15T12:25:31.000Z</time>
      </trkpt>
      <trkpt lat="45.08141" lon="5.97451">
        <ele>1862.5999755859</ele>
        <time>2024-10-15T12:25:32.000Z</time>
      </trkpt>
      <trkpt lat="45.0814" lon="5.97449">
        <ele>1862.1999511719</ele>
        <time>2024-10-15T12:25:33.000Z</time>
      </trkpt>
      <trkpt lat="45.08139" lon="5.97448">
        <ele>1861.8000488281</ele>
        <time>2024-10-15T12:25:34.000Z</time>
      </trkpt>
      <trkpt lat="45.08138" lon="5.97447">
        <ele>1861.5999755859</ele>
        <time>2024-10-15T12:25:35.000Z</time>
      </trkpt>
      <trkpt lat="45.08137" lon="5.97446">
        <ele>1861.4000244141</ele>
        <time>2024-10-15T12:25:36.000Z</time>
      </trkpt>
      <trkpt lat="45.08136" lon="5.97444">
        <ele>1861.1999511719</ele>
        <time>2024-10-15T12:25:37.000Z</time>
      </trkpt>
      <trkpt lat="45.08136" lon="5.97443">
        <ele>1860.8000488281</ele>
        <time>2024-10-15T12:25:38.000Z</time>
      </trkpt>
      <trkpt lat="45.08135" lon="5.97442">
        <ele>1860.5999755859</ele>
        <time>2024-10-15T12:25:39.000Z</time>
      </trkpt>
      <trkpt lat="45.08134" lon="5.97441">
        <ele>1860.4000244141</ele>
        <time>2024-10-15T12:25:40.000Z</time>
      </trkpt>
      <trkpt lat="45.08133" lon="5.97439">
        <ele>1860.1999511719</ele>
        <time>2024-10-15T12:25:41.000Z</time>
      </trkpt>
      <trkpt lat="45.08133" lon="5.97438">
        <ele>1860</ele>
        <time>2024-10-15T12:25:42.000Z</time>
      </trkpt>
      <trkpt lat="45.08132" lon="5.97438">
        <ele>1859.5999755859</ele>
        <time>2024-10-15T12:25:43.000Z</time>
      </trkpt>
      <trkpt lat="45.08132" lon="5.97437">
        <ele>1859.5999755859</ele>
        <time>2024-10-15T12:25:44.000Z</time>
      </trkpt>
      <trkpt lat="45.08131" lon="5.97436">
        <ele>1859.4000244141</ele>
        <time>2024-10-15T12:25:45.000Z</time>
      </trkpt>
      <trkpt lat="45.0813" lon="5.97435">
        <ele>1859</ele>
        <time>2024-10-15T12:25:46.000Z</time>
      </trkpt>
      <trkpt lat="45.0813" lon="5.97434">
        <ele>1858.8000488281</ele>
        <time>2024-10-15T12:25:47.000Z</time>
      </trkpt>
      <trkpt lat="45.08129" lon="5.97433">
        <ele>1858.5999755859</ele>
        <time>2024-10-15T12:25:48.000Z</time>
      </trkpt>
      <trkpt lat="45.08129" lon="5.97432">
        <ele>1858.4000244141</ele>
        <time>2024-10-15T12:25:49.000Z</time>
      </trkpt>
      <trkpt lat="45.08129" lon="5.97432">
        <ele>1858.1999511719</ele>
        <time>2024-10-15T12:25:50.000Z</time>
      </trkpt>
      <trkpt lat="45.08129" lon="5.97432">
        <ele>1858.1999511719</ele>
        <time>2024-10-15T12:25:51.000Z</time>
      </trkpt>
      <trkpt lat="45.08129" lon="5.97432">
        <ele>1858.1999511719</ele>
        <time>2024-10-15T12:25:52.000Z</time>
      </trkpt>
      <trkpt lat="45.08129" lon="5.97432">
        <ele>1858.1999511719</ele>
        <time>2024-10-15T12:25:53.000Z</time>
      </trkpt>
      <trkpt lat="45.08129" lon="5.97432">
        <ele>1858.1999511719</ele>
        <time>2024-10-15T12:25:54.000Z</time>
      </trkpt>
      <trkpt lat="45.08129" lon="5.97432">
        <ele>1858.4000244141</ele>
        <time>2024-10-15T12:25:55.000Z</time>
      </trkpt>
      <trkpt lat="45.08129" lon="5.97432">
        <ele>1858.4000244141</ele>
        <time>2024-10-15T12:25:56.000Z</time>
      </trkpt>
      <trkpt lat="45.08129" lon="5.97432">
        <ele>1858.4000244141</ele>
        <time>2024-10-15T12:25:57.000Z</time>
      </trkpt>
      <trkpt lat="45.08129" lon="5.97432">
        <ele>1858.4000244141</ele>
        <time>2024-10-15T12:25:58.000Z</time>
      </trkpt>
      <trkpt lat="45.08129" lon="5.97432">
        <ele>1858.4000244141</ele>
        <time>2024-10-15T12:25:59.000Z</time>
      </trkpt>
      <trkpt lat="45.08129" lon="5.97432">
        <ele>1858.4000244141</ele>
        <time>2024-10-15T12:26:00.000Z</time>
      </trkpt>
      <trkpt lat="45.08128" lon="5.97431">
        <ele>1858.4000244141</ele>
        <time>2024-10-15T12:26:01.000Z</time>
      </trkpt>
      <trkpt lat="45.08128" lon="5.9743">
        <ele>1858.4000244141</ele>
        <time>2024-10-15T12:26:02.000Z</time>
      </trkpt>
      <trkpt lat="45.08127" lon="5.9743">
        <ele>1858</ele>
        <time>2024-10-15T12:26:03.000Z</time>
      </trkpt>
      <trkpt lat="45.08127" lon="5.97429">
        <ele>1857.8000488281</ele>
        <time>2024-10-15T12:26:04.000Z</time>
      </trkpt>
      <trkpt lat="45.08126" lon="5.97428">
        <ele>1857.5999755859</ele>
        <time>2024-10-15T12:26:05.000Z</time>
      </trkpt>
      <trkpt lat="45.08125" lon="5.97428">
        <ele>1857.5999755859</ele>
        <time>2024-10-15T12:26:06.000Z</time>
      </trkpt>
      <trkpt lat="45.08124" lon="5.97427">
        <ele>1857.1999511719</ele>
        <time>2024-10-15T12:26:07.000Z</time>
      </trkpt>
      <trkpt lat="45.08124" lon="5.97426">
        <ele>1856.8000488281</ele>
        <time>2024-10-15T12:26:08.000Z</time>
      </trkpt>
      <trkpt lat="45.08123" lon="5.97426">
        <ele>1856.1999511719</ele>
        <time>2024-10-15T12:26:09.000Z</time>
      </trkpt>
      <trkpt lat="45.08122" lon="5.97425">
        <ele>1856</ele>
        <time>2024-10-15T12:26:10.000Z</time>
      </trkpt>
      <trkpt lat="45.08122" lon="5.97425">
        <ele>1855.8000488281</ele>
        <time>2024-10-15T12:26:11.000Z</time>
      </trkpt>
      <trkpt lat="45.08121" lon="5.97424">
        <ele>1855.8000488281</ele>
        <time>2024-10-15T12:26:12.000Z</time>
      </trkpt>
      <trkpt lat="45.0812" lon="5.97423">
        <ele>1855.4000244141</ele>
        <time>2024-10-15T12:26:13.000Z</time>
      </trkpt>
      <trkpt lat="45.0812" lon="5.97422">
        <ele>1855</ele>
        <time>2024-10-15T12:26:14.000Z</time>
      </trkpt>
      <trkpt lat="45.08119" lon="5.97422">
        <ele>1854.5999755859</ele>
        <time>2024-10-15T12:26:15.000Z</time>
      </trkpt>
      <trkpt lat="45.08118" lon="5.97421">
        <ele>1854.4000244141</ele>
        <time>2024-10-15T12:26:16.000Z</time>
      </trkpt>
      <trkpt lat="45.08118" lon="5.9742">
        <ele>1854.4000244141</ele>
        <time>2024-10-15T12:26:17.000Z</time>
      </trkpt>
      <trkpt lat="45.08117" lon="5.97419">
        <ele>1854</ele>
        <time>2024-10-15T12:26:18.000Z</time>
      </trkpt>
      <trkpt lat="45.08117" lon="5.97418">
        <ele>1853.8000488281</ele>
        <time>2024-10-15T12:26:19.000Z</time>
      </trkpt>
      <trkpt lat="45.08116" lon="5.97417">
        <ele>1853.5999755859</ele>
        <time>2024-10-15T12:26:20.000Z</time>
      </trkpt>
      <trkpt lat="45.08115" lon="5.97415">
        <ele>1853.4000244141</ele>
        <time>2024-10-15T12:26:21.000Z</time>
      </trkpt>
      <trkpt lat="45.08115" lon="5.97414">
        <ele>1853.1999511719</ele>
        <time>2024-10-15T12:26:22.000Z</time>
      </trkpt>
      <trkpt lat="45.08114" lon="5.97413">
        <ele>1853</ele>
        <time>2024-10-15T12:26:23.000Z</time>
      </trkpt>
      <trkpt lat="45.08113" lon="5.97412">
        <ele>1852.8000488281</ele>
        <time>2024-10-15T12:26:24.000Z</time>
      </trkpt>
      <trkpt lat="45.08112" lon="5.97411">
        <ele>1852.8000488281</ele>
        <time>2024-10-15T12:26:25.000Z</time>
      </trkpt>
      <trkpt lat="45.08111" lon="5.9741">
        <ele>1852.5999755859</ele>
        <time>2024-10-15T12:26:26.000Z</time>
      </trkpt>
      <trkpt lat="45.08111" lon="5.97409">
        <ele>1852.1999511719</ele>
        <time>2024-10-15T12:26:27.000Z</time>
      </trkpt>
      <trkpt lat="45.0811" lon="5.97409">
        <ele>1852</ele>
        <time>2024-10-15T12:26:28.000Z</time>
      </trkpt>
      <trkpt lat="45.0811" lon="5.97408">
        <ele>1852</ele>
        <time>2024-10-15T12:26:29.000Z</time>
      </trkpt>
      <trkpt lat="45.08109" lon="5.97408">
        <ele>1851.8000488281</ele>
        <time>2024-10-15T12:26:30.000Z</time>
      </trkpt>
      <trkpt lat="45.08108" lon="5.97407">
        <ele>1851.5999755859</ele>
        <time>2024-10-15T12:26:31.000Z</time>
      </trkpt>
      <trkpt lat="45.08107" lon="5.97407">
        <ele>1851.4000244141</ele>
        <time>2024-10-15T12:26:32.000Z</time>
      </trkpt>
      <trkpt lat="45.08106" lon="5.97407">
        <ele>1850.8000488281</ele>
        <time>2024-10-15T12:26:33.000Z</time>
      </trkpt>
      <trkpt lat="45.08106" lon="5.97406">
        <ele>1850.4000244141</ele>
        <time>2024-10-15T12:26:34.000Z</time>
      </trkpt>
      <trkpt lat="45.08105" lon="5.97406">
        <ele>1850</ele>
        <time>2024-10-15T12:26:35.000Z</time>
      </trkpt>
      <trkpt lat="45.08104" lon="5.97405">
        <ele>1849.8000488281</ele>
        <time>2024-10-15T12:26:36.000Z</time>
      </trkpt>
      <trkpt lat="45.08103" lon="5.97405">
        <ele>1849.4000244141</ele>
        <time>2024-10-15T12:26:37.000Z</time>
      </trkpt>
      <trkpt lat="45.08103" lon="5.97404">
        <ele>1849.1999511719</ele>
        <time>2024-10-15T12:26:38.000Z</time>
      </trkpt>
      <trkpt lat="45.08102" lon="5.97404">
        <ele>1848.8000488281</ele>
        <time>2024-10-15T12:26:39.000Z</time>
      </trkpt>
      <trkpt lat="45.08101" lon="5.97403">
        <ele>1848.8000488281</ele>
        <time>2024-10-15T12:26:40.000Z</time>
      </trkpt>
      <trkpt lat="45.08101" lon="5.97403">
        <ele>1848.4000244141</ele>
        <time>2024-10-15T12:26:41.000Z</time>
      </trkpt>
      <trkpt lat="45.081" lon="5.97403">
        <ele>1848.1999511719</ele>
        <time>2024-10-15T12:26:42.000Z</time>
      </trkpt>
      <trkpt lat="45.08099" lon="5.97403">
        <ele>1847.8000488281</ele>
        <time>2024-10-15T12:26:43.000Z</time>
      </trkpt>
      <trkpt lat="45.08098" lon="5.97403">
        <ele>1847.4000244141</ele>
        <time>2024-10-15T12:26:44.000Z</time>
      </trkpt>
      <trkpt lat="45.08097" lon="5.97403">
        <ele>1847</ele>
        <time>2024-10-15T12:26:45.000Z</time>
      </trkpt>
      <trkpt lat="45.08097" lon="5.97402">
        <ele>1846.8000488281</ele>
        <time>2024-10-15T12:26:46.000Z</time>
      </trkpt>
      <trkpt lat="45.08096" lon="5.97402">
        <ele>1846.5999755859</ele>
        <time>2024-10-15T12:26:47.000Z</time>
      </trkpt>
      <trkpt lat="45.08095" lon="5.97401">
        <ele>1846</ele>
        <time>2024-10-15T12:26:48.000Z</time>
      </trkpt>
      <trkpt lat="45.08094" lon="5.97401">
        <ele>1845.8000488281</ele>
        <time>2024-10-15T12:26:49.000Z</time>
      </trkpt>
      <trkpt lat="45.08094" lon="5.97401">
        <ele>1845.5999755859</ele>
        <time>2024-10-15T12:26:50.000Z</time>
      </trkpt>
      <trkpt lat="45.08093" lon="5.974">
        <ele>1845.1999511719</ele>
        <time>2024-10-15T12:26:51.000Z</time>
      </trkpt>
      <trkpt lat="45.08092" lon="5.97399">
        <ele>1845</ele>
        <time>2024-10-15T12:26:52.000Z</time>
      </trkpt>
      <trkpt lat="45.08091" lon="5.97399">
        <ele>1844.5999755859</ele>
        <time>2024-10-15T12:26:53.000Z</time>
      </trkpt>
      <trkpt lat="45.0809" lon="5.97398">
        <ele>1844.1999511719</ele>
        <time>2024-10-15T12:26:54.000Z</time>
      </trkpt>
      <trkpt lat="45.08089" lon="5.97398">
        <ele>1844</ele>
        <time>2024-10-15T12:26:55.000Z</time>
      </trkpt>
      <trkpt lat="45.08089" lon="5.97397">
        <ele>1843.8000488281</ele>
        <time>2024-10-15T12:26:56.000Z</time>
      </trkpt>
      <trkpt lat="45.08088" lon="5.97397">
        <ele>1843.4000244141</ele>
        <time>2024-10-15T12:26:57.000Z</time>
      </trkpt>
      <trkpt lat="45.08087" lon="5.97396">
        <ele>1843</ele>
        <time>2024-10-15T12:26:58.000Z</time>
      </trkpt>
      <trkpt lat="45.08086" lon="5.97395">
        <ele>1842.8000488281</ele>
        <time>2024-10-15T12:26:59.000Z</time>
      </trkpt>
      <trkpt lat="45.08086" lon="5.97395">
        <ele>1842.5999755859</ele>
        <time>2024-10-15T12:27:00.000Z</time>
      </trkpt>
      <trkpt lat="45.08085" lon="5.97394">
        <ele>1842.1999511719</ele>
        <time>2024-10-15T12:27:01.000Z</time>
      </trkpt>
      <trkpt lat="45.08084" lon="5.97394">
        <ele>1842.1999511719</ele>
        <time>2024-10-15T12:27:02.000Z</time>
      </trkpt>
      <trkpt lat="45.08083" lon="5.97394">
        <ele>1842</ele>
        <time>2024-10-15T12:27:03.000Z</time>
      </trkpt>
      <trkpt lat="45.08082" lon="5.97393">
        <ele>1841.8000488281</ele>
        <time>2024-10-15T12:27:04.000Z</time>
      </trkpt>
      <trkpt lat="45.08082" lon="5.97393">
        <ele>1841.4000244141</ele>
        <time>2024-10-15T12:27:05.000Z</time>
      </trkpt>
      <trkpt lat="45.08081" lon="5.97392">
        <ele>1841</ele>
        <time>2024-10-15T12:27:06.000Z</time>
      </trkpt>
      <trkpt lat="45.0808" lon="5.97392">
        <ele>1840.8000488281</ele>
        <time>2024-10-15T12:27:07.000Z</time>
      </trkpt>
      <trkpt lat="45.08079" lon="5.97391">
        <ele>1840.4000244141</ele>
        <time>2024-10-15T12:27:08.000Z</time>
      </trkpt>
      <trkpt lat="45.08078" lon="5.97391">
        <ele>1840.1999511719</ele>
        <time>2024-10-15T12:27:09.000Z</time>
      </trkpt>
      <trkpt lat="45.08077" lon="5.9739">
        <ele>1840</ele>
        <time>2024-10-15T12:27:10.000Z</time>
      </trkpt>
      <trkpt lat="45.08076" lon="5.9739">
        <ele>1839.5999755859</ele>
        <time>2024-10-15T12:27:11.000Z</time>
      </trkpt>
      <trkpt lat="45.08076" lon="5.97389">
        <ele>1839.4000244141</ele>
        <time>2024-10-15T12:27:12.000Z</time>
      </trkpt>
      <trkpt lat="45.08075" lon="5.97389">
        <ele>1839</ele>
        <time>2024-10-15T12:27:13.000Z</time>
      </trkpt>
      <trkpt lat="45.08074" lon="5.97388">
        <ele>1838.8000488281</ele>
        <time>2024-10-15T12:27:14.000Z</time>
      </trkpt>
      <trkpt lat="45.08073" lon="5.97387">
        <ele>1838.5999755859</ele>
        <time>2024-10-15T12:27:15.000Z</time>
      </trkpt>
      <trkpt lat="45.08072" lon="5.97387">
        <ele>1838.4000244141</ele>
        <time>2024-10-15T12:27:16.000Z</time>
      </trkpt>
      <trkpt lat="45.08071" lon="5.97386">
        <ele>1838</ele>
        <time>2024-10-15T12:27:17.000Z</time>
      </trkpt>
      <trkpt lat="45.08069" lon="5.97386">
        <ele>1837.8000488281</ele>
        <time>2024-10-15T12:27:18.000Z</time>
      </trkpt>
      <trkpt lat="45.08068" lon="5.97385">
        <ele>1837.8000488281</ele>
        <time>2024-10-15T12:27:19.000Z</time>
      </trkpt>
      <trkpt lat="45.08067" lon="5.97385">
        <ele>1837.4000244141</ele>
        <time>2024-10-15T12:27:20.000Z</time>
      </trkpt>
      <trkpt lat="45.08066" lon="5.97385">
        <ele>1837.1999511719</ele>
        <time>2024-10-15T12:27:21.000Z</time>
      </trkpt>
      <trkpt lat="45.08066" lon="5.97384">
        <ele>1836.8000488281</ele>
        <time>2024-10-15T12:27:22.000Z</time>
      </trkpt>
      <trkpt lat="45.08065" lon="5.97384">
        <ele>1836.5999755859</ele>
        <time>2024-10-15T12:27:23.000Z</time>
      </trkpt>
      <trkpt lat="45.08064" lon="5.97384">
        <ele>1836.1999511719</ele>
        <time>2024-10-15T12:27:24.000Z</time>
      </trkpt>
      <trkpt lat="45.08063" lon="5.97384">
        <ele>1836.1999511719</ele>
        <time>2024-10-15T12:27:25.000Z</time>
      </trkpt>
      <trkpt lat="45.08062" lon="5.97384">
        <ele>1835.8000488281</ele>
        <time>2024-10-15T12:27:26.000Z</time>
      </trkpt>
      <trkpt lat="45.08061" lon="5.97384">
        <ele>1835.4000244141</ele>
        <time>2024-10-15T12:27:27.000Z</time>
      </trkpt>
      <trkpt lat="45.0806" lon="5.97383">
        <ele>1835</ele>
        <time>2024-10-15T12:27:28.000Z</time>
      </trkpt>
      <trkpt lat="45.08059" lon="5.97382">
        <ele>1834.8000488281</ele>
        <time>2024-10-15T12:27:29.000Z</time>
      </trkpt>
      <trkpt lat="45.08058" lon="5.97382">
        <ele>1834.8000488281</ele>
        <time>2024-10-15T12:27:30.000Z</time>
      </trkpt>
      <trkpt lat="45.08057" lon="5.97381">
        <ele>1834.8000488281</ele>
        <time>2024-10-15T12:27:31.000Z</time>
      </trkpt>
      <trkpt lat="45.08057" lon="5.97382">
        <ele>1834.5999755859</ele>
        <time>2024-10-15T12:27:32.000Z</time>
      </trkpt>
      <trkpt lat="45.08056" lon="5.97382">
        <ele>1834.1999511719</ele>
        <time>2024-10-15T12:27:33.000Z</time>
      </trkpt>
      <trkpt lat="45.08055" lon="5.97383">
        <ele>1834</ele>
        <time>2024-10-15T12:27:34.000Z</time>
      </trkpt>
      <trkpt lat="45.08054" lon="5.97383">
        <ele>1833.8000488281</ele>
        <time>2024-10-15T12:27:35.000Z</time>
      </trkpt>
      <trkpt lat="45.08054" lon="5.97384">
        <ele>1833.5999755859</ele>
        <time>2024-10-15T12:27:36.000Z</time>
      </trkpt>
      <trkpt lat="45.08053" lon="5.97384">
        <ele>1833.1999511719</ele>
        <time>2024-10-15T12:27:37.000Z</time>
      </trkpt>
      <trkpt lat="45.08051" lon="5.97385">
        <ele>1833</ele>
        <time>2024-10-15T12:27:38.000Z</time>
      </trkpt>
      <trkpt lat="45.0805" lon="5.97385">
        <ele>1833</ele>
        <time>2024-10-15T12:27:39.000Z</time>
      </trkpt>
      <trkpt lat="45.08049" lon="5.97385">
        <ele>1832.8000488281</ele>
        <time>2024-10-15T12:27:40.000Z</time>
      </trkpt>
      <trkpt lat="45.08049" lon="5.97386">
        <ele>1832.5999755859</ele>
        <time>2024-10-15T12:27:41.000Z</time>
      </trkpt>
      <trkpt lat="45.08048" lon="5.97386">
        <ele>1832.5999755859</ele>
        <time>2024-10-15T12:27:42.000Z</time>
      </trkpt>
      <trkpt lat="45.08047" lon="5.97386">
        <ele>1832.4000244141</ele>
        <time>2024-10-15T12:27:43.000Z</time>
      </trkpt>
      <trkpt lat="45.08046" lon="5.97387">
        <ele>1832.4000244141</ele>
        <time>2024-10-15T12:27:44.000Z</time>
      </trkpt>
      <trkpt lat="45.08046" lon="5.97387">
        <ele>1832.1999511719</ele>
        <time>2024-10-15T12:27:45.000Z</time>
      </trkpt>
      <trkpt lat="45.08045" lon="5.97388">
        <ele>1832</ele>
        <time>2024-10-15T12:27:46.000Z</time>
      </trkpt>
      <trkpt lat="45.08045" lon="5.97389">
        <ele>1831.8000488281</ele>
        <time>2024-10-15T12:27:47.000Z</time>
      </trkpt>
      <trkpt lat="45.08045" lon="5.9739">
        <ele>1831.4000244141</ele>
        <time>2024-10-15T12:27:48.000Z</time>
      </trkpt>
      <trkpt lat="45.08045" lon="5.9739">
        <ele>1831.1999511719</ele>
        <time>2024-10-15T12:27:49.000Z</time>
      </trkpt>
      <trkpt lat="45.08044" lon="5.97391">
        <ele>1831</ele>
        <time>2024-10-15T12:27:50.000Z</time>
      </trkpt>
      <trkpt lat="45.08044" lon="5.97392">
        <ele>1830.5999755859</ele>
        <time>2024-10-15T12:27:51.000Z</time>
      </trkpt>
      <trkpt lat="45.08043" lon="5.97392">
        <ele>1830.1999511719</ele>
        <time>2024-10-15T12:27:52.000Z</time>
      </trkpt>
      <trkpt lat="45.08042" lon="5.97393">
        <ele>1830</ele>
        <time>2024-10-15T12:27:53.000Z</time>
      </trkpt>
      <trkpt lat="45.08041" lon="5.97393">
        <ele>1829.8000488281</ele>
        <time>2024-10-15T12:27:54.000Z</time>
      </trkpt>
      <trkpt lat="45.08041" lon="5.97393">
        <ele>1829.8000488281</ele>
        <time>2024-10-15T12:27:55.000Z</time>
      </trkpt>
      <trkpt lat="45.0804" lon="5.97393">
        <ele>1829.8000488281</ele>
        <time>2024-10-15T12:27:56.000Z</time>
      </trkpt>
      <trkpt lat="45.0804" lon="5.97393">
        <ele>1829.8000488281</ele>
        <time>2024-10-15T12:27:57.000Z</time>
      </trkpt>
      <trkpt lat="45.08039" lon="5.97393">
        <ele>1829.8000488281</ele>
        <time>2024-10-15T12:27:58.000Z</time>
      </trkpt>
      <trkpt lat="45.08039" lon="5.97393">
        <ele>1829.8000488281</ele>
        <time>2024-10-15T12:27:59.000Z</time>
      </trkpt>
      <trkpt lat="45.08039" lon="5.97393">
        <ele>1829.8000488281</ele>
        <time>2024-10-15T12:28:00.000Z</time>
      </trkpt>
      <trkpt lat="45.08039" lon="5.97393">
        <ele>1830</ele>
        <time>2024-10-15T12:28:01.000Z</time>
      </trkpt>
      <trkpt lat="45.08039" lon="5.97393">
        <ele>1830.1999511719</ele>
        <time>2024-10-15T12:28:02.000Z</time>
      </trkpt>
      <trkpt lat="45.08039" lon="5.97393">
        <ele>1830.4000244141</ele>
        <time>2024-10-15T12:28:03.000Z</time>
      </trkpt>
      <trkpt lat="45.08039" lon="5.97393">
        <ele>1830.5999755859</ele>
        <time>2024-10-15T12:28:04.000Z</time>
      </trkpt>
      <trkpt lat="45.08039" lon="5.97393">
        <ele>1830.5999755859</ele>
        <time>2024-10-15T12:28:05.000Z</time>
      </trkpt>
      <trkpt lat="45.08039" lon="5.97393">
        <ele>1830.5999755859</ele>
        <time>2024-10-15T12:28:06.000Z</time>
      </trkpt>
      <trkpt lat="45.0804" lon="5.97393">
        <ele>1830.5999755859</ele>
        <time>2024-10-15T12:28:07.000Z</time>
      </trkpt>
      <trkpt lat="45.08041" lon="5.97393">
        <ele>1830.4000244141</ele>
        <time>2024-10-15T12:28:08.000Z</time>
      </trkpt>
      <trkpt lat="45.08042" lon="5.97394">
        <ele>1830</ele>
        <time>2024-10-15T12:28:09.000Z</time>
      </trkpt>
      <trkpt lat="45.08043" lon="5.97394">
        <ele>1829.8000488281</ele>
        <time>2024-10-15T12:28:10.000Z</time>
      </trkpt>
      <trkpt lat="45.08045" lon="5.97394">
        <ele>1829.8000488281</ele>
        <time>2024-10-15T12:28:11.000Z</time>
      </trkpt>
      <trkpt lat="45.08045" lon="5.97395">
        <ele>1829.8000488281</ele>
        <time>2024-10-15T12:28:12.000Z</time>
      </trkpt>
      <trkpt lat="45.08047" lon="5.97396">
        <ele>1829.8000488281</ele>
        <time>2024-10-15T12:28:13.000Z</time>
      </trkpt>
      <trkpt lat="45.08048" lon="5.97397">
        <ele>1829.4000244141</ele>
        <time>2024-10-15T12:28:14.000Z</time>
      </trkpt>
      <trkpt lat="45.08048" lon="5.97398">
        <ele>1828.8000488281</ele>
        <time>2024-10-15T12:28:15.000Z</time>
      </trkpt>
      <trkpt lat="45.08048" lon="5.97399">
        <ele>1828.5999755859</ele>
        <time>2024-10-15T12:28:16.000Z</time>
      </trkpt>
      <trkpt lat="45.08048" lon="5.97399">
        <ele>1828.5999755859</ele>
        <time>2024-10-15T12:28:17.000Z</time>
      </trkpt>
      <trkpt lat="45.08048" lon="5.974">
        <ele>1828.4000244141</ele>
        <time>2024-10-15T12:28:18.000Z</time>
      </trkpt>
      <trkpt lat="45.08048" lon="5.97402">
        <ele>1828.1999511719</ele>
        <time>2024-10-15T12:28:19.000Z</time>
      </trkpt>
      <trkpt lat="45.08049" lon="5.97402">
        <ele>1827.8000488281</ele>
        <time>2024-10-15T12:28:20.000Z</time>
      </trkpt>
      <trkpt lat="45.08049" lon="5.97403">
        <ele>1827.4000244141</ele>
        <time>2024-10-15T12:28:21.000Z</time>
      </trkpt>
      <trkpt lat="45.0805" lon="5.97404">
        <ele>1826.8000488281</ele>
        <time>2024-10-15T12:28:22.000Z</time>
      </trkpt>
      <trkpt lat="45.0805" lon="5.97405">
        <ele>1826.4000244141</ele>
        <time>2024-10-15T12:28:23.000Z</time>
      </trkpt>
      <trkpt lat="45.0805" lon="5.97406">
        <ele>1826</ele>
        <time>2024-10-15T12:28:24.000Z</time>
      </trkpt>
      <trkpt lat="45.0805" lon="5.97407">
        <ele>1825.5999755859</ele>
        <time>2024-10-15T12:28:25.000Z</time>
      </trkpt>
      <trkpt lat="45.08051" lon="5.97407">
        <ele>1825.1999511719</ele>
        <time>2024-10-15T12:28:26.000Z</time>
      </trkpt>
      <trkpt lat="45.0805" lon="5.97409">
        <ele>1825</ele>
        <time>2024-10-15T12:28:27.000Z</time>
      </trkpt>
      <trkpt lat="45.0805" lon="5.9741">
        <ele>1824.5999755859</ele>
        <time>2024-10-15T12:28:28.000Z</time>
      </trkpt>
      <trkpt lat="45.0805" lon="5.97411">
        <ele>1824.4000244141</ele>
        <time>2024-10-15T12:28:29.000Z</time>
      </trkpt>
      <trkpt lat="45.08049" lon="5.97412">
        <ele>1823.8000488281</ele>
        <time>2024-10-15T12:28:30.000Z</time>
      </trkpt>
      <trkpt lat="45.08049" lon="5.97413">
        <ele>1823.5999755859</ele>
        <time>2024-10-15T12:28:31.000Z</time>
      </trkpt>
      <trkpt lat="45.08049" lon="5.97413">
        <ele>1823.1999511719</ele>
        <time>2024-10-15T12:28:32.000Z</time>
      </trkpt>
      <trkpt lat="45.08048" lon="5.97414">
        <ele>1823</ele>
        <time>2024-10-15T12:28:33.000Z</time>
      </trkpt>
      <trkpt lat="45.08046" lon="5.97415">
        <ele>1823</ele>
        <time>2024-10-15T12:28:34.000Z</time>
      </trkpt>
      <trkpt lat="45.08045" lon="5.97415">
        <ele>1823</ele>
        <time>2024-10-15T12:28:35.000Z</time>
      </trkpt>
      <trkpt lat="45.08044" lon="5.97415">
        <ele>1823</ele>
        <time>2024-10-15T12:28:36.000Z</time>
      </trkpt>
      <trkpt lat="45.08043" lon="5.97416">
        <ele>1823</ele>
        <time>2024-10-15T12:28:37.000Z</time>
      </trkpt>
      <trkpt lat="45.08042" lon="5.97416">
        <ele>1823</ele>
        <time>2024-10-15T12:28:38.000Z</time>
      </trkpt>
      <trkpt lat="45.08042" lon="5.97417">
        <ele>1823.1999511719</ele>
        <time>2024-10-15T12:28:39.000Z</time>
      </trkpt>
      <trkpt lat="45.08041" lon="5.97417">
        <ele>1823.1999511719</ele>
        <time>2024-10-15T12:28:40.000Z</time>
      </trkpt>
      <trkpt lat="45.0804" lon="5.97418">
        <ele>1823.1999511719</ele>
        <time>2024-10-15T12:28:41.000Z</time>
      </trkpt>
      <trkpt lat="45.0804" lon="5.97419">
        <ele>1823.1999511719</ele>
        <time>2024-10-15T12:28:42.000Z</time>
      </trkpt>
      <trkpt lat="45.08039" lon="5.97419">
        <ele>1823</ele>
        <time>2024-10-15T12:28:43.000Z</time>
      </trkpt>
      <trkpt lat="45.08038" lon="5.9742">
        <ele>1822.4000244141</ele>
        <time>2024-10-15T12:28:44.000Z</time>
      </trkpt>
      <trkpt lat="45.08036" lon="5.97421">
        <ele>1822.1999511719</ele>
        <time>2024-10-15T12:28:45.000Z</time>
      </trkpt>
      <trkpt lat="45.08036" lon="5.97421">
        <ele>1822.1999511719</ele>
        <time>2024-10-15T12:28:46.000Z</time>
      </trkpt>
      <trkpt lat="45.08035" lon="5.97421">
        <ele>1822</ele>
        <time>2024-10-15T12:28:47.000Z</time>
      </trkpt>
      <trkpt lat="45.08034" lon="5.97421">
        <ele>1822</ele>
        <time>2024-10-15T12:28:48.000Z</time>
      </trkpt>
      <trkpt lat="45.08034" lon="5.97421">
        <ele>1822</ele>
        <time>2024-10-15T12:28:49.000Z</time>
      </trkpt>
      <trkpt lat="45.08034" lon="5.97421">
        <ele>1821.5999755859</ele>
        <time>2024-10-15T12:28:50.000Z</time>
      </trkpt>
      <trkpt lat="45.08033" lon="5.97422">
        <ele>1821.1999511719</ele>
        <time>2024-10-15T12:28:51.000Z</time>
      </trkpt>
      <trkpt lat="45.08032" lon="5.97422">
        <ele>1820.8000488281</ele>
        <time>2024-10-15T12:28:52.000Z</time>
      </trkpt>
      <trkpt lat="45.08032" lon="5.97422">
        <ele>1820.4000244141</ele>
        <time>2024-10-15T12:28:53.000Z</time>
      </trkpt>
      <trkpt lat="45.08032" lon="5.97422">
        <ele>1820.4000244141</ele>
        <time>2024-10-15T12:28:54.000Z</time>
      </trkpt>
      <trkpt lat="45.08031" lon="5.97422">
        <ele>1820.1999511719</ele>
        <time>2024-10-15T12:28:55.000Z</time>
      </trkpt>
      <trkpt lat="45.08031" lon="5.97422">
        <ele>1820</ele>
        <time>2024-10-15T12:28:56.000Z</time>
      </trkpt>
      <trkpt lat="45.08031" lon="5.97422">
        <ele>1819.8000488281</ele>
        <time>2024-10-15T12:28:57.000Z</time>
      </trkpt>
      <trkpt lat="45.08031" lon="5.97422">
        <ele>1819.8000488281</ele>
        <time>2024-10-15T12:28:58.000Z</time>
      </trkpt>
      <trkpt lat="45.08031" lon="5.97423">
        <ele>1819.5999755859</ele>
        <time>2024-10-15T12:28:59.000Z</time>
      </trkpt>
      <trkpt lat="45.08031" lon="5.97423">
        <ele>1819.5999755859</ele>
        <time>2024-10-15T12:29:00.000Z</time>
      </trkpt>
      <trkpt lat="45.08031" lon="5.97424">
        <ele>1819.5999755859</ele>
        <time>2024-10-15T12:29:01.000Z</time>
      </trkpt>
      <trkpt lat="45.08031" lon="5.97425">
        <ele>1819.1999511719</ele>
        <time>2024-10-15T12:29:02.000Z</time>
      </trkpt>
      <trkpt lat="45.08031" lon="5.97426">
        <ele>1818.8000488281</ele>
        <time>2024-10-15T12:29:03.000Z</time>
      </trkpt>
      <trkpt lat="45.08031" lon="5.97427">
        <ele>1818.4000244141</ele>
        <time>2024-10-15T12:29:04.000Z</time>
      </trkpt>
      <trkpt lat="45.0803" lon="5.97428">
        <ele>1818.1999511719</ele>
        <time>2024-10-15T12:29:05.000Z</time>
      </trkpt>
      <trkpt lat="45.0803" lon="5.97429">
        <ele>1817.8000488281</ele>
        <time>2024-10-15T12:29:06.000Z</time>
      </trkpt>
      <trkpt lat="45.0803" lon="5.9743">
        <ele>1817.1999511719</ele>
        <time>2024-10-15T12:29:07.000Z</time>
      </trkpt>
      <trkpt lat="45.08031" lon="5.97431">
        <ele>1816.5999755859</ele>
        <time>2024-10-15T12:29:08.000Z</time>
      </trkpt>
      <trkpt lat="45.08032" lon="5.97432">
        <ele>1816.4000244141</ele>
        <time>2024-10-15T12:29:09.000Z</time>
      </trkpt>
      <trkpt lat="45.08032" lon="5.97433">
        <ele>1816.1999511719</ele>
        <time>2024-10-15T12:29:10.000Z</time>
      </trkpt>
      <trkpt lat="45.08032" lon="5.97434">
        <ele>1816.1999511719</ele>
        <time>2024-10-15T12:29:11.000Z</time>
      </trkpt>
      <trkpt lat="45.08031" lon="5.97434">
        <ele>1815.8000488281</ele>
        <time>2024-10-15T12:29:12.000Z</time>
      </trkpt>
      <trkpt lat="45.08031" lon="5.97435">
        <ele>1815.5999755859</ele>
        <time>2024-10-15T12:29:13.000Z</time>
      </trkpt>
      <trkpt lat="45.0803" lon="5.97436">
        <ele>1815.4000244141</ele>
        <time>2024-10-15T12:29:14.000Z</time>
      </trkpt>
      <trkpt lat="45.0803" lon="5.97436">
        <ele>1815.1999511719</ele>
        <time>2024-10-15T12:29:15.000Z</time>
      </trkpt>
      <trkpt lat="45.08029" lon="5.97437">
        <ele>1814.8000488281</ele>
        <time>2024-10-15T12:29:16.000Z</time>
      </trkpt>
      <trkpt lat="45.08029" lon="5.97437">
        <ele>1814.4000244141</ele>
        <time>2024-10-15T12:29:17.000Z</time>
      </trkpt>
      <trkpt lat="45.08029" lon="5.97437">
        <ele>1814.1999511719</ele>
        <time>2024-10-15T12:29:18.000Z</time>
      </trkpt>
      <trkpt lat="45.08028" lon="5.97437">
        <ele>1814</ele>
        <time>2024-10-15T12:29:19.000Z</time>
      </trkpt>
      <trkpt lat="45.08028" lon="5.97438">
        <ele>1813.5999755859</ele>
        <time>2024-10-15T12:29:20.000Z</time>
      </trkpt>
      <trkpt lat="45.08028" lon="5.97439">
        <ele>1813.4000244141</ele>
        <time>2024-10-15T12:29:21.000Z</time>
      </trkpt>
      <trkpt lat="45.08028" lon="5.97439">
        <ele>1813.1999511719</ele>
        <time>2024-10-15T12:29:22.000Z</time>
      </trkpt>
      <trkpt lat="45.08028" lon="5.9744">
        <ele>1813</ele>
        <time>2024-10-15T12:29:23.000Z</time>
      </trkpt>
      <trkpt lat="45.08028" lon="5.97441">
        <ele>1813</ele>
        <time>2024-10-15T12:29:24.000Z</time>
      </trkpt>
      <trkpt lat="45.08028" lon="5.97442">
        <ele>1812.5999755859</ele>
        <time>2024-10-15T12:29:25.000Z</time>
      </trkpt>
      <trkpt lat="45.08028" lon="5.97443">
        <ele>1812.4000244141</ele>
        <time>2024-10-15T12:29:26.000Z</time>
      </trkpt>
      <trkpt lat="45.08028" lon="5.97443">
        <ele>1811.8000488281</ele>
        <time>2024-10-15T12:29:27.000Z</time>
      </trkpt>
      <trkpt lat="45.08029" lon="5.97445">
        <ele>1811.4000244141</ele>
        <time>2024-10-15T12:29:28.000Z</time>
      </trkpt>
      <trkpt lat="45.08029" lon="5.97446">
        <ele>1810.8000488281</ele>
        <time>2024-10-15T12:29:29.000Z</time>
      </trkpt>
      <trkpt lat="45.08029" lon="5.97447">
        <ele>1810.4000244141</ele>
        <time>2024-10-15T12:29:30.000Z</time>
      </trkpt>
      <trkpt lat="45.08029" lon="5.97448">
        <ele>1810.1999511719</ele>
        <time>2024-10-15T12:29:31.000Z</time>
      </trkpt>
      <trkpt lat="45.08029" lon="5.97449">
        <ele>1809.8000488281</ele>
        <time>2024-10-15T12:29:32.000Z</time>
      </trkpt>
      <trkpt lat="45.08029" lon="5.97451">
        <ele>1809.4000244141</ele>
        <time>2024-10-15T12:29:33.000Z</time>
      </trkpt>
      <trkpt lat="45.08029" lon="5.97452">
        <ele>1809.1999511719</ele>
        <time>2024-10-15T12:29:34.000Z</time>
      </trkpt>
      <trkpt lat="45.08029" lon="5.97453">
        <ele>1808.8000488281</ele>
        <time>2024-10-15T12:29:35.000Z</time>
      </trkpt>
      <trkpt lat="45.08029" lon="5.97454">
        <ele>1808.4000244141</ele>
        <time>2024-10-15T12:29:36.000Z</time>
      </trkpt>
      <trkpt lat="45.08029" lon="5.97455">
        <ele>1807.8000488281</ele>
        <time>2024-10-15T12:29:37.000Z</time>
      </trkpt>
      <trkpt lat="45.08028" lon="5.97456">
        <ele>1807.5999755859</ele>
        <time>2024-10-15T12:29:38.000Z</time>
      </trkpt>
      <trkpt lat="45.08028" lon="5.97457">
        <ele>1807.4000244141</ele>
        <time>2024-10-15T12:29:39.000Z</time>
      </trkpt>
      <trkpt lat="45.08027" lon="5.97457">
        <ele>1807</ele>
        <time>2024-10-15T12:29:40.000Z</time>
      </trkpt>
      <trkpt lat="45.08026" lon="5.97458">
        <ele>1806.5999755859</ele>
        <time>2024-10-15T12:29:41.000Z</time>
      </trkpt>
      <trkpt lat="45.08026" lon="5.97458">
        <ele>1806.4000244141</ele>
        <time>2024-10-15T12:29:42.000Z</time>
      </trkpt>
      <trkpt lat="45.08025" lon="5.97458">
        <ele>1806</ele>
        <time>2024-10-15T12:29:43.000Z</time>
      </trkpt>
      <trkpt lat="45.08024" lon="5.97459">
        <ele>1805.8000488281</ele>
        <time>2024-10-15T12:29:44.000Z</time>
      </trkpt>
      <trkpt lat="45.08024" lon="5.9746">
        <ele>1805.4000244141</ele>
        <time>2024-10-15T12:29:45.000Z</time>
      </trkpt>
      <trkpt lat="45.08024" lon="5.9746">
        <ele>1805.1999511719</ele>
        <time>2024-10-15T12:29:46.000Z</time>
      </trkpt>
      <trkpt lat="45.08024" lon="5.97462">
        <ele>1805</ele>
        <time>2024-10-15T12:29:47.000Z</time>
      </trkpt>
      <trkpt lat="45.08024" lon="5.97462">
        <ele>1804.5999755859</ele>
        <time>2024-10-15T12:29:48.000Z</time>
      </trkpt>
      <trkpt lat="45.08023" lon="5.97463">
        <ele>1804.1999511719</ele>
        <time>2024-10-15T12:29:49.000Z</time>
      </trkpt>
      <trkpt lat="45.08023" lon="5.97464">
        <ele>1804</ele>
        <time>2024-10-15T12:29:50.000Z</time>
      </trkpt>
      <trkpt lat="45.08024" lon="5.97465">
        <ele>1803.5999755859</ele>
        <time>2024-10-15T12:29:51.000Z</time>
      </trkpt>
      <trkpt lat="45.08024" lon="5.97466">
        <ele>1803.1999511719</ele>
        <time>2024-10-15T12:29:52.000Z</time>
      </trkpt>
      <trkpt lat="45.08024" lon="5.97467">
        <ele>1803</ele>
        <time>2024-10-15T12:29:53.000Z</time>
      </trkpt>
      <trkpt lat="45.08024" lon="5.97468">
        <ele>1802.5999755859</ele>
        <time>2024-10-15T12:29:54.000Z</time>
      </trkpt>
      <trkpt lat="45.08024" lon="5.97469">
        <ele>1802.5999755859</ele>
        <time>2024-10-15T12:29:55.000Z</time>
      </trkpt>
      <trkpt lat="45.08024" lon="5.9747">
        <ele>1802</ele>
        <time>2024-10-15T12:29:56.000Z</time>
      </trkpt>
      <trkpt lat="45.08023" lon="5.97471">
        <ele>1801.4000244141</ele>
        <time>2024-10-15T12:29:57.000Z</time>
      </trkpt>
      <trkpt lat="45.08023" lon="5.97473">
        <ele>1801.1999511719</ele>
        <time>2024-10-15T12:29:58.000Z</time>
      </trkpt>
      <trkpt lat="45.08023" lon="5.97473">
        <ele>1800.8000488281</ele>
        <time>2024-10-15T12:29:59.000Z</time>
      </trkpt>
      <trkpt lat="45.08023" lon="5.97474">
        <ele>1800.5999755859</ele>
        <time>2024-10-15T12:30:00.000Z</time>
      </trkpt>
      <trkpt lat="45.08023" lon="5.97475">
        <ele>1800.1999511719</ele>
        <time>2024-10-15T12:30:01.000Z</time>
      </trkpt>
      <trkpt lat="45.08023" lon="5.97476">
        <ele>1800</ele>
        <time>2024-10-15T12:30:02.000Z</time>
      </trkpt>
      <trkpt lat="45.08023" lon="5.97476">
        <ele>1799.8000488281</ele>
        <time>2024-10-15T12:30:03.000Z</time>
      </trkpt>
      <trkpt lat="45.08023" lon="5.97477">
        <ele>1799.4000244141</ele>
        <time>2024-10-15T12:30:04.000Z</time>
      </trkpt>
      <trkpt lat="45.08023" lon="5.97478">
        <ele>1799</ele>
        <time>2024-10-15T12:30:05.000Z</time>
      </trkpt>
      <trkpt lat="45.08023" lon="5.9748">
        <ele>1798.8000488281</ele>
        <time>2024-10-15T12:30:06.000Z</time>
      </trkpt>
      <trkpt lat="45.08023" lon="5.97481">
        <ele>1798.5999755859</ele>
        <time>2024-10-15T12:30:07.000Z</time>
      </trkpt>
      <trkpt lat="45.08023" lon="5.97481">
        <ele>1798.4000244141</ele>
        <time>2024-10-15T12:30:08.000Z</time>
      </trkpt>
      <trkpt lat="45.08022" lon="5.97482">
        <ele>1798</ele>
        <time>2024-10-15T12:30:09.000Z</time>
      </trkpt>
      <trkpt lat="45.08021" lon="5.97483">
        <ele>1797.8000488281</ele>
        <time>2024-10-15T12:30:10.000Z</time>
      </trkpt>
      <trkpt lat="45.0802" lon="5.97484">
        <ele>1797.5999755859</ele>
        <time>2024-10-15T12:30:11.000Z</time>
      </trkpt>
      <trkpt lat="45.0802" lon="5.97484">
        <ele>1797.4000244141</ele>
        <time>2024-10-15T12:30:12.000Z</time>
      </trkpt>
      <trkpt lat="45.08019" lon="5.97485">
        <ele>1796.8000488281</ele>
        <time>2024-10-15T12:30:13.000Z</time>
      </trkpt>
      <trkpt lat="45.08019" lon="5.97486">
        <ele>1796.4000244141</ele>
        <time>2024-10-15T12:30:14.000Z</time>
      </trkpt>
      <trkpt lat="45.08018" lon="5.97486">
        <ele>1796.1999511719</ele>
        <time>2024-10-15T12:30:15.000Z</time>
      </trkpt>
      <trkpt lat="45.08018" lon="5.97487">
        <ele>1795.8000488281</ele>
        <time>2024-10-15T12:30:16.000Z</time>
      </trkpt>
      <trkpt lat="45.08018" lon="5.97488">
        <ele>1795.4000244141</ele>
        <time>2024-10-15T12:30:17.000Z</time>
      </trkpt>
      <trkpt lat="45.08018" lon="5.97489">
        <ele>1795.1999511719</ele>
        <time>2024-10-15T12:30:18.000Z</time>
      </trkpt>
      <trkpt lat="45.08018" lon="5.9749">
        <ele>1795.1999511719</ele>
        <time>2024-10-15T12:30:19.000Z</time>
      </trkpt>
      <trkpt lat="45.08018" lon="5.97492">
        <ele>1795</ele>
        <time>2024-10-15T12:30:20.000Z</time>
      </trkpt>
      <trkpt lat="45.08017" lon="5.97493">
        <ele>1794.8000488281</ele>
        <time>2024-10-15T12:30:21.000Z</time>
      </trkpt>
      <trkpt lat="45.08017" lon="5.97494">
        <ele>1794.4000244141</ele>
        <time>2024-10-15T12:30:22.000Z</time>
      </trkpt>
      <trkpt lat="45.08016" lon="5.97494">
        <ele>1794</ele>
        <time>2024-10-15T12:30:23.000Z</time>
      </trkpt>
      <trkpt lat="45.08016" lon="5.97495">
        <ele>1793.5999755859</ele>
        <time>2024-10-15T12:30:24.000Z</time>
      </trkpt>
      <trkpt lat="45.08016" lon="5.97496">
        <ele>1793.4000244141</ele>
        <time>2024-10-15T12:30:25.000Z</time>
      </trkpt>
      <trkpt lat="45.08016" lon="5.97497">
        <ele>1793.4000244141</ele>
        <time>2024-10-15T12:30:26.000Z</time>
      </trkpt>
      <trkpt lat="45.08016" lon="5.97498">
        <ele>1793.1999511719</ele>
        <time>2024-10-15T12:30:27.000Z</time>
      </trkpt>
      <trkpt lat="45.08016" lon="5.97499">
        <ele>1793.1999511719</ele>
        <time>2024-10-15T12:30:28.000Z</time>
      </trkpt>
      <trkpt lat="45.08016" lon="5.975">
        <ele>1793.1999511719</ele>
        <time>2024-10-15T12:30:29.000Z</time>
      </trkpt>
      <trkpt lat="45.08016" lon="5.97501">
        <ele>1792.8000488281</ele>
        <time>2024-10-15T12:30:30.000Z</time>
      </trkpt>
      <trkpt lat="45.08017" lon="5.97502">
        <ele>1792.4000244141</ele>
        <time>2024-10-15T12:30:31.000Z</time>
      </trkpt>
      <trkpt lat="45.08017" lon="5.97502">
        <ele>1792.4000244141</ele>
        <time>2024-10-15T12:30:32.000Z</time>
      </trkpt>
      <trkpt lat="45.08017" lon="5.97502">
        <ele>1792.4000244141</ele>
        <time>2024-10-15T12:30:33.000Z</time>
      </trkpt>
      <trkpt lat="45.08017" lon="5.97502">
        <ele>1792.4000244141</ele>
        <time>2024-10-15T12:30:34.000Z</time>
      </trkpt>
      <trkpt lat="45.08018" lon="5.97503">
        <ele>1792.4000244141</ele>
        <time>2024-10-15T12:30:35.000Z</time>
      </trkpt>
      <trkpt lat="45.08019" lon="5.97503">
        <ele>1792.4000244141</ele>
        <time>2024-10-15T12:30:36.000Z</time>
      </trkpt>
      <trkpt lat="45.08019" lon="5.97503">
        <ele>1792.4000244141</ele>
        <time>2024-10-15T12:30:37.000Z</time>
      </trkpt>
      <trkpt lat="45.0802" lon="5.97504">
        <ele>1792.1999511719</ele>
        <time>2024-10-15T12:30:38.000Z</time>
      </trkpt>
      <trkpt lat="45.0802" lon="5.97504">
        <ele>1791.8000488281</ele>
        <time>2024-10-15T12:30:39.000Z</time>
      </trkpt>
      <trkpt lat="45.0802" lon="5.97504">
        <ele>1791.5999755859</ele>
        <time>2024-10-15T12:30:40.000Z</time>
      </trkpt>
      <trkpt lat="45.08021" lon="5.97504">
        <ele>1791.4000244141</ele>
        <time>2024-10-15T12:30:41.000Z</time>
      </trkpt>
      <trkpt lat="45.08021" lon="5.97505">
        <ele>1791</ele>
        <time>2024-10-15T12:30:42.000Z</time>
      </trkpt>
      <trkpt lat="45.08022" lon="5.97505">
        <ele>1790.5999755859</ele>
        <time>2024-10-15T12:30:43.000Z</time>
      </trkpt>
      <trkpt lat="45.08022" lon="5.97505">
        <ele>1790.5999755859</ele>
        <time>2024-10-15T12:30:44.000Z</time>
      </trkpt>
      <trkpt lat="45.08022" lon="5.97506">
        <ele>1790.4000244141</ele>
        <time>2024-10-15T12:30:45.000Z</time>
      </trkpt>
      <trkpt lat="45.08022" lon="5.97506">
        <ele>1790</ele>
        <time>2024-10-15T12:30:46.000Z</time>
      </trkpt>
      <trkpt lat="45.08023" lon="5.97506">
        <ele>1789.8000488281</ele>
        <time>2024-10-15T12:30:47.000Z</time>
      </trkpt>
      <trkpt lat="45.08023" lon="5.97507">
        <ele>1789.5999755859</ele>
        <time>2024-10-15T12:30:48.000Z</time>
      </trkpt>
      <trkpt lat="45.08023" lon="5.97507">
        <ele>1789.4000244141</ele>
        <time>2024-10-15T12:30:49.000Z</time>
      </trkpt>
      <trkpt lat="45.08023" lon="5.97507">
        <ele>1789</ele>
        <time>2024-10-15T12:30:50.000Z</time>
      </trkpt>
      <trkpt lat="45.08023" lon="5.97508">
        <ele>1788.8000488281</ele>
        <time>2024-10-15T12:30:51.000Z</time>
      </trkpt>
      <trkpt lat="45.08023" lon="5.97508">
        <ele>1788.8000488281</ele>
        <time>2024-10-15T12:30:52.000Z</time>
      </trkpt>
      <trkpt lat="45.08023" lon="5.97508">
        <ele>1788.8000488281</ele>
        <time>2024-10-15T12:30:53.000Z</time>
      </trkpt>
      <trkpt lat="45.08023" lon="5.97508">
        <ele>1788.5999755859</ele>
        <time>2024-10-15T12:30:54.000Z</time>
      </trkpt>
      <trkpt lat="45.08023" lon="5.97509">
        <ele>1788.4000244141</ele>
        <time>2024-10-15T12:30:55.000Z</time>
      </trkpt>
      <trkpt lat="45.08023" lon="5.9751">
        <ele>1788.4000244141</ele>
        <time>2024-10-15T12:30:56.000Z</time>
      </trkpt>
      <trkpt lat="45.08024" lon="5.97511">
        <ele>1788</ele>
        <time>2024-10-15T12:30:57.000Z</time>
      </trkpt>
      <trkpt lat="45.08025" lon="5.97512">
        <ele>1788</ele>
        <time>2024-10-15T12:30:58.000Z</time>
      </trkpt>
      <trkpt lat="45.08025" lon="5.97513">
        <ele>1787.8000488281</ele>
        <time>2024-10-15T12:30:59.000Z</time>
      </trkpt>
      <trkpt lat="45.08025" lon="5.97514">
        <ele>1787.8000488281</ele>
        <time>2024-10-15T12:31:00.000Z</time>
      </trkpt>
      <trkpt lat="45.08025" lon="5.97514">
        <ele>1787.5999755859</ele>
        <time>2024-10-15T12:31:01.000Z</time>
      </trkpt>
      <trkpt lat="45.08025" lon="5.97515">
        <ele>1787.4000244141</ele>
        <time>2024-10-15T12:31:02.000Z</time>
      </trkpt>
      <trkpt lat="45.08026" lon="5.97516">
        <ele>1787.1999511719</ele>
        <time>2024-10-15T12:31:03.000Z</time>
      </trkpt>
      <trkpt lat="45.08026" lon="5.97517">
        <ele>1787</ele>
        <time>2024-10-15T12:31:04.000Z</time>
      </trkpt>
      <trkpt lat="45.08026" lon="5.97517">
        <ele>1787</ele>
        <time>2024-10-15T12:31:05.000Z</time>
      </trkpt>
      <trkpt lat="45.08027" lon="5.97518">
        <ele>1786.8000488281</ele>
        <time>2024-10-15T12:31:06.000Z</time>
      </trkpt>
      <trkpt lat="45.08027" lon="5.97519">
        <ele>1786.8000488281</ele>
        <time>2024-10-15T12:31:07.000Z</time>
      </trkpt>
      <trkpt lat="45.08027" lon="5.9752">
        <ele>1786.8000488281</ele>
        <time>2024-10-15T12:31:08.000Z</time>
      </trkpt>
      <trkpt lat="45.08028" lon="5.97521">
        <ele>1786.5999755859</ele>
        <time>2024-10-15T12:31:09.000Z</time>
      </trkpt>
      <trkpt lat="45.08028" lon="5.97522">
        <ele>1786.5999755859</ele>
        <time>2024-10-15T12:31:10.000Z</time>
      </trkpt>
      <trkpt lat="45.08028" lon="5.97522">
        <ele>1786.4000244141</ele>
        <time>2024-10-15T12:31:11.000Z</time>
      </trkpt>
      <trkpt lat="45.08029" lon="5.97523">
        <ele>1786.4000244141</ele>
        <time>2024-10-15T12:31:12.000Z</time>
      </trkpt>
      <trkpt lat="45.08029" lon="5.97524">
        <ele>1786.4000244141</ele>
        <time>2024-10-15T12:31:13.000Z</time>
      </trkpt>
      <trkpt lat="45.08029" lon="5.97525">
        <ele>1786.4000244141</ele>
        <time>2024-10-15T12:31:14.000Z</time>
      </trkpt>
      <trkpt lat="45.0803" lon="5.97526">
        <ele>1786.1999511719</ele>
        <time>2024-10-15T12:31:15.000Z</time>
      </trkpt>
      <trkpt lat="45.0803" lon="5.97527">
        <ele>1786</ele>
        <time>2024-10-15T12:31:16.000Z</time>
      </trkpt>
      <trkpt lat="45.0803" lon="5.97528">
        <ele>1786</ele>
        <time>2024-10-15T12:31:17.000Z</time>
      </trkpt>
      <trkpt lat="45.08029" lon="5.97529">
        <ele>1785.8000488281</ele>
        <time>2024-10-15T12:31:18.000Z</time>
      </trkpt>
      <trkpt lat="45.08029" lon="5.9753">
        <ele>1785.4000244141</ele>
        <time>2024-10-15T12:31:19.000Z</time>
      </trkpt>
      <trkpt lat="45.08029" lon="5.9753">
        <ele>1785.4000244141</ele>
        <time>2024-10-15T12:31:20.000Z</time>
      </trkpt>
      <trkpt lat="45.08029" lon="5.97531">
        <ele>1784.8000488281</ele>
        <time>2024-10-15T12:31:21.000Z</time>
      </trkpt>
      <trkpt lat="45.08029" lon="5.97531">
        <ele>1784.5999755859</ele>
        <time>2024-10-15T12:31:22.000Z</time>
      </trkpt>
      <trkpt lat="45.08029" lon="5.97532">
        <ele>1784</ele>
        <time>2024-10-15T12:31:23.000Z</time>
      </trkpt>
      <trkpt lat="45.08029" lon="5.97533">
        <ele>1783.8000488281</ele>
        <time>2024-10-15T12:31:24.000Z</time>
      </trkpt>
      <trkpt lat="45.08028" lon="5.97534">
        <ele>1783.8000488281</ele>
        <time>2024-10-15T12:31:25.000Z</time>
      </trkpt>
      <trkpt lat="45.08028" lon="5.97535">
        <ele>1783.4000244141</ele>
        <time>2024-10-15T12:31:26.000Z</time>
      </trkpt>
      <trkpt lat="45.08027" lon="5.97536">
        <ele>1783.1999511719</ele>
        <time>2024-10-15T12:31:27.000Z</time>
      </trkpt>
      <trkpt lat="45.08027" lon="5.97536">
        <ele>1782.4000244141</ele>
        <time>2024-10-15T12:31:28.000Z</time>
      </trkpt>
      <trkpt lat="45.08026" lon="5.97537">
        <ele>1781.5999755859</ele>
        <time>2024-10-15T12:31:29.000Z</time>
      </trkpt>
      <trkpt lat="45.08025" lon="5.97537">
        <ele>1781.1999511719</ele>
        <time>2024-10-15T12:31:30.000Z</time>
      </trkpt>
      <trkpt lat="45.08025" lon="5.97538">
        <ele>1780.5999755859</ele>
        <time>2024-10-15T12:31:31.000Z</time>
      </trkpt>
      <trkpt lat="45.08025" lon="5.97539">
        <ele>1780.4000244141</ele>
        <time>2024-10-15T12:31:32.000Z</time>
      </trkpt>
      <trkpt lat="45.08024" lon="5.97539">
        <ele>1780.1999511719</ele>
        <time>2024-10-15T12:31:33.000Z</time>
      </trkpt>
      <trkpt lat="45.08024" lon="5.9754">
        <ele>1780</ele>
        <time>2024-10-15T12:31:34.000Z</time>
      </trkpt>
      <trkpt lat="45.08023" lon="5.9754">
        <ele>1779.8000488281</ele>
        <time>2024-10-15T12:31:35.000Z</time>
      </trkpt>
      <trkpt lat="45.08023" lon="5.97541">
        <ele>1779.5999755859</ele>
        <time>2024-10-15T12:31:36.000Z</time>
      </trkpt>
      <trkpt lat="45.08022" lon="5.97541">
        <ele>1779.5999755859</ele>
        <time>2024-10-15T12:31:37.000Z</time>
      </trkpt>
      <trkpt lat="45.08021" lon="5.97542">
        <ele>1779</ele>
        <time>2024-10-15T12:31:38.000Z</time>
      </trkpt>
      <trkpt lat="45.08021" lon="5.97542">
        <ele>1778.5999755859</ele>
        <time>2024-10-15T12:31:39.000Z</time>
      </trkpt>
      <trkpt lat="45.0802" lon="5.97542">
        <ele>1778</ele>
        <time>2024-10-15T12:31:40.000Z</time>
      </trkpt>
      <trkpt lat="45.0802" lon="5.97543">
        <ele>1777.5999755859</ele>
        <time>2024-10-15T12:31:41.000Z</time>
      </trkpt>
      <trkpt lat="45.0802" lon="5.97543">
        <ele>1777.1999511719</ele>
        <time>2024-10-15T12:31:42.000Z</time>
      </trkpt>
      <trkpt lat="45.08019" lon="5.97544">
        <ele>1776.8000488281</ele>
        <time>2024-10-15T12:31:43.000Z</time>
      </trkpt>
      <trkpt lat="45.08019" lon="5.97545">
        <ele>1776.5999755859</ele>
        <time>2024-10-15T12:31:44.000Z</time>
      </trkpt>
      <trkpt lat="45.08019" lon="5.97546">
        <ele>1776.1999511719</ele>
        <time>2024-10-15T12:31:45.000Z</time>
      </trkpt>
      <trkpt lat="45.08019" lon="5.97546">
        <ele>1776</ele>
        <time>2024-10-15T12:31:46.000Z</time>
      </trkpt>
      <trkpt lat="45.08019" lon="5.97547">
        <ele>1775.8000488281</ele>
        <time>2024-10-15T12:31:47.000Z</time>
      </trkpt>
      <trkpt lat="45.08019" lon="5.97548">
        <ele>1775.8000488281</ele>
        <time>2024-10-15T12:31:48.000Z</time>
      </trkpt>
      <trkpt lat="45.08018" lon="5.97549">
        <ele>1775.8000488281</ele>
        <time>2024-10-15T12:31:49.000Z</time>
      </trkpt>
      <trkpt lat="45.08018" lon="5.9755">
        <ele>1775.5999755859</ele>
        <time>2024-10-15T12:31:50.000Z</time>
      </trkpt>
      <trkpt lat="45.08018" lon="5.97552">
        <ele>1775.4000244141</ele>
        <time>2024-10-15T12:31:51.000Z</time>
      </trkpt>
      <trkpt lat="45.08018" lon="5.97553">
        <ele>1775.1999511719</ele>
        <time>2024-10-15T12:31:52.000Z</time>
      </trkpt>
      <trkpt lat="45.08018" lon="5.97554">
        <ele>1775</ele>
        <time>2024-10-15T12:31:53.000Z</time>
      </trkpt>
      <trkpt lat="45.08018" lon="5.97556">
        <ele>1775</ele>
        <time>2024-10-15T12:31:54.000Z</time>
      </trkpt>
      <trkpt lat="45.08018" lon="5.97557">
        <ele>1774.5999755859</ele>
        <time>2024-10-15T12:31:55.000Z</time>
      </trkpt>
      <trkpt lat="45.08017" lon="5.97558">
        <ele>1774.4000244141</ele>
        <time>2024-10-15T12:31:56.000Z</time>
      </trkpt>
      <trkpt lat="45.08017" lon="5.97559">
        <ele>1774.1999511719</ele>
        <time>2024-10-15T12:31:57.000Z</time>
      </trkpt>
      <trkpt lat="45.08017" lon="5.9756">
        <ele>1774</ele>
        <time>2024-10-15T12:31:58.000Z</time>
      </trkpt>
      <trkpt lat="45.08017" lon="5.97561">
        <ele>1773.8000488281</ele>
        <time>2024-10-15T12:31:59.000Z</time>
      </trkpt>
      <trkpt lat="45.08016" lon="5.97562">
        <ele>1773.4000244141</ele>
        <time>2024-10-15T12:32:00.000Z</time>
      </trkpt>
      <trkpt lat="45.08016" lon="5.97562">
        <ele>1773.1999511719</ele>
        <time>2024-10-15T12:32:01.000Z</time>
      </trkpt>
      <trkpt lat="45.08015" lon="5.97563">
        <ele>1772.8000488281</ele>
        <time>2024-10-15T12:32:02.000Z</time>
      </trkpt>
      <trkpt lat="45.08015" lon="5.97564">
        <ele>1772.5999755859</ele>
        <time>2024-10-15T12:32:03.000Z</time>
      </trkpt>
      <trkpt lat="45.08015" lon="5.97565">
        <ele>1772.1999511719</ele>
        <time>2024-10-15T12:32:04.000Z</time>
      </trkpt>
      <trkpt lat="45.08014" lon="5.97566">
        <ele>1772</ele>
        <time>2024-10-15T12:32:05.000Z</time>
      </trkpt>
      <trkpt lat="45.08014" lon="5.97566">
        <ele>1771.5999755859</ele>
        <time>2024-10-15T12:32:06.000Z</time>
      </trkpt>
      <trkpt lat="45.08013" lon="5.97567">
        <ele>1771.1999511719</ele>
        <time>2024-10-15T12:32:07.000Z</time>
      </trkpt>
      <trkpt lat="45.08013" lon="5.97569">
        <ele>1771</ele>
        <time>2024-10-15T12:32:08.000Z</time>
      </trkpt>
      <trkpt lat="45.08013" lon="5.9757">
        <ele>1770.8000488281</ele>
        <time>2024-10-15T12:32:09.000Z</time>
      </trkpt>
      <trkpt lat="45.08012" lon="5.97571">
        <ele>1770.4000244141</ele>
        <time>2024-10-15T12:32:10.000Z</time>
      </trkpt>
      <trkpt lat="45.08012" lon="5.97572">
        <ele>1770</ele>
        <time>2024-10-15T12:32:11.000Z</time>
      </trkpt>
      <trkpt lat="45.08012" lon="5.97573">
        <ele>1769.5999755859</ele>
        <time>2024-10-15T12:32:12.000Z</time>
      </trkpt>
      <trkpt lat="45.08012" lon="5.97574">
        <ele>1769.1999511719</ele>
        <time>2024-10-15T12:32:13.000Z</time>
      </trkpt>
      <trkpt lat="45.08012" lon="5.97575">
        <ele>1769</ele>
        <time>2024-10-15T12:32:14.000Z</time>
      </trkpt>
      <trkpt lat="45.08012" lon="5.97575">
        <ele>1768.5999755859</ele>
        <time>2024-10-15T12:32:15.000Z</time>
      </trkpt>
      <trkpt lat="45.08012" lon="5.97576">
        <ele>1768.4000244141</ele>
        <time>2024-10-15T12:32:16.000Z</time>
      </trkpt>
      <trkpt lat="45.08012" lon="5.97577">
        <ele>1768.1999511719</ele>
        <time>2024-10-15T12:32:17.000Z</time>
      </trkpt>
      <trkpt lat="45.08012" lon="5.97578">
        <ele>1768</ele>
        <time>2024-10-15T12:32:18.000Z</time>
      </trkpt>
      <trkpt lat="45.08012" lon="5.97578">
        <ele>1767.8000488281</ele>
        <time>2024-10-15T12:32:19.000Z</time>
      </trkpt>
      <trkpt lat="45.08011" lon="5.97579">
        <ele>1767.4000244141</ele>
        <time>2024-10-15T12:32:20.000Z</time>
      </trkpt>
      <trkpt lat="45.08011" lon="5.9758">
        <ele>1767</ele>
        <time>2024-10-15T12:32:21.000Z</time>
      </trkpt>
      <trkpt lat="45.08011" lon="5.9758">
        <ele>1766.8000488281</ele>
        <time>2024-10-15T12:32:22.000Z</time>
      </trkpt>
      <trkpt lat="45.08011" lon="5.9758">
        <ele>1766.5999755859</ele>
        <time>2024-10-15T12:32:23.000Z</time>
      </trkpt>
      <trkpt lat="45.0801" lon="5.9758">
        <ele>1766.5999755859</ele>
        <time>2024-10-15T12:32:24.000Z</time>
      </trkpt>
      <trkpt lat="45.0801" lon="5.9758">
        <ele>1766.5999755859</ele>
        <time>2024-10-15T12:32:25.000Z</time>
      </trkpt>
      <trkpt lat="45.0801" lon="5.9758">
        <ele>1766.5999755859</ele>
        <time>2024-10-15T12:32:26.000Z</time>
      </trkpt>
      <trkpt lat="45.0801" lon="5.97581">
        <ele>1766.5999755859</ele>
        <time>2024-10-15T12:32:27.000Z</time>
      </trkpt>
      <trkpt lat="45.0801" lon="5.9758">
        <ele>1766.5999755859</ele>
        <time>2024-10-15T12:32:28.000Z</time>
      </trkpt>
      <trkpt lat="45.0801" lon="5.9758">
        <ele>1766.5999755859</ele>
        <time>2024-10-15T12:32:29.000Z</time>
      </trkpt>
      <trkpt lat="45.0801" lon="5.9758">
        <ele>1766.5999755859</ele>
        <time>2024-10-15T12:32:30.000Z</time>
      </trkpt>
      <trkpt lat="45.0801" lon="5.9758">
        <ele>1766.5999755859</ele>
        <time>2024-10-15T12:32:31.000Z</time>
      </trkpt>
      <trkpt lat="45.0801" lon="5.9758">
        <ele>1766.4000244141</ele>
        <time>2024-10-15T12:32:32.000Z</time>
      </trkpt>
      <trkpt lat="45.0801" lon="5.9758">
        <ele>1766.4000244141</ele>
        <time>2024-10-15T12:32:33.000Z</time>
      </trkpt>
      <trkpt lat="45.0801" lon="5.9758">
        <ele>1766.4000244141</ele>
        <time>2024-10-15T12:32:34.000Z</time>
      </trkpt>
      <trkpt lat="45.0801" lon="5.9758">
        <ele>1766.4000244141</ele>
        <time>2024-10-15T12:32:35.000Z</time>
      </trkpt>
      <trkpt lat="45.0801" lon="5.9758">
        <ele>1766.4000244141</ele>
        <time>2024-10-15T12:32:36.000Z</time>
      </trkpt>
      <trkpt lat="45.0801" lon="5.9758">
        <ele>1766.1999511719</ele>
        <time>2024-10-15T12:32:37.000Z</time>
      </trkpt>
      <trkpt lat="45.0801" lon="5.9758">
        <ele>1766.1999511719</ele>
        <time>2024-10-15T12:32:38.000Z</time>
      </trkpt>
      <trkpt lat="45.0801" lon="5.9758">
        <ele>1766.1999511719</ele>
        <time>2024-10-15T12:32:39.000Z</time>
      </trkpt>
      <trkpt lat="45.0801" lon="5.9758">
        <ele>1766.1999511719</ele>
        <time>2024-10-15T12:32:40.000Z</time>
      </trkpt>
      <trkpt lat="45.0801" lon="5.9758">
        <ele>1766.1999511719</ele>
        <time>2024-10-15T12:32:41.000Z</time>
      </trkpt>
      <trkpt lat="45.0801" lon="5.9758">
        <ele>1766.1999511719</ele>
        <time>2024-10-15T12:32:42.000Z</time>
      </trkpt>
      <trkpt lat="45.0801" lon="5.9758">
        <ele>1766.1999511719</ele>
        <time>2024-10-15T12:32:43.000Z</time>
      </trkpt>
      <trkpt lat="45.0801" lon="5.9758">
        <ele>1766.1999511719</ele>
        <time>2024-10-15T12:32:44.000Z</time>
      </trkpt>
      <trkpt lat="45.0801" lon="5.9758">
        <ele>1766.1999511719</ele>
        <time>2024-10-15T12:32:45.000Z</time>
      </trkpt>
      <trkpt lat="45.0801" lon="5.9758">
        <ele>1766</ele>
        <time>2024-10-15T12:32:46.000Z</time>
      </trkpt>
      <trkpt lat="45.0801" lon="5.9758">
        <ele>1766</ele>
        <time>2024-10-15T12:32:47.000Z</time>
      </trkpt>
      <trkpt lat="45.0801" lon="5.9758">
        <ele>1766</ele>
        <time>2024-10-15T12:32:48.000Z</time>
      </trkpt>
      <trkpt lat="45.0801" lon="5.9758">
        <ele>1765.5999755859</ele>
        <time>2024-10-15T12:32:49.000Z</time>
      </trkpt>
      <trkpt lat="45.0801" lon="5.9758">
        <ele>1765.5999755859</ele>
        <time>2024-10-15T12:32:50.000Z</time>
      </trkpt>
      <trkpt lat="45.08009" lon="5.97579">
        <ele>1765.5999755859</ele>
        <time>2024-10-15T12:32:51.000Z</time>
      </trkpt>
      <trkpt lat="45.08009" lon="5.97578">
        <ele>1765.4000244141</ele>
        <time>2024-10-15T12:32:52.000Z</time>
      </trkpt>
      <trkpt lat="45.08008" lon="5.97577">
        <ele>1765.4000244141</ele>
        <time>2024-10-15T12:32:53.000Z</time>
      </trkpt>
      <trkpt lat="45.08008" lon="5.97577">
        <ele>1765.1999511719</ele>
        <time>2024-10-15T12:32:54.000Z</time>
      </trkpt>
      <trkpt lat="45.08007" lon="5.97577">
        <ele>1765.1999511719</ele>
        <time>2024-10-15T12:32:55.000Z</time>
      </trkpt>
      <trkpt lat="45.08007" lon="5.97577">
        <ele>1765.1999511719</ele>
        <time>2024-10-15T12:32:56.000Z</time>
      </trkpt>
      <trkpt lat="45.08007" lon="5.97577">
        <ele>1765.1999511719</ele>
        <time>2024-10-15T12:32:57.000Z</time>
      </trkpt>
      <trkpt lat="45.08006" lon="5.97576">
        <ele>1765.1999511719</ele>
        <time>2024-10-15T12:32:58.000Z</time>
      </trkpt>
      <trkpt lat="45.08006" lon="5.97576">
        <ele>1765.1999511719</ele>
        <time>2024-10-15T12:32:59.000Z</time>
      </trkpt>
      <trkpt lat="45.08006" lon="5.97576">
        <ele>1765.1999511719</ele>
        <time>2024-10-15T12:33:00.000Z</time>
      </trkpt>
      <trkpt lat="45.08006" lon="5.97576">
        <ele>1765.1999511719</ele>
        <time>2024-10-15T12:33:01.000Z</time>
      </trkpt>
      <trkpt lat="45.08006" lon="5.97576">
        <ele>1765.1999511719</ele>
        <time>2024-10-15T12:33:02.000Z</time>
      </trkpt>
      <trkpt lat="45.08006" lon="5.97576">
        <ele>1765.4000244141</ele>
        <time>2024-10-15T12:33:03.000Z</time>
      </trkpt>
      <trkpt lat="45.08006" lon="5.97576">
        <ele>1765.4000244141</ele>
        <time>2024-10-15T12:33:04.000Z</time>
      </trkpt>
      <trkpt lat="45.08006" lon="5.97576">
        <ele>1765.4000244141</ele>
        <time>2024-10-15T12:33:05.000Z</time>
      </trkpt>
      <trkpt lat="45.08006" lon="5.97576">
        <ele>1765.4000244141</ele>
        <time>2024-10-15T12:33:06.000Z</time>
      </trkpt>
      <trkpt lat="45.08006" lon="5.97576">
        <ele>1765.1999511719</ele>
        <time>2024-10-15T12:33:07.000Z</time>
      </trkpt>
      <trkpt lat="45.08006" lon="5.97576">
        <ele>1765</ele>
        <time>2024-10-15T12:33:08.000Z</time>
      </trkpt>
      <trkpt lat="45.08006" lon="5.97576">
        <ele>1764.8000488281</ele>
        <time>2024-10-15T12:33:09.000Z</time>
      </trkpt>
      <trkpt lat="45.08006" lon="5.97576">
        <ele>1764.8000488281</ele>
        <time>2024-10-15T12:33:10.000Z</time>
      </trkpt>
      <trkpt lat="45.08006" lon="5.97576">
        <ele>1764.8000488281</ele>
        <time>2024-10-15T12:33:11.000Z</time>
      </trkpt>
      <trkpt lat="45.08006" lon="5.97576">
        <ele>1764.5999755859</ele>
        <time>2024-10-15T12:33:12.000Z</time>
      </trkpt>
      <trkpt lat="45.08006" lon="5.97576">
        <ele>1764.5999755859</ele>
        <time>2024-10-15T12:33:13.000Z</time>
      </trkpt>
      <trkpt lat="45.08006" lon="5.97576">
        <ele>1764.5999755859</ele>
        <time>2024-10-15T12:33:14.000Z</time>
      </trkpt>
      <trkpt lat="45.08006" lon="5.97576">
        <ele>1764.5999755859</ele>
        <time>2024-10-15T12:33:15.000Z</time>
      </trkpt>
      <trkpt lat="45.08006" lon="5.97576">
        <ele>1764.5999755859</ele>
        <time>2024-10-15T12:33:16.000Z</time>
      </trkpt>
      <trkpt lat="45.08006" lon="5.97576">
        <ele>1764.5999755859</ele>
        <time>2024-10-15T12:33:17.000Z</time>
      </trkpt>
      <trkpt lat="45.08006" lon="5.97575">
        <ele>1764.5999755859</ele>
        <time>2024-10-15T12:33:18.000Z</time>
      </trkpt>
      <trkpt lat="45.08006" lon="5.97575">
        <ele>1764.5999755859</ele>
        <time>2024-10-15T12:33:19.000Z</time>
      </trkpt>
      <trkpt lat="45.08005" lon="5.97575">
        <ele>1764.4000244141</ele>
        <time>2024-10-15T12:33:20.000Z</time>
      </trkpt>
      <trkpt lat="45.08005" lon="5.97575">
        <ele>1764.4000244141</ele>
        <time>2024-10-15T12:33:21.000Z</time>
      </trkpt>
      <trkpt lat="45.08005" lon="5.97574">
        <ele>1764.4000244141</ele>
        <time>2024-10-15T12:33:22.000Z</time>
      </trkpt>
      <trkpt lat="45.08005" lon="5.97573">
        <ele>1764.1999511719</ele>
        <time>2024-10-15T12:33:23.000Z</time>
      </trkpt>
      <trkpt lat="45.08005" lon="5.97572">
        <ele>1764</ele>
        <time>2024-10-15T12:33:24.000Z</time>
      </trkpt>
      <trkpt lat="45.08005" lon="5.97571">
        <ele>1764</ele>
        <time>2024-10-15T12:33:25.000Z</time>
      </trkpt>
      <trkpt lat="45.08005" lon="5.97571">
        <ele>1763.5999755859</ele>
        <time>2024-10-15T12:33:26.000Z</time>
      </trkpt>
      <trkpt lat="45.08005" lon="5.97571">
        <ele>1763.4000244141</ele>
        <time>2024-10-15T12:33:27.000Z</time>
      </trkpt>
      <trkpt lat="45.08004" lon="5.97571">
        <ele>1763</ele>
        <time>2024-10-15T12:33:28.000Z</time>
      </trkpt>
      <trkpt lat="45.08004" lon="5.97571">
        <ele>1763</ele>
        <time>2024-10-15T12:33:29.000Z</time>
      </trkpt>
      <trkpt lat="45.08004" lon="5.97571">
        <ele>1763</ele>
        <time>2024-10-15T12:33:30.000Z</time>
      </trkpt>
      <trkpt lat="45.08004" lon="5.97571">
        <ele>1762.8000488281</ele>
        <time>2024-10-15T12:33:31.000Z</time>
      </trkpt>
      <trkpt lat="45.08004" lon="5.97571">
        <ele>1762.5999755859</ele>
        <time>2024-10-15T12:33:32.000Z</time>
      </trkpt>
      <trkpt lat="45.08004" lon="5.97571">
        <ele>1762.4000244141</ele>
        <time>2024-10-15T12:33:33.000Z</time>
      </trkpt>
      <trkpt lat="45.08004" lon="5.97571">
        <ele>1762.1999511719</ele>
        <time>2024-10-15T12:33:34.000Z</time>
      </trkpt>
      <trkpt lat="45.08004" lon="5.97571">
        <ele>1762.1999511719</ele>
        <time>2024-10-15T12:33:35.000Z</time>
      </trkpt>
      <trkpt lat="45.08004" lon="5.97571">
        <ele>1761.8000488281</ele>
        <time>2024-10-15T12:33:36.000Z</time>
      </trkpt>
      <trkpt lat="45.08004" lon="5.97571">
        <ele>1761.8000488281</ele>
        <time>2024-10-15T12:33:37.000Z</time>
      </trkpt>
      <trkpt lat="45.08004" lon="5.97571">
        <ele>1761.4000244141</ele>
        <time>2024-10-15T12:33:38.000Z</time>
      </trkpt>
      <trkpt lat="45.08004" lon="5.97572">
        <ele>1761.1999511719</ele>
        <time>2024-10-15T12:33:39.000Z</time>
      </trkpt>
      <trkpt lat="45.08003" lon="5.97573">
        <ele>1761.1999511719</ele>
        <time>2024-10-15T12:33:40.000Z</time>
      </trkpt>
      <trkpt lat="45.08003" lon="5.97573">
        <ele>1761</ele>
        <time>2024-10-15T12:33:41.000Z</time>
      </trkpt>
      <trkpt lat="45.08003" lon="5.97574">
        <ele>1760.8000488281</ele>
        <time>2024-10-15T12:33:42.000Z</time>
      </trkpt>
      <trkpt lat="45.08003" lon="5.97574">
        <ele>1760.8000488281</ele>
        <time>2024-10-15T12:33:43.000Z</time>
      </trkpt>
      <trkpt lat="45.08002" lon="5.97574">
        <ele>1760.5999755859</ele>
        <time>2024-10-15T12:33:44.000Z</time>
      </trkpt>
      <trkpt lat="45.08002" lon="5.97574">
        <ele>1760.5999755859</ele>
        <time>2024-10-15T12:33:45.000Z</time>
      </trkpt>
      <trkpt lat="45.08002" lon="5.97574">
        <ele>1760.4000244141</ele>
        <time>2024-10-15T12:33:46.000Z</time>
      </trkpt>
      <trkpt lat="45.08002" lon="5.97574">
        <ele>1760.4000244141</ele>
        <time>2024-10-15T12:33:47.000Z</time>
      </trkpt>
      <trkpt lat="45.08002" lon="5.97574">
        <ele>1760.4000244141</ele>
        <time>2024-10-15T12:33:48.000Z</time>
      </trkpt>
      <trkpt lat="45.08001" lon="5.97574">
        <ele>1760.1999511719</ele>
        <time>2024-10-15T12:33:49.000Z</time>
      </trkpt>
      <trkpt lat="45.08001" lon="5.97574">
        <ele>1760</ele>
        <time>2024-10-15T12:33:50.000Z</time>
      </trkpt>
      <trkpt lat="45.08001" lon="5.97574">
        <ele>1759.8000488281</ele>
        <time>2024-10-15T12:33:51.000Z</time>
      </trkpt>
      <trkpt lat="45.08001" lon="5.97574">
        <ele>1759.8000488281</ele>
        <time>2024-10-15T12:33:52.000Z</time>
      </trkpt>
      <trkpt lat="45.08" lon="5.97574">
        <ele>1759.5999755859</ele>
        <time>2024-10-15T12:33:53.000Z</time>
      </trkpt>
      <trkpt lat="45.08" lon="5.97574">
        <ele>1759.4000244141</ele>
        <time>2024-10-15T12:33:54.000Z</time>
      </trkpt>
      <trkpt lat="45.08" lon="5.97574">
        <ele>1759.1999511719</ele>
        <time>2024-10-15T12:33:55.000Z</time>
      </trkpt>
      <trkpt lat="45.08" lon="5.97574">
        <ele>1759.1999511719</ele>
        <time>2024-10-15T12:33:56.000Z</time>
      </trkpt>
      <trkpt lat="45.08" lon="5.97574">
        <ele>1759.1999511719</ele>
        <time>2024-10-15T12:33:57.000Z</time>
      </trkpt>
      <trkpt lat="45.08" lon="5.97574">
        <ele>1759</ele>
        <time>2024-10-15T12:33:58.000Z</time>
      </trkpt>
      <trkpt lat="45.07999" lon="5.97574">
        <ele>1759</ele>
        <time>2024-10-15T12:33:59.000Z</time>
      </trkpt>
      <trkpt lat="45.07999" lon="5.97574">
        <ele>1759</ele>
        <time>2024-10-15T12:34:00.000Z</time>
      </trkpt>
      <trkpt lat="45.07999" lon="5.97574">
        <ele>1759</ele>
        <time>2024-10-15T12:34:01.000Z</time>
      </trkpt>
      <trkpt lat="45.07999" lon="5.97574">
        <ele>1759</ele>
        <time>2024-10-15T12:34:02.000Z</time>
      </trkpt>
      <trkpt lat="45.07999" lon="5.97574">
        <ele>1759.1999511719</ele>
        <time>2024-10-15T12:34:03.000Z</time>
      </trkpt>
      <trkpt lat="45.07999" lon="5.97574">
        <ele>1759.1999511719</ele>
        <time>2024-10-15T12:34:04.000Z</time>
      </trkpt>
      <trkpt lat="45.07999" lon="5.97574">
        <ele>1759.4000244141</ele>
        <time>2024-10-15T12:34:05.000Z</time>
      </trkpt>
      <trkpt lat="45.07999" lon="5.97574">
        <ele>1759.4000244141</ele>
        <time>2024-10-15T12:34:06.000Z</time>
      </trkpt>
      <trkpt lat="45.07999" lon="5.97574">
        <ele>1759.5999755859</ele>
        <time>2024-10-15T12:34:07.000Z</time>
      </trkpt>
      <trkpt lat="45.07999" lon="5.97574">
        <ele>1759.5999755859</ele>
        <time>2024-10-15T12:34:08.000Z</time>
      </trkpt>
      <trkpt lat="45.07999" lon="5.97574">
        <ele>1759.5999755859</ele>
        <time>2024-10-15T12:34:09.000Z</time>
      </trkpt>
      <trkpt lat="45.07998" lon="5.97574">
        <ele>1760</ele>
        <time>2024-10-15T12:34:10.000Z</time>
      </trkpt>
      <trkpt lat="45.07998" lon="5.97574">
        <ele>1760</ele>
        <time>2024-10-15T12:34:11.000Z</time>
      </trkpt>
      <trkpt lat="45.07998" lon="5.97574">
        <ele>1760.4000244141</ele>
        <time>2024-10-15T12:34:12.000Z</time>
      </trkpt>
      <trkpt lat="45.07998" lon="5.97574">
        <ele>1760.5999755859</ele>
        <time>2024-10-15T12:34:13.000Z</time>
      </trkpt>
      <trkpt lat="45.07998" lon="5.97574">
        <ele>1761</ele>
        <time>2024-10-15T12:34:14.000Z</time>
      </trkpt>
      <trkpt lat="45.07998" lon="5.97574">
        <ele>1761</ele>
        <time>2024-10-15T12:34:15.000Z</time>
      </trkpt>
      <trkpt lat="45.07998" lon="5.97574">
        <ele>1761</ele>
        <time>2024-10-15T12:34:16.000Z</time>
      </trkpt>
      <trkpt lat="45.07998" lon="5.97573">
        <ele>1761.1999511719</ele>
        <time>2024-10-15T12:34:17.000Z</time>
      </trkpt>
      <trkpt lat="45.07998" lon="5.97573">
        <ele>1761.1999511719</ele>
        <time>2024-10-15T12:34:18.000Z</time>
      </trkpt>
      <trkpt lat="45.07997" lon="5.97573">
        <ele>1761.4000244141</ele>
        <time>2024-10-15T12:34:19.000Z</time>
      </trkpt>
      <trkpt lat="45.07997" lon="5.97573">
        <ele>1761.4000244141</ele>
        <time>2024-10-15T12:34:20.000Z</time>
      </trkpt>
      <trkpt lat="45.07996" lon="5.97573">
        <ele>1761.5999755859</ele>
        <time>2024-10-15T12:34:21.000Z</time>
      </trkpt>
      <trkpt lat="45.07995" lon="5.97574">
        <ele>1762</ele>
        <time>2024-10-15T12:34:22.000Z</time>
      </trkpt>
      <trkpt lat="45.07994" lon="5.97575">
        <ele>1762.4000244141</ele>
        <time>2024-10-15T12:34:23.000Z</time>
      </trkpt>
      <trkpt lat="45.07993" lon="5.97576">
        <ele>1762.8000488281</ele>
        <time>2024-10-15T12:34:24.000Z</time>
      </trkpt>
      <trkpt lat="45.07992" lon="5.97577">
        <ele>1762.8000488281</ele>
        <time>2024-10-15T12:34:25.000Z</time>
      </trkpt>
      <trkpt lat="45.07991" lon="5.97577">
        <ele>1763</ele>
        <time>2024-10-15T12:34:26.000Z</time>
      </trkpt>
      <trkpt lat="45.07991" lon="5.97577">
        <ele>1763.4000244141</ele>
        <time>2024-10-15T12:34:27.000Z</time>
      </trkpt>
      <trkpt lat="45.0799" lon="5.97577">
        <ele>1763.5999755859</ele>
        <time>2024-10-15T12:34:28.000Z</time>
      </trkpt>
      <trkpt lat="45.07989" lon="5.97577">
        <ele>1763.5999755859</ele>
        <time>2024-10-15T12:34:29.000Z</time>
      </trkpt>
      <trkpt lat="45.07989" lon="5.97577">
        <ele>1763.5999755859</ele>
        <time>2024-10-15T12:34:30.000Z</time>
      </trkpt>
      <trkpt lat="45.07989" lon="5.97578">
        <ele>1763.5999755859</ele>
        <time>2024-10-15T12:34:31.000Z</time>
      </trkpt>
      <trkpt lat="45.07989" lon="5.97578">
        <ele>1763.5999755859</ele>
        <time>2024-10-15T12:34:32.000Z</time>
      </trkpt>
      <trkpt lat="45.07989" lon="5.97578">
        <ele>1763.5999755859</ele>
        <time>2024-10-15T12:34:33.000Z</time>
      </trkpt>
      <trkpt lat="45.07989" lon="5.97578">
        <ele>1763.5999755859</ele>
        <time>2024-10-15T12:34:34.000Z</time>
      </trkpt>
      <trkpt lat="45.07989" lon="5.97578">
        <ele>1763.5999755859</ele>
        <time>2024-10-15T12:34:35.000Z</time>
      </trkpt>
      <trkpt lat="45.07989" lon="5.97578">
        <ele>1763.5999755859</ele>
        <time>2024-10-15T12:34:36.000Z</time>
      </trkpt>
      <trkpt lat="45.07989" lon="5.97578">
        <ele>1763.5999755859</ele>
        <time>2024-10-15T12:34:37.000Z</time>
      </trkpt>
      <trkpt lat="45.07989" lon="5.97578">
        <ele>1763.5999755859</ele>
        <time>2024-10-15T12:34:38.000Z</time>
      </trkpt>
      <trkpt lat="45.07989" lon="5.97579">
        <ele>1763.5999755859</ele>
        <time>2024-10-15T12:34:39.000Z</time>
      </trkpt>
      <trkpt lat="45.07989" lon="5.97579">
        <ele>1763.5999755859</ele>
        <time>2024-10-15T12:34:40.000Z</time>
      </trkpt>
      <trkpt lat="45.07989" lon="5.9758">
        <ele>1763.5999755859</ele>
        <time>2024-10-15T12:34:41.000Z</time>
      </trkpt>
      <trkpt lat="45.07989" lon="5.97581">
        <ele>1763.1999511719</ele>
        <time>2024-10-15T12:34:42.000Z</time>
      </trkpt>
      <trkpt lat="45.07989" lon="5.97581">
        <ele>1763</ele>
        <time>2024-10-15T12:34:43.000Z</time>
      </trkpt>
      <trkpt lat="45.07989" lon="5.97582">
        <ele>1763</ele>
        <time>2024-10-15T12:34:44.000Z</time>
      </trkpt>
      <trkpt lat="45.07989" lon="5.97582">
        <ele>1762.8000488281</ele>
        <time>2024-10-15T12:34:45.000Z</time>
      </trkpt>
      <trkpt lat="45.07989" lon="5.97582">
        <ele>1762.8000488281</ele>
        <time>2024-10-15T12:34:46.000Z</time>
      </trkpt>
      <trkpt lat="45.07989" lon="5.97583">
        <ele>1762.5999755859</ele>
        <time>2024-10-15T12:34:47.000Z</time>
      </trkpt>
      <trkpt lat="45.07989" lon="5.97583">
        <ele>1762.5999755859</ele>
        <time>2024-10-15T12:34:48.000Z</time>
      </trkpt>
      <trkpt lat="45.07988" lon="5.97584">
        <ele>1762.4000244141</ele>
        <time>2024-10-15T12:34:49.000Z</time>
      </trkpt>
      <trkpt lat="45.07987" lon="5.97585">
        <ele>1762.4000244141</ele>
        <time>2024-10-15T12:34:50.000Z</time>
      </trkpt>
      <trkpt lat="45.07986" lon="5.97585">
        <ele>1762</ele>
        <time>2024-10-15T12:34:51.000Z</time>
      </trkpt>
      <trkpt lat="45.07985" lon="5.97586">
        <ele>1761.8000488281</ele>
        <time>2024-10-15T12:34:52.000Z</time>
      </trkpt>
      <trkpt lat="45.07985" lon="5.97587">
        <ele>1761.5999755859</ele>
        <time>2024-10-15T12:34:53.000Z</time>
      </trkpt>
      <trkpt lat="45.07984" lon="5.97588">
        <ele>1761.4000244141</ele>
        <time>2024-10-15T12:34:54.000Z</time>
      </trkpt>
      <trkpt lat="45.07983" lon="5.97588">
        <ele>1760.8000488281</ele>
        <time>2024-10-15T12:34:55.000Z</time>
      </trkpt>
      <trkpt lat="45.07983" lon="5.97589">
        <ele>1760.5999755859</ele>
        <time>2024-10-15T12:34:56.000Z</time>
      </trkpt>
      <trkpt lat="45.07983" lon="5.9759">
        <ele>1760.1999511719</ele>
        <time>2024-10-15T12:34:57.000Z</time>
      </trkpt>
      <trkpt lat="45.07982" lon="5.97591">
        <ele>1760</ele>
        <time>2024-10-15T12:34:58.000Z</time>
      </trkpt>
      <trkpt lat="45.07982" lon="5.97591">
        <ele>1759.5999755859</ele>
        <time>2024-10-15T12:34:59.000Z</time>
      </trkpt>
      <trkpt lat="45.07981" lon="5.97592">
        <ele>1759.4000244141</ele>
        <time>2024-10-15T12:35:00.000Z</time>
      </trkpt>
      <trkpt lat="45.0798" lon="5.97593">
        <ele>1759</ele>
        <time>2024-10-15T12:35:01.000Z</time>
      </trkpt>
      <trkpt lat="45.0798" lon="5.97593">
        <ele>1758.8000488281</ele>
        <time>2024-10-15T12:35:02.000Z</time>
      </trkpt>
      <trkpt lat="45.07979" lon="5.97594">
        <ele>1758.5999755859</ele>
        <time>2024-10-15T12:35:03.000Z</time>
      </trkpt>
      <trkpt lat="45.07979" lon="5.97595">
        <ele>1758.4000244141</ele>
        <time>2024-10-15T12:35:04.000Z</time>
      </trkpt>
      <trkpt lat="45.07979" lon="5.97596">
        <ele>1758.1999511719</ele>
        <time>2024-10-15T12:35:05.000Z</time>
      </trkpt>
      <trkpt lat="45.07978" lon="5.97597">
        <ele>1757.5999755859</ele>
        <time>2024-10-15T12:35:06.000Z</time>
      </trkpt>
      <trkpt lat="45.07977" lon="5.97598">
        <ele>1757.5999755859</ele>
        <time>2024-10-15T12:35:07.000Z</time>
      </trkpt>
      <trkpt lat="45.07977" lon="5.97599">
        <ele>1757.1999511719</ele>
        <time>2024-10-15T12:35:08.000Z</time>
      </trkpt>
      <trkpt lat="45.07977" lon="5.97601">
        <ele>1756.8000488281</ele>
        <time>2024-10-15T12:35:09.000Z</time>
      </trkpt>
      <trkpt lat="45.07976" lon="5.97602">
        <ele>1756.4000244141</ele>
        <time>2024-10-15T12:35:10.000Z</time>
      </trkpt>
      <trkpt lat="45.07976" lon="5.97603">
        <ele>1756</ele>
        <time>2024-10-15T12:35:11.000Z</time>
      </trkpt>
      <trkpt lat="45.07975" lon="5.97605">
        <ele>1755.8000488281</ele>
        <time>2024-10-15T12:35:12.000Z</time>
      </trkpt>
      <trkpt lat="45.07975" lon="5.97606">
        <ele>1755.5999755859</ele>
        <time>2024-10-15T12:35:13.000Z</time>
      </trkpt>
      <trkpt lat="45.07975" lon="5.97607">
        <ele>1755.1999511719</ele>
        <time>2024-10-15T12:35:14.000Z</time>
      </trkpt>
      <trkpt lat="45.07974" lon="5.97609">
        <ele>1755</ele>
        <time>2024-10-15T12:35:15.000Z</time>
      </trkpt>
      <trkpt lat="45.07974" lon="5.9761">
        <ele>1754.5999755859</ele>
        <time>2024-10-15T12:35:16.000Z</time>
      </trkpt>
      <trkpt lat="45.07974" lon="5.97611">
        <ele>1754.4000244141</ele>
        <time>2024-10-15T12:35:17.000Z</time>
      </trkpt>
      <trkpt lat="45.07974" lon="5.97612">
        <ele>1754.1999511719</ele>
        <time>2024-10-15T12:35:18.000Z</time>
      </trkpt>
      <trkpt lat="45.07974" lon="5.97613">
        <ele>1753.8000488281</ele>
        <time>2024-10-15T12:35:19.000Z</time>
      </trkpt>
      <trkpt lat="45.07975" lon="5.97614">
        <ele>1753.5999755859</ele>
        <time>2024-10-15T12:35:20.000Z</time>
      </trkpt>
      <trkpt lat="45.07975" lon="5.97615">
        <ele>1753.1999511719</ele>
        <time>2024-10-15T12:35:21.000Z</time>
      </trkpt>
      <trkpt lat="45.07975" lon="5.97617">
        <ele>1753</ele>
        <time>2024-10-15T12:35:22.000Z</time>
      </trkpt>
      <trkpt lat="45.07975" lon="5.97618">
        <ele>1752.5999755859</ele>
        <time>2024-10-15T12:35:23.000Z</time>
      </trkpt>
      <trkpt lat="45.07975" lon="5.97619">
        <ele>1752.1999511719</ele>
        <time>2024-10-15T12:35:24.000Z</time>
      </trkpt>
      <trkpt lat="45.07975" lon="5.9762">
        <ele>1751.8000488281</ele>
        <time>2024-10-15T12:35:25.000Z</time>
      </trkpt>
      <trkpt lat="45.07975" lon="5.97621">
        <ele>1751.5999755859</ele>
        <time>2024-10-15T12:35:26.000Z</time>
      </trkpt>
      <trkpt lat="45.07975" lon="5.97622">
        <ele>1751.1999511719</ele>
        <time>2024-10-15T12:35:27.000Z</time>
      </trkpt>
      <trkpt lat="45.07975" lon="5.97623">
        <ele>1751</ele>
        <time>2024-10-15T12:35:28.000Z</time>
      </trkpt>
      <trkpt lat="45.07975" lon="5.97624">
        <ele>1751</ele>
        <time>2024-10-15T12:35:29.000Z</time>
      </trkpt>
      <trkpt lat="45.07975" lon="5.97625">
        <ele>1750.5999755859</ele>
        <time>2024-10-15T12:35:30.000Z</time>
      </trkpt>
      <trkpt lat="45.07975" lon="5.97626">
        <ele>1750.1999511719</ele>
        <time>2024-10-15T12:35:31.000Z</time>
      </trkpt>
      <trkpt lat="45.07974" lon="5.97627">
        <ele>1750</ele>
        <time>2024-10-15T12:35:32.000Z</time>
      </trkpt>
      <trkpt lat="45.07973" lon="5.97628">
        <ele>1749.8000488281</ele>
        <time>2024-10-15T12:35:33.000Z</time>
      </trkpt>
      <trkpt lat="45.07972" lon="5.97628">
        <ele>1749.4000244141</ele>
        <time>2024-10-15T12:35:34.000Z</time>
      </trkpt>
      <trkpt lat="45.07971" lon="5.97628">
        <ele>1748.8000488281</ele>
        <time>2024-10-15T12:35:35.000Z</time>
      </trkpt>
      <trkpt lat="45.0797" lon="5.97629">
        <ele>1748.4000244141</ele>
        <time>2024-10-15T12:35:36.000Z</time>
      </trkpt>
      <trkpt lat="45.07969" lon="5.97629">
        <ele>1748.1999511719</ele>
        <time>2024-10-15T12:35:37.000Z</time>
      </trkpt>
      <trkpt lat="45.07969" lon="5.97629">
        <ele>1748</ele>
        <time>2024-10-15T12:35:38.000Z</time>
      </trkpt>
      <trkpt lat="45.07968" lon="5.9763">
        <ele>1747.8000488281</ele>
        <time>2024-10-15T12:35:39.000Z</time>
      </trkpt>
      <trkpt lat="45.07967" lon="5.97631">
        <ele>1747.4000244141</ele>
        <time>2024-10-15T12:35:40.000Z</time>
      </trkpt>
      <trkpt lat="45.07966" lon="5.97631">
        <ele>1747</ele>
        <time>2024-10-15T12:35:41.000Z</time>
      </trkpt>
      <trkpt lat="45.07965" lon="5.97632">
        <ele>1746.5999755859</ele>
        <time>2024-10-15T12:35:42.000Z</time>
      </trkpt>
      <trkpt lat="45.07965" lon="5.97633">
        <ele>1746.1999511719</ele>
        <time>2024-10-15T12:35:43.000Z</time>
      </trkpt>
      <trkpt lat="45.07964" lon="5.97634">
        <ele>1745.8000488281</ele>
        <time>2024-10-15T12:35:44.000Z</time>
      </trkpt>
      <trkpt lat="45.07963" lon="5.97635">
        <ele>1745.5999755859</ele>
        <time>2024-10-15T12:35:45.000Z</time>
      </trkpt>
      <trkpt lat="45.07962" lon="5.97636">
        <ele>1745.4000244141</ele>
        <time>2024-10-15T12:35:46.000Z</time>
      </trkpt>
      <trkpt lat="45.07962" lon="5.97636">
        <ele>1745</ele>
        <time>2024-10-15T12:35:47.000Z</time>
      </trkpt>
      <trkpt lat="45.07962" lon="5.97637">
        <ele>1744.8000488281</ele>
        <time>2024-10-15T12:35:48.000Z</time>
      </trkpt>
      <trkpt lat="45.07961" lon="5.97638">
        <ele>1744.5999755859</ele>
        <time>2024-10-15T12:35:49.000Z</time>
      </trkpt>
      <trkpt lat="45.07961" lon="5.97639">
        <ele>1744.4000244141</ele>
        <time>2024-10-15T12:35:50.000Z</time>
      </trkpt>
      <trkpt lat="45.07961" lon="5.9764">
        <ele>1744</ele>
        <time>2024-10-15T12:35:51.000Z</time>
      </trkpt>
      <trkpt lat="45.07961" lon="5.97641">
        <ele>1743.8000488281</ele>
        <time>2024-10-15T12:35:52.000Z</time>
      </trkpt>
      <trkpt lat="45.0796" lon="5.97642">
        <ele>1743.1999511719</ele>
        <time>2024-10-15T12:35:53.000Z</time>
      </trkpt>
      <trkpt lat="45.0796" lon="5.97643">
        <ele>1742.8000488281</ele>
        <time>2024-10-15T12:35:54.000Z</time>
      </trkpt>
      <trkpt lat="45.0796" lon="5.97644">
        <ele>1742.4000244141</ele>
        <time>2024-10-15T12:35:55.000Z</time>
      </trkpt>
      <trkpt lat="45.0796" lon="5.97645">
        <ele>1742</ele>
        <time>2024-10-15T12:35:56.000Z</time>
      </trkpt>
      <trkpt lat="45.0796" lon="5.97646">
        <ele>1741.5999755859</ele>
        <time>2024-10-15T12:35:57.000Z</time>
      </trkpt>
      <trkpt lat="45.0796" lon="5.97647">
        <ele>1741.1999511719</ele>
        <time>2024-10-15T12:35:58.000Z</time>
      </trkpt>
      <trkpt lat="45.07959" lon="5.97648">
        <ele>1740.8000488281</ele>
        <time>2024-10-15T12:35:59.000Z</time>
      </trkpt>
      <trkpt lat="45.07959" lon="5.97649">
        <ele>1740.4000244141</ele>
        <time>2024-10-15T12:36:00.000Z</time>
      </trkpt>
      <trkpt lat="45.07958" lon="5.97651">
        <ele>1740</ele>
        <time>2024-10-15T12:36:01.000Z</time>
      </trkpt>
      <trkpt lat="45.07958" lon="5.97652">
        <ele>1739.8000488281</ele>
        <time>2024-10-15T12:36:02.000Z</time>
      </trkpt>
      <trkpt lat="45.07958" lon="5.97653">
        <ele>1739.4000244141</ele>
        <time>2024-10-15T12:36:03.000Z</time>
      </trkpt>
      <trkpt lat="45.07958" lon="5.97654">
        <ele>1739</ele>
        <time>2024-10-15T12:36:04.000Z</time>
      </trkpt>
      <trkpt lat="45.07958" lon="5.97655">
        <ele>1738.5999755859</ele>
        <time>2024-10-15T12:36:05.000Z</time>
      </trkpt>
      <trkpt lat="45.07957" lon="5.97656">
        <ele>1738.1999511719</ele>
        <time>2024-10-15T12:36:06.000Z</time>
      </trkpt>
      <trkpt lat="45.07957" lon="5.97658">
        <ele>1738</ele>
        <time>2024-10-15T12:36:07.000Z</time>
      </trkpt>
      <trkpt lat="45.07957" lon="5.97659">
        <ele>1737.5999755859</ele>
        <time>2024-10-15T12:36:08.000Z</time>
      </trkpt>
      <trkpt lat="45.07957" lon="5.9766">
        <ele>1737.1999511719</ele>
        <time>2024-10-15T12:36:09.000Z</time>
      </trkpt>
      <trkpt lat="45.07957" lon="5.97661">
        <ele>1736.8000488281</ele>
        <time>2024-10-15T12:36:10.000Z</time>
      </trkpt>
      <trkpt lat="45.07957" lon="5.97662">
        <ele>1736.5999755859</ele>
        <time>2024-10-15T12:36:11.000Z</time>
      </trkpt>
      <trkpt lat="45.07956" lon="5.97664">
        <ele>1736</ele>
        <time>2024-10-15T12:36:12.000Z</time>
      </trkpt>
      <trkpt lat="45.07956" lon="5.97665">
        <ele>1735.5999755859</ele>
        <time>2024-10-15T12:36:13.000Z</time>
      </trkpt>
      <trkpt lat="45.07956" lon="5.97666">
        <ele>1735.4000244141</ele>
        <time>2024-10-15T12:36:14.000Z</time>
      </trkpt>
      <trkpt lat="45.07956" lon="5.97667">
        <ele>1735.1999511719</ele>
        <time>2024-10-15T12:36:15.000Z</time>
      </trkpt>
      <trkpt lat="45.07955" lon="5.97668">
        <ele>1735</ele>
        <time>2024-10-15T12:36:16.000Z</time>
      </trkpt>
      <trkpt lat="45.07955" lon="5.97669">
        <ele>1734.8000488281</ele>
        <time>2024-10-15T12:36:17.000Z</time>
      </trkpt>
      <trkpt lat="45.07955" lon="5.9767">
        <ele>1734.4000244141</ele>
        <time>2024-10-15T12:36:18.000Z</time>
      </trkpt>
      <trkpt lat="45.07954" lon="5.97671">
        <ele>1734.1999511719</ele>
        <time>2024-10-15T12:36:19.000Z</time>
      </trkpt>
      <trkpt lat="45.07954" lon="5.97673">
        <ele>1734</ele>
        <time>2024-10-15T12:36:20.000Z</time>
      </trkpt>
      <trkpt lat="45.07953" lon="5.97673">
        <ele>1733.8000488281</ele>
        <time>2024-10-15T12:36:21.000Z</time>
      </trkpt>
      <trkpt lat="45.07953" lon="5.97675">
        <ele>1733.4000244141</ele>
        <time>2024-10-15T12:36:22.000Z</time>
      </trkpt>
      <trkpt lat="45.07953" lon="5.97676">
        <ele>1733</ele>
        <time>2024-10-15T12:36:23.000Z</time>
      </trkpt>
      <trkpt lat="45.07953" lon="5.97678">
        <ele>1732.8000488281</ele>
        <time>2024-10-15T12:36:24.000Z</time>
      </trkpt>
      <trkpt lat="45.07953" lon="5.97679">
        <ele>1732.4000244141</ele>
        <time>2024-10-15T12:36:25.000Z</time>
      </trkpt>
      <trkpt lat="45.07953" lon="5.9768">
        <ele>1732.1999511719</ele>
        <time>2024-10-15T12:36:26.000Z</time>
      </trkpt>
      <trkpt lat="45.07953" lon="5.97681">
        <ele>1731.5999755859</ele>
        <time>2024-10-15T12:36:27.000Z</time>
      </trkpt>
      <trkpt lat="45.07953" lon="5.97682">
        <ele>1731.1999511719</ele>
        <time>2024-10-15T12:36:28.000Z</time>
      </trkpt>
      <trkpt lat="45.07953" lon="5.97683">
        <ele>1730.8000488281</ele>
        <time>2024-10-15T12:36:29.000Z</time>
      </trkpt>
      <trkpt lat="45.07952" lon="5.97685">
        <ele>1730.5999755859</ele>
        <time>2024-10-15T12:36:30.000Z</time>
      </trkpt>
      <trkpt lat="45.07952" lon="5.97687">
        <ele>1730.1999511719</ele>
        <time>2024-10-15T12:36:31.000Z</time>
      </trkpt>
      <trkpt lat="45.07951" lon="5.97688">
        <ele>1730.1999511719</ele>
        <time>2024-10-15T12:36:32.000Z</time>
      </trkpt>
      <trkpt lat="45.0795" lon="5.97689">
        <ele>1729.8000488281</ele>
        <time>2024-10-15T12:36:33.000Z</time>
      </trkpt>
      <trkpt lat="45.0795" lon="5.9769">
        <ele>1729.5999755859</ele>
        <time>2024-10-15T12:36:34.000Z</time>
      </trkpt>
      <trkpt lat="45.07949" lon="5.97691">
        <ele>1729.5999755859</ele>
        <time>2024-10-15T12:36:35.000Z</time>
      </trkpt>
      <trkpt lat="45.07949" lon="5.97691">
        <ele>1729.1999511719</ele>
        <time>2024-10-15T12:36:36.000Z</time>
      </trkpt>
      <trkpt lat="45.07948" lon="5.97692">
        <ele>1728.5999755859</ele>
        <time>2024-10-15T12:36:37.000Z</time>
      </trkpt>
      <trkpt lat="45.07949" lon="5.97693">
        <ele>1728.4000244141</ele>
        <time>2024-10-15T12:36:38.000Z</time>
      </trkpt>
      <trkpt lat="45.07949" lon="5.97694">
        <ele>1727.8000488281</ele>
        <time>2024-10-15T12:36:39.000Z</time>
      </trkpt>
      <trkpt lat="45.07949" lon="5.97695">
        <ele>1727.4000244141</ele>
        <time>2024-10-15T12:36:40.000Z</time>
      </trkpt>
      <trkpt lat="45.07949" lon="5.97695">
        <ele>1727.1999511719</ele>
        <time>2024-10-15T12:36:41.000Z</time>
      </trkpt>
      <trkpt lat="45.07949" lon="5.97696">
        <ele>1726.8000488281</ele>
        <time>2024-10-15T12:36:42.000Z</time>
      </trkpt>
      <trkpt lat="45.07949" lon="5.97697">
        <ele>1726.8000488281</ele>
        <time>2024-10-15T12:36:43.000Z</time>
      </trkpt>
      <trkpt lat="45.07949" lon="5.97698">
        <ele>1726.5999755859</ele>
        <time>2024-10-15T12:36:44.000Z</time>
      </trkpt>
      <trkpt lat="45.07949" lon="5.97699">
        <ele>1726.4000244141</ele>
        <time>2024-10-15T12:36:45.000Z</time>
      </trkpt>
      <trkpt lat="45.07948" lon="5.97701">
        <ele>1726.1999511719</ele>
        <time>2024-10-15T12:36:46.000Z</time>
      </trkpt>
      <trkpt lat="45.07948" lon="5.97702">
        <ele>1725.8000488281</ele>
        <time>2024-10-15T12:36:47.000Z</time>
      </trkpt>
      <trkpt lat="45.07947" lon="5.97703">
        <ele>1725.5999755859</ele>
        <time>2024-10-15T12:36:48.000Z</time>
      </trkpt>
      <trkpt lat="45.07946" lon="5.97704">
        <ele>1725</ele>
        <time>2024-10-15T12:36:49.000Z</time>
      </trkpt>
      <trkpt lat="45.07945" lon="5.97704">
        <ele>1724.8000488281</ele>
        <time>2024-10-15T12:36:50.000Z</time>
      </trkpt>
      <trkpt lat="45.07944" lon="5.97705">
        <ele>1724.4000244141</ele>
        <time>2024-10-15T12:36:51.000Z</time>
      </trkpt>
      <trkpt lat="45.07943" lon="5.97706">
        <ele>1724.1999511719</ele>
        <time>2024-10-15T12:36:52.000Z</time>
      </trkpt>
      <trkpt lat="45.07942" lon="5.97707">
        <ele>1723.8000488281</ele>
        <time>2024-10-15T12:36:53.000Z</time>
      </trkpt>
      <trkpt lat="45.07941" lon="5.97708">
        <ele>1723.4000244141</ele>
        <time>2024-10-15T12:36:54.000Z</time>
      </trkpt>
      <trkpt lat="45.0794" lon="5.97709">
        <ele>1723</ele>
        <time>2024-10-15T12:36:55.000Z</time>
      </trkpt>
      <trkpt lat="45.0794" lon="5.9771">
        <ele>1722.5999755859</ele>
        <time>2024-10-15T12:36:56.000Z</time>
      </trkpt>
      <trkpt lat="45.07939" lon="5.97711">
        <ele>1722.1999511719</ele>
        <time>2024-10-15T12:36:57.000Z</time>
      </trkpt>
      <trkpt lat="45.07938" lon="5.97712">
        <ele>1721.4000244141</ele>
        <time>2024-10-15T12:36:58.000Z</time>
      </trkpt>
      <trkpt lat="45.07938" lon="5.97713">
        <ele>1721</ele>
        <time>2024-10-15T12:36:59.000Z</time>
      </trkpt>
      <trkpt lat="45.07937" lon="5.97714">
        <ele>1720.8000488281</ele>
        <time>2024-10-15T12:37:00.000Z</time>
      </trkpt>
      <trkpt lat="45.07936" lon="5.97714">
        <ele>1720.4000244141</ele>
        <time>2024-10-15T12:37:01.000Z</time>
      </trkpt>
      <trkpt lat="45.07935" lon="5.97715">
        <ele>1720</ele>
        <time>2024-10-15T12:37:02.000Z</time>
      </trkpt>
      <trkpt lat="45.07935" lon="5.97716">
        <ele>1719.8000488281</ele>
        <time>2024-10-15T12:37:03.000Z</time>
      </trkpt>
      <trkpt lat="45.07934" lon="5.97717">
        <ele>1719.4000244141</ele>
        <time>2024-10-15T12:37:04.000Z</time>
      </trkpt>
      <trkpt lat="45.07934" lon="5.97718">
        <ele>1719.1999511719</ele>
        <time>2024-10-15T12:37:05.000Z</time>
      </trkpt>
      <trkpt lat="45.07934" lon="5.97719">
        <ele>1718.8000488281</ele>
        <time>2024-10-15T12:37:06.000Z</time>
      </trkpt>
      <trkpt lat="45.07934" lon="5.9772">
        <ele>1718.4000244141</ele>
        <time>2024-10-15T12:37:07.000Z</time>
      </trkpt>
      <trkpt lat="45.07935" lon="5.97721">
        <ele>1718</ele>
        <time>2024-10-15T12:37:08.000Z</time>
      </trkpt>
      <trkpt lat="45.07935" lon="5.97722">
        <ele>1717.5999755859</ele>
        <time>2024-10-15T12:37:09.000Z</time>
      </trkpt>
      <trkpt lat="45.07936" lon="5.97723">
        <ele>1717</ele>
        <time>2024-10-15T12:37:10.000Z</time>
      </trkpt>
      <trkpt lat="45.07936" lon="5.97724">
        <ele>1716.5999755859</ele>
        <time>2024-10-15T12:37:11.000Z</time>
      </trkpt>
      <trkpt lat="45.07936" lon="5.97725">
        <ele>1716</ele>
        <time>2024-10-15T12:37:12.000Z</time>
      </trkpt>
      <trkpt lat="45.07937" lon="5.97726">
        <ele>1715.5999755859</ele>
        <time>2024-10-15T12:37:13.000Z</time>
      </trkpt>
      <trkpt lat="45.07938" lon="5.97727">
        <ele>1715.1999511719</ele>
        <time>2024-10-15T12:37:14.000Z</time>
      </trkpt>
      <trkpt lat="45.07939" lon="5.97728">
        <ele>1715</ele>
        <time>2024-10-15T12:37:15.000Z</time>
      </trkpt>
      <trkpt lat="45.07939" lon="5.97729">
        <ele>1714.8000488281</ele>
        <time>2024-10-15T12:37:16.000Z</time>
      </trkpt>
      <trkpt lat="45.07939" lon="5.9773">
        <ele>1714.5999755859</ele>
        <time>2024-10-15T12:37:17.000Z</time>
      </trkpt>
      <trkpt lat="45.07939" lon="5.97731">
        <ele>1714.1999511719</ele>
        <time>2024-10-15T12:37:18.000Z</time>
      </trkpt>
      <trkpt lat="45.0794" lon="5.97732">
        <ele>1714</ele>
        <time>2024-10-15T12:37:19.000Z</time>
      </trkpt>
      <trkpt lat="45.07941" lon="5.97733">
        <ele>1713.5999755859</ele>
        <time>2024-10-15T12:37:20.000Z</time>
      </trkpt>
      <trkpt lat="45.07942" lon="5.97734">
        <ele>1713.4000244141</ele>
        <time>2024-10-15T12:37:21.000Z</time>
      </trkpt>
      <trkpt lat="45.07943" lon="5.97735">
        <ele>1713.1999511719</ele>
        <time>2024-10-15T12:37:22.000Z</time>
      </trkpt>
      <trkpt lat="45.07944" lon="5.97735">
        <ele>1712.8000488281</ele>
        <time>2024-10-15T12:37:23.000Z</time>
      </trkpt>
      <trkpt lat="45.07944" lon="5.97736">
        <ele>1712.4000244141</ele>
        <time>2024-10-15T12:37:24.000Z</time>
      </trkpt>
      <trkpt lat="45.07945" lon="5.97736">
        <ele>1712</ele>
        <time>2024-10-15T12:37:25.000Z</time>
      </trkpt>
      <trkpt lat="45.07945" lon="5.97737">
        <ele>1711.4000244141</ele>
        <time>2024-10-15T12:37:26.000Z</time>
      </trkpt>
      <trkpt lat="45.07946" lon="5.97737">
        <ele>1711.1999511719</ele>
        <time>2024-10-15T12:37:27.000Z</time>
      </trkpt>
      <trkpt lat="45.07947" lon="5.97738">
        <ele>1710.8000488281</ele>
        <time>2024-10-15T12:37:28.000Z</time>
      </trkpt>
      <trkpt lat="45.07947" lon="5.97738">
        <ele>1710.5999755859</ele>
        <time>2024-10-15T12:37:29.000Z</time>
      </trkpt>
      <trkpt lat="45.07948" lon="5.97738">
        <ele>1710.1999511719</ele>
        <time>2024-10-15T12:37:30.000Z</time>
      </trkpt>
      <trkpt lat="45.07949" lon="5.97738">
        <ele>1710</ele>
        <time>2024-10-15T12:37:31.000Z</time>
      </trkpt>
      <trkpt lat="45.0795" lon="5.97739">
        <ele>1709.5999755859</ele>
        <time>2024-10-15T12:37:32.000Z</time>
      </trkpt>
      <trkpt lat="45.07951" lon="5.97739">
        <ele>1709.1999511719</ele>
        <time>2024-10-15T12:37:33.000Z</time>
      </trkpt>
      <trkpt lat="45.07952" lon="5.97739">
        <ele>1708.8000488281</ele>
        <time>2024-10-15T12:37:34.000Z</time>
      </trkpt>
      <trkpt lat="45.07952" lon="5.9774">
        <ele>1708.5999755859</ele>
        <time>2024-10-15T12:37:35.000Z</time>
      </trkpt>
      <trkpt lat="45.07953" lon="5.97741">
        <ele>1708.1999511719</ele>
        <time>2024-10-15T12:37:36.000Z</time>
      </trkpt>
      <trkpt lat="45.07954" lon="5.97741">
        <ele>1707.8000488281</ele>
        <time>2024-10-15T12:37:37.000Z</time>
      </trkpt>
      <trkpt lat="45.07955" lon="5.97742">
        <ele>1707.1999511719</ele>
        <time>2024-10-15T12:37:38.000Z</time>
      </trkpt>
      <trkpt lat="45.07955" lon="5.97743">
        <ele>1706.8000488281</ele>
        <time>2024-10-15T12:37:39.000Z</time>
      </trkpt>
      <trkpt lat="45.07956" lon="5.97743">
        <ele>1706.4000244141</ele>
        <time>2024-10-15T12:37:40.000Z</time>
      </trkpt>
      <trkpt lat="45.07957" lon="5.97744">
        <ele>1706</ele>
        <time>2024-10-15T12:37:41.000Z</time>
      </trkpt>
      <trkpt lat="45.07958" lon="5.97745">
        <ele>1705.4000244141</ele>
        <time>2024-10-15T12:37:42.000Z</time>
      </trkpt>
      <trkpt lat="45.07958" lon="5.97745">
        <ele>1705.1999511719</ele>
        <time>2024-10-15T12:37:43.000Z</time>
      </trkpt>
      <trkpt lat="45.07959" lon="5.97746">
        <ele>1704.5999755859</ele>
        <time>2024-10-15T12:37:44.000Z</time>
      </trkpt>
      <trkpt lat="45.0796" lon="5.97746">
        <ele>1704.4000244141</ele>
        <time>2024-10-15T12:37:45.000Z</time>
      </trkpt>
      <trkpt lat="45.0796" lon="5.97747">
        <ele>1704</ele>
        <time>2024-10-15T12:37:46.000Z</time>
      </trkpt>
      <trkpt lat="45.07961" lon="5.97747">
        <ele>1703.5999755859</ele>
        <time>2024-10-15T12:37:47.000Z</time>
      </trkpt>
      <trkpt lat="45.07961" lon="5.97748">
        <ele>1703.1999511719</ele>
        <time>2024-10-15T12:37:48.000Z</time>
      </trkpt>
      <trkpt lat="45.07962" lon="5.97748">
        <ele>1702.8000488281</ele>
        <time>2024-10-15T12:37:49.000Z</time>
      </trkpt>
      <trkpt lat="45.07962" lon="5.97748">
        <ele>1702.4000244141</ele>
        <time>2024-10-15T12:37:50.000Z</time>
      </trkpt>
      <trkpt lat="45.07963" lon="5.97749">
        <ele>1702</ele>
        <time>2024-10-15T12:37:51.000Z</time>
      </trkpt>
      <trkpt lat="45.07963" lon="5.97749">
        <ele>1701.5999755859</ele>
        <time>2024-10-15T12:37:52.000Z</time>
      </trkpt>
      <trkpt lat="45.07964" lon="5.97749">
        <ele>1701.4000244141</ele>
        <time>2024-10-15T12:37:53.000Z</time>
      </trkpt>
      <trkpt lat="45.07965" lon="5.9775">
        <ele>1701.1999511719</ele>
        <time>2024-10-15T12:37:54.000Z</time>
      </trkpt>
      <trkpt lat="45.07966" lon="5.9775">
        <ele>1700.8000488281</ele>
        <time>2024-10-15T12:37:55.000Z</time>
      </trkpt>
      <trkpt lat="45.07966" lon="5.9775">
        <ele>1700.4000244141</ele>
        <time>2024-10-15T12:37:56.000Z</time>
      </trkpt>
      <trkpt lat="45.07967" lon="5.9775">
        <ele>1700.1999511719</ele>
        <time>2024-10-15T12:37:57.000Z</time>
      </trkpt>
      <trkpt lat="45.07967" lon="5.9775">
        <ele>1699.5999755859</ele>
        <time>2024-10-15T12:37:58.000Z</time>
      </trkpt>
      <trkpt lat="45.07968" lon="5.97751">
        <ele>1699.5999755859</ele>
        <time>2024-10-15T12:37:59.000Z</time>
      </trkpt>
      <trkpt lat="45.07969" lon="5.97752">
        <ele>1699.4000244141</ele>
        <time>2024-10-15T12:38:00.000Z</time>
      </trkpt>
      <trkpt lat="45.07969" lon="5.97752">
        <ele>1698.8000488281</ele>
        <time>2024-10-15T12:38:01.000Z</time>
      </trkpt>
      <trkpt lat="45.0797" lon="5.97753">
        <ele>1698.5999755859</ele>
        <time>2024-10-15T12:38:02.000Z</time>
      </trkpt>
      <trkpt lat="45.07971" lon="5.97753">
        <ele>1698.1999511719</ele>
        <time>2024-10-15T12:38:03.000Z</time>
      </trkpt>
      <trkpt lat="45.07971" lon="5.97753">
        <ele>1698.1999511719</ele>
        <time>2024-10-15T12:38:04.000Z</time>
      </trkpt>
      <trkpt lat="45.07972" lon="5.97753">
        <ele>1697.8000488281</ele>
        <time>2024-10-15T12:38:05.000Z</time>
      </trkpt>
      <trkpt lat="45.07973" lon="5.97753">
        <ele>1697.4000244141</ele>
        <time>2024-10-15T12:38:06.000Z</time>
      </trkpt>
      <trkpt lat="45.07974" lon="5.97754">
        <ele>1697</ele>
        <time>2024-10-15T12:38:07.000Z</time>
      </trkpt>
      <trkpt lat="45.07974" lon="5.97754">
        <ele>1696.8000488281</ele>
        <time>2024-10-15T12:38:08.000Z</time>
      </trkpt>
      <trkpt lat="45.07975" lon="5.97755">
        <ele>1696.4000244141</ele>
        <time>2024-10-15T12:38:09.000Z</time>
      </trkpt>
      <trkpt lat="45.07976" lon="5.97755">
        <ele>1696</ele>
        <time>2024-10-15T12:38:10.000Z</time>
      </trkpt>
      <trkpt lat="45.07976" lon="5.97756">
        <ele>1695.8000488281</ele>
        <time>2024-10-15T12:38:11.000Z</time>
      </trkpt>
      <trkpt lat="45.07977" lon="5.97757">
        <ele>1695.4000244141</ele>
        <time>2024-10-15T12:38:12.000Z</time>
      </trkpt>
      <trkpt lat="45.07977" lon="5.97758">
        <ele>1695.1999511719</ele>
        <time>2024-10-15T12:38:13.000Z</time>
      </trkpt>
      <trkpt lat="45.07978" lon="5.97759">
        <ele>1695</ele>
        <time>2024-10-15T12:38:14.000Z</time>
      </trkpt>
      <trkpt lat="45.07978" lon="5.9776">
        <ele>1694.5999755859</ele>
        <time>2024-10-15T12:38:15.000Z</time>
      </trkpt>
      <trkpt lat="45.07979" lon="5.97761">
        <ele>1694</ele>
        <time>2024-10-15T12:38:16.000Z</time>
      </trkpt>
      <trkpt lat="45.07979" lon="5.97762">
        <ele>1693.5999755859</ele>
        <time>2024-10-15T12:38:17.000Z</time>
      </trkpt>
      <trkpt lat="45.07979" lon="5.97763">
        <ele>1693.1999511719</ele>
        <time>2024-10-15T12:38:18.000Z</time>
      </trkpt>
      <trkpt lat="45.07979" lon="5.97764">
        <ele>1692.8000488281</ele>
        <time>2024-10-15T12:38:19.000Z</time>
      </trkpt>
      <trkpt lat="45.07979" lon="5.97765">
        <ele>1692.4000244141</ele>
        <time>2024-10-15T12:38:20.000Z</time>
      </trkpt>
      <trkpt lat="45.07979" lon="5.97766">
        <ele>1692.1999511719</ele>
        <time>2024-10-15T12:38:21.000Z</time>
      </trkpt>
      <trkpt lat="45.07979" lon="5.97767">
        <ele>1692</ele>
        <time>2024-10-15T12:38:22.000Z</time>
      </trkpt>
      <trkpt lat="45.07978" lon="5.97768">
        <ele>1691.5999755859</ele>
        <time>2024-10-15T12:38:23.000Z</time>
      </trkpt>
      <trkpt lat="45.07978" lon="5.97769">
        <ele>1691</ele>
        <time>2024-10-15T12:38:24.000Z</time>
      </trkpt>
      <trkpt lat="45.07978" lon="5.9777">
        <ele>1690.8000488281</ele>
        <time>2024-10-15T12:38:25.000Z</time>
      </trkpt>
      <trkpt lat="45.07978" lon="5.97771">
        <ele>1690.5999755859</ele>
        <time>2024-10-15T12:38:26.000Z</time>
      </trkpt>
      <trkpt lat="45.07977" lon="5.97771">
        <ele>1690.1999511719</ele>
        <time>2024-10-15T12:38:27.000Z</time>
      </trkpt>
      <trkpt lat="45.07977" lon="5.97771">
        <ele>1690.1999511719</ele>
        <time>2024-10-15T12:38:28.000Z</time>
      </trkpt>
      <trkpt lat="45.07977" lon="5.97772">
        <ele>1690</ele>
        <time>2024-10-15T12:38:29.000Z</time>
      </trkpt>
      <trkpt lat="45.07978" lon="5.97772">
        <ele>1690</ele>
        <time>2024-10-15T12:38:30.000Z</time>
      </trkpt>
      <trkpt lat="45.07978" lon="5.97772">
        <ele>1689.8000488281</ele>
        <time>2024-10-15T12:38:31.000Z</time>
      </trkpt>
      <trkpt lat="45.07978" lon="5.97772">
        <ele>1689.8000488281</ele>
        <time>2024-10-15T12:38:32.000Z</time>
      </trkpt>
      <trkpt lat="45.07978" lon="5.97773">
        <ele>1689.5999755859</ele>
        <time>2024-10-15T12:38:33.000Z</time>
      </trkpt>
      <trkpt lat="45.07978" lon="5.97773">
        <ele>1689.5999755859</ele>
        <time>2024-10-15T12:38:34.000Z</time>
      </trkpt>
      <trkpt lat="45.07978" lon="5.97773">
        <ele>1689.5999755859</ele>
        <time>2024-10-15T12:38:35.000Z</time>
      </trkpt>
      <trkpt lat="45.07978" lon="5.97774">
        <ele>1689.5999755859</ele>
        <time>2024-10-15T12:38:36.000Z</time>
      </trkpt>
      <trkpt lat="45.07978" lon="5.97775">
        <ele>1689.5999755859</ele>
        <time>2024-10-15T12:38:37.000Z</time>
      </trkpt>
      <trkpt lat="45.07978" lon="5.97776">
        <ele>1689.4000244141</ele>
        <time>2024-10-15T12:38:38.000Z</time>
      </trkpt>
      <trkpt lat="45.07978" lon="5.97778">
        <ele>1689</ele>
        <time>2024-10-15T12:38:39.000Z</time>
      </trkpt>
      <trkpt lat="45.07979" lon="5.97779">
        <ele>1689</ele>
        <time>2024-10-15T12:38:40.000Z</time>
      </trkpt>
      <trkpt lat="45.07979" lon="5.9778">
        <ele>1688.5999755859</ele>
        <time>2024-10-15T12:38:41.000Z</time>
      </trkpt>
      <trkpt lat="45.07979" lon="5.97782">
        <ele>1688.4000244141</ele>
        <time>2024-10-15T12:38:42.000Z</time>
      </trkpt>
      <trkpt lat="45.0798" lon="5.97783">
        <ele>1688</ele>
        <time>2024-10-15T12:38:43.000Z</time>
      </trkpt>
      <trkpt lat="45.0798" lon="5.97785">
        <ele>1687.8000488281</ele>
        <time>2024-10-15T12:38:44.000Z</time>
      </trkpt>
      <trkpt lat="45.0798" lon="5.97786">
        <ele>1687.1999511719</ele>
        <time>2024-10-15T12:38:45.000Z</time>
      </trkpt>
      <trkpt lat="45.07981" lon="5.97787">
        <ele>1687</ele>
        <time>2024-10-15T12:38:46.000Z</time>
      </trkpt>
      <trkpt lat="45.07981" lon="5.97788">
        <ele>1686.8000488281</ele>
        <time>2024-10-15T12:38:47.000Z</time>
      </trkpt>
      <trkpt lat="45.07982" lon="5.97789">
        <ele>1686.5999755859</ele>
        <time>2024-10-15T12:38:48.000Z</time>
      </trkpt>
      <trkpt lat="45.07982" lon="5.97789">
        <ele>1686.1999511719</ele>
        <time>2024-10-15T12:38:49.000Z</time>
      </trkpt>
      <trkpt lat="45.07983" lon="5.9779">
        <ele>1686</ele>
        <time>2024-10-15T12:38:50.000Z</time>
      </trkpt>
      <trkpt lat="45.07984" lon="5.97792">
        <ele>1685.5999755859</ele>
        <time>2024-10-15T12:38:51.000Z</time>
      </trkpt>
      <trkpt lat="45.07985" lon="5.97793">
        <ele>1685.4000244141</ele>
        <time>2024-10-15T12:38:52.000Z</time>
      </trkpt>
      <trkpt lat="45.07986" lon="5.97794">
        <ele>1685</ele>
        <time>2024-10-15T12:38:53.000Z</time>
      </trkpt>
      <trkpt lat="45.07986" lon="5.97795">
        <ele>1684.5999755859</ele>
        <time>2024-10-15T12:38:54.000Z</time>
      </trkpt>
      <trkpt lat="45.07986" lon="5.97797">
        <ele>1684</ele>
        <time>2024-10-15T12:38:55.000Z</time>
      </trkpt>
      <trkpt lat="45.07987" lon="5.97798">
        <ele>1683.8000488281</ele>
        <time>2024-10-15T12:38:56.000Z</time>
      </trkpt>
      <trkpt lat="45.07987" lon="5.97799">
        <ele>1683.4000244141</ele>
        <time>2024-10-15T12:38:57.000Z</time>
      </trkpt>
      <trkpt lat="45.07987" lon="5.978">
        <ele>1683</ele>
        <time>2024-10-15T12:38:58.000Z</time>
      </trkpt>
      <trkpt lat="45.07988" lon="5.97802">
        <ele>1683</ele>
        <time>2024-10-15T12:38:59.000Z</time>
      </trkpt>
      <trkpt lat="45.07988" lon="5.97803">
        <ele>1682.8000488281</ele>
        <time>2024-10-15T12:39:00.000Z</time>
      </trkpt>
      <trkpt lat="45.07989" lon="5.97805">
        <ele>1682.5999755859</ele>
        <time>2024-10-15T12:39:01.000Z</time>
      </trkpt>
      <trkpt lat="45.07989" lon="5.97806">
        <ele>1682.4000244141</ele>
        <time>2024-10-15T12:39:02.000Z</time>
      </trkpt>
      <trkpt lat="45.07989" lon="5.97807">
        <ele>1681.8000488281</ele>
        <time>2024-10-15T12:39:03.000Z</time>
      </trkpt>
      <trkpt lat="45.07989" lon="5.97809">
        <ele>1681.4000244141</ele>
        <time>2024-10-15T12:39:04.000Z</time>
      </trkpt>
      <trkpt lat="45.0799" lon="5.9781">
        <ele>1681.1999511719</ele>
        <time>2024-10-15T12:39:05.000Z</time>
      </trkpt>
      <trkpt lat="45.0799" lon="5.97812">
        <ele>1680.5999755859</ele>
        <time>2024-10-15T12:39:06.000Z</time>
      </trkpt>
      <trkpt lat="45.0799" lon="5.97813">
        <ele>1680.4000244141</ele>
        <time>2024-10-15T12:39:07.000Z</time>
      </trkpt>
      <trkpt lat="45.0799" lon="5.97815">
        <ele>1680.1999511719</ele>
        <time>2024-10-15T12:39:08.000Z</time>
      </trkpt>
      <trkpt lat="45.0799" lon="5.97816">
        <ele>1679.5999755859</ele>
        <time>2024-10-15T12:39:09.000Z</time>
      </trkpt>
      <trkpt lat="45.0799" lon="5.97818">
        <ele>1679</ele>
        <time>2024-10-15T12:39:10.000Z</time>
      </trkpt>
      <trkpt lat="45.0799" lon="5.97819">
        <ele>1678.8000488281</ele>
        <time>2024-10-15T12:39:11.000Z</time>
      </trkpt>
      <trkpt lat="45.0799" lon="5.9782">
        <ele>1678.4000244141</ele>
        <time>2024-10-15T12:39:12.000Z</time>
      </trkpt>
      <trkpt lat="45.0799" lon="5.97822">
        <ele>1678.1999511719</ele>
        <time>2024-10-15T12:39:13.000Z</time>
      </trkpt>
      <trkpt lat="45.0799" lon="5.97823">
        <ele>1678</ele>
        <time>2024-10-15T12:39:14.000Z</time>
      </trkpt>
      <trkpt lat="45.0799" lon="5.97825">
        <ele>1677.5999755859</ele>
        <time>2024-10-15T12:39:15.000Z</time>
      </trkpt>
      <trkpt lat="45.0799" lon="5.97826">
        <ele>1677.1999511719</ele>
        <time>2024-10-15T12:39:16.000Z</time>
      </trkpt>
      <trkpt lat="45.0799" lon="5.97827">
        <ele>1677</ele>
        <time>2024-10-15T12:39:17.000Z</time>
      </trkpt>
      <trkpt lat="45.0799" lon="5.97829">
        <ele>1676.5999755859</ele>
        <time>2024-10-15T12:39:18.000Z</time>
      </trkpt>
      <trkpt lat="45.07991" lon="5.97831">
        <ele>1676.4000244141</ele>
        <time>2024-10-15T12:39:19.000Z</time>
      </trkpt>
      <trkpt lat="45.07991" lon="5.97832">
        <ele>1676.1999511719</ele>
        <time>2024-10-15T12:39:20.000Z</time>
      </trkpt>
      <trkpt lat="45.0799" lon="5.97833">
        <ele>1676</ele>
        <time>2024-10-15T12:39:21.000Z</time>
      </trkpt>
      <trkpt lat="45.0799" lon="5.97835">
        <ele>1675.8000488281</ele>
        <time>2024-10-15T12:39:22.000Z</time>
      </trkpt>
      <trkpt lat="45.0799" lon="5.97836">
        <ele>1675.4000244141</ele>
        <time>2024-10-15T12:39:23.000Z</time>
      </trkpt>
      <trkpt lat="45.0799" lon="5.97838">
        <ele>1675.1999511719</ele>
        <time>2024-10-15T12:39:24.000Z</time>
      </trkpt>
      <trkpt lat="45.0799" lon="5.97839">
        <ele>1675.1999511719</ele>
        <time>2024-10-15T12:39:25.000Z</time>
      </trkpt>
      <trkpt lat="45.07989" lon="5.9784">
        <ele>1675</ele>
        <time>2024-10-15T12:39:26.000Z</time>
      </trkpt>
      <trkpt lat="45.07989" lon="5.97841">
        <ele>1674.8000488281</ele>
        <time>2024-10-15T12:39:27.000Z</time>
      </trkpt>
      <trkpt lat="45.07989" lon="5.97843">
        <ele>1674.4000244141</ele>
        <time>2024-10-15T12:39:28.000Z</time>
      </trkpt>
      <trkpt lat="45.07988" lon="5.97844">
        <ele>1674</ele>
        <time>2024-10-15T12:39:29.000Z</time>
      </trkpt>
      <trkpt lat="45.07988" lon="5.97846">
        <ele>1673.8000488281</ele>
        <time>2024-10-15T12:39:30.000Z</time>
      </trkpt>
      <trkpt lat="45.07988" lon="5.97847">
        <ele>1673.5999755859</ele>
        <time>2024-10-15T12:39:31.000Z</time>
      </trkpt>
      <trkpt lat="45.07988" lon="5.97849">
        <ele>1673.1999511719</ele>
        <time>2024-10-15T12:39:32.000Z</time>
      </trkpt>
      <trkpt lat="45.07988" lon="5.9785">
        <ele>1672.8000488281</ele>
        <time>2024-10-15T12:39:33.000Z</time>
      </trkpt>
      <trkpt lat="45.07987" lon="5.97852">
        <ele>1672.8000488281</ele>
        <time>2024-10-15T12:39:34.000Z</time>
      </trkpt>
      <trkpt lat="45.07987" lon="5.97854">
        <ele>1672.5999755859</ele>
        <time>2024-10-15T12:39:35.000Z</time>
      </trkpt>
      <trkpt lat="45.07988" lon="5.97855">
        <ele>1672.1999511719</ele>
        <time>2024-10-15T12:39:36.000Z</time>
      </trkpt>
      <trkpt lat="45.07988" lon="5.97857">
        <ele>1672</ele>
        <time>2024-10-15T12:39:37.000Z</time>
      </trkpt>
      <trkpt lat="45.07987" lon="5.97858">
        <ele>1671.8000488281</ele>
        <time>2024-10-15T12:39:38.000Z</time>
      </trkpt>
      <trkpt lat="45.07987" lon="5.9786">
        <ele>1671.4000244141</ele>
        <time>2024-10-15T12:39:39.000Z</time>
      </trkpt>
      <trkpt lat="45.07987" lon="5.97861">
        <ele>1671</ele>
        <time>2024-10-15T12:39:40.000Z</time>
      </trkpt>
      <trkpt lat="45.07986" lon="5.97863">
        <ele>1670.8000488281</ele>
        <time>2024-10-15T12:39:41.000Z</time>
      </trkpt>
      <trkpt lat="45.07986" lon="5.97864">
        <ele>1670.5999755859</ele>
        <time>2024-10-15T12:39:42.000Z</time>
      </trkpt>
      <trkpt lat="45.07986" lon="5.97866">
        <ele>1670.1999511719</ele>
        <time>2024-10-15T12:39:43.000Z</time>
      </trkpt>
      <trkpt lat="45.07986" lon="5.97867">
        <ele>1669.8000488281</ele>
        <time>2024-10-15T12:39:44.000Z</time>
      </trkpt>
      <trkpt lat="45.07987" lon="5.97868">
        <ele>1669.4000244141</ele>
        <time>2024-10-15T12:39:45.000Z</time>
      </trkpt>
      <trkpt lat="45.07987" lon="5.9787">
        <ele>1669.1999511719</ele>
        <time>2024-10-15T12:39:46.000Z</time>
      </trkpt>
      <trkpt lat="45.07987" lon="5.97871">
        <ele>1669</ele>
        <time>2024-10-15T12:39:47.000Z</time>
      </trkpt>
      <trkpt lat="45.07986" lon="5.97873">
        <ele>1668.8000488281</ele>
        <time>2024-10-15T12:39:48.000Z</time>
      </trkpt>
      <trkpt lat="45.07986" lon="5.97874">
        <ele>1668.5999755859</ele>
        <time>2024-10-15T12:39:49.000Z</time>
      </trkpt>
      <trkpt lat="45.07987" lon="5.97876">
        <ele>1668.1999511719</ele>
        <time>2024-10-15T12:39:50.000Z</time>
      </trkpt>
      <trkpt lat="45.07987" lon="5.97877">
        <ele>1667.8000488281</ele>
        <time>2024-10-15T12:39:51.000Z</time>
      </trkpt>
      <trkpt lat="45.07987" lon="5.97879">
        <ele>1667.4000244141</ele>
        <time>2024-10-15T12:39:52.000Z</time>
      </trkpt>
      <trkpt lat="45.07987" lon="5.9788">
        <ele>1667</ele>
        <time>2024-10-15T12:39:53.000Z</time>
      </trkpt>
      <trkpt lat="45.07987" lon="5.97881">
        <ele>1666.8000488281</ele>
        <time>2024-10-15T12:39:54.000Z</time>
      </trkpt>
      <trkpt lat="45.07987" lon="5.97882">
        <ele>1666.5999755859</ele>
        <time>2024-10-15T12:39:55.000Z</time>
      </trkpt>
      <trkpt lat="45.07988" lon="5.97883">
        <ele>1666.4000244141</ele>
        <time>2024-10-15T12:39:56.000Z</time>
      </trkpt>
      <trkpt lat="45.07988" lon="5.97885">
        <ele>1666.1999511719</ele>
        <time>2024-10-15T12:39:57.000Z</time>
      </trkpt>
      <trkpt lat="45.07988" lon="5.97886">
        <ele>1666</ele>
        <time>2024-10-15T12:39:58.000Z</time>
      </trkpt>
      <trkpt lat="45.07988" lon="5.97887">
        <ele>1666</ele>
        <time>2024-10-15T12:39:59.000Z</time>
      </trkpt>
      <trkpt lat="45.07988" lon="5.97888">
        <ele>1665.1999511719</ele>
        <time>2024-10-15T12:40:00.000Z</time>
      </trkpt>
      <trkpt lat="45.07988" lon="5.97889">
        <ele>1665</ele>
        <time>2024-10-15T12:40:01.000Z</time>
      </trkpt>
      <trkpt lat="45.07988" lon="5.97891">
        <ele>1664.8000488281</ele>
        <time>2024-10-15T12:40:02.000Z</time>
      </trkpt>
      <trkpt lat="45.07988" lon="5.97892">
        <ele>1664.5999755859</ele>
        <time>2024-10-15T12:40:03.000Z</time>
      </trkpt>
      <trkpt lat="45.07988" lon="5.97893">
        <ele>1664.1999511719</ele>
        <time>2024-10-15T12:40:04.000Z</time>
      </trkpt>
      <trkpt lat="45.07988" lon="5.97895">
        <ele>1663.8000488281</ele>
        <time>2024-10-15T12:40:05.000Z</time>
      </trkpt>
      <trkpt lat="45.07988" lon="5.97896">
        <ele>1663.4000244141</ele>
        <time>2024-10-15T12:40:06.000Z</time>
      </trkpt>
      <trkpt lat="45.07988" lon="5.97897">
        <ele>1663</ele>
        <time>2024-10-15T12:40:07.000Z</time>
      </trkpt>
      <trkpt lat="45.07988" lon="5.97898">
        <ele>1662.5999755859</ele>
        <time>2024-10-15T12:40:08.000Z</time>
      </trkpt>
      <trkpt lat="45.07988" lon="5.979">
        <ele>1662.1999511719</ele>
        <time>2024-10-15T12:40:09.000Z</time>
      </trkpt>
      <trkpt lat="45.07987" lon="5.97901">
        <ele>1661.8000488281</ele>
        <time>2024-10-15T12:40:10.000Z</time>
      </trkpt>
      <trkpt lat="45.07987" lon="5.97902">
        <ele>1661.4000244141</ele>
        <time>2024-10-15T12:40:11.000Z</time>
      </trkpt>
      <trkpt lat="45.07987" lon="5.97904">
        <ele>1661</ele>
        <time>2024-10-15T12:40:12.000Z</time>
      </trkpt>
      <trkpt lat="45.07987" lon="5.97905">
        <ele>1660.4000244141</ele>
        <time>2024-10-15T12:40:13.000Z</time>
      </trkpt>
      <trkpt lat="45.07987" lon="5.97906">
        <ele>1660.4000244141</ele>
        <time>2024-10-15T12:40:14.000Z</time>
      </trkpt>
      <trkpt lat="45.07987" lon="5.97907">
        <ele>1660</ele>
        <time>2024-10-15T12:40:15.000Z</time>
      </trkpt>
      <trkpt lat="45.07987" lon="5.97909">
        <ele>1659.5999755859</ele>
        <time>2024-10-15T12:40:16.000Z</time>
      </trkpt>
      <trkpt lat="45.07987" lon="5.9791">
        <ele>1659.4000244141</ele>
        <time>2024-10-15T12:40:17.000Z</time>
      </trkpt>
      <trkpt lat="45.07987" lon="5.97911">
        <ele>1659</ele>
        <time>2024-10-15T12:40:18.000Z</time>
      </trkpt>
      <trkpt lat="45.07987" lon="5.97912">
        <ele>1658.8000488281</ele>
        <time>2024-10-15T12:40:19.000Z</time>
      </trkpt>
      <trkpt lat="45.07987" lon="5.97914">
        <ele>1658.4000244141</ele>
        <time>2024-10-15T12:40:20.000Z</time>
      </trkpt>
      <trkpt lat="45.07987" lon="5.97915">
        <ele>1658.1999511719</ele>
        <time>2024-10-15T12:40:21.000Z</time>
      </trkpt>
      <trkpt lat="45.07987" lon="5.97916">
        <ele>1657.5999755859</ele>
        <time>2024-10-15T12:40:22.000Z</time>
      </trkpt>
      <trkpt lat="45.07986" lon="5.97918">
        <ele>1657.1999511719</ele>
        <time>2024-10-15T12:40:23.000Z</time>
      </trkpt>
      <trkpt lat="45.07986" lon="5.9792">
        <ele>1657</ele>
        <time>2024-10-15T12:40:24.000Z</time>
      </trkpt>
      <trkpt lat="45.07985" lon="5.97921">
        <ele>1656.4000244141</ele>
        <time>2024-10-15T12:40:25.000Z</time>
      </trkpt>
      <trkpt lat="45.07985" lon="5.97922">
        <ele>1656</ele>
        <time>2024-10-15T12:40:26.000Z</time>
      </trkpt>
      <trkpt lat="45.07984" lon="5.97923">
        <ele>1655.5999755859</ele>
        <time>2024-10-15T12:40:27.000Z</time>
      </trkpt>
      <trkpt lat="45.07984" lon="5.97924">
        <ele>1655</ele>
        <time>2024-10-15T12:40:28.000Z</time>
      </trkpt>
      <trkpt lat="45.07984" lon="5.97925">
        <ele>1654.4000244141</ele>
        <time>2024-10-15T12:40:29.000Z</time>
      </trkpt>
      <trkpt lat="45.07983" lon="5.97927">
        <ele>1654</ele>
        <time>2024-10-15T12:40:30.000Z</time>
      </trkpt>
      <trkpt lat="45.07983" lon="5.97928">
        <ele>1653.5999755859</ele>
        <time>2024-10-15T12:40:31.000Z</time>
      </trkpt>
      <trkpt lat="45.07982" lon="5.9793">
        <ele>1653</ele>
        <time>2024-10-15T12:40:32.000Z</time>
      </trkpt>
      <trkpt lat="45.07982" lon="5.97932">
        <ele>1652.5999755859</ele>
        <time>2024-10-15T12:40:33.000Z</time>
      </trkpt>
      <trkpt lat="45.07982" lon="5.97933">
        <ele>1652</ele>
        <time>2024-10-15T12:40:34.000Z</time>
      </trkpt>
      <trkpt lat="45.07982" lon="5.97934">
        <ele>1651.4000244141</ele>
        <time>2024-10-15T12:40:35.000Z</time>
      </trkpt>
      <trkpt lat="45.07981" lon="5.97935">
        <ele>1650.8000488281</ele>
        <time>2024-10-15T12:40:36.000Z</time>
      </trkpt>
      <trkpt lat="45.07981" lon="5.97937">
        <ele>1650.4000244141</ele>
        <time>2024-10-15T12:40:37.000Z</time>
      </trkpt>
      <trkpt lat="45.07981" lon="5.97939">
        <ele>1649.8000488281</ele>
        <time>2024-10-15T12:40:38.000Z</time>
      </trkpt>
      <trkpt lat="45.07981" lon="5.9794">
        <ele>1649.1999511719</ele>
        <time>2024-10-15T12:40:39.000Z</time>
      </trkpt>
      <trkpt lat="45.07981" lon="5.97941">
        <ele>1648.5999755859</ele>
        <time>2024-10-15T12:40:40.000Z</time>
      </trkpt>
      <trkpt lat="45.07981" lon="5.97942">
        <ele>1648.1999511719</ele>
        <time>2024-10-15T12:40:41.000Z</time>
      </trkpt>
      <trkpt lat="45.07981" lon="5.97943">
        <ele>1648</ele>
        <time>2024-10-15T12:40:42.000Z</time>
      </trkpt>
      <trkpt lat="45.07981" lon="5.97944">
        <ele>1647.5999755859</ele>
        <time>2024-10-15T12:40:43.000Z</time>
      </trkpt>
      <trkpt lat="45.0798" lon="5.97946">
        <ele>1647.1999511719</ele>
        <time>2024-10-15T12:40:44.000Z</time>
      </trkpt>
      <trkpt lat="45.0798" lon="5.97947">
        <ele>1646.8000488281</ele>
        <time>2024-10-15T12:40:45.000Z</time>
      </trkpt>
      <trkpt lat="45.0798" lon="5.97949">
        <ele>1646.4000244141</ele>
        <time>2024-10-15T12:40:46.000Z</time>
      </trkpt>
      <trkpt lat="45.0798" lon="5.97951">
        <ele>1645.8000488281</ele>
        <time>2024-10-15T12:40:47.000Z</time>
      </trkpt>
      <trkpt lat="45.0798" lon="5.97952">
        <ele>1645.1999511719</ele>
        <time>2024-10-15T12:40:48.000Z</time>
      </trkpt>
      <trkpt lat="45.07979" lon="5.97954">
        <ele>1644.4000244141</ele>
        <time>2024-10-15T12:40:49.000Z</time>
      </trkpt>
      <trkpt lat="45.07979" lon="5.97956">
        <ele>1643.8000488281</ele>
        <time>2024-10-15T12:40:50.000Z</time>
      </trkpt>
      <trkpt lat="45.07978" lon="5.97957">
        <ele>1643</ele>
        <time>2024-10-15T12:40:51.000Z</time>
      </trkpt>
      <trkpt lat="45.07978" lon="5.97959">
        <ele>1642.4000244141</ele>
        <time>2024-10-15T12:40:52.000Z</time>
      </trkpt>
      <trkpt lat="45.07978" lon="5.97961">
        <ele>1642</ele>
        <time>2024-10-15T12:40:53.000Z</time>
      </trkpt>
      <trkpt lat="45.07978" lon="5.97963">
        <ele>1641.8000488281</ele>
        <time>2024-10-15T12:40:54.000Z</time>
      </trkpt>
      <trkpt lat="45.07978" lon="5.97964">
        <ele>1641.5999755859</ele>
        <time>2024-10-15T12:40:55.000Z</time>
      </trkpt>
      <trkpt lat="45.07978" lon="5.97966">
        <ele>1641.1999511719</ele>
        <time>2024-10-15T12:40:56.000Z</time>
      </trkpt>
      <trkpt lat="45.07977" lon="5.97967">
        <ele>1641</ele>
        <time>2024-10-15T12:40:57.000Z</time>
      </trkpt>
      <trkpt lat="45.07977" lon="5.97968">
        <ele>1640.4000244141</ele>
        <time>2024-10-15T12:40:58.000Z</time>
      </trkpt>
      <trkpt lat="45.07977" lon="5.9797">
        <ele>1639.8000488281</ele>
        <time>2024-10-15T12:40:59.000Z</time>
      </trkpt>
      <trkpt lat="45.07977" lon="5.97971">
        <ele>1639.1999511719</ele>
        <time>2024-10-15T12:41:00.000Z</time>
      </trkpt>
      <trkpt lat="45.07976" lon="5.97973">
        <ele>1638.5999755859</ele>
        <time>2024-10-15T12:41:01.000Z</time>
      </trkpt>
      <trkpt lat="45.07976" lon="5.97974">
        <ele>1638.4000244141</ele>
        <time>2024-10-15T12:41:02.000Z</time>
      </trkpt>
      <trkpt lat="45.07976" lon="5.97976">
        <ele>1638.1999511719</ele>
        <time>2024-10-15T12:41:03.000Z</time>
      </trkpt>
      <trkpt lat="45.07977" lon="5.97977">
        <ele>1638</ele>
        <time>2024-10-15T12:41:04.000Z</time>
      </trkpt>
      <trkpt lat="45.07977" lon="5.97978">
        <ele>1637.5999755859</ele>
        <time>2024-10-15T12:41:05.000Z</time>
      </trkpt>
      <trkpt lat="45.07977" lon="5.97979">
        <ele>1637.4000244141</ele>
        <time>2024-10-15T12:41:06.000Z</time>
      </trkpt>
      <trkpt lat="45.07977" lon="5.97981">
        <ele>1637.4000244141</ele>
        <time>2024-10-15T12:41:07.000Z</time>
      </trkpt>
      <trkpt lat="45.07977" lon="5.97982">
        <ele>1637</ele>
        <time>2024-10-15T12:41:08.000Z</time>
      </trkpt>
      <trkpt lat="45.07977" lon="5.97983">
        <ele>1636.5999755859</ele>
        <time>2024-10-15T12:41:09.000Z</time>
      </trkpt>
      <trkpt lat="45.07977" lon="5.97985">
        <ele>1636.1999511719</ele>
        <time>2024-10-15T12:41:10.000Z</time>
      </trkpt>
      <trkpt lat="45.07977" lon="5.97986">
        <ele>1636.1999511719</ele>
        <time>2024-10-15T12:41:11.000Z</time>
      </trkpt>
      <trkpt lat="45.07977" lon="5.97987">
        <ele>1636</ele>
        <time>2024-10-15T12:41:12.000Z</time>
      </trkpt>
      <trkpt lat="45.07978" lon="5.97988">
        <ele>1635.8000488281</ele>
        <time>2024-10-15T12:41:13.000Z</time>
      </trkpt>
      <trkpt lat="45.07977" lon="5.97989">
        <ele>1635.5999755859</ele>
        <time>2024-10-15T12:41:14.000Z</time>
      </trkpt>
      <trkpt lat="45.07977" lon="5.97991">
        <ele>1635.5999755859</ele>
        <time>2024-10-15T12:41:15.000Z</time>
      </trkpt>
      <trkpt lat="45.07977" lon="5.97992">
        <ele>1635.5999755859</ele>
        <time>2024-10-15T12:41:16.000Z</time>
      </trkpt>
      <trkpt lat="45.07977" lon="5.97993">
        <ele>1635.4000244141</ele>
        <time>2024-10-15T12:41:17.000Z</time>
      </trkpt>
      <trkpt lat="45.07978" lon="5.97994">
        <ele>1634.8000488281</ele>
        <time>2024-10-15T12:41:18.000Z</time>
      </trkpt>
      <trkpt lat="45.07978" lon="5.97995">
        <ele>1634.5999755859</ele>
        <time>2024-10-15T12:41:19.000Z</time>
      </trkpt>
      <trkpt lat="45.07978" lon="5.97997">
        <ele>1634.4000244141</ele>
        <time>2024-10-15T12:41:20.000Z</time>
      </trkpt>
      <trkpt lat="45.07978" lon="5.97998">
        <ele>1634</ele>
        <time>2024-10-15T12:41:21.000Z</time>
      </trkpt>
      <trkpt lat="45.07978" lon="5.97999">
        <ele>1633.5999755859</ele>
        <time>2024-10-15T12:41:22.000Z</time>
      </trkpt>
      <trkpt lat="45.07978" lon="5.98">
        <ele>1633</ele>
        <time>2024-10-15T12:41:23.000Z</time>
      </trkpt>
      <trkpt lat="45.07978" lon="5.98002">
        <ele>1632.8000488281</ele>
        <time>2024-10-15T12:41:24.000Z</time>
      </trkpt>
      <trkpt lat="45.07979" lon="5.98002">
        <ele>1632.5999755859</ele>
        <time>2024-10-15T12:41:25.000Z</time>
      </trkpt>
      <trkpt lat="45.07979" lon="5.98003">
        <ele>1631.8000488281</ele>
        <time>2024-10-15T12:41:26.000Z</time>
      </trkpt>
      <trkpt lat="45.07979" lon="5.98003">
        <ele>1631.4000244141</ele>
        <time>2024-10-15T12:41:27.000Z</time>
      </trkpt>
      <trkpt lat="45.07979" lon="5.98003">
        <ele>1631.1999511719</ele>
        <time>2024-10-15T12:41:28.000Z</time>
      </trkpt>
      <trkpt lat="45.07979" lon="5.98003">
        <ele>1631.1999511719</ele>
        <time>2024-10-15T12:41:29.000Z</time>
      </trkpt>
      <trkpt lat="45.07979" lon="5.98003">
        <ele>1631</ele>
        <time>2024-10-15T12:41:30.000Z</time>
      </trkpt>
      <trkpt lat="45.07979" lon="5.98003">
        <ele>1631</ele>
        <time>2024-10-15T12:41:31.000Z</time>
      </trkpt>
      <trkpt lat="45.07979" lon="5.98003">
        <ele>1631</ele>
        <time>2024-10-15T12:41:32.000Z</time>
      </trkpt>
      <trkpt lat="45.07979" lon="5.98003">
        <ele>1631</ele>
        <time>2024-10-15T12:41:33.000Z</time>
      </trkpt>
      <trkpt lat="45.07979" lon="5.98003">
        <ele>1631</ele>
        <time>2024-10-15T12:41:34.000Z</time>
      </trkpt>
      <trkpt lat="45.07979" lon="5.98003">
        <ele>1631</ele>
        <time>2024-10-15T12:41:35.000Z</time>
      </trkpt>
      <trkpt lat="45.07979" lon="5.98003">
        <ele>1631</ele>
        <time>2024-10-15T12:41:36.000Z</time>
      </trkpt>
      <trkpt lat="45.07979" lon="5.98003">
        <ele>1631.1999511719</ele>
        <time>2024-10-15T12:41:37.000Z</time>
      </trkpt>
      <trkpt lat="45.07979" lon="5.98003">
        <ele>1631.1999511719</ele>
        <time>2024-10-15T12:41:38.000Z</time>
      </trkpt>
      <trkpt lat="45.07979" lon="5.98003">
        <ele>1631.1999511719</ele>
        <time>2024-10-15T12:41:39.000Z</time>
      </trkpt>
      <trkpt lat="45.07979" lon="5.98003">
        <ele>1631.1999511719</ele>
        <time>2024-10-15T12:41:40.000Z</time>
      </trkpt>
      <trkpt lat="45.07979" lon="5.98003">
        <ele>1631.1999511719</ele>
        <time>2024-10-15T12:41:41.000Z</time>
      </trkpt>
      <trkpt lat="45.07979" lon="5.98003">
        <ele>1631</ele>
        <time>2024-10-15T12:41:42.000Z</time>
      </trkpt>
      <trkpt lat="45.07979" lon="5.98003">
        <ele>1631</ele>
        <time>2024-10-15T12:41:43.000Z</time>
      </trkpt>
      <trkpt lat="45.07979" lon="5.98003">
        <ele>1631</ele>
        <time>2024-10-15T12:41:44.000Z</time>
      </trkpt>
      <trkpt lat="45.07979" lon="5.98003">
        <ele>1631</ele>
        <time>2024-10-15T12:41:45.000Z</time>
      </trkpt>
      <trkpt lat="45.07979" lon="5.98003">
        <ele>1631</ele>
        <time>2024-10-15T12:41:46.000Z</time>
      </trkpt>
      <trkpt lat="45.07979" lon="5.98003">
        <ele>1631</ele>
        <time>2024-10-15T12:41:47.000Z</time>
      </trkpt>
      <trkpt lat="45.07979" lon="5.98003">
        <ele>1631</ele>
        <time>2024-10-15T12:41:48.000Z</time>
      </trkpt>
      <trkpt lat="45.07979" lon="5.98003">
        <ele>1631</ele>
        <time>2024-10-15T12:41:49.000Z</time>
      </trkpt>
      <trkpt lat="45.07979" lon="5.98003">
        <ele>1631</ele>
        <time>2024-10-15T12:41:50.000Z</time>
      </trkpt>
      <trkpt lat="45.07979" lon="5.98003">
        <ele>1631</ele>
        <time>2024-10-15T12:41:51.000Z</time>
      </trkpt>
      <trkpt lat="45.07979" lon="5.98003">
        <ele>1631</ele>
        <time>2024-10-15T12:41:52.000Z</time>
      </trkpt>
      <trkpt lat="45.07979" lon="5.98003">
        <ele>1631</ele>
        <time>2024-10-15T12:41:53.000Z</time>
      </trkpt>
      <trkpt lat="45.07979" lon="5.98003">
        <ele>1631</ele>
        <time>2024-10-15T12:41:54.000Z</time>
      </trkpt>
      <trkpt lat="45.07979" lon="5.98003">
        <ele>1631</ele>
        <time>2024-10-15T12:41:55.000Z</time>
      </trkpt>
      <trkpt lat="45.07979" lon="5.98003">
        <ele>1630.8000488281</ele>
        <time>2024-10-15T12:41:56.000Z</time>
      </trkpt>
      <trkpt lat="45.07979" lon="5.98003">
        <ele>1630.8000488281</ele>
        <time>2024-10-15T12:41:57.000Z</time>
      </trkpt>
      <trkpt lat="45.07979" lon="5.98004">
        <ele>1630.4000244141</ele>
        <time>2024-10-15T12:41:58.000Z</time>
      </trkpt>
      <trkpt lat="45.07979" lon="5.98006">
        <ele>1630.1999511719</ele>
        <time>2024-10-15T12:41:59.000Z</time>
      </trkpt>
      <trkpt lat="45.07979" lon="5.98008">
        <ele>1629.5999755859</ele>
        <time>2024-10-15T12:42:00.000Z</time>
      </trkpt>
      <trkpt lat="45.07979" lon="5.9801">
        <ele>1629.1999511719</ele>
        <time>2024-10-15T12:42:01.000Z</time>
      </trkpt>
      <trkpt lat="45.07979" lon="5.98012">
        <ele>1628.8000488281</ele>
        <time>2024-10-15T12:42:02.000Z</time>
      </trkpt>
      <trkpt lat="45.07978" lon="5.98015">
        <ele>1627.8000488281</ele>
        <time>2024-10-15T12:42:03.000Z</time>
      </trkpt>
      <trkpt lat="45.07978" lon="5.98017">
        <ele>1627.8000488281</ele>
        <time>2024-10-15T12:42:04.000Z</time>
      </trkpt>
      <trkpt lat="45.07978" lon="5.98019">
        <ele>1627.8000488281</ele>
        <time>2024-10-15T12:42:05.000Z</time>
      </trkpt>
      <trkpt lat="45.07978" lon="5.98021">
        <ele>1627.8000488281</ele>
        <time>2024-10-15T12:42:06.000Z</time>
      </trkpt>
      <trkpt lat="45.07978" lon="5.98023">
        <ele>1627.8000488281</ele>
        <time>2024-10-15T12:42:07.000Z</time>
      </trkpt>
      <trkpt lat="45.07978" lon="5.98024">
        <ele>1627.8000488281</ele>
        <time>2024-10-15T12:42:08.000Z</time>
      </trkpt>
      <trkpt lat="45.07978" lon="5.98025">
        <ele>1627.8000488281</ele>
        <time>2024-10-15T12:42:09.000Z</time>
      </trkpt>
      <trkpt lat="45.07978" lon="5.98027">
        <ele>1627.5999755859</ele>
        <time>2024-10-15T12:42:10.000Z</time>
      </trkpt>
      <trkpt lat="45.07978" lon="5.98028">
        <ele>1627.4000244141</ele>
        <time>2024-10-15T12:42:11.000Z</time>
      </trkpt>
      <trkpt lat="45.07978" lon="5.98029">
        <ele>1627</ele>
        <time>2024-10-15T12:42:12.000Z</time>
      </trkpt>
      <trkpt lat="45.07978" lon="5.98031">
        <ele>1626.8000488281</ele>
        <time>2024-10-15T12:42:13.000Z</time>
      </trkpt>
      <trkpt lat="45.07978" lon="5.98032">
        <ele>1626.4000244141</ele>
        <time>2024-10-15T12:42:14.000Z</time>
      </trkpt>
      <trkpt lat="45.07978" lon="5.98034">
        <ele>1626</ele>
        <time>2024-10-15T12:42:15.000Z</time>
      </trkpt>
      <trkpt lat="45.07978" lon="5.98035">
        <ele>1625.8000488281</ele>
        <time>2024-10-15T12:42:16.000Z</time>
      </trkpt>
      <trkpt lat="45.07977" lon="5.98037">
        <ele>1625.5999755859</ele>
        <time>2024-10-15T12:42:17.000Z</time>
      </trkpt>
      <trkpt lat="45.07977" lon="5.98039">
        <ele>1625.1999511719</ele>
        <time>2024-10-15T12:42:18.000Z</time>
      </trkpt>
      <trkpt lat="45.07977" lon="5.9804">
        <ele>1625</ele>
        <time>2024-10-15T12:42:19.000Z</time>
      </trkpt>
      <trkpt lat="45.07976" lon="5.98042">
        <ele>1624.8000488281</ele>
        <time>2024-10-15T12:42:20.000Z</time>
      </trkpt>
      <trkpt lat="45.07976" lon="5.98043">
        <ele>1624.5999755859</ele>
        <time>2024-10-15T12:42:21.000Z</time>
      </trkpt>
      <trkpt lat="45.07976" lon="5.98045">
        <ele>1624.4000244141</ele>
        <time>2024-10-15T12:42:22.000Z</time>
      </trkpt>
      <trkpt lat="45.07975" lon="5.98046">
        <ele>1624.1999511719</ele>
        <time>2024-10-15T12:42:23.000Z</time>
      </trkpt>
      <trkpt lat="45.07975" lon="5.98047">
        <ele>1623.8000488281</ele>
        <time>2024-10-15T12:42:24.000Z</time>
      </trkpt>
      <trkpt lat="45.07975" lon="5.98048">
        <ele>1623.1999511719</ele>
        <time>2024-10-15T12:42:25.000Z</time>
      </trkpt>
      <trkpt lat="45.07975" lon="5.98049">
        <ele>1623</ele>
        <time>2024-10-15T12:42:26.000Z</time>
      </trkpt>
      <trkpt lat="45.07975" lon="5.9805">
        <ele>1623</ele>
        <time>2024-10-15T12:42:27.000Z</time>
      </trkpt>
      <trkpt lat="45.07975" lon="5.98052">
        <ele>1622.5999755859</ele>
        <time>2024-10-15T12:42:28.000Z</time>
      </trkpt>
      <trkpt lat="45.07976" lon="5.98053">
        <ele>1622.4000244141</ele>
        <time>2024-10-15T12:42:29.000Z</time>
      </trkpt>
      <trkpt lat="45.07976" lon="5.98054">
        <ele>1621.8000488281</ele>
        <time>2024-10-15T12:42:30.000Z</time>
      </trkpt>
      <trkpt lat="45.07977" lon="5.98056">
        <ele>1621.4000244141</ele>
        <time>2024-10-15T12:42:31.000Z</time>
      </trkpt>
      <trkpt lat="45.07977" lon="5.98057">
        <ele>1621.1999511719</ele>
        <time>2024-10-15T12:42:32.000Z</time>
      </trkpt>
      <trkpt lat="45.07977" lon="5.98058">
        <ele>1620.8000488281</ele>
        <time>2024-10-15T12:42:33.000Z</time>
      </trkpt>
      <trkpt lat="45.07977" lon="5.9806">
        <ele>1620.4000244141</ele>
        <time>2024-10-15T12:42:34.000Z</time>
      </trkpt>
      <trkpt lat="45.07977" lon="5.98061">
        <ele>1620</ele>
        <time>2024-10-15T12:42:35.000Z</time>
      </trkpt>
      <trkpt lat="45.07977" lon="5.98062">
        <ele>1619.8000488281</ele>
        <time>2024-10-15T12:42:36.000Z</time>
      </trkpt>
      <trkpt lat="45.07976" lon="5.98064">
        <ele>1619.8000488281</ele>
        <time>2024-10-15T12:42:37.000Z</time>
      </trkpt>
      <trkpt lat="45.07975" lon="5.98065">
        <ele>1619.5999755859</ele>
        <time>2024-10-15T12:42:38.000Z</time>
      </trkpt>
      <trkpt lat="45.07974" lon="5.98067">
        <ele>1619.5999755859</ele>
        <time>2024-10-15T12:42:39.000Z</time>
      </trkpt>
      <trkpt lat="45.07973" lon="5.98069">
        <ele>1619.5999755859</ele>
        <time>2024-10-15T12:42:40.000Z</time>
      </trkpt>
      <trkpt lat="45.07973" lon="5.98071">
        <ele>1619.5999755859</ele>
        <time>2024-10-15T12:42:41.000Z</time>
      </trkpt>
      <trkpt lat="45.07972" lon="5.98072">
        <ele>1619.5999755859</ele>
        <time>2024-10-15T12:42:42.000Z</time>
      </trkpt>
      <trkpt lat="45.07972" lon="5.98074">
        <ele>1619.4000244141</ele>
        <time>2024-10-15T12:42:43.000Z</time>
      </trkpt>
      <trkpt lat="45.07971" lon="5.98075">
        <ele>1619.1999511719</ele>
        <time>2024-10-15T12:42:44.000Z</time>
      </trkpt>
      <trkpt lat="45.0797" lon="5.98076">
        <ele>1619.1999511719</ele>
        <time>2024-10-15T12:42:45.000Z</time>
      </trkpt>
      <trkpt lat="45.0797" lon="5.98077">
        <ele>1619</ele>
        <time>2024-10-15T12:42:46.000Z</time>
      </trkpt>
      <trkpt lat="45.0797" lon="5.98078">
        <ele>1619</ele>
        <time>2024-10-15T12:42:47.000Z</time>
      </trkpt>
      <trkpt lat="45.07969" lon="5.98079">
        <ele>1619</ele>
        <time>2024-10-15T12:42:48.000Z</time>
      </trkpt>
      <trkpt lat="45.07969" lon="5.9808">
        <ele>1618.8000488281</ele>
        <time>2024-10-15T12:42:49.000Z</time>
      </trkpt>
      <trkpt lat="45.07969" lon="5.98081">
        <ele>1618.8000488281</ele>
        <time>2024-10-15T12:42:50.000Z</time>
      </trkpt>
      <trkpt lat="45.07969" lon="5.98081">
        <ele>1618.8000488281</ele>
        <time>2024-10-15T12:42:51.000Z</time>
      </trkpt>
      <trkpt lat="45.07968" lon="5.98082">
        <ele>1618.8000488281</ele>
        <time>2024-10-15T12:42:52.000Z</time>
      </trkpt>
      <trkpt lat="45.07967" lon="5.98083">
        <ele>1618.5999755859</ele>
        <time>2024-10-15T12:42:53.000Z</time>
      </trkpt>
      <trkpt lat="45.07967" lon="5.98084">
        <ele>1618.4000244141</ele>
        <time>2024-10-15T12:42:54.000Z</time>
      </trkpt>
      <trkpt lat="45.07966" lon="5.98085">
        <ele>1618.4000244141</ele>
        <time>2024-10-15T12:42:55.000Z</time>
      </trkpt>
      <trkpt lat="45.07966" lon="5.98086">
        <ele>1618.1999511719</ele>
        <time>2024-10-15T12:42:56.000Z</time>
      </trkpt>
      <trkpt lat="45.07965" lon="5.98087">
        <ele>1618</ele>
        <time>2024-10-15T12:42:57.000Z</time>
      </trkpt>
      <trkpt lat="45.07965" lon="5.98089">
        <ele>1617.8000488281</ele>
        <time>2024-10-15T12:42:58.000Z</time>
      </trkpt>
      <trkpt lat="45.07964" lon="5.9809">
        <ele>1617.8000488281</ele>
        <time>2024-10-15T12:42:59.000Z</time>
      </trkpt>
      <trkpt lat="45.07964" lon="5.98091">
        <ele>1617.5999755859</ele>
        <time>2024-10-15T12:43:00.000Z</time>
      </trkpt>
      <trkpt lat="45.07964" lon="5.98093">
        <ele>1617.4000244141</ele>
        <time>2024-10-15T12:43:01.000Z</time>
      </trkpt>
      <trkpt lat="45.07963" lon="5.98094">
        <ele>1617.1999511719</ele>
        <time>2024-10-15T12:43:02.000Z</time>
      </trkpt>
      <trkpt lat="45.07963" lon="5.98095">
        <ele>1617</ele>
        <time>2024-10-15T12:43:03.000Z</time>
      </trkpt>
      <trkpt lat="45.07962" lon="5.98096">
        <ele>1616.5999755859</ele>
        <time>2024-10-15T12:43:04.000Z</time>
      </trkpt>
      <trkpt lat="45.07962" lon="5.98098">
        <ele>1616.4000244141</ele>
        <time>2024-10-15T12:43:05.000Z</time>
      </trkpt>
      <trkpt lat="45.07962" lon="5.981">
        <ele>1615.8000488281</ele>
        <time>2024-10-15T12:43:06.000Z</time>
      </trkpt>
      <trkpt lat="45.07961" lon="5.98101">
        <ele>1615.5999755859</ele>
        <time>2024-10-15T12:43:07.000Z</time>
      </trkpt>
      <trkpt lat="45.07961" lon="5.98102">
        <ele>1615.1999511719</ele>
        <time>2024-10-15T12:43:08.000Z</time>
      </trkpt>
      <trkpt lat="45.07961" lon="5.98103">
        <ele>1615</ele>
        <time>2024-10-15T12:43:09.000Z</time>
      </trkpt>
      <trkpt lat="45.07961" lon="5.98104">
        <ele>1614.5999755859</ele>
        <time>2024-10-15T12:43:10.000Z</time>
      </trkpt>
      <trkpt lat="45.07961" lon="5.98104">
        <ele>1614.4000244141</ele>
        <time>2024-10-15T12:43:11.000Z</time>
      </trkpt>
      <trkpt lat="45.07961" lon="5.98105">
        <ele>1614.4000244141</ele>
        <time>2024-10-15T12:43:12.000Z</time>
      </trkpt>
      <trkpt lat="45.07961" lon="5.98106">
        <ele>1614.1999511719</ele>
        <time>2024-10-15T12:43:13.000Z</time>
      </trkpt>
      <trkpt lat="45.07962" lon="5.98106">
        <ele>1614.1999511719</ele>
        <time>2024-10-15T12:43:14.000Z</time>
      </trkpt>
      <trkpt lat="45.07962" lon="5.98106">
        <ele>1614.1999511719</ele>
        <time>2024-10-15T12:43:15.000Z</time>
      </trkpt>
      <trkpt lat="45.07963" lon="5.98106">
        <ele>1614.1999511719</ele>
        <time>2024-10-15T12:43:16.000Z</time>
      </trkpt>
      <trkpt lat="45.07963" lon="5.98107">
        <ele>1614.1999511719</ele>
        <time>2024-10-15T12:43:17.000Z</time>
      </trkpt>
      <trkpt lat="45.07963" lon="5.98107">
        <ele>1614.4000244141</ele>
        <time>2024-10-15T12:43:18.000Z</time>
      </trkpt>
      <trkpt lat="45.07963" lon="5.98107">
        <ele>1614.4000244141</ele>
        <time>2024-10-15T12:43:19.000Z</time>
      </trkpt>
      <trkpt lat="45.07963" lon="5.98108">
        <ele>1614.4000244141</ele>
        <time>2024-10-15T12:43:20.000Z</time>
      </trkpt>
      <trkpt lat="45.07963" lon="5.98108">
        <ele>1614.4000244141</ele>
        <time>2024-10-15T12:43:21.000Z</time>
      </trkpt>
      <trkpt lat="45.07963" lon="5.98109">
        <ele>1614.1999511719</ele>
        <time>2024-10-15T12:43:22.000Z</time>
      </trkpt>
      <trkpt lat="45.07963" lon="5.98109">
        <ele>1614.1999511719</ele>
        <time>2024-10-15T12:43:23.000Z</time>
      </trkpt>
      <trkpt lat="45.07963" lon="5.98109">
        <ele>1614.1999511719</ele>
        <time>2024-10-15T12:43:24.000Z</time>
      </trkpt>
      <trkpt lat="45.07963" lon="5.98109">
        <ele>1614</ele>
        <time>2024-10-15T12:43:25.000Z</time>
      </trkpt>
      <trkpt lat="45.07963" lon="5.98109">
        <ele>1613.8000488281</ele>
        <time>2024-10-15T12:43:26.000Z</time>
      </trkpt>
      <trkpt lat="45.07963" lon="5.98109">
        <ele>1613.8000488281</ele>
        <time>2024-10-15T12:43:27.000Z</time>
      </trkpt>
      <trkpt lat="45.07963" lon="5.98109">
        <ele>1613.5999755859</ele>
        <time>2024-10-15T12:43:28.000Z</time>
      </trkpt>
      <trkpt lat="45.07963" lon="5.98109">
        <ele>1613.5999755859</ele>
        <time>2024-10-15T12:43:29.000Z</time>
      </trkpt>
      <trkpt lat="45.07963" lon="5.98109">
        <ele>1613.5999755859</ele>
        <time>2024-10-15T12:43:30.000Z</time>
      </trkpt>
      <trkpt lat="45.07963" lon="5.98109">
        <ele>1613.4000244141</ele>
        <time>2024-10-15T12:43:31.000Z</time>
      </trkpt>
      <trkpt lat="45.07963" lon="5.98109">
        <ele>1613.4000244141</ele>
        <time>2024-10-15T12:43:32.000Z</time>
      </trkpt>
      <trkpt lat="45.07963" lon="5.98109">
        <ele>1613.4000244141</ele>
        <time>2024-10-15T12:43:33.000Z</time>
      </trkpt>
      <trkpt lat="45.07963" lon="5.98109">
        <ele>1613.1999511719</ele>
        <time>2024-10-15T12:43:34.000Z</time>
      </trkpt>
      <trkpt lat="45.07963" lon="5.98109">
        <ele>1613.1999511719</ele>
        <time>2024-10-15T12:43:35.000Z</time>
      </trkpt>
      <trkpt lat="45.07963" lon="5.98109">
        <ele>1613.1999511719</ele>
        <time>2024-10-15T12:43:36.000Z</time>
      </trkpt>
      <trkpt lat="45.07963" lon="5.98109">
        <ele>1613</ele>
        <time>2024-10-15T12:43:37.000Z</time>
      </trkpt>
      <trkpt lat="45.07963" lon="5.98109">
        <ele>1613</ele>
        <time>2024-10-15T12:43:38.000Z</time>
      </trkpt>
      <trkpt lat="45.07963" lon="5.98109">
        <ele>1613</ele>
        <time>2024-10-15T12:43:39.000Z</time>
      </trkpt>
      <trkpt lat="45.07963" lon="5.98109">
        <ele>1612.8000488281</ele>
        <time>2024-10-15T12:43:40.000Z</time>
      </trkpt>
      <trkpt lat="45.07963" lon="5.98108">
        <ele>1612.8000488281</ele>
        <time>2024-10-15T12:43:41.000Z</time>
      </trkpt>
      <trkpt lat="45.07963" lon="5.98108">
        <ele>1612.8000488281</ele>
        <time>2024-10-15T12:43:42.000Z</time>
      </trkpt>
      <trkpt lat="45.07963" lon="5.98108">
        <ele>1612.8000488281</ele>
        <time>2024-10-15T12:43:43.000Z</time>
      </trkpt>
      <trkpt lat="45.07963" lon="5.98108">
        <ele>1612.8000488281</ele>
        <time>2024-10-15T12:43:44.000Z</time>
      </trkpt>
      <trkpt lat="45.07963" lon="5.98108">
        <ele>1612.8000488281</ele>
        <time>2024-10-15T12:43:45.000Z</time>
      </trkpt>
      <trkpt lat="45.07963" lon="5.98108">
        <ele>1612.5999755859</ele>
        <time>2024-10-15T12:43:46.000Z</time>
      </trkpt>
      <trkpt lat="45.07963" lon="5.98108">
        <ele>1612.5999755859</ele>
        <time>2024-10-15T12:43:47.000Z</time>
      </trkpt>
      <trkpt lat="45.07963" lon="5.98108">
        <ele>1612.5999755859</ele>
        <time>2024-10-15T12:43:48.000Z</time>
      </trkpt>
      <trkpt lat="45.07963" lon="5.98108">
        <ele>1612.5999755859</ele>
        <time>2024-10-15T12:43:49.000Z</time>
      </trkpt>
      <trkpt lat="45.07964" lon="5.98108">
        <ele>1612.5999755859</ele>
        <time>2024-10-15T12:43:50.000Z</time>
      </trkpt>
      <trkpt lat="45.07965" lon="5.98108">
        <ele>1612.5999755859</ele>
        <time>2024-10-15T12:43:51.000Z</time>
      </trkpt>
      <trkpt lat="45.07965" lon="5.98108">
        <ele>1612.5999755859</ele>
        <time>2024-10-15T12:43:52.000Z</time>
      </trkpt>
      <trkpt lat="45.07965" lon="5.98108">
        <ele>1612.5999755859</ele>
        <time>2024-10-15T12:43:53.000Z</time>
      </trkpt>
      <trkpt lat="45.07965" lon="5.98108">
        <ele>1612.8000488281</ele>
        <time>2024-10-15T12:43:54.000Z</time>
      </trkpt>
      <trkpt lat="45.07965" lon="5.98108">
        <ele>1612.8000488281</ele>
        <time>2024-10-15T12:43:55.000Z</time>
      </trkpt>
      <trkpt lat="45.07965" lon="5.98108">
        <ele>1612.8000488281</ele>
        <time>2024-10-15T12:43:56.000Z</time>
      </trkpt>
      <trkpt lat="45.07966" lon="5.98108">
        <ele>1612.8000488281</ele>
        <time>2024-10-15T12:43:57.000Z</time>
      </trkpt>
      <trkpt lat="45.07966" lon="5.98108">
        <ele>1612.8000488281</ele>
        <time>2024-10-15T12:43:58.000Z</time>
      </trkpt>
      <trkpt lat="45.07966" lon="5.98108">
        <ele>1613</ele>
        <time>2024-10-15T12:43:59.000Z</time>
      </trkpt>
      <trkpt lat="45.07966" lon="5.98108">
        <ele>1613</ele>
        <time>2024-10-15T12:44:00.000Z</time>
      </trkpt>
      <trkpt lat="45.07967" lon="5.98108">
        <ele>1613.1999511719</ele>
        <time>2024-10-15T12:44:01.000Z</time>
      </trkpt>
      <trkpt lat="45.07967" lon="5.98108">
        <ele>1613.1999511719</ele>
        <time>2024-10-15T12:44:02.000Z</time>
      </trkpt>
      <trkpt lat="45.07967" lon="5.98108">
        <ele>1613.4000244141</ele>
        <time>2024-10-15T12:44:03.000Z</time>
      </trkpt>
      <trkpt lat="45.07967" lon="5.98108">
        <ele>1613.4000244141</ele>
        <time>2024-10-15T12:44:04.000Z</time>
      </trkpt>
      <trkpt lat="45.07967" lon="5.98108">
        <ele>1613.4000244141</ele>
        <time>2024-10-15T12:44:05.000Z</time>
      </trkpt>
      <trkpt lat="45.07967" lon="5.98108">
        <ele>1613.4000244141</ele>
        <time>2024-10-15T12:44:06.000Z</time>
      </trkpt>
      <trkpt lat="45.07967" lon="5.98108">
        <ele>1613</ele>
        <time>2024-10-15T12:44:07.000Z</time>
      </trkpt>
      <trkpt lat="45.07967" lon="5.98108">
        <ele>1612.8000488281</ele>
        <time>2024-10-15T12:44:08.000Z</time>
      </trkpt>
      <trkpt lat="45.07967" lon="5.98108">
        <ele>1612.8000488281</ele>
        <time>2024-10-15T12:44:09.000Z</time>
      </trkpt>
      <trkpt lat="45.07967" lon="5.98108">
        <ele>1612.8000488281</ele>
        <time>2024-10-15T12:44:10.000Z</time>
      </trkpt>
      <trkpt lat="45.07967" lon="5.98108">
        <ele>1612.5999755859</ele>
        <time>2024-10-15T12:44:11.000Z</time>
      </trkpt>
      <trkpt lat="45.07967" lon="5.98108">
        <ele>1612.5999755859</ele>
        <time>2024-10-15T12:44:12.000Z</time>
      </trkpt>
      <trkpt lat="45.07967" lon="5.98108">
        <ele>1612.4000244141</ele>
        <time>2024-10-15T12:44:13.000Z</time>
      </trkpt>
      <trkpt lat="45.07967" lon="5.98108">
        <ele>1612.4000244141</ele>
        <time>2024-10-15T12:44:14.000Z</time>
      </trkpt>
      <trkpt lat="45.07967" lon="5.98108">
        <ele>1612.4000244141</ele>
        <time>2024-10-15T12:44:15.000Z</time>
      </trkpt>
      <trkpt lat="45.07966" lon="5.98108">
        <ele>1612.4000244141</ele>
        <time>2024-10-15T12:44:16.000Z</time>
      </trkpt>
      <trkpt lat="45.07966" lon="5.98108">
        <ele>1612.1999511719</ele>
        <time>2024-10-15T12:44:17.000Z</time>
      </trkpt>
      <trkpt lat="45.07966" lon="5.98108">
        <ele>1612.1999511719</ele>
        <time>2024-10-15T12:44:18.000Z</time>
      </trkpt>
      <trkpt lat="45.07966" lon="5.98108">
        <ele>1612.1999511719</ele>
        <time>2024-10-15T12:44:19.000Z</time>
      </trkpt>
      <trkpt lat="45.07966" lon="5.98108">
        <ele>1612.1999511719</ele>
        <time>2024-10-15T12:44:20.000Z</time>
      </trkpt>
      <trkpt lat="45.07966" lon="5.98108">
        <ele>1612.1999511719</ele>
        <time>2024-10-15T12:44:21.000Z</time>
      </trkpt>
      <trkpt lat="45.07966" lon="5.98108">
        <ele>1612.1999511719</ele>
        <time>2024-10-15T12:44:22.000Z</time>
      </trkpt>
      <trkpt lat="45.07966" lon="5.98108">
        <ele>1612.1999511719</ele>
        <time>2024-10-15T12:44:23.000Z</time>
      </trkpt>
      <trkpt lat="45.07966" lon="5.98108">
        <ele>1612</ele>
        <time>2024-10-15T12:44:24.000Z</time>
      </trkpt>
      <trkpt lat="45.07966" lon="5.98108">
        <ele>1612</ele>
        <time>2024-10-15T12:44:25.000Z</time>
      </trkpt>
      <trkpt lat="45.07966" lon="5.98108">
        <ele>1612</ele>
        <time>2024-10-15T12:44:26.000Z</time>
      </trkpt>
      <trkpt lat="45.07966" lon="5.98108">
        <ele>1612</ele>
        <time>2024-10-15T12:44:27.000Z</time>
      </trkpt>
      <trkpt lat="45.07966" lon="5.98108">
        <ele>1612</ele>
        <time>2024-10-15T12:44:28.000Z</time>
      </trkpt>
      <trkpt lat="45.07966" lon="5.98108">
        <ele>1612</ele>
        <time>2024-10-15T12:44:29.000Z</time>
      </trkpt>
      <trkpt lat="45.07966" lon="5.98108">
        <ele>1612</ele>
        <time>2024-10-15T12:44:30.000Z</time>
      </trkpt>
      <trkpt lat="45.07966" lon="5.98108">
        <ele>1612</ele>
        <time>2024-10-15T12:44:31.000Z</time>
      </trkpt>
      <trkpt lat="45.07966" lon="5.98108">
        <ele>1612</ele>
        <time>2024-10-15T12:44:32.000Z</time>
      </trkpt>
      <trkpt lat="45.07966" lon="5.98109">
        <ele>1612</ele>
        <time>2024-10-15T12:44:33.000Z</time>
      </trkpt>
      <trkpt lat="45.07966" lon="5.98109">
        <ele>1611.8000488281</ele>
        <time>2024-10-15T12:44:34.000Z</time>
      </trkpt>
      <trkpt lat="45.07966" lon="5.98109">
        <ele>1611.8000488281</ele>
        <time>2024-10-15T12:44:35.000Z</time>
      </trkpt>
      <trkpt lat="45.07966" lon="5.98109">
        <ele>1611.8000488281</ele>
        <time>2024-10-15T12:44:36.000Z</time>
      </trkpt>
      <trkpt lat="45.07966" lon="5.98109">
        <ele>1611.8000488281</ele>
        <time>2024-10-15T12:44:37.000Z</time>
      </trkpt>
      <trkpt lat="45.07966" lon="5.98109">
        <ele>1611.8000488281</ele>
        <time>2024-10-15T12:44:38.000Z</time>
      </trkpt>
      <trkpt lat="45.07966" lon="5.98109">
        <ele>1611.8000488281</ele>
        <time>2024-10-15T12:44:39.000Z</time>
      </trkpt>
      <trkpt lat="45.07966" lon="5.98109">
        <ele>1611.8000488281</ele>
        <time>2024-10-15T12:44:40.000Z</time>
      </trkpt>
      <trkpt lat="45.07966" lon="5.98109">
        <ele>1611.8000488281</ele>
        <time>2024-10-15T12:44:41.000Z</time>
      </trkpt>
      <trkpt lat="45.07966" lon="5.98109">
        <ele>1611.8000488281</ele>
        <time>2024-10-15T12:44:42.000Z</time>
      </trkpt>
      <trkpt lat="45.07966" lon="5.98109">
        <ele>1611.8000488281</ele>
        <time>2024-10-15T12:44:43.000Z</time>
      </trkpt>
      <trkpt lat="45.07966" lon="5.98109">
        <ele>1611.5999755859</ele>
        <time>2024-10-15T12:44:44.000Z</time>
      </trkpt>
      <trkpt lat="45.07966" lon="5.98109">
        <ele>1611.5999755859</ele>
        <time>2024-10-15T12:44:45.000Z</time>
      </trkpt>
      <trkpt lat="45.07966" lon="5.98109">
        <ele>1611.5999755859</ele>
        <time>2024-10-15T12:44:46.000Z</time>
      </trkpt>
      <trkpt lat="45.07966" lon="5.98109">
        <ele>1611.5999755859</ele>
        <time>2024-10-15T12:44:47.000Z</time>
      </trkpt>
      <trkpt lat="45.07966" lon="5.98109">
        <ele>1611.5999755859</ele>
        <time>2024-10-15T12:44:48.000Z</time>
      </trkpt>
      <trkpt lat="45.07966" lon="5.98109">
        <ele>1611.5999755859</ele>
        <time>2024-10-15T12:44:49.000Z</time>
      </trkpt>
      <trkpt lat="45.07966" lon="5.98109">
        <ele>1611.5999755859</ele>
        <time>2024-10-15T12:44:50.000Z</time>
      </trkpt>
      <trkpt lat="45.07966" lon="5.98109">
        <ele>1611.5999755859</ele>
        <time>2024-10-15T12:44:51.000Z</time>
      </trkpt>
      <trkpt lat="45.07966" lon="5.98109">
        <ele>1611.5999755859</ele>
        <time>2024-10-15T12:44:52.000Z</time>
      </trkpt>
      <trkpt lat="45.07966" lon="5.98109">
        <ele>1611.5999755859</ele>
        <time>2024-10-15T12:44:53.000Z</time>
      </trkpt>
      <trkpt lat="45.07966" lon="5.98109">
        <ele>1611.5999755859</ele>
        <time>2024-10-15T12:44:54.000Z</time>
      </trkpt>
      <trkpt lat="45.07966" lon="5.98109">
        <ele>1611.5999755859</ele>
        <time>2024-10-15T12:44:55.000Z</time>
      </trkpt>
      <trkpt lat="45.07966" lon="5.98109">
        <ele>1611.5999755859</ele>
        <time>2024-10-15T12:44:56.000Z</time>
      </trkpt>
      <trkpt lat="45.07966" lon="5.98109">
        <ele>1611.5999755859</ele>
        <time>2024-10-15T12:44:57.000Z</time>
      </trkpt>
      <trkpt lat="45.07966" lon="5.98109">
        <ele>1611.5999755859</ele>
        <time>2024-10-15T12:44:58.000Z</time>
      </trkpt>
      <trkpt lat="45.07966" lon="5.98109">
        <ele>1611.5999755859</ele>
        <time>2024-10-15T12:44:59.000Z</time>
      </trkpt>
      <trkpt lat="45.07966" lon="5.98109">
        <ele>1611.5999755859</ele>
        <time>2024-10-15T12:45:00.000Z</time>
      </trkpt>
      <trkpt lat="45.07966" lon="5.98109">
        <ele>1611.5999755859</ele>
        <time>2024-10-15T12:45:01.000Z</time>
      </trkpt>
      <trkpt lat="45.07966" lon="5.98109">
        <ele>1611.8000488281</ele>
        <time>2024-10-15T12:45:02.000Z</time>
      </trkpt>
      <trkpt lat="45.07966" lon="5.98109">
        <ele>1611.8000488281</ele>
        <time>2024-10-15T12:45:03.000Z</time>
      </trkpt>
      <trkpt lat="45.07966" lon="5.98109">
        <ele>1611.8000488281</ele>
        <time>2024-10-15T12:45:04.000Z</time>
      </trkpt>
      <trkpt lat="45.07966" lon="5.98109">
        <ele>1611.8000488281</ele>
        <time>2024-10-15T12:45:05.000Z</time>
      </trkpt>
      <trkpt lat="45.07966" lon="5.98109">
        <ele>1611.8000488281</ele>
        <time>2024-10-15T12:45:06.000Z</time>
      </trkpt>
      <trkpt lat="45.07967" lon="5.98109">
        <ele>1611.8000488281</ele>
        <time>2024-10-15T12:45:07.000Z</time>
      </trkpt>
      <trkpt lat="45.07967" lon="5.98109">
        <ele>1611.8000488281</ele>
        <time>2024-10-15T12:45:08.000Z</time>
      </trkpt>
      <trkpt lat="45.07967" lon="5.98109">
        <ele>1611.8000488281</ele>
        <time>2024-10-15T12:45:09.000Z</time>
      </trkpt>
      <trkpt lat="45.07967" lon="5.98109">
        <ele>1611.8000488281</ele>
        <time>2024-10-15T12:45:10.000Z</time>
      </trkpt>
      <trkpt lat="45.07967" lon="5.98109">
        <ele>1611.8000488281</ele>
        <time>2024-10-15T12:45:11.000Z</time>
      </trkpt>
      <trkpt lat="45.07967" lon="5.98109">
        <ele>1612</ele>
        <time>2024-10-15T12:45:12.000Z</time>
      </trkpt>
      <trkpt lat="45.07967" lon="5.98109">
        <ele>1612</ele>
        <time>2024-10-15T12:45:13.000Z</time>
      </trkpt>
      <trkpt lat="45.07967" lon="5.98109">
        <ele>1612</ele>
        <time>2024-10-15T12:45:14.000Z</time>
      </trkpt>
      <trkpt lat="45.07967" lon="5.98109">
        <ele>1612</ele>
        <time>2024-10-15T12:45:15.000Z</time>
      </trkpt>
      <trkpt lat="45.07967" lon="5.98109">
        <ele>1612.1999511719</ele>
        <time>2024-10-15T12:45:16.000Z</time>
      </trkpt>
      <trkpt lat="45.07967" lon="5.98109">
        <ele>1612.1999511719</ele>
        <time>2024-10-15T12:45:17.000Z</time>
      </trkpt>
      <trkpt lat="45.07967" lon="5.98109">
        <ele>1612.4000244141</ele>
        <time>2024-10-15T12:45:18.000Z</time>
      </trkpt>
      <trkpt lat="45.07967" lon="5.98109">
        <ele>1612.5999755859</ele>
        <time>2024-10-15T12:45:19.000Z</time>
      </trkpt>
      <trkpt lat="45.07967" lon="5.98109">
        <ele>1612.5999755859</ele>
        <time>2024-10-15T12:45:20.000Z</time>
      </trkpt>
      <trkpt lat="45.07967" lon="5.98109">
        <ele>1612.4000244141</ele>
        <time>2024-10-15T12:45:21.000Z</time>
      </trkpt>
      <trkpt lat="45.07967" lon="5.98109">
        <ele>1612.4000244141</ele>
        <time>2024-10-15T12:45:22.000Z</time>
      </trkpt>
      <trkpt lat="45.07967" lon="5.98109">
        <ele>1612.1999511719</ele>
        <time>2024-10-15T12:45:23.000Z</time>
      </trkpt>
      <trkpt lat="45.07967" lon="5.98109">
        <ele>1612.1999511719</ele>
        <time>2024-10-15T12:45:24.000Z</time>
      </trkpt>
      <trkpt lat="45.07967" lon="5.98109">
        <ele>1612.1999511719</ele>
        <time>2024-10-15T12:45:25.000Z</time>
      </trkpt>
      <trkpt lat="45.07967" lon="5.98109">
        <ele>1612.1999511719</ele>
        <time>2024-10-15T12:45:26.000Z</time>
      </trkpt>
      <trkpt lat="45.07967" lon="5.98109">
        <ele>1612</ele>
        <time>2024-10-15T12:45:27.000Z</time>
      </trkpt>
      <trkpt lat="45.07967" lon="5.98109">
        <ele>1612</ele>
        <time>2024-10-15T12:45:28.000Z</time>
      </trkpt>
      <trkpt lat="45.07967" lon="5.98108">
        <ele>1612</ele>
        <time>2024-10-15T12:45:29.000Z</time>
      </trkpt>
      <trkpt lat="45.07967" lon="5.98108">
        <ele>1612.1999511719</ele>
        <time>2024-10-15T12:45:30.000Z</time>
      </trkpt>
      <trkpt lat="45.07967" lon="5.98107">
        <ele>1612.1999511719</ele>
        <time>2024-10-15T12:45:31.000Z</time>
      </trkpt>
      <trkpt lat="45.07966" lon="5.98107">
        <ele>1612.1999511719</ele>
        <time>2024-10-15T12:45:32.000Z</time>
      </trkpt>
      <trkpt lat="45.07966" lon="5.98107">
        <ele>1612.1999511719</ele>
        <time>2024-10-15T12:45:33.000Z</time>
      </trkpt>
      <trkpt lat="45.07966" lon="5.98106">
        <ele>1612</ele>
        <time>2024-10-15T12:45:34.000Z</time>
      </trkpt>
      <trkpt lat="45.07966" lon="5.98106">
        <ele>1611.8000488281</ele>
        <time>2024-10-15T12:45:35.000Z</time>
      </trkpt>
      <trkpt lat="45.07965" lon="5.98106">
        <ele>1611.8000488281</ele>
        <time>2024-10-15T12:45:36.000Z</time>
      </trkpt>
      <trkpt lat="45.07965" lon="5.98105">
        <ele>1611.8000488281</ele>
        <time>2024-10-15T12:45:37.000Z</time>
      </trkpt>
      <trkpt lat="45.07965" lon="5.98105">
        <ele>1611.8000488281</ele>
        <time>2024-10-15T12:45:38.000Z</time>
      </trkpt>
      <trkpt lat="45.07965" lon="5.98105">
        <ele>1611.8000488281</ele>
        <time>2024-10-15T12:45:39.000Z</time>
      </trkpt>
      <trkpt lat="45.07965" lon="5.98105">
        <ele>1611.8000488281</ele>
        <time>2024-10-15T12:45:40.000Z</time>
      </trkpt>
      <trkpt lat="45.07965" lon="5.98105">
        <ele>1612</ele>
        <time>2024-10-15T12:45:41.000Z</time>
      </trkpt>
      <trkpt lat="45.07965" lon="5.98105">
        <ele>1612</ele>
        <time>2024-10-15T12:45:42.000Z</time>
      </trkpt>
      <trkpt lat="45.07965" lon="5.98105">
        <ele>1612</ele>
        <time>2024-10-15T12:45:43.000Z</time>
      </trkpt>
      <trkpt lat="45.07965" lon="5.98105">
        <ele>1612</ele>
        <time>2024-10-15T12:45:44.000Z</time>
      </trkpt>
      <trkpt lat="45.07965" lon="5.98105">
        <ele>1612</ele>
        <time>2024-10-15T12:45:45.000Z</time>
      </trkpt>
      <trkpt lat="45.07965" lon="5.98105">
        <ele>1612</ele>
        <time>2024-10-15T12:45:46.000Z</time>
      </trkpt>
      <trkpt lat="45.07965" lon="5.98105">
        <ele>1612.1999511719</ele>
        <time>2024-10-15T12:45:47.000Z</time>
      </trkpt>
      <trkpt lat="45.07965" lon="5.98105">
        <ele>1612.4000244141</ele>
        <time>2024-10-15T12:45:48.000Z</time>
      </trkpt>
      <trkpt lat="45.07965" lon="5.98105">
        <ele>1612.4000244141</ele>
        <time>2024-10-15T12:45:49.000Z</time>
      </trkpt>
      <trkpt lat="45.07965" lon="5.98105">
        <ele>1612.4000244141</ele>
        <time>2024-10-15T12:45:50.000Z</time>
      </trkpt>
      <trkpt lat="45.07965" lon="5.98105">
        <ele>1612.4000244141</ele>
        <time>2024-10-15T12:45:51.000Z</time>
      </trkpt>
      <trkpt lat="45.07965" lon="5.98105">
        <ele>1612.4000244141</ele>
        <time>2024-10-15T12:45:52.000Z</time>
      </trkpt>
      <trkpt lat="45.07965" lon="5.98105">
        <ele>1612.1999511719</ele>
        <time>2024-10-15T12:45:53.000Z</time>
      </trkpt>
      <trkpt lat="45.07965" lon="5.98105">
        <ele>1612</ele>
        <time>2024-10-15T12:45:54.000Z</time>
      </trkpt>
      <trkpt lat="45.07965" lon="5.98105">
        <ele>1611.8000488281</ele>
        <time>2024-10-15T12:45:55.000Z</time>
      </trkpt>
      <trkpt lat="45.07966" lon="5.98105">
        <ele>1611.5999755859</ele>
        <time>2024-10-15T12:45:56.000Z</time>
      </trkpt>
      <trkpt lat="45.07966" lon="5.98105">
        <ele>1611.5999755859</ele>
        <time>2024-10-15T12:45:57.000Z</time>
      </trkpt>
      <trkpt lat="45.07966" lon="5.98105">
        <ele>1611.4000244141</ele>
        <time>2024-10-15T12:45:58.000Z</time>
      </trkpt>
      <trkpt lat="45.07966" lon="5.98105">
        <ele>1611.4000244141</ele>
        <time>2024-10-15T12:45:59.000Z</time>
      </trkpt>
      <trkpt lat="45.07966" lon="5.98105">
        <ele>1611.4000244141</ele>
        <time>2024-10-15T12:46:00.000Z</time>
      </trkpt>
      <trkpt lat="45.07966" lon="5.98105">
        <ele>1611.4000244141</ele>
        <time>2024-10-15T12:46:01.000Z</time>
      </trkpt>
      <trkpt lat="45.07966" lon="5.98105">
        <ele>1611.4000244141</ele>
        <time>2024-10-15T12:46:02.000Z</time>
      </trkpt>
      <trkpt lat="45.07966" lon="5.98105">
        <ele>1611.1999511719</ele>
        <time>2024-10-15T12:46:03.000Z</time>
      </trkpt>
      <trkpt lat="45.07966" lon="5.98105">
        <ele>1611</ele>
        <time>2024-10-15T12:46:04.000Z</time>
      </trkpt>
      <trkpt lat="45.07966" lon="5.98105">
        <ele>1610.8000488281</ele>
        <time>2024-10-15T12:46:05.000Z</time>
      </trkpt>
      <trkpt lat="45.07966" lon="5.98106">
        <ele>1610.8000488281</ele>
        <time>2024-10-15T12:46:06.000Z</time>
      </trkpt>
      <trkpt lat="45.07966" lon="5.98106">
        <ele>1610.8000488281</ele>
        <time>2024-10-15T12:46:07.000Z</time>
      </trkpt>
      <trkpt lat="45.07966" lon="5.98106">
        <ele>1610.8000488281</ele>
        <time>2024-10-15T12:46:08.000Z</time>
      </trkpt>
      <trkpt lat="45.07966" lon="5.98106">
        <ele>1610.8000488281</ele>
        <time>2024-10-15T12:46:09.000Z</time>
      </trkpt>
      <trkpt lat="45.07966" lon="5.98106">
        <ele>1610.8000488281</ele>
        <time>2024-10-15T12:46:10.000Z</time>
      </trkpt>
      <trkpt lat="45.07966" lon="5.98106">
        <ele>1610.8000488281</ele>
        <time>2024-10-15T12:46:11.000Z</time>
      </trkpt>
      <trkpt lat="45.07966" lon="5.98106">
        <ele>1610.8000488281</ele>
        <time>2024-10-15T12:46:12.000Z</time>
      </trkpt>
      <trkpt lat="45.07966" lon="5.98106">
        <ele>1610.8000488281</ele>
        <time>2024-10-15T12:46:13.000Z</time>
      </trkpt>
      <trkpt lat="45.07966" lon="5.98106">
        <ele>1610.5999755859</ele>
        <time>2024-10-15T12:46:14.000Z</time>
      </trkpt>
      <trkpt lat="45.07966" lon="5.98106">
        <ele>1610.5999755859</ele>
        <time>2024-10-15T12:46:15.000Z</time>
      </trkpt>
      <trkpt lat="45.07966" lon="5.98106">
        <ele>1610.5999755859</ele>
        <time>2024-10-15T12:46:16.000Z</time>
      </trkpt>
      <trkpt lat="45.07966" lon="5.98106">
        <ele>1610.5999755859</ele>
        <time>2024-10-15T12:46:17.000Z</time>
      </trkpt>
      <trkpt lat="45.07966" lon="5.98106">
        <ele>1610.5999755859</ele>
        <time>2024-10-15T12:46:18.000Z</time>
      </trkpt>
      <trkpt lat="45.07966" lon="5.98106">
        <ele>1610.5999755859</ele>
        <time>2024-10-15T12:46:19.000Z</time>
      </trkpt>
      <trkpt lat="45.07966" lon="5.98106">
        <ele>1610.5999755859</ele>
        <time>2024-10-15T12:46:20.000Z</time>
      </trkpt>
      <trkpt lat="45.07966" lon="5.98106">
        <ele>1610.5999755859</ele>
        <time>2024-10-15T12:46:21.000Z</time>
      </trkpt>
      <trkpt lat="45.07966" lon="5.98106">
        <ele>1610.5999755859</ele>
        <time>2024-10-15T12:46:22.000Z</time>
      </trkpt>
      <trkpt lat="45.07966" lon="5.98106">
        <ele>1610.5999755859</ele>
        <time>2024-10-15T12:46:23.000Z</time>
      </trkpt>
      <trkpt lat="45.07966" lon="5.98106">
        <ele>1610.4000244141</ele>
        <time>2024-10-15T12:46:24.000Z</time>
      </trkpt>
      <trkpt lat="45.07966" lon="5.98106">
        <ele>1610.4000244141</ele>
        <time>2024-10-15T12:46:25.000Z</time>
      </trkpt>
      <trkpt lat="45.07966" lon="5.98106">
        <ele>1610.1999511719</ele>
        <time>2024-10-15T12:46:26.000Z</time>
      </trkpt>
      <trkpt lat="45.07966" lon="5.98106">
        <ele>1610.1999511719</ele>
        <time>2024-10-15T12:46:27.000Z</time>
      </trkpt>
      <trkpt lat="45.07966" lon="5.98106">
        <ele>1610.1999511719</ele>
        <time>2024-10-15T12:46:28.000Z</time>
      </trkpt>
      <trkpt lat="45.07966" lon="5.98106">
        <ele>1610.1999511719</ele>
        <time>2024-10-15T12:46:29.000Z</time>
      </trkpt>
      <trkpt lat="45.07966" lon="5.98106">
        <ele>1610.1999511719</ele>
        <time>2024-10-15T12:46:30.000Z</time>
      </trkpt>
      <trkpt lat="45.07966" lon="5.98106">
        <ele>1610.1999511719</ele>
        <time>2024-10-15T12:46:31.000Z</time>
      </trkpt>
      <trkpt lat="45.07966" lon="5.98106">
        <ele>1610</ele>
        <time>2024-10-15T12:46:32.000Z</time>
      </trkpt>
      <trkpt lat="45.07966" lon="5.98106">
        <ele>1610</ele>
        <time>2024-10-15T12:46:33.000Z</time>
      </trkpt>
      <trkpt lat="45.07966" lon="5.98106">
        <ele>1610</ele>
        <time>2024-10-15T12:46:34.000Z</time>
      </trkpt>
      <trkpt lat="45.07966" lon="5.98106">
        <ele>1610</ele>
        <time>2024-10-15T12:46:35.000Z</time>
      </trkpt>
      <trkpt lat="45.07966" lon="5.98106">
        <ele>1610</ele>
        <time>2024-10-15T12:46:36.000Z</time>
      </trkpt>
      <trkpt lat="45.07967" lon="5.98106">
        <ele>1610</ele>
        <time>2024-10-15T12:46:37.000Z</time>
      </trkpt>
      <trkpt lat="45.07967" lon="5.98106">
        <ele>1610</ele>
        <time>2024-10-15T12:46:38.000Z</time>
      </trkpt>
      <trkpt lat="45.07967" lon="5.98106">
        <ele>1610</ele>
        <time>2024-10-15T12:46:39.000Z</time>
      </trkpt>
      <trkpt lat="45.07967" lon="5.98106">
        <ele>1610</ele>
        <time>2024-10-15T12:46:40.000Z</time>
      </trkpt>
      <trkpt lat="45.07967" lon="5.98106">
        <ele>1609.8000488281</ele>
        <time>2024-10-15T12:46:41.000Z</time>
      </trkpt>
      <trkpt lat="45.07967" lon="5.98106">
        <ele>1609.8000488281</ele>
        <time>2024-10-15T12:46:42.000Z</time>
      </trkpt>
      <trkpt lat="45.07967" lon="5.98106">
        <ele>1609.8000488281</ele>
        <time>2024-10-15T12:46:43.000Z</time>
      </trkpt>
      <trkpt lat="45.07967" lon="5.98106">
        <ele>1609.8000488281</ele>
        <time>2024-10-15T12:46:44.000Z</time>
      </trkpt>
      <trkpt lat="45.07967" lon="5.98106">
        <ele>1609.8000488281</ele>
        <time>2024-10-15T12:46:45.000Z</time>
      </trkpt>
      <trkpt lat="45.07967" lon="5.98106">
        <ele>1609.8000488281</ele>
        <time>2024-10-15T12:46:46.000Z</time>
      </trkpt>
      <trkpt lat="45.07967" lon="5.98106">
        <ele>1609.8000488281</ele>
        <time>2024-10-15T12:46:47.000Z</time>
      </trkpt>
      <trkpt lat="45.07967" lon="5.98106">
        <ele>1609.8000488281</ele>
        <time>2024-10-15T12:46:48.000Z</time>
      </trkpt>
      <trkpt lat="45.07967" lon="5.98106">
        <ele>1609.8000488281</ele>
        <time>2024-10-15T12:46:49.000Z</time>
      </trkpt>
      <trkpt lat="45.07967" lon="5.98106">
        <ele>1609.8000488281</ele>
        <time>2024-10-15T12:46:50.000Z</time>
      </trkpt>
      <trkpt lat="45.07967" lon="5.98106">
        <ele>1609.8000488281</ele>
        <time>2024-10-15T12:46:51.000Z</time>
      </trkpt>
      <trkpt lat="45.07967" lon="5.98106">
        <ele>1609.5999755859</ele>
        <time>2024-10-15T12:46:52.000Z</time>
      </trkpt>
      <trkpt lat="45.07967" lon="5.98106">
        <ele>1609.5999755859</ele>
        <time>2024-10-15T12:46:53.000Z</time>
      </trkpt>
      <trkpt lat="45.07967" lon="5.98106">
        <ele>1609.5999755859</ele>
        <time>2024-10-15T12:46:54.000Z</time>
      </trkpt>
      <trkpt lat="45.07967" lon="5.98106">
        <ele>1609.5999755859</ele>
        <time>2024-10-15T12:46:55.000Z</time>
      </trkpt>
      <trkpt lat="45.07967" lon="5.98106">
        <ele>1609.5999755859</ele>
        <time>2024-10-15T12:46:56.000Z</time>
      </trkpt>
      <trkpt lat="45.07967" lon="5.98106">
        <ele>1609.5999755859</ele>
        <time>2024-10-15T12:46:57.000Z</time>
      </trkpt>
      <trkpt lat="45.07967" lon="5.98106">
        <ele>1609.4000244141</ele>
        <time>2024-10-15T12:46:58.000Z</time>
      </trkpt>
      <trkpt lat="45.07966" lon="5.98106">
        <ele>1609.4000244141</ele>
        <time>2024-10-15T12:46:59.000Z</time>
      </trkpt>
      <trkpt lat="45.07966" lon="5.98106">
        <ele>1609.4000244141</ele>
        <time>2024-10-15T12:47:00.000Z</time>
      </trkpt>
      <trkpt lat="45.07966" lon="5.98106">
        <ele>1609.4000244141</ele>
        <time>2024-10-15T12:47:01.000Z</time>
      </trkpt>
      <trkpt lat="45.07966" lon="5.98106">
        <ele>1609.4000244141</ele>
        <time>2024-10-15T12:47:02.000Z</time>
      </trkpt>
      <trkpt lat="45.07966" lon="5.98106">
        <ele>1609.4000244141</ele>
        <time>2024-10-15T12:47:03.000Z</time>
      </trkpt>
      <trkpt lat="45.07966" lon="5.98106">
        <ele>1609.4000244141</ele>
        <time>2024-10-15T12:47:04.000Z</time>
      </trkpt>
      <trkpt lat="45.07966" lon="5.98106">
        <ele>1609.4000244141</ele>
        <time>2024-10-15T12:47:05.000Z</time>
      </trkpt>
      <trkpt lat="45.07966" lon="5.98106">
        <ele>1609.4000244141</ele>
        <time>2024-10-15T12:47:06.000Z</time>
      </trkpt>
      <trkpt lat="45.07966" lon="5.98106">
        <ele>1609.4000244141</ele>
        <time>2024-10-15T12:47:07.000Z</time>
      </trkpt>
      <trkpt lat="45.07966" lon="5.98106">
        <ele>1609.4000244141</ele>
        <time>2024-10-15T12:47:08.000Z</time>
      </trkpt>
      <trkpt lat="45.07966" lon="5.98106">
        <ele>1609.4000244141</ele>
        <time>2024-10-15T12:47:09.000Z</time>
      </trkpt>
      <trkpt lat="45.07966" lon="5.98106">
        <ele>1609.4000244141</ele>
        <time>2024-10-15T12:47:10.000Z</time>
      </trkpt>
      <trkpt lat="45.07966" lon="5.98106">
        <ele>1609.4000244141</ele>
        <time>2024-10-15T12:47:11.000Z</time>
      </trkpt>
      <trkpt lat="45.07966" lon="5.98106">
        <ele>1609.4000244141</ele>
        <time>2024-10-15T12:47:12.000Z</time>
      </trkpt>
      <trkpt lat="45.07966" lon="5.98106">
        <ele>1609.4000244141</ele>
        <time>2024-10-15T12:47:13.000Z</time>
      </trkpt>
      <trkpt lat="45.07966" lon="5.98106">
        <ele>1609.4000244141</ele>
        <time>2024-10-15T12:47:14.000Z</time>
      </trkpt>
      <trkpt lat="45.07966" lon="5.98106">
        <ele>1609.4000244141</ele>
        <time>2024-10-15T12:47:15.000Z</time>
      </trkpt>
      <trkpt lat="45.07966" lon="5.98106">
        <ele>1609.4000244141</ele>
        <time>2024-10-15T12:47:16.000Z</time>
      </trkpt>
      <trkpt lat="45.07966" lon="5.98106">
        <ele>1609.4000244141</ele>
        <time>2024-10-15T12:47:17.000Z</time>
      </trkpt>
      <trkpt lat="45.07966" lon="5.98106">
        <ele>1609.4000244141</ele>
        <time>2024-10-15T12:47:18.000Z</time>
      </trkpt>
      <trkpt lat="45.07966" lon="5.98106">
        <ele>1609.4000244141</ele>
        <time>2024-10-15T12:47:19.000Z</time>
      </trkpt>
      <trkpt lat="45.07966" lon="5.98106">
        <ele>1609.5999755859</ele>
        <time>2024-10-15T12:47:20.000Z</time>
      </trkpt>
      <trkpt lat="45.07966" lon="5.98106">
        <ele>1609.5999755859</ele>
        <time>2024-10-15T12:47:21.000Z</time>
      </trkpt>
      <trkpt lat="45.07966" lon="5.98106">
        <ele>1609.5999755859</ele>
        <time>2024-10-15T12:47:22.000Z</time>
      </trkpt>
      <trkpt lat="45.07966" lon="5.98106">
        <ele>1609.5999755859</ele>
        <time>2024-10-15T12:47:23.000Z</time>
      </trkpt>
      <trkpt lat="45.07966" lon="5.98106">
        <ele>1609.5999755859</ele>
        <time>2024-10-15T12:47:24.000Z</time>
      </trkpt>
      <trkpt lat="45.07966" lon="5.98106">
        <ele>1609.5999755859</ele>
        <time>2024-10-15T12:47:25.000Z</time>
      </trkpt>
      <trkpt lat="45.07966" lon="5.98106">
        <ele>1609.5999755859</ele>
        <time>2024-10-15T12:47:26.000Z</time>
      </trkpt>
      <trkpt lat="45.07966" lon="5.98106">
        <ele>1609.8000488281</ele>
        <time>2024-10-15T12:47:27.000Z</time>
      </trkpt>
      <trkpt lat="45.07966" lon="5.98106">
        <ele>1610</ele>
        <time>2024-10-15T12:47:28.000Z</time>
      </trkpt>
      <trkpt lat="45.07966" lon="5.98106">
        <ele>1610</ele>
        <time>2024-10-15T12:47:29.000Z</time>
      </trkpt>
      <trkpt lat="45.07966" lon="5.98106">
        <ele>1610</ele>
        <time>2024-10-15T12:47:30.000Z</time>
      </trkpt>
      <trkpt lat="45.07966" lon="5.98106">
        <ele>1610</ele>
        <time>2024-10-15T12:47:31.000Z</time>
      </trkpt>
      <trkpt lat="45.07966" lon="5.98106">
        <ele>1610</ele>
        <time>2024-10-15T12:47:32.000Z</time>
      </trkpt>
      <trkpt lat="45.07966" lon="5.98106">
        <ele>1610.1999511719</ele>
        <time>2024-10-15T12:47:33.000Z</time>
      </trkpt>
      <trkpt lat="45.07966" lon="5.98106">
        <ele>1610.1999511719</ele>
        <time>2024-10-15T12:47:34.000Z</time>
      </trkpt>
      <trkpt lat="45.07966" lon="5.98106">
        <ele>1610.1999511719</ele>
        <time>2024-10-15T12:47:35.000Z</time>
      </trkpt>
      <trkpt lat="45.07966" lon="5.98106">
        <ele>1610.1999511719</ele>
        <time>2024-10-15T12:47:36.000Z</time>
      </trkpt>
      <trkpt lat="45.07966" lon="5.98106">
        <ele>1610.1999511719</ele>
        <time>2024-10-15T12:47:37.000Z</time>
      </trkpt>
      <trkpt lat="45.07966" lon="5.98106">
        <ele>1610.1999511719</ele>
        <time>2024-10-15T12:47:38.000Z</time>
      </trkpt>
      <trkpt lat="45.07966" lon="5.98106">
        <ele>1610.1999511719</ele>
        <time>2024-10-15T12:47:39.000Z</time>
      </trkpt>
      <trkpt lat="45.07966" lon="5.98106">
        <ele>1610.1999511719</ele>
        <time>2024-10-15T12:47:40.000Z</time>
      </trkpt>
      <trkpt lat="45.07966" lon="5.98106">
        <ele>1610.1999511719</ele>
        <time>2024-10-15T12:47:41.000Z</time>
      </trkpt>
      <trkpt lat="45.07966" lon="5.98106">
        <ele>1610.4000244141</ele>
        <time>2024-10-15T12:47:42.000Z</time>
      </trkpt>
      <trkpt lat="45.07966" lon="5.98106">
        <ele>1610.4000244141</ele>
        <time>2024-10-15T12:47:43.000Z</time>
      </trkpt>
      <trkpt lat="45.07966" lon="5.98106">
        <ele>1610.4000244141</ele>
        <time>2024-10-15T12:47:44.000Z</time>
      </trkpt>
      <trkpt lat="45.07966" lon="5.98106">
        <ele>1610.4000244141</ele>
        <time>2024-10-15T12:47:45.000Z</time>
      </trkpt>
      <trkpt lat="45.07966" lon="5.98106">
        <ele>1610.4000244141</ele>
        <time>2024-10-15T12:47:46.000Z</time>
      </trkpt>
      <trkpt lat="45.07966" lon="5.98106">
        <ele>1610.4000244141</ele>
        <time>2024-10-15T12:47:47.000Z</time>
      </trkpt>
      <trkpt lat="45.07966" lon="5.98106">
        <ele>1610.4000244141</ele>
        <time>2024-10-15T12:47:48.000Z</time>
      </trkpt>
      <trkpt lat="45.07966" lon="5.98106">
        <ele>1610.1999511719</ele>
        <time>2024-10-15T12:47:49.000Z</time>
      </trkpt>
      <trkpt lat="45.07966" lon="5.98106">
        <ele>1610</ele>
        <time>2024-10-15T12:47:50.000Z</time>
      </trkpt>
      <trkpt lat="45.07966" lon="5.98106">
        <ele>1609.8000488281</ele>
        <time>2024-10-15T12:47:51.000Z</time>
      </trkpt>
      <trkpt lat="45.07966" lon="5.98106">
        <ele>1609.4000244141</ele>
        <time>2024-10-15T12:47:52.000Z</time>
      </trkpt>
      <trkpt lat="45.07966" lon="5.98106">
        <ele>1609.4000244141</ele>
        <time>2024-10-15T12:47:53.000Z</time>
      </trkpt>
      <trkpt lat="45.07966" lon="5.98106">
        <ele>1609.4000244141</ele>
        <time>2024-10-15T12:47:54.000Z</time>
      </trkpt>
      <trkpt lat="45.07966" lon="5.98106">
        <ele>1609.4000244141</ele>
        <time>2024-10-15T12:47:55.000Z</time>
      </trkpt>
      <trkpt lat="45.07966" lon="5.98106">
        <ele>1610</ele>
        <time>2024-10-15T12:47:56.000Z</time>
      </trkpt>
      <trkpt lat="45.07966" lon="5.98106">
        <ele>1610.1999511719</ele>
        <time>2024-10-15T12:47:57.000Z</time>
      </trkpt>
      <trkpt lat="45.07966" lon="5.98106">
        <ele>1610.1999511719</ele>
        <time>2024-10-15T12:47:58.000Z</time>
      </trkpt>
      <trkpt lat="45.07966" lon="5.98106">
        <ele>1610.1999511719</ele>
        <time>2024-10-15T12:47:59.000Z</time>
      </trkpt>
      <trkpt lat="45.07966" lon="5.98106">
        <ele>1610.1999511719</ele>
        <time>2024-10-15T12:48:00.000Z</time>
      </trkpt>
      <trkpt lat="45.07966" lon="5.98106">
        <ele>1610.1999511719</ele>
        <time>2024-10-15T12:48:01.000Z</time>
      </trkpt>
      <trkpt lat="45.07966" lon="5.98106">
        <ele>1610.1999511719</ele>
        <time>2024-10-15T12:48:02.000Z</time>
      </trkpt>
      <trkpt lat="45.07966" lon="5.98106">
        <ele>1610.1999511719</ele>
        <time>2024-10-15T12:48:03.000Z</time>
      </trkpt>
      <trkpt lat="45.07966" lon="5.98106">
        <ele>1610.1999511719</ele>
        <time>2024-10-15T12:48:04.000Z</time>
      </trkpt>
      <trkpt lat="45.07966" lon="5.98106">
        <ele>1610.1999511719</ele>
        <time>2024-10-15T12:48:05.000Z</time>
      </trkpt>
      <trkpt lat="45.07966" lon="5.98106">
        <ele>1610</ele>
        <time>2024-10-15T12:48:06.000Z</time>
      </trkpt>
      <trkpt lat="45.07966" lon="5.98106">
        <ele>1609.8000488281</ele>
        <time>2024-10-15T12:48:07.000Z</time>
      </trkpt>
      <trkpt lat="45.07966" lon="5.98106">
        <ele>1609.5999755859</ele>
        <time>2024-10-15T12:48:08.000Z</time>
      </trkpt>
      <trkpt lat="45.07966" lon="5.98106">
        <ele>1609.5999755859</ele>
        <time>2024-10-15T12:48:09.000Z</time>
      </trkpt>
      <trkpt lat="45.07966" lon="5.98106">
        <ele>1609.5999755859</ele>
        <time>2024-10-15T12:48:10.000Z</time>
      </trkpt>
      <trkpt lat="45.07966" lon="5.98106">
        <ele>1609.5999755859</ele>
        <time>2024-10-15T12:48:11.000Z</time>
      </trkpt>
      <trkpt lat="45.07966" lon="5.98106">
        <ele>1609.5999755859</ele>
        <time>2024-10-15T12:48:12.000Z</time>
      </trkpt>
      <trkpt lat="45.07966" lon="5.98106">
        <ele>1609.5999755859</ele>
        <time>2024-10-15T12:48:13.000Z</time>
      </trkpt>
      <trkpt lat="45.07966" lon="5.98106">
        <ele>1609.8000488281</ele>
        <time>2024-10-15T12:48:14.000Z</time>
      </trkpt>
      <trkpt lat="45.07966" lon="5.98106">
        <ele>1609.8000488281</ele>
        <time>2024-10-15T12:48:15.000Z</time>
      </trkpt>
      <trkpt lat="45.07966" lon="5.98106">
        <ele>1609.8000488281</ele>
        <time>2024-10-15T12:48:16.000Z</time>
      </trkpt>
      <trkpt lat="45.07966" lon="5.98106">
        <ele>1610</ele>
        <time>2024-10-15T12:48:17.000Z</time>
      </trkpt>
      <trkpt lat="45.07966" lon="5.98106">
        <ele>1610</ele>
        <time>2024-10-15T12:48:18.000Z</time>
      </trkpt>
      <trkpt lat="45.07966" lon="5.98106">
        <ele>1610</ele>
        <time>2024-10-15T12:48:19.000Z</time>
      </trkpt>
      <trkpt lat="45.07966" lon="5.98106">
        <ele>1610</ele>
        <time>2024-10-15T12:48:20.000Z</time>
      </trkpt>
      <trkpt lat="45.07966" lon="5.98106">
        <ele>1610</ele>
        <time>2024-10-15T12:48:21.000Z</time>
      </trkpt>
      <trkpt lat="45.07966" lon="5.98106">
        <ele>1610.1999511719</ele>
        <time>2024-10-15T12:48:22.000Z</time>
      </trkpt>
      <trkpt lat="45.07966" lon="5.98106">
        <ele>1610.1999511719</ele>
        <time>2024-10-15T12:48:23.000Z</time>
      </trkpt>
      <trkpt lat="45.07966" lon="5.98106">
        <ele>1610.4000244141</ele>
        <time>2024-10-15T12:48:24.000Z</time>
      </trkpt>
      <trkpt lat="45.07966" lon="5.98106">
        <ele>1610.4000244141</ele>
        <time>2024-10-15T12:48:25.000Z</time>
      </trkpt>
      <trkpt lat="45.07966" lon="5.98106">
        <ele>1610.4000244141</ele>
        <time>2024-10-15T12:48:26.000Z</time>
      </trkpt>
      <trkpt lat="45.07966" lon="5.98106">
        <ele>1610.4000244141</ele>
        <time>2024-10-15T12:48:27.000Z</time>
      </trkpt>
      <trkpt lat="45.07966" lon="5.98106">
        <ele>1610.4000244141</ele>
        <time>2024-10-15T12:48:28.000Z</time>
      </trkpt>
      <trkpt lat="45.07966" lon="5.98106">
        <ele>1610.4000244141</ele>
        <time>2024-10-15T12:48:29.000Z</time>
      </trkpt>
      <trkpt lat="45.07966" lon="5.98106">
        <ele>1610.4000244141</ele>
        <time>2024-10-15T12:48:30.000Z</time>
      </trkpt>
      <trkpt lat="45.07966" lon="5.98106">
        <ele>1610.1999511719</ele>
        <time>2024-10-15T12:48:31.000Z</time>
      </trkpt>
      <trkpt lat="45.07966" lon="5.98106">
        <ele>1610.1999511719</ele>
        <time>2024-10-15T12:48:32.000Z</time>
      </trkpt>
      <trkpt lat="45.07966" lon="5.98106">
        <ele>1610.1999511719</ele>
        <time>2024-10-15T12:48:33.000Z</time>
      </trkpt>
      <trkpt lat="45.07966" lon="5.98106">
        <ele>1610.1999511719</ele>
        <time>2024-10-15T12:48:34.000Z</time>
      </trkpt>
      <trkpt lat="45.07966" lon="5.98106">
        <ele>1610.4000244141</ele>
        <time>2024-10-15T12:48:35.000Z</time>
      </trkpt>
      <trkpt lat="45.07966" lon="5.98106">
        <ele>1610.5999755859</ele>
        <time>2024-10-15T12:48:36.000Z</time>
      </trkpt>
      <trkpt lat="45.07966" lon="5.98106">
        <ele>1610.8000488281</ele>
        <time>2024-10-15T12:48:37.000Z</time>
      </trkpt>
      <trkpt lat="45.07966" lon="5.98106">
        <ele>1611</ele>
        <time>2024-10-15T12:48:38.000Z</time>
      </trkpt>
      <trkpt lat="45.07966" lon="5.98106">
        <ele>1611</ele>
        <time>2024-10-15T12:48:39.000Z</time>
      </trkpt>
      <trkpt lat="45.07966" lon="5.98106">
        <ele>1611</ele>
        <time>2024-10-15T12:48:40.000Z</time>
      </trkpt>
      <trkpt lat="45.07966" lon="5.98106">
        <ele>1611</ele>
        <time>2024-10-15T12:48:41.000Z</time>
      </trkpt>
      <trkpt lat="45.07966" lon="5.98106">
        <ele>1611.1999511719</ele>
        <time>2024-10-15T12:48:42.000Z</time>
      </trkpt>
      <trkpt lat="45.07966" lon="5.98106">
        <ele>1611.1999511719</ele>
        <time>2024-10-15T12:48:43.000Z</time>
      </trkpt>
      <trkpt lat="45.07966" lon="5.98106">
        <ele>1611.1999511719</ele>
        <time>2024-10-15T12:48:44.000Z</time>
      </trkpt>
      <trkpt lat="45.07966" lon="5.98106">
        <ele>1611.1999511719</ele>
        <time>2024-10-15T12:48:45.000Z</time>
      </trkpt>
      <trkpt lat="45.07966" lon="5.98106">
        <ele>1611.1999511719</ele>
        <time>2024-10-15T12:48:46.000Z</time>
      </trkpt>
      <trkpt lat="45.07966" lon="5.98106">
        <ele>1611.1999511719</ele>
        <time>2024-10-15T12:48:47.000Z</time>
      </trkpt>
      <trkpt lat="45.07966" lon="5.98106">
        <ele>1611.1999511719</ele>
        <time>2024-10-15T12:48:48.000Z</time>
      </trkpt>
      <trkpt lat="45.07966" lon="5.98106">
        <ele>1611.1999511719</ele>
        <time>2024-10-15T12:48:49.000Z</time>
      </trkpt>
      <trkpt lat="45.07966" lon="5.98106">
        <ele>1611</ele>
        <time>2024-10-15T12:48:50.000Z</time>
      </trkpt>
      <trkpt lat="45.07966" lon="5.98106">
        <ele>1611</ele>
        <time>2024-10-15T12:48:51.000Z</time>
      </trkpt>
      <trkpt lat="45.07966" lon="5.98106">
        <ele>1611</ele>
        <time>2024-10-15T12:48:52.000Z</time>
      </trkpt>
      <trkpt lat="45.07966" lon="5.98106">
        <ele>1610.8000488281</ele>
        <time>2024-10-15T12:48:53.000Z</time>
      </trkpt>
      <trkpt lat="45.07966" lon="5.98106">
        <ele>1610.8000488281</ele>
        <time>2024-10-15T12:48:54.000Z</time>
      </trkpt>
      <trkpt lat="45.07966" lon="5.98106">
        <ele>1610.5999755859</ele>
        <time>2024-10-15T12:48:55.000Z</time>
      </trkpt>
      <trkpt lat="45.07966" lon="5.98106">
        <ele>1610.5999755859</ele>
        <time>2024-10-15T12:48:56.000Z</time>
      </trkpt>
      <trkpt lat="45.07966" lon="5.98106">
        <ele>1610.5999755859</ele>
        <time>2024-10-15T12:48:57.000Z</time>
      </trkpt>
      <trkpt lat="45.07966" lon="5.98106">
        <ele>1610.5999755859</ele>
        <time>2024-10-15T12:48:58.000Z</time>
      </trkpt>
      <trkpt lat="45.07966" lon="5.98106">
        <ele>1610.5999755859</ele>
        <time>2024-10-15T12:48:59.000Z</time>
      </trkpt>
      <trkpt lat="45.07966" lon="5.98106">
        <ele>1610.5999755859</ele>
        <time>2024-10-15T12:49:00.000Z</time>
      </trkpt>
      <trkpt lat="45.07966" lon="5.98106">
        <ele>1610.5999755859</ele>
        <time>2024-10-15T12:49:01.000Z</time>
      </trkpt>
      <trkpt lat="45.07966" lon="5.98106">
        <ele>1610.5999755859</ele>
        <time>2024-10-15T12:49:02.000Z</time>
      </trkpt>
      <trkpt lat="45.07966" lon="5.98106">
        <ele>1610.5999755859</ele>
        <time>2024-10-15T12:49:03.000Z</time>
      </trkpt>
      <trkpt lat="45.07966" lon="5.98106">
        <ele>1610.8000488281</ele>
        <time>2024-10-15T12:49:04.000Z</time>
      </trkpt>
      <trkpt lat="45.07966" lon="5.98106">
        <ele>1611.1999511719</ele>
        <time>2024-10-15T12:49:05.000Z</time>
      </trkpt>
      <trkpt lat="45.07966" lon="5.98106">
        <ele>1611.4000244141</ele>
        <time>2024-10-15T12:49:06.000Z</time>
      </trkpt>
      <trkpt lat="45.07966" lon="5.98106">
        <ele>1611.4000244141</ele>
        <time>2024-10-15T12:49:07.000Z</time>
      </trkpt>
      <trkpt lat="45.07966" lon="5.98106">
        <ele>1611.4000244141</ele>
        <time>2024-10-15T12:49:08.000Z</time>
      </trkpt>
      <trkpt lat="45.07966" lon="5.98106">
        <ele>1611.4000244141</ele>
        <time>2024-10-15T12:49:09.000Z</time>
      </trkpt>
      <trkpt lat="45.07966" lon="5.98106">
        <ele>1611.4000244141</ele>
        <time>2024-10-15T12:49:10.000Z</time>
      </trkpt>
      <trkpt lat="45.07966" lon="5.98106">
        <ele>1611.1999511719</ele>
        <time>2024-10-15T12:49:11.000Z</time>
      </trkpt>
      <trkpt lat="45.07966" lon="5.98106">
        <ele>1611</ele>
        <time>2024-10-15T12:49:12.000Z</time>
      </trkpt>
      <trkpt lat="45.07966" lon="5.98106">
        <ele>1611</ele>
        <time>2024-10-15T12:49:13.000Z</time>
      </trkpt>
      <trkpt lat="45.07966" lon="5.98106">
        <ele>1610.8000488281</ele>
        <time>2024-10-15T12:49:14.000Z</time>
      </trkpt>
      <trkpt lat="45.07966" lon="5.98106">
        <ele>1610.8000488281</ele>
        <time>2024-10-15T12:49:15.000Z</time>
      </trkpt>
      <trkpt lat="45.07966" lon="5.98106">
        <ele>1610.8000488281</ele>
        <time>2024-10-15T12:49:16.000Z</time>
      </trkpt>
      <trkpt lat="45.07966" lon="5.98106">
        <ele>1610.8000488281</ele>
        <time>2024-10-15T12:49:17.000Z</time>
      </trkpt>
      <trkpt lat="45.07966" lon="5.98106">
        <ele>1610.8000488281</ele>
        <time>2024-10-15T12:49:18.000Z</time>
      </trkpt>
      <trkpt lat="45.07966" lon="5.98106">
        <ele>1610.8000488281</ele>
        <time>2024-10-15T12:49:19.000Z</time>
      </trkpt>
      <trkpt lat="45.07966" lon="5.98106">
        <ele>1610.8000488281</ele>
        <time>2024-10-15T12:49:20.000Z</time>
      </trkpt>
      <trkpt lat="45.07966" lon="5.98106">
        <ele>1610.8000488281</ele>
        <time>2024-10-15T12:49:21.000Z</time>
      </trkpt>
      <trkpt lat="45.07966" lon="5.98106">
        <ele>1610.8000488281</ele>
        <time>2024-10-15T12:49:22.000Z</time>
      </trkpt>
      <trkpt lat="45.07966" lon="5.98106">
        <ele>1610.8000488281</ele>
        <time>2024-10-15T12:49:23.000Z</time>
      </trkpt>
      <trkpt lat="45.07966" lon="5.98106">
        <ele>1610.5999755859</ele>
        <time>2024-10-15T12:49:24.000Z</time>
      </trkpt>
      <trkpt lat="45.07966" lon="5.98106">
        <ele>1610.8000488281</ele>
        <time>2024-10-15T12:49:25.000Z</time>
      </trkpt>
      <trkpt lat="45.07966" lon="5.98106">
        <ele>1610.8000488281</ele>
        <time>2024-10-15T12:49:26.000Z</time>
      </trkpt>
      <trkpt lat="45.07966" lon="5.98106">
        <ele>1610.8000488281</ele>
        <time>2024-10-15T12:49:27.000Z</time>
      </trkpt>
      <trkpt lat="45.07966" lon="5.98106">
        <ele>1611</ele>
        <time>2024-10-15T12:49:28.000Z</time>
      </trkpt>
      <trkpt lat="45.07966" lon="5.98106">
        <ele>1611</ele>
        <time>2024-10-15T12:49:29.000Z</time>
      </trkpt>
      <trkpt lat="45.07966" lon="5.98106">
        <ele>1611</ele>
        <time>2024-10-15T12:49:30.000Z</time>
      </trkpt>
      <trkpt lat="45.07966" lon="5.98106">
        <ele>1611</ele>
        <time>2024-10-15T12:49:31.000Z</time>
      </trkpt>
      <trkpt lat="45.07966" lon="5.98106">
        <ele>1611</ele>
        <time>2024-10-15T12:49:32.000Z</time>
      </trkpt>
      <trkpt lat="45.07966" lon="5.98106">
        <ele>1611</ele>
        <time>2024-10-15T12:49:33.000Z</time>
      </trkpt>
      <trkpt lat="45.07966" lon="5.98106">
        <ele>1610.8000488281</ele>
        <time>2024-10-15T12:49:34.000Z</time>
      </trkpt>
      <trkpt lat="45.07966" lon="5.98106">
        <ele>1610.8000488281</ele>
        <time>2024-10-15T12:49:35.000Z</time>
      </trkpt>
      <trkpt lat="45.07966" lon="5.98106">
        <ele>1610.8000488281</ele>
        <time>2024-10-15T12:49:36.000Z</time>
      </trkpt>
      <trkpt lat="45.07966" lon="5.98106">
        <ele>1610.8000488281</ele>
        <time>2024-10-15T12:49:37.000Z</time>
      </trkpt>
      <trkpt lat="45.07966" lon="5.98106">
        <ele>1610.5999755859</ele>
        <time>2024-10-15T12:49:38.000Z</time>
      </trkpt>
      <trkpt lat="45.07966" lon="5.98106">
        <ele>1610.5999755859</ele>
        <time>2024-10-15T12:49:39.000Z</time>
      </trkpt>
      <trkpt lat="45.07966" lon="5.98106">
        <ele>1610.4000244141</ele>
        <time>2024-10-15T12:49:40.000Z</time>
      </trkpt>
      <trkpt lat="45.07966" lon="5.98106">
        <ele>1610.4000244141</ele>
        <time>2024-10-15T12:49:41.000Z</time>
      </trkpt>
      <trkpt lat="45.07966" lon="5.98106">
        <ele>1610.4000244141</ele>
        <time>2024-10-15T12:49:42.000Z</time>
      </trkpt>
      <trkpt lat="45.07966" lon="5.98106">
        <ele>1610.4000244141</ele>
        <time>2024-10-15T12:49:43.000Z</time>
      </trkpt>
      <trkpt lat="45.07966" lon="5.98106">
        <ele>1610.4000244141</ele>
        <time>2024-10-15T12:49:44.000Z</time>
      </trkpt>
      <trkpt lat="45.07966" lon="5.98106">
        <ele>1610.4000244141</ele>
        <time>2024-10-15T12:49:45.000Z</time>
      </trkpt>
      <trkpt lat="45.07966" lon="5.98106">
        <ele>1610.4000244141</ele>
        <time>2024-10-15T12:49:46.000Z</time>
      </trkpt>
      <trkpt lat="45.07966" lon="5.98106">
        <ele>1610.4000244141</ele>
        <time>2024-10-15T12:49:47.000Z</time>
      </trkpt>
      <trkpt lat="45.07966" lon="5.98106">
        <ele>1610.4000244141</ele>
        <time>2024-10-15T12:49:48.000Z</time>
      </trkpt>
      <trkpt lat="45.07966" lon="5.98106">
        <ele>1610.4000244141</ele>
        <time>2024-10-15T12:49:49.000Z</time>
      </trkpt>
      <trkpt lat="45.07966" lon="5.98106">
        <ele>1610.4000244141</ele>
        <time>2024-10-15T12:49:50.000Z</time>
      </trkpt>
      <trkpt lat="45.07966" lon="5.98106">
        <ele>1610.4000244141</ele>
        <time>2024-10-15T12:49:51.000Z</time>
      </trkpt>
      <trkpt lat="45.07966" lon="5.98106">
        <ele>1610.4000244141</ele>
        <time>2024-10-15T12:49:52.000Z</time>
      </trkpt>
      <trkpt lat="45.07966" lon="5.98106">
        <ele>1610.4000244141</ele>
        <time>2024-10-15T12:49:53.000Z</time>
      </trkpt>
      <trkpt lat="45.07966" lon="5.98106">
        <ele>1610.4000244141</ele>
        <time>2024-10-15T12:49:54.000Z</time>
      </trkpt>
      <trkpt lat="45.07966" lon="5.98106">
        <ele>1610.4000244141</ele>
        <time>2024-10-15T12:49:55.000Z</time>
      </trkpt>
      <trkpt lat="45.07966" lon="5.98106">
        <ele>1610.4000244141</ele>
        <time>2024-10-15T12:49:56.000Z</time>
      </trkpt>
      <trkpt lat="45.07966" lon="5.98106">
        <ele>1610.4000244141</ele>
        <time>2024-10-15T12:49:57.000Z</time>
      </trkpt>
      <trkpt lat="45.07966" lon="5.98106">
        <ele>1610.4000244141</ele>
        <time>2024-10-15T12:49:58.000Z</time>
      </trkpt>
      <trkpt lat="45.07966" lon="5.98106">
        <ele>1610.4000244141</ele>
        <time>2024-10-15T12:49:59.000Z</time>
      </trkpt>
      <trkpt lat="45.07966" lon="5.98106">
        <ele>1610.4000244141</ele>
        <time>2024-10-15T12:50:00.000Z</time>
      </trkpt>
      <trkpt lat="45.07966" lon="5.98106">
        <ele>1610.4000244141</ele>
        <time>2024-10-15T12:50:01.000Z</time>
      </trkpt>
      <trkpt lat="45.07966" lon="5.98106">
        <ele>1610.4000244141</ele>
        <time>2024-10-15T12:50:02.000Z</time>
      </trkpt>
      <trkpt lat="45.07966" lon="5.98106">
        <ele>1610.4000244141</ele>
        <time>2024-10-15T12:50:03.000Z</time>
      </trkpt>
      <trkpt lat="45.07966" lon="5.98106">
        <ele>1610.5999755859</ele>
        <time>2024-10-15T12:50:04.000Z</time>
      </trkpt>
      <trkpt lat="45.07966" lon="5.98106">
        <ele>1610.8000488281</ele>
        <time>2024-10-15T12:50:05.000Z</time>
      </trkpt>
      <trkpt lat="45.07966" lon="5.98106">
        <ele>1610.8000488281</ele>
        <time>2024-10-15T12:50:06.000Z</time>
      </trkpt>
      <trkpt lat="45.07966" lon="5.98106">
        <ele>1610.8000488281</ele>
        <time>2024-10-15T12:50:07.000Z</time>
      </trkpt>
      <trkpt lat="45.07966" lon="5.98106">
        <ele>1610.8000488281</ele>
        <time>2024-10-15T12:50:08.000Z</time>
      </trkpt>
      <trkpt lat="45.07966" lon="5.98106">
        <ele>1610.8000488281</ele>
        <time>2024-10-15T12:50:09.000Z</time>
      </trkpt>
      <trkpt lat="45.07966" lon="5.98106">
        <ele>1610.8000488281</ele>
        <time>2024-10-15T12:50:10.000Z</time>
      </trkpt>
      <trkpt lat="45.07966" lon="5.98106">
        <ele>1610.8000488281</ele>
        <time>2024-10-15T12:50:11.000Z</time>
      </trkpt>
      <trkpt lat="45.07966" lon="5.98106">
        <ele>1611</ele>
        <time>2024-10-15T12:50:12.000Z</time>
      </trkpt>
      <trkpt lat="45.07966" lon="5.98106">
        <ele>1611</ele>
        <time>2024-10-15T12:50:13.000Z</time>
      </trkpt>
      <trkpt lat="45.07966" lon="5.98106">
        <ele>1611</ele>
        <time>2024-10-15T12:50:14.000Z</time>
      </trkpt>
      <trkpt lat="45.07966" lon="5.98106">
        <ele>1611</ele>
        <time>2024-10-15T12:50:15.000Z</time>
      </trkpt>
      <trkpt lat="45.07966" lon="5.98106">
        <ele>1611</ele>
        <time>2024-10-15T12:50:16.000Z</time>
      </trkpt>
      <trkpt lat="45.07966" lon="5.98106">
        <ele>1610.8000488281</ele>
        <time>2024-10-15T12:50:17.000Z</time>
      </trkpt>
      <trkpt lat="45.07966" lon="5.98106">
        <ele>1610.8000488281</ele>
        <time>2024-10-15T12:50:18.000Z</time>
      </trkpt>
      <trkpt lat="45.07966" lon="5.98106">
        <ele>1610.8000488281</ele>
        <time>2024-10-15T12:50:19.000Z</time>
      </trkpt>
      <trkpt lat="45.07966" lon="5.98106">
        <ele>1610.5999755859</ele>
        <time>2024-10-15T12:50:20.000Z</time>
      </trkpt>
      <trkpt lat="45.07966" lon="5.98106">
        <ele>1610.5999755859</ele>
        <time>2024-10-15T12:50:21.000Z</time>
      </trkpt>
      <trkpt lat="45.07966" lon="5.98106">
        <ele>1610.5999755859</ele>
        <time>2024-10-15T12:50:22.000Z</time>
      </trkpt>
      <trkpt lat="45.07966" lon="5.98106">
        <ele>1610.5999755859</ele>
        <time>2024-10-15T12:50:23.000Z</time>
      </trkpt>
      <trkpt lat="45.07966" lon="5.98106">
        <ele>1610.5999755859</ele>
        <time>2024-10-15T12:50:24.000Z</time>
      </trkpt>
      <trkpt lat="45.07966" lon="5.98106">
        <ele>1610.5999755859</ele>
        <time>2024-10-15T12:50:25.000Z</time>
      </trkpt>
      <trkpt lat="45.07966" lon="5.98106">
        <ele>1610.5999755859</ele>
        <time>2024-10-15T12:50:26.000Z</time>
      </trkpt>
      <trkpt lat="45.07966" lon="5.98106">
        <ele>1610.5999755859</ele>
        <time>2024-10-15T12:50:27.000Z</time>
      </trkpt>
      <trkpt lat="45.07966" lon="5.98106">
        <ele>1610.5999755859</ele>
        <time>2024-10-15T12:50:28.000Z</time>
      </trkpt>
      <trkpt lat="45.07966" lon="5.98106">
        <ele>1610.5999755859</ele>
        <time>2024-10-15T12:50:29.000Z</time>
      </trkpt>
      <trkpt lat="45.07966" lon="5.98106">
        <ele>1610.5999755859</ele>
        <time>2024-10-15T12:50:30.000Z</time>
      </trkpt>
      <trkpt lat="45.07966" lon="5.98106">
        <ele>1610.5999755859</ele>
        <time>2024-10-15T12:50:31.000Z</time>
      </trkpt>
      <trkpt lat="45.07966" lon="5.98106">
        <ele>1610.5999755859</ele>
        <time>2024-10-15T12:50:32.000Z</time>
      </trkpt>
      <trkpt lat="45.07966" lon="5.98106">
        <ele>1610.5999755859</ele>
        <time>2024-10-15T12:50:33.000Z</time>
      </trkpt>
      <trkpt lat="45.07966" lon="5.98106">
        <ele>1610.5999755859</ele>
        <time>2024-10-15T12:50:34.000Z</time>
      </trkpt>
      <trkpt lat="45.07966" lon="5.98106">
        <ele>1610.5999755859</ele>
        <time>2024-10-15T12:50:35.000Z</time>
      </trkpt>
      <trkpt lat="45.07966" lon="5.98106">
        <ele>1610.5999755859</ele>
        <time>2024-10-15T12:50:36.000Z</time>
      </trkpt>
      <trkpt lat="45.07966" lon="5.98106">
        <ele>1610.5999755859</ele>
        <time>2024-10-15T12:50:37.000Z</time>
      </trkpt>
      <trkpt lat="45.07966" lon="5.98106">
        <ele>1610.5999755859</ele>
        <time>2024-10-15T12:50:38.000Z</time>
      </trkpt>
      <trkpt lat="45.07966" lon="5.98106">
        <ele>1610.5999755859</ele>
        <time>2024-10-15T12:50:39.000Z</time>
      </trkpt>
      <trkpt lat="45.07966" lon="5.98106">
        <ele>1610.4000244141</ele>
        <time>2024-10-15T12:50:40.000Z</time>
      </trkpt>
      <trkpt lat="45.07966" lon="5.98106">
        <ele>1610.4000244141</ele>
        <time>2024-10-15T12:50:41.000Z</time>
      </trkpt>
      <trkpt lat="45.07966" lon="5.98106">
        <ele>1610.4000244141</ele>
        <time>2024-10-15T12:50:42.000Z</time>
      </trkpt>
      <trkpt lat="45.07966" lon="5.98106">
        <ele>1610.4000244141</ele>
        <time>2024-10-15T12:50:43.000Z</time>
      </trkpt>
      <trkpt lat="45.07966" lon="5.98106">
        <ele>1610.4000244141</ele>
        <time>2024-10-15T12:50:44.000Z</time>
      </trkpt>
      <trkpt lat="45.07966" lon="5.98106">
        <ele>1610.4000244141</ele>
        <time>2024-10-15T12:50:45.000Z</time>
      </trkpt>
      <trkpt lat="45.07966" lon="5.98106">
        <ele>1610.4000244141</ele>
        <time>2024-10-15T12:50:46.000Z</time>
      </trkpt>
      <trkpt lat="45.07966" lon="5.98106">
        <ele>1610.5999755859</ele>
        <time>2024-10-15T12:50:47.000Z</time>
      </trkpt>
      <trkpt lat="45.07966" lon="5.98106">
        <ele>1610.5999755859</ele>
        <time>2024-10-15T12:50:48.000Z</time>
      </trkpt>
      <trkpt lat="45.07966" lon="5.98106">
        <ele>1610.5999755859</ele>
        <time>2024-10-15T12:50:49.000Z</time>
      </trkpt>
      <trkpt lat="45.07966" lon="5.98106">
        <ele>1610.4000244141</ele>
        <time>2024-10-15T12:50:50.000Z</time>
      </trkpt>
      <trkpt lat="45.07966" lon="5.98106">
        <ele>1610.4000244141</ele>
        <time>2024-10-15T12:50:51.000Z</time>
      </trkpt>
      <trkpt lat="45.07966" lon="5.98106">
        <ele>1610.4000244141</ele>
        <time>2024-10-15T12:50:52.000Z</time>
      </trkpt>
      <trkpt lat="45.07966" lon="5.98106">
        <ele>1610.4000244141</ele>
        <time>2024-10-15T12:50:53.000Z</time>
      </trkpt>
      <trkpt lat="45.07966" lon="5.98106">
        <ele>1610.4000244141</ele>
        <time>2024-10-15T12:50:54.000Z</time>
      </trkpt>
      <trkpt lat="45.07966" lon="5.98106">
        <ele>1610.4000244141</ele>
        <time>2024-10-15T12:50:55.000Z</time>
      </trkpt>
      <trkpt lat="45.07966" lon="5.98106">
        <ele>1610.4000244141</ele>
        <time>2024-10-15T12:50:56.000Z</time>
      </trkpt>
      <trkpt lat="45.07966" lon="5.98106">
        <ele>1610.4000244141</ele>
        <time>2024-10-15T12:50:57.000Z</time>
      </trkpt>
      <trkpt lat="45.07966" lon="5.98106">
        <ele>1610.4000244141</ele>
        <time>2024-10-15T12:50:58.000Z</time>
      </trkpt>
      <trkpt lat="45.07966" lon="5.98106">
        <ele>1610.4000244141</ele>
        <time>2024-10-15T12:50:59.000Z</time>
      </trkpt>
      <trkpt lat="45.07966" lon="5.98106">
        <ele>1610.4000244141</ele>
        <time>2024-10-15T12:51:00.000Z</time>
      </trkpt>
      <trkpt lat="45.07966" lon="5.98106">
        <ele>1610.4000244141</ele>
        <time>2024-10-15T12:51:01.000Z</time>
      </trkpt>
      <trkpt lat="45.07966" lon="5.98106">
        <ele>1610.4000244141</ele>
        <time>2024-10-15T12:51:02.000Z</time>
      </trkpt>
      <trkpt lat="45.07966" lon="5.98106">
        <ele>1610.4000244141</ele>
        <time>2024-10-15T12:51:03.000Z</time>
      </trkpt>
      <trkpt lat="45.07966" lon="5.98106">
        <ele>1610.4000244141</ele>
        <time>2024-10-15T12:51:04.000Z</time>
      </trkpt>
      <trkpt lat="45.07966" lon="5.98106">
        <ele>1610.4000244141</ele>
        <time>2024-10-15T12:51:05.000Z</time>
      </trkpt>
      <trkpt lat="45.07966" lon="5.98106">
        <ele>1610.4000244141</ele>
        <time>2024-10-15T12:51:06.000Z</time>
      </trkpt>
      <trkpt lat="45.07966" lon="5.98106">
        <ele>1610.1999511719</ele>
        <time>2024-10-15T12:51:07.000Z</time>
      </trkpt>
      <trkpt lat="45.07966" lon="5.98106">
        <ele>1610.1999511719</ele>
        <time>2024-10-15T12:51:08.000Z</time>
      </trkpt>
      <trkpt lat="45.07966" lon="5.98106">
        <ele>1610.1999511719</ele>
        <time>2024-10-15T12:51:09.000Z</time>
      </trkpt>
      <trkpt lat="45.07966" lon="5.98106">
        <ele>1610.1999511719</ele>
        <time>2024-10-15T12:51:10.000Z</time>
      </trkpt>
      <trkpt lat="45.07966" lon="5.98106">
        <ele>1610.1999511719</ele>
        <time>2024-10-15T12:51:11.000Z</time>
      </trkpt>
      <trkpt lat="45.07966" lon="5.98106">
        <ele>1610.1999511719</ele>
        <time>2024-10-15T12:51:12.000Z</time>
      </trkpt>
      <trkpt lat="45.07966" lon="5.98106">
        <ele>1610.1999511719</ele>
        <time>2024-10-15T12:51:13.000Z</time>
      </trkpt>
      <trkpt lat="45.07966" lon="5.98106">
        <ele>1610.1999511719</ele>
        <time>2024-10-15T12:51:14.000Z</time>
      </trkpt>
      <trkpt lat="45.07966" lon="5.98106">
        <ele>1610.1999511719</ele>
        <time>2024-10-15T12:51:15.000Z</time>
      </trkpt>
      <trkpt lat="45.07966" lon="5.98106">
        <ele>1610.1999511719</ele>
        <time>2024-10-15T12:51:16.000Z</time>
      </trkpt>
      <trkpt lat="45.07966" lon="5.98106">
        <ele>1610.1999511719</ele>
        <time>2024-10-15T12:51:17.000Z</time>
      </trkpt>
      <trkpt lat="45.07966" lon="5.98106">
        <ele>1610.1999511719</ele>
        <time>2024-10-15T12:51:18.000Z</time>
      </trkpt>
      <trkpt lat="45.07966" lon="5.98106">
        <ele>1610.1999511719</ele>
        <time>2024-10-15T12:51:19.000Z</time>
      </trkpt>
      <trkpt lat="45.07966" lon="5.98106">
        <ele>1610.1999511719</ele>
        <time>2024-10-15T12:51:20.000Z</time>
      </trkpt>
      <trkpt lat="45.07966" lon="5.98106">
        <ele>1610.1999511719</ele>
        <time>2024-10-15T12:51:21.000Z</time>
      </trkpt>
      <trkpt lat="45.07966" lon="5.98106">
        <ele>1610.1999511719</ele>
        <time>2024-10-15T12:51:22.000Z</time>
      </trkpt>
      <trkpt lat="45.07966" lon="5.98106">
        <ele>1610.1999511719</ele>
        <time>2024-10-15T12:51:23.000Z</time>
      </trkpt>
      <trkpt lat="45.07966" lon="5.98106">
        <ele>1610.1999511719</ele>
        <time>2024-10-15T12:51:24.000Z</time>
      </trkpt>
      <trkpt lat="45.07966" lon="5.98106">
        <ele>1610.1999511719</ele>
        <time>2024-10-15T12:51:25.000Z</time>
      </trkpt>
      <trkpt lat="45.07966" lon="5.98106">
        <ele>1610.1999511719</ele>
        <time>2024-10-15T12:51:26.000Z</time>
      </trkpt>
      <trkpt lat="45.07966" lon="5.98106">
        <ele>1610.1999511719</ele>
        <time>2024-10-15T12:51:27.000Z</time>
      </trkpt>
      <trkpt lat="45.07966" lon="5.98106">
        <ele>1610.1999511719</ele>
        <time>2024-10-15T12:51:28.000Z</time>
      </trkpt>
      <trkpt lat="45.07966" lon="5.98106">
        <ele>1610.1999511719</ele>
        <time>2024-10-15T12:51:29.000Z</time>
      </trkpt>
      <trkpt lat="45.07966" lon="5.98106">
        <ele>1610.1999511719</ele>
        <time>2024-10-15T12:51:30.000Z</time>
      </trkpt>
      <trkpt lat="45.07966" lon="5.98106">
        <ele>1610.1999511719</ele>
        <time>2024-10-15T12:51:31.000Z</time>
      </trkpt>
      <trkpt lat="45.07966" lon="5.98106">
        <ele>1610.1999511719</ele>
        <time>2024-10-15T12:51:32.000Z</time>
      </trkpt>
      <trkpt lat="45.07966" lon="5.98106">
        <ele>1610</ele>
        <time>2024-10-15T12:51:33.000Z</time>
      </trkpt>
      <trkpt lat="45.07966" lon="5.98106">
        <ele>1610</ele>
        <time>2024-10-15T12:51:34.000Z</time>
      </trkpt>
      <trkpt lat="45.07966" lon="5.98106">
        <ele>1610</ele>
        <time>2024-10-15T12:51:35.000Z</time>
      </trkpt>
      <trkpt lat="45.07966" lon="5.98106">
        <ele>1610</ele>
        <time>2024-10-15T12:51:36.000Z</time>
      </trkpt>
      <trkpt lat="45.07966" lon="5.98106">
        <ele>1610</ele>
        <time>2024-10-15T12:51:37.000Z</time>
      </trkpt>
      <trkpt lat="45.07966" lon="5.98106">
        <ele>1610.1999511719</ele>
        <time>2024-10-15T12:51:38.000Z</time>
      </trkpt>
      <trkpt lat="45.07966" lon="5.98106">
        <ele>1610.1999511719</ele>
        <time>2024-10-15T12:51:39.000Z</time>
      </trkpt>
      <trkpt lat="45.07966" lon="5.98106">
        <ele>1610.5999755859</ele>
        <time>2024-10-15T12:51:40.000Z</time>
      </trkpt>
      <trkpt lat="45.07966" lon="5.98106">
        <ele>1611.1999511719</ele>
        <time>2024-10-15T12:51:41.000Z</time>
      </trkpt>
      <trkpt lat="45.07966" lon="5.98106">
        <ele>1611.1999511719</ele>
        <time>2024-10-15T12:51:42.000Z</time>
      </trkpt>
      <trkpt lat="45.07966" lon="5.98106">
        <ele>1611.1999511719</ele>
        <time>2024-10-15T12:51:43.000Z</time>
      </trkpt>
      <trkpt lat="45.07966" lon="5.98106">
        <ele>1611.1999511719</ele>
        <time>2024-10-15T12:51:44.000Z</time>
      </trkpt>
      <trkpt lat="45.07966" lon="5.98106">
        <ele>1611.1999511719</ele>
        <time>2024-10-15T12:51:45.000Z</time>
      </trkpt>
      <trkpt lat="45.07966" lon="5.98106">
        <ele>1611.1999511719</ele>
        <time>2024-10-15T12:51:46.000Z</time>
      </trkpt>
      <trkpt lat="45.07966" lon="5.98106">
        <ele>1611.1999511719</ele>
        <time>2024-10-15T12:51:47.000Z</time>
      </trkpt>
      <trkpt lat="45.07966" lon="5.98106">
        <ele>1611.1999511719</ele>
        <time>2024-10-15T12:51:48.000Z</time>
      </trkpt>
      <trkpt lat="45.07966" lon="5.98106">
        <ele>1611</ele>
        <time>2024-10-15T12:51:49.000Z</time>
      </trkpt>
      <trkpt lat="45.07966" lon="5.98106">
        <ele>1611</ele>
        <time>2024-10-15T12:51:50.000Z</time>
      </trkpt>
      <trkpt lat="45.07966" lon="5.98106">
        <ele>1611</ele>
        <time>2024-10-15T12:51:51.000Z</time>
      </trkpt>
      <trkpt lat="45.07966" lon="5.98106">
        <ele>1611</ele>
        <time>2024-10-15T12:51:52.000Z</time>
      </trkpt>
      <trkpt lat="45.07966" lon="5.98106">
        <ele>1611</ele>
        <time>2024-10-15T12:51:53.000Z</time>
      </trkpt>
      <trkpt lat="45.07966" lon="5.98106">
        <ele>1611</ele>
        <time>2024-10-15T12:51:54.000Z</time>
      </trkpt>
      <trkpt lat="45.07966" lon="5.98106">
        <ele>1611</ele>
        <time>2024-10-15T12:51:55.000Z</time>
      </trkpt>
      <trkpt lat="45.07966" lon="5.98106">
        <ele>1611</ele>
        <time>2024-10-15T12:51:56.000Z</time>
      </trkpt>
      <trkpt lat="45.07966" lon="5.98106">
        <ele>1611</ele>
        <time>2024-10-15T12:51:57.000Z</time>
      </trkpt>
      <trkpt lat="45.07966" lon="5.98106">
        <ele>1611</ele>
        <time>2024-10-15T12:51:58.000Z</time>
      </trkpt>
      <trkpt lat="45.07966" lon="5.98106">
        <ele>1611</ele>
        <time>2024-10-15T12:51:59.000Z</time>
      </trkpt>
      <trkpt lat="45.07966" lon="5.98106">
        <ele>1611</ele>
        <time>2024-10-15T12:52:00.000Z</time>
      </trkpt>
      <trkpt lat="45.07966" lon="5.98106">
        <ele>1611</ele>
        <time>2024-10-15T12:52:01.000Z</time>
      </trkpt>
      <trkpt lat="45.07966" lon="5.98106">
        <ele>1611</ele>
        <time>2024-10-15T12:52:02.000Z</time>
      </trkpt>
      <trkpt lat="45.07966" lon="5.98106">
        <ele>1611.1999511719</ele>
        <time>2024-10-15T12:52:03.000Z</time>
      </trkpt>
      <trkpt lat="45.07966" lon="5.98106">
        <ele>1611.1999511719</ele>
        <time>2024-10-15T12:52:04.000Z</time>
      </trkpt>
      <trkpt lat="45.07966" lon="5.98106">
        <ele>1611.4000244141</ele>
        <time>2024-10-15T12:52:05.000Z</time>
      </trkpt>
      <trkpt lat="45.07966" lon="5.98106">
        <ele>1611.4000244141</ele>
        <time>2024-10-15T12:52:06.000Z</time>
      </trkpt>
      <trkpt lat="45.07966" lon="5.98106">
        <ele>1611.4000244141</ele>
        <time>2024-10-15T12:52:07.000Z</time>
      </trkpt>
      <trkpt lat="45.07966" lon="5.98106">
        <ele>1611.4000244141</ele>
        <time>2024-10-15T12:52:08.000Z</time>
      </trkpt>
      <trkpt lat="45.07966" lon="5.98106">
        <ele>1611.5999755859</ele>
        <time>2024-10-15T12:52:09.000Z</time>
      </trkpt>
      <trkpt lat="45.07966" lon="5.98106">
        <ele>1611.5999755859</ele>
        <time>2024-10-15T12:52:10.000Z</time>
      </trkpt>
      <trkpt lat="45.07966" lon="5.98106">
        <ele>1611.8000488281</ele>
        <time>2024-10-15T12:52:11.000Z</time>
      </trkpt>
      <trkpt lat="45.07966" lon="5.98106">
        <ele>1611.8000488281</ele>
        <time>2024-10-15T12:52:12.000Z</time>
      </trkpt>
      <trkpt lat="45.07966" lon="5.98106">
        <ele>1611.8000488281</ele>
        <time>2024-10-15T12:52:13.000Z</time>
      </trkpt>
      <trkpt lat="45.07966" lon="5.98106">
        <ele>1611.8000488281</ele>
        <time>2024-10-15T12:52:14.000Z</time>
      </trkpt>
      <trkpt lat="45.07966" lon="5.98106">
        <ele>1611.8000488281</ele>
        <time>2024-10-15T12:52:15.000Z</time>
      </trkpt>
      <trkpt lat="45.07966" lon="5.98105">
        <ele>1611.8000488281</ele>
        <time>2024-10-15T12:52:16.000Z</time>
      </trkpt>
      <trkpt lat="45.07965" lon="5.98105">
        <ele>1611.8000488281</ele>
        <time>2024-10-15T12:52:17.000Z</time>
      </trkpt>
      <trkpt lat="45.07965" lon="5.98104">
        <ele>1611.8000488281</ele>
        <time>2024-10-15T12:52:18.000Z</time>
      </trkpt>
      <trkpt lat="45.07965" lon="5.98104">
        <ele>1611.8000488281</ele>
        <time>2024-10-15T12:52:19.000Z</time>
      </trkpt>
      <trkpt lat="45.07965" lon="5.98104">
        <ele>1611.8000488281</ele>
        <time>2024-10-15T12:52:20.000Z</time>
      </trkpt>
      <trkpt lat="45.07965" lon="5.98104">
        <ele>1611.8000488281</ele>
        <time>2024-10-15T12:52:21.000Z</time>
      </trkpt>
      <trkpt lat="45.07965" lon="5.98104">
        <ele>1611.8000488281</ele>
        <time>2024-10-15T12:52:22.000Z</time>
      </trkpt>
      <trkpt lat="45.07965" lon="5.98104">
        <ele>1611.8000488281</ele>
        <time>2024-10-15T12:52:23.000Z</time>
      </trkpt>
      <trkpt lat="45.07965" lon="5.98104">
        <ele>1611.8000488281</ele>
        <time>2024-10-15T12:52:24.000Z</time>
      </trkpt>
      <trkpt lat="45.07963" lon="5.98104">
        <ele>1611.5999755859</ele>
        <time>2024-10-15T12:52:25.000Z</time>
      </trkpt>
      <trkpt lat="45.07962" lon="5.98103">
        <ele>1611.8000488281</ele>
        <time>2024-10-15T12:52:26.000Z</time>
      </trkpt>
      <trkpt lat="45.07962" lon="5.98103">
        <ele>1611.5999755859</ele>
        <time>2024-10-15T12:52:27.000Z</time>
      </trkpt>
      <trkpt lat="45.07962" lon="5.98103">
        <ele>1611.5999755859</ele>
        <time>2024-10-15T12:52:28.000Z</time>
      </trkpt>
      <trkpt lat="45.07962" lon="5.98102">
        <ele>1611.5999755859</ele>
        <time>2024-10-15T12:52:29.000Z</time>
      </trkpt>
      <trkpt lat="45.07962" lon="5.98102">
        <ele>1611.8000488281</ele>
        <time>2024-10-15T12:52:30.000Z</time>
      </trkpt>
      <trkpt lat="45.07962" lon="5.98102">
        <ele>1611.8000488281</ele>
        <time>2024-10-15T12:52:31.000Z</time>
      </trkpt>
      <trkpt lat="45.07962" lon="5.98102">
        <ele>1612</ele>
        <time>2024-10-15T12:52:32.000Z</time>
      </trkpt>
      <trkpt lat="45.07962" lon="5.98102">
        <ele>1612</ele>
        <time>2024-10-15T12:52:33.000Z</time>
      </trkpt>
      <trkpt lat="45.07962" lon="5.98101">
        <ele>1612</ele>
        <time>2024-10-15T12:52:34.000Z</time>
      </trkpt>
      <trkpt lat="45.07962" lon="5.98101">
        <ele>1612</ele>
        <time>2024-10-15T12:52:35.000Z</time>
      </trkpt>
      <trkpt lat="45.07962" lon="5.98101">
        <ele>1612</ele>
        <time>2024-10-15T12:52:36.000Z</time>
      </trkpt>
      <trkpt lat="45.07962" lon="5.98101">
        <ele>1611.8000488281</ele>
        <time>2024-10-15T12:52:37.000Z</time>
      </trkpt>
      <trkpt lat="45.07962" lon="5.98101">
        <ele>1611.8000488281</ele>
        <time>2024-10-15T12:52:38.000Z</time>
      </trkpt>
      <trkpt lat="45.07961" lon="5.98101">
        <ele>1611.8000488281</ele>
        <time>2024-10-15T12:52:39.000Z</time>
      </trkpt>
      <trkpt lat="45.07961" lon="5.98101">
        <ele>1611.5999755859</ele>
        <time>2024-10-15T12:52:40.000Z</time>
      </trkpt>
      <trkpt lat="45.0796" lon="5.98101">
        <ele>1611.4000244141</ele>
        <time>2024-10-15T12:52:41.000Z</time>
      </trkpt>
      <trkpt lat="45.0796" lon="5.981">
        <ele>1611.4000244141</ele>
        <time>2024-10-15T12:52:42.000Z</time>
      </trkpt>
      <trkpt lat="45.0796" lon="5.981">
        <ele>1611.1999511719</ele>
        <time>2024-10-15T12:52:43.000Z</time>
      </trkpt>
      <trkpt lat="45.0796" lon="5.981">
        <ele>1611.1999511719</ele>
        <time>2024-10-15T12:52:44.000Z</time>
      </trkpt>
      <trkpt lat="45.0796" lon="5.981">
        <ele>1611.1999511719</ele>
        <time>2024-10-15T12:52:45.000Z</time>
      </trkpt>
      <trkpt lat="45.0796" lon="5.981">
        <ele>1611.1999511719</ele>
        <time>2024-10-15T12:52:46.000Z</time>
      </trkpt>
      <trkpt lat="45.0796" lon="5.981">
        <ele>1611.4000244141</ele>
        <time>2024-10-15T12:52:47.000Z</time>
      </trkpt>
      <trkpt lat="45.0796" lon="5.98099">
        <ele>1611.4000244141</ele>
        <time>2024-10-15T12:52:48.000Z</time>
      </trkpt>
      <trkpt lat="45.0796" lon="5.98099">
        <ele>1611.4000244141</ele>
        <time>2024-10-15T12:52:49.000Z</time>
      </trkpt>
      <trkpt lat="45.0796" lon="5.98099">
        <ele>1611.4000244141</ele>
        <time>2024-10-15T12:52:50.000Z</time>
      </trkpt>
      <trkpt lat="45.0796" lon="5.98099">
        <ele>1611.4000244141</ele>
        <time>2024-10-15T12:52:51.000Z</time>
      </trkpt>
      <trkpt lat="45.0796" lon="5.98099">
        <ele>1611.4000244141</ele>
        <time>2024-10-15T12:52:52.000Z</time>
      </trkpt>
      <trkpt lat="45.0796" lon="5.98099">
        <ele>1611.4000244141</ele>
        <time>2024-10-15T12:52:53.000Z</time>
      </trkpt>
      <trkpt lat="45.0796" lon="5.98099">
        <ele>1611.4000244141</ele>
        <time>2024-10-15T12:52:54.000Z</time>
      </trkpt>
      <trkpt lat="45.0796" lon="5.98099">
        <ele>1611.5999755859</ele>
        <time>2024-10-15T12:52:55.000Z</time>
      </trkpt>
      <trkpt lat="45.0796" lon="5.98099">
        <ele>1611.5999755859</ele>
        <time>2024-10-15T12:52:56.000Z</time>
      </trkpt>
      <trkpt lat="45.0796" lon="5.98099">
        <ele>1611.5999755859</ele>
        <time>2024-10-15T12:52:57.000Z</time>
      </trkpt>
      <trkpt lat="45.07961" lon="5.98099">
        <ele>1611.5999755859</ele>
        <time>2024-10-15T12:52:58.000Z</time>
      </trkpt>
      <trkpt lat="45.07961" lon="5.98099">
        <ele>1611.5999755859</ele>
        <time>2024-10-15T12:52:59.000Z</time>
      </trkpt>
      <trkpt lat="45.07961" lon="5.98099">
        <ele>1611.5999755859</ele>
        <time>2024-10-15T12:53:00.000Z</time>
      </trkpt>
      <trkpt lat="45.07961" lon="5.98099">
        <ele>1611.5999755859</ele>
        <time>2024-10-15T12:53:01.000Z</time>
      </trkpt>
      <trkpt lat="45.07961" lon="5.98099">
        <ele>1611.5999755859</ele>
        <time>2024-10-15T12:53:02.000Z</time>
      </trkpt>
      <trkpt lat="45.07961" lon="5.98099">
        <ele>1611.5999755859</ele>
        <time>2024-10-15T12:53:03.000Z</time>
      </trkpt>
      <trkpt lat="45.07961" lon="5.98099">
        <ele>1611.5999755859</ele>
        <time>2024-10-15T12:53:04.000Z</time>
      </trkpt>
      <trkpt lat="45.07961" lon="5.98099">
        <ele>1611.5999755859</ele>
        <time>2024-10-15T12:53:05.000Z</time>
      </trkpt>
      <trkpt lat="45.07961" lon="5.98099">
        <ele>1611.5999755859</ele>
        <time>2024-10-15T12:53:06.000Z</time>
      </trkpt>
      <trkpt lat="45.07961" lon="5.98099">
        <ele>1611.5999755859</ele>
        <time>2024-10-15T12:53:07.000Z</time>
      </trkpt>
      <trkpt lat="45.07961" lon="5.98099">
        <ele>1611.5999755859</ele>
        <time>2024-10-15T12:53:08.000Z</time>
      </trkpt>
      <trkpt lat="45.07961" lon="5.98099">
        <ele>1611.8000488281</ele>
        <time>2024-10-15T12:53:09.000Z</time>
      </trkpt>
      <trkpt lat="45.07961" lon="5.98099">
        <ele>1612</ele>
        <time>2024-10-15T12:53:10.000Z</time>
      </trkpt>
      <trkpt lat="45.07961" lon="5.98099">
        <ele>1612.1999511719</ele>
        <time>2024-10-15T12:53:11.000Z</time>
      </trkpt>
      <trkpt lat="45.07961" lon="5.98099">
        <ele>1612.4000244141</ele>
        <time>2024-10-15T12:53:12.000Z</time>
      </trkpt>
      <trkpt lat="45.07962" lon="5.98099">
        <ele>1612.5999755859</ele>
        <time>2024-10-15T12:53:13.000Z</time>
      </trkpt>
      <trkpt lat="45.07962" lon="5.98099">
        <ele>1612.5999755859</ele>
        <time>2024-10-15T12:53:14.000Z</time>
      </trkpt>
      <trkpt lat="45.07962" lon="5.98099">
        <ele>1612.5999755859</ele>
        <time>2024-10-15T12:53:15.000Z</time>
      </trkpt>
      <trkpt lat="45.07962" lon="5.981">
        <ele>1612.5999755859</ele>
        <time>2024-10-15T12:53:16.000Z</time>
      </trkpt>
      <trkpt lat="45.07962" lon="5.98101">
        <ele>1612.5999755859</ele>
        <time>2024-10-15T12:53:17.000Z</time>
      </trkpt>
      <trkpt lat="45.07963" lon="5.98101">
        <ele>1612.5999755859</ele>
        <time>2024-10-15T12:53:18.000Z</time>
      </trkpt>
      <trkpt lat="45.07963" lon="5.98101">
        <ele>1612.5999755859</ele>
        <time>2024-10-15T12:53:19.000Z</time>
      </trkpt>
      <trkpt lat="45.07963" lon="5.98101">
        <ele>1612.5999755859</ele>
        <time>2024-10-15T12:53:20.000Z</time>
      </trkpt>
      <trkpt lat="45.07964" lon="5.98101">
        <ele>1612.5999755859</ele>
        <time>2024-10-15T12:53:21.000Z</time>
      </trkpt>
      <trkpt lat="45.07964" lon="5.98102">
        <ele>1612.5999755859</ele>
        <time>2024-10-15T12:53:22.000Z</time>
      </trkpt>
      <trkpt lat="45.07964" lon="5.98102">
        <ele>1612.5999755859</ele>
        <time>2024-10-15T12:53:23.000Z</time>
      </trkpt>
      <trkpt lat="45.07964" lon="5.98102">
        <ele>1612.5999755859</ele>
        <time>2024-10-15T12:53:24.000Z</time>
      </trkpt>
      <trkpt lat="45.07964" lon="5.98102">
        <ele>1612.5999755859</ele>
        <time>2024-10-15T12:53:25.000Z</time>
      </trkpt>
      <trkpt lat="45.07964" lon="5.98102">
        <ele>1612.5999755859</ele>
        <time>2024-10-15T12:53:26.000Z</time>
      </trkpt>
      <trkpt lat="45.07964" lon="5.98102">
        <ele>1612.5999755859</ele>
        <time>2024-10-15T12:53:27.000Z</time>
      </trkpt>
      <trkpt lat="45.07964" lon="5.98102">
        <ele>1612.4000244141</ele>
        <time>2024-10-15T12:53:28.000Z</time>
      </trkpt>
      <trkpt lat="45.07964" lon="5.98102">
        <ele>1612.4000244141</ele>
        <time>2024-10-15T12:53:29.000Z</time>
      </trkpt>
      <trkpt lat="45.07964" lon="5.98102">
        <ele>1612.1999511719</ele>
        <time>2024-10-15T12:53:30.000Z</time>
      </trkpt>
      <trkpt lat="45.07964" lon="5.98102">
        <ele>1612</ele>
        <time>2024-10-15T12:53:31.000Z</time>
      </trkpt>
      <trkpt lat="45.07964" lon="5.98102">
        <ele>1612</ele>
        <time>2024-10-15T12:53:32.000Z</time>
      </trkpt>
      <trkpt lat="45.07964" lon="5.98102">
        <ele>1612</ele>
        <time>2024-10-15T12:53:33.000Z</time>
      </trkpt>
      <trkpt lat="45.07964" lon="5.98102">
        <ele>1612</ele>
        <time>2024-10-15T12:53:34.000Z</time>
      </trkpt>
      <trkpt lat="45.07964" lon="5.98102">
        <ele>1612</ele>
        <time>2024-10-15T12:53:35.000Z</time>
      </trkpt>
      <trkpt lat="45.07964" lon="5.98102">
        <ele>1612</ele>
        <time>2024-10-15T12:53:36.000Z</time>
      </trkpt>
      <trkpt lat="45.07964" lon="5.98102">
        <ele>1612</ele>
        <time>2024-10-15T12:53:37.000Z</time>
      </trkpt>
      <trkpt lat="45.07964" lon="5.98102">
        <ele>1612</ele>
        <time>2024-10-15T12:53:38.000Z</time>
      </trkpt>
      <trkpt lat="45.07965" lon="5.98102">
        <ele>1612</ele>
        <time>2024-10-15T12:53:39.000Z</time>
      </trkpt>
      <trkpt lat="45.07965" lon="5.98102">
        <ele>1612</ele>
        <time>2024-10-15T12:53:40.000Z</time>
      </trkpt>
      <trkpt lat="45.07965" lon="5.98102">
        <ele>1612</ele>
        <time>2024-10-15T12:53:41.000Z</time>
      </trkpt>
      <trkpt lat="45.07965" lon="5.98102">
        <ele>1612</ele>
        <time>2024-10-15T12:53:42.000Z</time>
      </trkpt>
      <trkpt lat="45.07965" lon="5.98102">
        <ele>1612</ele>
        <time>2024-10-15T12:53:43.000Z</time>
      </trkpt>
      <trkpt lat="45.07965" lon="5.98102">
        <ele>1612</ele>
        <time>2024-10-15T12:53:44.000Z</time>
      </trkpt>
      <trkpt lat="45.07965" lon="5.98102">
        <ele>1612</ele>
        <time>2024-10-15T12:53:45.000Z</time>
      </trkpt>
      <trkpt lat="45.07965" lon="5.98102">
        <ele>1612</ele>
        <time>2024-10-15T12:53:46.000Z</time>
      </trkpt>
      <trkpt lat="45.07965" lon="5.98102">
        <ele>1612</ele>
        <time>2024-10-15T12:53:47.000Z</time>
      </trkpt>
      <trkpt lat="45.07965" lon="5.98103">
        <ele>1612</ele>
        <time>2024-10-15T12:53:48.000Z</time>
      </trkpt>
      <trkpt lat="45.07965" lon="5.98103">
        <ele>1611.8000488281</ele>
        <time>2024-10-15T12:53:49.000Z</time>
      </trkpt>
      <trkpt lat="45.07965" lon="5.98103">
        <ele>1611.8000488281</ele>
        <time>2024-10-15T12:53:50.000Z</time>
      </trkpt>
      <trkpt lat="45.07965" lon="5.98103">
        <ele>1611.8000488281</ele>
        <time>2024-10-15T12:53:51.000Z</time>
      </trkpt>
      <trkpt lat="45.07965" lon="5.98103">
        <ele>1611.8000488281</ele>
        <time>2024-10-15T12:53:52.000Z</time>
      </trkpt>
      <trkpt lat="45.07965" lon="5.98103">
        <ele>1611.8000488281</ele>
        <time>2024-10-15T12:53:53.000Z</time>
      </trkpt>
      <trkpt lat="45.07965" lon="5.98103">
        <ele>1611.5999755859</ele>
        <time>2024-10-15T12:53:54.000Z</time>
      </trkpt>
      <trkpt lat="45.07965" lon="5.98103">
        <ele>1611.5999755859</ele>
        <time>2024-10-15T12:53:55.000Z</time>
      </trkpt>
      <trkpt lat="45.07965" lon="5.98103">
        <ele>1611.5999755859</ele>
        <time>2024-10-15T12:53:56.000Z</time>
      </trkpt>
      <trkpt lat="45.07965" lon="5.98103">
        <ele>1611.5999755859</ele>
        <time>2024-10-15T12:53:57.000Z</time>
      </trkpt>
      <trkpt lat="45.07965" lon="5.98103">
        <ele>1611.5999755859</ele>
        <time>2024-10-15T12:53:58.000Z</time>
      </trkpt>
      <trkpt lat="45.07964" lon="5.98103">
        <ele>1611.4000244141</ele>
        <time>2024-10-15T12:53:59.000Z</time>
      </trkpt>
      <trkpt lat="45.07964" lon="5.98103">
        <ele>1611.4000244141</ele>
        <time>2024-10-15T12:54:00.000Z</time>
      </trkpt>
      <trkpt lat="45.07964" lon="5.98104">
        <ele>1611.4000244141</ele>
        <time>2024-10-15T12:54:01.000Z</time>
      </trkpt>
      <trkpt lat="45.07964" lon="5.98104">
        <ele>1611.4000244141</ele>
        <time>2024-10-15T12:54:02.000Z</time>
      </trkpt>
      <trkpt lat="45.07964" lon="5.98104">
        <ele>1611.1999511719</ele>
        <time>2024-10-15T12:54:03.000Z</time>
      </trkpt>
      <trkpt lat="45.07964" lon="5.98104">
        <ele>1611.1999511719</ele>
        <time>2024-10-15T12:54:04.000Z</time>
      </trkpt>
      <trkpt lat="45.07964" lon="5.98104">
        <ele>1611.1999511719</ele>
        <time>2024-10-15T12:54:05.000Z</time>
      </trkpt>
      <trkpt lat="45.07963" lon="5.98104">
        <ele>1611.1999511719</ele>
        <time>2024-10-15T12:54:06.000Z</time>
      </trkpt>
      <trkpt lat="45.07963" lon="5.98104">
        <ele>1611.1999511719</ele>
        <time>2024-10-15T12:54:07.000Z</time>
      </trkpt>
      <trkpt lat="45.07963" lon="5.98104">
        <ele>1611.1999511719</ele>
        <time>2024-10-15T12:54:08.000Z</time>
      </trkpt>
      <trkpt lat="45.07963" lon="5.98104">
        <ele>1611</ele>
        <time>2024-10-15T12:54:09.000Z</time>
      </trkpt>
      <trkpt lat="45.07963" lon="5.98104">
        <ele>1611</ele>
        <time>2024-10-15T12:54:10.000Z</time>
      </trkpt>
      <trkpt lat="45.07963" lon="5.98104">
        <ele>1611</ele>
        <time>2024-10-15T12:54:11.000Z</time>
      </trkpt>
      <trkpt lat="45.07963" lon="5.98104">
        <ele>1610.8000488281</ele>
        <time>2024-10-15T12:54:12.000Z</time>
      </trkpt>
      <trkpt lat="45.07963" lon="5.98104">
        <ele>1610.8000488281</ele>
        <time>2024-10-15T12:54:13.000Z</time>
      </trkpt>
      <trkpt lat="45.07963" lon="5.98104">
        <ele>1610.5999755859</ele>
        <time>2024-10-15T12:54:14.000Z</time>
      </trkpt>
      <trkpt lat="45.07963" lon="5.98104">
        <ele>1610.5999755859</ele>
        <time>2024-10-15T12:54:15.000Z</time>
      </trkpt>
      <trkpt lat="45.07963" lon="5.98104">
        <ele>1610.5999755859</ele>
        <time>2024-10-15T12:54:16.000Z</time>
      </trkpt>
      <trkpt lat="45.07963" lon="5.98104">
        <ele>1610.5999755859</ele>
        <time>2024-10-15T12:54:17.000Z</time>
      </trkpt>
      <trkpt lat="45.07963" lon="5.98104">
        <ele>1610.5999755859</ele>
        <time>2024-10-15T12:54:18.000Z</time>
      </trkpt>
      <trkpt lat="45.07963" lon="5.98104">
        <ele>1610.4000244141</ele>
        <time>2024-10-15T12:54:19.000Z</time>
      </trkpt>
      <trkpt lat="45.07963" lon="5.98104">
        <ele>1610.4000244141</ele>
        <time>2024-10-15T12:54:20.000Z</time>
      </trkpt>
      <trkpt lat="45.07963" lon="5.98104">
        <ele>1610.4000244141</ele>
        <time>2024-10-15T12:54:21.000Z</time>
      </trkpt>
      <trkpt lat="45.07963" lon="5.98104">
        <ele>1610.4000244141</ele>
        <time>2024-10-15T12:54:22.000Z</time>
      </trkpt>
      <trkpt lat="45.07963" lon="5.98104">
        <ele>1610.4000244141</ele>
        <time>2024-10-15T12:54:23.000Z</time>
      </trkpt>
      <trkpt lat="45.07963" lon="5.98104">
        <ele>1610.1999511719</ele>
        <time>2024-10-15T12:54:24.000Z</time>
      </trkpt>
      <trkpt lat="45.07963" lon="5.98104">
        <ele>1610</ele>
        <time>2024-10-15T12:54:25.000Z</time>
      </trkpt>
      <trkpt lat="45.07963" lon="5.98104">
        <ele>1609.8000488281</ele>
        <time>2024-10-15T12:54:26.000Z</time>
      </trkpt>
      <trkpt lat="45.07963" lon="5.98104">
        <ele>1609.5999755859</ele>
        <time>2024-10-15T12:54:27.000Z</time>
      </trkpt>
      <trkpt lat="45.07963" lon="5.98107">
        <ele>1609.4000244141</ele>
        <time>2024-10-15T12:54:28.000Z</time>
      </trkpt>
      <trkpt lat="45.07962" lon="5.98109">
        <ele>1609.1999511719</ele>
        <time>2024-10-15T12:54:29.000Z</time>
      </trkpt>
      <trkpt lat="45.07962" lon="5.98111">
        <ele>1609</ele>
        <time>2024-10-15T12:54:30.000Z</time>
      </trkpt>
      <trkpt lat="45.07961" lon="5.98113">
        <ele>1609</ele>
        <time>2024-10-15T12:54:31.000Z</time>
      </trkpt>
      <trkpt lat="45.0796" lon="5.98115">
        <ele>1609</ele>
        <time>2024-10-15T12:54:32.000Z</time>
      </trkpt>
      <trkpt lat="45.07959" lon="5.98118">
        <ele>1609</ele>
        <time>2024-10-15T12:54:33.000Z</time>
      </trkpt>
      <trkpt lat="45.07958" lon="5.9812">
        <ele>1608.8000488281</ele>
        <time>2024-10-15T12:54:34.000Z</time>
      </trkpt>
      <trkpt lat="45.07958" lon="5.98122">
        <ele>1608.4000244141</ele>
        <time>2024-10-15T12:54:35.000Z</time>
      </trkpt>
      <trkpt lat="45.07957" lon="5.98124">
        <ele>1608</ele>
        <time>2024-10-15T12:54:36.000Z</time>
      </trkpt>
      <trkpt lat="45.07957" lon="5.98126">
        <ele>1607.8000488281</ele>
        <time>2024-10-15T12:54:37.000Z</time>
      </trkpt>
      <trkpt lat="45.07956" lon="5.98127">
        <ele>1607.8000488281</ele>
        <time>2024-10-15T12:54:38.000Z</time>
      </trkpt>
      <trkpt lat="45.07956" lon="5.98128">
        <ele>1607.5999755859</ele>
        <time>2024-10-15T12:54:39.000Z</time>
      </trkpt>
      <trkpt lat="45.07955" lon="5.98129">
        <ele>1607.5999755859</ele>
        <time>2024-10-15T12:54:40.000Z</time>
      </trkpt>
      <trkpt lat="45.07955" lon="5.98131">
        <ele>1607.5999755859</ele>
        <time>2024-10-15T12:54:41.000Z</time>
      </trkpt>
      <trkpt lat="45.07955" lon="5.98132">
        <ele>1607.4000244141</ele>
        <time>2024-10-15T12:54:42.000Z</time>
      </trkpt>
      <trkpt lat="45.07954" lon="5.98134">
        <ele>1607.4000244141</ele>
        <time>2024-10-15T12:54:43.000Z</time>
      </trkpt>
      <trkpt lat="45.07954" lon="5.98135">
        <ele>1607.1999511719</ele>
        <time>2024-10-15T12:54:44.000Z</time>
      </trkpt>
      <trkpt lat="45.07954" lon="5.98136">
        <ele>1607</ele>
        <time>2024-10-15T12:54:45.000Z</time>
      </trkpt>
      <trkpt lat="45.07954" lon="5.98137">
        <ele>1606.8000488281</ele>
        <time>2024-10-15T12:54:46.000Z</time>
      </trkpt>
      <trkpt lat="45.07953" lon="5.98138">
        <ele>1606.8000488281</ele>
        <time>2024-10-15T12:54:47.000Z</time>
      </trkpt>
      <trkpt lat="45.07953" lon="5.98139">
        <ele>1606.8000488281</ele>
        <time>2024-10-15T12:54:48.000Z</time>
      </trkpt>
      <trkpt lat="45.07953" lon="5.98141">
        <ele>1606.8000488281</ele>
        <time>2024-10-15T12:54:49.000Z</time>
      </trkpt>
      <trkpt lat="45.07952" lon="5.98142">
        <ele>1606.8000488281</ele>
        <time>2024-10-15T12:54:50.000Z</time>
      </trkpt>
      <trkpt lat="45.07952" lon="5.98143">
        <ele>1606.8000488281</ele>
        <time>2024-10-15T12:54:51.000Z</time>
      </trkpt>
      <trkpt lat="45.07952" lon="5.98145">
        <ele>1606.8000488281</ele>
        <time>2024-10-15T12:54:52.000Z</time>
      </trkpt>
      <trkpt lat="45.07951" lon="5.98146">
        <ele>1606.8000488281</ele>
        <time>2024-10-15T12:54:53.000Z</time>
      </trkpt>
      <trkpt lat="45.07951" lon="5.98148">
        <ele>1606.8000488281</ele>
        <time>2024-10-15T12:54:54.000Z</time>
      </trkpt>
      <trkpt lat="45.0795" lon="5.98149">
        <ele>1606.5999755859</ele>
        <time>2024-10-15T12:54:55.000Z</time>
      </trkpt>
      <trkpt lat="45.0795" lon="5.9815">
        <ele>1606.5999755859</ele>
        <time>2024-10-15T12:54:56.000Z</time>
      </trkpt>
      <trkpt lat="45.0795" lon="5.98152">
        <ele>1606.5999755859</ele>
        <time>2024-10-15T12:54:57.000Z</time>
      </trkpt>
      <trkpt lat="45.07949" lon="5.98153">
        <ele>1606.4000244141</ele>
        <time>2024-10-15T12:54:58.000Z</time>
      </trkpt>
      <trkpt lat="45.07949" lon="5.98155">
        <ele>1606</ele>
        <time>2024-10-15T12:54:59.000Z</time>
      </trkpt>
      <trkpt lat="45.07949" lon="5.98156">
        <ele>1606</ele>
        <time>2024-10-15T12:55:00.000Z</time>
      </trkpt>
      <trkpt lat="45.07949" lon="5.98157">
        <ele>1605.8000488281</ele>
        <time>2024-10-15T12:55:01.000Z</time>
      </trkpt>
      <trkpt lat="45.07949" lon="5.98158">
        <ele>1605.8000488281</ele>
        <time>2024-10-15T12:55:02.000Z</time>
      </trkpt>
      <trkpt lat="45.07949" lon="5.98159">
        <ele>1605.5999755859</ele>
        <time>2024-10-15T12:55:03.000Z</time>
      </trkpt>
      <trkpt lat="45.07948" lon="5.98161">
        <ele>1605.5999755859</ele>
        <time>2024-10-15T12:55:04.000Z</time>
      </trkpt>
      <trkpt lat="45.07948" lon="5.98162">
        <ele>1605.4000244141</ele>
        <time>2024-10-15T12:55:05.000Z</time>
      </trkpt>
      <trkpt lat="45.07948" lon="5.98164">
        <ele>1605.4000244141</ele>
        <time>2024-10-15T12:55:06.000Z</time>
      </trkpt>
      <trkpt lat="45.07948" lon="5.98166">
        <ele>1605.1999511719</ele>
        <time>2024-10-15T12:55:07.000Z</time>
      </trkpt>
      <trkpt lat="45.07947" lon="5.98167">
        <ele>1605.1999511719</ele>
        <time>2024-10-15T12:55:08.000Z</time>
      </trkpt>
      <trkpt lat="45.07947" lon="5.98169">
        <ele>1605.1999511719</ele>
        <time>2024-10-15T12:55:09.000Z</time>
      </trkpt>
      <trkpt lat="45.07946" lon="5.9817">
        <ele>1605.4000244141</ele>
        <time>2024-10-15T12:55:10.000Z</time>
      </trkpt>
      <trkpt lat="45.07946" lon="5.98172">
        <ele>1605.5999755859</ele>
        <time>2024-10-15T12:55:11.000Z</time>
      </trkpt>
      <trkpt lat="45.07945" lon="5.98174">
        <ele>1605.8000488281</ele>
        <time>2024-10-15T12:55:12.000Z</time>
      </trkpt>
      <trkpt lat="45.07945" lon="5.98175">
        <ele>1605.5999755859</ele>
        <time>2024-10-15T12:55:13.000Z</time>
      </trkpt>
      <trkpt lat="45.07944" lon="5.98176">
        <ele>1605.5999755859</ele>
        <time>2024-10-15T12:55:14.000Z</time>
      </trkpt>
      <trkpt lat="45.07944" lon="5.98177">
        <ele>1605.5999755859</ele>
        <time>2024-10-15T12:55:15.000Z</time>
      </trkpt>
      <trkpt lat="45.07944" lon="5.98178">
        <ele>1605.4000244141</ele>
        <time>2024-10-15T12:55:16.000Z</time>
      </trkpt>
      <trkpt lat="45.07943" lon="5.9818">
        <ele>1605</ele>
        <time>2024-10-15T12:55:17.000Z</time>
      </trkpt>
      <trkpt lat="45.07943" lon="5.98181">
        <ele>1604.5999755859</ele>
        <time>2024-10-15T12:55:18.000Z</time>
      </trkpt>
      <trkpt lat="45.07943" lon="5.98183">
        <ele>1604.4000244141</ele>
        <time>2024-10-15T12:55:19.000Z</time>
      </trkpt>
      <trkpt lat="45.07942" lon="5.98185">
        <ele>1604</ele>
        <time>2024-10-15T12:55:20.000Z</time>
      </trkpt>
      <trkpt lat="45.07942" lon="5.98186">
        <ele>1604</ele>
        <time>2024-10-15T12:55:21.000Z</time>
      </trkpt>
      <trkpt lat="45.07942" lon="5.98187">
        <ele>1603.8000488281</ele>
        <time>2024-10-15T12:55:22.000Z</time>
      </trkpt>
      <trkpt lat="45.07941" lon="5.98189">
        <ele>1603.8000488281</ele>
        <time>2024-10-15T12:55:23.000Z</time>
      </trkpt>
      <trkpt lat="45.07941" lon="5.9819">
        <ele>1603.8000488281</ele>
        <time>2024-10-15T12:55:24.000Z</time>
      </trkpt>
      <trkpt lat="45.07941" lon="5.98192">
        <ele>1603.5999755859</ele>
        <time>2024-10-15T12:55:25.000Z</time>
      </trkpt>
      <trkpt lat="45.07941" lon="5.98194">
        <ele>1603.4000244141</ele>
        <time>2024-10-15T12:55:26.000Z</time>
      </trkpt>
      <trkpt lat="45.0794" lon="5.98195">
        <ele>1603.1999511719</ele>
        <time>2024-10-15T12:55:27.000Z</time>
      </trkpt>
      <trkpt lat="45.0794" lon="5.98197">
        <ele>1603</ele>
        <time>2024-10-15T12:55:28.000Z</time>
      </trkpt>
      <trkpt lat="45.0794" lon="5.98198">
        <ele>1602.8000488281</ele>
        <time>2024-10-15T12:55:29.000Z</time>
      </trkpt>
      <trkpt lat="45.07939" lon="5.982">
        <ele>1602.4000244141</ele>
        <time>2024-10-15T12:55:30.000Z</time>
      </trkpt>
      <trkpt lat="45.07939" lon="5.98202">
        <ele>1602.1999511719</ele>
        <time>2024-10-15T12:55:31.000Z</time>
      </trkpt>
      <trkpt lat="45.07939" lon="5.98204">
        <ele>1602.1999511719</ele>
        <time>2024-10-15T12:55:32.000Z</time>
      </trkpt>
      <trkpt lat="45.07938" lon="5.98205">
        <ele>1602</ele>
        <time>2024-10-15T12:55:33.000Z</time>
      </trkpt>
      <trkpt lat="45.07937" lon="5.98207">
        <ele>1601.8000488281</ele>
        <time>2024-10-15T12:55:34.000Z</time>
      </trkpt>
      <trkpt lat="45.07937" lon="5.9821">
        <ele>1601.5999755859</ele>
        <time>2024-10-15T12:55:35.000Z</time>
      </trkpt>
      <trkpt lat="45.07937" lon="5.98211">
        <ele>1601.4000244141</ele>
        <time>2024-10-15T12:55:36.000Z</time>
      </trkpt>
      <trkpt lat="45.07936" lon="5.98212">
        <ele>1601.4000244141</ele>
        <time>2024-10-15T12:55:37.000Z</time>
      </trkpt>
      <trkpt lat="45.07936" lon="5.98214">
        <ele>1601.1999511719</ele>
        <time>2024-10-15T12:55:38.000Z</time>
      </trkpt>
      <trkpt lat="45.07936" lon="5.98216">
        <ele>1600.8000488281</ele>
        <time>2024-10-15T12:55:39.000Z</time>
      </trkpt>
      <trkpt lat="45.07936" lon="5.98217">
        <ele>1600.8000488281</ele>
        <time>2024-10-15T12:55:40.000Z</time>
      </trkpt>
      <trkpt lat="45.07935" lon="5.9822">
        <ele>1600.8000488281</ele>
        <time>2024-10-15T12:55:41.000Z</time>
      </trkpt>
      <trkpt lat="45.07935" lon="5.98222">
        <ele>1600.5999755859</ele>
        <time>2024-10-15T12:55:42.000Z</time>
      </trkpt>
      <trkpt lat="45.07934" lon="5.98223">
        <ele>1600.4000244141</ele>
        <time>2024-10-15T12:55:43.000Z</time>
      </trkpt>
      <trkpt lat="45.07933" lon="5.98224">
        <ele>1600.1999511719</ele>
        <time>2024-10-15T12:55:44.000Z</time>
      </trkpt>
      <trkpt lat="45.07933" lon="5.98226">
        <ele>1599.8000488281</ele>
        <time>2024-10-15T12:55:45.000Z</time>
      </trkpt>
      <trkpt lat="45.07933" lon="5.98227">
        <ele>1599.5999755859</ele>
        <time>2024-10-15T12:55:46.000Z</time>
      </trkpt>
      <trkpt lat="45.07932" lon="5.98229">
        <ele>1599.4000244141</ele>
        <time>2024-10-15T12:55:47.000Z</time>
      </trkpt>
      <trkpt lat="45.07932" lon="5.98231">
        <ele>1599.4000244141</ele>
        <time>2024-10-15T12:55:48.000Z</time>
      </trkpt>
      <trkpt lat="45.07932" lon="5.98231">
        <ele>1599.4000244141</ele>
        <time>2024-10-15T12:55:49.000Z</time>
      </trkpt>
      <trkpt lat="45.07931" lon="5.98233">
        <ele>1599.1999511719</ele>
        <time>2024-10-15T12:55:50.000Z</time>
      </trkpt>
      <trkpt lat="45.07931" lon="5.98234">
        <ele>1599.1999511719</ele>
        <time>2024-10-15T12:55:51.000Z</time>
      </trkpt>
      <trkpt lat="45.07931" lon="5.98236">
        <ele>1599.1999511719</ele>
        <time>2024-10-15T12:55:52.000Z</time>
      </trkpt>
      <trkpt lat="45.07931" lon="5.98237">
        <ele>1599</ele>
        <time>2024-10-15T12:55:53.000Z</time>
      </trkpt>
      <trkpt lat="45.0793" lon="5.98239">
        <ele>1599</ele>
        <time>2024-10-15T12:55:54.000Z</time>
      </trkpt>
      <trkpt lat="45.07931" lon="5.98239">
        <ele>1598.5999755859</ele>
        <time>2024-10-15T12:55:55.000Z</time>
      </trkpt>
      <trkpt lat="45.07931" lon="5.9824">
        <ele>1598.5999755859</ele>
        <time>2024-10-15T12:55:56.000Z</time>
      </trkpt>
      <trkpt lat="45.0793" lon="5.98242">
        <ele>1598.4000244141</ele>
        <time>2024-10-15T12:55:57.000Z</time>
      </trkpt>
      <trkpt lat="45.0793" lon="5.98244">
        <ele>1598.1999511719</ele>
        <time>2024-10-15T12:55:58.000Z</time>
      </trkpt>
      <trkpt lat="45.0793" lon="5.98246">
        <ele>1598</ele>
        <time>2024-10-15T12:55:59.000Z</time>
      </trkpt>
      <trkpt lat="45.07929" lon="5.98247">
        <ele>1597.5999755859</ele>
        <time>2024-10-15T12:56:00.000Z</time>
      </trkpt>
      <trkpt lat="45.07928" lon="5.98249">
        <ele>1597.5999755859</ele>
        <time>2024-10-15T12:56:01.000Z</time>
      </trkpt>
      <trkpt lat="45.07928" lon="5.9825">
        <ele>1597</ele>
        <time>2024-10-15T12:56:02.000Z</time>
      </trkpt>
      <trkpt lat="45.07927" lon="5.98252">
        <ele>1596.8000488281</ele>
        <time>2024-10-15T12:56:03.000Z</time>
      </trkpt>
      <trkpt lat="45.07926" lon="5.98253">
        <ele>1596.5999755859</ele>
        <time>2024-10-15T12:56:04.000Z</time>
      </trkpt>
      <trkpt lat="45.07926" lon="5.98254">
        <ele>1596.4000244141</ele>
        <time>2024-10-15T12:56:05.000Z</time>
      </trkpt>
      <trkpt lat="45.07925" lon="5.98255">
        <ele>1596</ele>
        <time>2024-10-15T12:56:06.000Z</time>
      </trkpt>
      <trkpt lat="45.07924" lon="5.98256">
        <ele>1595.8000488281</ele>
        <time>2024-10-15T12:56:07.000Z</time>
      </trkpt>
      <trkpt lat="45.07923" lon="5.98257">
        <ele>1595.5999755859</ele>
        <time>2024-10-15T12:56:08.000Z</time>
      </trkpt>
      <trkpt lat="45.07922" lon="5.98258">
        <ele>1595.1999511719</ele>
        <time>2024-10-15T12:56:09.000Z</time>
      </trkpt>
      <trkpt lat="45.07922" lon="5.98259">
        <ele>1594.8000488281</ele>
        <time>2024-10-15T12:56:10.000Z</time>
      </trkpt>
      <trkpt lat="45.07921" lon="5.98261">
        <ele>1594.1999511719</ele>
        <time>2024-10-15T12:56:11.000Z</time>
      </trkpt>
      <trkpt lat="45.0792" lon="5.98262">
        <ele>1593.8000488281</ele>
        <time>2024-10-15T12:56:12.000Z</time>
      </trkpt>
      <trkpt lat="45.0792" lon="5.98263">
        <ele>1593.8000488281</ele>
        <time>2024-10-15T12:56:13.000Z</time>
      </trkpt>
      <trkpt lat="45.07919" lon="5.98264">
        <ele>1593.5999755859</ele>
        <time>2024-10-15T12:56:14.000Z</time>
      </trkpt>
      <trkpt lat="45.07919" lon="5.98265">
        <ele>1593.4000244141</ele>
        <time>2024-10-15T12:56:15.000Z</time>
      </trkpt>
      <trkpt lat="45.07918" lon="5.98267">
        <ele>1593.1999511719</ele>
        <time>2024-10-15T12:56:16.000Z</time>
      </trkpt>
      <trkpt lat="45.07918" lon="5.98268">
        <ele>1593</ele>
        <time>2024-10-15T12:56:17.000Z</time>
      </trkpt>
      <trkpt lat="45.07917" lon="5.98269">
        <ele>1592.8000488281</ele>
        <time>2024-10-15T12:56:18.000Z</time>
      </trkpt>
      <trkpt lat="45.07917" lon="5.9827">
        <ele>1592.4000244141</ele>
        <time>2024-10-15T12:56:19.000Z</time>
      </trkpt>
      <trkpt lat="45.07916" lon="5.98272">
        <ele>1592.4000244141</ele>
        <time>2024-10-15T12:56:20.000Z</time>
      </trkpt>
      <trkpt lat="45.07915" lon="5.98273">
        <ele>1592</ele>
        <time>2024-10-15T12:56:21.000Z</time>
      </trkpt>
      <trkpt lat="45.07915" lon="5.98274">
        <ele>1591.8000488281</ele>
        <time>2024-10-15T12:56:22.000Z</time>
      </trkpt>
      <trkpt lat="45.07914" lon="5.98275">
        <ele>1591.5999755859</ele>
        <time>2024-10-15T12:56:23.000Z</time>
      </trkpt>
      <trkpt lat="45.07914" lon="5.98276">
        <ele>1591.4000244141</ele>
        <time>2024-10-15T12:56:24.000Z</time>
      </trkpt>
      <trkpt lat="45.07913" lon="5.98278">
        <ele>1591.1999511719</ele>
        <time>2024-10-15T12:56:25.000Z</time>
      </trkpt>
      <trkpt lat="45.07913" lon="5.98279">
        <ele>1590.5999755859</ele>
        <time>2024-10-15T12:56:26.000Z</time>
      </trkpt>
      <trkpt lat="45.07912" lon="5.98281">
        <ele>1590.4000244141</ele>
        <time>2024-10-15T12:56:27.000Z</time>
      </trkpt>
      <trkpt lat="45.07912" lon="5.98283">
        <ele>1590.4000244141</ele>
        <time>2024-10-15T12:56:28.000Z</time>
      </trkpt>
      <trkpt lat="45.07911" lon="5.98284">
        <ele>1590.1999511719</ele>
        <time>2024-10-15T12:56:29.000Z</time>
      </trkpt>
      <trkpt lat="45.07911" lon="5.98285">
        <ele>1590</ele>
        <time>2024-10-15T12:56:30.000Z</time>
      </trkpt>
      <trkpt lat="45.07911" lon="5.98287">
        <ele>1590</ele>
        <time>2024-10-15T12:56:31.000Z</time>
      </trkpt>
      <trkpt lat="45.07911" lon="5.98288">
        <ele>1589.8000488281</ele>
        <time>2024-10-15T12:56:32.000Z</time>
      </trkpt>
      <trkpt lat="45.0791" lon="5.98289">
        <ele>1589.8000488281</ele>
        <time>2024-10-15T12:56:33.000Z</time>
      </trkpt>
      <trkpt lat="45.0791" lon="5.9829">
        <ele>1589.8000488281</ele>
        <time>2024-10-15T12:56:34.000Z</time>
      </trkpt>
      <trkpt lat="45.07909" lon="5.98292">
        <ele>1589.5999755859</ele>
        <time>2024-10-15T12:56:35.000Z</time>
      </trkpt>
      <trkpt lat="45.07908" lon="5.98293">
        <ele>1589.4000244141</ele>
        <time>2024-10-15T12:56:36.000Z</time>
      </trkpt>
      <trkpt lat="45.07908" lon="5.98294">
        <ele>1589.1999511719</ele>
        <time>2024-10-15T12:56:37.000Z</time>
      </trkpt>
      <trkpt lat="45.07907" lon="5.98295">
        <ele>1589</ele>
        <time>2024-10-15T12:56:38.000Z</time>
      </trkpt>
      <trkpt lat="45.07907" lon="5.98297">
        <ele>1588.4000244141</ele>
        <time>2024-10-15T12:56:39.000Z</time>
      </trkpt>
      <trkpt lat="45.07907" lon="5.98298">
        <ele>1586.8000488281</ele>
        <time>2024-10-15T12:56:40.000Z</time>
      </trkpt>
      <trkpt lat="45.07906" lon="5.983">
        <ele>1586</ele>
        <time>2024-10-15T12:56:41.000Z</time>
      </trkpt>
      <trkpt lat="45.07906" lon="5.98301">
        <ele>1585.8000488281</ele>
        <time>2024-10-15T12:56:42.000Z</time>
      </trkpt>
      <trkpt lat="45.07906" lon="5.98302">
        <ele>1585.4000244141</ele>
        <time>2024-10-15T12:56:43.000Z</time>
      </trkpt>
      <trkpt lat="45.07907" lon="5.98304">
        <ele>1585</ele>
        <time>2024-10-15T12:56:44.000Z</time>
      </trkpt>
      <trkpt lat="45.07907" lon="5.98306">
        <ele>1585</ele>
        <time>2024-10-15T12:56:45.000Z</time>
      </trkpt>
      <trkpt lat="45.07907" lon="5.98307">
        <ele>1584.8000488281</ele>
        <time>2024-10-15T12:56:46.000Z</time>
      </trkpt>
      <trkpt lat="45.07908" lon="5.98309">
        <ele>1584.8000488281</ele>
        <time>2024-10-15T12:56:47.000Z</time>
      </trkpt>
      <trkpt lat="45.07908" lon="5.9831">
        <ele>1584.8000488281</ele>
        <time>2024-10-15T12:56:48.000Z</time>
      </trkpt>
      <trkpt lat="45.07908" lon="5.98312">
        <ele>1584.8000488281</ele>
        <time>2024-10-15T12:56:49.000Z</time>
      </trkpt>
      <trkpt lat="45.07907" lon="5.98313">
        <ele>1584.8000488281</ele>
        <time>2024-10-15T12:56:50.000Z</time>
      </trkpt>
      <trkpt lat="45.07907" lon="5.98315">
        <ele>1584.8000488281</ele>
        <time>2024-10-15T12:56:51.000Z</time>
      </trkpt>
      <trkpt lat="45.07907" lon="5.98316">
        <ele>1585.1999511719</ele>
        <time>2024-10-15T12:56:52.000Z</time>
      </trkpt>
      <trkpt lat="45.07907" lon="5.98317">
        <ele>1585.4000244141</ele>
        <time>2024-10-15T12:56:53.000Z</time>
      </trkpt>
      <trkpt lat="45.07906" lon="5.98319">
        <ele>1585.4000244141</ele>
        <time>2024-10-15T12:56:54.000Z</time>
      </trkpt>
      <trkpt lat="45.07906" lon="5.9832">
        <ele>1585.4000244141</ele>
        <time>2024-10-15T12:56:55.000Z</time>
      </trkpt>
      <trkpt lat="45.07907" lon="5.98322">
        <ele>1585.1999511719</ele>
        <time>2024-10-15T12:56:56.000Z</time>
      </trkpt>
      <trkpt lat="45.07907" lon="5.98324">
        <ele>1584.8000488281</ele>
        <time>2024-10-15T12:56:57.000Z</time>
      </trkpt>
      <trkpt lat="45.07907" lon="5.98325">
        <ele>1584.4000244141</ele>
        <time>2024-10-15T12:56:58.000Z</time>
      </trkpt>
      <trkpt lat="45.07907" lon="5.98327">
        <ele>1584.1999511719</ele>
        <time>2024-10-15T12:56:59.000Z</time>
      </trkpt>
      <trkpt lat="45.07907" lon="5.98328">
        <ele>1584.1999511719</ele>
        <time>2024-10-15T12:57:00.000Z</time>
      </trkpt>
      <trkpt lat="45.07908" lon="5.9833">
        <ele>1584.1999511719</ele>
        <time>2024-10-15T12:57:01.000Z</time>
      </trkpt>
      <trkpt lat="45.07908" lon="5.98331">
        <ele>1584.1999511719</ele>
        <time>2024-10-15T12:57:02.000Z</time>
      </trkpt>
      <trkpt lat="45.07908" lon="5.98332">
        <ele>1584.1999511719</ele>
        <time>2024-10-15T12:57:03.000Z</time>
      </trkpt>
      <trkpt lat="45.07908" lon="5.98334">
        <ele>1584.1999511719</ele>
        <time>2024-10-15T12:57:04.000Z</time>
      </trkpt>
      <trkpt lat="45.07909" lon="5.98335">
        <ele>1584</ele>
        <time>2024-10-15T12:57:05.000Z</time>
      </trkpt>
      <trkpt lat="45.07909" lon="5.98337">
        <ele>1584</ele>
        <time>2024-10-15T12:57:06.000Z</time>
      </trkpt>
      <trkpt lat="45.07909" lon="5.98339">
        <ele>1584</ele>
        <time>2024-10-15T12:57:07.000Z</time>
      </trkpt>
      <trkpt lat="45.07909" lon="5.9834">
        <ele>1584</ele>
        <time>2024-10-15T12:57:08.000Z</time>
      </trkpt>
      <trkpt lat="45.07908" lon="5.98342">
        <ele>1583.5999755859</ele>
        <time>2024-10-15T12:57:09.000Z</time>
      </trkpt>
      <trkpt lat="45.07907" lon="5.98343">
        <ele>1583.5999755859</ele>
        <time>2024-10-15T12:57:10.000Z</time>
      </trkpt>
      <trkpt lat="45.07907" lon="5.98345">
        <ele>1583.4000244141</ele>
        <time>2024-10-15T12:57:11.000Z</time>
      </trkpt>
      <trkpt lat="45.07907" lon="5.98347">
        <ele>1583.1999511719</ele>
        <time>2024-10-15T12:57:12.000Z</time>
      </trkpt>
      <trkpt lat="45.07907" lon="5.98348">
        <ele>1583</ele>
        <time>2024-10-15T12:57:13.000Z</time>
      </trkpt>
      <trkpt lat="45.07908" lon="5.98349">
        <ele>1582.8000488281</ele>
        <time>2024-10-15T12:57:14.000Z</time>
      </trkpt>
      <trkpt lat="45.07908" lon="5.98351">
        <ele>1582.8000488281</ele>
        <time>2024-10-15T12:57:15.000Z</time>
      </trkpt>
      <trkpt lat="45.07909" lon="5.98352">
        <ele>1582.8000488281</ele>
        <time>2024-10-15T12:57:16.000Z</time>
      </trkpt>
      <trkpt lat="45.0791" lon="5.98353">
        <ele>1582.8000488281</ele>
        <time>2024-10-15T12:57:17.000Z</time>
      </trkpt>
      <trkpt lat="45.0791" lon="5.98354">
        <ele>1583</ele>
        <time>2024-10-15T12:57:18.000Z</time>
      </trkpt>
      <trkpt lat="45.0791" lon="5.98356">
        <ele>1583</ele>
        <time>2024-10-15T12:57:19.000Z</time>
      </trkpt>
      <trkpt lat="45.07911" lon="5.98357">
        <ele>1583</ele>
        <time>2024-10-15T12:57:20.000Z</time>
      </trkpt>
      <trkpt lat="45.07911" lon="5.98358">
        <ele>1583.1999511719</ele>
        <time>2024-10-15T12:57:21.000Z</time>
      </trkpt>
      <trkpt lat="45.07912" lon="5.98359">
        <ele>1583.4000244141</ele>
        <time>2024-10-15T12:57:22.000Z</time>
      </trkpt>
      <trkpt lat="45.07912" lon="5.9836">
        <ele>1583.4000244141</ele>
        <time>2024-10-15T12:57:23.000Z</time>
      </trkpt>
      <trkpt lat="45.07913" lon="5.98361">
        <ele>1583.8000488281</ele>
        <time>2024-10-15T12:57:24.000Z</time>
      </trkpt>
      <trkpt lat="45.07913" lon="5.98362">
        <ele>1583.8000488281</ele>
        <time>2024-10-15T12:57:25.000Z</time>
      </trkpt>
      <trkpt lat="45.07914" lon="5.98363">
        <ele>1583.8000488281</ele>
        <time>2024-10-15T12:57:26.000Z</time>
      </trkpt>
      <trkpt lat="45.07914" lon="5.98364">
        <ele>1583.8000488281</ele>
        <time>2024-10-15T12:57:27.000Z</time>
      </trkpt>
      <trkpt lat="45.07915" lon="5.98365">
        <ele>1583.4000244141</ele>
        <time>2024-10-15T12:57:28.000Z</time>
      </trkpt>
      <trkpt lat="45.07915" lon="5.98366">
        <ele>1583.4000244141</ele>
        <time>2024-10-15T12:57:29.000Z</time>
      </trkpt>
      <trkpt lat="45.07916" lon="5.98368">
        <ele>1583.4000244141</ele>
        <time>2024-10-15T12:57:30.000Z</time>
      </trkpt>
      <trkpt lat="45.07916" lon="5.98369">
        <ele>1583.4000244141</ele>
        <time>2024-10-15T12:57:31.000Z</time>
      </trkpt>
      <trkpt lat="45.07917" lon="5.9837">
        <ele>1583.4000244141</ele>
        <time>2024-10-15T12:57:32.000Z</time>
      </trkpt>
      <trkpt lat="45.07917" lon="5.98371">
        <ele>1583.4000244141</ele>
        <time>2024-10-15T12:57:33.000Z</time>
      </trkpt>
      <trkpt lat="45.07918" lon="5.98373">
        <ele>1583.4000244141</ele>
        <time>2024-10-15T12:57:34.000Z</time>
      </trkpt>
      <trkpt lat="45.07918" lon="5.98375">
        <ele>1584</ele>
        <time>2024-10-15T12:57:35.000Z</time>
      </trkpt>
      <trkpt lat="45.07919" lon="5.98376">
        <ele>1584</ele>
        <time>2024-10-15T12:57:36.000Z</time>
      </trkpt>
      <trkpt lat="45.07919" lon="5.98377">
        <ele>1584</ele>
        <time>2024-10-15T12:57:37.000Z</time>
      </trkpt>
      <trkpt lat="45.0792" lon="5.98378">
        <ele>1584</ele>
        <time>2024-10-15T12:57:38.000Z</time>
      </trkpt>
      <trkpt lat="45.0792" lon="5.98379">
        <ele>1584</ele>
        <time>2024-10-15T12:57:39.000Z</time>
      </trkpt>
      <trkpt lat="45.0792" lon="5.98381">
        <ele>1583.5999755859</ele>
        <time>2024-10-15T12:57:40.000Z</time>
      </trkpt>
      <trkpt lat="45.0792" lon="5.98382">
        <ele>1583.5999755859</ele>
        <time>2024-10-15T12:57:41.000Z</time>
      </trkpt>
      <trkpt lat="45.0792" lon="5.98384">
        <ele>1583.5999755859</ele>
        <time>2024-10-15T12:57:42.000Z</time>
      </trkpt>
      <trkpt lat="45.0792" lon="5.98385">
        <ele>1583.5999755859</ele>
        <time>2024-10-15T12:57:43.000Z</time>
      </trkpt>
      <trkpt lat="45.0792" lon="5.98387">
        <ele>1583.5999755859</ele>
        <time>2024-10-15T12:57:44.000Z</time>
      </trkpt>
      <trkpt lat="45.0792" lon="5.98388">
        <ele>1583.8000488281</ele>
        <time>2024-10-15T12:57:45.000Z</time>
      </trkpt>
      <trkpt lat="45.07921" lon="5.98389">
        <ele>1584</ele>
        <time>2024-10-15T12:57:46.000Z</time>
      </trkpt>
      <trkpt lat="45.07921" lon="5.9839">
        <ele>1584.5999755859</ele>
        <time>2024-10-15T12:57:47.000Z</time>
      </trkpt>
      <trkpt lat="45.07921" lon="5.98392">
        <ele>1584.8000488281</ele>
        <time>2024-10-15T12:57:48.000Z</time>
      </trkpt>
      <trkpt lat="45.07921" lon="5.98393">
        <ele>1585</ele>
        <time>2024-10-15T12:57:49.000Z</time>
      </trkpt>
      <trkpt lat="45.07922" lon="5.98395">
        <ele>1584.8000488281</ele>
        <time>2024-10-15T12:57:50.000Z</time>
      </trkpt>
      <trkpt lat="45.07922" lon="5.98396">
        <ele>1584.8000488281</ele>
        <time>2024-10-15T12:57:51.000Z</time>
      </trkpt>
      <trkpt lat="45.07922" lon="5.98397">
        <ele>1584.8000488281</ele>
        <time>2024-10-15T12:57:52.000Z</time>
      </trkpt>
      <trkpt lat="45.07923" lon="5.98399">
        <ele>1584.5999755859</ele>
        <time>2024-10-15T12:57:53.000Z</time>
      </trkpt>
      <trkpt lat="45.07923" lon="5.984">
        <ele>1584.5999755859</ele>
        <time>2024-10-15T12:57:54.000Z</time>
      </trkpt>
      <trkpt lat="45.07923" lon="5.98401">
        <ele>1584.5999755859</ele>
        <time>2024-10-15T12:57:55.000Z</time>
      </trkpt>
      <trkpt lat="45.07923" lon="5.98402">
        <ele>1584.4000244141</ele>
        <time>2024-10-15T12:57:56.000Z</time>
      </trkpt>
      <trkpt lat="45.07924" lon="5.98404">
        <ele>1584.4000244141</ele>
        <time>2024-10-15T12:57:57.000Z</time>
      </trkpt>
      <trkpt lat="45.07924" lon="5.98405">
        <ele>1584.4000244141</ele>
        <time>2024-10-15T12:57:58.000Z</time>
      </trkpt>
      <trkpt lat="45.07924" lon="5.98406">
        <ele>1584.1999511719</ele>
        <time>2024-10-15T12:57:59.000Z</time>
      </trkpt>
      <trkpt lat="45.07924" lon="5.98408">
        <ele>1584.1999511719</ele>
        <time>2024-10-15T12:58:00.000Z</time>
      </trkpt>
      <trkpt lat="45.07925" lon="5.98409">
        <ele>1584.1999511719</ele>
        <time>2024-10-15T12:58:01.000Z</time>
      </trkpt>
      <trkpt lat="45.07926" lon="5.98411">
        <ele>1584.1999511719</ele>
        <time>2024-10-15T12:58:02.000Z</time>
      </trkpt>
      <trkpt lat="45.07927" lon="5.98412">
        <ele>1584</ele>
        <time>2024-10-15T12:58:03.000Z</time>
      </trkpt>
      <trkpt lat="45.07928" lon="5.98414">
        <ele>1584</ele>
        <time>2024-10-15T12:58:04.000Z</time>
      </trkpt>
      <trkpt lat="45.07929" lon="5.98415">
        <ele>1583.8000488281</ele>
        <time>2024-10-15T12:58:05.000Z</time>
      </trkpt>
      <trkpt lat="45.0793" lon="5.98416">
        <ele>1583.8000488281</ele>
        <time>2024-10-15T12:58:06.000Z</time>
      </trkpt>
      <trkpt lat="45.0793" lon="5.98417">
        <ele>1583.5999755859</ele>
        <time>2024-10-15T12:58:07.000Z</time>
      </trkpt>
      <trkpt lat="45.0793" lon="5.98419">
        <ele>1583.5999755859</ele>
        <time>2024-10-15T12:58:08.000Z</time>
      </trkpt>
      <trkpt lat="45.0793" lon="5.98421">
        <ele>1583.5999755859</ele>
        <time>2024-10-15T12:58:09.000Z</time>
      </trkpt>
      <trkpt lat="45.0793" lon="5.98422">
        <ele>1583.5999755859</ele>
        <time>2024-10-15T12:58:10.000Z</time>
      </trkpt>
      <trkpt lat="45.07931" lon="5.98424">
        <ele>1583.1999511719</ele>
        <time>2024-10-15T12:58:11.000Z</time>
      </trkpt>
      <trkpt lat="45.07931" lon="5.98425">
        <ele>1583.1999511719</ele>
        <time>2024-10-15T12:58:12.000Z</time>
      </trkpt>
      <trkpt lat="45.0793" lon="5.98426">
        <ele>1583</ele>
        <time>2024-10-15T12:58:13.000Z</time>
      </trkpt>
      <trkpt lat="45.07931" lon="5.98428">
        <ele>1583</ele>
        <time>2024-10-15T12:58:14.000Z</time>
      </trkpt>
      <trkpt lat="45.07931" lon="5.98429">
        <ele>1582.8000488281</ele>
        <time>2024-10-15T12:58:15.000Z</time>
      </trkpt>
      <trkpt lat="45.07931" lon="5.98431">
        <ele>1582.8000488281</ele>
        <time>2024-10-15T12:58:16.000Z</time>
      </trkpt>
      <trkpt lat="45.07931" lon="5.98432">
        <ele>1582.5999755859</ele>
        <time>2024-10-15T12:58:17.000Z</time>
      </trkpt>
      <trkpt lat="45.07931" lon="5.98434">
        <ele>1582.4000244141</ele>
        <time>2024-10-15T12:58:18.000Z</time>
      </trkpt>
      <trkpt lat="45.07931" lon="5.98436">
        <ele>1582.4000244141</ele>
        <time>2024-10-15T12:58:19.000Z</time>
      </trkpt>
      <trkpt lat="45.07932" lon="5.98438">
        <ele>1582.4000244141</ele>
        <time>2024-10-15T12:58:20.000Z</time>
      </trkpt>
      <trkpt lat="45.07932" lon="5.9844">
        <ele>1582.4000244141</ele>
        <time>2024-10-15T12:58:21.000Z</time>
      </trkpt>
      <trkpt lat="45.07932" lon="5.98441">
        <ele>1582.4000244141</ele>
        <time>2024-10-15T12:58:22.000Z</time>
      </trkpt>
      <trkpt lat="45.07932" lon="5.98443">
        <ele>1582.4000244141</ele>
        <time>2024-10-15T12:58:23.000Z</time>
      </trkpt>
      <trkpt lat="45.07933" lon="5.98445">
        <ele>1582.5999755859</ele>
        <time>2024-10-15T12:58:24.000Z</time>
      </trkpt>
      <trkpt lat="45.07933" lon="5.98446">
        <ele>1582.5999755859</ele>
        <time>2024-10-15T12:58:25.000Z</time>
      </trkpt>
      <trkpt lat="45.07933" lon="5.98448">
        <ele>1582.5999755859</ele>
        <time>2024-10-15T12:58:26.000Z</time>
      </trkpt>
      <trkpt lat="45.07932" lon="5.9845">
        <ele>1582.5999755859</ele>
        <time>2024-10-15T12:58:27.000Z</time>
      </trkpt>
      <trkpt lat="45.07932" lon="5.98452">
        <ele>1582.4000244141</ele>
        <time>2024-10-15T12:58:28.000Z</time>
      </trkpt>
      <trkpt lat="45.07933" lon="5.98454">
        <ele>1582</ele>
        <time>2024-10-15T12:58:29.000Z</time>
      </trkpt>
      <trkpt lat="45.07932" lon="5.98456">
        <ele>1581.8000488281</ele>
        <time>2024-10-15T12:58:30.000Z</time>
      </trkpt>
      <trkpt lat="45.07932" lon="5.98457">
        <ele>1581.8000488281</ele>
        <time>2024-10-15T12:58:31.000Z</time>
      </trkpt>
      <trkpt lat="45.07932" lon="5.98459">
        <ele>1581.4000244141</ele>
        <time>2024-10-15T12:58:32.000Z</time>
      </trkpt>
      <trkpt lat="45.07932" lon="5.9846">
        <ele>1581</ele>
        <time>2024-10-15T12:58:33.000Z</time>
      </trkpt>
      <trkpt lat="45.07932" lon="5.98462">
        <ele>1580.8000488281</ele>
        <time>2024-10-15T12:58:34.000Z</time>
      </trkpt>
      <trkpt lat="45.07932" lon="5.98464">
        <ele>1580.8000488281</ele>
        <time>2024-10-15T12:58:35.000Z</time>
      </trkpt>
      <trkpt lat="45.07931" lon="5.98466">
        <ele>1580.8000488281</ele>
        <time>2024-10-15T12:58:36.000Z</time>
      </trkpt>
      <trkpt lat="45.07931" lon="5.98467">
        <ele>1580.8000488281</ele>
        <time>2024-10-15T12:58:37.000Z</time>
      </trkpt>
      <trkpt lat="45.07931" lon="5.98469">
        <ele>1580.8000488281</ele>
        <time>2024-10-15T12:58:38.000Z</time>
      </trkpt>
      <trkpt lat="45.0793" lon="5.9847">
        <ele>1581</ele>
        <time>2024-10-15T12:58:39.000Z</time>
      </trkpt>
      <trkpt lat="45.0793" lon="5.98472">
        <ele>1581</ele>
        <time>2024-10-15T12:58:40.000Z</time>
      </trkpt>
      <trkpt lat="45.0793" lon="5.98473">
        <ele>1581</ele>
        <time>2024-10-15T12:58:41.000Z</time>
      </trkpt>
      <trkpt lat="45.0793" lon="5.98475">
        <ele>1581</ele>
        <time>2024-10-15T12:58:42.000Z</time>
      </trkpt>
      <trkpt lat="45.0793" lon="5.98478">
        <ele>1581.1999511719</ele>
        <time>2024-10-15T12:58:43.000Z</time>
      </trkpt>
      <trkpt lat="45.0793" lon="5.98479">
        <ele>1581.4000244141</ele>
        <time>2024-10-15T12:58:44.000Z</time>
      </trkpt>
      <trkpt lat="45.0793" lon="5.98481">
        <ele>1581.4000244141</ele>
        <time>2024-10-15T12:58:45.000Z</time>
      </trkpt>
      <trkpt lat="45.0793" lon="5.98483">
        <ele>1581.4000244141</ele>
        <time>2024-10-15T12:58:46.000Z</time>
      </trkpt>
      <trkpt lat="45.0793" lon="5.98485">
        <ele>1581.1999511719</ele>
        <time>2024-10-15T12:58:47.000Z</time>
      </trkpt>
      <trkpt lat="45.0793" lon="5.98486">
        <ele>1581.4000244141</ele>
        <time>2024-10-15T12:58:48.000Z</time>
      </trkpt>
      <trkpt lat="45.0793" lon="5.98488">
        <ele>1581.4000244141</ele>
        <time>2024-10-15T12:58:49.000Z</time>
      </trkpt>
      <trkpt lat="45.07929" lon="5.9849">
        <ele>1581.4000244141</ele>
        <time>2024-10-15T12:58:50.000Z</time>
      </trkpt>
      <trkpt lat="45.07929" lon="5.98492">
        <ele>1581.4000244141</ele>
        <time>2024-10-15T12:58:51.000Z</time>
      </trkpt>
      <trkpt lat="45.07929" lon="5.98493">
        <ele>1581.4000244141</ele>
        <time>2024-10-15T12:58:52.000Z</time>
      </trkpt>
      <trkpt lat="45.07929" lon="5.98495">
        <ele>1581.4000244141</ele>
        <time>2024-10-15T12:58:53.000Z</time>
      </trkpt>
      <trkpt lat="45.07929" lon="5.98497">
        <ele>1581.4000244141</ele>
        <time>2024-10-15T12:58:54.000Z</time>
      </trkpt>
      <trkpt lat="45.07929" lon="5.98499">
        <ele>1581.1999511719</ele>
        <time>2024-10-15T12:58:55.000Z</time>
      </trkpt>
      <trkpt lat="45.07929" lon="5.985">
        <ele>1581.1999511719</ele>
        <time>2024-10-15T12:58:56.000Z</time>
      </trkpt>
      <trkpt lat="45.07929" lon="5.98502">
        <ele>1581.1999511719</ele>
        <time>2024-10-15T12:58:57.000Z</time>
      </trkpt>
      <trkpt lat="45.07929" lon="5.98503">
        <ele>1581.1999511719</ele>
        <time>2024-10-15T12:58:58.000Z</time>
      </trkpt>
      <trkpt lat="45.0793" lon="5.98505">
        <ele>1581</ele>
        <time>2024-10-15T12:58:59.000Z</time>
      </trkpt>
      <trkpt lat="45.0793" lon="5.98507">
        <ele>1581.1999511719</ele>
        <time>2024-10-15T12:59:00.000Z</time>
      </trkpt>
      <trkpt lat="45.0793" lon="5.98509">
        <ele>1581</ele>
        <time>2024-10-15T12:59:01.000Z</time>
      </trkpt>
      <trkpt lat="45.0793" lon="5.98511">
        <ele>1581.1999511719</ele>
        <time>2024-10-15T12:59:02.000Z</time>
      </trkpt>
      <trkpt lat="45.0793" lon="5.98513">
        <ele>1581.1999511719</ele>
        <time>2024-10-15T12:59:03.000Z</time>
      </trkpt>
      <trkpt lat="45.0793" lon="5.98514">
        <ele>1581.1999511719</ele>
        <time>2024-10-15T12:59:04.000Z</time>
      </trkpt>
      <trkpt lat="45.0793" lon="5.98516">
        <ele>1581.4000244141</ele>
        <time>2024-10-15T12:59:05.000Z</time>
      </trkpt>
      <trkpt lat="45.0793" lon="5.98518">
        <ele>1581.4000244141</ele>
        <time>2024-10-15T12:59:06.000Z</time>
      </trkpt>
      <trkpt lat="45.0793" lon="5.98519">
        <ele>1581.5999755859</ele>
        <time>2024-10-15T12:59:07.000Z</time>
      </trkpt>
      <trkpt lat="45.07929" lon="5.9852">
        <ele>1581.5999755859</ele>
        <time>2024-10-15T12:59:08.000Z</time>
      </trkpt>
      <trkpt lat="45.07929" lon="5.98522">
        <ele>1581.5999755859</ele>
        <time>2024-10-15T12:59:09.000Z</time>
      </trkpt>
      <trkpt lat="45.07929" lon="5.98524">
        <ele>1581.5999755859</ele>
        <time>2024-10-15T12:59:10.000Z</time>
      </trkpt>
      <trkpt lat="45.07929" lon="5.98525">
        <ele>1581.5999755859</ele>
        <time>2024-10-15T12:59:11.000Z</time>
      </trkpt>
      <trkpt lat="45.07929" lon="5.98527">
        <ele>1581.5999755859</ele>
        <time>2024-10-15T12:59:12.000Z</time>
      </trkpt>
      <trkpt lat="45.07928" lon="5.98528">
        <ele>1581.8000488281</ele>
        <time>2024-10-15T12:59:13.000Z</time>
      </trkpt>
      <trkpt lat="45.07928" lon="5.98529">
        <ele>1581.8000488281</ele>
        <time>2024-10-15T12:59:14.000Z</time>
      </trkpt>
      <trkpt lat="45.07928" lon="5.9853">
        <ele>1582</ele>
        <time>2024-10-15T12:59:15.000Z</time>
      </trkpt>
      <trkpt lat="45.07928" lon="5.98531">
        <ele>1582</ele>
        <time>2024-10-15T12:59:16.000Z</time>
      </trkpt>
      <trkpt lat="45.07928" lon="5.98533">
        <ele>1582.1999511719</ele>
        <time>2024-10-15T12:59:17.000Z</time>
      </trkpt>
      <trkpt lat="45.07928" lon="5.98534">
        <ele>1582.1999511719</ele>
        <time>2024-10-15T12:59:18.000Z</time>
      </trkpt>
      <trkpt lat="45.07927" lon="5.98535">
        <ele>1582.1999511719</ele>
        <time>2024-10-15T12:59:19.000Z</time>
      </trkpt>
      <trkpt lat="45.07927" lon="5.98537">
        <ele>1582</ele>
        <time>2024-10-15T12:59:20.000Z</time>
      </trkpt>
      <trkpt lat="45.07927" lon="5.98538">
        <ele>1581.8000488281</ele>
        <time>2024-10-15T12:59:21.000Z</time>
      </trkpt>
      <trkpt lat="45.07927" lon="5.9854">
        <ele>1581.8000488281</ele>
        <time>2024-10-15T12:59:22.000Z</time>
      </trkpt>
      <trkpt lat="45.07927" lon="5.98541">
        <ele>1581.5999755859</ele>
        <time>2024-10-15T12:59:23.000Z</time>
      </trkpt>
      <trkpt lat="45.07927" lon="5.98542">
        <ele>1581</ele>
        <time>2024-10-15T12:59:24.000Z</time>
      </trkpt>
      <trkpt lat="45.07927" lon="5.98542">
        <ele>1580.8000488281</ele>
        <time>2024-10-15T12:59:25.000Z</time>
      </trkpt>
      <trkpt lat="45.07927" lon="5.98542">
        <ele>1580.8000488281</ele>
        <time>2024-10-15T12:59:26.000Z</time>
      </trkpt>
      <trkpt lat="45.07928" lon="5.98541">
        <ele>1580.8000488281</ele>
        <time>2024-10-15T12:59:27.000Z</time>
      </trkpt>
      <trkpt lat="45.07928" lon="5.98541">
        <ele>1580.8000488281</ele>
        <time>2024-10-15T12:59:28.000Z</time>
      </trkpt>
      <trkpt lat="45.07928" lon="5.9854">
        <ele>1580.8000488281</ele>
        <time>2024-10-15T12:59:29.000Z</time>
      </trkpt>
      <trkpt lat="45.07928" lon="5.9854">
        <ele>1580.8000488281</ele>
        <time>2024-10-15T12:59:30.000Z</time>
      </trkpt>
      <trkpt lat="45.07928" lon="5.9854">
        <ele>1580.8000488281</ele>
        <time>2024-10-15T12:59:31.000Z</time>
      </trkpt>
      <trkpt lat="45.07928" lon="5.9854">
        <ele>1580.8000488281</ele>
        <time>2024-10-15T12:59:32.000Z</time>
      </trkpt>
      <trkpt lat="45.07928" lon="5.98541">
        <ele>1580.8000488281</ele>
        <time>2024-10-15T12:59:33.000Z</time>
      </trkpt>
      <trkpt lat="45.07928" lon="5.9854">
        <ele>1580.8000488281</ele>
        <time>2024-10-15T12:59:34.000Z</time>
      </trkpt>
      <trkpt lat="45.07928" lon="5.9854">
        <ele>1580.5999755859</ele>
        <time>2024-10-15T12:59:35.000Z</time>
      </trkpt>
      <trkpt lat="45.07928" lon="5.9854">
        <ele>1580.5999755859</ele>
        <time>2024-10-15T12:59:36.000Z</time>
      </trkpt>
      <trkpt lat="45.07928" lon="5.9854">
        <ele>1580.5999755859</ele>
        <time>2024-10-15T12:59:37.000Z</time>
      </trkpt>
      <trkpt lat="45.07928" lon="5.9854">
        <ele>1580.5999755859</ele>
        <time>2024-10-15T12:59:38.000Z</time>
      </trkpt>
      <trkpt lat="45.07928" lon="5.9854">
        <ele>1580.4000244141</ele>
        <time>2024-10-15T12:59:39.000Z</time>
      </trkpt>
      <trkpt lat="45.07928" lon="5.9854">
        <ele>1580.4000244141</ele>
        <time>2024-10-15T12:59:40.000Z</time>
      </trkpt>
      <trkpt lat="45.07928" lon="5.9854">
        <ele>1580.4000244141</ele>
        <time>2024-10-15T12:59:41.000Z</time>
      </trkpt>
      <trkpt lat="45.07928" lon="5.9854">
        <ele>1580.4000244141</ele>
        <time>2024-10-15T12:59:42.000Z</time>
      </trkpt>
      <trkpt lat="45.07928" lon="5.9854">
        <ele>1580.4000244141</ele>
        <time>2024-10-15T12:59:43.000Z</time>
      </trkpt>
      <trkpt lat="45.07928" lon="5.9854">
        <ele>1580.4000244141</ele>
        <time>2024-10-15T12:59:44.000Z</time>
      </trkpt>
      <trkpt lat="45.07928" lon="5.9854">
        <ele>1580.4000244141</ele>
        <time>2024-10-15T12:59:45.000Z</time>
      </trkpt>
      <trkpt lat="45.07928" lon="5.9854">
        <ele>1580.4000244141</ele>
        <time>2024-10-15T12:59:46.000Z</time>
      </trkpt>
      <trkpt lat="45.07928" lon="5.9854">
        <ele>1580.4000244141</ele>
        <time>2024-10-15T12:59:47.000Z</time>
      </trkpt>
      <trkpt lat="45.07928" lon="5.9854">
        <ele>1580.4000244141</ele>
        <time>2024-10-15T12:59:48.000Z</time>
      </trkpt>
      <trkpt lat="45.07928" lon="5.9854">
        <ele>1580.1999511719</ele>
        <time>2024-10-15T12:59:49.000Z</time>
      </trkpt>
      <trkpt lat="45.07928" lon="5.9854">
        <ele>1580</ele>
        <time>2024-10-15T12:59:50.000Z</time>
      </trkpt>
      <trkpt lat="45.07928" lon="5.9854">
        <ele>1579.8000488281</ele>
        <time>2024-10-15T12:59:51.000Z</time>
      </trkpt>
      <trkpt lat="45.07928" lon="5.9854">
        <ele>1579.5999755859</ele>
        <time>2024-10-15T12:59:52.000Z</time>
      </trkpt>
      <trkpt lat="45.07928" lon="5.9854">
        <ele>1579.5999755859</ele>
        <time>2024-10-15T12:59:53.000Z</time>
      </trkpt>
      <trkpt lat="45.07928" lon="5.9854">
        <ele>1579.5999755859</ele>
        <time>2024-10-15T12:59:54.000Z</time>
      </trkpt>
      <trkpt lat="45.07928" lon="5.9854">
        <ele>1579.4000244141</ele>
        <time>2024-10-15T12:59:55.000Z</time>
      </trkpt>
      <trkpt lat="45.07928" lon="5.9854">
        <ele>1579.4000244141</ele>
        <time>2024-10-15T12:59:56.000Z</time>
      </trkpt>
      <trkpt lat="45.07928" lon="5.9854">
        <ele>1579.4000244141</ele>
        <time>2024-10-15T12:59:57.000Z</time>
      </trkpt>
      <trkpt lat="45.07928" lon="5.9854">
        <ele>1579.4000244141</ele>
        <time>2024-10-15T12:59:58.000Z</time>
      </trkpt>
      <trkpt lat="45.07928" lon="5.9854">
        <ele>1579.4000244141</ele>
        <time>2024-10-15T12:59:59.000Z</time>
      </trkpt>
      <trkpt lat="45.07928" lon="5.9854">
        <ele>1579</ele>
        <time>2024-10-15T13:00:00.000Z</time>
      </trkpt>
      <trkpt lat="45.07927" lon="5.9854">
        <ele>1578.1999511719</ele>
        <time>2024-10-15T13:00:01.000Z</time>
      </trkpt>
      <trkpt lat="45.07926" lon="5.98539">
        <ele>1577.5999755859</ele>
        <time>2024-10-15T13:00:02.000Z</time>
      </trkpt>
      <trkpt lat="45.07924" lon="5.98539">
        <ele>1577.1999511719</ele>
        <time>2024-10-15T13:00:03.000Z</time>
      </trkpt>
      <trkpt lat="45.07923" lon="5.98538">
        <ele>1577.1999511719</ele>
        <time>2024-10-15T13:00:04.000Z</time>
      </trkpt>
      <trkpt lat="45.07922" lon="5.98538">
        <ele>1576.4000244141</ele>
        <time>2024-10-15T13:00:05.000Z</time>
      </trkpt>
      <trkpt lat="45.0792" lon="5.98537">
        <ele>1576</ele>
        <time>2024-10-15T13:00:06.000Z</time>
      </trkpt>
      <trkpt lat="45.07919" lon="5.98536">
        <ele>1575.8000488281</ele>
        <time>2024-10-15T13:00:07.000Z</time>
      </trkpt>
      <trkpt lat="45.07918" lon="5.98535">
        <ele>1575.4000244141</ele>
        <time>2024-10-15T13:00:08.000Z</time>
      </trkpt>
      <trkpt lat="45.07917" lon="5.98535">
        <ele>1575.1999511719</ele>
        <time>2024-10-15T13:00:09.000Z</time>
      </trkpt>
      <trkpt lat="45.07916" lon="5.98534">
        <ele>1575</ele>
        <time>2024-10-15T13:00:10.000Z</time>
      </trkpt>
      <trkpt lat="45.07915" lon="5.98534">
        <ele>1574.5999755859</ele>
        <time>2024-10-15T13:00:11.000Z</time>
      </trkpt>
      <trkpt lat="45.07914" lon="5.98533">
        <ele>1574.1999511719</ele>
        <time>2024-10-15T13:00:12.000Z</time>
      </trkpt>
      <trkpt lat="45.07914" lon="5.98533">
        <ele>1573.5999755859</ele>
        <time>2024-10-15T13:00:13.000Z</time>
      </trkpt>
      <trkpt lat="45.07913" lon="5.98532">
        <ele>1573.1999511719</ele>
        <time>2024-10-15T13:00:14.000Z</time>
      </trkpt>
      <trkpt lat="45.07913" lon="5.98532">
        <ele>1573</ele>
        <time>2024-10-15T13:00:15.000Z</time>
      </trkpt>
      <trkpt lat="45.07912" lon="5.98532">
        <ele>1572.5999755859</ele>
        <time>2024-10-15T13:00:16.000Z</time>
      </trkpt>
      <trkpt lat="45.07912" lon="5.98532">
        <ele>1572.4000244141</ele>
        <time>2024-10-15T13:00:17.000Z</time>
      </trkpt>
      <trkpt lat="45.07911" lon="5.98532">
        <ele>1572.1999511719</ele>
        <time>2024-10-15T13:00:18.000Z</time>
      </trkpt>
      <trkpt lat="45.0791" lon="5.98532">
        <ele>1571.5999755859</ele>
        <time>2024-10-15T13:00:19.000Z</time>
      </trkpt>
      <trkpt lat="45.07909" lon="5.98532">
        <ele>1571.4000244141</ele>
        <time>2024-10-15T13:00:20.000Z</time>
      </trkpt>
      <trkpt lat="45.07908" lon="5.98533">
        <ele>1570.8000488281</ele>
        <time>2024-10-15T13:00:21.000Z</time>
      </trkpt>
      <trkpt lat="45.07908" lon="5.98533">
        <ele>1570.4000244141</ele>
        <time>2024-10-15T13:00:22.000Z</time>
      </trkpt>
      <trkpt lat="45.07907" lon="5.98534">
        <ele>1570.1999511719</ele>
        <time>2024-10-15T13:00:23.000Z</time>
      </trkpt>
      <trkpt lat="45.07906" lon="5.98534">
        <ele>1569.8000488281</ele>
        <time>2024-10-15T13:00:24.000Z</time>
      </trkpt>
      <trkpt lat="45.07905" lon="5.98535">
        <ele>1569.4000244141</ele>
        <time>2024-10-15T13:00:25.000Z</time>
      </trkpt>
      <trkpt lat="45.07905" lon="5.98534">
        <ele>1569</ele>
        <time>2024-10-15T13:00:26.000Z</time>
      </trkpt>
      <trkpt lat="45.07904" lon="5.98534">
        <ele>1568.5999755859</ele>
        <time>2024-10-15T13:00:27.000Z</time>
      </trkpt>
      <trkpt lat="45.07903" lon="5.98534">
        <ele>1568.4000244141</ele>
        <time>2024-10-15T13:00:28.000Z</time>
      </trkpt>
      <trkpt lat="45.07903" lon="5.98534">
        <ele>1567.5999755859</ele>
        <time>2024-10-15T13:00:29.000Z</time>
      </trkpt>
      <trkpt lat="45.07902" lon="5.98534">
        <ele>1567.1999511719</ele>
        <time>2024-10-15T13:00:30.000Z</time>
      </trkpt>
      <trkpt lat="45.07902" lon="5.98535">
        <ele>1566.8000488281</ele>
        <time>2024-10-15T13:00:31.000Z</time>
      </trkpt>
      <trkpt lat="45.07901" lon="5.98536">
        <ele>1566.4000244141</ele>
        <time>2024-10-15T13:00:32.000Z</time>
      </trkpt>
      <trkpt lat="45.07901" lon="5.98537">
        <ele>1566.1999511719</ele>
        <time>2024-10-15T13:00:33.000Z</time>
      </trkpt>
      <trkpt lat="45.079" lon="5.98538">
        <ele>1565.8000488281</ele>
        <time>2024-10-15T13:00:34.000Z</time>
      </trkpt>
      <trkpt lat="45.079" lon="5.9854">
        <ele>1565.4000244141</ele>
        <time>2024-10-15T13:00:35.000Z</time>
      </trkpt>
      <trkpt lat="45.07899" lon="5.98541">
        <ele>1565</ele>
        <time>2024-10-15T13:00:36.000Z</time>
      </trkpt>
      <trkpt lat="45.07898" lon="5.98542">
        <ele>1565</ele>
        <time>2024-10-15T13:00:37.000Z</time>
      </trkpt>
      <trkpt lat="45.07898" lon="5.98543">
        <ele>1564.8000488281</ele>
        <time>2024-10-15T13:00:38.000Z</time>
      </trkpt>
      <trkpt lat="45.07897" lon="5.98543">
        <ele>1564.5999755859</ele>
        <time>2024-10-15T13:00:39.000Z</time>
      </trkpt>
      <trkpt lat="45.07897" lon="5.98544">
        <ele>1564.1999511719</ele>
        <time>2024-10-15T13:00:40.000Z</time>
      </trkpt>
      <trkpt lat="45.07896" lon="5.98545">
        <ele>1563.8000488281</ele>
        <time>2024-10-15T13:00:41.000Z</time>
      </trkpt>
      <trkpt lat="45.07895" lon="5.98546">
        <ele>1563.4000244141</ele>
        <time>2024-10-15T13:00:42.000Z</time>
      </trkpt>
      <trkpt lat="45.07895" lon="5.98547">
        <ele>1563.1999511719</ele>
        <time>2024-10-15T13:00:43.000Z</time>
      </trkpt>
      <trkpt lat="45.07894" lon="5.98548">
        <ele>1563.1999511719</ele>
        <time>2024-10-15T13:00:44.000Z</time>
      </trkpt>
      <trkpt lat="45.07894" lon="5.98549">
        <ele>1563.1999511719</ele>
        <time>2024-10-15T13:00:45.000Z</time>
      </trkpt>
      <trkpt lat="45.07893" lon="5.9855">
        <ele>1563</ele>
        <time>2024-10-15T13:00:46.000Z</time>
      </trkpt>
      <trkpt lat="45.07893" lon="5.98551">
        <ele>1562.8000488281</ele>
        <time>2024-10-15T13:00:47.000Z</time>
      </trkpt>
      <trkpt lat="45.07893" lon="5.98551">
        <ele>1562.5999755859</ele>
        <time>2024-10-15T13:00:48.000Z</time>
      </trkpt>
      <trkpt lat="45.07892" lon="5.98552">
        <ele>1562.5999755859</ele>
        <time>2024-10-15T13:00:49.000Z</time>
      </trkpt>
      <trkpt lat="45.07892" lon="5.98552">
        <ele>1562.1999511719</ele>
        <time>2024-10-15T13:00:50.000Z</time>
      </trkpt>
      <trkpt lat="45.07891" lon="5.98553">
        <ele>1561.8000488281</ele>
        <time>2024-10-15T13:00:51.000Z</time>
      </trkpt>
      <trkpt lat="45.07891" lon="5.98553">
        <ele>1561.4000244141</ele>
        <time>2024-10-15T13:00:52.000Z</time>
      </trkpt>
      <trkpt lat="45.0789" lon="5.98553">
        <ele>1561</ele>
        <time>2024-10-15T13:00:53.000Z</time>
      </trkpt>
      <trkpt lat="45.0789" lon="5.98553">
        <ele>1560.4000244141</ele>
        <time>2024-10-15T13:00:54.000Z</time>
      </trkpt>
      <trkpt lat="45.07889" lon="5.98553">
        <ele>1559.8000488281</ele>
        <time>2024-10-15T13:00:55.000Z</time>
      </trkpt>
      <trkpt lat="45.07888" lon="5.98553">
        <ele>1559.1999511719</ele>
        <time>2024-10-15T13:00:56.000Z</time>
      </trkpt>
      <trkpt lat="45.07887" lon="5.98554">
        <ele>1558.5999755859</ele>
        <time>2024-10-15T13:00:57.000Z</time>
      </trkpt>
      <trkpt lat="45.07887" lon="5.98554">
        <ele>1558</ele>
        <time>2024-10-15T13:00:58.000Z</time>
      </trkpt>
      <trkpt lat="45.07886" lon="5.98554">
        <ele>1557.4000244141</ele>
        <time>2024-10-15T13:00:59.000Z</time>
      </trkpt>
      <trkpt lat="45.07885" lon="5.98554">
        <ele>1557</ele>
        <time>2024-10-15T13:01:00.000Z</time>
      </trkpt>
      <trkpt lat="45.07885" lon="5.98555">
        <ele>1556.4000244141</ele>
        <time>2024-10-15T13:01:01.000Z</time>
      </trkpt>
      <trkpt lat="45.07884" lon="5.98555">
        <ele>1556.1999511719</ele>
        <time>2024-10-15T13:01:02.000Z</time>
      </trkpt>
      <trkpt lat="45.07883" lon="5.98555">
        <ele>1556.1999511719</ele>
        <time>2024-10-15T13:01:03.000Z</time>
      </trkpt>
      <trkpt lat="45.07882" lon="5.98555">
        <ele>1555.8000488281</ele>
        <time>2024-10-15T13:01:04.000Z</time>
      </trkpt>
      <trkpt lat="45.07881" lon="5.98555">
        <ele>1555.4000244141</ele>
        <time>2024-10-15T13:01:05.000Z</time>
      </trkpt>
      <trkpt lat="45.07881" lon="5.98555">
        <ele>1554.4000244141</ele>
        <time>2024-10-15T13:01:06.000Z</time>
      </trkpt>
      <trkpt lat="45.0788" lon="5.98555">
        <ele>1553.4000244141</ele>
        <time>2024-10-15T13:01:07.000Z</time>
      </trkpt>
      <trkpt lat="45.07879" lon="5.98555">
        <ele>1553</ele>
        <time>2024-10-15T13:01:08.000Z</time>
      </trkpt>
      <trkpt lat="45.07879" lon="5.98556">
        <ele>1552.5999755859</ele>
        <time>2024-10-15T13:01:09.000Z</time>
      </trkpt>
      <trkpt lat="45.07878" lon="5.98556">
        <ele>1551.8000488281</ele>
        <time>2024-10-15T13:01:10.000Z</time>
      </trkpt>
      <trkpt lat="45.07877" lon="5.98556">
        <ele>1551.5999755859</ele>
        <time>2024-10-15T13:01:11.000Z</time>
      </trkpt>
      <trkpt lat="45.07876" lon="5.98556">
        <ele>1551.1999511719</ele>
        <time>2024-10-15T13:01:12.000Z</time>
      </trkpt>
      <trkpt lat="45.07875" lon="5.98557">
        <ele>1550.4000244141</ele>
        <time>2024-10-15T13:01:13.000Z</time>
      </trkpt>
      <trkpt lat="45.07874" lon="5.98557">
        <ele>1549.8000488281</ele>
        <time>2024-10-15T13:01:14.000Z</time>
      </trkpt>
      <trkpt lat="45.07874" lon="5.98558">
        <ele>1549.1999511719</ele>
        <time>2024-10-15T13:01:15.000Z</time>
      </trkpt>
      <trkpt lat="45.07873" lon="5.98558">
        <ele>1548.5999755859</ele>
        <time>2024-10-15T13:01:16.000Z</time>
      </trkpt>
      <trkpt lat="45.07871" lon="5.98558">
        <ele>1548.1999511719</ele>
        <time>2024-10-15T13:01:17.000Z</time>
      </trkpt>
      <trkpt lat="45.07871" lon="5.98559">
        <ele>1547.4000244141</ele>
        <time>2024-10-15T13:01:18.000Z</time>
      </trkpt>
      <trkpt lat="45.0787" lon="5.98559">
        <ele>1547</ele>
        <time>2024-10-15T13:01:19.000Z</time>
      </trkpt>
      <trkpt lat="45.07868" lon="5.9856">
        <ele>1546.5999755859</ele>
        <time>2024-10-15T13:01:20.000Z</time>
      </trkpt>
      <trkpt lat="45.07868" lon="5.9856">
        <ele>1546.1999511719</ele>
        <time>2024-10-15T13:01:21.000Z</time>
      </trkpt>
      <trkpt lat="45.07867" lon="5.98561">
        <ele>1545.8000488281</ele>
        <time>2024-10-15T13:01:22.000Z</time>
      </trkpt>
      <trkpt lat="45.07866" lon="5.98561">
        <ele>1545.1999511719</ele>
        <time>2024-10-15T13:01:23.000Z</time>
      </trkpt>
      <trkpt lat="45.07866" lon="5.98562">
        <ele>1544.5999755859</ele>
        <time>2024-10-15T13:01:24.000Z</time>
      </trkpt>
      <trkpt lat="45.07865" lon="5.98563">
        <ele>1544.1999511719</ele>
        <time>2024-10-15T13:01:25.000Z</time>
      </trkpt>
      <trkpt lat="45.07865" lon="5.98563">
        <ele>1543.8000488281</ele>
        <time>2024-10-15T13:01:26.000Z</time>
      </trkpt>
      <trkpt lat="45.07864" lon="5.98564">
        <ele>1543.4000244141</ele>
        <time>2024-10-15T13:01:27.000Z</time>
      </trkpt>
      <trkpt lat="45.07864" lon="5.98565">
        <ele>1543.1999511719</ele>
        <time>2024-10-15T13:01:28.000Z</time>
      </trkpt>
      <trkpt lat="45.07864" lon="5.98566">
        <ele>1543</ele>
        <time>2024-10-15T13:01:29.000Z</time>
      </trkpt>
      <trkpt lat="45.07863" lon="5.98567">
        <ele>1542.5999755859</ele>
        <time>2024-10-15T13:01:30.000Z</time>
      </trkpt>
      <trkpt lat="45.07863" lon="5.98569">
        <ele>1542.1999511719</ele>
        <time>2024-10-15T13:01:31.000Z</time>
      </trkpt>
      <trkpt lat="45.07862" lon="5.9857">
        <ele>1542</ele>
        <time>2024-10-15T13:01:32.000Z</time>
      </trkpt>
      <trkpt lat="45.07862" lon="5.98571">
        <ele>1542</ele>
        <time>2024-10-15T13:01:33.000Z</time>
      </trkpt>
      <trkpt lat="45.07861" lon="5.98571">
        <ele>1541.8000488281</ele>
        <time>2024-10-15T13:01:34.000Z</time>
      </trkpt>
      <trkpt lat="45.0786" lon="5.98573">
        <ele>1541.8000488281</ele>
        <time>2024-10-15T13:01:35.000Z</time>
      </trkpt>
      <trkpt lat="45.0786" lon="5.98574">
        <ele>1541.5999755859</ele>
        <time>2024-10-15T13:01:36.000Z</time>
      </trkpt>
      <trkpt lat="45.07859" lon="5.98575">
        <ele>1541.4000244141</ele>
        <time>2024-10-15T13:01:37.000Z</time>
      </trkpt>
      <trkpt lat="45.07858" lon="5.98575">
        <ele>1541</ele>
        <time>2024-10-15T13:01:38.000Z</time>
      </trkpt>
      <trkpt lat="45.07857" lon="5.98576">
        <ele>1540.4000244141</ele>
        <time>2024-10-15T13:01:39.000Z</time>
      </trkpt>
      <trkpt lat="45.07856" lon="5.98576">
        <ele>1540</ele>
        <time>2024-10-15T13:01:40.000Z</time>
      </trkpt>
      <trkpt lat="45.07855" lon="5.98577">
        <ele>1539.8000488281</ele>
        <time>2024-10-15T13:01:41.000Z</time>
      </trkpt>
      <trkpt lat="45.07854" lon="5.98578">
        <ele>1539.4000244141</ele>
        <time>2024-10-15T13:01:42.000Z</time>
      </trkpt>
      <trkpt lat="45.07853" lon="5.98579">
        <ele>1539</ele>
        <time>2024-10-15T13:01:43.000Z</time>
      </trkpt>
      <trkpt lat="45.07852" lon="5.9858">
        <ele>1538.5999755859</ele>
        <time>2024-10-15T13:01:44.000Z</time>
      </trkpt>
      <trkpt lat="45.07851" lon="5.98581">
        <ele>1538.4000244141</ele>
        <time>2024-10-15T13:01:45.000Z</time>
      </trkpt>
      <trkpt lat="45.07851" lon="5.98583">
        <ele>1538.1999511719</ele>
        <time>2024-10-15T13:01:46.000Z</time>
      </trkpt>
      <trkpt lat="45.0785" lon="5.98584">
        <ele>1538.1999511719</ele>
        <time>2024-10-15T13:01:47.000Z</time>
      </trkpt>
      <trkpt lat="45.0785" lon="5.98585">
        <ele>1538.1999511719</ele>
        <time>2024-10-15T13:01:48.000Z</time>
      </trkpt>
      <trkpt lat="45.07849" lon="5.98586">
        <ele>1538</ele>
        <time>2024-10-15T13:01:49.000Z</time>
      </trkpt>
      <trkpt lat="45.07849" lon="5.98587">
        <ele>1538</ele>
        <time>2024-10-15T13:01:50.000Z</time>
      </trkpt>
      <trkpt lat="45.07848" lon="5.98588">
        <ele>1538</ele>
        <time>2024-10-15T13:01:51.000Z</time>
      </trkpt>
      <trkpt lat="45.07847" lon="5.98589">
        <ele>1537.1999511719</ele>
        <time>2024-10-15T13:01:52.000Z</time>
      </trkpt>
      <trkpt lat="45.07847" lon="5.98589">
        <ele>1537</ele>
        <time>2024-10-15T13:01:53.000Z</time>
      </trkpt>
      <trkpt lat="45.07846" lon="5.98589">
        <ele>1536.5999755859</ele>
        <time>2024-10-15T13:01:54.000Z</time>
      </trkpt>
      <trkpt lat="45.07845" lon="5.98589">
        <ele>1536.1999511719</ele>
        <time>2024-10-15T13:01:55.000Z</time>
      </trkpt>
      <trkpt lat="45.07844" lon="5.98589">
        <ele>1535.8000488281</ele>
        <time>2024-10-15T13:01:56.000Z</time>
      </trkpt>
      <trkpt lat="45.07843" lon="5.9859">
        <ele>1535.4000244141</ele>
        <time>2024-10-15T13:01:57.000Z</time>
      </trkpt>
      <trkpt lat="45.07843" lon="5.98591">
        <ele>1535</ele>
        <time>2024-10-15T13:01:58.000Z</time>
      </trkpt>
      <trkpt lat="45.07842" lon="5.98591">
        <ele>1535</ele>
        <time>2024-10-15T13:01:59.000Z</time>
      </trkpt>
      <trkpt lat="45.07842" lon="5.98591">
        <ele>1534.4000244141</ele>
        <time>2024-10-15T13:02:00.000Z</time>
      </trkpt>
      <trkpt lat="45.07841" lon="5.9859">
        <ele>1534.1999511719</ele>
        <time>2024-10-15T13:02:01.000Z</time>
      </trkpt>
      <trkpt lat="45.0784" lon="5.9859">
        <ele>1533.8000488281</ele>
        <time>2024-10-15T13:02:02.000Z</time>
      </trkpt>
      <trkpt lat="45.07839" lon="5.98589">
        <ele>1533.5999755859</ele>
        <time>2024-10-15T13:02:03.000Z</time>
      </trkpt>
      <trkpt lat="45.07839" lon="5.98588">
        <ele>1533.4000244141</ele>
        <time>2024-10-15T13:02:04.000Z</time>
      </trkpt>
      <trkpt lat="45.07839" lon="5.98587">
        <ele>1533.4000244141</ele>
        <time>2024-10-15T13:02:05.000Z</time>
      </trkpt>
      <trkpt lat="45.07838" lon="5.98587">
        <ele>1533.4000244141</ele>
        <time>2024-10-15T13:02:06.000Z</time>
      </trkpt>
      <trkpt lat="45.07838" lon="5.98587">
        <ele>1533.1999511719</ele>
        <time>2024-10-15T13:02:07.000Z</time>
      </trkpt>
      <trkpt lat="45.07837" lon="5.98587">
        <ele>1532.8000488281</ele>
        <time>2024-10-15T13:02:08.000Z</time>
      </trkpt>
      <trkpt lat="45.07837" lon="5.98586">
        <ele>1532.8000488281</ele>
        <time>2024-10-15T13:02:09.000Z</time>
      </trkpt>
      <trkpt lat="45.07838" lon="5.98586">
        <ele>1532</ele>
        <time>2024-10-15T13:02:10.000Z</time>
      </trkpt>
      <trkpt lat="45.07838" lon="5.98587">
        <ele>1531.5999755859</ele>
        <time>2024-10-15T13:02:11.000Z</time>
      </trkpt>
      <trkpt lat="45.07838" lon="5.98587">
        <ele>1531.4000244141</ele>
        <time>2024-10-15T13:02:12.000Z</time>
      </trkpt>
      <trkpt lat="45.07837" lon="5.98586">
        <ele>1531.4000244141</ele>
        <time>2024-10-15T13:02:13.000Z</time>
      </trkpt>
      <trkpt lat="45.07837" lon="5.98585">
        <ele>1531.4000244141</ele>
        <time>2024-10-15T13:02:14.000Z</time>
      </trkpt>
      <trkpt lat="45.07837" lon="5.98585">
        <ele>1531.5999755859</ele>
        <time>2024-10-15T13:02:15.000Z</time>
      </trkpt>
      <trkpt lat="45.07837" lon="5.98584">
        <ele>1531.5999755859</ele>
        <time>2024-10-15T13:02:16.000Z</time>
      </trkpt>
      <trkpt lat="45.07837" lon="5.98583">
        <ele>1531.5999755859</ele>
        <time>2024-10-15T13:02:17.000Z</time>
      </trkpt>
      <trkpt lat="45.07837" lon="5.98583">
        <ele>1531.5999755859</ele>
        <time>2024-10-15T13:02:18.000Z</time>
      </trkpt>
      <trkpt lat="45.07837" lon="5.98583">
        <ele>1531.5999755859</ele>
        <time>2024-10-15T13:02:19.000Z</time>
      </trkpt>
      <trkpt lat="45.07836" lon="5.98584">
        <ele>1531.1999511719</ele>
        <time>2024-10-15T13:02:20.000Z</time>
      </trkpt>
      <trkpt lat="45.07835" lon="5.98583">
        <ele>1531</ele>
        <time>2024-10-15T13:02:21.000Z</time>
      </trkpt>
      <trkpt lat="45.07835" lon="5.98584">
        <ele>1530.4000244141</ele>
        <time>2024-10-15T13:02:22.000Z</time>
      </trkpt>
      <trkpt lat="45.07834" lon="5.98584">
        <ele>1529.8000488281</ele>
        <time>2024-10-15T13:02:23.000Z</time>
      </trkpt>
      <trkpt lat="45.07834" lon="5.98584">
        <ele>1529.4000244141</ele>
        <time>2024-10-15T13:02:24.000Z</time>
      </trkpt>
      <trkpt lat="45.07834" lon="5.98584">
        <ele>1529</ele>
        <time>2024-10-15T13:02:25.000Z</time>
      </trkpt>
      <trkpt lat="45.07833" lon="5.98584">
        <ele>1528.8000488281</ele>
        <time>2024-10-15T13:02:26.000Z</time>
      </trkpt>
      <trkpt lat="45.07833" lon="5.98584">
        <ele>1528.4000244141</ele>
        <time>2024-10-15T13:02:27.000Z</time>
      </trkpt>
      <trkpt lat="45.07832" lon="5.98585">
        <ele>1528.1999511719</ele>
        <time>2024-10-15T13:02:28.000Z</time>
      </trkpt>
      <trkpt lat="45.07832" lon="5.98586">
        <ele>1527</ele>
        <time>2024-10-15T13:02:29.000Z</time>
      </trkpt>
      <trkpt lat="45.07831" lon="5.98586">
        <ele>1526.8000488281</ele>
        <time>2024-10-15T13:02:30.000Z</time>
      </trkpt>
      <trkpt lat="45.07831" lon="5.98586">
        <ele>1526.4000244141</ele>
        <time>2024-10-15T13:02:31.000Z</time>
      </trkpt>
      <trkpt lat="45.0783" lon="5.98587">
        <ele>1526.1999511719</ele>
        <time>2024-10-15T13:02:32.000Z</time>
      </trkpt>
      <trkpt lat="45.0783" lon="5.98587">
        <ele>1526</ele>
        <time>2024-10-15T13:02:33.000Z</time>
      </trkpt>
      <trkpt lat="45.07829" lon="5.98588">
        <ele>1525.4000244141</ele>
        <time>2024-10-15T13:02:34.000Z</time>
      </trkpt>
      <trkpt lat="45.07829" lon="5.98588">
        <ele>1525.4000244141</ele>
        <time>2024-10-15T13:02:35.000Z</time>
      </trkpt>
      <trkpt lat="45.07828" lon="5.98587">
        <ele>1525.4000244141</ele>
        <time>2024-10-15T13:02:36.000Z</time>
      </trkpt>
      <trkpt lat="45.07828" lon="5.98587">
        <ele>1525.4000244141</ele>
        <time>2024-10-15T13:02:37.000Z</time>
      </trkpt>
      <trkpt lat="45.07828" lon="5.98586">
        <ele>1525.5999755859</ele>
        <time>2024-10-15T13:02:38.000Z</time>
      </trkpt>
      <trkpt lat="45.07827" lon="5.98585">
        <ele>1525.5999755859</ele>
        <time>2024-10-15T13:02:39.000Z</time>
      </trkpt>
      <trkpt lat="45.07827" lon="5.98585">
        <ele>1525.5999755859</ele>
        <time>2024-10-15T13:02:40.000Z</time>
      </trkpt>
      <trkpt lat="45.07827" lon="5.98584">
        <ele>1525.5999755859</ele>
        <time>2024-10-15T13:02:41.000Z</time>
      </trkpt>
      <trkpt lat="45.07826" lon="5.98583">
        <ele>1525.4000244141</ele>
        <time>2024-10-15T13:02:42.000Z</time>
      </trkpt>
      <trkpt lat="45.07826" lon="5.98583">
        <ele>1525.1999511719</ele>
        <time>2024-10-15T13:02:43.000Z</time>
      </trkpt>
      <trkpt lat="45.07825" lon="5.98582">
        <ele>1524.5999755859</ele>
        <time>2024-10-15T13:02:44.000Z</time>
      </trkpt>
      <trkpt lat="45.07824" lon="5.98581">
        <ele>1523.5999755859</ele>
        <time>2024-10-15T13:02:45.000Z</time>
      </trkpt>
      <trkpt lat="45.07824" lon="5.9858">
        <ele>1523.5999755859</ele>
        <time>2024-10-15T13:02:46.000Z</time>
      </trkpt>
      <trkpt lat="45.07823" lon="5.9858">
        <ele>1523.4000244141</ele>
        <time>2024-10-15T13:02:47.000Z</time>
      </trkpt>
      <trkpt lat="45.07823" lon="5.98579">
        <ele>1523.1999511719</ele>
        <time>2024-10-15T13:02:48.000Z</time>
      </trkpt>
      <trkpt lat="45.07822" lon="5.98579">
        <ele>1522.5999755859</ele>
        <time>2024-10-15T13:02:49.000Z</time>
      </trkpt>
      <trkpt lat="45.07821" lon="5.98579">
        <ele>1521.5999755859</ele>
        <time>2024-10-15T13:02:50.000Z</time>
      </trkpt>
      <trkpt lat="45.0782" lon="5.98579">
        <ele>1520.1999511719</ele>
        <time>2024-10-15T13:02:51.000Z</time>
      </trkpt>
      <trkpt lat="45.07819" lon="5.98579">
        <ele>1519.4000244141</ele>
        <time>2024-10-15T13:02:52.000Z</time>
      </trkpt>
      <trkpt lat="45.07817" lon="5.98579">
        <ele>1519.4000244141</ele>
        <time>2024-10-15T13:02:53.000Z</time>
      </trkpt>
      <trkpt lat="45.07816" lon="5.98578">
        <ele>1519.1999511719</ele>
        <time>2024-10-15T13:02:54.000Z</time>
      </trkpt>
      <trkpt lat="45.07815" lon="5.98579">
        <ele>1518</ele>
        <time>2024-10-15T13:02:55.000Z</time>
      </trkpt>
      <trkpt lat="45.07815" lon="5.98579">
        <ele>1517.5999755859</ele>
        <time>2024-10-15T13:02:56.000Z</time>
      </trkpt>
      <trkpt lat="45.07814" lon="5.98581">
        <ele>1517.5999755859</ele>
        <time>2024-10-15T13:02:57.000Z</time>
      </trkpt>
      <trkpt lat="45.07814" lon="5.98582">
        <ele>1517.4000244141</ele>
        <time>2024-10-15T13:02:58.000Z</time>
      </trkpt>
      <trkpt lat="45.07813" lon="5.98582">
        <ele>1517</ele>
        <time>2024-10-15T13:02:59.000Z</time>
      </trkpt>
      <trkpt lat="45.07813" lon="5.98583">
        <ele>1516.8000488281</ele>
        <time>2024-10-15T13:03:00.000Z</time>
      </trkpt>
      <trkpt lat="45.07812" lon="5.98584">
        <ele>1516.8000488281</ele>
        <time>2024-10-15T13:03:01.000Z</time>
      </trkpt>
      <trkpt lat="45.07811" lon="5.98585">
        <ele>1516.1999511719</ele>
        <time>2024-10-15T13:03:02.000Z</time>
      </trkpt>
      <trkpt lat="45.0781" lon="5.98585">
        <ele>1516</ele>
        <time>2024-10-15T13:03:03.000Z</time>
      </trkpt>
      <trkpt lat="45.0781" lon="5.98585">
        <ele>1515.8000488281</ele>
        <time>2024-10-15T13:03:04.000Z</time>
      </trkpt>
      <trkpt lat="45.07809" lon="5.98585">
        <ele>1515.5999755859</ele>
        <time>2024-10-15T13:03:05.000Z</time>
      </trkpt>
      <trkpt lat="45.07809" lon="5.98585">
        <ele>1515.4000244141</ele>
        <time>2024-10-15T13:03:06.000Z</time>
      </trkpt>
      <trkpt lat="45.07808" lon="5.98584">
        <ele>1515.4000244141</ele>
        <time>2024-10-15T13:03:07.000Z</time>
      </trkpt>
      <trkpt lat="45.07808" lon="5.98583">
        <ele>1515.4000244141</ele>
        <time>2024-10-15T13:03:08.000Z</time>
      </trkpt>
      <trkpt lat="45.07807" lon="5.98583">
        <ele>1515.1999511719</ele>
        <time>2024-10-15T13:03:09.000Z</time>
      </trkpt>
      <trkpt lat="45.07807" lon="5.98582">
        <ele>1515</ele>
        <time>2024-10-15T13:03:10.000Z</time>
      </trkpt>
      <trkpt lat="45.07806" lon="5.98583">
        <ele>1514.4000244141</ele>
        <time>2024-10-15T13:03:11.000Z</time>
      </trkpt>
      <trkpt lat="45.07805" lon="5.98583">
        <ele>1513.8000488281</ele>
        <time>2024-10-15T13:03:12.000Z</time>
      </trkpt>
      <trkpt lat="45.07805" lon="5.98583">
        <ele>1513.1999511719</ele>
        <time>2024-10-15T13:03:13.000Z</time>
      </trkpt>
      <trkpt lat="45.07804" lon="5.98584">
        <ele>1512.8000488281</ele>
        <time>2024-10-15T13:03:14.000Z</time>
      </trkpt>
      <trkpt lat="45.07803" lon="5.98584">
        <ele>1512</ele>
        <time>2024-10-15T13:03:15.000Z</time>
      </trkpt>
      <trkpt lat="45.07802" lon="5.98584">
        <ele>1511.8000488281</ele>
        <time>2024-10-15T13:03:16.000Z</time>
      </trkpt>
      <trkpt lat="45.07802" lon="5.98584">
        <ele>1511.4000244141</ele>
        <time>2024-10-15T13:03:17.000Z</time>
      </trkpt>
      <trkpt lat="45.07801" lon="5.98585">
        <ele>1511.1999511719</ele>
        <time>2024-10-15T13:03:18.000Z</time>
      </trkpt>
      <trkpt lat="45.078" lon="5.98585">
        <ele>1510.5999755859</ele>
        <time>2024-10-15T13:03:19.000Z</time>
      </trkpt>
      <trkpt lat="45.07799" lon="5.98584">
        <ele>1510.4000244141</ele>
        <time>2024-10-15T13:03:20.000Z</time>
      </trkpt>
      <trkpt lat="45.07799" lon="5.98584">
        <ele>1510.1999511719</ele>
        <time>2024-10-15T13:03:21.000Z</time>
      </trkpt>
      <trkpt lat="45.07798" lon="5.98583">
        <ele>1510</ele>
        <time>2024-10-15T13:03:22.000Z</time>
      </trkpt>
      <trkpt lat="45.07797" lon="5.98582">
        <ele>1509.8000488281</ele>
        <time>2024-10-15T13:03:23.000Z</time>
      </trkpt>
      <trkpt lat="45.07797" lon="5.98581">
        <ele>1509.4000244141</ele>
        <time>2024-10-15T13:03:24.000Z</time>
      </trkpt>
      <trkpt lat="45.07797" lon="5.98581">
        <ele>1509</ele>
        <time>2024-10-15T13:03:25.000Z</time>
      </trkpt>
      <trkpt lat="45.07796" lon="5.98581">
        <ele>1508.5999755859</ele>
        <time>2024-10-15T13:03:26.000Z</time>
      </trkpt>
      <trkpt lat="45.07796" lon="5.9858">
        <ele>1508</ele>
        <time>2024-10-15T13:03:27.000Z</time>
      </trkpt>
      <trkpt lat="45.07795" lon="5.98581">
        <ele>1507.5999755859</ele>
        <time>2024-10-15T13:03:28.000Z</time>
      </trkpt>
      <trkpt lat="45.07794" lon="5.9858">
        <ele>1507.1999511719</ele>
        <time>2024-10-15T13:03:29.000Z</time>
      </trkpt>
      <trkpt lat="45.07794" lon="5.9858">
        <ele>1506.8000488281</ele>
        <time>2024-10-15T13:03:30.000Z</time>
      </trkpt>
      <trkpt lat="45.07793" lon="5.9858">
        <ele>1506.4000244141</ele>
        <time>2024-10-15T13:03:31.000Z</time>
      </trkpt>
      <trkpt lat="45.07792" lon="5.98581">
        <ele>1506</ele>
        <time>2024-10-15T13:03:32.000Z</time>
      </trkpt>
      <trkpt lat="45.07791" lon="5.98581">
        <ele>1505.4000244141</ele>
        <time>2024-10-15T13:03:33.000Z</time>
      </trkpt>
      <trkpt lat="45.07791" lon="5.98582">
        <ele>1504.8000488281</ele>
        <time>2024-10-15T13:03:34.000Z</time>
      </trkpt>
      <trkpt lat="45.0779" lon="5.98582">
        <ele>1504.5999755859</ele>
        <time>2024-10-15T13:03:35.000Z</time>
      </trkpt>
      <trkpt lat="45.07789" lon="5.98582">
        <ele>1504.1999511719</ele>
        <time>2024-10-15T13:03:36.000Z</time>
      </trkpt>
      <trkpt lat="45.07788" lon="5.98582">
        <ele>1503.8000488281</ele>
        <time>2024-10-15T13:03:37.000Z</time>
      </trkpt>
      <trkpt lat="45.07788" lon="5.98582">
        <ele>1503.4000244141</ele>
        <time>2024-10-15T13:03:38.000Z</time>
      </trkpt>
      <trkpt lat="45.07787" lon="5.98582">
        <ele>1502.8000488281</ele>
        <time>2024-10-15T13:03:39.000Z</time>
      </trkpt>
      <trkpt lat="45.07786" lon="5.98582">
        <ele>1502.5999755859</ele>
        <time>2024-10-15T13:03:40.000Z</time>
      </trkpt>
      <trkpt lat="45.07786" lon="5.98582">
        <ele>1502.1999511719</ele>
        <time>2024-10-15T13:03:41.000Z</time>
      </trkpt>
      <trkpt lat="45.07785" lon="5.98582">
        <ele>1501.8000488281</ele>
        <time>2024-10-15T13:03:42.000Z</time>
      </trkpt>
      <trkpt lat="45.07784" lon="5.98582">
        <ele>1501.4000244141</ele>
        <time>2024-10-15T13:03:43.000Z</time>
      </trkpt>
      <trkpt lat="45.07783" lon="5.98581">
        <ele>1501.1999511719</ele>
        <time>2024-10-15T13:03:44.000Z</time>
      </trkpt>
      <trkpt lat="45.07783" lon="5.98581">
        <ele>1500.8000488281</ele>
        <time>2024-10-15T13:03:45.000Z</time>
      </trkpt>
      <trkpt lat="45.07782" lon="5.9858">
        <ele>1500.5999755859</ele>
        <time>2024-10-15T13:03:46.000Z</time>
      </trkpt>
      <trkpt lat="45.07782" lon="5.9858">
        <ele>1500.1999511719</ele>
        <time>2024-10-15T13:03:47.000Z</time>
      </trkpt>
      <trkpt lat="45.07781" lon="5.98579">
        <ele>1499.5999755859</ele>
        <time>2024-10-15T13:03:48.000Z</time>
      </trkpt>
      <trkpt lat="45.0778" lon="5.98579">
        <ele>1499</ele>
        <time>2024-10-15T13:03:49.000Z</time>
      </trkpt>
      <trkpt lat="45.0778" lon="5.98579">
        <ele>1498.1999511719</ele>
        <time>2024-10-15T13:03:50.000Z</time>
      </trkpt>
      <trkpt lat="45.07779" lon="5.9858">
        <ele>1497.8000488281</ele>
        <time>2024-10-15T13:03:51.000Z</time>
      </trkpt>
      <trkpt lat="45.07779" lon="5.9858">
        <ele>1497.5999755859</ele>
        <time>2024-10-15T13:03:52.000Z</time>
      </trkpt>
      <trkpt lat="45.07778" lon="5.98581">
        <ele>1497.4000244141</ele>
        <time>2024-10-15T13:03:53.000Z</time>
      </trkpt>
      <trkpt lat="45.07777" lon="5.9858">
        <ele>1496.5999755859</ele>
        <time>2024-10-15T13:03:54.000Z</time>
      </trkpt>
      <trkpt lat="45.07776" lon="5.98579">
        <ele>1496.1999511719</ele>
        <time>2024-10-15T13:03:55.000Z</time>
      </trkpt>
      <trkpt lat="45.07776" lon="5.98578">
        <ele>1496</ele>
        <time>2024-10-15T13:03:56.000Z</time>
      </trkpt>
      <trkpt lat="45.07775" lon="5.98578">
        <ele>1495.8000488281</ele>
        <time>2024-10-15T13:03:57.000Z</time>
      </trkpt>
      <trkpt lat="45.07775" lon="5.98577">
        <ele>1495.4000244141</ele>
        <time>2024-10-15T13:03:58.000Z</time>
      </trkpt>
      <trkpt lat="45.07774" lon="5.98577">
        <ele>1494.8000488281</ele>
        <time>2024-10-15T13:03:59.000Z</time>
      </trkpt>
      <trkpt lat="45.07774" lon="5.98577">
        <ele>1494.5999755859</ele>
        <time>2024-10-15T13:04:00.000Z</time>
      </trkpt>
      <trkpt lat="45.07774" lon="5.98576">
        <ele>1494.5999755859</ele>
        <time>2024-10-15T13:04:01.000Z</time>
      </trkpt>
      <trkpt lat="45.07773" lon="5.98576">
        <ele>1494.1999511719</ele>
        <time>2024-10-15T13:04:02.000Z</time>
      </trkpt>
      <trkpt lat="45.07773" lon="5.98575">
        <ele>1493.5999755859</ele>
        <time>2024-10-15T13:04:03.000Z</time>
      </trkpt>
      <trkpt lat="45.07772" lon="5.98575">
        <ele>1493.4000244141</ele>
        <time>2024-10-15T13:04:04.000Z</time>
      </trkpt>
      <trkpt lat="45.07772" lon="5.98575">
        <ele>1492.8000488281</ele>
        <time>2024-10-15T13:04:05.000Z</time>
      </trkpt>
      <trkpt lat="45.07772" lon="5.98575">
        <ele>1492.4000244141</ele>
        <time>2024-10-15T13:04:06.000Z</time>
      </trkpt>
      <trkpt lat="45.07771" lon="5.98574">
        <ele>1491.8000488281</ele>
        <time>2024-10-15T13:04:07.000Z</time>
      </trkpt>
      <trkpt lat="45.07771" lon="5.98574">
        <ele>1491.5999755859</ele>
        <time>2024-10-15T13:04:08.000Z</time>
      </trkpt>
      <trkpt lat="45.07771" lon="5.98575">
        <ele>1491.4000244141</ele>
        <time>2024-10-15T13:04:09.000Z</time>
      </trkpt>
      <trkpt lat="45.0777" lon="5.98575">
        <ele>1491.1999511719</ele>
        <time>2024-10-15T13:04:10.000Z</time>
      </trkpt>
      <trkpt lat="45.0777" lon="5.98574">
        <ele>1490.8000488281</ele>
        <time>2024-10-15T13:04:11.000Z</time>
      </trkpt>
      <trkpt lat="45.0777" lon="5.98574">
        <ele>1490.4000244141</ele>
        <time>2024-10-15T13:04:12.000Z</time>
      </trkpt>
      <trkpt lat="45.0777" lon="5.98573">
        <ele>1490.1999511719</ele>
        <time>2024-10-15T13:04:13.000Z</time>
      </trkpt>
      <trkpt lat="45.0777" lon="5.98574">
        <ele>1489.5999755859</ele>
        <time>2024-10-15T13:04:14.000Z</time>
      </trkpt>
      <trkpt lat="45.0777" lon="5.98574">
        <ele>1489.4000244141</ele>
        <time>2024-10-15T13:04:15.000Z</time>
      </trkpt>
      <trkpt lat="45.0777" lon="5.98574">
        <ele>1489.4000244141</ele>
        <time>2024-10-15T13:04:16.000Z</time>
      </trkpt>
      <trkpt lat="45.0777" lon="5.98575">
        <ele>1489.4000244141</ele>
        <time>2024-10-15T13:04:17.000Z</time>
      </trkpt>
      <trkpt lat="45.0777" lon="5.98575">
        <ele>1489.4000244141</ele>
        <time>2024-10-15T13:04:18.000Z</time>
      </trkpt>
      <trkpt lat="45.0777" lon="5.98575">
        <ele>1489.4000244141</ele>
        <time>2024-10-15T13:04:19.000Z</time>
      </trkpt>
      <trkpt lat="45.0777" lon="5.98575">
        <ele>1489.4000244141</ele>
        <time>2024-10-15T13:04:20.000Z</time>
      </trkpt>
      <trkpt lat="45.0777" lon="5.98575">
        <ele>1489.1999511719</ele>
        <time>2024-10-15T13:04:21.000Z</time>
      </trkpt>
      <trkpt lat="45.0777" lon="5.98575">
        <ele>1489.1999511719</ele>
        <time>2024-10-15T13:04:22.000Z</time>
      </trkpt>
      <trkpt lat="45.0777" lon="5.98575">
        <ele>1489.1999511719</ele>
        <time>2024-10-15T13:04:23.000Z</time>
      </trkpt>
      <trkpt lat="45.0777" lon="5.98575">
        <ele>1489</ele>
        <time>2024-10-15T13:04:24.000Z</time>
      </trkpt>
      <trkpt lat="45.0777" lon="5.98575">
        <ele>1489</ele>
        <time>2024-10-15T13:04:25.000Z</time>
      </trkpt>
      <trkpt lat="45.0777" lon="5.98575">
        <ele>1489</ele>
        <time>2024-10-15T13:04:26.000Z</time>
      </trkpt>
      <trkpt lat="45.0777" lon="5.98575">
        <ele>1489</ele>
        <time>2024-10-15T13:04:27.000Z</time>
      </trkpt>
      <trkpt lat="45.0777" lon="5.98575">
        <ele>1489</ele>
        <time>2024-10-15T13:04:28.000Z</time>
      </trkpt>
      <trkpt lat="45.0777" lon="5.98575">
        <ele>1489</ele>
        <time>2024-10-15T13:04:29.000Z</time>
      </trkpt>
      <trkpt lat="45.0777" lon="5.98575">
        <ele>1489</ele>
        <time>2024-10-15T13:04:30.000Z</time>
      </trkpt>
      <trkpt lat="45.0777" lon="5.98575">
        <ele>1489</ele>
        <time>2024-10-15T13:04:31.000Z</time>
      </trkpt>
      <trkpt lat="45.0777" lon="5.98575">
        <ele>1489</ele>
        <time>2024-10-15T13:04:32.000Z</time>
      </trkpt>
      <trkpt lat="45.0777" lon="5.98575">
        <ele>1489</ele>
        <time>2024-10-15T13:04:33.000Z</time>
      </trkpt>
      <trkpt lat="45.0777" lon="5.98575">
        <ele>1489</ele>
        <time>2024-10-15T13:04:34.000Z</time>
      </trkpt>
      <trkpt lat="45.0777" lon="5.98575">
        <ele>1489</ele>
        <time>2024-10-15T13:04:35.000Z</time>
      </trkpt>
      <trkpt lat="45.0777" lon="5.98575">
        <ele>1489</ele>
        <time>2024-10-15T13:04:36.000Z</time>
      </trkpt>
      <trkpt lat="45.0777" lon="5.98575">
        <ele>1489</ele>
        <time>2024-10-15T13:04:37.000Z</time>
      </trkpt>
      <trkpt lat="45.0777" lon="5.98575">
        <ele>1489.1999511719</ele>
        <time>2024-10-15T13:04:38.000Z</time>
      </trkpt>
      <trkpt lat="45.0777" lon="5.98575">
        <ele>1489.4000244141</ele>
        <time>2024-10-15T13:04:39.000Z</time>
      </trkpt>
      <trkpt lat="45.0777" lon="5.98575">
        <ele>1489.4000244141</ele>
        <time>2024-10-15T13:04:40.000Z</time>
      </trkpt>
      <trkpt lat="45.0777" lon="5.98575">
        <ele>1489.4000244141</ele>
        <time>2024-10-15T13:04:41.000Z</time>
      </trkpt>
      <trkpt lat="45.0777" lon="5.98575">
        <ele>1489.1999511719</ele>
        <time>2024-10-15T13:04:42.000Z</time>
      </trkpt>
      <trkpt lat="45.0777" lon="5.98575">
        <ele>1489</ele>
        <time>2024-10-15T13:04:43.000Z</time>
      </trkpt>
      <trkpt lat="45.0777" lon="5.98575">
        <ele>1488.5999755859</ele>
        <time>2024-10-15T13:04:44.000Z</time>
      </trkpt>
      <trkpt lat="45.0777" lon="5.98575">
        <ele>1488.4000244141</ele>
        <time>2024-10-15T13:04:45.000Z</time>
      </trkpt>
      <trkpt lat="45.0777" lon="5.98575">
        <ele>1488</ele>
        <time>2024-10-15T13:04:46.000Z</time>
      </trkpt>
      <trkpt lat="45.0777" lon="5.98576">
        <ele>1487.5999755859</ele>
        <time>2024-10-15T13:04:47.000Z</time>
      </trkpt>
      <trkpt lat="45.07769" lon="5.98576">
        <ele>1487.1999511719</ele>
        <time>2024-10-15T13:04:48.000Z</time>
      </trkpt>
      <trkpt lat="45.07767" lon="5.98577">
        <ele>1487</ele>
        <time>2024-10-15T13:04:49.000Z</time>
      </trkpt>
      <trkpt lat="45.07766" lon="5.98578">
        <ele>1486.8000488281</ele>
        <time>2024-10-15T13:04:50.000Z</time>
      </trkpt>
      <trkpt lat="45.07764" lon="5.98579">
        <ele>1486.4000244141</ele>
        <time>2024-10-15T13:04:51.000Z</time>
      </trkpt>
      <trkpt lat="45.07763" lon="5.9858">
        <ele>1485.5999755859</ele>
        <time>2024-10-15T13:04:52.000Z</time>
      </trkpt>
      <trkpt lat="45.07761" lon="5.98581">
        <ele>1484.8000488281</ele>
        <time>2024-10-15T13:04:53.000Z</time>
      </trkpt>
      <trkpt lat="45.0776" lon="5.98582">
        <ele>1484.4000244141</ele>
        <time>2024-10-15T13:04:54.000Z</time>
      </trkpt>
      <trkpt lat="45.07759" lon="5.98583">
        <ele>1483.8000488281</ele>
        <time>2024-10-15T13:04:55.000Z</time>
      </trkpt>
      <trkpt lat="45.07757" lon="5.98584">
        <ele>1483.5999755859</ele>
        <time>2024-10-15T13:04:56.000Z</time>
      </trkpt>
      <trkpt lat="45.07756" lon="5.98584">
        <ele>1483.1999511719</ele>
        <time>2024-10-15T13:04:57.000Z</time>
      </trkpt>
      <trkpt lat="45.07755" lon="5.98585">
        <ele>1482.4000244141</ele>
        <time>2024-10-15T13:04:58.000Z</time>
      </trkpt>
      <trkpt lat="45.07755" lon="5.98585">
        <ele>1481.8000488281</ele>
        <time>2024-10-15T13:04:59.000Z</time>
      </trkpt>
      <trkpt lat="45.07755" lon="5.98586">
        <ele>1481.4000244141</ele>
        <time>2024-10-15T13:05:00.000Z</time>
      </trkpt>
      <trkpt lat="45.07755" lon="5.98587">
        <ele>1481</ele>
        <time>2024-10-15T13:05:01.000Z</time>
      </trkpt>
      <trkpt lat="45.07756" lon="5.98588">
        <ele>1481</ele>
        <time>2024-10-15T13:05:02.000Z</time>
      </trkpt>
      <trkpt lat="45.07756" lon="5.9859">
        <ele>1480.5999755859</ele>
        <time>2024-10-15T13:05:03.000Z</time>
      </trkpt>
      <trkpt lat="45.07756" lon="5.98591">
        <ele>1480.4000244141</ele>
        <time>2024-10-15T13:05:04.000Z</time>
      </trkpt>
      <trkpt lat="45.07756" lon="5.98592">
        <ele>1480.1999511719</ele>
        <time>2024-10-15T13:05:05.000Z</time>
      </trkpt>
      <trkpt lat="45.07756" lon="5.98593">
        <ele>1480.1999511719</ele>
        <time>2024-10-15T13:05:06.000Z</time>
      </trkpt>
      <trkpt lat="45.07756" lon="5.98594">
        <ele>1480.1999511719</ele>
        <time>2024-10-15T13:05:07.000Z</time>
      </trkpt>
      <trkpt lat="45.07756" lon="5.98594">
        <ele>1480</ele>
        <time>2024-10-15T13:05:08.000Z</time>
      </trkpt>
      <trkpt lat="45.07755" lon="5.98595">
        <ele>1480</ele>
        <time>2024-10-15T13:05:09.000Z</time>
      </trkpt>
      <trkpt lat="45.07754" lon="5.98596">
        <ele>1479.5999755859</ele>
        <time>2024-10-15T13:05:10.000Z</time>
      </trkpt>
      <trkpt lat="45.07754" lon="5.98597">
        <ele>1479.4000244141</ele>
        <time>2024-10-15T13:05:11.000Z</time>
      </trkpt>
      <trkpt lat="45.07752" lon="5.98598">
        <ele>1479</ele>
        <time>2024-10-15T13:05:12.000Z</time>
      </trkpt>
      <trkpt lat="45.07751" lon="5.98598">
        <ele>1478.1999511719</ele>
        <time>2024-10-15T13:05:13.000Z</time>
      </trkpt>
      <trkpt lat="45.0775" lon="5.986">
        <ele>1477.8000488281</ele>
        <time>2024-10-15T13:05:14.000Z</time>
      </trkpt>
      <trkpt lat="45.07749" lon="5.98601">
        <ele>1477.1999511719</ele>
        <time>2024-10-15T13:05:15.000Z</time>
      </trkpt>
      <trkpt lat="45.07748" lon="5.98602">
        <ele>1476.4000244141</ele>
        <time>2024-10-15T13:05:16.000Z</time>
      </trkpt>
      <trkpt lat="45.07748" lon="5.98602">
        <ele>1475.8000488281</ele>
        <time>2024-10-15T13:05:17.000Z</time>
      </trkpt>
      <trkpt lat="45.07747" lon="5.98603">
        <ele>1475.4000244141</ele>
        <time>2024-10-15T13:05:18.000Z</time>
      </trkpt>
      <trkpt lat="45.07747" lon="5.98605">
        <ele>1475.4000244141</ele>
        <time>2024-10-15T13:05:19.000Z</time>
      </trkpt>
      <trkpt lat="45.07746" lon="5.98605">
        <ele>1475.1999511719</ele>
        <time>2024-10-15T13:05:20.000Z</time>
      </trkpt>
      <trkpt lat="45.07745" lon="5.98606">
        <ele>1475.1999511719</ele>
        <time>2024-10-15T13:05:21.000Z</time>
      </trkpt>
      <trkpt lat="45.07744" lon="5.98608">
        <ele>1475.1999511719</ele>
        <time>2024-10-15T13:05:22.000Z</time>
      </trkpt>
      <trkpt lat="45.07744" lon="5.98609">
        <ele>1475</ele>
        <time>2024-10-15T13:05:23.000Z</time>
      </trkpt>
      <trkpt lat="45.07743" lon="5.9861">
        <ele>1474.8000488281</ele>
        <time>2024-10-15T13:05:24.000Z</time>
      </trkpt>
      <trkpt lat="45.07743" lon="5.9861">
        <ele>1474.4000244141</ele>
        <time>2024-10-15T13:05:25.000Z</time>
      </trkpt>
      <trkpt lat="45.07742" lon="5.98612">
        <ele>1474.4000244141</ele>
        <time>2024-10-15T13:05:26.000Z</time>
      </trkpt>
      <trkpt lat="45.07742" lon="5.98613">
        <ele>1474.1999511719</ele>
        <time>2024-10-15T13:05:27.000Z</time>
      </trkpt>
      <trkpt lat="45.07741" lon="5.98614">
        <ele>1474.1999511719</ele>
        <time>2024-10-15T13:05:28.000Z</time>
      </trkpt>
      <trkpt lat="45.07741" lon="5.98615">
        <ele>1474</ele>
        <time>2024-10-15T13:05:29.000Z</time>
      </trkpt>
      <trkpt lat="45.0774" lon="5.98617">
        <ele>1474</ele>
        <time>2024-10-15T13:05:30.000Z</time>
      </trkpt>
      <trkpt lat="45.0774" lon="5.98618">
        <ele>1474</ele>
        <time>2024-10-15T13:05:31.000Z</time>
      </trkpt>
      <trkpt lat="45.0774" lon="5.98619">
        <ele>1474</ele>
        <time>2024-10-15T13:05:32.000Z</time>
      </trkpt>
      <trkpt lat="45.0774" lon="5.9862">
        <ele>1473.5999755859</ele>
        <time>2024-10-15T13:05:33.000Z</time>
      </trkpt>
      <trkpt lat="45.07739" lon="5.98621">
        <ele>1473.4000244141</ele>
        <time>2024-10-15T13:05:34.000Z</time>
      </trkpt>
      <trkpt lat="45.07739" lon="5.98622">
        <ele>1473.1999511719</ele>
        <time>2024-10-15T13:05:35.000Z</time>
      </trkpt>
      <trkpt lat="45.07738" lon="5.98623">
        <ele>1473</ele>
        <time>2024-10-15T13:05:36.000Z</time>
      </trkpt>
      <trkpt lat="45.07737" lon="5.98624">
        <ele>1473</ele>
        <time>2024-10-15T13:05:37.000Z</time>
      </trkpt>
      <trkpt lat="45.07737" lon="5.98625">
        <ele>1472.5999755859</ele>
        <time>2024-10-15T13:05:38.000Z</time>
      </trkpt>
      <trkpt lat="45.07736" lon="5.98626">
        <ele>1472</ele>
        <time>2024-10-15T13:05:39.000Z</time>
      </trkpt>
      <trkpt lat="45.07735" lon="5.98626">
        <ele>1471</ele>
        <time>2024-10-15T13:05:40.000Z</time>
      </trkpt>
      <trkpt lat="45.07735" lon="5.98627">
        <ele>1470.8000488281</ele>
        <time>2024-10-15T13:05:41.000Z</time>
      </trkpt>
      <trkpt lat="45.07734" lon="5.98628">
        <ele>1470.5999755859</ele>
        <time>2024-10-15T13:05:42.000Z</time>
      </trkpt>
      <trkpt lat="45.07733" lon="5.98628">
        <ele>1470.4000244141</ele>
        <time>2024-10-15T13:05:43.000Z</time>
      </trkpt>
      <trkpt lat="45.07732" lon="5.98629">
        <ele>1470</ele>
        <time>2024-10-15T13:05:44.000Z</time>
      </trkpt>
      <trkpt lat="45.07732" lon="5.9863">
        <ele>1470</ele>
        <time>2024-10-15T13:05:45.000Z</time>
      </trkpt>
      <trkpt lat="45.07731" lon="5.98631">
        <ele>1469.8000488281</ele>
        <time>2024-10-15T13:05:46.000Z</time>
      </trkpt>
      <trkpt lat="45.0773" lon="5.98632">
        <ele>1469.5999755859</ele>
        <time>2024-10-15T13:05:47.000Z</time>
      </trkpt>
      <trkpt lat="45.07729" lon="5.98633">
        <ele>1467.8000488281</ele>
        <time>2024-10-15T13:05:48.000Z</time>
      </trkpt>
      <trkpt lat="45.07728" lon="5.98634">
        <ele>1467</ele>
        <time>2024-10-15T13:05:49.000Z</time>
      </trkpt>
      <trkpt lat="45.07727" lon="5.98635">
        <ele>1466.8000488281</ele>
        <time>2024-10-15T13:05:50.000Z</time>
      </trkpt>
      <trkpt lat="45.07726" lon="5.98636">
        <ele>1466.5999755859</ele>
        <time>2024-10-15T13:05:51.000Z</time>
      </trkpt>
      <trkpt lat="45.07724" lon="5.98638">
        <ele>1466</ele>
        <time>2024-10-15T13:05:52.000Z</time>
      </trkpt>
      <trkpt lat="45.07723" lon="5.98639">
        <ele>1465.8000488281</ele>
        <time>2024-10-15T13:05:53.000Z</time>
      </trkpt>
      <trkpt lat="45.07721" lon="5.9864">
        <ele>1464.8000488281</ele>
        <time>2024-10-15T13:05:54.000Z</time>
      </trkpt>
      <trkpt lat="45.0772" lon="5.98641">
        <ele>1463.8000488281</ele>
        <time>2024-10-15T13:05:55.000Z</time>
      </trkpt>
      <trkpt lat="45.07719" lon="5.98643">
        <ele>1462.8000488281</ele>
        <time>2024-10-15T13:05:56.000Z</time>
      </trkpt>
      <trkpt lat="45.07719" lon="5.98644">
        <ele>1461.5999755859</ele>
        <time>2024-10-15T13:05:57.000Z</time>
      </trkpt>
      <trkpt lat="45.07718" lon="5.98644">
        <ele>1460.4000244141</ele>
        <time>2024-10-15T13:05:58.000Z</time>
      </trkpt>
      <trkpt lat="45.07718" lon="5.98645">
        <ele>1460.1999511719</ele>
        <time>2024-10-15T13:05:59.000Z</time>
      </trkpt>
      <trkpt lat="45.07717" lon="5.98646">
        <ele>1460.1999511719</ele>
        <time>2024-10-15T13:06:00.000Z</time>
      </trkpt>
      <trkpt lat="45.07717" lon="5.98647">
        <ele>1460.1999511719</ele>
        <time>2024-10-15T13:06:01.000Z</time>
      </trkpt>
      <trkpt lat="45.07717" lon="5.98648">
        <ele>1460.1999511719</ele>
        <time>2024-10-15T13:06:02.000Z</time>
      </trkpt>
      <trkpt lat="45.07717" lon="5.98649">
        <ele>1460.1999511719</ele>
        <time>2024-10-15T13:06:03.000Z</time>
      </trkpt>
      <trkpt lat="45.07716" lon="5.9865">
        <ele>1460</ele>
        <time>2024-10-15T13:06:04.000Z</time>
      </trkpt>
      <trkpt lat="45.07716" lon="5.98651">
        <ele>1460</ele>
        <time>2024-10-15T13:06:05.000Z</time>
      </trkpt>
      <trkpt lat="45.07716" lon="5.98652">
        <ele>1460</ele>
        <time>2024-10-15T13:06:06.000Z</time>
      </trkpt>
      <trkpt lat="45.07716" lon="5.98652">
        <ele>1460</ele>
        <time>2024-10-15T13:06:07.000Z</time>
      </trkpt>
      <trkpt lat="45.07716" lon="5.98653">
        <ele>1460</ele>
        <time>2024-10-15T13:06:08.000Z</time>
      </trkpt>
      <trkpt lat="45.07716" lon="5.98654">
        <ele>1460</ele>
        <time>2024-10-15T13:06:09.000Z</time>
      </trkpt>
      <trkpt lat="45.07716" lon="5.98654">
        <ele>1460</ele>
        <time>2024-10-15T13:06:10.000Z</time>
      </trkpt>
      <trkpt lat="45.07716" lon="5.98655">
        <ele>1459.8000488281</ele>
        <time>2024-10-15T13:06:11.000Z</time>
      </trkpt>
      <trkpt lat="45.07716" lon="5.98655">
        <ele>1459.8000488281</ele>
        <time>2024-10-15T13:06:12.000Z</time>
      </trkpt>
      <trkpt lat="45.07716" lon="5.98655">
        <ele>1459.1999511719</ele>
        <time>2024-10-15T13:06:13.000Z</time>
      </trkpt>
      <trkpt lat="45.07716" lon="5.98655">
        <ele>1458.1999511719</ele>
        <time>2024-10-15T13:06:14.000Z</time>
      </trkpt>
      <trkpt lat="45.07716" lon="5.98655">
        <ele>1458</ele>
        <time>2024-10-15T13:06:15.000Z</time>
      </trkpt>
      <trkpt lat="45.07716" lon="5.98655">
        <ele>1458</ele>
        <time>2024-10-15T13:06:16.000Z</time>
      </trkpt>
      <trkpt lat="45.07716" lon="5.98655">
        <ele>1458</ele>
        <time>2024-10-15T13:06:17.000Z</time>
      </trkpt>
      <trkpt lat="45.07716" lon="5.98655">
        <ele>1458</ele>
        <time>2024-10-15T13:06:18.000Z</time>
      </trkpt>
      <trkpt lat="45.07716" lon="5.98655">
        <ele>1458</ele>
        <time>2024-10-15T13:06:19.000Z</time>
      </trkpt>
      <trkpt lat="45.07716" lon="5.98655">
        <ele>1458</ele>
        <time>2024-10-15T13:06:20.000Z</time>
      </trkpt>
      <trkpt lat="45.07716" lon="5.98655">
        <ele>1458.1999511719</ele>
        <time>2024-10-15T13:06:21.000Z</time>
      </trkpt>
      <trkpt lat="45.07716" lon="5.98655">
        <ele>1458.5999755859</ele>
        <time>2024-10-15T13:06:22.000Z</time>
      </trkpt>
      <trkpt lat="45.07716" lon="5.98655">
        <ele>1459.5999755859</ele>
        <time>2024-10-15T13:06:23.000Z</time>
      </trkpt>
      <trkpt lat="45.07716" lon="5.98655">
        <ele>1459.5999755859</ele>
        <time>2024-10-15T13:06:24.000Z</time>
      </trkpt>
      <trkpt lat="45.07716" lon="5.98655">
        <ele>1459.5999755859</ele>
        <time>2024-10-15T13:06:25.000Z</time>
      </trkpt>
      <trkpt lat="45.07716" lon="5.98655">
        <ele>1459.4000244141</ele>
        <time>2024-10-15T13:06:26.000Z</time>
      </trkpt>
      <trkpt lat="45.07715" lon="5.98657">
        <ele>1458.8000488281</ele>
        <time>2024-10-15T13:06:27.000Z</time>
      </trkpt>
      <trkpt lat="45.07714" lon="5.98659">
        <ele>1458.4000244141</ele>
        <time>2024-10-15T13:06:28.000Z</time>
      </trkpt>
      <trkpt lat="45.07713" lon="5.9866">
        <ele>1457.5999755859</ele>
        <time>2024-10-15T13:06:29.000Z</time>
      </trkpt>
      <trkpt lat="45.07712" lon="5.98662">
        <ele>1456.5999755859</ele>
        <time>2024-10-15T13:06:30.000Z</time>
      </trkpt>
      <trkpt lat="45.07711" lon="5.98663">
        <ele>1455.8000488281</ele>
        <time>2024-10-15T13:06:31.000Z</time>
      </trkpt>
      <trkpt lat="45.0771" lon="5.98665">
        <ele>1455.1999511719</ele>
        <time>2024-10-15T13:06:32.000Z</time>
      </trkpt>
      <trkpt lat="45.07709" lon="5.98666">
        <ele>1455</ele>
        <time>2024-10-15T13:06:33.000Z</time>
      </trkpt>
      <trkpt lat="45.07709" lon="5.98668">
        <ele>1454.8000488281</ele>
        <time>2024-10-15T13:06:34.000Z</time>
      </trkpt>
      <trkpt lat="45.07708" lon="5.98669">
        <ele>1454.5999755859</ele>
        <time>2024-10-15T13:06:35.000Z</time>
      </trkpt>
      <trkpt lat="45.07707" lon="5.9867">
        <ele>1453.5999755859</ele>
        <time>2024-10-15T13:06:36.000Z</time>
      </trkpt>
      <trkpt lat="45.07706" lon="5.98672">
        <ele>1452.5999755859</ele>
        <time>2024-10-15T13:06:37.000Z</time>
      </trkpt>
      <trkpt lat="45.07706" lon="5.98673">
        <ele>1451.8000488281</ele>
        <time>2024-10-15T13:06:38.000Z</time>
      </trkpt>
      <trkpt lat="45.07705" lon="5.98675">
        <ele>1451</ele>
        <time>2024-10-15T13:06:39.000Z</time>
      </trkpt>
      <trkpt lat="45.07705" lon="5.98676">
        <ele>1450.8000488281</ele>
        <time>2024-10-15T13:06:40.000Z</time>
      </trkpt>
      <trkpt lat="45.07705" lon="5.98677">
        <ele>1450.5999755859</ele>
        <time>2024-10-15T13:06:41.000Z</time>
      </trkpt>
      <trkpt lat="45.07705" lon="5.98678">
        <ele>1450.1999511719</ele>
        <time>2024-10-15T13:06:42.000Z</time>
      </trkpt>
      <trkpt lat="45.07704" lon="5.98679">
        <ele>1449.8000488281</ele>
        <time>2024-10-15T13:06:43.000Z</time>
      </trkpt>
      <trkpt lat="45.07703" lon="5.9868">
        <ele>1449</ele>
        <time>2024-10-15T13:06:44.000Z</time>
      </trkpt>
      <trkpt lat="45.07702" lon="5.98681">
        <ele>1447</ele>
        <time>2024-10-15T13:06:45.000Z</time>
      </trkpt>
      <trkpt lat="45.07701" lon="5.98682">
        <ele>1445.5999755859</ele>
        <time>2024-10-15T13:06:46.000Z</time>
      </trkpt>
      <trkpt lat="45.077" lon="5.98683">
        <ele>1444.1999511719</ele>
        <time>2024-10-15T13:06:47.000Z</time>
      </trkpt>
      <trkpt lat="45.07699" lon="5.98683">
        <ele>1443.1999511719</ele>
        <time>2024-10-15T13:06:48.000Z</time>
      </trkpt>
      <trkpt lat="45.07698" lon="5.98684">
        <ele>1442.5999755859</ele>
        <time>2024-10-15T13:06:49.000Z</time>
      </trkpt>
      <trkpt lat="45.07698" lon="5.98685">
        <ele>1442.4000244141</ele>
        <time>2024-10-15T13:06:50.000Z</time>
      </trkpt>
      <trkpt lat="45.07697" lon="5.98685">
        <ele>1441.8000488281</ele>
        <time>2024-10-15T13:06:51.000Z</time>
      </trkpt>
      <trkpt lat="45.07696" lon="5.98685">
        <ele>1441.1999511719</ele>
        <time>2024-10-15T13:06:52.000Z</time>
      </trkpt>
      <trkpt lat="45.07696" lon="5.98686">
        <ele>1440.8000488281</ele>
        <time>2024-10-15T13:06:53.000Z</time>
      </trkpt>
      <trkpt lat="45.07696" lon="5.98686">
        <ele>1440.4000244141</ele>
        <time>2024-10-15T13:06:54.000Z</time>
      </trkpt>
      <trkpt lat="45.07695" lon="5.98687">
        <ele>1440.4000244141</ele>
        <time>2024-10-15T13:06:55.000Z</time>
      </trkpt>
      <trkpt lat="45.07695" lon="5.98688">
        <ele>1440.1999511719</ele>
        <time>2024-10-15T13:06:56.000Z</time>
      </trkpt>
      <trkpt lat="45.07694" lon="5.98689">
        <ele>1440</ele>
        <time>2024-10-15T13:06:57.000Z</time>
      </trkpt>
      <trkpt lat="45.07693" lon="5.98689">
        <ele>1439.5999755859</ele>
        <time>2024-10-15T13:06:58.000Z</time>
      </trkpt>
      <trkpt lat="45.07692" lon="5.9869">
        <ele>1439.1999511719</ele>
        <time>2024-10-15T13:06:59.000Z</time>
      </trkpt>
      <trkpt lat="45.07691" lon="5.9869">
        <ele>1438.4000244141</ele>
        <time>2024-10-15T13:07:00.000Z</time>
      </trkpt>
      <trkpt lat="45.07689" lon="5.98691">
        <ele>1437.8000488281</ele>
        <time>2024-10-15T13:07:01.000Z</time>
      </trkpt>
      <trkpt lat="45.07688" lon="5.98691">
        <ele>1436.8000488281</ele>
        <time>2024-10-15T13:07:02.000Z</time>
      </trkpt>
      <trkpt lat="45.07687" lon="5.98691">
        <ele>1435.8000488281</ele>
        <time>2024-10-15T13:07:03.000Z</time>
      </trkpt>
      <trkpt lat="45.07686" lon="5.98692">
        <ele>1434.5999755859</ele>
        <time>2024-10-15T13:07:04.000Z</time>
      </trkpt>
      <trkpt lat="45.07685" lon="5.98692">
        <ele>1434.1999511719</ele>
        <time>2024-10-15T13:07:05.000Z</time>
      </trkpt>
      <trkpt lat="45.07684" lon="5.98692">
        <ele>1434.1999511719</ele>
        <time>2024-10-15T13:07:06.000Z</time>
      </trkpt>
      <trkpt lat="45.07684" lon="5.98692">
        <ele>1433.8000488281</ele>
        <time>2024-10-15T13:07:07.000Z</time>
      </trkpt>
      <trkpt lat="45.07684" lon="5.98692">
        <ele>1432.8000488281</ele>
        <time>2024-10-15T13:07:08.000Z</time>
      </trkpt>
      <trkpt lat="45.07684" lon="5.98693">
        <ele>1432.5999755859</ele>
        <time>2024-10-15T13:07:09.000Z</time>
      </trkpt>
      <trkpt lat="45.07684" lon="5.98694">
        <ele>1432.1999511719</ele>
        <time>2024-10-15T13:07:10.000Z</time>
      </trkpt>
      <trkpt lat="45.07683" lon="5.98695">
        <ele>1432</ele>
        <time>2024-10-15T13:07:11.000Z</time>
      </trkpt>
      <trkpt lat="45.07683" lon="5.98696">
        <ele>1431.8000488281</ele>
        <time>2024-10-15T13:07:12.000Z</time>
      </trkpt>
      <trkpt lat="45.07682" lon="5.98696">
        <ele>1431.8000488281</ele>
        <time>2024-10-15T13:07:13.000Z</time>
      </trkpt>
      <trkpt lat="45.07681" lon="5.98696">
        <ele>1431.5999755859</ele>
        <time>2024-10-15T13:07:14.000Z</time>
      </trkpt>
      <trkpt lat="45.07681" lon="5.98697">
        <ele>1431</ele>
        <time>2024-10-15T13:07:15.000Z</time>
      </trkpt>
      <trkpt lat="45.0768" lon="5.98697">
        <ele>1430.5999755859</ele>
        <time>2024-10-15T13:07:16.000Z</time>
      </trkpt>
      <trkpt lat="45.0768" lon="5.98697">
        <ele>1430.1999511719</ele>
        <time>2024-10-15T13:07:17.000Z</time>
      </trkpt>
      <trkpt lat="45.0768" lon="5.98697">
        <ele>1430.1999511719</ele>
        <time>2024-10-15T13:07:18.000Z</time>
      </trkpt>
      <trkpt lat="45.0768" lon="5.98697">
        <ele>1430.1999511719</ele>
        <time>2024-10-15T13:07:19.000Z</time>
      </trkpt>
      <trkpt lat="45.0768" lon="5.98697">
        <ele>1430.1999511719</ele>
        <time>2024-10-15T13:07:20.000Z</time>
      </trkpt>
      <trkpt lat="45.0768" lon="5.98697">
        <ele>1430</ele>
        <time>2024-10-15T13:07:21.000Z</time>
      </trkpt>
      <trkpt lat="45.0768" lon="5.98697">
        <ele>1430</ele>
        <time>2024-10-15T13:07:22.000Z</time>
      </trkpt>
      <trkpt lat="45.0768" lon="5.98697">
        <ele>1430</ele>
        <time>2024-10-15T13:07:23.000Z</time>
      </trkpt>
      <trkpt lat="45.0768" lon="5.98697">
        <ele>1430</ele>
        <time>2024-10-15T13:07:24.000Z</time>
      </trkpt>
      <trkpt lat="45.0768" lon="5.98697">
        <ele>1430</ele>
        <time>2024-10-15T13:07:25.000Z</time>
      </trkpt>
      <trkpt lat="45.0768" lon="5.98697">
        <ele>1430</ele>
        <time>2024-10-15T13:07:26.000Z</time>
      </trkpt>
      <trkpt lat="45.07679" lon="5.98697">
        <ele>1430</ele>
        <time>2024-10-15T13:07:27.000Z</time>
      </trkpt>
      <trkpt lat="45.07679" lon="5.98697">
        <ele>1430.4000244141</ele>
        <time>2024-10-15T13:07:28.000Z</time>
      </trkpt>
      <trkpt lat="45.07679" lon="5.98697">
        <ele>1430.5999755859</ele>
        <time>2024-10-15T13:07:29.000Z</time>
      </trkpt>
      <trkpt lat="45.07679" lon="5.98697">
        <ele>1430.5999755859</ele>
        <time>2024-10-15T13:07:30.000Z</time>
      </trkpt>
      <trkpt lat="45.07678" lon="5.98696">
        <ele>1430.5999755859</ele>
        <time>2024-10-15T13:07:31.000Z</time>
      </trkpt>
      <trkpt lat="45.07678" lon="5.98696">
        <ele>1430.5999755859</ele>
        <time>2024-10-15T13:07:32.000Z</time>
      </trkpt>
      <trkpt lat="45.07677" lon="5.98695">
        <ele>1430.5999755859</ele>
        <time>2024-10-15T13:07:33.000Z</time>
      </trkpt>
      <trkpt lat="45.07677" lon="5.98694">
        <ele>1430.5999755859</ele>
        <time>2024-10-15T13:07:34.000Z</time>
      </trkpt>
      <trkpt lat="45.07677" lon="5.98694">
        <ele>1430.4000244141</ele>
        <time>2024-10-15T13:07:35.000Z</time>
      </trkpt>
      <trkpt lat="45.07676" lon="5.98694">
        <ele>1430.4000244141</ele>
        <time>2024-10-15T13:07:36.000Z</time>
      </trkpt>
      <trkpt lat="45.07676" lon="5.98693">
        <ele>1430.4000244141</ele>
        <time>2024-10-15T13:07:37.000Z</time>
      </trkpt>
      <trkpt lat="45.07676" lon="5.98693">
        <ele>1430.1999511719</ele>
        <time>2024-10-15T13:07:38.000Z</time>
      </trkpt>
      <trkpt lat="45.07676" lon="5.98693">
        <ele>1430.1999511719</ele>
        <time>2024-10-15T13:07:39.000Z</time>
      </trkpt>
      <trkpt lat="45.07676" lon="5.98693">
        <ele>1430.1999511719</ele>
        <time>2024-10-15T13:07:40.000Z</time>
      </trkpt>
      <trkpt lat="45.07676" lon="5.98693">
        <ele>1430.1999511719</ele>
        <time>2024-10-15T13:07:41.000Z</time>
      </trkpt>
      <trkpt lat="45.07676" lon="5.98693">
        <ele>1430.1999511719</ele>
        <time>2024-10-15T13:07:42.000Z</time>
      </trkpt>
      <trkpt lat="45.07676" lon="5.98692">
        <ele>1430.1999511719</ele>
        <time>2024-10-15T13:07:43.000Z</time>
      </trkpt>
      <trkpt lat="45.07675" lon="5.98692">
        <ele>1430</ele>
        <time>2024-10-15T13:07:44.000Z</time>
      </trkpt>
      <trkpt lat="45.07675" lon="5.98692">
        <ele>1430</ele>
        <time>2024-10-15T13:07:45.000Z</time>
      </trkpt>
      <trkpt lat="45.07675" lon="5.98692">
        <ele>1429.8000488281</ele>
        <time>2024-10-15T13:07:46.000Z</time>
      </trkpt>
      <trkpt lat="45.07675" lon="5.98692">
        <ele>1429.8000488281</ele>
        <time>2024-10-15T13:07:47.000Z</time>
      </trkpt>
      <trkpt lat="45.07674" lon="5.98692">
        <ele>1429.8000488281</ele>
        <time>2024-10-15T13:07:48.000Z</time>
      </trkpt>
      <trkpt lat="45.07674" lon="5.98692">
        <ele>1429.8000488281</ele>
        <time>2024-10-15T13:07:49.000Z</time>
      </trkpt>
      <trkpt lat="45.07673" lon="5.98691">
        <ele>1429.8000488281</ele>
        <time>2024-10-15T13:07:50.000Z</time>
      </trkpt>
      <trkpt lat="45.07673" lon="5.98691">
        <ele>1429.8000488281</ele>
        <time>2024-10-15T13:07:51.000Z</time>
      </trkpt>
      <trkpt lat="45.07672" lon="5.98691">
        <ele>1429.5999755859</ele>
        <time>2024-10-15T13:07:52.000Z</time>
      </trkpt>
      <trkpt lat="45.07672" lon="5.98691">
        <ele>1429.4000244141</ele>
        <time>2024-10-15T13:07:53.000Z</time>
      </trkpt>
      <trkpt lat="45.07672" lon="5.98691">
        <ele>1429</ele>
        <time>2024-10-15T13:07:54.000Z</time>
      </trkpt>
      <trkpt lat="45.07671" lon="5.98691">
        <ele>1428</ele>
        <time>2024-10-15T13:07:55.000Z</time>
      </trkpt>
      <trkpt lat="45.07671" lon="5.98691">
        <ele>1427</ele>
        <time>2024-10-15T13:07:56.000Z</time>
      </trkpt>
      <trkpt lat="45.07671" lon="5.98692">
        <ele>1426.1999511719</ele>
        <time>2024-10-15T13:07:57.000Z</time>
      </trkpt>
      <trkpt lat="45.0767" lon="5.98692">
        <ele>1425.8000488281</ele>
        <time>2024-10-15T13:07:58.000Z</time>
      </trkpt>
      <trkpt lat="45.0767" lon="5.98693">
        <ele>1425</ele>
        <time>2024-10-15T13:07:59.000Z</time>
      </trkpt>
      <trkpt lat="45.0767" lon="5.98695">
        <ele>1424.4000244141</ele>
        <time>2024-10-15T13:08:00.000Z</time>
      </trkpt>
      <trkpt lat="45.0767" lon="5.98697">
        <ele>1423.8000488281</ele>
        <time>2024-10-15T13:08:01.000Z</time>
      </trkpt>
      <trkpt lat="45.0767" lon="5.98698">
        <ele>1423.4000244141</ele>
        <time>2024-10-15T13:08:02.000Z</time>
      </trkpt>
      <trkpt lat="45.07671" lon="5.987">
        <ele>1423.1999511719</ele>
        <time>2024-10-15T13:08:03.000Z</time>
      </trkpt>
      <trkpt lat="45.07671" lon="5.98702">
        <ele>1423.1999511719</ele>
        <time>2024-10-15T13:08:04.000Z</time>
      </trkpt>
      <trkpt lat="45.07671" lon="5.98704">
        <ele>1423</ele>
        <time>2024-10-15T13:08:05.000Z</time>
      </trkpt>
      <trkpt lat="45.07672" lon="5.98705">
        <ele>1422.8000488281</ele>
        <time>2024-10-15T13:08:06.000Z</time>
      </trkpt>
      <trkpt lat="45.07672" lon="5.98707">
        <ele>1422.8000488281</ele>
        <time>2024-10-15T13:08:07.000Z</time>
      </trkpt>
      <trkpt lat="45.07672" lon="5.98709">
        <ele>1422.5999755859</ele>
        <time>2024-10-15T13:08:08.000Z</time>
      </trkpt>
      <trkpt lat="45.07672" lon="5.9871">
        <ele>1422.5999755859</ele>
        <time>2024-10-15T13:08:09.000Z</time>
      </trkpt>
      <trkpt lat="45.07673" lon="5.98712">
        <ele>1422.4000244141</ele>
        <time>2024-10-15T13:08:10.000Z</time>
      </trkpt>
      <trkpt lat="45.07673" lon="5.98714">
        <ele>1422.1999511719</ele>
        <time>2024-10-15T13:08:11.000Z</time>
      </trkpt>
      <trkpt lat="45.07673" lon="5.98715">
        <ele>1422</ele>
        <time>2024-10-15T13:08:12.000Z</time>
      </trkpt>
      <trkpt lat="45.07674" lon="5.98717">
        <ele>1421.8000488281</ele>
        <time>2024-10-15T13:08:13.000Z</time>
      </trkpt>
      <trkpt lat="45.07674" lon="5.98718">
        <ele>1421.4000244141</ele>
        <time>2024-10-15T13:08:14.000Z</time>
      </trkpt>
      <trkpt lat="45.07674" lon="5.9872">
        <ele>1421.4000244141</ele>
        <time>2024-10-15T13:08:15.000Z</time>
      </trkpt>
      <trkpt lat="45.07674" lon="5.98722">
        <ele>1421.1999511719</ele>
        <time>2024-10-15T13:08:16.000Z</time>
      </trkpt>
      <trkpt lat="45.07674" lon="5.98723">
        <ele>1421</ele>
        <time>2024-10-15T13:08:17.000Z</time>
      </trkpt>
      <trkpt lat="45.07674" lon="5.98725">
        <ele>1421</ele>
        <time>2024-10-15T13:08:18.000Z</time>
      </trkpt>
      <trkpt lat="45.07675" lon="5.98727">
        <ele>1420.8000488281</ele>
        <time>2024-10-15T13:08:19.000Z</time>
      </trkpt>
      <trkpt lat="45.07675" lon="5.98728">
        <ele>1420.4000244141</ele>
        <time>2024-10-15T13:08:20.000Z</time>
      </trkpt>
      <trkpt lat="45.07675" lon="5.9873">
        <ele>1420.1999511719</ele>
        <time>2024-10-15T13:08:21.000Z</time>
      </trkpt>
      <trkpt lat="45.07675" lon="5.98731">
        <ele>1420.1999511719</ele>
        <time>2024-10-15T13:08:22.000Z</time>
      </trkpt>
      <trkpt lat="45.07676" lon="5.98733">
        <ele>1420</ele>
        <time>2024-10-15T13:08:23.000Z</time>
      </trkpt>
      <trkpt lat="45.07676" lon="5.98734">
        <ele>1420</ele>
        <time>2024-10-15T13:08:24.000Z</time>
      </trkpt>
      <trkpt lat="45.07677" lon="5.98735">
        <ele>1420</ele>
        <time>2024-10-15T13:08:25.000Z</time>
      </trkpt>
      <trkpt lat="45.07678" lon="5.98736">
        <ele>1419.8000488281</ele>
        <time>2024-10-15T13:08:26.000Z</time>
      </trkpt>
      <trkpt lat="45.07678" lon="5.98738">
        <ele>1419.5999755859</ele>
        <time>2024-10-15T13:08:27.000Z</time>
      </trkpt>
      <trkpt lat="45.07679" lon="5.98739">
        <ele>1419.4000244141</ele>
        <time>2024-10-15T13:08:28.000Z</time>
      </trkpt>
      <trkpt lat="45.0768" lon="5.9874">
        <ele>1419.1999511719</ele>
        <time>2024-10-15T13:08:29.000Z</time>
      </trkpt>
      <trkpt lat="45.0768" lon="5.98742">
        <ele>1419.1999511719</ele>
        <time>2024-10-15T13:08:30.000Z</time>
      </trkpt>
      <trkpt lat="45.0768" lon="5.98743">
        <ele>1419.1999511719</ele>
        <time>2024-10-15T13:08:31.000Z</time>
      </trkpt>
      <trkpt lat="45.0768" lon="5.98744">
        <ele>1419.1999511719</ele>
        <time>2024-10-15T13:08:32.000Z</time>
      </trkpt>
      <trkpt lat="45.07681" lon="5.98745">
        <ele>1419.1999511719</ele>
        <time>2024-10-15T13:08:33.000Z</time>
      </trkpt>
      <trkpt lat="45.07681" lon="5.98747">
        <ele>1419.4000244141</ele>
        <time>2024-10-15T13:08:34.000Z</time>
      </trkpt>
      <trkpt lat="45.07681" lon="5.98749">
        <ele>1419.4000244141</ele>
        <time>2024-10-15T13:08:35.000Z</time>
      </trkpt>
      <trkpt lat="45.07681" lon="5.9875">
        <ele>1419.8000488281</ele>
        <time>2024-10-15T13:08:36.000Z</time>
      </trkpt>
      <trkpt lat="45.07681" lon="5.98751">
        <ele>1420</ele>
        <time>2024-10-15T13:08:37.000Z</time>
      </trkpt>
      <trkpt lat="45.07681" lon="5.98752">
        <ele>1420.1999511719</ele>
        <time>2024-10-15T13:08:38.000Z</time>
      </trkpt>
      <trkpt lat="45.07681" lon="5.98753">
        <ele>1420.1999511719</ele>
        <time>2024-10-15T13:08:39.000Z</time>
      </trkpt>
      <trkpt lat="45.07681" lon="5.98754">
        <ele>1420.8000488281</ele>
        <time>2024-10-15T13:08:40.000Z</time>
      </trkpt>
      <trkpt lat="45.07682" lon="5.98755">
        <ele>1421</ele>
        <time>2024-10-15T13:08:41.000Z</time>
      </trkpt>
      <trkpt lat="45.07682" lon="5.98757">
        <ele>1421</ele>
        <time>2024-10-15T13:08:42.000Z</time>
      </trkpt>
      <trkpt lat="45.07682" lon="5.98758">
        <ele>1421</ele>
        <time>2024-10-15T13:08:43.000Z</time>
      </trkpt>
      <trkpt lat="45.07681" lon="5.98759">
        <ele>1421.1999511719</ele>
        <time>2024-10-15T13:08:44.000Z</time>
      </trkpt>
      <trkpt lat="45.07682" lon="5.9876">
        <ele>1421.1999511719</ele>
        <time>2024-10-15T13:08:45.000Z</time>
      </trkpt>
      <trkpt lat="45.07682" lon="5.98762">
        <ele>1421.1999511719</ele>
        <time>2024-10-15T13:08:46.000Z</time>
      </trkpt>
      <trkpt lat="45.07682" lon="5.98763">
        <ele>1421.4000244141</ele>
        <time>2024-10-15T13:08:47.000Z</time>
      </trkpt>
      <trkpt lat="45.07683" lon="5.98763">
        <ele>1421.4000244141</ele>
        <time>2024-10-15T13:08:48.000Z</time>
      </trkpt>
      <trkpt lat="45.07683" lon="5.98765">
        <ele>1421.5999755859</ele>
        <time>2024-10-15T13:08:49.000Z</time>
      </trkpt>
      <trkpt lat="45.07684" lon="5.98766">
        <ele>1421.5999755859</ele>
        <time>2024-10-15T13:08:50.000Z</time>
      </trkpt>
      <trkpt lat="45.07684" lon="5.98767">
        <ele>1421.8000488281</ele>
        <time>2024-10-15T13:08:51.000Z</time>
      </trkpt>
      <trkpt lat="45.07684" lon="5.98769">
        <ele>1421.8000488281</ele>
        <time>2024-10-15T13:08:52.000Z</time>
      </trkpt>
      <trkpt lat="45.07685" lon="5.9877">
        <ele>1421.8000488281</ele>
        <time>2024-10-15T13:08:53.000Z</time>
      </trkpt>
      <trkpt lat="45.07685" lon="5.98771">
        <ele>1421.8000488281</ele>
        <time>2024-10-15T13:08:54.000Z</time>
      </trkpt>
      <trkpt lat="45.07685" lon="5.98773">
        <ele>1421.8000488281</ele>
        <time>2024-10-15T13:08:55.000Z</time>
      </trkpt>
      <trkpt lat="45.07686" lon="5.98774">
        <ele>1421.5999755859</ele>
        <time>2024-10-15T13:08:56.000Z</time>
      </trkpt>
      <trkpt lat="45.07686" lon="5.98775">
        <ele>1421.5999755859</ele>
        <time>2024-10-15T13:08:57.000Z</time>
      </trkpt>
      <trkpt lat="45.07687" lon="5.98777">
        <ele>1421.5999755859</ele>
        <time>2024-10-15T13:08:58.000Z</time>
      </trkpt>
      <trkpt lat="45.07687" lon="5.98778">
        <ele>1421.5999755859</ele>
        <time>2024-10-15T13:08:59.000Z</time>
      </trkpt>
      <trkpt lat="45.07687" lon="5.9878">
        <ele>1421.4000244141</ele>
        <time>2024-10-15T13:09:00.000Z</time>
      </trkpt>
      <trkpt lat="45.07687" lon="5.98781">
        <ele>1420.5999755859</ele>
        <time>2024-10-15T13:09:01.000Z</time>
      </trkpt>
      <trkpt lat="45.07688" lon="5.98782">
        <ele>1420.1999511719</ele>
        <time>2024-10-15T13:09:02.000Z</time>
      </trkpt>
      <trkpt lat="45.07688" lon="5.98783">
        <ele>1419.8000488281</ele>
        <time>2024-10-15T13:09:03.000Z</time>
      </trkpt>
      <trkpt lat="45.07688" lon="5.98784">
        <ele>1419.5999755859</ele>
        <time>2024-10-15T13:09:04.000Z</time>
      </trkpt>
      <trkpt lat="45.07688" lon="5.98785">
        <ele>1419.5999755859</ele>
        <time>2024-10-15T13:09:05.000Z</time>
      </trkpt>
      <trkpt lat="45.07689" lon="5.98786">
        <ele>1419.4000244141</ele>
        <time>2024-10-15T13:09:06.000Z</time>
      </trkpt>
      <trkpt lat="45.07689" lon="5.98787">
        <ele>1419.4000244141</ele>
        <time>2024-10-15T13:09:07.000Z</time>
      </trkpt>
      <trkpt lat="45.07689" lon="5.98788">
        <ele>1419.4000244141</ele>
        <time>2024-10-15T13:09:08.000Z</time>
      </trkpt>
      <trkpt lat="45.07689" lon="5.98788">
        <ele>1418.8000488281</ele>
        <time>2024-10-15T13:09:09.000Z</time>
      </trkpt>
      <trkpt lat="45.07689" lon="5.98789">
        <ele>1418.8000488281</ele>
        <time>2024-10-15T13:09:10.000Z</time>
      </trkpt>
      <trkpt lat="45.07689" lon="5.98789">
        <ele>1418.8000488281</ele>
        <time>2024-10-15T13:09:11.000Z</time>
      </trkpt>
      <trkpt lat="45.07689" lon="5.98789">
        <ele>1418.8000488281</ele>
        <time>2024-10-15T13:09:12.000Z</time>
      </trkpt>
      <trkpt lat="45.07689" lon="5.98789">
        <ele>1418.8000488281</ele>
        <time>2024-10-15T13:09:13.000Z</time>
      </trkpt>
      <trkpt lat="45.07689" lon="5.98789">
        <ele>1419</ele>
        <time>2024-10-15T13:09:14.000Z</time>
      </trkpt>
      <trkpt lat="45.07689" lon="5.98789">
        <ele>1419</ele>
        <time>2024-10-15T13:09:15.000Z</time>
      </trkpt>
      <trkpt lat="45.07689" lon="5.98789">
        <ele>1419</ele>
        <time>2024-10-15T13:09:16.000Z</time>
      </trkpt>
      <trkpt lat="45.07689" lon="5.98789">
        <ele>1419.1999511719</ele>
        <time>2024-10-15T13:09:17.000Z</time>
      </trkpt>
      <trkpt lat="45.07689" lon="5.98789">
        <ele>1419.1999511719</ele>
        <time>2024-10-15T13:09:18.000Z</time>
      </trkpt>
      <trkpt lat="45.07689" lon="5.98789">
        <ele>1419.1999511719</ele>
        <time>2024-10-15T13:09:19.000Z</time>
      </trkpt>
      <trkpt lat="45.07689" lon="5.98789">
        <ele>1419.1999511719</ele>
        <time>2024-10-15T13:09:20.000Z</time>
      </trkpt>
      <trkpt lat="45.07689" lon="5.98788">
        <ele>1419.1999511719</ele>
        <time>2024-10-15T13:09:21.000Z</time>
      </trkpt>
      <trkpt lat="45.07689" lon="5.98788">
        <ele>1419.4000244141</ele>
        <time>2024-10-15T13:09:22.000Z</time>
      </trkpt>
      <trkpt lat="45.07689" lon="5.98788">
        <ele>1419.4000244141</ele>
        <time>2024-10-15T13:09:23.000Z</time>
      </trkpt>
      <trkpt lat="45.07689" lon="5.98788">
        <ele>1419.5999755859</ele>
        <time>2024-10-15T13:09:24.000Z</time>
      </trkpt>
      <trkpt lat="45.07689" lon="5.98788">
        <ele>1420</ele>
        <time>2024-10-15T13:09:25.000Z</time>
      </trkpt>
      <trkpt lat="45.07689" lon="5.98788">
        <ele>1420</ele>
        <time>2024-10-15T13:09:26.000Z</time>
      </trkpt>
      <trkpt lat="45.07689" lon="5.98788">
        <ele>1420.1999511719</ele>
        <time>2024-10-15T13:09:27.000Z</time>
      </trkpt>
      <trkpt lat="45.07689" lon="5.98788">
        <ele>1420.1999511719</ele>
        <time>2024-10-15T13:09:28.000Z</time>
      </trkpt>
      <trkpt lat="45.07689" lon="5.98788">
        <ele>1420.1999511719</ele>
        <time>2024-10-15T13:09:29.000Z</time>
      </trkpt>
      <trkpt lat="45.07689" lon="5.98788">
        <ele>1420.1999511719</ele>
        <time>2024-10-15T13:09:30.000Z</time>
      </trkpt>
      <trkpt lat="45.07689" lon="5.98788">
        <ele>1420.1999511719</ele>
        <time>2024-10-15T13:09:31.000Z</time>
      </trkpt>
      <trkpt lat="45.07689" lon="5.98788">
        <ele>1420</ele>
        <time>2024-10-15T13:09:32.000Z</time>
      </trkpt>
      <trkpt lat="45.07689" lon="5.98788">
        <ele>1419.8000488281</ele>
        <time>2024-10-15T13:09:33.000Z</time>
      </trkpt>
      <trkpt lat="45.07689" lon="5.98788">
        <ele>1419.8000488281</ele>
        <time>2024-10-15T13:09:34.000Z</time>
      </trkpt>
      <trkpt lat="45.07689" lon="5.98788">
        <ele>1419.8000488281</ele>
        <time>2024-10-15T13:09:35.000Z</time>
      </trkpt>
      <trkpt lat="45.07689" lon="5.98788">
        <ele>1419.8000488281</ele>
        <time>2024-10-15T13:09:36.000Z</time>
      </trkpt>
      <trkpt lat="45.07689" lon="5.98789">
        <ele>1419.5999755859</ele>
        <time>2024-10-15T13:09:37.000Z</time>
      </trkpt>
      <trkpt lat="45.07689" lon="5.98789">
        <ele>1419.5999755859</ele>
        <time>2024-10-15T13:09:38.000Z</time>
      </trkpt>
      <trkpt lat="45.07689" lon="5.98789">
        <ele>1419.5999755859</ele>
        <time>2024-10-15T13:09:39.000Z</time>
      </trkpt>
      <trkpt lat="45.07689" lon="5.98789">
        <ele>1419.5999755859</ele>
        <time>2024-10-15T13:09:40.000Z</time>
      </trkpt>
      <trkpt lat="45.07689" lon="5.98789">
        <ele>1419.8000488281</ele>
        <time>2024-10-15T13:09:41.000Z</time>
      </trkpt>
      <trkpt lat="45.07689" lon="5.98789">
        <ele>1420</ele>
        <time>2024-10-15T13:09:42.000Z</time>
      </trkpt>
      <trkpt lat="45.07689" lon="5.98789">
        <ele>1420.4000244141</ele>
        <time>2024-10-15T13:09:43.000Z</time>
      </trkpt>
      <trkpt lat="45.07689" lon="5.98789">
        <ele>1420.4000244141</ele>
        <time>2024-10-15T13:09:44.000Z</time>
      </trkpt>
      <trkpt lat="45.07689" lon="5.98789">
        <ele>1420.4000244141</ele>
        <time>2024-10-15T13:09:45.000Z</time>
      </trkpt>
      <trkpt lat="45.07689" lon="5.98791">
        <ele>1420.4000244141</ele>
        <time>2024-10-15T13:09:46.000Z</time>
      </trkpt>
      <trkpt lat="45.0769" lon="5.98793">
        <ele>1420.4000244141</ele>
        <time>2024-10-15T13:09:47.000Z</time>
      </trkpt>
      <trkpt lat="45.0769" lon="5.98794">
        <ele>1419.8000488281</ele>
        <time>2024-10-15T13:09:48.000Z</time>
      </trkpt>
      <trkpt lat="45.07691" lon="5.98796">
        <ele>1419.8000488281</ele>
        <time>2024-10-15T13:09:49.000Z</time>
      </trkpt>
      <trkpt lat="45.07691" lon="5.98798">
        <ele>1419.5999755859</ele>
        <time>2024-10-15T13:09:50.000Z</time>
      </trkpt>
      <trkpt lat="45.07692" lon="5.988">
        <ele>1419.4000244141</ele>
        <time>2024-10-15T13:09:51.000Z</time>
      </trkpt>
      <trkpt lat="45.07692" lon="5.98802">
        <ele>1419.1999511719</ele>
        <time>2024-10-15T13:09:52.000Z</time>
      </trkpt>
      <trkpt lat="45.07693" lon="5.98803">
        <ele>1419.1999511719</ele>
        <time>2024-10-15T13:09:53.000Z</time>
      </trkpt>
      <trkpt lat="45.07693" lon="5.98804">
        <ele>1419</ele>
        <time>2024-10-15T13:09:54.000Z</time>
      </trkpt>
      <trkpt lat="45.07693" lon="5.98805">
        <ele>1418.8000488281</ele>
        <time>2024-10-15T13:09:55.000Z</time>
      </trkpt>
      <trkpt lat="45.07693" lon="5.98806">
        <ele>1418.1999511719</ele>
        <time>2024-10-15T13:09:56.000Z</time>
      </trkpt>
      <trkpt lat="45.07693" lon="5.98807">
        <ele>1418.1999511719</ele>
        <time>2024-10-15T13:09:57.000Z</time>
      </trkpt>
      <trkpt lat="45.07693" lon="5.98809">
        <ele>1418.1999511719</ele>
        <time>2024-10-15T13:09:58.000Z</time>
      </trkpt>
      <trkpt lat="45.07693" lon="5.9881">
        <ele>1418</ele>
        <time>2024-10-15T13:09:59.000Z</time>
      </trkpt>
      <trkpt lat="45.07693" lon="5.98812">
        <ele>1418</ele>
        <time>2024-10-15T13:10:00.000Z</time>
      </trkpt>
      <trkpt lat="45.07693" lon="5.98814">
        <ele>1418</ele>
        <time>2024-10-15T13:10:01.000Z</time>
      </trkpt>
      <trkpt lat="45.07692" lon="5.98815">
        <ele>1418</ele>
        <time>2024-10-15T13:10:02.000Z</time>
      </trkpt>
      <trkpt lat="45.07692" lon="5.98817">
        <ele>1417.8000488281</ele>
        <time>2024-10-15T13:10:03.000Z</time>
      </trkpt>
      <trkpt lat="45.07692" lon="5.98818">
        <ele>1417.5999755859</ele>
        <time>2024-10-15T13:10:04.000Z</time>
      </trkpt>
      <trkpt lat="45.07692" lon="5.9882">
        <ele>1417</ele>
        <time>2024-10-15T13:10:05.000Z</time>
      </trkpt>
      <trkpt lat="45.07692" lon="5.98821">
        <ele>1416.5999755859</ele>
        <time>2024-10-15T13:10:06.000Z</time>
      </trkpt>
      <trkpt lat="45.07692" lon="5.98822">
        <ele>1416</ele>
        <time>2024-10-15T13:10:07.000Z</time>
      </trkpt>
      <trkpt lat="45.07691" lon="5.98823">
        <ele>1415.8000488281</ele>
        <time>2024-10-15T13:10:08.000Z</time>
      </trkpt>
      <trkpt lat="45.07691" lon="5.98825">
        <ele>1415.4000244141</ele>
        <time>2024-10-15T13:10:09.000Z</time>
      </trkpt>
      <trkpt lat="45.07691" lon="5.98825">
        <ele>1414.8000488281</ele>
        <time>2024-10-15T13:10:10.000Z</time>
      </trkpt>
      <trkpt lat="45.07691" lon="5.98827">
        <ele>1414.4000244141</ele>
        <time>2024-10-15T13:10:11.000Z</time>
      </trkpt>
      <trkpt lat="45.07691" lon="5.98828">
        <ele>1414.1999511719</ele>
        <time>2024-10-15T13:10:12.000Z</time>
      </trkpt>
      <trkpt lat="45.07691" lon="5.98829">
        <ele>1414</ele>
        <time>2024-10-15T13:10:13.000Z</time>
      </trkpt>
      <trkpt lat="45.0769" lon="5.9883">
        <ele>1413.5999755859</ele>
        <time>2024-10-15T13:10:14.000Z</time>
      </trkpt>
      <trkpt lat="45.0769" lon="5.98832">
        <ele>1413.5999755859</ele>
        <time>2024-10-15T13:10:15.000Z</time>
      </trkpt>
      <trkpt lat="45.0769" lon="5.98833">
        <ele>1413.1999511719</ele>
        <time>2024-10-15T13:10:16.000Z</time>
      </trkpt>
      <trkpt lat="45.07689" lon="5.98834">
        <ele>1412.5999755859</ele>
        <time>2024-10-15T13:10:17.000Z</time>
      </trkpt>
      <trkpt lat="45.07689" lon="5.98835">
        <ele>1412.4000244141</ele>
        <time>2024-10-15T13:10:18.000Z</time>
      </trkpt>
      <trkpt lat="45.07689" lon="5.98837">
        <ele>1412</ele>
        <time>2024-10-15T13:10:19.000Z</time>
      </trkpt>
      <trkpt lat="45.07689" lon="5.98838">
        <ele>1411.8000488281</ele>
        <time>2024-10-15T13:10:20.000Z</time>
      </trkpt>
      <trkpt lat="45.07689" lon="5.98839">
        <ele>1411.5999755859</ele>
        <time>2024-10-15T13:10:21.000Z</time>
      </trkpt>
      <trkpt lat="45.07688" lon="5.9884">
        <ele>1411.5999755859</ele>
        <time>2024-10-15T13:10:22.000Z</time>
      </trkpt>
      <trkpt lat="45.07688" lon="5.98841">
        <ele>1411.4000244141</ele>
        <time>2024-10-15T13:10:23.000Z</time>
      </trkpt>
      <trkpt lat="45.07688" lon="5.98841">
        <ele>1411.4000244141</ele>
        <time>2024-10-15T13:10:24.000Z</time>
      </trkpt>
      <trkpt lat="45.07688" lon="5.98842">
        <ele>1411.4000244141</ele>
        <time>2024-10-15T13:10:25.000Z</time>
      </trkpt>
      <trkpt lat="45.07688" lon="5.98842">
        <ele>1411.4000244141</ele>
        <time>2024-10-15T13:10:26.000Z</time>
      </trkpt>
      <trkpt lat="45.07688" lon="5.98842">
        <ele>1411.4000244141</ele>
        <time>2024-10-15T13:10:27.000Z</time>
      </trkpt>
      <trkpt lat="45.07688" lon="5.98842">
        <ele>1411.4000244141</ele>
        <time>2024-10-15T13:10:28.000Z</time>
      </trkpt>
      <trkpt lat="45.07688" lon="5.98842">
        <ele>1411.4000244141</ele>
        <time>2024-10-15T13:10:29.000Z</time>
      </trkpt>
      <trkpt lat="45.07688" lon="5.98842">
        <ele>1411.4000244141</ele>
        <time>2024-10-15T13:10:30.000Z</time>
      </trkpt>
      <trkpt lat="45.07688" lon="5.98842">
        <ele>1411.4000244141</ele>
        <time>2024-10-15T13:10:31.000Z</time>
      </trkpt>
      <trkpt lat="45.07688" lon="5.98842">
        <ele>1411.4000244141</ele>
        <time>2024-10-15T13:10:32.000Z</time>
      </trkpt>
      <trkpt lat="45.07688" lon="5.98842">
        <ele>1411.1999511719</ele>
        <time>2024-10-15T13:10:33.000Z</time>
      </trkpt>
      <trkpt lat="45.07688" lon="5.98843">
        <ele>1411.1999511719</ele>
        <time>2024-10-15T13:10:34.000Z</time>
      </trkpt>
      <trkpt lat="45.07688" lon="5.98843">
        <ele>1411.1999511719</ele>
        <time>2024-10-15T13:10:35.000Z</time>
      </trkpt>
      <trkpt lat="45.07688" lon="5.98843">
        <ele>1411.1999511719</ele>
        <time>2024-10-15T13:10:36.000Z</time>
      </trkpt>
      <trkpt lat="45.07688" lon="5.98843">
        <ele>1411.1999511719</ele>
        <time>2024-10-15T13:10:37.000Z</time>
      </trkpt>
      <trkpt lat="45.07688" lon="5.98843">
        <ele>1411.4000244141</ele>
        <time>2024-10-15T13:10:38.000Z</time>
      </trkpt>
      <trkpt lat="45.07688" lon="5.98843">
        <ele>1411.8000488281</ele>
        <time>2024-10-15T13:10:39.000Z</time>
      </trkpt>
      <trkpt lat="45.07688" lon="5.98843">
        <ele>1412</ele>
        <time>2024-10-15T13:10:40.000Z</time>
      </trkpt>
      <trkpt lat="45.07688" lon="5.98843">
        <ele>1412</ele>
        <time>2024-10-15T13:10:41.000Z</time>
      </trkpt>
      <trkpt lat="45.07688" lon="5.98843">
        <ele>1412</ele>
        <time>2024-10-15T13:10:42.000Z</time>
      </trkpt>
      <trkpt lat="45.07688" lon="5.98843">
        <ele>1412</ele>
        <time>2024-10-15T13:10:43.000Z</time>
      </trkpt>
      <trkpt lat="45.07688" lon="5.98843">
        <ele>1412</ele>
        <time>2024-10-15T13:10:44.000Z</time>
      </trkpt>
      <trkpt lat="45.07688" lon="5.98843">
        <ele>1412</ele>
        <time>2024-10-15T13:10:45.000Z</time>
      </trkpt>
      <trkpt lat="45.07688" lon="5.98845">
        <ele>1412</ele>
        <time>2024-10-15T13:10:46.000Z</time>
      </trkpt>
      <trkpt lat="45.07689" lon="5.98847">
        <ele>1412</ele>
        <time>2024-10-15T13:10:47.000Z</time>
      </trkpt>
      <trkpt lat="45.07689" lon="5.98849">
        <ele>1411.5999755859</ele>
        <time>2024-10-15T13:10:48.000Z</time>
      </trkpt>
      <trkpt lat="45.07688" lon="5.98851">
        <ele>1411</ele>
        <time>2024-10-15T13:10:49.000Z</time>
      </trkpt>
      <trkpt lat="45.07688" lon="5.98852">
        <ele>1410.5999755859</ele>
        <time>2024-10-15T13:10:50.000Z</time>
      </trkpt>
      <trkpt lat="45.07688" lon="5.98854">
        <ele>1410.4000244141</ele>
        <time>2024-10-15T13:10:51.000Z</time>
      </trkpt>
      <trkpt lat="45.07688" lon="5.98856">
        <ele>1410.1999511719</ele>
        <time>2024-10-15T13:10:52.000Z</time>
      </trkpt>
      <trkpt lat="45.07689" lon="5.98858">
        <ele>1409.8000488281</ele>
        <time>2024-10-15T13:10:53.000Z</time>
      </trkpt>
      <trkpt lat="45.0769" lon="5.9886">
        <ele>1409.5999755859</ele>
        <time>2024-10-15T13:10:54.000Z</time>
      </trkpt>
      <trkpt lat="45.0769" lon="5.98861">
        <ele>1409.5999755859</ele>
        <time>2024-10-15T13:10:55.000Z</time>
      </trkpt>
      <trkpt lat="45.07691" lon="5.98862">
        <ele>1409.4000244141</ele>
        <time>2024-10-15T13:10:56.000Z</time>
      </trkpt>
      <trkpt lat="45.07691" lon="5.98863">
        <ele>1409.4000244141</ele>
        <time>2024-10-15T13:10:57.000Z</time>
      </trkpt>
      <trkpt lat="45.0769" lon="5.98864">
        <ele>1409.4000244141</ele>
        <time>2024-10-15T13:10:58.000Z</time>
      </trkpt>
      <trkpt lat="45.0769" lon="5.98864">
        <ele>1409.4000244141</ele>
        <time>2024-10-15T13:10:59.000Z</time>
      </trkpt>
      <trkpt lat="45.07691" lon="5.98864">
        <ele>1409.4000244141</ele>
        <time>2024-10-15T13:11:00.000Z</time>
      </trkpt>
      <trkpt lat="45.07691" lon="5.98865">
        <ele>1409.4000244141</ele>
        <time>2024-10-15T13:11:01.000Z</time>
      </trkpt>
      <trkpt lat="45.07691" lon="5.98865">
        <ele>1409.1999511719</ele>
        <time>2024-10-15T13:11:02.000Z</time>
      </trkpt>
      <trkpt lat="45.07691" lon="5.98866">
        <ele>1409.1999511719</ele>
        <time>2024-10-15T13:11:03.000Z</time>
      </trkpt>
      <trkpt lat="45.07691" lon="5.98867">
        <ele>1409.1999511719</ele>
        <time>2024-10-15T13:11:04.000Z</time>
      </trkpt>
      <trkpt lat="45.07691" lon="5.98868">
        <ele>1409.1999511719</ele>
        <time>2024-10-15T13:11:05.000Z</time>
      </trkpt>
      <trkpt lat="45.07691" lon="5.98869">
        <ele>1409.1999511719</ele>
        <time>2024-10-15T13:11:06.000Z</time>
      </trkpt>
      <trkpt lat="45.0769" lon="5.98871">
        <ele>1409.1999511719</ele>
        <time>2024-10-15T13:11:07.000Z</time>
      </trkpt>
      <trkpt lat="45.0769" lon="5.98872">
        <ele>1409.1999511719</ele>
        <time>2024-10-15T13:11:08.000Z</time>
      </trkpt>
      <trkpt lat="45.0769" lon="5.98872">
        <ele>1409.1999511719</ele>
        <time>2024-10-15T13:11:09.000Z</time>
      </trkpt>
      <trkpt lat="45.0769" lon="5.98873">
        <ele>1409</ele>
        <time>2024-10-15T13:11:10.000Z</time>
      </trkpt>
      <trkpt lat="45.07689" lon="5.98873">
        <ele>1408.8000488281</ele>
        <time>2024-10-15T13:11:11.000Z</time>
      </trkpt>
      <trkpt lat="45.0769" lon="5.98874">
        <ele>1408.8000488281</ele>
        <time>2024-10-15T13:11:12.000Z</time>
      </trkpt>
      <trkpt lat="45.0769" lon="5.98874">
        <ele>1408.8000488281</ele>
        <time>2024-10-15T13:11:13.000Z</time>
      </trkpt>
      <trkpt lat="45.0769" lon="5.98876">
        <ele>1408.8000488281</ele>
        <time>2024-10-15T13:11:14.000Z</time>
      </trkpt>
      <trkpt lat="45.0769" lon="5.98877">
        <ele>1408.8000488281</ele>
        <time>2024-10-15T13:11:15.000Z</time>
      </trkpt>
      <trkpt lat="45.0769" lon="5.98879">
        <ele>1409.5999755859</ele>
        <time>2024-10-15T13:11:16.000Z</time>
      </trkpt>
      <trkpt lat="45.07689" lon="5.98881">
        <ele>1409.8000488281</ele>
        <time>2024-10-15T13:11:17.000Z</time>
      </trkpt>
      <trkpt lat="45.07689" lon="5.98882">
        <ele>1409.8000488281</ele>
        <time>2024-10-15T13:11:18.000Z</time>
      </trkpt>
      <trkpt lat="45.07688" lon="5.98884">
        <ele>1409.8000488281</ele>
        <time>2024-10-15T13:11:19.000Z</time>
      </trkpt>
      <trkpt lat="45.07688" lon="5.98886">
        <ele>1409.8000488281</ele>
        <time>2024-10-15T13:11:20.000Z</time>
      </trkpt>
      <trkpt lat="45.07687" lon="5.98886">
        <ele>1409.5999755859</ele>
        <time>2024-10-15T13:11:21.000Z</time>
      </trkpt>
      <trkpt lat="45.07687" lon="5.98888">
        <ele>1408.8000488281</ele>
        <time>2024-10-15T13:11:22.000Z</time>
      </trkpt>
      <trkpt lat="45.07686" lon="5.98889">
        <ele>1408</ele>
        <time>2024-10-15T13:11:23.000Z</time>
      </trkpt>
      <trkpt lat="45.07686" lon="5.9889">
        <ele>1407.4000244141</ele>
        <time>2024-10-15T13:11:24.000Z</time>
      </trkpt>
      <trkpt lat="45.07686" lon="5.98892">
        <ele>1407</ele>
        <time>2024-10-15T13:11:25.000Z</time>
      </trkpt>
      <trkpt lat="45.07687" lon="5.98893">
        <ele>1406.8000488281</ele>
        <time>2024-10-15T13:11:26.000Z</time>
      </trkpt>
      <trkpt lat="45.07687" lon="5.98894">
        <ele>1406.8000488281</ele>
        <time>2024-10-15T13:11:27.000Z</time>
      </trkpt>
      <trkpt lat="45.07687" lon="5.98896">
        <ele>1406.8000488281</ele>
        <time>2024-10-15T13:11:28.000Z</time>
      </trkpt>
      <trkpt lat="45.07687" lon="5.98898">
        <ele>1406.8000488281</ele>
        <time>2024-10-15T13:11:29.000Z</time>
      </trkpt>
      <trkpt lat="45.07687" lon="5.98899">
        <ele>1406.5999755859</ele>
        <time>2024-10-15T13:11:30.000Z</time>
      </trkpt>
      <trkpt lat="45.07687" lon="5.98901">
        <ele>1406.5999755859</ele>
        <time>2024-10-15T13:11:31.000Z</time>
      </trkpt>
      <trkpt lat="45.07687" lon="5.98902">
        <ele>1406.5999755859</ele>
        <time>2024-10-15T13:11:32.000Z</time>
      </trkpt>
      <trkpt lat="45.07687" lon="5.98904">
        <ele>1406.5999755859</ele>
        <time>2024-10-15T13:11:33.000Z</time>
      </trkpt>
      <trkpt lat="45.07687" lon="5.98905">
        <ele>1406.4000244141</ele>
        <time>2024-10-15T13:11:34.000Z</time>
      </trkpt>
      <trkpt lat="45.07687" lon="5.98907">
        <ele>1406.4000244141</ele>
        <time>2024-10-15T13:11:35.000Z</time>
      </trkpt>
      <trkpt lat="45.07687" lon="5.98908">
        <ele>1406.1999511719</ele>
        <time>2024-10-15T13:11:36.000Z</time>
      </trkpt>
      <trkpt lat="45.07687" lon="5.9891">
        <ele>1406.1999511719</ele>
        <time>2024-10-15T13:11:37.000Z</time>
      </trkpt>
      <trkpt lat="45.07687" lon="5.98911">
        <ele>1406</ele>
        <time>2024-10-15T13:11:38.000Z</time>
      </trkpt>
      <trkpt lat="45.07687" lon="5.98912">
        <ele>1406</ele>
        <time>2024-10-15T13:11:39.000Z</time>
      </trkpt>
      <trkpt lat="45.07688" lon="5.98914">
        <ele>1405.8000488281</ele>
        <time>2024-10-15T13:11:40.000Z</time>
      </trkpt>
      <trkpt lat="45.07688" lon="5.98915">
        <ele>1405.8000488281</ele>
        <time>2024-10-15T13:11:41.000Z</time>
      </trkpt>
      <trkpt lat="45.07688" lon="5.98916">
        <ele>1405.5999755859</ele>
        <time>2024-10-15T13:11:42.000Z</time>
      </trkpt>
      <trkpt lat="45.07688" lon="5.98917">
        <ele>1405.5999755859</ele>
        <time>2024-10-15T13:11:43.000Z</time>
      </trkpt>
      <trkpt lat="45.07688" lon="5.98919">
        <ele>1405.4000244141</ele>
        <time>2024-10-15T13:11:44.000Z</time>
      </trkpt>
      <trkpt lat="45.07688" lon="5.9892">
        <ele>1405.4000244141</ele>
        <time>2024-10-15T13:11:45.000Z</time>
      </trkpt>
      <trkpt lat="45.07688" lon="5.98922">
        <ele>1405.4000244141</ele>
        <time>2024-10-15T13:11:46.000Z</time>
      </trkpt>
      <trkpt lat="45.07688" lon="5.98923">
        <ele>1405.4000244141</ele>
        <time>2024-10-15T13:11:47.000Z</time>
      </trkpt>
      <trkpt lat="45.07689" lon="5.98924">
        <ele>1405.1999511719</ele>
        <time>2024-10-15T13:11:48.000Z</time>
      </trkpt>
      <trkpt lat="45.0769" lon="5.98926">
        <ele>1405.4000244141</ele>
        <time>2024-10-15T13:11:49.000Z</time>
      </trkpt>
      <trkpt lat="45.0769" lon="5.98927">
        <ele>1405.5999755859</ele>
        <time>2024-10-15T13:11:50.000Z</time>
      </trkpt>
      <trkpt lat="45.0769" lon="5.98928">
        <ele>1405.8000488281</ele>
        <time>2024-10-15T13:11:51.000Z</time>
      </trkpt>
      <trkpt lat="45.07691" lon="5.98929">
        <ele>1405.8000488281</ele>
        <time>2024-10-15T13:11:52.000Z</time>
      </trkpt>
      <trkpt lat="45.07691" lon="5.9893">
        <ele>1405.8000488281</ele>
        <time>2024-10-15T13:11:53.000Z</time>
      </trkpt>
      <trkpt lat="45.07692" lon="5.98931">
        <ele>1405.8000488281</ele>
        <time>2024-10-15T13:11:54.000Z</time>
      </trkpt>
      <trkpt lat="45.07693" lon="5.98933">
        <ele>1406</ele>
        <time>2024-10-15T13:11:55.000Z</time>
      </trkpt>
      <trkpt lat="45.07694" lon="5.98934">
        <ele>1406</ele>
        <time>2024-10-15T13:11:56.000Z</time>
      </trkpt>
      <trkpt lat="45.07695" lon="5.98934">
        <ele>1406</ele>
        <time>2024-10-15T13:11:57.000Z</time>
      </trkpt>
      <trkpt lat="45.07696" lon="5.98936">
        <ele>1406</ele>
        <time>2024-10-15T13:11:58.000Z</time>
      </trkpt>
      <trkpt lat="45.07696" lon="5.98936">
        <ele>1406</ele>
        <time>2024-10-15T13:11:59.000Z</time>
      </trkpt>
      <trkpt lat="45.07696" lon="5.98937">
        <ele>1406</ele>
        <time>2024-10-15T13:12:00.000Z</time>
      </trkpt>
      <trkpt lat="45.07696" lon="5.98937">
        <ele>1406</ele>
        <time>2024-10-15T13:12:01.000Z</time>
      </trkpt>
      <trkpt lat="45.07696" lon="5.98937">
        <ele>1405.8000488281</ele>
        <time>2024-10-15T13:12:02.000Z</time>
      </trkpt>
      <trkpt lat="45.07696" lon="5.98937">
        <ele>1405.8000488281</ele>
        <time>2024-10-15T13:12:03.000Z</time>
      </trkpt>
      <trkpt lat="45.07697" lon="5.98937">
        <ele>1405.8000488281</ele>
        <time>2024-10-15T13:12:04.000Z</time>
      </trkpt>
      <trkpt lat="45.07697" lon="5.98938">
        <ele>1405.5999755859</ele>
        <time>2024-10-15T13:12:05.000Z</time>
      </trkpt>
      <trkpt lat="45.07697" lon="5.98938">
        <ele>1405.5999755859</ele>
        <time>2024-10-15T13:12:06.000Z</time>
      </trkpt>
      <trkpt lat="45.07698" lon="5.98939">
        <ele>1405.5999755859</ele>
        <time>2024-10-15T13:12:07.000Z</time>
      </trkpt>
      <trkpt lat="45.07698" lon="5.98939">
        <ele>1405.8000488281</ele>
        <time>2024-10-15T13:12:08.000Z</time>
      </trkpt>
      <trkpt lat="45.07698" lon="5.9894">
        <ele>1406</ele>
        <time>2024-10-15T13:12:09.000Z</time>
      </trkpt>
      <trkpt lat="45.07699" lon="5.98941">
        <ele>1406.1999511719</ele>
        <time>2024-10-15T13:12:10.000Z</time>
      </trkpt>
      <trkpt lat="45.07699" lon="5.98942">
        <ele>1406.1999511719</ele>
        <time>2024-10-15T13:12:11.000Z</time>
      </trkpt>
      <trkpt lat="45.077" lon="5.98943">
        <ele>1406.1999511719</ele>
        <time>2024-10-15T13:12:12.000Z</time>
      </trkpt>
      <trkpt lat="45.07701" lon="5.98945">
        <ele>1406.4000244141</ele>
        <time>2024-10-15T13:12:13.000Z</time>
      </trkpt>
      <trkpt lat="45.07701" lon="5.98946">
        <ele>1406.5999755859</ele>
        <time>2024-10-15T13:12:14.000Z</time>
      </trkpt>
      <trkpt lat="45.07701" lon="5.98948">
        <ele>1406.5999755859</ele>
        <time>2024-10-15T13:12:15.000Z</time>
      </trkpt>
      <trkpt lat="45.07701" lon="5.98949">
        <ele>1406.5999755859</ele>
        <time>2024-10-15T13:12:16.000Z</time>
      </trkpt>
      <trkpt lat="45.07702" lon="5.98951">
        <ele>1406.5999755859</ele>
        <time>2024-10-15T13:12:17.000Z</time>
      </trkpt>
      <trkpt lat="45.07702" lon="5.98953">
        <ele>1406.5999755859</ele>
        <time>2024-10-15T13:12:18.000Z</time>
      </trkpt>
      <trkpt lat="45.07702" lon="5.98954">
        <ele>1406.5999755859</ele>
        <time>2024-10-15T13:12:19.000Z</time>
      </trkpt>
      <trkpt lat="45.07703" lon="5.98956">
        <ele>1406.5999755859</ele>
        <time>2024-10-15T13:12:20.000Z</time>
      </trkpt>
      <trkpt lat="45.07703" lon="5.98957">
        <ele>1406.5999755859</ele>
        <time>2024-10-15T13:12:21.000Z</time>
      </trkpt>
      <trkpt lat="45.07703" lon="5.98959">
        <ele>1406.8000488281</ele>
        <time>2024-10-15T13:12:22.000Z</time>
      </trkpt>
      <trkpt lat="45.07703" lon="5.98961">
        <ele>1407.1999511719</ele>
        <time>2024-10-15T13:12:23.000Z</time>
      </trkpt>
      <trkpt lat="45.07703" lon="5.98962">
        <ele>1407.5999755859</ele>
        <time>2024-10-15T13:12:24.000Z</time>
      </trkpt>
      <trkpt lat="45.07703" lon="5.98963">
        <ele>1408</ele>
        <time>2024-10-15T13:12:25.000Z</time>
      </trkpt>
      <trkpt lat="45.07704" lon="5.98964">
        <ele>1408</ele>
        <time>2024-10-15T13:12:26.000Z</time>
      </trkpt>
      <trkpt lat="45.07704" lon="5.98965">
        <ele>1408</ele>
        <time>2024-10-15T13:12:27.000Z</time>
      </trkpt>
      <trkpt lat="45.07705" lon="5.98967">
        <ele>1407.8000488281</ele>
        <time>2024-10-15T13:12:28.000Z</time>
      </trkpt>
      <trkpt lat="45.07705" lon="5.98969">
        <ele>1407.4000244141</ele>
        <time>2024-10-15T13:12:29.000Z</time>
      </trkpt>
      <trkpt lat="45.07706" lon="5.98971">
        <ele>1407.1999511719</ele>
        <time>2024-10-15T13:12:30.000Z</time>
      </trkpt>
      <trkpt lat="45.07706" lon="5.98972">
        <ele>1407</ele>
        <time>2024-10-15T13:12:31.000Z</time>
      </trkpt>
      <trkpt lat="45.07706" lon="5.98974">
        <ele>1407</ele>
        <time>2024-10-15T13:12:32.000Z</time>
      </trkpt>
      <trkpt lat="45.07706" lon="5.98976">
        <ele>1406.5999755859</ele>
        <time>2024-10-15T13:12:33.000Z</time>
      </trkpt>
      <trkpt lat="45.07706" lon="5.98977">
        <ele>1406.1999511719</ele>
        <time>2024-10-15T13:12:34.000Z</time>
      </trkpt>
      <trkpt lat="45.07706" lon="5.98979">
        <ele>1406.1999511719</ele>
        <time>2024-10-15T13:12:35.000Z</time>
      </trkpt>
      <trkpt lat="45.07706" lon="5.98981">
        <ele>1406.1999511719</ele>
        <time>2024-10-15T13:12:36.000Z</time>
      </trkpt>
      <trkpt lat="45.07707" lon="5.98983">
        <ele>1406</ele>
        <time>2024-10-15T13:12:37.000Z</time>
      </trkpt>
      <trkpt lat="45.07707" lon="5.98985">
        <ele>1406</ele>
        <time>2024-10-15T13:12:38.000Z</time>
      </trkpt>
      <trkpt lat="45.07708" lon="5.98986">
        <ele>1406</ele>
        <time>2024-10-15T13:12:39.000Z</time>
      </trkpt>
      <trkpt lat="45.07708" lon="5.98988">
        <ele>1406.1999511719</ele>
        <time>2024-10-15T13:12:40.000Z</time>
      </trkpt>
      <trkpt lat="45.07708" lon="5.9899">
        <ele>1406.1999511719</ele>
        <time>2024-10-15T13:12:41.000Z</time>
      </trkpt>
      <trkpt lat="45.07708" lon="5.98991">
        <ele>1406.1999511719</ele>
        <time>2024-10-15T13:12:42.000Z</time>
      </trkpt>
      <trkpt lat="45.07709" lon="5.98993">
        <ele>1406.1999511719</ele>
        <time>2024-10-15T13:12:43.000Z</time>
      </trkpt>
      <trkpt lat="45.07709" lon="5.98994">
        <ele>1406.4000244141</ele>
        <time>2024-10-15T13:12:44.000Z</time>
      </trkpt>
      <trkpt lat="45.0771" lon="5.98996">
        <ele>1406.4000244141</ele>
        <time>2024-10-15T13:12:45.000Z</time>
      </trkpt>
      <trkpt lat="45.0771" lon="5.98997">
        <ele>1406.5999755859</ele>
        <time>2024-10-15T13:12:46.000Z</time>
      </trkpt>
      <trkpt lat="45.07711" lon="5.98999">
        <ele>1406.5999755859</ele>
        <time>2024-10-15T13:12:47.000Z</time>
      </trkpt>
      <trkpt lat="45.07711" lon="5.99001">
        <ele>1406.5999755859</ele>
        <time>2024-10-15T13:12:48.000Z</time>
      </trkpt>
      <trkpt lat="45.07711" lon="5.99002">
        <ele>1407</ele>
        <time>2024-10-15T13:12:49.000Z</time>
      </trkpt>
      <trkpt lat="45.07712" lon="5.99003">
        <ele>1407.1999511719</ele>
        <time>2024-10-15T13:12:50.000Z</time>
      </trkpt>
      <trkpt lat="45.07713" lon="5.99004">
        <ele>1407.4000244141</ele>
        <time>2024-10-15T13:12:51.000Z</time>
      </trkpt>
      <trkpt lat="45.07713" lon="5.99006">
        <ele>1407.5999755859</ele>
        <time>2024-10-15T13:12:52.000Z</time>
      </trkpt>
      <trkpt lat="45.07714" lon="5.99007">
        <ele>1407.8000488281</ele>
        <time>2024-10-15T13:12:53.000Z</time>
      </trkpt>
      <trkpt lat="45.07714" lon="5.99008">
        <ele>1407.8000488281</ele>
        <time>2024-10-15T13:12:54.000Z</time>
      </trkpt>
      <trkpt lat="45.07714" lon="5.99009">
        <ele>1408.1999511719</ele>
        <time>2024-10-15T13:12:55.000Z</time>
      </trkpt>
      <trkpt lat="45.07715" lon="5.99011">
        <ele>1408.1999511719</ele>
        <time>2024-10-15T13:12:56.000Z</time>
      </trkpt>
      <trkpt lat="45.07715" lon="5.99011">
        <ele>1408.1999511719</ele>
        <time>2024-10-15T13:12:57.000Z</time>
      </trkpt>
      <trkpt lat="45.07716" lon="5.99012">
        <ele>1408.4000244141</ele>
        <time>2024-10-15T13:12:58.000Z</time>
      </trkpt>
      <trkpt lat="45.07716" lon="5.99013">
        <ele>1408.4000244141</ele>
        <time>2024-10-15T13:12:59.000Z</time>
      </trkpt>
      <trkpt lat="45.07717" lon="5.99014">
        <ele>1408.4000244141</ele>
        <time>2024-10-15T13:13:00.000Z</time>
      </trkpt>
      <trkpt lat="45.07717" lon="5.99015">
        <ele>1408.5999755859</ele>
        <time>2024-10-15T13:13:01.000Z</time>
      </trkpt>
      <trkpt lat="45.07717" lon="5.99016">
        <ele>1408.5999755859</ele>
        <time>2024-10-15T13:13:02.000Z</time>
      </trkpt>
      <trkpt lat="45.07718" lon="5.99017">
        <ele>1409</ele>
        <time>2024-10-15T13:13:03.000Z</time>
      </trkpt>
      <trkpt lat="45.07718" lon="5.99019">
        <ele>1409.1999511719</ele>
        <time>2024-10-15T13:13:04.000Z</time>
      </trkpt>
      <trkpt lat="45.07718" lon="5.9902">
        <ele>1409.4000244141</ele>
        <time>2024-10-15T13:13:05.000Z</time>
      </trkpt>
      <trkpt lat="45.07718" lon="5.9902">
        <ele>1409.8000488281</ele>
        <time>2024-10-15T13:13:06.000Z</time>
      </trkpt>
      <trkpt lat="45.07718" lon="5.99021">
        <ele>1410</ele>
        <time>2024-10-15T13:13:07.000Z</time>
      </trkpt>
      <trkpt lat="45.07718" lon="5.99022">
        <ele>1410.1999511719</ele>
        <time>2024-10-15T13:13:08.000Z</time>
      </trkpt>
      <trkpt lat="45.07718" lon="5.99023">
        <ele>1410.4000244141</ele>
        <time>2024-10-15T13:13:09.000Z</time>
      </trkpt>
      <trkpt lat="45.07718" lon="5.99024">
        <ele>1410.8000488281</ele>
        <time>2024-10-15T13:13:10.000Z</time>
      </trkpt>
      <trkpt lat="45.07718" lon="5.99025">
        <ele>1411</ele>
        <time>2024-10-15T13:13:11.000Z</time>
      </trkpt>
      <trkpt lat="45.07718" lon="5.99026">
        <ele>1411</ele>
        <time>2024-10-15T13:13:12.000Z</time>
      </trkpt>
      <trkpt lat="45.07718" lon="5.99027">
        <ele>1411.1999511719</ele>
        <time>2024-10-15T13:13:13.000Z</time>
      </trkpt>
      <trkpt lat="45.07718" lon="5.99028">
        <ele>1411.4000244141</ele>
        <time>2024-10-15T13:13:14.000Z</time>
      </trkpt>
      <trkpt lat="45.07718" lon="5.99029">
        <ele>1411.5999755859</ele>
        <time>2024-10-15T13:13:15.000Z</time>
      </trkpt>
      <trkpt lat="45.07717" lon="5.99029">
        <ele>1411.5999755859</ele>
        <time>2024-10-15T13:13:16.000Z</time>
      </trkpt>
      <trkpt lat="45.07717" lon="5.9903">
        <ele>1411.8000488281</ele>
        <time>2024-10-15T13:13:17.000Z</time>
      </trkpt>
      <trkpt lat="45.07717" lon="5.99031">
        <ele>1412</ele>
        <time>2024-10-15T13:13:18.000Z</time>
      </trkpt>
      <trkpt lat="45.07717" lon="5.99032">
        <ele>1412.1999511719</ele>
        <time>2024-10-15T13:13:19.000Z</time>
      </trkpt>
      <trkpt lat="45.07717" lon="5.99033">
        <ele>1412.4000244141</ele>
        <time>2024-10-15T13:13:20.000Z</time>
      </trkpt>
      <trkpt lat="45.07717" lon="5.99035">
        <ele>1412.5999755859</ele>
        <time>2024-10-15T13:13:21.000Z</time>
      </trkpt>
      <trkpt lat="45.07717" lon="5.99035">
        <ele>1412.8000488281</ele>
        <time>2024-10-15T13:13:22.000Z</time>
      </trkpt>
      <trkpt lat="45.07717" lon="5.99037">
        <ele>1413</ele>
        <time>2024-10-15T13:13:23.000Z</time>
      </trkpt>
      <trkpt lat="45.07717" lon="5.99038">
        <ele>1413.1999511719</ele>
        <time>2024-10-15T13:13:24.000Z</time>
      </trkpt>
      <trkpt lat="45.07718" lon="5.99039">
        <ele>1413.4000244141</ele>
        <time>2024-10-15T13:13:25.000Z</time>
      </trkpt>
      <trkpt lat="45.07718" lon="5.9904">
        <ele>1413.5999755859</ele>
        <time>2024-10-15T13:13:26.000Z</time>
      </trkpt>
      <trkpt lat="45.07718" lon="5.99041">
        <ele>1413.8000488281</ele>
        <time>2024-10-15T13:13:27.000Z</time>
      </trkpt>
      <trkpt lat="45.07718" lon="5.99043">
        <ele>1413.8000488281</ele>
        <time>2024-10-15T13:13:28.000Z</time>
      </trkpt>
      <trkpt lat="45.07717" lon="5.99044">
        <ele>1413.8000488281</ele>
        <time>2024-10-15T13:13:29.000Z</time>
      </trkpt>
      <trkpt lat="45.07717" lon="5.99045">
        <ele>1414</ele>
        <time>2024-10-15T13:13:30.000Z</time>
      </trkpt>
      <trkpt lat="45.07717" lon="5.99046">
        <ele>1414</ele>
        <time>2024-10-15T13:13:31.000Z</time>
      </trkpt>
      <trkpt lat="45.07717" lon="5.99048">
        <ele>1414</ele>
        <time>2024-10-15T13:13:32.000Z</time>
      </trkpt>
      <trkpt lat="45.07717" lon="5.99048">
        <ele>1414</ele>
        <time>2024-10-15T13:13:33.000Z</time>
      </trkpt>
      <trkpt lat="45.07716" lon="5.9905">
        <ele>1414</ele>
        <time>2024-10-15T13:13:34.000Z</time>
      </trkpt>
      <trkpt lat="45.07717" lon="5.99051">
        <ele>1414</ele>
        <time>2024-10-15T13:13:35.000Z</time>
      </trkpt>
      <trkpt lat="45.07717" lon="5.99053">
        <ele>1414</ele>
        <time>2024-10-15T13:13:36.000Z</time>
      </trkpt>
      <trkpt lat="45.07717" lon="5.99054">
        <ele>1414</ele>
        <time>2024-10-15T13:13:37.000Z</time>
      </trkpt>
      <trkpt lat="45.07717" lon="5.99055">
        <ele>1414.1999511719</ele>
        <time>2024-10-15T13:13:38.000Z</time>
      </trkpt>
      <trkpt lat="45.07717" lon="5.99057">
        <ele>1414.1999511719</ele>
        <time>2024-10-15T13:13:39.000Z</time>
      </trkpt>
      <trkpt lat="45.07717" lon="5.99058">
        <ele>1414</ele>
        <time>2024-10-15T13:13:40.000Z</time>
      </trkpt>
      <trkpt lat="45.07717" lon="5.9906">
        <ele>1414</ele>
        <time>2024-10-15T13:13:41.000Z</time>
      </trkpt>
      <trkpt lat="45.07717" lon="5.99061">
        <ele>1413.8000488281</ele>
        <time>2024-10-15T13:13:42.000Z</time>
      </trkpt>
      <trkpt lat="45.07718" lon="5.99063">
        <ele>1413.5999755859</ele>
        <time>2024-10-15T13:13:43.000Z</time>
      </trkpt>
      <trkpt lat="45.07718" lon="5.99064">
        <ele>1413.5999755859</ele>
        <time>2024-10-15T13:13:44.000Z</time>
      </trkpt>
      <trkpt lat="45.07718" lon="5.99065">
        <ele>1413.5999755859</ele>
        <time>2024-10-15T13:13:45.000Z</time>
      </trkpt>
      <trkpt lat="45.07718" lon="5.99067">
        <ele>1413.5999755859</ele>
        <time>2024-10-15T13:13:46.000Z</time>
      </trkpt>
      <trkpt lat="45.07718" lon="5.99068">
        <ele>1413.5999755859</ele>
        <time>2024-10-15T13:13:47.000Z</time>
      </trkpt>
      <trkpt lat="45.07718" lon="5.9907">
        <ele>1413.5999755859</ele>
        <time>2024-10-15T13:13:48.000Z</time>
      </trkpt>
      <trkpt lat="45.07719" lon="5.99071">
        <ele>1413.8000488281</ele>
        <time>2024-10-15T13:13:49.000Z</time>
      </trkpt>
      <trkpt lat="45.07719" lon="5.99073">
        <ele>1414</ele>
        <time>2024-10-15T13:13:50.000Z</time>
      </trkpt>
      <trkpt lat="45.07719" lon="5.99074">
        <ele>1414.1999511719</ele>
        <time>2024-10-15T13:13:51.000Z</time>
      </trkpt>
      <trkpt lat="45.07719" lon="5.99076">
        <ele>1414.5999755859</ele>
        <time>2024-10-15T13:13:52.000Z</time>
      </trkpt>
      <trkpt lat="45.07719" lon="5.99077">
        <ele>1414.8000488281</ele>
        <time>2024-10-15T13:13:53.000Z</time>
      </trkpt>
      <trkpt lat="45.0772" lon="5.99079">
        <ele>1414.8000488281</ele>
        <time>2024-10-15T13:13:54.000Z</time>
      </trkpt>
      <trkpt lat="45.0772" lon="5.99081">
        <ele>1415</ele>
        <time>2024-10-15T13:13:55.000Z</time>
      </trkpt>
      <trkpt lat="45.0772" lon="5.99082">
        <ele>1415</ele>
        <time>2024-10-15T13:13:56.000Z</time>
      </trkpt>
      <trkpt lat="45.0772" lon="5.99083">
        <ele>1415.1999511719</ele>
        <time>2024-10-15T13:13:57.000Z</time>
      </trkpt>
      <trkpt lat="45.0772" lon="5.99085">
        <ele>1415.4000244141</ele>
        <time>2024-10-15T13:13:58.000Z</time>
      </trkpt>
      <trkpt lat="45.0772" lon="5.99086">
        <ele>1415.5999755859</ele>
        <time>2024-10-15T13:13:59.000Z</time>
      </trkpt>
      <trkpt lat="45.0772" lon="5.99087">
        <ele>1415.8000488281</ele>
        <time>2024-10-15T13:14:00.000Z</time>
      </trkpt>
      <trkpt lat="45.0772" lon="5.99089">
        <ele>1416.1999511719</ele>
        <time>2024-10-15T13:14:01.000Z</time>
      </trkpt>
      <trkpt lat="45.0772" lon="5.99089">
        <ele>1416.4000244141</ele>
        <time>2024-10-15T13:14:02.000Z</time>
      </trkpt>
      <trkpt lat="45.0772" lon="5.99091">
        <ele>1416.8000488281</ele>
        <time>2024-10-15T13:14:03.000Z</time>
      </trkpt>
      <trkpt lat="45.07721" lon="5.99092">
        <ele>1416.8000488281</ele>
        <time>2024-10-15T13:14:04.000Z</time>
      </trkpt>
      <trkpt lat="45.0772" lon="5.99093">
        <ele>1417.1999511719</ele>
        <time>2024-10-15T13:14:05.000Z</time>
      </trkpt>
      <trkpt lat="45.0772" lon="5.99095">
        <ele>1417.1999511719</ele>
        <time>2024-10-15T13:14:06.000Z</time>
      </trkpt>
      <trkpt lat="45.0772" lon="5.99096">
        <ele>1417.1999511719</ele>
        <time>2024-10-15T13:14:07.000Z</time>
      </trkpt>
      <trkpt lat="45.0772" lon="5.99098">
        <ele>1417.1999511719</ele>
        <time>2024-10-15T13:14:08.000Z</time>
      </trkpt>
      <trkpt lat="45.0772" lon="5.99099">
        <ele>1417</ele>
        <time>2024-10-15T13:14:09.000Z</time>
      </trkpt>
      <trkpt lat="45.07719" lon="5.99101">
        <ele>1417</ele>
        <time>2024-10-15T13:14:10.000Z</time>
      </trkpt>
      <trkpt lat="45.07719" lon="5.99103">
        <ele>1416.8000488281</ele>
        <time>2024-10-15T13:14:11.000Z</time>
      </trkpt>
      <trkpt lat="45.07719" lon="5.99104">
        <ele>1416.8000488281</ele>
        <time>2024-10-15T13:14:12.000Z</time>
      </trkpt>
      <trkpt lat="45.07719" lon="5.99105">
        <ele>1416.8000488281</ele>
        <time>2024-10-15T13:14:13.000Z</time>
      </trkpt>
      <trkpt lat="45.07719" lon="5.99107">
        <ele>1416.5999755859</ele>
        <time>2024-10-15T13:14:14.000Z</time>
      </trkpt>
      <trkpt lat="45.07719" lon="5.99108">
        <ele>1416.5999755859</ele>
        <time>2024-10-15T13:14:15.000Z</time>
      </trkpt>
      <trkpt lat="45.07719" lon="5.9911">
        <ele>1416.5999755859</ele>
        <time>2024-10-15T13:14:16.000Z</time>
      </trkpt>
      <trkpt lat="45.07719" lon="5.99112">
        <ele>1416.5999755859</ele>
        <time>2024-10-15T13:14:17.000Z</time>
      </trkpt>
      <trkpt lat="45.07718" lon="5.99114">
        <ele>1416.4000244141</ele>
        <time>2024-10-15T13:14:18.000Z</time>
      </trkpt>
      <trkpt lat="45.07718" lon="5.99116">
        <ele>1416.4000244141</ele>
        <time>2024-10-15T13:14:19.000Z</time>
      </trkpt>
      <trkpt lat="45.07718" lon="5.99117">
        <ele>1416.4000244141</ele>
        <time>2024-10-15T13:14:20.000Z</time>
      </trkpt>
      <trkpt lat="45.07719" lon="5.99119">
        <ele>1416.4000244141</ele>
        <time>2024-10-15T13:14:21.000Z</time>
      </trkpt>
      <trkpt lat="45.07719" lon="5.9912">
        <ele>1416.5999755859</ele>
        <time>2024-10-15T13:14:22.000Z</time>
      </trkpt>
      <trkpt lat="45.07719" lon="5.99122">
        <ele>1416.5999755859</ele>
        <time>2024-10-15T13:14:23.000Z</time>
      </trkpt>
      <trkpt lat="45.07719" lon="5.99124">
        <ele>1416.5999755859</ele>
        <time>2024-10-15T13:14:24.000Z</time>
      </trkpt>
      <trkpt lat="45.07719" lon="5.99125">
        <ele>1416.5999755859</ele>
        <time>2024-10-15T13:14:25.000Z</time>
      </trkpt>
      <trkpt lat="45.07719" lon="5.99127">
        <ele>1416.5999755859</ele>
        <time>2024-10-15T13:14:26.000Z</time>
      </trkpt>
      <trkpt lat="45.07719" lon="5.99128">
        <ele>1416.5999755859</ele>
        <time>2024-10-15T13:14:27.000Z</time>
      </trkpt>
      <trkpt lat="45.07719" lon="5.9913">
        <ele>1416.5999755859</ele>
        <time>2024-10-15T13:14:28.000Z</time>
      </trkpt>
      <trkpt lat="45.07719" lon="5.99131">
        <ele>1416.4000244141</ele>
        <time>2024-10-15T13:14:29.000Z</time>
      </trkpt>
      <trkpt lat="45.07719" lon="5.99133">
        <ele>1416.1999511719</ele>
        <time>2024-10-15T13:14:30.000Z</time>
      </trkpt>
      <trkpt lat="45.07718" lon="5.99134">
        <ele>1416.1999511719</ele>
        <time>2024-10-15T13:14:31.000Z</time>
      </trkpt>
      <trkpt lat="45.07718" lon="5.99136">
        <ele>1416.4000244141</ele>
        <time>2024-10-15T13:14:32.000Z</time>
      </trkpt>
      <trkpt lat="45.07718" lon="5.99138">
        <ele>1416.5999755859</ele>
        <time>2024-10-15T13:14:33.000Z</time>
      </trkpt>
      <trkpt lat="45.07718" lon="5.9914">
        <ele>1416.4000244141</ele>
        <time>2024-10-15T13:14:34.000Z</time>
      </trkpt>
      <trkpt lat="45.07718" lon="5.99141">
        <ele>1416.4000244141</ele>
        <time>2024-10-15T13:14:35.000Z</time>
      </trkpt>
      <trkpt lat="45.07718" lon="5.99143">
        <ele>1416.5999755859</ele>
        <time>2024-10-15T13:14:36.000Z</time>
      </trkpt>
      <trkpt lat="45.07718" lon="5.99144">
        <ele>1416.5999755859</ele>
        <time>2024-10-15T13:14:37.000Z</time>
      </trkpt>
      <trkpt lat="45.07718" lon="5.99146">
        <ele>1416.5999755859</ele>
        <time>2024-10-15T13:14:38.000Z</time>
      </trkpt>
      <trkpt lat="45.07718" lon="5.99147">
        <ele>1416.5999755859</ele>
        <time>2024-10-15T13:14:39.000Z</time>
      </trkpt>
      <trkpt lat="45.07718" lon="5.99149">
        <ele>1416.4000244141</ele>
        <time>2024-10-15T13:14:40.000Z</time>
      </trkpt>
      <trkpt lat="45.07718" lon="5.99151">
        <ele>1416.5999755859</ele>
        <time>2024-10-15T13:14:41.000Z</time>
      </trkpt>
      <trkpt lat="45.07718" lon="5.99152">
        <ele>1416.5999755859</ele>
        <time>2024-10-15T13:14:42.000Z</time>
      </trkpt>
      <trkpt lat="45.07718" lon="5.99154">
        <ele>1416.5999755859</ele>
        <time>2024-10-15T13:14:43.000Z</time>
      </trkpt>
      <trkpt lat="45.07718" lon="5.99155">
        <ele>1416.4000244141</ele>
        <time>2024-10-15T13:14:44.000Z</time>
      </trkpt>
      <trkpt lat="45.07718" lon="5.99157">
        <ele>1416.4000244141</ele>
        <time>2024-10-15T13:14:45.000Z</time>
      </trkpt>
      <trkpt lat="45.07718" lon="5.99158">
        <ele>1416.4000244141</ele>
        <time>2024-10-15T13:14:46.000Z</time>
      </trkpt>
      <trkpt lat="45.07718" lon="5.9916">
        <ele>1416.5999755859</ele>
        <time>2024-10-15T13:14:47.000Z</time>
      </trkpt>
      <trkpt lat="45.07718" lon="5.99161">
        <ele>1416.5999755859</ele>
        <time>2024-10-15T13:14:48.000Z</time>
      </trkpt>
      <trkpt lat="45.07718" lon="5.99163">
        <ele>1416.5999755859</ele>
        <time>2024-10-15T13:14:49.000Z</time>
      </trkpt>
      <trkpt lat="45.07718" lon="5.99165">
        <ele>1416.5999755859</ele>
        <time>2024-10-15T13:14:50.000Z</time>
      </trkpt>
      <trkpt lat="45.07718" lon="5.99167">
        <ele>1416.8000488281</ele>
        <time>2024-10-15T13:14:51.000Z</time>
      </trkpt>
      <trkpt lat="45.07718" lon="5.99169">
        <ele>1417</ele>
        <time>2024-10-15T13:14:52.000Z</time>
      </trkpt>
      <trkpt lat="45.07718" lon="5.9917">
        <ele>1417</ele>
        <time>2024-10-15T13:14:53.000Z</time>
      </trkpt>
      <trkpt lat="45.07718" lon="5.99172">
        <ele>1416.8000488281</ele>
        <time>2024-10-15T13:14:54.000Z</time>
      </trkpt>
      <trkpt lat="45.07718" lon="5.99174">
        <ele>1416.8000488281</ele>
        <time>2024-10-15T13:14:55.000Z</time>
      </trkpt>
      <trkpt lat="45.07717" lon="5.99176">
        <ele>1416.5999755859</ele>
        <time>2024-10-15T13:14:56.000Z</time>
      </trkpt>
      <trkpt lat="45.07717" lon="5.99177">
        <ele>1416.5999755859</ele>
        <time>2024-10-15T13:14:57.000Z</time>
      </trkpt>
      <trkpt lat="45.07717" lon="5.99178">
        <ele>1416.5999755859</ele>
        <time>2024-10-15T13:14:58.000Z</time>
      </trkpt>
      <trkpt lat="45.07717" lon="5.9918">
        <ele>1416.5999755859</ele>
        <time>2024-10-15T13:14:59.000Z</time>
      </trkpt>
      <trkpt lat="45.07716" lon="5.99182">
        <ele>1416.5999755859</ele>
        <time>2024-10-15T13:15:00.000Z</time>
      </trkpt>
      <trkpt lat="45.07716" lon="5.99183">
        <ele>1416.8000488281</ele>
        <time>2024-10-15T13:15:01.000Z</time>
      </trkpt>
      <trkpt lat="45.07716" lon="5.99185">
        <ele>1417</ele>
        <time>2024-10-15T13:15:02.000Z</time>
      </trkpt>
      <trkpt lat="45.07715" lon="5.99186">
        <ele>1417.4000244141</ele>
        <time>2024-10-15T13:15:03.000Z</time>
      </trkpt>
      <trkpt lat="45.07715" lon="5.99188">
        <ele>1418.4000244141</ele>
        <time>2024-10-15T13:15:04.000Z</time>
      </trkpt>
      <trkpt lat="45.07715" lon="5.99189">
        <ele>1418.8000488281</ele>
        <time>2024-10-15T13:15:05.000Z</time>
      </trkpt>
      <trkpt lat="45.07716" lon="5.99191">
        <ele>1418.8000488281</ele>
        <time>2024-10-15T13:15:06.000Z</time>
      </trkpt>
      <trkpt lat="45.07716" lon="5.99192">
        <ele>1418.5999755859</ele>
        <time>2024-10-15T13:15:07.000Z</time>
      </trkpt>
      <trkpt lat="45.07716" lon="5.99194">
        <ele>1418</ele>
        <time>2024-10-15T13:15:08.000Z</time>
      </trkpt>
      <trkpt lat="45.07717" lon="5.99195">
        <ele>1416.8000488281</ele>
        <time>2024-10-15T13:15:09.000Z</time>
      </trkpt>
      <trkpt lat="45.07717" lon="5.99197">
        <ele>1415.4000244141</ele>
        <time>2024-10-15T13:15:10.000Z</time>
      </trkpt>
      <trkpt lat="45.07717" lon="5.99198">
        <ele>1413.8000488281</ele>
        <time>2024-10-15T13:15:11.000Z</time>
      </trkpt>
      <trkpt lat="45.07718" lon="5.992">
        <ele>1413.8000488281</ele>
        <time>2024-10-15T13:15:12.000Z</time>
      </trkpt>
      <trkpt lat="45.07718" lon="5.99202">
        <ele>1413.8000488281</ele>
        <time>2024-10-15T13:15:13.000Z</time>
      </trkpt>
      <trkpt lat="45.07718" lon="5.99203">
        <ele>1413.8000488281</ele>
        <time>2024-10-15T13:15:14.000Z</time>
      </trkpt>
      <trkpt lat="45.07719" lon="5.99204">
        <ele>1414</ele>
        <time>2024-10-15T13:15:15.000Z</time>
      </trkpt>
      <trkpt lat="45.07719" lon="5.99206">
        <ele>1414.4000244141</ele>
        <time>2024-10-15T13:15:16.000Z</time>
      </trkpt>
      <trkpt lat="45.07719" lon="5.99208">
        <ele>1414.8000488281</ele>
        <time>2024-10-15T13:15:17.000Z</time>
      </trkpt>
      <trkpt lat="45.0772" lon="5.99209">
        <ele>1414.8000488281</ele>
        <time>2024-10-15T13:15:18.000Z</time>
      </trkpt>
      <trkpt lat="45.0772" lon="5.9921">
        <ele>1415</ele>
        <time>2024-10-15T13:15:19.000Z</time>
      </trkpt>
      <trkpt lat="45.0772" lon="5.99211">
        <ele>1415.1999511719</ele>
        <time>2024-10-15T13:15:20.000Z</time>
      </trkpt>
      <trkpt lat="45.0772" lon="5.99213">
        <ele>1415.1999511719</ele>
        <time>2024-10-15T13:15:21.000Z</time>
      </trkpt>
      <trkpt lat="45.0772" lon="5.99214">
        <ele>1415.1999511719</ele>
        <time>2024-10-15T13:15:22.000Z</time>
      </trkpt>
      <trkpt lat="45.0772" lon="5.99216">
        <ele>1415.1999511719</ele>
        <time>2024-10-15T13:15:23.000Z</time>
      </trkpt>
      <trkpt lat="45.07719" lon="5.99217">
        <ele>1415.1999511719</ele>
        <time>2024-10-15T13:15:24.000Z</time>
      </trkpt>
      <trkpt lat="45.07719" lon="5.99219">
        <ele>1415</ele>
        <time>2024-10-15T13:15:25.000Z</time>
      </trkpt>
      <trkpt lat="45.07719" lon="5.9922">
        <ele>1415</ele>
        <time>2024-10-15T13:15:26.000Z</time>
      </trkpt>
      <trkpt lat="45.07718" lon="5.99222">
        <ele>1415</ele>
        <time>2024-10-15T13:15:27.000Z</time>
      </trkpt>
      <trkpt lat="45.07718" lon="5.99223">
        <ele>1415</ele>
        <time>2024-10-15T13:15:28.000Z</time>
      </trkpt>
      <trkpt lat="45.07718" lon="5.99224">
        <ele>1415</ele>
        <time>2024-10-15T13:15:29.000Z</time>
      </trkpt>
      <trkpt lat="45.07718" lon="5.99226">
        <ele>1415</ele>
        <time>2024-10-15T13:15:30.000Z</time>
      </trkpt>
      <trkpt lat="45.07718" lon="5.99228">
        <ele>1415</ele>
        <time>2024-10-15T13:15:31.000Z</time>
      </trkpt>
      <trkpt lat="45.07719" lon="5.99229">
        <ele>1415</ele>
        <time>2024-10-15T13:15:32.000Z</time>
      </trkpt>
      <trkpt lat="45.07719" lon="5.99231">
        <ele>1414.8000488281</ele>
        <time>2024-10-15T13:15:33.000Z</time>
      </trkpt>
      <trkpt lat="45.07719" lon="5.99232">
        <ele>1414.8000488281</ele>
        <time>2024-10-15T13:15:34.000Z</time>
      </trkpt>
      <trkpt lat="45.07719" lon="5.99234">
        <ele>1414.5999755859</ele>
        <time>2024-10-15T13:15:35.000Z</time>
      </trkpt>
      <trkpt lat="45.07718" lon="5.99236">
        <ele>1414.4000244141</ele>
        <time>2024-10-15T13:15:36.000Z</time>
      </trkpt>
      <trkpt lat="45.07718" lon="5.99238">
        <ele>1414.1999511719</ele>
        <time>2024-10-15T13:15:37.000Z</time>
      </trkpt>
      <trkpt lat="45.07718" lon="5.99239">
        <ele>1414</ele>
        <time>2024-10-15T13:15:38.000Z</time>
      </trkpt>
      <trkpt lat="45.07718" lon="5.99241">
        <ele>1413.5999755859</ele>
        <time>2024-10-15T13:15:39.000Z</time>
      </trkpt>
      <trkpt lat="45.07718" lon="5.99243">
        <ele>1413.4000244141</ele>
        <time>2024-10-15T13:15:40.000Z</time>
      </trkpt>
      <trkpt lat="45.07718" lon="5.99245">
        <ele>1413.1999511719</ele>
        <time>2024-10-15T13:15:41.000Z</time>
      </trkpt>
      <trkpt lat="45.07719" lon="5.99246">
        <ele>1413.1999511719</ele>
        <time>2024-10-15T13:15:42.000Z</time>
      </trkpt>
      <trkpt lat="45.07719" lon="5.99248">
        <ele>1413</ele>
        <time>2024-10-15T13:15:43.000Z</time>
      </trkpt>
      <trkpt lat="45.07719" lon="5.9925">
        <ele>1413</ele>
        <time>2024-10-15T13:15:44.000Z</time>
      </trkpt>
      <trkpt lat="45.07719" lon="5.99251">
        <ele>1412.8000488281</ele>
        <time>2024-10-15T13:15:45.000Z</time>
      </trkpt>
      <trkpt lat="45.0772" lon="5.99253">
        <ele>1412.5999755859</ele>
        <time>2024-10-15T13:15:46.000Z</time>
      </trkpt>
      <trkpt lat="45.0772" lon="5.99255">
        <ele>1412.1999511719</ele>
        <time>2024-10-15T13:15:47.000Z</time>
      </trkpt>
      <trkpt lat="45.0772" lon="5.99256">
        <ele>1412.1999511719</ele>
        <time>2024-10-15T13:15:48.000Z</time>
      </trkpt>
      <trkpt lat="45.0772" lon="5.99257">
        <ele>1412.1999511719</ele>
        <time>2024-10-15T13:15:49.000Z</time>
      </trkpt>
      <trkpt lat="45.07721" lon="5.99259">
        <ele>1412.1999511719</ele>
        <time>2024-10-15T13:15:50.000Z</time>
      </trkpt>
      <trkpt lat="45.07721" lon="5.9926">
        <ele>1412</ele>
        <time>2024-10-15T13:15:51.000Z</time>
      </trkpt>
      <trkpt lat="45.07721" lon="5.99262">
        <ele>1411.8000488281</ele>
        <time>2024-10-15T13:15:52.000Z</time>
      </trkpt>
      <trkpt lat="45.07721" lon="5.99264">
        <ele>1411.8000488281</ele>
        <time>2024-10-15T13:15:53.000Z</time>
      </trkpt>
      <trkpt lat="45.07722" lon="5.99265">
        <ele>1411.8000488281</ele>
        <time>2024-10-15T13:15:54.000Z</time>
      </trkpt>
      <trkpt lat="45.07722" lon="5.99267">
        <ele>1411.8000488281</ele>
        <time>2024-10-15T13:15:55.000Z</time>
      </trkpt>
      <trkpt lat="45.07722" lon="5.99269">
        <ele>1411.8000488281</ele>
        <time>2024-10-15T13:15:56.000Z</time>
      </trkpt>
      <trkpt lat="45.07723" lon="5.99271">
        <ele>1411.8000488281</ele>
        <time>2024-10-15T13:15:57.000Z</time>
      </trkpt>
      <trkpt lat="45.07723" lon="5.99272">
        <ele>1411.5999755859</ele>
        <time>2024-10-15T13:15:58.000Z</time>
      </trkpt>
      <trkpt lat="45.07723" lon="5.99274">
        <ele>1411.5999755859</ele>
        <time>2024-10-15T13:15:59.000Z</time>
      </trkpt>
      <trkpt lat="45.07724" lon="5.99275">
        <ele>1411.5999755859</ele>
        <time>2024-10-15T13:16:00.000Z</time>
      </trkpt>
      <trkpt lat="45.07724" lon="5.99277">
        <ele>1411</ele>
        <time>2024-10-15T13:16:01.000Z</time>
      </trkpt>
      <trkpt lat="45.07724" lon="5.99279">
        <ele>1410.5999755859</ele>
        <time>2024-10-15T13:16:02.000Z</time>
      </trkpt>
      <trkpt lat="45.07725" lon="5.9928">
        <ele>1410.5999755859</ele>
        <time>2024-10-15T13:16:03.000Z</time>
      </trkpt>
      <trkpt lat="45.07725" lon="5.99282">
        <ele>1410.5999755859</ele>
        <time>2024-10-15T13:16:04.000Z</time>
      </trkpt>
      <trkpt lat="45.07725" lon="5.99284">
        <ele>1410.5999755859</ele>
        <time>2024-10-15T13:16:05.000Z</time>
      </trkpt>
      <trkpt lat="45.07725" lon="5.99286">
        <ele>1410.5999755859</ele>
        <time>2024-10-15T13:16:06.000Z</time>
      </trkpt>
      <trkpt lat="45.07725" lon="5.99288">
        <ele>1410.5999755859</ele>
        <time>2024-10-15T13:16:07.000Z</time>
      </trkpt>
      <trkpt lat="45.07725" lon="5.9929">
        <ele>1410.8000488281</ele>
        <time>2024-10-15T13:16:08.000Z</time>
      </trkpt>
      <trkpt lat="45.07725" lon="5.99292">
        <ele>1411</ele>
        <time>2024-10-15T13:16:09.000Z</time>
      </trkpt>
      <trkpt lat="45.07725" lon="5.99293">
        <ele>1411.8000488281</ele>
        <time>2024-10-15T13:16:10.000Z</time>
      </trkpt>
      <trkpt lat="45.07725" lon="5.99295">
        <ele>1412.1999511719</ele>
        <time>2024-10-15T13:16:11.000Z</time>
      </trkpt>
      <trkpt lat="45.07725" lon="5.99296">
        <ele>1412.5999755859</ele>
        <time>2024-10-15T13:16:12.000Z</time>
      </trkpt>
      <trkpt lat="45.07725" lon="5.99298">
        <ele>1413</ele>
        <time>2024-10-15T13:16:13.000Z</time>
      </trkpt>
      <trkpt lat="45.07725" lon="5.993">
        <ele>1413</ele>
        <time>2024-10-15T13:16:14.000Z</time>
      </trkpt>
      <trkpt lat="45.07726" lon="5.99301">
        <ele>1413.4000244141</ele>
        <time>2024-10-15T13:16:15.000Z</time>
      </trkpt>
      <trkpt lat="45.07726" lon="5.99303">
        <ele>1413.8000488281</ele>
        <time>2024-10-15T13:16:16.000Z</time>
      </trkpt>
      <trkpt lat="45.07727" lon="5.99305">
        <ele>1413.8000488281</ele>
        <time>2024-10-15T13:16:17.000Z</time>
      </trkpt>
      <trkpt lat="45.07727" lon="5.99307">
        <ele>1413.8000488281</ele>
        <time>2024-10-15T13:16:18.000Z</time>
      </trkpt>
      <trkpt lat="45.07727" lon="5.99309">
        <ele>1413.8000488281</ele>
        <time>2024-10-15T13:16:19.000Z</time>
      </trkpt>
      <trkpt lat="45.07728" lon="5.9931">
        <ele>1413.5999755859</ele>
        <time>2024-10-15T13:16:20.000Z</time>
      </trkpt>
      <trkpt lat="45.07728" lon="5.99312">
        <ele>1413.5999755859</ele>
        <time>2024-10-15T13:16:21.000Z</time>
      </trkpt>
      <trkpt lat="45.07728" lon="5.99313">
        <ele>1413.5999755859</ele>
        <time>2024-10-15T13:16:22.000Z</time>
      </trkpt>
      <trkpt lat="45.07728" lon="5.99314">
        <ele>1413.4000244141</ele>
        <time>2024-10-15T13:16:23.000Z</time>
      </trkpt>
      <trkpt lat="45.07728" lon="5.99316">
        <ele>1413.4000244141</ele>
        <time>2024-10-15T13:16:24.000Z</time>
      </trkpt>
      <trkpt lat="45.07729" lon="5.99317">
        <ele>1413.4000244141</ele>
        <time>2024-10-15T13:16:25.000Z</time>
      </trkpt>
      <trkpt lat="45.07729" lon="5.99319">
        <ele>1413.4000244141</ele>
        <time>2024-10-15T13:16:26.000Z</time>
      </trkpt>
      <trkpt lat="45.07729" lon="5.9932">
        <ele>1413.5999755859</ele>
        <time>2024-10-15T13:16:27.000Z</time>
      </trkpt>
      <trkpt lat="45.07729" lon="5.99321">
        <ele>1413.5999755859</ele>
        <time>2024-10-15T13:16:28.000Z</time>
      </trkpt>
      <trkpt lat="45.0773" lon="5.99323">
        <ele>1413.5999755859</ele>
        <time>2024-10-15T13:16:29.000Z</time>
      </trkpt>
      <trkpt lat="45.0773" lon="5.99325">
        <ele>1413.8000488281</ele>
        <time>2024-10-15T13:16:30.000Z</time>
      </trkpt>
      <trkpt lat="45.0773" lon="5.99326">
        <ele>1413.8000488281</ele>
        <time>2024-10-15T13:16:31.000Z</time>
      </trkpt>
      <trkpt lat="45.0773" lon="5.99327">
        <ele>1413.8000488281</ele>
        <time>2024-10-15T13:16:32.000Z</time>
      </trkpt>
      <trkpt lat="45.07731" lon="5.99329">
        <ele>1413.8000488281</ele>
        <time>2024-10-15T13:16:33.000Z</time>
      </trkpt>
      <trkpt lat="45.07731" lon="5.9933">
        <ele>1413.8000488281</ele>
        <time>2024-10-15T13:16:34.000Z</time>
      </trkpt>
      <trkpt lat="45.07731" lon="5.99332">
        <ele>1414.1999511719</ele>
        <time>2024-10-15T13:16:35.000Z</time>
      </trkpt>
      <trkpt lat="45.07731" lon="5.99333">
        <ele>1414.4000244141</ele>
        <time>2024-10-15T13:16:36.000Z</time>
      </trkpt>
      <trkpt lat="45.07731" lon="5.99334">
        <ele>1414.8000488281</ele>
        <time>2024-10-15T13:16:37.000Z</time>
      </trkpt>
      <trkpt lat="45.07731" lon="5.99335">
        <ele>1415.8000488281</ele>
        <time>2024-10-15T13:16:38.000Z</time>
      </trkpt>
      <trkpt lat="45.07731" lon="5.99336">
        <ele>1416.4000244141</ele>
        <time>2024-10-15T13:16:39.000Z</time>
      </trkpt>
      <trkpt lat="45.07731" lon="5.99337">
        <ele>1417</ele>
        <time>2024-10-15T13:16:40.000Z</time>
      </trkpt>
      <trkpt lat="45.07731" lon="5.99337">
        <ele>1417.5999755859</ele>
        <time>2024-10-15T13:16:41.000Z</time>
      </trkpt>
      <trkpt lat="45.07731" lon="5.99338">
        <ele>1417.5999755859</ele>
        <time>2024-10-15T13:16:42.000Z</time>
      </trkpt>
      <trkpt lat="45.07731" lon="5.99338">
        <ele>1418.1999511719</ele>
        <time>2024-10-15T13:16:43.000Z</time>
      </trkpt>
      <trkpt lat="45.07731" lon="5.99339">
        <ele>1418.1999511719</ele>
        <time>2024-10-15T13:16:44.000Z</time>
      </trkpt>
      <trkpt lat="45.07731" lon="5.99339">
        <ele>1418.1999511719</ele>
        <time>2024-10-15T13:16:45.000Z</time>
      </trkpt>
      <trkpt lat="45.07731" lon="5.99339">
        <ele>1418.1999511719</ele>
        <time>2024-10-15T13:16:46.000Z</time>
      </trkpt>
      <trkpt lat="45.07731" lon="5.99339">
        <ele>1418</ele>
        <time>2024-10-15T13:16:47.000Z</time>
      </trkpt>
      <trkpt lat="45.07731" lon="5.99339">
        <ele>1418</ele>
        <time>2024-10-15T13:16:48.000Z</time>
      </trkpt>
      <trkpt lat="45.07731" lon="5.99339">
        <ele>1418</ele>
        <time>2024-10-15T13:16:49.000Z</time>
      </trkpt>
      <trkpt lat="45.07731" lon="5.99339">
        <ele>1417.5999755859</ele>
        <time>2024-10-15T13:16:50.000Z</time>
      </trkpt>
      <trkpt lat="45.07731" lon="5.99339">
        <ele>1417.5999755859</ele>
        <time>2024-10-15T13:16:51.000Z</time>
      </trkpt>
      <trkpt lat="45.07731" lon="5.99339">
        <ele>1417.5999755859</ele>
        <time>2024-10-15T13:16:52.000Z</time>
      </trkpt>
      <trkpt lat="45.07731" lon="5.99339">
        <ele>1418</ele>
        <time>2024-10-15T13:16:53.000Z</time>
      </trkpt>
      <trkpt lat="45.07731" lon="5.99339">
        <ele>1418.1999511719</ele>
        <time>2024-10-15T13:16:54.000Z</time>
      </trkpt>
      <trkpt lat="45.07731" lon="5.99339">
        <ele>1418</ele>
        <time>2024-10-15T13:16:55.000Z</time>
      </trkpt>
      <trkpt lat="45.07731" lon="5.99339">
        <ele>1418</ele>
        <time>2024-10-15T13:16:56.000Z</time>
      </trkpt>
      <trkpt lat="45.07731" lon="5.99339">
        <ele>1417.8000488281</ele>
        <time>2024-10-15T13:16:57.000Z</time>
      </trkpt>
      <trkpt lat="45.07731" lon="5.99339">
        <ele>1417.8000488281</ele>
        <time>2024-10-15T13:16:58.000Z</time>
      </trkpt>
      <trkpt lat="45.07731" lon="5.99339">
        <ele>1417.8000488281</ele>
        <time>2024-10-15T13:16:59.000Z</time>
      </trkpt>
      <trkpt lat="45.07731" lon="5.99339">
        <ele>1417.5999755859</ele>
        <time>2024-10-15T13:17:00.000Z</time>
      </trkpt>
      <trkpt lat="45.07731" lon="5.99339">
        <ele>1417.5999755859</ele>
        <time>2024-10-15T13:17:01.000Z</time>
      </trkpt>
      <trkpt lat="45.07731" lon="5.99339">
        <ele>1417.5999755859</ele>
        <time>2024-10-15T13:17:02.000Z</time>
      </trkpt>
      <trkpt lat="45.07731" lon="5.99339">
        <ele>1417.5999755859</ele>
        <time>2024-10-15T13:17:03.000Z</time>
      </trkpt>
      <trkpt lat="45.07731" lon="5.99339">
        <ele>1417.8000488281</ele>
        <time>2024-10-15T13:17:04.000Z</time>
      </trkpt>
      <trkpt lat="45.07731" lon="5.99339">
        <ele>1418</ele>
        <time>2024-10-15T13:17:05.000Z</time>
      </trkpt>
      <trkpt lat="45.07731" lon="5.99339">
        <ele>1418</ele>
        <time>2024-10-15T13:17:06.000Z</time>
      </trkpt>
      <trkpt lat="45.07731" lon="5.99339">
        <ele>1418</ele>
        <time>2024-10-15T13:17:07.000Z</time>
      </trkpt>
      <trkpt lat="45.07731" lon="5.99339">
        <ele>1418.1999511719</ele>
        <time>2024-10-15T13:17:08.000Z</time>
      </trkpt>
      <trkpt lat="45.07731" lon="5.99339">
        <ele>1418.1999511719</ele>
        <time>2024-10-15T13:17:09.000Z</time>
      </trkpt>
      <trkpt lat="45.07731" lon="5.99339">
        <ele>1418.1999511719</ele>
        <time>2024-10-15T13:17:10.000Z</time>
      </trkpt>
      <trkpt lat="45.07731" lon="5.99339">
        <ele>1418.4000244141</ele>
        <time>2024-10-15T13:17:11.000Z</time>
      </trkpt>
      <trkpt lat="45.07731" lon="5.99339">
        <ele>1418.4000244141</ele>
        <time>2024-10-15T13:17:12.000Z</time>
      </trkpt>
      <trkpt lat="45.07731" lon="5.99339">
        <ele>1418.1999511719</ele>
        <time>2024-10-15T13:17:13.000Z</time>
      </trkpt>
      <trkpt lat="45.07731" lon="5.99339">
        <ele>1418</ele>
        <time>2024-10-15T13:17:14.000Z</time>
      </trkpt>
      <trkpt lat="45.07731" lon="5.99339">
        <ele>1418</ele>
        <time>2024-10-15T13:17:15.000Z</time>
      </trkpt>
      <trkpt lat="45.07731" lon="5.99339">
        <ele>1417.5999755859</ele>
        <time>2024-10-15T13:17:16.000Z</time>
      </trkpt>
      <trkpt lat="45.07731" lon="5.99339">
        <ele>1417.4000244141</ele>
        <time>2024-10-15T13:17:17.000Z</time>
      </trkpt>
      <trkpt lat="45.07732" lon="5.9934">
        <ele>1417.1999511719</ele>
        <time>2024-10-15T13:17:18.000Z</time>
      </trkpt>
      <trkpt lat="45.07732" lon="5.99341">
        <ele>1416.8000488281</ele>
        <time>2024-10-15T13:17:19.000Z</time>
      </trkpt>
      <trkpt lat="45.07733" lon="5.99342">
        <ele>1416.4000244141</ele>
        <time>2024-10-15T13:17:20.000Z</time>
      </trkpt>
      <trkpt lat="45.07734" lon="5.99343">
        <ele>1416</ele>
        <time>2024-10-15T13:17:21.000Z</time>
      </trkpt>
      <trkpt lat="45.07734" lon="5.99344">
        <ele>1415.8000488281</ele>
        <time>2024-10-15T13:17:22.000Z</time>
      </trkpt>
      <trkpt lat="45.07735" lon="5.99345">
        <ele>1415.4000244141</ele>
        <time>2024-10-15T13:17:23.000Z</time>
      </trkpt>
      <trkpt lat="45.07737" lon="5.99346">
        <ele>1415.4000244141</ele>
        <time>2024-10-15T13:17:24.000Z</time>
      </trkpt>
      <trkpt lat="45.07738" lon="5.99346">
        <ele>1415</ele>
        <time>2024-10-15T13:17:25.000Z</time>
      </trkpt>
      <trkpt lat="45.07739" lon="5.99347">
        <ele>1414.4000244141</ele>
        <time>2024-10-15T13:17:26.000Z</time>
      </trkpt>
      <trkpt lat="45.0774" lon="5.99348">
        <ele>1414</ele>
        <time>2024-10-15T13:17:27.000Z</time>
      </trkpt>
      <trkpt lat="45.0774" lon="5.99348">
        <ele>1413.5999755859</ele>
        <time>2024-10-15T13:17:28.000Z</time>
      </trkpt>
      <trkpt lat="45.07741" lon="5.99348">
        <ele>1413.4000244141</ele>
        <time>2024-10-15T13:17:29.000Z</time>
      </trkpt>
      <trkpt lat="45.07742" lon="5.99348">
        <ele>1413</ele>
        <time>2024-10-15T13:17:30.000Z</time>
      </trkpt>
      <trkpt lat="45.07742" lon="5.99349">
        <ele>1412.5999755859</ele>
        <time>2024-10-15T13:17:31.000Z</time>
      </trkpt>
      <trkpt lat="45.07742" lon="5.99349">
        <ele>1412.4000244141</ele>
        <time>2024-10-15T13:17:32.000Z</time>
      </trkpt>
      <trkpt lat="45.07741" lon="5.99348">
        <ele>1412.4000244141</ele>
        <time>2024-10-15T13:17:33.000Z</time>
      </trkpt>
      <trkpt lat="45.07742" lon="5.99346">
        <ele>1412.4000244141</ele>
        <time>2024-10-15T13:17:34.000Z</time>
      </trkpt>
      <trkpt lat="45.07742" lon="5.99345">
        <ele>1412.1999511719</ele>
        <time>2024-10-15T13:17:35.000Z</time>
      </trkpt>
      <trkpt lat="45.07743" lon="5.99344">
        <ele>1412.1999511719</ele>
        <time>2024-10-15T13:17:36.000Z</time>
      </trkpt>
      <trkpt lat="45.07743" lon="5.99342">
        <ele>1411.8000488281</ele>
        <time>2024-10-15T13:17:37.000Z</time>
      </trkpt>
      <trkpt lat="45.07744" lon="5.99341">
        <ele>1411.4000244141</ele>
        <time>2024-10-15T13:17:38.000Z</time>
      </trkpt>
      <trkpt lat="45.07744" lon="5.9934">
        <ele>1411.1999511719</ele>
        <time>2024-10-15T13:17:39.000Z</time>
      </trkpt>
      <trkpt lat="45.07745" lon="5.99338">
        <ele>1411.1999511719</ele>
        <time>2024-10-15T13:17:40.000Z</time>
      </trkpt>
      <trkpt lat="45.07746" lon="5.99337">
        <ele>1411</ele>
        <time>2024-10-15T13:17:41.000Z</time>
      </trkpt>
      <trkpt lat="45.07747" lon="5.99335">
        <ele>1410.8000488281</ele>
        <time>2024-10-15T13:17:42.000Z</time>
      </trkpt>
      <trkpt lat="45.07747" lon="5.99334">
        <ele>1410.5999755859</ele>
        <time>2024-10-15T13:17:43.000Z</time>
      </trkpt>
      <trkpt lat="45.07748" lon="5.99332">
        <ele>1410.4000244141</ele>
        <time>2024-10-15T13:17:44.000Z</time>
      </trkpt>
      <trkpt lat="45.07748" lon="5.99331">
        <ele>1410.1999511719</ele>
        <time>2024-10-15T13:17:45.000Z</time>
      </trkpt>
      <trkpt lat="45.07749" lon="5.99329">
        <ele>1409.8000488281</ele>
        <time>2024-10-15T13:17:46.000Z</time>
      </trkpt>
      <trkpt lat="45.07749" lon="5.99329">
        <ele>1409.5999755859</ele>
        <time>2024-10-15T13:17:47.000Z</time>
      </trkpt>
      <trkpt lat="45.0775" lon="5.99328">
        <ele>1409.1999511719</ele>
        <time>2024-10-15T13:17:48.000Z</time>
      </trkpt>
      <trkpt lat="45.0775" lon="5.99326">
        <ele>1408.8000488281</ele>
        <time>2024-10-15T13:17:49.000Z</time>
      </trkpt>
      <trkpt lat="45.0775" lon="5.99326">
        <ele>1408.8000488281</ele>
        <time>2024-10-15T13:17:50.000Z</time>
      </trkpt>
      <trkpt lat="45.07751" lon="5.99326">
        <ele>1408.8000488281</ele>
        <time>2024-10-15T13:17:51.000Z</time>
      </trkpt>
      <trkpt lat="45.07752" lon="5.99325">
        <ele>1408.8000488281</ele>
        <time>2024-10-15T13:17:52.000Z</time>
      </trkpt>
      <trkpt lat="45.07755" lon="5.99322">
        <ele>1408.8000488281</ele>
        <time>2024-10-15T13:17:53.000Z</time>
      </trkpt>
      <trkpt lat="45.07757" lon="5.9932">
        <ele>1408.8000488281</ele>
        <time>2024-10-15T13:17:54.000Z</time>
      </trkpt>
      <trkpt lat="45.07758" lon="5.99318">
        <ele>1408.8000488281</ele>
        <time>2024-10-15T13:17:55.000Z</time>
      </trkpt>
      <trkpt lat="45.0776" lon="5.99316">
        <ele>1408.8000488281</ele>
        <time>2024-10-15T13:17:56.000Z</time>
      </trkpt>
      <trkpt lat="45.07761" lon="5.99315">
        <ele>1409</ele>
        <time>2024-10-15T13:17:57.000Z</time>
      </trkpt>
      <trkpt lat="45.07762" lon="5.99314">
        <ele>1409</ele>
        <time>2024-10-15T13:17:58.000Z</time>
      </trkpt>
      <trkpt lat="45.07763" lon="5.99313">
        <ele>1409</ele>
        <time>2024-10-15T13:17:59.000Z</time>
      </trkpt>
      <trkpt lat="45.07763" lon="5.99312">
        <ele>1409</ele>
        <time>2024-10-15T13:18:00.000Z</time>
      </trkpt>
      <trkpt lat="45.07764" lon="5.99311">
        <ele>1409</ele>
        <time>2024-10-15T13:18:01.000Z</time>
      </trkpt>
      <trkpt lat="45.07765" lon="5.99311">
        <ele>1409</ele>
        <time>2024-10-15T13:18:02.000Z</time>
      </trkpt>
      <trkpt lat="45.07766" lon="5.9931">
        <ele>1408.8000488281</ele>
        <time>2024-10-15T13:18:03.000Z</time>
      </trkpt>
      <trkpt lat="45.07766" lon="5.99309">
        <ele>1408.5999755859</ele>
        <time>2024-10-15T13:18:04.000Z</time>
      </trkpt>
      <trkpt lat="45.07767" lon="5.99309">
        <ele>1408.1999511719</ele>
        <time>2024-10-15T13:18:05.000Z</time>
      </trkpt>
      <trkpt lat="45.07769" lon="5.99308">
        <ele>1407.5999755859</ele>
        <time>2024-10-15T13:18:06.000Z</time>
      </trkpt>
      <trkpt lat="45.0777" lon="5.99307">
        <ele>1407.1999511719</ele>
        <time>2024-10-15T13:18:07.000Z</time>
      </trkpt>
      <trkpt lat="45.0777" lon="5.99306">
        <ele>1406.5999755859</ele>
        <time>2024-10-15T13:18:08.000Z</time>
      </trkpt>
      <trkpt lat="45.07771" lon="5.99305">
        <ele>1406</ele>
        <time>2024-10-15T13:18:09.000Z</time>
      </trkpt>
      <trkpt lat="45.07772" lon="5.99305">
        <ele>1405.8000488281</ele>
        <time>2024-10-15T13:18:10.000Z</time>
      </trkpt>
      <trkpt lat="45.07774" lon="5.99304">
        <ele>1405.1999511719</ele>
        <time>2024-10-15T13:18:11.000Z</time>
      </trkpt>
      <trkpt lat="45.07775" lon="5.99304">
        <ele>1404.8000488281</ele>
        <time>2024-10-15T13:18:12.000Z</time>
      </trkpt>
      <trkpt lat="45.07776" lon="5.99304">
        <ele>1404.4000244141</ele>
        <time>2024-10-15T13:18:13.000Z</time>
      </trkpt>
      <trkpt lat="45.07777" lon="5.99303">
        <ele>1404</ele>
        <time>2024-10-15T13:18:14.000Z</time>
      </trkpt>
      <trkpt lat="45.07777" lon="5.99302">
        <ele>1403.5999755859</ele>
        <time>2024-10-15T13:18:15.000Z</time>
      </trkpt>
      <trkpt lat="45.07778" lon="5.99301">
        <ele>1403.4000244141</ele>
        <time>2024-10-15T13:18:16.000Z</time>
      </trkpt>
      <trkpt lat="45.07779" lon="5.993">
        <ele>1403.4000244141</ele>
        <time>2024-10-15T13:18:17.000Z</time>
      </trkpt>
      <trkpt lat="45.0778" lon="5.99299">
        <ele>1403.1999511719</ele>
        <time>2024-10-15T13:18:18.000Z</time>
      </trkpt>
      <trkpt lat="45.07781" lon="5.99297">
        <ele>1403</ele>
        <time>2024-10-15T13:18:19.000Z</time>
      </trkpt>
      <trkpt lat="45.07782" lon="5.99296">
        <ele>1403</ele>
        <time>2024-10-15T13:18:20.000Z</time>
      </trkpt>
      <trkpt lat="45.07783" lon="5.99295">
        <ele>1402.8000488281</ele>
        <time>2024-10-15T13:18:21.000Z</time>
      </trkpt>
      <trkpt lat="45.07784" lon="5.99294">
        <ele>1402.5999755859</ele>
        <time>2024-10-15T13:18:22.000Z</time>
      </trkpt>
      <trkpt lat="45.07785" lon="5.99293">
        <ele>1402.4000244141</ele>
        <time>2024-10-15T13:18:23.000Z</time>
      </trkpt>
      <trkpt lat="45.07786" lon="5.99292">
        <ele>1402.4000244141</ele>
        <time>2024-10-15T13:18:24.000Z</time>
      </trkpt>
      <trkpt lat="45.07787" lon="5.99291">
        <ele>1402</ele>
        <time>2024-10-15T13:18:25.000Z</time>
      </trkpt>
      <trkpt lat="45.07789" lon="5.99289">
        <ele>1402</ele>
        <time>2024-10-15T13:18:26.000Z</time>
      </trkpt>
      <trkpt lat="45.0779" lon="5.99288">
        <ele>1401.8000488281</ele>
        <time>2024-10-15T13:18:27.000Z</time>
      </trkpt>
      <trkpt lat="45.07789" lon="5.99288">
        <ele>1401.5999755859</ele>
        <time>2024-10-15T13:18:28.000Z</time>
      </trkpt>
      <trkpt lat="45.07791" lon="5.99286">
        <ele>1401.4000244141</ele>
        <time>2024-10-15T13:18:29.000Z</time>
      </trkpt>
      <trkpt lat="45.07791" lon="5.99284">
        <ele>1401</ele>
        <time>2024-10-15T13:18:30.000Z</time>
      </trkpt>
      <trkpt lat="45.07792" lon="5.99283">
        <ele>1401</ele>
        <time>2024-10-15T13:18:31.000Z</time>
      </trkpt>
      <trkpt lat="45.07793" lon="5.99281">
        <ele>1400.8000488281</ele>
        <time>2024-10-15T13:18:32.000Z</time>
      </trkpt>
      <trkpt lat="45.07794" lon="5.9928">
        <ele>1400.4000244141</ele>
        <time>2024-10-15T13:18:33.000Z</time>
      </trkpt>
      <trkpt lat="45.07795" lon="5.99279">
        <ele>1400.1999511719</ele>
        <time>2024-10-15T13:18:34.000Z</time>
      </trkpt>
      <trkpt lat="45.07796" lon="5.99278">
        <ele>1400</ele>
        <time>2024-10-15T13:18:35.000Z</time>
      </trkpt>
      <trkpt lat="45.07797" lon="5.99278">
        <ele>1399.8000488281</ele>
        <time>2024-10-15T13:18:36.000Z</time>
      </trkpt>
      <trkpt lat="45.07798" lon="5.99277">
        <ele>1399.5999755859</ele>
        <time>2024-10-15T13:18:37.000Z</time>
      </trkpt>
      <trkpt lat="45.07799" lon="5.99276">
        <ele>1399.1999511719</ele>
        <time>2024-10-15T13:18:38.000Z</time>
      </trkpt>
      <trkpt lat="45.078" lon="5.99275">
        <ele>1399</ele>
        <time>2024-10-15T13:18:39.000Z</time>
      </trkpt>
      <trkpt lat="45.07801" lon="5.99274">
        <ele>1398.8000488281</ele>
        <time>2024-10-15T13:18:40.000Z</time>
      </trkpt>
      <trkpt lat="45.07802" lon="5.99273">
        <ele>1398.8000488281</ele>
        <time>2024-10-15T13:18:41.000Z</time>
      </trkpt>
      <trkpt lat="45.07803" lon="5.99272">
        <ele>1398.5999755859</ele>
        <time>2024-10-15T13:18:42.000Z</time>
      </trkpt>
      <trkpt lat="45.07805" lon="5.99271">
        <ele>1398.4000244141</ele>
        <time>2024-10-15T13:18:43.000Z</time>
      </trkpt>
      <trkpt lat="45.07806" lon="5.99269">
        <ele>1398.4000244141</ele>
        <time>2024-10-15T13:18:44.000Z</time>
      </trkpt>
      <trkpt lat="45.07808" lon="5.99268">
        <ele>1398.4000244141</ele>
        <time>2024-10-15T13:18:45.000Z</time>
      </trkpt>
      <trkpt lat="45.07809" lon="5.99267">
        <ele>1398.4000244141</ele>
        <time>2024-10-15T13:18:46.000Z</time>
      </trkpt>
      <trkpt lat="45.07811" lon="5.99267">
        <ele>1398.1999511719</ele>
        <time>2024-10-15T13:18:47.000Z</time>
      </trkpt>
      <trkpt lat="45.07812" lon="5.99266">
        <ele>1398.1999511719</ele>
        <time>2024-10-15T13:18:48.000Z</time>
      </trkpt>
      <trkpt lat="45.07814" lon="5.99265">
        <ele>1398.1999511719</ele>
        <time>2024-10-15T13:18:49.000Z</time>
      </trkpt>
      <trkpt lat="45.07815" lon="5.99264">
        <ele>1398.1999511719</ele>
        <time>2024-10-15T13:18:50.000Z</time>
      </trkpt>
      <trkpt lat="45.07815" lon="5.99262">
        <ele>1398.1999511719</ele>
        <time>2024-10-15T13:18:51.000Z</time>
      </trkpt>
      <trkpt lat="45.07816" lon="5.99261">
        <ele>1398.1999511719</ele>
        <time>2024-10-15T13:18:52.000Z</time>
      </trkpt>
      <trkpt lat="45.07817" lon="5.9926">
        <ele>1398.1999511719</ele>
        <time>2024-10-15T13:18:53.000Z</time>
      </trkpt>
      <trkpt lat="45.07818" lon="5.9926">
        <ele>1398</ele>
        <time>2024-10-15T13:18:54.000Z</time>
      </trkpt>
      <trkpt lat="45.0782" lon="5.99261">
        <ele>1397.8000488281</ele>
        <time>2024-10-15T13:18:55.000Z</time>
      </trkpt>
      <trkpt lat="45.07822" lon="5.99262">
        <ele>1397.5999755859</ele>
        <time>2024-10-15T13:18:56.000Z</time>
      </trkpt>
      <trkpt lat="45.07823" lon="5.99261">
        <ele>1397.1999511719</ele>
        <time>2024-10-15T13:18:57.000Z</time>
      </trkpt>
      <trkpt lat="45.07825" lon="5.99261">
        <ele>1396.8000488281</ele>
        <time>2024-10-15T13:18:58.000Z</time>
      </trkpt>
      <trkpt lat="45.07826" lon="5.99259">
        <ele>1396.4000244141</ele>
        <time>2024-10-15T13:18:59.000Z</time>
      </trkpt>
      <trkpt lat="45.07828" lon="5.99257">
        <ele>1396.4000244141</ele>
        <time>2024-10-15T13:19:00.000Z</time>
      </trkpt>
      <trkpt lat="45.07829" lon="5.99256">
        <ele>1395.8000488281</ele>
        <time>2024-10-15T13:19:01.000Z</time>
      </trkpt>
      <trkpt lat="45.07831" lon="5.99255">
        <ele>1395.5999755859</ele>
        <time>2024-10-15T13:19:02.000Z</time>
      </trkpt>
      <trkpt lat="45.07832" lon="5.99255">
        <ele>1395.4000244141</ele>
        <time>2024-10-15T13:19:03.000Z</time>
      </trkpt>
      <trkpt lat="45.07833" lon="5.99256">
        <ele>1395</ele>
        <time>2024-10-15T13:19:04.000Z</time>
      </trkpt>
      <trkpt lat="45.07834" lon="5.99257">
        <ele>1394.5999755859</ele>
        <time>2024-10-15T13:19:05.000Z</time>
      </trkpt>
      <trkpt lat="45.07835" lon="5.99258">
        <ele>1394</ele>
        <time>2024-10-15T13:19:06.000Z</time>
      </trkpt>
      <trkpt lat="45.07836" lon="5.99258">
        <ele>1393.5999755859</ele>
        <time>2024-10-15T13:19:07.000Z</time>
      </trkpt>
      <trkpt lat="45.07837" lon="5.99257">
        <ele>1393</ele>
        <time>2024-10-15T13:19:08.000Z</time>
      </trkpt>
      <trkpt lat="45.07838" lon="5.99257">
        <ele>1392.8000488281</ele>
        <time>2024-10-15T13:19:09.000Z</time>
      </trkpt>
      <trkpt lat="45.07839" lon="5.99257">
        <ele>1392.4000244141</ele>
        <time>2024-10-15T13:19:10.000Z</time>
      </trkpt>
      <trkpt lat="45.07841" lon="5.99256">
        <ele>1392</ele>
        <time>2024-10-15T13:19:11.000Z</time>
      </trkpt>
      <trkpt lat="45.07842" lon="5.99255">
        <ele>1391.8000488281</ele>
        <time>2024-10-15T13:19:12.000Z</time>
      </trkpt>
      <trkpt lat="45.07843" lon="5.99254">
        <ele>1391.5999755859</ele>
        <time>2024-10-15T13:19:13.000Z</time>
      </trkpt>
      <trkpt lat="45.07844" lon="5.99254">
        <ele>1391.1999511719</ele>
        <time>2024-10-15T13:19:14.000Z</time>
      </trkpt>
      <trkpt lat="45.07844" lon="5.99253">
        <ele>1391</ele>
        <time>2024-10-15T13:19:15.000Z</time>
      </trkpt>
      <trkpt lat="45.07846" lon="5.99253">
        <ele>1390.5999755859</ele>
        <time>2024-10-15T13:19:16.000Z</time>
      </trkpt>
      <trkpt lat="45.07847" lon="5.99254">
        <ele>1390.4000244141</ele>
        <time>2024-10-15T13:19:17.000Z</time>
      </trkpt>
      <trkpt lat="45.07849" lon="5.99255">
        <ele>1390</ele>
        <time>2024-10-15T13:19:18.000Z</time>
      </trkpt>
      <trkpt lat="45.0785" lon="5.99254">
        <ele>1389.5999755859</ele>
        <time>2024-10-15T13:19:19.000Z</time>
      </trkpt>
      <trkpt lat="45.07852" lon="5.99253">
        <ele>1389.1999511719</ele>
        <time>2024-10-15T13:19:20.000Z</time>
      </trkpt>
      <trkpt lat="45.07853" lon="5.99253">
        <ele>1388.8000488281</ele>
        <time>2024-10-15T13:19:21.000Z</time>
      </trkpt>
      <trkpt lat="45.07854" lon="5.99253">
        <ele>1388.4000244141</ele>
        <time>2024-10-15T13:19:22.000Z</time>
      </trkpt>
      <trkpt lat="45.07854" lon="5.99252">
        <ele>1388</ele>
        <time>2024-10-15T13:19:23.000Z</time>
      </trkpt>
      <trkpt lat="45.07854" lon="5.99253">
        <ele>1387.4000244141</ele>
        <time>2024-10-15T13:19:24.000Z</time>
      </trkpt>
      <trkpt lat="45.07855" lon="5.99252">
        <ele>1387</ele>
        <time>2024-10-15T13:19:25.000Z</time>
      </trkpt>
      <trkpt lat="45.07856" lon="5.99253">
        <ele>1386.8000488281</ele>
        <time>2024-10-15T13:19:26.000Z</time>
      </trkpt>
      <trkpt lat="45.07856" lon="5.99253">
        <ele>1386.1999511719</ele>
        <time>2024-10-15T13:19:27.000Z</time>
      </trkpt>
      <trkpt lat="45.07856" lon="5.99252">
        <ele>1385.8000488281</ele>
        <time>2024-10-15T13:19:28.000Z</time>
      </trkpt>
      <trkpt lat="45.07857" lon="5.99252">
        <ele>1385.4000244141</ele>
        <time>2024-10-15T13:19:29.000Z</time>
      </trkpt>
      <trkpt lat="45.07857" lon="5.99252">
        <ele>1385</ele>
        <time>2024-10-15T13:19:30.000Z</time>
      </trkpt>
      <trkpt lat="45.07858" lon="5.99252">
        <ele>1384.5999755859</ele>
        <time>2024-10-15T13:19:31.000Z</time>
      </trkpt>
      <trkpt lat="45.0786" lon="5.99253">
        <ele>1384.1999511719</ele>
        <time>2024-10-15T13:19:32.000Z</time>
      </trkpt>
      <trkpt lat="45.07861" lon="5.99252">
        <ele>1383.8000488281</ele>
        <time>2024-10-15T13:19:33.000Z</time>
      </trkpt>
      <trkpt lat="45.07863" lon="5.99251">
        <ele>1383.4000244141</ele>
        <time>2024-10-15T13:19:34.000Z</time>
      </trkpt>
      <trkpt lat="45.07866" lon="5.99251">
        <ele>1383</ele>
        <time>2024-10-15T13:19:35.000Z</time>
      </trkpt>
      <trkpt lat="45.07868" lon="5.9925">
        <ele>1382.5999755859</ele>
        <time>2024-10-15T13:19:36.000Z</time>
      </trkpt>
      <trkpt lat="45.0787" lon="5.99251">
        <ele>1382.4000244141</ele>
        <time>2024-10-15T13:19:37.000Z</time>
      </trkpt>
      <trkpt lat="45.07872" lon="5.9925">
        <ele>1382</ele>
        <time>2024-10-15T13:19:38.000Z</time>
      </trkpt>
      <trkpt lat="45.07873" lon="5.99249">
        <ele>1381.5999755859</ele>
        <time>2024-10-15T13:19:39.000Z</time>
      </trkpt>
      <trkpt lat="45.07873" lon="5.99249">
        <ele>1381.4000244141</ele>
        <time>2024-10-15T13:19:40.000Z</time>
      </trkpt>
      <trkpt lat="45.07874" lon="5.99249">
        <ele>1381</ele>
        <time>2024-10-15T13:19:41.000Z</time>
      </trkpt>
      <trkpt lat="45.07874" lon="5.99249">
        <ele>1380.4000244141</ele>
        <time>2024-10-15T13:19:42.000Z</time>
      </trkpt>
      <trkpt lat="45.07875" lon="5.99249">
        <ele>1379.8000488281</ele>
        <time>2024-10-15T13:19:43.000Z</time>
      </trkpt>
      <trkpt lat="45.07875" lon="5.99249">
        <ele>1379.4000244141</ele>
        <time>2024-10-15T13:19:44.000Z</time>
      </trkpt>
      <trkpt lat="45.07876" lon="5.99249">
        <ele>1379</ele>
        <time>2024-10-15T13:19:45.000Z</time>
      </trkpt>
      <trkpt lat="45.07877" lon="5.99249">
        <ele>1378.8000488281</ele>
        <time>2024-10-15T13:19:46.000Z</time>
      </trkpt>
      <trkpt lat="45.07879" lon="5.99249">
        <ele>1378.4000244141</ele>
        <time>2024-10-15T13:19:47.000Z</time>
      </trkpt>
      <trkpt lat="45.0788" lon="5.99249">
        <ele>1378</ele>
        <time>2024-10-15T13:19:48.000Z</time>
      </trkpt>
      <trkpt lat="45.0788" lon="5.99251">
        <ele>1377.8000488281</ele>
        <time>2024-10-15T13:19:49.000Z</time>
      </trkpt>
      <trkpt lat="45.0788" lon="5.99252">
        <ele>1377.4000244141</ele>
        <time>2024-10-15T13:19:50.000Z</time>
      </trkpt>
      <trkpt lat="45.0788" lon="5.99253">
        <ele>1377</ele>
        <time>2024-10-15T13:19:51.000Z</time>
      </trkpt>
      <trkpt lat="45.07881" lon="5.99254">
        <ele>1376.5999755859</ele>
        <time>2024-10-15T13:19:52.000Z</time>
      </trkpt>
      <trkpt lat="45.07882" lon="5.99254">
        <ele>1376</ele>
        <time>2024-10-15T13:19:53.000Z</time>
      </trkpt>
      <trkpt lat="45.07883" lon="5.99253">
        <ele>1375.4000244141</ele>
        <time>2024-10-15T13:19:54.000Z</time>
      </trkpt>
      <trkpt lat="45.07883" lon="5.99252">
        <ele>1374.8000488281</ele>
        <time>2024-10-15T13:19:55.000Z</time>
      </trkpt>
      <trkpt lat="45.07884" lon="5.99253">
        <ele>1374.4000244141</ele>
        <time>2024-10-15T13:19:56.000Z</time>
      </trkpt>
      <trkpt lat="45.07885" lon="5.99254">
        <ele>1374</ele>
        <time>2024-10-15T13:19:57.000Z</time>
      </trkpt>
      <trkpt lat="45.07887" lon="5.99256">
        <ele>1373.5999755859</ele>
        <time>2024-10-15T13:19:58.000Z</time>
      </trkpt>
      <trkpt lat="45.07887" lon="5.99259">
        <ele>1373.1999511719</ele>
        <time>2024-10-15T13:19:59.000Z</time>
      </trkpt>
      <trkpt lat="45.07886" lon="5.99261">
        <ele>1372.8000488281</ele>
        <time>2024-10-15T13:20:00.000Z</time>
      </trkpt>
      <trkpt lat="45.07885" lon="5.99263">
        <ele>1372.4000244141</ele>
        <time>2024-10-15T13:20:01.000Z</time>
      </trkpt>
      <trkpt lat="45.07884" lon="5.99264">
        <ele>1371.5999755859</ele>
        <time>2024-10-15T13:20:02.000Z</time>
      </trkpt>
      <trkpt lat="45.07882" lon="5.99266">
        <ele>1371.1999511719</ele>
        <time>2024-10-15T13:20:03.000Z</time>
      </trkpt>
      <trkpt lat="45.07881" lon="5.99268">
        <ele>1370.5999755859</ele>
        <time>2024-10-15T13:20:04.000Z</time>
      </trkpt>
      <trkpt lat="45.0788" lon="5.99269">
        <ele>1370.1999511719</ele>
        <time>2024-10-15T13:20:05.000Z</time>
      </trkpt>
      <trkpt lat="45.0788" lon="5.9927">
        <ele>1369.5999755859</ele>
        <time>2024-10-15T13:20:06.000Z</time>
      </trkpt>
      <trkpt lat="45.0788" lon="5.99271">
        <ele>1369.4000244141</ele>
        <time>2024-10-15T13:20:07.000Z</time>
      </trkpt>
      <trkpt lat="45.0788" lon="5.99274">
        <ele>1368.8000488281</ele>
        <time>2024-10-15T13:20:08.000Z</time>
      </trkpt>
      <trkpt lat="45.07879" lon="5.99277">
        <ele>1368.4000244141</ele>
        <time>2024-10-15T13:20:09.000Z</time>
      </trkpt>
      <trkpt lat="45.07879" lon="5.9928">
        <ele>1368</ele>
        <time>2024-10-15T13:20:10.000Z</time>
      </trkpt>
      <trkpt lat="45.07878" lon="5.99284">
        <ele>1367.5999755859</ele>
        <time>2024-10-15T13:20:11.000Z</time>
      </trkpt>
      <trkpt lat="45.07878" lon="5.99286">
        <ele>1367.4000244141</ele>
        <time>2024-10-15T13:20:12.000Z</time>
      </trkpt>
      <trkpt lat="45.07877" lon="5.99288">
        <ele>1366.8000488281</ele>
        <time>2024-10-15T13:20:13.000Z</time>
      </trkpt>
      <trkpt lat="45.07877" lon="5.9929">
        <ele>1366.5999755859</ele>
        <time>2024-10-15T13:20:14.000Z</time>
      </trkpt>
      <trkpt lat="45.07876" lon="5.99292">
        <ele>1366.1999511719</ele>
        <time>2024-10-15T13:20:15.000Z</time>
      </trkpt>
      <trkpt lat="45.07876" lon="5.99294">
        <ele>1365.8000488281</ele>
        <time>2024-10-15T13:20:16.000Z</time>
      </trkpt>
      <trkpt lat="45.07875" lon="5.99295">
        <ele>1365.1999511719</ele>
        <time>2024-10-15T13:20:17.000Z</time>
      </trkpt>
      <trkpt lat="45.07875" lon="5.99296">
        <ele>1364.8000488281</ele>
        <time>2024-10-15T13:20:18.000Z</time>
      </trkpt>
      <trkpt lat="45.07874" lon="5.99296">
        <ele>1364.5999755859</ele>
        <time>2024-10-15T13:20:19.000Z</time>
      </trkpt>
      <trkpt lat="45.07873" lon="5.99297">
        <ele>1364.4000244141</ele>
        <time>2024-10-15T13:20:20.000Z</time>
      </trkpt>
      <trkpt lat="45.07873" lon="5.99297">
        <ele>1364</ele>
        <time>2024-10-15T13:20:21.000Z</time>
      </trkpt>
      <trkpt lat="45.07872" lon="5.99299">
        <ele>1363.8000488281</ele>
        <time>2024-10-15T13:20:22.000Z</time>
      </trkpt>
      <trkpt lat="45.07873" lon="5.99302">
        <ele>1363.5999755859</ele>
        <time>2024-10-15T13:20:23.000Z</time>
      </trkpt>
      <trkpt lat="45.07873" lon="5.99304">
        <ele>1363.1999511719</ele>
        <time>2024-10-15T13:20:24.000Z</time>
      </trkpt>
      <trkpt lat="45.07871" lon="5.99305">
        <ele>1362.5999755859</ele>
        <time>2024-10-15T13:20:25.000Z</time>
      </trkpt>
      <trkpt lat="45.07871" lon="5.99306">
        <ele>1362.4000244141</ele>
        <time>2024-10-15T13:20:26.000Z</time>
      </trkpt>
      <trkpt lat="45.0787" lon="5.99307">
        <ele>1362.1999511719</ele>
        <time>2024-10-15T13:20:27.000Z</time>
      </trkpt>
      <trkpt lat="45.07869" lon="5.99307">
        <ele>1362</ele>
        <time>2024-10-15T13:20:28.000Z</time>
      </trkpt>
      <trkpt lat="45.07868" lon="5.99309">
        <ele>1361.8000488281</ele>
        <time>2024-10-15T13:20:29.000Z</time>
      </trkpt>
      <trkpt lat="45.07868" lon="5.9931">
        <ele>1361.5999755859</ele>
        <time>2024-10-15T13:20:30.000Z</time>
      </trkpt>
      <trkpt lat="45.07867" lon="5.99312">
        <ele>1361.1999511719</ele>
        <time>2024-10-15T13:20:31.000Z</time>
      </trkpt>
      <trkpt lat="45.07867" lon="5.99314">
        <ele>1360.8000488281</ele>
        <time>2024-10-15T13:20:32.000Z</time>
      </trkpt>
      <trkpt lat="45.07866" lon="5.99315">
        <ele>1360.4000244141</ele>
        <time>2024-10-15T13:20:33.000Z</time>
      </trkpt>
      <trkpt lat="45.07865" lon="5.99315">
        <ele>1360</ele>
        <time>2024-10-15T13:20:34.000Z</time>
      </trkpt>
      <trkpt lat="45.07865" lon="5.99316">
        <ele>1359.8000488281</ele>
        <time>2024-10-15T13:20:35.000Z</time>
      </trkpt>
      <trkpt lat="45.07864" lon="5.99316">
        <ele>1359.5999755859</ele>
        <time>2024-10-15T13:20:36.000Z</time>
      </trkpt>
      <trkpt lat="45.07865" lon="5.99316">
        <ele>1359.1999511719</ele>
        <time>2024-10-15T13:20:37.000Z</time>
      </trkpt>
      <trkpt lat="45.07865" lon="5.99316">
        <ele>1358.8000488281</ele>
        <time>2024-10-15T13:20:38.000Z</time>
      </trkpt>
      <trkpt lat="45.07866" lon="5.99315">
        <ele>1358.1999511719</ele>
        <time>2024-10-15T13:20:39.000Z</time>
      </trkpt>
      <trkpt lat="45.07867" lon="5.99314">
        <ele>1357.8000488281</ele>
        <time>2024-10-15T13:20:40.000Z</time>
      </trkpt>
      <trkpt lat="45.07867" lon="5.99312">
        <ele>1357.5999755859</ele>
        <time>2024-10-15T13:20:41.000Z</time>
      </trkpt>
      <trkpt lat="45.07868" lon="5.99311">
        <ele>1357.1999511719</ele>
        <time>2024-10-15T13:20:42.000Z</time>
      </trkpt>
      <trkpt lat="45.07868" lon="5.99311">
        <ele>1356.8000488281</ele>
        <time>2024-10-15T13:20:43.000Z</time>
      </trkpt>
      <trkpt lat="45.07869" lon="5.9931">
        <ele>1356.4000244141</ele>
        <time>2024-10-15T13:20:44.000Z</time>
      </trkpt>
      <trkpt lat="45.0787" lon="5.99309">
        <ele>1356.1999511719</ele>
        <time>2024-10-15T13:20:45.000Z</time>
      </trkpt>
      <trkpt lat="45.0787" lon="5.99308">
        <ele>1355.8000488281</ele>
        <time>2024-10-15T13:20:46.000Z</time>
      </trkpt>
      <trkpt lat="45.07871" lon="5.99307">
        <ele>1355.8000488281</ele>
        <time>2024-10-15T13:20:47.000Z</time>
      </trkpt>
      <trkpt lat="45.07871" lon="5.99307">
        <ele>1355.5999755859</ele>
        <time>2024-10-15T13:20:48.000Z</time>
      </trkpt>
      <trkpt lat="45.07871" lon="5.99306">
        <ele>1355.1999511719</ele>
        <time>2024-10-15T13:20:49.000Z</time>
      </trkpt>
      <trkpt lat="45.07872" lon="5.99306">
        <ele>1355</ele>
        <time>2024-10-15T13:20:50.000Z</time>
      </trkpt>
      <trkpt lat="45.07873" lon="5.99305">
        <ele>1354.5999755859</ele>
        <time>2024-10-15T13:20:51.000Z</time>
      </trkpt>
      <trkpt lat="45.07874" lon="5.99305">
        <ele>1354.4000244141</ele>
        <time>2024-10-15T13:20:52.000Z</time>
      </trkpt>
      <trkpt lat="45.07875" lon="5.99306">
        <ele>1353.8000488281</ele>
        <time>2024-10-15T13:20:53.000Z</time>
      </trkpt>
      <trkpt lat="45.07875" lon="5.99307">
        <ele>1353.5999755859</ele>
        <time>2024-10-15T13:20:54.000Z</time>
      </trkpt>
      <trkpt lat="45.07875" lon="5.99309">
        <ele>1353.1999511719</ele>
        <time>2024-10-15T13:20:55.000Z</time>
      </trkpt>
      <trkpt lat="45.07874" lon="5.9931">
        <ele>1353</ele>
        <time>2024-10-15T13:20:56.000Z</time>
      </trkpt>
      <trkpt lat="45.07874" lon="5.99312">
        <ele>1352.5999755859</ele>
        <time>2024-10-15T13:20:57.000Z</time>
      </trkpt>
      <trkpt lat="45.07873" lon="5.99313">
        <ele>1352.1999511719</ele>
        <time>2024-10-15T13:20:58.000Z</time>
      </trkpt>
      <trkpt lat="45.07873" lon="5.99316">
        <ele>1351.5999755859</ele>
        <time>2024-10-15T13:20:59.000Z</time>
      </trkpt>
      <trkpt lat="45.07872" lon="5.99318">
        <ele>1351.1999511719</ele>
        <time>2024-10-15T13:21:00.000Z</time>
      </trkpt>
      <trkpt lat="45.07872" lon="5.99319">
        <ele>1350.8000488281</ele>
        <time>2024-10-15T13:21:01.000Z</time>
      </trkpt>
      <trkpt lat="45.07871" lon="5.9932">
        <ele>1350.5999755859</ele>
        <time>2024-10-15T13:21:02.000Z</time>
      </trkpt>
      <trkpt lat="45.0787" lon="5.99321">
        <ele>1350.4000244141</ele>
        <time>2024-10-15T13:21:03.000Z</time>
      </trkpt>
      <trkpt lat="45.07869" lon="5.99322">
        <ele>1350.1999511719</ele>
        <time>2024-10-15T13:21:04.000Z</time>
      </trkpt>
      <trkpt lat="45.07868" lon="5.99324">
        <ele>1350</ele>
        <time>2024-10-15T13:21:05.000Z</time>
      </trkpt>
      <trkpt lat="45.07868" lon="5.99326">
        <ele>1349.8000488281</ele>
        <time>2024-10-15T13:21:06.000Z</time>
      </trkpt>
      <trkpt lat="45.07868" lon="5.99327">
        <ele>1349.4000244141</ele>
        <time>2024-10-15T13:21:07.000Z</time>
      </trkpt>
      <trkpt lat="45.07868" lon="5.99327">
        <ele>1349.1999511719</ele>
        <time>2024-10-15T13:21:08.000Z</time>
      </trkpt>
      <trkpt lat="45.07869" lon="5.99327">
        <ele>1349</ele>
        <time>2024-10-15T13:21:09.000Z</time>
      </trkpt>
      <trkpt lat="45.07869" lon="5.99326">
        <ele>1348.5999755859</ele>
        <time>2024-10-15T13:21:10.000Z</time>
      </trkpt>
      <trkpt lat="45.0787" lon="5.99325">
        <ele>1348.1999511719</ele>
        <time>2024-10-15T13:21:11.000Z</time>
      </trkpt>
      <trkpt lat="45.07871" lon="5.99324">
        <ele>1347.8000488281</ele>
        <time>2024-10-15T13:21:12.000Z</time>
      </trkpt>
      <trkpt lat="45.07872" lon="5.99322">
        <ele>1347.5999755859</ele>
        <time>2024-10-15T13:21:13.000Z</time>
      </trkpt>
      <trkpt lat="45.07873" lon="5.99321">
        <ele>1347.4000244141</ele>
        <time>2024-10-15T13:21:14.000Z</time>
      </trkpt>
      <trkpt lat="45.07873" lon="5.99319">
        <ele>1347.1999511719</ele>
        <time>2024-10-15T13:21:15.000Z</time>
      </trkpt>
      <trkpt lat="45.07873" lon="5.99319">
        <ele>1347</ele>
        <time>2024-10-15T13:21:16.000Z</time>
      </trkpt>
      <trkpt lat="45.07874" lon="5.99318">
        <ele>1346.5999755859</ele>
        <time>2024-10-15T13:21:17.000Z</time>
      </trkpt>
      <trkpt lat="45.07875" lon="5.99317">
        <ele>1346.4000244141</ele>
        <time>2024-10-15T13:21:18.000Z</time>
      </trkpt>
      <trkpt lat="45.07876" lon="5.99316">
        <ele>1346</ele>
        <time>2024-10-15T13:21:19.000Z</time>
      </trkpt>
      <trkpt lat="45.07877" lon="5.99316">
        <ele>1345.8000488281</ele>
        <time>2024-10-15T13:21:20.000Z</time>
      </trkpt>
      <trkpt lat="45.07878" lon="5.99316">
        <ele>1345.4000244141</ele>
        <time>2024-10-15T13:21:21.000Z</time>
      </trkpt>
      <trkpt lat="45.0788" lon="5.99315">
        <ele>1345.4000244141</ele>
        <time>2024-10-15T13:21:22.000Z</time>
      </trkpt>
      <trkpt lat="45.07881" lon="5.99315">
        <ele>1345</ele>
        <time>2024-10-15T13:21:23.000Z</time>
      </trkpt>
      <trkpt lat="45.07881" lon="5.99315">
        <ele>1344.8000488281</ele>
        <time>2024-10-15T13:21:24.000Z</time>
      </trkpt>
      <trkpt lat="45.07882" lon="5.99315">
        <ele>1344.5999755859</ele>
        <time>2024-10-15T13:21:25.000Z</time>
      </trkpt>
      <trkpt lat="45.07883" lon="5.99314">
        <ele>1344.5999755859</ele>
        <time>2024-10-15T13:21:26.000Z</time>
      </trkpt>
      <trkpt lat="45.07885" lon="5.99314">
        <ele>1344.4000244141</ele>
        <time>2024-10-15T13:21:27.000Z</time>
      </trkpt>
      <trkpt lat="45.07886" lon="5.99314">
        <ele>1344.4000244141</ele>
        <time>2024-10-15T13:21:28.000Z</time>
      </trkpt>
      <trkpt lat="45.07889" lon="5.99311">
        <ele>1344</ele>
        <time>2024-10-15T13:21:29.000Z</time>
      </trkpt>
      <trkpt lat="45.0789" lon="5.99311">
        <ele>1343.5999755859</ele>
        <time>2024-10-15T13:21:30.000Z</time>
      </trkpt>
      <trkpt lat="45.07892" lon="5.9931">
        <ele>1343.4000244141</ele>
        <time>2024-10-15T13:21:31.000Z</time>
      </trkpt>
      <trkpt lat="45.07893" lon="5.99311">
        <ele>1343</ele>
        <time>2024-10-15T13:21:32.000Z</time>
      </trkpt>
      <trkpt lat="45.07894" lon="5.99312">
        <ele>1342.5999755859</ele>
        <time>2024-10-15T13:21:33.000Z</time>
      </trkpt>
      <trkpt lat="45.07895" lon="5.99312">
        <ele>1342.1999511719</ele>
        <time>2024-10-15T13:21:34.000Z</time>
      </trkpt>
      <trkpt lat="45.07897" lon="5.99313">
        <ele>1341.5999755859</ele>
        <time>2024-10-15T13:21:35.000Z</time>
      </trkpt>
      <trkpt lat="45.07898" lon="5.99313">
        <ele>1341.4000244141</ele>
        <time>2024-10-15T13:21:36.000Z</time>
      </trkpt>
      <trkpt lat="45.07899" lon="5.99313">
        <ele>1341</ele>
        <time>2024-10-15T13:21:37.000Z</time>
      </trkpt>
      <trkpt lat="45.079" lon="5.99313">
        <ele>1340.8000488281</ele>
        <time>2024-10-15T13:21:38.000Z</time>
      </trkpt>
      <trkpt lat="45.079" lon="5.99312">
        <ele>1340.1999511719</ele>
        <time>2024-10-15T13:21:39.000Z</time>
      </trkpt>
      <trkpt lat="45.07901" lon="5.99312">
        <ele>1339.8000488281</ele>
        <time>2024-10-15T13:21:40.000Z</time>
      </trkpt>
      <trkpt lat="45.07901" lon="5.99312">
        <ele>1339.5999755859</ele>
        <time>2024-10-15T13:21:41.000Z</time>
      </trkpt>
      <trkpt lat="45.07902" lon="5.99312">
        <ele>1339.1999511719</ele>
        <time>2024-10-15T13:21:42.000Z</time>
      </trkpt>
      <trkpt lat="45.07902" lon="5.99312">
        <ele>1338.8000488281</ele>
        <time>2024-10-15T13:21:43.000Z</time>
      </trkpt>
      <trkpt lat="45.07903" lon="5.99312">
        <ele>1338.8000488281</ele>
        <time>2024-10-15T13:21:44.000Z</time>
      </trkpt>
      <trkpt lat="45.07903" lon="5.99311">
        <ele>1338.5999755859</ele>
        <time>2024-10-15T13:21:45.000Z</time>
      </trkpt>
      <trkpt lat="45.07904" lon="5.99311">
        <ele>1338.4000244141</ele>
        <time>2024-10-15T13:21:46.000Z</time>
      </trkpt>
      <trkpt lat="45.07905" lon="5.99311">
        <ele>1338</ele>
        <time>2024-10-15T13:21:47.000Z</time>
      </trkpt>
      <trkpt lat="45.07908" lon="5.99311">
        <ele>1337.5999755859</ele>
        <time>2024-10-15T13:21:48.000Z</time>
      </trkpt>
      <trkpt lat="45.0791" lon="5.99313">
        <ele>1337.5999755859</ele>
        <time>2024-10-15T13:21:49.000Z</time>
      </trkpt>
      <trkpt lat="45.07911" lon="5.99315">
        <ele>1337</ele>
        <time>2024-10-15T13:21:50.000Z</time>
      </trkpt>
      <trkpt lat="45.07912" lon="5.99317">
        <ele>1336.5999755859</ele>
        <time>2024-10-15T13:21:51.000Z</time>
      </trkpt>
      <trkpt lat="45.07912" lon="5.99319">
        <ele>1336.1999511719</ele>
        <time>2024-10-15T13:21:52.000Z</time>
      </trkpt>
      <trkpt lat="45.07911" lon="5.99322">
        <ele>1335.8000488281</ele>
        <time>2024-10-15T13:21:53.000Z</time>
      </trkpt>
      <trkpt lat="45.0791" lon="5.99324">
        <ele>1335.1999511719</ele>
        <time>2024-10-15T13:21:54.000Z</time>
      </trkpt>
      <trkpt lat="45.0791" lon="5.99325">
        <ele>1335</ele>
        <time>2024-10-15T13:21:55.000Z</time>
      </trkpt>
      <trkpt lat="45.0791" lon="5.99326">
        <ele>1334.8000488281</ele>
        <time>2024-10-15T13:21:56.000Z</time>
      </trkpt>
      <trkpt lat="45.07909" lon="5.99328">
        <ele>1334.4000244141</ele>
        <time>2024-10-15T13:21:57.000Z</time>
      </trkpt>
      <trkpt lat="45.07909" lon="5.99329">
        <ele>1334.1999511719</ele>
        <time>2024-10-15T13:21:58.000Z</time>
      </trkpt>
      <trkpt lat="45.07908" lon="5.99329">
        <ele>1333.8000488281</ele>
        <time>2024-10-15T13:21:59.000Z</time>
      </trkpt>
      <trkpt lat="45.07909" lon="5.99329">
        <ele>1333.4000244141</ele>
        <time>2024-10-15T13:22:00.000Z</time>
      </trkpt>
      <trkpt lat="45.0791" lon="5.99329">
        <ele>1333.1999511719</ele>
        <time>2024-10-15T13:22:01.000Z</time>
      </trkpt>
      <trkpt lat="45.0791" lon="5.99329">
        <ele>1332.8000488281</ele>
        <time>2024-10-15T13:22:02.000Z</time>
      </trkpt>
      <trkpt lat="45.07911" lon="5.99328">
        <ele>1332.4000244141</ele>
        <time>2024-10-15T13:22:03.000Z</time>
      </trkpt>
      <trkpt lat="45.07911" lon="5.99328">
        <ele>1332.1999511719</ele>
        <time>2024-10-15T13:22:04.000Z</time>
      </trkpt>
      <trkpt lat="45.07912" lon="5.99327">
        <ele>1331.5999755859</ele>
        <time>2024-10-15T13:22:05.000Z</time>
      </trkpt>
      <trkpt lat="45.07912" lon="5.99327">
        <ele>1331.1999511719</ele>
        <time>2024-10-15T13:22:06.000Z</time>
      </trkpt>
      <trkpt lat="45.07913" lon="5.99326">
        <ele>1331.1999511719</ele>
        <time>2024-10-15T13:22:07.000Z</time>
      </trkpt>
      <trkpt lat="45.07914" lon="5.99324">
        <ele>1331</ele>
        <time>2024-10-15T13:22:08.000Z</time>
      </trkpt>
      <trkpt lat="45.07915" lon="5.99323">
        <ele>1331</ele>
        <time>2024-10-15T13:22:09.000Z</time>
      </trkpt>
      <trkpt lat="45.07915" lon="5.99323">
        <ele>1330.5999755859</ele>
        <time>2024-10-15T13:22:10.000Z</time>
      </trkpt>
      <trkpt lat="45.07916" lon="5.99323">
        <ele>1330.1999511719</ele>
        <time>2024-10-15T13:22:11.000Z</time>
      </trkpt>
      <trkpt lat="45.07917" lon="5.99323">
        <ele>1330</ele>
        <time>2024-10-15T13:22:12.000Z</time>
      </trkpt>
      <trkpt lat="45.07917" lon="5.99323">
        <ele>1329.5999755859</ele>
        <time>2024-10-15T13:22:13.000Z</time>
      </trkpt>
      <trkpt lat="45.07918" lon="5.99323">
        <ele>1329.5999755859</ele>
        <time>2024-10-15T13:22:14.000Z</time>
      </trkpt>
      <trkpt lat="45.07918" lon="5.99322">
        <ele>1329.4000244141</ele>
        <time>2024-10-15T13:22:15.000Z</time>
      </trkpt>
      <trkpt lat="45.07919" lon="5.99321">
        <ele>1329</ele>
        <time>2024-10-15T13:22:16.000Z</time>
      </trkpt>
      <trkpt lat="45.0792" lon="5.9932">
        <ele>1328.8000488281</ele>
        <time>2024-10-15T13:22:17.000Z</time>
      </trkpt>
      <trkpt lat="45.07922" lon="5.9932">
        <ele>1328.5999755859</ele>
        <time>2024-10-15T13:22:18.000Z</time>
      </trkpt>
      <trkpt lat="45.07923" lon="5.99319">
        <ele>1328.5999755859</ele>
        <time>2024-10-15T13:22:19.000Z</time>
      </trkpt>
      <trkpt lat="45.07925" lon="5.99319">
        <ele>1328.1999511719</ele>
        <time>2024-10-15T13:22:20.000Z</time>
      </trkpt>
      <trkpt lat="45.07926" lon="5.99319">
        <ele>1327.8000488281</ele>
        <time>2024-10-15T13:22:21.000Z</time>
      </trkpt>
      <trkpt lat="45.07927" lon="5.99319">
        <ele>1327.5999755859</ele>
        <time>2024-10-15T13:22:22.000Z</time>
      </trkpt>
      <trkpt lat="45.07929" lon="5.99318">
        <ele>1327.1999511719</ele>
        <time>2024-10-15T13:22:23.000Z</time>
      </trkpt>
      <trkpt lat="45.0793" lon="5.99317">
        <ele>1326.5999755859</ele>
        <time>2024-10-15T13:22:24.000Z</time>
      </trkpt>
      <trkpt lat="45.0793" lon="5.99316">
        <ele>1326.1999511719</ele>
        <time>2024-10-15T13:22:25.000Z</time>
      </trkpt>
      <trkpt lat="45.0793" lon="5.99316">
        <ele>1325.8000488281</ele>
        <time>2024-10-15T13:22:26.000Z</time>
      </trkpt>
      <trkpt lat="45.07932" lon="5.99315">
        <ele>1325.4000244141</ele>
        <time>2024-10-15T13:22:27.000Z</time>
      </trkpt>
      <trkpt lat="45.07932" lon="5.99315">
        <ele>1325</ele>
        <time>2024-10-15T13:22:28.000Z</time>
      </trkpt>
      <trkpt lat="45.07933" lon="5.99315">
        <ele>1324.8000488281</ele>
        <time>2024-10-15T13:22:29.000Z</time>
      </trkpt>
      <trkpt lat="45.07934" lon="5.99315">
        <ele>1324.5999755859</ele>
        <time>2024-10-15T13:22:30.000Z</time>
      </trkpt>
      <trkpt lat="45.07936" lon="5.99314">
        <ele>1324.1999511719</ele>
        <time>2024-10-15T13:22:31.000Z</time>
      </trkpt>
      <trkpt lat="45.07937" lon="5.99314">
        <ele>1324</ele>
        <time>2024-10-15T13:22:32.000Z</time>
      </trkpt>
      <trkpt lat="45.07938" lon="5.99313">
        <ele>1323.5999755859</ele>
        <time>2024-10-15T13:22:33.000Z</time>
      </trkpt>
      <trkpt lat="45.0794" lon="5.99313">
        <ele>1323.4000244141</ele>
        <time>2024-10-15T13:22:34.000Z</time>
      </trkpt>
      <trkpt lat="45.07942" lon="5.99313">
        <ele>1323</ele>
        <time>2024-10-15T13:22:35.000Z</time>
      </trkpt>
      <trkpt lat="45.07943" lon="5.99314">
        <ele>1322.8000488281</ele>
        <time>2024-10-15T13:22:36.000Z</time>
      </trkpt>
      <trkpt lat="45.07944" lon="5.99313">
        <ele>1322.5999755859</ele>
        <time>2024-10-15T13:22:37.000Z</time>
      </trkpt>
      <trkpt lat="45.07945" lon="5.99312">
        <ele>1322.4000244141</ele>
        <time>2024-10-15T13:22:38.000Z</time>
      </trkpt>
      <trkpt lat="45.07946" lon="5.99312">
        <ele>1322.4000244141</ele>
        <time>2024-10-15T13:22:39.000Z</time>
      </trkpt>
      <trkpt lat="45.07947" lon="5.99313">
        <ele>1322.1999511719</ele>
        <time>2024-10-15T13:22:40.000Z</time>
      </trkpt>
      <trkpt lat="45.07948" lon="5.99313">
        <ele>1321.8000488281</ele>
        <time>2024-10-15T13:22:41.000Z</time>
      </trkpt>
      <trkpt lat="45.0795" lon="5.99313">
        <ele>1321.8000488281</ele>
        <time>2024-10-15T13:22:42.000Z</time>
      </trkpt>
      <trkpt lat="45.07951" lon="5.99313">
        <ele>1321.4000244141</ele>
        <time>2024-10-15T13:22:43.000Z</time>
      </trkpt>
      <trkpt lat="45.07952" lon="5.9931">
        <ele>1321.1999511719</ele>
        <time>2024-10-15T13:22:44.000Z</time>
      </trkpt>
      <trkpt lat="45.07954" lon="5.99309">
        <ele>1321</ele>
        <time>2024-10-15T13:22:45.000Z</time>
      </trkpt>
      <trkpt lat="45.07955" lon="5.99309">
        <ele>1320.8000488281</ele>
        <time>2024-10-15T13:22:46.000Z</time>
      </trkpt>
      <trkpt lat="45.07957" lon="5.9931">
        <ele>1320.5999755859</ele>
        <time>2024-10-15T13:22:47.000Z</time>
      </trkpt>
      <trkpt lat="45.07959" lon="5.99313">
        <ele>1320.1999511719</ele>
        <time>2024-10-15T13:22:48.000Z</time>
      </trkpt>
      <trkpt lat="45.07961" lon="5.99317">
        <ele>1319.8000488281</ele>
        <time>2024-10-15T13:22:49.000Z</time>
      </trkpt>
      <trkpt lat="45.07961" lon="5.9932">
        <ele>1319.4000244141</ele>
        <time>2024-10-15T13:22:50.000Z</time>
      </trkpt>
      <trkpt lat="45.07962" lon="5.99323">
        <ele>1319</ele>
        <time>2024-10-15T13:22:51.000Z</time>
      </trkpt>
      <trkpt lat="45.07962" lon="5.99327">
        <ele>1318.4000244141</ele>
        <time>2024-10-15T13:22:52.000Z</time>
      </trkpt>
      <trkpt lat="45.07962" lon="5.99329">
        <ele>1317.8000488281</ele>
        <time>2024-10-15T13:22:53.000Z</time>
      </trkpt>
      <trkpt lat="45.07962" lon="5.9933">
        <ele>1317.1999511719</ele>
        <time>2024-10-15T13:22:54.000Z</time>
      </trkpt>
      <trkpt lat="45.07962" lon="5.99329">
        <ele>1316.8000488281</ele>
        <time>2024-10-15T13:22:55.000Z</time>
      </trkpt>
      <trkpt lat="45.07963" lon="5.99329">
        <ele>1316.1999511719</ele>
        <time>2024-10-15T13:22:56.000Z</time>
      </trkpt>
      <trkpt lat="45.07963" lon="5.99329">
        <ele>1315.5999755859</ele>
        <time>2024-10-15T13:22:57.000Z</time>
      </trkpt>
      <trkpt lat="45.07963" lon="5.99329">
        <ele>1315.4000244141</ele>
        <time>2024-10-15T13:22:58.000Z</time>
      </trkpt>
      <trkpt lat="45.07964" lon="5.99329">
        <ele>1314.8000488281</ele>
        <time>2024-10-15T13:22:59.000Z</time>
      </trkpt>
      <trkpt lat="45.07965" lon="5.99329">
        <ele>1314.1999511719</ele>
        <time>2024-10-15T13:23:00.000Z</time>
      </trkpt>
      <trkpt lat="45.07966" lon="5.99328">
        <ele>1313.8000488281</ele>
        <time>2024-10-15T13:23:01.000Z</time>
      </trkpt>
      <trkpt lat="45.07966" lon="5.99328">
        <ele>1313.5999755859</ele>
        <time>2024-10-15T13:23:02.000Z</time>
      </trkpt>
      <trkpt lat="45.07967" lon="5.99328">
        <ele>1313.1999511719</ele>
        <time>2024-10-15T13:23:03.000Z</time>
      </trkpt>
      <trkpt lat="45.07969" lon="5.99328">
        <ele>1313</ele>
        <time>2024-10-15T13:23:04.000Z</time>
      </trkpt>
      <trkpt lat="45.07969" lon="5.99328">
        <ele>1312.5999755859</ele>
        <time>2024-10-15T13:23:05.000Z</time>
      </trkpt>
      <trkpt lat="45.07969" lon="5.99329">
        <ele>1312.1999511719</ele>
        <time>2024-10-15T13:23:06.000Z</time>
      </trkpt>
      <trkpt lat="45.0797" lon="5.99328">
        <ele>1311.8000488281</ele>
        <time>2024-10-15T13:23:07.000Z</time>
      </trkpt>
      <trkpt lat="45.07971" lon="5.99328">
        <ele>1311.5999755859</ele>
        <time>2024-10-15T13:23:08.000Z</time>
      </trkpt>
      <trkpt lat="45.07972" lon="5.99328">
        <ele>1311.4000244141</ele>
        <time>2024-10-15T13:23:09.000Z</time>
      </trkpt>
      <trkpt lat="45.07973" lon="5.99328">
        <ele>1311.1999511719</ele>
        <time>2024-10-15T13:23:10.000Z</time>
      </trkpt>
      <trkpt lat="45.07975" lon="5.99328">
        <ele>1310.8000488281</ele>
        <time>2024-10-15T13:23:11.000Z</time>
      </trkpt>
      <trkpt lat="45.07977" lon="5.99327">
        <ele>1310.5999755859</ele>
        <time>2024-10-15T13:23:12.000Z</time>
      </trkpt>
      <trkpt lat="45.07979" lon="5.99326">
        <ele>1310.4000244141</ele>
        <time>2024-10-15T13:23:13.000Z</time>
      </trkpt>
      <trkpt lat="45.07981" lon="5.99326">
        <ele>1310.1999511719</ele>
        <time>2024-10-15T13:23:14.000Z</time>
      </trkpt>
      <trkpt lat="45.07981" lon="5.99325">
        <ele>1309.8000488281</ele>
        <time>2024-10-15T13:23:15.000Z</time>
      </trkpt>
      <trkpt lat="45.07983" lon="5.99325">
        <ele>1309.5999755859</ele>
        <time>2024-10-15T13:23:16.000Z</time>
      </trkpt>
      <trkpt lat="45.07986" lon="5.99325">
        <ele>1309.4000244141</ele>
        <time>2024-10-15T13:23:17.000Z</time>
      </trkpt>
      <trkpt lat="45.07988" lon="5.99326">
        <ele>1309.1999511719</ele>
        <time>2024-10-15T13:23:18.000Z</time>
      </trkpt>
      <trkpt lat="45.07988" lon="5.99327">
        <ele>1308.8000488281</ele>
        <time>2024-10-15T13:23:19.000Z</time>
      </trkpt>
      <trkpt lat="45.07989" lon="5.99327">
        <ele>1308.5999755859</ele>
        <time>2024-10-15T13:23:20.000Z</time>
      </trkpt>
      <trkpt lat="45.07991" lon="5.99327">
        <ele>1308.1999511719</ele>
        <time>2024-10-15T13:23:21.000Z</time>
      </trkpt>
      <trkpt lat="45.07992" lon="5.99327">
        <ele>1307.8000488281</ele>
        <time>2024-10-15T13:23:22.000Z</time>
      </trkpt>
      <trkpt lat="45.07994" lon="5.99327">
        <ele>1307.5999755859</ele>
        <time>2024-10-15T13:23:23.000Z</time>
      </trkpt>
      <trkpt lat="45.07995" lon="5.99328">
        <ele>1307.1999511719</ele>
        <time>2024-10-15T13:23:24.000Z</time>
      </trkpt>
      <trkpt lat="45.07996" lon="5.99328">
        <ele>1307</ele>
        <time>2024-10-15T13:23:25.000Z</time>
      </trkpt>
      <trkpt lat="45.07997" lon="5.99329">
        <ele>1306.8000488281</ele>
        <time>2024-10-15T13:23:26.000Z</time>
      </trkpt>
      <trkpt lat="45.07998" lon="5.9933">
        <ele>1306.5999755859</ele>
        <time>2024-10-15T13:23:27.000Z</time>
      </trkpt>
      <trkpt lat="45.08" lon="5.9933">
        <ele>1306.4000244141</ele>
        <time>2024-10-15T13:23:28.000Z</time>
      </trkpt>
      <trkpt lat="45.08002" lon="5.9933">
        <ele>1306</ele>
        <time>2024-10-15T13:23:29.000Z</time>
      </trkpt>
      <trkpt lat="45.08003" lon="5.99331">
        <ele>1305.5999755859</ele>
        <time>2024-10-15T13:23:30.000Z</time>
      </trkpt>
      <trkpt lat="45.08004" lon="5.99332">
        <ele>1305.1999511719</ele>
        <time>2024-10-15T13:23:31.000Z</time>
      </trkpt>
      <trkpt lat="45.08004" lon="5.99334">
        <ele>1304.5999755859</ele>
        <time>2024-10-15T13:23:32.000Z</time>
      </trkpt>
      <trkpt lat="45.08004" lon="5.99334">
        <ele>1304.1999511719</ele>
        <time>2024-10-15T13:23:33.000Z</time>
      </trkpt>
      <trkpt lat="45.08005" lon="5.99334">
        <ele>1303.8000488281</ele>
        <time>2024-10-15T13:23:34.000Z</time>
      </trkpt>
      <trkpt lat="45.08006" lon="5.99335">
        <ele>1303.5999755859</ele>
        <time>2024-10-15T13:23:35.000Z</time>
      </trkpt>
      <trkpt lat="45.08007" lon="5.99335">
        <ele>1303.1999511719</ele>
        <time>2024-10-15T13:23:36.000Z</time>
      </trkpt>
      <trkpt lat="45.08009" lon="5.99334">
        <ele>1303</ele>
        <time>2024-10-15T13:23:37.000Z</time>
      </trkpt>
      <trkpt lat="45.08011" lon="5.99334">
        <ele>1302.5999755859</ele>
        <time>2024-10-15T13:23:38.000Z</time>
      </trkpt>
      <trkpt lat="45.08013" lon="5.99334">
        <ele>1302.1999511719</ele>
        <time>2024-10-15T13:23:39.000Z</time>
      </trkpt>
      <trkpt lat="45.08013" lon="5.99334">
        <ele>1301.8000488281</ele>
        <time>2024-10-15T13:23:40.000Z</time>
      </trkpt>
      <trkpt lat="45.08014" lon="5.99334">
        <ele>1301.4000244141</ele>
        <time>2024-10-15T13:23:41.000Z</time>
      </trkpt>
      <trkpt lat="45.08016" lon="5.99334">
        <ele>1301</ele>
        <time>2024-10-15T13:23:42.000Z</time>
      </trkpt>
      <trkpt lat="45.08017" lon="5.99335">
        <ele>1300.5999755859</ele>
        <time>2024-10-15T13:23:43.000Z</time>
      </trkpt>
      <trkpt lat="45.08019" lon="5.99337">
        <ele>1300</ele>
        <time>2024-10-15T13:23:44.000Z</time>
      </trkpt>
      <trkpt lat="45.08021" lon="5.99337">
        <ele>1299.5999755859</ele>
        <time>2024-10-15T13:23:45.000Z</time>
      </trkpt>
      <trkpt lat="45.08022" lon="5.99337">
        <ele>1299.1999511719</ele>
        <time>2024-10-15T13:23:46.000Z</time>
      </trkpt>
      <trkpt lat="45.08023" lon="5.99337">
        <ele>1298.5999755859</ele>
        <time>2024-10-15T13:23:47.000Z</time>
      </trkpt>
      <trkpt lat="45.08024" lon="5.99336">
        <ele>1298.1999511719</ele>
        <time>2024-10-15T13:23:48.000Z</time>
      </trkpt>
      <trkpt lat="45.08025" lon="5.99336">
        <ele>1297.5999755859</ele>
        <time>2024-10-15T13:23:49.000Z</time>
      </trkpt>
      <trkpt lat="45.08025" lon="5.99336">
        <ele>1297.1999511719</ele>
        <time>2024-10-15T13:23:50.000Z</time>
      </trkpt>
      <trkpt lat="45.08026" lon="5.99336">
        <ele>1296.8000488281</ele>
        <time>2024-10-15T13:23:51.000Z</time>
      </trkpt>
      <trkpt lat="45.08027" lon="5.99336">
        <ele>1296.4000244141</ele>
        <time>2024-10-15T13:23:52.000Z</time>
      </trkpt>
      <trkpt lat="45.08028" lon="5.99336">
        <ele>1296</ele>
        <time>2024-10-15T13:23:53.000Z</time>
      </trkpt>
      <trkpt lat="45.08028" lon="5.99337">
        <ele>1295.8000488281</ele>
        <time>2024-10-15T13:23:54.000Z</time>
      </trkpt>
      <trkpt lat="45.08029" lon="5.99337">
        <ele>1295.4000244141</ele>
        <time>2024-10-15T13:23:55.000Z</time>
      </trkpt>
      <trkpt lat="45.0803" lon="5.99338">
        <ele>1295.1999511719</ele>
        <time>2024-10-15T13:23:56.000Z</time>
      </trkpt>
      <trkpt lat="45.08031" lon="5.99338">
        <ele>1294.8000488281</ele>
        <time>2024-10-15T13:23:57.000Z</time>
      </trkpt>
      <trkpt lat="45.08032" lon="5.99338">
        <ele>1294.4000244141</ele>
        <time>2024-10-15T13:23:58.000Z</time>
      </trkpt>
      <trkpt lat="45.08033" lon="5.99338">
        <ele>1294.1999511719</ele>
        <time>2024-10-15T13:23:59.000Z</time>
      </trkpt>
      <trkpt lat="45.08034" lon="5.99339">
        <ele>1293.8000488281</ele>
        <time>2024-10-15T13:24:00.000Z</time>
      </trkpt>
      <trkpt lat="45.08034" lon="5.99339">
        <ele>1293.5999755859</ele>
        <time>2024-10-15T13:24:01.000Z</time>
      </trkpt>
      <trkpt lat="45.08034" lon="5.99339">
        <ele>1293.1999511719</ele>
        <time>2024-10-15T13:24:02.000Z</time>
      </trkpt>
      <trkpt lat="45.08035" lon="5.9934">
        <ele>1293.1999511719</ele>
        <time>2024-10-15T13:24:03.000Z</time>
      </trkpt>
      <trkpt lat="45.08037" lon="5.9934">
        <ele>1293</ele>
        <time>2024-10-15T13:24:04.000Z</time>
      </trkpt>
      <trkpt lat="45.08037" lon="5.9934">
        <ele>1292.5999755859</ele>
        <time>2024-10-15T13:24:05.000Z</time>
      </trkpt>
      <trkpt lat="45.0804" lon="5.9934">
        <ele>1292.4000244141</ele>
        <time>2024-10-15T13:24:06.000Z</time>
      </trkpt>
      <trkpt lat="45.0804" lon="5.99341">
        <ele>1292</ele>
        <time>2024-10-15T13:24:07.000Z</time>
      </trkpt>
      <trkpt lat="45.08041" lon="5.99341">
        <ele>1291.8000488281</ele>
        <time>2024-10-15T13:24:08.000Z</time>
      </trkpt>
      <trkpt lat="45.08042" lon="5.9934">
        <ele>1291.5999755859</ele>
        <time>2024-10-15T13:24:09.000Z</time>
      </trkpt>
      <trkpt lat="45.08044" lon="5.99341">
        <ele>1291.5999755859</ele>
        <time>2024-10-15T13:24:10.000Z</time>
      </trkpt>
      <trkpt lat="45.08046" lon="5.9934">
        <ele>1291.1999511719</ele>
        <time>2024-10-15T13:24:11.000Z</time>
      </trkpt>
      <trkpt lat="45.08047" lon="5.99339">
        <ele>1291</ele>
        <time>2024-10-15T13:24:12.000Z</time>
      </trkpt>
      <trkpt lat="45.08049" lon="5.99338">
        <ele>1290.8000488281</ele>
        <time>2024-10-15T13:24:13.000Z</time>
      </trkpt>
      <trkpt lat="45.0805" lon="5.99337">
        <ele>1290.5999755859</ele>
        <time>2024-10-15T13:24:14.000Z</time>
      </trkpt>
      <trkpt lat="45.08052" lon="5.99337">
        <ele>1290.4000244141</ele>
        <time>2024-10-15T13:24:15.000Z</time>
      </trkpt>
      <trkpt lat="45.08053" lon="5.99337">
        <ele>1290.4000244141</ele>
        <time>2024-10-15T13:24:16.000Z</time>
      </trkpt>
      <trkpt lat="45.08055" lon="5.99338">
        <ele>1290</ele>
        <time>2024-10-15T13:24:17.000Z</time>
      </trkpt>
      <trkpt lat="45.08056" lon="5.99338">
        <ele>1289.8000488281</ele>
        <time>2024-10-15T13:24:18.000Z</time>
      </trkpt>
      <trkpt lat="45.08057" lon="5.99337">
        <ele>1289.4000244141</ele>
        <time>2024-10-15T13:24:19.000Z</time>
      </trkpt>
      <trkpt lat="45.08058" lon="5.99337">
        <ele>1289.1999511719</ele>
        <time>2024-10-15T13:24:20.000Z</time>
      </trkpt>
      <trkpt lat="45.08059" lon="5.99335">
        <ele>1288.8000488281</ele>
        <time>2024-10-15T13:24:21.000Z</time>
      </trkpt>
      <trkpt lat="45.08061" lon="5.99333">
        <ele>1288.5999755859</ele>
        <time>2024-10-15T13:24:22.000Z</time>
      </trkpt>
      <trkpt lat="45.08061" lon="5.99332">
        <ele>1288.4000244141</ele>
        <time>2024-10-15T13:24:23.000Z</time>
      </trkpt>
      <trkpt lat="45.08061" lon="5.99332">
        <ele>1288</ele>
        <time>2024-10-15T13:24:24.000Z</time>
      </trkpt>
      <trkpt lat="45.08063" lon="5.9933">
        <ele>1287.8000488281</ele>
        <time>2024-10-15T13:24:25.000Z</time>
      </trkpt>
      <trkpt lat="45.08064" lon="5.99331">
        <ele>1287.5999755859</ele>
        <time>2024-10-15T13:24:26.000Z</time>
      </trkpt>
      <trkpt lat="45.08065" lon="5.9933">
        <ele>1287.1999511719</ele>
        <time>2024-10-15T13:24:27.000Z</time>
      </trkpt>
      <trkpt lat="45.08067" lon="5.9933">
        <ele>1287</ele>
        <time>2024-10-15T13:24:28.000Z</time>
      </trkpt>
      <trkpt lat="45.08068" lon="5.9933">
        <ele>1286.5999755859</ele>
        <time>2024-10-15T13:24:29.000Z</time>
      </trkpt>
      <trkpt lat="45.0807" lon="5.9933">
        <ele>1286.4000244141</ele>
        <time>2024-10-15T13:24:30.000Z</time>
      </trkpt>
      <trkpt lat="45.08071" lon="5.9933">
        <ele>1286.1999511719</ele>
        <time>2024-10-15T13:24:31.000Z</time>
      </trkpt>
      <trkpt lat="45.08073" lon="5.9933">
        <ele>1286</ele>
        <time>2024-10-15T13:24:32.000Z</time>
      </trkpt>
      <trkpt lat="45.08073" lon="5.99331">
        <ele>1285.8000488281</ele>
        <time>2024-10-15T13:24:33.000Z</time>
      </trkpt>
      <trkpt lat="45.08074" lon="5.99332">
        <ele>1285.5999755859</ele>
        <time>2024-10-15T13:24:34.000Z</time>
      </trkpt>
      <trkpt lat="45.08076" lon="5.99333">
        <ele>1285.4000244141</ele>
        <time>2024-10-15T13:24:35.000Z</time>
      </trkpt>
      <trkpt lat="45.08077" lon="5.99333">
        <ele>1285</ele>
        <time>2024-10-15T13:24:36.000Z</time>
      </trkpt>
      <trkpt lat="45.08079" lon="5.99332">
        <ele>1284.8000488281</ele>
        <time>2024-10-15T13:24:37.000Z</time>
      </trkpt>
      <trkpt lat="45.0808" lon="5.99331">
        <ele>1284.5999755859</ele>
        <time>2024-10-15T13:24:38.000Z</time>
      </trkpt>
      <trkpt lat="45.0808" lon="5.99331">
        <ele>1284.1999511719</ele>
        <time>2024-10-15T13:24:39.000Z</time>
      </trkpt>
      <trkpt lat="45.08084" lon="5.99331">
        <ele>1284.1999511719</ele>
        <time>2024-10-15T13:24:40.000Z</time>
      </trkpt>
      <trkpt lat="45.08085" lon="5.9933">
        <ele>1283.8000488281</ele>
        <time>2024-10-15T13:24:41.000Z</time>
      </trkpt>
      <trkpt lat="45.08087" lon="5.9933">
        <ele>1283.8000488281</ele>
        <time>2024-10-15T13:24:42.000Z</time>
      </trkpt>
      <trkpt lat="45.08089" lon="5.99331">
        <ele>1283.5999755859</ele>
        <time>2024-10-15T13:24:43.000Z</time>
      </trkpt>
      <trkpt lat="45.08091" lon="5.99331">
        <ele>1283.5999755859</ele>
        <time>2024-10-15T13:24:44.000Z</time>
      </trkpt>
      <trkpt lat="45.08092" lon="5.9933">
        <ele>1283.4000244141</ele>
        <time>2024-10-15T13:24:45.000Z</time>
      </trkpt>
      <trkpt lat="45.08093" lon="5.9933">
        <ele>1283.4000244141</ele>
        <time>2024-10-15T13:24:46.000Z</time>
      </trkpt>
      <trkpt lat="45.08094" lon="5.9933">
        <ele>1283.4000244141</ele>
        <time>2024-10-15T13:24:47.000Z</time>
      </trkpt>
      <trkpt lat="45.08094" lon="5.9933">
        <ele>1283.1999511719</ele>
        <time>2024-10-15T13:24:48.000Z</time>
      </trkpt>
      <trkpt lat="45.08096" lon="5.99332">
        <ele>1283.1999511719</ele>
        <time>2024-10-15T13:24:49.000Z</time>
      </trkpt>
      <trkpt lat="45.08097" lon="5.99332">
        <ele>1283</ele>
        <time>2024-10-15T13:24:50.000Z</time>
      </trkpt>
      <trkpt lat="45.08098" lon="5.99332">
        <ele>1282.8000488281</ele>
        <time>2024-10-15T13:24:51.000Z</time>
      </trkpt>
      <trkpt lat="45.08099" lon="5.99332">
        <ele>1282.8000488281</ele>
        <time>2024-10-15T13:24:52.000Z</time>
      </trkpt>
      <trkpt lat="45.081" lon="5.99332">
        <ele>1282.8000488281</ele>
        <time>2024-10-15T13:24:53.000Z</time>
      </trkpt>
      <trkpt lat="45.08101" lon="5.99332">
        <ele>1282.4000244141</ele>
        <time>2024-10-15T13:24:54.000Z</time>
      </trkpt>
      <trkpt lat="45.08103" lon="5.99332">
        <ele>1282.4000244141</ele>
        <time>2024-10-15T13:24:55.000Z</time>
      </trkpt>
      <trkpt lat="45.08105" lon="5.99332">
        <ele>1282.1999511719</ele>
        <time>2024-10-15T13:24:56.000Z</time>
      </trkpt>
      <trkpt lat="45.08108" lon="5.99333">
        <ele>1282.1999511719</ele>
        <time>2024-10-15T13:24:57.000Z</time>
      </trkpt>
      <trkpt lat="45.0811" lon="5.99333">
        <ele>1282.1999511719</ele>
        <time>2024-10-15T13:24:58.000Z</time>
      </trkpt>
      <trkpt lat="45.08111" lon="5.99332">
        <ele>1282</ele>
        <time>2024-10-15T13:24:59.000Z</time>
      </trkpt>
      <trkpt lat="45.08113" lon="5.99332">
        <ele>1282</ele>
        <time>2024-10-15T13:25:00.000Z</time>
      </trkpt>
      <trkpt lat="45.08114" lon="5.99333">
        <ele>1281.5999755859</ele>
        <time>2024-10-15T13:25:01.000Z</time>
      </trkpt>
      <trkpt lat="45.08115" lon="5.99333">
        <ele>1281.5999755859</ele>
        <time>2024-10-15T13:25:02.000Z</time>
      </trkpt>
      <trkpt lat="45.08115" lon="5.99333">
        <ele>1281.4000244141</ele>
        <time>2024-10-15T13:25:03.000Z</time>
      </trkpt>
      <trkpt lat="45.08116" lon="5.99333">
        <ele>1281.1999511719</ele>
        <time>2024-10-15T13:25:04.000Z</time>
      </trkpt>
      <trkpt lat="45.08116" lon="5.99333">
        <ele>1280.8000488281</ele>
        <time>2024-10-15T13:25:05.000Z</time>
      </trkpt>
      <trkpt lat="45.08117" lon="5.99333">
        <ele>1280.5999755859</ele>
        <time>2024-10-15T13:25:06.000Z</time>
      </trkpt>
      <trkpt lat="45.08117" lon="5.99333">
        <ele>1280.4000244141</ele>
        <time>2024-10-15T13:25:07.000Z</time>
      </trkpt>
      <trkpt lat="45.0812" lon="5.99333">
        <ele>1280.1999511719</ele>
        <time>2024-10-15T13:25:08.000Z</time>
      </trkpt>
      <trkpt lat="45.08122" lon="5.99334">
        <ele>1279.8000488281</ele>
        <time>2024-10-15T13:25:09.000Z</time>
      </trkpt>
      <trkpt lat="45.08124" lon="5.99335">
        <ele>1279.4000244141</ele>
        <time>2024-10-15T13:25:10.000Z</time>
      </trkpt>
      <trkpt lat="45.08126" lon="5.99335">
        <ele>1279</ele>
        <time>2024-10-15T13:25:11.000Z</time>
      </trkpt>
      <trkpt lat="45.08127" lon="5.99335">
        <ele>1279</ele>
        <time>2024-10-15T13:25:12.000Z</time>
      </trkpt>
      <trkpt lat="45.08128" lon="5.99336">
        <ele>1278.8000488281</ele>
        <time>2024-10-15T13:25:13.000Z</time>
      </trkpt>
      <trkpt lat="45.08129" lon="5.99336">
        <ele>1278.1999511719</ele>
        <time>2024-10-15T13:25:14.000Z</time>
      </trkpt>
      <trkpt lat="45.08131" lon="5.99336">
        <ele>1278.1999511719</ele>
        <time>2024-10-15T13:25:15.000Z</time>
      </trkpt>
      <trkpt lat="45.08131" lon="5.99336">
        <ele>1278</ele>
        <time>2024-10-15T13:25:16.000Z</time>
      </trkpt>
      <trkpt lat="45.08132" lon="5.99336">
        <ele>1277.8000488281</ele>
        <time>2024-10-15T13:25:17.000Z</time>
      </trkpt>
      <trkpt lat="45.08133" lon="5.99336">
        <ele>1277.1999511719</ele>
        <time>2024-10-15T13:25:18.000Z</time>
      </trkpt>
      <trkpt lat="45.08134" lon="5.99335">
        <ele>1277.1999511719</ele>
        <time>2024-10-15T13:25:19.000Z</time>
      </trkpt>
      <trkpt lat="45.08135" lon="5.99334">
        <ele>1277</ele>
        <time>2024-10-15T13:25:20.000Z</time>
      </trkpt>
      <trkpt lat="45.08136" lon="5.99335">
        <ele>1276.5999755859</ele>
        <time>2024-10-15T13:25:21.000Z</time>
      </trkpt>
      <trkpt lat="45.08137" lon="5.99335">
        <ele>1276.4000244141</ele>
        <time>2024-10-15T13:25:22.000Z</time>
      </trkpt>
      <trkpt lat="45.08138" lon="5.99335">
        <ele>1276.1999511719</ele>
        <time>2024-10-15T13:25:23.000Z</time>
      </trkpt>
      <trkpt lat="45.08139" lon="5.99335">
        <ele>1276.1999511719</ele>
        <time>2024-10-15T13:25:24.000Z</time>
      </trkpt>
      <trkpt lat="45.0814" lon="5.99334">
        <ele>1275.8000488281</ele>
        <time>2024-10-15T13:25:25.000Z</time>
      </trkpt>
      <trkpt lat="45.08142" lon="5.99336">
        <ele>1275.5999755859</ele>
        <time>2024-10-15T13:25:26.000Z</time>
      </trkpt>
      <trkpt lat="45.08144" lon="5.99336">
        <ele>1275</ele>
        <time>2024-10-15T13:25:27.000Z</time>
      </trkpt>
      <trkpt lat="45.08146" lon="5.99337">
        <ele>1274.5999755859</ele>
        <time>2024-10-15T13:25:28.000Z</time>
      </trkpt>
      <trkpt lat="45.08148" lon="5.99336">
        <ele>1274.1999511719</ele>
        <time>2024-10-15T13:25:29.000Z</time>
      </trkpt>
      <trkpt lat="45.0815" lon="5.99335">
        <ele>1274</ele>
        <time>2024-10-15T13:25:30.000Z</time>
      </trkpt>
      <trkpt lat="45.08151" lon="5.99334">
        <ele>1273.4000244141</ele>
        <time>2024-10-15T13:25:31.000Z</time>
      </trkpt>
      <trkpt lat="45.08154" lon="5.99332">
        <ele>1273</ele>
        <time>2024-10-15T13:25:32.000Z</time>
      </trkpt>
      <trkpt lat="45.08156" lon="5.99332">
        <ele>1272.4000244141</ele>
        <time>2024-10-15T13:25:33.000Z</time>
      </trkpt>
      <trkpt lat="45.08158" lon="5.99331">
        <ele>1272</ele>
        <time>2024-10-15T13:25:34.000Z</time>
      </trkpt>
      <trkpt lat="45.08158" lon="5.99332">
        <ele>1271.8000488281</ele>
        <time>2024-10-15T13:25:35.000Z</time>
      </trkpt>
      <trkpt lat="45.0816" lon="5.99331">
        <ele>1271.4000244141</ele>
        <time>2024-10-15T13:25:36.000Z</time>
      </trkpt>
      <trkpt lat="45.0816" lon="5.9933">
        <ele>1271.1999511719</ele>
        <time>2024-10-15T13:25:37.000Z</time>
      </trkpt>
      <trkpt lat="45.08162" lon="5.99327">
        <ele>1271</ele>
        <time>2024-10-15T13:25:38.000Z</time>
      </trkpt>
      <trkpt lat="45.08163" lon="5.99326">
        <ele>1270.8000488281</ele>
        <time>2024-10-15T13:25:39.000Z</time>
      </trkpt>
      <trkpt lat="45.08164" lon="5.99327">
        <ele>1270.1999511719</ele>
        <time>2024-10-15T13:25:40.000Z</time>
      </trkpt>
      <trkpt lat="45.08164" lon="5.99327">
        <ele>1269.8000488281</ele>
        <time>2024-10-15T13:25:41.000Z</time>
      </trkpt>
      <trkpt lat="45.08164" lon="5.99327">
        <ele>1269.5999755859</ele>
        <time>2024-10-15T13:25:42.000Z</time>
      </trkpt>
      <trkpt lat="45.08165" lon="5.99327">
        <ele>1269.1999511719</ele>
        <time>2024-10-15T13:25:43.000Z</time>
      </trkpt>
      <trkpt lat="45.08166" lon="5.99327">
        <ele>1269</ele>
        <time>2024-10-15T13:25:44.000Z</time>
      </trkpt>
      <trkpt lat="45.08167" lon="5.99327">
        <ele>1268.8000488281</ele>
        <time>2024-10-15T13:25:45.000Z</time>
      </trkpt>
      <trkpt lat="45.08168" lon="5.99327">
        <ele>1268.5999755859</ele>
        <time>2024-10-15T13:25:46.000Z</time>
      </trkpt>
      <trkpt lat="45.0817" lon="5.99326">
        <ele>1268.1999511719</ele>
        <time>2024-10-15T13:25:47.000Z</time>
      </trkpt>
      <trkpt lat="45.08173" lon="5.99325">
        <ele>1268</ele>
        <time>2024-10-15T13:25:48.000Z</time>
      </trkpt>
      <trkpt lat="45.08176" lon="5.99325">
        <ele>1267.4000244141</ele>
        <time>2024-10-15T13:25:49.000Z</time>
      </trkpt>
      <trkpt lat="45.08177" lon="5.99325">
        <ele>1267.4000244141</ele>
        <time>2024-10-15T13:25:50.000Z</time>
      </trkpt>
      <trkpt lat="45.08178" lon="5.99324">
        <ele>1267</ele>
        <time>2024-10-15T13:25:51.000Z</time>
      </trkpt>
      <trkpt lat="45.08178" lon="5.99324">
        <ele>1267</ele>
        <time>2024-10-15T13:25:52.000Z</time>
      </trkpt>
      <trkpt lat="45.08179" lon="5.99323">
        <ele>1266.1999511719</ele>
        <time>2024-10-15T13:25:53.000Z</time>
      </trkpt>
      <trkpt lat="45.0818" lon="5.99324">
        <ele>1266.1999511719</ele>
        <time>2024-10-15T13:25:54.000Z</time>
      </trkpt>
      <trkpt lat="45.08181" lon="5.99324">
        <ele>1265.8000488281</ele>
        <time>2024-10-15T13:25:55.000Z</time>
      </trkpt>
      <trkpt lat="45.08182" lon="5.99324">
        <ele>1265.5999755859</ele>
        <time>2024-10-15T13:25:56.000Z</time>
      </trkpt>
      <trkpt lat="45.08183" lon="5.99324">
        <ele>1265.1999511719</ele>
        <time>2024-10-15T13:25:57.000Z</time>
      </trkpt>
      <trkpt lat="45.08184" lon="5.99324">
        <ele>1265</ele>
        <time>2024-10-15T13:25:58.000Z</time>
      </trkpt>
      <trkpt lat="45.08186" lon="5.99324">
        <ele>1264.5999755859</ele>
        <time>2024-10-15T13:25:59.000Z</time>
      </trkpt>
      <trkpt lat="45.08188" lon="5.99324">
        <ele>1264.4000244141</ele>
        <time>2024-10-15T13:26:00.000Z</time>
      </trkpt>
      <trkpt lat="45.08189" lon="5.99323">
        <ele>1264</ele>
        <time>2024-10-15T13:26:01.000Z</time>
      </trkpt>
      <trkpt lat="45.0819" lon="5.99323">
        <ele>1263.8000488281</ele>
        <time>2024-10-15T13:26:02.000Z</time>
      </trkpt>
      <trkpt lat="45.08191" lon="5.99322">
        <ele>1263.4000244141</ele>
        <time>2024-10-15T13:26:03.000Z</time>
      </trkpt>
      <trkpt lat="45.08192" lon="5.99322">
        <ele>1263.4000244141</ele>
        <time>2024-10-15T13:26:04.000Z</time>
      </trkpt>
      <trkpt lat="45.08194" lon="5.99321">
        <ele>1263</ele>
        <time>2024-10-15T13:26:05.000Z</time>
      </trkpt>
      <trkpt lat="45.08196" lon="5.9932">
        <ele>1262.8000488281</ele>
        <time>2024-10-15T13:26:06.000Z</time>
      </trkpt>
      <trkpt lat="45.08197" lon="5.99319">
        <ele>1262.5999755859</ele>
        <time>2024-10-15T13:26:07.000Z</time>
      </trkpt>
      <trkpt lat="45.08198" lon="5.99319">
        <ele>1262.1999511719</ele>
        <time>2024-10-15T13:26:08.000Z</time>
      </trkpt>
      <trkpt lat="45.08199" lon="5.99318">
        <ele>1262</ele>
        <time>2024-10-15T13:26:09.000Z</time>
      </trkpt>
      <trkpt lat="45.082" lon="5.99318">
        <ele>1261.8000488281</ele>
        <time>2024-10-15T13:26:10.000Z</time>
      </trkpt>
      <trkpt lat="45.08201" lon="5.99318">
        <ele>1261.5999755859</ele>
        <time>2024-10-15T13:26:11.000Z</time>
      </trkpt>
      <trkpt lat="45.08203" lon="5.99318">
        <ele>1261.4000244141</ele>
        <time>2024-10-15T13:26:12.000Z</time>
      </trkpt>
      <trkpt lat="45.08204" lon="5.99317">
        <ele>1261</ele>
        <time>2024-10-15T13:26:13.000Z</time>
      </trkpt>
      <trkpt lat="45.08205" lon="5.99316">
        <ele>1261</ele>
        <time>2024-10-15T13:26:14.000Z</time>
      </trkpt>
      <trkpt lat="45.08206" lon="5.99316">
        <ele>1260.8000488281</ele>
        <time>2024-10-15T13:26:15.000Z</time>
      </trkpt>
      <trkpt lat="45.08207" lon="5.99316">
        <ele>1260.5999755859</ele>
        <time>2024-10-15T13:26:16.000Z</time>
      </trkpt>
      <trkpt lat="45.08208" lon="5.99317">
        <ele>1260.4000244141</ele>
        <time>2024-10-15T13:26:17.000Z</time>
      </trkpt>
      <trkpt lat="45.08209" lon="5.99317">
        <ele>1260.4000244141</ele>
        <time>2024-10-15T13:26:18.000Z</time>
      </trkpt>
      <trkpt lat="45.08211" lon="5.99317">
        <ele>1260.1999511719</ele>
        <time>2024-10-15T13:26:19.000Z</time>
      </trkpt>
      <trkpt lat="45.08212" lon="5.99318">
        <ele>1259.8000488281</ele>
        <time>2024-10-15T13:26:20.000Z</time>
      </trkpt>
      <trkpt lat="45.08214" lon="5.99319">
        <ele>1259.5999755859</ele>
        <time>2024-10-15T13:26:21.000Z</time>
      </trkpt>
      <trkpt lat="45.08216" lon="5.9932">
        <ele>1259.5999755859</ele>
        <time>2024-10-15T13:26:22.000Z</time>
      </trkpt>
      <trkpt lat="45.08217" lon="5.99323">
        <ele>1259.1999511719</ele>
        <time>2024-10-15T13:26:23.000Z</time>
      </trkpt>
      <trkpt lat="45.08219" lon="5.99324">
        <ele>1259.1999511719</ele>
        <time>2024-10-15T13:26:24.000Z</time>
      </trkpt>
      <trkpt lat="45.0822" lon="5.99324">
        <ele>1259</ele>
        <time>2024-10-15T13:26:25.000Z</time>
      </trkpt>
      <trkpt lat="45.08223" lon="5.99324">
        <ele>1259</ele>
        <time>2024-10-15T13:26:26.000Z</time>
      </trkpt>
      <trkpt lat="45.08225" lon="5.99324">
        <ele>1259</ele>
        <time>2024-10-15T13:26:27.000Z</time>
      </trkpt>
      <trkpt lat="45.08227" lon="5.99323">
        <ele>1258.8000488281</ele>
        <time>2024-10-15T13:26:28.000Z</time>
      </trkpt>
      <trkpt lat="45.08228" lon="5.99323">
        <ele>1258.8000488281</ele>
        <time>2024-10-15T13:26:29.000Z</time>
      </trkpt>
      <trkpt lat="45.08229" lon="5.99323">
        <ele>1258.8000488281</ele>
        <time>2024-10-15T13:26:30.000Z</time>
      </trkpt>
      <trkpt lat="45.0823" lon="5.99323">
        <ele>1258.8000488281</ele>
        <time>2024-10-15T13:26:31.000Z</time>
      </trkpt>
      <trkpt lat="45.08231" lon="5.99324">
        <ele>1258.8000488281</ele>
        <time>2024-10-15T13:26:32.000Z</time>
      </trkpt>
      <trkpt lat="45.08232" lon="5.99324">
        <ele>1258.8000488281</ele>
        <time>2024-10-15T13:26:33.000Z</time>
      </trkpt>
      <trkpt lat="45.08234" lon="5.99323">
        <ele>1258.8000488281</ele>
        <time>2024-10-15T13:26:34.000Z</time>
      </trkpt>
      <trkpt lat="45.08235" lon="5.99323">
        <ele>1258.8000488281</ele>
        <time>2024-10-15T13:26:35.000Z</time>
      </trkpt>
      <trkpt lat="45.08237" lon="5.99324">
        <ele>1258.5999755859</ele>
        <time>2024-10-15T13:26:36.000Z</time>
      </trkpt>
      <trkpt lat="45.08239" lon="5.99325">
        <ele>1258.4000244141</ele>
        <time>2024-10-15T13:26:37.000Z</time>
      </trkpt>
      <trkpt lat="45.0824" lon="5.99325">
        <ele>1258.1999511719</ele>
        <time>2024-10-15T13:26:38.000Z</time>
      </trkpt>
      <trkpt lat="45.08242" lon="5.99326">
        <ele>1258</ele>
        <time>2024-10-15T13:26:39.000Z</time>
      </trkpt>
      <trkpt lat="45.08243" lon="5.99326">
        <ele>1257.8000488281</ele>
        <time>2024-10-15T13:26:40.000Z</time>
      </trkpt>
      <trkpt lat="45.08244" lon="5.99327">
        <ele>1257.1999511719</ele>
        <time>2024-10-15T13:26:41.000Z</time>
      </trkpt>
      <trkpt lat="45.08244" lon="5.99327">
        <ele>1257</ele>
        <time>2024-10-15T13:26:42.000Z</time>
      </trkpt>
      <trkpt lat="45.08245" lon="5.99327">
        <ele>1256.5999755859</ele>
        <time>2024-10-15T13:26:43.000Z</time>
      </trkpt>
      <trkpt lat="45.08247" lon="5.99326">
        <ele>1256.1999511719</ele>
        <time>2024-10-15T13:26:44.000Z</time>
      </trkpt>
      <trkpt lat="45.08248" lon="5.99323">
        <ele>1256.1999511719</ele>
        <time>2024-10-15T13:26:45.000Z</time>
      </trkpt>
      <trkpt lat="45.0825" lon="5.99322">
        <ele>1256</ele>
        <time>2024-10-15T13:26:46.000Z</time>
      </trkpt>
      <trkpt lat="45.08252" lon="5.99321">
        <ele>1255.8000488281</ele>
        <time>2024-10-15T13:26:47.000Z</time>
      </trkpt>
      <trkpt lat="45.08252" lon="5.9932">
        <ele>1255.5999755859</ele>
        <time>2024-10-15T13:26:48.000Z</time>
      </trkpt>
      <trkpt lat="45.08254" lon="5.99318">
        <ele>1255.1999511719</ele>
        <time>2024-10-15T13:26:49.000Z</time>
      </trkpt>
      <trkpt lat="45.08256" lon="5.99318">
        <ele>1254.8000488281</ele>
        <time>2024-10-15T13:26:50.000Z</time>
      </trkpt>
      <trkpt lat="45.08257" lon="5.99317">
        <ele>1254.4000244141</ele>
        <time>2024-10-15T13:26:51.000Z</time>
      </trkpt>
      <trkpt lat="45.08258" lon="5.99317">
        <ele>1254.1999511719</ele>
        <time>2024-10-15T13:26:52.000Z</time>
      </trkpt>
      <trkpt lat="45.08259" lon="5.99316">
        <ele>1253.8000488281</ele>
        <time>2024-10-15T13:26:53.000Z</time>
      </trkpt>
      <trkpt lat="45.0826" lon="5.99317">
        <ele>1253.4000244141</ele>
        <time>2024-10-15T13:26:54.000Z</time>
      </trkpt>
      <trkpt lat="45.08261" lon="5.99317">
        <ele>1253</ele>
        <time>2024-10-15T13:26:55.000Z</time>
      </trkpt>
      <trkpt lat="45.08263" lon="5.99318">
        <ele>1252.5999755859</ele>
        <time>2024-10-15T13:26:56.000Z</time>
      </trkpt>
      <trkpt lat="45.08264" lon="5.99318">
        <ele>1252.1999511719</ele>
        <time>2024-10-15T13:26:57.000Z</time>
      </trkpt>
      <trkpt lat="45.08266" lon="5.99319">
        <ele>1251.8000488281</ele>
        <time>2024-10-15T13:26:58.000Z</time>
      </trkpt>
      <trkpt lat="45.08268" lon="5.99318">
        <ele>1251.4000244141</ele>
        <time>2024-10-15T13:26:59.000Z</time>
      </trkpt>
      <trkpt lat="45.0827" lon="5.99316">
        <ele>1251.1999511719</ele>
        <time>2024-10-15T13:27:00.000Z</time>
      </trkpt>
      <trkpt lat="45.08271" lon="5.99317">
        <ele>1250.8000488281</ele>
        <time>2024-10-15T13:27:01.000Z</time>
      </trkpt>
      <trkpt lat="45.08272" lon="5.99317">
        <ele>1250.1999511719</ele>
        <time>2024-10-15T13:27:02.000Z</time>
      </trkpt>
      <trkpt lat="45.08273" lon="5.99317">
        <ele>1249.8000488281</ele>
        <time>2024-10-15T13:27:03.000Z</time>
      </trkpt>
      <trkpt lat="45.08275" lon="5.99317">
        <ele>1249.1999511719</ele>
        <time>2024-10-15T13:27:04.000Z</time>
      </trkpt>
      <trkpt lat="45.08276" lon="5.99316">
        <ele>1248.5999755859</ele>
        <time>2024-10-15T13:27:05.000Z</time>
      </trkpt>
      <trkpt lat="45.08276" lon="5.99316">
        <ele>1248</ele>
        <time>2024-10-15T13:27:06.000Z</time>
      </trkpt>
      <trkpt lat="45.08277" lon="5.99315">
        <ele>1247.4000244141</ele>
        <time>2024-10-15T13:27:07.000Z</time>
      </trkpt>
      <trkpt lat="45.08277" lon="5.99315">
        <ele>1246.8000488281</ele>
        <time>2024-10-15T13:27:08.000Z</time>
      </trkpt>
      <trkpt lat="45.08278" lon="5.99315">
        <ele>1246.1999511719</ele>
        <time>2024-10-15T13:27:09.000Z</time>
      </trkpt>
      <trkpt lat="45.08279" lon="5.99315">
        <ele>1245.8000488281</ele>
        <time>2024-10-15T13:27:10.000Z</time>
      </trkpt>
      <trkpt lat="45.08282" lon="5.99313">
        <ele>1245.1999511719</ele>
        <time>2024-10-15T13:27:11.000Z</time>
      </trkpt>
      <trkpt lat="45.08283" lon="5.99313">
        <ele>1244.8000488281</ele>
        <time>2024-10-15T13:27:12.000Z</time>
      </trkpt>
      <trkpt lat="45.08284" lon="5.99313">
        <ele>1244.4000244141</ele>
        <time>2024-10-15T13:27:13.000Z</time>
      </trkpt>
      <trkpt lat="45.08285" lon="5.99313">
        <ele>1244</ele>
        <time>2024-10-15T13:27:14.000Z</time>
      </trkpt>
      <trkpt lat="45.08286" lon="5.99313">
        <ele>1243.4000244141</ele>
        <time>2024-10-15T13:27:15.000Z</time>
      </trkpt>
      <trkpt lat="45.08286" lon="5.99312">
        <ele>1243.1999511719</ele>
        <time>2024-10-15T13:27:16.000Z</time>
      </trkpt>
      <trkpt lat="45.08287" lon="5.99312">
        <ele>1242.5999755859</ele>
        <time>2024-10-15T13:27:17.000Z</time>
      </trkpt>
      <trkpt lat="45.08288" lon="5.99311">
        <ele>1242.1999511719</ele>
        <time>2024-10-15T13:27:18.000Z</time>
      </trkpt>
      <trkpt lat="45.08288" lon="5.99311">
        <ele>1241.8000488281</ele>
        <time>2024-10-15T13:27:19.000Z</time>
      </trkpt>
      <trkpt lat="45.0829" lon="5.99311">
        <ele>1241.5999755859</ele>
        <time>2024-10-15T13:27:20.000Z</time>
      </trkpt>
      <trkpt lat="45.08291" lon="5.9931">
        <ele>1241.1999511719</ele>
        <time>2024-10-15T13:27:21.000Z</time>
      </trkpt>
      <trkpt lat="45.08292" lon="5.9931">
        <ele>1241</ele>
        <time>2024-10-15T13:27:22.000Z</time>
      </trkpt>
      <trkpt lat="45.08293" lon="5.9931">
        <ele>1240.5999755859</ele>
        <time>2024-10-15T13:27:23.000Z</time>
      </trkpt>
      <trkpt lat="45.08294" lon="5.99309">
        <ele>1240.5999755859</ele>
        <time>2024-10-15T13:27:24.000Z</time>
      </trkpt>
      <trkpt lat="45.08294" lon="5.99309">
        <ele>1240.1999511719</ele>
        <time>2024-10-15T13:27:25.000Z</time>
      </trkpt>
      <trkpt lat="45.08295" lon="5.99308">
        <ele>1240</ele>
        <time>2024-10-15T13:27:26.000Z</time>
      </trkpt>
      <trkpt lat="45.08296" lon="5.99307">
        <ele>1239.8000488281</ele>
        <time>2024-10-15T13:27:27.000Z</time>
      </trkpt>
      <trkpt lat="45.08298" lon="5.99307">
        <ele>1239.4000244141</ele>
        <time>2024-10-15T13:27:28.000Z</time>
      </trkpt>
      <trkpt lat="45.08298" lon="5.99306">
        <ele>1239.1999511719</ele>
        <time>2024-10-15T13:27:29.000Z</time>
      </trkpt>
      <trkpt lat="45.08299" lon="5.99306">
        <ele>1239</ele>
        <time>2024-10-15T13:27:30.000Z</time>
      </trkpt>
      <trkpt lat="45.083" lon="5.99304">
        <ele>1238.8000488281</ele>
        <time>2024-10-15T13:27:31.000Z</time>
      </trkpt>
      <trkpt lat="45.08301" lon="5.99303">
        <ele>1238.8000488281</ele>
        <time>2024-10-15T13:27:32.000Z</time>
      </trkpt>
      <trkpt lat="45.08302" lon="5.99302">
        <ele>1238.5999755859</ele>
        <time>2024-10-15T13:27:33.000Z</time>
      </trkpt>
      <trkpt lat="45.08303" lon="5.99302">
        <ele>1238.4000244141</ele>
        <time>2024-10-15T13:27:34.000Z</time>
      </trkpt>
      <trkpt lat="45.08303" lon="5.993">
        <ele>1238</ele>
        <time>2024-10-15T13:27:35.000Z</time>
      </trkpt>
      <trkpt lat="45.08304" lon="5.99299">
        <ele>1237.5999755859</ele>
        <time>2024-10-15T13:27:36.000Z</time>
      </trkpt>
      <trkpt lat="45.08305" lon="5.99298">
        <ele>1237.4000244141</ele>
        <time>2024-10-15T13:27:37.000Z</time>
      </trkpt>
      <trkpt lat="45.08306" lon="5.99296">
        <ele>1237.1999511719</ele>
        <time>2024-10-15T13:27:38.000Z</time>
      </trkpt>
      <trkpt lat="45.08307" lon="5.99295">
        <ele>1237.1999511719</ele>
        <time>2024-10-15T13:27:39.000Z</time>
      </trkpt>
      <trkpt lat="45.08308" lon="5.99294">
        <ele>1237</ele>
        <time>2024-10-15T13:27:40.000Z</time>
      </trkpt>
      <trkpt lat="45.08308" lon="5.99293">
        <ele>1236.5999755859</ele>
        <time>2024-10-15T13:27:41.000Z</time>
      </trkpt>
      <trkpt lat="45.08309" lon="5.99291">
        <ele>1236</ele>
        <time>2024-10-15T13:27:42.000Z</time>
      </trkpt>
      <trkpt lat="45.08309" lon="5.99291">
        <ele>1235.5999755859</ele>
        <time>2024-10-15T13:27:43.000Z</time>
      </trkpt>
      <trkpt lat="45.0831" lon="5.9929">
        <ele>1235.1999511719</ele>
        <time>2024-10-15T13:27:44.000Z</time>
      </trkpt>
      <trkpt lat="45.08311" lon="5.9929">
        <ele>1234.5999755859</ele>
        <time>2024-10-15T13:27:45.000Z</time>
      </trkpt>
      <trkpt lat="45.08313" lon="5.99291">
        <ele>1234.1999511719</ele>
        <time>2024-10-15T13:27:46.000Z</time>
      </trkpt>
      <trkpt lat="45.08314" lon="5.99293">
        <ele>1233.5999755859</ele>
        <time>2024-10-15T13:27:47.000Z</time>
      </trkpt>
      <trkpt lat="45.08316" lon="5.99295">
        <ele>1233.1999511719</ele>
        <time>2024-10-15T13:27:48.000Z</time>
      </trkpt>
      <trkpt lat="45.08317" lon="5.99296">
        <ele>1232.5999755859</ele>
        <time>2024-10-15T13:27:49.000Z</time>
      </trkpt>
      <trkpt lat="45.08318" lon="5.99299">
        <ele>1232.1999511719</ele>
        <time>2024-10-15T13:27:50.000Z</time>
      </trkpt>
      <trkpt lat="45.0832" lon="5.99301">
        <ele>1231.8000488281</ele>
        <time>2024-10-15T13:27:51.000Z</time>
      </trkpt>
      <trkpt lat="45.08321" lon="5.99304">
        <ele>1231.4000244141</ele>
        <time>2024-10-15T13:27:52.000Z</time>
      </trkpt>
      <trkpt lat="45.08322" lon="5.99306">
        <ele>1231</ele>
        <time>2024-10-15T13:27:53.000Z</time>
      </trkpt>
      <trkpt lat="45.08322" lon="5.99307">
        <ele>1230.4000244141</ele>
        <time>2024-10-15T13:27:54.000Z</time>
      </trkpt>
      <trkpt lat="45.08323" lon="5.99309">
        <ele>1230</ele>
        <time>2024-10-15T13:27:55.000Z</time>
      </trkpt>
      <trkpt lat="45.08325" lon="5.99312">
        <ele>1229.5999755859</ele>
        <time>2024-10-15T13:27:56.000Z</time>
      </trkpt>
      <trkpt lat="45.08327" lon="5.99314">
        <ele>1229</ele>
        <time>2024-10-15T13:27:57.000Z</time>
      </trkpt>
      <trkpt lat="45.08327" lon="5.99315">
        <ele>1228.4000244141</ele>
        <time>2024-10-15T13:27:58.000Z</time>
      </trkpt>
      <trkpt lat="45.08327" lon="5.99316">
        <ele>1228</ele>
        <time>2024-10-15T13:27:59.000Z</time>
      </trkpt>
      <trkpt lat="45.08328" lon="5.99318">
        <ele>1227.4000244141</ele>
        <time>2024-10-15T13:28:00.000Z</time>
      </trkpt>
      <trkpt lat="45.08329" lon="5.99318">
        <ele>1227</ele>
        <time>2024-10-15T13:28:01.000Z</time>
      </trkpt>
      <trkpt lat="45.0833" lon="5.9932">
        <ele>1226.4000244141</ele>
        <time>2024-10-15T13:28:02.000Z</time>
      </trkpt>
      <trkpt lat="45.08331" lon="5.99321">
        <ele>1226</ele>
        <time>2024-10-15T13:28:03.000Z</time>
      </trkpt>
      <trkpt lat="45.08332" lon="5.99321">
        <ele>1225.4000244141</ele>
        <time>2024-10-15T13:28:04.000Z</time>
      </trkpt>
      <trkpt lat="45.08332" lon="5.99321">
        <ele>1225</ele>
        <time>2024-10-15T13:28:05.000Z</time>
      </trkpt>
      <trkpt lat="45.08332" lon="5.99322">
        <ele>1224.5999755859</ele>
        <time>2024-10-15T13:28:06.000Z</time>
      </trkpt>
      <trkpt lat="45.08332" lon="5.99325">
        <ele>1224.1999511719</ele>
        <time>2024-10-15T13:28:07.000Z</time>
      </trkpt>
      <trkpt lat="45.08334" lon="5.99328">
        <ele>1223.8000488281</ele>
        <time>2024-10-15T13:28:08.000Z</time>
      </trkpt>
      <trkpt lat="45.08335" lon="5.9933">
        <ele>1223</ele>
        <time>2024-10-15T13:28:09.000Z</time>
      </trkpt>
      <trkpt lat="45.08335" lon="5.99333">
        <ele>1222.5999755859</ele>
        <time>2024-10-15T13:28:10.000Z</time>
      </trkpt>
      <trkpt lat="45.08335" lon="5.99334">
        <ele>1222.1999511719</ele>
        <time>2024-10-15T13:28:11.000Z</time>
      </trkpt>
      <trkpt lat="45.08335" lon="5.99335">
        <ele>1221.5999755859</ele>
        <time>2024-10-15T13:28:12.000Z</time>
      </trkpt>
      <trkpt lat="45.08335" lon="5.99335">
        <ele>1221.1999511719</ele>
        <time>2024-10-15T13:28:13.000Z</time>
      </trkpt>
      <trkpt lat="45.08334" lon="5.99334">
        <ele>1221</ele>
        <time>2024-10-15T13:28:14.000Z</time>
      </trkpt>
      <trkpt lat="45.08334" lon="5.99334">
        <ele>1220.5999755859</ele>
        <time>2024-10-15T13:28:15.000Z</time>
      </trkpt>
      <trkpt lat="45.08334" lon="5.99335">
        <ele>1220.1999511719</ele>
        <time>2024-10-15T13:28:16.000Z</time>
      </trkpt>
      <trkpt lat="45.08335" lon="5.99336">
        <ele>1219.8000488281</ele>
        <time>2024-10-15T13:28:17.000Z</time>
      </trkpt>
      <trkpt lat="45.08335" lon="5.99337">
        <ele>1219.4000244141</ele>
        <time>2024-10-15T13:28:18.000Z</time>
      </trkpt>
      <trkpt lat="45.08335" lon="5.99336">
        <ele>1218.8000488281</ele>
        <time>2024-10-15T13:28:19.000Z</time>
      </trkpt>
      <trkpt lat="45.08335" lon="5.99336">
        <ele>1218.4000244141</ele>
        <time>2024-10-15T13:28:20.000Z</time>
      </trkpt>
      <trkpt lat="45.08336" lon="5.99336">
        <ele>1218</ele>
        <time>2024-10-15T13:28:21.000Z</time>
      </trkpt>
      <trkpt lat="45.08336" lon="5.99337">
        <ele>1217.5999755859</ele>
        <time>2024-10-15T13:28:22.000Z</time>
      </trkpt>
      <trkpt lat="45.08337" lon="5.99339">
        <ele>1217.1999511719</ele>
        <time>2024-10-15T13:28:23.000Z</time>
      </trkpt>
      <trkpt lat="45.08337" lon="5.99341">
        <ele>1216.8000488281</ele>
        <time>2024-10-15T13:28:24.000Z</time>
      </trkpt>
      <trkpt lat="45.08337" lon="5.99341">
        <ele>1216.4000244141</ele>
        <time>2024-10-15T13:28:25.000Z</time>
      </trkpt>
      <trkpt lat="45.08338" lon="5.9934">
        <ele>1216</ele>
        <time>2024-10-15T13:28:26.000Z</time>
      </trkpt>
      <trkpt lat="45.08338" lon="5.99339">
        <ele>1215.4000244141</ele>
        <time>2024-10-15T13:28:27.000Z</time>
      </trkpt>
      <trkpt lat="45.08339" lon="5.99337">
        <ele>1214.8000488281</ele>
        <time>2024-10-15T13:28:28.000Z</time>
      </trkpt>
      <trkpt lat="45.08339" lon="5.99336">
        <ele>1214.4000244141</ele>
        <time>2024-10-15T13:28:29.000Z</time>
      </trkpt>
      <trkpt lat="45.0834" lon="5.99337">
        <ele>1214</ele>
        <time>2024-10-15T13:28:30.000Z</time>
      </trkpt>
      <trkpt lat="45.08341" lon="5.99338">
        <ele>1213.5999755859</ele>
        <time>2024-10-15T13:28:31.000Z</time>
      </trkpt>
      <trkpt lat="45.08341" lon="5.9934">
        <ele>1213.1999511719</ele>
        <time>2024-10-15T13:28:32.000Z</time>
      </trkpt>
      <trkpt lat="45.08341" lon="5.9934">
        <ele>1212.8000488281</ele>
        <time>2024-10-15T13:28:33.000Z</time>
      </trkpt>
      <trkpt lat="45.08342" lon="5.9934">
        <ele>1212.1999511719</ele>
        <time>2024-10-15T13:28:34.000Z</time>
      </trkpt>
      <trkpt lat="45.08342" lon="5.99341">
        <ele>1211.8000488281</ele>
        <time>2024-10-15T13:28:35.000Z</time>
      </trkpt>
      <trkpt lat="45.08343" lon="5.99341">
        <ele>1211.1999511719</ele>
        <time>2024-10-15T13:28:36.000Z</time>
      </trkpt>
      <trkpt lat="45.08344" lon="5.99341">
        <ele>1210.8000488281</ele>
        <time>2024-10-15T13:28:37.000Z</time>
      </trkpt>
      <trkpt lat="45.08345" lon="5.99342">
        <ele>1210.4000244141</ele>
        <time>2024-10-15T13:28:38.000Z</time>
      </trkpt>
      <trkpt lat="45.08345" lon="5.99343">
        <ele>1209.8000488281</ele>
        <time>2024-10-15T13:28:39.000Z</time>
      </trkpt>
      <trkpt lat="45.08346" lon="5.99344">
        <ele>1209</ele>
        <time>2024-10-15T13:28:40.000Z</time>
      </trkpt>
      <trkpt lat="45.08346" lon="5.99345">
        <ele>1208.4000244141</ele>
        <time>2024-10-15T13:28:41.000Z</time>
      </trkpt>
      <trkpt lat="45.08347" lon="5.99346">
        <ele>1207.8000488281</ele>
        <time>2024-10-15T13:28:42.000Z</time>
      </trkpt>
      <trkpt lat="45.08347" lon="5.99345">
        <ele>1207.1999511719</ele>
        <time>2024-10-15T13:28:43.000Z</time>
      </trkpt>
      <trkpt lat="45.08348" lon="5.99345">
        <ele>1206.8000488281</ele>
        <time>2024-10-15T13:28:44.000Z</time>
      </trkpt>
      <trkpt lat="45.0835" lon="5.99346">
        <ele>1206.4000244141</ele>
        <time>2024-10-15T13:28:45.000Z</time>
      </trkpt>
      <trkpt lat="45.0835" lon="5.99348">
        <ele>1205.8000488281</ele>
        <time>2024-10-15T13:28:46.000Z</time>
      </trkpt>
      <trkpt lat="45.08351" lon="5.99351">
        <ele>1205.1999511719</ele>
        <time>2024-10-15T13:28:47.000Z</time>
      </trkpt>
      <trkpt lat="45.08351" lon="5.99353">
        <ele>1205</ele>
        <time>2024-10-15T13:28:48.000Z</time>
      </trkpt>
      <trkpt lat="45.08351" lon="5.99356">
        <ele>1204.8000488281</ele>
        <time>2024-10-15T13:28:49.000Z</time>
      </trkpt>
      <trkpt lat="45.08351" lon="5.99358">
        <ele>1204.4000244141</ele>
        <time>2024-10-15T13:28:50.000Z</time>
      </trkpt>
      <trkpt lat="45.08352" lon="5.9936">
        <ele>1204</ele>
        <time>2024-10-15T13:28:51.000Z</time>
      </trkpt>
      <trkpt lat="45.08353" lon="5.99361">
        <ele>1203.8000488281</ele>
        <time>2024-10-15T13:28:52.000Z</time>
      </trkpt>
      <trkpt lat="45.08355" lon="5.99363">
        <ele>1203.4000244141</ele>
        <time>2024-10-15T13:28:53.000Z</time>
      </trkpt>
      <trkpt lat="45.08356" lon="5.99364">
        <ele>1203.1999511719</ele>
        <time>2024-10-15T13:28:54.000Z</time>
      </trkpt>
      <trkpt lat="45.08357" lon="5.99366">
        <ele>1202.5999755859</ele>
        <time>2024-10-15T13:28:55.000Z</time>
      </trkpt>
      <trkpt lat="45.08357" lon="5.99368">
        <ele>1202.1999511719</ele>
        <time>2024-10-15T13:28:56.000Z</time>
      </trkpt>
      <trkpt lat="45.08357" lon="5.99369">
        <ele>1201.8000488281</ele>
        <time>2024-10-15T13:28:57.000Z</time>
      </trkpt>
      <trkpt lat="45.08358" lon="5.99371">
        <ele>1201.1999511719</ele>
        <time>2024-10-15T13:28:58.000Z</time>
      </trkpt>
      <trkpt lat="45.08359" lon="5.99372">
        <ele>1200.8000488281</ele>
        <time>2024-10-15T13:28:59.000Z</time>
      </trkpt>
      <trkpt lat="45.0836" lon="5.99372">
        <ele>1200.4000244141</ele>
        <time>2024-10-15T13:29:00.000Z</time>
      </trkpt>
      <trkpt lat="45.0836" lon="5.99372">
        <ele>1200</ele>
        <time>2024-10-15T13:29:01.000Z</time>
      </trkpt>
      <trkpt lat="45.08359" lon="5.9937">
        <ele>1199.4000244141</ele>
        <time>2024-10-15T13:29:02.000Z</time>
      </trkpt>
      <trkpt lat="45.08358" lon="5.99368">
        <ele>1199.1999511719</ele>
        <time>2024-10-15T13:29:03.000Z</time>
      </trkpt>
      <trkpt lat="45.08358" lon="5.99368">
        <ele>1198.8000488281</ele>
        <time>2024-10-15T13:29:04.000Z</time>
      </trkpt>
      <trkpt lat="45.08358" lon="5.99368">
        <ele>1198.5999755859</ele>
        <time>2024-10-15T13:29:05.000Z</time>
      </trkpt>
      <trkpt lat="45.08359" lon="5.99367">
        <ele>1198.4000244141</ele>
        <time>2024-10-15T13:29:06.000Z</time>
      </trkpt>
      <trkpt lat="45.08359" lon="5.99366">
        <ele>1198</ele>
        <time>2024-10-15T13:29:07.000Z</time>
      </trkpt>
      <trkpt lat="45.08359" lon="5.99366">
        <ele>1197.4000244141</ele>
        <time>2024-10-15T13:29:08.000Z</time>
      </trkpt>
      <trkpt lat="45.0836" lon="5.99365">
        <ele>1197</ele>
        <time>2024-10-15T13:29:09.000Z</time>
      </trkpt>
      <trkpt lat="45.08361" lon="5.99365">
        <ele>1196.5999755859</ele>
        <time>2024-10-15T13:29:10.000Z</time>
      </trkpt>
      <trkpt lat="45.08362" lon="5.99366">
        <ele>1196.1999511719</ele>
        <time>2024-10-15T13:29:11.000Z</time>
      </trkpt>
      <trkpt lat="45.08363" lon="5.99366">
        <ele>1195.5999755859</ele>
        <time>2024-10-15T13:29:12.000Z</time>
      </trkpt>
      <trkpt lat="45.08365" lon="5.99367">
        <ele>1195</ele>
        <time>2024-10-15T13:29:13.000Z</time>
      </trkpt>
      <trkpt lat="45.08366" lon="5.99367">
        <ele>1194.5999755859</ele>
        <time>2024-10-15T13:29:14.000Z</time>
      </trkpt>
      <trkpt lat="45.08366" lon="5.99368">
        <ele>1194.4000244141</ele>
        <time>2024-10-15T13:29:15.000Z</time>
      </trkpt>
      <trkpt lat="45.08367" lon="5.99368">
        <ele>1194</ele>
        <time>2024-10-15T13:29:16.000Z</time>
      </trkpt>
      <trkpt lat="45.08368" lon="5.99368">
        <ele>1193.5999755859</ele>
        <time>2024-10-15T13:29:17.000Z</time>
      </trkpt>
      <trkpt lat="45.0837" lon="5.99367">
        <ele>1193.1999511719</ele>
        <time>2024-10-15T13:29:18.000Z</time>
      </trkpt>
      <trkpt lat="45.0837" lon="5.99365">
        <ele>1193</ele>
        <time>2024-10-15T13:29:19.000Z</time>
      </trkpt>
      <trkpt lat="45.0837" lon="5.99364">
        <ele>1192.8000488281</ele>
        <time>2024-10-15T13:29:20.000Z</time>
      </trkpt>
      <trkpt lat="45.08371" lon="5.99363">
        <ele>1192.1999511719</ele>
        <time>2024-10-15T13:29:21.000Z</time>
      </trkpt>
      <trkpt lat="45.08371" lon="5.99362">
        <ele>1191.8000488281</ele>
        <time>2024-10-15T13:29:22.000Z</time>
      </trkpt>
      <trkpt lat="45.08372" lon="5.99362">
        <ele>1191.4000244141</ele>
        <time>2024-10-15T13:29:23.000Z</time>
      </trkpt>
      <trkpt lat="45.08374" lon="5.99363">
        <ele>1190.8000488281</ele>
        <time>2024-10-15T13:29:24.000Z</time>
      </trkpt>
      <trkpt lat="45.08375" lon="5.99365">
        <ele>1190.4000244141</ele>
        <time>2024-10-15T13:29:25.000Z</time>
      </trkpt>
      <trkpt lat="45.08377" lon="5.99368">
        <ele>1190</ele>
        <time>2024-10-15T13:29:26.000Z</time>
      </trkpt>
      <trkpt lat="45.08378" lon="5.9937">
        <ele>1189.5999755859</ele>
        <time>2024-10-15T13:29:27.000Z</time>
      </trkpt>
      <trkpt lat="45.08378" lon="5.99373">
        <ele>1188.8000488281</ele>
        <time>2024-10-15T13:29:28.000Z</time>
      </trkpt>
      <trkpt lat="45.08378" lon="5.99374">
        <ele>1188.5999755859</ele>
        <time>2024-10-15T13:29:29.000Z</time>
      </trkpt>
      <trkpt lat="45.08379" lon="5.99376">
        <ele>1188.4000244141</ele>
        <time>2024-10-15T13:29:30.000Z</time>
      </trkpt>
      <trkpt lat="45.08379" lon="5.99378">
        <ele>1188.4000244141</ele>
        <time>2024-10-15T13:29:31.000Z</time>
      </trkpt>
      <trkpt lat="45.0838" lon="5.99379">
        <ele>1188.1999511719</ele>
        <time>2024-10-15T13:29:32.000Z</time>
      </trkpt>
      <trkpt lat="45.08379" lon="5.9938">
        <ele>1187.8000488281</ele>
        <time>2024-10-15T13:29:33.000Z</time>
      </trkpt>
      <trkpt lat="45.08378" lon="5.9938">
        <ele>1187.1999511719</ele>
        <time>2024-10-15T13:29:34.000Z</time>
      </trkpt>
      <trkpt lat="45.08378" lon="5.99379">
        <ele>1186.4000244141</ele>
        <time>2024-10-15T13:29:35.000Z</time>
      </trkpt>
      <trkpt lat="45.08379" lon="5.99378">
        <ele>1185.8000488281</ele>
        <time>2024-10-15T13:29:36.000Z</time>
      </trkpt>
      <trkpt lat="45.0838" lon="5.99377">
        <ele>1185.5999755859</ele>
        <time>2024-10-15T13:29:37.000Z</time>
      </trkpt>
      <trkpt lat="45.0838" lon="5.99375">
        <ele>1185.4000244141</ele>
        <time>2024-10-15T13:29:38.000Z</time>
      </trkpt>
      <trkpt lat="45.08381" lon="5.99375">
        <ele>1185</ele>
        <time>2024-10-15T13:29:39.000Z</time>
      </trkpt>
      <trkpt lat="45.08381" lon="5.99374">
        <ele>1184.8000488281</ele>
        <time>2024-10-15T13:29:40.000Z</time>
      </trkpt>
      <trkpt lat="45.08382" lon="5.99373">
        <ele>1184.4000244141</ele>
        <time>2024-10-15T13:29:41.000Z</time>
      </trkpt>
      <trkpt lat="45.08383" lon="5.99373">
        <ele>1184</ele>
        <time>2024-10-15T13:29:42.000Z</time>
      </trkpt>
      <trkpt lat="45.08383" lon="5.99372">
        <ele>1183.4000244141</ele>
        <time>2024-10-15T13:29:43.000Z</time>
      </trkpt>
      <trkpt lat="45.08384" lon="5.99371">
        <ele>1183</ele>
        <time>2024-10-15T13:29:44.000Z</time>
      </trkpt>
      <trkpt lat="45.08383" lon="5.99369">
        <ele>1182.5999755859</ele>
        <time>2024-10-15T13:29:45.000Z</time>
      </trkpt>
      <trkpt lat="45.08384" lon="5.99367">
        <ele>1182.4000244141</ele>
        <time>2024-10-15T13:29:46.000Z</time>
      </trkpt>
      <trkpt lat="45.08384" lon="5.99367">
        <ele>1182</ele>
        <time>2024-10-15T13:29:47.000Z</time>
      </trkpt>
      <trkpt lat="45.08384" lon="5.99366">
        <ele>1181.5999755859</ele>
        <time>2024-10-15T13:29:48.000Z</time>
      </trkpt>
      <trkpt lat="45.08384" lon="5.99365">
        <ele>1181.1999511719</ele>
        <time>2024-10-15T13:29:49.000Z</time>
      </trkpt>
      <trkpt lat="45.08384" lon="5.99365">
        <ele>1180.8000488281</ele>
        <time>2024-10-15T13:29:50.000Z</time>
      </trkpt>
      <trkpt lat="45.08384" lon="5.99364">
        <ele>1180.4000244141</ele>
        <time>2024-10-15T13:29:51.000Z</time>
      </trkpt>
      <trkpt lat="45.08385" lon="5.99363">
        <ele>1180.1999511719</ele>
        <time>2024-10-15T13:29:52.000Z</time>
      </trkpt>
      <trkpt lat="45.08385" lon="5.99363">
        <ele>1180</ele>
        <time>2024-10-15T13:29:53.000Z</time>
      </trkpt>
      <trkpt lat="45.08387" lon="5.99362">
        <ele>1179.5999755859</ele>
        <time>2024-10-15T13:29:54.000Z</time>
      </trkpt>
      <trkpt lat="45.08387" lon="5.99361">
        <ele>1179.1999511719</ele>
        <time>2024-10-15T13:29:55.000Z</time>
      </trkpt>
      <trkpt lat="45.08388" lon="5.9936">
        <ele>1178.5999755859</ele>
        <time>2024-10-15T13:29:56.000Z</time>
      </trkpt>
      <trkpt lat="45.08388" lon="5.99358">
        <ele>1178.1999511719</ele>
        <time>2024-10-15T13:29:57.000Z</time>
      </trkpt>
      <trkpt lat="45.08389" lon="5.99357">
        <ele>1177.5999755859</ele>
        <time>2024-10-15T13:29:58.000Z</time>
      </trkpt>
      <trkpt lat="45.0839" lon="5.99358">
        <ele>1177.1999511719</ele>
        <time>2024-10-15T13:29:59.000Z</time>
      </trkpt>
      <trkpt lat="45.08392" lon="5.99359">
        <ele>1176.8000488281</ele>
        <time>2024-10-15T13:30:00.000Z</time>
      </trkpt>
      <trkpt lat="45.08394" lon="5.99361">
        <ele>1176.1999511719</ele>
        <time>2024-10-15T13:30:01.000Z</time>
      </trkpt>
      <trkpt lat="45.08395" lon="5.99362">
        <ele>1175.8000488281</ele>
        <time>2024-10-15T13:30:02.000Z</time>
      </trkpt>
      <trkpt lat="45.08394" lon="5.99364">
        <ele>1175.4000244141</ele>
        <time>2024-10-15T13:30:03.000Z</time>
      </trkpt>
      <trkpt lat="45.08395" lon="5.99366">
        <ele>1174.8000488281</ele>
        <time>2024-10-15T13:30:04.000Z</time>
      </trkpt>
      <trkpt lat="45.08396" lon="5.99368">
        <ele>1174.4000244141</ele>
        <time>2024-10-15T13:30:05.000Z</time>
      </trkpt>
      <trkpt lat="45.08397" lon="5.99369">
        <ele>1174</ele>
        <time>2024-10-15T13:30:06.000Z</time>
      </trkpt>
      <trkpt lat="45.08397" lon="5.99371">
        <ele>1173.5999755859</ele>
        <time>2024-10-15T13:30:07.000Z</time>
      </trkpt>
      <trkpt lat="45.08398" lon="5.99373">
        <ele>1173.4000244141</ele>
        <time>2024-10-15T13:30:08.000Z</time>
      </trkpt>
      <trkpt lat="45.08398" lon="5.99375">
        <ele>1173.1999511719</ele>
        <time>2024-10-15T13:30:09.000Z</time>
      </trkpt>
      <trkpt lat="45.08398" lon="5.99377">
        <ele>1173.1999511719</ele>
        <time>2024-10-15T13:30:10.000Z</time>
      </trkpt>
      <trkpt lat="45.08399" lon="5.99379">
        <ele>1172.8000488281</ele>
        <time>2024-10-15T13:30:11.000Z</time>
      </trkpt>
      <trkpt lat="45.084" lon="5.99381">
        <ele>1172.8000488281</ele>
        <time>2024-10-15T13:30:12.000Z</time>
      </trkpt>
      <trkpt lat="45.084" lon="5.99383">
        <ele>1172.4000244141</ele>
        <time>2024-10-15T13:30:13.000Z</time>
      </trkpt>
      <trkpt lat="45.08399" lon="5.99386">
        <ele>1172.1999511719</ele>
        <time>2024-10-15T13:30:14.000Z</time>
      </trkpt>
      <trkpt lat="45.08399" lon="5.99387">
        <ele>1172</ele>
        <time>2024-10-15T13:30:15.000Z</time>
      </trkpt>
      <trkpt lat="45.08399" lon="5.99389">
        <ele>1171.8000488281</ele>
        <time>2024-10-15T13:30:16.000Z</time>
      </trkpt>
      <trkpt lat="45.08399" lon="5.99391">
        <ele>1171.5999755859</ele>
        <time>2024-10-15T13:30:17.000Z</time>
      </trkpt>
      <trkpt lat="45.08398" lon="5.99392">
        <ele>1171.4000244141</ele>
        <time>2024-10-15T13:30:18.000Z</time>
      </trkpt>
      <trkpt lat="45.08398" lon="5.99393">
        <ele>1171</ele>
        <time>2024-10-15T13:30:19.000Z</time>
      </trkpt>
      <trkpt lat="45.08398" lon="5.99394">
        <ele>1170.8000488281</ele>
        <time>2024-10-15T13:30:20.000Z</time>
      </trkpt>
      <trkpt lat="45.08397" lon="5.99396">
        <ele>1170.5999755859</ele>
        <time>2024-10-15T13:30:21.000Z</time>
      </trkpt>
      <trkpt lat="45.08397" lon="5.99397">
        <ele>1170.1999511719</ele>
        <time>2024-10-15T13:30:22.000Z</time>
      </trkpt>
      <trkpt lat="45.08397" lon="5.99399">
        <ele>1169.8000488281</ele>
        <time>2024-10-15T13:30:23.000Z</time>
      </trkpt>
      <trkpt lat="45.08398" lon="5.994">
        <ele>1169.4000244141</ele>
        <time>2024-10-15T13:30:24.000Z</time>
      </trkpt>
      <trkpt lat="45.08398" lon="5.99401">
        <ele>1169</ele>
        <time>2024-10-15T13:30:25.000Z</time>
      </trkpt>
      <trkpt lat="45.08397" lon="5.99402">
        <ele>1168.8000488281</ele>
        <time>2024-10-15T13:30:26.000Z</time>
      </trkpt>
      <trkpt lat="45.08397" lon="5.99404">
        <ele>1168.4000244141</ele>
        <time>2024-10-15T13:30:27.000Z</time>
      </trkpt>
      <trkpt lat="45.08398" lon="5.99405">
        <ele>1168</ele>
        <time>2024-10-15T13:30:28.000Z</time>
      </trkpt>
      <trkpt lat="45.08398" lon="5.99406">
        <ele>1167.8000488281</ele>
        <time>2024-10-15T13:30:29.000Z</time>
      </trkpt>
      <trkpt lat="45.08399" lon="5.99407">
        <ele>1167.4000244141</ele>
        <time>2024-10-15T13:30:30.000Z</time>
      </trkpt>
      <trkpt lat="45.08399" lon="5.99407">
        <ele>1167</ele>
        <time>2024-10-15T13:30:31.000Z</time>
      </trkpt>
      <trkpt lat="45.08399" lon="5.99408">
        <ele>1166.5999755859</ele>
        <time>2024-10-15T13:30:32.000Z</time>
      </trkpt>
      <trkpt lat="45.084" lon="5.99409">
        <ele>1166.1999511719</ele>
        <time>2024-10-15T13:30:33.000Z</time>
      </trkpt>
      <trkpt lat="45.084" lon="5.99408">
        <ele>1165.8000488281</ele>
        <time>2024-10-15T13:30:34.000Z</time>
      </trkpt>
      <trkpt lat="45.084" lon="5.99409">
        <ele>1165.4000244141</ele>
        <time>2024-10-15T13:30:35.000Z</time>
      </trkpt>
      <trkpt lat="45.08401" lon="5.99409">
        <ele>1165.1999511719</ele>
        <time>2024-10-15T13:30:36.000Z</time>
      </trkpt>
      <trkpt lat="45.08401" lon="5.9941">
        <ele>1164.8000488281</ele>
        <time>2024-10-15T13:30:37.000Z</time>
      </trkpt>
      <trkpt lat="45.08402" lon="5.9941">
        <ele>1164.4000244141</ele>
        <time>2024-10-15T13:30:38.000Z</time>
      </trkpt>
      <trkpt lat="45.08402" lon="5.99411">
        <ele>1164</ele>
        <time>2024-10-15T13:30:39.000Z</time>
      </trkpt>
      <trkpt lat="45.08403" lon="5.9941">
        <ele>1163.5999755859</ele>
        <time>2024-10-15T13:30:40.000Z</time>
      </trkpt>
      <trkpt lat="45.08403" lon="5.9941">
        <ele>1163.1999511719</ele>
        <time>2024-10-15T13:30:41.000Z</time>
      </trkpt>
      <trkpt lat="45.08403" lon="5.9941">
        <ele>1162.8000488281</ele>
        <time>2024-10-15T13:30:42.000Z</time>
      </trkpt>
      <trkpt lat="45.08404" lon="5.9941">
        <ele>1162.4000244141</ele>
        <time>2024-10-15T13:30:43.000Z</time>
      </trkpt>
      <trkpt lat="45.08404" lon="5.9941">
        <ele>1162.1999511719</ele>
        <time>2024-10-15T13:30:44.000Z</time>
      </trkpt>
      <trkpt lat="45.08405" lon="5.9941">
        <ele>1162</ele>
        <time>2024-10-15T13:30:45.000Z</time>
      </trkpt>
      <trkpt lat="45.08405" lon="5.9941">
        <ele>1161.5999755859</ele>
        <time>2024-10-15T13:30:46.000Z</time>
      </trkpt>
      <trkpt lat="45.08406" lon="5.9941">
        <ele>1161</ele>
        <time>2024-10-15T13:30:47.000Z</time>
      </trkpt>
      <trkpt lat="45.08407" lon="5.99411">
        <ele>1160.8000488281</ele>
        <time>2024-10-15T13:30:48.000Z</time>
      </trkpt>
      <trkpt lat="45.08408" lon="5.99411">
        <ele>1160.4000244141</ele>
        <time>2024-10-15T13:30:49.000Z</time>
      </trkpt>
      <trkpt lat="45.08408" lon="5.99411">
        <ele>1160</ele>
        <time>2024-10-15T13:30:50.000Z</time>
      </trkpt>
      <trkpt lat="45.08409" lon="5.99411">
        <ele>1159.5999755859</ele>
        <time>2024-10-15T13:30:51.000Z</time>
      </trkpt>
      <trkpt lat="45.0841" lon="5.9941">
        <ele>1159.4000244141</ele>
        <time>2024-10-15T13:30:52.000Z</time>
      </trkpt>
      <trkpt lat="45.0841" lon="5.99409">
        <ele>1159</ele>
        <time>2024-10-15T13:30:53.000Z</time>
      </trkpt>
      <trkpt lat="45.0841" lon="5.99409">
        <ele>1158.8000488281</ele>
        <time>2024-10-15T13:30:54.000Z</time>
      </trkpt>
      <trkpt lat="45.0841" lon="5.99408">
        <ele>1158.1999511719</ele>
        <time>2024-10-15T13:30:55.000Z</time>
      </trkpt>
      <trkpt lat="45.0841" lon="5.99409">
        <ele>1158</ele>
        <time>2024-10-15T13:30:56.000Z</time>
      </trkpt>
      <trkpt lat="45.08411" lon="5.99409">
        <ele>1158</ele>
        <time>2024-10-15T13:30:57.000Z</time>
      </trkpt>
      <trkpt lat="45.08411" lon="5.99408">
        <ele>1158</ele>
        <time>2024-10-15T13:30:58.000Z</time>
      </trkpt>
      <trkpt lat="45.08412" lon="5.99408">
        <ele>1157.5999755859</ele>
        <time>2024-10-15T13:30:59.000Z</time>
      </trkpt>
      <trkpt lat="45.08412" lon="5.99407">
        <ele>1157.4000244141</ele>
        <time>2024-10-15T13:31:00.000Z</time>
      </trkpt>
      <trkpt lat="45.08413" lon="5.99406">
        <ele>1157.1999511719</ele>
        <time>2024-10-15T13:31:01.000Z</time>
      </trkpt>
      <trkpt lat="45.08413" lon="5.99406">
        <ele>1157</ele>
        <time>2024-10-15T13:31:02.000Z</time>
      </trkpt>
      <trkpt lat="45.08414" lon="5.99405">
        <ele>1156.8000488281</ele>
        <time>2024-10-15T13:31:03.000Z</time>
      </trkpt>
      <trkpt lat="45.08414" lon="5.99404">
        <ele>1156.4000244141</ele>
        <time>2024-10-15T13:31:04.000Z</time>
      </trkpt>
      <trkpt lat="45.08415" lon="5.99404">
        <ele>1156.1999511719</ele>
        <time>2024-10-15T13:31:05.000Z</time>
      </trkpt>
      <trkpt lat="45.08416" lon="5.99403">
        <ele>1155.8000488281</ele>
        <time>2024-10-15T13:31:06.000Z</time>
      </trkpt>
      <trkpt lat="45.08416" lon="5.99402">
        <ele>1155.4000244141</ele>
        <time>2024-10-15T13:31:07.000Z</time>
      </trkpt>
      <trkpt lat="45.08417" lon="5.994">
        <ele>1155</ele>
        <time>2024-10-15T13:31:08.000Z</time>
      </trkpt>
      <trkpt lat="45.08416" lon="5.99399">
        <ele>1154.5999755859</ele>
        <time>2024-10-15T13:31:09.000Z</time>
      </trkpt>
      <trkpt lat="45.08417" lon="5.99398">
        <ele>1154.4000244141</ele>
        <time>2024-10-15T13:31:10.000Z</time>
      </trkpt>
      <trkpt lat="45.08417" lon="5.99398">
        <ele>1154</ele>
        <time>2024-10-15T13:31:11.000Z</time>
      </trkpt>
      <trkpt lat="45.08418" lon="5.99397">
        <ele>1153.8000488281</ele>
        <time>2024-10-15T13:31:12.000Z</time>
      </trkpt>
      <trkpt lat="45.08418" lon="5.99397">
        <ele>1153.4000244141</ele>
        <time>2024-10-15T13:31:13.000Z</time>
      </trkpt>
      <trkpt lat="45.08419" lon="5.99396">
        <ele>1153.1999511719</ele>
        <time>2024-10-15T13:31:14.000Z</time>
      </trkpt>
      <trkpt lat="45.08419" lon="5.99394">
        <ele>1152.8000488281</ele>
        <time>2024-10-15T13:31:15.000Z</time>
      </trkpt>
      <trkpt lat="45.0842" lon="5.99393">
        <ele>1152.1999511719</ele>
        <time>2024-10-15T13:31:16.000Z</time>
      </trkpt>
      <trkpt lat="45.0842" lon="5.99393">
        <ele>1152</ele>
        <time>2024-10-15T13:31:17.000Z</time>
      </trkpt>
      <trkpt lat="45.08421" lon="5.99393">
        <ele>1151.5999755859</ele>
        <time>2024-10-15T13:31:18.000Z</time>
      </trkpt>
      <trkpt lat="45.08422" lon="5.99394">
        <ele>1151.1999511719</ele>
        <time>2024-10-15T13:31:19.000Z</time>
      </trkpt>
      <trkpt lat="45.08422" lon="5.99395">
        <ele>1150.8000488281</ele>
        <time>2024-10-15T13:31:20.000Z</time>
      </trkpt>
      <trkpt lat="45.08423" lon="5.99396">
        <ele>1150.4000244141</ele>
        <time>2024-10-15T13:31:21.000Z</time>
      </trkpt>
      <trkpt lat="45.08423" lon="5.99398">
        <ele>1150</ele>
        <time>2024-10-15T13:31:22.000Z</time>
      </trkpt>
      <trkpt lat="45.08423" lon="5.99399">
        <ele>1149.5999755859</ele>
        <time>2024-10-15T13:31:23.000Z</time>
      </trkpt>
      <trkpt lat="45.08424" lon="5.99401">
        <ele>1149.4000244141</ele>
        <time>2024-10-15T13:31:24.000Z</time>
      </trkpt>
      <trkpt lat="45.08424" lon="5.99401">
        <ele>1149</ele>
        <time>2024-10-15T13:31:25.000Z</time>
      </trkpt>
      <trkpt lat="45.08425" lon="5.994">
        <ele>1148.5999755859</ele>
        <time>2024-10-15T13:31:26.000Z</time>
      </trkpt>
      <trkpt lat="45.08426" lon="5.99399">
        <ele>1148.1999511719</ele>
        <time>2024-10-15T13:31:27.000Z</time>
      </trkpt>
      <trkpt lat="45.08426" lon="5.99399">
        <ele>1147.8000488281</ele>
        <time>2024-10-15T13:31:28.000Z</time>
      </trkpt>
      <trkpt lat="45.08426" lon="5.99398">
        <ele>1147.4000244141</ele>
        <time>2024-10-15T13:31:29.000Z</time>
      </trkpt>
      <trkpt lat="45.08426" lon="5.99397">
        <ele>1147</ele>
        <time>2024-10-15T13:31:30.000Z</time>
      </trkpt>
      <trkpt lat="45.08426" lon="5.99396">
        <ele>1146.8000488281</ele>
        <time>2024-10-15T13:31:31.000Z</time>
      </trkpt>
      <trkpt lat="45.08425" lon="5.99396">
        <ele>1146.4000244141</ele>
        <time>2024-10-15T13:31:32.000Z</time>
      </trkpt>
      <trkpt lat="45.08425" lon="5.99396">
        <ele>1146</ele>
        <time>2024-10-15T13:31:33.000Z</time>
      </trkpt>
      <trkpt lat="45.08426" lon="5.99394">
        <ele>1145.5999755859</ele>
        <time>2024-10-15T13:31:34.000Z</time>
      </trkpt>
      <trkpt lat="45.08426" lon="5.99393">
        <ele>1145.1999511719</ele>
        <time>2024-10-15T13:31:35.000Z</time>
      </trkpt>
      <trkpt lat="45.08427" lon="5.99393">
        <ele>1144.8000488281</ele>
        <time>2024-10-15T13:31:36.000Z</time>
      </trkpt>
      <trkpt lat="45.08428" lon="5.99393">
        <ele>1144.1999511719</ele>
        <time>2024-10-15T13:31:37.000Z</time>
      </trkpt>
      <trkpt lat="45.0843" lon="5.99394">
        <ele>1144</ele>
        <time>2024-10-15T13:31:38.000Z</time>
      </trkpt>
      <trkpt lat="45.08429" lon="5.99393">
        <ele>1143.8000488281</ele>
        <time>2024-10-15T13:31:39.000Z</time>
      </trkpt>
      <trkpt lat="45.0843" lon="5.99395">
        <ele>1143.4000244141</ele>
        <time>2024-10-15T13:31:40.000Z</time>
      </trkpt>
      <trkpt lat="45.08431" lon="5.99397">
        <ele>1143</ele>
        <time>2024-10-15T13:31:41.000Z</time>
      </trkpt>
      <trkpt lat="45.08433" lon="5.99398">
        <ele>1142.5999755859</ele>
        <time>2024-10-15T13:31:42.000Z</time>
      </trkpt>
      <trkpt lat="45.08434" lon="5.99399">
        <ele>1142</ele>
        <time>2024-10-15T13:31:43.000Z</time>
      </trkpt>
      <trkpt lat="45.08436" lon="5.994">
        <ele>1141.4000244141</ele>
        <time>2024-10-15T13:31:44.000Z</time>
      </trkpt>
      <trkpt lat="45.08438" lon="5.99401">
        <ele>1141</ele>
        <time>2024-10-15T13:31:45.000Z</time>
      </trkpt>
      <trkpt lat="45.08439" lon="5.99402">
        <ele>1140.5999755859</ele>
        <time>2024-10-15T13:31:46.000Z</time>
      </trkpt>
      <trkpt lat="45.08441" lon="5.99404">
        <ele>1140.1999511719</ele>
        <time>2024-10-15T13:31:47.000Z</time>
      </trkpt>
      <trkpt lat="45.08442" lon="5.99406">
        <ele>1139.8000488281</ele>
        <time>2024-10-15T13:31:48.000Z</time>
      </trkpt>
      <trkpt lat="45.08443" lon="5.99407">
        <ele>1139.4000244141</ele>
        <time>2024-10-15T13:31:49.000Z</time>
      </trkpt>
      <trkpt lat="45.08444" lon="5.99409">
        <ele>1139</ele>
        <time>2024-10-15T13:31:50.000Z</time>
      </trkpt>
      <trkpt lat="45.08444" lon="5.99411">
        <ele>1138.5999755859</ele>
        <time>2024-10-15T13:31:51.000Z</time>
      </trkpt>
      <trkpt lat="45.08444" lon="5.99413">
        <ele>1138.1999511719</ele>
        <time>2024-10-15T13:31:52.000Z</time>
      </trkpt>
      <trkpt lat="45.08445" lon="5.99415">
        <ele>1138</ele>
        <time>2024-10-15T13:31:53.000Z</time>
      </trkpt>
      <trkpt lat="45.08445" lon="5.99416">
        <ele>1137.5999755859</ele>
        <time>2024-10-15T13:31:54.000Z</time>
      </trkpt>
      <trkpt lat="45.08445" lon="5.99418">
        <ele>1137.1999511719</ele>
        <time>2024-10-15T13:31:55.000Z</time>
      </trkpt>
      <trkpt lat="45.08445" lon="5.9942">
        <ele>1136.8000488281</ele>
        <time>2024-10-15T13:31:56.000Z</time>
      </trkpt>
      <trkpt lat="45.08445" lon="5.99422">
        <ele>1136.5999755859</ele>
        <time>2024-10-15T13:31:57.000Z</time>
      </trkpt>
      <trkpt lat="45.08446" lon="5.99424">
        <ele>1136.1999511719</ele>
        <time>2024-10-15T13:31:58.000Z</time>
      </trkpt>
      <trkpt lat="45.08446" lon="5.99426">
        <ele>1135.8000488281</ele>
        <time>2024-10-15T13:31:59.000Z</time>
      </trkpt>
      <trkpt lat="45.08445" lon="5.99428">
        <ele>1135.5999755859</ele>
        <time>2024-10-15T13:32:00.000Z</time>
      </trkpt>
      <trkpt lat="45.08445" lon="5.9943">
        <ele>1135.1999511719</ele>
        <time>2024-10-15T13:32:01.000Z</time>
      </trkpt>
      <trkpt lat="45.08445" lon="5.99434">
        <ele>1135</ele>
        <time>2024-10-15T13:32:02.000Z</time>
      </trkpt>
      <trkpt lat="45.08445" lon="5.99437">
        <ele>1134.8000488281</ele>
        <time>2024-10-15T13:32:03.000Z</time>
      </trkpt>
      <trkpt lat="45.08446" lon="5.99439">
        <ele>1134.4000244141</ele>
        <time>2024-10-15T13:32:04.000Z</time>
      </trkpt>
      <trkpt lat="45.08446" lon="5.9944">
        <ele>1133.8000488281</ele>
        <time>2024-10-15T13:32:05.000Z</time>
      </trkpt>
      <trkpt lat="45.08444" lon="5.99439">
        <ele>1133.4000244141</ele>
        <time>2024-10-15T13:32:06.000Z</time>
      </trkpt>
      <trkpt lat="45.08443" lon="5.99438">
        <ele>1133</ele>
        <time>2024-10-15T13:32:07.000Z</time>
      </trkpt>
      <trkpt lat="45.08443" lon="5.99436">
        <ele>1132.1999511719</ele>
        <time>2024-10-15T13:32:08.000Z</time>
      </trkpt>
      <trkpt lat="45.08443" lon="5.99434">
        <ele>1132</ele>
        <time>2024-10-15T13:32:09.000Z</time>
      </trkpt>
      <trkpt lat="45.08443" lon="5.99432">
        <ele>1131.4000244141</ele>
        <time>2024-10-15T13:32:10.000Z</time>
      </trkpt>
      <trkpt lat="45.08443" lon="5.9943">
        <ele>1131.1999511719</ele>
        <time>2024-10-15T13:32:11.000Z</time>
      </trkpt>
      <trkpt lat="45.08443" lon="5.99429">
        <ele>1131</ele>
        <time>2024-10-15T13:32:12.000Z</time>
      </trkpt>
      <trkpt lat="45.08443" lon="5.99427">
        <ele>1130.8000488281</ele>
        <time>2024-10-15T13:32:13.000Z</time>
      </trkpt>
      <trkpt lat="45.08443" lon="5.99426">
        <ele>1130.4000244141</ele>
        <time>2024-10-15T13:32:14.000Z</time>
      </trkpt>
      <trkpt lat="45.08443" lon="5.99425">
        <ele>1130</ele>
        <time>2024-10-15T13:32:15.000Z</time>
      </trkpt>
      <trkpt lat="45.08443" lon="5.99424">
        <ele>1129.4000244141</ele>
        <time>2024-10-15T13:32:16.000Z</time>
      </trkpt>
      <trkpt lat="45.08445" lon="5.99424">
        <ele>1128.8000488281</ele>
        <time>2024-10-15T13:32:17.000Z</time>
      </trkpt>
      <trkpt lat="45.08446" lon="5.99424">
        <ele>1128.5999755859</ele>
        <time>2024-10-15T13:32:18.000Z</time>
      </trkpt>
      <trkpt lat="45.08447" lon="5.99425">
        <ele>1128</ele>
        <time>2024-10-15T13:32:19.000Z</time>
      </trkpt>
      <trkpt lat="45.08448" lon="5.99428">
        <ele>1127.8000488281</ele>
        <time>2024-10-15T13:32:20.000Z</time>
      </trkpt>
      <trkpt lat="45.0845" lon="5.99429">
        <ele>1127.4000244141</ele>
        <time>2024-10-15T13:32:21.000Z</time>
      </trkpt>
      <trkpt lat="45.08451" lon="5.99431">
        <ele>1127</ele>
        <time>2024-10-15T13:32:22.000Z</time>
      </trkpt>
      <trkpt lat="45.08453" lon="5.99434">
        <ele>1126.5999755859</ele>
        <time>2024-10-15T13:32:23.000Z</time>
      </trkpt>
      <trkpt lat="45.08453" lon="5.99436">
        <ele>1126</ele>
        <time>2024-10-15T13:32:24.000Z</time>
      </trkpt>
      <trkpt lat="45.08454" lon="5.99437">
        <ele>1125.5999755859</ele>
        <time>2024-10-15T13:32:25.000Z</time>
      </trkpt>
      <trkpt lat="45.08455" lon="5.99439">
        <ele>1125</ele>
        <time>2024-10-15T13:32:26.000Z</time>
      </trkpt>
      <trkpt lat="45.08457" lon="5.9944">
        <ele>1124.8000488281</ele>
        <time>2024-10-15T13:32:27.000Z</time>
      </trkpt>
      <trkpt lat="45.08458" lon="5.99442">
        <ele>1124.1999511719</ele>
        <time>2024-10-15T13:32:28.000Z</time>
      </trkpt>
      <trkpt lat="45.0846" lon="5.99443">
        <ele>1123.8000488281</ele>
        <time>2024-10-15T13:32:29.000Z</time>
      </trkpt>
      <trkpt lat="45.08461" lon="5.99446">
        <ele>1123.1999511719</ele>
        <time>2024-10-15T13:32:30.000Z</time>
      </trkpt>
      <trkpt lat="45.08462" lon="5.99448">
        <ele>1123</ele>
        <time>2024-10-15T13:32:31.000Z</time>
      </trkpt>
      <trkpt lat="45.08462" lon="5.9945">
        <ele>1122.5999755859</ele>
        <time>2024-10-15T13:32:32.000Z</time>
      </trkpt>
      <trkpt lat="45.08462" lon="5.99451">
        <ele>1122.1999511719</ele>
        <time>2024-10-15T13:32:33.000Z</time>
      </trkpt>
      <trkpt lat="45.08462" lon="5.99453">
        <ele>1122</ele>
        <time>2024-10-15T13:32:34.000Z</time>
      </trkpt>
      <trkpt lat="45.08462" lon="5.99455">
        <ele>1121.5999755859</ele>
        <time>2024-10-15T13:32:35.000Z</time>
      </trkpt>
      <trkpt lat="45.08463" lon="5.99457">
        <ele>1121.1999511719</ele>
        <time>2024-10-15T13:32:36.000Z</time>
      </trkpt>
      <trkpt lat="45.08462" lon="5.99458">
        <ele>1120.8000488281</ele>
        <time>2024-10-15T13:32:37.000Z</time>
      </trkpt>
      <trkpt lat="45.08461" lon="5.9946">
        <ele>1120.5999755859</ele>
        <time>2024-10-15T13:32:38.000Z</time>
      </trkpt>
      <trkpt lat="45.08459" lon="5.99462">
        <ele>1120.1999511719</ele>
        <time>2024-10-15T13:32:39.000Z</time>
      </trkpt>
      <trkpt lat="45.08459" lon="5.99463">
        <ele>1119.8000488281</ele>
        <time>2024-10-15T13:32:40.000Z</time>
      </trkpt>
      <trkpt lat="45.08458" lon="5.99464">
        <ele>1119.4000244141</ele>
        <time>2024-10-15T13:32:41.000Z</time>
      </trkpt>
      <trkpt lat="45.08459" lon="5.99465">
        <ele>1119.1999511719</ele>
        <time>2024-10-15T13:32:42.000Z</time>
      </trkpt>
      <trkpt lat="45.08459" lon="5.99466">
        <ele>1118.8000488281</ele>
        <time>2024-10-15T13:32:43.000Z</time>
      </trkpt>
      <trkpt lat="45.08461" lon="5.99468">
        <ele>1118.4000244141</ele>
        <time>2024-10-15T13:32:44.000Z</time>
      </trkpt>
      <trkpt lat="45.08461" lon="5.99469">
        <ele>1118</ele>
        <time>2024-10-15T13:32:45.000Z</time>
      </trkpt>
      <trkpt lat="45.0846" lon="5.99471">
        <ele>1117.4000244141</ele>
        <time>2024-10-15T13:32:46.000Z</time>
      </trkpt>
      <trkpt lat="45.0846" lon="5.99472">
        <ele>1117.1999511719</ele>
        <time>2024-10-15T13:32:47.000Z</time>
      </trkpt>
      <trkpt lat="45.08459" lon="5.99474">
        <ele>1116.8000488281</ele>
        <time>2024-10-15T13:32:48.000Z</time>
      </trkpt>
      <trkpt lat="45.0846" lon="5.99475">
        <ele>1116.4000244141</ele>
        <time>2024-10-15T13:32:49.000Z</time>
      </trkpt>
      <trkpt lat="45.0846" lon="5.99475">
        <ele>1116</ele>
        <time>2024-10-15T13:32:50.000Z</time>
      </trkpt>
      <trkpt lat="45.0846" lon="5.99475">
        <ele>1115.5999755859</ele>
        <time>2024-10-15T13:32:51.000Z</time>
      </trkpt>
      <trkpt lat="45.0846" lon="5.99475">
        <ele>1115.1999511719</ele>
        <time>2024-10-15T13:32:52.000Z</time>
      </trkpt>
      <trkpt lat="45.08459" lon="5.99474">
        <ele>1115</ele>
        <time>2024-10-15T13:32:53.000Z</time>
      </trkpt>
      <trkpt lat="45.08459" lon="5.99473">
        <ele>1114.5999755859</ele>
        <time>2024-10-15T13:32:54.000Z</time>
      </trkpt>
      <trkpt lat="45.08459" lon="5.99472">
        <ele>1114.1999511719</ele>
        <time>2024-10-15T13:32:55.000Z</time>
      </trkpt>
      <trkpt lat="45.08459" lon="5.99471">
        <ele>1113.8000488281</ele>
        <time>2024-10-15T13:32:56.000Z</time>
      </trkpt>
      <trkpt lat="45.08459" lon="5.99471">
        <ele>1113.4000244141</ele>
        <time>2024-10-15T13:32:57.000Z</time>
      </trkpt>
      <trkpt lat="45.0846" lon="5.99471">
        <ele>1113.1999511719</ele>
        <time>2024-10-15T13:32:58.000Z</time>
      </trkpt>
      <trkpt lat="45.08461" lon="5.99472">
        <ele>1112.5999755859</ele>
        <time>2024-10-15T13:32:59.000Z</time>
      </trkpt>
      <trkpt lat="45.08461" lon="5.99474">
        <ele>1112.4000244141</ele>
        <time>2024-10-15T13:33:00.000Z</time>
      </trkpt>
      <trkpt lat="45.08461" lon="5.99475">
        <ele>1112</ele>
        <time>2024-10-15T13:33:01.000Z</time>
      </trkpt>
      <trkpt lat="45.08462" lon="5.99477">
        <ele>1111.5999755859</ele>
        <time>2024-10-15T13:33:02.000Z</time>
      </trkpt>
      <trkpt lat="45.08462" lon="5.99477">
        <ele>1111</ele>
        <time>2024-10-15T13:33:03.000Z</time>
      </trkpt>
      <trkpt lat="45.08463" lon="5.99478">
        <ele>1110.5999755859</ele>
        <time>2024-10-15T13:33:04.000Z</time>
      </trkpt>
      <trkpt lat="45.08463" lon="5.99477">
        <ele>1110.4000244141</ele>
        <time>2024-10-15T13:33:05.000Z</time>
      </trkpt>
      <trkpt lat="45.08463" lon="5.99476">
        <ele>1110</ele>
        <time>2024-10-15T13:33:06.000Z</time>
      </trkpt>
      <trkpt lat="45.08464" lon="5.99475">
        <ele>1109.5999755859</ele>
        <time>2024-10-15T13:33:07.000Z</time>
      </trkpt>
      <trkpt lat="45.08464" lon="5.99473">
        <ele>1109.4000244141</ele>
        <time>2024-10-15T13:33:08.000Z</time>
      </trkpt>
      <trkpt lat="45.08465" lon="5.99472">
        <ele>1108.8000488281</ele>
        <time>2024-10-15T13:33:09.000Z</time>
      </trkpt>
      <trkpt lat="45.08465" lon="5.99471">
        <ele>1108.5999755859</ele>
        <time>2024-10-15T13:33:10.000Z</time>
      </trkpt>
      <trkpt lat="45.08466" lon="5.99469">
        <ele>1108.1999511719</ele>
        <time>2024-10-15T13:33:11.000Z</time>
      </trkpt>
      <trkpt lat="45.08467" lon="5.99468">
        <ele>1108</ele>
        <time>2024-10-15T13:33:12.000Z</time>
      </trkpt>
      <trkpt lat="45.08466" lon="5.99467">
        <ele>1107.5999755859</ele>
        <time>2024-10-15T13:33:13.000Z</time>
      </trkpt>
      <trkpt lat="45.08466" lon="5.99466">
        <ele>1107.4000244141</ele>
        <time>2024-10-15T13:33:14.000Z</time>
      </trkpt>
      <trkpt lat="45.08467" lon="5.99465">
        <ele>1107.1999511719</ele>
        <time>2024-10-15T13:33:15.000Z</time>
      </trkpt>
      <trkpt lat="45.08467" lon="5.99464">
        <ele>1107</ele>
        <time>2024-10-15T13:33:16.000Z</time>
      </trkpt>
      <trkpt lat="45.08468" lon="5.99463">
        <ele>1106.8000488281</ele>
        <time>2024-10-15T13:33:17.000Z</time>
      </trkpt>
      <trkpt lat="45.08468" lon="5.99461">
        <ele>1106.4000244141</ele>
        <time>2024-10-15T13:33:18.000Z</time>
      </trkpt>
      <trkpt lat="45.08468" lon="5.99461">
        <ele>1106.1999511719</ele>
        <time>2024-10-15T13:33:19.000Z</time>
      </trkpt>
      <trkpt lat="45.08469" lon="5.99459">
        <ele>1105.8000488281</ele>
        <time>2024-10-15T13:33:20.000Z</time>
      </trkpt>
      <trkpt lat="45.08469" lon="5.99458">
        <ele>1105.4000244141</ele>
        <time>2024-10-15T13:33:21.000Z</time>
      </trkpt>
      <trkpt lat="45.08469" lon="5.99458">
        <ele>1105.1999511719</ele>
        <time>2024-10-15T13:33:22.000Z</time>
      </trkpt>
      <trkpt lat="45.08468" lon="5.99456">
        <ele>1105</ele>
        <time>2024-10-15T13:33:23.000Z</time>
      </trkpt>
      <trkpt lat="45.08468" lon="5.99453">
        <ele>1104.4000244141</ele>
        <time>2024-10-15T13:33:24.000Z</time>
      </trkpt>
      <trkpt lat="45.08466" lon="5.99452">
        <ele>1104.1999511719</ele>
        <time>2024-10-15T13:33:25.000Z</time>
      </trkpt>
      <trkpt lat="45.08467" lon="5.99451">
        <ele>1104.1999511719</ele>
        <time>2024-10-15T13:33:26.000Z</time>
      </trkpt>
      <trkpt lat="45.08467" lon="5.99449">
        <ele>1104</ele>
        <time>2024-10-15T13:33:27.000Z</time>
      </trkpt>
      <trkpt lat="45.08467" lon="5.99447">
        <ele>1103.8000488281</ele>
        <time>2024-10-15T13:33:28.000Z</time>
      </trkpt>
      <trkpt lat="45.08467" lon="5.99445">
        <ele>1103.8000488281</ele>
        <time>2024-10-15T13:33:29.000Z</time>
      </trkpt>
      <trkpt lat="45.08467" lon="5.99443">
        <ele>1103.4000244141</ele>
        <time>2024-10-15T13:33:30.000Z</time>
      </trkpt>
      <trkpt lat="45.08467" lon="5.99441">
        <ele>1103.1999511719</ele>
        <time>2024-10-15T13:33:31.000Z</time>
      </trkpt>
      <trkpt lat="45.08467" lon="5.99439">
        <ele>1102.5999755859</ele>
        <time>2024-10-15T13:33:32.000Z</time>
      </trkpt>
      <trkpt lat="45.08467" lon="5.99438">
        <ele>1102.1999511719</ele>
        <time>2024-10-15T13:33:33.000Z</time>
      </trkpt>
      <trkpt lat="45.08467" lon="5.99435">
        <ele>1102</ele>
        <time>2024-10-15T13:33:34.000Z</time>
      </trkpt>
      <trkpt lat="45.08467" lon="5.99434">
        <ele>1101.5999755859</ele>
        <time>2024-10-15T13:33:35.000Z</time>
      </trkpt>
      <trkpt lat="45.08467" lon="5.99432">
        <ele>1101.4000244141</ele>
        <time>2024-10-15T13:33:36.000Z</time>
      </trkpt>
      <trkpt lat="45.08467" lon="5.9943">
        <ele>1101.1999511719</ele>
        <time>2024-10-15T13:33:37.000Z</time>
      </trkpt>
      <trkpt lat="45.08466" lon="5.99427">
        <ele>1101.1999511719</ele>
        <time>2024-10-15T13:33:38.000Z</time>
      </trkpt>
      <trkpt lat="45.08466" lon="5.99426">
        <ele>1101</ele>
        <time>2024-10-15T13:33:39.000Z</time>
      </trkpt>
      <trkpt lat="45.08466" lon="5.99425">
        <ele>1100.8000488281</ele>
        <time>2024-10-15T13:33:40.000Z</time>
      </trkpt>
      <trkpt lat="45.08466" lon="5.99423">
        <ele>1100.8000488281</ele>
        <time>2024-10-15T13:33:41.000Z</time>
      </trkpt>
      <trkpt lat="45.08466" lon="5.99422">
        <ele>1100.8000488281</ele>
        <time>2024-10-15T13:33:42.000Z</time>
      </trkpt>
      <trkpt lat="45.08466" lon="5.9942">
        <ele>1100.5999755859</ele>
        <time>2024-10-15T13:33:43.000Z</time>
      </trkpt>
      <trkpt lat="45.08466" lon="5.99418">
        <ele>1100.4000244141</ele>
        <time>2024-10-15T13:33:44.000Z</time>
      </trkpt>
      <trkpt lat="45.08466" lon="5.99417">
        <ele>1100</ele>
        <time>2024-10-15T13:33:45.000Z</time>
      </trkpt>
      <trkpt lat="45.08466" lon="5.99416">
        <ele>1099.8000488281</ele>
        <time>2024-10-15T13:33:46.000Z</time>
      </trkpt>
      <trkpt lat="45.08466" lon="5.99414">
        <ele>1099.5999755859</ele>
        <time>2024-10-15T13:33:47.000Z</time>
      </trkpt>
      <trkpt lat="45.08466" lon="5.99412">
        <ele>1099.5999755859</ele>
        <time>2024-10-15T13:33:48.000Z</time>
      </trkpt>
      <trkpt lat="45.08466" lon="5.99411">
        <ele>1099.1999511719</ele>
        <time>2024-10-15T13:33:49.000Z</time>
      </trkpt>
      <trkpt lat="45.08466" lon="5.9941">
        <ele>1099</ele>
        <time>2024-10-15T13:33:50.000Z</time>
      </trkpt>
      <trkpt lat="45.08466" lon="5.99409">
        <ele>1098.4000244141</ele>
        <time>2024-10-15T13:33:51.000Z</time>
      </trkpt>
      <trkpt lat="45.08466" lon="5.99406">
        <ele>1098</ele>
        <time>2024-10-15T13:33:52.000Z</time>
      </trkpt>
      <trkpt lat="45.08466" lon="5.99405">
        <ele>1097.8000488281</ele>
        <time>2024-10-15T13:33:53.000Z</time>
      </trkpt>
      <trkpt lat="45.08466" lon="5.99403">
        <ele>1097.5999755859</ele>
        <time>2024-10-15T13:33:54.000Z</time>
      </trkpt>
      <trkpt lat="45.08466" lon="5.99401">
        <ele>1097.4000244141</ele>
        <time>2024-10-15T13:33:55.000Z</time>
      </trkpt>
      <trkpt lat="45.08466" lon="5.99399">
        <ele>1097.1999511719</ele>
        <time>2024-10-15T13:33:56.000Z</time>
      </trkpt>
      <trkpt lat="45.08467" lon="5.99396">
        <ele>1097</ele>
        <time>2024-10-15T13:33:57.000Z</time>
      </trkpt>
      <trkpt lat="45.08467" lon="5.99394">
        <ele>1096.5999755859</ele>
        <time>2024-10-15T13:33:58.000Z</time>
      </trkpt>
      <trkpt lat="45.08467" lon="5.99393">
        <ele>1096.1999511719</ele>
        <time>2024-10-15T13:33:59.000Z</time>
      </trkpt>
      <trkpt lat="45.08468" lon="5.99392">
        <ele>1095.8000488281</ele>
        <time>2024-10-15T13:34:00.000Z</time>
      </trkpt>
      <trkpt lat="45.08468" lon="5.99392">
        <ele>1095.4000244141</ele>
        <time>2024-10-15T13:34:01.000Z</time>
      </trkpt>
      <trkpt lat="45.08469" lon="5.99391">
        <ele>1095</ele>
        <time>2024-10-15T13:34:02.000Z</time>
      </trkpt>
      <trkpt lat="45.0847" lon="5.99391">
        <ele>1094.5999755859</ele>
        <time>2024-10-15T13:34:03.000Z</time>
      </trkpt>
      <trkpt lat="45.08472" lon="5.99392">
        <ele>1094.4000244141</ele>
        <time>2024-10-15T13:34:04.000Z</time>
      </trkpt>
      <trkpt lat="45.08474" lon="5.99393">
        <ele>1094.1999511719</ele>
        <time>2024-10-15T13:34:05.000Z</time>
      </trkpt>
      <trkpt lat="45.08475" lon="5.99394">
        <ele>1094</ele>
        <time>2024-10-15T13:34:06.000Z</time>
      </trkpt>
      <trkpt lat="45.08477" lon="5.99395">
        <ele>1093.4000244141</ele>
        <time>2024-10-15T13:34:07.000Z</time>
      </trkpt>
      <trkpt lat="45.08479" lon="5.99397">
        <ele>1093</ele>
        <time>2024-10-15T13:34:08.000Z</time>
      </trkpt>
      <trkpt lat="45.08481" lon="5.99399">
        <ele>1092.5999755859</ele>
        <time>2024-10-15T13:34:09.000Z</time>
      </trkpt>
      <trkpt lat="45.08484" lon="5.994">
        <ele>1092</ele>
        <time>2024-10-15T13:34:10.000Z</time>
      </trkpt>
      <trkpt lat="45.08486" lon="5.99401">
        <ele>1091.5999755859</ele>
        <time>2024-10-15T13:34:11.000Z</time>
      </trkpt>
      <trkpt lat="45.08488" lon="5.99402">
        <ele>1091.1999511719</ele>
        <time>2024-10-15T13:34:12.000Z</time>
      </trkpt>
      <trkpt lat="45.0849" lon="5.99403">
        <ele>1090.8000488281</ele>
        <time>2024-10-15T13:34:13.000Z</time>
      </trkpt>
      <trkpt lat="45.0849" lon="5.99404">
        <ele>1090.4000244141</ele>
        <time>2024-10-15T13:34:14.000Z</time>
      </trkpt>
      <trkpt lat="45.08492" lon="5.99407">
        <ele>1090</ele>
        <time>2024-10-15T13:34:15.000Z</time>
      </trkpt>
      <trkpt lat="45.08493" lon="5.99408">
        <ele>1089.5999755859</ele>
        <time>2024-10-15T13:34:16.000Z</time>
      </trkpt>
      <trkpt lat="45.08495" lon="5.99411">
        <ele>1089.1999511719</ele>
        <time>2024-10-15T13:34:17.000Z</time>
      </trkpt>
      <trkpt lat="45.08496" lon="5.99413">
        <ele>1088.8000488281</ele>
        <time>2024-10-15T13:34:18.000Z</time>
      </trkpt>
      <trkpt lat="45.08496" lon="5.99415">
        <ele>1088.1999511719</ele>
        <time>2024-10-15T13:34:19.000Z</time>
      </trkpt>
      <trkpt lat="45.08496" lon="5.99416">
        <ele>1087.8000488281</ele>
        <time>2024-10-15T13:34:20.000Z</time>
      </trkpt>
      <trkpt lat="45.08496" lon="5.99417">
        <ele>1087.4000244141</ele>
        <time>2024-10-15T13:34:21.000Z</time>
      </trkpt>
      <trkpt lat="45.08496" lon="5.99417">
        <ele>1087</ele>
        <time>2024-10-15T13:34:22.000Z</time>
      </trkpt>
      <trkpt lat="45.08496" lon="5.99418">
        <ele>1086.4000244141</ele>
        <time>2024-10-15T13:34:23.000Z</time>
      </trkpt>
      <trkpt lat="45.08497" lon="5.99419">
        <ele>1086.1999511719</ele>
        <time>2024-10-15T13:34:24.000Z</time>
      </trkpt>
      <trkpt lat="45.08497" lon="5.9942">
        <ele>1085.8000488281</ele>
        <time>2024-10-15T13:34:25.000Z</time>
      </trkpt>
      <trkpt lat="45.08497" lon="5.99421">
        <ele>1085.4000244141</ele>
        <time>2024-10-15T13:34:26.000Z</time>
      </trkpt>
      <trkpt lat="45.08497" lon="5.99422">
        <ele>1085</ele>
        <time>2024-10-15T13:34:27.000Z</time>
      </trkpt>
      <trkpt lat="45.08498" lon="5.99423">
        <ele>1084.8000488281</ele>
        <time>2024-10-15T13:34:28.000Z</time>
      </trkpt>
      <trkpt lat="45.08498" lon="5.99424">
        <ele>1084.4000244141</ele>
        <time>2024-10-15T13:34:29.000Z</time>
      </trkpt>
      <trkpt lat="45.08499" lon="5.99425">
        <ele>1083.8000488281</ele>
        <time>2024-10-15T13:34:30.000Z</time>
      </trkpt>
      <trkpt lat="45.08499" lon="5.99426">
        <ele>1083.5999755859</ele>
        <time>2024-10-15T13:34:31.000Z</time>
      </trkpt>
      <trkpt lat="45.08499" lon="5.99428">
        <ele>1083.4000244141</ele>
        <time>2024-10-15T13:34:32.000Z</time>
      </trkpt>
      <trkpt lat="45.08499" lon="5.99429">
        <ele>1083</ele>
        <time>2024-10-15T13:34:33.000Z</time>
      </trkpt>
      <trkpt lat="45.08499" lon="5.99431">
        <ele>1082.5999755859</ele>
        <time>2024-10-15T13:34:34.000Z</time>
      </trkpt>
      <trkpt lat="45.08499" lon="5.99433">
        <ele>1082.4000244141</ele>
        <time>2024-10-15T13:34:35.000Z</time>
      </trkpt>
      <trkpt lat="45.08499" lon="5.99434">
        <ele>1082</ele>
        <time>2024-10-15T13:34:36.000Z</time>
      </trkpt>
      <trkpt lat="45.08499" lon="5.99436">
        <ele>1081.8000488281</ele>
        <time>2024-10-15T13:34:37.000Z</time>
      </trkpt>
      <trkpt lat="45.085" lon="5.99438">
        <ele>1081.4000244141</ele>
        <time>2024-10-15T13:34:38.000Z</time>
      </trkpt>
      <trkpt lat="45.08501" lon="5.9944">
        <ele>1081.1999511719</ele>
        <time>2024-10-15T13:34:39.000Z</time>
      </trkpt>
      <trkpt lat="45.08502" lon="5.99441">
        <ele>1080.8000488281</ele>
        <time>2024-10-15T13:34:40.000Z</time>
      </trkpt>
      <trkpt lat="45.08502" lon="5.99443">
        <ele>1080.4000244141</ele>
        <time>2024-10-15T13:34:41.000Z</time>
      </trkpt>
      <trkpt lat="45.08502" lon="5.99445">
        <ele>1080.1999511719</ele>
        <time>2024-10-15T13:34:42.000Z</time>
      </trkpt>
      <trkpt lat="45.08503" lon="5.99446">
        <ele>1079.8000488281</ele>
        <time>2024-10-15T13:34:43.000Z</time>
      </trkpt>
      <trkpt lat="45.08503" lon="5.99448">
        <ele>1079.5999755859</ele>
        <time>2024-10-15T13:34:44.000Z</time>
      </trkpt>
      <trkpt lat="45.08504" lon="5.99449">
        <ele>1079.1999511719</ele>
        <time>2024-10-15T13:34:45.000Z</time>
      </trkpt>
      <trkpt lat="45.08504" lon="5.99451">
        <ele>1079</ele>
        <time>2024-10-15T13:34:46.000Z</time>
      </trkpt>
      <trkpt lat="45.08504" lon="5.99452">
        <ele>1078.8000488281</ele>
        <time>2024-10-15T13:34:47.000Z</time>
      </trkpt>
      <trkpt lat="45.08505" lon="5.99452">
        <ele>1078.5999755859</ele>
        <time>2024-10-15T13:34:48.000Z</time>
      </trkpt>
      <trkpt lat="45.08504" lon="5.99453">
        <ele>1078.1999511719</ele>
        <time>2024-10-15T13:34:49.000Z</time>
      </trkpt>
      <trkpt lat="45.08504" lon="5.99455">
        <ele>1077.8000488281</ele>
        <time>2024-10-15T13:34:50.000Z</time>
      </trkpt>
      <trkpt lat="45.08505" lon="5.99456">
        <ele>1077.5999755859</ele>
        <time>2024-10-15T13:34:51.000Z</time>
      </trkpt>
      <trkpt lat="45.08506" lon="5.99457">
        <ele>1077.4000244141</ele>
        <time>2024-10-15T13:34:52.000Z</time>
      </trkpt>
      <trkpt lat="45.08506" lon="5.9946">
        <ele>1077.1999511719</ele>
        <time>2024-10-15T13:34:53.000Z</time>
      </trkpt>
      <trkpt lat="45.08507" lon="5.99461">
        <ele>1077</ele>
        <time>2024-10-15T13:34:54.000Z</time>
      </trkpt>
      <trkpt lat="45.08506" lon="5.99463">
        <ele>1076.8000488281</ele>
        <time>2024-10-15T13:34:55.000Z</time>
      </trkpt>
      <trkpt lat="45.08505" lon="5.99464">
        <ele>1076.4000244141</ele>
        <time>2024-10-15T13:34:56.000Z</time>
      </trkpt>
      <trkpt lat="45.08505" lon="5.99466">
        <ele>1076.1999511719</ele>
        <time>2024-10-15T13:34:57.000Z</time>
      </trkpt>
      <trkpt lat="45.08505" lon="5.99468">
        <ele>1076.1999511719</ele>
        <time>2024-10-15T13:34:58.000Z</time>
      </trkpt>
      <trkpt lat="45.08505" lon="5.9947">
        <ele>1076</ele>
        <time>2024-10-15T13:34:59.000Z</time>
      </trkpt>
      <trkpt lat="45.08505" lon="5.99471">
        <ele>1076</ele>
        <time>2024-10-15T13:35:00.000Z</time>
      </trkpt>
      <trkpt lat="45.08505" lon="5.99471">
        <ele>1075.8000488281</ele>
        <time>2024-10-15T13:35:01.000Z</time>
      </trkpt>
      <trkpt lat="45.08502" lon="5.99469">
        <ele>1075.4000244141</ele>
        <time>2024-10-15T13:35:02.000Z</time>
      </trkpt>
      <trkpt lat="45.085" lon="5.99467">
        <ele>1075.1999511719</ele>
        <time>2024-10-15T13:35:03.000Z</time>
      </trkpt>
      <trkpt lat="45.08499" lon="5.99467">
        <ele>1074.8000488281</ele>
        <time>2024-10-15T13:35:04.000Z</time>
      </trkpt>
      <trkpt lat="45.08499" lon="5.99467">
        <ele>1074.5999755859</ele>
        <time>2024-10-15T13:35:05.000Z</time>
      </trkpt>
      <trkpt lat="45.08497" lon="5.99466">
        <ele>1074.4000244141</ele>
        <time>2024-10-15T13:35:06.000Z</time>
      </trkpt>
      <trkpt lat="45.08497" lon="5.99466">
        <ele>1074.1999511719</ele>
        <time>2024-10-15T13:35:07.000Z</time>
      </trkpt>
      <trkpt lat="45.08497" lon="5.99465">
        <ele>1073.8000488281</ele>
        <time>2024-10-15T13:35:08.000Z</time>
      </trkpt>
      <trkpt lat="45.08497" lon="5.99464">
        <ele>1073.5999755859</ele>
        <time>2024-10-15T13:35:09.000Z</time>
      </trkpt>
      <trkpt lat="45.08498" lon="5.99464">
        <ele>1073.4000244141</ele>
        <time>2024-10-15T13:35:10.000Z</time>
      </trkpt>
      <trkpt lat="45.085" lon="5.99465">
        <ele>1073</ele>
        <time>2024-10-15T13:35:11.000Z</time>
      </trkpt>
      <trkpt lat="45.08503" lon="5.99467">
        <ele>1072.4000244141</ele>
        <time>2024-10-15T13:35:12.000Z</time>
      </trkpt>
      <trkpt lat="45.08504" lon="5.99468">
        <ele>1072.1999511719</ele>
        <time>2024-10-15T13:35:13.000Z</time>
      </trkpt>
      <trkpt lat="45.08504" lon="5.99469">
        <ele>1072</ele>
        <time>2024-10-15T13:35:14.000Z</time>
      </trkpt>
      <trkpt lat="45.08505" lon="5.99471">
        <ele>1071.8000488281</ele>
        <time>2024-10-15T13:35:15.000Z</time>
      </trkpt>
      <trkpt lat="45.08506" lon="5.99473">
        <ele>1071.5999755859</ele>
        <time>2024-10-15T13:35:16.000Z</time>
      </trkpt>
      <trkpt lat="45.08507" lon="5.99474">
        <ele>1071</ele>
        <time>2024-10-15T13:35:17.000Z</time>
      </trkpt>
      <trkpt lat="45.08508" lon="5.99476">
        <ele>1070.8000488281</ele>
        <time>2024-10-15T13:35:18.000Z</time>
      </trkpt>
      <trkpt lat="45.08509" lon="5.99478">
        <ele>1070.5999755859</ele>
        <time>2024-10-15T13:35:19.000Z</time>
      </trkpt>
      <trkpt lat="45.08509" lon="5.99479">
        <ele>1070.4000244141</ele>
        <time>2024-10-15T13:35:20.000Z</time>
      </trkpt>
      <trkpt lat="45.08509" lon="5.9948">
        <ele>1070.1999511719</ele>
        <time>2024-10-15T13:35:21.000Z</time>
      </trkpt>
      <trkpt lat="45.0851" lon="5.99482">
        <ele>1069.8000488281</ele>
        <time>2024-10-15T13:35:22.000Z</time>
      </trkpt>
      <trkpt lat="45.08511" lon="5.99484">
        <ele>1069.5999755859</ele>
        <time>2024-10-15T13:35:23.000Z</time>
      </trkpt>
      <trkpt lat="45.0851" lon="5.99484">
        <ele>1069.4000244141</ele>
        <time>2024-10-15T13:35:24.000Z</time>
      </trkpt>
      <trkpt lat="45.08509" lon="5.99483">
        <ele>1069</ele>
        <time>2024-10-15T13:35:25.000Z</time>
      </trkpt>
      <trkpt lat="45.08508" lon="5.99482">
        <ele>1068.5999755859</ele>
        <time>2024-10-15T13:35:26.000Z</time>
      </trkpt>
      <trkpt lat="45.08507" lon="5.9948">
        <ele>1068.1999511719</ele>
        <time>2024-10-15T13:35:27.000Z</time>
      </trkpt>
      <trkpt lat="45.08507" lon="5.99479">
        <ele>1067.8000488281</ele>
        <time>2024-10-15T13:35:28.000Z</time>
      </trkpt>
      <trkpt lat="45.08507" lon="5.99478">
        <ele>1067.4000244141</ele>
        <time>2024-10-15T13:35:29.000Z</time>
      </trkpt>
      <trkpt lat="45.08507" lon="5.99477">
        <ele>1067</ele>
        <time>2024-10-15T13:35:30.000Z</time>
      </trkpt>
      <trkpt lat="45.08507" lon="5.99475">
        <ele>1066.5999755859</ele>
        <time>2024-10-15T13:35:31.000Z</time>
      </trkpt>
      <trkpt lat="45.08507" lon="5.99473">
        <ele>1066.1999511719</ele>
        <time>2024-10-15T13:35:32.000Z</time>
      </trkpt>
      <trkpt lat="45.08507" lon="5.99472">
        <ele>1065.8000488281</ele>
        <time>2024-10-15T13:35:33.000Z</time>
      </trkpt>
      <trkpt lat="45.08508" lon="5.99471">
        <ele>1065.1999511719</ele>
        <time>2024-10-15T13:35:34.000Z</time>
      </trkpt>
      <trkpt lat="45.0851" lon="5.99471">
        <ele>1064.8000488281</ele>
        <time>2024-10-15T13:35:35.000Z</time>
      </trkpt>
      <trkpt lat="45.08513" lon="5.99471">
        <ele>1064.1999511719</ele>
        <time>2024-10-15T13:35:36.000Z</time>
      </trkpt>
      <trkpt lat="45.08516" lon="5.99472">
        <ele>1063.8000488281</ele>
        <time>2024-10-15T13:35:37.000Z</time>
      </trkpt>
      <trkpt lat="45.08517" lon="5.99472">
        <ele>1063.4000244141</ele>
        <time>2024-10-15T13:35:38.000Z</time>
      </trkpt>
      <trkpt lat="45.08519" lon="5.99473">
        <ele>1063.1999511719</ele>
        <time>2024-10-15T13:35:39.000Z</time>
      </trkpt>
      <trkpt lat="45.0852" lon="5.99475">
        <ele>1062.5999755859</ele>
        <time>2024-10-15T13:35:40.000Z</time>
      </trkpt>
      <trkpt lat="45.08521" lon="5.99477">
        <ele>1062.1999511719</ele>
        <time>2024-10-15T13:35:41.000Z</time>
      </trkpt>
      <trkpt lat="45.08522" lon="5.99479">
        <ele>1061.8000488281</ele>
        <time>2024-10-15T13:35:42.000Z</time>
      </trkpt>
      <trkpt lat="45.08523" lon="5.9948">
        <ele>1061.5999755859</ele>
        <time>2024-10-15T13:35:43.000Z</time>
      </trkpt>
      <trkpt lat="45.08524" lon="5.99481">
        <ele>1061.1999511719</ele>
        <time>2024-10-15T13:35:44.000Z</time>
      </trkpt>
      <trkpt lat="45.08524" lon="5.99481">
        <ele>1060.8000488281</ele>
        <time>2024-10-15T13:35:45.000Z</time>
      </trkpt>
      <trkpt lat="45.08525" lon="5.99481">
        <ele>1060.4000244141</ele>
        <time>2024-10-15T13:35:46.000Z</time>
      </trkpt>
      <trkpt lat="45.08525" lon="5.99483">
        <ele>1060</ele>
        <time>2024-10-15T13:35:47.000Z</time>
      </trkpt>
      <trkpt lat="45.08526" lon="5.99485">
        <ele>1059.4000244141</ele>
        <time>2024-10-15T13:35:48.000Z</time>
      </trkpt>
      <trkpt lat="45.08527" lon="5.99486">
        <ele>1059</ele>
        <time>2024-10-15T13:35:49.000Z</time>
      </trkpt>
      <trkpt lat="45.08528" lon="5.99488">
        <ele>1058.5999755859</ele>
        <time>2024-10-15T13:35:50.000Z</time>
      </trkpt>
      <trkpt lat="45.0853" lon="5.9949">
        <ele>1058</ele>
        <time>2024-10-15T13:35:51.000Z</time>
      </trkpt>
      <trkpt lat="45.08531" lon="5.99492">
        <ele>1057.5999755859</ele>
        <time>2024-10-15T13:35:52.000Z</time>
      </trkpt>
      <trkpt lat="45.08532" lon="5.99494">
        <ele>1057.4000244141</ele>
        <time>2024-10-15T13:35:53.000Z</time>
      </trkpt>
      <trkpt lat="45.08532" lon="5.99496">
        <ele>1057</ele>
        <time>2024-10-15T13:35:54.000Z</time>
      </trkpt>
      <trkpt lat="45.08531" lon="5.99498">
        <ele>1056.5999755859</ele>
        <time>2024-10-15T13:35:55.000Z</time>
      </trkpt>
      <trkpt lat="45.0853" lon="5.995">
        <ele>1056.4000244141</ele>
        <time>2024-10-15T13:35:56.000Z</time>
      </trkpt>
      <trkpt lat="45.0853" lon="5.99502">
        <ele>1056</ele>
        <time>2024-10-15T13:35:57.000Z</time>
      </trkpt>
      <trkpt lat="45.0853" lon="5.99505">
        <ele>1055.5999755859</ele>
        <time>2024-10-15T13:35:58.000Z</time>
      </trkpt>
      <trkpt lat="45.08531" lon="5.99506">
        <ele>1055.1999511719</ele>
        <time>2024-10-15T13:35:59.000Z</time>
      </trkpt>
      <trkpt lat="45.08531" lon="5.99509">
        <ele>1054.5999755859</ele>
        <time>2024-10-15T13:36:00.000Z</time>
      </trkpt>
      <trkpt lat="45.08532" lon="5.99511">
        <ele>1054.1999511719</ele>
        <time>2024-10-15T13:36:01.000Z</time>
      </trkpt>
      <trkpt lat="45.08532" lon="5.99513">
        <ele>1054</ele>
        <time>2024-10-15T13:36:02.000Z</time>
      </trkpt>
      <trkpt lat="45.0853" lon="5.99515">
        <ele>1053.5999755859</ele>
        <time>2024-10-15T13:36:03.000Z</time>
      </trkpt>
      <trkpt lat="45.08529" lon="5.99515">
        <ele>1053.1999511719</ele>
        <time>2024-10-15T13:36:04.000Z</time>
      </trkpt>
      <trkpt lat="45.08527" lon="5.99515">
        <ele>1052.8000488281</ele>
        <time>2024-10-15T13:36:05.000Z</time>
      </trkpt>
      <trkpt lat="45.08526" lon="5.99514">
        <ele>1052.4000244141</ele>
        <time>2024-10-15T13:36:06.000Z</time>
      </trkpt>
      <trkpt lat="45.08524" lon="5.99512">
        <ele>1052.1999511719</ele>
        <time>2024-10-15T13:36:07.000Z</time>
      </trkpt>
      <trkpt lat="45.08524" lon="5.99511">
        <ele>1051.8000488281</ele>
        <time>2024-10-15T13:36:08.000Z</time>
      </trkpt>
      <trkpt lat="45.08525" lon="5.9951">
        <ele>1051.1999511719</ele>
        <time>2024-10-15T13:36:09.000Z</time>
      </trkpt>
      <trkpt lat="45.08525" lon="5.99508">
        <ele>1050.8000488281</ele>
        <time>2024-10-15T13:36:10.000Z</time>
      </trkpt>
      <trkpt lat="45.08527" lon="5.99508">
        <ele>1050.4000244141</ele>
        <time>2024-10-15T13:36:11.000Z</time>
      </trkpt>
      <trkpt lat="45.08528" lon="5.99508">
        <ele>1050</ele>
        <time>2024-10-15T13:36:12.000Z</time>
      </trkpt>
      <trkpt lat="45.08529" lon="5.99511">
        <ele>1049.1999511719</ele>
        <time>2024-10-15T13:36:13.000Z</time>
      </trkpt>
      <trkpt lat="45.08529" lon="5.99514">
        <ele>1048.8000488281</ele>
        <time>2024-10-15T13:36:14.000Z</time>
      </trkpt>
      <trkpt lat="45.08529" lon="5.99516">
        <ele>1048.4000244141</ele>
        <time>2024-10-15T13:36:15.000Z</time>
      </trkpt>
      <trkpt lat="45.08529" lon="5.99518">
        <ele>1047.8000488281</ele>
        <time>2024-10-15T13:36:16.000Z</time>
      </trkpt>
      <trkpt lat="45.08529" lon="5.99518">
        <ele>1047.4000244141</ele>
        <time>2024-10-15T13:36:17.000Z</time>
      </trkpt>
      <trkpt lat="45.08529" lon="5.99519">
        <ele>1047</ele>
        <time>2024-10-15T13:36:18.000Z</time>
      </trkpt>
      <trkpt lat="45.0853" lon="5.99519">
        <ele>1046.5999755859</ele>
        <time>2024-10-15T13:36:19.000Z</time>
      </trkpt>
      <trkpt lat="45.08531" lon="5.9952">
        <ele>1046.1999511719</ele>
        <time>2024-10-15T13:36:20.000Z</time>
      </trkpt>
      <trkpt lat="45.08532" lon="5.99519">
        <ele>1045.5999755859</ele>
        <time>2024-10-15T13:36:21.000Z</time>
      </trkpt>
      <trkpt lat="45.08532" lon="5.99519">
        <ele>1045.4000244141</ele>
        <time>2024-10-15T13:36:22.000Z</time>
      </trkpt>
      <trkpt lat="45.08533" lon="5.99518">
        <ele>1045</ele>
        <time>2024-10-15T13:36:23.000Z</time>
      </trkpt>
      <trkpt lat="45.08533" lon="5.99518">
        <ele>1044.8000488281</ele>
        <time>2024-10-15T13:36:24.000Z</time>
      </trkpt>
      <trkpt lat="45.08533" lon="5.99517">
        <ele>1044.5999755859</ele>
        <time>2024-10-15T13:36:25.000Z</time>
      </trkpt>
      <trkpt lat="45.08533" lon="5.99516">
        <ele>1044.4000244141</ele>
        <time>2024-10-15T13:36:26.000Z</time>
      </trkpt>
      <trkpt lat="45.08534" lon="5.99516">
        <ele>1044</ele>
        <time>2024-10-15T13:36:27.000Z</time>
      </trkpt>
      <trkpt lat="45.08535" lon="5.99517">
        <ele>1043.4000244141</ele>
        <time>2024-10-15T13:36:28.000Z</time>
      </trkpt>
      <trkpt lat="45.08536" lon="5.99519">
        <ele>1043</ele>
        <time>2024-10-15T13:36:29.000Z</time>
      </trkpt>
      <trkpt lat="45.08536" lon="5.99523">
        <ele>1042.4000244141</ele>
        <time>2024-10-15T13:36:30.000Z</time>
      </trkpt>
      <trkpt lat="45.08537" lon="5.99525">
        <ele>1041.8000488281</ele>
        <time>2024-10-15T13:36:31.000Z</time>
      </trkpt>
      <trkpt lat="45.08537" lon="5.99527">
        <ele>1041.4000244141</ele>
        <time>2024-10-15T13:36:32.000Z</time>
      </trkpt>
      <trkpt lat="45.08537" lon="5.99528">
        <ele>1041</ele>
        <time>2024-10-15T13:36:33.000Z</time>
      </trkpt>
      <trkpt lat="45.08537" lon="5.9953">
        <ele>1040.8000488281</ele>
        <time>2024-10-15T13:36:34.000Z</time>
      </trkpt>
      <trkpt lat="45.08537" lon="5.99531">
        <ele>1040.1999511719</ele>
        <time>2024-10-15T13:36:35.000Z</time>
      </trkpt>
      <trkpt lat="45.08538" lon="5.99531">
        <ele>1039.8000488281</ele>
        <time>2024-10-15T13:36:36.000Z</time>
      </trkpt>
      <trkpt lat="45.08539" lon="5.99531">
        <ele>1039.1999511719</ele>
        <time>2024-10-15T13:36:37.000Z</time>
      </trkpt>
      <trkpt lat="45.08539" lon="5.9953">
        <ele>1038.8000488281</ele>
        <time>2024-10-15T13:36:38.000Z</time>
      </trkpt>
      <trkpt lat="45.08539" lon="5.9953">
        <ele>1038.4000244141</ele>
        <time>2024-10-15T13:36:39.000Z</time>
      </trkpt>
      <trkpt lat="45.0854" lon="5.9953">
        <ele>1037.8000488281</ele>
        <time>2024-10-15T13:36:40.000Z</time>
      </trkpt>
      <trkpt lat="45.08541" lon="5.9953">
        <ele>1037.5999755859</ele>
        <time>2024-10-15T13:36:41.000Z</time>
      </trkpt>
      <trkpt lat="45.08542" lon="5.9953">
        <ele>1037.1999511719</ele>
        <time>2024-10-15T13:36:42.000Z</time>
      </trkpt>
      <trkpt lat="45.08543" lon="5.99531">
        <ele>1036.5999755859</ele>
        <time>2024-10-15T13:36:43.000Z</time>
      </trkpt>
      <trkpt lat="45.08544" lon="5.99534">
        <ele>1036.1999511719</ele>
        <time>2024-10-15T13:36:44.000Z</time>
      </trkpt>
      <trkpt lat="45.08544" lon="5.99536">
        <ele>1035.8000488281</ele>
        <time>2024-10-15T13:36:45.000Z</time>
      </trkpt>
      <trkpt lat="45.08543" lon="5.99538">
        <ele>1035.5999755859</ele>
        <time>2024-10-15T13:36:46.000Z</time>
      </trkpt>
      <trkpt lat="45.08543" lon="5.9954">
        <ele>1035.1999511719</ele>
        <time>2024-10-15T13:36:47.000Z</time>
      </trkpt>
      <trkpt lat="45.08543" lon="5.99542">
        <ele>1034.8000488281</ele>
        <time>2024-10-15T13:36:48.000Z</time>
      </trkpt>
      <trkpt lat="45.08545" lon="5.99543">
        <ele>1034.1999511719</ele>
        <time>2024-10-15T13:36:49.000Z</time>
      </trkpt>
      <trkpt lat="45.08547" lon="5.99544">
        <ele>1033.8000488281</ele>
        <time>2024-10-15T13:36:50.000Z</time>
      </trkpt>
      <trkpt lat="45.08548" lon="5.99544">
        <ele>1033.4000244141</ele>
        <time>2024-10-15T13:36:51.000Z</time>
      </trkpt>
      <trkpt lat="45.08549" lon="5.99544">
        <ele>1032.8000488281</ele>
        <time>2024-10-15T13:36:52.000Z</time>
      </trkpt>
      <trkpt lat="45.08548" lon="5.99545">
        <ele>1032.1999511719</ele>
        <time>2024-10-15T13:36:53.000Z</time>
      </trkpt>
      <trkpt lat="45.08548" lon="5.99546">
        <ele>1031.8000488281</ele>
        <time>2024-10-15T13:36:54.000Z</time>
      </trkpt>
      <trkpt lat="45.08546" lon="5.99547">
        <ele>1031.5999755859</ele>
        <time>2024-10-15T13:36:55.000Z</time>
      </trkpt>
      <trkpt lat="45.08545" lon="5.99549">
        <ele>1031.1999511719</ele>
        <time>2024-10-15T13:36:56.000Z</time>
      </trkpt>
      <trkpt lat="45.08544" lon="5.99548">
        <ele>1030.8000488281</ele>
        <time>2024-10-15T13:36:57.000Z</time>
      </trkpt>
      <trkpt lat="45.08543" lon="5.99549">
        <ele>1030.4000244141</ele>
        <time>2024-10-15T13:36:58.000Z</time>
      </trkpt>
      <trkpt lat="45.08543" lon="5.99549">
        <ele>1030</ele>
        <time>2024-10-15T13:36:59.000Z</time>
      </trkpt>
      <trkpt lat="45.08543" lon="5.99549">
        <ele>1029.4000244141</ele>
        <time>2024-10-15T13:37:00.000Z</time>
      </trkpt>
      <trkpt lat="45.08543" lon="5.99549">
        <ele>1028.8000488281</ele>
        <time>2024-10-15T13:37:01.000Z</time>
      </trkpt>
      <trkpt lat="45.08544" lon="5.9955">
        <ele>1028.1999511719</ele>
        <time>2024-10-15T13:37:02.000Z</time>
      </trkpt>
      <trkpt lat="45.08545" lon="5.9955">
        <ele>1027.5999755859</ele>
        <time>2024-10-15T13:37:03.000Z</time>
      </trkpt>
      <trkpt lat="45.08545" lon="5.9955">
        <ele>1027.1999511719</ele>
        <time>2024-10-15T13:37:04.000Z</time>
      </trkpt>
      <trkpt lat="45.08545" lon="5.9955">
        <ele>1026.8000488281</ele>
        <time>2024-10-15T13:37:05.000Z</time>
      </trkpt>
      <trkpt lat="45.08546" lon="5.9955">
        <ele>1026.4000244141</ele>
        <time>2024-10-15T13:37:06.000Z</time>
      </trkpt>
      <trkpt lat="45.08547" lon="5.99551">
        <ele>1026</ele>
        <time>2024-10-15T13:37:07.000Z</time>
      </trkpt>
      <trkpt lat="45.08547" lon="5.99551">
        <ele>1025.4000244141</ele>
        <time>2024-10-15T13:37:08.000Z</time>
      </trkpt>
      <trkpt lat="45.08548" lon="5.99551">
        <ele>1025</ele>
        <time>2024-10-15T13:37:09.000Z</time>
      </trkpt>
      <trkpt lat="45.08549" lon="5.99551">
        <ele>1024.5999755859</ele>
        <time>2024-10-15T13:37:10.000Z</time>
      </trkpt>
      <trkpt lat="45.0855" lon="5.99551">
        <ele>1024</ele>
        <time>2024-10-15T13:37:11.000Z</time>
      </trkpt>
      <trkpt lat="45.08551" lon="5.99551">
        <ele>1023.5999755859</ele>
        <time>2024-10-15T13:37:12.000Z</time>
      </trkpt>
      <trkpt lat="45.08552" lon="5.99551">
        <ele>1023</ele>
        <time>2024-10-15T13:37:13.000Z</time>
      </trkpt>
      <trkpt lat="45.08553" lon="5.99552">
        <ele>1022.5999755859</ele>
        <time>2024-10-15T13:37:14.000Z</time>
      </trkpt>
      <trkpt lat="45.08554" lon="5.99552">
        <ele>1022</ele>
        <time>2024-10-15T13:37:15.000Z</time>
      </trkpt>
      <trkpt lat="45.08555" lon="5.99554">
        <ele>1021.4000244141</ele>
        <time>2024-10-15T13:37:16.000Z</time>
      </trkpt>
      <trkpt lat="45.08556" lon="5.99554">
        <ele>1021</ele>
        <time>2024-10-15T13:37:17.000Z</time>
      </trkpt>
      <trkpt lat="45.08557" lon="5.99554">
        <ele>1020.4000244141</ele>
        <time>2024-10-15T13:37:18.000Z</time>
      </trkpt>
      <trkpt lat="45.08558" lon="5.99555">
        <ele>1020</ele>
        <time>2024-10-15T13:37:19.000Z</time>
      </trkpt>
      <trkpt lat="45.08559" lon="5.99556">
        <ele>1019.4000244141</ele>
        <time>2024-10-15T13:37:20.000Z</time>
      </trkpt>
      <trkpt lat="45.0856" lon="5.99556">
        <ele>1019</ele>
        <time>2024-10-15T13:37:21.000Z</time>
      </trkpt>
      <trkpt lat="45.08561" lon="5.99556">
        <ele>1018.5999755859</ele>
        <time>2024-10-15T13:37:22.000Z</time>
      </trkpt>
      <trkpt lat="45.08561" lon="5.99556">
        <ele>1018.200012207</ele>
        <time>2024-10-15T13:37:23.000Z</time>
      </trkpt>
      <trkpt lat="45.08562" lon="5.99555">
        <ele>1017.799987793</ele>
        <time>2024-10-15T13:37:24.000Z</time>
      </trkpt>
      <trkpt lat="45.08563" lon="5.99554">
        <ele>1017.200012207</ele>
        <time>2024-10-15T13:37:25.000Z</time>
      </trkpt>
      <trkpt lat="45.08564" lon="5.99554">
        <ele>1016.799987793</ele>
        <time>2024-10-15T13:37:26.000Z</time>
      </trkpt>
      <trkpt lat="45.08565" lon="5.99554">
        <ele>1016.4000244141</ele>
        <time>2024-10-15T13:37:27.000Z</time>
      </trkpt>
      <trkpt lat="45.08566" lon="5.99553">
        <ele>1016</ele>
        <time>2024-10-15T13:37:28.000Z</time>
      </trkpt>
      <trkpt lat="45.08567" lon="5.99553">
        <ele>1015.5999755859</ele>
        <time>2024-10-15T13:37:29.000Z</time>
      </trkpt>
      <trkpt lat="45.08568" lon="5.99553">
        <ele>1015.4000244141</ele>
        <time>2024-10-15T13:37:30.000Z</time>
      </trkpt>
      <trkpt lat="45.08569" lon="5.99553">
        <ele>1015</ele>
        <time>2024-10-15T13:37:31.000Z</time>
      </trkpt>
      <trkpt lat="45.08569" lon="5.99553">
        <ele>1014.4000244141</ele>
        <time>2024-10-15T13:37:32.000Z</time>
      </trkpt>
      <trkpt lat="45.08571" lon="5.99555">
        <ele>1014</ele>
        <time>2024-10-15T13:37:33.000Z</time>
      </trkpt>
      <trkpt lat="45.08573" lon="5.99557">
        <ele>1013.5999755859</ele>
        <time>2024-10-15T13:37:34.000Z</time>
      </trkpt>
      <trkpt lat="45.08574" lon="5.99558">
        <ele>1013.200012207</ele>
        <time>2024-10-15T13:37:35.000Z</time>
      </trkpt>
      <trkpt lat="45.08574" lon="5.99561">
        <ele>1012.799987793</ele>
        <time>2024-10-15T13:37:36.000Z</time>
      </trkpt>
      <trkpt lat="45.08574" lon="5.99564">
        <ele>1012.4000244141</ele>
        <time>2024-10-15T13:37:37.000Z</time>
      </trkpt>
      <trkpt lat="45.08574" lon="5.99566">
        <ele>1011.799987793</ele>
        <time>2024-10-15T13:37:38.000Z</time>
      </trkpt>
      <trkpt lat="45.08573" lon="5.99567">
        <ele>1011.5999755859</ele>
        <time>2024-10-15T13:37:39.000Z</time>
      </trkpt>
      <trkpt lat="45.08572" lon="5.99568">
        <ele>1011.200012207</ele>
        <time>2024-10-15T13:37:40.000Z</time>
      </trkpt>
      <trkpt lat="45.08573" lon="5.99569">
        <ele>1010.799987793</ele>
        <time>2024-10-15T13:37:41.000Z</time>
      </trkpt>
      <trkpt lat="45.08574" lon="5.9957">
        <ele>1010.4000244141</ele>
        <time>2024-10-15T13:37:42.000Z</time>
      </trkpt>
      <trkpt lat="45.08576" lon="5.99573">
        <ele>1010</ele>
        <time>2024-10-15T13:37:43.000Z</time>
      </trkpt>
      <trkpt lat="45.08577" lon="5.99574">
        <ele>1009.5999755859</ele>
        <time>2024-10-15T13:37:44.000Z</time>
      </trkpt>
      <trkpt lat="45.08577" lon="5.99575">
        <ele>1009.200012207</ele>
        <time>2024-10-15T13:37:45.000Z</time>
      </trkpt>
      <trkpt lat="45.08575" lon="5.99577">
        <ele>1009</ele>
        <time>2024-10-15T13:37:46.000Z</time>
      </trkpt>
      <trkpt lat="45.08575" lon="5.9958">
        <ele>1008.799987793</ele>
        <time>2024-10-15T13:37:47.000Z</time>
      </trkpt>
      <trkpt lat="45.08572" lon="5.99582">
        <ele>1008.4000244141</ele>
        <time>2024-10-15T13:37:48.000Z</time>
      </trkpt>
      <trkpt lat="45.0857" lon="5.99584">
        <ele>1008</ele>
        <time>2024-10-15T13:37:49.000Z</time>
      </trkpt>
      <trkpt lat="45.08569" lon="5.99584">
        <ele>1007.4000244141</ele>
        <time>2024-10-15T13:37:50.000Z</time>
      </trkpt>
      <trkpt lat="45.08568" lon="5.99583">
        <ele>1006.799987793</ele>
        <time>2024-10-15T13:37:51.000Z</time>
      </trkpt>
      <trkpt lat="45.08569" lon="5.99582">
        <ele>1006.200012207</ele>
        <time>2024-10-15T13:37:52.000Z</time>
      </trkpt>
      <trkpt lat="45.0857" lon="5.99583">
        <ele>1005.5999755859</ele>
        <time>2024-10-15T13:37:53.000Z</time>
      </trkpt>
      <trkpt lat="45.08571" lon="5.99584">
        <ele>1005.200012207</ele>
        <time>2024-10-15T13:37:54.000Z</time>
      </trkpt>
      <trkpt lat="45.08572" lon="5.99584">
        <ele>1004.5999755859</ele>
        <time>2024-10-15T13:37:55.000Z</time>
      </trkpt>
      <trkpt lat="45.08572" lon="5.99584">
        <ele>1004</ele>
        <time>2024-10-15T13:37:56.000Z</time>
      </trkpt>
      <trkpt lat="45.08572" lon="5.99585">
        <ele>1003.799987793</ele>
        <time>2024-10-15T13:37:57.000Z</time>
      </trkpt>
      <trkpt lat="45.08572" lon="5.99585">
        <ele>1003.200012207</ele>
        <time>2024-10-15T13:37:58.000Z</time>
      </trkpt>
      <trkpt lat="45.08574" lon="5.99586">
        <ele>1003</ele>
        <time>2024-10-15T13:37:59.000Z</time>
      </trkpt>
      <trkpt lat="45.08575" lon="5.99588">
        <ele>1002.5999755859</ele>
        <time>2024-10-15T13:38:00.000Z</time>
      </trkpt>
      <trkpt lat="45.08576" lon="5.9959">
        <ele>1002.4000244141</ele>
        <time>2024-10-15T13:38:01.000Z</time>
      </trkpt>
      <trkpt lat="45.08578" lon="5.99591">
        <ele>1002</ele>
        <time>2024-10-15T13:38:02.000Z</time>
      </trkpt>
      <trkpt lat="45.08577" lon="5.99592">
        <ele>1001.5999755859</ele>
        <time>2024-10-15T13:38:03.000Z</time>
      </trkpt>
      <trkpt lat="45.08577" lon="5.99593">
        <ele>1001.4000244141</ele>
        <time>2024-10-15T13:38:04.000Z</time>
      </trkpt>
      <trkpt lat="45.08578" lon="5.99594">
        <ele>1001</ele>
        <time>2024-10-15T13:38:05.000Z</time>
      </trkpt>
      <trkpt lat="45.08578" lon="5.99595">
        <ele>1000.5999755859</ele>
        <time>2024-10-15T13:38:06.000Z</time>
      </trkpt>
      <trkpt lat="45.08578" lon="5.99594">
        <ele>1000</ele>
        <time>2024-10-15T13:38:07.000Z</time>
      </trkpt>
      <trkpt lat="45.08577" lon="5.99593">
        <ele>999.59997558594</ele>
        <time>2024-10-15T13:38:08.000Z</time>
      </trkpt>
      <trkpt lat="45.08578" lon="5.99592">
        <ele>999.20001220703</ele>
        <time>2024-10-15T13:38:09.000Z</time>
      </trkpt>
      <trkpt lat="45.08579" lon="5.99591">
        <ele>999</ele>
        <time>2024-10-15T13:38:10.000Z</time>
      </trkpt>
      <trkpt lat="45.08579" lon="5.99591">
        <ele>998.79998779297</ele>
        <time>2024-10-15T13:38:11.000Z</time>
      </trkpt>
      <trkpt lat="45.0858" lon="5.99591">
        <ele>998.59997558594</ele>
        <time>2024-10-15T13:38:12.000Z</time>
      </trkpt>
      <trkpt lat="45.08581" lon="5.99592">
        <ele>998.20001220703</ele>
        <time>2024-10-15T13:38:13.000Z</time>
      </trkpt>
      <trkpt lat="45.08581" lon="5.99594">
        <ele>998</ele>
        <time>2024-10-15T13:38:14.000Z</time>
      </trkpt>
      <trkpt lat="45.08582" lon="5.99596">
        <ele>997.79998779297</ele>
        <time>2024-10-15T13:38:15.000Z</time>
      </trkpt>
      <trkpt lat="45.08582" lon="5.99597">
        <ele>997.59997558594</ele>
        <time>2024-10-15T13:38:16.000Z</time>
      </trkpt>
      <trkpt lat="45.08581" lon="5.99598">
        <ele>997</ele>
        <time>2024-10-15T13:38:17.000Z</time>
      </trkpt>
      <trkpt lat="45.0858" lon="5.99599">
        <ele>996.40002441406</ele>
        <time>2024-10-15T13:38:18.000Z</time>
      </trkpt>
      <trkpt lat="45.08579" lon="5.996">
        <ele>996.20001220703</ele>
        <time>2024-10-15T13:38:19.000Z</time>
      </trkpt>
      <trkpt lat="45.08578" lon="5.99602">
        <ele>996</ele>
        <time>2024-10-15T13:38:20.000Z</time>
      </trkpt>
      <trkpt lat="45.08577" lon="5.99603">
        <ele>995.59997558594</ele>
        <time>2024-10-15T13:38:21.000Z</time>
      </trkpt>
      <trkpt lat="45.08576" lon="5.99603">
        <ele>995.40002441406</ele>
        <time>2024-10-15T13:38:22.000Z</time>
      </trkpt>
      <trkpt lat="45.08576" lon="5.99604">
        <ele>995</ele>
        <time>2024-10-15T13:38:23.000Z</time>
      </trkpt>
      <trkpt lat="45.08575" lon="5.99605">
        <ele>994.59997558594</ele>
        <time>2024-10-15T13:38:24.000Z</time>
      </trkpt>
      <trkpt lat="45.08575" lon="5.99606">
        <ele>994.20001220703</ele>
        <time>2024-10-15T13:38:25.000Z</time>
      </trkpt>
      <trkpt lat="45.08575" lon="5.99608">
        <ele>993.79998779297</ele>
        <time>2024-10-15T13:38:26.000Z</time>
      </trkpt>
      <trkpt lat="45.08575" lon="5.99609">
        <ele>993.40002441406</ele>
        <time>2024-10-15T13:38:27.000Z</time>
      </trkpt>
      <trkpt lat="45.08575" lon="5.9961">
        <ele>993</ele>
        <time>2024-10-15T13:38:28.000Z</time>
      </trkpt>
      <trkpt lat="45.08575" lon="5.99611">
        <ele>992.59997558594</ele>
        <time>2024-10-15T13:38:29.000Z</time>
      </trkpt>
      <trkpt lat="45.08576" lon="5.99612">
        <ele>992.20001220703</ele>
        <time>2024-10-15T13:38:30.000Z</time>
      </trkpt>
      <trkpt lat="45.08576" lon="5.99613">
        <ele>991.79998779297</ele>
        <time>2024-10-15T13:38:31.000Z</time>
      </trkpt>
      <trkpt lat="45.08576" lon="5.99614">
        <ele>991.59997558594</ele>
        <time>2024-10-15T13:38:32.000Z</time>
      </trkpt>
      <trkpt lat="45.08577" lon="5.99616">
        <ele>991.20001220703</ele>
        <time>2024-10-15T13:38:33.000Z</time>
      </trkpt>
      <trkpt lat="45.08578" lon="5.99617">
        <ele>990.79998779297</ele>
        <time>2024-10-15T13:38:34.000Z</time>
      </trkpt>
      <trkpt lat="45.08578" lon="5.99619">
        <ele>990.59997558594</ele>
        <time>2024-10-15T13:38:35.000Z</time>
      </trkpt>
      <trkpt lat="45.08578" lon="5.9962">
        <ele>990.20001220703</ele>
        <time>2024-10-15T13:38:36.000Z</time>
      </trkpt>
      <trkpt lat="45.08578" lon="5.99621">
        <ele>990</ele>
        <time>2024-10-15T13:38:37.000Z</time>
      </trkpt>
      <trkpt lat="45.08578" lon="5.99622">
        <ele>990</ele>
        <time>2024-10-15T13:38:38.000Z</time>
      </trkpt>
      <trkpt lat="45.08578" lon="5.99623">
        <ele>989.59997558594</ele>
        <time>2024-10-15T13:38:39.000Z</time>
      </trkpt>
      <trkpt lat="45.08579" lon="5.99623">
        <ele>989.20001220703</ele>
        <time>2024-10-15T13:38:40.000Z</time>
      </trkpt>
      <trkpt lat="45.08579" lon="5.99623">
        <ele>989</ele>
        <time>2024-10-15T13:38:41.000Z</time>
      </trkpt>
      <trkpt lat="45.0858" lon="5.99622">
        <ele>988.59997558594</ele>
        <time>2024-10-15T13:38:42.000Z</time>
      </trkpt>
      <trkpt lat="45.08581" lon="5.99622">
        <ele>988.40002441406</ele>
        <time>2024-10-15T13:38:43.000Z</time>
      </trkpt>
      <trkpt lat="45.08582" lon="5.99621">
        <ele>988.40002441406</ele>
        <time>2024-10-15T13:38:44.000Z</time>
      </trkpt>
      <trkpt lat="45.08583" lon="5.99622">
        <ele>988.20001220703</ele>
        <time>2024-10-15T13:38:45.000Z</time>
      </trkpt>
      <trkpt lat="45.08583" lon="5.99622">
        <ele>988</ele>
        <time>2024-10-15T13:38:46.000Z</time>
      </trkpt>
      <trkpt lat="45.08583" lon="5.99622">
        <ele>988</ele>
        <time>2024-10-15T13:38:47.000Z</time>
      </trkpt>
      <trkpt lat="45.08584" lon="5.99623">
        <ele>987.59997558594</ele>
        <time>2024-10-15T13:38:48.000Z</time>
      </trkpt>
      <trkpt lat="45.08584" lon="5.99623">
        <ele>987.40002441406</ele>
        <time>2024-10-15T13:38:49.000Z</time>
      </trkpt>
      <trkpt lat="45.08585" lon="5.99623">
        <ele>987.20001220703</ele>
        <time>2024-10-15T13:38:50.000Z</time>
      </trkpt>
      <trkpt lat="45.08587" lon="5.99622">
        <ele>987</ele>
        <time>2024-10-15T13:38:51.000Z</time>
      </trkpt>
      <trkpt lat="45.08588" lon="5.99621">
        <ele>986.79998779297</ele>
        <time>2024-10-15T13:38:52.000Z</time>
      </trkpt>
      <trkpt lat="45.08588" lon="5.99621">
        <ele>986.20001220703</ele>
        <time>2024-10-15T13:38:53.000Z</time>
      </trkpt>
      <trkpt lat="45.08589" lon="5.99621">
        <ele>986</ele>
        <time>2024-10-15T13:38:54.000Z</time>
      </trkpt>
      <trkpt lat="45.0859" lon="5.9962">
        <ele>985.79998779297</ele>
        <time>2024-10-15T13:38:55.000Z</time>
      </trkpt>
      <trkpt lat="45.0859" lon="5.9962">
        <ele>985.40002441406</ele>
        <time>2024-10-15T13:38:56.000Z</time>
      </trkpt>
      <trkpt lat="45.08592" lon="5.9962">
        <ele>984.79998779297</ele>
        <time>2024-10-15T13:38:57.000Z</time>
      </trkpt>
      <trkpt lat="45.08593" lon="5.9962">
        <ele>984.40002441406</ele>
        <time>2024-10-15T13:38:58.000Z</time>
      </trkpt>
      <trkpt lat="45.08594" lon="5.99621">
        <ele>984</ele>
        <time>2024-10-15T13:38:59.000Z</time>
      </trkpt>
      <trkpt lat="45.08595" lon="5.99623">
        <ele>983.79998779297</ele>
        <time>2024-10-15T13:39:00.000Z</time>
      </trkpt>
      <trkpt lat="45.08595" lon="5.99627">
        <ele>983.59997558594</ele>
        <time>2024-10-15T13:39:01.000Z</time>
      </trkpt>
      <trkpt lat="45.08595" lon="5.99629">
        <ele>983.20001220703</ele>
        <time>2024-10-15T13:39:02.000Z</time>
      </trkpt>
      <trkpt lat="45.08595" lon="5.99632">
        <ele>982.79998779297</ele>
        <time>2024-10-15T13:39:03.000Z</time>
      </trkpt>
      <trkpt lat="45.08595" lon="5.99635">
        <ele>982.59997558594</ele>
        <time>2024-10-15T13:39:04.000Z</time>
      </trkpt>
      <trkpt lat="45.08594" lon="5.99636">
        <ele>982.40002441406</ele>
        <time>2024-10-15T13:39:05.000Z</time>
      </trkpt>
      <trkpt lat="45.08593" lon="5.99637">
        <ele>982</ele>
        <time>2024-10-15T13:39:06.000Z</time>
      </trkpt>
      <trkpt lat="45.08593" lon="5.99637">
        <ele>981.79998779297</ele>
        <time>2024-10-15T13:39:07.000Z</time>
      </trkpt>
      <trkpt lat="45.08593" lon="5.99639">
        <ele>981.20001220703</ele>
        <time>2024-10-15T13:39:08.000Z</time>
      </trkpt>
      <trkpt lat="45.08593" lon="5.99639">
        <ele>981</ele>
        <time>2024-10-15T13:39:09.000Z</time>
      </trkpt>
      <trkpt lat="45.08595" lon="5.99639">
        <ele>980.59997558594</ele>
        <time>2024-10-15T13:39:10.000Z</time>
      </trkpt>
      <trkpt lat="45.08596" lon="5.99639">
        <ele>980</ele>
        <time>2024-10-15T13:39:11.000Z</time>
      </trkpt>
      <trkpt lat="45.08597" lon="5.99639">
        <ele>979.59997558594</ele>
        <time>2024-10-15T13:39:12.000Z</time>
      </trkpt>
      <trkpt lat="45.08598" lon="5.99638">
        <ele>979</ele>
        <time>2024-10-15T13:39:13.000Z</time>
      </trkpt>
      <trkpt lat="45.08598" lon="5.99638">
        <ele>978.59997558594</ele>
        <time>2024-10-15T13:39:14.000Z</time>
      </trkpt>
      <trkpt lat="45.08599" lon="5.99638">
        <ele>978.20001220703</ele>
        <time>2024-10-15T13:39:15.000Z</time>
      </trkpt>
      <trkpt lat="45.08599" lon="5.99639">
        <ele>977.79998779297</ele>
        <time>2024-10-15T13:39:16.000Z</time>
      </trkpt>
      <trkpt lat="45.08599" lon="5.99639">
        <ele>977.59997558594</ele>
        <time>2024-10-15T13:39:17.000Z</time>
      </trkpt>
      <trkpt lat="45.08599" lon="5.9964">
        <ele>977.20001220703</ele>
        <time>2024-10-15T13:39:18.000Z</time>
      </trkpt>
      <trkpt lat="45.086" lon="5.9964">
        <ele>977</ele>
        <time>2024-10-15T13:39:19.000Z</time>
      </trkpt>
      <trkpt lat="45.08601" lon="5.99641">
        <ele>976.59997558594</ele>
        <time>2024-10-15T13:39:20.000Z</time>
      </trkpt>
      <trkpt lat="45.08601" lon="5.99641">
        <ele>976.20001220703</ele>
        <time>2024-10-15T13:39:21.000Z</time>
      </trkpt>
      <trkpt lat="45.08602" lon="5.99641">
        <ele>976</ele>
        <time>2024-10-15T13:39:22.000Z</time>
      </trkpt>
      <trkpt lat="45.08602" lon="5.99641">
        <ele>975.59997558594</ele>
        <time>2024-10-15T13:39:23.000Z</time>
      </trkpt>
      <trkpt lat="45.08602" lon="5.99641">
        <ele>975.20001220703</ele>
        <time>2024-10-15T13:39:24.000Z</time>
      </trkpt>
      <trkpt lat="45.08604" lon="5.99642">
        <ele>974.79998779297</ele>
        <time>2024-10-15T13:39:25.000Z</time>
      </trkpt>
      <trkpt lat="45.08605" lon="5.99642">
        <ele>974.59997558594</ele>
        <time>2024-10-15T13:39:26.000Z</time>
      </trkpt>
      <trkpt lat="45.08606" lon="5.99641">
        <ele>974.40002441406</ele>
        <time>2024-10-15T13:39:27.000Z</time>
      </trkpt>
      <trkpt lat="45.08607" lon="5.9964">
        <ele>973.79998779297</ele>
        <time>2024-10-15T13:39:28.000Z</time>
      </trkpt>
      <trkpt lat="45.08607" lon="5.99639">
        <ele>973.59997558594</ele>
        <time>2024-10-15T13:39:29.000Z</time>
      </trkpt>
      <trkpt lat="45.08608" lon="5.99639">
        <ele>973.40002441406</ele>
        <time>2024-10-15T13:39:30.000Z</time>
      </trkpt>
      <trkpt lat="45.08609" lon="5.9964">
        <ele>973.20001220703</ele>
        <time>2024-10-15T13:39:31.000Z</time>
      </trkpt>
      <trkpt lat="45.0861" lon="5.9964">
        <ele>972.79998779297</ele>
        <time>2024-10-15T13:39:32.000Z</time>
      </trkpt>
      <trkpt lat="45.08611" lon="5.99642">
        <ele>972.59997558594</ele>
        <time>2024-10-15T13:39:33.000Z</time>
      </trkpt>
      <trkpt lat="45.08612" lon="5.99644">
        <ele>972.40002441406</ele>
        <time>2024-10-15T13:39:34.000Z</time>
      </trkpt>
      <trkpt lat="45.08612" lon="5.99646">
        <ele>972.20001220703</ele>
        <time>2024-10-15T13:39:35.000Z</time>
      </trkpt>
      <trkpt lat="45.08611" lon="5.99647">
        <ele>972</ele>
        <time>2024-10-15T13:39:36.000Z</time>
      </trkpt>
      <trkpt lat="45.08611" lon="5.99648">
        <ele>971.59997558594</ele>
        <time>2024-10-15T13:39:37.000Z</time>
      </trkpt>
      <trkpt lat="45.0861" lon="5.99649">
        <ele>971</ele>
        <time>2024-10-15T13:39:38.000Z</time>
      </trkpt>
      <trkpt lat="45.08607" lon="5.99651">
        <ele>970.79998779297</ele>
        <time>2024-10-15T13:39:39.000Z</time>
      </trkpt>
      <trkpt lat="45.08606" lon="5.99654">
        <ele>970.59997558594</ele>
        <time>2024-10-15T13:39:40.000Z</time>
      </trkpt>
      <trkpt lat="45.08605" lon="5.99655">
        <ele>970.40002441406</ele>
        <time>2024-10-15T13:39:41.000Z</time>
      </trkpt>
      <trkpt lat="45.08604" lon="5.99655">
        <ele>970</ele>
        <time>2024-10-15T13:39:42.000Z</time>
      </trkpt>
      <trkpt lat="45.08604" lon="5.99656">
        <ele>969.59997558594</ele>
        <time>2024-10-15T13:39:43.000Z</time>
      </trkpt>
      <trkpt lat="45.08604" lon="5.99657">
        <ele>969.40002441406</ele>
        <time>2024-10-15T13:39:44.000Z</time>
      </trkpt>
      <trkpt lat="45.08604" lon="5.99659">
        <ele>969</ele>
        <time>2024-10-15T13:39:45.000Z</time>
      </trkpt>
      <trkpt lat="45.08604" lon="5.99661">
        <ele>968.59997558594</ele>
        <time>2024-10-15T13:39:46.000Z</time>
      </trkpt>
      <trkpt lat="45.08603" lon="5.99661">
        <ele>968.40002441406</ele>
        <time>2024-10-15T13:39:47.000Z</time>
      </trkpt>
      <trkpt lat="45.08603" lon="5.99661">
        <ele>968</ele>
        <time>2024-10-15T13:39:48.000Z</time>
      </trkpt>
      <trkpt lat="45.08603" lon="5.99662">
        <ele>967.59997558594</ele>
        <time>2024-10-15T13:39:49.000Z</time>
      </trkpt>
      <trkpt lat="45.08604" lon="5.99661">
        <ele>967.20001220703</ele>
        <time>2024-10-15T13:39:50.000Z</time>
      </trkpt>
      <trkpt lat="45.08605" lon="5.99661">
        <ele>966.79998779297</ele>
        <time>2024-10-15T13:39:51.000Z</time>
      </trkpt>
      <trkpt lat="45.08605" lon="5.9966">
        <ele>966.40002441406</ele>
        <time>2024-10-15T13:39:52.000Z</time>
      </trkpt>
      <trkpt lat="45.08606" lon="5.99659">
        <ele>966.20001220703</ele>
        <time>2024-10-15T13:39:53.000Z</time>
      </trkpt>
      <trkpt lat="45.08607" lon="5.99659">
        <ele>965.79998779297</ele>
        <time>2024-10-15T13:39:54.000Z</time>
      </trkpt>
      <trkpt lat="45.08607" lon="5.99659">
        <ele>965.59997558594</ele>
        <time>2024-10-15T13:39:55.000Z</time>
      </trkpt>
      <trkpt lat="45.08608" lon="5.9966">
        <ele>965.40002441406</ele>
        <time>2024-10-15T13:39:56.000Z</time>
      </trkpt>
      <trkpt lat="45.08609" lon="5.99662">
        <ele>965</ele>
        <time>2024-10-15T13:39:57.000Z</time>
      </trkpt>
      <trkpt lat="45.08609" lon="5.99664">
        <ele>964.79998779297</ele>
        <time>2024-10-15T13:39:58.000Z</time>
      </trkpt>
      <trkpt lat="45.08608" lon="5.99667">
        <ele>964.40002441406</ele>
        <time>2024-10-15T13:39:59.000Z</time>
      </trkpt>
      <trkpt lat="45.08607" lon="5.9967">
        <ele>964</ele>
        <time>2024-10-15T13:40:00.000Z</time>
      </trkpt>
      <trkpt lat="45.08604" lon="5.99672">
        <ele>963.59997558594</ele>
        <time>2024-10-15T13:40:01.000Z</time>
      </trkpt>
      <trkpt lat="45.08603" lon="5.99674">
        <ele>963.20001220703</ele>
        <time>2024-10-15T13:40:02.000Z</time>
      </trkpt>
      <trkpt lat="45.08601" lon="5.99675">
        <ele>963</ele>
        <time>2024-10-15T13:40:03.000Z</time>
      </trkpt>
      <trkpt lat="45.086" lon="5.99676">
        <ele>962.79998779297</ele>
        <time>2024-10-15T13:40:04.000Z</time>
      </trkpt>
      <trkpt lat="45.086" lon="5.99677">
        <ele>962.59997558594</ele>
        <time>2024-10-15T13:40:05.000Z</time>
      </trkpt>
      <trkpt lat="45.08599" lon="5.99677">
        <ele>962.40002441406</ele>
        <time>2024-10-15T13:40:06.000Z</time>
      </trkpt>
      <trkpt lat="45.08598" lon="5.99678">
        <ele>962.20001220703</ele>
        <time>2024-10-15T13:40:07.000Z</time>
      </trkpt>
      <trkpt lat="45.08597" lon="5.99679">
        <ele>962</ele>
        <time>2024-10-15T13:40:08.000Z</time>
      </trkpt>
      <trkpt lat="45.08597" lon="5.9968">
        <ele>961.59997558594</ele>
        <time>2024-10-15T13:40:09.000Z</time>
      </trkpt>
      <trkpt lat="45.08597" lon="5.99681">
        <ele>961.20001220703</ele>
        <time>2024-10-15T13:40:10.000Z</time>
      </trkpt>
      <trkpt lat="45.08598" lon="5.99682">
        <ele>960.59997558594</ele>
        <time>2024-10-15T13:40:11.000Z</time>
      </trkpt>
      <trkpt lat="45.08598" lon="5.99683">
        <ele>960</ele>
        <time>2024-10-15T13:40:12.000Z</time>
      </trkpt>
      <trkpt lat="45.08599" lon="5.99683">
        <ele>959.40002441406</ele>
        <time>2024-10-15T13:40:13.000Z</time>
      </trkpt>
      <trkpt lat="45.086" lon="5.99683">
        <ele>959</ele>
        <time>2024-10-15T13:40:14.000Z</time>
      </trkpt>
      <trkpt lat="45.08601" lon="5.99682">
        <ele>958.40002441406</ele>
        <time>2024-10-15T13:40:15.000Z</time>
      </trkpt>
      <trkpt lat="45.08601" lon="5.99681">
        <ele>958.20001220703</ele>
        <time>2024-10-15T13:40:16.000Z</time>
      </trkpt>
      <trkpt lat="45.08602" lon="5.9968">
        <ele>957.79998779297</ele>
        <time>2024-10-15T13:40:17.000Z</time>
      </trkpt>
      <trkpt lat="45.08602" lon="5.9968">
        <ele>957.40002441406</ele>
        <time>2024-10-15T13:40:18.000Z</time>
      </trkpt>
      <trkpt lat="45.08603" lon="5.99679">
        <ele>957.40002441406</ele>
        <time>2024-10-15T13:40:19.000Z</time>
      </trkpt>
      <trkpt lat="45.08603" lon="5.9968">
        <ele>957.20001220703</ele>
        <time>2024-10-15T13:40:20.000Z</time>
      </trkpt>
      <trkpt lat="45.08602" lon="5.9968">
        <ele>957</ele>
        <time>2024-10-15T13:40:21.000Z</time>
      </trkpt>
      <trkpt lat="45.08603" lon="5.9968">
        <ele>957</ele>
        <time>2024-10-15T13:40:22.000Z</time>
      </trkpt>
      <trkpt lat="45.08605" lon="5.99681">
        <ele>957</ele>
        <time>2024-10-15T13:40:23.000Z</time>
      </trkpt>
      <trkpt lat="45.08606" lon="5.99682">
        <ele>957</ele>
        <time>2024-10-15T13:40:24.000Z</time>
      </trkpt>
      <trkpt lat="45.08608" lon="5.99682">
        <ele>956.79998779297</ele>
        <time>2024-10-15T13:40:25.000Z</time>
      </trkpt>
      <trkpt lat="45.08609" lon="5.99683">
        <ele>956.59997558594</ele>
        <time>2024-10-15T13:40:26.000Z</time>
      </trkpt>
      <trkpt lat="45.0861" lon="5.99683">
        <ele>956.40002441406</ele>
        <time>2024-10-15T13:40:27.000Z</time>
      </trkpt>
      <trkpt lat="45.08611" lon="5.99682">
        <ele>956</ele>
        <time>2024-10-15T13:40:28.000Z</time>
      </trkpt>
      <trkpt lat="45.08612" lon="5.99682">
        <ele>955.79998779297</ele>
        <time>2024-10-15T13:40:29.000Z</time>
      </trkpt>
      <trkpt lat="45.08612" lon="5.99681">
        <ele>955.59997558594</ele>
        <time>2024-10-15T13:40:30.000Z</time>
      </trkpt>
      <trkpt lat="45.08613" lon="5.9968">
        <ele>955.40002441406</ele>
        <time>2024-10-15T13:40:31.000Z</time>
      </trkpt>
      <trkpt lat="45.08615" lon="5.99681">
        <ele>955</ele>
        <time>2024-10-15T13:40:32.000Z</time>
      </trkpt>
      <trkpt lat="45.08616" lon="5.99682">
        <ele>954.59997558594</ele>
        <time>2024-10-15T13:40:33.000Z</time>
      </trkpt>
      <trkpt lat="45.08618" lon="5.99684">
        <ele>954.20001220703</ele>
        <time>2024-10-15T13:40:34.000Z</time>
      </trkpt>
      <trkpt lat="45.08618" lon="5.99686">
        <ele>954</ele>
        <time>2024-10-15T13:40:35.000Z</time>
      </trkpt>
      <trkpt lat="45.08618" lon="5.99688">
        <ele>953.40002441406</ele>
        <time>2024-10-15T13:40:36.000Z</time>
      </trkpt>
      <trkpt lat="45.08617" lon="5.9969">
        <ele>953</ele>
        <time>2024-10-15T13:40:37.000Z</time>
      </trkpt>
      <trkpt lat="45.08616" lon="5.99693">
        <ele>952.40002441406</ele>
        <time>2024-10-15T13:40:38.000Z</time>
      </trkpt>
      <trkpt lat="45.08616" lon="5.99695">
        <ele>952</ele>
        <time>2024-10-15T13:40:39.000Z</time>
      </trkpt>
      <trkpt lat="45.08617" lon="5.99698">
        <ele>951.59997558594</ele>
        <time>2024-10-15T13:40:40.000Z</time>
      </trkpt>
      <trkpt lat="45.08618" lon="5.99698">
        <ele>951.20001220703</ele>
        <time>2024-10-15T13:40:41.000Z</time>
      </trkpt>
      <trkpt lat="45.08617" lon="5.99697">
        <ele>950.59997558594</ele>
        <time>2024-10-15T13:40:42.000Z</time>
      </trkpt>
      <trkpt lat="45.08618" lon="5.99696">
        <ele>950.20001220703</ele>
        <time>2024-10-15T13:40:43.000Z</time>
      </trkpt>
      <trkpt lat="45.08619" lon="5.99695">
        <ele>949.79998779297</ele>
        <time>2024-10-15T13:40:44.000Z</time>
      </trkpt>
      <trkpt lat="45.08619" lon="5.99695">
        <ele>949.40002441406</ele>
        <time>2024-10-15T13:40:45.000Z</time>
      </trkpt>
      <trkpt lat="45.08619" lon="5.99695">
        <ele>949</ele>
        <time>2024-10-15T13:40:46.000Z</time>
      </trkpt>
      <trkpt lat="45.08619" lon="5.99695">
        <ele>948.59997558594</ele>
        <time>2024-10-15T13:40:47.000Z</time>
      </trkpt>
      <trkpt lat="45.0862" lon="5.99695">
        <ele>948.40002441406</ele>
        <time>2024-10-15T13:40:48.000Z</time>
      </trkpt>
      <trkpt lat="45.08622" lon="5.99696">
        <ele>948</ele>
        <time>2024-10-15T13:40:49.000Z</time>
      </trkpt>
      <trkpt lat="45.08623" lon="5.99696">
        <ele>947.59997558594</ele>
        <time>2024-10-15T13:40:50.000Z</time>
      </trkpt>
      <trkpt lat="45.08624" lon="5.99696">
        <ele>947.20001220703</ele>
        <time>2024-10-15T13:40:51.000Z</time>
      </trkpt>
      <trkpt lat="45.08625" lon="5.99697">
        <ele>947</ele>
        <time>2024-10-15T13:40:52.000Z</time>
      </trkpt>
      <trkpt lat="45.08627" lon="5.99698">
        <ele>946.79998779297</ele>
        <time>2024-10-15T13:40:53.000Z</time>
      </trkpt>
      <trkpt lat="45.08628" lon="5.99699">
        <ele>946.20001220703</ele>
        <time>2024-10-15T13:40:54.000Z</time>
      </trkpt>
      <trkpt lat="45.08629" lon="5.997">
        <ele>945.59997558594</ele>
        <time>2024-10-15T13:40:55.000Z</time>
      </trkpt>
      <trkpt lat="45.0863" lon="5.99701">
        <ele>945.20001220703</ele>
        <time>2024-10-15T13:40:56.000Z</time>
      </trkpt>
      <trkpt lat="45.08631" lon="5.99702">
        <ele>944.40002441406</ele>
        <time>2024-10-15T13:40:57.000Z</time>
      </trkpt>
      <trkpt lat="45.08631" lon="5.99703">
        <ele>944</ele>
        <time>2024-10-15T13:40:58.000Z</time>
      </trkpt>
      <trkpt lat="45.08632" lon="5.99704">
        <ele>943.59997558594</ele>
        <time>2024-10-15T13:40:59.000Z</time>
      </trkpt>
      <trkpt lat="45.08633" lon="5.99704">
        <ele>943.40002441406</ele>
        <time>2024-10-15T13:41:00.000Z</time>
      </trkpt>
      <trkpt lat="45.08634" lon="5.99705">
        <ele>942.79998779297</ele>
        <time>2024-10-15T13:41:01.000Z</time>
      </trkpt>
      <trkpt lat="45.08635" lon="5.99705">
        <ele>942.79998779297</ele>
        <time>2024-10-15T13:41:02.000Z</time>
      </trkpt>
      <trkpt lat="45.08636" lon="5.99706">
        <ele>942.59997558594</ele>
        <time>2024-10-15T13:41:03.000Z</time>
      </trkpt>
      <trkpt lat="45.08637" lon="5.99707">
        <ele>942.40002441406</ele>
        <time>2024-10-15T13:41:04.000Z</time>
      </trkpt>
      <trkpt lat="45.08638" lon="5.99708">
        <ele>942.20001220703</ele>
        <time>2024-10-15T13:41:05.000Z</time>
      </trkpt>
      <trkpt lat="45.08638" lon="5.9971">
        <ele>941.79998779297</ele>
        <time>2024-10-15T13:41:06.000Z</time>
      </trkpt>
      <trkpt lat="45.08638" lon="5.99712">
        <ele>941.40002441406</ele>
        <time>2024-10-15T13:41:07.000Z</time>
      </trkpt>
      <trkpt lat="45.08637" lon="5.99713">
        <ele>940.79998779297</ele>
        <time>2024-10-15T13:41:08.000Z</time>
      </trkpt>
      <trkpt lat="45.08636" lon="5.99715">
        <ele>940.59997558594</ele>
        <time>2024-10-15T13:41:09.000Z</time>
      </trkpt>
      <trkpt lat="45.08636" lon="5.99716">
        <ele>940.40002441406</ele>
        <time>2024-10-15T13:41:10.000Z</time>
      </trkpt>
      <trkpt lat="45.08635" lon="5.99717">
        <ele>940</ele>
        <time>2024-10-15T13:41:11.000Z</time>
      </trkpt>
      <trkpt lat="45.08635" lon="5.99719">
        <ele>939.59997558594</ele>
        <time>2024-10-15T13:41:12.000Z</time>
      </trkpt>
      <trkpt lat="45.08634" lon="5.99718">
        <ele>939.20001220703</ele>
        <time>2024-10-15T13:41:13.000Z</time>
      </trkpt>
      <trkpt lat="45.08635" lon="5.99719">
        <ele>938.79998779297</ele>
        <time>2024-10-15T13:41:14.000Z</time>
      </trkpt>
      <trkpt lat="45.08636" lon="5.9972">
        <ele>938.40002441406</ele>
        <time>2024-10-15T13:41:15.000Z</time>
      </trkpt>
      <trkpt lat="45.08638" lon="5.9972">
        <ele>937.79998779297</ele>
        <time>2024-10-15T13:41:16.000Z</time>
      </trkpt>
      <trkpt lat="45.08639" lon="5.9972">
        <ele>937.20001220703</ele>
        <time>2024-10-15T13:41:17.000Z</time>
      </trkpt>
      <trkpt lat="45.08641" lon="5.99719">
        <ele>936.79998779297</ele>
        <time>2024-10-15T13:41:18.000Z</time>
      </trkpt>
      <trkpt lat="45.08642" lon="5.99718">
        <ele>936.20001220703</ele>
        <time>2024-10-15T13:41:19.000Z</time>
      </trkpt>
      <trkpt lat="45.08642" lon="5.99718">
        <ele>936</ele>
        <time>2024-10-15T13:41:20.000Z</time>
      </trkpt>
      <trkpt lat="45.08642" lon="5.99717">
        <ele>936</ele>
        <time>2024-10-15T13:41:21.000Z</time>
      </trkpt>
      <trkpt lat="45.08643" lon="5.99717">
        <ele>935.79998779297</ele>
        <time>2024-10-15T13:41:22.000Z</time>
      </trkpt>
      <trkpt lat="45.08644" lon="5.99717">
        <ele>935.59997558594</ele>
        <time>2024-10-15T13:41:23.000Z</time>
      </trkpt>
      <trkpt lat="45.08645" lon="5.99716">
        <ele>935.20001220703</ele>
        <time>2024-10-15T13:41:24.000Z</time>
      </trkpt>
      <trkpt lat="45.08646" lon="5.99716">
        <ele>934.79998779297</ele>
        <time>2024-10-15T13:41:25.000Z</time>
      </trkpt>
      <trkpt lat="45.08646" lon="5.99715">
        <ele>934.40002441406</ele>
        <time>2024-10-15T13:41:26.000Z</time>
      </trkpt>
      <trkpt lat="45.08647" lon="5.99715">
        <ele>934</ele>
        <time>2024-10-15T13:41:27.000Z</time>
      </trkpt>
      <trkpt lat="45.08648" lon="5.99714">
        <ele>933.40002441406</ele>
        <time>2024-10-15T13:41:28.000Z</time>
      </trkpt>
      <trkpt lat="45.08649" lon="5.99712">
        <ele>933</ele>
        <time>2024-10-15T13:41:29.000Z</time>
      </trkpt>
      <trkpt lat="45.08649" lon="5.99711">
        <ele>932.40002441406</ele>
        <time>2024-10-15T13:41:30.000Z</time>
      </trkpt>
      <trkpt lat="45.08649" lon="5.99711">
        <ele>932</ele>
        <time>2024-10-15T13:41:31.000Z</time>
      </trkpt>
      <trkpt lat="45.08649" lon="5.9971">
        <ele>931.40002441406</ele>
        <time>2024-10-15T13:41:32.000Z</time>
      </trkpt>
      <trkpt lat="45.08648" lon="5.99707">
        <ele>931</ele>
        <time>2024-10-15T13:41:33.000Z</time>
      </trkpt>
      <trkpt lat="45.08649" lon="5.99706">
        <ele>930.79998779297</ele>
        <time>2024-10-15T13:41:34.000Z</time>
      </trkpt>
      <trkpt lat="45.0865" lon="5.99705">
        <ele>930.59997558594</ele>
        <time>2024-10-15T13:41:35.000Z</time>
      </trkpt>
      <trkpt lat="45.08653" lon="5.99706">
        <ele>930.20001220703</ele>
        <time>2024-10-15T13:41:36.000Z</time>
      </trkpt>
      <trkpt lat="45.08655" lon="5.99707">
        <ele>929.79998779297</ele>
        <time>2024-10-15T13:41:37.000Z</time>
      </trkpt>
      <trkpt lat="45.08656" lon="5.99709">
        <ele>929.40002441406</ele>
        <time>2024-10-15T13:41:38.000Z</time>
      </trkpt>
      <trkpt lat="45.08658" lon="5.99709">
        <ele>928.79998779297</ele>
        <time>2024-10-15T13:41:39.000Z</time>
      </trkpt>
      <trkpt lat="45.0866" lon="5.9971">
        <ele>928.40002441406</ele>
        <time>2024-10-15T13:41:40.000Z</time>
      </trkpt>
      <trkpt lat="45.08661" lon="5.9971">
        <ele>928</ele>
        <time>2024-10-15T13:41:41.000Z</time>
      </trkpt>
      <trkpt lat="45.08661" lon="5.99709">
        <ele>927.40002441406</ele>
        <time>2024-10-15T13:41:42.000Z</time>
      </trkpt>
      <trkpt lat="45.08662" lon="5.99709">
        <ele>927</ele>
        <time>2024-10-15T13:41:43.000Z</time>
      </trkpt>
      <trkpt lat="45.08663" lon="5.99708">
        <ele>926.79998779297</ele>
        <time>2024-10-15T13:41:44.000Z</time>
      </trkpt>
      <trkpt lat="45.08663" lon="5.99707">
        <ele>926.20001220703</ele>
        <time>2024-10-15T13:41:45.000Z</time>
      </trkpt>
      <trkpt lat="45.08664" lon="5.99706">
        <ele>926</ele>
        <time>2024-10-15T13:41:46.000Z</time>
      </trkpt>
      <trkpt lat="45.08664" lon="5.99705">
        <ele>925.59997558594</ele>
        <time>2024-10-15T13:41:47.000Z</time>
      </trkpt>
      <trkpt lat="45.08665" lon="5.99705">
        <ele>925.40002441406</ele>
        <time>2024-10-15T13:41:48.000Z</time>
      </trkpt>
      <trkpt lat="45.08666" lon="5.99705">
        <ele>925.20001220703</ele>
        <time>2024-10-15T13:41:49.000Z</time>
      </trkpt>
      <trkpt lat="45.08667" lon="5.99703">
        <ele>925</ele>
        <time>2024-10-15T13:41:50.000Z</time>
      </trkpt>
      <trkpt lat="45.08668" lon="5.99703">
        <ele>924.59997558594</ele>
        <time>2024-10-15T13:41:51.000Z</time>
      </trkpt>
      <trkpt lat="45.08668" lon="5.99704">
        <ele>924.40002441406</ele>
        <time>2024-10-15T13:41:52.000Z</time>
      </trkpt>
      <trkpt lat="45.08669" lon="5.99706">
        <ele>924</ele>
        <time>2024-10-15T13:41:53.000Z</time>
      </trkpt>
      <trkpt lat="45.0867" lon="5.99708">
        <ele>923.79998779297</ele>
        <time>2024-10-15T13:41:54.000Z</time>
      </trkpt>
      <trkpt lat="45.0867" lon="5.9971">
        <ele>923.40002441406</ele>
        <time>2024-10-15T13:41:55.000Z</time>
      </trkpt>
      <trkpt lat="45.08669" lon="5.99712">
        <ele>923</ele>
        <time>2024-10-15T13:41:56.000Z</time>
      </trkpt>
      <trkpt lat="45.08669" lon="5.99713">
        <ele>922.40002441406</ele>
        <time>2024-10-15T13:41:57.000Z</time>
      </trkpt>
      <trkpt lat="45.08669" lon="5.99714">
        <ele>922</ele>
        <time>2024-10-15T13:41:58.000Z</time>
      </trkpt>
      <trkpt lat="45.0867" lon="5.99715">
        <ele>921.59997558594</ele>
        <time>2024-10-15T13:41:59.000Z</time>
      </trkpt>
      <trkpt lat="45.0867" lon="5.99717">
        <ele>921.20001220703</ele>
        <time>2024-10-15T13:42:00.000Z</time>
      </trkpt>
      <trkpt lat="45.08671" lon="5.99719">
        <ele>921</ele>
        <time>2024-10-15T13:42:01.000Z</time>
      </trkpt>
      <trkpt lat="45.08672" lon="5.99721">
        <ele>920.79998779297</ele>
        <time>2024-10-15T13:42:02.000Z</time>
      </trkpt>
      <trkpt lat="45.08672" lon="5.99724">
        <ele>920.59997558594</ele>
        <time>2024-10-15T13:42:03.000Z</time>
      </trkpt>
      <trkpt lat="45.08673" lon="5.99727">
        <ele>920.40002441406</ele>
        <time>2024-10-15T13:42:04.000Z</time>
      </trkpt>
      <trkpt lat="45.08673" lon="5.9973">
        <ele>920.20001220703</ele>
        <time>2024-10-15T13:42:05.000Z</time>
      </trkpt>
      <trkpt lat="45.08672" lon="5.99732">
        <ele>919.79998779297</ele>
        <time>2024-10-15T13:42:06.000Z</time>
      </trkpt>
      <trkpt lat="45.08673" lon="5.99734">
        <ele>919.59997558594</ele>
        <time>2024-10-15T13:42:07.000Z</time>
      </trkpt>
      <trkpt lat="45.08675" lon="5.99737">
        <ele>919.20001220703</ele>
        <time>2024-10-15T13:42:08.000Z</time>
      </trkpt>
      <trkpt lat="45.08676" lon="5.99739">
        <ele>919</ele>
        <time>2024-10-15T13:42:09.000Z</time>
      </trkpt>
      <trkpt lat="45.08675" lon="5.99741">
        <ele>918.59997558594</ele>
        <time>2024-10-15T13:42:10.000Z</time>
      </trkpt>
      <trkpt lat="45.08674" lon="5.99743">
        <ele>918.59997558594</ele>
        <time>2024-10-15T13:42:11.000Z</time>
      </trkpt>
      <trkpt lat="45.08674" lon="5.99744">
        <ele>918</ele>
        <time>2024-10-15T13:42:12.000Z</time>
      </trkpt>
      <trkpt lat="45.08672" lon="5.99747">
        <ele>917.79998779297</ele>
        <time>2024-10-15T13:42:13.000Z</time>
      </trkpt>
      <trkpt lat="45.0867" lon="5.99748">
        <ele>917.59997558594</ele>
        <time>2024-10-15T13:42:14.000Z</time>
      </trkpt>
      <trkpt lat="45.08668" lon="5.9975">
        <ele>917.40002441406</ele>
        <time>2024-10-15T13:42:15.000Z</time>
      </trkpt>
      <trkpt lat="45.08667" lon="5.99753">
        <ele>917.20001220703</ele>
        <time>2024-10-15T13:42:16.000Z</time>
      </trkpt>
      <trkpt lat="45.08665" lon="5.99756">
        <ele>917.20001220703</ele>
        <time>2024-10-15T13:42:17.000Z</time>
      </trkpt>
      <trkpt lat="45.08664" lon="5.99757">
        <ele>917</ele>
        <time>2024-10-15T13:42:18.000Z</time>
      </trkpt>
      <trkpt lat="45.08662" lon="5.99758">
        <ele>916.59997558594</ele>
        <time>2024-10-15T13:42:19.000Z</time>
      </trkpt>
      <trkpt lat="45.08661" lon="5.99759">
        <ele>916.20001220703</ele>
        <time>2024-10-15T13:42:20.000Z</time>
      </trkpt>
      <trkpt lat="45.08659" lon="5.99761">
        <ele>915.59997558594</ele>
        <time>2024-10-15T13:42:21.000Z</time>
      </trkpt>
      <trkpt lat="45.08657" lon="5.99763">
        <ele>915.40002441406</ele>
        <time>2024-10-15T13:42:22.000Z</time>
      </trkpt>
      <trkpt lat="45.08656" lon="5.99765">
        <ele>915.20001220703</ele>
        <time>2024-10-15T13:42:23.000Z</time>
      </trkpt>
      <trkpt lat="45.08657" lon="5.99766">
        <ele>915</ele>
        <time>2024-10-15T13:42:24.000Z</time>
      </trkpt>
      <trkpt lat="45.08658" lon="5.99766">
        <ele>914.59997558594</ele>
        <time>2024-10-15T13:42:25.000Z</time>
      </trkpt>
      <trkpt lat="45.08658" lon="5.99767">
        <ele>914</ele>
        <time>2024-10-15T13:42:26.000Z</time>
      </trkpt>
      <trkpt lat="45.08659" lon="5.99767">
        <ele>913.40002441406</ele>
        <time>2024-10-15T13:42:27.000Z</time>
      </trkpt>
      <trkpt lat="45.08659" lon="5.99767">
        <ele>913.20001220703</ele>
        <time>2024-10-15T13:42:28.000Z</time>
      </trkpt>
      <trkpt lat="45.0866" lon="5.99766">
        <ele>912.79998779297</ele>
        <time>2024-10-15T13:42:29.000Z</time>
      </trkpt>
      <trkpt lat="45.0866" lon="5.99766">
        <ele>912.59997558594</ele>
        <time>2024-10-15T13:42:30.000Z</time>
      </trkpt>
      <trkpt lat="45.08661" lon="5.99766">
        <ele>912.20001220703</ele>
        <time>2024-10-15T13:42:31.000Z</time>
      </trkpt>
      <trkpt lat="45.08662" lon="5.99766">
        <ele>912</ele>
        <time>2024-10-15T13:42:32.000Z</time>
      </trkpt>
      <trkpt lat="45.08662" lon="5.99766">
        <ele>911.59997558594</ele>
        <time>2024-10-15T13:42:33.000Z</time>
      </trkpt>
      <trkpt lat="45.08662" lon="5.99765">
        <ele>911.20001220703</ele>
        <time>2024-10-15T13:42:34.000Z</time>
      </trkpt>
      <trkpt lat="45.08662" lon="5.99764">
        <ele>910.79998779297</ele>
        <time>2024-10-15T13:42:35.000Z</time>
      </trkpt>
      <trkpt lat="45.08663" lon="5.99764">
        <ele>910.79998779297</ele>
        <time>2024-10-15T13:42:36.000Z</time>
      </trkpt>
      <trkpt lat="45.08663" lon="5.99763">
        <ele>910.59997558594</ele>
        <time>2024-10-15T13:42:37.000Z</time>
      </trkpt>
      <trkpt lat="45.08664" lon="5.99761">
        <ele>910.40002441406</ele>
        <time>2024-10-15T13:42:38.000Z</time>
      </trkpt>
      <trkpt lat="45.08665" lon="5.99759">
        <ele>910.20001220703</ele>
        <time>2024-10-15T13:42:39.000Z</time>
      </trkpt>
      <trkpt lat="45.08666" lon="5.99758">
        <ele>909.79998779297</ele>
        <time>2024-10-15T13:42:40.000Z</time>
      </trkpt>
      <trkpt lat="45.08666" lon="5.99756">
        <ele>909.40002441406</ele>
        <time>2024-10-15T13:42:41.000Z</time>
      </trkpt>
      <trkpt lat="45.08667" lon="5.99756">
        <ele>909.20001220703</ele>
        <time>2024-10-15T13:42:42.000Z</time>
      </trkpt>
      <trkpt lat="45.08667" lon="5.99755">
        <ele>908.79998779297</ele>
        <time>2024-10-15T13:42:43.000Z</time>
      </trkpt>
      <trkpt lat="45.08668" lon="5.99755">
        <ele>908.59997558594</ele>
        <time>2024-10-15T13:42:44.000Z</time>
      </trkpt>
      <trkpt lat="45.08669" lon="5.99754">
        <ele>908.20001220703</ele>
        <time>2024-10-15T13:42:45.000Z</time>
      </trkpt>
      <trkpt lat="45.08672" lon="5.99754">
        <ele>907.79998779297</ele>
        <time>2024-10-15T13:42:46.000Z</time>
      </trkpt>
      <trkpt lat="45.08675" lon="5.99756">
        <ele>907.59997558594</ele>
        <time>2024-10-15T13:42:47.000Z</time>
      </trkpt>
      <trkpt lat="45.08678" lon="5.99759">
        <ele>907</ele>
        <time>2024-10-15T13:42:48.000Z</time>
      </trkpt>
      <trkpt lat="45.08679" lon="5.99761">
        <ele>906.79998779297</ele>
        <time>2024-10-15T13:42:49.000Z</time>
      </trkpt>
      <trkpt lat="45.08679" lon="5.99763">
        <ele>906.40002441406</ele>
        <time>2024-10-15T13:42:50.000Z</time>
      </trkpt>
      <trkpt lat="45.08678" lon="5.99765">
        <ele>906</ele>
        <time>2024-10-15T13:42:51.000Z</time>
      </trkpt>
      <trkpt lat="45.08677" lon="5.99767">
        <ele>905.59997558594</ele>
        <time>2024-10-15T13:42:52.000Z</time>
      </trkpt>
      <trkpt lat="45.08677" lon="5.9977">
        <ele>905.40002441406</ele>
        <time>2024-10-15T13:42:53.000Z</time>
      </trkpt>
      <trkpt lat="45.08677" lon="5.99771">
        <ele>904.79998779297</ele>
        <time>2024-10-15T13:42:54.000Z</time>
      </trkpt>
      <trkpt lat="45.08676" lon="5.99773">
        <ele>904.40002441406</ele>
        <time>2024-10-15T13:42:55.000Z</time>
      </trkpt>
      <trkpt lat="45.08676" lon="5.99774">
        <ele>904.20001220703</ele>
        <time>2024-10-15T13:42:56.000Z</time>
      </trkpt>
      <trkpt lat="45.08676" lon="5.99776">
        <ele>904</ele>
        <time>2024-10-15T13:42:57.000Z</time>
      </trkpt>
      <trkpt lat="45.08677" lon="5.99778">
        <ele>903.59997558594</ele>
        <time>2024-10-15T13:42:58.000Z</time>
      </trkpt>
      <trkpt lat="45.08676" lon="5.99779">
        <ele>903.40002441406</ele>
        <time>2024-10-15T13:42:59.000Z</time>
      </trkpt>
      <trkpt lat="45.08676" lon="5.99781">
        <ele>903</ele>
        <time>2024-10-15T13:43:00.000Z</time>
      </trkpt>
      <trkpt lat="45.08676" lon="5.99784">
        <ele>902.59997558594</ele>
        <time>2024-10-15T13:43:01.000Z</time>
      </trkpt>
      <trkpt lat="45.08676" lon="5.99786">
        <ele>902.20001220703</ele>
        <time>2024-10-15T13:43:02.000Z</time>
      </trkpt>
      <trkpt lat="45.08674" lon="5.9979">
        <ele>901.59997558594</ele>
        <time>2024-10-15T13:43:03.000Z</time>
      </trkpt>
      <trkpt lat="45.08673" lon="5.99793">
        <ele>901</ele>
        <time>2024-10-15T13:43:04.000Z</time>
      </trkpt>
      <trkpt lat="45.0867" lon="5.99796">
        <ele>900.59997558594</ele>
        <time>2024-10-15T13:43:05.000Z</time>
      </trkpt>
      <trkpt lat="45.08667" lon="5.99797">
        <ele>900</ele>
        <time>2024-10-15T13:43:06.000Z</time>
      </trkpt>
      <trkpt lat="45.08665" lon="5.99797">
        <ele>899.79998779297</ele>
        <time>2024-10-15T13:43:07.000Z</time>
      </trkpt>
      <trkpt lat="45.08665" lon="5.99797">
        <ele>899.40002441406</ele>
        <time>2024-10-15T13:43:08.000Z</time>
      </trkpt>
      <trkpt lat="45.08664" lon="5.99798">
        <ele>899.20001220703</ele>
        <time>2024-10-15T13:43:09.000Z</time>
      </trkpt>
      <trkpt lat="45.08665" lon="5.99799">
        <ele>898.79998779297</ele>
        <time>2024-10-15T13:43:10.000Z</time>
      </trkpt>
      <trkpt lat="45.08665" lon="5.99798">
        <ele>898.20001220703</ele>
        <time>2024-10-15T13:43:11.000Z</time>
      </trkpt>
      <trkpt lat="45.08665" lon="5.99797">
        <ele>898</ele>
        <time>2024-10-15T13:43:12.000Z</time>
      </trkpt>
      <trkpt lat="45.08665" lon="5.99796">
        <ele>897.59997558594</ele>
        <time>2024-10-15T13:43:13.000Z</time>
      </trkpt>
      <trkpt lat="45.08666" lon="5.99796">
        <ele>897</ele>
        <time>2024-10-15T13:43:14.000Z</time>
      </trkpt>
      <trkpt lat="45.08666" lon="5.99797">
        <ele>896.59997558594</ele>
        <time>2024-10-15T13:43:15.000Z</time>
      </trkpt>
      <trkpt lat="45.08666" lon="5.99797">
        <ele>896.20001220703</ele>
        <time>2024-10-15T13:43:16.000Z</time>
      </trkpt>
      <trkpt lat="45.08666" lon="5.99798">
        <ele>895.79998779297</ele>
        <time>2024-10-15T13:43:17.000Z</time>
      </trkpt>
      <trkpt lat="45.08667" lon="5.99797">
        <ele>895.40002441406</ele>
        <time>2024-10-15T13:43:18.000Z</time>
      </trkpt>
      <trkpt lat="45.08667" lon="5.99796">
        <ele>894.79998779297</ele>
        <time>2024-10-15T13:43:19.000Z</time>
      </trkpt>
      <trkpt lat="45.08668" lon="5.99794">
        <ele>894.40002441406</ele>
        <time>2024-10-15T13:43:20.000Z</time>
      </trkpt>
      <trkpt lat="45.08668" lon="5.99793">
        <ele>894</ele>
        <time>2024-10-15T13:43:21.000Z</time>
      </trkpt>
      <trkpt lat="45.08668" lon="5.99792">
        <ele>893.59997558594</ele>
        <time>2024-10-15T13:43:22.000Z</time>
      </trkpt>
      <trkpt lat="45.08668" lon="5.9979">
        <ele>893.20001220703</ele>
        <time>2024-10-15T13:43:23.000Z</time>
      </trkpt>
      <trkpt lat="45.08668" lon="5.99788">
        <ele>893</ele>
        <time>2024-10-15T13:43:24.000Z</time>
      </trkpt>
      <trkpt lat="45.0867" lon="5.99788">
        <ele>892.59997558594</ele>
        <time>2024-10-15T13:43:25.000Z</time>
      </trkpt>
      <trkpt lat="45.08671" lon="5.99788">
        <ele>892.40002441406</ele>
        <time>2024-10-15T13:43:26.000Z</time>
      </trkpt>
      <trkpt lat="45.08672" lon="5.99789">
        <ele>892</ele>
        <time>2024-10-15T13:43:27.000Z</time>
      </trkpt>
      <trkpt lat="45.08673" lon="5.99789">
        <ele>891.59997558594</ele>
        <time>2024-10-15T13:43:28.000Z</time>
      </trkpt>
      <trkpt lat="45.08674" lon="5.99791">
        <ele>891.20001220703</ele>
        <time>2024-10-15T13:43:29.000Z</time>
      </trkpt>
      <trkpt lat="45.08675" lon="5.99793">
        <ele>891</ele>
        <time>2024-10-15T13:43:30.000Z</time>
      </trkpt>
      <trkpt lat="45.08676" lon="5.99795">
        <ele>890.40002441406</ele>
        <time>2024-10-15T13:43:31.000Z</time>
      </trkpt>
      <trkpt lat="45.08676" lon="5.99797">
        <ele>890</ele>
        <time>2024-10-15T13:43:32.000Z</time>
      </trkpt>
      <trkpt lat="45.08676" lon="5.99799">
        <ele>889.59997558594</ele>
        <time>2024-10-15T13:43:33.000Z</time>
      </trkpt>
      <trkpt lat="45.08676" lon="5.99802">
        <ele>889.20001220703</ele>
        <time>2024-10-15T13:43:34.000Z</time>
      </trkpt>
      <trkpt lat="45.08676" lon="5.99803">
        <ele>889</ele>
        <time>2024-10-15T13:43:35.000Z</time>
      </trkpt>
      <trkpt lat="45.08675" lon="5.99806">
        <ele>888.79998779297</ele>
        <time>2024-10-15T13:43:36.000Z</time>
      </trkpt>
      <trkpt lat="45.08675" lon="5.99808">
        <ele>888.59997558594</ele>
        <time>2024-10-15T13:43:37.000Z</time>
      </trkpt>
      <trkpt lat="45.08675" lon="5.99809">
        <ele>888.40002441406</ele>
        <time>2024-10-15T13:43:38.000Z</time>
      </trkpt>
      <trkpt lat="45.08674" lon="5.9981">
        <ele>888.20001220703</ele>
        <time>2024-10-15T13:43:39.000Z</time>
      </trkpt>
      <trkpt lat="45.08672" lon="5.9981">
        <ele>888</ele>
        <time>2024-10-15T13:43:40.000Z</time>
      </trkpt>
      <trkpt lat="45.0867" lon="5.99812">
        <ele>888</ele>
        <time>2024-10-15T13:43:41.000Z</time>
      </trkpt>
      <trkpt lat="45.08668" lon="5.99814">
        <ele>887.79998779297</ele>
        <time>2024-10-15T13:43:42.000Z</time>
      </trkpt>
      <trkpt lat="45.08666" lon="5.99815">
        <ele>887.59997558594</ele>
        <time>2024-10-15T13:43:43.000Z</time>
      </trkpt>
      <trkpt lat="45.08664" lon="5.99815">
        <ele>887.40002441406</ele>
        <time>2024-10-15T13:43:44.000Z</time>
      </trkpt>
      <trkpt lat="45.08663" lon="5.99815">
        <ele>887.20001220703</ele>
        <time>2024-10-15T13:43:45.000Z</time>
      </trkpt>
      <trkpt lat="45.08664" lon="5.99816">
        <ele>886.79998779297</ele>
        <time>2024-10-15T13:43:46.000Z</time>
      </trkpt>
      <trkpt lat="45.08664" lon="5.99816">
        <ele>886.59997558594</ele>
        <time>2024-10-15T13:43:47.000Z</time>
      </trkpt>
      <trkpt lat="45.08665" lon="5.99816">
        <ele>886.20001220703</ele>
        <time>2024-10-15T13:43:48.000Z</time>
      </trkpt>
      <trkpt lat="45.08665" lon="5.99817">
        <ele>885.79998779297</ele>
        <time>2024-10-15T13:43:49.000Z</time>
      </trkpt>
      <trkpt lat="45.08666" lon="5.99816">
        <ele>885.59997558594</ele>
        <time>2024-10-15T13:43:50.000Z</time>
      </trkpt>
      <trkpt lat="45.08667" lon="5.99816">
        <ele>885.20001220703</ele>
        <time>2024-10-15T13:43:51.000Z</time>
      </trkpt>
      <trkpt lat="45.08668" lon="5.99817">
        <ele>885</ele>
        <time>2024-10-15T13:43:52.000Z</time>
      </trkpt>
      <trkpt lat="45.08669" lon="5.99818">
        <ele>884.79998779297</ele>
        <time>2024-10-15T13:43:53.000Z</time>
      </trkpt>
      <trkpt lat="45.08669" lon="5.99819">
        <ele>884.40002441406</ele>
        <time>2024-10-15T13:43:54.000Z</time>
      </trkpt>
      <trkpt lat="45.08668" lon="5.9982">
        <ele>883.79998779297</ele>
        <time>2024-10-15T13:43:55.000Z</time>
      </trkpt>
      <trkpt lat="45.08667" lon="5.99821">
        <ele>883.59997558594</ele>
        <time>2024-10-15T13:43:56.000Z</time>
      </trkpt>
      <trkpt lat="45.08666" lon="5.99822">
        <ele>883.20001220703</ele>
        <time>2024-10-15T13:43:57.000Z</time>
      </trkpt>
      <trkpt lat="45.08665" lon="5.99822">
        <ele>882.79998779297</ele>
        <time>2024-10-15T13:43:58.000Z</time>
      </trkpt>
      <trkpt lat="45.08664" lon="5.99822">
        <ele>882.40002441406</ele>
        <time>2024-10-15T13:43:59.000Z</time>
      </trkpt>
      <trkpt lat="45.08662" lon="5.99823">
        <ele>882</ele>
        <time>2024-10-15T13:44:00.000Z</time>
      </trkpt>
      <trkpt lat="45.08661" lon="5.99822">
        <ele>881.79998779297</ele>
        <time>2024-10-15T13:44:01.000Z</time>
      </trkpt>
      <trkpt lat="45.08661" lon="5.99823">
        <ele>881.40002441406</ele>
        <time>2024-10-15T13:44:02.000Z</time>
      </trkpt>
      <trkpt lat="45.08661" lon="5.99823">
        <ele>881</ele>
        <time>2024-10-15T13:44:03.000Z</time>
      </trkpt>
      <trkpt lat="45.08661" lon="5.99823">
        <ele>880.40002441406</ele>
        <time>2024-10-15T13:44:04.000Z</time>
      </trkpt>
      <trkpt lat="45.08662" lon="5.99823">
        <ele>880</ele>
        <time>2024-10-15T13:44:05.000Z</time>
      </trkpt>
      <trkpt lat="45.08662" lon="5.99822">
        <ele>879.59997558594</ele>
        <time>2024-10-15T13:44:06.000Z</time>
      </trkpt>
      <trkpt lat="45.08663" lon="5.99822">
        <ele>879.59997558594</ele>
        <time>2024-10-15T13:44:07.000Z</time>
      </trkpt>
      <trkpt lat="45.08664" lon="5.99822">
        <ele>879</ele>
        <time>2024-10-15T13:44:08.000Z</time>
      </trkpt>
      <trkpt lat="45.08665" lon="5.99822">
        <ele>878.79998779297</ele>
        <time>2024-10-15T13:44:09.000Z</time>
      </trkpt>
      <trkpt lat="45.08665" lon="5.99822">
        <ele>878.59997558594</ele>
        <time>2024-10-15T13:44:10.000Z</time>
      </trkpt>
      <trkpt lat="45.08666" lon="5.99823">
        <ele>878.20001220703</ele>
        <time>2024-10-15T13:44:11.000Z</time>
      </trkpt>
      <trkpt lat="45.08666" lon="5.99823">
        <ele>878</ele>
        <time>2024-10-15T13:44:12.000Z</time>
      </trkpt>
      <trkpt lat="45.08667" lon="5.99824">
        <ele>877.59997558594</ele>
        <time>2024-10-15T13:44:13.000Z</time>
      </trkpt>
      <trkpt lat="45.08669" lon="5.99825">
        <ele>877.40002441406</ele>
        <time>2024-10-15T13:44:14.000Z</time>
      </trkpt>
      <trkpt lat="45.0867" lon="5.99826">
        <ele>876.79998779297</ele>
        <time>2024-10-15T13:44:15.000Z</time>
      </trkpt>
      <trkpt lat="45.08671" lon="5.99826">
        <ele>876.40002441406</ele>
        <time>2024-10-15T13:44:16.000Z</time>
      </trkpt>
      <trkpt lat="45.0867" lon="5.99826">
        <ele>876</ele>
        <time>2024-10-15T13:44:17.000Z</time>
      </trkpt>
      <trkpt lat="45.08671" lon="5.99824">
        <ele>875.79998779297</ele>
        <time>2024-10-15T13:44:18.000Z</time>
      </trkpt>
      <trkpt lat="45.08671" lon="5.99824">
        <ele>875.20001220703</ele>
        <time>2024-10-15T13:44:19.000Z</time>
      </trkpt>
      <trkpt lat="45.08671" lon="5.99821">
        <ele>874.59997558594</ele>
        <time>2024-10-15T13:44:20.000Z</time>
      </trkpt>
      <trkpt lat="45.08671" lon="5.9982">
        <ele>874.40002441406</ele>
        <time>2024-10-15T13:44:21.000Z</time>
      </trkpt>
      <trkpt lat="45.08672" lon="5.9982">
        <ele>874</ele>
        <time>2024-10-15T13:44:22.000Z</time>
      </trkpt>
      <trkpt lat="45.08673" lon="5.9982">
        <ele>873.59997558594</ele>
        <time>2024-10-15T13:44:23.000Z</time>
      </trkpt>
      <trkpt lat="45.08675" lon="5.99818">
        <ele>873.20001220703</ele>
        <time>2024-10-15T13:44:24.000Z</time>
      </trkpt>
      <trkpt lat="45.08675" lon="5.99818">
        <ele>873.20001220703</ele>
        <time>2024-10-15T13:44:25.000Z</time>
      </trkpt>
      <trkpt lat="45.08675" lon="5.99817">
        <ele>873.20001220703</ele>
        <time>2024-10-15T13:44:26.000Z</time>
      </trkpt>
      <trkpt lat="45.08676" lon="5.99817">
        <ele>873.20001220703</ele>
        <time>2024-10-15T13:44:27.000Z</time>
      </trkpt>
      <trkpt lat="45.08676" lon="5.99816">
        <ele>873.20001220703</ele>
        <time>2024-10-15T13:44:28.000Z</time>
      </trkpt>
      <trkpt lat="45.08678" lon="5.99815">
        <ele>873.40002441406</ele>
        <time>2024-10-15T13:44:29.000Z</time>
      </trkpt>
      <trkpt lat="45.08678" lon="5.99815">
        <ele>873.79998779297</ele>
        <time>2024-10-15T13:44:30.000Z</time>
      </trkpt>
      <trkpt lat="45.08678" lon="5.99815">
        <ele>874</ele>
        <time>2024-10-15T13:44:31.000Z</time>
      </trkpt>
      <trkpt lat="45.08679" lon="5.99814">
        <ele>874</ele>
        <time>2024-10-15T13:44:32.000Z</time>
      </trkpt>
      <trkpt lat="45.08679" lon="5.99813">
        <ele>874</ele>
        <time>2024-10-15T13:44:33.000Z</time>
      </trkpt>
      <trkpt lat="45.0868" lon="5.99813">
        <ele>874</ele>
        <time>2024-10-15T13:44:34.000Z</time>
      </trkpt>
      <trkpt lat="45.08681" lon="5.99813">
        <ele>873.79998779297</ele>
        <time>2024-10-15T13:44:35.000Z</time>
      </trkpt>
      <trkpt lat="45.08682" lon="5.99815">
        <ele>873.20001220703</ele>
        <time>2024-10-15T13:44:36.000Z</time>
      </trkpt>
      <trkpt lat="45.08683" lon="5.99817">
        <ele>872.79998779297</ele>
        <time>2024-10-15T13:44:37.000Z</time>
      </trkpt>
      <trkpt lat="45.08683" lon="5.99819">
        <ele>872.59997558594</ele>
        <time>2024-10-15T13:44:38.000Z</time>
      </trkpt>
      <trkpt lat="45.08682" lon="5.99822">
        <ele>872.20001220703</ele>
        <time>2024-10-15T13:44:39.000Z</time>
      </trkpt>
      <trkpt lat="45.08683" lon="5.99825">
        <ele>871.59997558594</ele>
        <time>2024-10-15T13:44:40.000Z</time>
      </trkpt>
      <trkpt lat="45.08682" lon="5.99826">
        <ele>871.20001220703</ele>
        <time>2024-10-15T13:44:41.000Z</time>
      </trkpt>
      <trkpt lat="45.08681" lon="5.99829">
        <ele>870.59997558594</ele>
        <time>2024-10-15T13:44:42.000Z</time>
      </trkpt>
      <trkpt lat="45.08681" lon="5.9983">
        <ele>870</ele>
        <time>2024-10-15T13:44:43.000Z</time>
      </trkpt>
      <trkpt lat="45.08681" lon="5.99831">
        <ele>869.20001220703</ele>
        <time>2024-10-15T13:44:44.000Z</time>
      </trkpt>
      <trkpt lat="45.0868" lon="5.99832">
        <ele>868.79998779297</ele>
        <time>2024-10-15T13:44:45.000Z</time>
      </trkpt>
      <trkpt lat="45.0868" lon="5.99834">
        <ele>868.59997558594</ele>
        <time>2024-10-15T13:44:46.000Z</time>
      </trkpt>
      <trkpt lat="45.0868" lon="5.99834">
        <ele>868.20001220703</ele>
        <time>2024-10-15T13:44:47.000Z</time>
      </trkpt>
      <trkpt lat="45.0868" lon="5.99834">
        <ele>867.79998779297</ele>
        <time>2024-10-15T13:44:48.000Z</time>
      </trkpt>
      <trkpt lat="45.08681" lon="5.99834">
        <ele>867.40002441406</ele>
        <time>2024-10-15T13:44:49.000Z</time>
      </trkpt>
      <trkpt lat="45.08682" lon="5.99833">
        <ele>866.79998779297</ele>
        <time>2024-10-15T13:44:50.000Z</time>
      </trkpt>
      <trkpt lat="45.08684" lon="5.99832">
        <ele>866.40002441406</ele>
        <time>2024-10-15T13:44:51.000Z</time>
      </trkpt>
      <trkpt lat="45.08686" lon="5.99832">
        <ele>866.20001220703</ele>
        <time>2024-10-15T13:44:52.000Z</time>
      </trkpt>
      <trkpt lat="45.08687" lon="5.99831">
        <ele>865.59997558594</ele>
        <time>2024-10-15T13:44:53.000Z</time>
      </trkpt>
      <trkpt lat="45.08687" lon="5.9983">
        <ele>865.59997558594</ele>
        <time>2024-10-15T13:44:54.000Z</time>
      </trkpt>
      <trkpt lat="45.08687" lon="5.99831">
        <ele>865.40002441406</ele>
        <time>2024-10-15T13:44:55.000Z</time>
      </trkpt>
      <trkpt lat="45.08687" lon="5.99833">
        <ele>864.79998779297</ele>
        <time>2024-10-15T13:44:56.000Z</time>
      </trkpt>
      <trkpt lat="45.08685" lon="5.99836">
        <ele>864.40002441406</ele>
        <time>2024-10-15T13:44:57.000Z</time>
      </trkpt>
      <trkpt lat="45.08684" lon="5.99838">
        <ele>863.79998779297</ele>
        <time>2024-10-15T13:44:58.000Z</time>
      </trkpt>
      <trkpt lat="45.08683" lon="5.99839">
        <ele>863.40002441406</ele>
        <time>2024-10-15T13:44:59.000Z</time>
      </trkpt>
      <trkpt lat="45.08682" lon="5.99841">
        <ele>863</ele>
        <time>2024-10-15T13:45:00.000Z</time>
      </trkpt>
      <trkpt lat="45.08682" lon="5.99843">
        <ele>863</ele>
        <time>2024-10-15T13:45:01.000Z</time>
      </trkpt>
      <trkpt lat="45.08682" lon="5.99844">
        <ele>862.59997558594</ele>
        <time>2024-10-15T13:45:02.000Z</time>
      </trkpt>
      <trkpt lat="45.08683" lon="5.99844">
        <ele>862</ele>
        <time>2024-10-15T13:45:03.000Z</time>
      </trkpt>
      <trkpt lat="45.08684" lon="5.99843">
        <ele>861.40002441406</ele>
        <time>2024-10-15T13:45:04.000Z</time>
      </trkpt>
      <trkpt lat="45.08685" lon="5.99842">
        <ele>860.79998779297</ele>
        <time>2024-10-15T13:45:05.000Z</time>
      </trkpt>
      <trkpt lat="45.08685" lon="5.99843">
        <ele>860.20001220703</ele>
        <time>2024-10-15T13:45:06.000Z</time>
      </trkpt>
      <trkpt lat="45.08686" lon="5.99843">
        <ele>859.79998779297</ele>
        <time>2024-10-15T13:45:07.000Z</time>
      </trkpt>
      <trkpt lat="45.08686" lon="5.99844">
        <ele>859.40002441406</ele>
        <time>2024-10-15T13:45:08.000Z</time>
      </trkpt>
      <trkpt lat="45.08686" lon="5.99846">
        <ele>859</ele>
        <time>2024-10-15T13:45:09.000Z</time>
      </trkpt>
      <trkpt lat="45.08686" lon="5.99848">
        <ele>858.79998779297</ele>
        <time>2024-10-15T13:45:10.000Z</time>
      </trkpt>
      <trkpt lat="45.08685" lon="5.99849">
        <ele>858.40002441406</ele>
        <time>2024-10-15T13:45:11.000Z</time>
      </trkpt>
      <trkpt lat="45.08684" lon="5.99851">
        <ele>857.79998779297</ele>
        <time>2024-10-15T13:45:12.000Z</time>
      </trkpt>
      <trkpt lat="45.08682" lon="5.99852">
        <ele>857.40002441406</ele>
        <time>2024-10-15T13:45:13.000Z</time>
      </trkpt>
      <trkpt lat="45.0868" lon="5.99853">
        <ele>857</ele>
        <time>2024-10-15T13:45:14.000Z</time>
      </trkpt>
      <trkpt lat="45.08679" lon="5.99853">
        <ele>856.79998779297</ele>
        <time>2024-10-15T13:45:15.000Z</time>
      </trkpt>
      <trkpt lat="45.08678" lon="5.99853">
        <ele>856.59997558594</ele>
        <time>2024-10-15T13:45:16.000Z</time>
      </trkpt>
      <trkpt lat="45.08676" lon="5.99854">
        <ele>856.40002441406</ele>
        <time>2024-10-15T13:45:17.000Z</time>
      </trkpt>
      <trkpt lat="45.08675" lon="5.99855">
        <ele>856.20001220703</ele>
        <time>2024-10-15T13:45:18.000Z</time>
      </trkpt>
      <trkpt lat="45.08674" lon="5.99855">
        <ele>856</ele>
        <time>2024-10-15T13:45:19.000Z</time>
      </trkpt>
      <trkpt lat="45.08673" lon="5.99855">
        <ele>855.79998779297</ele>
        <time>2024-10-15T13:45:20.000Z</time>
      </trkpt>
      <trkpt lat="45.08672" lon="5.99856">
        <ele>855.40002441406</ele>
        <time>2024-10-15T13:45:21.000Z</time>
      </trkpt>
      <trkpt lat="45.08671" lon="5.99857">
        <ele>855.20001220703</ele>
        <time>2024-10-15T13:45:22.000Z</time>
      </trkpt>
      <trkpt lat="45.08669" lon="5.99858">
        <ele>855</ele>
        <time>2024-10-15T13:45:23.000Z</time>
      </trkpt>
      <trkpt lat="45.08667" lon="5.9986">
        <ele>854.59997558594</ele>
        <time>2024-10-15T13:45:24.000Z</time>
      </trkpt>
      <trkpt lat="45.08665" lon="5.99861">
        <ele>854.20001220703</ele>
        <time>2024-10-15T13:45:25.000Z</time>
      </trkpt>
      <trkpt lat="45.08663" lon="5.99862">
        <ele>853.79998779297</ele>
        <time>2024-10-15T13:45:26.000Z</time>
      </trkpt>
      <trkpt lat="45.08661" lon="5.99864">
        <ele>853.59997558594</ele>
        <time>2024-10-15T13:45:27.000Z</time>
      </trkpt>
      <trkpt lat="45.08659" lon="5.99866">
        <ele>853.20001220703</ele>
        <time>2024-10-15T13:45:28.000Z</time>
      </trkpt>
      <trkpt lat="45.08657" lon="5.99869">
        <ele>852.79998779297</ele>
        <time>2024-10-15T13:45:29.000Z</time>
      </trkpt>
      <trkpt lat="45.08655" lon="5.99868">
        <ele>852.79998779297</ele>
        <time>2024-10-15T13:45:30.000Z</time>
      </trkpt>
      <trkpt lat="45.08654" lon="5.99867">
        <ele>852.59997558594</ele>
        <time>2024-10-15T13:45:31.000Z</time>
      </trkpt>
      <trkpt lat="45.08653" lon="5.99868">
        <ele>852.40002441406</ele>
        <time>2024-10-15T13:45:32.000Z</time>
      </trkpt>
      <trkpt lat="45.08652" lon="5.99868">
        <ele>852.20001220703</ele>
        <time>2024-10-15T13:45:33.000Z</time>
      </trkpt>
      <trkpt lat="45.08652" lon="5.99868">
        <ele>852</ele>
        <time>2024-10-15T13:45:34.000Z</time>
      </trkpt>
      <trkpt lat="45.08652" lon="5.99867">
        <ele>852</ele>
        <time>2024-10-15T13:45:35.000Z</time>
      </trkpt>
      <trkpt lat="45.08654" lon="5.99867">
        <ele>851.40002441406</ele>
        <time>2024-10-15T13:45:36.000Z</time>
      </trkpt>
      <trkpt lat="45.08654" lon="5.99865">
        <ele>851</ele>
        <time>2024-10-15T13:45:37.000Z</time>
      </trkpt>
      <trkpt lat="45.08656" lon="5.99864">
        <ele>850.59997558594</ele>
        <time>2024-10-15T13:45:38.000Z</time>
      </trkpt>
      <trkpt lat="45.08656" lon="5.99863">
        <ele>849.59997558594</ele>
        <time>2024-10-15T13:45:39.000Z</time>
      </trkpt>
      <trkpt lat="45.08657" lon="5.99864">
        <ele>849.20001220703</ele>
        <time>2024-10-15T13:45:40.000Z</time>
      </trkpt>
      <trkpt lat="45.08659" lon="5.99864">
        <ele>848.59997558594</ele>
        <time>2024-10-15T13:45:41.000Z</time>
      </trkpt>
      <trkpt lat="45.0866" lon="5.99864">
        <ele>848</ele>
        <time>2024-10-15T13:45:42.000Z</time>
      </trkpt>
      <trkpt lat="45.08662" lon="5.99865">
        <ele>847.59997558594</ele>
        <time>2024-10-15T13:45:43.000Z</time>
      </trkpt>
      <trkpt lat="45.08662" lon="5.99865">
        <ele>847.20001220703</ele>
        <time>2024-10-15T13:45:44.000Z</time>
      </trkpt>
      <trkpt lat="45.08663" lon="5.99866">
        <ele>847</ele>
        <time>2024-10-15T13:45:45.000Z</time>
      </trkpt>
      <trkpt lat="45.08665" lon="5.99866">
        <ele>846.59997558594</ele>
        <time>2024-10-15T13:45:46.000Z</time>
      </trkpt>
      <trkpt lat="45.08665" lon="5.99866">
        <ele>846.20001220703</ele>
        <time>2024-10-15T13:45:47.000Z</time>
      </trkpt>
      <trkpt lat="45.08666" lon="5.99866">
        <ele>845.79998779297</ele>
        <time>2024-10-15T13:45:48.000Z</time>
      </trkpt>
      <trkpt lat="45.08667" lon="5.99866">
        <ele>845.59997558594</ele>
        <time>2024-10-15T13:45:49.000Z</time>
      </trkpt>
      <trkpt lat="45.08668" lon="5.99866">
        <ele>845.20001220703</ele>
        <time>2024-10-15T13:45:50.000Z</time>
      </trkpt>
      <trkpt lat="45.08669" lon="5.99866">
        <ele>844.59997558594</ele>
        <time>2024-10-15T13:45:51.000Z</time>
      </trkpt>
      <trkpt lat="45.0867" lon="5.99866">
        <ele>844.20001220703</ele>
        <time>2024-10-15T13:45:52.000Z</time>
      </trkpt>
      <trkpt lat="45.0867" lon="5.99865">
        <ele>844</ele>
        <time>2024-10-15T13:45:53.000Z</time>
      </trkpt>
      <trkpt lat="45.08671" lon="5.99864">
        <ele>843.59997558594</ele>
        <time>2024-10-15T13:45:54.000Z</time>
      </trkpt>
      <trkpt lat="45.08673" lon="5.99863">
        <ele>843.40002441406</ele>
        <time>2024-10-15T13:45:55.000Z</time>
      </trkpt>
      <trkpt lat="45.08674" lon="5.99861">
        <ele>843</ele>
        <time>2024-10-15T13:45:56.000Z</time>
      </trkpt>
      <trkpt lat="45.08675" lon="5.99861">
        <ele>842.59997558594</ele>
        <time>2024-10-15T13:45:57.000Z</time>
      </trkpt>
      <trkpt lat="45.08677" lon="5.99862">
        <ele>842.20001220703</ele>
        <time>2024-10-15T13:45:58.000Z</time>
      </trkpt>
      <trkpt lat="45.08678" lon="5.99861">
        <ele>842</ele>
        <time>2024-10-15T13:45:59.000Z</time>
      </trkpt>
      <trkpt lat="45.08678" lon="5.99861">
        <ele>841.59997558594</ele>
        <time>2024-10-15T13:46:00.000Z</time>
      </trkpt>
      <trkpt lat="45.0868" lon="5.99861">
        <ele>841.20001220703</ele>
        <time>2024-10-15T13:46:01.000Z</time>
      </trkpt>
      <trkpt lat="45.08681" lon="5.99861">
        <ele>840.79998779297</ele>
        <time>2024-10-15T13:46:02.000Z</time>
      </trkpt>
      <trkpt lat="45.08682" lon="5.99862">
        <ele>840.59997558594</ele>
        <time>2024-10-15T13:46:03.000Z</time>
      </trkpt>
      <trkpt lat="45.08684" lon="5.99863">
        <ele>840.20001220703</ele>
        <time>2024-10-15T13:46:04.000Z</time>
      </trkpt>
      <trkpt lat="45.08686" lon="5.99864">
        <ele>839.79998779297</ele>
        <time>2024-10-15T13:46:05.000Z</time>
      </trkpt>
      <trkpt lat="45.08688" lon="5.99866">
        <ele>839.40002441406</ele>
        <time>2024-10-15T13:46:06.000Z</time>
      </trkpt>
      <trkpt lat="45.0869" lon="5.99867">
        <ele>839.20001220703</ele>
        <time>2024-10-15T13:46:07.000Z</time>
      </trkpt>
      <trkpt lat="45.08692" lon="5.99867">
        <ele>838.79998779297</ele>
        <time>2024-10-15T13:46:08.000Z</time>
      </trkpt>
      <trkpt lat="45.08693" lon="5.99866">
        <ele>838.40002441406</ele>
        <time>2024-10-15T13:46:09.000Z</time>
      </trkpt>
      <trkpt lat="45.08694" lon="5.99866">
        <ele>838.40002441406</ele>
        <time>2024-10-15T13:46:10.000Z</time>
      </trkpt>
      <trkpt lat="45.08695" lon="5.99867">
        <ele>838.20001220703</ele>
        <time>2024-10-15T13:46:11.000Z</time>
      </trkpt>
      <trkpt lat="45.08695" lon="5.99868">
        <ele>837.79998779297</ele>
        <time>2024-10-15T13:46:12.000Z</time>
      </trkpt>
      <trkpt lat="45.08696" lon="5.9987">
        <ele>837.40002441406</ele>
        <time>2024-10-15T13:46:13.000Z</time>
      </trkpt>
      <trkpt lat="45.08698" lon="5.9987">
        <ele>837</ele>
        <time>2024-10-15T13:46:14.000Z</time>
      </trkpt>
      <trkpt lat="45.08698" lon="5.99871">
        <ele>836.59997558594</ele>
        <time>2024-10-15T13:46:15.000Z</time>
      </trkpt>
      <trkpt lat="45.08698" lon="5.99872">
        <ele>836.40002441406</ele>
        <time>2024-10-15T13:46:16.000Z</time>
      </trkpt>
      <trkpt lat="45.08699" lon="5.99873">
        <ele>836</ele>
        <time>2024-10-15T13:46:17.000Z</time>
      </trkpt>
      <trkpt lat="45.08701" lon="5.99875">
        <ele>835.59997558594</ele>
        <time>2024-10-15T13:46:18.000Z</time>
      </trkpt>
      <trkpt lat="45.08702" lon="5.99875">
        <ele>835</ele>
        <time>2024-10-15T13:46:19.000Z</time>
      </trkpt>
      <trkpt lat="45.08701" lon="5.99874">
        <ele>834.59997558594</ele>
        <time>2024-10-15T13:46:20.000Z</time>
      </trkpt>
      <trkpt lat="45.08702" lon="5.99873">
        <ele>834.40002441406</ele>
        <time>2024-10-15T13:46:21.000Z</time>
      </trkpt>
      <trkpt lat="45.08703" lon="5.99872">
        <ele>834.40002441406</ele>
        <time>2024-10-15T13:46:22.000Z</time>
      </trkpt>
      <trkpt lat="45.08704" lon="5.99872">
        <ele>834</ele>
        <time>2024-10-15T13:46:23.000Z</time>
      </trkpt>
      <trkpt lat="45.08704" lon="5.99872">
        <ele>833.79998779297</ele>
        <time>2024-10-15T13:46:24.000Z</time>
      </trkpt>
      <trkpt lat="45.08707" lon="5.99874">
        <ele>833.40002441406</ele>
        <time>2024-10-15T13:46:25.000Z</time>
      </trkpt>
      <trkpt lat="45.08709" lon="5.99874">
        <ele>833.20001220703</ele>
        <time>2024-10-15T13:46:26.000Z</time>
      </trkpt>
      <trkpt lat="45.08711" lon="5.99875">
        <ele>832.79998779297</ele>
        <time>2024-10-15T13:46:27.000Z</time>
      </trkpt>
      <trkpt lat="45.08711" lon="5.99875">
        <ele>832.59997558594</ele>
        <time>2024-10-15T13:46:28.000Z</time>
      </trkpt>
      <trkpt lat="45.08712" lon="5.99875">
        <ele>832.40002441406</ele>
        <time>2024-10-15T13:46:29.000Z</time>
      </trkpt>
      <trkpt lat="45.08714" lon="5.99876">
        <ele>832</ele>
        <time>2024-10-15T13:46:30.000Z</time>
      </trkpt>
      <trkpt lat="45.08714" lon="5.99877">
        <ele>832</ele>
        <time>2024-10-15T13:46:31.000Z</time>
      </trkpt>
      <trkpt lat="45.08714" lon="5.99877">
        <ele>831.79998779297</ele>
        <time>2024-10-15T13:46:32.000Z</time>
      </trkpt>
      <trkpt lat="45.08714" lon="5.99877">
        <ele>831.59997558594</ele>
        <time>2024-10-15T13:46:33.000Z</time>
      </trkpt>
      <trkpt lat="45.08715" lon="5.99877">
        <ele>831.20001220703</ele>
        <time>2024-10-15T13:46:34.000Z</time>
      </trkpt>
      <trkpt lat="45.08716" lon="5.99876">
        <ele>831</ele>
        <time>2024-10-15T13:46:35.000Z</time>
      </trkpt>
      <trkpt lat="45.08717" lon="5.99875">
        <ele>830.79998779297</ele>
        <time>2024-10-15T13:46:36.000Z</time>
      </trkpt>
      <trkpt lat="45.08718" lon="5.99875">
        <ele>830.40002441406</ele>
        <time>2024-10-15T13:46:37.000Z</time>
      </trkpt>
      <trkpt lat="45.08719" lon="5.99874">
        <ele>830</ele>
        <time>2024-10-15T13:46:38.000Z</time>
      </trkpt>
      <trkpt lat="45.0872" lon="5.99874">
        <ele>829.59997558594</ele>
        <time>2024-10-15T13:46:39.000Z</time>
      </trkpt>
      <trkpt lat="45.08721" lon="5.99873">
        <ele>829.20001220703</ele>
        <time>2024-10-15T13:46:40.000Z</time>
      </trkpt>
      <trkpt lat="45.08722" lon="5.99873">
        <ele>828.59997558594</ele>
        <time>2024-10-15T13:46:41.000Z</time>
      </trkpt>
      <trkpt lat="45.08723" lon="5.99872">
        <ele>828.20001220703</ele>
        <time>2024-10-15T13:46:42.000Z</time>
      </trkpt>
      <trkpt lat="45.08725" lon="5.99872">
        <ele>827.59997558594</ele>
        <time>2024-10-15T13:46:43.000Z</time>
      </trkpt>
      <trkpt lat="45.08726" lon="5.99871">
        <ele>827.40002441406</ele>
        <time>2024-10-15T13:46:44.000Z</time>
      </trkpt>
      <trkpt lat="45.08728" lon="5.9987">
        <ele>827</ele>
        <time>2024-10-15T13:46:45.000Z</time>
      </trkpt>
      <trkpt lat="45.0873" lon="5.9987">
        <ele>826.79998779297</ele>
        <time>2024-10-15T13:46:46.000Z</time>
      </trkpt>
      <trkpt lat="45.08731" lon="5.9987">
        <ele>826.20001220703</ele>
        <time>2024-10-15T13:46:47.000Z</time>
      </trkpt>
      <trkpt lat="45.08732" lon="5.99871">
        <ele>825.79998779297</ele>
        <time>2024-10-15T13:46:48.000Z</time>
      </trkpt>
      <trkpt lat="45.08733" lon="5.99871">
        <ele>825.40002441406</ele>
        <time>2024-10-15T13:46:49.000Z</time>
      </trkpt>
      <trkpt lat="45.08734" lon="5.99871">
        <ele>824.79998779297</ele>
        <time>2024-10-15T13:46:50.000Z</time>
      </trkpt>
      <trkpt lat="45.08734" lon="5.9987">
        <ele>824.40002441406</ele>
        <time>2024-10-15T13:46:51.000Z</time>
      </trkpt>
      <trkpt lat="45.08734" lon="5.9987">
        <ele>824.20001220703</ele>
        <time>2024-10-15T13:46:52.000Z</time>
      </trkpt>
      <trkpt lat="45.08735" lon="5.99869">
        <ele>824</ele>
        <time>2024-10-15T13:46:53.000Z</time>
      </trkpt>
      <trkpt lat="45.08737" lon="5.99869">
        <ele>823.59997558594</ele>
        <time>2024-10-15T13:46:54.000Z</time>
      </trkpt>
      <trkpt lat="45.08737" lon="5.99869">
        <ele>823.20001220703</ele>
        <time>2024-10-15T13:46:55.000Z</time>
      </trkpt>
      <trkpt lat="45.08738" lon="5.99869">
        <ele>822.79998779297</ele>
        <time>2024-10-15T13:46:56.000Z</time>
      </trkpt>
      <trkpt lat="45.08741" lon="5.99868">
        <ele>822.40002441406</ele>
        <time>2024-10-15T13:46:57.000Z</time>
      </trkpt>
      <trkpt lat="45.08743" lon="5.99868">
        <ele>822.20001220703</ele>
        <time>2024-10-15T13:46:58.000Z</time>
      </trkpt>
      <trkpt lat="45.08745" lon="5.99868">
        <ele>822</ele>
        <time>2024-10-15T13:46:59.000Z</time>
      </trkpt>
      <trkpt lat="45.08747" lon="5.99868">
        <ele>822</ele>
        <time>2024-10-15T13:47:00.000Z</time>
      </trkpt>
      <trkpt lat="45.08749" lon="5.99868">
        <ele>821.59997558594</ele>
        <time>2024-10-15T13:47:01.000Z</time>
      </trkpt>
      <trkpt lat="45.08751" lon="5.99866">
        <ele>821.40002441406</ele>
        <time>2024-10-15T13:47:02.000Z</time>
      </trkpt>
      <trkpt lat="45.08752" lon="5.99866">
        <ele>821</ele>
        <time>2024-10-15T13:47:03.000Z</time>
      </trkpt>
      <trkpt lat="45.08754" lon="5.99865">
        <ele>820.79998779297</ele>
        <time>2024-10-15T13:47:04.000Z</time>
      </trkpt>
      <trkpt lat="45.08755" lon="5.99864">
        <ele>820.79998779297</ele>
        <time>2024-10-15T13:47:05.000Z</time>
      </trkpt>
      <trkpt lat="45.08756" lon="5.99863">
        <ele>820.59997558594</ele>
        <time>2024-10-15T13:47:06.000Z</time>
      </trkpt>
      <trkpt lat="45.08757" lon="5.99862">
        <ele>820.40002441406</ele>
        <time>2024-10-15T13:47:07.000Z</time>
      </trkpt>
      <trkpt lat="45.08759" lon="5.99862">
        <ele>820.20001220703</ele>
        <time>2024-10-15T13:47:08.000Z</time>
      </trkpt>
      <trkpt lat="45.08759" lon="5.99862">
        <ele>819.79998779297</ele>
        <time>2024-10-15T13:47:09.000Z</time>
      </trkpt>
      <trkpt lat="45.08761" lon="5.99861">
        <ele>819.59997558594</ele>
        <time>2024-10-15T13:47:10.000Z</time>
      </trkpt>
      <trkpt lat="45.08761" lon="5.99861">
        <ele>819.20001220703</ele>
        <time>2024-10-15T13:47:11.000Z</time>
      </trkpt>
      <trkpt lat="45.08762" lon="5.9986">
        <ele>818.79998779297</ele>
        <time>2024-10-15T13:47:12.000Z</time>
      </trkpt>
      <trkpt lat="45.08762" lon="5.9986">
        <ele>818.40002441406</ele>
        <time>2024-10-15T13:47:13.000Z</time>
      </trkpt>
      <trkpt lat="45.08762" lon="5.99859">
        <ele>818</ele>
        <time>2024-10-15T13:47:14.000Z</time>
      </trkpt>
      <trkpt lat="45.08763" lon="5.99859">
        <ele>817.59997558594</ele>
        <time>2024-10-15T13:47:15.000Z</time>
      </trkpt>
      <trkpt lat="45.08764" lon="5.99859">
        <ele>817</ele>
        <time>2024-10-15T13:47:16.000Z</time>
      </trkpt>
      <trkpt lat="45.08765" lon="5.99858">
        <ele>816.79998779297</ele>
        <time>2024-10-15T13:47:17.000Z</time>
      </trkpt>
      <trkpt lat="45.08765" lon="5.99857">
        <ele>816.40002441406</ele>
        <time>2024-10-15T13:47:18.000Z</time>
      </trkpt>
      <trkpt lat="45.08766" lon="5.99855">
        <ele>816</ele>
        <time>2024-10-15T13:47:19.000Z</time>
      </trkpt>
      <trkpt lat="45.08765" lon="5.99854">
        <ele>815.59997558594</ele>
        <time>2024-10-15T13:47:20.000Z</time>
      </trkpt>
      <trkpt lat="45.08766" lon="5.99851">
        <ele>815.40002441406</ele>
        <time>2024-10-15T13:47:21.000Z</time>
      </trkpt>
      <trkpt lat="45.08767" lon="5.99849">
        <ele>815</ele>
        <time>2024-10-15T13:47:22.000Z</time>
      </trkpt>
      <trkpt lat="45.08767" lon="5.99848">
        <ele>814.79998779297</ele>
        <time>2024-10-15T13:47:23.000Z</time>
      </trkpt>
      <trkpt lat="45.08767" lon="5.99847">
        <ele>814.59997558594</ele>
        <time>2024-10-15T13:47:24.000Z</time>
      </trkpt>
      <trkpt lat="45.08768" lon="5.99846">
        <ele>814.20001220703</ele>
        <time>2024-10-15T13:47:25.000Z</time>
      </trkpt>
      <trkpt lat="45.08769" lon="5.99845">
        <ele>814</ele>
        <time>2024-10-15T13:47:26.000Z</time>
      </trkpt>
      <trkpt lat="45.0877" lon="5.99844">
        <ele>813.59997558594</ele>
        <time>2024-10-15T13:47:27.000Z</time>
      </trkpt>
      <trkpt lat="45.0877" lon="5.99843">
        <ele>813.59997558594</ele>
        <time>2024-10-15T13:47:28.000Z</time>
      </trkpt>
      <trkpt lat="45.08771" lon="5.99843">
        <ele>813.20001220703</ele>
        <time>2024-10-15T13:47:29.000Z</time>
      </trkpt>
      <trkpt lat="45.08772" lon="5.99842">
        <ele>813</ele>
        <time>2024-10-15T13:47:30.000Z</time>
      </trkpt>
      <trkpt lat="45.08772" lon="5.99842">
        <ele>812.79998779297</ele>
        <time>2024-10-15T13:47:31.000Z</time>
      </trkpt>
      <trkpt lat="45.08774" lon="5.9984">
        <ele>812.40002441406</ele>
        <time>2024-10-15T13:47:32.000Z</time>
      </trkpt>
      <trkpt lat="45.08774" lon="5.9984">
        <ele>812</ele>
        <time>2024-10-15T13:47:33.000Z</time>
      </trkpt>
      <trkpt lat="45.08776" lon="5.99839">
        <ele>811.79998779297</ele>
        <time>2024-10-15T13:47:34.000Z</time>
      </trkpt>
      <trkpt lat="45.08776" lon="5.99838">
        <ele>811.20001220703</ele>
        <time>2024-10-15T13:47:35.000Z</time>
      </trkpt>
      <trkpt lat="45.08777" lon="5.99837">
        <ele>810.79998779297</ele>
        <time>2024-10-15T13:47:36.000Z</time>
      </trkpt>
      <trkpt lat="45.08778" lon="5.99837">
        <ele>810.59997558594</ele>
        <time>2024-10-15T13:47:37.000Z</time>
      </trkpt>
      <trkpt lat="45.08779" lon="5.99836">
        <ele>810.40002441406</ele>
        <time>2024-10-15T13:47:38.000Z</time>
      </trkpt>
      <trkpt lat="45.08779" lon="5.99835">
        <ele>810</ele>
        <time>2024-10-15T13:47:39.000Z</time>
      </trkpt>
      <trkpt lat="45.08779" lon="5.99833">
        <ele>809.79998779297</ele>
        <time>2024-10-15T13:47:40.000Z</time>
      </trkpt>
      <trkpt lat="45.08779" lon="5.99831">
        <ele>809.59997558594</ele>
        <time>2024-10-15T13:47:41.000Z</time>
      </trkpt>
      <trkpt lat="45.08779" lon="5.9983">
        <ele>809.20001220703</ele>
        <time>2024-10-15T13:47:42.000Z</time>
      </trkpt>
      <trkpt lat="45.0878" lon="5.9983">
        <ele>809</ele>
        <time>2024-10-15T13:47:43.000Z</time>
      </trkpt>
      <trkpt lat="45.08782" lon="5.99829">
        <ele>808.79998779297</ele>
        <time>2024-10-15T13:47:44.000Z</time>
      </trkpt>
      <trkpt lat="45.08782" lon="5.99829">
        <ele>808.59997558594</ele>
        <time>2024-10-15T13:47:45.000Z</time>
      </trkpt>
      <trkpt lat="45.08784" lon="5.99827">
        <ele>808.40002441406</ele>
        <time>2024-10-15T13:47:46.000Z</time>
      </trkpt>
      <trkpt lat="45.08785" lon="5.99827">
        <ele>808</ele>
        <time>2024-10-15T13:47:47.000Z</time>
      </trkpt>
      <trkpt lat="45.08787" lon="5.99829">
        <ele>807.59997558594</ele>
        <time>2024-10-15T13:47:48.000Z</time>
      </trkpt>
      <trkpt lat="45.0879" lon="5.99832">
        <ele>807.40002441406</ele>
        <time>2024-10-15T13:47:49.000Z</time>
      </trkpt>
      <trkpt lat="45.08792" lon="5.99834">
        <ele>807</ele>
        <time>2024-10-15T13:47:50.000Z</time>
      </trkpt>
      <trkpt lat="45.08794" lon="5.99836">
        <ele>806.40002441406</ele>
        <time>2024-10-15T13:47:51.000Z</time>
      </trkpt>
      <trkpt lat="45.08794" lon="5.99838">
        <ele>806</ele>
        <time>2024-10-15T13:47:52.000Z</time>
      </trkpt>
      <trkpt lat="45.08794" lon="5.99839">
        <ele>805.40002441406</ele>
        <time>2024-10-15T13:47:53.000Z</time>
      </trkpt>
      <trkpt lat="45.08795" lon="5.99842">
        <ele>804.79998779297</ele>
        <time>2024-10-15T13:47:54.000Z</time>
      </trkpt>
      <trkpt lat="45.08797" lon="5.99844">
        <ele>804.40002441406</ele>
        <time>2024-10-15T13:47:55.000Z</time>
      </trkpt>
      <trkpt lat="45.08798" lon="5.99846">
        <ele>804.20001220703</ele>
        <time>2024-10-15T13:47:56.000Z</time>
      </trkpt>
      <trkpt lat="45.08799" lon="5.99848">
        <ele>804</ele>
        <time>2024-10-15T13:47:57.000Z</time>
      </trkpt>
      <trkpt lat="45.08799" lon="5.99849">
        <ele>803.59997558594</ele>
        <time>2024-10-15T13:47:58.000Z</time>
      </trkpt>
      <trkpt lat="45.08799" lon="5.99851">
        <ele>803.20001220703</ele>
        <time>2024-10-15T13:47:59.000Z</time>
      </trkpt>
      <trkpt lat="45.08799" lon="5.99853">
        <ele>802.79998779297</ele>
        <time>2024-10-15T13:48:00.000Z</time>
      </trkpt>
      <trkpt lat="45.088" lon="5.99855">
        <ele>802.59997558594</ele>
        <time>2024-10-15T13:48:01.000Z</time>
      </trkpt>
      <trkpt lat="45.08801" lon="5.99857">
        <ele>802.20001220703</ele>
        <time>2024-10-15T13:48:02.000Z</time>
      </trkpt>
      <trkpt lat="45.08801" lon="5.99859">
        <ele>801.79998779297</ele>
        <time>2024-10-15T13:48:03.000Z</time>
      </trkpt>
      <trkpt lat="45.08802" lon="5.99861">
        <ele>801.59997558594</ele>
        <time>2024-10-15T13:48:04.000Z</time>
      </trkpt>
      <trkpt lat="45.08803" lon="5.99864">
        <ele>801.20001220703</ele>
        <time>2024-10-15T13:48:05.000Z</time>
      </trkpt>
      <trkpt lat="45.08803" lon="5.99866">
        <ele>800.79998779297</ele>
        <time>2024-10-15T13:48:06.000Z</time>
      </trkpt>
      <trkpt lat="45.08803" lon="5.99867">
        <ele>800.20001220703</ele>
        <time>2024-10-15T13:48:07.000Z</time>
      </trkpt>
      <trkpt lat="45.08804" lon="5.9987">
        <ele>800</ele>
        <time>2024-10-15T13:48:08.000Z</time>
      </trkpt>
      <trkpt lat="45.08805" lon="5.99872">
        <ele>799.40002441406</ele>
        <time>2024-10-15T13:48:09.000Z</time>
      </trkpt>
      <trkpt lat="45.08806" lon="5.99873">
        <ele>799</ele>
        <time>2024-10-15T13:48:10.000Z</time>
      </trkpt>
      <trkpt lat="45.08808" lon="5.99875">
        <ele>798.79998779297</ele>
        <time>2024-10-15T13:48:11.000Z</time>
      </trkpt>
      <trkpt lat="45.08809" lon="5.99877">
        <ele>798.59997558594</ele>
        <time>2024-10-15T13:48:12.000Z</time>
      </trkpt>
      <trkpt lat="45.08809" lon="5.99879">
        <ele>797.79998779297</ele>
        <time>2024-10-15T13:48:13.000Z</time>
      </trkpt>
      <trkpt lat="45.08809" lon="5.9988">
        <ele>797.59997558594</ele>
        <time>2024-10-15T13:48:14.000Z</time>
      </trkpt>
      <trkpt lat="45.08809" lon="5.99883">
        <ele>797</ele>
        <time>2024-10-15T13:48:15.000Z</time>
      </trkpt>
      <trkpt lat="45.08808" lon="5.99884">
        <ele>796.59997558594</ele>
        <time>2024-10-15T13:48:16.000Z</time>
      </trkpt>
      <trkpt lat="45.08808" lon="5.99885">
        <ele>796.20001220703</ele>
        <time>2024-10-15T13:48:17.000Z</time>
      </trkpt>
      <trkpt lat="45.08807" lon="5.99886">
        <ele>795.79998779297</ele>
        <time>2024-10-15T13:48:18.000Z</time>
      </trkpt>
      <trkpt lat="45.08807" lon="5.99886">
        <ele>795.59997558594</ele>
        <time>2024-10-15T13:48:19.000Z</time>
      </trkpt>
      <trkpt lat="45.08807" lon="5.99888">
        <ele>795.20001220703</ele>
        <time>2024-10-15T13:48:20.000Z</time>
      </trkpt>
      <trkpt lat="45.08806" lon="5.99889">
        <ele>795</ele>
        <time>2024-10-15T13:48:21.000Z</time>
      </trkpt>
      <trkpt lat="45.08806" lon="5.99891">
        <ele>794.79998779297</ele>
        <time>2024-10-15T13:48:22.000Z</time>
      </trkpt>
      <trkpt lat="45.08807" lon="5.99893">
        <ele>794.40002441406</ele>
        <time>2024-10-15T13:48:23.000Z</time>
      </trkpt>
      <trkpt lat="45.08807" lon="5.99895">
        <ele>794</ele>
        <time>2024-10-15T13:48:24.000Z</time>
      </trkpt>
      <trkpt lat="45.08808" lon="5.99897">
        <ele>793.59997558594</ele>
        <time>2024-10-15T13:48:25.000Z</time>
      </trkpt>
      <trkpt lat="45.08808" lon="5.99898">
        <ele>793.40002441406</ele>
        <time>2024-10-15T13:48:26.000Z</time>
      </trkpt>
      <trkpt lat="45.08808" lon="5.999">
        <ele>793</ele>
        <time>2024-10-15T13:48:27.000Z</time>
      </trkpt>
      <trkpt lat="45.08808" lon="5.99902">
        <ele>792.79998779297</ele>
        <time>2024-10-15T13:48:28.000Z</time>
      </trkpt>
      <trkpt lat="45.08808" lon="5.99904">
        <ele>792.40002441406</ele>
        <time>2024-10-15T13:48:29.000Z</time>
      </trkpt>
      <trkpt lat="45.08808" lon="5.99906">
        <ele>792.20001220703</ele>
        <time>2024-10-15T13:48:30.000Z</time>
      </trkpt>
      <trkpt lat="45.08809" lon="5.99907">
        <ele>792</ele>
        <time>2024-10-15T13:48:31.000Z</time>
      </trkpt>
      <trkpt lat="45.08809" lon="5.99909">
        <ele>791.59997558594</ele>
        <time>2024-10-15T13:48:32.000Z</time>
      </trkpt>
      <trkpt lat="45.08809" lon="5.9991">
        <ele>791.20001220703</ele>
        <time>2024-10-15T13:48:33.000Z</time>
      </trkpt>
      <trkpt lat="45.08809" lon="5.99911">
        <ele>791</ele>
        <time>2024-10-15T13:48:34.000Z</time>
      </trkpt>
      <trkpt lat="45.08809" lon="5.99911">
        <ele>790.79998779297</ele>
        <time>2024-10-15T13:48:35.000Z</time>
      </trkpt>
      <trkpt lat="45.08809" lon="5.99913">
        <ele>790.40002441406</ele>
        <time>2024-10-15T13:48:36.000Z</time>
      </trkpt>
      <trkpt lat="45.08809" lon="5.99915">
        <ele>790.20001220703</ele>
        <time>2024-10-15T13:48:37.000Z</time>
      </trkpt>
      <trkpt lat="45.08809" lon="5.99917">
        <ele>790</ele>
        <time>2024-10-15T13:48:38.000Z</time>
      </trkpt>
      <trkpt lat="45.08809" lon="5.99919">
        <ele>789.79998779297</ele>
        <time>2024-10-15T13:48:39.000Z</time>
      </trkpt>
      <trkpt lat="45.08811" lon="5.9992">
        <ele>789.40002441406</ele>
        <time>2024-10-15T13:48:40.000Z</time>
      </trkpt>
      <trkpt lat="45.08811" lon="5.99922">
        <ele>789.20001220703</ele>
        <time>2024-10-15T13:48:41.000Z</time>
      </trkpt>
      <trkpt lat="45.08812" lon="5.99923">
        <ele>788.79998779297</ele>
        <time>2024-10-15T13:48:42.000Z</time>
      </trkpt>
      <trkpt lat="45.08813" lon="5.99923">
        <ele>788.40002441406</ele>
        <time>2024-10-15T13:48:43.000Z</time>
      </trkpt>
      <trkpt lat="45.08813" lon="5.99923">
        <ele>788</ele>
        <time>2024-10-15T13:48:44.000Z</time>
      </trkpt>
      <trkpt lat="45.08813" lon="5.99924">
        <ele>787.79998779297</ele>
        <time>2024-10-15T13:48:45.000Z</time>
      </trkpt>
      <trkpt lat="45.08812" lon="5.99924">
        <ele>787.79998779297</ele>
        <time>2024-10-15T13:48:46.000Z</time>
      </trkpt>
      <trkpt lat="45.08813" lon="5.99926">
        <ele>787.59997558594</ele>
        <time>2024-10-15T13:48:47.000Z</time>
      </trkpt>
      <trkpt lat="45.08813" lon="5.99927">
        <ele>787</ele>
        <time>2024-10-15T13:48:48.000Z</time>
      </trkpt>
      <trkpt lat="45.08814" lon="5.99929">
        <ele>786.79998779297</ele>
        <time>2024-10-15T13:48:49.000Z</time>
      </trkpt>
      <trkpt lat="45.08814" lon="5.9993">
        <ele>786.59997558594</ele>
        <time>2024-10-15T13:48:50.000Z</time>
      </trkpt>
      <trkpt lat="45.08814" lon="5.99932">
        <ele>786.20001220703</ele>
        <time>2024-10-15T13:48:51.000Z</time>
      </trkpt>
      <trkpt lat="45.08814" lon="5.99934">
        <ele>786</ele>
        <time>2024-10-15T13:48:52.000Z</time>
      </trkpt>
      <trkpt lat="45.08814" lon="5.99936">
        <ele>785.79998779297</ele>
        <time>2024-10-15T13:48:53.000Z</time>
      </trkpt>
      <trkpt lat="45.08814" lon="5.99938">
        <ele>785.59997558594</ele>
        <time>2024-10-15T13:48:54.000Z</time>
      </trkpt>
      <trkpt lat="45.08815" lon="5.99939">
        <ele>785.20001220703</ele>
        <time>2024-10-15T13:48:55.000Z</time>
      </trkpt>
      <trkpt lat="45.08815" lon="5.99941">
        <ele>784.59997558594</ele>
        <time>2024-10-15T13:48:56.000Z</time>
      </trkpt>
      <trkpt lat="45.08816" lon="5.99942">
        <ele>784.40002441406</ele>
        <time>2024-10-15T13:48:57.000Z</time>
      </trkpt>
      <trkpt lat="45.08818" lon="5.99945">
        <ele>784</ele>
        <time>2024-10-15T13:48:58.000Z</time>
      </trkpt>
      <trkpt lat="45.08818" lon="5.99947">
        <ele>784</ele>
        <time>2024-10-15T13:48:59.000Z</time>
      </trkpt>
      <trkpt lat="45.08818" lon="5.99949">
        <ele>783.79998779297</ele>
        <time>2024-10-15T13:49:00.000Z</time>
      </trkpt>
      <trkpt lat="45.08818" lon="5.9995">
        <ele>783.79998779297</ele>
        <time>2024-10-15T13:49:01.000Z</time>
      </trkpt>
      <trkpt lat="45.08818" lon="5.99952">
        <ele>783.40002441406</ele>
        <time>2024-10-15T13:49:02.000Z</time>
      </trkpt>
      <trkpt lat="45.08817" lon="5.99954">
        <ele>783.20001220703</ele>
        <time>2024-10-15T13:49:03.000Z</time>
      </trkpt>
      <trkpt lat="45.08817" lon="5.99956">
        <ele>783.20001220703</ele>
        <time>2024-10-15T13:49:04.000Z</time>
      </trkpt>
      <trkpt lat="45.08817" lon="5.99958">
        <ele>783.20001220703</ele>
        <time>2024-10-15T13:49:05.000Z</time>
      </trkpt>
      <trkpt lat="45.08816" lon="5.9996">
        <ele>783</ele>
        <time>2024-10-15T13:49:06.000Z</time>
      </trkpt>
      <trkpt lat="45.08816" lon="5.99961">
        <ele>782.79998779297</ele>
        <time>2024-10-15T13:49:07.000Z</time>
      </trkpt>
      <trkpt lat="45.08817" lon="5.99963">
        <ele>782.59997558594</ele>
        <time>2024-10-15T13:49:08.000Z</time>
      </trkpt>
      <trkpt lat="45.08818" lon="5.99965">
        <ele>782.59997558594</ele>
        <time>2024-10-15T13:49:09.000Z</time>
      </trkpt>
      <trkpt lat="45.08819" lon="5.99967">
        <ele>782.40002441406</ele>
        <time>2024-10-15T13:49:10.000Z</time>
      </trkpt>
      <trkpt lat="45.08819" lon="5.99968">
        <ele>782.20001220703</ele>
        <time>2024-10-15T13:49:11.000Z</time>
      </trkpt>
      <trkpt lat="45.08819" lon="5.9997">
        <ele>781.79998779297</ele>
        <time>2024-10-15T13:49:12.000Z</time>
      </trkpt>
      <trkpt lat="45.08819" lon="5.99972">
        <ele>781.59997558594</ele>
        <time>2024-10-15T13:49:13.000Z</time>
      </trkpt>
      <trkpt lat="45.0882" lon="5.99973">
        <ele>781.59997558594</ele>
        <time>2024-10-15T13:49:14.000Z</time>
      </trkpt>
      <trkpt lat="45.0882" lon="5.99975">
        <ele>781.20001220703</ele>
        <time>2024-10-15T13:49:15.000Z</time>
      </trkpt>
      <trkpt lat="45.0882" lon="5.99977">
        <ele>781</ele>
        <time>2024-10-15T13:49:16.000Z</time>
      </trkpt>
      <trkpt lat="45.08819" lon="5.99979">
        <ele>780.79998779297</ele>
        <time>2024-10-15T13:49:17.000Z</time>
      </trkpt>
      <trkpt lat="45.08819" lon="5.99981">
        <ele>780.59997558594</ele>
        <time>2024-10-15T13:49:18.000Z</time>
      </trkpt>
      <trkpt lat="45.08819" lon="5.99982">
        <ele>780.40002441406</ele>
        <time>2024-10-15T13:49:19.000Z</time>
      </trkpt>
      <trkpt lat="45.08818" lon="5.99983">
        <ele>780.20001220703</ele>
        <time>2024-10-15T13:49:20.000Z</time>
      </trkpt>
      <trkpt lat="45.08818" lon="5.99985">
        <ele>780</ele>
        <time>2024-10-15T13:49:21.000Z</time>
      </trkpt>
      <trkpt lat="45.08817" lon="5.99986">
        <ele>779.59997558594</ele>
        <time>2024-10-15T13:49:22.000Z</time>
      </trkpt>
      <trkpt lat="45.08818" lon="5.99987">
        <ele>779.40002441406</ele>
        <time>2024-10-15T13:49:23.000Z</time>
      </trkpt>
      <trkpt lat="45.08817" lon="5.99989">
        <ele>779.40002441406</ele>
        <time>2024-10-15T13:49:24.000Z</time>
      </trkpt>
      <trkpt lat="45.08816" lon="5.99991">
        <ele>779.20001220703</ele>
        <time>2024-10-15T13:49:25.000Z</time>
      </trkpt>
      <trkpt lat="45.08816" lon="5.99993">
        <ele>778.79998779297</ele>
        <time>2024-10-15T13:49:26.000Z</time>
      </trkpt>
      <trkpt lat="45.08816" lon="5.99994">
        <ele>778.59997558594</ele>
        <time>2024-10-15T13:49:27.000Z</time>
      </trkpt>
      <trkpt lat="45.08816" lon="5.99996">
        <ele>778.20001220703</ele>
        <time>2024-10-15T13:49:28.000Z</time>
      </trkpt>
      <trkpt lat="45.08815" lon="5.99998">
        <ele>778</ele>
        <time>2024-10-15T13:49:29.000Z</time>
      </trkpt>
      <trkpt lat="45.08814" lon="5.99999">
        <ele>777.59997558594</ele>
        <time>2024-10-15T13:49:30.000Z</time>
      </trkpt>
      <trkpt lat="45.08814" lon="5.99999">
        <ele>777.40002441406</ele>
        <time>2024-10-15T13:49:31.000Z</time>
      </trkpt>
      <trkpt lat="45.08814" lon="5.99999">
        <ele>777</ele>
        <time>2024-10-15T13:49:32.000Z</time>
      </trkpt>
      <trkpt lat="45.08814" lon="6.00001">
        <ele>776.79998779297</ele>
        <time>2024-10-15T13:49:33.000Z</time>
      </trkpt>
      <trkpt lat="45.08814" lon="6.00003">
        <ele>776.40002441406</ele>
        <time>2024-10-15T13:49:34.000Z</time>
      </trkpt>
      <trkpt lat="45.08814" lon="6.00005">
        <ele>776.20001220703</ele>
        <time>2024-10-15T13:49:35.000Z</time>
      </trkpt>
      <trkpt lat="45.08814" lon="6.00007">
        <ele>775.59997558594</ele>
        <time>2024-10-15T13:49:36.000Z</time>
      </trkpt>
      <trkpt lat="45.08815" lon="6.00009">
        <ele>775.20001220703</ele>
        <time>2024-10-15T13:49:37.000Z</time>
      </trkpt>
      <trkpt lat="45.08814" lon="6.00012">
        <ele>774.59997558594</ele>
        <time>2024-10-15T13:49:38.000Z</time>
      </trkpt>
      <trkpt lat="45.08814" lon="6.00013">
        <ele>774.20001220703</ele>
        <time>2024-10-15T13:49:39.000Z</time>
      </trkpt>
      <trkpt lat="45.08814" lon="6.00016">
        <ele>773.79998779297</ele>
        <time>2024-10-15T13:49:40.000Z</time>
      </trkpt>
      <trkpt lat="45.08815" lon="6.00017">
        <ele>773.40002441406</ele>
        <time>2024-10-15T13:49:41.000Z</time>
      </trkpt>
      <trkpt lat="45.08815" lon="6.00019">
        <ele>772.79998779297</ele>
        <time>2024-10-15T13:49:42.000Z</time>
      </trkpt>
      <trkpt lat="45.08815" lon="6.00021">
        <ele>772.40002441406</ele>
        <time>2024-10-15T13:49:43.000Z</time>
      </trkpt>
      <trkpt lat="45.08815" lon="6.00022">
        <ele>772.20001220703</ele>
        <time>2024-10-15T13:49:44.000Z</time>
      </trkpt>
      <trkpt lat="45.08815" lon="6.00024">
        <ele>771.79998779297</ele>
        <time>2024-10-15T13:49:45.000Z</time>
      </trkpt>
      <trkpt lat="45.08815" lon="6.00026">
        <ele>771.40002441406</ele>
        <time>2024-10-15T13:49:46.000Z</time>
      </trkpt>
      <trkpt lat="45.08815" lon="6.00028">
        <ele>770.79998779297</ele>
        <time>2024-10-15T13:49:47.000Z</time>
      </trkpt>
      <trkpt lat="45.08815" lon="6.00029">
        <ele>770.40002441406</ele>
        <time>2024-10-15T13:49:48.000Z</time>
      </trkpt>
      <trkpt lat="45.08813" lon="6.0003">
        <ele>769.79998779297</ele>
        <time>2024-10-15T13:49:49.000Z</time>
      </trkpt>
      <trkpt lat="45.08813" lon="6.0003">
        <ele>769.40002441406</ele>
        <time>2024-10-15T13:49:50.000Z</time>
      </trkpt>
      <trkpt lat="45.08813" lon="6.00031">
        <ele>769.20001220703</ele>
        <time>2024-10-15T13:49:51.000Z</time>
      </trkpt>
      <trkpt lat="45.08813" lon="6.00033">
        <ele>768.79998779297</ele>
        <time>2024-10-15T13:49:52.000Z</time>
      </trkpt>
      <trkpt lat="45.08813" lon="6.00036">
        <ele>768.59997558594</ele>
        <time>2024-10-15T13:49:53.000Z</time>
      </trkpt>
      <trkpt lat="45.08813" lon="6.00038">
        <ele>768.20001220703</ele>
        <time>2024-10-15T13:49:54.000Z</time>
      </trkpt>
      <trkpt lat="45.08817" lon="6.00039">
        <ele>767.79998779297</ele>
        <time>2024-10-15T13:49:55.000Z</time>
      </trkpt>
      <trkpt lat="45.08818" lon="6.00042">
        <ele>767.59997558594</ele>
        <time>2024-10-15T13:49:56.000Z</time>
      </trkpt>
      <trkpt lat="45.08817" lon="6.00043">
        <ele>767.59997558594</ele>
        <time>2024-10-15T13:49:57.000Z</time>
      </trkpt>
      <trkpt lat="45.08818" lon="6.00044">
        <ele>767.40002441406</ele>
        <time>2024-10-15T13:49:58.000Z</time>
      </trkpt>
      <trkpt lat="45.08817" lon="6.00045">
        <ele>767.20001220703</ele>
        <time>2024-10-15T13:49:59.000Z</time>
      </trkpt>
      <trkpt lat="45.08816" lon="6.00048">
        <ele>767.20001220703</ele>
        <time>2024-10-15T13:50:00.000Z</time>
      </trkpt>
      <trkpt lat="45.08816" lon="6.0005">
        <ele>767.20001220703</ele>
        <time>2024-10-15T13:50:01.000Z</time>
      </trkpt>
      <trkpt lat="45.08815" lon="6.00052">
        <ele>767</ele>
        <time>2024-10-15T13:50:02.000Z</time>
      </trkpt>
      <trkpt lat="45.08815" lon="6.00053">
        <ele>766.59997558594</ele>
        <time>2024-10-15T13:50:03.000Z</time>
      </trkpt>
      <trkpt lat="45.08815" lon="6.00055">
        <ele>766.40002441406</ele>
        <time>2024-10-15T13:50:04.000Z</time>
      </trkpt>
      <trkpt lat="45.08815" lon="6.00057">
        <ele>766.20001220703</ele>
        <time>2024-10-15T13:50:05.000Z</time>
      </trkpt>
      <trkpt lat="45.08816" lon="6.00058">
        <ele>766.20001220703</ele>
        <time>2024-10-15T13:50:06.000Z</time>
      </trkpt>
      <trkpt lat="45.08816" lon="6.0006">
        <ele>765.79998779297</ele>
        <time>2024-10-15T13:50:07.000Z</time>
      </trkpt>
      <trkpt lat="45.08814" lon="6.00062">
        <ele>765.40002441406</ele>
        <time>2024-10-15T13:50:08.000Z</time>
      </trkpt>
      <trkpt lat="45.08813" lon="6.00063">
        <ele>765</ele>
        <time>2024-10-15T13:50:09.000Z</time>
      </trkpt>
      <trkpt lat="45.08813" lon="6.00066">
        <ele>764.40002441406</ele>
        <time>2024-10-15T13:50:10.000Z</time>
      </trkpt>
      <trkpt lat="45.08814" lon="6.00068">
        <ele>763.79998779297</ele>
        <time>2024-10-15T13:50:11.000Z</time>
      </trkpt>
      <trkpt lat="45.08814" lon="6.00071">
        <ele>763.40002441406</ele>
        <time>2024-10-15T13:50:12.000Z</time>
      </trkpt>
      <trkpt lat="45.08814" lon="6.00073">
        <ele>762.79998779297</ele>
        <time>2024-10-15T13:50:13.000Z</time>
      </trkpt>
      <trkpt lat="45.08814" lon="6.00075">
        <ele>762.20001220703</ele>
        <time>2024-10-15T13:50:14.000Z</time>
      </trkpt>
      <trkpt lat="45.08814" lon="6.00077">
        <ele>761.79998779297</ele>
        <time>2024-10-15T13:50:15.000Z</time>
      </trkpt>
      <trkpt lat="45.08813" lon="6.00079">
        <ele>761.59997558594</ele>
        <time>2024-10-15T13:50:16.000Z</time>
      </trkpt>
      <trkpt lat="45.08813" lon="6.00079">
        <ele>761.20001220703</ele>
        <time>2024-10-15T13:50:17.000Z</time>
      </trkpt>
      <trkpt lat="45.08813" lon="6.0008">
        <ele>761</ele>
        <time>2024-10-15T13:50:18.000Z</time>
      </trkpt>
      <trkpt lat="45.08814" lon="6.00081">
        <ele>760.79998779297</ele>
        <time>2024-10-15T13:50:19.000Z</time>
      </trkpt>
      <trkpt lat="45.08815" lon="6.00082">
        <ele>760.59997558594</ele>
        <time>2024-10-15T13:50:20.000Z</time>
      </trkpt>
      <trkpt lat="45.08814" lon="6.00084">
        <ele>760.40002441406</ele>
        <time>2024-10-15T13:50:21.000Z</time>
      </trkpt>
      <trkpt lat="45.08814" lon="6.00086">
        <ele>760.40002441406</ele>
        <time>2024-10-15T13:50:22.000Z</time>
      </trkpt>
      <trkpt lat="45.08814" lon="6.00087">
        <ele>760.20001220703</ele>
        <time>2024-10-15T13:50:23.000Z</time>
      </trkpt>
      <trkpt lat="45.08814" lon="6.00089">
        <ele>760</ele>
        <time>2024-10-15T13:50:24.000Z</time>
      </trkpt>
      <trkpt lat="45.08815" lon="6.0009">
        <ele>759.79998779297</ele>
        <time>2024-10-15T13:50:25.000Z</time>
      </trkpt>
      <trkpt lat="45.08816" lon="6.00091">
        <ele>759.40002441406</ele>
        <time>2024-10-15T13:50:26.000Z</time>
      </trkpt>
      <trkpt lat="45.08816" lon="6.00093">
        <ele>759.40002441406</ele>
        <time>2024-10-15T13:50:27.000Z</time>
      </trkpt>
      <trkpt lat="45.08816" lon="6.00094">
        <ele>759.20001220703</ele>
        <time>2024-10-15T13:50:28.000Z</time>
      </trkpt>
      <trkpt lat="45.08816" lon="6.00096">
        <ele>759</ele>
        <time>2024-10-15T13:50:29.000Z</time>
      </trkpt>
      <trkpt lat="45.08816" lon="6.00097">
        <ele>758.79998779297</ele>
        <time>2024-10-15T13:50:30.000Z</time>
      </trkpt>
      <trkpt lat="45.08816" lon="6.00098">
        <ele>758.59997558594</ele>
        <time>2024-10-15T13:50:31.000Z</time>
      </trkpt>
      <trkpt lat="45.08817" lon="6.001">
        <ele>758.40002441406</ele>
        <time>2024-10-15T13:50:32.000Z</time>
      </trkpt>
      <trkpt lat="45.08818" lon="6.00101">
        <ele>758.40002441406</ele>
        <time>2024-10-15T13:50:33.000Z</time>
      </trkpt>
      <trkpt lat="45.08818" lon="6.00102">
        <ele>758.20001220703</ele>
        <time>2024-10-15T13:50:34.000Z</time>
      </trkpt>
      <trkpt lat="45.08819" lon="6.00103">
        <ele>757.79998779297</ele>
        <time>2024-10-15T13:50:35.000Z</time>
      </trkpt>
      <trkpt lat="45.08819" lon="6.00105">
        <ele>757.59997558594</ele>
        <time>2024-10-15T13:50:36.000Z</time>
      </trkpt>
      <trkpt lat="45.08819" lon="6.00108">
        <ele>757.20001220703</ele>
        <time>2024-10-15T13:50:37.000Z</time>
      </trkpt>
      <trkpt lat="45.08819" lon="6.0011">
        <ele>756.79998779297</ele>
        <time>2024-10-15T13:50:38.000Z</time>
      </trkpt>
      <trkpt lat="45.0882" lon="6.00112">
        <ele>756.59997558594</ele>
        <time>2024-10-15T13:50:39.000Z</time>
      </trkpt>
      <trkpt lat="45.0882" lon="6.00114">
        <ele>756.40002441406</ele>
        <time>2024-10-15T13:50:40.000Z</time>
      </trkpt>
      <trkpt lat="45.08821" lon="6.00115">
        <ele>756.20001220703</ele>
        <time>2024-10-15T13:50:41.000Z</time>
      </trkpt>
      <trkpt lat="45.08822" lon="6.00116">
        <ele>756</ele>
        <time>2024-10-15T13:50:42.000Z</time>
      </trkpt>
      <trkpt lat="45.08823" lon="6.00117">
        <ele>755.59997558594</ele>
        <time>2024-10-15T13:50:43.000Z</time>
      </trkpt>
      <trkpt lat="45.08823" lon="6.00119">
        <ele>755.40002441406</ele>
        <time>2024-10-15T13:50:44.000Z</time>
      </trkpt>
      <trkpt lat="45.08824" lon="6.0012">
        <ele>755</ele>
        <time>2024-10-15T13:50:45.000Z</time>
      </trkpt>
      <trkpt lat="45.08824" lon="6.00121">
        <ele>754.79998779297</ele>
        <time>2024-10-15T13:50:46.000Z</time>
      </trkpt>
      <trkpt lat="45.08825" lon="6.00122">
        <ele>754.40002441406</ele>
        <time>2024-10-15T13:50:47.000Z</time>
      </trkpt>
      <trkpt lat="45.08826" lon="6.00123">
        <ele>754.20001220703</ele>
        <time>2024-10-15T13:50:48.000Z</time>
      </trkpt>
      <trkpt lat="45.08826" lon="6.00125">
        <ele>754</ele>
        <time>2024-10-15T13:50:49.000Z</time>
      </trkpt>
      <trkpt lat="45.08827" lon="6.00125">
        <ele>753.79998779297</ele>
        <time>2024-10-15T13:50:50.000Z</time>
      </trkpt>
      <trkpt lat="45.08826" lon="6.00125">
        <ele>753.40002441406</ele>
        <time>2024-10-15T13:50:51.000Z</time>
      </trkpt>
      <trkpt lat="45.08825" lon="6.00125">
        <ele>753.40002441406</ele>
        <time>2024-10-15T13:50:52.000Z</time>
      </trkpt>
      <trkpt lat="45.08826" lon="6.00127">
        <ele>753.20001220703</ele>
        <time>2024-10-15T13:50:53.000Z</time>
      </trkpt>
      <trkpt lat="45.08827" lon="6.00129">
        <ele>753.20001220703</ele>
        <time>2024-10-15T13:50:54.000Z</time>
      </trkpt>
      <trkpt lat="45.08827" lon="6.00132">
        <ele>753</ele>
        <time>2024-10-15T13:50:55.000Z</time>
      </trkpt>
      <trkpt lat="45.08827" lon="6.00133">
        <ele>752.79998779297</ele>
        <time>2024-10-15T13:50:56.000Z</time>
      </trkpt>
      <trkpt lat="45.08827" lon="6.00135">
        <ele>752.79998779297</ele>
        <time>2024-10-15T13:50:57.000Z</time>
      </trkpt>
      <trkpt lat="45.08827" lon="6.00135">
        <ele>752.59997558594</ele>
        <time>2024-10-15T13:50:58.000Z</time>
      </trkpt>
      <trkpt lat="45.08828" lon="6.00138">
        <ele>752.59997558594</ele>
        <time>2024-10-15T13:50:59.000Z</time>
      </trkpt>
      <trkpt lat="45.08828" lon="6.0014">
        <ele>752.40002441406</ele>
        <time>2024-10-15T13:51:00.000Z</time>
      </trkpt>
      <trkpt lat="45.08827" lon="6.00142">
        <ele>752</ele>
        <time>2024-10-15T13:51:01.000Z</time>
      </trkpt>
      <trkpt lat="45.08827" lon="6.00144">
        <ele>751.79998779297</ele>
        <time>2024-10-15T13:51:02.000Z</time>
      </trkpt>
      <trkpt lat="45.08828" lon="6.00145">
        <ele>751.40002441406</ele>
        <time>2024-10-15T13:51:03.000Z</time>
      </trkpt>
      <trkpt lat="45.08828" lon="6.00146">
        <ele>751.20001220703</ele>
        <time>2024-10-15T13:51:04.000Z</time>
      </trkpt>
      <trkpt lat="45.08829" lon="6.00147">
        <ele>750.79998779297</ele>
        <time>2024-10-15T13:51:05.000Z</time>
      </trkpt>
      <trkpt lat="45.08829" lon="6.00148">
        <ele>750.40002441406</ele>
        <time>2024-10-15T13:51:06.000Z</time>
      </trkpt>
      <trkpt lat="45.08829" lon="6.0015">
        <ele>750.40002441406</ele>
        <time>2024-10-15T13:51:07.000Z</time>
      </trkpt>
      <trkpt lat="45.0883" lon="6.00152">
        <ele>750.20001220703</ele>
        <time>2024-10-15T13:51:08.000Z</time>
      </trkpt>
      <trkpt lat="45.0883" lon="6.00155">
        <ele>750</ele>
        <time>2024-10-15T13:51:09.000Z</time>
      </trkpt>
      <trkpt lat="45.08831" lon="6.00158">
        <ele>749.79998779297</ele>
        <time>2024-10-15T13:51:10.000Z</time>
      </trkpt>
      <trkpt lat="45.08832" lon="6.0016">
        <ele>749.20001220703</ele>
        <time>2024-10-15T13:51:11.000Z</time>
      </trkpt>
      <trkpt lat="45.08833" lon="6.00162">
        <ele>749</ele>
        <time>2024-10-15T13:51:12.000Z</time>
      </trkpt>
      <trkpt lat="45.08833" lon="6.00163">
        <ele>748.59997558594</ele>
        <time>2024-10-15T13:51:13.000Z</time>
      </trkpt>
      <trkpt lat="45.08833" lon="6.00165">
        <ele>748.20001220703</ele>
        <time>2024-10-15T13:51:14.000Z</time>
      </trkpt>
      <trkpt lat="45.08833" lon="6.00168">
        <ele>748.20001220703</ele>
        <time>2024-10-15T13:51:15.000Z</time>
      </trkpt>
      <trkpt lat="45.08833" lon="6.0017">
        <ele>748</ele>
        <time>2024-10-15T13:51:16.000Z</time>
      </trkpt>
      <trkpt lat="45.08833" lon="6.00172">
        <ele>747.79998779297</ele>
        <time>2024-10-15T13:51:17.000Z</time>
      </trkpt>
      <trkpt lat="45.08833" lon="6.00173">
        <ele>747.59997558594</ele>
        <time>2024-10-15T13:51:18.000Z</time>
      </trkpt>
      <trkpt lat="45.08833" lon="6.00175">
        <ele>747.40002441406</ele>
        <time>2024-10-15T13:51:19.000Z</time>
      </trkpt>
      <trkpt lat="45.08832" lon="6.00176">
        <ele>747</ele>
        <time>2024-10-15T13:51:20.000Z</time>
      </trkpt>
      <trkpt lat="45.08832" lon="6.00177">
        <ele>746.79998779297</ele>
        <time>2024-10-15T13:51:21.000Z</time>
      </trkpt>
      <trkpt lat="45.08832" lon="6.00178">
        <ele>746.59997558594</ele>
        <time>2024-10-15T13:51:22.000Z</time>
      </trkpt>
      <trkpt lat="45.08831" lon="6.00181">
        <ele>746.40002441406</ele>
        <time>2024-10-15T13:51:23.000Z</time>
      </trkpt>
      <trkpt lat="45.08831" lon="6.00182">
        <ele>746.20001220703</ele>
        <time>2024-10-15T13:51:24.000Z</time>
      </trkpt>
      <trkpt lat="45.08832" lon="6.00184">
        <ele>745.79998779297</ele>
        <time>2024-10-15T13:51:25.000Z</time>
      </trkpt>
      <trkpt lat="45.08833" lon="6.00185">
        <ele>745.59997558594</ele>
        <time>2024-10-15T13:51:26.000Z</time>
      </trkpt>
      <trkpt lat="45.08833" lon="6.00187">
        <ele>745.40002441406</ele>
        <time>2024-10-15T13:51:27.000Z</time>
      </trkpt>
      <trkpt lat="45.08833" lon="6.00188">
        <ele>745</ele>
        <time>2024-10-15T13:51:28.000Z</time>
      </trkpt>
      <trkpt lat="45.08834" lon="6.0019">
        <ele>744.79998779297</ele>
        <time>2024-10-15T13:51:29.000Z</time>
      </trkpt>
      <trkpt lat="45.08833" lon="6.00192">
        <ele>744.59997558594</ele>
        <time>2024-10-15T13:51:30.000Z</time>
      </trkpt>
      <trkpt lat="45.08833" lon="6.00193">
        <ele>744.40002441406</ele>
        <time>2024-10-15T13:51:31.000Z</time>
      </trkpt>
      <trkpt lat="45.08834" lon="6.00195">
        <ele>744</ele>
        <time>2024-10-15T13:51:32.000Z</time>
      </trkpt>
      <trkpt lat="45.08834" lon="6.00197">
        <ele>743.79998779297</ele>
        <time>2024-10-15T13:51:33.000Z</time>
      </trkpt>
      <trkpt lat="45.08834" lon="6.00198">
        <ele>743.40002441406</ele>
        <time>2024-10-15T13:51:34.000Z</time>
      </trkpt>
      <trkpt lat="45.08833" lon="6.00201">
        <ele>743</ele>
        <time>2024-10-15T13:51:35.000Z</time>
      </trkpt>
      <trkpt lat="45.08833" lon="6.00203">
        <ele>742.79998779297</ele>
        <time>2024-10-15T13:51:36.000Z</time>
      </trkpt>
      <trkpt lat="45.08833" lon="6.00203">
        <ele>742.59997558594</ele>
        <time>2024-10-15T13:51:37.000Z</time>
      </trkpt>
      <trkpt lat="45.08833" lon="6.00204">
        <ele>742.20001220703</ele>
        <time>2024-10-15T13:51:38.000Z</time>
      </trkpt>
      <trkpt lat="45.08834" lon="6.00206">
        <ele>741.79998779297</ele>
        <time>2024-10-15T13:51:39.000Z</time>
      </trkpt>
      <trkpt lat="45.08835" lon="6.00207">
        <ele>741.79998779297</ele>
        <time>2024-10-15T13:51:40.000Z</time>
      </trkpt>
      <trkpt lat="45.08835" lon="6.00208">
        <ele>741.59997558594</ele>
        <time>2024-10-15T13:51:41.000Z</time>
      </trkpt>
      <trkpt lat="45.08833" lon="6.00211">
        <ele>741.40002441406</ele>
        <time>2024-10-15T13:51:42.000Z</time>
      </trkpt>
      <trkpt lat="45.08833" lon="6.00213">
        <ele>741.20001220703</ele>
        <time>2024-10-15T13:51:43.000Z</time>
      </trkpt>
      <trkpt lat="45.08833" lon="6.00214">
        <ele>741</ele>
        <time>2024-10-15T13:51:44.000Z</time>
      </trkpt>
      <trkpt lat="45.08834" lon="6.00215">
        <ele>740.79998779297</ele>
        <time>2024-10-15T13:51:45.000Z</time>
      </trkpt>
      <trkpt lat="45.08835" lon="6.00216">
        <ele>740.59997558594</ele>
        <time>2024-10-15T13:51:46.000Z</time>
      </trkpt>
      <trkpt lat="45.08835" lon="6.00218">
        <ele>740.20001220703</ele>
        <time>2024-10-15T13:51:47.000Z</time>
      </trkpt>
      <trkpt lat="45.08836" lon="6.00221">
        <ele>740</ele>
        <time>2024-10-15T13:51:48.000Z</time>
      </trkpt>
      <trkpt lat="45.08836" lon="6.00223">
        <ele>739.79998779297</ele>
        <time>2024-10-15T13:51:49.000Z</time>
      </trkpt>
      <trkpt lat="45.08835" lon="6.00225">
        <ele>739.59997558594</ele>
        <time>2024-10-15T13:51:50.000Z</time>
      </trkpt>
      <trkpt lat="45.08835" lon="6.00228">
        <ele>739.40002441406</ele>
        <time>2024-10-15T13:51:51.000Z</time>
      </trkpt>
      <trkpt lat="45.08834" lon="6.0023">
        <ele>739</ele>
        <time>2024-10-15T13:51:52.000Z</time>
      </trkpt>
      <trkpt lat="45.08834" lon="6.00232">
        <ele>738.79998779297</ele>
        <time>2024-10-15T13:51:53.000Z</time>
      </trkpt>
      <trkpt lat="45.08835" lon="6.00234">
        <ele>738.59997558594</ele>
        <time>2024-10-15T13:51:54.000Z</time>
      </trkpt>
      <trkpt lat="45.08833" lon="6.00235">
        <ele>738.40002441406</ele>
        <time>2024-10-15T13:51:55.000Z</time>
      </trkpt>
      <trkpt lat="45.08834" lon="6.00236">
        <ele>738.20001220703</ele>
        <time>2024-10-15T13:51:56.000Z</time>
      </trkpt>
      <trkpt lat="45.08834" lon="6.00237">
        <ele>738</ele>
        <time>2024-10-15T13:51:57.000Z</time>
      </trkpt>
      <trkpt lat="45.08834" lon="6.00239">
        <ele>737.79998779297</ele>
        <time>2024-10-15T13:51:58.000Z</time>
      </trkpt>
      <trkpt lat="45.08834" lon="6.0024">
        <ele>737.59997558594</ele>
        <time>2024-10-15T13:51:59.000Z</time>
      </trkpt>
      <trkpt lat="45.08834" lon="6.00242">
        <ele>737.20001220703</ele>
        <time>2024-10-15T13:52:00.000Z</time>
      </trkpt>
      <trkpt lat="45.08834" lon="6.00242">
        <ele>737.20001220703</ele>
        <time>2024-10-15T13:52:01.000Z</time>
      </trkpt>
      <trkpt lat="45.08834" lon="6.00244">
        <ele>737</ele>
        <time>2024-10-15T13:52:02.000Z</time>
      </trkpt>
      <trkpt lat="45.08833" lon="6.00245">
        <ele>737</ele>
        <time>2024-10-15T13:52:03.000Z</time>
      </trkpt>
      <trkpt lat="45.08833" lon="6.00245">
        <ele>736.79998779297</ele>
        <time>2024-10-15T13:52:04.000Z</time>
      </trkpt>
      <trkpt lat="45.08832" lon="6.00245">
        <ele>736.79998779297</ele>
        <time>2024-10-15T13:52:05.000Z</time>
      </trkpt>
      <trkpt lat="45.08832" lon="6.00245">
        <ele>736.59997558594</ele>
        <time>2024-10-15T13:52:06.000Z</time>
      </trkpt>
      <trkpt lat="45.08832" lon="6.00246">
        <ele>736.59997558594</ele>
        <time>2024-10-15T13:52:07.000Z</time>
      </trkpt>
      <trkpt lat="45.08832" lon="6.00246">
        <ele>736.40002441406</ele>
        <time>2024-10-15T13:52:08.000Z</time>
      </trkpt>
      <trkpt lat="45.08832" lon="6.00245">
        <ele>736.40002441406</ele>
        <time>2024-10-15T13:52:09.000Z</time>
      </trkpt>
      <trkpt lat="45.08832" lon="6.00245">
        <ele>736.40002441406</ele>
        <time>2024-10-15T13:52:10.000Z</time>
      </trkpt>
      <trkpt lat="45.08832" lon="6.00246">
        <ele>736.40002441406</ele>
        <time>2024-10-15T13:52:11.000Z</time>
      </trkpt>
      <trkpt lat="45.08832" lon="6.00246">
        <ele>736.40002441406</ele>
        <time>2024-10-15T13:52:12.000Z</time>
      </trkpt>
      <trkpt lat="45.08832" lon="6.00246">
        <ele>736.20001220703</ele>
        <time>2024-10-15T13:52:13.000Z</time>
      </trkpt>
      <trkpt lat="45.08832" lon="6.00246">
        <ele>736.20001220703</ele>
        <time>2024-10-15T13:52:14.000Z</time>
      </trkpt>
      <trkpt lat="45.08832" lon="6.00246">
        <ele>736.20001220703</ele>
        <time>2024-10-15T13:52:15.000Z</time>
      </trkpt>
      <trkpt lat="45.08832" lon="6.00246">
        <ele>736</ele>
        <time>2024-10-15T13:52:16.000Z</time>
      </trkpt>
      <trkpt lat="45.08832" lon="6.00245">
        <ele>736</ele>
        <time>2024-10-15T13:52:17.000Z</time>
      </trkpt>
      <trkpt lat="45.08832" lon="6.00246">
        <ele>736</ele>
        <time>2024-10-15T13:52:18.000Z</time>
      </trkpt>
      <trkpt lat="45.08832" lon="6.00246">
        <ele>736</ele>
        <time>2024-10-15T13:52:19.000Z</time>
      </trkpt>
      <trkpt lat="45.08832" lon="6.00246">
        <ele>736</ele>
        <time>2024-10-15T13:52:20.000Z</time>
      </trkpt>
      <trkpt lat="45.08832" lon="6.00246">
        <ele>736</ele>
        <time>2024-10-15T13:52:21.000Z</time>
      </trkpt>
      <trkpt lat="45.08832" lon="6.00246">
        <ele>736</ele>
        <time>2024-10-15T13:52:22.000Z</time>
      </trkpt>
      <trkpt lat="45.08832" lon="6.00246">
        <ele>736</ele>
        <time>2024-10-15T13:52:23.000Z</time>
      </trkpt>
      <trkpt lat="45.08832" lon="6.00246">
        <ele>736</ele>
        <time>2024-10-15T13:52:24.000Z</time>
      </trkpt>
      <trkpt lat="45.08832" lon="6.00246">
        <ele>736</ele>
        <time>2024-10-15T13:52:25.000Z</time>
      </trkpt>
      <trkpt lat="45.08832" lon="6.00246">
        <ele>736</ele>
        <time>2024-10-15T13:52:26.000Z</time>
      </trkpt>
      <trkpt lat="45.08832" lon="6.00246">
        <ele>736</ele>
        <time>2024-10-15T13:52:27.000Z</time>
      </trkpt>
      <trkpt lat="45.08832" lon="6.00246">
        <ele>735.79998779297</ele>
        <time>2024-10-15T13:52:28.000Z</time>
      </trkpt>
      <trkpt lat="45.08832" lon="6.00246">
        <ele>735.79998779297</ele>
        <time>2024-10-15T13:52:29.000Z</time>
      </trkpt>
      <trkpt lat="45.08832" lon="6.00246">
        <ele>735.79998779297</ele>
        <time>2024-10-15T13:52:30.000Z</time>
      </trkpt>
      <trkpt lat="45.08832" lon="6.00246">
        <ele>735.79998779297</ele>
        <time>2024-10-15T13:52:31.000Z</time>
      </trkpt>
      <trkpt lat="45.08832" lon="6.00245">
        <ele>736</ele>
        <time>2024-10-15T13:52:32.000Z</time>
      </trkpt>
      <trkpt lat="45.08832" lon="6.00245">
        <ele>736</ele>
        <time>2024-10-15T13:52:33.000Z</time>
      </trkpt>
      <trkpt lat="45.08832" lon="6.00245">
        <ele>736</ele>
        <time>2024-10-15T13:52:34.000Z</time>
      </trkpt>
      <trkpt lat="45.08832" lon="6.00245">
        <ele>736</ele>
        <time>2024-10-15T13:52:35.000Z</time>
      </trkpt>
      <trkpt lat="45.08832" lon="6.00245">
        <ele>736</ele>
        <time>2024-10-15T13:52:36.000Z</time>
      </trkpt>
      <trkpt lat="45.08832" lon="6.00245">
        <ele>736</ele>
        <time>2024-10-15T13:52:37.000Z</time>
      </trkpt>
      <trkpt lat="45.08832" lon="6.00245">
        <ele>736</ele>
        <time>2024-10-15T13:52:38.000Z</time>
      </trkpt>
      <trkpt lat="45.08832" lon="6.00245">
        <ele>735.79998779297</ele>
        <time>2024-10-15T13:52:39.000Z</time>
      </trkpt>
      <trkpt lat="45.08832" lon="6.00245">
        <ele>735.79998779297</ele>
        <time>2024-10-15T13:52:40.000Z</time>
      </trkpt>
      <trkpt lat="45.08832" lon="6.00244">
        <ele>735.79998779297</ele>
        <time>2024-10-15T13:52:41.000Z</time>
      </trkpt>
      <trkpt lat="45.08832" lon="6.00244">
        <ele>735.79998779297</ele>
        <time>2024-10-15T13:52:42.000Z</time>
      </trkpt>
      <trkpt lat="45.08832" lon="6.00244">
        <ele>735.79998779297</ele>
        <time>2024-10-15T13:52:43.000Z</time>
      </trkpt>
      <trkpt lat="45.08832" lon="6.00244">
        <ele>735.79998779297</ele>
        <time>2024-10-15T13:52:44.000Z</time>
      </trkpt>
      <trkpt lat="45.08832" lon="6.00244">
        <ele>735.59997558594</ele>
        <time>2024-10-15T13:52:45.000Z</time>
      </trkpt>
      <trkpt lat="45.08831" lon="6.00244">
        <ele>735.59997558594</ele>
        <time>2024-10-15T13:52:46.000Z</time>
      </trkpt>
      <trkpt lat="45.08831" lon="6.00244">
        <ele>735.59997558594</ele>
        <time>2024-10-15T13:52:47.000Z</time>
      </trkpt>
      <trkpt lat="45.08831" lon="6.00244">
        <ele>735.59997558594</ele>
        <time>2024-10-15T13:52:48.000Z</time>
      </trkpt>
      <trkpt lat="45.08831" lon="6.00244">
        <ele>735.59997558594</ele>
        <time>2024-10-15T13:52:49.000Z</time>
      </trkpt>
      <trkpt lat="45.08831" lon="6.00244">
        <ele>735.59997558594</ele>
        <time>2024-10-15T13:52:50.000Z</time>
      </trkpt>
      <trkpt lat="45.08831" lon="6.00244">
        <ele>735.59997558594</ele>
        <time>2024-10-15T13:52:51.000Z</time>
      </trkpt>
      <trkpt lat="45.08831" lon="6.00244">
        <ele>735.59997558594</ele>
        <time>2024-10-15T13:52:52.000Z</time>
      </trkpt>
      <trkpt lat="45.08831" lon="6.00244">
        <ele>735.59997558594</ele>
        <time>2024-10-15T13:52:53.000Z</time>
      </trkpt>
      <trkpt lat="45.08831" lon="6.00243">
        <ele>735.59997558594</ele>
        <time>2024-10-15T13:52:54.000Z</time>
      </trkpt>
      <trkpt lat="45.08831" lon="6.00243">
        <ele>735.59997558594</ele>
        <time>2024-10-15T13:52:55.000Z</time>
      </trkpt>
      <trkpt lat="45.08831" lon="6.00243">
        <ele>735.59997558594</ele>
        <time>2024-10-15T13:52:56.000Z</time>
      </trkpt>
      <trkpt lat="45.08831" lon="6.00243">
        <ele>735.40002441406</ele>
        <time>2024-10-15T13:52:57.000Z</time>
      </trkpt>
      <trkpt lat="45.08831" lon="6.00243">
        <ele>735.40002441406</ele>
        <time>2024-10-15T13:52:58.000Z</time>
      </trkpt>
      <trkpt lat="45.08831" lon="6.00243">
        <ele>735.40002441406</ele>
        <time>2024-10-15T13:52:59.000Z</time>
      </trkpt>
      <trkpt lat="45.08831" lon="6.00243">
        <ele>735.40002441406</ele>
        <time>2024-10-15T13:53:00.000Z</time>
      </trkpt>
      <trkpt lat="45.08831" lon="6.00243">
        <ele>735.40002441406</ele>
        <time>2024-10-15T13:53:01.000Z</time>
      </trkpt>
      <trkpt lat="45.08831" lon="6.00243">
        <ele>735.40002441406</ele>
        <time>2024-10-15T13:53:02.000Z</time>
      </trkpt>
      <trkpt lat="45.08831" lon="6.00243">
        <ele>735.40002441406</ele>
        <time>2024-10-15T13:53:03.000Z</time>
      </trkpt>
      <trkpt lat="45.08831" lon="6.00243">
        <ele>735.40002441406</ele>
        <time>2024-10-15T13:53:04.000Z</time>
      </trkpt>
      <trkpt lat="45.08831" lon="6.00243">
        <ele>735.40002441406</ele>
        <time>2024-10-15T13:53:05.000Z</time>
      </trkpt>
      <trkpt lat="45.08831" lon="6.00242">
        <ele>735.40002441406</ele>
        <time>2024-10-15T13:53:06.000Z</time>
      </trkpt>
      <trkpt lat="45.0883" lon="6.00242">
        <ele>735.40002441406</ele>
        <time>2024-10-15T13:53:07.000Z</time>
      </trkpt>
      <trkpt lat="45.0883" lon="6.00242">
        <ele>735.40002441406</ele>
        <time>2024-10-15T13:53:08.000Z</time>
      </trkpt>
      <trkpt lat="45.0883" lon="6.00242">
        <ele>735.40002441406</ele>
        <time>2024-10-15T13:53:09.000Z</time>
      </trkpt>
      <trkpt lat="45.0883" lon="6.00242">
        <ele>735.40002441406</ele>
        <time>2024-10-15T13:53:10.000Z</time>
      </trkpt>
      <trkpt lat="45.0883" lon="6.00242">
        <ele>735.40002441406</ele>
        <time>2024-10-15T13:53:11.000Z</time>
      </trkpt>
      <trkpt lat="45.0883" lon="6.00242">
        <ele>735.20001220703</ele>
        <time>2024-10-15T13:53:12.000Z</time>
      </trkpt>
      <trkpt lat="45.0883" lon="6.00242">
        <ele>735.20001220703</ele>
        <time>2024-10-15T13:53:13.000Z</time>
      </trkpt>
      <trkpt lat="45.0883" lon="6.00242">
        <ele>735.20001220703</ele>
        <time>2024-10-15T13:53:14.000Z</time>
      </trkpt>
      <trkpt lat="45.0883" lon="6.00242">
        <ele>735.20001220703</ele>
        <time>2024-10-15T13:53:15.000Z</time>
      </trkpt>
      <trkpt lat="45.0883" lon="6.00242">
        <ele>735.20001220703</ele>
        <time>2024-10-15T13:53:16.000Z</time>
      </trkpt>
      <trkpt lat="45.0883" lon="6.00242">
        <ele>735.20001220703</ele>
        <time>2024-10-15T13:53:17.000Z</time>
      </trkpt>
      <trkpt lat="45.0883" lon="6.00242">
        <ele>735.20001220703</ele>
        <time>2024-10-15T13:53:18.000Z</time>
      </trkpt>
      <trkpt lat="45.0883" lon="6.00242">
        <ele>735.20001220703</ele>
        <time>2024-10-15T13:53:19.000Z</time>
      </trkpt>
      <trkpt lat="45.0883" lon="6.00242">
        <ele>735.20001220703</ele>
        <time>2024-10-15T13:53:20.000Z</time>
      </trkpt>
      <trkpt lat="45.0883" lon="6.00242">
        <ele>735.20001220703</ele>
        <time>2024-10-15T13:53:21.000Z</time>
      </trkpt>
      <trkpt lat="45.0883" lon="6.00242">
        <ele>735.20001220703</ele>
        <time>2024-10-15T13:53:22.000Z</time>
      </trkpt>
      <trkpt lat="45.0883" lon="6.00242">
        <ele>735.20001220703</ele>
        <time>2024-10-15T13:53:23.000Z</time>
      </trkpt>
      <trkpt lat="45.0883" lon="6.00242">
        <ele>735.20001220703</ele>
        <time>2024-10-15T13:53:24.000Z</time>
      </trkpt>
      <trkpt lat="45.0883" lon="6.00242">
        <ele>735.20001220703</ele>
        <time>2024-10-15T13:53:25.000Z</time>
      </trkpt>
      <trkpt lat="45.0883" lon="6.00242">
        <ele>735.20001220703</ele>
        <time>2024-10-15T13:53:26.000Z</time>
      </trkpt>
      <trkpt lat="45.0883" lon="6.00242">
        <ele>735.20001220703</ele>
        <time>2024-10-15T13:53:27.000Z</time>
      </trkpt>
      <trkpt lat="45.0883" lon="6.00242">
        <ele>735.20001220703</ele>
        <time>2024-10-15T13:53:28.000Z</time>
      </trkpt>
      <trkpt lat="45.0883" lon="6.00243">
        <ele>735.20001220703</ele>
        <time>2024-10-15T13:53:29.000Z</time>
      </trkpt>
      <trkpt lat="45.0883" lon="6.00243">
        <ele>735</ele>
        <time>2024-10-15T13:53:30.000Z</time>
      </trkpt>
      <trkpt lat="45.0883" lon="6.00243">
        <ele>735</ele>
        <time>2024-10-15T13:53:31.000Z</time>
      </trkpt>
      <trkpt lat="45.0883" lon="6.00243">
        <ele>735</ele>
        <time>2024-10-15T13:53:32.000Z</time>
      </trkpt>
      <trkpt lat="45.0883" lon="6.00243">
        <ele>735</ele>
        <time>2024-10-15T13:53:33.000Z</time>
      </trkpt>
      <trkpt lat="45.0883" lon="6.00243">
        <ele>735</ele>
        <time>2024-10-15T13:53:34.000Z</time>
      </trkpt>
      <trkpt lat="45.0883" lon="6.00243">
        <ele>735</ele>
        <time>2024-10-15T13:53:35.000Z</time>
      </trkpt>
      <trkpt lat="45.0883" lon="6.00243">
        <ele>735</ele>
        <time>2024-10-15T13:53:36.000Z</time>
      </trkpt>
      <trkpt lat="45.08831" lon="6.00243">
        <ele>735.20001220703</ele>
        <time>2024-10-15T13:53:37.000Z</time>
      </trkpt>
      <trkpt lat="45.08831" lon="6.00243">
        <ele>735.20001220703</ele>
        <time>2024-10-15T13:53:38.000Z</time>
      </trkpt>
      <trkpt lat="45.08831" lon="6.00243">
        <ele>735.20001220703</ele>
        <time>2024-10-15T13:53:39.000Z</time>
      </trkpt>
      <trkpt lat="45.08831" lon="6.00243">
        <ele>735.20001220703</ele>
        <time>2024-10-15T13:53:40.000Z</time>
      </trkpt>
      <trkpt lat="45.08831" lon="6.00243">
        <ele>735.20001220703</ele>
        <time>2024-10-15T13:53:41.000Z</time>
      </trkpt>
      <trkpt lat="45.08831" lon="6.00243">
        <ele>735.20001220703</ele>
        <time>2024-10-15T13:53:42.000Z</time>
      </trkpt>
      <trkpt lat="45.08831" lon="6.00243">
        <ele>735.20001220703</ele>
        <time>2024-10-15T13:53:43.000Z</time>
      </trkpt>
      <trkpt lat="45.08831" lon="6.00243">
        <ele>735.20001220703</ele>
        <time>2024-10-15T13:53:44.000Z</time>
      </trkpt>
      <trkpt lat="45.08831" lon="6.00243">
        <ele>735</ele>
        <time>2024-10-15T13:53:45.000Z</time>
      </trkpt>
      <trkpt lat="45.08831" lon="6.00243">
        <ele>735</ele>
        <time>2024-10-15T13:53:46.000Z</time>
      </trkpt>
      <trkpt lat="45.0883" lon="6.00243">
        <ele>735</ele>
        <time>2024-10-15T13:53:47.000Z</time>
      </trkpt>
      <trkpt lat="45.0883" lon="6.00243">
        <ele>735.20001220703</ele>
        <time>2024-10-15T13:53:48.000Z</time>
      </trkpt>
      <trkpt lat="45.0883" lon="6.00243">
        <ele>735.20001220703</ele>
        <time>2024-10-15T13:53:49.000Z</time>
      </trkpt>
      <trkpt lat="45.0883" lon="6.00243">
        <ele>735.20001220703</ele>
        <time>2024-10-15T13:53:50.000Z</time>
      </trkpt>
      <trkpt lat="45.0883" lon="6.00243">
        <ele>735.20001220703</ele>
        <time>2024-10-15T13:53:51.000Z</time>
      </trkpt>
      <trkpt lat="45.0883" lon="6.00244">
        <ele>735.20001220703</ele>
        <time>2024-10-15T13:53:52.000Z</time>
      </trkpt>
      <trkpt lat="45.0883" lon="6.00244">
        <ele>735.20001220703</ele>
        <time>2024-10-15T13:53:53.000Z</time>
      </trkpt>
      <trkpt lat="45.0883" lon="6.00244">
        <ele>735.20001220703</ele>
        <time>2024-10-15T13:53:54.000Z</time>
      </trkpt>
      <trkpt lat="45.0883" lon="6.00244">
        <ele>735.20001220703</ele>
        <time>2024-10-15T13:53:55.000Z</time>
      </trkpt>
      <trkpt lat="45.0883" lon="6.00244">
        <ele>735.20001220703</ele>
        <time>2024-10-15T13:53:56.000Z</time>
      </trkpt>
      <trkpt lat="45.0883" lon="6.00244">
        <ele>735.20001220703</ele>
        <time>2024-10-15T13:53:57.000Z</time>
      </trkpt>
      <trkpt lat="45.0883" lon="6.00244">
        <ele>735.20001220703</ele>
        <time>2024-10-15T13:53:58.000Z</time>
      </trkpt>
      <trkpt lat="45.0883" lon="6.00244">
        <ele>735.20001220703</ele>
        <time>2024-10-15T13:53:59.000Z</time>
      </trkpt>
      <trkpt lat="45.0883" lon="6.00244">
        <ele>735.40002441406</ele>
        <time>2024-10-15T13:54:00.000Z</time>
      </trkpt>
      <trkpt lat="45.0883" lon="6.00244">
        <ele>735.40002441406</ele>
        <time>2024-10-15T13:54:01.000Z</time>
      </trkpt>
      <trkpt lat="45.0883" lon="6.00244">
        <ele>735.40002441406</ele>
        <time>2024-10-15T13:54:02.000Z</time>
      </trkpt>
      <trkpt lat="45.0883" lon="6.00244">
        <ele>735.40002441406</ele>
        <time>2024-10-15T13:54:03.000Z</time>
      </trkpt>
      <trkpt lat="45.0883" lon="6.00244">
        <ele>735.40002441406</ele>
        <time>2024-10-15T13:54:04.000Z</time>
      </trkpt>
      <trkpt lat="45.0883" lon="6.00244">
        <ele>735.59997558594</ele>
        <time>2024-10-15T13:54:05.000Z</time>
      </trkpt>
      <trkpt lat="45.0883" lon="6.00244">
        <ele>735.59997558594</ele>
        <time>2024-10-15T13:54:06.000Z</time>
      </trkpt>
      <trkpt lat="45.0883" lon="6.00244">
        <ele>735.59997558594</ele>
        <time>2024-10-15T13:54:07.000Z</time>
      </trkpt>
      <trkpt lat="45.0883" lon="6.00244">
        <ele>735.59997558594</ele>
        <time>2024-10-15T13:54:08.000Z</time>
      </trkpt>
      <trkpt lat="45.0883" lon="6.00243">
        <ele>735.59997558594</ele>
        <time>2024-10-15T13:54:09.000Z</time>
      </trkpt>
      <trkpt lat="45.0883" lon="6.00243">
        <ele>735.59997558594</ele>
        <time>2024-10-15T13:54:10.000Z</time>
      </trkpt>
      <trkpt lat="45.0883" lon="6.00243">
        <ele>735.59997558594</ele>
        <time>2024-10-15T13:54:11.000Z</time>
      </trkpt>
      <trkpt lat="45.08829" lon="6.00242">
        <ele>735.59997558594</ele>
        <time>2024-10-15T13:54:12.000Z</time>
      </trkpt>
      <trkpt lat="45.08829" lon="6.00242">
        <ele>735.59997558594</ele>
        <time>2024-10-15T13:54:13.000Z</time>
      </trkpt>
      <trkpt lat="45.08829" lon="6.00242">
        <ele>735.59997558594</ele>
        <time>2024-10-15T13:54:14.000Z</time>
      </trkpt>
      <trkpt lat="45.08829" lon="6.00242">
        <ele>735.59997558594</ele>
        <time>2024-10-15T13:54:15.000Z</time>
      </trkpt>
      <trkpt lat="45.08829" lon="6.00242">
        <ele>735.59997558594</ele>
        <time>2024-10-15T13:54:16.000Z</time>
      </trkpt>
      <trkpt lat="45.08829" lon="6.00242">
        <ele>735.59997558594</ele>
        <time>2024-10-15T13:54:17.000Z</time>
      </trkpt>
      <trkpt lat="45.08829" lon="6.00242">
        <ele>735.79998779297</ele>
        <time>2024-10-15T13:54:18.000Z</time>
      </trkpt>
      <trkpt lat="45.08829" lon="6.00242">
        <ele>735.79998779297</ele>
        <time>2024-10-15T13:54:19.000Z</time>
      </trkpt>
      <trkpt lat="45.08829" lon="6.00242">
        <ele>735.79998779297</ele>
        <time>2024-10-15T13:54:20.000Z</time>
      </trkpt>
      <trkpt lat="45.08829" lon="6.00242">
        <ele>735.79998779297</ele>
        <time>2024-10-15T13:54:21.000Z</time>
      </trkpt>
      <trkpt lat="45.08829" lon="6.00242">
        <ele>735.79998779297</ele>
        <time>2024-10-15T13:54:22.000Z</time>
      </trkpt>
      <trkpt lat="45.08829" lon="6.00242">
        <ele>735.79998779297</ele>
        <time>2024-10-15T13:54:23.000Z</time>
      </trkpt>
      <trkpt lat="45.08829" lon="6.00242">
        <ele>735.79998779297</ele>
        <time>2024-10-15T13:54:24.000Z</time>
      </trkpt>
      <trkpt lat="45.08829" lon="6.00242">
        <ele>735.79998779297</ele>
        <time>2024-10-15T13:54:25.000Z</time>
      </trkpt>
      <trkpt lat="45.08829" lon="6.00242">
        <ele>735.79998779297</ele>
        <time>2024-10-15T13:54:26.000Z</time>
      </trkpt>
      <trkpt lat="45.08829" lon="6.00242">
        <ele>735.79998779297</ele>
        <time>2024-10-15T13:54:27.000Z</time>
      </trkpt>
      <trkpt lat="45.08829" lon="6.00242">
        <ele>735.79998779297</ele>
        <time>2024-10-15T13:54:28.000Z</time>
      </trkpt>
      <trkpt lat="45.08829" lon="6.00242">
        <ele>735.79998779297</ele>
        <time>2024-10-15T13:54:29.000Z</time>
      </trkpt>
      <trkpt lat="45.08828" lon="6.00242">
        <ele>735.79998779297</ele>
        <time>2024-10-15T13:54:30.000Z</time>
      </trkpt>
      <trkpt lat="45.08828" lon="6.00242">
        <ele>736</ele>
        <time>2024-10-15T13:54:31.000Z</time>
      </trkpt>
      <trkpt lat="45.08828" lon="6.00242">
        <ele>736</ele>
        <time>2024-10-15T13:54:32.000Z</time>
      </trkpt>
      <trkpt lat="45.08828" lon="6.00242">
        <ele>736</ele>
        <time>2024-10-15T13:54:33.000Z</time>
      </trkpt>
      <trkpt lat="45.08828" lon="6.00242">
        <ele>736</ele>
        <time>2024-10-15T13:54:34.000Z</time>
      </trkpt>
      <trkpt lat="45.08828" lon="6.00242">
        <ele>736</ele>
        <time>2024-10-15T13:54:35.000Z</time>
      </trkpt>
      <trkpt lat="45.08828" lon="6.00242">
        <ele>736</ele>
        <time>2024-10-15T13:54:36.000Z</time>
      </trkpt>
      <trkpt lat="45.08828" lon="6.00242">
        <ele>736</ele>
        <time>2024-10-15T13:54:37.000Z</time>
      </trkpt>
      <trkpt lat="45.08828" lon="6.00242">
        <ele>736</ele>
        <time>2024-10-15T13:54:38.000Z</time>
      </trkpt>
      <trkpt lat="45.08828" lon="6.00242">
        <ele>736</ele>
        <time>2024-10-15T13:54:39.000Z</time>
      </trkpt>
      <trkpt lat="45.08828" lon="6.00242">
        <ele>736</ele>
        <time>2024-10-15T13:54:40.000Z</time>
      </trkpt>
      <trkpt lat="45.08828" lon="6.00242">
        <ele>736</ele>
        <time>2024-10-15T13:54:41.000Z</time>
      </trkpt>
      <trkpt lat="45.08828" lon="6.00242">
        <ele>736</ele>
        <time>2024-10-15T13:54:42.000Z</time>
      </trkpt>
      <trkpt lat="45.08828" lon="6.00242">
        <ele>736</ele>
        <time>2024-10-15T13:54:43.000Z</time>
      </trkpt>
      <trkpt lat="45.08828" lon="6.00242">
        <ele>736</ele>
        <time>2024-10-15T13:54:44.000Z</time>
      </trkpt>
      <trkpt lat="45.08828" lon="6.00242">
        <ele>736</ele>
        <time>2024-10-15T13:54:45.000Z</time>
      </trkpt>
      <trkpt lat="45.08828" lon="6.00242">
        <ele>736</ele>
        <time>2024-10-15T13:54:46.000Z</time>
      </trkpt>
      <trkpt lat="45.08828" lon="6.00242">
        <ele>736</ele>
        <time>2024-10-15T13:54:47.000Z</time>
      </trkpt>
      <trkpt lat="45.08828" lon="6.00242">
        <ele>736</ele>
        <time>2024-10-15T13:54:48.000Z</time>
      </trkpt>
      <trkpt lat="45.08828" lon="6.00242">
        <ele>736</ele>
        <time>2024-10-15T13:54:49.000Z</time>
      </trkpt>
      <trkpt lat="45.08828" lon="6.00242">
        <ele>736</ele>
        <time>2024-10-15T13:54:50.000Z</time>
      </trkpt>
      <trkpt lat="45.08828" lon="6.00242">
        <ele>736.20001220703</ele>
        <time>2024-10-15T13:54:51.000Z</time>
      </trkpt>
      <trkpt lat="45.08828" lon="6.00242">
        <ele>736.20001220703</ele>
        <time>2024-10-15T13:54:52.000Z</time>
      </trkpt>
      <trkpt lat="45.08828" lon="6.00242">
        <ele>736.20001220703</ele>
        <time>2024-10-15T13:54:53.000Z</time>
      </trkpt>
      <trkpt lat="45.08828" lon="6.00242">
        <ele>736</ele>
        <time>2024-10-15T13:54:54.000Z</time>
      </trkpt>
      <trkpt lat="45.08828" lon="6.00242">
        <ele>736</ele>
        <time>2024-10-15T13:54:55.000Z</time>
      </trkpt>
      <trkpt lat="45.08828" lon="6.00242">
        <ele>736</ele>
        <time>2024-10-15T13:54:56.000Z</time>
      </trkpt>
      <trkpt lat="45.08828" lon="6.00242">
        <ele>736</ele>
        <time>2024-10-15T13:54:57.000Z</time>
      </trkpt>
      <trkpt lat="45.08828" lon="6.00242">
        <ele>736</ele>
        <time>2024-10-15T13:54:58.000Z</time>
      </trkpt>
      <trkpt lat="45.08828" lon="6.00242">
        <ele>736</ele>
        <time>2024-10-15T13:54:59.000Z</time>
      </trkpt>
      <trkpt lat="45.08828" lon="6.00242">
        <ele>736</ele>
        <time>2024-10-15T13:55:00.000Z</time>
      </trkpt>
      <trkpt lat="45.08828" lon="6.00242">
        <ele>736</ele>
        <time>2024-10-15T13:55:01.000Z</time>
      </trkpt>
      <trkpt lat="45.08828" lon="6.00242">
        <ele>736</ele>
        <time>2024-10-15T13:55:02.000Z</time>
      </trkpt>
      <trkpt lat="45.08828" lon="6.00242">
        <ele>736</ele>
        <time>2024-10-15T13:55:03.000Z</time>
      </trkpt>
      <trkpt lat="45.08828" lon="6.00242">
        <ele>736</ele>
        <time>2024-10-15T13:55:04.000Z</time>
      </trkpt>
      <trkpt lat="45.08828" lon="6.00242">
        <ele>736</ele>
        <time>2024-10-15T13:55:05.000Z</time>
      </trkpt>
      <trkpt lat="45.08828" lon="6.00242">
        <ele>736</ele>
        <time>2024-10-15T13:55:06.000Z</time>
      </trkpt>
      <trkpt lat="45.08828" lon="6.00241">
        <ele>736</ele>
        <time>2024-10-15T13:55:07.000Z</time>
      </trkpt>
      <trkpt lat="45.08828" lon="6.00241">
        <ele>735.79998779297</ele>
        <time>2024-10-15T13:55:08.000Z</time>
      </trkpt>
      <trkpt lat="45.08829" lon="6.00241">
        <ele>735.79998779297</ele>
        <time>2024-10-15T13:55:09.000Z</time>
      </trkpt>
      <trkpt lat="45.08829" lon="6.00241">
        <ele>736</ele>
        <time>2024-10-15T13:55:10.000Z</time>
      </trkpt>
      <trkpt lat="45.08829" lon="6.00241">
        <ele>736</ele>
        <time>2024-10-15T13:55:11.000Z</time>
      </trkpt>
      <trkpt lat="45.08829" lon="6.00241">
        <ele>736</ele>
        <time>2024-10-15T13:55:12.000Z</time>
      </trkpt>
      <trkpt lat="45.08829" lon="6.00241">
        <ele>736</ele>
        <time>2024-10-15T13:55:13.000Z</time>
      </trkpt>
      <trkpt lat="45.08829" lon="6.00241">
        <ele>736</ele>
        <time>2024-10-15T13:55:14.000Z</time>
      </trkpt>
      <trkpt lat="45.08829" lon="6.00241">
        <ele>736</ele>
        <time>2024-10-15T13:55:15.000Z</time>
      </trkpt>
      <trkpt lat="45.08829" lon="6.00241">
        <ele>736</ele>
        <time>2024-10-15T13:55:16.000Z</time>
      </trkpt>
      <trkpt lat="45.08829" lon="6.00241">
        <ele>735.79998779297</ele>
        <time>2024-10-15T13:55:17.000Z</time>
      </trkpt>
      <trkpt lat="45.08829" lon="6.00241">
        <ele>735.79998779297</ele>
        <time>2024-10-15T13:55:18.000Z</time>
      </trkpt>
      <trkpt lat="45.08829" lon="6.00241">
        <ele>735.79998779297</ele>
        <time>2024-10-15T13:55:19.000Z</time>
      </trkpt>
      <trkpt lat="45.08829" lon="6.00241">
        <ele>735.79998779297</ele>
        <time>2024-10-15T13:55:20.000Z</time>
      </trkpt>
      <trkpt lat="45.08829" lon="6.00241">
        <ele>735.79998779297</ele>
        <time>2024-10-15T13:55:21.000Z</time>
      </trkpt>
      <trkpt lat="45.08829" lon="6.00241">
        <ele>735.79998779297</ele>
        <time>2024-10-15T13:55:22.000Z</time>
      </trkpt>
      <trkpt lat="45.08829" lon="6.00241">
        <ele>735.79998779297</ele>
        <time>2024-10-15T13:55:23.000Z</time>
      </trkpt>
      <trkpt lat="45.08829" lon="6.00241">
        <ele>735.79998779297</ele>
        <time>2024-10-15T13:55:24.000Z</time>
      </trkpt>
      <trkpt lat="45.08829" lon="6.00241">
        <ele>735.79998779297</ele>
        <time>2024-10-15T13:55:25.000Z</time>
      </trkpt>
      <trkpt lat="45.08829" lon="6.00241">
        <ele>735.79998779297</ele>
        <time>2024-10-15T13:55:26.000Z</time>
      </trkpt>
      <trkpt lat="45.08829" lon="6.00241">
        <ele>735.79998779297</ele>
        <time>2024-10-15T13:55:27.000Z</time>
      </trkpt>
      <trkpt lat="45.08829" lon="6.00241">
        <ele>735.79998779297</ele>
        <time>2024-10-15T13:55:28.000Z</time>
      </trkpt>
      <trkpt lat="45.08829" lon="6.00241">
        <ele>735.79998779297</ele>
        <time>2024-10-15T13:55:29.000Z</time>
      </trkpt>
      <trkpt lat="45.08829" lon="6.00241">
        <ele>735.79998779297</ele>
        <time>2024-10-15T13:55:30.000Z</time>
      </trkpt>
      <trkpt lat="45.08829" lon="6.00241">
        <ele>736</ele>
        <time>2024-10-15T13:55:31.000Z</time>
      </trkpt>
      <trkpt lat="45.08829" lon="6.0024">
        <ele>735.79998779297</ele>
        <time>2024-10-15T13:55:32.000Z</time>
      </trkpt>
      <trkpt lat="45.08829" lon="6.0024">
        <ele>735.79998779297</ele>
        <time>2024-10-15T13:55:33.000Z</time>
      </trkpt>
      <trkpt lat="45.08828" lon="6.0024">
        <ele>735.79998779297</ele>
        <time>2024-10-15T13:55:34.000Z</time>
      </trkpt>
      <trkpt lat="45.08828" lon="6.0024">
        <ele>735.79998779297</ele>
        <time>2024-10-15T13:55:35.000Z</time>
      </trkpt>
      <trkpt lat="45.08828" lon="6.0024">
        <ele>735.79998779297</ele>
        <time>2024-10-15T13:55:36.000Z</time>
      </trkpt>
      <trkpt lat="45.08828" lon="6.0024">
        <ele>735.79998779297</ele>
        <time>2024-10-15T13:55:37.000Z</time>
      </trkpt>
      <trkpt lat="45.08828" lon="6.0024">
        <ele>735.79998779297</ele>
        <time>2024-10-15T13:55:38.000Z</time>
      </trkpt>
      <trkpt lat="45.08828" lon="6.0024">
        <ele>735.79998779297</ele>
        <time>2024-10-15T13:55:39.000Z</time>
      </trkpt>
      <trkpt lat="45.08828" lon="6.00241">
        <ele>735.79998779297</ele>
        <time>2024-10-15T13:55:40.000Z</time>
      </trkpt>
      <trkpt lat="45.08828" lon="6.00241">
        <ele>735.59997558594</ele>
        <time>2024-10-15T13:55:41.000Z</time>
      </trkpt>
      <trkpt lat="45.08828" lon="6.00241">
        <ele>735.40002441406</ele>
        <time>2024-10-15T13:55:42.000Z</time>
      </trkpt>
      <trkpt lat="45.08828" lon="6.00241">
        <ele>735.40002441406</ele>
        <time>2024-10-15T13:55:43.000Z</time>
      </trkpt>
      <trkpt lat="45.08828" lon="6.00241">
        <ele>735.40002441406</ele>
        <time>2024-10-15T13:55:44.000Z</time>
      </trkpt>
      <trkpt lat="45.08828" lon="6.00241">
        <ele>735.40002441406</ele>
        <time>2024-10-15T13:55:45.000Z</time>
      </trkpt>
      <trkpt lat="45.08828" lon="6.00241">
        <ele>735.40002441406</ele>
        <time>2024-10-15T13:55:46.000Z</time>
      </trkpt>
      <trkpt lat="45.08828" lon="6.00241">
        <ele>735.40002441406</ele>
        <time>2024-10-15T13:55:47.000Z</time>
      </trkpt>
      <trkpt lat="45.08828" lon="6.00241">
        <ele>735.40002441406</ele>
        <time>2024-10-15T13:55:48.000Z</time>
      </trkpt>
      <trkpt lat="45.08828" lon="6.00241">
        <ele>735.40002441406</ele>
        <time>2024-10-15T13:55:49.000Z</time>
      </trkpt>
      <trkpt lat="45.08828" lon="6.00241">
        <ele>735.40002441406</ele>
        <time>2024-10-15T13:55:50.000Z</time>
      </trkpt>
      <trkpt lat="45.08828" lon="6.00241">
        <ele>735.40002441406</ele>
        <time>2024-10-15T13:55:51.000Z</time>
      </trkpt>
      <trkpt lat="45.08828" lon="6.00241">
        <ele>735.40002441406</ele>
        <time>2024-10-15T13:55:52.000Z</time>
      </trkpt>
      <trkpt lat="45.08828" lon="6.00241">
        <ele>735.40002441406</ele>
        <time>2024-10-15T13:55:53.000Z</time>
      </trkpt>
      <trkpt lat="45.08828" lon="6.00241">
        <ele>735.40002441406</ele>
        <time>2024-10-15T13:55:54.000Z</time>
      </trkpt>
      <trkpt lat="45.08828" lon="6.00241">
        <ele>735.40002441406</ele>
        <time>2024-10-15T13:55:55.000Z</time>
      </trkpt>
      <trkpt lat="45.08828" lon="6.00241">
        <ele>735.40002441406</ele>
        <time>2024-10-15T13:55:56.000Z</time>
      </trkpt>
      <trkpt lat="45.08828" lon="6.00241">
        <ele>735.40002441406</ele>
        <time>2024-10-15T13:55:57.000Z</time>
      </trkpt>
      <trkpt lat="45.08828" lon="6.00241">
        <ele>735.40002441406</ele>
        <time>2024-10-15T13:55:58.000Z</time>
      </trkpt>
      <trkpt lat="45.08828" lon="6.00241">
        <ele>735.40002441406</ele>
        <time>2024-10-15T13:55:59.000Z</time>
      </trkpt>
      <trkpt lat="45.08828" lon="6.00241">
        <ele>735.40002441406</ele>
        <time>2024-10-15T13:56:00.000Z</time>
      </trkpt>
      <trkpt lat="45.08828" lon="6.00241">
        <ele>735.40002441406</ele>
        <time>2024-10-15T13:56:01.000Z</time>
      </trkpt>
      <trkpt lat="45.08828" lon="6.00241">
        <ele>735.40002441406</ele>
        <time>2024-10-15T13:56:02.000Z</time>
      </trkpt>
      <trkpt lat="45.08828" lon="6.00241">
        <ele>735.40002441406</ele>
        <time>2024-10-15T13:56:03.000Z</time>
      </trkpt>
      <trkpt lat="45.08828" lon="6.00241">
        <ele>735.40002441406</ele>
        <time>2024-10-15T13:56:04.000Z</time>
      </trkpt>
      <trkpt lat="45.08828" lon="6.00241">
        <ele>735.40002441406</ele>
        <time>2024-10-15T13:56:05.000Z</time>
      </trkpt>
      <trkpt lat="45.08828" lon="6.00241">
        <ele>735.40002441406</ele>
        <time>2024-10-15T13:56:06.000Z</time>
      </trkpt>
      <trkpt lat="45.08828" lon="6.00241">
        <ele>735.40002441406</ele>
        <time>2024-10-15T13:56:07.000Z</time>
      </trkpt>
      <trkpt lat="45.08828" lon="6.00241">
        <ele>735.40002441406</ele>
        <time>2024-10-15T13:56:08.000Z</time>
      </trkpt>
      <trkpt lat="45.08828" lon="6.00241">
        <ele>735.20001220703</ele>
        <time>2024-10-15T13:56:09.000Z</time>
      </trkpt>
      <trkpt lat="45.08828" lon="6.00241">
        <ele>735.20001220703</ele>
        <time>2024-10-15T13:56:10.000Z</time>
      </trkpt>
      <trkpt lat="45.08828" lon="6.00241">
        <ele>735.20001220703</ele>
        <time>2024-10-15T13:56:11.000Z</time>
      </trkpt>
      <trkpt lat="45.08828" lon="6.00241">
        <ele>735.20001220703</ele>
        <time>2024-10-15T13:56:12.000Z</time>
      </trkpt>
      <trkpt lat="45.08828" lon="6.00241">
        <ele>735.20001220703</ele>
        <time>2024-10-15T13:56:13.000Z</time>
      </trkpt>
      <trkpt lat="45.08828" lon="6.00241">
        <ele>735.20001220703</ele>
        <time>2024-10-15T13:56:14.000Z</time>
      </trkpt>
      <trkpt lat="45.08828" lon="6.00241">
        <ele>735.20001220703</ele>
        <time>2024-10-15T13:56:15.000Z</time>
      </trkpt>
      <trkpt lat="45.08828" lon="6.00241">
        <ele>735.20001220703</ele>
        <time>2024-10-15T13:56:16.000Z</time>
      </trkpt>
      <trkpt lat="45.08828" lon="6.00241">
        <ele>735.20001220703</ele>
        <time>2024-10-15T13:56:17.000Z</time>
      </trkpt>
      <trkpt lat="45.08828" lon="6.00241">
        <ele>735.20001220703</ele>
        <time>2024-10-15T13:56:18.000Z</time>
      </trkpt>
      <trkpt lat="45.08828" lon="6.00241">
        <ele>735.20001220703</ele>
        <time>2024-10-15T13:56:19.000Z</time>
      </trkpt>
      <trkpt lat="45.08828" lon="6.00241">
        <ele>735.20001220703</ele>
        <time>2024-10-15T13:56:20.000Z</time>
      </trkpt>
      <trkpt lat="45.08828" lon="6.00241">
        <ele>735.20001220703</ele>
        <time>2024-10-15T13:56:21.000Z</time>
      </trkpt>
      <trkpt lat="45.08828" lon="6.00242">
        <ele>735.20001220703</ele>
        <time>2024-10-15T13:56:22.000Z</time>
      </trkpt>
      <trkpt lat="45.08828" lon="6.00242">
        <ele>735.20001220703</ele>
        <time>2024-10-15T13:56:23.000Z</time>
      </trkpt>
      <trkpt lat="45.08828" lon="6.00242">
        <ele>735</ele>
        <time>2024-10-15T13:56:24.000Z</time>
      </trkpt>
      <trkpt lat="45.08828" lon="6.00242">
        <ele>735</ele>
        <time>2024-10-15T13:56:25.000Z</time>
      </trkpt>
      <trkpt lat="45.08828" lon="6.00242">
        <ele>735</ele>
        <time>2024-10-15T13:56:26.000Z</time>
      </trkpt>
      <trkpt lat="45.08828" lon="6.00242">
        <ele>735</ele>
        <time>2024-10-15T13:56:27.000Z</time>
      </trkpt>
      <trkpt lat="45.08828" lon="6.00242">
        <ele>735</ele>
        <time>2024-10-15T13:56:28.000Z</time>
      </trkpt>
      <trkpt lat="45.08828" lon="6.00242">
        <ele>735</ele>
        <time>2024-10-15T13:56:29.000Z</time>
      </trkpt>
      <trkpt lat="45.08828" lon="6.00242">
        <ele>735</ele>
        <time>2024-10-15T13:56:30.000Z</time>
      </trkpt>
      <trkpt lat="45.08828" lon="6.00242">
        <ele>735</ele>
        <time>2024-10-15T13:56:31.000Z</time>
      </trkpt>
      <trkpt lat="45.08828" lon="6.00242">
        <ele>735</ele>
        <time>2024-10-15T13:56:32.000Z</time>
      </trkpt>
      <trkpt lat="45.08828" lon="6.00242">
        <ele>735</ele>
        <time>2024-10-15T13:56:33.000Z</time>
      </trkpt>
      <trkpt lat="45.08828" lon="6.00242">
        <ele>735</ele>
        <time>2024-10-15T13:56:34.000Z</time>
      </trkpt>
      <trkpt lat="45.08828" lon="6.00242">
        <ele>734.79998779297</ele>
        <time>2024-10-15T13:56:35.000Z</time>
      </trkpt>
      <trkpt lat="45.08828" lon="6.00242">
        <ele>734.79998779297</ele>
        <time>2024-10-15T13:56:36.000Z</time>
      </trkpt>
      <trkpt lat="45.08828" lon="6.00242">
        <ele>734.79998779297</ele>
        <time>2024-10-15T13:56:37.000Z</time>
      </trkpt>
      <trkpt lat="45.08828" lon="6.00242">
        <ele>734.79998779297</ele>
        <time>2024-10-15T13:56:38.000Z</time>
      </trkpt>
      <trkpt lat="45.08828" lon="6.00242">
        <ele>734.79998779297</ele>
        <time>2024-10-15T13:56:39.000Z</time>
      </trkpt>
      <trkpt lat="45.08828" lon="6.00242">
        <ele>734.79998779297</ele>
        <time>2024-10-15T13:56:40.000Z</time>
      </trkpt>
      <trkpt lat="45.08828" lon="6.00242">
        <ele>734.79998779297</ele>
        <time>2024-10-15T13:56:41.000Z</time>
      </trkpt>
      <trkpt lat="45.08828" lon="6.00242">
        <ele>734.59997558594</ele>
        <time>2024-10-15T13:56:42.000Z</time>
      </trkpt>
      <trkpt lat="45.08828" lon="6.00242">
        <ele>734.59997558594</ele>
        <time>2024-10-15T13:56:43.000Z</time>
      </trkpt>
      <trkpt lat="45.08828" lon="6.00242">
        <ele>734.59997558594</ele>
        <time>2024-10-15T13:56:44.000Z</time>
      </trkpt>
      <trkpt lat="45.08828" lon="6.00242">
        <ele>734.59997558594</ele>
        <time>2024-10-15T13:56:45.000Z</time>
      </trkpt>
      <trkpt lat="45.08828" lon="6.00242">
        <ele>734.59997558594</ele>
        <time>2024-10-15T13:56:46.000Z</time>
      </trkpt>
      <trkpt lat="45.08828" lon="6.00242">
        <ele>734.59997558594</ele>
        <time>2024-10-15T13:56:47.000Z</time>
      </trkpt>
      <trkpt lat="45.08828" lon="6.00242">
        <ele>734.59997558594</ele>
        <time>2024-10-15T13:56:48.000Z</time>
      </trkpt>
      <trkpt lat="45.08828" lon="6.00242">
        <ele>734.59997558594</ele>
        <time>2024-10-15T13:56:49.000Z</time>
      </trkpt>
      <trkpt lat="45.08828" lon="6.00242">
        <ele>734.59997558594</ele>
        <time>2024-10-15T13:56:50.000Z</time>
      </trkpt>
      <trkpt lat="45.08828" lon="6.00242">
        <ele>734.59997558594</ele>
        <time>2024-10-15T13:56:51.000Z</time>
      </trkpt>
      <trkpt lat="45.08828" lon="6.00242">
        <ele>734.59997558594</ele>
        <time>2024-10-15T13:56:52.000Z</time>
      </trkpt>
      <trkpt lat="45.08828" lon="6.00242">
        <ele>734.59997558594</ele>
        <time>2024-10-15T13:56:53.000Z</time>
      </trkpt>
      <trkpt lat="45.08828" lon="6.00242">
        <ele>734.59997558594</ele>
        <time>2024-10-15T13:56:54.000Z</time>
      </trkpt>
      <trkpt lat="45.08828" lon="6.00243">
        <ele>734.59997558594</ele>
        <time>2024-10-15T13:56:55.000Z</time>
      </trkpt>
      <trkpt lat="45.08828" lon="6.00243">
        <ele>734.59997558594</ele>
        <time>2024-10-15T13:56:56.000Z</time>
      </trkpt>
      <trkpt lat="45.08828" lon="6.00243">
        <ele>734.59997558594</ele>
        <time>2024-10-15T13:56:57.000Z</time>
      </trkpt>
      <trkpt lat="45.08828" lon="6.00243">
        <ele>734.59997558594</ele>
        <time>2024-10-15T13:56:58.000Z</time>
      </trkpt>
      <trkpt lat="45.08828" lon="6.00243">
        <ele>734.59997558594</ele>
        <time>2024-10-15T13:56:59.000Z</time>
      </trkpt>
      <trkpt lat="45.08828" lon="6.00243">
        <ele>734.59997558594</ele>
        <time>2024-10-15T13:57:00.000Z</time>
      </trkpt>
      <trkpt lat="45.08828" lon="6.00243">
        <ele>734.59997558594</ele>
        <time>2024-10-15T13:57:01.000Z</time>
      </trkpt>
      <trkpt lat="45.08828" lon="6.00243">
        <ele>734.40002441406</ele>
        <time>2024-10-15T13:57:02.000Z</time>
      </trkpt>
      <trkpt lat="45.08828" lon="6.00243">
        <ele>734.40002441406</ele>
        <time>2024-10-15T13:57:03.000Z</time>
      </trkpt>
      <trkpt lat="45.08828" lon="6.00243">
        <ele>734.40002441406</ele>
        <time>2024-10-15T13:57:04.000Z</time>
      </trkpt>
      <trkpt lat="45.08828" lon="6.00243">
        <ele>734.40002441406</ele>
        <time>2024-10-15T13:57:05.000Z</time>
      </trkpt>
      <trkpt lat="45.08828" lon="6.00243">
        <ele>734.40002441406</ele>
        <time>2024-10-15T13:57:06.000Z</time>
      </trkpt>
      <trkpt lat="45.08828" lon="6.00243">
        <ele>734.40002441406</ele>
        <time>2024-10-15T13:57:07.000Z</time>
      </trkpt>
      <trkpt lat="45.08828" lon="6.00243">
        <ele>734.40002441406</ele>
        <time>2024-10-15T13:57:08.000Z</time>
      </trkpt>
      <trkpt lat="45.08828" lon="6.00243">
        <ele>734.40002441406</ele>
        <time>2024-10-15T13:57:09.000Z</time>
      </trkpt>
      <trkpt lat="45.08828" lon="6.00243">
        <ele>734.40002441406</ele>
        <time>2024-10-15T13:57:10.000Z</time>
      </trkpt>
      <trkpt lat="45.08828" lon="6.00243">
        <ele>734.40002441406</ele>
        <time>2024-10-15T13:57:11.000Z</time>
      </trkpt>
      <trkpt lat="45.08828" lon="6.00243">
        <ele>734.40002441406</ele>
        <time>2024-10-15T13:57:12.000Z</time>
      </trkpt>
      <trkpt lat="45.08828" lon="6.00243">
        <ele>734.40002441406</ele>
        <time>2024-10-15T13:57:13.000Z</time>
      </trkpt>
      <trkpt lat="45.08828" lon="6.00243">
        <ele>734.40002441406</ele>
        <time>2024-10-15T13:57:14.000Z</time>
      </trkpt>
      <trkpt lat="45.08828" lon="6.00243">
        <ele>734.40002441406</ele>
        <time>2024-10-15T13:57:15.000Z</time>
      </trkpt>
      <trkpt lat="45.08828" lon="6.00243">
        <ele>734.40002441406</ele>
        <time>2024-10-15T13:57:16.000Z</time>
      </trkpt>
      <trkpt lat="45.08828" lon="6.00243">
        <ele>734.40002441406</ele>
        <time>2024-10-15T13:57:17.000Z</time>
      </trkpt>
      <trkpt lat="45.08828" lon="6.00243">
        <ele>734.40002441406</ele>
        <time>2024-10-15T13:57:18.000Z</time>
      </trkpt>
      <trkpt lat="45.08828" lon="6.00243">
        <ele>734.40002441406</ele>
        <time>2024-10-15T13:57:19.000Z</time>
      </trkpt>
      <trkpt lat="45.08828" lon="6.00243">
        <ele>734.40002441406</ele>
        <time>2024-10-15T13:57:20.000Z</time>
      </trkpt>
      <trkpt lat="45.08828" lon="6.00243">
        <ele>734.40002441406</ele>
        <time>2024-10-15T13:57:21.000Z</time>
      </trkpt>
      <trkpt lat="45.08828" lon="6.00243">
        <ele>734.40002441406</ele>
        <time>2024-10-15T13:57:22.000Z</time>
      </trkpt>
      <trkpt lat="45.08828" lon="6.00243">
        <ele>734.20001220703</ele>
        <time>2024-10-15T13:57:23.000Z</time>
      </trkpt>
      <trkpt lat="45.08828" lon="6.00243">
        <ele>734.20001220703</ele>
        <time>2024-10-15T13:57:24.000Z</time>
      </trkpt>
      <trkpt lat="45.08828" lon="6.00243">
        <ele>734.20001220703</ele>
        <time>2024-10-15T13:57:25.000Z</time>
      </trkpt>
      <trkpt lat="45.08828" lon="6.00243">
        <ele>734.20001220703</ele>
        <time>2024-10-15T13:57:26.000Z</time>
      </trkpt>
      <trkpt lat="45.08828" lon="6.00243">
        <ele>734.20001220703</ele>
        <time>2024-10-15T13:57:27.000Z</time>
      </trkpt>
      <trkpt lat="45.08828" lon="6.00244">
        <ele>734.20001220703</ele>
        <time>2024-10-15T13:57:28.000Z</time>
      </trkpt>
      <trkpt lat="45.08828" lon="6.00244">
        <ele>734.20001220703</ele>
        <time>2024-10-15T13:57:29.000Z</time>
      </trkpt>
      <trkpt lat="45.08828" lon="6.00244">
        <ele>734.20001220703</ele>
        <time>2024-10-15T13:57:30.000Z</time>
      </trkpt>
      <trkpt lat="45.08828" lon="6.00244">
        <ele>734.20001220703</ele>
        <time>2024-10-15T13:57:31.000Z</time>
      </trkpt>
      <trkpt lat="45.08828" lon="6.00244">
        <ele>734.20001220703</ele>
        <time>2024-10-15T13:57:32.000Z</time>
      </trkpt>
      <trkpt lat="45.08828" lon="6.00244">
        <ele>734.20001220703</ele>
        <time>2024-10-15T13:57:33.000Z</time>
      </trkpt>
      <trkpt lat="45.08828" lon="6.00244">
        <ele>734.20001220703</ele>
        <time>2024-10-15T13:57:34.000Z</time>
      </trkpt>
      <trkpt lat="45.08828" lon="6.00244">
        <ele>734.20001220703</ele>
        <time>2024-10-15T13:57:35.000Z</time>
      </trkpt>
      <trkpt lat="45.08828" lon="6.00244">
        <ele>734.20001220703</ele>
        <time>2024-10-15T13:57:36.000Z</time>
      </trkpt>
      <trkpt lat="45.08828" lon="6.00244">
        <ele>734.20001220703</ele>
        <time>2024-10-15T13:57:37.000Z</time>
      </trkpt>
      <trkpt lat="45.08828" lon="6.00244">
        <ele>734.20001220703</ele>
        <time>2024-10-15T13:57:38.000Z</time>
      </trkpt>
      <trkpt lat="45.08828" lon="6.00244">
        <ele>734.20001220703</ele>
        <time>2024-10-15T13:57:39.000Z</time>
      </trkpt>
      <trkpt lat="45.08828" lon="6.00244">
        <ele>734.20001220703</ele>
        <time>2024-10-15T13:57:40.000Z</time>
      </trkpt>
      <trkpt lat="45.08828" lon="6.00244">
        <ele>734.20001220703</ele>
        <time>2024-10-15T13:57:41.000Z</time>
      </trkpt>
      <trkpt lat="45.08828" lon="6.00244">
        <ele>734.40002441406</ele>
        <time>2024-10-15T13:57:42.000Z</time>
      </trkpt>
      <trkpt lat="45.08828" lon="6.00244">
        <ele>734.40002441406</ele>
        <time>2024-10-15T13:57:43.000Z</time>
      </trkpt>
      <trkpt lat="45.08828" lon="6.00244">
        <ele>734.40002441406</ele>
        <time>2024-10-15T13:57:44.000Z</time>
      </trkpt>
      <trkpt lat="45.08828" lon="6.00244">
        <ele>734.40002441406</ele>
        <time>2024-10-15T13:57:45.000Z</time>
      </trkpt>
      <trkpt lat="45.08828" lon="6.00244">
        <ele>734.40002441406</ele>
        <time>2024-10-15T13:57:46.000Z</time>
      </trkpt>
      <trkpt lat="45.08828" lon="6.00244">
        <ele>734.40002441406</ele>
        <time>2024-10-15T13:57:47.000Z</time>
      </trkpt>
      <trkpt lat="45.08828" lon="6.00244">
        <ele>734.40002441406</ele>
        <time>2024-10-15T13:57:48.000Z</time>
      </trkpt>
      <trkpt lat="45.08828" lon="6.00244">
        <ele>734.40002441406</ele>
        <time>2024-10-15T13:57:49.000Z</time>
      </trkpt>
      <trkpt lat="45.08828" lon="6.00244">
        <ele>734.40002441406</ele>
        <time>2024-10-15T13:57:50.000Z</time>
      </trkpt>
      <trkpt lat="45.08828" lon="6.00244">
        <ele>734.59997558594</ele>
        <time>2024-10-15T13:57:51.000Z</time>
      </trkpt>
      <trkpt lat="45.08828" lon="6.00244">
        <ele>734.59997558594</ele>
        <time>2024-10-15T13:57:52.000Z</time>
      </trkpt>
      <trkpt lat="45.08828" lon="6.00244">
        <ele>734.59997558594</ele>
        <time>2024-10-15T13:57:53.000Z</time>
      </trkpt>
      <trkpt lat="45.08828" lon="6.00244">
        <ele>734.59997558594</ele>
        <time>2024-10-15T13:57:54.000Z</time>
      </trkpt>
      <trkpt lat="45.08828" lon="6.00244">
        <ele>734.59997558594</ele>
        <time>2024-10-15T13:57:55.000Z</time>
      </trkpt>
      <trkpt lat="45.08828" lon="6.00244">
        <ele>734.59997558594</ele>
        <time>2024-10-15T13:57:56.000Z</time>
      </trkpt>
      <trkpt lat="45.08828" lon="6.00244">
        <ele>734.59997558594</ele>
        <time>2024-10-15T13:57:57.000Z</time>
      </trkpt>
      <trkpt lat="45.08828" lon="6.00244">
        <ele>734.59997558594</ele>
        <time>2024-10-15T13:57:58.000Z</time>
      </trkpt>
      <trkpt lat="45.08828" lon="6.00244">
        <ele>734.59997558594</ele>
        <time>2024-10-15T13:57:59.000Z</time>
      </trkpt>
      <trkpt lat="45.08828" lon="6.00244">
        <ele>734.59997558594</ele>
        <time>2024-10-15T13:58:00.000Z</time>
      </trkpt>
      <trkpt lat="45.08828" lon="6.00244">
        <ele>734.59997558594</ele>
        <time>2024-10-15T13:58:01.000Z</time>
      </trkpt>
      <trkpt lat="45.08828" lon="6.00244">
        <ele>734.59997558594</ele>
        <time>2024-10-15T13:58:02.000Z</time>
      </trkpt>
      <trkpt lat="45.08828" lon="6.00244">
        <ele>734.59997558594</ele>
        <time>2024-10-15T13:58:03.000Z</time>
      </trkpt>
      <trkpt lat="45.08828" lon="6.00244">
        <ele>734.59997558594</ele>
        <time>2024-10-15T13:58:04.000Z</time>
      </trkpt>
      <trkpt lat="45.08828" lon="6.00244">
        <ele>734.59997558594</ele>
        <time>2024-10-15T13:58:05.000Z</time>
      </trkpt>
      <trkpt lat="45.08828" lon="6.00244">
        <ele>734.59997558594</ele>
        <time>2024-10-15T13:58:06.000Z</time>
      </trkpt>
      <trkpt lat="45.08828" lon="6.00244">
        <ele>734.59997558594</ele>
        <time>2024-10-15T13:58:07.000Z</time>
      </trkpt>
      <trkpt lat="45.08828" lon="6.00244">
        <ele>734.59997558594</ele>
        <time>2024-10-15T13:58:08.000Z</time>
      </trkpt>
      <trkpt lat="45.08828" lon="6.00244">
        <ele>734.59997558594</ele>
        <time>2024-10-15T13:58:09.000Z</time>
      </trkpt>
      <trkpt lat="45.08828" lon="6.00244">
        <ele>734.59997558594</ele>
        <time>2024-10-15T13:58:10.000Z</time>
      </trkpt>
      <trkpt lat="45.08828" lon="6.00244">
        <ele>734.59997558594</ele>
        <time>2024-10-15T13:58:11.000Z</time>
      </trkpt>
      <trkpt lat="45.08828" lon="6.00244">
        <ele>734.59997558594</ele>
        <time>2024-10-15T13:58:12.000Z</time>
      </trkpt>
      <trkpt lat="45.08828" lon="6.00244">
        <ele>734.59997558594</ele>
        <time>2024-10-15T13:58:13.000Z</time>
      </trkpt>
      <trkpt lat="45.08828" lon="6.00244">
        <ele>734.59997558594</ele>
        <time>2024-10-15T13:58:14.000Z</time>
      </trkpt>
      <trkpt lat="45.08828" lon="6.00244">
        <ele>734.59997558594</ele>
        <time>2024-10-15T13:58:15.000Z</time>
      </trkpt>
      <trkpt lat="45.08828" lon="6.00244">
        <ele>734.59997558594</ele>
        <time>2024-10-15T13:58:16.000Z</time>
      </trkpt>
      <trkpt lat="45.08828" lon="6.00244">
        <ele>734.59997558594</ele>
        <time>2024-10-15T13:58:17.000Z</time>
      </trkpt>
      <trkpt lat="45.08828" lon="6.00244">
        <ele>734.59997558594</ele>
        <time>2024-10-15T13:58:18.000Z</time>
      </trkpt>
      <trkpt lat="45.08828" lon="6.00244">
        <ele>734.59997558594</ele>
        <time>2024-10-15T13:58:19.000Z</time>
      </trkpt>
      <trkpt lat="45.08828" lon="6.00244">
        <ele>734.59997558594</ele>
        <time>2024-10-15T13:58:20.000Z</time>
      </trkpt>
      <trkpt lat="45.08828" lon="6.00244">
        <ele>734.59997558594</ele>
        <time>2024-10-15T13:58:21.000Z</time>
      </trkpt>
      <trkpt lat="45.08828" lon="6.00244">
        <ele>734.59997558594</ele>
        <time>2024-10-15T13:58:22.000Z</time>
      </trkpt>
      <trkpt lat="45.08828" lon="6.00244">
        <ele>734.59997558594</ele>
        <time>2024-10-15T13:58:23.000Z</time>
      </trkpt>
      <trkpt lat="45.08828" lon="6.00244">
        <ele>734.59997558594</ele>
        <time>2024-10-15T13:58:24.000Z</time>
      </trkpt>
      <trkpt lat="45.08828" lon="6.00244">
        <ele>734.59997558594</ele>
        <time>2024-10-15T13:58:25.000Z</time>
      </trkpt>
      <trkpt lat="45.08828" lon="6.00244">
        <ele>734.59997558594</ele>
        <time>2024-10-15T13:58:26.000Z</time>
      </trkpt>
      <trkpt lat="45.08828" lon="6.00244">
        <ele>734.59997558594</ele>
        <time>2024-10-15T13:58:27.000Z</time>
      </trkpt>
      <trkpt lat="45.08828" lon="6.00244">
        <ele>734.59997558594</ele>
        <time>2024-10-15T13:58:28.000Z</time>
      </trkpt>
      <trkpt lat="45.08828" lon="6.00244">
        <ele>734.59997558594</ele>
        <time>2024-10-15T13:58:29.000Z</time>
      </trkpt>
      <trkpt lat="45.08828" lon="6.00244">
        <ele>734.59997558594</ele>
        <time>2024-10-15T13:58:30.000Z</time>
      </trkpt>
      <trkpt lat="45.08828" lon="6.00244">
        <ele>734.59997558594</ele>
        <time>2024-10-15T13:58:31.000Z</time>
      </trkpt>
      <trkpt lat="45.08828" lon="6.00244">
        <ele>734.59997558594</ele>
        <time>2024-10-15T13:58:32.000Z</time>
      </trkpt>
      <trkpt lat="45.08828" lon="6.00244">
        <ele>734.59997558594</ele>
        <time>2024-10-15T13:58:33.000Z</time>
      </trkpt>
      <trkpt lat="45.08828" lon="6.00244">
        <ele>734.59997558594</ele>
        <time>2024-10-15T13:58:34.000Z</time>
      </trkpt>
      <trkpt lat="45.08828" lon="6.00244">
        <ele>734.40002441406</ele>
        <time>2024-10-15T13:58:35.000Z</time>
      </trkpt>
      <trkpt lat="45.08828" lon="6.00244">
        <ele>734.40002441406</ele>
        <time>2024-10-15T13:58:36.000Z</time>
      </trkpt>
      <trkpt lat="45.08828" lon="6.00244">
        <ele>734.59997558594</ele>
        <time>2024-10-15T13:58:37.000Z</time>
      </trkpt>
      <trkpt lat="45.08828" lon="6.00244">
        <ele>734.59997558594</ele>
        <time>2024-10-15T13:58:38.000Z</time>
      </trkpt>
      <trkpt lat="45.08828" lon="6.00244">
        <ele>734.59997558594</ele>
        <time>2024-10-15T13:58:39.000Z</time>
      </trkpt>
      <trkpt lat="45.08828" lon="6.00244">
        <ele>734.59997558594</ele>
        <time>2024-10-15T13:58:40.000Z</time>
      </trkpt>
      <trkpt lat="45.08828" lon="6.00244">
        <ele>734.59997558594</ele>
        <time>2024-10-15T13:58:41.000Z</time>
      </trkpt>
      <trkpt lat="45.08828" lon="6.00244">
        <ele>734.59997558594</ele>
        <time>2024-10-15T13:58:42.000Z</time>
      </trkpt>
      <trkpt lat="45.08828" lon="6.00244">
        <ele>734.59997558594</ele>
        <time>2024-10-15T13:58:43.000Z</time>
      </trkpt>
      <trkpt lat="45.08828" lon="6.00244">
        <ele>734.59997558594</ele>
        <time>2024-10-15T13:58:44.000Z</time>
      </trkpt>
      <trkpt lat="45.08828" lon="6.00244">
        <ele>734.59997558594</ele>
        <time>2024-10-15T13:58:45.000Z</time>
      </trkpt>
      <trkpt lat="45.08828" lon="6.00244">
        <ele>734.59997558594</ele>
        <time>2024-10-15T13:58:46.000Z</time>
      </trkpt>
      <trkpt lat="45.08828" lon="6.00244">
        <ele>734.79998779297</ele>
        <time>2024-10-15T13:58:47.000Z</time>
      </trkpt>
      <trkpt lat="45.08828" lon="6.00244">
        <ele>734.79998779297</ele>
        <time>2024-10-15T13:58:48.000Z</time>
      </trkpt>
      <trkpt lat="45.08828" lon="6.00244">
        <ele>734.79998779297</ele>
        <time>2024-10-15T13:58:49.000Z</time>
      </trkpt>
      <trkpt lat="45.08828" lon="6.00244">
        <ele>734.79998779297</ele>
        <time>2024-10-15T13:58:50.000Z</time>
      </trkpt>
      <trkpt lat="45.08828" lon="6.00244">
        <ele>734.79998779297</ele>
        <time>2024-10-15T13:58:51.000Z</time>
      </trkpt>
      <trkpt lat="45.08828" lon="6.00244">
        <ele>734.59997558594</ele>
        <time>2024-10-15T13:58:52.000Z</time>
      </trkpt>
      <trkpt lat="45.08828" lon="6.00244">
        <ele>734.59997558594</ele>
        <time>2024-10-15T13:58:53.000Z</time>
      </trkpt>
      <trkpt lat="45.08828" lon="6.00244">
        <ele>734.59997558594</ele>
        <time>2024-10-15T13:58:54.000Z</time>
      </trkpt>
      <trkpt lat="45.08828" lon="6.00244">
        <ele>734.59997558594</ele>
        <time>2024-10-15T13:58:55.000Z</time>
      </trkpt>
      <trkpt lat="45.08828" lon="6.00244">
        <ele>734.59997558594</ele>
        <time>2024-10-15T13:58:56.000Z</time>
      </trkpt>
      <trkpt lat="45.08828" lon="6.00244">
        <ele>734.59997558594</ele>
        <time>2024-10-15T13:58:57.000Z</time>
      </trkpt>
      <trkpt lat="45.08828" lon="6.00244">
        <ele>734.59997558594</ele>
        <time>2024-10-15T13:58:58.000Z</time>
      </trkpt>
      <trkpt lat="45.08828" lon="6.00244">
        <ele>734.59997558594</ele>
        <time>2024-10-15T13:58:59.000Z</time>
      </trkpt>
      <trkpt lat="45.08828" lon="6.00244">
        <ele>734.59997558594</ele>
        <time>2024-10-15T13:59:00.000Z</time>
      </trkpt>
      <trkpt lat="45.08828" lon="6.00244">
        <ele>734.59997558594</ele>
        <time>2024-10-15T13:59:01.000Z</time>
      </trkpt>
      <trkpt lat="45.08828" lon="6.00244">
        <ele>734.79998779297</ele>
        <time>2024-10-15T13:59:02.000Z</time>
      </trkpt>
      <trkpt lat="45.08828" lon="6.00244">
        <ele>734.79998779297</ele>
        <time>2024-10-15T13:59:03.000Z</time>
      </trkpt>
      <trkpt lat="45.08828" lon="6.00244">
        <ele>734.79998779297</ele>
        <time>2024-10-15T13:59:04.000Z</time>
      </trkpt>
      <trkpt lat="45.08828" lon="6.00244">
        <ele>734.79998779297</ele>
        <time>2024-10-15T13:59:05.000Z</time>
      </trkpt>
      <trkpt lat="45.08828" lon="6.00244">
        <ele>734.79998779297</ele>
        <time>2024-10-15T13:59:06.000Z</time>
      </trkpt>
      <trkpt lat="45.08828" lon="6.00244">
        <ele>734.79998779297</ele>
        <time>2024-10-15T13:59:07.000Z</time>
      </trkpt>
      <trkpt lat="45.08828" lon="6.00244">
        <ele>734.79998779297</ele>
        <time>2024-10-15T13:59:08.000Z</time>
      </trkpt>
      <trkpt lat="45.08828" lon="6.00244">
        <ele>734.79998779297</ele>
        <time>2024-10-15T13:59:09.000Z</time>
      </trkpt>
      <trkpt lat="45.08828" lon="6.00244">
        <ele>734.79998779297</ele>
        <time>2024-10-15T13:59:10.000Z</time>
      </trkpt>
      <trkpt lat="45.08828" lon="6.00244">
        <ele>734.79998779297</ele>
        <time>2024-10-15T13:59:11.000Z</time>
      </trkpt>
      <trkpt lat="45.08828" lon="6.00244">
        <ele>734.79998779297</ele>
        <time>2024-10-15T13:59:12.000Z</time>
      </trkpt>
      <trkpt lat="45.08828" lon="6.00244">
        <ele>734.79998779297</ele>
        <time>2024-10-15T13:59:13.000Z</time>
      </trkpt>
      <trkpt lat="45.08828" lon="6.00244">
        <ele>734.79998779297</ele>
        <time>2024-10-15T13:59:14.000Z</time>
      </trkpt>
      <trkpt lat="45.08828" lon="6.00244">
        <ele>734.59997558594</ele>
        <time>2024-10-15T13:59:15.000Z</time>
      </trkpt>
      <trkpt lat="45.08828" lon="6.00244">
        <ele>734.59997558594</ele>
        <time>2024-10-15T13:59:16.000Z</time>
      </trkpt>
      <trkpt lat="45.08828" lon="6.00244">
        <ele>734.59997558594</ele>
        <time>2024-10-15T13:59:17.000Z</time>
      </trkpt>
      <trkpt lat="45.08828" lon="6.00244">
        <ele>734.59997558594</ele>
        <time>2024-10-15T13:59:18.000Z</time>
      </trkpt>
      <trkpt lat="45.08828" lon="6.00244">
        <ele>734.59997558594</ele>
        <time>2024-10-15T13:59:19.000Z</time>
      </trkpt>
      <trkpt lat="45.08828" lon="6.00244">
        <ele>734.59997558594</ele>
        <time>2024-10-15T13:59:20.000Z</time>
      </trkpt>
      <trkpt lat="45.08828" lon="6.00244">
        <ele>734.59997558594</ele>
        <time>2024-10-15T13:59:21.000Z</time>
      </trkpt>
      <trkpt lat="45.08828" lon="6.00244">
        <ele>734.59997558594</ele>
        <time>2024-10-15T13:59:22.000Z</time>
      </trkpt>
      <trkpt lat="45.08828" lon="6.00244">
        <ele>734.59997558594</ele>
        <time>2024-10-15T13:59:23.000Z</time>
      </trkpt>
      <trkpt lat="45.08828" lon="6.00244">
        <ele>734.59997558594</ele>
        <time>2024-10-15T13:59:24.000Z</time>
      </trkpt>
      <trkpt lat="45.08828" lon="6.00244">
        <ele>734.59997558594</ele>
        <time>2024-10-15T13:59:25.000Z</time>
      </trkpt>
      <trkpt lat="45.08828" lon="6.00244">
        <ele>734.59997558594</ele>
        <time>2024-10-15T13:59:26.000Z</time>
      </trkpt>
      <trkpt lat="45.08828" lon="6.00244">
        <ele>734.40002441406</ele>
        <time>2024-10-15T13:59:27.000Z</time>
      </trkpt>
      <trkpt lat="45.08828" lon="6.00244">
        <ele>734.40002441406</ele>
        <time>2024-10-15T13:59:28.000Z</time>
      </trkpt>
      <trkpt lat="45.08828" lon="6.00244">
        <ele>734.40002441406</ele>
        <time>2024-10-15T13:59:29.000Z</time>
      </trkpt>
      <trkpt lat="45.08828" lon="6.00244">
        <ele>734.40002441406</ele>
        <time>2024-10-15T13:59:30.000Z</time>
      </trkpt>
      <trkpt lat="45.08828" lon="6.00244">
        <ele>734.40002441406</ele>
        <time>2024-10-15T13:59:31.000Z</time>
      </trkpt>
      <trkpt lat="45.08828" lon="6.00244">
        <ele>734.40002441406</ele>
        <time>2024-10-15T13:59:32.000Z</time>
      </trkpt>
      <trkpt lat="45.08828" lon="6.00244">
        <ele>734.40002441406</ele>
        <time>2024-10-15T13:59:33.000Z</time>
      </trkpt>
      <trkpt lat="45.08828" lon="6.00244">
        <ele>734.40002441406</ele>
        <time>2024-10-15T13:59:34.000Z</time>
      </trkpt>
      <trkpt lat="45.08828" lon="6.00244">
        <ele>734.40002441406</ele>
        <time>2024-10-15T13:59:35.000Z</time>
      </trkpt>
      <trkpt lat="45.08828" lon="6.00244">
        <ele>734.40002441406</ele>
        <time>2024-10-15T13:59:36.000Z</time>
      </trkpt>
      <trkpt lat="45.08828" lon="6.00244">
        <ele>734.40002441406</ele>
        <time>2024-10-15T13:59:37.000Z</time>
      </trkpt>
      <trkpt lat="45.08828" lon="6.00244">
        <ele>734.40002441406</ele>
        <time>2024-10-15T13:59:38.000Z</time>
      </trkpt>
      <trkpt lat="45.08828" lon="6.00244">
        <ele>734.40002441406</ele>
        <time>2024-10-15T13:59:39.000Z</time>
      </trkpt>
      <trkpt lat="45.08828" lon="6.00244">
        <ele>734.40002441406</ele>
        <time>2024-10-15T13:59:40.000Z</time>
      </trkpt>
      <trkpt lat="45.08829" lon="6.00243">
        <ele>734.40002441406</ele>
        <time>2024-10-15T13:59:41.000Z</time>
      </trkpt>
      <trkpt lat="45.0883" lon="6.00242">
        <ele>734.59997558594</ele>
        <time>2024-10-15T13:59:42.000Z</time>
      </trkpt>
      <trkpt lat="45.08832" lon="6.00241">
        <ele>734.59997558594</ele>
        <time>2024-10-15T13:59:43.000Z</time>
      </trkpt>
      <trkpt lat="45.08833" lon="6.0024">
        <ele>734.79998779297</ele>
        <time>2024-10-15T13:59:44.000Z</time>
      </trkpt>
      <trkpt lat="45.08835" lon="6.00239">
        <ele>734.79998779297</ele>
        <time>2024-10-15T13:59:45.000Z</time>
      </trkpt>
      <trkpt lat="45.08837" lon="6.00237">
        <ele>734.79998779297</ele>
        <time>2024-10-15T13:59:46.000Z</time>
      </trkpt>
      <trkpt lat="45.08839" lon="6.00236">
        <ele>734.79998779297</ele>
        <time>2024-10-15T13:59:47.000Z</time>
      </trkpt>
      <trkpt lat="45.0884" lon="6.00235">
        <ele>735</ele>
        <time>2024-10-15T13:59:48.000Z</time>
      </trkpt>
      <trkpt lat="45.08841" lon="6.00234">
        <ele>735</ele>
        <time>2024-10-15T13:59:49.000Z</time>
      </trkpt>
      <trkpt lat="45.08843" lon="6.00233">
        <ele>735</ele>
        <time>2024-10-15T13:59:50.000Z</time>
      </trkpt>
      <trkpt lat="45.08844" lon="6.00233">
        <ele>735</ele>
        <time>2024-10-15T13:59:51.000Z</time>
      </trkpt>
      <trkpt lat="45.08844" lon="6.00232">
        <ele>735.20001220703</ele>
        <time>2024-10-15T13:59:52.000Z</time>
      </trkpt>
      <trkpt lat="45.08845" lon="6.00232">
        <ele>735.40002441406</ele>
        <time>2024-10-15T13:59:53.000Z</time>
      </trkpt>
      <trkpt lat="45.08845" lon="6.00232">
        <ele>735.59997558594</ele>
        <time>2024-10-15T13:59:54.000Z</time>
      </trkpt>
      <trkpt lat="45.08846" lon="6.00232">
        <ele>735.59997558594</ele>
        <time>2024-10-15T13:59:55.000Z</time>
      </trkpt>
      <trkpt lat="45.08846" lon="6.00231">
        <ele>735.79998779297</ele>
        <time>2024-10-15T13:59:56.000Z</time>
      </trkpt>
      <trkpt lat="45.08847" lon="6.0023">
        <ele>735.79998779297</ele>
        <time>2024-10-15T13:59:57.000Z</time>
      </trkpt>
      <trkpt lat="45.08848" lon="6.00229">
        <ele>736</ele>
        <time>2024-10-15T13:59:58.000Z</time>
      </trkpt>
      <trkpt lat="45.08849" lon="6.00227">
        <ele>736</ele>
        <time>2024-10-15T13:59:59.000Z</time>
      </trkpt>
      <trkpt lat="45.0885" lon="6.00224">
        <ele>736</ele>
        <time>2024-10-15T14:00:00.000Z</time>
      </trkpt>
      <trkpt lat="45.08851" lon="6.00222">
        <ele>736.20001220703</ele>
        <time>2024-10-15T14:00:01.000Z</time>
      </trkpt>
      <trkpt lat="45.08852" lon="6.00222">
        <ele>736.40002441406</ele>
        <time>2024-10-15T14:00:02.000Z</time>
      </trkpt>
      <trkpt lat="45.08853" lon="6.0022">
        <ele>736.40002441406</ele>
        <time>2024-10-15T14:00:03.000Z</time>
      </trkpt>
      <trkpt lat="45.08854" lon="6.0022">
        <ele>736.59997558594</ele>
        <time>2024-10-15T14:00:04.000Z</time>
      </trkpt>
      <trkpt lat="45.08855" lon="6.00219">
        <ele>736.79998779297</ele>
        <time>2024-10-15T14:00:05.000Z</time>
      </trkpt>
      <trkpt lat="45.08855" lon="6.00218">
        <ele>736.79998779297</ele>
        <time>2024-10-15T14:00:06.000Z</time>
      </trkpt>
      <trkpt lat="45.08856" lon="6.00217">
        <ele>737</ele>
        <time>2024-10-15T14:00:07.000Z</time>
      </trkpt>
      <trkpt lat="45.08857" lon="6.00215">
        <ele>737.20001220703</ele>
        <time>2024-10-15T14:00:08.000Z</time>
      </trkpt>
      <trkpt lat="45.08858" lon="6.00213">
        <ele>737.40002441406</ele>
        <time>2024-10-15T14:00:09.000Z</time>
      </trkpt>
      <trkpt lat="45.08859" lon="6.00212">
        <ele>737.59997558594</ele>
        <time>2024-10-15T14:00:10.000Z</time>
      </trkpt>
      <trkpt lat="45.08859" lon="6.00211">
        <ele>737.79998779297</ele>
        <time>2024-10-15T14:00:11.000Z</time>
      </trkpt>
      <trkpt lat="45.08861" lon="6.0021">
        <ele>738</ele>
        <time>2024-10-15T14:00:12.000Z</time>
      </trkpt>
      <trkpt lat="45.08862" lon="6.00209">
        <ele>738</ele>
        <time>2024-10-15T14:00:13.000Z</time>
      </trkpt>
      <trkpt lat="45.08863" lon="6.00207">
        <ele>738.20001220703</ele>
        <time>2024-10-15T14:00:14.000Z</time>
      </trkpt>
      <trkpt lat="45.08864" lon="6.00206">
        <ele>738.20001220703</ele>
        <time>2024-10-15T14:00:15.000Z</time>
      </trkpt>
      <trkpt lat="45.08864" lon="6.00206">
        <ele>738.20001220703</ele>
        <time>2024-10-15T14:00:16.000Z</time>
      </trkpt>
      <trkpt lat="45.08865" lon="6.00205">
        <ele>738.40002441406</ele>
        <time>2024-10-15T14:00:17.000Z</time>
      </trkpt>
      <trkpt lat="45.08865" lon="6.00204">
        <ele>738.40002441406</ele>
        <time>2024-10-15T14:00:18.000Z</time>
      </trkpt>
      <trkpt lat="45.08866" lon="6.00202">
        <ele>738.40002441406</ele>
        <time>2024-10-15T14:00:19.000Z</time>
      </trkpt>
      <trkpt lat="45.08867" lon="6.002">
        <ele>738.40002441406</ele>
        <time>2024-10-15T14:00:20.000Z</time>
      </trkpt>
      <trkpt lat="45.08868" lon="6.00199">
        <ele>738.40002441406</ele>
        <time>2024-10-15T14:00:21.000Z</time>
      </trkpt>
      <trkpt lat="45.08869" lon="6.00198">
        <ele>738.40002441406</ele>
        <time>2024-10-15T14:00:22.000Z</time>
      </trkpt>
      <trkpt lat="45.0887" lon="6.00198">
        <ele>738.40002441406</ele>
        <time>2024-10-15T14:00:23.000Z</time>
      </trkpt>
      <trkpt lat="45.08872" lon="6.00198">
        <ele>738.59997558594</ele>
        <time>2024-10-15T14:00:24.000Z</time>
      </trkpt>
      <trkpt lat="45.08872" lon="6.00198">
        <ele>738.59997558594</ele>
        <time>2024-10-15T14:00:25.000Z</time>
      </trkpt>
      <trkpt lat="45.08874" lon="6.00198">
        <ele>738.59997558594</ele>
        <time>2024-10-15T14:00:26.000Z</time>
      </trkpt>
      <trkpt lat="45.08875" lon="6.00199">
        <ele>738.59997558594</ele>
        <time>2024-10-15T14:00:27.000Z</time>
      </trkpt>
      <trkpt lat="45.08876" lon="6.00199">
        <ele>738.79998779297</ele>
        <time>2024-10-15T14:00:28.000Z</time>
      </trkpt>
      <trkpt lat="45.08878" lon="6.00198">
        <ele>738.79998779297</ele>
        <time>2024-10-15T14:00:29.000Z</time>
      </trkpt>
      <trkpt lat="45.08879" lon="6.00197">
        <ele>739</ele>
        <time>2024-10-15T14:00:30.000Z</time>
      </trkpt>
      <trkpt lat="45.0888" lon="6.00197">
        <ele>739</ele>
        <time>2024-10-15T14:00:31.000Z</time>
      </trkpt>
      <trkpt lat="45.08881" lon="6.00197">
        <ele>739.20001220703</ele>
        <time>2024-10-15T14:00:32.000Z</time>
      </trkpt>
      <trkpt lat="45.08882" lon="6.00197">
        <ele>739.20001220703</ele>
        <time>2024-10-15T14:00:33.000Z</time>
      </trkpt>
      <trkpt lat="45.08884" lon="6.00196">
        <ele>739.40002441406</ele>
        <time>2024-10-15T14:00:34.000Z</time>
      </trkpt>
      <trkpt lat="45.08884" lon="6.00196">
        <ele>739.40002441406</ele>
        <time>2024-10-15T14:00:35.000Z</time>
      </trkpt>
      <trkpt lat="45.08885" lon="6.00195">
        <ele>739.59997558594</ele>
        <time>2024-10-15T14:00:36.000Z</time>
      </trkpt>
      <trkpt lat="45.08886" lon="6.00195">
        <ele>739.79998779297</ele>
        <time>2024-10-15T14:00:37.000Z</time>
      </trkpt>
      <trkpt lat="45.08886" lon="6.00195">
        <ele>739.79998779297</ele>
        <time>2024-10-15T14:00:38.000Z</time>
      </trkpt>
      <trkpt lat="45.08888" lon="6.00195">
        <ele>739.79998779297</ele>
        <time>2024-10-15T14:00:39.000Z</time>
      </trkpt>
      <trkpt lat="45.08888" lon="6.00195">
        <ele>739.79998779297</ele>
        <time>2024-10-15T14:00:40.000Z</time>
      </trkpt>
      <trkpt lat="45.08889" lon="6.00194">
        <ele>740</ele>
        <time>2024-10-15T14:00:41.000Z</time>
      </trkpt>
      <trkpt lat="45.0889" lon="6.00192">
        <ele>740</ele>
        <time>2024-10-15T14:00:42.000Z</time>
      </trkpt>
      <trkpt lat="45.08892" lon="6.00192">
        <ele>740</ele>
        <time>2024-10-15T14:00:43.000Z</time>
      </trkpt>
      <trkpt lat="45.08893" lon="6.0019">
        <ele>740</ele>
        <time>2024-10-15T14:00:44.000Z</time>
      </trkpt>
      <trkpt lat="45.08894" lon="6.00189">
        <ele>740</ele>
        <time>2024-10-15T14:00:45.000Z</time>
      </trkpt>
      <trkpt lat="45.08895" lon="6.00188">
        <ele>740.20001220703</ele>
        <time>2024-10-15T14:00:46.000Z</time>
      </trkpt>
      <trkpt lat="45.08897" lon="6.00186">
        <ele>740.20001220703</ele>
        <time>2024-10-15T14:00:47.000Z</time>
      </trkpt>
      <trkpt lat="45.08898" lon="6.00185">
        <ele>740.20001220703</ele>
        <time>2024-10-15T14:00:48.000Z</time>
      </trkpt>
      <trkpt lat="45.08899" lon="6.00184">
        <ele>740.20001220703</ele>
        <time>2024-10-15T14:00:49.000Z</time>
      </trkpt>
      <trkpt lat="45.08901" lon="6.00183">
        <ele>740.40002441406</ele>
        <time>2024-10-15T14:00:50.000Z</time>
      </trkpt>
      <trkpt lat="45.08902" lon="6.00181">
        <ele>740.40002441406</ele>
        <time>2024-10-15T14:00:51.000Z</time>
      </trkpt>
      <trkpt lat="45.08903" lon="6.0018">
        <ele>740.40002441406</ele>
        <time>2024-10-15T14:00:52.000Z</time>
      </trkpt>
      <trkpt lat="45.08904" lon="6.00179">
        <ele>740.40002441406</ele>
        <time>2024-10-15T14:00:53.000Z</time>
      </trkpt>
      <trkpt lat="45.08905" lon="6.00178">
        <ele>740.40002441406</ele>
        <time>2024-10-15T14:00:54.000Z</time>
      </trkpt>
      <trkpt lat="45.08907" lon="6.00178">
        <ele>740.59997558594</ele>
        <time>2024-10-15T14:00:55.000Z</time>
      </trkpt>
      <trkpt lat="45.08907" lon="6.00178">
        <ele>740.59997558594</ele>
        <time>2024-10-15T14:00:56.000Z</time>
      </trkpt>
      <trkpt lat="45.08909" lon="6.00177">
        <ele>740.59997558594</ele>
        <time>2024-10-15T14:00:57.000Z</time>
      </trkpt>
      <trkpt lat="45.08909" lon="6.00177">
        <ele>740.79998779297</ele>
        <time>2024-10-15T14:00:58.000Z</time>
      </trkpt>
      <trkpt lat="45.0891" lon="6.00177">
        <ele>740.79998779297</ele>
        <time>2024-10-15T14:00:59.000Z</time>
      </trkpt>
      <trkpt lat="45.08911" lon="6.00176">
        <ele>740.79998779297</ele>
        <time>2024-10-15T14:01:00.000Z</time>
      </trkpt>
      <trkpt lat="45.08913" lon="6.00176">
        <ele>740.79998779297</ele>
        <time>2024-10-15T14:01:01.000Z</time>
      </trkpt>
      <trkpt lat="45.08915" lon="6.00176">
        <ele>740.79998779297</ele>
        <time>2024-10-15T14:01:02.000Z</time>
      </trkpt>
      <trkpt lat="45.08916" lon="6.00176">
        <ele>740.79998779297</ele>
        <time>2024-10-15T14:01:03.000Z</time>
      </trkpt>
      <trkpt lat="45.08917" lon="6.00175">
        <ele>740.79998779297</ele>
        <time>2024-10-15T14:01:04.000Z</time>
      </trkpt>
      <trkpt lat="45.08918" lon="6.00174">
        <ele>740.79998779297</ele>
        <time>2024-10-15T14:01:05.000Z</time>
      </trkpt>
      <trkpt lat="45.08919" lon="6.00174">
        <ele>740.79998779297</ele>
        <time>2024-10-15T14:01:06.000Z</time>
      </trkpt>
      <trkpt lat="45.0892" lon="6.00173">
        <ele>740.79998779297</ele>
        <time>2024-10-15T14:01:07.000Z</time>
      </trkpt>
      <trkpt lat="45.08921" lon="6.00172">
        <ele>741</ele>
        <time>2024-10-15T14:01:08.000Z</time>
      </trkpt>
      <trkpt lat="45.08922" lon="6.00171">
        <ele>741</ele>
        <time>2024-10-15T14:01:09.000Z</time>
      </trkpt>
      <trkpt lat="45.08923" lon="6.0017">
        <ele>741</ele>
        <time>2024-10-15T14:01:10.000Z</time>
      </trkpt>
      <trkpt lat="45.08925" lon="6.00168">
        <ele>741.20001220703</ele>
        <time>2024-10-15T14:01:11.000Z</time>
      </trkpt>
      <trkpt lat="45.08926" lon="6.00167">
        <ele>741.20001220703</ele>
        <time>2024-10-15T14:01:12.000Z</time>
      </trkpt>
      <trkpt lat="45.08927" lon="6.00167">
        <ele>741.20001220703</ele>
        <time>2024-10-15T14:01:13.000Z</time>
      </trkpt>
      <trkpt lat="45.08928" lon="6.00166">
        <ele>741.20001220703</ele>
        <time>2024-10-15T14:01:14.000Z</time>
      </trkpt>
      <trkpt lat="45.0893" lon="6.00165">
        <ele>741.20001220703</ele>
        <time>2024-10-15T14:01:15.000Z</time>
      </trkpt>
      <trkpt lat="45.08931" lon="6.00164">
        <ele>741.20001220703</ele>
        <time>2024-10-15T14:01:16.000Z</time>
      </trkpt>
      <trkpt lat="45.08932" lon="6.00163">
        <ele>741.40002441406</ele>
        <time>2024-10-15T14:01:17.000Z</time>
      </trkpt>
      <trkpt lat="45.08933" lon="6.00162">
        <ele>741.40002441406</ele>
        <time>2024-10-15T14:01:18.000Z</time>
      </trkpt>
      <trkpt lat="45.08934" lon="6.00162">
        <ele>741.40002441406</ele>
        <time>2024-10-15T14:01:19.000Z</time>
      </trkpt>
      <trkpt lat="45.08935" lon="6.00162">
        <ele>741.40002441406</ele>
        <time>2024-10-15T14:01:20.000Z</time>
      </trkpt>
      <trkpt lat="45.08936" lon="6.00161">
        <ele>741.40002441406</ele>
        <time>2024-10-15T14:01:21.000Z</time>
      </trkpt>
      <trkpt lat="45.08936" lon="6.0016">
        <ele>741.40002441406</ele>
        <time>2024-10-15T14:01:22.000Z</time>
      </trkpt>
      <trkpt lat="45.08937" lon="6.0016">
        <ele>741.40002441406</ele>
        <time>2024-10-15T14:01:23.000Z</time>
      </trkpt>
      <trkpt lat="45.08938" lon="6.00159">
        <ele>741.40002441406</ele>
        <time>2024-10-15T14:01:24.000Z</time>
      </trkpt>
      <trkpt lat="45.08939" lon="6.00159">
        <ele>741.40002441406</ele>
        <time>2024-10-15T14:01:25.000Z</time>
      </trkpt>
      <trkpt lat="45.0894" lon="6.00158">
        <ele>741.40002441406</ele>
        <time>2024-10-15T14:01:26.000Z</time>
      </trkpt>
      <trkpt lat="45.08941" lon="6.00158">
        <ele>741.40002441406</ele>
        <time>2024-10-15T14:01:27.000Z</time>
      </trkpt>
      <trkpt lat="45.08942" lon="6.00157">
        <ele>741.40002441406</ele>
        <time>2024-10-15T14:01:28.000Z</time>
      </trkpt>
      <trkpt lat="45.08943" lon="6.00157">
        <ele>741.40002441406</ele>
        <time>2024-10-15T14:01:29.000Z</time>
      </trkpt>
      <trkpt lat="45.08945" lon="6.00156">
        <ele>741.40002441406</ele>
        <time>2024-10-15T14:01:30.000Z</time>
      </trkpt>
      <trkpt lat="45.08946" lon="6.00156">
        <ele>741.40002441406</ele>
        <time>2024-10-15T14:01:31.000Z</time>
      </trkpt>
      <trkpt lat="45.08947" lon="6.00154">
        <ele>741.40002441406</ele>
        <time>2024-10-15T14:01:32.000Z</time>
      </trkpt>
      <trkpt lat="45.08948" lon="6.00153">
        <ele>741.40002441406</ele>
        <time>2024-10-15T14:01:33.000Z</time>
      </trkpt>
      <trkpt lat="45.08949" lon="6.00153">
        <ele>741.40002441406</ele>
        <time>2024-10-15T14:01:34.000Z</time>
      </trkpt>
      <trkpt lat="45.0895" lon="6.00152">
        <ele>741.40002441406</ele>
        <time>2024-10-15T14:01:35.000Z</time>
      </trkpt>
      <trkpt lat="45.08951" lon="6.00151">
        <ele>741.40002441406</ele>
        <time>2024-10-15T14:01:36.000Z</time>
      </trkpt>
      <trkpt lat="45.08953" lon="6.00151">
        <ele>741.40002441406</ele>
        <time>2024-10-15T14:01:37.000Z</time>
      </trkpt>
      <trkpt lat="45.08955" lon="6.0015">
        <ele>741.40002441406</ele>
        <time>2024-10-15T14:01:38.000Z</time>
      </trkpt>
      <trkpt lat="45.08956" lon="6.0015">
        <ele>741.40002441406</ele>
        <time>2024-10-15T14:01:39.000Z</time>
      </trkpt>
      <trkpt lat="45.08958" lon="6.00149">
        <ele>741.40002441406</ele>
        <time>2024-10-15T14:01:40.000Z</time>
      </trkpt>
      <trkpt lat="45.08959" lon="6.00149">
        <ele>741.40002441406</ele>
        <time>2024-10-15T14:01:41.000Z</time>
      </trkpt>
      <trkpt lat="45.0896" lon="6.00149">
        <ele>741.20001220703</ele>
        <time>2024-10-15T14:01:42.000Z</time>
      </trkpt>
      <trkpt lat="45.08961" lon="6.00148">
        <ele>741.20001220703</ele>
        <time>2024-10-15T14:01:43.000Z</time>
      </trkpt>
      <trkpt lat="45.08962" lon="6.00148">
        <ele>741.20001220703</ele>
        <time>2024-10-15T14:01:44.000Z</time>
      </trkpt>
      <trkpt lat="45.08963" lon="6.00146">
        <ele>741.20001220703</ele>
        <time>2024-10-15T14:01:45.000Z</time>
      </trkpt>
      <trkpt lat="45.08965" lon="6.00146">
        <ele>741.20001220703</ele>
        <time>2024-10-15T14:01:46.000Z</time>
      </trkpt>
      <trkpt lat="45.08966" lon="6.00146">
        <ele>741.20001220703</ele>
        <time>2024-10-15T14:01:47.000Z</time>
      </trkpt>
      <trkpt lat="45.08967" lon="6.00146">
        <ele>741.20001220703</ele>
        <time>2024-10-15T14:01:48.000Z</time>
      </trkpt>
      <trkpt lat="45.08969" lon="6.00144">
        <ele>741.20001220703</ele>
        <time>2024-10-15T14:01:49.000Z</time>
      </trkpt>
      <trkpt lat="45.0897" lon="6.00143">
        <ele>741.20001220703</ele>
        <time>2024-10-15T14:01:50.000Z</time>
      </trkpt>
      <trkpt lat="45.0897" lon="6.00142">
        <ele>741</ele>
        <time>2024-10-15T14:01:51.000Z</time>
      </trkpt>
      <trkpt lat="45.08971" lon="6.00141">
        <ele>741</ele>
        <time>2024-10-15T14:01:52.000Z</time>
      </trkpt>
      <trkpt lat="45.08972" lon="6.0014">
        <ele>741</ele>
        <time>2024-10-15T14:01:53.000Z</time>
      </trkpt>
      <trkpt lat="45.08974" lon="6.00139">
        <ele>740.79998779297</ele>
        <time>2024-10-15T14:01:54.000Z</time>
      </trkpt>
      <trkpt lat="45.08975" lon="6.00139">
        <ele>740.79998779297</ele>
        <time>2024-10-15T14:01:55.000Z</time>
      </trkpt>
      <trkpt lat="45.08976" lon="6.00138">
        <ele>740.59997558594</ele>
        <time>2024-10-15T14:01:56.000Z</time>
      </trkpt>
      <trkpt lat="45.08977" lon="6.00138">
        <ele>740.59997558594</ele>
        <time>2024-10-15T14:01:57.000Z</time>
      </trkpt>
      <trkpt lat="45.08979" lon="6.00137">
        <ele>740.40002441406</ele>
        <time>2024-10-15T14:01:58.000Z</time>
      </trkpt>
      <trkpt lat="45.08981" lon="6.00137">
        <ele>740.40002441406</ele>
        <time>2024-10-15T14:01:59.000Z</time>
      </trkpt>
      <trkpt lat="45.08982" lon="6.00136">
        <ele>740.40002441406</ele>
        <time>2024-10-15T14:02:00.000Z</time>
      </trkpt>
      <trkpt lat="45.08983" lon="6.00136">
        <ele>740.40002441406</ele>
        <time>2024-10-15T14:02:01.000Z</time>
      </trkpt>
      <trkpt lat="45.08984" lon="6.00135">
        <ele>740.20001220703</ele>
        <time>2024-10-15T14:02:02.000Z</time>
      </trkpt>
      <trkpt lat="45.08985" lon="6.00134">
        <ele>740.20001220703</ele>
        <time>2024-10-15T14:02:03.000Z</time>
      </trkpt>
      <trkpt lat="45.08986" lon="6.00133">
        <ele>740.20001220703</ele>
        <time>2024-10-15T14:02:04.000Z</time>
      </trkpt>
      <trkpt lat="45.08987" lon="6.00131">
        <ele>740</ele>
        <time>2024-10-15T14:02:05.000Z</time>
      </trkpt>
      <trkpt lat="45.08989" lon="6.0013">
        <ele>739.79998779297</ele>
        <time>2024-10-15T14:02:06.000Z</time>
      </trkpt>
      <trkpt lat="45.0899" lon="6.0013">
        <ele>739.79998779297</ele>
        <time>2024-10-15T14:02:07.000Z</time>
      </trkpt>
      <trkpt lat="45.08991" lon="6.00129">
        <ele>739.79998779297</ele>
        <time>2024-10-15T14:02:08.000Z</time>
      </trkpt>
      <trkpt lat="45.08992" lon="6.00129">
        <ele>739.59997558594</ele>
        <time>2024-10-15T14:02:09.000Z</time>
      </trkpt>
      <trkpt lat="45.08993" lon="6.00128">
        <ele>739.59997558594</ele>
        <time>2024-10-15T14:02:10.000Z</time>
      </trkpt>
      <trkpt lat="45.08994" lon="6.00128">
        <ele>739.59997558594</ele>
        <time>2024-10-15T14:02:11.000Z</time>
      </trkpt>
      <trkpt lat="45.08995" lon="6.00127">
        <ele>739.59997558594</ele>
        <time>2024-10-15T14:02:12.000Z</time>
      </trkpt>
      <trkpt lat="45.08996" lon="6.00126">
        <ele>739.40002441406</ele>
        <time>2024-10-15T14:02:13.000Z</time>
      </trkpt>
      <trkpt lat="45.08997" lon="6.00126">
        <ele>739.40002441406</ele>
        <time>2024-10-15T14:02:14.000Z</time>
      </trkpt>
      <trkpt lat="45.08999" lon="6.00125">
        <ele>739.20001220703</ele>
        <time>2024-10-15T14:02:15.000Z</time>
      </trkpt>
      <trkpt lat="45.09" lon="6.00124">
        <ele>739.20001220703</ele>
        <time>2024-10-15T14:02:16.000Z</time>
      </trkpt>
      <trkpt lat="45.09002" lon="6.00123">
        <ele>739.20001220703</ele>
        <time>2024-10-15T14:02:17.000Z</time>
      </trkpt>
      <trkpt lat="45.09003" lon="6.00122">
        <ele>739</ele>
        <time>2024-10-15T14:02:18.000Z</time>
      </trkpt>
      <trkpt lat="45.09004" lon="6.00122">
        <ele>739</ele>
        <time>2024-10-15T14:02:19.000Z</time>
      </trkpt>
      <trkpt lat="45.09005" lon="6.00121">
        <ele>738.79998779297</ele>
        <time>2024-10-15T14:02:20.000Z</time>
      </trkpt>
      <trkpt lat="45.09006" lon="6.0012">
        <ele>738.79998779297</ele>
        <time>2024-10-15T14:02:21.000Z</time>
      </trkpt>
      <trkpt lat="45.09008" lon="6.00119">
        <ele>738.79998779297</ele>
        <time>2024-10-15T14:02:22.000Z</time>
      </trkpt>
      <trkpt lat="45.09009" lon="6.00118">
        <ele>738.79998779297</ele>
        <time>2024-10-15T14:02:23.000Z</time>
      </trkpt>
      <trkpt lat="45.0901" lon="6.00118">
        <ele>738.59997558594</ele>
        <time>2024-10-15T14:02:24.000Z</time>
      </trkpt>
      <trkpt lat="45.09011" lon="6.00117">
        <ele>738.59997558594</ele>
        <time>2024-10-15T14:02:25.000Z</time>
      </trkpt>
      <trkpt lat="45.09012" lon="6.00117">
        <ele>738.59997558594</ele>
        <time>2024-10-15T14:02:26.000Z</time>
      </trkpt>
      <trkpt lat="45.09014" lon="6.00116">
        <ele>738.40002441406</ele>
        <time>2024-10-15T14:02:27.000Z</time>
      </trkpt>
      <trkpt lat="45.09015" lon="6.00116">
        <ele>738.40002441406</ele>
        <time>2024-10-15T14:02:28.000Z</time>
      </trkpt>
      <trkpt lat="45.09016" lon="6.00115">
        <ele>738.40002441406</ele>
        <time>2024-10-15T14:02:29.000Z</time>
      </trkpt>
      <trkpt lat="45.09018" lon="6.00115">
        <ele>738.40002441406</ele>
        <time>2024-10-15T14:02:30.000Z</time>
      </trkpt>
      <trkpt lat="45.09019" lon="6.00115">
        <ele>738</ele>
        <time>2024-10-15T14:02:31.000Z</time>
      </trkpt>
      <trkpt lat="45.0902" lon="6.00114">
        <ele>738</ele>
        <time>2024-10-15T14:02:32.000Z</time>
      </trkpt>
      <trkpt lat="45.09021" lon="6.00114">
        <ele>738</ele>
        <time>2024-10-15T14:02:33.000Z</time>
      </trkpt>
      <trkpt lat="45.09022" lon="6.00113">
        <ele>737.79998779297</ele>
        <time>2024-10-15T14:02:34.000Z</time>
      </trkpt>
      <trkpt lat="45.09023" lon="6.00114">
        <ele>737.79998779297</ele>
        <time>2024-10-15T14:02:35.000Z</time>
      </trkpt>
      <trkpt lat="45.09024" lon="6.00114">
        <ele>737.59997558594</ele>
        <time>2024-10-15T14:02:36.000Z</time>
      </trkpt>
      <trkpt lat="45.09024" lon="6.00114">
        <ele>737.59997558594</ele>
        <time>2024-10-15T14:02:37.000Z</time>
      </trkpt>
      <trkpt lat="45.09025" lon="6.00114">
        <ele>737.40002441406</ele>
        <time>2024-10-15T14:02:38.000Z</time>
      </trkpt>
      <trkpt lat="45.09026" lon="6.00113">
        <ele>737.40002441406</ele>
        <time>2024-10-15T14:02:39.000Z</time>
      </trkpt>
      <trkpt lat="45.09027" lon="6.00113">
        <ele>737.20001220703</ele>
        <time>2024-10-15T14:02:40.000Z</time>
      </trkpt>
      <trkpt lat="45.09028" lon="6.00114">
        <ele>737.20001220703</ele>
        <time>2024-10-15T14:02:41.000Z</time>
      </trkpt>
      <trkpt lat="45.0903" lon="6.00114">
        <ele>737.20001220703</ele>
        <time>2024-10-15T14:02:42.000Z</time>
      </trkpt>
      <trkpt lat="45.09031" lon="6.00114">
        <ele>737</ele>
        <time>2024-10-15T14:02:43.000Z</time>
      </trkpt>
      <trkpt lat="45.09033" lon="6.00114">
        <ele>737</ele>
        <time>2024-10-15T14:02:44.000Z</time>
      </trkpt>
      <trkpt lat="45.09034" lon="6.00113">
        <ele>736.79998779297</ele>
        <time>2024-10-15T14:02:45.000Z</time>
      </trkpt>
      <trkpt lat="45.09035" lon="6.00113">
        <ele>736.79998779297</ele>
        <time>2024-10-15T14:02:46.000Z</time>
      </trkpt>
      <trkpt lat="45.09037" lon="6.00111">
        <ele>736.59997558594</ele>
        <time>2024-10-15T14:02:47.000Z</time>
      </trkpt>
      <trkpt lat="45.0904" lon="6.00112">
        <ele>736.40002441406</ele>
        <time>2024-10-15T14:02:48.000Z</time>
      </trkpt>
      <trkpt lat="45.09041" lon="6.00112">
        <ele>736.20001220703</ele>
        <time>2024-10-15T14:02:49.000Z</time>
      </trkpt>
      <trkpt lat="45.09042" lon="6.00113">
        <ele>736</ele>
        <time>2024-10-15T14:02:50.000Z</time>
      </trkpt>
      <trkpt lat="45.09044" lon="6.00113">
        <ele>736</ele>
        <time>2024-10-15T14:02:51.000Z</time>
      </trkpt>
      <trkpt lat="45.09045" lon="6.00114">
        <ele>736</ele>
        <time>2024-10-15T14:02:52.000Z</time>
      </trkpt>
      <trkpt lat="45.09046" lon="6.00114">
        <ele>736</ele>
        <time>2024-10-15T14:02:53.000Z</time>
      </trkpt>
      <trkpt lat="45.09047" lon="6.00114">
        <ele>735.79998779297</ele>
        <time>2024-10-15T14:02:54.000Z</time>
      </trkpt>
      <trkpt lat="45.09048" lon="6.00114">
        <ele>735.59997558594</ele>
        <time>2024-10-15T14:02:55.000Z</time>
      </trkpt>
      <trkpt lat="45.09049" lon="6.00115">
        <ele>735.59997558594</ele>
        <time>2024-10-15T14:02:56.000Z</time>
      </trkpt>
      <trkpt lat="45.0905" lon="6.00116">
        <ele>735.40002441406</ele>
        <time>2024-10-15T14:02:57.000Z</time>
      </trkpt>
      <trkpt lat="45.09052" lon="6.00117">
        <ele>735.40002441406</ele>
        <time>2024-10-15T14:02:58.000Z</time>
      </trkpt>
      <trkpt lat="45.09055" lon="6.00117">
        <ele>735.40002441406</ele>
        <time>2024-10-15T14:02:59.000Z</time>
      </trkpt>
      <trkpt lat="45.09057" lon="6.00117">
        <ele>735.40002441406</ele>
        <time>2024-10-15T14:03:00.000Z</time>
      </trkpt>
      <trkpt lat="45.09059" lon="6.00117">
        <ele>735.20001220703</ele>
        <time>2024-10-15T14:03:01.000Z</time>
      </trkpt>
      <trkpt lat="45.09059" lon="6.00117">
        <ele>735.20001220703</ele>
        <time>2024-10-15T14:03:02.000Z</time>
      </trkpt>
      <trkpt lat="45.0906" lon="6.00116">
        <ele>735</ele>
        <time>2024-10-15T14:03:03.000Z</time>
      </trkpt>
      <trkpt lat="45.0906" lon="6.00115">
        <ele>735</ele>
        <time>2024-10-15T14:03:04.000Z</time>
      </trkpt>
      <trkpt lat="45.09061" lon="6.00113">
        <ele>735</ele>
        <time>2024-10-15T14:03:05.000Z</time>
      </trkpt>
      <trkpt lat="45.09062" lon="6.00113">
        <ele>735</ele>
        <time>2024-10-15T14:03:06.000Z</time>
      </trkpt>
      <trkpt lat="45.09062" lon="6.00112">
        <ele>734.79998779297</ele>
        <time>2024-10-15T14:03:07.000Z</time>
      </trkpt>
      <trkpt lat="45.09063" lon="6.00112">
        <ele>734.79998779297</ele>
        <time>2024-10-15T14:03:08.000Z</time>
      </trkpt>
      <trkpt lat="45.09064" lon="6.00112">
        <ele>734.79998779297</ele>
        <time>2024-10-15T14:03:09.000Z</time>
      </trkpt>
      <trkpt lat="45.09065" lon="6.00112">
        <ele>734.59997558594</ele>
        <time>2024-10-15T14:03:10.000Z</time>
      </trkpt>
      <trkpt lat="45.09066" lon="6.00111">
        <ele>734.59997558594</ele>
        <time>2024-10-15T14:03:11.000Z</time>
      </trkpt>
      <trkpt lat="45.09068" lon="6.0011">
        <ele>734.59997558594</ele>
        <time>2024-10-15T14:03:12.000Z</time>
      </trkpt>
      <trkpt lat="45.0907" lon="6.00109">
        <ele>734.40002441406</ele>
        <time>2024-10-15T14:03:13.000Z</time>
      </trkpt>
      <trkpt lat="45.09072" lon="6.00108">
        <ele>734.40002441406</ele>
        <time>2024-10-15T14:03:14.000Z</time>
      </trkpt>
      <trkpt lat="45.09073" lon="6.00108">
        <ele>734.40002441406</ele>
        <time>2024-10-15T14:03:15.000Z</time>
      </trkpt>
      <trkpt lat="45.09074" lon="6.00107">
        <ele>734.40002441406</ele>
        <time>2024-10-15T14:03:16.000Z</time>
      </trkpt>
      <trkpt lat="45.09076" lon="6.00106">
        <ele>734.20001220703</ele>
        <time>2024-10-15T14:03:17.000Z</time>
      </trkpt>
      <trkpt lat="45.09078" lon="6.00106">
        <ele>734.20001220703</ele>
        <time>2024-10-15T14:03:18.000Z</time>
      </trkpt>
      <trkpt lat="45.09079" lon="6.00106">
        <ele>734.20001220703</ele>
        <time>2024-10-15T14:03:19.000Z</time>
      </trkpt>
      <trkpt lat="45.0908" lon="6.00107">
        <ele>734.20001220703</ele>
        <time>2024-10-15T14:03:20.000Z</time>
      </trkpt>
      <trkpt lat="45.09082" lon="6.00107">
        <ele>734.20001220703</ele>
        <time>2024-10-15T14:03:21.000Z</time>
      </trkpt>
      <trkpt lat="45.09082" lon="6.00106">
        <ele>734</ele>
        <time>2024-10-15T14:03:22.000Z</time>
      </trkpt>
      <trkpt lat="45.09083" lon="6.00104">
        <ele>734</ele>
        <time>2024-10-15T14:03:23.000Z</time>
      </trkpt>
      <trkpt lat="45.09085" lon="6.00101">
        <ele>733.79998779297</ele>
        <time>2024-10-15T14:03:24.000Z</time>
      </trkpt>
      <trkpt lat="45.09085" lon="6.001">
        <ele>733.79998779297</ele>
        <time>2024-10-15T14:03:25.000Z</time>
      </trkpt>
      <trkpt lat="45.09086" lon="6.001">
        <ele>733.59997558594</ele>
        <time>2024-10-15T14:03:26.000Z</time>
      </trkpt>
      <trkpt lat="45.09087" lon="6.001">
        <ele>733.59997558594</ele>
        <time>2024-10-15T14:03:27.000Z</time>
      </trkpt>
      <trkpt lat="45.09088" lon="6.001">
        <ele>733.59997558594</ele>
        <time>2024-10-15T14:03:28.000Z</time>
      </trkpt>
      <trkpt lat="45.09089" lon="6.001">
        <ele>733.59997558594</ele>
        <time>2024-10-15T14:03:29.000Z</time>
      </trkpt>
      <trkpt lat="45.0909" lon="6.00099">
        <ele>733.79998779297</ele>
        <time>2024-10-15T14:03:30.000Z</time>
      </trkpt>
      <trkpt lat="45.09091" lon="6.00098">
        <ele>734</ele>
        <time>2024-10-15T14:03:31.000Z</time>
      </trkpt>
      <trkpt lat="45.09092" lon="6.00097">
        <ele>734</ele>
        <time>2024-10-15T14:03:32.000Z</time>
      </trkpt>
      <trkpt lat="45.09093" lon="6.00096">
        <ele>734</ele>
        <time>2024-10-15T14:03:33.000Z</time>
      </trkpt>
      <trkpt lat="45.09094" lon="6.00095">
        <ele>734</ele>
        <time>2024-10-15T14:03:34.000Z</time>
      </trkpt>
      <trkpt lat="45.09095" lon="6.00095">
        <ele>733.79998779297</ele>
        <time>2024-10-15T14:03:35.000Z</time>
      </trkpt>
      <trkpt lat="45.09096" lon="6.00094">
        <ele>733.79998779297</ele>
        <time>2024-10-15T14:03:36.000Z</time>
      </trkpt>
      <trkpt lat="45.09097" lon="6.00094">
        <ele>733.79998779297</ele>
        <time>2024-10-15T14:03:37.000Z</time>
      </trkpt>
      <trkpt lat="45.09098" lon="6.00094">
        <ele>733.79998779297</ele>
        <time>2024-10-15T14:03:38.000Z</time>
      </trkpt>
      <trkpt lat="45.09099" lon="6.00094">
        <ele>733.79998779297</ele>
        <time>2024-10-15T14:03:39.000Z</time>
      </trkpt>
      <trkpt lat="45.091" lon="6.00094">
        <ele>733.79998779297</ele>
        <time>2024-10-15T14:03:40.000Z</time>
      </trkpt>
      <trkpt lat="45.09101" lon="6.00093">
        <ele>733.79998779297</ele>
        <time>2024-10-15T14:03:41.000Z</time>
      </trkpt>
      <trkpt lat="45.09102" lon="6.00093">
        <ele>733.79998779297</ele>
        <time>2024-10-15T14:03:42.000Z</time>
      </trkpt>
      <trkpt lat="45.09103" lon="6.00092">
        <ele>733.79998779297</ele>
        <time>2024-10-15T14:03:43.000Z</time>
      </trkpt>
      <trkpt lat="45.09105" lon="6.00092">
        <ele>733.79998779297</ele>
        <time>2024-10-15T14:03:44.000Z</time>
      </trkpt>
      <trkpt lat="45.09106" lon="6.00092">
        <ele>733.79998779297</ele>
        <time>2024-10-15T14:03:45.000Z</time>
      </trkpt>
      <trkpt lat="45.09107" lon="6.00092">
        <ele>733.79998779297</ele>
        <time>2024-10-15T14:03:46.000Z</time>
      </trkpt>
      <trkpt lat="45.09109" lon="6.00091">
        <ele>733.79998779297</ele>
        <time>2024-10-15T14:03:47.000Z</time>
      </trkpt>
      <trkpt lat="45.0911" lon="6.00091">
        <ele>733.79998779297</ele>
        <time>2024-10-15T14:03:48.000Z</time>
      </trkpt>
      <trkpt lat="45.09111" lon="6.0009">
        <ele>733.79998779297</ele>
        <time>2024-10-15T14:03:49.000Z</time>
      </trkpt>
      <trkpt lat="45.09112" lon="6.0009">
        <ele>733.59997558594</ele>
        <time>2024-10-15T14:03:50.000Z</time>
      </trkpt>
      <trkpt lat="45.09113" lon="6.0009">
        <ele>733.59997558594</ele>
        <time>2024-10-15T14:03:51.000Z</time>
      </trkpt>
      <trkpt lat="45.09115" lon="6.0009">
        <ele>733.59997558594</ele>
        <time>2024-10-15T14:03:52.000Z</time>
      </trkpt>
      <trkpt lat="45.09116" lon="6.00089">
        <ele>733.40002441406</ele>
        <time>2024-10-15T14:03:53.000Z</time>
      </trkpt>
      <trkpt lat="45.09117" lon="6.0009">
        <ele>733.40002441406</ele>
        <time>2024-10-15T14:03:54.000Z</time>
      </trkpt>
      <trkpt lat="45.09119" lon="6.0009">
        <ele>733.40002441406</ele>
        <time>2024-10-15T14:03:55.000Z</time>
      </trkpt>
      <trkpt lat="45.0912" lon="6.0009">
        <ele>733.20001220703</ele>
        <time>2024-10-15T14:03:56.000Z</time>
      </trkpt>
      <trkpt lat="45.09121" lon="6.0009">
        <ele>733.20001220703</ele>
        <time>2024-10-15T14:03:57.000Z</time>
      </trkpt>
      <trkpt lat="45.09123" lon="6.0009">
        <ele>733.20001220703</ele>
        <time>2024-10-15T14:03:58.000Z</time>
      </trkpt>
      <trkpt lat="45.09124" lon="6.00091">
        <ele>733.20001220703</ele>
        <time>2024-10-15T14:03:59.000Z</time>
      </trkpt>
      <trkpt lat="45.09125" lon="6.00092">
        <ele>733.20001220703</ele>
        <time>2024-10-15T14:04:00.000Z</time>
      </trkpt>
      <trkpt lat="45.09126" lon="6.00092">
        <ele>733.20001220703</ele>
        <time>2024-10-15T14:04:01.000Z</time>
      </trkpt>
      <trkpt lat="45.09128" lon="6.00093">
        <ele>733.20001220703</ele>
        <time>2024-10-15T14:04:02.000Z</time>
      </trkpt>
      <trkpt lat="45.09131" lon="6.00093">
        <ele>733.20001220703</ele>
        <time>2024-10-15T14:04:03.000Z</time>
      </trkpt>
      <trkpt lat="45.09133" lon="6.00094">
        <ele>733.20001220703</ele>
        <time>2024-10-15T14:04:04.000Z</time>
      </trkpt>
      <trkpt lat="45.09134" lon="6.00094">
        <ele>733.20001220703</ele>
        <time>2024-10-15T14:04:05.000Z</time>
      </trkpt>
      <trkpt lat="45.09135" lon="6.00094">
        <ele>733.20001220703</ele>
        <time>2024-10-15T14:04:06.000Z</time>
      </trkpt>
      <trkpt lat="45.09136" lon="6.00094">
        <ele>733.20001220703</ele>
        <time>2024-10-15T14:04:07.000Z</time>
      </trkpt>
      <trkpt lat="45.09138" lon="6.00094">
        <ele>733.20001220703</ele>
        <time>2024-10-15T14:04:08.000Z</time>
      </trkpt>
      <trkpt lat="45.09139" lon="6.00094">
        <ele>733</ele>
        <time>2024-10-15T14:04:09.000Z</time>
      </trkpt>
      <trkpt lat="45.09139" lon="6.00095">
        <ele>733</ele>
        <time>2024-10-15T14:04:10.000Z</time>
      </trkpt>
      <trkpt lat="45.09139" lon="6.00097">
        <ele>733</ele>
        <time>2024-10-15T14:04:11.000Z</time>
      </trkpt>
      <trkpt lat="45.09141" lon="6.00098">
        <ele>733</ele>
        <time>2024-10-15T14:04:12.000Z</time>
      </trkpt>
      <trkpt lat="45.09142" lon="6.00099">
        <ele>733</ele>
        <time>2024-10-15T14:04:13.000Z</time>
      </trkpt>
      <trkpt lat="45.09143" lon="6.001">
        <ele>733</ele>
        <time>2024-10-15T14:04:14.000Z</time>
      </trkpt>
      <trkpt lat="45.09145" lon="6.00101">
        <ele>732.79998779297</ele>
        <time>2024-10-15T14:04:15.000Z</time>
      </trkpt>
      <trkpt lat="45.09146" lon="6.00102">
        <ele>732.79998779297</ele>
        <time>2024-10-15T14:04:16.000Z</time>
      </trkpt>
      <trkpt lat="45.09148" lon="6.00103">
        <ele>732.79998779297</ele>
        <time>2024-10-15T14:04:17.000Z</time>
      </trkpt>
      <trkpt lat="45.09149" lon="6.00103">
        <ele>732.79998779297</ele>
        <time>2024-10-15T14:04:18.000Z</time>
      </trkpt>
      <trkpt lat="45.09151" lon="6.00105">
        <ele>732.79998779297</ele>
        <time>2024-10-15T14:04:19.000Z</time>
      </trkpt>
      <trkpt lat="45.09153" lon="6.00105">
        <ele>732.79998779297</ele>
        <time>2024-10-15T14:04:20.000Z</time>
      </trkpt>
      <trkpt lat="45.09155" lon="6.00105">
        <ele>732.79998779297</ele>
        <time>2024-10-15T14:04:21.000Z</time>
      </trkpt>
      <trkpt lat="45.09156" lon="6.00106">
        <ele>732.59997558594</ele>
        <time>2024-10-15T14:04:22.000Z</time>
      </trkpt>
      <trkpt lat="45.09157" lon="6.00105">
        <ele>732.59997558594</ele>
        <time>2024-10-15T14:04:23.000Z</time>
      </trkpt>
      <trkpt lat="45.09158" lon="6.00105">
        <ele>732.59997558594</ele>
        <time>2024-10-15T14:04:24.000Z</time>
      </trkpt>
      <trkpt lat="45.0916" lon="6.00105">
        <ele>732.40002441406</ele>
        <time>2024-10-15T14:04:25.000Z</time>
      </trkpt>
      <trkpt lat="45.09162" lon="6.00105">
        <ele>732.40002441406</ele>
        <time>2024-10-15T14:04:26.000Z</time>
      </trkpt>
      <trkpt lat="45.09163" lon="6.00105">
        <ele>732.40002441406</ele>
        <time>2024-10-15T14:04:27.000Z</time>
      </trkpt>
      <trkpt lat="45.09164" lon="6.00105">
        <ele>732.40002441406</ele>
        <time>2024-10-15T14:04:28.000Z</time>
      </trkpt>
      <trkpt lat="45.09164" lon="6.00105">
        <ele>732.20001220703</ele>
        <time>2024-10-15T14:04:29.000Z</time>
      </trkpt>
      <trkpt lat="45.09165" lon="6.00106">
        <ele>732.20001220703</ele>
        <time>2024-10-15T14:04:30.000Z</time>
      </trkpt>
      <trkpt lat="45.09166" lon="6.00106">
        <ele>732.20001220703</ele>
        <time>2024-10-15T14:04:31.000Z</time>
      </trkpt>
      <trkpt lat="45.09167" lon="6.00106">
        <ele>732.20001220703</ele>
        <time>2024-10-15T14:04:32.000Z</time>
      </trkpt>
      <trkpt lat="45.09168" lon="6.00107">
        <ele>732.20001220703</ele>
        <time>2024-10-15T14:04:33.000Z</time>
      </trkpt>
      <trkpt lat="45.09169" lon="6.00108">
        <ele>732.20001220703</ele>
        <time>2024-10-15T14:04:34.000Z</time>
      </trkpt>
      <trkpt lat="45.0917" lon="6.00109">
        <ele>732</ele>
        <time>2024-10-15T14:04:35.000Z</time>
      </trkpt>
      <trkpt lat="45.09171" lon="6.0011">
        <ele>732</ele>
        <time>2024-10-15T14:04:36.000Z</time>
      </trkpt>
      <trkpt lat="45.09172" lon="6.00111">
        <ele>732</ele>
        <time>2024-10-15T14:04:37.000Z</time>
      </trkpt>
      <trkpt lat="45.09174" lon="6.00112">
        <ele>732</ele>
        <time>2024-10-15T14:04:38.000Z</time>
      </trkpt>
      <trkpt lat="45.09175" lon="6.00113">
        <ele>732</ele>
        <time>2024-10-15T14:04:39.000Z</time>
      </trkpt>
      <trkpt lat="45.09176" lon="6.00113">
        <ele>732</ele>
        <time>2024-10-15T14:04:40.000Z</time>
      </trkpt>
      <trkpt lat="45.09177" lon="6.00114">
        <ele>732</ele>
        <time>2024-10-15T14:04:41.000Z</time>
      </trkpt>
      <trkpt lat="45.09177" lon="6.00115">
        <ele>732</ele>
        <time>2024-10-15T14:04:42.000Z</time>
      </trkpt>
      <trkpt lat="45.09178" lon="6.00117">
        <ele>732</ele>
        <time>2024-10-15T14:04:43.000Z</time>
      </trkpt>
      <trkpt lat="45.09178" lon="6.00117">
        <ele>732</ele>
        <time>2024-10-15T14:04:44.000Z</time>
      </trkpt>
      <trkpt lat="45.09179" lon="6.00117">
        <ele>732</ele>
        <time>2024-10-15T14:04:45.000Z</time>
      </trkpt>
      <trkpt lat="45.0918" lon="6.00118">
        <ele>731.79998779297</ele>
        <time>2024-10-15T14:04:46.000Z</time>
      </trkpt>
      <trkpt lat="45.09181" lon="6.00119">
        <ele>731.79998779297</ele>
        <time>2024-10-15T14:04:47.000Z</time>
      </trkpt>
      <trkpt lat="45.09182" lon="6.0012">
        <ele>731.79998779297</ele>
        <time>2024-10-15T14:04:48.000Z</time>
      </trkpt>
      <trkpt lat="45.09184" lon="6.0012">
        <ele>731.79998779297</ele>
        <time>2024-10-15T14:04:49.000Z</time>
      </trkpt>
      <trkpt lat="45.09185" lon="6.00122">
        <ele>731.79998779297</ele>
        <time>2024-10-15T14:04:50.000Z</time>
      </trkpt>
      <trkpt lat="45.09187" lon="6.00123">
        <ele>731.79998779297</ele>
        <time>2024-10-15T14:04:51.000Z</time>
      </trkpt>
      <trkpt lat="45.09188" lon="6.00125">
        <ele>731.79998779297</ele>
        <time>2024-10-15T14:04:52.000Z</time>
      </trkpt>
      <trkpt lat="45.09189" lon="6.00125">
        <ele>731.79998779297</ele>
        <time>2024-10-15T14:04:53.000Z</time>
      </trkpt>
      <trkpt lat="45.09191" lon="6.00126">
        <ele>731.79998779297</ele>
        <time>2024-10-15T14:04:54.000Z</time>
      </trkpt>
      <trkpt lat="45.09192" lon="6.00128">
        <ele>731.79998779297</ele>
        <time>2024-10-15T14:04:55.000Z</time>
      </trkpt>
      <trkpt lat="45.09195" lon="6.00129">
        <ele>731.79998779297</ele>
        <time>2024-10-15T14:04:56.000Z</time>
      </trkpt>
      <trkpt lat="45.09197" lon="6.0013">
        <ele>731.79998779297</ele>
        <time>2024-10-15T14:04:57.000Z</time>
      </trkpt>
      <trkpt lat="45.09199" lon="6.00131">
        <ele>731.79998779297</ele>
        <time>2024-10-15T14:04:58.000Z</time>
      </trkpt>
      <trkpt lat="45.09201" lon="6.00132">
        <ele>731.79998779297</ele>
        <time>2024-10-15T14:04:59.000Z</time>
      </trkpt>
      <trkpt lat="45.09201" lon="6.00133">
        <ele>731.79998779297</ele>
        <time>2024-10-15T14:05:00.000Z</time>
      </trkpt>
      <trkpt lat="45.09203" lon="6.00133">
        <ele>731.79998779297</ele>
        <time>2024-10-15T14:05:01.000Z</time>
      </trkpt>
      <trkpt lat="45.09204" lon="6.00133">
        <ele>731.79998779297</ele>
        <time>2024-10-15T14:05:02.000Z</time>
      </trkpt>
      <trkpt lat="45.09205" lon="6.00135">
        <ele>731.79998779297</ele>
        <time>2024-10-15T14:05:03.000Z</time>
      </trkpt>
      <trkpt lat="45.09207" lon="6.00136">
        <ele>731.79998779297</ele>
        <time>2024-10-15T14:05:04.000Z</time>
      </trkpt>
      <trkpt lat="45.09208" lon="6.00137">
        <ele>731.79998779297</ele>
        <time>2024-10-15T14:05:05.000Z</time>
      </trkpt>
      <trkpt lat="45.09209" lon="6.00139">
        <ele>731.79998779297</ele>
        <time>2024-10-15T14:05:06.000Z</time>
      </trkpt>
      <trkpt lat="45.09211" lon="6.0014">
        <ele>731.79998779297</ele>
        <time>2024-10-15T14:05:07.000Z</time>
      </trkpt>
      <trkpt lat="45.09212" lon="6.00142">
        <ele>731.79998779297</ele>
        <time>2024-10-15T14:05:08.000Z</time>
      </trkpt>
      <trkpt lat="45.09214" lon="6.00143">
        <ele>731.79998779297</ele>
        <time>2024-10-15T14:05:09.000Z</time>
      </trkpt>
      <trkpt lat="45.09216" lon="6.00143">
        <ele>731.79998779297</ele>
        <time>2024-10-15T14:05:10.000Z</time>
      </trkpt>
      <trkpt lat="45.09217" lon="6.00144">
        <ele>731.79998779297</ele>
        <time>2024-10-15T14:05:11.000Z</time>
      </trkpt>
      <trkpt lat="45.09219" lon="6.00145">
        <ele>731.79998779297</ele>
        <time>2024-10-15T14:05:12.000Z</time>
      </trkpt>
      <trkpt lat="45.0922" lon="6.00145">
        <ele>731.79998779297</ele>
        <time>2024-10-15T14:05:13.000Z</time>
      </trkpt>
      <trkpt lat="45.0922" lon="6.00146">
        <ele>731.79998779297</ele>
        <time>2024-10-15T14:05:14.000Z</time>
      </trkpt>
      <trkpt lat="45.09221" lon="6.00147">
        <ele>731.79998779297</ele>
        <time>2024-10-15T14:05:15.000Z</time>
      </trkpt>
      <trkpt lat="45.09222" lon="6.00149">
        <ele>731.59997558594</ele>
        <time>2024-10-15T14:05:16.000Z</time>
      </trkpt>
      <trkpt lat="45.09222" lon="6.00149">
        <ele>731.59997558594</ele>
        <time>2024-10-15T14:05:17.000Z</time>
      </trkpt>
      <trkpt lat="45.09223" lon="6.0015">
        <ele>731.40002441406</ele>
        <time>2024-10-15T14:05:18.000Z</time>
      </trkpt>
      <trkpt lat="45.09224" lon="6.00151">
        <ele>731.40002441406</ele>
        <time>2024-10-15T14:05:19.000Z</time>
      </trkpt>
      <trkpt lat="45.09226" lon="6.00153">
        <ele>731.40002441406</ele>
        <time>2024-10-15T14:05:20.000Z</time>
      </trkpt>
      <trkpt lat="45.09226" lon="6.00154">
        <ele>731.40002441406</ele>
        <time>2024-10-15T14:05:21.000Z</time>
      </trkpt>
      <trkpt lat="45.09228" lon="6.00153">
        <ele>731.40002441406</ele>
        <time>2024-10-15T14:05:22.000Z</time>
      </trkpt>
      <trkpt lat="45.09229" lon="6.00154">
        <ele>731.40002441406</ele>
        <time>2024-10-15T14:05:23.000Z</time>
      </trkpt>
      <trkpt lat="45.0923" lon="6.00155">
        <ele>731.59997558594</ele>
        <time>2024-10-15T14:05:24.000Z</time>
      </trkpt>
      <trkpt lat="45.09231" lon="6.00156">
        <ele>731.59997558594</ele>
        <time>2024-10-15T14:05:25.000Z</time>
      </trkpt>
      <trkpt lat="45.09231" lon="6.00158">
        <ele>731.59997558594</ele>
        <time>2024-10-15T14:05:26.000Z</time>
      </trkpt>
      <trkpt lat="45.09232" lon="6.00159">
        <ele>731.59997558594</ele>
        <time>2024-10-15T14:05:27.000Z</time>
      </trkpt>
      <trkpt lat="45.09233" lon="6.0016">
        <ele>731.59997558594</ele>
        <time>2024-10-15T14:05:28.000Z</time>
      </trkpt>
      <trkpt lat="45.09234" lon="6.00161">
        <ele>731.59997558594</ele>
        <time>2024-10-15T14:05:29.000Z</time>
      </trkpt>
      <trkpt lat="45.09235" lon="6.00163">
        <ele>731.79998779297</ele>
        <time>2024-10-15T14:05:30.000Z</time>
      </trkpt>
      <trkpt lat="45.09236" lon="6.00164">
        <ele>731.79998779297</ele>
        <time>2024-10-15T14:05:31.000Z</time>
      </trkpt>
      <trkpt lat="45.09238" lon="6.00165">
        <ele>731.79998779297</ele>
        <time>2024-10-15T14:05:32.000Z</time>
      </trkpt>
      <trkpt lat="45.09239" lon="6.00166">
        <ele>731.79998779297</ele>
        <time>2024-10-15T14:05:33.000Z</time>
      </trkpt>
      <trkpt lat="45.0924" lon="6.00168">
        <ele>731.79998779297</ele>
        <time>2024-10-15T14:05:34.000Z</time>
      </trkpt>
      <trkpt lat="45.09242" lon="6.00169">
        <ele>731.79998779297</ele>
        <time>2024-10-15T14:05:35.000Z</time>
      </trkpt>
      <trkpt lat="45.09243" lon="6.00171">
        <ele>731.59997558594</ele>
        <time>2024-10-15T14:05:36.000Z</time>
      </trkpt>
      <trkpt lat="45.09244" lon="6.00172">
        <ele>731.59997558594</ele>
        <time>2024-10-15T14:05:37.000Z</time>
      </trkpt>
      <trkpt lat="45.09245" lon="6.00173">
        <ele>731.59997558594</ele>
        <time>2024-10-15T14:05:38.000Z</time>
      </trkpt>
      <trkpt lat="45.09246" lon="6.00175">
        <ele>731.59997558594</ele>
        <time>2024-10-15T14:05:39.000Z</time>
      </trkpt>
      <trkpt lat="45.09247" lon="6.00177">
        <ele>731.59997558594</ele>
        <time>2024-10-15T14:05:40.000Z</time>
      </trkpt>
      <trkpt lat="45.09249" lon="6.00178">
        <ele>731.59997558594</ele>
        <time>2024-10-15T14:05:41.000Z</time>
      </trkpt>
      <trkpt lat="45.0925" lon="6.00178">
        <ele>731.79998779297</ele>
        <time>2024-10-15T14:05:42.000Z</time>
      </trkpt>
      <trkpt lat="45.09251" lon="6.00179">
        <ele>731.79998779297</ele>
        <time>2024-10-15T14:05:43.000Z</time>
      </trkpt>
      <trkpt lat="45.09251" lon="6.00179">
        <ele>731.79998779297</ele>
        <time>2024-10-15T14:05:44.000Z</time>
      </trkpt>
      <trkpt lat="45.09252" lon="6.00179">
        <ele>731.79998779297</ele>
        <time>2024-10-15T14:05:45.000Z</time>
      </trkpt>
      <trkpt lat="45.09253" lon="6.0018">
        <ele>731.79998779297</ele>
        <time>2024-10-15T14:05:46.000Z</time>
      </trkpt>
      <trkpt lat="45.09254" lon="6.0018">
        <ele>731.79998779297</ele>
        <time>2024-10-15T14:05:47.000Z</time>
      </trkpt>
      <trkpt lat="45.09255" lon="6.00181">
        <ele>731.79998779297</ele>
        <time>2024-10-15T14:05:48.000Z</time>
      </trkpt>
      <trkpt lat="45.09256" lon="6.00182">
        <ele>731.79998779297</ele>
        <time>2024-10-15T14:05:49.000Z</time>
      </trkpt>
      <trkpt lat="45.09257" lon="6.00183">
        <ele>731.79998779297</ele>
        <time>2024-10-15T14:05:50.000Z</time>
      </trkpt>
      <trkpt lat="45.09258" lon="6.00183">
        <ele>731.59997558594</ele>
        <time>2024-10-15T14:05:51.000Z</time>
      </trkpt>
      <trkpt lat="45.09259" lon="6.00184">
        <ele>731.59997558594</ele>
        <time>2024-10-15T14:05:52.000Z</time>
      </trkpt>
      <trkpt lat="45.0926" lon="6.00184">
        <ele>731.59997558594</ele>
        <time>2024-10-15T14:05:53.000Z</time>
      </trkpt>
      <trkpt lat="45.09261" lon="6.00185">
        <ele>731.59997558594</ele>
        <time>2024-10-15T14:05:54.000Z</time>
      </trkpt>
      <trkpt lat="45.09262" lon="6.00186">
        <ele>731.59997558594</ele>
        <time>2024-10-15T14:05:55.000Z</time>
      </trkpt>
      <trkpt lat="45.09264" lon="6.00187">
        <ele>731.59997558594</ele>
        <time>2024-10-15T14:05:56.000Z</time>
      </trkpt>
      <trkpt lat="45.09265" lon="6.00187">
        <ele>731.59997558594</ele>
        <time>2024-10-15T14:05:57.000Z</time>
      </trkpt>
      <trkpt lat="45.09266" lon="6.00188">
        <ele>731.59997558594</ele>
        <time>2024-10-15T14:05:58.000Z</time>
      </trkpt>
      <trkpt lat="45.09267" lon="6.00189">
        <ele>731.59997558594</ele>
        <time>2024-10-15T14:05:59.000Z</time>
      </trkpt>
      <trkpt lat="45.09269" lon="6.0019">
        <ele>731.59997558594</ele>
        <time>2024-10-15T14:06:00.000Z</time>
      </trkpt>
      <trkpt lat="45.0927" lon="6.0019">
        <ele>731.59997558594</ele>
        <time>2024-10-15T14:06:01.000Z</time>
      </trkpt>
      <trkpt lat="45.09271" lon="6.0019">
        <ele>731.59997558594</ele>
        <time>2024-10-15T14:06:02.000Z</time>
      </trkpt>
      <trkpt lat="45.09272" lon="6.0019">
        <ele>731.59997558594</ele>
        <time>2024-10-15T14:06:03.000Z</time>
      </trkpt>
      <trkpt lat="45.09273" lon="6.0019">
        <ele>731.59997558594</ele>
        <time>2024-10-15T14:06:04.000Z</time>
      </trkpt>
      <trkpt lat="45.09275" lon="6.0019">
        <ele>731.59997558594</ele>
        <time>2024-10-15T14:06:05.000Z</time>
      </trkpt>
      <trkpt lat="45.09275" lon="6.0019">
        <ele>731.59997558594</ele>
        <time>2024-10-15T14:06:06.000Z</time>
      </trkpt>
      <trkpt lat="45.09276" lon="6.00191">
        <ele>731.59997558594</ele>
        <time>2024-10-15T14:06:07.000Z</time>
      </trkpt>
      <trkpt lat="45.09277" lon="6.00191">
        <ele>731.59997558594</ele>
        <time>2024-10-15T14:06:08.000Z</time>
      </trkpt>
      <trkpt lat="45.09278" lon="6.00191">
        <ele>731.59997558594</ele>
        <time>2024-10-15T14:06:09.000Z</time>
      </trkpt>
      <trkpt lat="45.09279" lon="6.00191">
        <ele>731.59997558594</ele>
        <time>2024-10-15T14:06:10.000Z</time>
      </trkpt>
      <trkpt lat="45.0928" lon="6.00191">
        <ele>731.59997558594</ele>
        <time>2024-10-15T14:06:11.000Z</time>
      </trkpt>
      <trkpt lat="45.09282" lon="6.0019">
        <ele>731.59997558594</ele>
        <time>2024-10-15T14:06:12.000Z</time>
      </trkpt>
      <trkpt lat="45.09284" lon="6.0019">
        <ele>731.40002441406</ele>
        <time>2024-10-15T14:06:13.000Z</time>
      </trkpt>
      <trkpt lat="45.09285" lon="6.0019">
        <ele>731.40002441406</ele>
        <time>2024-10-15T14:06:14.000Z</time>
      </trkpt>
      <trkpt lat="45.09287" lon="6.00191">
        <ele>731.40002441406</ele>
        <time>2024-10-15T14:06:15.000Z</time>
      </trkpt>
      <trkpt lat="45.09289" lon="6.00191">
        <ele>731.40002441406</ele>
        <time>2024-10-15T14:06:16.000Z</time>
      </trkpt>
      <trkpt lat="45.09293" lon="6.00194">
        <ele>731.40002441406</ele>
        <time>2024-10-15T14:06:17.000Z</time>
      </trkpt>
      <trkpt lat="45.09296" lon="6.00196">
        <ele>731.40002441406</ele>
        <time>2024-10-15T14:06:18.000Z</time>
      </trkpt>
      <trkpt lat="45.09297" lon="6.00197">
        <ele>731.40002441406</ele>
        <time>2024-10-15T14:06:19.000Z</time>
      </trkpt>
      <trkpt lat="45.09297" lon="6.00196">
        <ele>731.40002441406</ele>
        <time>2024-10-15T14:06:20.000Z</time>
      </trkpt>
      <trkpt lat="45.09298" lon="6.00195">
        <ele>731.40002441406</ele>
        <time>2024-10-15T14:06:21.000Z</time>
      </trkpt>
      <trkpt lat="45.09298" lon="6.00194">
        <ele>731.59997558594</ele>
        <time>2024-10-15T14:06:22.000Z</time>
      </trkpt>
      <trkpt lat="45.09299" lon="6.00195">
        <ele>731.59997558594</ele>
        <time>2024-10-15T14:06:23.000Z</time>
      </trkpt>
      <trkpt lat="45.09299" lon="6.00195">
        <ele>731.59997558594</ele>
        <time>2024-10-15T14:06:24.000Z</time>
      </trkpt>
      <trkpt lat="45.093" lon="6.00195">
        <ele>731.59997558594</ele>
        <time>2024-10-15T14:06:25.000Z</time>
      </trkpt>
      <trkpt lat="45.09302" lon="6.00195">
        <ele>731.59997558594</ele>
        <time>2024-10-15T14:06:26.000Z</time>
      </trkpt>
      <trkpt lat="45.09303" lon="6.00195">
        <ele>731.59997558594</ele>
        <time>2024-10-15T14:06:27.000Z</time>
      </trkpt>
      <trkpt lat="45.09304" lon="6.00196">
        <ele>731.59997558594</ele>
        <time>2024-10-15T14:06:28.000Z</time>
      </trkpt>
      <trkpt lat="45.09305" lon="6.00196">
        <ele>731.59997558594</ele>
        <time>2024-10-15T14:06:29.000Z</time>
      </trkpt>
      <trkpt lat="45.09306" lon="6.00196">
        <ele>731.59997558594</ele>
        <time>2024-10-15T14:06:30.000Z</time>
      </trkpt>
      <trkpt lat="45.09307" lon="6.00196">
        <ele>731.59997558594</ele>
        <time>2024-10-15T14:06:31.000Z</time>
      </trkpt>
      <trkpt lat="45.09309" lon="6.00196">
        <ele>731.59997558594</ele>
        <time>2024-10-15T14:06:32.000Z</time>
      </trkpt>
      <trkpt lat="45.09309" lon="6.00196">
        <ele>731.59997558594</ele>
        <time>2024-10-15T14:06:33.000Z</time>
      </trkpt>
      <trkpt lat="45.09311" lon="6.00195">
        <ele>731.59997558594</ele>
        <time>2024-10-15T14:06:34.000Z</time>
      </trkpt>
      <trkpt lat="45.09313" lon="6.00194">
        <ele>731.59997558594</ele>
        <time>2024-10-15T14:06:35.000Z</time>
      </trkpt>
      <trkpt lat="45.09315" lon="6.00194">
        <ele>731.59997558594</ele>
        <time>2024-10-15T14:06:36.000Z</time>
      </trkpt>
      <trkpt lat="45.09317" lon="6.00194">
        <ele>731.59997558594</ele>
        <time>2024-10-15T14:06:37.000Z</time>
      </trkpt>
      <trkpt lat="45.09318" lon="6.00194">
        <ele>731.59997558594</ele>
        <time>2024-10-15T14:06:38.000Z</time>
      </trkpt>
      <trkpt lat="45.09319" lon="6.00194">
        <ele>731.59997558594</ele>
        <time>2024-10-15T14:06:39.000Z</time>
      </trkpt>
      <trkpt lat="45.09319" lon="6.00194">
        <ele>731.59997558594</ele>
        <time>2024-10-15T14:06:40.000Z</time>
      </trkpt>
      <trkpt lat="45.09321" lon="6.00194">
        <ele>731.59997558594</ele>
        <time>2024-10-15T14:06:41.000Z</time>
      </trkpt>
      <trkpt lat="45.09322" lon="6.00195">
        <ele>731.59997558594</ele>
        <time>2024-10-15T14:06:42.000Z</time>
      </trkpt>
      <trkpt lat="45.09323" lon="6.00195">
        <ele>731.59997558594</ele>
        <time>2024-10-15T14:06:43.000Z</time>
      </trkpt>
      <trkpt lat="45.09325" lon="6.00195">
        <ele>731.59997558594</ele>
        <time>2024-10-15T14:06:44.000Z</time>
      </trkpt>
      <trkpt lat="45.09326" lon="6.00196">
        <ele>731.59997558594</ele>
        <time>2024-10-15T14:06:45.000Z</time>
      </trkpt>
      <trkpt lat="45.09327" lon="6.00196">
        <ele>731.59997558594</ele>
        <time>2024-10-15T14:06:46.000Z</time>
      </trkpt>
      <trkpt lat="45.09329" lon="6.00196">
        <ele>731.59997558594</ele>
        <time>2024-10-15T14:06:47.000Z</time>
      </trkpt>
      <trkpt lat="45.0933" lon="6.00195">
        <ele>731.59997558594</ele>
        <time>2024-10-15T14:06:48.000Z</time>
      </trkpt>
      <trkpt lat="45.09331" lon="6.00195">
        <ele>731.59997558594</ele>
        <time>2024-10-15T14:06:49.000Z</time>
      </trkpt>
      <trkpt lat="45.09333" lon="6.00195">
        <ele>731.59997558594</ele>
        <time>2024-10-15T14:06:50.000Z</time>
      </trkpt>
      <trkpt lat="45.09334" lon="6.00196">
        <ele>731.59997558594</ele>
        <time>2024-10-15T14:06:51.000Z</time>
      </trkpt>
      <trkpt lat="45.09335" lon="6.00195">
        <ele>731.59997558594</ele>
        <time>2024-10-15T14:06:52.000Z</time>
      </trkpt>
      <trkpt lat="45.09336" lon="6.00195">
        <ele>731.59997558594</ele>
        <time>2024-10-15T14:06:53.000Z</time>
      </trkpt>
      <trkpt lat="45.09337" lon="6.00195">
        <ele>731.59997558594</ele>
        <time>2024-10-15T14:06:54.000Z</time>
      </trkpt>
      <trkpt lat="45.09338" lon="6.00196">
        <ele>731.40002441406</ele>
        <time>2024-10-15T14:06:55.000Z</time>
      </trkpt>
      <trkpt lat="45.09339" lon="6.00196">
        <ele>731.40002441406</ele>
        <time>2024-10-15T14:06:56.000Z</time>
      </trkpt>
      <trkpt lat="45.09341" lon="6.00197">
        <ele>731.40002441406</ele>
        <time>2024-10-15T14:06:57.000Z</time>
      </trkpt>
      <trkpt lat="45.09342" lon="6.00197">
        <ele>731.40002441406</ele>
        <time>2024-10-15T14:06:58.000Z</time>
      </trkpt>
      <trkpt lat="45.09344" lon="6.00198">
        <ele>731.40002441406</ele>
        <time>2024-10-15T14:06:59.000Z</time>
      </trkpt>
      <trkpt lat="45.09346" lon="6.00198">
        <ele>731.40002441406</ele>
        <time>2024-10-15T14:07:00.000Z</time>
      </trkpt>
      <trkpt lat="45.09348" lon="6.00199">
        <ele>731.40002441406</ele>
        <time>2024-10-15T14:07:01.000Z</time>
      </trkpt>
      <trkpt lat="45.09349" lon="6.002">
        <ele>731.40002441406</ele>
        <time>2024-10-15T14:07:02.000Z</time>
      </trkpt>
      <trkpt lat="45.09351" lon="6.002">
        <ele>731.40002441406</ele>
        <time>2024-10-15T14:07:03.000Z</time>
      </trkpt>
      <trkpt lat="45.09352" lon="6.00201">
        <ele>731.40002441406</ele>
        <time>2024-10-15T14:07:04.000Z</time>
      </trkpt>
      <trkpt lat="45.09354" lon="6.00201">
        <ele>731.40002441406</ele>
        <time>2024-10-15T14:07:05.000Z</time>
      </trkpt>
      <trkpt lat="45.09355" lon="6.00201">
        <ele>731.40002441406</ele>
        <time>2024-10-15T14:07:06.000Z</time>
      </trkpt>
      <trkpt lat="45.09357" lon="6.00202">
        <ele>731.40002441406</ele>
        <time>2024-10-15T14:07:07.000Z</time>
      </trkpt>
      <trkpt lat="45.09358" lon="6.00203">
        <ele>731.20001220703</ele>
        <time>2024-10-15T14:07:08.000Z</time>
      </trkpt>
      <trkpt lat="45.09359" lon="6.00203">
        <ele>731.20001220703</ele>
        <time>2024-10-15T14:07:09.000Z</time>
      </trkpt>
      <trkpt lat="45.0936" lon="6.00204">
        <ele>731</ele>
        <time>2024-10-15T14:07:10.000Z</time>
      </trkpt>
      <trkpt lat="45.09361" lon="6.00205">
        <ele>731</ele>
        <time>2024-10-15T14:07:11.000Z</time>
      </trkpt>
      <trkpt lat="45.09362" lon="6.00206">
        <ele>731</ele>
        <time>2024-10-15T14:07:12.000Z</time>
      </trkpt>
      <trkpt lat="45.09363" lon="6.00208">
        <ele>731</ele>
        <time>2024-10-15T14:07:13.000Z</time>
      </trkpt>
      <trkpt lat="45.09364" lon="6.00209">
        <ele>731</ele>
        <time>2024-10-15T14:07:14.000Z</time>
      </trkpt>
      <trkpt lat="45.09366" lon="6.0021">
        <ele>731</ele>
        <time>2024-10-15T14:07:15.000Z</time>
      </trkpt>
      <trkpt lat="45.09366" lon="6.00211">
        <ele>731</ele>
        <time>2024-10-15T14:07:16.000Z</time>
      </trkpt>
      <trkpt lat="45.09367" lon="6.00212">
        <ele>731</ele>
        <time>2024-10-15T14:07:17.000Z</time>
      </trkpt>
      <trkpt lat="45.09368" lon="6.00212">
        <ele>730.79998779297</ele>
        <time>2024-10-15T14:07:18.000Z</time>
      </trkpt>
      <trkpt lat="45.09369" lon="6.00212">
        <ele>730.79998779297</ele>
        <time>2024-10-15T14:07:19.000Z</time>
      </trkpt>
      <trkpt lat="45.0937" lon="6.00213">
        <ele>730.79998779297</ele>
        <time>2024-10-15T14:07:20.000Z</time>
      </trkpt>
      <trkpt lat="45.09372" lon="6.00213">
        <ele>730.79998779297</ele>
        <time>2024-10-15T14:07:21.000Z</time>
      </trkpt>
      <trkpt lat="45.09374" lon="6.00214">
        <ele>730.79998779297</ele>
        <time>2024-10-15T14:07:22.000Z</time>
      </trkpt>
      <trkpt lat="45.09377" lon="6.00215">
        <ele>730.79998779297</ele>
        <time>2024-10-15T14:07:23.000Z</time>
      </trkpt>
      <trkpt lat="45.09378" lon="6.00217">
        <ele>730.79998779297</ele>
        <time>2024-10-15T14:07:24.000Z</time>
      </trkpt>
      <trkpt lat="45.09379" lon="6.00218">
        <ele>730.59997558594</ele>
        <time>2024-10-15T14:07:25.000Z</time>
      </trkpt>
      <trkpt lat="45.09379" lon="6.00219">
        <ele>730.40002441406</ele>
        <time>2024-10-15T14:07:26.000Z</time>
      </trkpt>
      <trkpt lat="45.09381" lon="6.00219">
        <ele>730.40002441406</ele>
        <time>2024-10-15T14:07:27.000Z</time>
      </trkpt>
      <trkpt lat="45.09382" lon="6.00219">
        <ele>730.40002441406</ele>
        <time>2024-10-15T14:07:28.000Z</time>
      </trkpt>
      <trkpt lat="45.09383" lon="6.0022">
        <ele>730.20001220703</ele>
        <time>2024-10-15T14:07:29.000Z</time>
      </trkpt>
      <trkpt lat="45.09384" lon="6.0022">
        <ele>730.20001220703</ele>
        <time>2024-10-15T14:07:30.000Z</time>
      </trkpt>
      <trkpt lat="45.09385" lon="6.00219">
        <ele>730.20001220703</ele>
        <time>2024-10-15T14:07:31.000Z</time>
      </trkpt>
      <trkpt lat="45.09387" lon="6.0022">
        <ele>730.20001220703</ele>
        <time>2024-10-15T14:07:32.000Z</time>
      </trkpt>
      <trkpt lat="45.09389" lon="6.00221">
        <ele>730.20001220703</ele>
        <time>2024-10-15T14:07:33.000Z</time>
      </trkpt>
      <trkpt lat="45.09391" lon="6.00223">
        <ele>730.20001220703</ele>
        <time>2024-10-15T14:07:34.000Z</time>
      </trkpt>
      <trkpt lat="45.09393" lon="6.00225">
        <ele>730</ele>
        <time>2024-10-15T14:07:35.000Z</time>
      </trkpt>
      <trkpt lat="45.09394" lon="6.00226">
        <ele>730</ele>
        <time>2024-10-15T14:07:36.000Z</time>
      </trkpt>
      <trkpt lat="45.09396" lon="6.00226">
        <ele>730</ele>
        <time>2024-10-15T14:07:37.000Z</time>
      </trkpt>
      <trkpt lat="45.09398" lon="6.00227">
        <ele>730</ele>
        <time>2024-10-15T14:07:38.000Z</time>
      </trkpt>
      <trkpt lat="45.094" lon="6.00229">
        <ele>729.79998779297</ele>
        <time>2024-10-15T14:07:39.000Z</time>
      </trkpt>
      <trkpt lat="45.09401" lon="6.0023">
        <ele>729.79998779297</ele>
        <time>2024-10-15T14:07:40.000Z</time>
      </trkpt>
      <trkpt lat="45.09402" lon="6.00231">
        <ele>729.79998779297</ele>
        <time>2024-10-15T14:07:41.000Z</time>
      </trkpt>
      <trkpt lat="45.09403" lon="6.00232">
        <ele>729.79998779297</ele>
        <time>2024-10-15T14:07:42.000Z</time>
      </trkpt>
      <trkpt lat="45.09405" lon="6.00232">
        <ele>729.79998779297</ele>
        <time>2024-10-15T14:07:43.000Z</time>
      </trkpt>
      <trkpt lat="45.09406" lon="6.00232">
        <ele>729.79998779297</ele>
        <time>2024-10-15T14:07:44.000Z</time>
      </trkpt>
      <trkpt lat="45.09407" lon="6.00232">
        <ele>729.59997558594</ele>
        <time>2024-10-15T14:07:45.000Z</time>
      </trkpt>
      <trkpt lat="45.09409" lon="6.00232">
        <ele>729.59997558594</ele>
        <time>2024-10-15T14:07:46.000Z</time>
      </trkpt>
      <trkpt lat="45.0941" lon="6.00232">
        <ele>729.59997558594</ele>
        <time>2024-10-15T14:07:47.000Z</time>
      </trkpt>
      <trkpt lat="45.09411" lon="6.00232">
        <ele>729.59997558594</ele>
        <time>2024-10-15T14:07:48.000Z</time>
      </trkpt>
      <trkpt lat="45.09412" lon="6.00233">
        <ele>729.40002441406</ele>
        <time>2024-10-15T14:07:49.000Z</time>
      </trkpt>
      <trkpt lat="45.09412" lon="6.00233">
        <ele>729.40002441406</ele>
        <time>2024-10-15T14:07:50.000Z</time>
      </trkpt>
      <trkpt lat="45.09413" lon="6.00234">
        <ele>729.40002441406</ele>
        <time>2024-10-15T14:07:51.000Z</time>
      </trkpt>
      <trkpt lat="45.09413" lon="6.00234">
        <ele>729.40002441406</ele>
        <time>2024-10-15T14:07:52.000Z</time>
      </trkpt>
      <trkpt lat="45.09413" lon="6.00235">
        <ele>729.40002441406</ele>
        <time>2024-10-15T14:07:53.000Z</time>
      </trkpt>
      <trkpt lat="45.09414" lon="6.00236">
        <ele>729.40002441406</ele>
        <time>2024-10-15T14:07:54.000Z</time>
      </trkpt>
      <trkpt lat="45.09415" lon="6.00237">
        <ele>729.40002441406</ele>
        <time>2024-10-15T14:07:55.000Z</time>
      </trkpt>
      <trkpt lat="45.09416" lon="6.00238">
        <ele>729.40002441406</ele>
        <time>2024-10-15T14:07:56.000Z</time>
      </trkpt>
      <trkpt lat="45.09417" lon="6.00239">
        <ele>729.40002441406</ele>
        <time>2024-10-15T14:07:57.000Z</time>
      </trkpt>
      <trkpt lat="45.09418" lon="6.0024">
        <ele>729.40002441406</ele>
        <time>2024-10-15T14:07:58.000Z</time>
      </trkpt>
      <trkpt lat="45.09419" lon="6.00241">
        <ele>729.20001220703</ele>
        <time>2024-10-15T14:07:59.000Z</time>
      </trkpt>
      <trkpt lat="45.09421" lon="6.00242">
        <ele>729.20001220703</ele>
        <time>2024-10-15T14:08:00.000Z</time>
      </trkpt>
      <trkpt lat="45.09424" lon="6.00243">
        <ele>729.20001220703</ele>
        <time>2024-10-15T14:08:01.000Z</time>
      </trkpt>
      <trkpt lat="45.09424" lon="6.00243">
        <ele>729.20001220703</ele>
        <time>2024-10-15T14:08:02.000Z</time>
      </trkpt>
      <trkpt lat="45.09424" lon="6.00241">
        <ele>729.20001220703</ele>
        <time>2024-10-15T14:08:03.000Z</time>
      </trkpt>
      <trkpt lat="45.09426" lon="6.00241">
        <ele>729</ele>
        <time>2024-10-15T14:08:04.000Z</time>
      </trkpt>
      <trkpt lat="45.09428" lon="6.00242">
        <ele>729</ele>
        <time>2024-10-15T14:08:05.000Z</time>
      </trkpt>
      <trkpt lat="45.0943" lon="6.00242">
        <ele>729.20001220703</ele>
        <time>2024-10-15T14:08:06.000Z</time>
      </trkpt>
      <trkpt lat="45.09432" lon="6.00242">
        <ele>729.20001220703</ele>
        <time>2024-10-15T14:08:07.000Z</time>
      </trkpt>
      <trkpt lat="45.09432" lon="6.00242">
        <ele>729.20001220703</ele>
        <time>2024-10-15T14:08:08.000Z</time>
      </trkpt>
      <trkpt lat="45.09433" lon="6.00243">
        <ele>729.20001220703</ele>
        <time>2024-10-15T14:08:09.000Z</time>
      </trkpt>
      <trkpt lat="45.09433" lon="6.00243">
        <ele>729.20001220703</ele>
        <time>2024-10-15T14:08:10.000Z</time>
      </trkpt>
      <trkpt lat="45.09434" lon="6.00244">
        <ele>729.20001220703</ele>
        <time>2024-10-15T14:08:11.000Z</time>
      </trkpt>
      <trkpt lat="45.09435" lon="6.00245">
        <ele>729.20001220703</ele>
        <time>2024-10-15T14:08:12.000Z</time>
      </trkpt>
      <trkpt lat="45.09438" lon="6.00246">
        <ele>729.20001220703</ele>
        <time>2024-10-15T14:08:13.000Z</time>
      </trkpt>
      <trkpt lat="45.0944" lon="6.00247">
        <ele>729.20001220703</ele>
        <time>2024-10-15T14:08:14.000Z</time>
      </trkpt>
      <trkpt lat="45.09441" lon="6.00247">
        <ele>729.20001220703</ele>
        <time>2024-10-15T14:08:15.000Z</time>
      </trkpt>
      <trkpt lat="45.09443" lon="6.00249">
        <ele>729.20001220703</ele>
        <time>2024-10-15T14:08:16.000Z</time>
      </trkpt>
      <trkpt lat="45.09445" lon="6.0025">
        <ele>729.20001220703</ele>
        <time>2024-10-15T14:08:17.000Z</time>
      </trkpt>
      <trkpt lat="45.09446" lon="6.0025">
        <ele>729.20001220703</ele>
        <time>2024-10-15T14:08:18.000Z</time>
      </trkpt>
      <trkpt lat="45.09448" lon="6.0025">
        <ele>729.20001220703</ele>
        <time>2024-10-15T14:08:19.000Z</time>
      </trkpt>
      <trkpt lat="45.09449" lon="6.00251">
        <ele>729.20001220703</ele>
        <time>2024-10-15T14:08:20.000Z</time>
      </trkpt>
      <trkpt lat="45.09451" lon="6.00251">
        <ele>729.20001220703</ele>
        <time>2024-10-15T14:08:21.000Z</time>
      </trkpt>
      <trkpt lat="45.09452" lon="6.00251">
        <ele>729.20001220703</ele>
        <time>2024-10-15T14:08:22.000Z</time>
      </trkpt>
      <trkpt lat="45.09454" lon="6.00251">
        <ele>729.20001220703</ele>
        <time>2024-10-15T14:08:23.000Z</time>
      </trkpt>
      <trkpt lat="45.09456" lon="6.00252">
        <ele>729.20001220703</ele>
        <time>2024-10-15T14:08:24.000Z</time>
      </trkpt>
      <trkpt lat="45.09457" lon="6.00252">
        <ele>729.20001220703</ele>
        <time>2024-10-15T14:08:25.000Z</time>
      </trkpt>
      <trkpt lat="45.09457" lon="6.00252">
        <ele>729.20001220703</ele>
        <time>2024-10-15T14:08:26.000Z</time>
      </trkpt>
      <trkpt lat="45.09458" lon="6.00252">
        <ele>729.20001220703</ele>
        <time>2024-10-15T14:08:27.000Z</time>
      </trkpt>
      <trkpt lat="45.0946" lon="6.00252">
        <ele>729.20001220703</ele>
        <time>2024-10-15T14:08:28.000Z</time>
      </trkpt>
      <trkpt lat="45.09461" lon="6.00251">
        <ele>729.20001220703</ele>
        <time>2024-10-15T14:08:29.000Z</time>
      </trkpt>
      <trkpt lat="45.09462" lon="6.00251">
        <ele>729.20001220703</ele>
        <time>2024-10-15T14:08:30.000Z</time>
      </trkpt>
      <trkpt lat="45.09463" lon="6.0025">
        <ele>729.40002441406</ele>
        <time>2024-10-15T14:08:31.000Z</time>
      </trkpt>
      <trkpt lat="45.09464" lon="6.0025">
        <ele>729.40002441406</ele>
        <time>2024-10-15T14:08:32.000Z</time>
      </trkpt>
      <trkpt lat="45.09466" lon="6.0025">
        <ele>729.40002441406</ele>
        <time>2024-10-15T14:08:33.000Z</time>
      </trkpt>
      <trkpt lat="45.09468" lon="6.0025">
        <ele>729.40002441406</ele>
        <time>2024-10-15T14:08:34.000Z</time>
      </trkpt>
      <trkpt lat="45.09469" lon="6.0025">
        <ele>729.40002441406</ele>
        <time>2024-10-15T14:08:35.000Z</time>
      </trkpt>
      <trkpt lat="45.09471" lon="6.0025">
        <ele>729.40002441406</ele>
        <time>2024-10-15T14:08:36.000Z</time>
      </trkpt>
      <trkpt lat="45.09473" lon="6.00249">
        <ele>729.40002441406</ele>
        <time>2024-10-15T14:08:37.000Z</time>
      </trkpt>
      <trkpt lat="45.09474" lon="6.00249">
        <ele>729.40002441406</ele>
        <time>2024-10-15T14:08:38.000Z</time>
      </trkpt>
      <trkpt lat="45.09475" lon="6.0025">
        <ele>729.40002441406</ele>
        <time>2024-10-15T14:08:39.000Z</time>
      </trkpt>
      <trkpt lat="45.09475" lon="6.00251">
        <ele>729.59997558594</ele>
        <time>2024-10-15T14:08:40.000Z</time>
      </trkpt>
      <trkpt lat="45.09477" lon="6.00251">
        <ele>729.59997558594</ele>
        <time>2024-10-15T14:08:41.000Z</time>
      </trkpt>
      <trkpt lat="45.09478" lon="6.00251">
        <ele>729.59997558594</ele>
        <time>2024-10-15T14:08:42.000Z</time>
      </trkpt>
      <trkpt lat="45.09478" lon="6.00252">
        <ele>729.40002441406</ele>
        <time>2024-10-15T14:08:43.000Z</time>
      </trkpt>
      <trkpt lat="45.09479" lon="6.00252">
        <ele>729.40002441406</ele>
        <time>2024-10-15T14:08:44.000Z</time>
      </trkpt>
      <trkpt lat="45.0948" lon="6.00252">
        <ele>729.59997558594</ele>
        <time>2024-10-15T14:08:45.000Z</time>
      </trkpt>
      <trkpt lat="45.09482" lon="6.00251">
        <ele>729.59997558594</ele>
        <time>2024-10-15T14:08:46.000Z</time>
      </trkpt>
      <trkpt lat="45.09483" lon="6.00251">
        <ele>729.59997558594</ele>
        <time>2024-10-15T14:08:47.000Z</time>
      </trkpt>
      <trkpt lat="45.09484" lon="6.00251">
        <ele>729.59997558594</ele>
        <time>2024-10-15T14:08:48.000Z</time>
      </trkpt>
      <trkpt lat="45.09486" lon="6.00251">
        <ele>729.59997558594</ele>
        <time>2024-10-15T14:08:49.000Z</time>
      </trkpt>
      <trkpt lat="45.09487" lon="6.00252">
        <ele>729.59997558594</ele>
        <time>2024-10-15T14:08:50.000Z</time>
      </trkpt>
      <trkpt lat="45.09489" lon="6.00253">
        <ele>729.59997558594</ele>
        <time>2024-10-15T14:08:51.000Z</time>
      </trkpt>
      <trkpt lat="45.09491" lon="6.00253">
        <ele>729.59997558594</ele>
        <time>2024-10-15T14:08:52.000Z</time>
      </trkpt>
      <trkpt lat="45.09492" lon="6.00254">
        <ele>729.59997558594</ele>
        <time>2024-10-15T14:08:53.000Z</time>
      </trkpt>
      <trkpt lat="45.09494" lon="6.00254">
        <ele>729.59997558594</ele>
        <time>2024-10-15T14:08:54.000Z</time>
      </trkpt>
      <trkpt lat="45.09496" lon="6.00255">
        <ele>729.59997558594</ele>
        <time>2024-10-15T14:08:55.000Z</time>
      </trkpt>
      <trkpt lat="45.09498" lon="6.00255">
        <ele>729.59997558594</ele>
        <time>2024-10-15T14:08:56.000Z</time>
      </trkpt>
      <trkpt lat="45.095" lon="6.00255">
        <ele>729.40002441406</ele>
        <time>2024-10-15T14:08:57.000Z</time>
      </trkpt>
      <trkpt lat="45.09501" lon="6.00255">
        <ele>729.40002441406</ele>
        <time>2024-10-15T14:08:58.000Z</time>
      </trkpt>
      <trkpt lat="45.09501" lon="6.00255">
        <ele>729.40002441406</ele>
        <time>2024-10-15T14:08:59.000Z</time>
      </trkpt>
      <trkpt lat="45.09502" lon="6.00256">
        <ele>729.40002441406</ele>
        <time>2024-10-15T14:09:00.000Z</time>
      </trkpt>
      <trkpt lat="45.09503" lon="6.00256">
        <ele>729.59997558594</ele>
        <time>2024-10-15T14:09:01.000Z</time>
      </trkpt>
      <trkpt lat="45.09504" lon="6.00256">
        <ele>729.59997558594</ele>
        <time>2024-10-15T14:09:02.000Z</time>
      </trkpt>
      <trkpt lat="45.09505" lon="6.00256">
        <ele>729.59997558594</ele>
        <time>2024-10-15T14:09:03.000Z</time>
      </trkpt>
      <trkpt lat="45.09506" lon="6.00256">
        <ele>729.59997558594</ele>
        <time>2024-10-15T14:09:04.000Z</time>
      </trkpt>
      <trkpt lat="45.09507" lon="6.00256">
        <ele>729.59997558594</ele>
        <time>2024-10-15T14:09:05.000Z</time>
      </trkpt>
      <trkpt lat="45.09508" lon="6.00257">
        <ele>729.59997558594</ele>
        <time>2024-10-15T14:09:06.000Z</time>
      </trkpt>
      <trkpt lat="45.09511" lon="6.00255">
        <ele>729.59997558594</ele>
        <time>2024-10-15T14:09:07.000Z</time>
      </trkpt>
      <trkpt lat="45.09512" lon="6.00255">
        <ele>729.59997558594</ele>
        <time>2024-10-15T14:09:08.000Z</time>
      </trkpt>
      <trkpt lat="45.09513" lon="6.00256">
        <ele>729.79998779297</ele>
        <time>2024-10-15T14:09:09.000Z</time>
      </trkpt>
      <trkpt lat="45.09514" lon="6.00257">
        <ele>729.79998779297</ele>
        <time>2024-10-15T14:09:10.000Z</time>
      </trkpt>
      <trkpt lat="45.09515" lon="6.00257">
        <ele>729.79998779297</ele>
        <time>2024-10-15T14:09:11.000Z</time>
      </trkpt>
      <trkpt lat="45.09517" lon="6.00257">
        <ele>729.79998779297</ele>
        <time>2024-10-15T14:09:12.000Z</time>
      </trkpt>
      <trkpt lat="45.09518" lon="6.00257">
        <ele>729.79998779297</ele>
        <time>2024-10-15T14:09:13.000Z</time>
      </trkpt>
      <trkpt lat="45.0952" lon="6.00257">
        <ele>729.79998779297</ele>
        <time>2024-10-15T14:09:14.000Z</time>
      </trkpt>
      <trkpt lat="45.09521" lon="6.00257">
        <ele>729.79998779297</ele>
        <time>2024-10-15T14:09:15.000Z</time>
      </trkpt>
      <trkpt lat="45.09521" lon="6.00257">
        <ele>729.79998779297</ele>
        <time>2024-10-15T14:09:16.000Z</time>
      </trkpt>
      <trkpt lat="45.09522" lon="6.00257">
        <ele>729.79998779297</ele>
        <time>2024-10-15T14:09:17.000Z</time>
      </trkpt>
      <trkpt lat="45.09523" lon="6.00257">
        <ele>729.79998779297</ele>
        <time>2024-10-15T14:09:18.000Z</time>
      </trkpt>
      <trkpt lat="45.09524" lon="6.00258">
        <ele>730</ele>
        <time>2024-10-15T14:09:19.000Z</time>
      </trkpt>
      <trkpt lat="45.09525" lon="6.00258">
        <ele>730</ele>
        <time>2024-10-15T14:09:20.000Z</time>
      </trkpt>
      <trkpt lat="45.09527" lon="6.00258">
        <ele>730</ele>
        <time>2024-10-15T14:09:21.000Z</time>
      </trkpt>
      <trkpt lat="45.09528" lon="6.00259">
        <ele>730</ele>
        <time>2024-10-15T14:09:22.000Z</time>
      </trkpt>
      <trkpt lat="45.09529" lon="6.0026">
        <ele>730</ele>
        <time>2024-10-15T14:09:23.000Z</time>
      </trkpt>
      <trkpt lat="45.09531" lon="6.00262">
        <ele>730</ele>
        <time>2024-10-15T14:09:24.000Z</time>
      </trkpt>
      <trkpt lat="45.09532" lon="6.00261">
        <ele>730</ele>
        <time>2024-10-15T14:09:25.000Z</time>
      </trkpt>
      <trkpt lat="45.09534" lon="6.00262">
        <ele>730.20001220703</ele>
        <time>2024-10-15T14:09:26.000Z</time>
      </trkpt>
      <trkpt lat="45.09534" lon="6.00263">
        <ele>730.20001220703</ele>
        <time>2024-10-15T14:09:27.000Z</time>
      </trkpt>
      <trkpt lat="45.09536" lon="6.00263">
        <ele>730.20001220703</ele>
        <time>2024-10-15T14:09:28.000Z</time>
      </trkpt>
      <trkpt lat="45.09537" lon="6.00264">
        <ele>730.40002441406</ele>
        <time>2024-10-15T14:09:29.000Z</time>
      </trkpt>
      <trkpt lat="45.0954" lon="6.00264">
        <ele>730.40002441406</ele>
        <time>2024-10-15T14:09:30.000Z</time>
      </trkpt>
      <trkpt lat="45.09541" lon="6.00264">
        <ele>730.40002441406</ele>
        <time>2024-10-15T14:09:31.000Z</time>
      </trkpt>
      <trkpt lat="45.09542" lon="6.00265">
        <ele>730.59997558594</ele>
        <time>2024-10-15T14:09:32.000Z</time>
      </trkpt>
      <trkpt lat="45.09543" lon="6.00265">
        <ele>730.59997558594</ele>
        <time>2024-10-15T14:09:33.000Z</time>
      </trkpt>
      <trkpt lat="45.09544" lon="6.00265">
        <ele>730.59997558594</ele>
        <time>2024-10-15T14:09:34.000Z</time>
      </trkpt>
      <trkpt lat="45.09545" lon="6.00265">
        <ele>730.59997558594</ele>
        <time>2024-10-15T14:09:35.000Z</time>
      </trkpt>
      <trkpt lat="45.09546" lon="6.00265">
        <ele>730.59997558594</ele>
        <time>2024-10-15T14:09:36.000Z</time>
      </trkpt>
      <trkpt lat="45.09547" lon="6.00266">
        <ele>730.59997558594</ele>
        <time>2024-10-15T14:09:37.000Z</time>
      </trkpt>
      <trkpt lat="45.09548" lon="6.00266">
        <ele>730.59997558594</ele>
        <time>2024-10-15T14:09:38.000Z</time>
      </trkpt>
      <trkpt lat="45.09549" lon="6.00267">
        <ele>730.79998779297</ele>
        <time>2024-10-15T14:09:39.000Z</time>
      </trkpt>
      <trkpt lat="45.0955" lon="6.00267">
        <ele>730.79998779297</ele>
        <time>2024-10-15T14:09:40.000Z</time>
      </trkpt>
      <trkpt lat="45.09552" lon="6.00266">
        <ele>731</ele>
        <time>2024-10-15T14:09:41.000Z</time>
      </trkpt>
      <trkpt lat="45.09554" lon="6.00267">
        <ele>731.20001220703</ele>
        <time>2024-10-15T14:09:42.000Z</time>
      </trkpt>
      <trkpt lat="45.09554" lon="6.00267">
        <ele>731.20001220703</ele>
        <time>2024-10-15T14:09:43.000Z</time>
      </trkpt>
      <trkpt lat="45.09556" lon="6.00266">
        <ele>731.20001220703</ele>
        <time>2024-10-15T14:09:44.000Z</time>
      </trkpt>
      <trkpt lat="45.09557" lon="6.00266">
        <ele>731.40002441406</ele>
        <time>2024-10-15T14:09:45.000Z</time>
      </trkpt>
      <trkpt lat="45.09558" lon="6.00267">
        <ele>731.59997558594</ele>
        <time>2024-10-15T14:09:46.000Z</time>
      </trkpt>
      <trkpt lat="45.0956" lon="6.00269">
        <ele>731.59997558594</ele>
        <time>2024-10-15T14:09:47.000Z</time>
      </trkpt>
      <trkpt lat="45.09561" lon="6.00271">
        <ele>731.79998779297</ele>
        <time>2024-10-15T14:09:48.000Z</time>
      </trkpt>
      <trkpt lat="45.09563" lon="6.00273">
        <ele>731.79998779297</ele>
        <time>2024-10-15T14:09:49.000Z</time>
      </trkpt>
      <trkpt lat="45.09564" lon="6.00274">
        <ele>732</ele>
        <time>2024-10-15T14:09:50.000Z</time>
      </trkpt>
      <trkpt lat="45.09566" lon="6.00275">
        <ele>732</ele>
        <time>2024-10-15T14:09:51.000Z</time>
      </trkpt>
      <trkpt lat="45.09567" lon="6.00277">
        <ele>732.20001220703</ele>
        <time>2024-10-15T14:09:52.000Z</time>
      </trkpt>
      <trkpt lat="45.09568" lon="6.00278">
        <ele>732.20001220703</ele>
        <time>2024-10-15T14:09:53.000Z</time>
      </trkpt>
      <trkpt lat="45.09568" lon="6.0028">
        <ele>732.40002441406</ele>
        <time>2024-10-15T14:09:54.000Z</time>
      </trkpt>
      <trkpt lat="45.09569" lon="6.00282">
        <ele>732.59997558594</ele>
        <time>2024-10-15T14:09:55.000Z</time>
      </trkpt>
      <trkpt lat="45.0957" lon="6.00283">
        <ele>732.79998779297</ele>
        <time>2024-10-15T14:09:56.000Z</time>
      </trkpt>
      <trkpt lat="45.09571" lon="6.00284">
        <ele>733</ele>
        <time>2024-10-15T14:09:57.000Z</time>
      </trkpt>
      <trkpt lat="45.09573" lon="6.00285">
        <ele>733</ele>
        <time>2024-10-15T14:09:58.000Z</time>
      </trkpt>
      <trkpt lat="45.09573" lon="6.00287">
        <ele>733.20001220703</ele>
        <time>2024-10-15T14:09:59.000Z</time>
      </trkpt>
      <trkpt lat="45.09574" lon="6.00288">
        <ele>733.20001220703</ele>
        <time>2024-10-15T14:10:00.000Z</time>
      </trkpt>
      <trkpt lat="45.09575" lon="6.00289">
        <ele>733.40002441406</ele>
        <time>2024-10-15T14:10:01.000Z</time>
      </trkpt>
      <trkpt lat="45.09575" lon="6.00291">
        <ele>733.40002441406</ele>
        <time>2024-10-15T14:10:02.000Z</time>
      </trkpt>
      <trkpt lat="45.09576" lon="6.00292">
        <ele>733.59997558594</ele>
        <time>2024-10-15T14:10:03.000Z</time>
      </trkpt>
      <trkpt lat="45.09576" lon="6.00293">
        <ele>733.59997558594</ele>
        <time>2024-10-15T14:10:04.000Z</time>
      </trkpt>
      <trkpt lat="45.09577" lon="6.00295">
        <ele>733.59997558594</ele>
        <time>2024-10-15T14:10:05.000Z</time>
      </trkpt>
      <trkpt lat="45.09578" lon="6.00296">
        <ele>733.59997558594</ele>
        <time>2024-10-15T14:10:06.000Z</time>
      </trkpt>
      <trkpt lat="45.09579" lon="6.00298">
        <ele>733.79998779297</ele>
        <time>2024-10-15T14:10:07.000Z</time>
      </trkpt>
      <trkpt lat="45.0958" lon="6.00299">
        <ele>733.79998779297</ele>
        <time>2024-10-15T14:10:08.000Z</time>
      </trkpt>
      <trkpt lat="45.09581" lon="6.003">
        <ele>733.79998779297</ele>
        <time>2024-10-15T14:10:09.000Z</time>
      </trkpt>
      <trkpt lat="45.09582" lon="6.00302">
        <ele>734</ele>
        <time>2024-10-15T14:10:10.000Z</time>
      </trkpt>
      <trkpt lat="45.09583" lon="6.00304">
        <ele>734.20001220703</ele>
        <time>2024-10-15T14:10:11.000Z</time>
      </trkpt>
      <trkpt lat="45.09584" lon="6.00305">
        <ele>734.20001220703</ele>
        <time>2024-10-15T14:10:12.000Z</time>
      </trkpt>
      <trkpt lat="45.09584" lon="6.00307">
        <ele>734.20001220703</ele>
        <time>2024-10-15T14:10:13.000Z</time>
      </trkpt>
      <trkpt lat="45.09585" lon="6.00308">
        <ele>734.40002441406</ele>
        <time>2024-10-15T14:10:14.000Z</time>
      </trkpt>
      <trkpt lat="45.09586" lon="6.00309">
        <ele>734.59997558594</ele>
        <time>2024-10-15T14:10:15.000Z</time>
      </trkpt>
      <trkpt lat="45.09587" lon="6.00311">
        <ele>734.59997558594</ele>
        <time>2024-10-15T14:10:16.000Z</time>
      </trkpt>
      <trkpt lat="45.09588" lon="6.00312">
        <ele>734.59997558594</ele>
        <time>2024-10-15T14:10:17.000Z</time>
      </trkpt>
      <trkpt lat="45.09589" lon="6.00314">
        <ele>734.59997558594</ele>
        <time>2024-10-15T14:10:18.000Z</time>
      </trkpt>
      <trkpt lat="45.0959" lon="6.00315">
        <ele>734.79998779297</ele>
        <time>2024-10-15T14:10:19.000Z</time>
      </trkpt>
      <trkpt lat="45.0959" lon="6.00317">
        <ele>734.79998779297</ele>
        <time>2024-10-15T14:10:20.000Z</time>
      </trkpt>
      <trkpt lat="45.09591" lon="6.00318">
        <ele>735</ele>
        <time>2024-10-15T14:10:21.000Z</time>
      </trkpt>
      <trkpt lat="45.09592" lon="6.00319">
        <ele>735</ele>
        <time>2024-10-15T14:10:22.000Z</time>
      </trkpt>
      <trkpt lat="45.09592" lon="6.0032">
        <ele>735</ele>
        <time>2024-10-15T14:10:23.000Z</time>
      </trkpt>
      <trkpt lat="45.09593" lon="6.00321">
        <ele>735</ele>
        <time>2024-10-15T14:10:24.000Z</time>
      </trkpt>
      <trkpt lat="45.09594" lon="6.00323">
        <ele>735</ele>
        <time>2024-10-15T14:10:25.000Z</time>
      </trkpt>
      <trkpt lat="45.09595" lon="6.00324">
        <ele>735</ele>
        <time>2024-10-15T14:10:26.000Z</time>
      </trkpt>
      <trkpt lat="45.09596" lon="6.00326">
        <ele>735</ele>
        <time>2024-10-15T14:10:27.000Z</time>
      </trkpt>
      <trkpt lat="45.09597" lon="6.00327">
        <ele>735</ele>
        <time>2024-10-15T14:10:28.000Z</time>
      </trkpt>
      <trkpt lat="45.09598" lon="6.00329">
        <ele>734.79998779297</ele>
        <time>2024-10-15T14:10:29.000Z</time>
      </trkpt>
      <trkpt lat="45.09599" lon="6.0033">
        <ele>734.79998779297</ele>
        <time>2024-10-15T14:10:30.000Z</time>
      </trkpt>
      <trkpt lat="45.09599" lon="6.00332">
        <ele>734.79998779297</ele>
        <time>2024-10-15T14:10:31.000Z</time>
      </trkpt>
      <trkpt lat="45.096" lon="6.00333">
        <ele>734.79998779297</ele>
        <time>2024-10-15T14:10:32.000Z</time>
      </trkpt>
      <trkpt lat="45.09601" lon="6.00335">
        <ele>734.79998779297</ele>
        <time>2024-10-15T14:10:33.000Z</time>
      </trkpt>
      <trkpt lat="45.09602" lon="6.00336">
        <ele>734.59997558594</ele>
        <time>2024-10-15T14:10:34.000Z</time>
      </trkpt>
      <trkpt lat="45.09603" lon="6.00338">
        <ele>734.40002441406</ele>
        <time>2024-10-15T14:10:35.000Z</time>
      </trkpt>
      <trkpt lat="45.09604" lon="6.00339">
        <ele>734.40002441406</ele>
        <time>2024-10-15T14:10:36.000Z</time>
      </trkpt>
      <trkpt lat="45.09605" lon="6.0034">
        <ele>734.20001220703</ele>
        <time>2024-10-15T14:10:37.000Z</time>
      </trkpt>
      <trkpt lat="45.09605" lon="6.00342">
        <ele>734</ele>
        <time>2024-10-15T14:10:38.000Z</time>
      </trkpt>
      <trkpt lat="45.09605" lon="6.00344">
        <ele>733.79998779297</ele>
        <time>2024-10-15T14:10:39.000Z</time>
      </trkpt>
      <trkpt lat="45.09605" lon="6.00346">
        <ele>733.59997558594</ele>
        <time>2024-10-15T14:10:40.000Z</time>
      </trkpt>
      <trkpt lat="45.09607" lon="6.00349">
        <ele>733.59997558594</ele>
        <time>2024-10-15T14:10:41.000Z</time>
      </trkpt>
      <trkpt lat="45.09606" lon="6.0035">
        <ele>733.40002441406</ele>
        <time>2024-10-15T14:10:42.000Z</time>
      </trkpt>
      <trkpt lat="45.09607" lon="6.00352">
        <ele>733.20001220703</ele>
        <time>2024-10-15T14:10:43.000Z</time>
      </trkpt>
      <trkpt lat="45.09608" lon="6.00355">
        <ele>733</ele>
        <time>2024-10-15T14:10:44.000Z</time>
      </trkpt>
      <trkpt lat="45.09609" lon="6.00358">
        <ele>732.79998779297</ele>
        <time>2024-10-15T14:10:45.000Z</time>
      </trkpt>
      <trkpt lat="45.0961" lon="6.0036">
        <ele>732.79998779297</ele>
        <time>2024-10-15T14:10:46.000Z</time>
      </trkpt>
      <trkpt lat="45.09611" lon="6.00362">
        <ele>732.59997558594</ele>
        <time>2024-10-15T14:10:47.000Z</time>
      </trkpt>
      <trkpt lat="45.09613" lon="6.00366">
        <ele>732.20001220703</ele>
        <time>2024-10-15T14:10:48.000Z</time>
      </trkpt>
      <trkpt lat="45.09614" lon="6.00368">
        <ele>732.20001220703</ele>
        <time>2024-10-15T14:10:49.000Z</time>
      </trkpt>
      <trkpt lat="45.09614" lon="6.0037">
        <ele>732</ele>
        <time>2024-10-15T14:10:50.000Z</time>
      </trkpt>
      <trkpt lat="45.09615" lon="6.00372">
        <ele>731.79998779297</ele>
        <time>2024-10-15T14:10:51.000Z</time>
      </trkpt>
      <trkpt lat="45.09615" lon="6.00375">
        <ele>731.59997558594</ele>
        <time>2024-10-15T14:10:52.000Z</time>
      </trkpt>
      <trkpt lat="45.09614" lon="6.00376">
        <ele>731.59997558594</ele>
        <time>2024-10-15T14:10:53.000Z</time>
      </trkpt>
      <trkpt lat="45.09612" lon="6.00378">
        <ele>731.59997558594</ele>
        <time>2024-10-15T14:10:54.000Z</time>
      </trkpt>
      <trkpt lat="45.09613" lon="6.0038">
        <ele>731.40002441406</ele>
        <time>2024-10-15T14:10:55.000Z</time>
      </trkpt>
      <trkpt lat="45.09613" lon="6.00382">
        <ele>731.40002441406</ele>
        <time>2024-10-15T14:10:56.000Z</time>
      </trkpt>
      <trkpt lat="45.09613" lon="6.00383">
        <ele>731.20001220703</ele>
        <time>2024-10-15T14:10:57.000Z</time>
      </trkpt>
      <trkpt lat="45.09612" lon="6.00385">
        <ele>731.20001220703</ele>
        <time>2024-10-15T14:10:58.000Z</time>
      </trkpt>
      <trkpt lat="45.09612" lon="6.00386">
        <ele>731</ele>
        <time>2024-10-15T14:10:59.000Z</time>
      </trkpt>
      <trkpt lat="45.09612" lon="6.00388">
        <ele>731</ele>
        <time>2024-10-15T14:11:00.000Z</time>
      </trkpt>
      <trkpt lat="45.09612" lon="6.00389">
        <ele>731</ele>
        <time>2024-10-15T14:11:01.000Z</time>
      </trkpt>
      <trkpt lat="45.09612" lon="6.0039">
        <ele>730.79998779297</ele>
        <time>2024-10-15T14:11:02.000Z</time>
      </trkpt>
      <trkpt lat="45.09611" lon="6.00393">
        <ele>730.79998779297</ele>
        <time>2024-10-15T14:11:03.000Z</time>
      </trkpt>
      <trkpt lat="45.09612" lon="6.00394">
        <ele>730.79998779297</ele>
        <time>2024-10-15T14:11:04.000Z</time>
      </trkpt>
      <trkpt lat="45.09611" lon="6.00396">
        <ele>730.79998779297</ele>
        <time>2024-10-15T14:11:05.000Z</time>
      </trkpt>
      <trkpt lat="45.09611" lon="6.00398">
        <ele>730.59997558594</ele>
        <time>2024-10-15T14:11:06.000Z</time>
      </trkpt>
      <trkpt lat="45.09612" lon="6.004">
        <ele>730.59997558594</ele>
        <time>2024-10-15T14:11:07.000Z</time>
      </trkpt>
      <trkpt lat="45.09612" lon="6.00401">
        <ele>730.59997558594</ele>
        <time>2024-10-15T14:11:08.000Z</time>
      </trkpt>
      <trkpt lat="45.09612" lon="6.00403">
        <ele>730.59997558594</ele>
        <time>2024-10-15T14:11:09.000Z</time>
      </trkpt>
      <trkpt lat="45.09612" lon="6.00406">
        <ele>730.40002441406</ele>
        <time>2024-10-15T14:11:10.000Z</time>
      </trkpt>
      <trkpt lat="45.09612" lon="6.00408">
        <ele>730.40002441406</ele>
        <time>2024-10-15T14:11:11.000Z</time>
      </trkpt>
      <trkpt lat="45.09611" lon="6.0041">
        <ele>730.40002441406</ele>
        <time>2024-10-15T14:11:12.000Z</time>
      </trkpt>
      <trkpt lat="45.09612" lon="6.00411">
        <ele>730.40002441406</ele>
        <time>2024-10-15T14:11:13.000Z</time>
      </trkpt>
      <trkpt lat="45.09612" lon="6.00413">
        <ele>730.20001220703</ele>
        <time>2024-10-15T14:11:14.000Z</time>
      </trkpt>
      <trkpt lat="45.09613" lon="6.00415">
        <ele>730.20001220703</ele>
        <time>2024-10-15T14:11:15.000Z</time>
      </trkpt>
      <trkpt lat="45.09614" lon="6.00417">
        <ele>730</ele>
        <time>2024-10-15T14:11:16.000Z</time>
      </trkpt>
      <trkpt lat="45.09614" lon="6.0042">
        <ele>730</ele>
        <time>2024-10-15T14:11:17.000Z</time>
      </trkpt>
      <trkpt lat="45.09614" lon="6.00422">
        <ele>730</ele>
        <time>2024-10-15T14:11:18.000Z</time>
      </trkpt>
      <trkpt lat="45.09614" lon="6.00423">
        <ele>729.79998779297</ele>
        <time>2024-10-15T14:11:19.000Z</time>
      </trkpt>
      <trkpt lat="45.09614" lon="6.00424">
        <ele>729.79998779297</ele>
        <time>2024-10-15T14:11:20.000Z</time>
      </trkpt>
      <trkpt lat="45.09613" lon="6.00426">
        <ele>729.59997558594</ele>
        <time>2024-10-15T14:11:21.000Z</time>
      </trkpt>
      <trkpt lat="45.09613" lon="6.00427">
        <ele>729.59997558594</ele>
        <time>2024-10-15T14:11:22.000Z</time>
      </trkpt>
      <trkpt lat="45.09613" lon="6.00429">
        <ele>729.59997558594</ele>
        <time>2024-10-15T14:11:23.000Z</time>
      </trkpt>
      <trkpt lat="45.09614" lon="6.0043">
        <ele>729.59997558594</ele>
        <time>2024-10-15T14:11:24.000Z</time>
      </trkpt>
      <trkpt lat="45.09614" lon="6.00431">
        <ele>729.59997558594</ele>
        <time>2024-10-15T14:11:25.000Z</time>
      </trkpt>
      <trkpt lat="45.09614" lon="6.00433">
        <ele>729.40002441406</ele>
        <time>2024-10-15T14:11:26.000Z</time>
      </trkpt>
      <trkpt lat="45.09613" lon="6.00434">
        <ele>729.40002441406</ele>
        <time>2024-10-15T14:11:27.000Z</time>
      </trkpt>
      <trkpt lat="45.09613" lon="6.00436">
        <ele>729.40002441406</ele>
        <time>2024-10-15T14:11:28.000Z</time>
      </trkpt>
      <trkpt lat="45.09613" lon="6.00438">
        <ele>729.20001220703</ele>
        <time>2024-10-15T14:11:29.000Z</time>
      </trkpt>
      <trkpt lat="45.09613" lon="6.00439">
        <ele>729.20001220703</ele>
        <time>2024-10-15T14:11:30.000Z</time>
      </trkpt>
      <trkpt lat="45.09612" lon="6.00442">
        <ele>729.20001220703</ele>
        <time>2024-10-15T14:11:31.000Z</time>
      </trkpt>
      <trkpt lat="45.09612" lon="6.00444">
        <ele>729.20001220703</ele>
        <time>2024-10-15T14:11:32.000Z</time>
      </trkpt>
      <trkpt lat="45.09613" lon="6.00446">
        <ele>729.20001220703</ele>
        <time>2024-10-15T14:11:33.000Z</time>
      </trkpt>
      <trkpt lat="45.09614" lon="6.00449">
        <ele>729</ele>
        <time>2024-10-15T14:11:34.000Z</time>
      </trkpt>
      <trkpt lat="45.09615" lon="6.00451">
        <ele>729</ele>
        <time>2024-10-15T14:11:35.000Z</time>
      </trkpt>
      <trkpt lat="45.09615" lon="6.00453">
        <ele>729</ele>
        <time>2024-10-15T14:11:36.000Z</time>
      </trkpt>
      <trkpt lat="45.09616" lon="6.00455">
        <ele>729</ele>
        <time>2024-10-15T14:11:37.000Z</time>
      </trkpt>
      <trkpt lat="45.09616" lon="6.00458">
        <ele>729</ele>
        <time>2024-10-15T14:11:38.000Z</time>
      </trkpt>
      <trkpt lat="45.09615" lon="6.0046">
        <ele>729</ele>
        <time>2024-10-15T14:11:39.000Z</time>
      </trkpt>
      <trkpt lat="45.09615" lon="6.00462">
        <ele>728.79998779297</ele>
        <time>2024-10-15T14:11:40.000Z</time>
      </trkpt>
      <trkpt lat="45.09615" lon="6.00463">
        <ele>728.79998779297</ele>
        <time>2024-10-15T14:11:41.000Z</time>
      </trkpt>
      <trkpt lat="45.09615" lon="6.00465">
        <ele>728.79998779297</ele>
        <time>2024-10-15T14:11:42.000Z</time>
      </trkpt>
      <trkpt lat="45.09616" lon="6.00465">
        <ele>728.79998779297</ele>
        <time>2024-10-15T14:11:43.000Z</time>
      </trkpt>
      <trkpt lat="45.09616" lon="6.00466">
        <ele>728.59997558594</ele>
        <time>2024-10-15T14:11:44.000Z</time>
      </trkpt>
      <trkpt lat="45.09617" lon="6.00468">
        <ele>728.59997558594</ele>
        <time>2024-10-15T14:11:45.000Z</time>
      </trkpt>
      <trkpt lat="45.09617" lon="6.0047">
        <ele>728.59997558594</ele>
        <time>2024-10-15T14:11:46.000Z</time>
      </trkpt>
      <trkpt lat="45.09617" lon="6.00472">
        <ele>728.59997558594</ele>
        <time>2024-10-15T14:11:47.000Z</time>
      </trkpt>
      <trkpt lat="45.09617" lon="6.00473">
        <ele>728.40002441406</ele>
        <time>2024-10-15T14:11:48.000Z</time>
      </trkpt>
      <trkpt lat="45.09619" lon="6.00474">
        <ele>728.40002441406</ele>
        <time>2024-10-15T14:11:49.000Z</time>
      </trkpt>
      <trkpt lat="45.09619" lon="6.00475">
        <ele>728.40002441406</ele>
        <time>2024-10-15T14:11:50.000Z</time>
      </trkpt>
      <trkpt lat="45.0962" lon="6.00478">
        <ele>728.40002441406</ele>
        <time>2024-10-15T14:11:51.000Z</time>
      </trkpt>
      <trkpt lat="45.09621" lon="6.0048">
        <ele>728.40002441406</ele>
        <time>2024-10-15T14:11:52.000Z</time>
      </trkpt>
      <trkpt lat="45.09622" lon="6.00481">
        <ele>728.40002441406</ele>
        <time>2024-10-15T14:11:53.000Z</time>
      </trkpt>
      <trkpt lat="45.09623" lon="6.00481">
        <ele>728.40002441406</ele>
        <time>2024-10-15T14:11:54.000Z</time>
      </trkpt>
      <trkpt lat="45.09623" lon="6.00481">
        <ele>728.40002441406</ele>
        <time>2024-10-15T14:11:55.000Z</time>
      </trkpt>
      <trkpt lat="45.09623" lon="6.00481">
        <ele>728.40002441406</ele>
        <time>2024-10-15T14:11:56.000Z</time>
      </trkpt>
      <trkpt lat="45.09623" lon="6.00482">
        <ele>728.40002441406</ele>
        <time>2024-10-15T14:11:57.000Z</time>
      </trkpt>
      <trkpt lat="45.09624" lon="6.00483">
        <ele>728.40002441406</ele>
        <time>2024-10-15T14:11:58.000Z</time>
      </trkpt>
      <trkpt lat="45.09625" lon="6.00484">
        <ele>728.40002441406</ele>
        <time>2024-10-15T14:11:59.000Z</time>
      </trkpt>
      <trkpt lat="45.09626" lon="6.00484">
        <ele>728.40002441406</ele>
        <time>2024-10-15T14:12:00.000Z</time>
      </trkpt>
      <trkpt lat="45.09627" lon="6.00485">
        <ele>728.40002441406</ele>
        <time>2024-10-15T14:12:01.000Z</time>
      </trkpt>
      <trkpt lat="45.09629" lon="6.00486">
        <ele>728.40002441406</ele>
        <time>2024-10-15T14:12:02.000Z</time>
      </trkpt>
      <trkpt lat="45.0963" lon="6.00486">
        <ele>728.40002441406</ele>
        <time>2024-10-15T14:12:03.000Z</time>
      </trkpt>
      <trkpt lat="45.09631" lon="6.00487">
        <ele>728.40002441406</ele>
        <time>2024-10-15T14:12:04.000Z</time>
      </trkpt>
      <trkpt lat="45.09632" lon="6.00488">
        <ele>728.40002441406</ele>
        <time>2024-10-15T14:12:05.000Z</time>
      </trkpt>
      <trkpt lat="45.09634" lon="6.0049">
        <ele>728.59997558594</ele>
        <time>2024-10-15T14:12:06.000Z</time>
      </trkpt>
      <trkpt lat="45.09635" lon="6.00491">
        <ele>728.59997558594</ele>
        <time>2024-10-15T14:12:07.000Z</time>
      </trkpt>
      <trkpt lat="45.09636" lon="6.00492">
        <ele>728.59997558594</ele>
        <time>2024-10-15T14:12:08.000Z</time>
      </trkpt>
      <trkpt lat="45.09637" lon="6.00494">
        <ele>728.79998779297</ele>
        <time>2024-10-15T14:12:09.000Z</time>
      </trkpt>
      <trkpt lat="45.09637" lon="6.00496">
        <ele>728.79998779297</ele>
        <time>2024-10-15T14:12:10.000Z</time>
      </trkpt>
      <trkpt lat="45.09637" lon="6.00497">
        <ele>728.79998779297</ele>
        <time>2024-10-15T14:12:11.000Z</time>
      </trkpt>
      <trkpt lat="45.09637" lon="6.00499">
        <ele>729</ele>
        <time>2024-10-15T14:12:12.000Z</time>
      </trkpt>
      <trkpt lat="45.09638" lon="6.00502">
        <ele>729</ele>
        <time>2024-10-15T14:12:13.000Z</time>
      </trkpt>
      <trkpt lat="45.09638" lon="6.00503">
        <ele>729</ele>
        <time>2024-10-15T14:12:14.000Z</time>
      </trkpt>
      <trkpt lat="45.09639" lon="6.00505">
        <ele>729</ele>
        <time>2024-10-15T14:12:15.000Z</time>
      </trkpt>
      <trkpt lat="45.0964" lon="6.00507">
        <ele>729</ele>
        <time>2024-10-15T14:12:16.000Z</time>
      </trkpt>
      <trkpt lat="45.09642" lon="6.00508">
        <ele>729</ele>
        <time>2024-10-15T14:12:17.000Z</time>
      </trkpt>
      <trkpt lat="45.09642" lon="6.00509">
        <ele>729</ele>
        <time>2024-10-15T14:12:18.000Z</time>
      </trkpt>
      <trkpt lat="45.09643" lon="6.0051">
        <ele>729</ele>
        <time>2024-10-15T14:12:19.000Z</time>
      </trkpt>
      <trkpt lat="45.09643" lon="6.00513">
        <ele>729</ele>
        <time>2024-10-15T14:12:20.000Z</time>
      </trkpt>
      <trkpt lat="45.09645" lon="6.00514">
        <ele>729</ele>
        <time>2024-10-15T14:12:21.000Z</time>
      </trkpt>
      <trkpt lat="45.09645" lon="6.00515">
        <ele>729</ele>
        <time>2024-10-15T14:12:22.000Z</time>
      </trkpt>
      <trkpt lat="45.09645" lon="6.00517">
        <ele>729</ele>
        <time>2024-10-15T14:12:23.000Z</time>
      </trkpt>
      <trkpt lat="45.09646" lon="6.00518">
        <ele>729.20001220703</ele>
        <time>2024-10-15T14:12:24.000Z</time>
      </trkpt>
      <trkpt lat="45.09647" lon="6.00519">
        <ele>729.20001220703</ele>
        <time>2024-10-15T14:12:25.000Z</time>
      </trkpt>
      <trkpt lat="45.09648" lon="6.00519">
        <ele>729.20001220703</ele>
        <time>2024-10-15T14:12:26.000Z</time>
      </trkpt>
      <trkpt lat="45.09649" lon="6.0052">
        <ele>729.20001220703</ele>
        <time>2024-10-15T14:12:27.000Z</time>
      </trkpt>
      <trkpt lat="45.09648" lon="6.0052">
        <ele>729.20001220703</ele>
        <time>2024-10-15T14:12:28.000Z</time>
      </trkpt>
      <trkpt lat="45.09648" lon="6.00521">
        <ele>729.40002441406</ele>
        <time>2024-10-15T14:12:29.000Z</time>
      </trkpt>
      <trkpt lat="45.09649" lon="6.00523">
        <ele>729.40002441406</ele>
        <time>2024-10-15T14:12:30.000Z</time>
      </trkpt>
      <trkpt lat="45.0965" lon="6.00525">
        <ele>729.40002441406</ele>
        <time>2024-10-15T14:12:31.000Z</time>
      </trkpt>
      <trkpt lat="45.09652" lon="6.00527">
        <ele>729.40002441406</ele>
        <time>2024-10-15T14:12:32.000Z</time>
      </trkpt>
      <trkpt lat="45.09654" lon="6.00528">
        <ele>729.40002441406</ele>
        <time>2024-10-15T14:12:33.000Z</time>
      </trkpt>
      <trkpt lat="45.09655" lon="6.00528">
        <ele>729.20001220703</ele>
        <time>2024-10-15T14:12:34.000Z</time>
      </trkpt>
      <trkpt lat="45.09656" lon="6.00529">
        <ele>729.20001220703</ele>
        <time>2024-10-15T14:12:35.000Z</time>
      </trkpt>
      <trkpt lat="45.09657" lon="6.0053">
        <ele>729.20001220703</ele>
        <time>2024-10-15T14:12:36.000Z</time>
      </trkpt>
      <trkpt lat="45.09658" lon="6.0053">
        <ele>729</ele>
        <time>2024-10-15T14:12:37.000Z</time>
      </trkpt>
      <trkpt lat="45.09659" lon="6.0053">
        <ele>729</ele>
        <time>2024-10-15T14:12:38.000Z</time>
      </trkpt>
      <trkpt lat="45.0966" lon="6.0053">
        <ele>729</ele>
        <time>2024-10-15T14:12:39.000Z</time>
      </trkpt>
      <trkpt lat="45.09661" lon="6.0053">
        <ele>728.79998779297</ele>
        <time>2024-10-15T14:12:40.000Z</time>
      </trkpt>
      <trkpt lat="45.09663" lon="6.0053">
        <ele>728.79998779297</ele>
        <time>2024-10-15T14:12:41.000Z</time>
      </trkpt>
      <trkpt lat="45.09664" lon="6.00529">
        <ele>728.59997558594</ele>
        <time>2024-10-15T14:12:42.000Z</time>
      </trkpt>
      <trkpt lat="45.09664" lon="6.0053">
        <ele>728.59997558594</ele>
        <time>2024-10-15T14:12:43.000Z</time>
      </trkpt>
      <trkpt lat="45.09665" lon="6.00528">
        <ele>728.59997558594</ele>
        <time>2024-10-15T14:12:44.000Z</time>
      </trkpt>
      <trkpt lat="45.09667" lon="6.00527">
        <ele>728.59997558594</ele>
        <time>2024-10-15T14:12:45.000Z</time>
      </trkpt>
      <trkpt lat="45.09668" lon="6.00527">
        <ele>728.59997558594</ele>
        <time>2024-10-15T14:12:46.000Z</time>
      </trkpt>
      <trkpt lat="45.09669" lon="6.00526">
        <ele>728.59997558594</ele>
        <time>2024-10-15T14:12:47.000Z</time>
      </trkpt>
      <trkpt lat="45.09669" lon="6.00526">
        <ele>728.59997558594</ele>
        <time>2024-10-15T14:12:48.000Z</time>
      </trkpt>
      <trkpt lat="45.0967" lon="6.00526">
        <ele>728.59997558594</ele>
        <time>2024-10-15T14:12:49.000Z</time>
      </trkpt>
      <trkpt lat="45.0967" lon="6.00526">
        <ele>728.59997558594</ele>
        <time>2024-10-15T14:12:50.000Z</time>
      </trkpt>
      <trkpt lat="45.0967" lon="6.00526">
        <ele>728.59997558594</ele>
        <time>2024-10-15T14:12:51.000Z</time>
      </trkpt>
      <trkpt lat="45.09671" lon="6.00525">
        <ele>728.79998779297</ele>
        <time>2024-10-15T14:12:52.000Z</time>
      </trkpt>
      <trkpt lat="45.09671" lon="6.00525">
        <ele>728.79998779297</ele>
        <time>2024-10-15T14:12:53.000Z</time>
      </trkpt>
      <trkpt lat="45.09672" lon="6.00525">
        <ele>729</ele>
        <time>2024-10-15T14:12:54.000Z</time>
      </trkpt>
      <trkpt lat="45.09673" lon="6.00525">
        <ele>729</ele>
        <time>2024-10-15T14:12:55.000Z</time>
      </trkpt>
      <trkpt lat="45.09674" lon="6.00524">
        <ele>729</ele>
        <time>2024-10-15T14:12:56.000Z</time>
      </trkpt>
      <trkpt lat="45.09675" lon="6.00525">
        <ele>729</ele>
        <time>2024-10-15T14:12:57.000Z</time>
      </trkpt>
      <trkpt lat="45.09677" lon="6.00525">
        <ele>729</ele>
        <time>2024-10-15T14:12:58.000Z</time>
      </trkpt>
      <trkpt lat="45.09678" lon="6.00526">
        <ele>729</ele>
        <time>2024-10-15T14:12:59.000Z</time>
      </trkpt>
      <trkpt lat="45.09681" lon="6.00526">
        <ele>729</ele>
        <time>2024-10-15T14:13:00.000Z</time>
      </trkpt>
      <trkpt lat="45.09684" lon="6.00526">
        <ele>729</ele>
        <time>2024-10-15T14:13:01.000Z</time>
      </trkpt>
      <trkpt lat="45.09685" lon="6.00526">
        <ele>729.20001220703</ele>
        <time>2024-10-15T14:13:02.000Z</time>
      </trkpt>
      <trkpt lat="45.09686" lon="6.00526">
        <ele>729.40002441406</ele>
        <time>2024-10-15T14:13:03.000Z</time>
      </trkpt>
      <trkpt lat="45.09686" lon="6.00527">
        <ele>729.40002441406</ele>
        <time>2024-10-15T14:13:04.000Z</time>
      </trkpt>
      <trkpt lat="45.09687" lon="6.00527">
        <ele>729.59997558594</ele>
        <time>2024-10-15T14:13:05.000Z</time>
      </trkpt>
      <trkpt lat="45.09689" lon="6.00527">
        <ele>729.59997558594</ele>
        <time>2024-10-15T14:13:06.000Z</time>
      </trkpt>
      <trkpt lat="45.0969" lon="6.00526">
        <ele>729.59997558594</ele>
        <time>2024-10-15T14:13:07.000Z</time>
      </trkpt>
      <trkpt lat="45.09691" lon="6.00526">
        <ele>729.59997558594</ele>
        <time>2024-10-15T14:13:08.000Z</time>
      </trkpt>
      <trkpt lat="45.09692" lon="6.00525">
        <ele>729.59997558594</ele>
        <time>2024-10-15T14:13:09.000Z</time>
      </trkpt>
      <trkpt lat="45.09693" lon="6.00523">
        <ele>729.79998779297</ele>
        <time>2024-10-15T14:13:10.000Z</time>
      </trkpt>
      <trkpt lat="45.09694" lon="6.00522">
        <ele>729.79998779297</ele>
        <time>2024-10-15T14:13:11.000Z</time>
      </trkpt>
      <trkpt lat="45.09695" lon="6.00521">
        <ele>729.79998779297</ele>
        <time>2024-10-15T14:13:12.000Z</time>
      </trkpt>
      <trkpt lat="45.09696" lon="6.00521">
        <ele>729.79998779297</ele>
        <time>2024-10-15T14:13:13.000Z</time>
      </trkpt>
      <trkpt lat="45.09697" lon="6.0052">
        <ele>729.79998779297</ele>
        <time>2024-10-15T14:13:14.000Z</time>
      </trkpt>
      <trkpt lat="45.09698" lon="6.0052">
        <ele>729.79998779297</ele>
        <time>2024-10-15T14:13:15.000Z</time>
      </trkpt>
      <trkpt lat="45.097" lon="6.00519">
        <ele>730</ele>
        <time>2024-10-15T14:13:16.000Z</time>
      </trkpt>
      <trkpt lat="45.09702" lon="6.00518">
        <ele>730</ele>
        <time>2024-10-15T14:13:17.000Z</time>
      </trkpt>
      <trkpt lat="45.09703" lon="6.00518">
        <ele>730</ele>
        <time>2024-10-15T14:13:18.000Z</time>
      </trkpt>
      <trkpt lat="45.09704" lon="6.00518">
        <ele>730</ele>
        <time>2024-10-15T14:13:19.000Z</time>
      </trkpt>
      <trkpt lat="45.09705" lon="6.00517">
        <ele>730</ele>
        <time>2024-10-15T14:13:20.000Z</time>
      </trkpt>
      <trkpt lat="45.09706" lon="6.00515">
        <ele>730</ele>
        <time>2024-10-15T14:13:21.000Z</time>
      </trkpt>
      <trkpt lat="45.09707" lon="6.00516">
        <ele>730.20001220703</ele>
        <time>2024-10-15T14:13:22.000Z</time>
      </trkpt>
      <trkpt lat="45.09708" lon="6.00516">
        <ele>730.20001220703</ele>
        <time>2024-10-15T14:13:23.000Z</time>
      </trkpt>
      <trkpt lat="45.09708" lon="6.00516">
        <ele>730.20001220703</ele>
        <time>2024-10-15T14:13:24.000Z</time>
      </trkpt>
      <trkpt lat="45.09709" lon="6.00516">
        <ele>730.20001220703</ele>
        <time>2024-10-15T14:13:25.000Z</time>
      </trkpt>
      <trkpt lat="45.09711" lon="6.00515">
        <ele>730.20001220703</ele>
        <time>2024-10-15T14:13:26.000Z</time>
      </trkpt>
      <trkpt lat="45.09713" lon="6.00515">
        <ele>730.40002441406</ele>
        <time>2024-10-15T14:13:27.000Z</time>
      </trkpt>
      <trkpt lat="45.09715" lon="6.00516">
        <ele>730.40002441406</ele>
        <time>2024-10-15T14:13:28.000Z</time>
      </trkpt>
      <trkpt lat="45.09716" lon="6.00516">
        <ele>730.40002441406</ele>
        <time>2024-10-15T14:13:29.000Z</time>
      </trkpt>
      <trkpt lat="45.09718" lon="6.00516">
        <ele>730.40002441406</ele>
        <time>2024-10-15T14:13:30.000Z</time>
      </trkpt>
      <trkpt lat="45.09719" lon="6.00516">
        <ele>730.40002441406</ele>
        <time>2024-10-15T14:13:31.000Z</time>
      </trkpt>
      <trkpt lat="45.09719" lon="6.00516">
        <ele>730.40002441406</ele>
        <time>2024-10-15T14:13:32.000Z</time>
      </trkpt>
      <trkpt lat="45.09721" lon="6.00517">
        <ele>730.59997558594</ele>
        <time>2024-10-15T14:13:33.000Z</time>
      </trkpt>
      <trkpt lat="45.09721" lon="6.00517">
        <ele>730.79998779297</ele>
        <time>2024-10-15T14:13:34.000Z</time>
      </trkpt>
      <trkpt lat="45.09723" lon="6.00516">
        <ele>731.20001220703</ele>
        <time>2024-10-15T14:13:35.000Z</time>
      </trkpt>
      <trkpt lat="45.09724" lon="6.00516">
        <ele>731.40002441406</ele>
        <time>2024-10-15T14:13:36.000Z</time>
      </trkpt>
      <trkpt lat="45.09726" lon="6.00517">
        <ele>731.59997558594</ele>
        <time>2024-10-15T14:13:37.000Z</time>
      </trkpt>
      <trkpt lat="45.09727" lon="6.00518">
        <ele>731.59997558594</ele>
        <time>2024-10-15T14:13:38.000Z</time>
      </trkpt>
      <trkpt lat="45.09728" lon="6.0052">
        <ele>731.79998779297</ele>
        <time>2024-10-15T14:13:39.000Z</time>
      </trkpt>
      <trkpt lat="45.09728" lon="6.0052">
        <ele>732</ele>
        <time>2024-10-15T14:13:40.000Z</time>
      </trkpt>
      <trkpt lat="45.09728" lon="6.0052">
        <ele>732</ele>
        <time>2024-10-15T14:13:41.000Z</time>
      </trkpt>
      <trkpt lat="45.0973" lon="6.0052">
        <ele>732.20001220703</ele>
        <time>2024-10-15T14:13:42.000Z</time>
      </trkpt>
      <trkpt lat="45.09732" lon="6.00521">
        <ele>732.40002441406</ele>
        <time>2024-10-15T14:13:43.000Z</time>
      </trkpt>
      <trkpt lat="45.09733" lon="6.00523">
        <ele>732.59997558594</ele>
        <time>2024-10-15T14:13:44.000Z</time>
      </trkpt>
      <trkpt lat="45.09734" lon="6.00524">
        <ele>732.79998779297</ele>
        <time>2024-10-15T14:13:45.000Z</time>
      </trkpt>
      <trkpt lat="45.09735" lon="6.00525">
        <ele>732.79998779297</ele>
        <time>2024-10-15T14:13:46.000Z</time>
      </trkpt>
      <trkpt lat="45.09737" lon="6.00526">
        <ele>733</ele>
        <time>2024-10-15T14:13:47.000Z</time>
      </trkpt>
      <trkpt lat="45.09738" lon="6.00527">
        <ele>733</ele>
        <time>2024-10-15T14:13:48.000Z</time>
      </trkpt>
      <trkpt lat="45.09739" lon="6.00528">
        <ele>733.20001220703</ele>
        <time>2024-10-15T14:13:49.000Z</time>
      </trkpt>
      <trkpt lat="45.0974" lon="6.00528">
        <ele>733.20001220703</ele>
        <time>2024-10-15T14:13:50.000Z</time>
      </trkpt>
      <trkpt lat="45.09741" lon="6.00528">
        <ele>733.20001220703</ele>
        <time>2024-10-15T14:13:51.000Z</time>
      </trkpt>
      <trkpt lat="45.09743" lon="6.00527">
        <ele>733.20001220703</ele>
        <time>2024-10-15T14:13:52.000Z</time>
      </trkpt>
      <trkpt lat="45.09744" lon="6.00527">
        <ele>733.20001220703</ele>
        <time>2024-10-15T14:13:53.000Z</time>
      </trkpt>
      <trkpt lat="45.09745" lon="6.00527">
        <ele>733.20001220703</ele>
        <time>2024-10-15T14:13:54.000Z</time>
      </trkpt>
      <trkpt lat="45.09746" lon="6.00526">
        <ele>733</ele>
        <time>2024-10-15T14:13:55.000Z</time>
      </trkpt>
      <trkpt lat="45.09748" lon="6.00526">
        <ele>733</ele>
        <time>2024-10-15T14:13:56.000Z</time>
      </trkpt>
      <trkpt lat="45.09749" lon="6.00526">
        <ele>732.79998779297</ele>
        <time>2024-10-15T14:13:57.000Z</time>
      </trkpt>
      <trkpt lat="45.0975" lon="6.00526">
        <ele>732.79998779297</ele>
        <time>2024-10-15T14:13:58.000Z</time>
      </trkpt>
      <trkpt lat="45.09751" lon="6.00527">
        <ele>732.79998779297</ele>
        <time>2024-10-15T14:13:59.000Z</time>
      </trkpt>
      <trkpt lat="45.09752" lon="6.00527">
        <ele>732.79998779297</ele>
        <time>2024-10-15T14:14:00.000Z</time>
      </trkpt>
      <trkpt lat="45.09754" lon="6.00527">
        <ele>732.79998779297</ele>
        <time>2024-10-15T14:14:01.000Z</time>
      </trkpt>
      <trkpt lat="45.09755" lon="6.00528">
        <ele>732.59997558594</ele>
        <time>2024-10-15T14:14:02.000Z</time>
      </trkpt>
      <trkpt lat="45.09757" lon="6.00527">
        <ele>732.59997558594</ele>
        <time>2024-10-15T14:14:03.000Z</time>
      </trkpt>
      <trkpt lat="45.09758" lon="6.00527">
        <ele>732.59997558594</ele>
        <time>2024-10-15T14:14:04.000Z</time>
      </trkpt>
      <trkpt lat="45.09758" lon="6.00527">
        <ele>732.59997558594</ele>
        <time>2024-10-15T14:14:05.000Z</time>
      </trkpt>
      <trkpt lat="45.09759" lon="6.00527">
        <ele>732.59997558594</ele>
        <time>2024-10-15T14:14:06.000Z</time>
      </trkpt>
      <trkpt lat="45.0976" lon="6.00529">
        <ele>732.59997558594</ele>
        <time>2024-10-15T14:14:07.000Z</time>
      </trkpt>
      <trkpt lat="45.09763" lon="6.00529">
        <ele>732.59997558594</ele>
        <time>2024-10-15T14:14:08.000Z</time>
      </trkpt>
      <trkpt lat="45.09764" lon="6.00529">
        <ele>732.59997558594</ele>
        <time>2024-10-15T14:14:09.000Z</time>
      </trkpt>
      <trkpt lat="45.09766" lon="6.00529">
        <ele>732.79998779297</ele>
        <time>2024-10-15T14:14:10.000Z</time>
      </trkpt>
      <trkpt lat="45.09768" lon="6.0053">
        <ele>732.79998779297</ele>
        <time>2024-10-15T14:14:11.000Z</time>
      </trkpt>
      <trkpt lat="45.0977" lon="6.00531">
        <ele>732.79998779297</ele>
        <time>2024-10-15T14:14:12.000Z</time>
      </trkpt>
      <trkpt lat="45.0977" lon="6.00532">
        <ele>733</ele>
        <time>2024-10-15T14:14:13.000Z</time>
      </trkpt>
      <trkpt lat="45.0977" lon="6.00532">
        <ele>733.20001220703</ele>
        <time>2024-10-15T14:14:14.000Z</time>
      </trkpt>
      <trkpt lat="45.09772" lon="6.00532">
        <ele>733.20001220703</ele>
        <time>2024-10-15T14:14:15.000Z</time>
      </trkpt>
      <trkpt lat="45.09773" lon="6.00532">
        <ele>733.20001220703</ele>
        <time>2024-10-15T14:14:16.000Z</time>
      </trkpt>
      <trkpt lat="45.09774" lon="6.00533">
        <ele>733.20001220703</ele>
        <time>2024-10-15T14:14:17.000Z</time>
      </trkpt>
      <trkpt lat="45.09775" lon="6.00533">
        <ele>733.20001220703</ele>
        <time>2024-10-15T14:14:18.000Z</time>
      </trkpt>
      <trkpt lat="45.09776" lon="6.00534">
        <ele>733.40002441406</ele>
        <time>2024-10-15T14:14:19.000Z</time>
      </trkpt>
      <trkpt lat="45.09777" lon="6.00534">
        <ele>733.40002441406</ele>
        <time>2024-10-15T14:14:20.000Z</time>
      </trkpt>
      <trkpt lat="45.09778" lon="6.00534">
        <ele>733.79998779297</ele>
        <time>2024-10-15T14:14:21.000Z</time>
      </trkpt>
      <trkpt lat="45.09779" lon="6.00534">
        <ele>734</ele>
        <time>2024-10-15T14:14:22.000Z</time>
      </trkpt>
      <trkpt lat="45.09781" lon="6.00535">
        <ele>734</ele>
        <time>2024-10-15T14:14:23.000Z</time>
      </trkpt>
      <trkpt lat="45.09782" lon="6.00536">
        <ele>734.20001220703</ele>
        <time>2024-10-15T14:14:24.000Z</time>
      </trkpt>
      <trkpt lat="45.09783" lon="6.00536">
        <ele>734.40002441406</ele>
        <time>2024-10-15T14:14:25.000Z</time>
      </trkpt>
      <trkpt lat="45.09785" lon="6.00536">
        <ele>734.59997558594</ele>
        <time>2024-10-15T14:14:26.000Z</time>
      </trkpt>
      <trkpt lat="45.09786" lon="6.00537">
        <ele>734.79998779297</ele>
        <time>2024-10-15T14:14:27.000Z</time>
      </trkpt>
      <trkpt lat="45.09787" lon="6.00537">
        <ele>734.79998779297</ele>
        <time>2024-10-15T14:14:28.000Z</time>
      </trkpt>
      <trkpt lat="45.09788" lon="6.00537">
        <ele>734.79998779297</ele>
        <time>2024-10-15T14:14:29.000Z</time>
      </trkpt>
      <trkpt lat="45.09789" lon="6.00537">
        <ele>735</ele>
        <time>2024-10-15T14:14:30.000Z</time>
      </trkpt>
      <trkpt lat="45.09791" lon="6.00537">
        <ele>735</ele>
        <time>2024-10-15T14:14:31.000Z</time>
      </trkpt>
      <trkpt lat="45.09792" lon="6.00537">
        <ele>735.20001220703</ele>
        <time>2024-10-15T14:14:32.000Z</time>
      </trkpt>
      <trkpt lat="45.09793" lon="6.00537">
        <ele>735.40002441406</ele>
        <time>2024-10-15T14:14:33.000Z</time>
      </trkpt>
      <trkpt lat="45.09794" lon="6.00537">
        <ele>735.40002441406</ele>
        <time>2024-10-15T14:14:34.000Z</time>
      </trkpt>
      <trkpt lat="45.09795" lon="6.00537">
        <ele>735.40002441406</ele>
        <time>2024-10-15T14:14:35.000Z</time>
      </trkpt>
      <trkpt lat="45.09797" lon="6.00537">
        <ele>735.40002441406</ele>
        <time>2024-10-15T14:14:36.000Z</time>
      </trkpt>
      <trkpt lat="45.09798" lon="6.00538">
        <ele>735.40002441406</ele>
        <time>2024-10-15T14:14:37.000Z</time>
      </trkpt>
      <trkpt lat="45.09799" lon="6.00538">
        <ele>735.59997558594</ele>
        <time>2024-10-15T14:14:38.000Z</time>
      </trkpt>
      <trkpt lat="45.098" lon="6.00539">
        <ele>735.59997558594</ele>
        <time>2024-10-15T14:14:39.000Z</time>
      </trkpt>
      <trkpt lat="45.09802" lon="6.00539">
        <ele>735.59997558594</ele>
        <time>2024-10-15T14:14:40.000Z</time>
      </trkpt>
      <trkpt lat="45.09803" lon="6.00539">
        <ele>735.59997558594</ele>
        <time>2024-10-15T14:14:41.000Z</time>
      </trkpt>
      <trkpt lat="45.09804" lon="6.0054">
        <ele>735.79998779297</ele>
        <time>2024-10-15T14:14:42.000Z</time>
      </trkpt>
      <trkpt lat="45.09805" lon="6.0054">
        <ele>735.79998779297</ele>
        <time>2024-10-15T14:14:43.000Z</time>
      </trkpt>
      <trkpt lat="45.09806" lon="6.00541">
        <ele>735.79998779297</ele>
        <time>2024-10-15T14:14:44.000Z</time>
      </trkpt>
      <trkpt lat="45.09807" lon="6.00541">
        <ele>736</ele>
        <time>2024-10-15T14:14:45.000Z</time>
      </trkpt>
      <trkpt lat="45.09809" lon="6.00542">
        <ele>736</ele>
        <time>2024-10-15T14:14:46.000Z</time>
      </trkpt>
      <trkpt lat="45.0981" lon="6.00542">
        <ele>736</ele>
        <time>2024-10-15T14:14:47.000Z</time>
      </trkpt>
      <trkpt lat="45.09811" lon="6.00542">
        <ele>736</ele>
        <time>2024-10-15T14:14:48.000Z</time>
      </trkpt>
      <trkpt lat="45.09812" lon="6.00543">
        <ele>736</ele>
        <time>2024-10-15T14:14:49.000Z</time>
      </trkpt>
      <trkpt lat="45.09813" lon="6.00543">
        <ele>736</ele>
        <time>2024-10-15T14:14:50.000Z</time>
      </trkpt>
      <trkpt lat="45.09816" lon="6.00544">
        <ele>736</ele>
        <time>2024-10-15T14:14:51.000Z</time>
      </trkpt>
      <trkpt lat="45.09818" lon="6.00545">
        <ele>736</ele>
        <time>2024-10-15T14:14:52.000Z</time>
      </trkpt>
      <trkpt lat="45.09819" lon="6.00545">
        <ele>736</ele>
        <time>2024-10-15T14:14:53.000Z</time>
      </trkpt>
      <trkpt lat="45.0982" lon="6.00546">
        <ele>736</ele>
        <time>2024-10-15T14:14:54.000Z</time>
      </trkpt>
      <trkpt lat="45.09821" lon="6.00545">
        <ele>736</ele>
        <time>2024-10-15T14:14:55.000Z</time>
      </trkpt>
      <trkpt lat="45.09822" lon="6.00544">
        <ele>736</ele>
        <time>2024-10-15T14:14:56.000Z</time>
      </trkpt>
      <trkpt lat="45.09823" lon="6.00544">
        <ele>736</ele>
        <time>2024-10-15T14:14:57.000Z</time>
      </trkpt>
      <trkpt lat="45.09825" lon="6.00544">
        <ele>736</ele>
        <time>2024-10-15T14:14:58.000Z</time>
      </trkpt>
      <trkpt lat="45.09827" lon="6.00544">
        <ele>736</ele>
        <time>2024-10-15T14:14:59.000Z</time>
      </trkpt>
      <trkpt lat="45.09828" lon="6.00544">
        <ele>736</ele>
        <time>2024-10-15T14:15:00.000Z</time>
      </trkpt>
      <trkpt lat="45.09829" lon="6.00544">
        <ele>735.79998779297</ele>
        <time>2024-10-15T14:15:01.000Z</time>
      </trkpt>
      <trkpt lat="45.0983" lon="6.00544">
        <ele>735.79998779297</ele>
        <time>2024-10-15T14:15:02.000Z</time>
      </trkpt>
      <trkpt lat="45.09832" lon="6.00545">
        <ele>735.79998779297</ele>
        <time>2024-10-15T14:15:03.000Z</time>
      </trkpt>
      <trkpt lat="45.09833" lon="6.00545">
        <ele>735.59997558594</ele>
        <time>2024-10-15T14:15:04.000Z</time>
      </trkpt>
      <trkpt lat="45.09834" lon="6.00545">
        <ele>735.59997558594</ele>
        <time>2024-10-15T14:15:05.000Z</time>
      </trkpt>
      <trkpt lat="45.09835" lon="6.00546">
        <ele>735.59997558594</ele>
        <time>2024-10-15T14:15:06.000Z</time>
      </trkpt>
      <trkpt lat="45.09837" lon="6.00546">
        <ele>735.59997558594</ele>
        <time>2024-10-15T14:15:07.000Z</time>
      </trkpt>
      <trkpt lat="45.09839" lon="6.00547">
        <ele>735.40002441406</ele>
        <time>2024-10-15T14:15:08.000Z</time>
      </trkpt>
      <trkpt lat="45.0984" lon="6.00548">
        <ele>735.40002441406</ele>
        <time>2024-10-15T14:15:09.000Z</time>
      </trkpt>
      <trkpt lat="45.0984" lon="6.0055">
        <ele>735.40002441406</ele>
        <time>2024-10-15T14:15:10.000Z</time>
      </trkpt>
      <trkpt lat="45.09842" lon="6.00549">
        <ele>735.40002441406</ele>
        <time>2024-10-15T14:15:11.000Z</time>
      </trkpt>
      <trkpt lat="45.09843" lon="6.00549">
        <ele>735.40002441406</ele>
        <time>2024-10-15T14:15:12.000Z</time>
      </trkpt>
      <trkpt lat="45.09845" lon="6.00549">
        <ele>735.40002441406</ele>
        <time>2024-10-15T14:15:13.000Z</time>
      </trkpt>
      <trkpt lat="45.09846" lon="6.00549">
        <ele>735.20001220703</ele>
        <time>2024-10-15T14:15:14.000Z</time>
      </trkpt>
      <trkpt lat="45.09846" lon="6.00549">
        <ele>735</ele>
        <time>2024-10-15T14:15:15.000Z</time>
      </trkpt>
      <trkpt lat="45.09846" lon="6.00549">
        <ele>734.79998779297</ele>
        <time>2024-10-15T14:15:16.000Z</time>
      </trkpt>
      <trkpt lat="45.09846" lon="6.0055">
        <ele>734.79998779297</ele>
        <time>2024-10-15T14:15:17.000Z</time>
      </trkpt>
      <trkpt lat="45.09847" lon="6.0055">
        <ele>734.59997558594</ele>
        <time>2024-10-15T14:15:18.000Z</time>
      </trkpt>
      <trkpt lat="45.09847" lon="6.00551">
        <ele>734.40002441406</ele>
        <time>2024-10-15T14:15:19.000Z</time>
      </trkpt>
      <trkpt lat="45.09848" lon="6.00551">
        <ele>734.40002441406</ele>
        <time>2024-10-15T14:15:20.000Z</time>
      </trkpt>
      <trkpt lat="45.0985" lon="6.00552">
        <ele>734.40002441406</ele>
        <time>2024-10-15T14:15:21.000Z</time>
      </trkpt>
      <trkpt lat="45.09851" lon="6.00551">
        <ele>734.40002441406</ele>
        <time>2024-10-15T14:15:22.000Z</time>
      </trkpt>
      <trkpt lat="45.09853" lon="6.00551">
        <ele>734.40002441406</ele>
        <time>2024-10-15T14:15:23.000Z</time>
      </trkpt>
      <trkpt lat="45.09854" lon="6.0055">
        <ele>734.40002441406</ele>
        <time>2024-10-15T14:15:24.000Z</time>
      </trkpt>
      <trkpt lat="45.09856" lon="6.00549">
        <ele>734.40002441406</ele>
        <time>2024-10-15T14:15:25.000Z</time>
      </trkpt>
      <trkpt lat="45.09857" lon="6.0055">
        <ele>734.40002441406</ele>
        <time>2024-10-15T14:15:26.000Z</time>
      </trkpt>
      <trkpt lat="45.09858" lon="6.00549">
        <ele>734.59997558594</ele>
        <time>2024-10-15T14:15:27.000Z</time>
      </trkpt>
      <trkpt lat="45.0986" lon="6.00549">
        <ele>734.59997558594</ele>
        <time>2024-10-15T14:15:28.000Z</time>
      </trkpt>
      <trkpt lat="45.09861" lon="6.00549">
        <ele>734.79998779297</ele>
        <time>2024-10-15T14:15:29.000Z</time>
      </trkpt>
      <trkpt lat="45.09863" lon="6.00548">
        <ele>735</ele>
        <time>2024-10-15T14:15:30.000Z</time>
      </trkpt>
      <trkpt lat="45.09864" lon="6.00548">
        <ele>735</ele>
        <time>2024-10-15T14:15:31.000Z</time>
      </trkpt>
      <trkpt lat="45.09866" lon="6.00548">
        <ele>735</ele>
        <time>2024-10-15T14:15:32.000Z</time>
      </trkpt>
      <trkpt lat="45.09866" lon="6.00548">
        <ele>735</ele>
        <time>2024-10-15T14:15:33.000Z</time>
      </trkpt>
      <trkpt lat="45.09867" lon="6.00548">
        <ele>735.20001220703</ele>
        <time>2024-10-15T14:15:34.000Z</time>
      </trkpt>
      <trkpt lat="45.09869" lon="6.00547">
        <ele>735.20001220703</ele>
        <time>2024-10-15T14:15:35.000Z</time>
      </trkpt>
      <trkpt lat="45.09871" lon="6.00545">
        <ele>735.20001220703</ele>
        <time>2024-10-15T14:15:36.000Z</time>
      </trkpt>
      <trkpt lat="45.09872" lon="6.00545">
        <ele>735.20001220703</ele>
        <time>2024-10-15T14:15:37.000Z</time>
      </trkpt>
      <trkpt lat="45.09875" lon="6.00544">
        <ele>735.20001220703</ele>
        <time>2024-10-15T14:15:38.000Z</time>
      </trkpt>
      <trkpt lat="45.09876" lon="6.00544">
        <ele>735.20001220703</ele>
        <time>2024-10-15T14:15:39.000Z</time>
      </trkpt>
      <trkpt lat="45.09878" lon="6.00543">
        <ele>735.20001220703</ele>
        <time>2024-10-15T14:15:40.000Z</time>
      </trkpt>
      <trkpt lat="45.09879" lon="6.00542">
        <ele>735</ele>
        <time>2024-10-15T14:15:41.000Z</time>
      </trkpt>
      <trkpt lat="45.0988" lon="6.00542">
        <ele>735</ele>
        <time>2024-10-15T14:15:42.000Z</time>
      </trkpt>
      <trkpt lat="45.0988" lon="6.00541">
        <ele>734.79998779297</ele>
        <time>2024-10-15T14:15:43.000Z</time>
      </trkpt>
      <trkpt lat="45.09882" lon="6.00541">
        <ele>734.79998779297</ele>
        <time>2024-10-15T14:15:44.000Z</time>
      </trkpt>
      <trkpt lat="45.09883" lon="6.0054">
        <ele>734.79998779297</ele>
        <time>2024-10-15T14:15:45.000Z</time>
      </trkpt>
      <trkpt lat="45.09884" lon="6.0054">
        <ele>734.79998779297</ele>
        <time>2024-10-15T14:15:46.000Z</time>
      </trkpt>
      <trkpt lat="45.09885" lon="6.00539">
        <ele>734.79998779297</ele>
        <time>2024-10-15T14:15:47.000Z</time>
      </trkpt>
      <trkpt lat="45.09887" lon="6.0054">
        <ele>734.79998779297</ele>
        <time>2024-10-15T14:15:48.000Z</time>
      </trkpt>
      <trkpt lat="45.09888" lon="6.00541">
        <ele>734.79998779297</ele>
        <time>2024-10-15T14:15:49.000Z</time>
      </trkpt>
      <trkpt lat="45.0989" lon="6.00541">
        <ele>734.79998779297</ele>
        <time>2024-10-15T14:15:50.000Z</time>
      </trkpt>
      <trkpt lat="45.09891" lon="6.00541">
        <ele>734.79998779297</ele>
        <time>2024-10-15T14:15:51.000Z</time>
      </trkpt>
      <trkpt lat="45.09891" lon="6.00541">
        <ele>734.79998779297</ele>
        <time>2024-10-15T14:15:52.000Z</time>
      </trkpt>
      <trkpt lat="45.09894" lon="6.00541">
        <ele>734.79998779297</ele>
        <time>2024-10-15T14:15:53.000Z</time>
      </trkpt>
      <trkpt lat="45.09894" lon="6.00542">
        <ele>734.79998779297</ele>
        <time>2024-10-15T14:15:54.000Z</time>
      </trkpt>
      <trkpt lat="45.09895" lon="6.00542">
        <ele>734.79998779297</ele>
        <time>2024-10-15T14:15:55.000Z</time>
      </trkpt>
      <trkpt lat="45.09896" lon="6.00542">
        <ele>734.79998779297</ele>
        <time>2024-10-15T14:15:56.000Z</time>
      </trkpt>
      <trkpt lat="45.09897" lon="6.00541">
        <ele>734.59997558594</ele>
        <time>2024-10-15T14:15:57.000Z</time>
      </trkpt>
      <trkpt lat="45.09899" lon="6.00541">
        <ele>734.59997558594</ele>
        <time>2024-10-15T14:15:58.000Z</time>
      </trkpt>
      <trkpt lat="45.099" lon="6.0054">
        <ele>734.59997558594</ele>
        <time>2024-10-15T14:15:59.000Z</time>
      </trkpt>
      <trkpt lat="45.09901" lon="6.0054">
        <ele>734.59997558594</ele>
        <time>2024-10-15T14:16:00.000Z</time>
      </trkpt>
      <trkpt lat="45.09902" lon="6.00539">
        <ele>734.59997558594</ele>
        <time>2024-10-15T14:16:01.000Z</time>
      </trkpt>
      <trkpt lat="45.09904" lon="6.00539">
        <ele>734.59997558594</ele>
        <time>2024-10-15T14:16:02.000Z</time>
      </trkpt>
      <trkpt lat="45.09904" lon="6.00539">
        <ele>734.59997558594</ele>
        <time>2024-10-15T14:16:03.000Z</time>
      </trkpt>
      <trkpt lat="45.09905" lon="6.00538">
        <ele>734.59997558594</ele>
        <time>2024-10-15T14:16:04.000Z</time>
      </trkpt>
      <trkpt lat="45.09907" lon="6.00538">
        <ele>734.59997558594</ele>
        <time>2024-10-15T14:16:05.000Z</time>
      </trkpt>
      <trkpt lat="45.09909" lon="6.00538">
        <ele>734.59997558594</ele>
        <time>2024-10-15T14:16:06.000Z</time>
      </trkpt>
      <trkpt lat="45.0991" lon="6.00538">
        <ele>734.59997558594</ele>
        <time>2024-10-15T14:16:07.000Z</time>
      </trkpt>
      <trkpt lat="45.09911" lon="6.00538">
        <ele>734.59997558594</ele>
        <time>2024-10-15T14:16:08.000Z</time>
      </trkpt>
      <trkpt lat="45.09913" lon="6.00537">
        <ele>734.59997558594</ele>
        <time>2024-10-15T14:16:09.000Z</time>
      </trkpt>
      <trkpt lat="45.09914" lon="6.00538">
        <ele>734.59997558594</ele>
        <time>2024-10-15T14:16:10.000Z</time>
      </trkpt>
      <trkpt lat="45.09915" lon="6.00538">
        <ele>734.59997558594</ele>
        <time>2024-10-15T14:16:11.000Z</time>
      </trkpt>
      <trkpt lat="45.09916" lon="6.00538">
        <ele>734.40002441406</ele>
        <time>2024-10-15T14:16:12.000Z</time>
      </trkpt>
      <trkpt lat="45.09918" lon="6.00538">
        <ele>734.40002441406</ele>
        <time>2024-10-15T14:16:13.000Z</time>
      </trkpt>
      <trkpt lat="45.0992" lon="6.00538">
        <ele>734.40002441406</ele>
        <time>2024-10-15T14:16:14.000Z</time>
      </trkpt>
      <trkpt lat="45.09921" lon="6.00537">
        <ele>734.40002441406</ele>
        <time>2024-10-15T14:16:15.000Z</time>
      </trkpt>
      <trkpt lat="45.09923" lon="6.00535">
        <ele>734.40002441406</ele>
        <time>2024-10-15T14:16:16.000Z</time>
      </trkpt>
      <trkpt lat="45.09924" lon="6.00535">
        <ele>734.40002441406</ele>
        <time>2024-10-15T14:16:17.000Z</time>
      </trkpt>
      <trkpt lat="45.09925" lon="6.00533">
        <ele>734.40002441406</ele>
        <time>2024-10-15T14:16:18.000Z</time>
      </trkpt>
      <trkpt lat="45.09925" lon="6.00532">
        <ele>734.40002441406</ele>
        <time>2024-10-15T14:16:19.000Z</time>
      </trkpt>
      <trkpt lat="45.09926" lon="6.00531">
        <ele>734.59997558594</ele>
        <time>2024-10-15T14:16:20.000Z</time>
      </trkpt>
      <trkpt lat="45.09927" lon="6.0053">
        <ele>734.59997558594</ele>
        <time>2024-10-15T14:16:21.000Z</time>
      </trkpt>
      <trkpt lat="45.09929" lon="6.00529">
        <ele>734.59997558594</ele>
        <time>2024-10-15T14:16:22.000Z</time>
      </trkpt>
      <trkpt lat="45.0993" lon="6.00529">
        <ele>734.59997558594</ele>
        <time>2024-10-15T14:16:23.000Z</time>
      </trkpt>
      <trkpt lat="45.09931" lon="6.00529">
        <ele>734.40002441406</ele>
        <time>2024-10-15T14:16:24.000Z</time>
      </trkpt>
      <trkpt lat="45.09932" lon="6.00529">
        <ele>734.40002441406</ele>
        <time>2024-10-15T14:16:25.000Z</time>
      </trkpt>
      <trkpt lat="45.09933" lon="6.00528">
        <ele>734.40002441406</ele>
        <time>2024-10-15T14:16:26.000Z</time>
      </trkpt>
      <trkpt lat="45.09935" lon="6.00528">
        <ele>734.40002441406</ele>
        <time>2024-10-15T14:16:27.000Z</time>
      </trkpt>
      <trkpt lat="45.09936" lon="6.00528">
        <ele>734.20001220703</ele>
        <time>2024-10-15T14:16:28.000Z</time>
      </trkpt>
      <trkpt lat="45.09938" lon="6.00528">
        <ele>734.20001220703</ele>
        <time>2024-10-15T14:16:29.000Z</time>
      </trkpt>
      <trkpt lat="45.0994" lon="6.00528">
        <ele>734</ele>
        <time>2024-10-15T14:16:30.000Z</time>
      </trkpt>
      <trkpt lat="45.09941" lon="6.00529">
        <ele>734</ele>
        <time>2024-10-15T14:16:31.000Z</time>
      </trkpt>
      <trkpt lat="45.09943" lon="6.00528">
        <ele>734</ele>
        <time>2024-10-15T14:16:32.000Z</time>
      </trkpt>
      <trkpt lat="45.09944" lon="6.00528">
        <ele>734</ele>
        <time>2024-10-15T14:16:33.000Z</time>
      </trkpt>
      <trkpt lat="45.09945" lon="6.00528">
        <ele>734</ele>
        <time>2024-10-15T14:16:34.000Z</time>
      </trkpt>
      <trkpt lat="45.09948" lon="6.00528">
        <ele>734.20001220703</ele>
        <time>2024-10-15T14:16:35.000Z</time>
      </trkpt>
      <trkpt lat="45.09949" lon="6.00527">
        <ele>734.20001220703</ele>
        <time>2024-10-15T14:16:36.000Z</time>
      </trkpt>
      <trkpt lat="45.0995" lon="6.00527">
        <ele>734.20001220703</ele>
        <time>2024-10-15T14:16:37.000Z</time>
      </trkpt>
      <trkpt lat="45.09952" lon="6.00527">
        <ele>734.20001220703</ele>
        <time>2024-10-15T14:16:38.000Z</time>
      </trkpt>
      <trkpt lat="45.09952" lon="6.00527">
        <ele>734.20001220703</ele>
        <time>2024-10-15T14:16:39.000Z</time>
      </trkpt>
      <trkpt lat="45.09953" lon="6.00527">
        <ele>734.20001220703</ele>
        <time>2024-10-15T14:16:40.000Z</time>
      </trkpt>
      <trkpt lat="45.09954" lon="6.00527">
        <ele>734.20001220703</ele>
        <time>2024-10-15T14:16:41.000Z</time>
      </trkpt>
      <trkpt lat="45.09956" lon="6.00527">
        <ele>734.20001220703</ele>
        <time>2024-10-15T14:16:42.000Z</time>
      </trkpt>
      <trkpt lat="45.09957" lon="6.00527">
        <ele>734.20001220703</ele>
        <time>2024-10-15T14:16:43.000Z</time>
      </trkpt>
      <trkpt lat="45.09958" lon="6.00527">
        <ele>734.20001220703</ele>
        <time>2024-10-15T14:16:44.000Z</time>
      </trkpt>
      <trkpt lat="45.09961" lon="6.00527">
        <ele>734.20001220703</ele>
        <time>2024-10-15T14:16:45.000Z</time>
      </trkpt>
      <trkpt lat="45.09962" lon="6.00526">
        <ele>734.20001220703</ele>
        <time>2024-10-15T14:16:46.000Z</time>
      </trkpt>
      <trkpt lat="45.09964" lon="6.00526">
        <ele>734.20001220703</ele>
        <time>2024-10-15T14:16:47.000Z</time>
      </trkpt>
      <trkpt lat="45.09966" lon="6.00527">
        <ele>734.20001220703</ele>
        <time>2024-10-15T14:16:48.000Z</time>
      </trkpt>
      <trkpt lat="45.09967" lon="6.00528">
        <ele>734.20001220703</ele>
        <time>2024-10-15T14:16:49.000Z</time>
      </trkpt>
      <trkpt lat="45.09968" lon="6.00529">
        <ele>734.20001220703</ele>
        <time>2024-10-15T14:16:50.000Z</time>
      </trkpt>
      <trkpt lat="45.09969" lon="6.0053">
        <ele>734.20001220703</ele>
        <time>2024-10-15T14:16:51.000Z</time>
      </trkpt>
      <trkpt lat="45.0997" lon="6.0053">
        <ele>734.20001220703</ele>
        <time>2024-10-15T14:16:52.000Z</time>
      </trkpt>
      <trkpt lat="45.09972" lon="6.0053">
        <ele>734.20001220703</ele>
        <time>2024-10-15T14:16:53.000Z</time>
      </trkpt>
      <trkpt lat="45.09974" lon="6.00531">
        <ele>734.20001220703</ele>
        <time>2024-10-15T14:16:54.000Z</time>
      </trkpt>
      <trkpt lat="45.09977" lon="6.00531">
        <ele>734.20001220703</ele>
        <time>2024-10-15T14:16:55.000Z</time>
      </trkpt>
      <trkpt lat="45.09978" lon="6.00532">
        <ele>734.20001220703</ele>
        <time>2024-10-15T14:16:56.000Z</time>
      </trkpt>
      <trkpt lat="45.09978" lon="6.00531">
        <ele>734.20001220703</ele>
        <time>2024-10-15T14:16:57.000Z</time>
      </trkpt>
      <trkpt lat="45.09978" lon="6.00531">
        <ele>734.20001220703</ele>
        <time>2024-10-15T14:16:58.000Z</time>
      </trkpt>
      <trkpt lat="45.09979" lon="6.00531">
        <ele>734.20001220703</ele>
        <time>2024-10-15T14:16:59.000Z</time>
      </trkpt>
      <trkpt lat="45.0998" lon="6.00531">
        <ele>734.40002441406</ele>
        <time>2024-10-15T14:17:00.000Z</time>
      </trkpt>
      <trkpt lat="45.09981" lon="6.00531">
        <ele>734.40002441406</ele>
        <time>2024-10-15T14:17:01.000Z</time>
      </trkpt>
      <trkpt lat="45.09981" lon="6.00531">
        <ele>734.40002441406</ele>
        <time>2024-10-15T14:17:02.000Z</time>
      </trkpt>
      <trkpt lat="45.09983" lon="6.0053">
        <ele>734.40002441406</ele>
        <time>2024-10-15T14:17:03.000Z</time>
      </trkpt>
      <trkpt lat="45.09985" lon="6.0053">
        <ele>734.59997558594</ele>
        <time>2024-10-15T14:17:04.000Z</time>
      </trkpt>
      <trkpt lat="45.09986" lon="6.0053">
        <ele>734.59997558594</ele>
        <time>2024-10-15T14:17:05.000Z</time>
      </trkpt>
      <trkpt lat="45.09988" lon="6.00529">
        <ele>734.59997558594</ele>
        <time>2024-10-15T14:17:06.000Z</time>
      </trkpt>
      <trkpt lat="45.09988" lon="6.00529">
        <ele>734.59997558594</ele>
        <time>2024-10-15T14:17:07.000Z</time>
      </trkpt>
      <trkpt lat="45.0999" lon="6.00527">
        <ele>734.59997558594</ele>
        <time>2024-10-15T14:17:08.000Z</time>
      </trkpt>
      <trkpt lat="45.09991" lon="6.00526">
        <ele>734.79998779297</ele>
        <time>2024-10-15T14:17:09.000Z</time>
      </trkpt>
      <trkpt lat="45.09992" lon="6.00524">
        <ele>734.59997558594</ele>
        <time>2024-10-15T14:17:10.000Z</time>
      </trkpt>
      <trkpt lat="45.09993" lon="6.00523">
        <ele>734.59997558594</ele>
        <time>2024-10-15T14:17:11.000Z</time>
      </trkpt>
      <trkpt lat="45.09994" lon="6.00523">
        <ele>734.59997558594</ele>
        <time>2024-10-15T14:17:12.000Z</time>
      </trkpt>
      <trkpt lat="45.09996" lon="6.00522">
        <ele>734.59997558594</ele>
        <time>2024-10-15T14:17:13.000Z</time>
      </trkpt>
      <trkpt lat="45.09998" lon="6.0052">
        <ele>734.59997558594</ele>
        <time>2024-10-15T14:17:14.000Z</time>
      </trkpt>
      <trkpt lat="45.1" lon="6.00519">
        <ele>734.59997558594</ele>
        <time>2024-10-15T14:17:15.000Z</time>
      </trkpt>
      <trkpt lat="45.1" lon="6.00519">
        <ele>734.59997558594</ele>
        <time>2024-10-15T14:17:16.000Z</time>
      </trkpt>
      <trkpt lat="45.1" lon="6.00519">
        <ele>734.59997558594</ele>
        <time>2024-10-15T14:17:17.000Z</time>
      </trkpt>
      <trkpt lat="45.10001" lon="6.00518">
        <ele>734.59997558594</ele>
        <time>2024-10-15T14:17:18.000Z</time>
      </trkpt>
      <trkpt lat="45.10003" lon="6.00518">
        <ele>734.59997558594</ele>
        <time>2024-10-15T14:17:19.000Z</time>
      </trkpt>
      <trkpt lat="45.10004" lon="6.00517">
        <ele>734.59997558594</ele>
        <time>2024-10-15T14:17:20.000Z</time>
      </trkpt>
      <trkpt lat="45.10006" lon="6.00516">
        <ele>734.59997558594</ele>
        <time>2024-10-15T14:17:21.000Z</time>
      </trkpt>
      <trkpt lat="45.10008" lon="6.00514">
        <ele>734.40002441406</ele>
        <time>2024-10-15T14:17:22.000Z</time>
      </trkpt>
      <trkpt lat="45.1001" lon="6.00513">
        <ele>734.40002441406</ele>
        <time>2024-10-15T14:17:23.000Z</time>
      </trkpt>
      <trkpt lat="45.10011" lon="6.00513">
        <ele>734.40002441406</ele>
        <time>2024-10-15T14:17:24.000Z</time>
      </trkpt>
      <trkpt lat="45.10012" lon="6.00512">
        <ele>734.40002441406</ele>
        <time>2024-10-15T14:17:25.000Z</time>
      </trkpt>
      <trkpt lat="45.10013" lon="6.00511">
        <ele>734.40002441406</ele>
        <time>2024-10-15T14:17:26.000Z</time>
      </trkpt>
      <trkpt lat="45.10013" lon="6.00509">
        <ele>734.20001220703</ele>
        <time>2024-10-15T14:17:27.000Z</time>
      </trkpt>
      <trkpt lat="45.10015" lon="6.00508">
        <ele>734.20001220703</ele>
        <time>2024-10-15T14:17:28.000Z</time>
      </trkpt>
      <trkpt lat="45.10016" lon="6.00507">
        <ele>734.20001220703</ele>
        <time>2024-10-15T14:17:29.000Z</time>
      </trkpt>
      <trkpt lat="45.10018" lon="6.00506">
        <ele>734</ele>
        <time>2024-10-15T14:17:30.000Z</time>
      </trkpt>
      <trkpt lat="45.10019" lon="6.00505">
        <ele>734</ele>
        <time>2024-10-15T14:17:31.000Z</time>
      </trkpt>
      <trkpt lat="45.10021" lon="6.00504">
        <ele>734</ele>
        <time>2024-10-15T14:17:32.000Z</time>
      </trkpt>
      <trkpt lat="45.10023" lon="6.00502">
        <ele>733.79998779297</ele>
        <time>2024-10-15T14:17:33.000Z</time>
      </trkpt>
      <trkpt lat="45.10024" lon="6.00501">
        <ele>733.79998779297</ele>
        <time>2024-10-15T14:17:34.000Z</time>
      </trkpt>
      <trkpt lat="45.10025" lon="6.00501">
        <ele>733.79998779297</ele>
        <time>2024-10-15T14:17:35.000Z</time>
      </trkpt>
      <trkpt lat="45.10027" lon="6.005">
        <ele>733.59997558594</ele>
        <time>2024-10-15T14:17:36.000Z</time>
      </trkpt>
      <trkpt lat="45.10028" lon="6.005">
        <ele>733.59997558594</ele>
        <time>2024-10-15T14:17:37.000Z</time>
      </trkpt>
      <trkpt lat="45.10029" lon="6.005">
        <ele>733.40002441406</ele>
        <time>2024-10-15T14:17:38.000Z</time>
      </trkpt>
      <trkpt lat="45.1003" lon="6.00499">
        <ele>733.40002441406</ele>
        <time>2024-10-15T14:17:39.000Z</time>
      </trkpt>
      <trkpt lat="45.10031" lon="6.00498">
        <ele>733.40002441406</ele>
        <time>2024-10-15T14:17:40.000Z</time>
      </trkpt>
      <trkpt lat="45.10032" lon="6.00498">
        <ele>733.59997558594</ele>
        <time>2024-10-15T14:17:41.000Z</time>
      </trkpt>
      <trkpt lat="45.10033" lon="6.00497">
        <ele>733.59997558594</ele>
        <time>2024-10-15T14:17:42.000Z</time>
      </trkpt>
      <trkpt lat="45.10034" lon="6.00497">
        <ele>733.59997558594</ele>
        <time>2024-10-15T14:17:43.000Z</time>
      </trkpt>
      <trkpt lat="45.10035" lon="6.00497">
        <ele>733.59997558594</ele>
        <time>2024-10-15T14:17:44.000Z</time>
      </trkpt>
      <trkpt lat="45.10037" lon="6.00496">
        <ele>733.59997558594</ele>
        <time>2024-10-15T14:17:45.000Z</time>
      </trkpt>
      <trkpt lat="45.10039" lon="6.00496">
        <ele>733.59997558594</ele>
        <time>2024-10-15T14:17:46.000Z</time>
      </trkpt>
      <trkpt lat="45.1004" lon="6.00495">
        <ele>733.59997558594</ele>
        <time>2024-10-15T14:17:47.000Z</time>
      </trkpt>
      <trkpt lat="45.10041" lon="6.00495">
        <ele>733.59997558594</ele>
        <time>2024-10-15T14:17:48.000Z</time>
      </trkpt>
      <trkpt lat="45.10042" lon="6.00495">
        <ele>733.59997558594</ele>
        <time>2024-10-15T14:17:49.000Z</time>
      </trkpt>
      <trkpt lat="45.10043" lon="6.00494">
        <ele>733.79998779297</ele>
        <time>2024-10-15T14:17:50.000Z</time>
      </trkpt>
      <trkpt lat="45.10045" lon="6.00493">
        <ele>733.79998779297</ele>
        <time>2024-10-15T14:17:51.000Z</time>
      </trkpt>
      <trkpt lat="45.10046" lon="6.00492">
        <ele>733.79998779297</ele>
        <time>2024-10-15T14:17:52.000Z</time>
      </trkpt>
      <trkpt lat="45.10047" lon="6.00491">
        <ele>733.79998779297</ele>
        <time>2024-10-15T14:17:53.000Z</time>
      </trkpt>
      <trkpt lat="45.10049" lon="6.0049">
        <ele>734</ele>
        <time>2024-10-15T14:17:54.000Z</time>
      </trkpt>
      <trkpt lat="45.1005" lon="6.00489">
        <ele>734</ele>
        <time>2024-10-15T14:17:55.000Z</time>
      </trkpt>
      <trkpt lat="45.10051" lon="6.00489">
        <ele>734</ele>
        <time>2024-10-15T14:17:56.000Z</time>
      </trkpt>
      <trkpt lat="45.10052" lon="6.00489">
        <ele>734</ele>
        <time>2024-10-15T14:17:57.000Z</time>
      </trkpt>
      <trkpt lat="45.10053" lon="6.00488">
        <ele>734</ele>
        <time>2024-10-15T14:17:58.000Z</time>
      </trkpt>
      <trkpt lat="45.10055" lon="6.00488">
        <ele>734.20001220703</ele>
        <time>2024-10-15T14:17:59.000Z</time>
      </trkpt>
      <trkpt lat="45.10057" lon="6.00487">
        <ele>734.20001220703</ele>
        <time>2024-10-15T14:18:00.000Z</time>
      </trkpt>
      <trkpt lat="45.10058" lon="6.00486">
        <ele>734.20001220703</ele>
        <time>2024-10-15T14:18:01.000Z</time>
      </trkpt>
      <trkpt lat="45.10059" lon="6.00485">
        <ele>734.20001220703</ele>
        <time>2024-10-15T14:18:02.000Z</time>
      </trkpt>
      <trkpt lat="45.1006" lon="6.00484">
        <ele>734.20001220703</ele>
        <time>2024-10-15T14:18:03.000Z</time>
      </trkpt>
      <trkpt lat="45.10061" lon="6.00484">
        <ele>734.20001220703</ele>
        <time>2024-10-15T14:18:04.000Z</time>
      </trkpt>
      <trkpt lat="45.10062" lon="6.00483">
        <ele>734.40002441406</ele>
        <time>2024-10-15T14:18:05.000Z</time>
      </trkpt>
      <trkpt lat="45.10064" lon="6.00483">
        <ele>734.59997558594</ele>
        <time>2024-10-15T14:18:06.000Z</time>
      </trkpt>
      <trkpt lat="45.10065" lon="6.00483">
        <ele>734.59997558594</ele>
        <time>2024-10-15T14:18:07.000Z</time>
      </trkpt>
      <trkpt lat="45.10066" lon="6.00483">
        <ele>734.59997558594</ele>
        <time>2024-10-15T14:18:08.000Z</time>
      </trkpt>
      <trkpt lat="45.10067" lon="6.00483">
        <ele>734.79998779297</ele>
        <time>2024-10-15T14:18:09.000Z</time>
      </trkpt>
      <trkpt lat="45.10069" lon="6.00484">
        <ele>734.79998779297</ele>
        <time>2024-10-15T14:18:10.000Z</time>
      </trkpt>
      <trkpt lat="45.10069" lon="6.00482">
        <ele>734.79998779297</ele>
        <time>2024-10-15T14:18:11.000Z</time>
      </trkpt>
      <trkpt lat="45.1007" lon="6.00482">
        <ele>734.79998779297</ele>
        <time>2024-10-15T14:18:12.000Z</time>
      </trkpt>
      <trkpt lat="45.10071" lon="6.00482">
        <ele>735</ele>
        <time>2024-10-15T14:18:13.000Z</time>
      </trkpt>
      <trkpt lat="45.10072" lon="6.00481">
        <ele>735</ele>
        <time>2024-10-15T14:18:14.000Z</time>
      </trkpt>
      <trkpt lat="45.10074" lon="6.00479">
        <ele>735</ele>
        <time>2024-10-15T14:18:15.000Z</time>
      </trkpt>
      <trkpt lat="45.10076" lon="6.00478">
        <ele>735.20001220703</ele>
        <time>2024-10-15T14:18:16.000Z</time>
      </trkpt>
      <trkpt lat="45.10076" lon="6.00478">
        <ele>735.20001220703</ele>
        <time>2024-10-15T14:18:17.000Z</time>
      </trkpt>
      <trkpt lat="45.10077" lon="6.00477">
        <ele>735.20001220703</ele>
        <time>2024-10-15T14:18:18.000Z</time>
      </trkpt>
      <trkpt lat="45.10078" lon="6.00478">
        <ele>735.40002441406</ele>
        <time>2024-10-15T14:18:19.000Z</time>
      </trkpt>
      <trkpt lat="45.1008" lon="6.00478">
        <ele>735.40002441406</ele>
        <time>2024-10-15T14:18:20.000Z</time>
      </trkpt>
      <trkpt lat="45.10081" lon="6.00478">
        <ele>735.59997558594</ele>
        <time>2024-10-15T14:18:21.000Z</time>
      </trkpt>
      <trkpt lat="45.10082" lon="6.00479">
        <ele>735.59997558594</ele>
        <time>2024-10-15T14:18:22.000Z</time>
      </trkpt>
      <trkpt lat="45.10083" lon="6.00479">
        <ele>735.59997558594</ele>
        <time>2024-10-15T14:18:23.000Z</time>
      </trkpt>
      <trkpt lat="45.10084" lon="6.00479">
        <ele>735.79998779297</ele>
        <time>2024-10-15T14:18:24.000Z</time>
      </trkpt>
      <trkpt lat="45.10085" lon="6.00479">
        <ele>735.79998779297</ele>
        <time>2024-10-15T14:18:25.000Z</time>
      </trkpt>
      <trkpt lat="45.10087" lon="6.00479">
        <ele>736</ele>
        <time>2024-10-15T14:18:26.000Z</time>
      </trkpt>
      <trkpt lat="45.10088" lon="6.00478">
        <ele>736</ele>
        <time>2024-10-15T14:18:27.000Z</time>
      </trkpt>
      <trkpt lat="45.10089" lon="6.00478">
        <ele>736</ele>
        <time>2024-10-15T14:18:28.000Z</time>
      </trkpt>
      <trkpt lat="45.10089" lon="6.00478">
        <ele>736</ele>
        <time>2024-10-15T14:18:29.000Z</time>
      </trkpt>
      <trkpt lat="45.1009" lon="6.00477">
        <ele>736</ele>
        <time>2024-10-15T14:18:30.000Z</time>
      </trkpt>
      <trkpt lat="45.10091" lon="6.00476">
        <ele>736</ele>
        <time>2024-10-15T14:18:31.000Z</time>
      </trkpt>
      <trkpt lat="45.10092" lon="6.00474">
        <ele>736</ele>
        <time>2024-10-15T14:18:32.000Z</time>
      </trkpt>
      <trkpt lat="45.10094" lon="6.00473">
        <ele>736</ele>
        <time>2024-10-15T14:18:33.000Z</time>
      </trkpt>
      <trkpt lat="45.10096" lon="6.00472">
        <ele>736</ele>
        <time>2024-10-15T14:18:34.000Z</time>
      </trkpt>
      <trkpt lat="45.10097" lon="6.00472">
        <ele>736</ele>
        <time>2024-10-15T14:18:35.000Z</time>
      </trkpt>
      <trkpt lat="45.101" lon="6.00471">
        <ele>736</ele>
        <time>2024-10-15T14:18:36.000Z</time>
      </trkpt>
      <trkpt lat="45.10101" lon="6.0047">
        <ele>736</ele>
        <time>2024-10-15T14:18:37.000Z</time>
      </trkpt>
      <trkpt lat="45.10102" lon="6.00469">
        <ele>736</ele>
        <time>2024-10-15T14:18:38.000Z</time>
      </trkpt>
      <trkpt lat="45.10103" lon="6.00468">
        <ele>736</ele>
        <time>2024-10-15T14:18:39.000Z</time>
      </trkpt>
      <trkpt lat="45.10105" lon="6.00467">
        <ele>736</ele>
        <time>2024-10-15T14:18:40.000Z</time>
      </trkpt>
      <trkpt lat="45.10106" lon="6.00467">
        <ele>736</ele>
        <time>2024-10-15T14:18:41.000Z</time>
      </trkpt>
      <trkpt lat="45.10107" lon="6.00466">
        <ele>736</ele>
        <time>2024-10-15T14:18:42.000Z</time>
      </trkpt>
      <trkpt lat="45.10109" lon="6.00465">
        <ele>736</ele>
        <time>2024-10-15T14:18:43.000Z</time>
      </trkpt>
      <trkpt lat="45.10111" lon="6.00465">
        <ele>736</ele>
        <time>2024-10-15T14:18:44.000Z</time>
      </trkpt>
      <trkpt lat="45.10112" lon="6.00466">
        <ele>736</ele>
        <time>2024-10-15T14:18:45.000Z</time>
      </trkpt>
      <trkpt lat="45.10113" lon="6.00466">
        <ele>736</ele>
        <time>2024-10-15T14:18:46.000Z</time>
      </trkpt>
      <trkpt lat="45.10114" lon="6.00465">
        <ele>736</ele>
        <time>2024-10-15T14:18:47.000Z</time>
      </trkpt>
      <trkpt lat="45.10115" lon="6.00464">
        <ele>736</ele>
        <time>2024-10-15T14:18:48.000Z</time>
      </trkpt>
      <trkpt lat="45.10116" lon="6.00464">
        <ele>736</ele>
        <time>2024-10-15T14:18:49.000Z</time>
      </trkpt>
      <trkpt lat="45.10117" lon="6.00463">
        <ele>736</ele>
        <time>2024-10-15T14:18:50.000Z</time>
      </trkpt>
      <trkpt lat="45.10118" lon="6.00463">
        <ele>736</ele>
        <time>2024-10-15T14:18:51.000Z</time>
      </trkpt>
      <trkpt lat="45.10119" lon="6.00463">
        <ele>736</ele>
        <time>2024-10-15T14:18:52.000Z</time>
      </trkpt>
      <trkpt lat="45.1012" lon="6.00463">
        <ele>736</ele>
        <time>2024-10-15T14:18:53.000Z</time>
      </trkpt>
      <trkpt lat="45.10121" lon="6.00462">
        <ele>736</ele>
        <time>2024-10-15T14:18:54.000Z</time>
      </trkpt>
      <trkpt lat="45.10123" lon="6.00462">
        <ele>736</ele>
        <time>2024-10-15T14:18:55.000Z</time>
      </trkpt>
      <trkpt lat="45.10124" lon="6.00461">
        <ele>736</ele>
        <time>2024-10-15T14:18:56.000Z</time>
      </trkpt>
      <trkpt lat="45.10125" lon="6.0046">
        <ele>736</ele>
        <time>2024-10-15T14:18:57.000Z</time>
      </trkpt>
      <trkpt lat="45.10126" lon="6.0046">
        <ele>736</ele>
        <time>2024-10-15T14:18:58.000Z</time>
      </trkpt>
      <trkpt lat="45.10127" lon="6.00459">
        <ele>736</ele>
        <time>2024-10-15T14:18:59.000Z</time>
      </trkpt>
      <trkpt lat="45.10127" lon="6.00459">
        <ele>736</ele>
        <time>2024-10-15T14:19:00.000Z</time>
      </trkpt>
      <trkpt lat="45.10129" lon="6.00458">
        <ele>736</ele>
        <time>2024-10-15T14:19:01.000Z</time>
      </trkpt>
      <trkpt lat="45.10129" lon="6.00458">
        <ele>736</ele>
        <time>2024-10-15T14:19:02.000Z</time>
      </trkpt>
      <trkpt lat="45.1013" lon="6.00457">
        <ele>736.20001220703</ele>
        <time>2024-10-15T14:19:03.000Z</time>
      </trkpt>
      <trkpt lat="45.10131" lon="6.00456">
        <ele>736.20001220703</ele>
        <time>2024-10-15T14:19:04.000Z</time>
      </trkpt>
      <trkpt lat="45.10132" lon="6.00455">
        <ele>736.20001220703</ele>
        <time>2024-10-15T14:19:05.000Z</time>
      </trkpt>
      <trkpt lat="45.10133" lon="6.00454">
        <ele>736.20001220703</ele>
        <time>2024-10-15T14:19:06.000Z</time>
      </trkpt>
      <trkpt lat="45.10134" lon="6.00452">
        <ele>736.20001220703</ele>
        <time>2024-10-15T14:19:07.000Z</time>
      </trkpt>
      <trkpt lat="45.10135" lon="6.00451">
        <ele>736.20001220703</ele>
        <time>2024-10-15T14:19:08.000Z</time>
      </trkpt>
      <trkpt lat="45.10137" lon="6.0045">
        <ele>736.20001220703</ele>
        <time>2024-10-15T14:19:09.000Z</time>
      </trkpt>
      <trkpt lat="45.10138" lon="6.0045">
        <ele>736.20001220703</ele>
        <time>2024-10-15T14:19:10.000Z</time>
      </trkpt>
      <trkpt lat="45.10139" lon="6.00448">
        <ele>736.20001220703</ele>
        <time>2024-10-15T14:19:11.000Z</time>
      </trkpt>
      <trkpt lat="45.1014" lon="6.00446">
        <ele>736.20001220703</ele>
        <time>2024-10-15T14:19:12.000Z</time>
      </trkpt>
      <trkpt lat="45.10141" lon="6.00445">
        <ele>736.20001220703</ele>
        <time>2024-10-15T14:19:13.000Z</time>
      </trkpt>
      <trkpt lat="45.10141" lon="6.00444">
        <ele>736.20001220703</ele>
        <time>2024-10-15T14:19:14.000Z</time>
      </trkpt>
      <trkpt lat="45.10142" lon="6.00443">
        <ele>736.20001220703</ele>
        <time>2024-10-15T14:19:15.000Z</time>
      </trkpt>
      <trkpt lat="45.10142" lon="6.00442">
        <ele>736.20001220703</ele>
        <time>2024-10-15T14:19:16.000Z</time>
      </trkpt>
      <trkpt lat="45.10144" lon="6.00441">
        <ele>736.20001220703</ele>
        <time>2024-10-15T14:19:17.000Z</time>
      </trkpt>
      <trkpt lat="45.10144" lon="6.0044">
        <ele>736.20001220703</ele>
        <time>2024-10-15T14:19:18.000Z</time>
      </trkpt>
      <trkpt lat="45.10145" lon="6.0044">
        <ele>736.20001220703</ele>
        <time>2024-10-15T14:19:19.000Z</time>
      </trkpt>
      <trkpt lat="45.10146" lon="6.00439">
        <ele>736.20001220703</ele>
        <time>2024-10-15T14:19:20.000Z</time>
      </trkpt>
      <trkpt lat="45.10148" lon="6.00438">
        <ele>736</ele>
        <time>2024-10-15T14:19:21.000Z</time>
      </trkpt>
      <trkpt lat="45.10149" lon="6.00436">
        <ele>736</ele>
        <time>2024-10-15T14:19:22.000Z</time>
      </trkpt>
      <trkpt lat="45.10151" lon="6.00435">
        <ele>736</ele>
        <time>2024-10-15T14:19:23.000Z</time>
      </trkpt>
      <trkpt lat="45.10152" lon="6.00434">
        <ele>736</ele>
        <time>2024-10-15T14:19:24.000Z</time>
      </trkpt>
      <trkpt lat="45.10153" lon="6.00433">
        <ele>735.79998779297</ele>
        <time>2024-10-15T14:19:25.000Z</time>
      </trkpt>
      <trkpt lat="45.10154" lon="6.00432">
        <ele>735.79998779297</ele>
        <time>2024-10-15T14:19:26.000Z</time>
      </trkpt>
      <trkpt lat="45.10156" lon="6.00431">
        <ele>735.79998779297</ele>
        <time>2024-10-15T14:19:27.000Z</time>
      </trkpt>
      <trkpt lat="45.10157" lon="6.0043">
        <ele>735.79998779297</ele>
        <time>2024-10-15T14:19:28.000Z</time>
      </trkpt>
      <trkpt lat="45.10158" lon="6.00429">
        <ele>735.79998779297</ele>
        <time>2024-10-15T14:19:29.000Z</time>
      </trkpt>
      <trkpt lat="45.1016" lon="6.00426">
        <ele>735.79998779297</ele>
        <time>2024-10-15T14:19:30.000Z</time>
      </trkpt>
      <trkpt lat="45.10161" lon="6.00423">
        <ele>735.79998779297</ele>
        <time>2024-10-15T14:19:31.000Z</time>
      </trkpt>
      <trkpt lat="45.10162" lon="6.00421">
        <ele>735.59997558594</ele>
        <time>2024-10-15T14:19:32.000Z</time>
      </trkpt>
      <trkpt lat="45.10163" lon="6.00419">
        <ele>735.59997558594</ele>
        <time>2024-10-15T14:19:33.000Z</time>
      </trkpt>
      <trkpt lat="45.10164" lon="6.00418">
        <ele>735.59997558594</ele>
        <time>2024-10-15T14:19:34.000Z</time>
      </trkpt>
      <trkpt lat="45.10165" lon="6.00418">
        <ele>735.59997558594</ele>
        <time>2024-10-15T14:19:35.000Z</time>
      </trkpt>
      <trkpt lat="45.10166" lon="6.00418">
        <ele>735.59997558594</ele>
        <time>2024-10-15T14:19:36.000Z</time>
      </trkpt>
      <trkpt lat="45.10167" lon="6.00417">
        <ele>735.40002441406</ele>
        <time>2024-10-15T14:19:37.000Z</time>
      </trkpt>
      <trkpt lat="45.10168" lon="6.00417">
        <ele>735.20001220703</ele>
        <time>2024-10-15T14:19:38.000Z</time>
      </trkpt>
      <trkpt lat="45.10169" lon="6.00417">
        <ele>735.20001220703</ele>
        <time>2024-10-15T14:19:39.000Z</time>
      </trkpt>
      <trkpt lat="45.10169" lon="6.00416">
        <ele>735</ele>
        <time>2024-10-15T14:19:40.000Z</time>
      </trkpt>
      <trkpt lat="45.10171" lon="6.00415">
        <ele>735</ele>
        <time>2024-10-15T14:19:41.000Z</time>
      </trkpt>
      <trkpt lat="45.10172" lon="6.00415">
        <ele>734.79998779297</ele>
        <time>2024-10-15T14:19:42.000Z</time>
      </trkpt>
      <trkpt lat="45.10173" lon="6.00415">
        <ele>734.79998779297</ele>
        <time>2024-10-15T14:19:43.000Z</time>
      </trkpt>
      <trkpt lat="45.10174" lon="6.00414">
        <ele>734.79998779297</ele>
        <time>2024-10-15T14:19:44.000Z</time>
      </trkpt>
      <trkpt lat="45.10174" lon="6.00412">
        <ele>734.79998779297</ele>
        <time>2024-10-15T14:19:45.000Z</time>
      </trkpt>
      <trkpt lat="45.10176" lon="6.00409">
        <ele>734.79998779297</ele>
        <time>2024-10-15T14:19:46.000Z</time>
      </trkpt>
      <trkpt lat="45.10177" lon="6.00407">
        <ele>734.79998779297</ele>
        <time>2024-10-15T14:19:47.000Z</time>
      </trkpt>
      <trkpt lat="45.10178" lon="6.00406">
        <ele>734.79998779297</ele>
        <time>2024-10-15T14:19:48.000Z</time>
      </trkpt>
      <trkpt lat="45.10179" lon="6.00405">
        <ele>734.59997558594</ele>
        <time>2024-10-15T14:19:49.000Z</time>
      </trkpt>
      <trkpt lat="45.1018" lon="6.00405">
        <ele>734.59997558594</ele>
        <time>2024-10-15T14:19:50.000Z</time>
      </trkpt>
      <trkpt lat="45.10181" lon="6.00403">
        <ele>734.40002441406</ele>
        <time>2024-10-15T14:19:51.000Z</time>
      </trkpt>
      <trkpt lat="45.10182" lon="6.00402">
        <ele>734.40002441406</ele>
        <time>2024-10-15T14:19:52.000Z</time>
      </trkpt>
      <trkpt lat="45.10182" lon="6.00402">
        <ele>734.40002441406</ele>
        <time>2024-10-15T14:19:53.000Z</time>
      </trkpt>
      <trkpt lat="45.10183" lon="6.00401">
        <ele>734.20001220703</ele>
        <time>2024-10-15T14:19:54.000Z</time>
      </trkpt>
      <trkpt lat="45.10185" lon="6.004">
        <ele>734</ele>
        <time>2024-10-15T14:19:55.000Z</time>
      </trkpt>
      <trkpt lat="45.10185" lon="6.00399">
        <ele>734</ele>
        <time>2024-10-15T14:19:56.000Z</time>
      </trkpt>
      <trkpt lat="45.10186" lon="6.00398">
        <ele>734</ele>
        <time>2024-10-15T14:19:57.000Z</time>
      </trkpt>
      <trkpt lat="45.10187" lon="6.00397">
        <ele>734</ele>
        <time>2024-10-15T14:19:58.000Z</time>
      </trkpt>
      <trkpt lat="45.10189" lon="6.00397">
        <ele>734</ele>
        <time>2024-10-15T14:19:59.000Z</time>
      </trkpt>
      <trkpt lat="45.1019" lon="6.00397">
        <ele>734</ele>
        <time>2024-10-15T14:20:00.000Z</time>
      </trkpt>
      <trkpt lat="45.10192" lon="6.00397">
        <ele>733.79998779297</ele>
        <time>2024-10-15T14:20:01.000Z</time>
      </trkpt>
      <trkpt lat="45.10194" lon="6.00395">
        <ele>733.79998779297</ele>
        <time>2024-10-15T14:20:02.000Z</time>
      </trkpt>
      <trkpt lat="45.10196" lon="6.00393">
        <ele>733.79998779297</ele>
        <time>2024-10-15T14:20:03.000Z</time>
      </trkpt>
      <trkpt lat="45.10197" lon="6.00393">
        <ele>733.59997558594</ele>
        <time>2024-10-15T14:20:04.000Z</time>
      </trkpt>
      <trkpt lat="45.10199" lon="6.00393">
        <ele>733.59997558594</ele>
        <time>2024-10-15T14:20:05.000Z</time>
      </trkpt>
      <trkpt lat="45.10199" lon="6.00393">
        <ele>733.40002441406</ele>
        <time>2024-10-15T14:20:06.000Z</time>
      </trkpt>
      <trkpt lat="45.102" lon="6.00391">
        <ele>733.40002441406</ele>
        <time>2024-10-15T14:20:07.000Z</time>
      </trkpt>
      <trkpt lat="45.10201" lon="6.00389">
        <ele>733.20001220703</ele>
        <time>2024-10-15T14:20:08.000Z</time>
      </trkpt>
      <trkpt lat="45.10202" lon="6.00388">
        <ele>733.20001220703</ele>
        <time>2024-10-15T14:20:09.000Z</time>
      </trkpt>
      <trkpt lat="45.10203" lon="6.00388">
        <ele>733</ele>
        <time>2024-10-15T14:20:10.000Z</time>
      </trkpt>
      <trkpt lat="45.10204" lon="6.00387">
        <ele>733</ele>
        <time>2024-10-15T14:20:11.000Z</time>
      </trkpt>
      <trkpt lat="45.10205" lon="6.00385">
        <ele>733</ele>
        <time>2024-10-15T14:20:12.000Z</time>
      </trkpt>
      <trkpt lat="45.10206" lon="6.00384">
        <ele>732.79998779297</ele>
        <time>2024-10-15T14:20:13.000Z</time>
      </trkpt>
      <trkpt lat="45.10207" lon="6.00383">
        <ele>732.59997558594</ele>
        <time>2024-10-15T14:20:14.000Z</time>
      </trkpt>
      <trkpt lat="45.10209" lon="6.00382">
        <ele>732.59997558594</ele>
        <time>2024-10-15T14:20:15.000Z</time>
      </trkpt>
      <trkpt lat="45.10209" lon="6.00381">
        <ele>732.40002441406</ele>
        <time>2024-10-15T14:20:16.000Z</time>
      </trkpt>
      <trkpt lat="45.10211" lon="6.0038">
        <ele>732.40002441406</ele>
        <time>2024-10-15T14:20:17.000Z</time>
      </trkpt>
      <trkpt lat="45.10212" lon="6.00379">
        <ele>732.20001220703</ele>
        <time>2024-10-15T14:20:18.000Z</time>
      </trkpt>
      <trkpt lat="45.10214" lon="6.00378">
        <ele>732</ele>
        <time>2024-10-15T14:20:19.000Z</time>
      </trkpt>
      <trkpt lat="45.10215" lon="6.00377">
        <ele>732</ele>
        <time>2024-10-15T14:20:20.000Z</time>
      </trkpt>
      <trkpt lat="45.10217" lon="6.00377">
        <ele>732</ele>
        <time>2024-10-15T14:20:21.000Z</time>
      </trkpt>
      <trkpt lat="45.10219" lon="6.00376">
        <ele>732</ele>
        <time>2024-10-15T14:20:22.000Z</time>
      </trkpt>
      <trkpt lat="45.1022" lon="6.00376">
        <ele>731.79998779297</ele>
        <time>2024-10-15T14:20:23.000Z</time>
      </trkpt>
      <trkpt lat="45.10221" lon="6.00376">
        <ele>731.59997558594</ele>
        <time>2024-10-15T14:20:24.000Z</time>
      </trkpt>
      <trkpt lat="45.10222" lon="6.00374">
        <ele>731.59997558594</ele>
        <time>2024-10-15T14:20:25.000Z</time>
      </trkpt>
      <trkpt lat="45.10224" lon="6.00372">
        <ele>731.40002441406</ele>
        <time>2024-10-15T14:20:26.000Z</time>
      </trkpt>
      <trkpt lat="45.10225" lon="6.00371">
        <ele>731.40002441406</ele>
        <time>2024-10-15T14:20:27.000Z</time>
      </trkpt>
      <trkpt lat="45.10225" lon="6.00371">
        <ele>731.20001220703</ele>
        <time>2024-10-15T14:20:28.000Z</time>
      </trkpt>
      <trkpt lat="45.10226" lon="6.0037">
        <ele>731</ele>
        <time>2024-10-15T14:20:29.000Z</time>
      </trkpt>
      <trkpt lat="45.10228" lon="6.00369">
        <ele>731</ele>
        <time>2024-10-15T14:20:30.000Z</time>
      </trkpt>
      <trkpt lat="45.10228" lon="6.00368">
        <ele>730.79998779297</ele>
        <time>2024-10-15T14:20:31.000Z</time>
      </trkpt>
      <trkpt lat="45.10229" lon="6.00367">
        <ele>730.79998779297</ele>
        <time>2024-10-15T14:20:32.000Z</time>
      </trkpt>
      <trkpt lat="45.10231" lon="6.00365">
        <ele>730.79998779297</ele>
        <time>2024-10-15T14:20:33.000Z</time>
      </trkpt>
      <trkpt lat="45.10232" lon="6.00363">
        <ele>730.59997558594</ele>
        <time>2024-10-15T14:20:34.000Z</time>
      </trkpt>
      <trkpt lat="45.10234" lon="6.00363">
        <ele>730.59997558594</ele>
        <time>2024-10-15T14:20:35.000Z</time>
      </trkpt>
      <trkpt lat="45.10235" lon="6.00364">
        <ele>730.40002441406</ele>
        <time>2024-10-15T14:20:36.000Z</time>
      </trkpt>
      <trkpt lat="45.10236" lon="6.00364">
        <ele>730</ele>
        <time>2024-10-15T14:20:37.000Z</time>
      </trkpt>
      <trkpt lat="45.10238" lon="6.00363">
        <ele>730</ele>
        <time>2024-10-15T14:20:38.000Z</time>
      </trkpt>
      <trkpt lat="45.1024" lon="6.00362">
        <ele>730</ele>
        <time>2024-10-15T14:20:39.000Z</time>
      </trkpt>
      <trkpt lat="45.10242" lon="6.00361">
        <ele>730</ele>
        <time>2024-10-15T14:20:40.000Z</time>
      </trkpt>
      <trkpt lat="45.10243" lon="6.00362">
        <ele>729.79998779297</ele>
        <time>2024-10-15T14:20:41.000Z</time>
      </trkpt>
      <trkpt lat="45.10243" lon="6.00362">
        <ele>729.79998779297</ele>
        <time>2024-10-15T14:20:42.000Z</time>
      </trkpt>
      <trkpt lat="45.10244" lon="6.00361">
        <ele>729.59997558594</ele>
        <time>2024-10-15T14:20:43.000Z</time>
      </trkpt>
      <trkpt lat="45.10246" lon="6.00359">
        <ele>729.59997558594</ele>
        <time>2024-10-15T14:20:44.000Z</time>
      </trkpt>
      <trkpt lat="45.10247" lon="6.00358">
        <ele>729.40002441406</ele>
        <time>2024-10-15T14:20:45.000Z</time>
      </trkpt>
      <trkpt lat="45.10248" lon="6.00357">
        <ele>729.40002441406</ele>
        <time>2024-10-15T14:20:46.000Z</time>
      </trkpt>
      <trkpt lat="45.10249" lon="6.00357">
        <ele>729.20001220703</ele>
        <time>2024-10-15T14:20:47.000Z</time>
      </trkpt>
      <trkpt lat="45.1025" lon="6.00357">
        <ele>729.20001220703</ele>
        <time>2024-10-15T14:20:48.000Z</time>
      </trkpt>
      <trkpt lat="45.10251" lon="6.00357">
        <ele>729</ele>
        <time>2024-10-15T14:20:49.000Z</time>
      </trkpt>
      <trkpt lat="45.10252" lon="6.00357">
        <ele>729</ele>
        <time>2024-10-15T14:20:50.000Z</time>
      </trkpt>
      <trkpt lat="45.10253" lon="6.00355">
        <ele>729</ele>
        <time>2024-10-15T14:20:51.000Z</time>
      </trkpt>
      <trkpt lat="45.10254" lon="6.00354">
        <ele>728.79998779297</ele>
        <time>2024-10-15T14:20:52.000Z</time>
      </trkpt>
      <trkpt lat="45.10255" lon="6.00353">
        <ele>728.79998779297</ele>
        <time>2024-10-15T14:20:53.000Z</time>
      </trkpt>
      <trkpt lat="45.10255" lon="6.00352">
        <ele>728.79998779297</ele>
        <time>2024-10-15T14:20:54.000Z</time>
      </trkpt>
      <trkpt lat="45.10256" lon="6.00351">
        <ele>728.79998779297</ele>
        <time>2024-10-15T14:20:55.000Z</time>
      </trkpt>
      <trkpt lat="45.10256" lon="6.00351">
        <ele>728.59997558594</ele>
        <time>2024-10-15T14:20:56.000Z</time>
      </trkpt>
      <trkpt lat="45.10257" lon="6.0035">
        <ele>728.59997558594</ele>
        <time>2024-10-15T14:20:57.000Z</time>
      </trkpt>
      <trkpt lat="45.10258" lon="6.00351">
        <ele>728.40002441406</ele>
        <time>2024-10-15T14:20:58.000Z</time>
      </trkpt>
      <trkpt lat="45.1026" lon="6.0035">
        <ele>728.40002441406</ele>
        <time>2024-10-15T14:20:59.000Z</time>
      </trkpt>
      <trkpt lat="45.10261" lon="6.00349">
        <ele>728.40002441406</ele>
        <time>2024-10-15T14:21:00.000Z</time>
      </trkpt>
      <trkpt lat="45.10262" lon="6.00348">
        <ele>728.20001220703</ele>
        <time>2024-10-15T14:21:01.000Z</time>
      </trkpt>
      <trkpt lat="45.10263" lon="6.00347">
        <ele>728.20001220703</ele>
        <time>2024-10-15T14:21:02.000Z</time>
      </trkpt>
      <trkpt lat="45.10264" lon="6.00346">
        <ele>728.20001220703</ele>
        <time>2024-10-15T14:21:03.000Z</time>
      </trkpt>
      <trkpt lat="45.10264" lon="6.00347">
        <ele>728</ele>
        <time>2024-10-15T14:21:04.000Z</time>
      </trkpt>
      <trkpt lat="45.10265" lon="6.00346">
        <ele>728</ele>
        <time>2024-10-15T14:21:05.000Z</time>
      </trkpt>
      <trkpt lat="45.10266" lon="6.00346">
        <ele>728</ele>
        <time>2024-10-15T14:21:06.000Z</time>
      </trkpt>
      <trkpt lat="45.10268" lon="6.00345">
        <ele>727.79998779297</ele>
        <time>2024-10-15T14:21:07.000Z</time>
      </trkpt>
      <trkpt lat="45.10268" lon="6.00344">
        <ele>727.79998779297</ele>
        <time>2024-10-15T14:21:08.000Z</time>
      </trkpt>
      <trkpt lat="45.10269" lon="6.00343">
        <ele>727.59997558594</ele>
        <time>2024-10-15T14:21:09.000Z</time>
      </trkpt>
      <trkpt lat="45.10271" lon="6.00341">
        <ele>727.59997558594</ele>
        <time>2024-10-15T14:21:10.000Z</time>
      </trkpt>
      <trkpt lat="45.10272" lon="6.0034">
        <ele>727.59997558594</ele>
        <time>2024-10-15T14:21:11.000Z</time>
      </trkpt>
      <trkpt lat="45.10273" lon="6.0034">
        <ele>727.59997558594</ele>
        <time>2024-10-15T14:21:12.000Z</time>
      </trkpt>
      <trkpt lat="45.10275" lon="6.00339">
        <ele>727.40002441406</ele>
        <time>2024-10-15T14:21:13.000Z</time>
      </trkpt>
      <trkpt lat="45.10276" lon="6.00339">
        <ele>727.40002441406</ele>
        <time>2024-10-15T14:21:14.000Z</time>
      </trkpt>
      <trkpt lat="45.10277" lon="6.00339">
        <ele>727.20001220703</ele>
        <time>2024-10-15T14:21:15.000Z</time>
      </trkpt>
      <trkpt lat="45.10278" lon="6.00338">
        <ele>727.20001220703</ele>
        <time>2024-10-15T14:21:16.000Z</time>
      </trkpt>
      <trkpt lat="45.1028" lon="6.00338">
        <ele>727.20001220703</ele>
        <time>2024-10-15T14:21:17.000Z</time>
      </trkpt>
      <trkpt lat="45.10281" lon="6.00338">
        <ele>727.20001220703</ele>
        <time>2024-10-15T14:21:18.000Z</time>
      </trkpt>
      <trkpt lat="45.10283" lon="6.00337">
        <ele>727.20001220703</ele>
        <time>2024-10-15T14:21:19.000Z</time>
      </trkpt>
      <trkpt lat="45.10284" lon="6.00338">
        <ele>727</ele>
        <time>2024-10-15T14:21:20.000Z</time>
      </trkpt>
      <trkpt lat="45.10285" lon="6.00338">
        <ele>727</ele>
        <time>2024-10-15T14:21:21.000Z</time>
      </trkpt>
      <trkpt lat="45.10286" lon="6.00338">
        <ele>727</ele>
        <time>2024-10-15T14:21:22.000Z</time>
      </trkpt>
      <trkpt lat="45.10287" lon="6.00338">
        <ele>727</ele>
        <time>2024-10-15T14:21:23.000Z</time>
      </trkpt>
      <trkpt lat="45.10288" lon="6.00339">
        <ele>727</ele>
        <time>2024-10-15T14:21:24.000Z</time>
      </trkpt>
      <trkpt lat="45.1029" lon="6.0034">
        <ele>727</ele>
        <time>2024-10-15T14:21:25.000Z</time>
      </trkpt>
      <trkpt lat="45.10292" lon="6.0034">
        <ele>727</ele>
        <time>2024-10-15T14:21:26.000Z</time>
      </trkpt>
      <trkpt lat="45.10293" lon="6.00341">
        <ele>726.79998779297</ele>
        <time>2024-10-15T14:21:27.000Z</time>
      </trkpt>
      <trkpt lat="45.10294" lon="6.00341">
        <ele>726.79998779297</ele>
        <time>2024-10-15T14:21:28.000Z</time>
      </trkpt>
      <trkpt lat="45.10295" lon="6.0034">
        <ele>726.79998779297</ele>
        <time>2024-10-15T14:21:29.000Z</time>
      </trkpt>
      <trkpt lat="45.10295" lon="6.0034">
        <ele>726.79998779297</ele>
        <time>2024-10-15T14:21:30.000Z</time>
      </trkpt>
      <trkpt lat="45.10296" lon="6.00339">
        <ele>726.79998779297</ele>
        <time>2024-10-15T14:21:31.000Z</time>
      </trkpt>
      <trkpt lat="45.10297" lon="6.0034">
        <ele>726.79998779297</ele>
        <time>2024-10-15T14:21:32.000Z</time>
      </trkpt>
      <trkpt lat="45.10298" lon="6.0034">
        <ele>726.79998779297</ele>
        <time>2024-10-15T14:21:33.000Z</time>
      </trkpt>
      <trkpt lat="45.10299" lon="6.0034">
        <ele>726.79998779297</ele>
        <time>2024-10-15T14:21:34.000Z</time>
      </trkpt>
      <trkpt lat="45.10301" lon="6.00339">
        <ele>726.59997558594</ele>
        <time>2024-10-15T14:21:35.000Z</time>
      </trkpt>
      <trkpt lat="45.10302" lon="6.00338">
        <ele>726.59997558594</ele>
        <time>2024-10-15T14:21:36.000Z</time>
      </trkpt>
      <trkpt lat="45.10303" lon="6.00338">
        <ele>726.59997558594</ele>
        <time>2024-10-15T14:21:37.000Z</time>
      </trkpt>
      <trkpt lat="45.10304" lon="6.00338">
        <ele>726.59997558594</ele>
        <time>2024-10-15T14:21:38.000Z</time>
      </trkpt>
      <trkpt lat="45.10305" lon="6.00338">
        <ele>726.59997558594</ele>
        <time>2024-10-15T14:21:39.000Z</time>
      </trkpt>
      <trkpt lat="45.10306" lon="6.00338">
        <ele>726.59997558594</ele>
        <time>2024-10-15T14:21:40.000Z</time>
      </trkpt>
      <trkpt lat="45.10308" lon="6.00338">
        <ele>726.59997558594</ele>
        <time>2024-10-15T14:21:41.000Z</time>
      </trkpt>
      <trkpt lat="45.1031" lon="6.00339">
        <ele>726.59997558594</ele>
        <time>2024-10-15T14:21:42.000Z</time>
      </trkpt>
      <trkpt lat="45.10311" lon="6.00338">
        <ele>726.59997558594</ele>
        <time>2024-10-15T14:21:43.000Z</time>
      </trkpt>
      <trkpt lat="45.10312" lon="6.00338">
        <ele>726.79998779297</ele>
        <time>2024-10-15T14:21:44.000Z</time>
      </trkpt>
      <trkpt lat="45.10313" lon="6.00338">
        <ele>726.79998779297</ele>
        <time>2024-10-15T14:21:45.000Z</time>
      </trkpt>
      <trkpt lat="45.10314" lon="6.00337">
        <ele>726.79998779297</ele>
        <time>2024-10-15T14:21:46.000Z</time>
      </trkpt>
      <trkpt lat="45.10314" lon="6.00337">
        <ele>726.79998779297</ele>
        <time>2024-10-15T14:21:47.000Z</time>
      </trkpt>
      <trkpt lat="45.10314" lon="6.00337">
        <ele>726.79998779297</ele>
        <time>2024-10-15T14:21:48.000Z</time>
      </trkpt>
      <trkpt lat="45.10315" lon="6.00336">
        <ele>726.79998779297</ele>
        <time>2024-10-15T14:21:49.000Z</time>
      </trkpt>
      <trkpt lat="45.10316" lon="6.00335">
        <ele>726.59997558594</ele>
        <time>2024-10-15T14:21:50.000Z</time>
      </trkpt>
      <trkpt lat="45.10318" lon="6.00334">
        <ele>726.59997558594</ele>
        <time>2024-10-15T14:21:51.000Z</time>
      </trkpt>
      <trkpt lat="45.10319" lon="6.00333">
        <ele>726.79998779297</ele>
        <time>2024-10-15T14:21:52.000Z</time>
      </trkpt>
      <trkpt lat="45.1032" lon="6.00331">
        <ele>726.79998779297</ele>
        <time>2024-10-15T14:21:53.000Z</time>
      </trkpt>
      <trkpt lat="45.1032" lon="6.0033">
        <ele>726.79998779297</ele>
        <time>2024-10-15T14:21:54.000Z</time>
      </trkpt>
      <trkpt lat="45.10322" lon="6.00329">
        <ele>726.79998779297</ele>
        <time>2024-10-15T14:21:55.000Z</time>
      </trkpt>
      <trkpt lat="45.10322" lon="6.00328">
        <ele>726.79998779297</ele>
        <time>2024-10-15T14:21:56.000Z</time>
      </trkpt>
      <trkpt lat="45.10323" lon="6.00327">
        <ele>726.79998779297</ele>
        <time>2024-10-15T14:21:57.000Z</time>
      </trkpt>
      <trkpt lat="45.10323" lon="6.00327">
        <ele>726.79998779297</ele>
        <time>2024-10-15T14:21:58.000Z</time>
      </trkpt>
      <trkpt lat="45.10324" lon="6.00329">
        <ele>727</ele>
        <time>2024-10-15T14:21:59.000Z</time>
      </trkpt>
      <trkpt lat="45.10324" lon="6.00332">
        <ele>727</ele>
        <time>2024-10-15T14:22:00.000Z</time>
      </trkpt>
      <trkpt lat="45.10324" lon="6.00332">
        <ele>727</ele>
        <time>2024-10-15T14:22:01.000Z</time>
      </trkpt>
      <trkpt lat="45.10324" lon="6.0033">
        <ele>727</ele>
        <time>2024-10-15T14:22:02.000Z</time>
      </trkpt>
      <trkpt lat="45.10325" lon="6.0033">
        <ele>727</ele>
        <time>2024-10-15T14:22:03.000Z</time>
      </trkpt>
      <trkpt lat="45.10326" lon="6.00329">
        <ele>727</ele>
        <time>2024-10-15T14:22:04.000Z</time>
      </trkpt>
      <trkpt lat="45.10327" lon="6.00328">
        <ele>726.79998779297</ele>
        <time>2024-10-15T14:22:05.000Z</time>
      </trkpt>
      <trkpt lat="45.10329" lon="6.00329">
        <ele>726.79998779297</ele>
        <time>2024-10-15T14:22:06.000Z</time>
      </trkpt>
      <trkpt lat="45.1033" lon="6.00329">
        <ele>726.79998779297</ele>
        <time>2024-10-15T14:22:07.000Z</time>
      </trkpt>
      <trkpt lat="45.10333" lon="6.0033">
        <ele>726.79998779297</ele>
        <time>2024-10-15T14:22:08.000Z</time>
      </trkpt>
      <trkpt lat="45.10334" lon="6.00329">
        <ele>726.79998779297</ele>
        <time>2024-10-15T14:22:09.000Z</time>
      </trkpt>
      <trkpt lat="45.10335" lon="6.0033">
        <ele>726.79998779297</ele>
        <time>2024-10-15T14:22:10.000Z</time>
      </trkpt>
      <trkpt lat="45.10336" lon="6.0033">
        <ele>726.79998779297</ele>
        <time>2024-10-15T14:22:11.000Z</time>
      </trkpt>
      <trkpt lat="45.10337" lon="6.0033">
        <ele>726.79998779297</ele>
        <time>2024-10-15T14:22:12.000Z</time>
      </trkpt>
      <trkpt lat="45.10337" lon="6.0033">
        <ele>726.79998779297</ele>
        <time>2024-10-15T14:22:13.000Z</time>
      </trkpt>
      <trkpt lat="45.10338" lon="6.0033">
        <ele>726.79998779297</ele>
        <time>2024-10-15T14:22:14.000Z</time>
      </trkpt>
      <trkpt lat="45.10339" lon="6.0033">
        <ele>726.79998779297</ele>
        <time>2024-10-15T14:22:15.000Z</time>
      </trkpt>
      <trkpt lat="45.1034" lon="6.0033">
        <ele>726.79998779297</ele>
        <time>2024-10-15T14:22:16.000Z</time>
      </trkpt>
      <trkpt lat="45.10341" lon="6.0033">
        <ele>726.79998779297</ele>
        <time>2024-10-15T14:22:17.000Z</time>
      </trkpt>
      <trkpt lat="45.10342" lon="6.0033">
        <ele>726.79998779297</ele>
        <time>2024-10-15T14:22:18.000Z</time>
      </trkpt>
      <trkpt lat="45.10342" lon="6.0033">
        <ele>726.79998779297</ele>
        <time>2024-10-15T14:22:19.000Z</time>
      </trkpt>
      <trkpt lat="45.10343" lon="6.0033">
        <ele>727</ele>
        <time>2024-10-15T14:22:20.000Z</time>
      </trkpt>
      <trkpt lat="45.10343" lon="6.0033">
        <ele>727</ele>
        <time>2024-10-15T14:22:21.000Z</time>
      </trkpt>
      <trkpt lat="45.10343" lon="6.0033">
        <ele>727</ele>
        <time>2024-10-15T14:22:22.000Z</time>
      </trkpt>
      <trkpt lat="45.10343" lon="6.0033">
        <ele>727</ele>
        <time>2024-10-15T14:22:23.000Z</time>
      </trkpt>
      <trkpt lat="45.10343" lon="6.00329">
        <ele>727</ele>
        <time>2024-10-15T14:22:24.000Z</time>
      </trkpt>
      <trkpt lat="45.10343" lon="6.00329">
        <ele>727</ele>
        <time>2024-10-15T14:22:25.000Z</time>
      </trkpt>
      <trkpt lat="45.10343" lon="6.00329">
        <ele>727</ele>
        <time>2024-10-15T14:22:26.000Z</time>
      </trkpt>
      <trkpt lat="45.10343" lon="6.00329">
        <ele>727</ele>
        <time>2024-10-15T14:22:27.000Z</time>
      </trkpt>
      <trkpt lat="45.10343" lon="6.00329">
        <ele>727</ele>
        <time>2024-10-15T14:22:28.000Z</time>
      </trkpt>
      <trkpt lat="45.10343" lon="6.00329">
        <ele>727</ele>
        <time>2024-10-15T14:22:29.000Z</time>
      </trkpt>
      <trkpt lat="45.10343" lon="6.0033">
        <ele>727</ele>
        <time>2024-10-15T14:22:30.000Z</time>
      </trkpt>
      <trkpt lat="45.10343" lon="6.0033">
        <ele>726.79998779297</ele>
        <time>2024-10-15T14:22:31.000Z</time>
      </trkpt>
      <trkpt lat="45.10343" lon="6.0033">
        <ele>726.79998779297</ele>
        <time>2024-10-15T14:22:32.000Z</time>
      </trkpt>
      <trkpt lat="45.10343" lon="6.0033">
        <ele>726.79998779297</ele>
        <time>2024-10-15T14:22:33.000Z</time>
      </trkpt>
      <trkpt lat="45.10343" lon="6.0033">
        <ele>726.79998779297</ele>
        <time>2024-10-15T14:22:34.000Z</time>
      </trkpt>
      <trkpt lat="45.10343" lon="6.0033">
        <ele>726.79998779297</ele>
        <time>2024-10-15T14:22:35.000Z</time>
      </trkpt>
      <trkpt lat="45.10343" lon="6.0033">
        <ele>726.79998779297</ele>
        <time>2024-10-15T14:22:36.000Z</time>
      </trkpt>
      <trkpt lat="45.10343" lon="6.0033">
        <ele>726.79998779297</ele>
        <time>2024-10-15T14:22:37.000Z</time>
      </trkpt>
      <trkpt lat="45.10343" lon="6.0033">
        <ele>726.79998779297</ele>
        <time>2024-10-15T14:22:38.000Z</time>
      </trkpt>
      <trkpt lat="45.10343" lon="6.0033">
        <ele>726.79998779297</ele>
        <time>2024-10-15T14:22:39.000Z</time>
      </trkpt>
      <trkpt lat="45.10343" lon="6.0033">
        <ele>726.79998779297</ele>
        <time>2024-10-15T14:22:40.000Z</time>
      </trkpt>
      <trkpt lat="45.10343" lon="6.00329">
        <ele>727</ele>
        <time>2024-10-15T14:22:41.000Z</time>
      </trkpt>
      <trkpt lat="45.10343" lon="6.00329">
        <ele>727</ele>
        <time>2024-10-15T14:22:42.000Z</time>
      </trkpt>
      <trkpt lat="45.10344" lon="6.00329">
        <ele>727</ele>
        <time>2024-10-15T14:22:43.000Z</time>
      </trkpt>
      <trkpt lat="45.10345" lon="6.00329">
        <ele>727</ele>
        <time>2024-10-15T14:22:44.000Z</time>
      </trkpt>
      <trkpt lat="45.10346" lon="6.0033">
        <ele>727</ele>
        <time>2024-10-15T14:22:45.000Z</time>
      </trkpt>
      <trkpt lat="45.10346" lon="6.0033">
        <ele>726.79998779297</ele>
        <time>2024-10-15T14:22:46.000Z</time>
      </trkpt>
      <trkpt lat="45.10347" lon="6.0033">
        <ele>726.79998779297</ele>
        <time>2024-10-15T14:22:47.000Z</time>
      </trkpt>
      <trkpt lat="45.10348" lon="6.0033">
        <ele>726.79998779297</ele>
        <time>2024-10-15T14:22:48.000Z</time>
      </trkpt>
      <trkpt lat="45.10349" lon="6.0033">
        <ele>726.59997558594</ele>
        <time>2024-10-15T14:22:49.000Z</time>
      </trkpt>
      <trkpt lat="45.10349" lon="6.0033">
        <ele>726.59997558594</ele>
        <time>2024-10-15T14:22:50.000Z</time>
      </trkpt>
      <trkpt lat="45.1035" lon="6.0033">
        <ele>726.59997558594</ele>
        <time>2024-10-15T14:22:51.000Z</time>
      </trkpt>
      <trkpt lat="45.1035" lon="6.0033">
        <ele>726.59997558594</ele>
        <time>2024-10-15T14:22:52.000Z</time>
      </trkpt>
      <trkpt lat="45.10351" lon="6.0033">
        <ele>726.59997558594</ele>
        <time>2024-10-15T14:22:53.000Z</time>
      </trkpt>
      <trkpt lat="45.10352" lon="6.00331">
        <ele>726.59997558594</ele>
        <time>2024-10-15T14:22:54.000Z</time>
      </trkpt>
      <trkpt lat="45.10352" lon="6.00331">
        <ele>726.59997558594</ele>
        <time>2024-10-15T14:22:55.000Z</time>
      </trkpt>
      <trkpt lat="45.10352" lon="6.00331">
        <ele>726.59997558594</ele>
        <time>2024-10-15T14:22:56.000Z</time>
      </trkpt>
      <trkpt lat="45.10352" lon="6.00331">
        <ele>726.59997558594</ele>
        <time>2024-10-15T14:22:57.000Z</time>
      </trkpt>
      <trkpt lat="45.10353" lon="6.00332">
        <ele>726.59997558594</ele>
        <time>2024-10-15T14:22:58.000Z</time>
      </trkpt>
      <trkpt lat="45.10354" lon="6.00333">
        <ele>726.59997558594</ele>
        <time>2024-10-15T14:22:59.000Z</time>
      </trkpt>
      <trkpt lat="45.10355" lon="6.00334">
        <ele>726.59997558594</ele>
        <time>2024-10-15T14:23:00.000Z</time>
      </trkpt>
      <trkpt lat="45.10355" lon="6.00334">
        <ele>726.59997558594</ele>
        <time>2024-10-15T14:23:01.000Z</time>
      </trkpt>
      <trkpt lat="45.10356" lon="6.00335">
        <ele>726.59997558594</ele>
        <time>2024-10-15T14:23:02.000Z</time>
      </trkpt>
      <trkpt lat="45.10356" lon="6.00335">
        <ele>726.59997558594</ele>
        <time>2024-10-15T14:23:03.000Z</time>
      </trkpt>
      <trkpt lat="45.10357" lon="6.00335">
        <ele>726.59997558594</ele>
        <time>2024-10-15T14:23:04.000Z</time>
      </trkpt>
      <trkpt lat="45.10358" lon="6.00335">
        <ele>726.59997558594</ele>
        <time>2024-10-15T14:23:05.000Z</time>
      </trkpt>
      <trkpt lat="45.10359" lon="6.00335">
        <ele>726.59997558594</ele>
        <time>2024-10-15T14:23:06.000Z</time>
      </trkpt>
      <trkpt lat="45.1036" lon="6.00334">
        <ele>726.59997558594</ele>
        <time>2024-10-15T14:23:07.000Z</time>
      </trkpt>
      <trkpt lat="45.10362" lon="6.00335">
        <ele>726.59997558594</ele>
        <time>2024-10-15T14:23:08.000Z</time>
      </trkpt>
      <trkpt lat="45.10364" lon="6.00336">
        <ele>726.59997558594</ele>
        <time>2024-10-15T14:23:09.000Z</time>
      </trkpt>
      <trkpt lat="45.10365" lon="6.00336">
        <ele>726.59997558594</ele>
        <time>2024-10-15T14:23:10.000Z</time>
      </trkpt>
      <trkpt lat="45.10366" lon="6.00337">
        <ele>726.59997558594</ele>
        <time>2024-10-15T14:23:11.000Z</time>
      </trkpt>
      <trkpt lat="45.10366" lon="6.00338">
        <ele>726.59997558594</ele>
        <time>2024-10-15T14:23:12.000Z</time>
      </trkpt>
      <trkpt lat="45.10368" lon="6.00337">
        <ele>726.59997558594</ele>
        <time>2024-10-15T14:23:13.000Z</time>
      </trkpt>
      <trkpt lat="45.10368" lon="6.00337">
        <ele>726.59997558594</ele>
        <time>2024-10-15T14:23:14.000Z</time>
      </trkpt>
      <trkpt lat="45.10369" lon="6.00337">
        <ele>726.59997558594</ele>
        <time>2024-10-15T14:23:15.000Z</time>
      </trkpt>
      <trkpt lat="45.1037" lon="6.00337">
        <ele>726.59997558594</ele>
        <time>2024-10-15T14:23:16.000Z</time>
      </trkpt>
      <trkpt lat="45.10371" lon="6.00337">
        <ele>726.59997558594</ele>
        <time>2024-10-15T14:23:17.000Z</time>
      </trkpt>
      <trkpt lat="45.10371" lon="6.00337">
        <ele>726.59997558594</ele>
        <time>2024-10-15T14:23:18.000Z</time>
      </trkpt>
      <trkpt lat="45.10372" lon="6.00337">
        <ele>726.59997558594</ele>
        <time>2024-10-15T14:23:19.000Z</time>
      </trkpt>
      <trkpt lat="45.10373" lon="6.00337">
        <ele>726.59997558594</ele>
        <time>2024-10-15T14:23:20.000Z</time>
      </trkpt>
      <trkpt lat="45.10374" lon="6.00337">
        <ele>726.59997558594</ele>
        <time>2024-10-15T14:23:21.000Z</time>
      </trkpt>
      <trkpt lat="45.10375" lon="6.00338">
        <ele>726.59997558594</ele>
        <time>2024-10-15T14:23:22.000Z</time>
      </trkpt>
      <trkpt lat="45.10376" lon="6.00338">
        <ele>726.59997558594</ele>
        <time>2024-10-15T14:23:23.000Z</time>
      </trkpt>
      <trkpt lat="45.10377" lon="6.00338">
        <ele>726.59997558594</ele>
        <time>2024-10-15T14:23:24.000Z</time>
      </trkpt>
      <trkpt lat="45.10378" lon="6.00338">
        <ele>726.79998779297</ele>
        <time>2024-10-15T14:23:25.000Z</time>
      </trkpt>
      <trkpt lat="45.1038" lon="6.00338">
        <ele>726.79998779297</ele>
        <time>2024-10-15T14:23:26.000Z</time>
      </trkpt>
      <trkpt lat="45.10381" lon="6.00339">
        <ele>726.79998779297</ele>
        <time>2024-10-15T14:23:27.000Z</time>
      </trkpt>
      <trkpt lat="45.10382" lon="6.00339">
        <ele>726.79998779297</ele>
        <time>2024-10-15T14:23:28.000Z</time>
      </trkpt>
      <trkpt lat="45.10383" lon="6.00339">
        <ele>726.79998779297</ele>
        <time>2024-10-15T14:23:29.000Z</time>
      </trkpt>
      <trkpt lat="45.10384" lon="6.0034">
        <ele>726.79998779297</ele>
        <time>2024-10-15T14:23:30.000Z</time>
      </trkpt>
      <trkpt lat="45.10385" lon="6.0034">
        <ele>726.59997558594</ele>
        <time>2024-10-15T14:23:31.000Z</time>
      </trkpt>
      <trkpt lat="45.10387" lon="6.00341">
        <ele>726.59997558594</ele>
        <time>2024-10-15T14:23:32.000Z</time>
      </trkpt>
      <trkpt lat="45.10388" lon="6.00341">
        <ele>726.59997558594</ele>
        <time>2024-10-15T14:23:33.000Z</time>
      </trkpt>
      <trkpt lat="45.10389" lon="6.00341">
        <ele>726.59997558594</ele>
        <time>2024-10-15T14:23:34.000Z</time>
      </trkpt>
      <trkpt lat="45.1039" lon="6.00341">
        <ele>726.59997558594</ele>
        <time>2024-10-15T14:23:35.000Z</time>
      </trkpt>
      <trkpt lat="45.10392" lon="6.00341">
        <ele>726.59997558594</ele>
        <time>2024-10-15T14:23:36.000Z</time>
      </trkpt>
      <trkpt lat="45.10393" lon="6.00342">
        <ele>726.59997558594</ele>
        <time>2024-10-15T14:23:37.000Z</time>
      </trkpt>
      <trkpt lat="45.10394" lon="6.00343">
        <ele>726.59997558594</ele>
        <time>2024-10-15T14:23:38.000Z</time>
      </trkpt>
      <trkpt lat="45.10394" lon="6.00343">
        <ele>726.79998779297</ele>
        <time>2024-10-15T14:23:39.000Z</time>
      </trkpt>
      <trkpt lat="45.10394" lon="6.00344">
        <ele>726.79998779297</ele>
        <time>2024-10-15T14:23:40.000Z</time>
      </trkpt>
      <trkpt lat="45.10395" lon="6.00344">
        <ele>726.79998779297</ele>
        <time>2024-10-15T14:23:41.000Z</time>
      </trkpt>
      <trkpt lat="45.10396" lon="6.00344">
        <ele>726.79998779297</ele>
        <time>2024-10-15T14:23:42.000Z</time>
      </trkpt>
      <trkpt lat="45.10398" lon="6.00345">
        <ele>726.79998779297</ele>
        <time>2024-10-15T14:23:43.000Z</time>
      </trkpt>
      <trkpt lat="45.10399" lon="6.00346">
        <ele>726.79998779297</ele>
        <time>2024-10-15T14:23:44.000Z</time>
      </trkpt>
      <trkpt lat="45.104" lon="6.00347">
        <ele>726.79998779297</ele>
        <time>2024-10-15T14:23:45.000Z</time>
      </trkpt>
      <trkpt lat="45.10402" lon="6.00348">
        <ele>726.79998779297</ele>
        <time>2024-10-15T14:23:46.000Z</time>
      </trkpt>
      <trkpt lat="45.10402" lon="6.00348">
        <ele>726.79998779297</ele>
        <time>2024-10-15T14:23:47.000Z</time>
      </trkpt>
      <trkpt lat="45.10403" lon="6.00348">
        <ele>726.79998779297</ele>
        <time>2024-10-15T14:23:48.000Z</time>
      </trkpt>
      <trkpt lat="45.10404" lon="6.00349">
        <ele>726.79998779297</ele>
        <time>2024-10-15T14:23:49.000Z</time>
      </trkpt>
      <trkpt lat="45.10406" lon="6.0035">
        <ele>726.79998779297</ele>
        <time>2024-10-15T14:23:50.000Z</time>
      </trkpt>
      <trkpt lat="45.10407" lon="6.0035">
        <ele>726.79998779297</ele>
        <time>2024-10-15T14:23:51.000Z</time>
      </trkpt>
      <trkpt lat="45.10409" lon="6.00349">
        <ele>726.79998779297</ele>
        <time>2024-10-15T14:23:52.000Z</time>
      </trkpt>
      <trkpt lat="45.1041" lon="6.0035">
        <ele>726.79998779297</ele>
        <time>2024-10-15T14:23:53.000Z</time>
      </trkpt>
      <trkpt lat="45.10411" lon="6.00349">
        <ele>726.79998779297</ele>
        <time>2024-10-15T14:23:54.000Z</time>
      </trkpt>
      <trkpt lat="45.10412" lon="6.0035">
        <ele>726.79998779297</ele>
        <time>2024-10-15T14:23:55.000Z</time>
      </trkpt>
      <trkpt lat="45.10412" lon="6.0035">
        <ele>726.59997558594</ele>
        <time>2024-10-15T14:23:56.000Z</time>
      </trkpt>
      <trkpt lat="45.10413" lon="6.00351">
        <ele>726.59997558594</ele>
        <time>2024-10-15T14:23:57.000Z</time>
      </trkpt>
      <trkpt lat="45.10414" lon="6.00351">
        <ele>726.59997558594</ele>
        <time>2024-10-15T14:23:58.000Z</time>
      </trkpt>
      <trkpt lat="45.10415" lon="6.00352">
        <ele>726.59997558594</ele>
        <time>2024-10-15T14:23:59.000Z</time>
      </trkpt>
      <trkpt lat="45.10417" lon="6.00353">
        <ele>726.59997558594</ele>
        <time>2024-10-15T14:24:00.000Z</time>
      </trkpt>
      <trkpt lat="45.10418" lon="6.00352">
        <ele>726.59997558594</ele>
        <time>2024-10-15T14:24:01.000Z</time>
      </trkpt>
      <trkpt lat="45.10418" lon="6.00353">
        <ele>726.59997558594</ele>
        <time>2024-10-15T14:24:02.000Z</time>
      </trkpt>
      <trkpt lat="45.10419" lon="6.00354">
        <ele>726.59997558594</ele>
        <time>2024-10-15T14:24:03.000Z</time>
      </trkpt>
      <trkpt lat="45.10421" lon="6.00354">
        <ele>726.59997558594</ele>
        <time>2024-10-15T14:24:04.000Z</time>
      </trkpt>
      <trkpt lat="45.10422" lon="6.00355">
        <ele>726.59997558594</ele>
        <time>2024-10-15T14:24:05.000Z</time>
      </trkpt>
      <trkpt lat="45.10424" lon="6.00355">
        <ele>726.79998779297</ele>
        <time>2024-10-15T14:24:06.000Z</time>
      </trkpt>
      <trkpt lat="45.10425" lon="6.00356">
        <ele>726.59997558594</ele>
        <time>2024-10-15T14:24:07.000Z</time>
      </trkpt>
      <trkpt lat="45.10426" lon="6.00356">
        <ele>726.59997558594</ele>
        <time>2024-10-15T14:24:08.000Z</time>
      </trkpt>
      <trkpt lat="45.10426" lon="6.00356">
        <ele>726.59997558594</ele>
        <time>2024-10-15T14:24:09.000Z</time>
      </trkpt>
      <trkpt lat="45.10426" lon="6.00356">
        <ele>726.59997558594</ele>
        <time>2024-10-15T14:24:10.000Z</time>
      </trkpt>
      <trkpt lat="45.10428" lon="6.00355">
        <ele>726.59997558594</ele>
        <time>2024-10-15T14:24:11.000Z</time>
      </trkpt>
      <trkpt lat="45.10431" lon="6.00356">
        <ele>726.59997558594</ele>
        <time>2024-10-15T14:24:12.000Z</time>
      </trkpt>
      <trkpt lat="45.10433" lon="6.00355">
        <ele>726.59997558594</ele>
        <time>2024-10-15T14:24:13.000Z</time>
      </trkpt>
      <trkpt lat="45.10435" lon="6.00354">
        <ele>726.59997558594</ele>
        <time>2024-10-15T14:24:14.000Z</time>
      </trkpt>
      <trkpt lat="45.10436" lon="6.00354">
        <ele>726.59997558594</ele>
        <time>2024-10-15T14:24:15.000Z</time>
      </trkpt>
      <trkpt lat="45.10437" lon="6.00354">
        <ele>726.59997558594</ele>
        <time>2024-10-15T14:24:16.000Z</time>
      </trkpt>
      <trkpt lat="45.10437" lon="6.00355">
        <ele>726.59997558594</ele>
        <time>2024-10-15T14:24:17.000Z</time>
      </trkpt>
      <trkpt lat="45.10437" lon="6.00355">
        <ele>726.59997558594</ele>
        <time>2024-10-15T14:24:18.000Z</time>
      </trkpt>
      <trkpt lat="45.10438" lon="6.00355">
        <ele>726.59997558594</ele>
        <time>2024-10-15T14:24:19.000Z</time>
      </trkpt>
      <trkpt lat="45.10439" lon="6.00355">
        <ele>726.59997558594</ele>
        <time>2024-10-15T14:24:20.000Z</time>
      </trkpt>
      <trkpt lat="45.1044" lon="6.00356">
        <ele>726.59997558594</ele>
        <time>2024-10-15T14:24:21.000Z</time>
      </trkpt>
      <trkpt lat="45.10441" lon="6.00356">
        <ele>726.59997558594</ele>
        <time>2024-10-15T14:24:22.000Z</time>
      </trkpt>
      <trkpt lat="45.10442" lon="6.00356">
        <ele>726.59997558594</ele>
        <time>2024-10-15T14:24:23.000Z</time>
      </trkpt>
      <trkpt lat="45.10443" lon="6.00356">
        <ele>726.59997558594</ele>
        <time>2024-10-15T14:24:24.000Z</time>
      </trkpt>
      <trkpt lat="45.10443" lon="6.00357">
        <ele>726.59997558594</ele>
        <time>2024-10-15T14:24:25.000Z</time>
      </trkpt>
      <trkpt lat="45.10444" lon="6.00355">
        <ele>726.59997558594</ele>
        <time>2024-10-15T14:24:26.000Z</time>
      </trkpt>
      <trkpt lat="45.10445" lon="6.00353">
        <ele>726.79998779297</ele>
        <time>2024-10-15T14:24:27.000Z</time>
      </trkpt>
      <trkpt lat="45.10446" lon="6.00352">
        <ele>726.79998779297</ele>
        <time>2024-10-15T14:24:28.000Z</time>
      </trkpt>
      <trkpt lat="45.10447" lon="6.00351">
        <ele>726.79998779297</ele>
        <time>2024-10-15T14:24:29.000Z</time>
      </trkpt>
      <trkpt lat="45.10448" lon="6.00352">
        <ele>726.79998779297</ele>
        <time>2024-10-15T14:24:30.000Z</time>
      </trkpt>
      <trkpt lat="45.1045" lon="6.00351">
        <ele>726.79998779297</ele>
        <time>2024-10-15T14:24:31.000Z</time>
      </trkpt>
      <trkpt lat="45.10452" lon="6.00351">
        <ele>726.79998779297</ele>
        <time>2024-10-15T14:24:32.000Z</time>
      </trkpt>
      <trkpt lat="45.10454" lon="6.00352">
        <ele>726.79998779297</ele>
        <time>2024-10-15T14:24:33.000Z</time>
      </trkpt>
      <trkpt lat="45.10455" lon="6.00352">
        <ele>726.79998779297</ele>
        <time>2024-10-15T14:24:34.000Z</time>
      </trkpt>
      <trkpt lat="45.10456" lon="6.00352">
        <ele>726.59997558594</ele>
        <time>2024-10-15T14:24:35.000Z</time>
      </trkpt>
      <trkpt lat="45.10457" lon="6.00353">
        <ele>726.59997558594</ele>
        <time>2024-10-15T14:24:36.000Z</time>
      </trkpt>
      <trkpt lat="45.10457" lon="6.00353">
        <ele>726.59997558594</ele>
        <time>2024-10-15T14:24:37.000Z</time>
      </trkpt>
      <trkpt lat="45.10458" lon="6.00352">
        <ele>726.59997558594</ele>
        <time>2024-10-15T14:24:38.000Z</time>
      </trkpt>
      <trkpt lat="45.10459" lon="6.00352">
        <ele>726.59997558594</ele>
        <time>2024-10-15T14:24:39.000Z</time>
      </trkpt>
      <trkpt lat="45.10459" lon="6.00352">
        <ele>726.59997558594</ele>
        <time>2024-10-15T14:24:40.000Z</time>
      </trkpt>
      <trkpt lat="45.1046" lon="6.00351">
        <ele>726.59997558594</ele>
        <time>2024-10-15T14:24:41.000Z</time>
      </trkpt>
      <trkpt lat="45.10462" lon="6.00352">
        <ele>726.59997558594</ele>
        <time>2024-10-15T14:24:42.000Z</time>
      </trkpt>
      <trkpt lat="45.10463" lon="6.00353">
        <ele>726.59997558594</ele>
        <time>2024-10-15T14:24:43.000Z</time>
      </trkpt>
      <trkpt lat="45.10466" lon="6.00354">
        <ele>726.59997558594</ele>
        <time>2024-10-15T14:24:44.000Z</time>
      </trkpt>
      <trkpt lat="45.10468" lon="6.00355">
        <ele>726.59997558594</ele>
        <time>2024-10-15T14:24:45.000Z</time>
      </trkpt>
      <trkpt lat="45.1047" lon="6.00356">
        <ele>726.59997558594</ele>
        <time>2024-10-15T14:24:46.000Z</time>
      </trkpt>
      <trkpt lat="45.10471" lon="6.00356">
        <ele>726.59997558594</ele>
        <time>2024-10-15T14:24:47.000Z</time>
      </trkpt>
      <trkpt lat="45.10471" lon="6.00356">
        <ele>726.59997558594</ele>
        <time>2024-10-15T14:24:48.000Z</time>
      </trkpt>
      <trkpt lat="45.10472" lon="6.00356">
        <ele>726.59997558594</ele>
        <time>2024-10-15T14:24:49.000Z</time>
      </trkpt>
      <trkpt lat="45.10474" lon="6.00356">
        <ele>726.79998779297</ele>
        <time>2024-10-15T14:24:50.000Z</time>
      </trkpt>
      <trkpt lat="45.10475" lon="6.00355">
        <ele>726.79998779297</ele>
        <time>2024-10-15T14:24:51.000Z</time>
      </trkpt>
      <trkpt lat="45.10477" lon="6.00355">
        <ele>726.79998779297</ele>
        <time>2024-10-15T14:24:52.000Z</time>
      </trkpt>
      <trkpt lat="45.1048" lon="6.00356">
        <ele>726.79998779297</ele>
        <time>2024-10-15T14:24:53.000Z</time>
      </trkpt>
      <trkpt lat="45.10481" lon="6.00358">
        <ele>726.79998779297</ele>
        <time>2024-10-15T14:24:54.000Z</time>
      </trkpt>
      <trkpt lat="45.10482" lon="6.00358">
        <ele>726.79998779297</ele>
        <time>2024-10-15T14:24:55.000Z</time>
      </trkpt>
      <trkpt lat="45.10483" lon="6.00358">
        <ele>726.79998779297</ele>
        <time>2024-10-15T14:24:56.000Z</time>
      </trkpt>
      <trkpt lat="45.10484" lon="6.00358">
        <ele>726.79998779297</ele>
        <time>2024-10-15T14:24:57.000Z</time>
      </trkpt>
      <trkpt lat="45.10484" lon="6.00357">
        <ele>727</ele>
        <time>2024-10-15T14:24:58.000Z</time>
      </trkpt>
      <trkpt lat="45.10485" lon="6.00357">
        <ele>727</ele>
        <time>2024-10-15T14:24:59.000Z</time>
      </trkpt>
      <trkpt lat="45.10486" lon="6.00358">
        <ele>727</ele>
        <time>2024-10-15T14:25:00.000Z</time>
      </trkpt>
      <trkpt lat="45.10487" lon="6.00357">
        <ele>727</ele>
        <time>2024-10-15T14:25:01.000Z</time>
      </trkpt>
      <trkpt lat="45.10489" lon="6.00358">
        <ele>727</ele>
        <time>2024-10-15T14:25:02.000Z</time>
      </trkpt>
      <trkpt lat="45.1049" lon="6.00358">
        <ele>727</ele>
        <time>2024-10-15T14:25:03.000Z</time>
      </trkpt>
      <trkpt lat="45.10492" lon="6.00358">
        <ele>727.20001220703</ele>
        <time>2024-10-15T14:25:04.000Z</time>
      </trkpt>
      <trkpt lat="45.10494" lon="6.00358">
        <ele>727.20001220703</ele>
        <time>2024-10-15T14:25:05.000Z</time>
      </trkpt>
      <trkpt lat="45.10494" lon="6.00358">
        <ele>727.20001220703</ele>
        <time>2024-10-15T14:25:06.000Z</time>
      </trkpt>
      <trkpt lat="45.10495" lon="6.00359">
        <ele>727.20001220703</ele>
        <time>2024-10-15T14:25:07.000Z</time>
      </trkpt>
      <trkpt lat="45.10495" lon="6.00359">
        <ele>727.20001220703</ele>
        <time>2024-10-15T14:25:08.000Z</time>
      </trkpt>
      <trkpt lat="45.10496" lon="6.00359">
        <ele>727.40002441406</ele>
        <time>2024-10-15T14:25:09.000Z</time>
      </trkpt>
      <trkpt lat="45.10496" lon="6.00359">
        <ele>727.40002441406</ele>
        <time>2024-10-15T14:25:10.000Z</time>
      </trkpt>
      <trkpt lat="45.10496" lon="6.00359">
        <ele>727.40002441406</ele>
        <time>2024-10-15T14:25:11.000Z</time>
      </trkpt>
      <trkpt lat="45.10496" lon="6.00359">
        <ele>727.40002441406</ele>
        <time>2024-10-15T14:25:12.000Z</time>
      </trkpt>
      <trkpt lat="45.10496" lon="6.00359">
        <ele>727.40002441406</ele>
        <time>2024-10-15T14:25:13.000Z</time>
      </trkpt>
      <trkpt lat="45.10496" lon="6.00359">
        <ele>727.40002441406</ele>
        <time>2024-10-15T14:25:14.000Z</time>
      </trkpt>
      <trkpt lat="45.10497" lon="6.00358">
        <ele>727.40002441406</ele>
        <time>2024-10-15T14:25:15.000Z</time>
      </trkpt>
      <trkpt lat="45.10499" lon="6.00358">
        <ele>727.40002441406</ele>
        <time>2024-10-15T14:25:16.000Z</time>
      </trkpt>
      <trkpt lat="45.10499" lon="6.00358">
        <ele>727.40002441406</ele>
        <time>2024-10-15T14:25:17.000Z</time>
      </trkpt>
      <trkpt lat="45.10499" lon="6.00358">
        <ele>727.40002441406</ele>
        <time>2024-10-15T14:25:18.000Z</time>
      </trkpt>
      <trkpt lat="45.10499" lon="6.00358">
        <ele>727.40002441406</ele>
        <time>2024-10-15T14:25:19.000Z</time>
      </trkpt>
      <trkpt lat="45.10499" lon="6.00357">
        <ele>727.40002441406</ele>
        <time>2024-10-15T14:25:20.000Z</time>
      </trkpt>
      <trkpt lat="45.10499" lon="6.00357">
        <ele>727.40002441406</ele>
        <time>2024-10-15T14:25:21.000Z</time>
      </trkpt>
      <trkpt lat="45.10499" lon="6.00357">
        <ele>727.40002441406</ele>
        <time>2024-10-15T14:25:22.000Z</time>
      </trkpt>
      <trkpt lat="45.10499" lon="6.00357">
        <ele>727.40002441406</ele>
        <time>2024-10-15T14:25:23.000Z</time>
      </trkpt>
      <trkpt lat="45.10499" lon="6.00357">
        <ele>727.59997558594</ele>
        <time>2024-10-15T14:25:24.000Z</time>
      </trkpt>
      <trkpt lat="45.10499" lon="6.00357">
        <ele>727.59997558594</ele>
        <time>2024-10-15T14:25:25.000Z</time>
      </trkpt>
      <trkpt lat="45.105" lon="6.00357">
        <ele>727.59997558594</ele>
        <time>2024-10-15T14:25:26.000Z</time>
      </trkpt>
      <trkpt lat="45.105" lon="6.00357">
        <ele>727.59997558594</ele>
        <time>2024-10-15T14:25:27.000Z</time>
      </trkpt>
      <trkpt lat="45.105" lon="6.00357">
        <ele>727.59997558594</ele>
        <time>2024-10-15T14:25:28.000Z</time>
      </trkpt>
      <trkpt lat="45.105" lon="6.00357">
        <ele>727.59997558594</ele>
        <time>2024-10-15T14:25:29.000Z</time>
      </trkpt>
      <trkpt lat="45.10499" lon="6.00357">
        <ele>727.59997558594</ele>
        <time>2024-10-15T14:25:30.000Z</time>
      </trkpt>
      <trkpt lat="45.10499" lon="6.00358">
        <ele>727.59997558594</ele>
        <time>2024-10-15T14:25:31.000Z</time>
      </trkpt>
      <trkpt lat="45.10499" lon="6.00358">
        <ele>727.59997558594</ele>
        <time>2024-10-15T14:25:32.000Z</time>
      </trkpt>
      <trkpt lat="45.10499" lon="6.00358">
        <ele>727.59997558594</ele>
        <time>2024-10-15T14:25:33.000Z</time>
      </trkpt>
      <trkpt lat="45.10499" lon="6.00358">
        <ele>727.59997558594</ele>
        <time>2024-10-15T14:25:34.000Z</time>
      </trkpt>
      <trkpt lat="45.10499" lon="6.00358">
        <ele>727.59997558594</ele>
        <time>2024-10-15T14:25:35.000Z</time>
      </trkpt>
      <trkpt lat="45.10499" lon="6.00358">
        <ele>727.59997558594</ele>
        <time>2024-10-15T14:25:36.000Z</time>
      </trkpt>
      <trkpt lat="45.10499" lon="6.00358">
        <ele>727.40002441406</ele>
        <time>2024-10-15T14:25:37.000Z</time>
      </trkpt>
      <trkpt lat="45.10499" lon="6.00358">
        <ele>727.40002441406</ele>
        <time>2024-10-15T14:25:38.000Z</time>
      </trkpt>
      <trkpt lat="45.10499" lon="6.00358">
        <ele>727.40002441406</ele>
        <time>2024-10-15T14:25:39.000Z</time>
      </trkpt>
      <trkpt lat="45.10499" lon="6.00358">
        <ele>727.40002441406</ele>
        <time>2024-10-15T14:25:40.000Z</time>
      </trkpt>
      <trkpt lat="45.10499" lon="6.00358">
        <ele>727.40002441406</ele>
        <time>2024-10-15T14:25:41.000Z</time>
      </trkpt>
      <trkpt lat="45.10499" lon="6.00357">
        <ele>727.40002441406</ele>
        <time>2024-10-15T14:25:42.000Z</time>
      </trkpt>
      <trkpt lat="45.10499" lon="6.00357">
        <ele>727.40002441406</ele>
        <time>2024-10-15T14:25:43.000Z</time>
      </trkpt>
      <trkpt lat="45.10499" lon="6.00357">
        <ele>727.40002441406</ele>
        <time>2024-10-15T14:25:44.000Z</time>
      </trkpt>
      <trkpt lat="45.10499" lon="6.00357">
        <ele>727.40002441406</ele>
        <time>2024-10-15T14:25:45.000Z</time>
      </trkpt>
      <trkpt lat="45.10499" lon="6.00357">
        <ele>727.40002441406</ele>
        <time>2024-10-15T14:25:46.000Z</time>
      </trkpt>
      <trkpt lat="45.10499" lon="6.00357">
        <ele>727.40002441406</ele>
        <time>2024-10-15T14:25:47.000Z</time>
      </trkpt>
      <trkpt lat="45.10499" lon="6.00357">
        <ele>727.40002441406</ele>
        <time>2024-10-15T14:25:48.000Z</time>
      </trkpt>
      <trkpt lat="45.10499" lon="6.00357">
        <ele>727.40002441406</ele>
        <time>2024-10-15T14:25:49.000Z</time>
      </trkpt>
      <trkpt lat="45.10499" lon="6.00357">
        <ele>727.40002441406</ele>
        <time>2024-10-15T14:25:50.000Z</time>
      </trkpt>
      <trkpt lat="45.10499" lon="6.00357">
        <ele>727.40002441406</ele>
        <time>2024-10-15T14:25:51.000Z</time>
      </trkpt>
      <trkpt lat="45.10499" lon="6.00357">
        <ele>727.40002441406</ele>
        <time>2024-10-15T14:25:52.000Z</time>
      </trkpt>
      <trkpt lat="45.10499" lon="6.00357">
        <ele>727.40002441406</ele>
        <time>2024-10-15T14:25:53.000Z</time>
      </trkpt>
      <trkpt lat="45.10499" lon="6.00357">
        <ele>727.40002441406</ele>
        <time>2024-10-15T14:25:54.000Z</time>
      </trkpt>
      <trkpt lat="45.10499" lon="6.00357">
        <ele>727.40002441406</ele>
        <time>2024-10-15T14:25:55.000Z</time>
      </trkpt>
      <trkpt lat="45.10499" lon="6.00357">
        <ele>727.40002441406</ele>
        <time>2024-10-15T14:25:56.000Z</time>
      </trkpt>
      <trkpt lat="45.10499" lon="6.00357">
        <ele>727.20001220703</ele>
        <time>2024-10-15T14:25:57.000Z</time>
      </trkpt>
      <trkpt lat="45.10499" lon="6.00357">
        <ele>727.20001220703</ele>
        <time>2024-10-15T14:25:58.000Z</time>
      </trkpt>
      <trkpt lat="45.10499" lon="6.00357">
        <ele>727.20001220703</ele>
        <time>2024-10-15T14:25:59.000Z</time>
      </trkpt>
      <trkpt lat="45.10499" lon="6.00357">
        <ele>727.20001220703</ele>
        <time>2024-10-15T14:26:00.000Z</time>
      </trkpt>
      <trkpt lat="45.10499" lon="6.00357">
        <ele>727.40002441406</ele>
        <time>2024-10-15T14:26:01.000Z</time>
      </trkpt>
      <trkpt lat="45.105" lon="6.00357">
        <ele>727.40002441406</ele>
        <time>2024-10-15T14:26:02.000Z</time>
      </trkpt>
      <trkpt lat="45.105" lon="6.00357">
        <ele>727.40002441406</ele>
        <time>2024-10-15T14:26:03.000Z</time>
      </trkpt>
      <trkpt lat="45.105" lon="6.00357">
        <ele>727.40002441406</ele>
        <time>2024-10-15T14:26:04.000Z</time>
      </trkpt>
      <trkpt lat="45.105" lon="6.00357">
        <ele>727.40002441406</ele>
        <time>2024-10-15T14:26:05.000Z</time>
      </trkpt>
      <trkpt lat="45.105" lon="6.00357">
        <ele>727.40002441406</ele>
        <time>2024-10-15T14:26:06.000Z</time>
      </trkpt>
      <trkpt lat="45.10501" lon="6.00357">
        <ele>727.40002441406</ele>
        <time>2024-10-15T14:26:07.000Z</time>
      </trkpt>
      <trkpt lat="45.10501" lon="6.00357">
        <ele>727.40002441406</ele>
        <time>2024-10-15T14:26:08.000Z</time>
      </trkpt>
      <trkpt lat="45.10502" lon="6.00357">
        <ele>727.59997558594</ele>
        <time>2024-10-15T14:26:09.000Z</time>
      </trkpt>
      <trkpt lat="45.10503" lon="6.00357">
        <ele>727.59997558594</ele>
        <time>2024-10-15T14:26:10.000Z</time>
      </trkpt>
      <trkpt lat="45.10505" lon="6.00357">
        <ele>727.59997558594</ele>
        <time>2024-10-15T14:26:11.000Z</time>
      </trkpt>
      <trkpt lat="45.10507" lon="6.00358">
        <ele>727.59997558594</ele>
        <time>2024-10-15T14:26:12.000Z</time>
      </trkpt>
      <trkpt lat="45.10509" lon="6.00358">
        <ele>727.79998779297</ele>
        <time>2024-10-15T14:26:13.000Z</time>
      </trkpt>
      <trkpt lat="45.1051" lon="6.00357">
        <ele>727.79998779297</ele>
        <time>2024-10-15T14:26:14.000Z</time>
      </trkpt>
      <trkpt lat="45.10512" lon="6.00357">
        <ele>728.20001220703</ele>
        <time>2024-10-15T14:26:15.000Z</time>
      </trkpt>
      <trkpt lat="45.10514" lon="6.00357">
        <ele>728.20001220703</ele>
        <time>2024-10-15T14:26:16.000Z</time>
      </trkpt>
      <trkpt lat="45.10515" lon="6.00357">
        <ele>728.40002441406</ele>
        <time>2024-10-15T14:26:17.000Z</time>
      </trkpt>
      <trkpt lat="45.10515" lon="6.00356">
        <ele>728.40002441406</ele>
        <time>2024-10-15T14:26:18.000Z</time>
      </trkpt>
      <trkpt lat="45.10516" lon="6.00356">
        <ele>728.59997558594</ele>
        <time>2024-10-15T14:26:19.000Z</time>
      </trkpt>
      <trkpt lat="45.10516" lon="6.00356">
        <ele>728.59997558594</ele>
        <time>2024-10-15T14:26:20.000Z</time>
      </trkpt>
      <trkpt lat="45.10517" lon="6.00355">
        <ele>728.59997558594</ele>
        <time>2024-10-15T14:26:21.000Z</time>
      </trkpt>
      <trkpt lat="45.10517" lon="6.00356">
        <ele>728.59997558594</ele>
        <time>2024-10-15T14:26:22.000Z</time>
      </trkpt>
      <trkpt lat="45.10518" lon="6.00356">
        <ele>728.40002441406</ele>
        <time>2024-10-15T14:26:23.000Z</time>
      </trkpt>
      <trkpt lat="45.1052" lon="6.00357">
        <ele>728.40002441406</ele>
        <time>2024-10-15T14:26:24.000Z</time>
      </trkpt>
      <trkpt lat="45.10521" lon="6.00357">
        <ele>728.20001220703</ele>
        <time>2024-10-15T14:26:25.000Z</time>
      </trkpt>
      <trkpt lat="45.10522" lon="6.00357">
        <ele>728.20001220703</ele>
        <time>2024-10-15T14:26:26.000Z</time>
      </trkpt>
      <trkpt lat="45.10523" lon="6.00358">
        <ele>728.20001220703</ele>
        <time>2024-10-15T14:26:27.000Z</time>
      </trkpt>
      <trkpt lat="45.10524" lon="6.00358">
        <ele>728.20001220703</ele>
        <time>2024-10-15T14:26:28.000Z</time>
      </trkpt>
      <trkpt lat="45.10525" lon="6.00358">
        <ele>728.20001220703</ele>
        <time>2024-10-15T14:26:29.000Z</time>
      </trkpt>
      <trkpt lat="45.10527" lon="6.00358">
        <ele>728.20001220703</ele>
        <time>2024-10-15T14:26:30.000Z</time>
      </trkpt>
      <trkpt lat="45.10528" lon="6.00359">
        <ele>728</ele>
        <time>2024-10-15T14:26:31.000Z</time>
      </trkpt>
      <trkpt lat="45.10529" lon="6.00359">
        <ele>728</ele>
        <time>2024-10-15T14:26:32.000Z</time>
      </trkpt>
      <trkpt lat="45.10531" lon="6.0036">
        <ele>728</ele>
        <time>2024-10-15T14:26:33.000Z</time>
      </trkpt>
      <trkpt lat="45.10532" lon="6.00359">
        <ele>728</ele>
        <time>2024-10-15T14:26:34.000Z</time>
      </trkpt>
      <trkpt lat="45.10533" lon="6.00359">
        <ele>728</ele>
        <time>2024-10-15T14:26:35.000Z</time>
      </trkpt>
      <trkpt lat="45.10535" lon="6.00358">
        <ele>728</ele>
        <time>2024-10-15T14:26:36.000Z</time>
      </trkpt>
      <trkpt lat="45.10537" lon="6.00358">
        <ele>728</ele>
        <time>2024-10-15T14:26:37.000Z</time>
      </trkpt>
      <trkpt lat="45.10539" lon="6.00358">
        <ele>728</ele>
        <time>2024-10-15T14:26:38.000Z</time>
      </trkpt>
      <trkpt lat="45.1054" lon="6.00357">
        <ele>728</ele>
        <time>2024-10-15T14:26:39.000Z</time>
      </trkpt>
      <trkpt lat="45.1054" lon="6.00356">
        <ele>728</ele>
        <time>2024-10-15T14:26:40.000Z</time>
      </trkpt>
      <trkpt lat="45.10542" lon="6.00356">
        <ele>728</ele>
        <time>2024-10-15T14:26:41.000Z</time>
      </trkpt>
      <trkpt lat="45.10543" lon="6.00355">
        <ele>728</ele>
        <time>2024-10-15T14:26:42.000Z</time>
      </trkpt>
      <trkpt lat="45.10544" lon="6.00354">
        <ele>728</ele>
        <time>2024-10-15T14:26:43.000Z</time>
      </trkpt>
      <trkpt lat="45.10544" lon="6.00355">
        <ele>728</ele>
        <time>2024-10-15T14:26:44.000Z</time>
      </trkpt>
      <trkpt lat="45.10544" lon="6.00356">
        <ele>728</ele>
        <time>2024-10-15T14:26:45.000Z</time>
      </trkpt>
      <trkpt lat="45.10546" lon="6.00356">
        <ele>728</ele>
        <time>2024-10-15T14:26:46.000Z</time>
      </trkpt>
      <trkpt lat="45.10547" lon="6.00356">
        <ele>728</ele>
        <time>2024-10-15T14:26:47.000Z</time>
      </trkpt>
      <trkpt lat="45.10549" lon="6.00356">
        <ele>728</ele>
        <time>2024-10-15T14:26:48.000Z</time>
      </trkpt>
      <trkpt lat="45.1055" lon="6.00356">
        <ele>728</ele>
        <time>2024-10-15T14:26:49.000Z</time>
      </trkpt>
      <trkpt lat="45.10551" lon="6.00356">
        <ele>728</ele>
        <time>2024-10-15T14:26:50.000Z</time>
      </trkpt>
      <trkpt lat="45.10553" lon="6.00356">
        <ele>728.20001220703</ele>
        <time>2024-10-15T14:26:51.000Z</time>
      </trkpt>
      <trkpt lat="45.10554" lon="6.00356">
        <ele>728.20001220703</ele>
        <time>2024-10-15T14:26:52.000Z</time>
      </trkpt>
      <trkpt lat="45.10555" lon="6.00356">
        <ele>728.20001220703</ele>
        <time>2024-10-15T14:26:53.000Z</time>
      </trkpt>
      <trkpt lat="45.10555" lon="6.00356">
        <ele>728.20001220703</ele>
        <time>2024-10-15T14:26:54.000Z</time>
      </trkpt>
      <trkpt lat="45.10556" lon="6.00356">
        <ele>728.20001220703</ele>
        <time>2024-10-15T14:26:55.000Z</time>
      </trkpt>
      <trkpt lat="45.10557" lon="6.00356">
        <ele>728.20001220703</ele>
        <time>2024-10-15T14:26:56.000Z</time>
      </trkpt>
      <trkpt lat="45.10558" lon="6.00356">
        <ele>728.20001220703</ele>
        <time>2024-10-15T14:26:57.000Z</time>
      </trkpt>
      <trkpt lat="45.10559" lon="6.00357">
        <ele>728.20001220703</ele>
        <time>2024-10-15T14:26:58.000Z</time>
      </trkpt>
      <trkpt lat="45.10561" lon="6.00357">
        <ele>728.20001220703</ele>
        <time>2024-10-15T14:26:59.000Z</time>
      </trkpt>
      <trkpt lat="45.10562" lon="6.00357">
        <ele>728.20001220703</ele>
        <time>2024-10-15T14:27:00.000Z</time>
      </trkpt>
      <trkpt lat="45.10563" lon="6.00356">
        <ele>728.20001220703</ele>
        <time>2024-10-15T14:27:01.000Z</time>
      </trkpt>
      <trkpt lat="45.10565" lon="6.00354">
        <ele>728.20001220703</ele>
        <time>2024-10-15T14:27:02.000Z</time>
      </trkpt>
      <trkpt lat="45.10566" lon="6.00354">
        <ele>728.20001220703</ele>
        <time>2024-10-15T14:27:03.000Z</time>
      </trkpt>
      <trkpt lat="45.10568" lon="6.00354">
        <ele>728.20001220703</ele>
        <time>2024-10-15T14:27:04.000Z</time>
      </trkpt>
      <trkpt lat="45.10569" lon="6.00354">
        <ele>728.20001220703</ele>
        <time>2024-10-15T14:27:05.000Z</time>
      </trkpt>
      <trkpt lat="45.1057" lon="6.00354">
        <ele>728.20001220703</ele>
        <time>2024-10-15T14:27:06.000Z</time>
      </trkpt>
      <trkpt lat="45.10571" lon="6.00354">
        <ele>728.20001220703</ele>
        <time>2024-10-15T14:27:07.000Z</time>
      </trkpt>
      <trkpt lat="45.10573" lon="6.00355">
        <ele>728.20001220703</ele>
        <time>2024-10-15T14:27:08.000Z</time>
      </trkpt>
      <trkpt lat="45.10574" lon="6.00355">
        <ele>728.20001220703</ele>
        <time>2024-10-15T14:27:09.000Z</time>
      </trkpt>
      <trkpt lat="45.10575" lon="6.00355">
        <ele>728.20001220703</ele>
        <time>2024-10-15T14:27:10.000Z</time>
      </trkpt>
      <trkpt lat="45.10576" lon="6.00353">
        <ele>728.20001220703</ele>
        <time>2024-10-15T14:27:11.000Z</time>
      </trkpt>
      <trkpt lat="45.10578" lon="6.00352">
        <ele>728.20001220703</ele>
        <time>2024-10-15T14:27:12.000Z</time>
      </trkpt>
      <trkpt lat="45.1058" lon="6.00352">
        <ele>728.20001220703</ele>
        <time>2024-10-15T14:27:13.000Z</time>
      </trkpt>
      <trkpt lat="45.10581" lon="6.00352">
        <ele>728.20001220703</ele>
        <time>2024-10-15T14:27:14.000Z</time>
      </trkpt>
      <trkpt lat="45.10582" lon="6.00352">
        <ele>728.20001220703</ele>
        <time>2024-10-15T14:27:15.000Z</time>
      </trkpt>
      <trkpt lat="45.10583" lon="6.00351">
        <ele>728.40002441406</ele>
        <time>2024-10-15T14:27:16.000Z</time>
      </trkpt>
      <trkpt lat="45.10585" lon="6.00349">
        <ele>728.40002441406</ele>
        <time>2024-10-15T14:27:17.000Z</time>
      </trkpt>
      <trkpt lat="45.10587" lon="6.00348">
        <ele>728.40002441406</ele>
        <time>2024-10-15T14:27:18.000Z</time>
      </trkpt>
      <trkpt lat="45.10588" lon="6.00347">
        <ele>728.40002441406</ele>
        <time>2024-10-15T14:27:19.000Z</time>
      </trkpt>
      <trkpt lat="45.1059" lon="6.00346">
        <ele>728.20001220703</ele>
        <time>2024-10-15T14:27:20.000Z</time>
      </trkpt>
      <trkpt lat="45.10593" lon="6.00346">
        <ele>728.20001220703</ele>
        <time>2024-10-15T14:27:21.000Z</time>
      </trkpt>
      <trkpt lat="45.10594" lon="6.00345">
        <ele>728.20001220703</ele>
        <time>2024-10-15T14:27:22.000Z</time>
      </trkpt>
      <trkpt lat="45.10596" lon="6.00344">
        <ele>728.20001220703</ele>
        <time>2024-10-15T14:27:23.000Z</time>
      </trkpt>
      <trkpt lat="45.10597" lon="6.00344">
        <ele>728.20001220703</ele>
        <time>2024-10-15T14:27:24.000Z</time>
      </trkpt>
      <trkpt lat="45.10599" lon="6.00343">
        <ele>728.20001220703</ele>
        <time>2024-10-15T14:27:25.000Z</time>
      </trkpt>
      <trkpt lat="45.10599" lon="6.00342">
        <ele>728.20001220703</ele>
        <time>2024-10-15T14:27:26.000Z</time>
      </trkpt>
      <trkpt lat="45.106" lon="6.00341">
        <ele>728.20001220703</ele>
        <time>2024-10-15T14:27:27.000Z</time>
      </trkpt>
      <trkpt lat="45.10602" lon="6.00341">
        <ele>728</ele>
        <time>2024-10-15T14:27:28.000Z</time>
      </trkpt>
      <trkpt lat="45.10604" lon="6.00341">
        <ele>728</ele>
        <time>2024-10-15T14:27:29.000Z</time>
      </trkpt>
      <trkpt lat="45.10605" lon="6.00341">
        <ele>728</ele>
        <time>2024-10-15T14:27:30.000Z</time>
      </trkpt>
      <trkpt lat="45.10607" lon="6.0034">
        <ele>728.20001220703</ele>
        <time>2024-10-15T14:27:31.000Z</time>
      </trkpt>
      <trkpt lat="45.10608" lon="6.00339">
        <ele>728.20001220703</ele>
        <time>2024-10-15T14:27:32.000Z</time>
      </trkpt>
      <trkpt lat="45.1061" lon="6.00338">
        <ele>728.20001220703</ele>
        <time>2024-10-15T14:27:33.000Z</time>
      </trkpt>
      <trkpt lat="45.10611" lon="6.00337">
        <ele>728.20001220703</ele>
        <time>2024-10-15T14:27:34.000Z</time>
      </trkpt>
      <trkpt lat="45.10613" lon="6.00337">
        <ele>728.20001220703</ele>
        <time>2024-10-15T14:27:35.000Z</time>
      </trkpt>
      <trkpt lat="45.10614" lon="6.00337">
        <ele>728.40002441406</ele>
        <time>2024-10-15T14:27:36.000Z</time>
      </trkpt>
      <trkpt lat="45.10616" lon="6.00337">
        <ele>728.40002441406</ele>
        <time>2024-10-15T14:27:37.000Z</time>
      </trkpt>
      <trkpt lat="45.10617" lon="6.00337">
        <ele>728.40002441406</ele>
        <time>2024-10-15T14:27:38.000Z</time>
      </trkpt>
      <trkpt lat="45.10618" lon="6.00337">
        <ele>728.40002441406</ele>
        <time>2024-10-15T14:27:39.000Z</time>
      </trkpt>
      <trkpt lat="45.10619" lon="6.00336">
        <ele>728.40002441406</ele>
        <time>2024-10-15T14:27:40.000Z</time>
      </trkpt>
      <trkpt lat="45.1062" lon="6.00335">
        <ele>728.40002441406</ele>
        <time>2024-10-15T14:27:41.000Z</time>
      </trkpt>
      <trkpt lat="45.10622" lon="6.00335">
        <ele>728.40002441406</ele>
        <time>2024-10-15T14:27:42.000Z</time>
      </trkpt>
      <trkpt lat="45.10623" lon="6.00334">
        <ele>728.40002441406</ele>
        <time>2024-10-15T14:27:43.000Z</time>
      </trkpt>
      <trkpt lat="45.10624" lon="6.00333">
        <ele>728.40002441406</ele>
        <time>2024-10-15T14:27:44.000Z</time>
      </trkpt>
      <trkpt lat="45.10625" lon="6.00332">
        <ele>728.59997558594</ele>
        <time>2024-10-15T14:27:45.000Z</time>
      </trkpt>
      <trkpt lat="45.10626" lon="6.00332">
        <ele>728.59997558594</ele>
        <time>2024-10-15T14:27:46.000Z</time>
      </trkpt>
      <trkpt lat="45.10627" lon="6.00331">
        <ele>728.59997558594</ele>
        <time>2024-10-15T14:27:47.000Z</time>
      </trkpt>
      <trkpt lat="45.1063" lon="6.00331">
        <ele>728.79998779297</ele>
        <time>2024-10-15T14:27:48.000Z</time>
      </trkpt>
      <trkpt lat="45.10632" lon="6.0033">
        <ele>728.79998779297</ele>
        <time>2024-10-15T14:27:49.000Z</time>
      </trkpt>
      <trkpt lat="45.10634" lon="6.00329">
        <ele>728.79998779297</ele>
        <time>2024-10-15T14:27:50.000Z</time>
      </trkpt>
      <trkpt lat="45.10636" lon="6.00329">
        <ele>728.79998779297</ele>
        <time>2024-10-15T14:27:51.000Z</time>
      </trkpt>
      <trkpt lat="45.10637" lon="6.00328">
        <ele>728.79998779297</ele>
        <time>2024-10-15T14:27:52.000Z</time>
      </trkpt>
      <trkpt lat="45.10638" lon="6.00328">
        <ele>728.79998779297</ele>
        <time>2024-10-15T14:27:53.000Z</time>
      </trkpt>
      <trkpt lat="45.1064" lon="6.00327">
        <ele>728.79998779297</ele>
        <time>2024-10-15T14:27:54.000Z</time>
      </trkpt>
      <trkpt lat="45.10641" lon="6.00326">
        <ele>728.79998779297</ele>
        <time>2024-10-15T14:27:55.000Z</time>
      </trkpt>
      <trkpt lat="45.10642" lon="6.00326">
        <ele>728.79998779297</ele>
        <time>2024-10-15T14:27:56.000Z</time>
      </trkpt>
      <trkpt lat="45.10643" lon="6.00326">
        <ele>728.79998779297</ele>
        <time>2024-10-15T14:27:57.000Z</time>
      </trkpt>
      <trkpt lat="45.10644" lon="6.00326">
        <ele>728.79998779297</ele>
        <time>2024-10-15T14:27:58.000Z</time>
      </trkpt>
      <trkpt lat="45.10645" lon="6.00327">
        <ele>728.79998779297</ele>
        <time>2024-10-15T14:27:59.000Z</time>
      </trkpt>
      <trkpt lat="45.10647" lon="6.00327">
        <ele>728.79998779297</ele>
        <time>2024-10-15T14:28:00.000Z</time>
      </trkpt>
      <trkpt lat="45.10648" lon="6.00326">
        <ele>728.79998779297</ele>
        <time>2024-10-15T14:28:01.000Z</time>
      </trkpt>
      <trkpt lat="45.10649" lon="6.00327">
        <ele>728.79998779297</ele>
        <time>2024-10-15T14:28:02.000Z</time>
      </trkpt>
      <trkpt lat="45.1065" lon="6.00327">
        <ele>728.79998779297</ele>
        <time>2024-10-15T14:28:03.000Z</time>
      </trkpt>
      <trkpt lat="45.10652" lon="6.00327">
        <ele>728.59997558594</ele>
        <time>2024-10-15T14:28:04.000Z</time>
      </trkpt>
      <trkpt lat="45.10653" lon="6.00326">
        <ele>728.59997558594</ele>
        <time>2024-10-15T14:28:05.000Z</time>
      </trkpt>
      <trkpt lat="45.10654" lon="6.00326">
        <ele>728.59997558594</ele>
        <time>2024-10-15T14:28:06.000Z</time>
      </trkpt>
      <trkpt lat="45.10655" lon="6.00325">
        <ele>728.59997558594</ele>
        <time>2024-10-15T14:28:07.000Z</time>
      </trkpt>
      <trkpt lat="45.10656" lon="6.00325">
        <ele>728.59997558594</ele>
        <time>2024-10-15T14:28:08.000Z</time>
      </trkpt>
      <trkpt lat="45.10657" lon="6.00325">
        <ele>728.59997558594</ele>
        <time>2024-10-15T14:28:09.000Z</time>
      </trkpt>
      <trkpt lat="45.10659" lon="6.00324">
        <ele>728.59997558594</ele>
        <time>2024-10-15T14:28:10.000Z</time>
      </trkpt>
      <trkpt lat="45.10661" lon="6.00324">
        <ele>728.79998779297</ele>
        <time>2024-10-15T14:28:11.000Z</time>
      </trkpt>
      <trkpt lat="45.10662" lon="6.00324">
        <ele>728.79998779297</ele>
        <time>2024-10-15T14:28:12.000Z</time>
      </trkpt>
      <trkpt lat="45.10664" lon="6.00324">
        <ele>729</ele>
        <time>2024-10-15T14:28:13.000Z</time>
      </trkpt>
      <trkpt lat="45.10665" lon="6.00324">
        <ele>729</ele>
        <time>2024-10-15T14:28:14.000Z</time>
      </trkpt>
      <trkpt lat="45.10666" lon="6.00324">
        <ele>729</ele>
        <time>2024-10-15T14:28:15.000Z</time>
      </trkpt>
      <trkpt lat="45.10667" lon="6.00324">
        <ele>729</ele>
        <time>2024-10-15T14:28:16.000Z</time>
      </trkpt>
      <trkpt lat="45.10669" lon="6.00324">
        <ele>729</ele>
        <time>2024-10-15T14:28:17.000Z</time>
      </trkpt>
      <trkpt lat="45.1067" lon="6.00324">
        <ele>729</ele>
        <time>2024-10-15T14:28:18.000Z</time>
      </trkpt>
      <trkpt lat="45.10671" lon="6.00324">
        <ele>729.20001220703</ele>
        <time>2024-10-15T14:28:19.000Z</time>
      </trkpt>
      <trkpt lat="45.10672" lon="6.00324">
        <ele>729.20001220703</ele>
        <time>2024-10-15T14:28:20.000Z</time>
      </trkpt>
      <trkpt lat="45.10673" lon="6.00324">
        <ele>729.20001220703</ele>
        <time>2024-10-15T14:28:21.000Z</time>
      </trkpt>
      <trkpt lat="45.10673" lon="6.00324">
        <ele>729.20001220703</ele>
        <time>2024-10-15T14:28:22.000Z</time>
      </trkpt>
      <trkpt lat="45.10674" lon="6.00324">
        <ele>729.40002441406</ele>
        <time>2024-10-15T14:28:23.000Z</time>
      </trkpt>
      <trkpt lat="45.10675" lon="6.00324">
        <ele>729.40002441406</ele>
        <time>2024-10-15T14:28:24.000Z</time>
      </trkpt>
      <trkpt lat="45.10677" lon="6.00325">
        <ele>729.59997558594</ele>
        <time>2024-10-15T14:28:25.000Z</time>
      </trkpt>
      <trkpt lat="45.10678" lon="6.00325">
        <ele>729.59997558594</ele>
        <time>2024-10-15T14:28:26.000Z</time>
      </trkpt>
      <trkpt lat="45.10679" lon="6.00325">
        <ele>729.79998779297</ele>
        <time>2024-10-15T14:28:27.000Z</time>
      </trkpt>
      <trkpt lat="45.1068" lon="6.00325">
        <ele>729.79998779297</ele>
        <time>2024-10-15T14:28:28.000Z</time>
      </trkpt>
      <trkpt lat="45.10681" lon="6.00324">
        <ele>729.79998779297</ele>
        <time>2024-10-15T14:28:29.000Z</time>
      </trkpt>
      <trkpt lat="45.10682" lon="6.00324">
        <ele>730</ele>
        <time>2024-10-15T14:28:30.000Z</time>
      </trkpt>
      <trkpt lat="45.10683" lon="6.00323">
        <ele>730</ele>
        <time>2024-10-15T14:28:31.000Z</time>
      </trkpt>
      <trkpt lat="45.10684" lon="6.00323">
        <ele>730</ele>
        <time>2024-10-15T14:28:32.000Z</time>
      </trkpt>
      <trkpt lat="45.10684" lon="6.00323">
        <ele>730.20001220703</ele>
        <time>2024-10-15T14:28:33.000Z</time>
      </trkpt>
      <trkpt lat="45.10684" lon="6.00323">
        <ele>730.20001220703</ele>
        <time>2024-10-15T14:28:34.000Z</time>
      </trkpt>
      <trkpt lat="45.10685" lon="6.00323">
        <ele>730.20001220703</ele>
        <time>2024-10-15T14:28:35.000Z</time>
      </trkpt>
      <trkpt lat="45.10686" lon="6.00323">
        <ele>730.40002441406</ele>
        <time>2024-10-15T14:28:36.000Z</time>
      </trkpt>
      <trkpt lat="45.10687" lon="6.00322">
        <ele>730.40002441406</ele>
        <time>2024-10-15T14:28:37.000Z</time>
      </trkpt>
      <trkpt lat="45.10687" lon="6.00322">
        <ele>730.40002441406</ele>
        <time>2024-10-15T14:28:38.000Z</time>
      </trkpt>
      <trkpt lat="45.10689" lon="6.00322">
        <ele>730.40002441406</ele>
        <time>2024-10-15T14:28:39.000Z</time>
      </trkpt>
      <trkpt lat="45.1069" lon="6.00322">
        <ele>730.40002441406</ele>
        <time>2024-10-15T14:28:40.000Z</time>
      </trkpt>
      <trkpt lat="45.10691" lon="6.00322">
        <ele>730.40002441406</ele>
        <time>2024-10-15T14:28:41.000Z</time>
      </trkpt>
      <trkpt lat="45.10692" lon="6.00322">
        <ele>730.40002441406</ele>
        <time>2024-10-15T14:28:42.000Z</time>
      </trkpt>
      <trkpt lat="45.10692" lon="6.00322">
        <ele>730.20001220703</ele>
        <time>2024-10-15T14:28:43.000Z</time>
      </trkpt>
      <trkpt lat="45.10694" lon="6.00321">
        <ele>730</ele>
        <time>2024-10-15T14:28:44.000Z</time>
      </trkpt>
      <trkpt lat="45.10696" lon="6.00322">
        <ele>730</ele>
        <time>2024-10-15T14:28:45.000Z</time>
      </trkpt>
      <trkpt lat="45.10697" lon="6.00323">
        <ele>730</ele>
        <time>2024-10-15T14:28:46.000Z</time>
      </trkpt>
      <trkpt lat="45.10699" lon="6.00324">
        <ele>730</ele>
        <time>2024-10-15T14:28:47.000Z</time>
      </trkpt>
      <trkpt lat="45.10699" lon="6.00324">
        <ele>730</ele>
        <time>2024-10-15T14:28:48.000Z</time>
      </trkpt>
      <trkpt lat="45.10699" lon="6.00324">
        <ele>729.79998779297</ele>
        <time>2024-10-15T14:28:49.000Z</time>
      </trkpt>
      <trkpt lat="45.10701" lon="6.00324">
        <ele>729.79998779297</ele>
        <time>2024-10-15T14:28:50.000Z</time>
      </trkpt>
      <trkpt lat="45.10702" lon="6.00324">
        <ele>729.79998779297</ele>
        <time>2024-10-15T14:28:51.000Z</time>
      </trkpt>
      <trkpt lat="45.10703" lon="6.00325">
        <ele>729.79998779297</ele>
        <time>2024-10-15T14:28:52.000Z</time>
      </trkpt>
      <trkpt lat="45.10704" lon="6.00326">
        <ele>729.79998779297</ele>
        <time>2024-10-15T14:28:53.000Z</time>
      </trkpt>
      <trkpt lat="45.10705" lon="6.00326">
        <ele>729.79998779297</ele>
        <time>2024-10-15T14:28:54.000Z</time>
      </trkpt>
      <trkpt lat="45.10707" lon="6.00326">
        <ele>729.59997558594</ele>
        <time>2024-10-15T14:28:55.000Z</time>
      </trkpt>
      <trkpt lat="45.10708" lon="6.00327">
        <ele>729.59997558594</ele>
        <time>2024-10-15T14:28:56.000Z</time>
      </trkpt>
      <trkpt lat="45.1071" lon="6.00328">
        <ele>729.59997558594</ele>
        <time>2024-10-15T14:28:57.000Z</time>
      </trkpt>
      <trkpt lat="45.10712" lon="6.00329">
        <ele>729.59997558594</ele>
        <time>2024-10-15T14:28:58.000Z</time>
      </trkpt>
      <trkpt lat="45.10714" lon="6.0033">
        <ele>729.59997558594</ele>
        <time>2024-10-15T14:28:59.000Z</time>
      </trkpt>
      <trkpt lat="45.10715" lon="6.0033">
        <ele>729.59997558594</ele>
        <time>2024-10-15T14:29:00.000Z</time>
      </trkpt>
      <trkpt lat="45.10716" lon="6.00331">
        <ele>729.59997558594</ele>
        <time>2024-10-15T14:29:01.000Z</time>
      </trkpt>
      <trkpt lat="45.10718" lon="6.00332">
        <ele>729.59997558594</ele>
        <time>2024-10-15T14:29:02.000Z</time>
      </trkpt>
      <trkpt lat="45.10719" lon="6.00332">
        <ele>729.59997558594</ele>
        <time>2024-10-15T14:29:03.000Z</time>
      </trkpt>
      <trkpt lat="45.10721" lon="6.00333">
        <ele>729.59997558594</ele>
        <time>2024-10-15T14:29:04.000Z</time>
      </trkpt>
      <trkpt lat="45.10723" lon="6.00333">
        <ele>729.59997558594</ele>
        <time>2024-10-15T14:29:05.000Z</time>
      </trkpt>
      <trkpt lat="45.10724" lon="6.00334">
        <ele>729.59997558594</ele>
        <time>2024-10-15T14:29:06.000Z</time>
      </trkpt>
      <trkpt lat="45.10726" lon="6.00335">
        <ele>729.40002441406</ele>
        <time>2024-10-15T14:29:07.000Z</time>
      </trkpt>
      <trkpt lat="45.10727" lon="6.00336">
        <ele>729.40002441406</ele>
        <time>2024-10-15T14:29:08.000Z</time>
      </trkpt>
      <trkpt lat="45.10728" lon="6.00338">
        <ele>729.40002441406</ele>
        <time>2024-10-15T14:29:09.000Z</time>
      </trkpt>
      <trkpt lat="45.10729" lon="6.00339">
        <ele>729.40002441406</ele>
        <time>2024-10-15T14:29:10.000Z</time>
      </trkpt>
      <trkpt lat="45.1073" lon="6.0034">
        <ele>729.40002441406</ele>
        <time>2024-10-15T14:29:11.000Z</time>
      </trkpt>
      <trkpt lat="45.10731" lon="6.00342">
        <ele>729.40002441406</ele>
        <time>2024-10-15T14:29:12.000Z</time>
      </trkpt>
      <trkpt lat="45.10733" lon="6.00343">
        <ele>729.40002441406</ele>
        <time>2024-10-15T14:29:13.000Z</time>
      </trkpt>
      <trkpt lat="45.10734" lon="6.00345">
        <ele>729.40002441406</ele>
        <time>2024-10-15T14:29:14.000Z</time>
      </trkpt>
      <trkpt lat="45.10736" lon="6.00346">
        <ele>729.40002441406</ele>
        <time>2024-10-15T14:29:15.000Z</time>
      </trkpt>
      <trkpt lat="45.10737" lon="6.00346">
        <ele>729.20001220703</ele>
        <time>2024-10-15T14:29:16.000Z</time>
      </trkpt>
      <trkpt lat="45.10738" lon="6.00346">
        <ele>729.20001220703</ele>
        <time>2024-10-15T14:29:17.000Z</time>
      </trkpt>
      <trkpt lat="45.10739" lon="6.00347">
        <ele>729.20001220703</ele>
        <time>2024-10-15T14:29:18.000Z</time>
      </trkpt>
      <trkpt lat="45.10741" lon="6.00347">
        <ele>729.20001220703</ele>
        <time>2024-10-15T14:29:19.000Z</time>
      </trkpt>
      <trkpt lat="45.10742" lon="6.00347">
        <ele>729.20001220703</ele>
        <time>2024-10-15T14:29:20.000Z</time>
      </trkpt>
      <trkpt lat="45.10744" lon="6.00348">
        <ele>729.20001220703</ele>
        <time>2024-10-15T14:29:21.000Z</time>
      </trkpt>
      <trkpt lat="45.10745" lon="6.00348">
        <ele>729</ele>
        <time>2024-10-15T14:29:22.000Z</time>
      </trkpt>
      <trkpt lat="45.10747" lon="6.00348">
        <ele>729</ele>
        <time>2024-10-15T14:29:23.000Z</time>
      </trkpt>
      <trkpt lat="45.10749" lon="6.00349">
        <ele>728.79998779297</ele>
        <time>2024-10-15T14:29:24.000Z</time>
      </trkpt>
      <trkpt lat="45.1075" lon="6.0035">
        <ele>728.79998779297</ele>
        <time>2024-10-15T14:29:25.000Z</time>
      </trkpt>
      <trkpt lat="45.1075" lon="6.0035">
        <ele>728.79998779297</ele>
        <time>2024-10-15T14:29:26.000Z</time>
      </trkpt>
      <trkpt lat="45.10751" lon="6.0035">
        <ele>728.79998779297</ele>
        <time>2024-10-15T14:29:27.000Z</time>
      </trkpt>
      <trkpt lat="45.10753" lon="6.00349">
        <ele>728.79998779297</ele>
        <time>2024-10-15T14:29:28.000Z</time>
      </trkpt>
      <trkpt lat="45.10755" lon="6.0035">
        <ele>728.79998779297</ele>
        <time>2024-10-15T14:29:29.000Z</time>
      </trkpt>
      <trkpt lat="45.10757" lon="6.0035">
        <ele>728.79998779297</ele>
        <time>2024-10-15T14:29:30.000Z</time>
      </trkpt>
      <trkpt lat="45.10759" lon="6.00349">
        <ele>728.79998779297</ele>
        <time>2024-10-15T14:29:31.000Z</time>
      </trkpt>
      <trkpt lat="45.10759" lon="6.00349">
        <ele>728.79998779297</ele>
        <time>2024-10-15T14:29:32.000Z</time>
      </trkpt>
      <trkpt lat="45.1076" lon="6.0035">
        <ele>728.79998779297</ele>
        <time>2024-10-15T14:29:33.000Z</time>
      </trkpt>
      <trkpt lat="45.10761" lon="6.00351">
        <ele>728.79998779297</ele>
        <time>2024-10-15T14:29:34.000Z</time>
      </trkpt>
      <trkpt lat="45.10762" lon="6.00351">
        <ele>728.79998779297</ele>
        <time>2024-10-15T14:29:35.000Z</time>
      </trkpt>
      <trkpt lat="45.10763" lon="6.00351">
        <ele>728.79998779297</ele>
        <time>2024-10-15T14:29:36.000Z</time>
      </trkpt>
      <trkpt lat="45.10764" lon="6.00352">
        <ele>728.79998779297</ele>
        <time>2024-10-15T14:29:37.000Z</time>
      </trkpt>
      <trkpt lat="45.10764" lon="6.00352">
        <ele>728.79998779297</ele>
        <time>2024-10-15T14:29:38.000Z</time>
      </trkpt>
      <trkpt lat="45.10765" lon="6.00353">
        <ele>728.59997558594</ele>
        <time>2024-10-15T14:29:39.000Z</time>
      </trkpt>
      <trkpt lat="45.10766" lon="6.00354">
        <ele>728.59997558594</ele>
        <time>2024-10-15T14:29:40.000Z</time>
      </trkpt>
      <trkpt lat="45.10767" lon="6.00355">
        <ele>728.59997558594</ele>
        <time>2024-10-15T14:29:41.000Z</time>
      </trkpt>
      <trkpt lat="45.10768" lon="6.00355">
        <ele>728.59997558594</ele>
        <time>2024-10-15T14:29:42.000Z</time>
      </trkpt>
      <trkpt lat="45.1077" lon="6.00357">
        <ele>728.79998779297</ele>
        <time>2024-10-15T14:29:43.000Z</time>
      </trkpt>
      <trkpt lat="45.10773" lon="6.00362">
        <ele>728.59997558594</ele>
        <time>2024-10-15T14:29:44.000Z</time>
      </trkpt>
      <trkpt lat="45.10775" lon="6.00365">
        <ele>728.79998779297</ele>
        <time>2024-10-15T14:29:45.000Z</time>
      </trkpt>
      <trkpt lat="45.10776" lon="6.00367">
        <ele>728.79998779297</ele>
        <time>2024-10-15T14:29:46.000Z</time>
      </trkpt>
      <trkpt lat="45.10777" lon="6.00367">
        <ele>728.59997558594</ele>
        <time>2024-10-15T14:29:47.000Z</time>
      </trkpt>
      <trkpt lat="45.10778" lon="6.00368">
        <ele>728.59997558594</ele>
        <time>2024-10-15T14:29:48.000Z</time>
      </trkpt>
      <trkpt lat="45.10779" lon="6.00369">
        <ele>728.59997558594</ele>
        <time>2024-10-15T14:29:49.000Z</time>
      </trkpt>
      <trkpt lat="45.10779" lon="6.0037">
        <ele>728.59997558594</ele>
        <time>2024-10-15T14:29:50.000Z</time>
      </trkpt>
      <trkpt lat="45.10779" lon="6.0037">
        <ele>728.59997558594</ele>
        <time>2024-10-15T14:29:51.000Z</time>
      </trkpt>
      <trkpt lat="45.1078" lon="6.00371">
        <ele>728.59997558594</ele>
        <time>2024-10-15T14:29:52.000Z</time>
      </trkpt>
      <trkpt lat="45.10781" lon="6.00371">
        <ele>728.59997558594</ele>
        <time>2024-10-15T14:29:53.000Z</time>
      </trkpt>
      <trkpt lat="45.10782" lon="6.00372">
        <ele>728.59997558594</ele>
        <time>2024-10-15T14:29:54.000Z</time>
      </trkpt>
      <trkpt lat="45.10783" lon="6.00373">
        <ele>728.59997558594</ele>
        <time>2024-10-15T14:29:55.000Z</time>
      </trkpt>
      <trkpt lat="45.10784" lon="6.00373">
        <ele>728.59997558594</ele>
        <time>2024-10-15T14:29:56.000Z</time>
      </trkpt>
      <trkpt lat="45.10786" lon="6.00375">
        <ele>728.59997558594</ele>
        <time>2024-10-15T14:29:57.000Z</time>
      </trkpt>
      <trkpt lat="45.10787" lon="6.00375">
        <ele>728.59997558594</ele>
        <time>2024-10-15T14:29:58.000Z</time>
      </trkpt>
      <trkpt lat="45.10788" lon="6.00375">
        <ele>728.59997558594</ele>
        <time>2024-10-15T14:29:59.000Z</time>
      </trkpt>
      <trkpt lat="45.10789" lon="6.00375">
        <ele>728.59997558594</ele>
        <time>2024-10-15T14:30:00.000Z</time>
      </trkpt>
      <trkpt lat="45.1079" lon="6.00375">
        <ele>728.59997558594</ele>
        <time>2024-10-15T14:30:01.000Z</time>
      </trkpt>
      <trkpt lat="45.10791" lon="6.00375">
        <ele>728.59997558594</ele>
        <time>2024-10-15T14:30:02.000Z</time>
      </trkpt>
      <trkpt lat="45.10793" lon="6.00376">
        <ele>728.59997558594</ele>
        <time>2024-10-15T14:30:03.000Z</time>
      </trkpt>
      <trkpt lat="45.10794" lon="6.00377">
        <ele>728.59997558594</ele>
        <time>2024-10-15T14:30:04.000Z</time>
      </trkpt>
      <trkpt lat="45.10795" lon="6.00377">
        <ele>728.59997558594</ele>
        <time>2024-10-15T14:30:05.000Z</time>
      </trkpt>
      <trkpt lat="45.10796" lon="6.00377">
        <ele>728.40002441406</ele>
        <time>2024-10-15T14:30:06.000Z</time>
      </trkpt>
      <trkpt lat="45.10797" lon="6.00378">
        <ele>728.40002441406</ele>
        <time>2024-10-15T14:30:07.000Z</time>
      </trkpt>
      <trkpt lat="45.10797" lon="6.00381">
        <ele>728.40002441406</ele>
        <time>2024-10-15T14:30:08.000Z</time>
      </trkpt>
      <trkpt lat="45.10799" lon="6.00383">
        <ele>728.40002441406</ele>
        <time>2024-10-15T14:30:09.000Z</time>
      </trkpt>
      <trkpt lat="45.10801" lon="6.00386">
        <ele>728.40002441406</ele>
        <time>2024-10-15T14:30:10.000Z</time>
      </trkpt>
      <trkpt lat="45.10802" lon="6.00387">
        <ele>728.40002441406</ele>
        <time>2024-10-15T14:30:11.000Z</time>
      </trkpt>
      <trkpt lat="45.10804" lon="6.00387">
        <ele>728.40002441406</ele>
        <time>2024-10-15T14:30:12.000Z</time>
      </trkpt>
      <trkpt lat="45.10806" lon="6.00388">
        <ele>728.59997558594</ele>
        <time>2024-10-15T14:30:13.000Z</time>
      </trkpt>
      <trkpt lat="45.10807" lon="6.00388">
        <ele>728.59997558594</ele>
        <time>2024-10-15T14:30:14.000Z</time>
      </trkpt>
      <trkpt lat="45.10808" lon="6.00387">
        <ele>728.59997558594</ele>
        <time>2024-10-15T14:30:15.000Z</time>
      </trkpt>
      <trkpt lat="45.1081" lon="6.00386">
        <ele>728.59997558594</ele>
        <time>2024-10-15T14:30:16.000Z</time>
      </trkpt>
      <trkpt lat="45.10811" lon="6.00386">
        <ele>728.59997558594</ele>
        <time>2024-10-15T14:30:17.000Z</time>
      </trkpt>
      <trkpt lat="45.10813" lon="6.00386">
        <ele>728.59997558594</ele>
        <time>2024-10-15T14:30:18.000Z</time>
      </trkpt>
      <trkpt lat="45.10815" lon="6.00385">
        <ele>728.59997558594</ele>
        <time>2024-10-15T14:30:19.000Z</time>
      </trkpt>
      <trkpt lat="45.10815" lon="6.00386">
        <ele>728.59997558594</ele>
        <time>2024-10-15T14:30:20.000Z</time>
      </trkpt>
      <trkpt lat="45.10817" lon="6.00388">
        <ele>728.59997558594</ele>
        <time>2024-10-15T14:30:21.000Z</time>
      </trkpt>
      <trkpt lat="45.10818" lon="6.00389">
        <ele>728.59997558594</ele>
        <time>2024-10-15T14:30:22.000Z</time>
      </trkpt>
      <trkpt lat="45.10819" lon="6.0039">
        <ele>728.59997558594</ele>
        <time>2024-10-15T14:30:23.000Z</time>
      </trkpt>
      <trkpt lat="45.1082" lon="6.0039">
        <ele>728.59997558594</ele>
        <time>2024-10-15T14:30:24.000Z</time>
      </trkpt>
      <trkpt lat="45.10822" lon="6.00391">
        <ele>728.40002441406</ele>
        <time>2024-10-15T14:30:25.000Z</time>
      </trkpt>
      <trkpt lat="45.10823" lon="6.00391">
        <ele>728.40002441406</ele>
        <time>2024-10-15T14:30:26.000Z</time>
      </trkpt>
      <trkpt lat="45.10825" lon="6.00391">
        <ele>728.40002441406</ele>
        <time>2024-10-15T14:30:27.000Z</time>
      </trkpt>
      <trkpt lat="45.10825" lon="6.00392">
        <ele>728.40002441406</ele>
        <time>2024-10-15T14:30:28.000Z</time>
      </trkpt>
      <trkpt lat="45.10826" lon="6.00393">
        <ele>728.40002441406</ele>
        <time>2024-10-15T14:30:29.000Z</time>
      </trkpt>
      <trkpt lat="45.10827" lon="6.00394">
        <ele>728.40002441406</ele>
        <time>2024-10-15T14:30:30.000Z</time>
      </trkpt>
      <trkpt lat="45.10828" lon="6.00395">
        <ele>728.40002441406</ele>
        <time>2024-10-15T14:30:31.000Z</time>
      </trkpt>
      <trkpt lat="45.10829" lon="6.00396">
        <ele>728.40002441406</ele>
        <time>2024-10-15T14:30:32.000Z</time>
      </trkpt>
      <trkpt lat="45.10831" lon="6.00397">
        <ele>728.40002441406</ele>
        <time>2024-10-15T14:30:33.000Z</time>
      </trkpt>
      <trkpt lat="45.10833" lon="6.00398">
        <ele>728.40002441406</ele>
        <time>2024-10-15T14:30:34.000Z</time>
      </trkpt>
      <trkpt lat="45.10834" lon="6.00399">
        <ele>728.40002441406</ele>
        <time>2024-10-15T14:30:35.000Z</time>
      </trkpt>
      <trkpt lat="45.10835" lon="6.004">
        <ele>728.40002441406</ele>
        <time>2024-10-15T14:30:36.000Z</time>
      </trkpt>
      <trkpt lat="45.10836" lon="6.004">
        <ele>728.40002441406</ele>
        <time>2024-10-15T14:30:37.000Z</time>
      </trkpt>
      <trkpt lat="45.10838" lon="6.00401">
        <ele>728.20001220703</ele>
        <time>2024-10-15T14:30:38.000Z</time>
      </trkpt>
      <trkpt lat="45.10839" lon="6.00401">
        <ele>728.20001220703</ele>
        <time>2024-10-15T14:30:39.000Z</time>
      </trkpt>
      <trkpt lat="45.1084" lon="6.00402">
        <ele>728.20001220703</ele>
        <time>2024-10-15T14:30:40.000Z</time>
      </trkpt>
      <trkpt lat="45.10841" lon="6.00402">
        <ele>728</ele>
        <time>2024-10-15T14:30:41.000Z</time>
      </trkpt>
      <trkpt lat="45.10842" lon="6.00402">
        <ele>728.20001220703</ele>
        <time>2024-10-15T14:30:42.000Z</time>
      </trkpt>
      <trkpt lat="45.10843" lon="6.00401">
        <ele>728.20001220703</ele>
        <time>2024-10-15T14:30:43.000Z</time>
      </trkpt>
      <trkpt lat="45.10844" lon="6.00401">
        <ele>728.40002441406</ele>
        <time>2024-10-15T14:30:44.000Z</time>
      </trkpt>
      <trkpt lat="45.10845" lon="6.00401">
        <ele>728.59997558594</ele>
        <time>2024-10-15T14:30:45.000Z</time>
      </trkpt>
      <trkpt lat="45.10846" lon="6.00401">
        <ele>728.59997558594</ele>
        <time>2024-10-15T14:30:46.000Z</time>
      </trkpt>
      <trkpt lat="45.10847" lon="6.00401">
        <ele>728.59997558594</ele>
        <time>2024-10-15T14:30:47.000Z</time>
      </trkpt>
      <trkpt lat="45.10849" lon="6.00401">
        <ele>728.59997558594</ele>
        <time>2024-10-15T14:30:48.000Z</time>
      </trkpt>
      <trkpt lat="45.1085" lon="6.00401">
        <ele>728.59997558594</ele>
        <time>2024-10-15T14:30:49.000Z</time>
      </trkpt>
      <trkpt lat="45.10852" lon="6.00403">
        <ele>728.79998779297</ele>
        <time>2024-10-15T14:30:50.000Z</time>
      </trkpt>
      <trkpt lat="45.10853" lon="6.00404">
        <ele>728.79998779297</ele>
        <time>2024-10-15T14:30:51.000Z</time>
      </trkpt>
      <trkpt lat="45.10854" lon="6.00404">
        <ele>728.79998779297</ele>
        <time>2024-10-15T14:30:52.000Z</time>
      </trkpt>
      <trkpt lat="45.10856" lon="6.00405">
        <ele>728.79998779297</ele>
        <time>2024-10-15T14:30:53.000Z</time>
      </trkpt>
      <trkpt lat="45.10857" lon="6.00405">
        <ele>728.79998779297</ele>
        <time>2024-10-15T14:30:54.000Z</time>
      </trkpt>
      <trkpt lat="45.10858" lon="6.00406">
        <ele>728.79998779297</ele>
        <time>2024-10-15T14:30:55.000Z</time>
      </trkpt>
      <trkpt lat="45.1086" lon="6.00406">
        <ele>728.59997558594</ele>
        <time>2024-10-15T14:30:56.000Z</time>
      </trkpt>
      <trkpt lat="45.10862" lon="6.00406">
        <ele>728.59997558594</ele>
        <time>2024-10-15T14:30:57.000Z</time>
      </trkpt>
      <trkpt lat="45.10864" lon="6.00406">
        <ele>728.59997558594</ele>
        <time>2024-10-15T14:30:58.000Z</time>
      </trkpt>
      <trkpt lat="45.10865" lon="6.00406">
        <ele>728.59997558594</ele>
        <time>2024-10-15T14:30:59.000Z</time>
      </trkpt>
      <trkpt lat="45.10867" lon="6.00405">
        <ele>728.59997558594</ele>
        <time>2024-10-15T14:31:00.000Z</time>
      </trkpt>
      <trkpt lat="45.10868" lon="6.00405">
        <ele>728.59997558594</ele>
        <time>2024-10-15T14:31:01.000Z</time>
      </trkpt>
      <trkpt lat="45.10868" lon="6.00405">
        <ele>728.59997558594</ele>
        <time>2024-10-15T14:31:02.000Z</time>
      </trkpt>
      <trkpt lat="45.10869" lon="6.00405">
        <ele>728.59997558594</ele>
        <time>2024-10-15T14:31:03.000Z</time>
      </trkpt>
      <trkpt lat="45.1087" lon="6.00404">
        <ele>728.59997558594</ele>
        <time>2024-10-15T14:31:04.000Z</time>
      </trkpt>
      <trkpt lat="45.10871" lon="6.00403">
        <ele>728.59997558594</ele>
        <time>2024-10-15T14:31:05.000Z</time>
      </trkpt>
      <trkpt lat="45.10871" lon="6.00403">
        <ele>728.59997558594</ele>
        <time>2024-10-15T14:31:06.000Z</time>
      </trkpt>
      <trkpt lat="45.10872" lon="6.00404">
        <ele>728.59997558594</ele>
        <time>2024-10-15T14:31:07.000Z</time>
      </trkpt>
      <trkpt lat="45.10873" lon="6.00403">
        <ele>728.59997558594</ele>
        <time>2024-10-15T14:31:08.000Z</time>
      </trkpt>
      <trkpt lat="45.10874" lon="6.00402">
        <ele>728.59997558594</ele>
        <time>2024-10-15T14:31:09.000Z</time>
      </trkpt>
      <trkpt lat="45.10876" lon="6.00403">
        <ele>728.59997558594</ele>
        <time>2024-10-15T14:31:10.000Z</time>
      </trkpt>
      <trkpt lat="45.10878" lon="6.00404">
        <ele>728.59997558594</ele>
        <time>2024-10-15T14:31:11.000Z</time>
      </trkpt>
      <trkpt lat="45.10879" lon="6.00405">
        <ele>728.59997558594</ele>
        <time>2024-10-15T14:31:12.000Z</time>
      </trkpt>
      <trkpt lat="45.10879" lon="6.00405">
        <ele>728.59997558594</ele>
        <time>2024-10-15T14:31:13.000Z</time>
      </trkpt>
      <trkpt lat="45.1088" lon="6.00406">
        <ele>728.59997558594</ele>
        <time>2024-10-15T14:31:14.000Z</time>
      </trkpt>
      <trkpt lat="45.1088" lon="6.00407">
        <ele>728.59997558594</ele>
        <time>2024-10-15T14:31:15.000Z</time>
      </trkpt>
      <trkpt lat="45.10881" lon="6.00408">
        <ele>728.59997558594</ele>
        <time>2024-10-15T14:31:16.000Z</time>
      </trkpt>
      <trkpt lat="45.10883" lon="6.0041">
        <ele>728.59997558594</ele>
        <time>2024-10-15T14:31:17.000Z</time>
      </trkpt>
      <trkpt lat="45.10884" lon="6.00411">
        <ele>728.59997558594</ele>
        <time>2024-10-15T14:31:18.000Z</time>
      </trkpt>
      <trkpt lat="45.10886" lon="6.00411">
        <ele>728.40002441406</ele>
        <time>2024-10-15T14:31:19.000Z</time>
      </trkpt>
      <trkpt lat="45.10887" lon="6.00412">
        <ele>728.40002441406</ele>
        <time>2024-10-15T14:31:20.000Z</time>
      </trkpt>
      <trkpt lat="45.10889" lon="6.00412">
        <ele>728.40002441406</ele>
        <time>2024-10-15T14:31:21.000Z</time>
      </trkpt>
      <trkpt lat="45.10891" lon="6.00413">
        <ele>728.20001220703</ele>
        <time>2024-10-15T14:31:22.000Z</time>
      </trkpt>
      <trkpt lat="45.10893" lon="6.00414">
        <ele>728.20001220703</ele>
        <time>2024-10-15T14:31:23.000Z</time>
      </trkpt>
      <trkpt lat="45.10894" lon="6.00415">
        <ele>728.20001220703</ele>
        <time>2024-10-15T14:31:24.000Z</time>
      </trkpt>
      <trkpt lat="45.10895" lon="6.00416">
        <ele>728.20001220703</ele>
        <time>2024-10-15T14:31:25.000Z</time>
      </trkpt>
      <trkpt lat="45.10897" lon="6.00417">
        <ele>728.20001220703</ele>
        <time>2024-10-15T14:31:26.000Z</time>
      </trkpt>
      <trkpt lat="45.10898" lon="6.00418">
        <ele>728.20001220703</ele>
        <time>2024-10-15T14:31:27.000Z</time>
      </trkpt>
      <trkpt lat="45.109" lon="6.00418">
        <ele>728.20001220703</ele>
        <time>2024-10-15T14:31:28.000Z</time>
      </trkpt>
      <trkpt lat="45.10902" lon="6.00419">
        <ele>728.20001220703</ele>
        <time>2024-10-15T14:31:29.000Z</time>
      </trkpt>
      <trkpt lat="45.10903" lon="6.0042">
        <ele>728.20001220703</ele>
        <time>2024-10-15T14:31:30.000Z</time>
      </trkpt>
      <trkpt lat="45.10904" lon="6.0042">
        <ele>728.20001220703</ele>
        <time>2024-10-15T14:31:31.000Z</time>
      </trkpt>
      <trkpt lat="45.10906" lon="6.00421">
        <ele>728.20001220703</ele>
        <time>2024-10-15T14:31:32.000Z</time>
      </trkpt>
      <trkpt lat="45.10907" lon="6.00422">
        <ele>728</ele>
        <time>2024-10-15T14:31:33.000Z</time>
      </trkpt>
      <trkpt lat="45.10908" lon="6.00422">
        <ele>728</ele>
        <time>2024-10-15T14:31:34.000Z</time>
      </trkpt>
      <trkpt lat="45.10909" lon="6.00423">
        <ele>728</ele>
        <time>2024-10-15T14:31:35.000Z</time>
      </trkpt>
      <trkpt lat="45.1091" lon="6.00424">
        <ele>728</ele>
        <time>2024-10-15T14:31:36.000Z</time>
      </trkpt>
      <trkpt lat="45.10912" lon="6.00424">
        <ele>727.79998779297</ele>
        <time>2024-10-15T14:31:37.000Z</time>
      </trkpt>
      <trkpt lat="45.10912" lon="6.00426">
        <ele>727.79998779297</ele>
        <time>2024-10-15T14:31:38.000Z</time>
      </trkpt>
      <trkpt lat="45.10913" lon="6.00427">
        <ele>727.79998779297</ele>
        <time>2024-10-15T14:31:39.000Z</time>
      </trkpt>
      <trkpt lat="45.10914" lon="6.00429">
        <ele>727.79998779297</ele>
        <time>2024-10-15T14:31:40.000Z</time>
      </trkpt>
      <trkpt lat="45.10916" lon="6.0043">
        <ele>727.79998779297</ele>
        <time>2024-10-15T14:31:41.000Z</time>
      </trkpt>
      <trkpt lat="45.10918" lon="6.0043">
        <ele>727.59997558594</ele>
        <time>2024-10-15T14:31:42.000Z</time>
      </trkpt>
      <trkpt lat="45.10919" lon="6.0043">
        <ele>727.59997558594</ele>
        <time>2024-10-15T14:31:43.000Z</time>
      </trkpt>
      <trkpt lat="45.10921" lon="6.00431">
        <ele>727.59997558594</ele>
        <time>2024-10-15T14:31:44.000Z</time>
      </trkpt>
      <trkpt lat="45.10922" lon="6.00431">
        <ele>727.59997558594</ele>
        <time>2024-10-15T14:31:45.000Z</time>
      </trkpt>
      <trkpt lat="45.10923" lon="6.00432">
        <ele>727.59997558594</ele>
        <time>2024-10-15T14:31:46.000Z</time>
      </trkpt>
      <trkpt lat="45.10925" lon="6.00433">
        <ele>727.59997558594</ele>
        <time>2024-10-15T14:31:47.000Z</time>
      </trkpt>
      <trkpt lat="45.10927" lon="6.00433">
        <ele>727.59997558594</ele>
        <time>2024-10-15T14:31:48.000Z</time>
      </trkpt>
      <trkpt lat="45.10928" lon="6.00434">
        <ele>727.59997558594</ele>
        <time>2024-10-15T14:31:49.000Z</time>
      </trkpt>
      <trkpt lat="45.1093" lon="6.00434">
        <ele>727.59997558594</ele>
        <time>2024-10-15T14:31:50.000Z</time>
      </trkpt>
      <trkpt lat="45.1093" lon="6.00435">
        <ele>727.59997558594</ele>
        <time>2024-10-15T14:31:51.000Z</time>
      </trkpt>
      <trkpt lat="45.10931" lon="6.00436">
        <ele>727.40002441406</ele>
        <time>2024-10-15T14:31:52.000Z</time>
      </trkpt>
      <trkpt lat="45.10931" lon="6.00437">
        <ele>727.40002441406</ele>
        <time>2024-10-15T14:31:53.000Z</time>
      </trkpt>
      <trkpt lat="45.10933" lon="6.00438">
        <ele>727.40002441406</ele>
        <time>2024-10-15T14:31:54.000Z</time>
      </trkpt>
      <trkpt lat="45.10934" lon="6.00439">
        <ele>727.40002441406</ele>
        <time>2024-10-15T14:31:55.000Z</time>
      </trkpt>
      <trkpt lat="45.10935" lon="6.00439">
        <ele>727.40002441406</ele>
        <time>2024-10-15T14:31:56.000Z</time>
      </trkpt>
      <trkpt lat="45.10936" lon="6.00439">
        <ele>727.40002441406</ele>
        <time>2024-10-15T14:31:57.000Z</time>
      </trkpt>
      <trkpt lat="45.10938" lon="6.0044">
        <ele>727.40002441406</ele>
        <time>2024-10-15T14:31:58.000Z</time>
      </trkpt>
      <trkpt lat="45.10939" lon="6.0044">
        <ele>727.40002441406</ele>
        <time>2024-10-15T14:31:59.000Z</time>
      </trkpt>
      <trkpt lat="45.10941" lon="6.0044">
        <ele>727.40002441406</ele>
        <time>2024-10-15T14:32:00.000Z</time>
      </trkpt>
      <trkpt lat="45.10942" lon="6.0044">
        <ele>727.40002441406</ele>
        <time>2024-10-15T14:32:01.000Z</time>
      </trkpt>
      <trkpt lat="45.10943" lon="6.0044">
        <ele>727.40002441406</ele>
        <time>2024-10-15T14:32:02.000Z</time>
      </trkpt>
      <trkpt lat="45.10944" lon="6.0044">
        <ele>727.40002441406</ele>
        <time>2024-10-15T14:32:03.000Z</time>
      </trkpt>
      <trkpt lat="45.10946" lon="6.00439">
        <ele>727.20001220703</ele>
        <time>2024-10-15T14:32:04.000Z</time>
      </trkpt>
      <trkpt lat="45.10947" lon="6.00438">
        <ele>727.20001220703</ele>
        <time>2024-10-15T14:32:05.000Z</time>
      </trkpt>
      <trkpt lat="45.10948" lon="6.00437">
        <ele>727.20001220703</ele>
        <time>2024-10-15T14:32:06.000Z</time>
      </trkpt>
      <trkpt lat="45.10949" lon="6.00438">
        <ele>727.20001220703</ele>
        <time>2024-10-15T14:32:07.000Z</time>
      </trkpt>
      <trkpt lat="45.1095" lon="6.00438">
        <ele>727.20001220703</ele>
        <time>2024-10-15T14:32:08.000Z</time>
      </trkpt>
      <trkpt lat="45.10951" lon="6.00438">
        <ele>727.20001220703</ele>
        <time>2024-10-15T14:32:09.000Z</time>
      </trkpt>
      <trkpt lat="45.10952" lon="6.00437">
        <ele>727.20001220703</ele>
        <time>2024-10-15T14:32:10.000Z</time>
      </trkpt>
      <trkpt lat="45.10953" lon="6.00436">
        <ele>727.20001220703</ele>
        <time>2024-10-15T14:32:11.000Z</time>
      </trkpt>
      <trkpt lat="45.10954" lon="6.00436">
        <ele>727.40002441406</ele>
        <time>2024-10-15T14:32:12.000Z</time>
      </trkpt>
      <trkpt lat="45.10955" lon="6.00437">
        <ele>727.40002441406</ele>
        <time>2024-10-15T14:32:13.000Z</time>
      </trkpt>
      <trkpt lat="45.10956" lon="6.00438">
        <ele>727.40002441406</ele>
        <time>2024-10-15T14:32:14.000Z</time>
      </trkpt>
      <trkpt lat="45.10957" lon="6.00437">
        <ele>727.40002441406</ele>
        <time>2024-10-15T14:32:15.000Z</time>
      </trkpt>
      <trkpt lat="45.10958" lon="6.00437">
        <ele>727.40002441406</ele>
        <time>2024-10-15T14:32:16.000Z</time>
      </trkpt>
      <trkpt lat="45.10959" lon="6.00438">
        <ele>727.40002441406</ele>
        <time>2024-10-15T14:32:17.000Z</time>
      </trkpt>
      <trkpt lat="45.1096" lon="6.00438">
        <ele>727.40002441406</ele>
        <time>2024-10-15T14:32:18.000Z</time>
      </trkpt>
      <trkpt lat="45.10962" lon="6.00438">
        <ele>727.40002441406</ele>
        <time>2024-10-15T14:32:19.000Z</time>
      </trkpt>
      <trkpt lat="45.10964" lon="6.00438">
        <ele>727.59997558594</ele>
        <time>2024-10-15T14:32:20.000Z</time>
      </trkpt>
      <trkpt lat="45.10965" lon="6.00439">
        <ele>727.59997558594</ele>
        <time>2024-10-15T14:32:21.000Z</time>
      </trkpt>
      <trkpt lat="45.10966" lon="6.0044">
        <ele>727.59997558594</ele>
        <time>2024-10-15T14:32:22.000Z</time>
      </trkpt>
      <trkpt lat="45.10967" lon="6.00441">
        <ele>727.79998779297</ele>
        <time>2024-10-15T14:32:23.000Z</time>
      </trkpt>
      <trkpt lat="45.10967" lon="6.00442">
        <ele>727.79998779297</ele>
        <time>2024-10-15T14:32:24.000Z</time>
      </trkpt>
      <trkpt lat="45.10968" lon="6.00444">
        <ele>727.79998779297</ele>
        <time>2024-10-15T14:32:25.000Z</time>
      </trkpt>
      <trkpt lat="45.10969" lon="6.00446">
        <ele>727.79998779297</ele>
        <time>2024-10-15T14:32:26.000Z</time>
      </trkpt>
      <trkpt lat="45.1097" lon="6.00448">
        <ele>727.79998779297</ele>
        <time>2024-10-15T14:32:27.000Z</time>
      </trkpt>
      <trkpt lat="45.10971" lon="6.0045">
        <ele>727.79998779297</ele>
        <time>2024-10-15T14:32:28.000Z</time>
      </trkpt>
      <trkpt lat="45.10972" lon="6.00451">
        <ele>727.79998779297</ele>
        <time>2024-10-15T14:32:29.000Z</time>
      </trkpt>
      <trkpt lat="45.10973" lon="6.00453">
        <ele>727.79998779297</ele>
        <time>2024-10-15T14:32:30.000Z</time>
      </trkpt>
      <trkpt lat="45.10974" lon="6.00453">
        <ele>727.79998779297</ele>
        <time>2024-10-15T14:32:31.000Z</time>
      </trkpt>
      <trkpt lat="45.10974" lon="6.00454">
        <ele>727.79998779297</ele>
        <time>2024-10-15T14:32:32.000Z</time>
      </trkpt>
      <trkpt lat="45.10975" lon="6.00455">
        <ele>727.79998779297</ele>
        <time>2024-10-15T14:32:33.000Z</time>
      </trkpt>
      <trkpt lat="45.10976" lon="6.00456">
        <ele>727.79998779297</ele>
        <time>2024-10-15T14:32:34.000Z</time>
      </trkpt>
      <trkpt lat="45.10977" lon="6.00457">
        <ele>727.79998779297</ele>
        <time>2024-10-15T14:32:35.000Z</time>
      </trkpt>
      <trkpt lat="45.10978" lon="6.00458">
        <ele>727.79998779297</ele>
        <time>2024-10-15T14:32:36.000Z</time>
      </trkpt>
      <trkpt lat="45.10979" lon="6.0046">
        <ele>728</ele>
        <time>2024-10-15T14:32:37.000Z</time>
      </trkpt>
      <trkpt lat="45.1098" lon="6.00461">
        <ele>728</ele>
        <time>2024-10-15T14:32:38.000Z</time>
      </trkpt>
      <trkpt lat="45.10981" lon="6.00463">
        <ele>728</ele>
        <time>2024-10-15T14:32:39.000Z</time>
      </trkpt>
      <trkpt lat="45.10983" lon="6.00463">
        <ele>728</ele>
        <time>2024-10-15T14:32:40.000Z</time>
      </trkpt>
      <trkpt lat="45.10984" lon="6.00463">
        <ele>728.20001220703</ele>
        <time>2024-10-15T14:32:41.000Z</time>
      </trkpt>
      <trkpt lat="45.10986" lon="6.00463">
        <ele>728.20001220703</ele>
        <time>2024-10-15T14:32:42.000Z</time>
      </trkpt>
      <trkpt lat="45.10986" lon="6.00463">
        <ele>728.20001220703</ele>
        <time>2024-10-15T14:32:43.000Z</time>
      </trkpt>
      <trkpt lat="45.10989" lon="6.0046">
        <ele>728.20001220703</ele>
        <time>2024-10-15T14:32:44.000Z</time>
      </trkpt>
      <trkpt lat="45.1099" lon="6.00459">
        <ele>728.20001220703</ele>
        <time>2024-10-15T14:32:45.000Z</time>
      </trkpt>
      <trkpt lat="45.10992" lon="6.00459">
        <ele>728.20001220703</ele>
        <time>2024-10-15T14:32:46.000Z</time>
      </trkpt>
      <trkpt lat="45.10994" lon="6.0046">
        <ele>728.40002441406</ele>
        <time>2024-10-15T14:32:47.000Z</time>
      </trkpt>
      <trkpt lat="45.10996" lon="6.0046">
        <ele>728.40002441406</ele>
        <time>2024-10-15T14:32:48.000Z</time>
      </trkpt>
      <trkpt lat="45.10997" lon="6.0046">
        <ele>728.40002441406</ele>
        <time>2024-10-15T14:32:49.000Z</time>
      </trkpt>
      <trkpt lat="45.10998" lon="6.0046">
        <ele>728.40002441406</ele>
        <time>2024-10-15T14:32:50.000Z</time>
      </trkpt>
      <trkpt lat="45.10999" lon="6.00459">
        <ele>728.40002441406</ele>
        <time>2024-10-15T14:32:51.000Z</time>
      </trkpt>
      <trkpt lat="45.11" lon="6.00459">
        <ele>728.40002441406</ele>
        <time>2024-10-15T14:32:52.000Z</time>
      </trkpt>
      <trkpt lat="45.11001" lon="6.00459">
        <ele>728.59997558594</ele>
        <time>2024-10-15T14:32:53.000Z</time>
      </trkpt>
      <trkpt lat="45.11001" lon="6.00459">
        <ele>728.59997558594</ele>
        <time>2024-10-15T14:32:54.000Z</time>
      </trkpt>
      <trkpt lat="45.11002" lon="6.00459">
        <ele>728.59997558594</ele>
        <time>2024-10-15T14:32:55.000Z</time>
      </trkpt>
      <trkpt lat="45.11003" lon="6.0046">
        <ele>728.59997558594</ele>
        <time>2024-10-15T14:32:56.000Z</time>
      </trkpt>
      <trkpt lat="45.11004" lon="6.00461">
        <ele>728.59997558594</ele>
        <time>2024-10-15T14:32:57.000Z</time>
      </trkpt>
      <trkpt lat="45.11005" lon="6.00461">
        <ele>728.59997558594</ele>
        <time>2024-10-15T14:32:58.000Z</time>
      </trkpt>
      <trkpt lat="45.11007" lon="6.00462">
        <ele>728.59997558594</ele>
        <time>2024-10-15T14:32:59.000Z</time>
      </trkpt>
      <trkpt lat="45.11008" lon="6.00463">
        <ele>728.40002441406</ele>
        <time>2024-10-15T14:33:00.000Z</time>
      </trkpt>
      <trkpt lat="45.1101" lon="6.00463">
        <ele>728.40002441406</ele>
        <time>2024-10-15T14:33:01.000Z</time>
      </trkpt>
      <trkpt lat="45.11011" lon="6.00464">
        <ele>728.40002441406</ele>
        <time>2024-10-15T14:33:02.000Z</time>
      </trkpt>
      <trkpt lat="45.11011" lon="6.00466">
        <ele>728.40002441406</ele>
        <time>2024-10-15T14:33:03.000Z</time>
      </trkpt>
      <trkpt lat="45.11012" lon="6.00467">
        <ele>728.40002441406</ele>
        <time>2024-10-15T14:33:04.000Z</time>
      </trkpt>
      <trkpt lat="45.11013" lon="6.00467">
        <ele>728.40002441406</ele>
        <time>2024-10-15T14:33:05.000Z</time>
      </trkpt>
      <trkpt lat="45.11013" lon="6.00466">
        <ele>728.40002441406</ele>
        <time>2024-10-15T14:33:06.000Z</time>
      </trkpt>
      <trkpt lat="45.11014" lon="6.00466">
        <ele>728.40002441406</ele>
        <time>2024-10-15T14:33:07.000Z</time>
      </trkpt>
      <trkpt lat="45.11015" lon="6.00467">
        <ele>728.40002441406</ele>
        <time>2024-10-15T14:33:08.000Z</time>
      </trkpt>
      <trkpt lat="45.11016" lon="6.00468">
        <ele>728.40002441406</ele>
        <time>2024-10-15T14:33:09.000Z</time>
      </trkpt>
      <trkpt lat="45.11017" lon="6.00468">
        <ele>728.59997558594</ele>
        <time>2024-10-15T14:33:10.000Z</time>
      </trkpt>
      <trkpt lat="45.11018" lon="6.00469">
        <ele>728.59997558594</ele>
        <time>2024-10-15T14:33:11.000Z</time>
      </trkpt>
      <trkpt lat="45.11019" lon="6.0047">
        <ele>728.59997558594</ele>
        <time>2024-10-15T14:33:12.000Z</time>
      </trkpt>
      <trkpt lat="45.11021" lon="6.00471">
        <ele>728.59997558594</ele>
        <time>2024-10-15T14:33:13.000Z</time>
      </trkpt>
      <trkpt lat="45.11023" lon="6.00473">
        <ele>728.79998779297</ele>
        <time>2024-10-15T14:33:14.000Z</time>
      </trkpt>
      <trkpt lat="45.11024" lon="6.00474">
        <ele>729</ele>
        <time>2024-10-15T14:33:15.000Z</time>
      </trkpt>
      <trkpt lat="45.11024" lon="6.00474">
        <ele>729</ele>
        <time>2024-10-15T14:33:16.000Z</time>
      </trkpt>
      <trkpt lat="45.11025" lon="6.00474">
        <ele>729</ele>
        <time>2024-10-15T14:33:17.000Z</time>
      </trkpt>
      <trkpt lat="45.11026" lon="6.00475">
        <ele>729</ele>
        <time>2024-10-15T14:33:18.000Z</time>
      </trkpt>
      <trkpt lat="45.11027" lon="6.00476">
        <ele>729</ele>
        <time>2024-10-15T14:33:19.000Z</time>
      </trkpt>
      <trkpt lat="45.11028" lon="6.00477">
        <ele>729</ele>
        <time>2024-10-15T14:33:20.000Z</time>
      </trkpt>
      <trkpt lat="45.11029" lon="6.00478">
        <ele>729.20001220703</ele>
        <time>2024-10-15T14:33:21.000Z</time>
      </trkpt>
      <trkpt lat="45.1103" lon="6.00479">
        <ele>729.20001220703</ele>
        <time>2024-10-15T14:33:22.000Z</time>
      </trkpt>
      <trkpt lat="45.11032" lon="6.00479">
        <ele>729.20001220703</ele>
        <time>2024-10-15T14:33:23.000Z</time>
      </trkpt>
      <trkpt lat="45.11032" lon="6.0048">
        <ele>729.20001220703</ele>
        <time>2024-10-15T14:33:24.000Z</time>
      </trkpt>
      <trkpt lat="45.11033" lon="6.0048">
        <ele>729.20001220703</ele>
        <time>2024-10-15T14:33:25.000Z</time>
      </trkpt>
      <trkpt lat="45.11034" lon="6.0048">
        <ele>729.20001220703</ele>
        <time>2024-10-15T14:33:26.000Z</time>
      </trkpt>
      <trkpt lat="45.11034" lon="6.00481">
        <ele>729.20001220703</ele>
        <time>2024-10-15T14:33:27.000Z</time>
      </trkpt>
      <trkpt lat="45.11035" lon="6.00482">
        <ele>729.20001220703</ele>
        <time>2024-10-15T14:33:28.000Z</time>
      </trkpt>
      <trkpt lat="45.11037" lon="6.00482">
        <ele>729.20001220703</ele>
        <time>2024-10-15T14:33:29.000Z</time>
      </trkpt>
      <trkpt lat="45.11038" lon="6.00483">
        <ele>729.20001220703</ele>
        <time>2024-10-15T14:33:30.000Z</time>
      </trkpt>
      <trkpt lat="45.11039" lon="6.00485">
        <ele>729.20001220703</ele>
        <time>2024-10-15T14:33:31.000Z</time>
      </trkpt>
      <trkpt lat="45.11039" lon="6.00485">
        <ele>729.20001220703</ele>
        <time>2024-10-15T14:33:32.000Z</time>
      </trkpt>
      <trkpt lat="45.11039" lon="6.00487">
        <ele>729.20001220703</ele>
        <time>2024-10-15T14:33:33.000Z</time>
      </trkpt>
      <trkpt lat="45.1104" lon="6.00488">
        <ele>729.20001220703</ele>
        <time>2024-10-15T14:33:34.000Z</time>
      </trkpt>
      <trkpt lat="45.11041" lon="6.0049">
        <ele>729.20001220703</ele>
        <time>2024-10-15T14:33:35.000Z</time>
      </trkpt>
      <trkpt lat="45.11043" lon="6.00491">
        <ele>729.20001220703</ele>
        <time>2024-10-15T14:33:36.000Z</time>
      </trkpt>
      <trkpt lat="45.11045" lon="6.00493">
        <ele>729</ele>
        <time>2024-10-15T14:33:37.000Z</time>
      </trkpt>
      <trkpt lat="45.11046" lon="6.00493">
        <ele>729</ele>
        <time>2024-10-15T14:33:38.000Z</time>
      </trkpt>
      <trkpt lat="45.11047" lon="6.00493">
        <ele>729</ele>
        <time>2024-10-15T14:33:39.000Z</time>
      </trkpt>
      <trkpt lat="45.11048" lon="6.00493">
        <ele>729.20001220703</ele>
        <time>2024-10-15T14:33:40.000Z</time>
      </trkpt>
      <trkpt lat="45.11049" lon="6.00493">
        <ele>729.20001220703</ele>
        <time>2024-10-15T14:33:41.000Z</time>
      </trkpt>
      <trkpt lat="45.11051" lon="6.00494">
        <ele>729.20001220703</ele>
        <time>2024-10-15T14:33:42.000Z</time>
      </trkpt>
      <trkpt lat="45.11052" lon="6.00494">
        <ele>729.20001220703</ele>
        <time>2024-10-15T14:33:43.000Z</time>
      </trkpt>
      <trkpt lat="45.11053" lon="6.00494">
        <ele>729.20001220703</ele>
        <time>2024-10-15T14:33:44.000Z</time>
      </trkpt>
      <trkpt lat="45.11056" lon="6.00494">
        <ele>729.20001220703</ele>
        <time>2024-10-15T14:33:45.000Z</time>
      </trkpt>
      <trkpt lat="45.11057" lon="6.00495">
        <ele>729.20001220703</ele>
        <time>2024-10-15T14:33:46.000Z</time>
      </trkpt>
      <trkpt lat="45.11058" lon="6.00495">
        <ele>729.20001220703</ele>
        <time>2024-10-15T14:33:47.000Z</time>
      </trkpt>
      <trkpt lat="45.11059" lon="6.00495">
        <ele>729.20001220703</ele>
        <time>2024-10-15T14:33:48.000Z</time>
      </trkpt>
      <trkpt lat="45.1106" lon="6.00495">
        <ele>729.20001220703</ele>
        <time>2024-10-15T14:33:49.000Z</time>
      </trkpt>
      <trkpt lat="45.11061" lon="6.00494">
        <ele>729.20001220703</ele>
        <time>2024-10-15T14:33:50.000Z</time>
      </trkpt>
      <trkpt lat="45.11063" lon="6.00495">
        <ele>729.20001220703</ele>
        <time>2024-10-15T14:33:51.000Z</time>
      </trkpt>
      <trkpt lat="45.11064" lon="6.00496">
        <ele>728.79998779297</ele>
        <time>2024-10-15T14:33:52.000Z</time>
      </trkpt>
      <trkpt lat="45.11065" lon="6.00497">
        <ele>728.59997558594</ele>
        <time>2024-10-15T14:33:53.000Z</time>
      </trkpt>
      <trkpt lat="45.11066" lon="6.00496">
        <ele>728.59997558594</ele>
        <time>2024-10-15T14:33:54.000Z</time>
      </trkpt>
      <trkpt lat="45.11068" lon="6.00495">
        <ele>728.59997558594</ele>
        <time>2024-10-15T14:33:55.000Z</time>
      </trkpt>
      <trkpt lat="45.11069" lon="6.00496">
        <ele>728.79998779297</ele>
        <time>2024-10-15T14:33:56.000Z</time>
      </trkpt>
      <trkpt lat="45.11071" lon="6.00497">
        <ele>728.79998779297</ele>
        <time>2024-10-15T14:33:57.000Z</time>
      </trkpt>
      <trkpt lat="45.11072" lon="6.00499">
        <ele>728.79998779297</ele>
        <time>2024-10-15T14:33:58.000Z</time>
      </trkpt>
      <trkpt lat="45.11074" lon="6.00499">
        <ele>729</ele>
        <time>2024-10-15T14:33:59.000Z</time>
      </trkpt>
      <trkpt lat="45.11075" lon="6.005">
        <ele>729</ele>
        <time>2024-10-15T14:34:00.000Z</time>
      </trkpt>
      <trkpt lat="45.11075" lon="6.00501">
        <ele>729</ele>
        <time>2024-10-15T14:34:01.000Z</time>
      </trkpt>
      <trkpt lat="45.11077" lon="6.00502">
        <ele>729</ele>
        <time>2024-10-15T14:34:02.000Z</time>
      </trkpt>
      <trkpt lat="45.11079" lon="6.00504">
        <ele>729.20001220703</ele>
        <time>2024-10-15T14:34:03.000Z</time>
      </trkpt>
      <trkpt lat="45.1108" lon="6.00506">
        <ele>729.20001220703</ele>
        <time>2024-10-15T14:34:04.000Z</time>
      </trkpt>
      <trkpt lat="45.11081" lon="6.00508">
        <ele>729.20001220703</ele>
        <time>2024-10-15T14:34:05.000Z</time>
      </trkpt>
      <trkpt lat="45.11082" lon="6.00511">
        <ele>729.20001220703</ele>
        <time>2024-10-15T14:34:06.000Z</time>
      </trkpt>
      <trkpt lat="45.11083" lon="6.00513">
        <ele>729.20001220703</ele>
        <time>2024-10-15T14:34:07.000Z</time>
      </trkpt>
      <trkpt lat="45.11083" lon="6.00513">
        <ele>729.20001220703</ele>
        <time>2024-10-15T14:34:08.000Z</time>
      </trkpt>
      <trkpt lat="45.11084" lon="6.00513">
        <ele>729.20001220703</ele>
        <time>2024-10-15T14:34:09.000Z</time>
      </trkpt>
      <trkpt lat="45.11086" lon="6.00511">
        <ele>729.20001220703</ele>
        <time>2024-10-15T14:34:10.000Z</time>
      </trkpt>
      <trkpt lat="45.11087" lon="6.0051">
        <ele>729.20001220703</ele>
        <time>2024-10-15T14:34:11.000Z</time>
      </trkpt>
      <trkpt lat="45.11089" lon="6.0051">
        <ele>729.20001220703</ele>
        <time>2024-10-15T14:34:12.000Z</time>
      </trkpt>
      <trkpt lat="45.1109" lon="6.0051">
        <ele>729.20001220703</ele>
        <time>2024-10-15T14:34:13.000Z</time>
      </trkpt>
      <trkpt lat="45.1109" lon="6.0051">
        <ele>729.20001220703</ele>
        <time>2024-10-15T14:34:14.000Z</time>
      </trkpt>
      <trkpt lat="45.11091" lon="6.0051">
        <ele>729.20001220703</ele>
        <time>2024-10-15T14:34:15.000Z</time>
      </trkpt>
      <trkpt lat="45.11091" lon="6.0051">
        <ele>729.20001220703</ele>
        <time>2024-10-15T14:34:16.000Z</time>
      </trkpt>
      <trkpt lat="45.11091" lon="6.00511">
        <ele>729.40002441406</ele>
        <time>2024-10-15T14:34:17.000Z</time>
      </trkpt>
      <trkpt lat="45.11092" lon="6.0051">
        <ele>729.40002441406</ele>
        <time>2024-10-15T14:34:18.000Z</time>
      </trkpt>
      <trkpt lat="45.11093" lon="6.0051">
        <ele>729.40002441406</ele>
        <time>2024-10-15T14:34:19.000Z</time>
      </trkpt>
      <trkpt lat="45.11095" lon="6.00511">
        <ele>729.40002441406</ele>
        <time>2024-10-15T14:34:20.000Z</time>
      </trkpt>
      <trkpt lat="45.11096" lon="6.00513">
        <ele>729.40002441406</ele>
        <time>2024-10-15T14:34:21.000Z</time>
      </trkpt>
      <trkpt lat="45.11098" lon="6.00514">
        <ele>729.40002441406</ele>
        <time>2024-10-15T14:34:22.000Z</time>
      </trkpt>
      <trkpt lat="45.111" lon="6.00516">
        <ele>729.40002441406</ele>
        <time>2024-10-15T14:34:23.000Z</time>
      </trkpt>
      <trkpt lat="45.11101" lon="6.00518">
        <ele>729.40002441406</ele>
        <time>2024-10-15T14:34:24.000Z</time>
      </trkpt>
      <trkpt lat="45.11103" lon="6.00519">
        <ele>729.20001220703</ele>
        <time>2024-10-15T14:34:25.000Z</time>
      </trkpt>
      <trkpt lat="45.11104" lon="6.0052">
        <ele>729.20001220703</ele>
        <time>2024-10-15T14:34:26.000Z</time>
      </trkpt>
      <trkpt lat="45.11105" lon="6.00521">
        <ele>729.20001220703</ele>
        <time>2024-10-15T14:34:27.000Z</time>
      </trkpt>
      <trkpt lat="45.11106" lon="6.00521">
        <ele>729.20001220703</ele>
        <time>2024-10-15T14:34:28.000Z</time>
      </trkpt>
      <trkpt lat="45.11107" lon="6.00521">
        <ele>729.20001220703</ele>
        <time>2024-10-15T14:34:29.000Z</time>
      </trkpt>
      <trkpt lat="45.11108" lon="6.00522">
        <ele>729.20001220703</ele>
        <time>2024-10-15T14:34:30.000Z</time>
      </trkpt>
      <trkpt lat="45.11109" lon="6.00523">
        <ele>729</ele>
        <time>2024-10-15T14:34:31.000Z</time>
      </trkpt>
      <trkpt lat="45.11109" lon="6.00524">
        <ele>729</ele>
        <time>2024-10-15T14:34:32.000Z</time>
      </trkpt>
      <trkpt lat="45.11109" lon="6.00525">
        <ele>729</ele>
        <time>2024-10-15T14:34:33.000Z</time>
      </trkpt>
      <trkpt lat="45.1111" lon="6.00525">
        <ele>729</ele>
        <time>2024-10-15T14:34:34.000Z</time>
      </trkpt>
      <trkpt lat="45.11112" lon="6.00524">
        <ele>729</ele>
        <time>2024-10-15T14:34:35.000Z</time>
      </trkpt>
      <trkpt lat="45.11114" lon="6.00524">
        <ele>729</ele>
        <time>2024-10-15T14:34:36.000Z</time>
      </trkpt>
      <trkpt lat="45.11115" lon="6.00525">
        <ele>728.79998779297</ele>
        <time>2024-10-15T14:34:37.000Z</time>
      </trkpt>
      <trkpt lat="45.11117" lon="6.00526">
        <ele>728.79998779297</ele>
        <time>2024-10-15T14:34:38.000Z</time>
      </trkpt>
      <trkpt lat="45.11119" lon="6.00527">
        <ele>728.79998779297</ele>
        <time>2024-10-15T14:34:39.000Z</time>
      </trkpt>
      <trkpt lat="45.11122" lon="6.00528">
        <ele>728.79998779297</ele>
        <time>2024-10-15T14:34:40.000Z</time>
      </trkpt>
      <trkpt lat="45.11124" lon="6.00529">
        <ele>728.79998779297</ele>
        <time>2024-10-15T14:34:41.000Z</time>
      </trkpt>
      <trkpt lat="45.11125" lon="6.0053">
        <ele>728.79998779297</ele>
        <time>2024-10-15T14:34:42.000Z</time>
      </trkpt>
      <trkpt lat="45.11125" lon="6.00532">
        <ele>728.59997558594</ele>
        <time>2024-10-15T14:34:43.000Z</time>
      </trkpt>
      <trkpt lat="45.11125" lon="6.00533">
        <ele>728.59997558594</ele>
        <time>2024-10-15T14:34:44.000Z</time>
      </trkpt>
      <trkpt lat="45.11125" lon="6.00535">
        <ele>728.59997558594</ele>
        <time>2024-10-15T14:34:45.000Z</time>
      </trkpt>
      <trkpt lat="45.11127" lon="6.00536">
        <ele>728.59997558594</ele>
        <time>2024-10-15T14:34:46.000Z</time>
      </trkpt>
      <trkpt lat="45.11128" lon="6.00537">
        <ele>728.59997558594</ele>
        <time>2024-10-15T14:34:47.000Z</time>
      </trkpt>
      <trkpt lat="45.1113" lon="6.00538">
        <ele>728.59997558594</ele>
        <time>2024-10-15T14:34:48.000Z</time>
      </trkpt>
      <trkpt lat="45.11131" lon="6.00539">
        <ele>728.40002441406</ele>
        <time>2024-10-15T14:34:49.000Z</time>
      </trkpt>
      <trkpt lat="45.11132" lon="6.0054">
        <ele>728.40002441406</ele>
        <time>2024-10-15T14:34:50.000Z</time>
      </trkpt>
      <trkpt lat="45.11133" lon="6.0054">
        <ele>728.40002441406</ele>
        <time>2024-10-15T14:34:51.000Z</time>
      </trkpt>
      <trkpt lat="45.11134" lon="6.0054">
        <ele>728.59997558594</ele>
        <time>2024-10-15T14:34:52.000Z</time>
      </trkpt>
      <trkpt lat="45.11135" lon="6.00541">
        <ele>728.40002441406</ele>
        <time>2024-10-15T14:34:53.000Z</time>
      </trkpt>
      <trkpt lat="45.11135" lon="6.0054">
        <ele>728.40002441406</ele>
        <time>2024-10-15T14:34:54.000Z</time>
      </trkpt>
      <trkpt lat="45.11136" lon="6.0054">
        <ele>728.40002441406</ele>
        <time>2024-10-15T14:34:55.000Z</time>
      </trkpt>
      <trkpt lat="45.11137" lon="6.00539">
        <ele>728.40002441406</ele>
        <time>2024-10-15T14:34:56.000Z</time>
      </trkpt>
      <trkpt lat="45.11138" lon="6.00538">
        <ele>728.40002441406</ele>
        <time>2024-10-15T14:34:57.000Z</time>
      </trkpt>
      <trkpt lat="45.11139" lon="6.00537">
        <ele>728.40002441406</ele>
        <time>2024-10-15T14:34:58.000Z</time>
      </trkpt>
      <trkpt lat="45.11141" lon="6.00536">
        <ele>728.40002441406</ele>
        <time>2024-10-15T14:34:59.000Z</time>
      </trkpt>
      <trkpt lat="45.11142" lon="6.00535">
        <ele>728.40002441406</ele>
        <time>2024-10-15T14:35:00.000Z</time>
      </trkpt>
      <trkpt lat="45.11143" lon="6.00535">
        <ele>728.40002441406</ele>
        <time>2024-10-15T14:35:01.000Z</time>
      </trkpt>
      <trkpt lat="45.11145" lon="6.00534">
        <ele>728.40002441406</ele>
        <time>2024-10-15T14:35:02.000Z</time>
      </trkpt>
      <trkpt lat="45.11146" lon="6.00533">
        <ele>728.40002441406</ele>
        <time>2024-10-15T14:35:03.000Z</time>
      </trkpt>
      <trkpt lat="45.11148" lon="6.00531">
        <ele>728.59997558594</ele>
        <time>2024-10-15T14:35:04.000Z</time>
      </trkpt>
      <trkpt lat="45.1115" lon="6.0053">
        <ele>728.59997558594</ele>
        <time>2024-10-15T14:35:05.000Z</time>
      </trkpt>
      <trkpt lat="45.11151" lon="6.0053">
        <ele>728.59997558594</ele>
        <time>2024-10-15T14:35:06.000Z</time>
      </trkpt>
      <trkpt lat="45.11151" lon="6.00531">
        <ele>728.59997558594</ele>
        <time>2024-10-15T14:35:07.000Z</time>
      </trkpt>
      <trkpt lat="45.11152" lon="6.00532">
        <ele>728.59997558594</ele>
        <time>2024-10-15T14:35:08.000Z</time>
      </trkpt>
      <trkpt lat="45.11154" lon="6.00532">
        <ele>728.59997558594</ele>
        <time>2024-10-15T14:35:09.000Z</time>
      </trkpt>
      <trkpt lat="45.11155" lon="6.00532">
        <ele>728.59997558594</ele>
        <time>2024-10-15T14:35:10.000Z</time>
      </trkpt>
      <trkpt lat="45.11157" lon="6.00531">
        <ele>728.79998779297</ele>
        <time>2024-10-15T14:35:11.000Z</time>
      </trkpt>
      <trkpt lat="45.11158" lon="6.00531">
        <ele>728.79998779297</ele>
        <time>2024-10-15T14:35:12.000Z</time>
      </trkpt>
      <trkpt lat="45.11159" lon="6.00529">
        <ele>728.79998779297</ele>
        <time>2024-10-15T14:35:13.000Z</time>
      </trkpt>
      <trkpt lat="45.11161" lon="6.00527">
        <ele>728.79998779297</ele>
        <time>2024-10-15T14:35:14.000Z</time>
      </trkpt>
      <trkpt lat="45.11162" lon="6.00526">
        <ele>728.79998779297</ele>
        <time>2024-10-15T14:35:15.000Z</time>
      </trkpt>
      <trkpt lat="45.11164" lon="6.00525">
        <ele>728.79998779297</ele>
        <time>2024-10-15T14:35:16.000Z</time>
      </trkpt>
      <trkpt lat="45.11164" lon="6.00523">
        <ele>728.79998779297</ele>
        <time>2024-10-15T14:35:17.000Z</time>
      </trkpt>
      <trkpt lat="45.11166" lon="6.00522">
        <ele>728.79998779297</ele>
        <time>2024-10-15T14:35:18.000Z</time>
      </trkpt>
      <trkpt lat="45.11167" lon="6.00523">
        <ele>728.59997558594</ele>
        <time>2024-10-15T14:35:19.000Z</time>
      </trkpt>
      <trkpt lat="45.11168" lon="6.00523">
        <ele>728.59997558594</ele>
        <time>2024-10-15T14:35:20.000Z</time>
      </trkpt>
      <trkpt lat="45.11169" lon="6.00522">
        <ele>728.59997558594</ele>
        <time>2024-10-15T14:35:21.000Z</time>
      </trkpt>
      <trkpt lat="45.11171" lon="6.00522">
        <ele>728.59997558594</ele>
        <time>2024-10-15T14:35:22.000Z</time>
      </trkpt>
      <trkpt lat="45.11172" lon="6.00522">
        <ele>728.59997558594</ele>
        <time>2024-10-15T14:35:23.000Z</time>
      </trkpt>
      <trkpt lat="45.11172" lon="6.00523">
        <ele>728.59997558594</ele>
        <time>2024-10-15T14:35:24.000Z</time>
      </trkpt>
      <trkpt lat="45.11173" lon="6.00524">
        <ele>728.59997558594</ele>
        <time>2024-10-15T14:35:25.000Z</time>
      </trkpt>
      <trkpt lat="45.11174" lon="6.00524">
        <ele>728.59997558594</ele>
        <time>2024-10-15T14:35:26.000Z</time>
      </trkpt>
      <trkpt lat="45.11175" lon="6.00525">
        <ele>728.59997558594</ele>
        <time>2024-10-15T14:35:27.000Z</time>
      </trkpt>
      <trkpt lat="45.11176" lon="6.00526">
        <ele>728.59997558594</ele>
        <time>2024-10-15T14:35:28.000Z</time>
      </trkpt>
      <trkpt lat="45.11175" lon="6.00527">
        <ele>728.79998779297</ele>
        <time>2024-10-15T14:35:29.000Z</time>
      </trkpt>
      <trkpt lat="45.11176" lon="6.00527">
        <ele>728.79998779297</ele>
        <time>2024-10-15T14:35:30.000Z</time>
      </trkpt>
      <trkpt lat="45.11177" lon="6.00527">
        <ele>728.79998779297</ele>
        <time>2024-10-15T14:35:31.000Z</time>
      </trkpt>
      <trkpt lat="45.11177" lon="6.00527">
        <ele>728.79998779297</ele>
        <time>2024-10-15T14:35:32.000Z</time>
      </trkpt>
      <trkpt lat="45.11177" lon="6.00527">
        <ele>729</ele>
        <time>2024-10-15T14:35:33.000Z</time>
      </trkpt>
      <trkpt lat="45.11177" lon="6.00527">
        <ele>729</ele>
        <time>2024-10-15T14:35:34.000Z</time>
      </trkpt>
      <trkpt lat="45.11178" lon="6.00528">
        <ele>729</ele>
        <time>2024-10-15T14:35:35.000Z</time>
      </trkpt>
      <trkpt lat="45.11178" lon="6.00528">
        <ele>729.20001220703</ele>
        <time>2024-10-15T14:35:36.000Z</time>
      </trkpt>
      <trkpt lat="45.11178" lon="6.00529">
        <ele>729.20001220703</ele>
        <time>2024-10-15T14:35:37.000Z</time>
      </trkpt>
      <trkpt lat="45.11178" lon="6.00529">
        <ele>729.20001220703</ele>
        <time>2024-10-15T14:35:38.000Z</time>
      </trkpt>
      <trkpt lat="45.1118" lon="6.00529">
        <ele>729.20001220703</ele>
        <time>2024-10-15T14:35:39.000Z</time>
      </trkpt>
      <trkpt lat="45.11181" lon="6.0053">
        <ele>729.20001220703</ele>
        <time>2024-10-15T14:35:40.000Z</time>
      </trkpt>
      <trkpt lat="45.11182" lon="6.0053">
        <ele>729</ele>
        <time>2024-10-15T14:35:41.000Z</time>
      </trkpt>
      <trkpt lat="45.11183" lon="6.00528">
        <ele>728.79998779297</ele>
        <time>2024-10-15T14:35:42.000Z</time>
      </trkpt>
      <trkpt lat="45.11184" lon="6.00528">
        <ele>728.79998779297</ele>
        <time>2024-10-15T14:35:43.000Z</time>
      </trkpt>
      <trkpt lat="45.11186" lon="6.00526">
        <ele>728.79998779297</ele>
        <time>2024-10-15T14:35:44.000Z</time>
      </trkpt>
      <trkpt lat="45.11188" lon="6.00525">
        <ele>728.79998779297</ele>
        <time>2024-10-15T14:35:45.000Z</time>
      </trkpt>
      <trkpt lat="45.1119" lon="6.00524">
        <ele>728.79998779297</ele>
        <time>2024-10-15T14:35:46.000Z</time>
      </trkpt>
      <trkpt lat="45.1119" lon="6.00524">
        <ele>728.79998779297</ele>
        <time>2024-10-15T14:35:47.000Z</time>
      </trkpt>
      <trkpt lat="45.11191" lon="6.00524">
        <ele>728.79998779297</ele>
        <time>2024-10-15T14:35:48.000Z</time>
      </trkpt>
      <trkpt lat="45.11193" lon="6.00523">
        <ele>728.79998779297</ele>
        <time>2024-10-15T14:35:49.000Z</time>
      </trkpt>
      <trkpt lat="45.11195" lon="6.00524">
        <ele>728.79998779297</ele>
        <time>2024-10-15T14:35:50.000Z</time>
      </trkpt>
      <trkpt lat="45.11197" lon="6.00525">
        <ele>728.79998779297</ele>
        <time>2024-10-15T14:35:51.000Z</time>
      </trkpt>
      <trkpt lat="45.11198" lon="6.00527">
        <ele>728.79998779297</ele>
        <time>2024-10-15T14:35:52.000Z</time>
      </trkpt>
      <trkpt lat="45.11199" lon="6.00528">
        <ele>728.79998779297</ele>
        <time>2024-10-15T14:35:53.000Z</time>
      </trkpt>
      <trkpt lat="45.11201" lon="6.00529">
        <ele>728.79998779297</ele>
        <time>2024-10-15T14:35:54.000Z</time>
      </trkpt>
      <trkpt lat="45.11201" lon="6.00531">
        <ele>728.79998779297</ele>
        <time>2024-10-15T14:35:55.000Z</time>
      </trkpt>
      <trkpt lat="45.11202" lon="6.00532">
        <ele>728.79998779297</ele>
        <time>2024-10-15T14:35:56.000Z</time>
      </trkpt>
      <trkpt lat="45.11203" lon="6.00533">
        <ele>728.79998779297</ele>
        <time>2024-10-15T14:35:57.000Z</time>
      </trkpt>
      <trkpt lat="45.11204" lon="6.00533">
        <ele>728.79998779297</ele>
        <time>2024-10-15T14:35:58.000Z</time>
      </trkpt>
      <trkpt lat="45.11205" lon="6.00533">
        <ele>728.59997558594</ele>
        <time>2024-10-15T14:35:59.000Z</time>
      </trkpt>
      <trkpt lat="45.11207" lon="6.00534">
        <ele>728.59997558594</ele>
        <time>2024-10-15T14:36:00.000Z</time>
      </trkpt>
      <trkpt lat="45.11208" lon="6.00533">
        <ele>728.59997558594</ele>
        <time>2024-10-15T14:36:01.000Z</time>
      </trkpt>
      <trkpt lat="45.1121" lon="6.00533">
        <ele>728.59997558594</ele>
        <time>2024-10-15T14:36:02.000Z</time>
      </trkpt>
      <trkpt lat="45.1121" lon="6.00534">
        <ele>728.59997558594</ele>
        <time>2024-10-15T14:36:03.000Z</time>
      </trkpt>
      <trkpt lat="45.11211" lon="6.00535">
        <ele>728.59997558594</ele>
        <time>2024-10-15T14:36:04.000Z</time>
      </trkpt>
      <trkpt lat="45.11212" lon="6.00534">
        <ele>728.40002441406</ele>
        <time>2024-10-15T14:36:05.000Z</time>
      </trkpt>
      <trkpt lat="45.11212" lon="6.00535">
        <ele>728.40002441406</ele>
        <time>2024-10-15T14:36:06.000Z</time>
      </trkpt>
      <trkpt lat="45.11213" lon="6.00535">
        <ele>728.40002441406</ele>
        <time>2024-10-15T14:36:07.000Z</time>
      </trkpt>
      <trkpt lat="45.11214" lon="6.00536">
        <ele>728.40002441406</ele>
        <time>2024-10-15T14:36:08.000Z</time>
      </trkpt>
      <trkpt lat="45.11215" lon="6.00536">
        <ele>728.40002441406</ele>
        <time>2024-10-15T14:36:09.000Z</time>
      </trkpt>
      <trkpt lat="45.11216" lon="6.00536">
        <ele>728.59997558594</ele>
        <time>2024-10-15T14:36:10.000Z</time>
      </trkpt>
      <trkpt lat="45.11217" lon="6.00536">
        <ele>728.59997558594</ele>
        <time>2024-10-15T14:36:11.000Z</time>
      </trkpt>
      <trkpt lat="45.11218" lon="6.00538">
        <ele>728.59997558594</ele>
        <time>2024-10-15T14:36:12.000Z</time>
      </trkpt>
      <trkpt lat="45.11219" lon="6.00538">
        <ele>728.59997558594</ele>
        <time>2024-10-15T14:36:13.000Z</time>
      </trkpt>
      <trkpt lat="45.1122" lon="6.00538">
        <ele>728.59997558594</ele>
        <time>2024-10-15T14:36:14.000Z</time>
      </trkpt>
      <trkpt lat="45.11222" lon="6.00538">
        <ele>728.59997558594</ele>
        <time>2024-10-15T14:36:15.000Z</time>
      </trkpt>
      <trkpt lat="45.11223" lon="6.00539">
        <ele>728.59997558594</ele>
        <time>2024-10-15T14:36:16.000Z</time>
      </trkpt>
      <trkpt lat="45.11224" lon="6.0054">
        <ele>728.79998779297</ele>
        <time>2024-10-15T14:36:17.000Z</time>
      </trkpt>
      <trkpt lat="45.11226" lon="6.00541">
        <ele>728.79998779297</ele>
        <time>2024-10-15T14:36:18.000Z</time>
      </trkpt>
      <trkpt lat="45.11228" lon="6.00541">
        <ele>728.79998779297</ele>
        <time>2024-10-15T14:36:19.000Z</time>
      </trkpt>
      <trkpt lat="45.11229" lon="6.00542">
        <ele>728.79998779297</ele>
        <time>2024-10-15T14:36:20.000Z</time>
      </trkpt>
      <trkpt lat="45.1123" lon="6.00543">
        <ele>728.79998779297</ele>
        <time>2024-10-15T14:36:21.000Z</time>
      </trkpt>
      <trkpt lat="45.11233" lon="6.00544">
        <ele>728.79998779297</ele>
        <time>2024-10-15T14:36:22.000Z</time>
      </trkpt>
      <trkpt lat="45.11236" lon="6.00545">
        <ele>728.79998779297</ele>
        <time>2024-10-15T14:36:23.000Z</time>
      </trkpt>
      <trkpt lat="45.11238" lon="6.00547">
        <ele>728.79998779297</ele>
        <time>2024-10-15T14:36:24.000Z</time>
      </trkpt>
      <trkpt lat="45.11239" lon="6.00548">
        <ele>728.79998779297</ele>
        <time>2024-10-15T14:36:25.000Z</time>
      </trkpt>
      <trkpt lat="45.11239" lon="6.00548">
        <ele>728.59997558594</ele>
        <time>2024-10-15T14:36:26.000Z</time>
      </trkpt>
      <trkpt lat="45.1124" lon="6.00548">
        <ele>728.59997558594</ele>
        <time>2024-10-15T14:36:27.000Z</time>
      </trkpt>
      <trkpt lat="45.11241" lon="6.00549">
        <ele>728.59997558594</ele>
        <time>2024-10-15T14:36:28.000Z</time>
      </trkpt>
      <trkpt lat="45.11241" lon="6.0055">
        <ele>728.40002441406</ele>
        <time>2024-10-15T14:36:29.000Z</time>
      </trkpt>
      <trkpt lat="45.11242" lon="6.0055">
        <ele>728.40002441406</ele>
        <time>2024-10-15T14:36:30.000Z</time>
      </trkpt>
      <trkpt lat="45.11244" lon="6.00551">
        <ele>728.20001220703</ele>
        <time>2024-10-15T14:36:31.000Z</time>
      </trkpt>
      <trkpt lat="45.11246" lon="6.00552">
        <ele>728.20001220703</ele>
        <time>2024-10-15T14:36:32.000Z</time>
      </trkpt>
      <trkpt lat="45.11248" lon="6.00553">
        <ele>728.20001220703</ele>
        <time>2024-10-15T14:36:33.000Z</time>
      </trkpt>
      <trkpt lat="45.11249" lon="6.00554">
        <ele>728.20001220703</ele>
        <time>2024-10-15T14:36:34.000Z</time>
      </trkpt>
      <trkpt lat="45.1125" lon="6.00555">
        <ele>728.20001220703</ele>
        <time>2024-10-15T14:36:35.000Z</time>
      </trkpt>
      <trkpt lat="45.11251" lon="6.00556">
        <ele>728.20001220703</ele>
        <time>2024-10-15T14:36:36.000Z</time>
      </trkpt>
      <trkpt lat="45.11252" lon="6.00556">
        <ele>728.20001220703</ele>
        <time>2024-10-15T14:36:37.000Z</time>
      </trkpt>
      <trkpt lat="45.11252" lon="6.00557">
        <ele>728.20001220703</ele>
        <time>2024-10-15T14:36:38.000Z</time>
      </trkpt>
      <trkpt lat="45.11252" lon="6.00557">
        <ele>728.20001220703</ele>
        <time>2024-10-15T14:36:39.000Z</time>
      </trkpt>
      <trkpt lat="45.11252" lon="6.00558">
        <ele>728</ele>
        <time>2024-10-15T14:36:40.000Z</time>
      </trkpt>
      <trkpt lat="45.11252" lon="6.00559">
        <ele>728</ele>
        <time>2024-10-15T14:36:41.000Z</time>
      </trkpt>
      <trkpt lat="45.11251" lon="6.00561">
        <ele>728</ele>
        <time>2024-10-15T14:36:42.000Z</time>
      </trkpt>
      <trkpt lat="45.11249" lon="6.00563">
        <ele>728</ele>
        <time>2024-10-15T14:36:43.000Z</time>
      </trkpt>
      <trkpt lat="45.1125" lon="6.00564">
        <ele>728</ele>
        <time>2024-10-15T14:36:44.000Z</time>
      </trkpt>
      <trkpt lat="45.11252" lon="6.00564">
        <ele>728</ele>
        <time>2024-10-15T14:36:45.000Z</time>
      </trkpt>
      <trkpt lat="45.11254" lon="6.00564">
        <ele>728</ele>
        <time>2024-10-15T14:36:46.000Z</time>
      </trkpt>
      <trkpt lat="45.11255" lon="6.00565">
        <ele>728</ele>
        <time>2024-10-15T14:36:47.000Z</time>
      </trkpt>
      <trkpt lat="45.11256" lon="6.00565">
        <ele>728</ele>
        <time>2024-10-15T14:36:48.000Z</time>
      </trkpt>
      <trkpt lat="45.11257" lon="6.00566">
        <ele>728</ele>
        <time>2024-10-15T14:36:49.000Z</time>
      </trkpt>
      <trkpt lat="45.11259" lon="6.00566">
        <ele>728</ele>
        <time>2024-10-15T14:36:50.000Z</time>
      </trkpt>
      <trkpt lat="45.1126" lon="6.00566">
        <ele>728.20001220703</ele>
        <time>2024-10-15T14:36:51.000Z</time>
      </trkpt>
      <trkpt lat="45.11261" lon="6.00567">
        <ele>728.20001220703</ele>
        <time>2024-10-15T14:36:52.000Z</time>
      </trkpt>
      <trkpt lat="45.1126" lon="6.00568">
        <ele>728.20001220703</ele>
        <time>2024-10-15T14:36:53.000Z</time>
      </trkpt>
      <trkpt lat="45.1126" lon="6.00569">
        <ele>728.20001220703</ele>
        <time>2024-10-15T14:36:54.000Z</time>
      </trkpt>
      <trkpt lat="45.11262" lon="6.00568">
        <ele>728.20001220703</ele>
        <time>2024-10-15T14:36:55.000Z</time>
      </trkpt>
      <trkpt lat="45.11263" lon="6.00568">
        <ele>728.20001220703</ele>
        <time>2024-10-15T14:36:56.000Z</time>
      </trkpt>
      <trkpt lat="45.11263" lon="6.00569">
        <ele>728</ele>
        <time>2024-10-15T14:36:57.000Z</time>
      </trkpt>
      <trkpt lat="45.11265" lon="6.00569">
        <ele>728</ele>
        <time>2024-10-15T14:36:58.000Z</time>
      </trkpt>
      <trkpt lat="45.11266" lon="6.00569">
        <ele>728</ele>
        <time>2024-10-15T14:36:59.000Z</time>
      </trkpt>
      <trkpt lat="45.11267" lon="6.0057">
        <ele>728</ele>
        <time>2024-10-15T14:37:00.000Z</time>
      </trkpt>
      <trkpt lat="45.11268" lon="6.00572">
        <ele>728</ele>
        <time>2024-10-15T14:37:01.000Z</time>
      </trkpt>
      <trkpt lat="45.11269" lon="6.00572">
        <ele>728</ele>
        <time>2024-10-15T14:37:02.000Z</time>
      </trkpt>
      <trkpt lat="45.11271" lon="6.00572">
        <ele>728</ele>
        <time>2024-10-15T14:37:03.000Z</time>
      </trkpt>
      <trkpt lat="45.11272" lon="6.00572">
        <ele>728</ele>
        <time>2024-10-15T14:37:04.000Z</time>
      </trkpt>
      <trkpt lat="45.11273" lon="6.00573">
        <ele>728</ele>
        <time>2024-10-15T14:37:05.000Z</time>
      </trkpt>
      <trkpt lat="45.11274" lon="6.00574">
        <ele>728</ele>
        <time>2024-10-15T14:37:06.000Z</time>
      </trkpt>
      <trkpt lat="45.11276" lon="6.00574">
        <ele>727.79998779297</ele>
        <time>2024-10-15T14:37:07.000Z</time>
      </trkpt>
      <trkpt lat="45.11277" lon="6.00573">
        <ele>727.79998779297</ele>
        <time>2024-10-15T14:37:08.000Z</time>
      </trkpt>
      <trkpt lat="45.11277" lon="6.00573">
        <ele>727.59997558594</ele>
        <time>2024-10-15T14:37:09.000Z</time>
      </trkpt>
      <trkpt lat="45.11278" lon="6.00573">
        <ele>727.59997558594</ele>
        <time>2024-10-15T14:37:10.000Z</time>
      </trkpt>
      <trkpt lat="45.11279" lon="6.00572">
        <ele>727.59997558594</ele>
        <time>2024-10-15T14:37:11.000Z</time>
      </trkpt>
      <trkpt lat="45.11282" lon="6.0057">
        <ele>727.59997558594</ele>
        <time>2024-10-15T14:37:12.000Z</time>
      </trkpt>
      <trkpt lat="45.11282" lon="6.00569">
        <ele>727.59997558594</ele>
        <time>2024-10-15T14:37:13.000Z</time>
      </trkpt>
      <trkpt lat="45.11282" lon="6.00569">
        <ele>727.59997558594</ele>
        <time>2024-10-15T14:37:14.000Z</time>
      </trkpt>
      <trkpt lat="45.11283" lon="6.00569">
        <ele>727.59997558594</ele>
        <time>2024-10-15T14:37:15.000Z</time>
      </trkpt>
      <trkpt lat="45.11285" lon="6.00571">
        <ele>727.59997558594</ele>
        <time>2024-10-15T14:37:16.000Z</time>
      </trkpt>
      <trkpt lat="45.11287" lon="6.00571">
        <ele>727.59997558594</ele>
        <time>2024-10-15T14:37:17.000Z</time>
      </trkpt>
      <trkpt lat="45.1129" lon="6.0057">
        <ele>727.59997558594</ele>
        <time>2024-10-15T14:37:18.000Z</time>
      </trkpt>
      <trkpt lat="45.11292" lon="6.00569">
        <ele>727.59997558594</ele>
        <time>2024-10-15T14:37:19.000Z</time>
      </trkpt>
      <trkpt lat="45.11294" lon="6.00568">
        <ele>727.59997558594</ele>
        <time>2024-10-15T14:37:20.000Z</time>
      </trkpt>
      <trkpt lat="45.11296" lon="6.00568">
        <ele>727.59997558594</ele>
        <time>2024-10-15T14:37:21.000Z</time>
      </trkpt>
      <trkpt lat="45.11298" lon="6.00566">
        <ele>727.59997558594</ele>
        <time>2024-10-15T14:37:22.000Z</time>
      </trkpt>
      <trkpt lat="45.113" lon="6.00566">
        <ele>727.59997558594</ele>
        <time>2024-10-15T14:37:23.000Z</time>
      </trkpt>
      <trkpt lat="45.11302" lon="6.00566">
        <ele>727.59997558594</ele>
        <time>2024-10-15T14:37:24.000Z</time>
      </trkpt>
      <trkpt lat="45.11304" lon="6.00566">
        <ele>727.59997558594</ele>
        <time>2024-10-15T14:37:25.000Z</time>
      </trkpt>
      <trkpt lat="45.11305" lon="6.00566">
        <ele>727.79998779297</ele>
        <time>2024-10-15T14:37:26.000Z</time>
      </trkpt>
      <trkpt lat="45.11306" lon="6.00566">
        <ele>727.79998779297</ele>
        <time>2024-10-15T14:37:27.000Z</time>
      </trkpt>
      <trkpt lat="45.11306" lon="6.00565">
        <ele>727.79998779297</ele>
        <time>2024-10-15T14:37:28.000Z</time>
      </trkpt>
      <trkpt lat="45.11306" lon="6.00565">
        <ele>727.79998779297</ele>
        <time>2024-10-15T14:37:29.000Z</time>
      </trkpt>
      <trkpt lat="45.11307" lon="6.00565">
        <ele>728</ele>
        <time>2024-10-15T14:37:30.000Z</time>
      </trkpt>
      <trkpt lat="45.11307" lon="6.00565">
        <ele>728.20001220703</ele>
        <time>2024-10-15T14:37:31.000Z</time>
      </trkpt>
      <trkpt lat="45.11308" lon="6.00565">
        <ele>728.20001220703</ele>
        <time>2024-10-15T14:37:32.000Z</time>
      </trkpt>
      <trkpt lat="45.11309" lon="6.00564">
        <ele>728.20001220703</ele>
        <time>2024-10-15T14:37:33.000Z</time>
      </trkpt>
      <trkpt lat="45.1131" lon="6.00563">
        <ele>728.20001220703</ele>
        <time>2024-10-15T14:37:34.000Z</time>
      </trkpt>
      <trkpt lat="45.11312" lon="6.00563">
        <ele>728.40002441406</ele>
        <time>2024-10-15T14:37:35.000Z</time>
      </trkpt>
      <trkpt lat="45.11313" lon="6.00563">
        <ele>728.40002441406</ele>
        <time>2024-10-15T14:37:36.000Z</time>
      </trkpt>
      <trkpt lat="45.11314" lon="6.00562">
        <ele>728.40002441406</ele>
        <time>2024-10-15T14:37:37.000Z</time>
      </trkpt>
      <trkpt lat="45.11315" lon="6.00562">
        <ele>728.40002441406</ele>
        <time>2024-10-15T14:37:38.000Z</time>
      </trkpt>
      <trkpt lat="45.11315" lon="6.00562">
        <ele>728.40002441406</ele>
        <time>2024-10-15T14:37:39.000Z</time>
      </trkpt>
      <trkpt lat="45.11316" lon="6.00562">
        <ele>728.40002441406</ele>
        <time>2024-10-15T14:37:40.000Z</time>
      </trkpt>
      <trkpt lat="45.11318" lon="6.00561">
        <ele>728.40002441406</ele>
        <time>2024-10-15T14:37:41.000Z</time>
      </trkpt>
      <trkpt lat="45.1132" lon="6.0056">
        <ele>728.40002441406</ele>
        <time>2024-10-15T14:37:42.000Z</time>
      </trkpt>
      <trkpt lat="45.11321" lon="6.0056">
        <ele>728.40002441406</ele>
        <time>2024-10-15T14:37:43.000Z</time>
      </trkpt>
      <trkpt lat="45.11321" lon="6.00559">
        <ele>728.40002441406</ele>
        <time>2024-10-15T14:37:44.000Z</time>
      </trkpt>
      <trkpt lat="45.11322" lon="6.00558">
        <ele>728.20001220703</ele>
        <time>2024-10-15T14:37:45.000Z</time>
      </trkpt>
      <trkpt lat="45.11323" lon="6.00558">
        <ele>728.20001220703</ele>
        <time>2024-10-15T14:37:46.000Z</time>
      </trkpt>
      <trkpt lat="45.11324" lon="6.00556">
        <ele>728.20001220703</ele>
        <time>2024-10-15T14:37:47.000Z</time>
      </trkpt>
      <trkpt lat="45.11324" lon="6.00555">
        <ele>728</ele>
        <time>2024-10-15T14:37:48.000Z</time>
      </trkpt>
      <trkpt lat="45.11326" lon="6.00554">
        <ele>728</ele>
        <time>2024-10-15T14:37:49.000Z</time>
      </trkpt>
      <trkpt lat="45.11326" lon="6.00553">
        <ele>728</ele>
        <time>2024-10-15T14:37:50.000Z</time>
      </trkpt>
      <trkpt lat="45.1133" lon="6.00552">
        <ele>728</ele>
        <time>2024-10-15T14:37:51.000Z</time>
      </trkpt>
      <trkpt lat="45.11334" lon="6.0055">
        <ele>728</ele>
        <time>2024-10-15T14:37:52.000Z</time>
      </trkpt>
      <trkpt lat="45.11337" lon="6.0055">
        <ele>728.20001220703</ele>
        <time>2024-10-15T14:37:53.000Z</time>
      </trkpt>
      <trkpt lat="45.11338" lon="6.0055">
        <ele>728.20001220703</ele>
        <time>2024-10-15T14:37:54.000Z</time>
      </trkpt>
      <trkpt lat="45.11337" lon="6.0055">
        <ele>728.20001220703</ele>
        <time>2024-10-15T14:37:55.000Z</time>
      </trkpt>
      <trkpt lat="45.11337" lon="6.00548">
        <ele>728.20001220703</ele>
        <time>2024-10-15T14:37:56.000Z</time>
      </trkpt>
      <trkpt lat="45.11338" lon="6.00546">
        <ele>728</ele>
        <time>2024-10-15T14:37:57.000Z</time>
      </trkpt>
      <trkpt lat="45.1134" lon="6.00544">
        <ele>728</ele>
        <time>2024-10-15T14:37:58.000Z</time>
      </trkpt>
      <trkpt lat="45.11341" lon="6.00543">
        <ele>728</ele>
        <time>2024-10-15T14:37:59.000Z</time>
      </trkpt>
      <trkpt lat="45.11343" lon="6.00542">
        <ele>728</ele>
        <time>2024-10-15T14:38:00.000Z</time>
      </trkpt>
      <trkpt lat="45.11344" lon="6.00541">
        <ele>728</ele>
        <time>2024-10-15T14:38:01.000Z</time>
      </trkpt>
      <trkpt lat="45.11345" lon="6.00541">
        <ele>728.20001220703</ele>
        <time>2024-10-15T14:38:02.000Z</time>
      </trkpt>
      <trkpt lat="45.11347" lon="6.0054">
        <ele>728.20001220703</ele>
        <time>2024-10-15T14:38:03.000Z</time>
      </trkpt>
      <trkpt lat="45.11348" lon="6.00539">
        <ele>728.20001220703</ele>
        <time>2024-10-15T14:38:04.000Z</time>
      </trkpt>
      <trkpt lat="45.11348" lon="6.00538">
        <ele>728.20001220703</ele>
        <time>2024-10-15T14:38:05.000Z</time>
      </trkpt>
      <trkpt lat="45.11349" lon="6.00537">
        <ele>728.20001220703</ele>
        <time>2024-10-15T14:38:06.000Z</time>
      </trkpt>
      <trkpt lat="45.11349" lon="6.00535">
        <ele>728.20001220703</ele>
        <time>2024-10-15T14:38:07.000Z</time>
      </trkpt>
      <trkpt lat="45.1135" lon="6.00534">
        <ele>728.20001220703</ele>
        <time>2024-10-15T14:38:08.000Z</time>
      </trkpt>
      <trkpt lat="45.11351" lon="6.00534">
        <ele>728.20001220703</ele>
        <time>2024-10-15T14:38:09.000Z</time>
      </trkpt>
      <trkpt lat="45.11352" lon="6.00533">
        <ele>728.20001220703</ele>
        <time>2024-10-15T14:38:10.000Z</time>
      </trkpt>
      <trkpt lat="45.11352" lon="6.00532">
        <ele>728</ele>
        <time>2024-10-15T14:38:11.000Z</time>
      </trkpt>
      <trkpt lat="45.11353" lon="6.00531">
        <ele>728</ele>
        <time>2024-10-15T14:38:12.000Z</time>
      </trkpt>
      <trkpt lat="45.11355" lon="6.0053">
        <ele>728.20001220703</ele>
        <time>2024-10-15T14:38:13.000Z</time>
      </trkpt>
      <trkpt lat="45.11357" lon="6.00529">
        <ele>728.20001220703</ele>
        <time>2024-10-15T14:38:14.000Z</time>
      </trkpt>
      <trkpt lat="45.11358" lon="6.00528">
        <ele>728.20001220703</ele>
        <time>2024-10-15T14:38:15.000Z</time>
      </trkpt>
      <trkpt lat="45.11359" lon="6.00527">
        <ele>728.20001220703</ele>
        <time>2024-10-15T14:38:16.000Z</time>
      </trkpt>
      <trkpt lat="45.1136" lon="6.00527">
        <ele>728.20001220703</ele>
        <time>2024-10-15T14:38:17.000Z</time>
      </trkpt>
      <trkpt lat="45.11361" lon="6.00527">
        <ele>728.20001220703</ele>
        <time>2024-10-15T14:38:18.000Z</time>
      </trkpt>
      <trkpt lat="45.11362" lon="6.00527">
        <ele>728.20001220703</ele>
        <time>2024-10-15T14:38:19.000Z</time>
      </trkpt>
      <trkpt lat="45.11363" lon="6.00527">
        <ele>728.20001220703</ele>
        <time>2024-10-15T14:38:20.000Z</time>
      </trkpt>
      <trkpt lat="45.11364" lon="6.00526">
        <ele>728.20001220703</ele>
        <time>2024-10-15T14:38:21.000Z</time>
      </trkpt>
      <trkpt lat="45.11365" lon="6.00526">
        <ele>728</ele>
        <time>2024-10-15T14:38:22.000Z</time>
      </trkpt>
      <trkpt lat="45.11366" lon="6.00526">
        <ele>728</ele>
        <time>2024-10-15T14:38:23.000Z</time>
      </trkpt>
      <trkpt lat="45.11368" lon="6.00526">
        <ele>728</ele>
        <time>2024-10-15T14:38:24.000Z</time>
      </trkpt>
      <trkpt lat="45.1137" lon="6.00527">
        <ele>727.79998779297</ele>
        <time>2024-10-15T14:38:25.000Z</time>
      </trkpt>
      <trkpt lat="45.11372" lon="6.00528">
        <ele>727.79998779297</ele>
        <time>2024-10-15T14:38:26.000Z</time>
      </trkpt>
      <trkpt lat="45.11373" lon="6.00528">
        <ele>727.40002441406</ele>
        <time>2024-10-15T14:38:27.000Z</time>
      </trkpt>
      <trkpt lat="45.11373" lon="6.00528">
        <ele>727.40002441406</ele>
        <time>2024-10-15T14:38:28.000Z</time>
      </trkpt>
      <trkpt lat="45.11372" lon="6.00528">
        <ele>727.40002441406</ele>
        <time>2024-10-15T14:38:29.000Z</time>
      </trkpt>
      <trkpt lat="45.11372" lon="6.00529">
        <ele>727.40002441406</ele>
        <time>2024-10-15T14:38:30.000Z</time>
      </trkpt>
      <trkpt lat="45.11376" lon="6.00529">
        <ele>727.59997558594</ele>
        <time>2024-10-15T14:38:31.000Z</time>
      </trkpt>
      <trkpt lat="45.11378" lon="6.00529">
        <ele>727.59997558594</ele>
        <time>2024-10-15T14:38:32.000Z</time>
      </trkpt>
      <trkpt lat="45.1138" lon="6.00529">
        <ele>727.59997558594</ele>
        <time>2024-10-15T14:38:33.000Z</time>
      </trkpt>
      <trkpt lat="45.11381" lon="6.00529">
        <ele>727.59997558594</ele>
        <time>2024-10-15T14:38:34.000Z</time>
      </trkpt>
      <trkpt lat="45.11382" lon="6.00528">
        <ele>727.59997558594</ele>
        <time>2024-10-15T14:38:35.000Z</time>
      </trkpt>
      <trkpt lat="45.11383" lon="6.00528">
        <ele>727.59997558594</ele>
        <time>2024-10-15T14:38:36.000Z</time>
      </trkpt>
      <trkpt lat="45.11385" lon="6.00528">
        <ele>727.59997558594</ele>
        <time>2024-10-15T14:38:37.000Z</time>
      </trkpt>
      <trkpt lat="45.11385" lon="6.00528">
        <ele>727.59997558594</ele>
        <time>2024-10-15T14:38:38.000Z</time>
      </trkpt>
      <trkpt lat="45.11385" lon="6.00528">
        <ele>727.59997558594</ele>
        <time>2024-10-15T14:38:39.000Z</time>
      </trkpt>
      <trkpt lat="45.11386" lon="6.00528">
        <ele>727.40002441406</ele>
        <time>2024-10-15T14:38:40.000Z</time>
      </trkpt>
      <trkpt lat="45.11387" lon="6.00527">
        <ele>727.40002441406</ele>
        <time>2024-10-15T14:38:41.000Z</time>
      </trkpt>
      <trkpt lat="45.11387" lon="6.00526">
        <ele>727.20001220703</ele>
        <time>2024-10-15T14:38:42.000Z</time>
      </trkpt>
      <trkpt lat="45.11388" lon="6.00526">
        <ele>727</ele>
        <time>2024-10-15T14:38:43.000Z</time>
      </trkpt>
      <trkpt lat="45.11389" lon="6.00526">
        <ele>727</ele>
        <time>2024-10-15T14:38:44.000Z</time>
      </trkpt>
      <trkpt lat="45.1139" lon="6.00525">
        <ele>727</ele>
        <time>2024-10-15T14:38:45.000Z</time>
      </trkpt>
      <trkpt lat="45.11391" lon="6.00524">
        <ele>727</ele>
        <time>2024-10-15T14:38:46.000Z</time>
      </trkpt>
      <trkpt lat="45.11393" lon="6.00523">
        <ele>727</ele>
        <time>2024-10-15T14:38:47.000Z</time>
      </trkpt>
      <trkpt lat="45.11394" lon="6.00523">
        <ele>727</ele>
        <time>2024-10-15T14:38:48.000Z</time>
      </trkpt>
      <trkpt lat="45.11394" lon="6.00522">
        <ele>726.79998779297</ele>
        <time>2024-10-15T14:38:49.000Z</time>
      </trkpt>
      <trkpt lat="45.11395" lon="6.00521">
        <ele>726.79998779297</ele>
        <time>2024-10-15T14:38:50.000Z</time>
      </trkpt>
      <trkpt lat="45.11396" lon="6.0052">
        <ele>726.79998779297</ele>
        <time>2024-10-15T14:38:51.000Z</time>
      </trkpt>
      <trkpt lat="45.11397" lon="6.0052">
        <ele>726.79998779297</ele>
        <time>2024-10-15T14:38:52.000Z</time>
      </trkpt>
      <trkpt lat="45.11398" lon="6.0052">
        <ele>726.79998779297</ele>
        <time>2024-10-15T14:38:53.000Z</time>
      </trkpt>
      <trkpt lat="45.11399" lon="6.00519">
        <ele>726.79998779297</ele>
        <time>2024-10-15T14:38:54.000Z</time>
      </trkpt>
      <trkpt lat="45.11399" lon="6.00518">
        <ele>726.79998779297</ele>
        <time>2024-10-15T14:38:55.000Z</time>
      </trkpt>
      <trkpt lat="45.114" lon="6.00517">
        <ele>726.79998779297</ele>
        <time>2024-10-15T14:38:56.000Z</time>
      </trkpt>
      <trkpt lat="45.11401" lon="6.00517">
        <ele>726.79998779297</ele>
        <time>2024-10-15T14:38:57.000Z</time>
      </trkpt>
      <trkpt lat="45.11403" lon="6.00516">
        <ele>726.79998779297</ele>
        <time>2024-10-15T14:38:58.000Z</time>
      </trkpt>
      <trkpt lat="45.11404" lon="6.00515">
        <ele>726.59997558594</ele>
        <time>2024-10-15T14:38:59.000Z</time>
      </trkpt>
      <trkpt lat="45.11404" lon="6.00515">
        <ele>726.79998779297</ele>
        <time>2024-10-15T14:39:00.000Z</time>
      </trkpt>
      <trkpt lat="45.11405" lon="6.00514">
        <ele>726.79998779297</ele>
        <time>2024-10-15T14:39:01.000Z</time>
      </trkpt>
      <trkpt lat="45.11406" lon="6.00514">
        <ele>726.79998779297</ele>
        <time>2024-10-15T14:39:02.000Z</time>
      </trkpt>
      <trkpt lat="45.11408" lon="6.00514">
        <ele>726.79998779297</ele>
        <time>2024-10-15T14:39:03.000Z</time>
      </trkpt>
      <trkpt lat="45.1141" lon="6.00514">
        <ele>726.79998779297</ele>
        <time>2024-10-15T14:39:04.000Z</time>
      </trkpt>
      <trkpt lat="45.11413" lon="6.00513">
        <ele>726.79998779297</ele>
        <time>2024-10-15T14:39:05.000Z</time>
      </trkpt>
      <trkpt lat="45.11414" lon="6.00512">
        <ele>726.79998779297</ele>
        <time>2024-10-15T14:39:06.000Z</time>
      </trkpt>
      <trkpt lat="45.11415" lon="6.00512">
        <ele>726.79998779297</ele>
        <time>2024-10-15T14:39:07.000Z</time>
      </trkpt>
      <trkpt lat="45.11416" lon="6.00511">
        <ele>726.79998779297</ele>
        <time>2024-10-15T14:39:08.000Z</time>
      </trkpt>
      <trkpt lat="45.11419" lon="6.0051">
        <ele>726.79998779297</ele>
        <time>2024-10-15T14:39:09.000Z</time>
      </trkpt>
      <trkpt lat="45.1142" lon="6.00509">
        <ele>726.79998779297</ele>
        <time>2024-10-15T14:39:10.000Z</time>
      </trkpt>
      <trkpt lat="45.11421" lon="6.00507">
        <ele>726.79998779297</ele>
        <time>2024-10-15T14:39:11.000Z</time>
      </trkpt>
      <trkpt lat="45.11422" lon="6.00506">
        <ele>726.79998779297</ele>
        <time>2024-10-15T14:39:12.000Z</time>
      </trkpt>
      <trkpt lat="45.11422" lon="6.00504">
        <ele>726.79998779297</ele>
        <time>2024-10-15T14:39:13.000Z</time>
      </trkpt>
      <trkpt lat="45.11422" lon="6.00502">
        <ele>727</ele>
        <time>2024-10-15T14:39:14.000Z</time>
      </trkpt>
      <trkpt lat="45.11422" lon="6.005">
        <ele>727</ele>
        <time>2024-10-15T14:39:15.000Z</time>
      </trkpt>
      <trkpt lat="45.11421" lon="6.00497">
        <ele>726.79998779297</ele>
        <time>2024-10-15T14:39:16.000Z</time>
      </trkpt>
      <trkpt lat="45.11422" lon="6.00496">
        <ele>726.79998779297</ele>
        <time>2024-10-15T14:39:17.000Z</time>
      </trkpt>
      <trkpt lat="45.11421" lon="6.00494">
        <ele>726.79998779297</ele>
        <time>2024-10-15T14:39:18.000Z</time>
      </trkpt>
      <trkpt lat="45.11422" lon="6.00492">
        <ele>726.59997558594</ele>
        <time>2024-10-15T14:39:19.000Z</time>
      </trkpt>
      <trkpt lat="45.11422" lon="6.00491">
        <ele>726.59997558594</ele>
        <time>2024-10-15T14:39:20.000Z</time>
      </trkpt>
      <trkpt lat="45.1142" lon="6.00489">
        <ele>726.59997558594</ele>
        <time>2024-10-15T14:39:21.000Z</time>
      </trkpt>
      <trkpt lat="45.1142" lon="6.00487">
        <ele>726.59997558594</ele>
        <time>2024-10-15T14:39:22.000Z</time>
      </trkpt>
      <trkpt lat="45.1142" lon="6.00486">
        <ele>726.59997558594</ele>
        <time>2024-10-15T14:39:23.000Z</time>
      </trkpt>
      <trkpt lat="45.1142" lon="6.00484">
        <ele>726.59997558594</ele>
        <time>2024-10-15T14:39:24.000Z</time>
      </trkpt>
      <trkpt lat="45.1142" lon="6.00482">
        <ele>726.40002441406</ele>
        <time>2024-10-15T14:39:25.000Z</time>
      </trkpt>
      <trkpt lat="45.11421" lon="6.0048">
        <ele>726.40002441406</ele>
        <time>2024-10-15T14:39:26.000Z</time>
      </trkpt>
      <trkpt lat="45.11421" lon="6.00478">
        <ele>726.40002441406</ele>
        <time>2024-10-15T14:39:27.000Z</time>
      </trkpt>
      <trkpt lat="45.1142" lon="6.00477">
        <ele>726.40002441406</ele>
        <time>2024-10-15T14:39:28.000Z</time>
      </trkpt>
      <trkpt lat="45.1142" lon="6.00475">
        <ele>726.40002441406</ele>
        <time>2024-10-15T14:39:29.000Z</time>
      </trkpt>
      <trkpt lat="45.11419" lon="6.00475">
        <ele>726.40002441406</ele>
        <time>2024-10-15T14:39:30.000Z</time>
      </trkpt>
      <trkpt lat="45.11419" lon="6.00474">
        <ele>726.40002441406</ele>
        <time>2024-10-15T14:39:31.000Z</time>
      </trkpt>
      <trkpt lat="45.1142" lon="6.00472">
        <ele>726.40002441406</ele>
        <time>2024-10-15T14:39:32.000Z</time>
      </trkpt>
      <trkpt lat="45.11421" lon="6.0047">
        <ele>726.40002441406</ele>
        <time>2024-10-15T14:39:33.000Z</time>
      </trkpt>
      <trkpt lat="45.11422" lon="6.00469">
        <ele>726.59997558594</ele>
        <time>2024-10-15T14:39:34.000Z</time>
      </trkpt>
      <trkpt lat="45.11422" lon="6.00466">
        <ele>726.59997558594</ele>
        <time>2024-10-15T14:39:35.000Z</time>
      </trkpt>
      <trkpt lat="45.11423" lon="6.00465">
        <ele>726.59997558594</ele>
        <time>2024-10-15T14:39:36.000Z</time>
      </trkpt>
      <trkpt lat="45.11424" lon="6.00464">
        <ele>726.79998779297</ele>
        <time>2024-10-15T14:39:37.000Z</time>
      </trkpt>
      <trkpt lat="45.11425" lon="6.00461">
        <ele>727</ele>
        <time>2024-10-15T14:39:38.000Z</time>
      </trkpt>
      <trkpt lat="45.11425" lon="6.00458">
        <ele>727.20001220703</ele>
        <time>2024-10-15T14:39:39.000Z</time>
      </trkpt>
      <trkpt lat="45.11426" lon="6.00457">
        <ele>727.20001220703</ele>
        <time>2024-10-15T14:39:40.000Z</time>
      </trkpt>
      <trkpt lat="45.11427" lon="6.00456">
        <ele>727.20001220703</ele>
        <time>2024-10-15T14:39:41.000Z</time>
      </trkpt>
      <trkpt lat="45.11427" lon="6.00455">
        <ele>727.40002441406</ele>
        <time>2024-10-15T14:39:42.000Z</time>
      </trkpt>
      <trkpt lat="45.11427" lon="6.00454">
        <ele>727.40002441406</ele>
        <time>2024-10-15T14:39:43.000Z</time>
      </trkpt>
      <trkpt lat="45.11428" lon="6.00453">
        <ele>727.59997558594</ele>
        <time>2024-10-15T14:39:44.000Z</time>
      </trkpt>
      <trkpt lat="45.1143" lon="6.00452">
        <ele>727.59997558594</ele>
        <time>2024-10-15T14:39:45.000Z</time>
      </trkpt>
      <trkpt lat="45.11432" lon="6.00452">
        <ele>727.59997558594</ele>
        <time>2024-10-15T14:39:46.000Z</time>
      </trkpt>
      <trkpt lat="45.11432" lon="6.00453">
        <ele>727.59997558594</ele>
        <time>2024-10-15T14:39:47.000Z</time>
      </trkpt>
      <trkpt lat="45.11433" lon="6.00453">
        <ele>727.59997558594</ele>
        <time>2024-10-15T14:39:48.000Z</time>
      </trkpt>
      <trkpt lat="45.11436" lon="6.00453">
        <ele>727.59997558594</ele>
        <time>2024-10-15T14:39:49.000Z</time>
      </trkpt>
      <trkpt lat="45.11438" lon="6.00452">
        <ele>727.59997558594</ele>
        <time>2024-10-15T14:39:50.000Z</time>
      </trkpt>
      <trkpt lat="45.11439" lon="6.00452">
        <ele>727.59997558594</ele>
        <time>2024-10-15T14:39:51.000Z</time>
      </trkpt>
      <trkpt lat="45.1144" lon="6.00452">
        <ele>727.59997558594</ele>
        <time>2024-10-15T14:39:52.000Z</time>
      </trkpt>
      <trkpt lat="45.11442" lon="6.00451">
        <ele>727.59997558594</ele>
        <time>2024-10-15T14:39:53.000Z</time>
      </trkpt>
      <trkpt lat="45.11443" lon="6.00451">
        <ele>727.40002441406</ele>
        <time>2024-10-15T14:39:54.000Z</time>
      </trkpt>
    </trkseg>
  </trk>
</gpx>